<?xml version='1.0' encoding='UTF-8'?><gpx version="1.1" creator="JPX - https://github.com/jenetics/jpx" xmlns="http://www.topografix.com/GPX/1/1"><trk><trkseg><trkpt lat="44.727795" lon="7.821935"><ele>328.5714285714286</ele><time>2026-04-11T06:30:32.451Z</time></trkpt><trkpt lat="44.727715" lon="7.82192"><ele>327.14285714285717</ele><time>2026-04-11T06:30:49.451Z</time></trkpt><trkpt lat="44.7277067" lon="7.821825"><ele>325.7142857142857</ele><time>2026-04-11T06:37:17.451Z</time></trkpt><trkpt lat="44.7276933" lon="7.8217367"><ele>324.28571428571433</ele><time>2026-04-11T06:37:19.451Z</time></trkpt><trkpt lat="44.727705" lon="7.8216317"><ele>322.8571428571429</ele><time>2026-04-11T06:37:21.451Z</time></trkpt><trkpt lat="44.7277333" lon="7.8215367"><ele>321.42857142857144</ele><time>2026-04-11T06:37:23.451Z</time></trkpt><trkpt lat="44.7277883" lon="7.8214817"><ele>320.0</ele><time>2026-04-11T06:37:25.451Z</time></trkpt><trkpt lat="44.72785" lon="7.8214417"><ele>319.33333333333337</ele><time>2026-04-11T06:37:27.451Z</time></trkpt><trkpt lat="44.7279417" lon="7.8214067"><ele>318.6666666666667</ele><time>2026-04-11T06:37:29.451Z</time></trkpt><trkpt lat="44.7280183" lon="7.8213683"><ele>318.0</ele><time>2026-04-11T06:37:31.451Z</time></trkpt><trkpt lat="44.7281" lon="7.8213333"><ele>317.3333333333333</ele><time>2026-04-11T06:37:33.451Z</time></trkpt><trkpt lat="44.7281833" lon="7.8213183"><ele>316.66666666666663</ele><time>2026-04-11T06:37:35.451Z</time></trkpt><trkpt lat="44.7282733" lon="7.8213167"><ele>316.0</ele><time>2026-04-11T06:37:37.451Z</time></trkpt><trkpt lat="44.7283567" lon="7.82131"><ele>316.0</ele><time>2026-04-11T06:37:39.451Z</time></trkpt><trkpt lat="44.7284683" lon="7.8212767"><ele>316.0</ele><time>2026-04-11T06:37:42.451Z</time></trkpt><trkpt lat="44.7285483" lon="7.8212167"><ele>316.0</ele><time>2026-04-11T06:37:44.451Z</time></trkpt><trkpt lat="44.7286267" lon="7.821145"><ele>316.0</ele><time>2026-04-11T06:37:46.451Z</time></trkpt><trkpt lat="44.7287" lon="7.821065"><ele>316.0</ele><time>2026-04-11T06:37:48.451Z</time></trkpt><trkpt lat="44.7287683" lon="7.82098"><ele>316.3333333333333</ele><time>2026-04-11T06:37:50.451Z</time></trkpt><trkpt lat="44.7288283" lon="7.820885"><ele>316.66666666666663</ele><time>2026-04-11T06:37:52.451Z</time></trkpt><trkpt lat="44.7288733" lon="7.8207867"><ele>317.0</ele><time>2026-04-11T06:37:54.451Z</time></trkpt><trkpt lat="44.7289083" lon="7.8206983"><ele>317.3333333333333</ele><time>2026-04-11T06:37:56.451Z</time></trkpt><trkpt lat="44.7289467" lon="7.8206033"><ele>317.6666666666667</ele><time>2026-04-11T06:37:58.451Z</time></trkpt><trkpt lat="44.7289867" lon="7.8204967"><ele>318.0</ele><time>2026-04-11T06:38:00.451Z</time></trkpt><trkpt lat="44.7290183" lon="7.8203967"><ele>318.0</ele><time>2026-04-11T06:38:02.451Z</time></trkpt><trkpt lat="44.729035" lon="7.820305"><ele>318.0</ele><time>2026-04-11T06:38:04.452Z</time></trkpt><trkpt lat="44.729025" lon="7.8202133"><ele>318.0</ele><time>2026-04-11T06:38:06.451Z</time></trkpt><trkpt lat="44.728965" lon="7.820145"><ele>318.0</ele><time>2026-04-11T06:38:08.452Z</time></trkpt><trkpt lat="44.7289033" lon="7.8201267"><ele>318.0</ele><time>2026-04-11T06:38:09.451Z</time></trkpt><trkpt lat="44.72879" lon="7.8200983"><ele>318.0</ele><time>2026-04-11T06:38:11.451Z</time></trkpt><trkpt lat="44.7287017" lon="7.8200667"><ele>314.4</ele><time>2026-04-11T06:38:13.451Z</time></trkpt><trkpt lat="44.7286167" lon="7.820035"><ele>310.8</ele><time>2026-04-11T06:38:15.451Z</time></trkpt><trkpt lat="44.728525" lon="7.820015"><ele>307.2</ele><time>2026-04-11T06:38:17.451Z</time></trkpt><trkpt lat="44.7284217" lon="7.8199983"><ele>303.6</ele><time>2026-04-11T06:38:19.451Z</time></trkpt><trkpt lat="44.7283283" lon="7.81997"><ele>300.0</ele><time>2026-04-11T06:38:21.452Z</time></trkpt><trkpt lat="44.7282367" lon="7.819955"><ele>298.8333333333333</ele><time>2026-04-11T06:38:23.451Z</time></trkpt><trkpt lat="44.7281533" lon="7.8199433"><ele>297.6666666666667</ele><time>2026-04-11T06:38:25.451Z</time></trkpt><trkpt lat="44.72808" lon="7.819925"><ele>296.5</ele><time>2026-04-11T06:38:27.451Z</time></trkpt><trkpt lat="44.728005" lon="7.8199083"><ele>295.33333333333337</ele><time>2026-04-11T06:38:29.451Z</time></trkpt><trkpt lat="44.7279267" lon="7.8198833"><ele>294.1666666666667</ele><time>2026-04-11T06:38:31.451Z</time></trkpt><trkpt lat="44.727845" lon="7.8198817"><ele>293.0</ele><time>2026-04-11T06:38:33.451Z</time></trkpt><trkpt lat="44.7277617" lon="7.819925"><ele>293.2</ele><time>2026-04-11T06:38:35.451Z</time></trkpt><trkpt lat="44.7276717" lon="7.8199883"><ele>293.4</ele><time>2026-04-11T06:38:37.451Z</time></trkpt><trkpt lat="44.7275983" lon="7.82004"><ele>293.59999999999997</ele><time>2026-04-11T06:38:39.451Z</time></trkpt><trkpt lat="44.727515" lon="7.820105"><ele>293.8</ele><time>2026-04-11T06:38:41.451Z</time></trkpt><trkpt lat="44.7274267" lon="7.820165"><ele>294.0</ele><time>2026-04-11T06:38:43.451Z</time></trkpt><trkpt lat="44.7273483" lon="7.8202217"><ele>294.0</ele><time>2026-04-11T06:38:45.451Z</time></trkpt><trkpt lat="44.7272683" lon="7.8202467"><ele>294.0</ele><time>2026-04-11T06:38:47.451Z</time></trkpt><trkpt lat="44.7271917" lon="7.82018"><ele>294.0</ele><time>2026-04-11T06:38:49.451Z</time></trkpt><trkpt lat="44.7271233" lon="7.82005"><ele>294.0</ele><time>2026-04-11T06:38:51.451Z</time></trkpt><trkpt lat="44.7270567" lon="7.8199183"><ele>294.0</ele><time>2026-04-11T06:38:53.451Z</time></trkpt><trkpt lat="44.7269883" lon="7.8197917"><ele>292.0</ele><time>2026-04-11T06:38:55.451Z</time></trkpt><trkpt lat="44.7269217" lon="7.8196817"><ele>290.0</ele><time>2026-04-11T06:38:57.451Z</time></trkpt><trkpt lat="44.7268617" lon="7.8195717"><ele>288.0</ele><time>2026-04-11T06:38:59.451Z</time></trkpt><trkpt lat="44.7268067" lon="7.81947"><ele>286.0</ele><time>2026-04-11T06:39:01.451Z</time></trkpt><trkpt lat="44.7267633" lon="7.8193867"><ele>284.0</ele><time>2026-04-11T06:39:03.451Z</time></trkpt><trkpt lat="44.7267233" lon="7.8192833"><ele>282.0</ele><time>2026-04-11T06:39:06.451Z</time></trkpt><trkpt lat="44.7266783" lon="7.81921"><ele>281.0</ele><time>2026-04-11T06:39:08.451Z</time></trkpt><trkpt lat="44.7266217" lon="7.819135"><ele>280.0</ele><time>2026-04-11T06:39:10.451Z</time></trkpt><trkpt lat="44.726555" lon="7.819045"><ele>279.0</ele><time>2026-04-11T06:39:12.451Z</time></trkpt><trkpt lat="44.7264767" lon="7.8189283"><ele>278.0</ele><time>2026-04-11T06:39:14.451Z</time></trkpt><trkpt lat="44.7264083" lon="7.8187983"><ele>277.0</ele><time>2026-04-11T06:39:16.451Z</time></trkpt><trkpt lat="44.72634" lon="7.8186733"><ele>277.0</ele><time>2026-04-11T06:39:18.451Z</time></trkpt><trkpt lat="44.726265" lon="7.81854"><ele>277.0</ele><time>2026-04-11T06:39:20.451Z</time></trkpt><trkpt lat="44.7262233" lon="7.8184733"><ele>277.0</ele><time>2026-04-11T06:39:21.451Z</time></trkpt><trkpt lat="44.7261783" lon="7.8184033"><ele>277.0</ele><time>2026-04-11T06:39:22.451Z</time></trkpt><trkpt lat="44.7261367" lon="7.8183317"><ele>277.0</ele><time>2026-04-11T06:39:23.451Z</time></trkpt><trkpt lat="44.72609" lon="7.81826"><ele>277.0</ele><time>2026-04-11T06:39:24.451Z</time></trkpt><trkpt lat="44.7260483" lon="7.8181917"><ele>276.6</ele><time>2026-04-11T06:39:25.451Z</time></trkpt><trkpt lat="44.7260083" lon="7.8181183"><ele>276.2</ele><time>2026-04-11T06:39:26.451Z</time></trkpt><trkpt lat="44.7259717" lon="7.818045"><ele>275.8</ele><time>2026-04-11T06:39:27.451Z</time></trkpt><trkpt lat="44.7259033" lon="7.8179117"><ele>275.4</ele><time>2026-04-11T06:39:29.451Z</time></trkpt><trkpt lat="44.7258317" lon="7.8177967"><ele>275.0</ele><time>2026-04-11T06:39:31.451Z</time></trkpt><trkpt lat="44.7257367" lon="7.81769"><ele>275.0</ele><time>2026-04-11T06:39:34.451Z</time></trkpt><trkpt lat="44.725645" lon="7.8177067"><ele>275.0</ele><time>2026-04-11T06:39:36.451Z</time></trkpt><trkpt lat="44.7255483" lon="7.8177783"><ele>275.0</ele><time>2026-04-11T06:39:38.451Z</time></trkpt><trkpt lat="44.7254617" lon="7.817865"><ele>275.0</ele><time>2026-04-11T06:39:40.451Z</time></trkpt><trkpt lat="44.7253683" lon="7.8179567"><ele>275.0</ele><time>2026-04-11T06:39:42.451Z</time></trkpt><trkpt lat="44.725265" lon="7.818035"><ele>274.25</ele><time>2026-04-11T06:39:44.451Z</time></trkpt><trkpt lat="44.7251683" lon="7.8181217"><ele>273.5</ele><time>2026-04-11T06:39:46.451Z</time></trkpt><trkpt lat="44.7250767" lon="7.8182217"><ele>272.75</ele><time>2026-04-11T06:39:48.451Z</time></trkpt><trkpt lat="44.7249833" lon="7.81832"><ele>272.0</ele><time>2026-04-11T06:39:50.451Z</time></trkpt><trkpt lat="44.724885" lon="7.818415"><ele>272.25</ele><time>2026-04-11T06:39:52.451Z</time></trkpt><trkpt lat="44.7247917" lon="7.8185167"><ele>272.5</ele><time>2026-04-11T06:39:54.451Z</time></trkpt><trkpt lat="44.7246967" lon="7.818615"><ele>272.75</ele><time>2026-04-11T06:39:56.451Z</time></trkpt><trkpt lat="44.7246" lon="7.8187117"><ele>273.0</ele><time>2026-04-11T06:39:58.451Z</time></trkpt><trkpt lat="44.7245033" lon="7.81881"><ele>273.0</ele><time>2026-04-11T06:40:00.451Z</time></trkpt><trkpt lat="44.72441" lon="7.8189033"><ele>273.0</ele><time>2026-04-11T06:40:02.451Z</time></trkpt><trkpt lat="44.7243167" lon="7.8189967"><ele>273.0</ele><time>2026-04-11T06:40:04.451Z</time></trkpt><trkpt lat="44.7242233" lon="7.8190867"><ele>273.0</ele><time>2026-04-11T06:40:06.451Z</time></trkpt><trkpt lat="44.7241267" lon="7.8191817"><ele>273.0</ele><time>2026-04-11T06:40:08.451Z</time></trkpt><trkpt lat="44.7240267" lon="7.8192683"><ele>273.0</ele><time>2026-04-11T06:40:10.451Z</time></trkpt><trkpt lat="44.7239333" lon="7.819365"><ele>273.0</ele><time>2026-04-11T06:40:12.451Z</time></trkpt><trkpt lat="44.7238367" lon="7.819455"><ele>273.0</ele><time>2026-04-11T06:40:14.451Z</time></trkpt><trkpt lat="44.723745" lon="7.8195567"><ele>273.0</ele><time>2026-04-11T06:40:16.451Z</time></trkpt><trkpt lat="44.7236483" lon="7.819655"><ele>273.0</ele><time>2026-04-11T06:40:18.451Z</time></trkpt><trkpt lat="44.7235483" lon="7.8197583"><ele>273.0</ele><time>2026-04-11T06:40:20.451Z</time></trkpt><trkpt lat="44.7234467" lon="7.8198567"><ele>273.0</ele><time>2026-04-11T06:40:22.451Z</time></trkpt><trkpt lat="44.7233567" lon="7.8199633"><ele>273.0</ele><time>2026-04-11T06:40:24.451Z</time></trkpt><trkpt lat="44.7232617" lon="7.8200667"><ele>273.0</ele><time>2026-04-11T06:40:26.451Z</time></trkpt><trkpt lat="44.7231683" lon="7.820165"><ele>273.0</ele><time>2026-04-11T06:40:28.451Z</time></trkpt><trkpt lat="44.7230783" lon="7.8202683"><ele>273.0</ele><time>2026-04-11T06:40:30.451Z</time></trkpt><trkpt lat="44.7229917" lon="7.82036"><ele>273.2</ele><time>2026-04-11T06:40:32.451Z</time></trkpt><trkpt lat="44.7229033" lon="7.8204567"><ele>273.4</ele><time>2026-04-11T06:40:34.451Z</time></trkpt><trkpt lat="44.7228217" lon="7.8205567"><ele>273.59999999999997</ele><time>2026-04-11T06:40:36.451Z</time></trkpt><trkpt lat="44.7227433" lon="7.8206467"><ele>273.8</ele><time>2026-04-11T06:40:38.451Z</time></trkpt><trkpt lat="44.7226783" lon="7.820725"><ele>274.0</ele><time>2026-04-11T06:40:40.451Z</time></trkpt><trkpt lat="44.72262" lon="7.8208"><ele>274.4</ele><time>2026-04-11T06:40:42.451Z</time></trkpt><trkpt lat="44.7225483" lon="7.8208367"><ele>274.79999999999995</ele><time>2026-04-11T06:40:44.451Z</time></trkpt><trkpt lat="44.72249" lon="7.8207567"><ele>275.20000000000005</ele><time>2026-04-11T06:40:46.451Z</time></trkpt><trkpt lat="44.72244" lon="7.8206217"><ele>275.6</ele><time>2026-04-11T06:40:48.451Z</time></trkpt><trkpt lat="44.722385" lon="7.8204767"><ele>276.0</ele><time>2026-04-11T06:40:50.451Z</time></trkpt><trkpt lat="44.7223267" lon="7.820335"><ele>276.0</ele><time>2026-04-11T06:40:52.451Z</time></trkpt><trkpt lat="44.7222967" lon="7.8202567"><ele>276.0</ele><time>2026-04-11T06:40:53.451Z</time></trkpt><trkpt lat="44.72227" lon="7.820175"><ele>276.0</ele><time>2026-04-11T06:40:54.451Z</time></trkpt><trkpt lat="44.72224" lon="7.8200933"><ele>276.0</ele><time>2026-04-11T06:40:55.451Z</time></trkpt><trkpt lat="44.7222083" lon="7.8200083"><ele>276.0</ele><time>2026-04-11T06:40:56.451Z</time></trkpt><trkpt lat="44.7221767" lon="7.8199217"><ele>276.0</ele><time>2026-04-11T06:40:57.451Z</time></trkpt><trkpt lat="44.722145" lon="7.8198367"><ele>276.0</ele><time>2026-04-11T06:40:58.451Z</time></trkpt><trkpt lat="44.72211" lon="7.8197533"><ele>275.5</ele><time>2026-04-11T06:40:59.451Z</time></trkpt><trkpt lat="44.722075" lon="7.819675"><ele>275.0</ele><time>2026-04-11T06:41:00.451Z</time></trkpt><trkpt lat="44.7220367" lon="7.8196017"><ele>274.5</ele><time>2026-04-11T06:41:01.451Z</time></trkpt><trkpt lat="44.7219683" lon="7.81946"><ele>274.0</ele><time>2026-04-11T06:41:03.451Z</time></trkpt><trkpt lat="44.7219383" lon="7.8193783"><ele>273.5</ele><time>2026-04-11T06:41:04.451Z</time></trkpt><trkpt lat="44.7219083" lon="7.8192967"><ele>273.0</ele><time>2026-04-11T06:41:05.451Z</time></trkpt><trkpt lat="44.7218767" lon="7.8192117"><ele>272.7142857142857</ele><time>2026-04-11T06:41:06.451Z</time></trkpt><trkpt lat="44.7218467" lon="7.8191183"><ele>272.42857142857144</ele><time>2026-04-11T06:41:07.451Z</time></trkpt><trkpt lat="44.7218233" lon="7.8190133"><ele>272.1428571428571</ele><time>2026-04-11T06:41:08.451Z</time></trkpt><trkpt lat="44.7217983" lon="7.81891"><ele>271.8571428571429</ele><time>2026-04-11T06:41:09.451Z</time></trkpt><trkpt lat="44.7217733" lon="7.818815"><ele>271.57142857142856</ele><time>2026-04-11T06:41:10.451Z</time></trkpt><trkpt lat="44.72175" lon="7.818725"><ele>271.2857142857143</ele><time>2026-04-11T06:41:11.451Z</time></trkpt><trkpt lat="44.7217267" lon="7.818625"><ele>271.0</ele><time>2026-04-11T06:41:12.451Z</time></trkpt><trkpt lat="44.7217017" lon="7.81853"><ele>271.0</ele><time>2026-04-11T06:41:13.451Z</time></trkpt><trkpt lat="44.72168" lon="7.8184367"><ele>271.0</ele><time>2026-04-11T06:41:14.451Z</time></trkpt><trkpt lat="44.7216617" lon="7.8183433"><ele>271.0</ele><time>2026-04-11T06:41:15.451Z</time></trkpt><trkpt lat="44.7216417" lon="7.818245"><ele>271.0</ele><time>2026-04-11T06:41:16.451Z</time></trkpt><trkpt lat="44.7216183" lon="7.818145"><ele>271.0</ele><time>2026-04-11T06:41:17.451Z</time></trkpt><trkpt lat="44.7215883" lon="7.8180417"><ele>271.0</ele><time>2026-04-11T06:41:18.451Z</time></trkpt><trkpt lat="44.7215583" lon="7.81794"><ele>271.0</ele><time>2026-04-11T06:41:19.452Z</time></trkpt><trkpt lat="44.721525" lon="7.8178333"><ele>271.0</ele><time>2026-04-11T06:41:20.451Z</time></trkpt><trkpt lat="44.7214967" lon="7.8177233"><ele>271.0</ele><time>2026-04-11T06:41:21.451Z</time></trkpt><trkpt lat="44.7214667" lon="7.817615"><ele>271.0</ele><time>2026-04-11T06:41:22.451Z</time></trkpt><trkpt lat="44.721435" lon="7.8175033"><ele>271.0</ele><time>2026-04-11T06:41:23.451Z</time></trkpt><trkpt lat="44.72141" lon="7.8174"><ele>271.0</ele><time>2026-04-11T06:41:24.452Z</time></trkpt><trkpt lat="44.7213833" lon="7.8172883"><ele>271.0</ele><time>2026-04-11T06:41:25.451Z</time></trkpt><trkpt lat="44.7213467" lon="7.817175"><ele>270.5</ele><time>2026-04-11T06:41:26.451Z</time></trkpt><trkpt lat="44.7213083" lon="7.8170617"><ele>270.0</ele><time>2026-04-11T06:41:27.451Z</time></trkpt><trkpt lat="44.721265" lon="7.8169533"><ele>269.5</ele><time>2026-04-11T06:41:28.451Z</time></trkpt><trkpt lat="44.72122" lon="7.816845"><ele>269.0</ele><time>2026-04-11T06:41:29.451Z</time></trkpt><trkpt lat="44.721175" lon="7.8167417"><ele>268.5</ele><time>2026-04-11T06:41:30.451Z</time></trkpt><trkpt lat="44.7211333" lon="7.8166417"><ele>268.0</ele><time>2026-04-11T06:41:31.451Z</time></trkpt><trkpt lat="44.7210867" lon="7.816535"><ele>268.0</ele><time>2026-04-11T06:41:32.451Z</time></trkpt><trkpt lat="44.7210417" lon="7.816425"><ele>268.0</ele><time>2026-04-11T06:41:33.451Z</time></trkpt><trkpt lat="44.721" lon="7.816315"><ele>268.0</ele><time>2026-04-11T06:41:34.451Z</time></trkpt><trkpt lat="44.7209617" lon="7.816205"><ele>268.0</ele><time>2026-04-11T06:41:35.451Z</time></trkpt><trkpt lat="44.7209233" lon="7.816095"><ele>268.0</ele><time>2026-04-11T06:41:36.451Z</time></trkpt><trkpt lat="44.72089" lon="7.81598"><ele>268.0</ele><time>2026-04-11T06:41:37.451Z</time></trkpt><trkpt lat="44.7208633" lon="7.8158617"><ele>267.8333333333333</ele><time>2026-04-11T06:41:38.451Z</time></trkpt><trkpt lat="44.720835" lon="7.8157433"><ele>267.66666666666663</ele><time>2026-04-11T06:41:39.451Z</time></trkpt><trkpt lat="44.7208167" lon="7.8156233"><ele>267.5</ele><time>2026-04-11T06:41:40.451Z</time></trkpt><trkpt lat="44.7207967" lon="7.815505"><ele>267.3333333333333</ele><time>2026-04-11T06:41:41.451Z</time></trkpt><trkpt lat="44.7207833" lon="7.8153833"><ele>267.1666666666667</ele><time>2026-04-11T06:41:42.451Z</time></trkpt><trkpt lat="44.7207717" lon="7.8152683"><ele>267.0</ele><time>2026-04-11T06:41:43.452Z</time></trkpt><trkpt lat="44.7207583" lon="7.815155"><ele>267.3333333333333</ele><time>2026-04-11T06:41:44.452Z</time></trkpt><trkpt lat="44.7207433" lon="7.8150467"><ele>267.6666666666667</ele><time>2026-04-11T06:41:45.451Z</time></trkpt><trkpt lat="44.7207317" lon="7.8149367"><ele>268.0</ele><time>2026-04-11T06:41:46.452Z</time></trkpt><trkpt lat="44.7207233" lon="7.8148283"><ele>268.33333333333337</ele><time>2026-04-11T06:41:47.451Z</time></trkpt><trkpt lat="44.7207167" lon="7.8147217"><ele>268.6666666666667</ele><time>2026-04-11T06:41:48.452Z</time></trkpt><trkpt lat="44.7207067" lon="7.8146183"><ele>269.0</ele><time>2026-04-11T06:41:49.451Z</time></trkpt><trkpt lat="44.7206917" lon="7.8145083"><ele>269.0</ele><time>2026-04-11T06:41:50.451Z</time></trkpt><trkpt lat="44.7206717" lon="7.814395"><ele>269.0</ele><time>2026-04-11T06:41:51.451Z</time></trkpt><trkpt lat="44.72065" lon="7.8142917"><ele>269.0</ele><time>2026-04-11T06:41:52.451Z</time></trkpt><trkpt lat="44.7206217" lon="7.8141933"><ele>269.0</ele><time>2026-04-11T06:41:53.451Z</time></trkpt><trkpt lat="44.720585" lon="7.8141017"><ele>269.0</ele><time>2026-04-11T06:41:54.451Z</time></trkpt><trkpt lat="44.7205483" lon="7.8140033"><ele>269.0</ele><time>2026-04-11T06:41:55.451Z</time></trkpt><trkpt lat="44.72051" lon="7.813915"><ele>269.0</ele><time>2026-04-11T06:41:56.451Z</time></trkpt><trkpt lat="44.7204667" lon="7.8138283"><ele>269.0</ele><time>2026-04-11T06:41:57.451Z</time></trkpt><trkpt lat="44.720425" lon="7.8137417"><ele>269.0</ele><time>2026-04-11T06:41:58.451Z</time></trkpt><trkpt lat="44.7203867" lon="7.8136533"><ele>269.0</ele><time>2026-04-11T06:41:59.451Z</time></trkpt><trkpt lat="44.7203433" lon="7.8135633"><ele>269.0</ele><time>2026-04-11T06:42:00.451Z</time></trkpt><trkpt lat="44.7202967" lon="7.8134767"><ele>269.0</ele><time>2026-04-11T06:42:01.451Z</time></trkpt><trkpt lat="44.7202433" lon="7.8133967"><ele>268.6666666666667</ele><time>2026-04-11T06:42:02.451Z</time></trkpt><trkpt lat="44.7201867" lon="7.8133183"><ele>268.33333333333337</ele><time>2026-04-11T06:42:03.451Z</time></trkpt><trkpt lat="44.7201317" lon="7.8132383"><ele>268.0</ele><time>2026-04-11T06:42:04.451Z</time></trkpt><trkpt lat="44.7200733" lon="7.8131667"><ele>267.6666666666667</ele><time>2026-04-11T06:42:05.451Z</time></trkpt><trkpt lat="44.7200117" lon="7.8130967"><ele>267.3333333333333</ele><time>2026-04-11T06:42:06.452Z</time></trkpt><trkpt lat="44.719945" lon="7.8130267"><ele>267.0</ele><time>2026-04-11T06:42:07.451Z</time></trkpt><trkpt lat="44.7198767" lon="7.8129567"><ele>267.0</ele><time>2026-04-11T06:42:08.451Z</time></trkpt><trkpt lat="44.7198083" lon="7.8128867"><ele>267.0</ele><time>2026-04-11T06:42:09.451Z</time></trkpt><trkpt lat="44.7197417" lon="7.8128167"><ele>267.0</ele><time>2026-04-11T06:42:10.451Z</time></trkpt><trkpt lat="44.7196767" lon="7.8127533"><ele>267.0</ele><time>2026-04-11T06:42:11.451Z</time></trkpt><trkpt lat="44.7196117" lon="7.8126917"><ele>267.0</ele><time>2026-04-11T06:42:12.451Z</time></trkpt><trkpt lat="44.7195533" lon="7.8126233"><ele>267.0</ele><time>2026-04-11T06:42:13.452Z</time></trkpt><trkpt lat="44.7194967" lon="7.8125583"><ele>267.0</ele><time>2026-04-11T06:42:14.451Z</time></trkpt><trkpt lat="44.7194367" lon="7.8124967"><ele>267.0</ele><time>2026-04-11T06:42:15.451Z</time></trkpt><trkpt lat="44.71938" lon="7.8124367"><ele>267.0</ele><time>2026-04-11T06:42:16.451Z</time></trkpt><trkpt lat="44.7193133" lon="7.8123733"><ele>267.0</ele><time>2026-04-11T06:42:17.451Z</time></trkpt><trkpt lat="44.7192483" lon="7.8123067"><ele>267.0</ele><time>2026-04-11T06:42:18.451Z</time></trkpt><trkpt lat="44.7191833" lon="7.8122383"><ele>267.0</ele><time>2026-04-11T06:42:19.451Z</time></trkpt><trkpt lat="44.7191217" lon="7.8121667"><ele>267.1666666666667</ele><time>2026-04-11T06:42:20.451Z</time></trkpt><trkpt lat="44.71906" lon="7.812095"><ele>267.3333333333333</ele><time>2026-04-11T06:42:21.451Z</time></trkpt><trkpt lat="44.7189983" lon="7.812025"><ele>267.5</ele><time>2026-04-11T06:42:22.451Z</time></trkpt><trkpt lat="44.7189417" lon="7.8119467"><ele>267.66666666666663</ele><time>2026-04-11T06:42:23.451Z</time></trkpt><trkpt lat="44.71889" lon="7.8118567"><ele>267.8333333333333</ele><time>2026-04-11T06:42:24.451Z</time></trkpt><trkpt lat="44.7188417" lon="7.8117667"><ele>268.0</ele><time>2026-04-11T06:42:25.451Z</time></trkpt><trkpt lat="44.7188017" lon="7.8116683"><ele>268.0</ele><time>2026-04-11T06:42:26.451Z</time></trkpt><trkpt lat="44.7187633" lon="7.8115683"><ele>268.0</ele><time>2026-04-11T06:42:27.451Z</time></trkpt><trkpt lat="44.7187233" lon="7.8114667"><ele>268.0</ele><time>2026-04-11T06:42:28.451Z</time></trkpt><trkpt lat="44.7186867" lon="7.8113667"><ele>268.0</ele><time>2026-04-11T06:42:29.451Z</time></trkpt><trkpt lat="44.7186517" lon="7.8112633"><ele>268.0</ele><time>2026-04-11T06:42:30.451Z</time></trkpt><trkpt lat="44.7186183" lon="7.8111667"><ele>268.0</ele><time>2026-04-11T06:42:31.451Z</time></trkpt><trkpt lat="44.718585" lon="7.8110683"><ele>267.5</ele><time>2026-04-11T06:42:32.451Z</time></trkpt><trkpt lat="44.7185517" lon="7.8109683"><ele>267.0</ele><time>2026-04-11T06:42:33.451Z</time></trkpt><trkpt lat="44.7185183" lon="7.810865"><ele>266.5</ele><time>2026-04-11T06:42:34.451Z</time></trkpt><trkpt lat="44.7184833" lon="7.8107633"><ele>266.0</ele><time>2026-04-11T06:42:35.451Z</time></trkpt><trkpt lat="44.7184483" lon="7.8106617"><ele>265.5</ele><time>2026-04-11T06:42:36.451Z</time></trkpt><trkpt lat="44.7184117" lon="7.8105533"><ele>265.0</ele><time>2026-04-11T06:42:37.451Z</time></trkpt><trkpt lat="44.7183717" lon="7.8104433"><ele>265.0</ele><time>2026-04-11T06:42:38.451Z</time></trkpt><trkpt lat="44.7183267" lon="7.810335"><ele>265.0</ele><time>2026-04-11T06:42:39.451Z</time></trkpt><trkpt lat="44.7182733" lon="7.8102333"><ele>265.0</ele><time>2026-04-11T06:42:40.451Z</time></trkpt><trkpt lat="44.7182167" lon="7.8101317"><ele>265.0</ele><time>2026-04-11T06:42:41.451Z</time></trkpt><trkpt lat="44.7181533" lon="7.81003"><ele>265.0</ele><time>2026-04-11T06:42:42.451Z</time></trkpt><trkpt lat="44.7180867" lon="7.80993"><ele>265.0</ele><time>2026-04-11T06:42:43.451Z</time></trkpt><trkpt lat="44.7180233" lon="7.8098283"><ele>265.0</ele><time>2026-04-11T06:42:44.451Z</time></trkpt><trkpt lat="44.71796" lon="7.8097267"><ele>265.0</ele><time>2026-04-11T06:42:45.451Z</time></trkpt><trkpt lat="44.7179" lon="7.8096317"><ele>265.0</ele><time>2026-04-11T06:42:46.451Z</time></trkpt><trkpt lat="44.7178417" lon="7.8095367"><ele>265.0</ele><time>2026-04-11T06:42:47.451Z</time></trkpt><trkpt lat="44.717785" lon="7.8094483"><ele>265.16666666666663</ele><time>2026-04-11T06:42:48.451Z</time></trkpt><trkpt lat="44.7177267" lon="7.8093617"><ele>265.3333333333333</ele><time>2026-04-11T06:42:49.451Z</time></trkpt><trkpt lat="44.7176667" lon="7.80928"><ele>265.5</ele><time>2026-04-11T06:42:50.451Z</time></trkpt><trkpt lat="44.7176083" lon="7.8091967"><ele>265.6666666666667</ele><time>2026-04-11T06:42:51.451Z</time></trkpt><trkpt lat="44.7175517" lon="7.809115"><ele>265.83333333333337</ele><time>2026-04-11T06:42:52.451Z</time></trkpt><trkpt lat="44.7174983" lon="7.809035"><ele>266.0</ele><time>2026-04-11T06:42:53.451Z</time></trkpt><trkpt lat="44.7174467" lon="7.8089617"><ele>266.5</ele><time>2026-04-11T06:42:54.451Z</time></trkpt><trkpt lat="44.7173967" lon="7.8088833"><ele>267.0</ele><time>2026-04-11T06:42:55.451Z</time></trkpt><trkpt lat="44.7173483" lon="7.8088083"><ele>267.5</ele><time>2026-04-11T06:42:56.451Z</time></trkpt><trkpt lat="44.717295" lon="7.8087333"><ele>268.0</ele><time>2026-04-11T06:42:57.451Z</time></trkpt><trkpt lat="44.7172467" lon="7.8086633"><ele>268.5</ele><time>2026-04-11T06:42:58.451Z</time></trkpt><trkpt lat="44.7172033" lon="7.808595"><ele>269.0</ele><time>2026-04-11T06:42:59.451Z</time></trkpt><trkpt lat="44.7171217" lon="7.80847"><ele>269.0</ele><time>2026-04-11T06:43:01.451Z</time></trkpt><trkpt lat="44.7170533" lon="7.808355"><ele>269.0</ele><time>2026-04-11T06:43:03.451Z</time></trkpt><trkpt lat="44.7170367" lon="7.8082233"><ele>269.0</ele><time>2026-04-11T06:43:05.451Z</time></trkpt><trkpt lat="44.7170983" lon="7.808105"><ele>269.0</ele><time>2026-04-11T06:43:07.451Z</time></trkpt><trkpt lat="44.7171917" lon="7.8079967"><ele>269.0</ele><time>2026-04-11T06:43:09.451Z</time></trkpt><trkpt lat="44.7172467" lon="7.80794"><ele>269.0</ele><time>2026-04-11T06:43:10.451Z</time></trkpt><trkpt lat="44.7173017" lon="7.8078867"><ele>269.0</ele><time>2026-04-11T06:43:11.451Z</time></trkpt><trkpt lat="44.7173583" lon="7.8078267"><ele>269.0</ele><time>2026-04-11T06:43:12.451Z</time></trkpt><trkpt lat="44.7174117" lon="7.8077717"><ele>269.0</ele><time>2026-04-11T06:43:13.452Z</time></trkpt><trkpt lat="44.7174683" lon="7.8077183"><ele>269.0</ele><time>2026-04-11T06:43:14.451Z</time></trkpt><trkpt lat="44.7175267" lon="7.807665"><ele>269.0</ele><time>2026-04-11T06:43:15.451Z</time></trkpt><trkpt lat="44.7175917" lon="7.8076167"><ele>269.0</ele><time>2026-04-11T06:43:16.451Z</time></trkpt><trkpt lat="44.7176517" lon="7.8075617"><ele>269.33333333333337</ele><time>2026-04-11T06:43:17.451Z</time></trkpt><trkpt lat="44.717715" lon="7.8075"><ele>269.6666666666667</ele><time>2026-04-11T06:43:18.451Z</time></trkpt><trkpt lat="44.717775" lon="7.8074367"><ele>270.0</ele><time>2026-04-11T06:43:19.452Z</time></trkpt><trkpt lat="44.717835" lon="7.8073683"><ele>270.3333333333333</ele><time>2026-04-11T06:43:20.451Z</time></trkpt><trkpt lat="44.7178983" lon="7.807315"><ele>270.66666666666663</ele><time>2026-04-11T06:43:21.451Z</time></trkpt><trkpt lat="44.7179717" lon="7.80726"><ele>271.0</ele><time>2026-04-11T06:43:22.451Z</time></trkpt><trkpt lat="44.7180433" lon="7.8072067"><ele>270.5</ele><time>2026-04-11T06:43:23.451Z</time></trkpt><trkpt lat="44.7181083" lon="7.8071433"><ele>270.0</ele><time>2026-04-11T06:43:24.451Z</time></trkpt><trkpt lat="44.718165" lon="7.8070717"><ele>269.5</ele><time>2026-04-11T06:43:25.451Z</time></trkpt><trkpt lat="44.718225" lon="7.8070017"><ele>269.0</ele><time>2026-04-11T06:43:26.451Z</time></trkpt><trkpt lat="44.7182867" lon="7.8069283"><ele>268.5</ele><time>2026-04-11T06:43:27.452Z</time></trkpt><trkpt lat="44.7183533" lon="7.806855"><ele>268.0</ele><time>2026-04-11T06:43:28.451Z</time></trkpt><trkpt lat="44.71842" lon="7.8067883"><ele>268.0</ele><time>2026-04-11T06:43:29.451Z</time></trkpt><trkpt lat="44.718485" lon="7.80672"><ele>268.0</ele><time>2026-04-11T06:43:30.451Z</time></trkpt><trkpt lat="44.718555" lon="7.8066617"><ele>268.0</ele><time>2026-04-11T06:43:31.451Z</time></trkpt><trkpt lat="44.718625" lon="7.8066067"><ele>268.0</ele><time>2026-04-11T06:43:32.451Z</time></trkpt><trkpt lat="44.7186933" lon="7.80654"><ele>268.0</ele><time>2026-04-11T06:43:33.451Z</time></trkpt><trkpt lat="44.7187583" lon="7.80647"><ele>268.0</ele><time>2026-04-11T06:43:34.451Z</time></trkpt><trkpt lat="44.71883" lon="7.806395"><ele>268.0</ele><time>2026-04-11T06:43:35.451Z</time></trkpt><trkpt lat="44.7188983" lon="7.8063217"><ele>268.0</ele><time>2026-04-11T06:43:36.451Z</time></trkpt><trkpt lat="44.7189683" lon="7.806255"><ele>268.0</ele><time>2026-04-11T06:43:37.451Z</time></trkpt><trkpt lat="44.719035" lon="7.8061867"><ele>268.0</ele><time>2026-04-11T06:43:38.451Z</time></trkpt><trkpt lat="44.7191033" lon="7.80612"><ele>268.0</ele><time>2026-04-11T06:43:39.451Z</time></trkpt><trkpt lat="44.7191683" lon="7.8060533"><ele>268.0</ele><time>2026-04-11T06:43:40.451Z</time></trkpt><trkpt lat="44.7192333" lon="7.8059933"><ele>268.0</ele><time>2026-04-11T06:43:41.451Z</time></trkpt><trkpt lat="44.7192933" lon="7.8059267"><ele>268.0</ele><time>2026-04-11T06:43:42.451Z</time></trkpt><trkpt lat="44.7193533" lon="7.8058633"><ele>268.0</ele><time>2026-04-11T06:43:43.451Z</time></trkpt><trkpt lat="44.719415" lon="7.8058033"><ele>268.0</ele><time>2026-04-11T06:43:44.451Z</time></trkpt><trkpt lat="44.71948" lon="7.805735"><ele>268.0</ele><time>2026-04-11T06:43:45.451Z</time></trkpt><trkpt lat="44.7195433" lon="7.8056633"><ele>268.0</ele><time>2026-04-11T06:43:46.451Z</time></trkpt><trkpt lat="44.7196083" lon="7.8055917"><ele>268.0</ele><time>2026-04-11T06:43:47.451Z</time></trkpt><trkpt lat="44.7196783" lon="7.8055117"><ele>268.0</ele><time>2026-04-11T06:43:48.452Z</time></trkpt><trkpt lat="44.7197467" lon="7.8054333"><ele>268.0</ele><time>2026-04-11T06:43:49.451Z</time></trkpt><trkpt lat="44.7198167" lon="7.8053633"><ele>268.0</ele><time>2026-04-11T06:43:50.451Z</time></trkpt><trkpt lat="44.71988" lon="7.805285"><ele>268.0</ele><time>2026-04-11T06:43:51.451Z</time></trkpt><trkpt lat="44.71994" lon="7.8052033"><ele>268.0</ele><time>2026-04-11T06:43:52.451Z</time></trkpt><trkpt lat="44.7200083" lon="7.8051267"><ele>267.8333333333333</ele><time>2026-04-11T06:43:53.451Z</time></trkpt><trkpt lat="44.720075" lon="7.8050483"><ele>267.66666666666663</ele><time>2026-04-11T06:43:54.451Z</time></trkpt><trkpt lat="44.7201417" lon="7.8049733"><ele>267.5</ele><time>2026-04-11T06:43:55.451Z</time></trkpt><trkpt lat="44.720205" lon="7.8049"><ele>267.3333333333333</ele><time>2026-04-11T06:43:56.45Z</time></trkpt><trkpt lat="44.7202617" lon="7.8048283"><ele>267.1666666666667</ele><time>2026-04-11T06:43:57.45Z</time></trkpt><trkpt lat="44.72032" lon="7.804755"><ele>267.0</ele><time>2026-04-11T06:43:58.45Z</time></trkpt><trkpt lat="44.7203783" lon="7.80468"><ele>266.8333333333333</ele><time>2026-04-11T06:43:59.45Z</time></trkpt><trkpt lat="44.720435" lon="7.804615"><ele>266.6666666666667</ele><time>2026-04-11T06:44:00.45Z</time></trkpt><trkpt lat="44.7204917" lon="7.8045483"><ele>266.5</ele><time>2026-04-11T06:44:01.45Z</time></trkpt><trkpt lat="44.7205517" lon="7.8044733"><ele>266.33333333333337</ele><time>2026-04-11T06:44:02.45Z</time></trkpt><trkpt lat="44.72061" lon="7.8044"><ele>266.1666666666667</ele><time>2026-04-11T06:44:03.45Z</time></trkpt><trkpt lat="44.720665" lon="7.8043333"><ele>266.0</ele><time>2026-04-11T06:44:04.45Z</time></trkpt><trkpt lat="44.72072" lon="7.8042667"><ele>266.14285714285717</ele><time>2026-04-11T06:44:05.45Z</time></trkpt><trkpt lat="44.7207733" lon="7.804205"><ele>266.2857142857143</ele><time>2026-04-11T06:44:06.45Z</time></trkpt><trkpt lat="44.7208317" lon="7.80414"><ele>266.42857142857144</ele><time>2026-04-11T06:44:07.45Z</time></trkpt><trkpt lat="44.7208817" lon="7.80408"><ele>266.57142857142856</ele><time>2026-04-11T06:44:08.45Z</time></trkpt><trkpt lat="44.720935" lon="7.804025"><ele>266.7142857142857</ele><time>2026-04-11T06:44:09.45Z</time></trkpt><trkpt lat="44.72099" lon="7.8039633"><ele>266.8571428571429</ele><time>2026-04-11T06:44:10.45Z</time></trkpt><trkpt lat="44.7210467" lon="7.803905"><ele>267.0</ele><time>2026-04-11T06:44:11.45Z</time></trkpt><trkpt lat="44.721105" lon="7.8038433"><ele>267.0</ele><time>2026-04-11T06:44:12.45Z</time></trkpt><trkpt lat="44.7211633" lon="7.8037767"><ele>267.0</ele><time>2026-04-11T06:44:13.45Z</time></trkpt><trkpt lat="44.7212233" lon="7.8037083"><ele>267.0</ele><time>2026-04-11T06:44:14.45Z</time></trkpt><trkpt lat="44.7212833" lon="7.80364"><ele>267.0</ele><time>2026-04-11T06:44:15.45Z</time></trkpt><trkpt lat="44.7213467" lon="7.8035767"><ele>267.0</ele><time>2026-04-11T06:44:16.45Z</time></trkpt><trkpt lat="44.7214067" lon="7.80351"><ele>267.0</ele><time>2026-04-11T06:44:17.45Z</time></trkpt><trkpt lat="44.7214667" lon="7.8034517"><ele>267.1666666666667</ele><time>2026-04-11T06:44:18.45Z</time></trkpt><trkpt lat="44.72153" lon="7.803385"><ele>267.3333333333333</ele><time>2026-04-11T06:44:19.45Z</time></trkpt><trkpt lat="44.7215933" lon="7.8033267"><ele>267.5</ele><time>2026-04-11T06:44:20.45Z</time></trkpt><trkpt lat="44.721655" lon="7.8032633"><ele>267.66666666666663</ele><time>2026-04-11T06:44:21.45Z</time></trkpt><trkpt lat="44.7217117" lon="7.8031983"><ele>267.8333333333333</ele><time>2026-04-11T06:44:22.45Z</time></trkpt><trkpt lat="44.721775" lon="7.80313"><ele>268.0</ele><time>2026-04-11T06:44:23.45Z</time></trkpt><trkpt lat="44.7218383" lon="7.8030633"><ele>267.8333333333333</ele><time>2026-04-11T06:44:24.45Z</time></trkpt><trkpt lat="44.7219" lon="7.8029983"><ele>267.66666666666663</ele><time>2026-04-11T06:44:25.45Z</time></trkpt><trkpt lat="44.7219667" lon="7.8029333"><ele>267.5</ele><time>2026-04-11T06:44:26.45Z</time></trkpt><trkpt lat="44.7220367" lon="7.8028683"><ele>267.3333333333333</ele><time>2026-04-11T06:44:27.45Z</time></trkpt><trkpt lat="44.722105" lon="7.8027933"><ele>267.1666666666667</ele><time>2026-04-11T06:44:28.45Z</time></trkpt><trkpt lat="44.722175" lon="7.8027183"><ele>267.0</ele><time>2026-04-11T06:44:29.45Z</time></trkpt><trkpt lat="44.7222417" lon="7.8026483"><ele>266.8571428571429</ele><time>2026-04-11T06:44:30.45Z</time></trkpt><trkpt lat="44.7223083" lon="7.8025883"><ele>266.7142857142857</ele><time>2026-04-11T06:44:31.45Z</time></trkpt><trkpt lat="44.7223717" lon="7.8025317"><ele>266.57142857142856</ele><time>2026-04-11T06:44:32.45Z</time></trkpt><trkpt lat="44.7224317" lon="7.802475"><ele>266.42857142857144</ele><time>2026-04-11T06:44:33.45Z</time></trkpt><trkpt lat="44.7224933" lon="7.8024167"><ele>266.2857142857143</ele><time>2026-04-11T06:44:34.45Z</time></trkpt><trkpt lat="44.7225517" lon="7.8023567"><ele>266.14285714285717</ele><time>2026-04-11T06:44:35.45Z</time></trkpt><trkpt lat="44.7226117" lon="7.8022967"><ele>266.0</ele><time>2026-04-11T06:44:36.45Z</time></trkpt><trkpt lat="44.722665" lon="7.8022367"><ele>266.0</ele><time>2026-04-11T06:44:37.45Z</time></trkpt><trkpt lat="44.7227167" lon="7.8021717"><ele>266.0</ele><time>2026-04-11T06:44:38.45Z</time></trkpt><trkpt lat="44.72277" lon="7.8021083"><ele>266.0</ele><time>2026-04-11T06:44:39.45Z</time></trkpt><trkpt lat="44.7228217" lon="7.80204"><ele>266.0</ele><time>2026-04-11T06:44:40.45Z</time></trkpt><trkpt lat="44.7228733" lon="7.8019717"><ele>266.0</ele><time>2026-04-11T06:44:41.45Z</time></trkpt><trkpt lat="44.722925" lon="7.8018967"><ele>266.0</ele><time>2026-04-11T06:44:42.45Z</time></trkpt><trkpt lat="44.7229783" lon="7.80182"><ele>266.0</ele><time>2026-04-11T06:44:43.45Z</time></trkpt><trkpt lat="44.7230333" lon="7.8017417"><ele>266.0</ele><time>2026-04-11T06:44:44.45Z</time></trkpt><trkpt lat="44.7230933" lon="7.8016633"><ele>266.0</ele><time>2026-04-11T06:44:45.45Z</time></trkpt><trkpt lat="44.72315" lon="7.8015867"><ele>266.0</ele><time>2026-04-11T06:44:46.45Z</time></trkpt><trkpt lat="44.72321" lon="7.8015117"><ele>266.0</ele><time>2026-04-11T06:44:47.45Z</time></trkpt><trkpt lat="44.7232733" lon="7.801445"><ele>266.0</ele><time>2026-04-11T06:44:48.45Z</time></trkpt><trkpt lat="44.72334" lon="7.80138"><ele>266.0</ele><time>2026-04-11T06:44:49.45Z</time></trkpt><trkpt lat="44.7234117" lon="7.8013183"><ele>266.0</ele><time>2026-04-11T06:44:50.45Z</time></trkpt><trkpt lat="44.7234817" lon="7.8012633"><ele>266.0</ele><time>2026-04-11T06:44:51.45Z</time></trkpt><trkpt lat="44.72355" lon="7.8012183"><ele>266.0</ele><time>2026-04-11T06:44:52.45Z</time></trkpt><trkpt lat="44.723615" lon="7.8011717"><ele>266.0</ele><time>2026-04-11T06:44:53.45Z</time></trkpt><trkpt lat="44.7236767" lon="7.80112"><ele>266.0</ele><time>2026-04-11T06:44:54.45Z</time></trkpt><trkpt lat="44.7237317" lon="7.80107"><ele>266.0</ele><time>2026-04-11T06:44:55.45Z</time></trkpt><trkpt lat="44.723795" lon="7.8010217"><ele>266.0</ele><time>2026-04-11T06:44:56.45Z</time></trkpt><trkpt lat="44.723855" lon="7.8009717"><ele>265.85714285714283</ele><time>2026-04-11T06:44:57.45Z</time></trkpt><trkpt lat="44.7239183" lon="7.800925"><ele>265.7142857142857</ele><time>2026-04-11T06:44:58.45Z</time></trkpt><trkpt lat="44.7239783" lon="7.8008817"><ele>265.57142857142856</ele><time>2026-04-11T06:44:59.45Z</time></trkpt><trkpt lat="44.72404" lon="7.80084"><ele>265.42857142857144</ele><time>2026-04-11T06:45:00.45Z</time></trkpt><trkpt lat="44.7240983" lon="7.800795"><ele>265.2857142857143</ele><time>2026-04-11T06:45:01.45Z</time></trkpt><trkpt lat="44.7241617" lon="7.8007467"><ele>265.1428571428571</ele><time>2026-04-11T06:45:02.45Z</time></trkpt><trkpt lat="44.724225" lon="7.8006967"><ele>265.0</ele><time>2026-04-11T06:45:03.45Z</time></trkpt><trkpt lat="44.7242917" lon="7.80064"><ele>265.0</ele><time>2026-04-11T06:45:04.45Z</time></trkpt><trkpt lat="44.724355" lon="7.8005833"><ele>265.0</ele><time>2026-04-11T06:45:05.45Z</time></trkpt><trkpt lat="44.7244183" lon="7.8005283"><ele>265.0</ele><time>2026-04-11T06:45:06.45Z</time></trkpt><trkpt lat="44.7244833" lon="7.800475"><ele>265.0</ele><time>2026-04-11T06:45:07.45Z</time></trkpt><trkpt lat="44.72455" lon="7.800415"><ele>265.0</ele><time>2026-04-11T06:45:08.45Z</time></trkpt><trkpt lat="44.724615" lon="7.800355"><ele>265.0</ele><time>2026-04-11T06:45:09.45Z</time></trkpt><trkpt lat="44.72468" lon="7.80029"><ele>264.8333333333333</ele><time>2026-04-11T06:45:10.45Z</time></trkpt><trkpt lat="44.7247467" lon="7.8002267"><ele>264.66666666666663</ele><time>2026-04-11T06:45:11.45Z</time></trkpt><trkpt lat="44.72481" lon="7.8001683"><ele>264.5</ele><time>2026-04-11T06:45:12.45Z</time></trkpt><trkpt lat="44.7248767" lon="7.8001133"><ele>264.3333333333333</ele><time>2026-04-11T06:45:13.45Z</time></trkpt><trkpt lat="44.7249433" lon="7.800055"><ele>264.1666666666667</ele><time>2026-04-11T06:45:14.45Z</time></trkpt><trkpt lat="44.7250133" lon="7.8000083"><ele>264.0</ele><time>2026-04-11T06:45:15.45Z</time></trkpt><trkpt lat="44.7250783" lon="7.7999583"><ele>264.3333333333333</ele><time>2026-04-11T06:45:16.45Z</time></trkpt><trkpt lat="44.7251433" lon="7.7999083"><ele>264.6666666666667</ele><time>2026-04-11T06:45:17.45Z</time></trkpt><trkpt lat="44.7252133" lon="7.799855"><ele>265.0</ele><time>2026-04-11T06:45:18.45Z</time></trkpt><trkpt lat="44.7252867" lon="7.7998083"><ele>265.33333333333337</ele><time>2026-04-11T06:45:19.45Z</time></trkpt><trkpt lat="44.72536" lon="7.7997667"><ele>265.6666666666667</ele><time>2026-04-11T06:45:20.45Z</time></trkpt><trkpt lat="44.7254333" lon="7.7997233"><ele>266.0</ele><time>2026-04-11T06:45:21.45Z</time></trkpt><trkpt lat="44.7255083" lon="7.7996783"><ele>266.14285714285717</ele><time>2026-04-11T06:45:22.45Z</time></trkpt><trkpt lat="44.72558" lon="7.7996333"><ele>266.2857142857143</ele><time>2026-04-11T06:45:23.45Z</time></trkpt><trkpt lat="44.7256467" lon="7.7995867"><ele>266.42857142857144</ele><time>2026-04-11T06:45:24.45Z</time></trkpt><trkpt lat="44.7257133" lon="7.7995417"><ele>266.57142857142856</ele><time>2026-04-11T06:45:25.45Z</time></trkpt><trkpt lat="44.7257817" lon="7.799505"><ele>266.7142857142857</ele><time>2026-04-11T06:45:26.45Z</time></trkpt><trkpt lat="44.7258467" lon="7.7994633"><ele>266.8571428571429</ele><time>2026-04-11T06:45:27.45Z</time></trkpt><trkpt lat="44.72591" lon="7.7994217"><ele>267.0</ele><time>2026-04-11T06:45:28.45Z</time></trkpt><trkpt lat="44.7259717" lon="7.799395"><ele>266.3333333333333</ele><time>2026-04-11T06:45:29.45Z</time></trkpt><trkpt lat="44.726085" lon="7.7994267"><ele>265.66666666666663</ele><time>2026-04-11T06:45:31.45Z</time></trkpt><trkpt lat="44.726284" lon="7.7996777"><ele>265.0</ele><time>2026-04-11T06:45:36.609Z</time></trkpt><trkpt lat="44.7261752" lon="7.7994619"><ele>265.0</ele><time>2026-04-11T06:45:38.065Z</time></trkpt><trkpt lat="44.7262951" lon="7.7994612"><ele>265.0</ele><time>2026-04-11T06:45:39.453Z</time></trkpt><trkpt lat="44.7264006" lon="7.7994564"><ele>265.0</ele><time>2026-04-11T06:45:40.453Z</time></trkpt><trkpt lat="44.7264815" lon="7.7994308"><ele>265.0</ele><time>2026-04-11T06:45:41.453Z</time></trkpt><trkpt lat="44.7265573" lon="7.7993924"><ele>265.0</ele><time>2026-04-11T06:45:42.453Z</time></trkpt><trkpt lat="44.7266298" lon="7.7993475"><ele>264.99999999999994</ele><time>2026-04-11T06:45:43.453Z</time></trkpt><trkpt lat="44.7266986" lon="7.7992991"><ele>265.0</ele><time>2026-04-11T06:45:44.453Z</time></trkpt><trkpt lat="44.7267612" lon="7.7992496"><ele>265.0</ele><time>2026-04-11T06:45:45.453Z</time></trkpt><trkpt lat="44.7268247" lon="7.7992011"><ele>265.0</ele><time>2026-04-11T06:45:46.453Z</time></trkpt><trkpt lat="44.7268884" lon="7.7991634"><ele>265.0</ele><time>2026-04-11T06:45:47.453Z</time></trkpt><trkpt lat="44.726952" lon="7.7991471"><ele>264.99999999999994</ele><time>2026-04-11T06:45:48.453Z</time></trkpt><trkpt lat="44.7270167" lon="7.7991638"><ele>265.0</ele><time>2026-04-11T06:45:49.453Z</time></trkpt><trkpt lat="44.7270777" lon="7.7992021"><ele>264.8</ele><time>2026-04-11T06:45:50.453Z</time></trkpt><trkpt lat="44.7271353" lon="7.7992552"><ele>264.6</ele><time>2026-04-11T06:45:51.453Z</time></trkpt><trkpt lat="44.7271923" lon="7.7993023"><ele>264.4</ele><time>2026-04-11T06:45:52.453Z</time></trkpt><trkpt lat="44.7272542" lon="7.7993426"><ele>264.2</ele><time>2026-04-11T06:45:53.453Z</time></trkpt><trkpt lat="44.7273717" lon="7.7993833"><ele>264.0</ele><time>2026-04-11T06:45:55.453Z</time></trkpt><trkpt lat="44.7275" lon="7.7993683"><ele>264.0</ele><time>2026-04-11T06:45:57.453Z</time></trkpt><trkpt lat="44.7275717" lon="7.799355"><ele>264.0</ele><time>2026-04-11T06:45:58.453Z</time></trkpt><trkpt lat="44.7276417" lon="7.79934"><ele>264.0</ele><time>2026-04-11T06:45:59.453Z</time></trkpt><trkpt lat="44.727715" lon="7.7993267"><ele>264.0</ele><time>2026-04-11T06:46:00.453Z</time></trkpt><trkpt lat="44.72779" lon="7.7993133"><ele>264.0</ele><time>2026-04-11T06:46:01.453Z</time></trkpt><trkpt lat="44.7278683" lon="7.799295"><ele>264.0</ele><time>2026-04-11T06:46:02.453Z</time></trkpt><trkpt lat="44.7279467" lon="7.7992783"><ele>264.2857142857143</ele><time>2026-04-11T06:46:03.453Z</time></trkpt><trkpt lat="44.7280217" lon="7.799255"><ele>264.57142857142856</ele><time>2026-04-11T06:46:04.453Z</time></trkpt><trkpt lat="44.7280933" lon="7.7992383"><ele>264.8571428571429</ele><time>2026-04-11T06:46:05.453Z</time></trkpt><trkpt lat="44.7281633" lon="7.799225"><ele>265.1428571428571</ele><time>2026-04-11T06:46:06.453Z</time></trkpt><trkpt lat="44.7282267" lon="7.7992183"><ele>265.42857142857144</ele><time>2026-04-11T06:46:07.453Z</time></trkpt><trkpt lat="44.72829" lon="7.7992067"><ele>265.7142857142857</ele><time>2026-04-11T06:46:08.453Z</time></trkpt><trkpt lat="44.7283617" lon="7.7991933"><ele>266.0</ele><time>2026-04-11T06:46:09.453Z</time></trkpt><trkpt lat="44.728435" lon="7.79918"><ele>266.0</ele><time>2026-04-11T06:46:10.453Z</time></trkpt><trkpt lat="44.72851" lon="7.7991667"><ele>266.0</ele><time>2026-04-11T06:46:11.453Z</time></trkpt><trkpt lat="44.7285833" lon="7.799155"><ele>266.0</ele><time>2026-04-11T06:46:12.453Z</time></trkpt><trkpt lat="44.7286583" lon="7.79914"><ele>266.0</ele><time>2026-04-11T06:46:13.453Z</time></trkpt><trkpt lat="44.7287283" lon="7.7991217"><ele>266.0</ele><time>2026-04-11T06:46:14.453Z</time></trkpt><trkpt lat="44.7287917" lon="7.7990917"><ele>266.0</ele><time>2026-04-11T06:46:15.453Z</time></trkpt><trkpt lat="44.7288467" lon="7.7990333"><ele>266.0</ele><time>2026-04-11T06:46:16.453Z</time></trkpt><trkpt lat="44.7289017" lon="7.7989633"><ele>265.57142857142856</ele><time>2026-04-11T06:46:17.453Z</time></trkpt><trkpt lat="44.7289533" lon="7.7988967"><ele>265.1428571428571</ele><time>2026-04-11T06:46:18.453Z</time></trkpt><trkpt lat="44.729005" lon="7.7988383"><ele>264.7142857142857</ele><time>2026-04-11T06:46:19.453Z</time></trkpt><trkpt lat="44.7290633" lon="7.798785"><ele>264.2857142857143</ele><time>2026-04-11T06:46:20.454Z</time></trkpt><trkpt lat="44.729125" lon="7.7987417"><ele>263.85714285714283</ele><time>2026-04-11T06:46:21.453Z</time></trkpt><trkpt lat="44.7291917" lon="7.7987233"><ele>263.42857142857144</ele><time>2026-04-11T06:46:22.454Z</time></trkpt><trkpt lat="44.7292583" lon="7.798715"><ele>263.0</ele><time>2026-04-11T06:46:23.453Z</time></trkpt><trkpt lat="44.7293283" lon="7.7987033"><ele>263.2857142857143</ele><time>2026-04-11T06:46:24.453Z</time></trkpt><trkpt lat="44.7293983" lon="7.7987"><ele>263.57142857142856</ele><time>2026-04-11T06:46:25.453Z</time></trkpt><trkpt lat="44.729465" lon="7.7986867"><ele>263.85714285714283</ele><time>2026-04-11T06:46:26.453Z</time></trkpt><trkpt lat="44.7295283" lon="7.7986733"><ele>264.1428571428571</ele><time>2026-04-11T06:46:27.453Z</time></trkpt><trkpt lat="44.729595" lon="7.7986617"><ele>264.42857142857144</ele><time>2026-04-11T06:46:28.453Z</time></trkpt><trkpt lat="44.7296617" lon="7.79865"><ele>264.71428571428567</ele><time>2026-04-11T06:46:29.453Z</time></trkpt><trkpt lat="44.7297283" lon="7.79863"><ele>265.0</ele><time>2026-04-11T06:46:30.453Z</time></trkpt><trkpt lat="44.7297967" lon="7.79862"><ele>265.0</ele><time>2026-04-11T06:46:31.453Z</time></trkpt><trkpt lat="44.7298667" lon="7.7986033"><ele>265.0</ele><time>2026-04-11T06:46:32.453Z</time></trkpt><trkpt lat="44.7299867" lon="7.79858"><ele>265.0</ele><time>2026-04-11T06:46:34.453Z</time></trkpt><trkpt lat="44.7301067" lon="7.7986017"><ele>265.0</ele><time>2026-04-11T06:46:36.453Z</time></trkpt><trkpt lat="44.7301717" lon="7.7986017"><ele>265.0</ele><time>2026-04-11T06:46:37.453Z</time></trkpt><trkpt lat="44.7302383" lon="7.798595"><ele>265.0</ele><time>2026-04-11T06:46:38.453Z</time></trkpt><trkpt lat="44.7303083" lon="7.7985817"><ele>265.4285714285714</ele><time>2026-04-11T06:46:39.453Z</time></trkpt><trkpt lat="44.730375" lon="7.79857"><ele>265.85714285714283</ele><time>2026-04-11T06:46:40.453Z</time></trkpt><trkpt lat="44.7304433" lon="7.79856"><ele>266.2857142857143</ele><time>2026-04-11T06:46:41.453Z</time></trkpt><trkpt lat="44.730515" lon="7.798545"><ele>266.71428571428567</ele><time>2026-04-11T06:46:42.453Z</time></trkpt><trkpt lat="44.73059" lon="7.79853"><ele>267.1428571428571</ele><time>2026-04-11T06:46:43.453Z</time></trkpt><trkpt lat="44.7306633" lon="7.7985133"><ele>267.57142857142856</ele><time>2026-04-11T06:46:44.453Z</time></trkpt><trkpt lat="44.7307383" lon="7.7985067"><ele>268.0</ele><time>2026-04-11T06:46:45.453Z</time></trkpt><trkpt lat="44.7308117" lon="7.7985017"><ele>268.16666666666663</ele><time>2026-04-11T06:46:46.453Z</time></trkpt><trkpt lat="44.7308867" lon="7.79849"><ele>268.3333333333333</ele><time>2026-04-11T06:46:47.453Z</time></trkpt><trkpt lat="44.7309617" lon="7.7984733"><ele>268.5</ele><time>2026-04-11T06:46:48.453Z</time></trkpt><trkpt lat="44.7310383" lon="7.7984633"><ele>268.6666666666667</ele><time>2026-04-11T06:46:49.453Z</time></trkpt><trkpt lat="44.731115" lon="7.79845"><ele>268.83333333333337</ele><time>2026-04-11T06:46:50.453Z</time></trkpt><trkpt lat="44.7311917" lon="7.7984433"><ele>269.0</ele><time>2026-04-11T06:46:51.454Z</time></trkpt><trkpt lat="44.731275" lon="7.7984333"><ele>269.0</ele><time>2026-04-11T06:46:52.453Z</time></trkpt><trkpt lat="44.731355" lon="7.7984183"><ele>269.0</ele><time>2026-04-11T06:46:53.453Z</time></trkpt><trkpt lat="44.7314367" lon="7.7984017"><ele>269.0</ele><time>2026-04-11T06:46:54.453Z</time></trkpt><trkpt lat="44.7315183" lon="7.7983833"><ele>269.0</ele><time>2026-04-11T06:46:55.453Z</time></trkpt><trkpt lat="44.7316017" lon="7.7983683"><ele>269.0</ele><time>2026-04-11T06:46:56.454Z</time></trkpt><trkpt lat="44.7316833" lon="7.7983517"><ele>269.0</ele><time>2026-04-11T06:46:57.453Z</time></trkpt><trkpt lat="44.7317633" lon="7.798335"><ele>269.0</ele><time>2026-04-11T06:46:58.453Z</time></trkpt><trkpt lat="44.731845" lon="7.798315"><ele>269.0</ele><time>2026-04-11T06:46:59.453Z</time></trkpt><trkpt lat="44.7319233" lon="7.7982983"><ele>269.0</ele><time>2026-04-11T06:47:00.453Z</time></trkpt><trkpt lat="44.732" lon="7.7982767"><ele>269.0</ele><time>2026-04-11T06:47:01.453Z</time></trkpt><trkpt lat="44.73208" lon="7.7982467"><ele>269.0</ele><time>2026-04-11T06:47:02.453Z</time></trkpt><trkpt lat="44.7321583" lon="7.7982233"><ele>269.0</ele><time>2026-04-11T06:47:03.453Z</time></trkpt><trkpt lat="44.732235" lon="7.7982033"><ele>268.83333333333337</ele><time>2026-04-11T06:47:04.453Z</time></trkpt><trkpt lat="44.7323167" lon="7.7981833"><ele>268.6666666666667</ele><time>2026-04-11T06:47:05.453Z</time></trkpt><trkpt lat="44.732395" lon="7.7981567"><ele>268.5</ele><time>2026-04-11T06:47:06.454Z</time></trkpt><trkpt lat="44.73248" lon="7.7981383"><ele>268.3333333333333</ele><time>2026-04-11T06:47:07.453Z</time></trkpt><trkpt lat="44.7325617" lon="7.7981267"><ele>268.16666666666663</ele><time>2026-04-11T06:47:08.453Z</time></trkpt><trkpt lat="44.7326433" lon="7.7981217"><ele>268.0</ele><time>2026-04-11T06:47:09.453Z</time></trkpt><trkpt lat="44.7327183" lon="7.7981117"><ele>267.5</ele><time>2026-04-11T06:47:10.453Z</time></trkpt><trkpt lat="44.732795" lon="7.7980933"><ele>267.0</ele><time>2026-04-11T06:47:11.453Z</time></trkpt><trkpt lat="44.732875" lon="7.7980917"><ele>266.5</ele><time>2026-04-11T06:47:12.453Z</time></trkpt><trkpt lat="44.7329467" lon="7.7980883"><ele>266.0</ele><time>2026-04-11T06:47:13.453Z</time></trkpt><trkpt lat="44.7330217" lon="7.7980833"><ele>265.5</ele><time>2026-04-11T06:47:14.453Z</time></trkpt><trkpt lat="44.7330967" lon="7.798075"><ele>265.0</ele><time>2026-04-11T06:47:15.453Z</time></trkpt><trkpt lat="44.7331783" lon="7.7980617"><ele>265.0</ele><time>2026-04-11T06:47:16.453Z</time></trkpt><trkpt lat="44.7332583" lon="7.7980533"><ele>265.0</ele><time>2026-04-11T06:47:17.453Z</time></trkpt><trkpt lat="44.7333383" lon="7.7980433"><ele>265.0</ele><time>2026-04-11T06:47:18.453Z</time></trkpt><trkpt lat="44.7334183" lon="7.79803"><ele>265.0</ele><time>2026-04-11T06:47:19.453Z</time></trkpt><trkpt lat="44.733495" lon="7.7980133"><ele>265.0</ele><time>2026-04-11T06:47:20.453Z</time></trkpt><trkpt lat="44.7335767" lon="7.7979983"><ele>265.0</ele><time>2026-04-11T06:47:21.453Z</time></trkpt><trkpt lat="44.7336517" lon="7.7979883"><ele>264.8333333333333</ele><time>2026-04-11T06:47:22.453Z</time></trkpt><trkpt lat="44.73373" lon="7.7979717"><ele>264.66666666666663</ele><time>2026-04-11T06:47:23.453Z</time></trkpt><trkpt lat="44.733805" lon="7.7979533"><ele>264.5</ele><time>2026-04-11T06:47:24.453Z</time></trkpt><trkpt lat="44.73388" lon="7.7979267"><ele>264.3333333333333</ele><time>2026-04-11T06:47:25.453Z</time></trkpt><trkpt lat="44.73395" lon="7.7978967"><ele>264.1666666666667</ele><time>2026-04-11T06:47:26.453Z</time></trkpt><trkpt lat="44.734025" lon="7.7978583"><ele>264.0</ele><time>2026-04-11T06:47:27.453Z</time></trkpt><trkpt lat="44.7341" lon="7.79783"><ele>264.0</ele><time>2026-04-11T06:47:28.453Z</time></trkpt><trkpt lat="44.734175" lon="7.79781"><ele>264.0</ele><time>2026-04-11T06:47:29.453Z</time></trkpt><trkpt lat="44.73425" lon="7.7978"><ele>264.0</ele><time>2026-04-11T06:47:30.454Z</time></trkpt><trkpt lat="44.734325" lon="7.7978067"><ele>264.0</ele><time>2026-04-11T06:47:31.454Z</time></trkpt><trkpt lat="44.7344" lon="7.7978217"><ele>264.0</ele><time>2026-04-11T06:47:32.453Z</time></trkpt><trkpt lat="44.7344767" lon="7.797835"><ele>264.0</ele><time>2026-04-11T06:47:33.453Z</time></trkpt><trkpt lat="44.7345533" lon="7.7978367"><ele>264.1428571428571</ele><time>2026-04-11T06:47:34.453Z</time></trkpt><trkpt lat="44.7346333" lon="7.7978267"><ele>264.2857142857143</ele><time>2026-04-11T06:47:35.453Z</time></trkpt><trkpt lat="44.7347117" lon="7.7978167"><ele>264.42857142857144</ele><time>2026-04-11T06:47:36.453Z</time></trkpt><trkpt lat="44.7347867" lon="7.797805"><ele>264.57142857142856</ele><time>2026-04-11T06:47:37.453Z</time></trkpt><trkpt lat="44.73486" lon="7.797795"><ele>264.7142857142857</ele><time>2026-04-11T06:47:38.453Z</time></trkpt><trkpt lat="44.7349283" lon="7.7977933"><ele>264.85714285714283</ele><time>2026-04-11T06:47:39.453Z</time></trkpt><trkpt lat="44.7349967" lon="7.7977817"><ele>265.0</ele><time>2026-04-11T06:47:40.453Z</time></trkpt><trkpt lat="44.735065" lon="7.797775"><ele>264.99999999999994</ele><time>2026-04-11T06:47:41.453Z</time></trkpt><trkpt lat="44.735135" lon="7.797765"><ele>265.0</ele><time>2026-04-11T06:47:42.453Z</time></trkpt><trkpt lat="44.7352067" lon="7.79776"><ele>265.0</ele><time>2026-04-11T06:47:43.453Z</time></trkpt><trkpt lat="44.7352733" lon="7.7977417"><ele>265.0</ele><time>2026-04-11T06:47:44.453Z</time></trkpt><trkpt lat="44.73534" lon="7.7977283"><ele>265.0</ele><time>2026-04-11T06:47:45.453Z</time></trkpt><trkpt lat="44.73541" lon="7.797715"><ele>264.99999999999994</ele><time>2026-04-11T06:47:46.453Z</time></trkpt><trkpt lat="44.735475" lon="7.7977033"><ele>265.0</ele><time>2026-04-11T06:47:47.453Z</time></trkpt><trkpt lat="44.73554" lon="7.79769"><ele>264.8333333333333</ele><time>2026-04-11T06:47:48.453Z</time></trkpt><trkpt lat="44.7356083" lon="7.7976767"><ele>264.66666666666663</ele><time>2026-04-11T06:47:49.453Z</time></trkpt><trkpt lat="44.7356717" lon="7.7976683"><ele>264.5</ele><time>2026-04-11T06:47:50.453Z</time></trkpt><trkpt lat="44.735735" lon="7.79766"><ele>264.3333333333333</ele><time>2026-04-11T06:47:51.453Z</time></trkpt><trkpt lat="44.7357983" lon="7.7976483"><ele>264.1666666666667</ele><time>2026-04-11T06:47:52.453Z</time></trkpt><trkpt lat="44.7359217" lon="7.7976267"><ele>264.0</ele><time>2026-04-11T06:47:54.453Z</time></trkpt><trkpt lat="44.7360383" lon="7.7976083"><ele>264.0</ele><time>2026-04-11T06:47:56.453Z</time></trkpt><trkpt lat="44.7361533" lon="7.7975933"><ele>264.0</ele><time>2026-04-11T06:47:58.453Z</time></trkpt><trkpt lat="44.7362683" lon="7.7975833"><ele>264.0</ele><time>2026-04-11T06:48:00.453Z</time></trkpt><trkpt lat="44.736385" lon="7.7975733"><ele>264.0</ele><time>2026-04-11T06:48:02.453Z</time></trkpt><trkpt lat="44.7364917" lon="7.7976"><ele>264.0</ele><time>2026-04-11T06:48:04.453Z</time></trkpt><trkpt lat="44.7365967" lon="7.7976367"><ele>264.0</ele><time>2026-04-11T06:48:06.453Z</time></trkpt><trkpt lat="44.7367167" lon="7.7976483"><ele>264.0</ele><time>2026-04-11T06:48:08.454Z</time></trkpt><trkpt lat="44.73682" lon="7.7976183"><ele>264.0</ele><time>2026-04-11T06:48:10.453Z</time></trkpt><trkpt lat="44.7369167" lon="7.797595"><ele>264.0</ele><time>2026-04-11T06:48:12.454Z</time></trkpt><trkpt lat="44.7370183" lon="7.7975767"><ele>264.8</ele><time>2026-04-11T06:48:14.453Z</time></trkpt><trkpt lat="44.7371217" lon="7.7975467"><ele>265.59999999999997</ele><time>2026-04-11T06:48:16.453Z</time></trkpt><trkpt lat="44.73722" lon="7.7975167"><ele>266.4</ele><time>2026-04-11T06:48:18.453Z</time></trkpt><trkpt lat="44.7373167" lon="7.7974933"><ele>267.2</ele><time>2026-04-11T06:48:20.453Z</time></trkpt><trkpt lat="44.7374133" lon="7.797455"><ele>268.0</ele><time>2026-04-11T06:48:22.453Z</time></trkpt><trkpt lat="44.73751" lon="7.7974183"><ele>268.0</ele><time>2026-04-11T06:48:24.453Z</time></trkpt><trkpt lat="44.737615" lon="7.7973883"><ele>268.0</ele><time>2026-04-11T06:48:26.453Z</time></trkpt><trkpt lat="44.7377183" lon="7.7973617"><ele>268.0</ele><time>2026-04-11T06:48:28.453Z</time></trkpt><trkpt lat="44.7378233" lon="7.7973383"><ele>268.0</ele><time>2026-04-11T06:48:30.453Z</time></trkpt><trkpt lat="44.73793" lon="7.7973067"><ele>268.0</ele><time>2026-04-11T06:48:32.453Z</time></trkpt><trkpt lat="44.73804" lon="7.7972867"><ele>267.6</ele><time>2026-04-11T06:48:34.453Z</time></trkpt><trkpt lat="44.7381517" lon="7.79734"><ele>267.20000000000005</ele><time>2026-04-11T06:48:36.453Z</time></trkpt><trkpt lat="44.738255" lon="7.7974233"><ele>266.8</ele><time>2026-04-11T06:48:38.453Z</time></trkpt><trkpt lat="44.7383133" lon="7.79746"><ele>266.40000000000003</ele><time>2026-04-11T06:48:39.453Z</time></trkpt><trkpt lat="44.7384383" lon="7.7974633"><ele>266.0</ele><time>2026-04-11T06:48:41.454Z</time></trkpt><trkpt lat="44.7385017" lon="7.7974517"><ele>265.85714285714283</ele><time>2026-04-11T06:48:42.453Z</time></trkpt><trkpt lat="44.7386217" lon="7.7974167"><ele>265.7142857142857</ele><time>2026-04-11T06:48:44.454Z</time></trkpt><trkpt lat="44.7386833" lon="7.7973983"><ele>265.57142857142856</ele><time>2026-04-11T06:48:45.453Z</time></trkpt><trkpt lat="44.7387467" lon="7.797375"><ele>265.42857142857144</ele><time>2026-04-11T06:48:46.453Z</time></trkpt><trkpt lat="44.73881" lon="7.7973533"><ele>265.2857142857143</ele><time>2026-04-11T06:48:47.453Z</time></trkpt><trkpt lat="44.7388733" lon="7.7973333"><ele>265.1428571428571</ele><time>2026-04-11T06:48:48.453Z</time></trkpt><trkpt lat="44.7389383" lon="7.797315"><ele>265.0</ele><time>2026-04-11T06:48:49.453Z</time></trkpt><trkpt lat="44.739005" lon="7.7973017"><ele>265.0</ele><time>2026-04-11T06:48:50.453Z</time></trkpt><trkpt lat="44.73913" lon="7.797285"><ele>265.0</ele><time>2026-04-11T06:48:52.453Z</time></trkpt><trkpt lat="44.7391933" lon="7.797275"><ele>265.0</ele><time>2026-04-11T06:48:53.453Z</time></trkpt><trkpt lat="44.7392567" lon="7.7972683"><ele>265.0</ele><time>2026-04-11T06:48:54.453Z</time></trkpt><trkpt lat="44.73932" lon="7.7972633"><ele>265.0</ele><time>2026-04-11T06:48:55.453Z</time></trkpt><trkpt lat="44.7393833" lon="7.7972617"><ele>265.0</ele><time>2026-04-11T06:48:56.454Z</time></trkpt><trkpt lat="44.7395" lon="7.7972933"><ele>265.0</ele><time>2026-04-11T06:48:58.453Z</time></trkpt><trkpt lat="44.7395767" lon="7.7974233"><ele>265.0</ele><time>2026-04-11T06:49:00.453Z</time></trkpt><trkpt lat="44.7395967" lon="7.7975083"><ele>265.0</ele><time>2026-04-11T06:49:01.453Z</time></trkpt><trkpt lat="44.7396067" lon="7.7976"><ele>265.0</ele><time>2026-04-11T06:49:02.453Z</time></trkpt><trkpt lat="44.7396233" lon="7.7977683"><ele>265.0</ele><time>2026-04-11T06:49:04.453Z</time></trkpt><trkpt lat="44.7396317" lon="7.79794"><ele>264.8333333333333</ele><time>2026-04-11T06:49:06.453Z</time></trkpt><trkpt lat="44.7396367" lon="7.7981167"><ele>264.66666666666663</ele><time>2026-04-11T06:49:08.453Z</time></trkpt><trkpt lat="44.739645" lon="7.7982067"><ele>264.5</ele><time>2026-04-11T06:49:09.453Z</time></trkpt><trkpt lat="44.739655" lon="7.7983"><ele>264.3333333333333</ele><time>2026-04-11T06:49:10.453Z</time></trkpt><trkpt lat="44.7396633" lon="7.7983933"><ele>264.1666666666667</ele><time>2026-04-11T06:49:11.453Z</time></trkpt><trkpt lat="44.739675" lon="7.7984917"><ele>264.0</ele><time>2026-04-11T06:49:12.453Z</time></trkpt><trkpt lat="44.7396833" lon="7.7985883"><ele>264.2857142857143</ele><time>2026-04-11T06:49:13.453Z</time></trkpt><trkpt lat="44.73969" lon="7.7986917"><ele>264.57142857142856</ele><time>2026-04-11T06:49:14.453Z</time></trkpt><trkpt lat="44.7397" lon="7.7987917"><ele>264.8571428571429</ele><time>2026-04-11T06:49:15.453Z</time></trkpt><trkpt lat="44.7397083" lon="7.7988917"><ele>265.1428571428571</ele><time>2026-04-11T06:49:16.453Z</time></trkpt><trkpt lat="44.7397217" lon="7.7989883"><ele>265.42857142857144</ele><time>2026-04-11T06:49:17.453Z</time></trkpt><trkpt lat="44.73974" lon="7.7990817"><ele>265.7142857142857</ele><time>2026-04-11T06:49:18.453Z</time></trkpt><trkpt lat="44.7397767" lon="7.7991717"><ele>266.0</ele><time>2026-04-11T06:49:19.453Z</time></trkpt><trkpt lat="44.7398267" lon="7.7992433"><ele>266.0</ele><time>2026-04-11T06:49:20.453Z</time></trkpt><trkpt lat="44.73989" lon="7.7992883"><ele>266.0</ele><time>2026-04-11T06:49:21.453Z</time></trkpt><trkpt lat="44.7399533" lon="7.79932"><ele>266.0</ele><time>2026-04-11T06:49:22.453Z</time></trkpt><trkpt lat="44.74002" lon="7.7993417"><ele>266.0</ele><time>2026-04-11T06:49:23.453Z</time></trkpt><trkpt lat="44.7400867" lon="7.7993767"><ele>266.0</ele><time>2026-04-11T06:49:24.453Z</time></trkpt><trkpt lat="44.7401517" lon="7.79941"><ele>266.0</ele><time>2026-04-11T06:49:25.453Z</time></trkpt><trkpt lat="44.740215" lon="7.7994567"><ele>266.0</ele><time>2026-04-11T06:49:26.453Z</time></trkpt><trkpt lat="44.7402783" lon="7.7995067"><ele>266.0</ele><time>2026-04-11T06:49:27.453Z</time></trkpt><trkpt lat="44.7403383" lon="7.79956"><ele>266.0</ele><time>2026-04-11T06:49:28.453Z</time></trkpt><trkpt lat="44.7403983" lon="7.799615"><ele>266.0</ele><time>2026-04-11T06:49:29.453Z</time></trkpt><trkpt lat="44.74046" lon="7.799665"><ele>266.0</ele><time>2026-04-11T06:49:30.453Z</time></trkpt><trkpt lat="44.7405217" lon="7.7997183"><ele>266.0</ele><time>2026-04-11T06:49:31.453Z</time></trkpt><trkpt lat="44.7405817" lon="7.799775"><ele>266.0</ele><time>2026-04-11T06:49:32.453Z</time></trkpt><trkpt lat="44.7406433" lon="7.7998317"><ele>266.0</ele><time>2026-04-11T06:49:33.453Z</time></trkpt><trkpt lat="44.7407033" lon="7.7998883"><ele>266.0</ele><time>2026-04-11T06:49:34.453Z</time></trkpt><trkpt lat="44.7407617" lon="7.799945"><ele>266.0</ele><time>2026-04-11T06:49:35.453Z</time></trkpt><trkpt lat="44.7408217" lon="7.8000017"><ele>266.0</ele><time>2026-04-11T06:49:36.453Z</time></trkpt><trkpt lat="44.7408783" lon="7.8000567"><ele>266.0</ele><time>2026-04-11T06:49:37.453Z</time></trkpt><trkpt lat="44.740935" lon="7.8001083"><ele>266.0</ele><time>2026-04-11T06:49:38.453Z</time></trkpt><trkpt lat="44.7409883" lon="7.8001683"><ele>266.0</ele><time>2026-04-11T06:49:39.453Z</time></trkpt><trkpt lat="44.74104" lon="7.80023"><ele>266.0</ele><time>2026-04-11T06:49:40.453Z</time></trkpt><trkpt lat="44.7410883" lon="7.8003083"><ele>266.57142857142856</ele><time>2026-04-11T06:49:41.453Z</time></trkpt><trkpt lat="44.7411267" lon="7.8003917"><ele>267.1428571428571</ele><time>2026-04-11T06:49:42.453Z</time></trkpt><trkpt lat="44.741165" lon="7.800475"><ele>267.7142857142857</ele><time>2026-04-11T06:49:43.453Z</time></trkpt><trkpt lat="44.741195" lon="7.800565"><ele>268.2857142857143</ele><time>2026-04-11T06:49:44.453Z</time></trkpt><trkpt lat="44.7412217" lon="7.8006583"><ele>268.85714285714283</ele><time>2026-04-11T06:49:45.453Z</time></trkpt><trkpt lat="44.7412483" lon="7.8007467"><ele>269.42857142857144</ele><time>2026-04-11T06:49:46.453Z</time></trkpt><trkpt lat="44.74127" lon="7.8008367"><ele>270.0</ele><time>2026-04-11T06:49:47.453Z</time></trkpt><trkpt lat="44.7412917" lon="7.80093"><ele>269.57142857142856</ele><time>2026-04-11T06:49:48.453Z</time></trkpt><trkpt lat="44.7413117" lon="7.8010233"><ele>269.1428571428571</ele><time>2026-04-11T06:49:49.453Z</time></trkpt><trkpt lat="44.74133" lon="7.8011117"><ele>268.7142857142857</ele><time>2026-04-11T06:49:50.453Z</time></trkpt><trkpt lat="44.74135" lon="7.8012017"><ele>268.2857142857143</ele><time>2026-04-11T06:49:51.454Z</time></trkpt><trkpt lat="44.7413683" lon="7.8012967"><ele>267.8571428571429</ele><time>2026-04-11T06:49:52.453Z</time></trkpt><trkpt lat="44.7413883" lon="7.8013833"><ele>267.42857142857144</ele><time>2026-04-11T06:49:53.453Z</time></trkpt><trkpt lat="44.74141" lon="7.8014733"><ele>267.0</ele><time>2026-04-11T06:49:54.453Z</time></trkpt><trkpt lat="44.741435" lon="7.8015583"><ele>267.00000000000006</ele><time>2026-04-11T06:49:55.453Z</time></trkpt><trkpt lat="44.7414667" lon="7.8016417"><ele>267.0</ele><time>2026-04-11T06:49:56.453Z</time></trkpt><trkpt lat="44.7414983" lon="7.8017233"><ele>267.0</ele><time>2026-04-11T06:49:57.453Z</time></trkpt><trkpt lat="44.7415333" lon="7.80181"><ele>267.0</ele><time>2026-04-11T06:49:58.454Z</time></trkpt><trkpt lat="44.74157" lon="7.80189"><ele>267.0</ele><time>2026-04-11T06:49:59.453Z</time></trkpt><trkpt lat="44.7416133" lon="7.8019683"><ele>267.00000000000006</ele><time>2026-04-11T06:50:00.453Z</time></trkpt><trkpt lat="44.7416533" lon="7.8020467"><ele>267.0</ele><time>2026-04-11T06:50:01.453Z</time></trkpt><trkpt lat="44.74173" lon="7.8021817"><ele>267.0</ele><time>2026-04-11T06:50:03.453Z</time></trkpt><trkpt lat="44.7418017" lon="7.8023067"><ele>267.0</ele><time>2026-04-11T06:50:05.453Z</time></trkpt><trkpt lat="44.74188" lon="7.80243"><ele>267.0</ele><time>2026-04-11T06:50:07.453Z</time></trkpt><trkpt lat="44.741925" lon="7.8024933"><ele>267.0</ele><time>2026-04-11T06:50:08.453Z</time></trkpt><trkpt lat="44.741975" lon="7.8025567"><ele>267.0</ele><time>2026-04-11T06:50:09.454Z</time></trkpt><trkpt lat="44.7420283" lon="7.802615"><ele>267.0</ele><time>2026-04-11T06:50:10.453Z</time></trkpt><trkpt lat="44.7420817" lon="7.8026733"><ele>267.28571428571433</ele><time>2026-04-11T06:50:11.453Z</time></trkpt><trkpt lat="44.742135" lon="7.8027333"><ele>267.57142857142856</ele><time>2026-04-11T06:50:12.453Z</time></trkpt><trkpt lat="44.7421917" lon="7.8027867"><ele>267.8571428571429</ele><time>2026-04-11T06:50:13.453Z</time></trkpt><trkpt lat="44.7422483" lon="7.8028433"><ele>268.14285714285717</ele><time>2026-04-11T06:50:14.453Z</time></trkpt><trkpt lat="44.7423017" lon="7.802905"><ele>268.42857142857144</ele><time>2026-04-11T06:50:15.453Z</time></trkpt><trkpt lat="44.7423583" lon="7.8029583"><ele>268.7142857142857</ele><time>2026-04-11T06:50:16.453Z</time></trkpt><trkpt lat="44.7424133" lon="7.8030117"><ele>269.0</ele><time>2026-04-11T06:50:17.453Z</time></trkpt><trkpt lat="44.74247" lon="7.8030617"><ele>269.0</ele><time>2026-04-11T06:50:18.453Z</time></trkpt><trkpt lat="44.7425267" lon="7.8031117"><ele>269.0</ele><time>2026-04-11T06:50:19.453Z</time></trkpt><trkpt lat="44.7425817" lon="7.8031617"><ele>269.0</ele><time>2026-04-11T06:50:20.454Z</time></trkpt><trkpt lat="44.74264" lon="7.8032117"><ele>269.0</ele><time>2026-04-11T06:50:21.453Z</time></trkpt><trkpt lat="44.7427017" lon="7.80326"><ele>269.0</ele><time>2026-04-11T06:50:22.454Z</time></trkpt><trkpt lat="44.7427583" lon="7.8033017"><ele>269.0</ele><time>2026-04-11T06:50:23.453Z</time></trkpt><trkpt lat="44.7428167" lon="7.80335"><ele>269.0</ele><time>2026-04-11T06:50:24.453Z</time></trkpt><trkpt lat="44.7428767" lon="7.8034"><ele>269.57142857142856</ele><time>2026-04-11T06:50:25.453Z</time></trkpt><trkpt lat="44.74293" lon="7.8034533"><ele>270.14285714285717</ele><time>2026-04-11T06:50:26.453Z</time></trkpt><trkpt lat="44.7429867" lon="7.8035067"><ele>270.7142857142857</ele><time>2026-04-11T06:50:27.453Z</time></trkpt><trkpt lat="44.7430417" lon="7.8035583"><ele>271.2857142857143</ele><time>2026-04-11T06:50:28.453Z</time></trkpt><trkpt lat="44.7431033" lon="7.80361"><ele>271.8571428571429</ele><time>2026-04-11T06:50:29.453Z</time></trkpt><trkpt lat="44.74316" lon="7.80367"><ele>272.42857142857144</ele><time>2026-04-11T06:50:30.453Z</time></trkpt><trkpt lat="44.7432167" lon="7.8037283"><ele>273.0</ele><time>2026-04-11T06:50:31.453Z</time></trkpt><trkpt lat="44.7432717" lon="7.8037917"><ele>273.0</ele><time>2026-04-11T06:50:32.453Z</time></trkpt><trkpt lat="44.743325" lon="7.803855"><ele>273.0</ele><time>2026-04-11T06:50:33.453Z</time></trkpt><trkpt lat="44.74338" lon="7.80391"><ele>273.0</ele><time>2026-04-11T06:50:34.453Z</time></trkpt><trkpt lat="44.7434367" lon="7.803965"><ele>273.0</ele><time>2026-04-11T06:50:35.453Z</time></trkpt><trkpt lat="44.743495" lon="7.8040133"><ele>273.0</ele><time>2026-04-11T06:50:36.453Z</time></trkpt><trkpt lat="44.7435517" lon="7.8040633"><ele>273.0</ele><time>2026-04-11T06:50:37.453Z</time></trkpt><trkpt lat="44.74361" lon="7.8041083"><ele>273.0</ele><time>2026-04-11T06:50:38.453Z</time></trkpt><trkpt lat="44.743675" lon="7.80415"><ele>273.1666666666667</ele><time>2026-04-11T06:50:39.453Z</time></trkpt><trkpt lat="44.7437867" lon="7.804235"><ele>273.3333333333333</ele><time>2026-04-11T06:50:41.453Z</time></trkpt><trkpt lat="44.7438467" lon="7.8042717"><ele>273.5</ele><time>2026-04-11T06:50:42.453Z</time></trkpt><trkpt lat="44.7439117" lon="7.8043067"><ele>273.66666666666663</ele><time>2026-04-11T06:50:43.453Z</time></trkpt><trkpt lat="44.7439767" lon="7.8043383"><ele>273.8333333333333</ele><time>2026-04-11T06:50:44.453Z</time></trkpt><trkpt lat="44.7440417" lon="7.8043683"><ele>274.0</ele><time>2026-04-11T06:50:45.453Z</time></trkpt><trkpt lat="44.744105" lon="7.8044067"><ele>274.00000000000006</ele><time>2026-04-11T06:50:46.453Z</time></trkpt><trkpt lat="44.7441717" lon="7.8044467"><ele>274.0</ele><time>2026-04-11T06:50:47.453Z</time></trkpt><trkpt lat="44.7442383" lon="7.8044817"><ele>274.0</ele><time>2026-04-11T06:50:48.453Z</time></trkpt><trkpt lat="44.7443017" lon="7.8045283"><ele>274.0</ele><time>2026-04-11T06:50:49.453Z</time></trkpt><trkpt lat="44.744365" lon="7.8045767"><ele>274.0</ele><time>2026-04-11T06:50:50.453Z</time></trkpt><trkpt lat="44.74442" lon="7.80463"><ele>274.00000000000006</ele><time>2026-04-11T06:50:51.453Z</time></trkpt><trkpt lat="44.7444767" lon="7.804685"><ele>274.0</ele><time>2026-04-11T06:50:52.453Z</time></trkpt><trkpt lat="44.74453" lon="7.80474"><ele>274.00000000000006</ele><time>2026-04-11T06:50:53.453Z</time></trkpt><trkpt lat="44.744585" lon="7.804805"><ele>274.0</ele><time>2026-04-11T06:50:54.453Z</time></trkpt><trkpt lat="44.7446333" lon="7.8048717"><ele>274.0</ele><time>2026-04-11T06:50:55.453Z</time></trkpt><trkpt lat="44.7446767" lon="7.8049433"><ele>274.0</ele><time>2026-04-11T06:50:56.453Z</time></trkpt><trkpt lat="44.744725" lon="7.8050217"><ele>274.0</ele><time>2026-04-11T06:50:57.453Z</time></trkpt><trkpt lat="44.7447767" lon="7.8050917"><ele>274.00000000000006</ele><time>2026-04-11T06:50:58.453Z</time></trkpt><trkpt lat="44.7448283" lon="7.8051633"><ele>274.0</ele><time>2026-04-11T06:50:59.453Z</time></trkpt><trkpt lat="44.74488" lon="7.805235"><ele>274.00000000000006</ele><time>2026-04-11T06:51:00.453Z</time></trkpt><trkpt lat="44.744935" lon="7.805305"><ele>274.0</ele><time>2026-04-11T06:51:01.453Z</time></trkpt><trkpt lat="44.7449833" lon="7.8053767"><ele>274.0</ele><time>2026-04-11T06:51:02.453Z</time></trkpt><trkpt lat="44.7450317" lon="7.8054433"><ele>274.0</ele><time>2026-04-11T06:51:03.453Z</time></trkpt><trkpt lat="44.7450783" lon="7.8055083"><ele>274.0</ele><time>2026-04-11T06:51:04.453Z</time></trkpt><trkpt lat="44.7451267" lon="7.8055817"><ele>274.00000000000006</ele><time>2026-04-11T06:51:05.453Z</time></trkpt><trkpt lat="44.745175" lon="7.8056567"><ele>274.0</ele><time>2026-04-11T06:51:06.453Z</time></trkpt><trkpt lat="44.745225" lon="7.80573"><ele>274.00000000000006</ele><time>2026-04-11T06:51:07.453Z</time></trkpt><trkpt lat="44.745275" lon="7.8058"><ele>274.0</ele><time>2026-04-11T06:51:08.453Z</time></trkpt><trkpt lat="44.7453283" lon="7.8058717"><ele>274.0</ele><time>2026-04-11T06:51:09.453Z</time></trkpt><trkpt lat="44.7453833" lon="7.80594"><ele>274.0</ele><time>2026-04-11T06:51:10.453Z</time></trkpt><trkpt lat="44.7454417" lon="7.8060033"><ele>274.0</ele><time>2026-04-11T06:51:11.453Z</time></trkpt><trkpt lat="44.7454967" lon="7.806065"><ele>274.00000000000006</ele><time>2026-04-11T06:51:12.453Z</time></trkpt><trkpt lat="44.7455533" lon="7.8061317"><ele>274.0</ele><time>2026-04-11T06:51:13.454Z</time></trkpt><trkpt lat="44.745605" lon="7.8061983"><ele>274.00000000000006</ele><time>2026-04-11T06:51:14.453Z</time></trkpt><trkpt lat="44.7456617" lon="7.80626"><ele>274.0</ele><time>2026-04-11T06:51:15.453Z</time></trkpt><trkpt lat="44.74572" lon="7.8063233"><ele>274.0</ele><time>2026-04-11T06:51:16.453Z</time></trkpt><trkpt lat="44.7457767" lon="7.806385"><ele>274.0</ele><time>2026-04-11T06:51:17.453Z</time></trkpt><trkpt lat="44.74583" lon="7.8064467"><ele>274.0</ele><time>2026-04-11T06:51:18.453Z</time></trkpt><trkpt lat="44.7458833" lon="7.8065083"><ele>274.00000000000006</ele><time>2026-04-11T06:51:19.453Z</time></trkpt><trkpt lat="44.7459383" lon="7.8065683"><ele>274.0</ele><time>2026-04-11T06:51:20.454Z</time></trkpt><trkpt lat="44.7459867" lon="7.80663"><ele>274.0</ele><time>2026-04-11T06:51:21.453Z</time></trkpt><trkpt lat="44.7460383" lon="7.8066933"><ele>274.0</ele><time>2026-04-11T06:51:22.453Z</time></trkpt><trkpt lat="44.7460917" lon="7.8067567"><ele>274.0</ele><time>2026-04-11T06:51:23.453Z</time></trkpt><trkpt lat="44.74614" lon="7.8068167"><ele>274.0</ele><time>2026-04-11T06:51:24.453Z</time></trkpt><trkpt lat="44.7461867" lon="7.80688"><ele>274.0</ele><time>2026-04-11T06:51:25.453Z</time></trkpt><trkpt lat="44.746275" lon="7.8069783"><ele>274.0</ele><time>2026-04-11T06:51:27.453Z</time></trkpt><trkpt lat="44.7463717" lon="7.8070633"><ele>274.16666666666663</ele><time>2026-04-11T06:51:29.453Z</time></trkpt><trkpt lat="44.74645" lon="7.8071767"><ele>274.3333333333333</ele><time>2026-04-11T06:51:31.453Z</time></trkpt><trkpt lat="44.7465333" lon="7.8072717"><ele>274.5</ele><time>2026-04-11T06:51:33.453Z</time></trkpt><trkpt lat="44.74659" lon="7.80732"><ele>274.6666666666667</ele><time>2026-04-11T06:51:35.453Z</time></trkpt><trkpt lat="44.7466467" lon="7.8073633"><ele>274.83333333333337</ele><time>2026-04-11T06:51:38.453Z</time></trkpt><trkpt lat="44.7467167" lon="7.8073733"><ele>275.0</ele><time>2026-04-11T06:51:40.453Z</time></trkpt><trkpt lat="44.7468183" lon="7.8073417"><ele>275.2</ele><time>2026-04-11T06:51:42.453Z</time></trkpt><trkpt lat="44.74693" lon="7.8073"><ele>275.4</ele><time>2026-04-11T06:51:44.453Z</time></trkpt><trkpt lat="44.7470317" lon="7.80727"><ele>275.6</ele><time>2026-04-11T06:51:46.453Z</time></trkpt><trkpt lat="44.7471333" lon="7.8072283"><ele>275.8</ele><time>2026-04-11T06:51:48.453Z</time></trkpt><trkpt lat="44.7472367" lon="7.8072"><ele>276.0</ele><time>2026-04-11T06:51:50.453Z</time></trkpt><trkpt lat="44.7473583" lon="7.8071683"><ele>276.0</ele><time>2026-04-11T06:51:52.453Z</time></trkpt><trkpt lat="44.7474717" lon="7.8071283"><ele>276.0</ele><time>2026-04-11T06:51:54.453Z</time></trkpt><trkpt lat="44.7475967" lon="7.8070783"><ele>276.0</ele><time>2026-04-11T06:51:56.453Z</time></trkpt><trkpt lat="44.747665" lon="7.8070517"><ele>276.0</ele><time>2026-04-11T06:51:57.453Z</time></trkpt><trkpt lat="44.7477367" lon="7.80703"><ele>276.0</ele><time>2026-04-11T06:51:58.453Z</time></trkpt><trkpt lat="44.7478033" lon="7.80701"><ele>276.0</ele><time>2026-04-11T06:51:59.454Z</time></trkpt><trkpt lat="44.74787" lon="7.8069883"><ele>276.0</ele><time>2026-04-11T06:52:00.453Z</time></trkpt><trkpt lat="44.7479383" lon="7.8069633"><ele>276.0</ele><time>2026-04-11T06:52:01.453Z</time></trkpt><trkpt lat="44.748005" lon="7.80694"><ele>276.0</ele><time>2026-04-11T06:52:02.454Z</time></trkpt><trkpt lat="44.74807" lon="7.8069083"><ele>276.0</ele><time>2026-04-11T06:52:03.453Z</time></trkpt><trkpt lat="44.7481317" lon="7.8068783"><ele>276.0</ele><time>2026-04-11T06:52:04.453Z</time></trkpt><trkpt lat="44.7481933" lon="7.80686"><ele>276.0</ele><time>2026-04-11T06:52:05.453Z</time></trkpt><trkpt lat="44.74831" lon="7.806815"><ele>276.0</ele><time>2026-04-11T06:52:07.453Z</time></trkpt><trkpt lat="44.7484217" lon="7.8067683"><ele>276.0</ele><time>2026-04-11T06:52:09.453Z</time></trkpt><trkpt lat="44.7485267" lon="7.8067383"><ele>276.0</ele><time>2026-04-11T06:52:11.453Z</time></trkpt><trkpt lat="44.7486383" lon="7.8067533"><ele>276.0</ele><time>2026-04-11T06:52:13.453Z</time></trkpt><trkpt lat="44.7487483" lon="7.8068317"><ele>276.2857142857143</ele><time>2026-04-11T06:52:15.454Z</time></trkpt><trkpt lat="44.7488017" lon="7.806885"><ele>276.5714285714286</ele><time>2026-04-11T06:52:16.453Z</time></trkpt><trkpt lat="44.7488567" lon="7.8069417"><ele>276.8571428571429</ele><time>2026-04-11T06:52:17.453Z</time></trkpt><trkpt lat="44.7489083" lon="7.8070033"><ele>277.14285714285717</ele><time>2026-04-11T06:52:18.454Z</time></trkpt><trkpt lat="44.748965" lon="7.80706"><ele>277.42857142857144</ele><time>2026-04-11T06:52:19.453Z</time></trkpt><trkpt lat="44.7490183" lon="7.8071183"><ele>277.7142857142857</ele><time>2026-04-11T06:52:20.453Z</time></trkpt><trkpt lat="44.7490733" lon="7.8071733"><ele>278.0</ele><time>2026-04-11T06:52:21.453Z</time></trkpt><trkpt lat="44.74918" lon="7.807265"><ele>278.0</ele><time>2026-04-11T06:52:23.453Z</time></trkpt><trkpt lat="44.749285" lon="7.80736"><ele>278.0</ele><time>2026-04-11T06:52:25.453Z</time></trkpt><trkpt lat="44.7493917" lon="7.807455"><ele>278.0</ele><time>2026-04-11T06:52:27.453Z</time></trkpt><trkpt lat="44.749445" lon="7.807505"><ele>278.0</ele><time>2026-04-11T06:52:28.453Z</time></trkpt><trkpt lat="44.749535" lon="7.807625"><ele>278.0</ele><time>2026-04-11T06:52:30.453Z</time></trkpt><trkpt lat="44.749545" lon="7.80777"><ele>278.6</ele><time>2026-04-11T06:52:32.453Z</time></trkpt><trkpt lat="44.7494867" lon="7.80787"><ele>279.20000000000005</ele><time>2026-04-11T06:52:34.453Z</time></trkpt><trkpt lat="44.749445" lon="7.807985"><ele>279.8</ele><time>2026-04-11T06:52:36.453Z</time></trkpt><trkpt lat="44.7494033" lon="7.8081133"><ele>280.40000000000003</ele><time>2026-04-11T06:52:38.453Z</time></trkpt><trkpt lat="44.7493667" lon="7.808245"><ele>281.0</ele><time>2026-04-11T06:52:40.454Z</time></trkpt><trkpt lat="44.74933" lon="7.8083733"><ele>281.0</ele><time>2026-04-11T06:52:42.453Z</time></trkpt><trkpt lat="44.7493017" lon="7.8085083"><ele>281.0</ele><time>2026-04-11T06:52:44.453Z</time></trkpt><trkpt lat="44.7492717" lon="7.808635"><ele>281.0</ele><time>2026-04-11T06:52:46.453Z</time></trkpt><trkpt lat="44.7492283" lon="7.8087633"><ele>281.0</ele><time>2026-04-11T06:52:48.453Z</time></trkpt><trkpt lat="44.74918" lon="7.8089067"><ele>281.0</ele><time>2026-04-11T06:52:50.453Z</time></trkpt><trkpt lat="44.7491383" lon="7.8090583"><ele>281.0</ele><time>2026-04-11T06:52:52.454Z</time></trkpt><trkpt lat="44.749095" lon="7.80921"><ele>281.0</ele><time>2026-04-11T06:52:54.453Z</time></trkpt><trkpt lat="44.7490783" lon="7.8092967"><ele>281.0</ele><time>2026-04-11T06:52:55.453Z</time></trkpt><trkpt lat="44.7490583" lon="7.8093867"><ele>281.0</ele><time>2026-04-11T06:52:56.453Z</time></trkpt><trkpt lat="44.7490417" lon="7.80948"><ele>281.0</ele><time>2026-04-11T06:52:57.453Z</time></trkpt><trkpt lat="44.74903" lon="7.80958"><ele>281.0</ele><time>2026-04-11T06:52:58.454Z</time></trkpt><trkpt lat="44.7490183" lon="7.80968"><ele>281.00000000000006</ele><time>2026-04-11T06:52:59.453Z</time></trkpt><trkpt lat="44.7490067" lon="7.8097783"><ele>281.0</ele><time>2026-04-11T06:53:00.453Z</time></trkpt><trkpt lat="44.7489917" lon="7.809875"><ele>281.0</ele><time>2026-04-11T06:53:01.453Z</time></trkpt><trkpt lat="44.7489817" lon="7.8099783"><ele>281.0</ele><time>2026-04-11T06:53:02.454Z</time></trkpt><trkpt lat="44.7489717" lon="7.81008"><ele>281.0</ele><time>2026-04-11T06:53:03.453Z</time></trkpt><trkpt lat="44.7489667" lon="7.8101767"><ele>281.00000000000006</ele><time>2026-04-11T06:53:04.453Z</time></trkpt><trkpt lat="44.7489567" lon="7.8102767"><ele>281.0</ele><time>2026-04-11T06:53:05.453Z</time></trkpt><trkpt lat="44.7489483" lon="7.8103717"><ele>281.42857142857144</ele><time>2026-04-11T06:53:06.453Z</time></trkpt><trkpt lat="44.748935" lon="7.810465"><ele>281.8571428571429</ele><time>2026-04-11T06:53:07.453Z</time></trkpt><trkpt lat="44.748915" lon="7.810565"><ele>282.2857142857143</ele><time>2026-04-11T06:53:08.453Z</time></trkpt><trkpt lat="44.7488933" lon="7.8106617"><ele>282.7142857142857</ele><time>2026-04-11T06:53:09.453Z</time></trkpt><trkpt lat="44.7488733" lon="7.8107583"><ele>283.1428571428571</ele><time>2026-04-11T06:53:10.453Z</time></trkpt><trkpt lat="44.7488467" lon="7.8108533"><ele>283.57142857142856</ele><time>2026-04-11T06:53:11.453Z</time></trkpt><trkpt lat="44.7488117" lon="7.8109417"><ele>284.0</ele><time>2026-04-11T06:53:12.453Z</time></trkpt><trkpt lat="44.7487833" lon="7.8110367"><ele>285.0</ele><time>2026-04-11T06:53:13.453Z</time></trkpt><trkpt lat="44.748765" lon="7.8111333"><ele>286.0</ele><time>2026-04-11T06:53:14.453Z</time></trkpt><trkpt lat="44.7487417" lon="7.8112283"><ele>287.0</ele><time>2026-04-11T06:53:15.453Z</time></trkpt><trkpt lat="44.7487117" lon="7.811325"><ele>288.0</ele><time>2026-04-11T06:53:16.453Z</time></trkpt><trkpt lat="44.7486733" lon="7.8114117"><ele>289.0</ele><time>2026-04-11T06:53:17.453Z</time></trkpt><trkpt lat="44.74864" lon="7.8115017"><ele>290.0</ele><time>2026-04-11T06:53:18.453Z</time></trkpt><trkpt lat="44.748615" lon="7.8116"><ele>291.0</ele><time>2026-04-11T06:53:19.453Z</time></trkpt><trkpt lat="44.7485967" lon="7.8117033"><ele>291.0</ele><time>2026-04-11T06:53:20.453Z</time></trkpt><trkpt lat="44.7485783" lon="7.8118033"><ele>291.0</ele><time>2026-04-11T06:53:21.453Z</time></trkpt><trkpt lat="44.74856" lon="7.8119033"><ele>291.0</ele><time>2026-04-11T06:53:22.453Z</time></trkpt><trkpt lat="44.7485367" lon="7.8119983"><ele>291.0</ele><time>2026-04-11T06:53:23.453Z</time></trkpt><trkpt lat="44.7485117" lon="7.8120883"><ele>291.0</ele><time>2026-04-11T06:53:24.454Z</time></trkpt><trkpt lat="44.7484817" lon="7.8121767"><ele>291.0</ele><time>2026-04-11T06:53:25.453Z</time></trkpt><trkpt lat="44.748455" lon="7.81226"><ele>291.0</ele><time>2026-04-11T06:53:26.453Z</time></trkpt><trkpt lat="44.7484317" lon="7.81235"><ele>290.6666666666667</ele><time>2026-04-11T06:53:27.453Z</time></trkpt><trkpt lat="44.7484117" lon="7.8124383"><ele>290.3333333333333</ele><time>2026-04-11T06:53:28.453Z</time></trkpt><trkpt lat="44.7483883" lon="7.812525"><ele>290.0</ele><time>2026-04-11T06:53:29.453Z</time></trkpt><trkpt lat="44.7483633" lon="7.81261"><ele>289.66666666666663</ele><time>2026-04-11T06:53:30.453Z</time></trkpt><trkpt lat="44.7483167" lon="7.8127733"><ele>289.3333333333333</ele><time>2026-04-11T06:53:32.453Z</time></trkpt><trkpt lat="44.748295" lon="7.8128583"><ele>289.0</ele><time>2026-04-11T06:53:33.453Z</time></trkpt><trkpt lat="44.7482433" lon="7.81302"><ele>289.0</ele><time>2026-04-11T06:53:35.453Z</time></trkpt><trkpt lat="44.7481967" lon="7.81317"><ele>289.0</ele><time>2026-04-11T06:53:37.453Z</time></trkpt><trkpt lat="44.7481583" lon="7.8133433"><ele>289.0</ele><time>2026-04-11T06:53:39.453Z</time></trkpt><trkpt lat="44.7481367" lon="7.8134317"><ele>289.0</ele><time>2026-04-11T06:53:40.453Z</time></trkpt><trkpt lat="44.7481133" lon="7.8135167"><ele>289.0</ele><time>2026-04-11T06:53:41.453Z</time></trkpt><trkpt lat="44.7480933" lon="7.8136017"><ele>289.0</ele><time>2026-04-11T06:53:42.453Z</time></trkpt><trkpt lat="44.7480783" lon="7.81369"><ele>288.8</ele><time>2026-04-11T06:53:43.453Z</time></trkpt><trkpt lat="44.7480433" lon="7.81386"><ele>288.59999999999997</ele><time>2026-04-11T06:53:45.453Z</time></trkpt><trkpt lat="44.7480167" lon="7.814035"><ele>288.4</ele><time>2026-04-11T06:53:47.453Z</time></trkpt><trkpt lat="44.7479783" lon="7.8142083"><ele>288.2</ele><time>2026-04-11T06:53:49.454Z</time></trkpt><trkpt lat="44.747955" lon="7.814295"><ele>288.0</ele><time>2026-04-11T06:53:50.453Z</time></trkpt><trkpt lat="44.74794" lon="7.8143883"><ele>288.42857142857144</ele><time>2026-04-11T06:53:51.453Z</time></trkpt><trkpt lat="44.7479367" lon="7.8144817"><ele>288.8571428571429</ele><time>2026-04-11T06:53:52.453Z</time></trkpt><trkpt lat="44.7479433" lon="7.81458"><ele>289.2857142857143</ele><time>2026-04-11T06:53:53.453Z</time></trkpt><trkpt lat="44.7479533" lon="7.814685"><ele>289.7142857142857</ele><time>2026-04-11T06:53:54.453Z</time></trkpt><trkpt lat="44.7479567" lon="7.8147867"><ele>290.1428571428571</ele><time>2026-04-11T06:53:55.453Z</time></trkpt><trkpt lat="44.7479633" lon="7.814895"><ele>290.57142857142856</ele><time>2026-04-11T06:53:56.453Z</time></trkpt><trkpt lat="44.747965" lon="7.8149983"><ele>291.0</ele><time>2026-04-11T06:53:57.453Z</time></trkpt><trkpt lat="44.747965" lon="7.8151017"><ele>291.42857142857144</ele><time>2026-04-11T06:53:58.453Z</time></trkpt><trkpt lat="44.74797" lon="7.81521"><ele>291.85714285714283</ele><time>2026-04-11T06:53:59.453Z</time></trkpt><trkpt lat="44.7479783" lon="7.81531"><ele>292.2857142857143</ele><time>2026-04-11T06:54:00.453Z</time></trkpt><trkpt lat="44.7479933" lon="7.8154067"><ele>292.7142857142857</ele><time>2026-04-11T06:54:01.453Z</time></trkpt><trkpt lat="44.7480033" lon="7.8155033"><ele>293.1428571428571</ele><time>2026-04-11T06:54:02.453Z</time></trkpt><trkpt lat="44.7480083" lon="7.8156"><ele>293.57142857142856</ele><time>2026-04-11T06:54:03.453Z</time></trkpt><trkpt lat="44.7480133" lon="7.8156967"><ele>294.0</ele><time>2026-04-11T06:54:04.453Z</time></trkpt><trkpt lat="44.7480117" lon="7.8157983"><ele>294.0</ele><time>2026-04-11T06:54:05.453Z</time></trkpt><trkpt lat="44.748005" lon="7.8158933"><ele>294.0</ele><time>2026-04-11T06:54:06.453Z</time></trkpt><trkpt lat="44.7479883" lon="7.8159933"><ele>294.0</ele><time>2026-04-11T06:54:07.453Z</time></trkpt><trkpt lat="44.74797" lon="7.8160917"><ele>294.0</ele><time>2026-04-11T06:54:08.453Z</time></trkpt><trkpt lat="44.7479567" lon="7.8161883"><ele>294.0</ele><time>2026-04-11T06:54:09.453Z</time></trkpt><trkpt lat="44.7479367" lon="7.816285"><ele>294.0</ele><time>2026-04-11T06:54:10.453Z</time></trkpt><trkpt lat="44.7479183" lon="7.8163833"><ele>294.0</ele><time>2026-04-11T06:54:11.453Z</time></trkpt><trkpt lat="44.747895" lon="7.81648"><ele>294.0</ele><time>2026-04-11T06:54:12.453Z</time></trkpt><trkpt lat="44.74788" lon="7.8165767"><ele>294.0</ele><time>2026-04-11T06:54:13.453Z</time></trkpt><trkpt lat="44.74786" lon="7.8166667"><ele>294.0</ele><time>2026-04-11T06:54:14.453Z</time></trkpt><trkpt lat="44.74784" lon="7.8167533"><ele>294.0</ele><time>2026-04-11T06:54:15.453Z</time></trkpt><trkpt lat="44.74782" lon="7.8168433"><ele>294.0</ele><time>2026-04-11T06:54:16.453Z</time></trkpt><trkpt lat="44.7478" lon="7.8169417"><ele>294.0</ele><time>2026-04-11T06:54:17.453Z</time></trkpt><trkpt lat="44.747785" lon="7.8170383"><ele>294.0</ele><time>2026-04-11T06:54:18.453Z</time></trkpt><trkpt lat="44.7477667" lon="7.8171283"><ele>294.0</ele><time>2026-04-11T06:54:19.453Z</time></trkpt><trkpt lat="44.74775" lon="7.8172233"><ele>294.0</ele><time>2026-04-11T06:54:20.453Z</time></trkpt><trkpt lat="44.7477317" lon="7.8173233"><ele>294.0</ele><time>2026-04-11T06:54:21.453Z</time></trkpt><trkpt lat="44.7477033" lon="7.817415"><ele>294.0</ele><time>2026-04-11T06:54:22.453Z</time></trkpt><trkpt lat="44.7476783" lon="7.8175033"><ele>294.0</ele><time>2026-04-11T06:54:23.453Z</time></trkpt><trkpt lat="44.7476433" lon="7.8175917"><ele>294.0</ele><time>2026-04-11T06:54:24.453Z</time></trkpt><trkpt lat="44.747615" lon="7.8176867"><ele>294.0</ele><time>2026-04-11T06:54:25.453Z</time></trkpt><trkpt lat="44.7475833" lon="7.8177767"><ele>292.85714285714283</ele><time>2026-04-11T06:54:26.453Z</time></trkpt><trkpt lat="44.74754" lon="7.817855"><ele>291.7142857142857</ele><time>2026-04-11T06:54:27.454Z</time></trkpt><trkpt lat="44.747495" lon="7.817935"><ele>290.57142857142856</ele><time>2026-04-11T06:54:28.453Z</time></trkpt><trkpt lat="44.7474483" lon="7.8180117"><ele>289.42857142857144</ele><time>2026-04-11T06:54:29.453Z</time></trkpt><trkpt lat="44.747405" lon="7.8180833"><ele>288.2857142857143</ele><time>2026-04-11T06:54:30.453Z</time></trkpt><trkpt lat="44.7473617" lon="7.8181683"><ele>287.1428571428571</ele><time>2026-04-11T06:54:31.453Z</time></trkpt><trkpt lat="44.7473167" lon="7.81825"><ele>286.0</ele><time>2026-04-11T06:54:32.453Z</time></trkpt><trkpt lat="44.7472567" lon="7.8184067"><ele>286.8</ele><time>2026-04-11T06:54:34.453Z</time></trkpt><trkpt lat="44.74723" lon="7.8184883"><ele>287.6</ele><time>2026-04-11T06:54:35.453Z</time></trkpt><trkpt lat="44.7471733" lon="7.8186483"><ele>288.4</ele><time>2026-04-11T06:54:37.453Z</time></trkpt><trkpt lat="44.7471183" lon="7.8187967"><ele>289.2</ele><time>2026-04-11T06:54:39.453Z</time></trkpt><trkpt lat="44.74708" lon="7.81896"><ele>290.0</ele><time>2026-04-11T06:54:41.453Z</time></trkpt><trkpt lat="44.7470467" lon="7.8191117"><ele>290.0</ele><time>2026-04-11T06:54:43.453Z</time></trkpt><trkpt lat="44.7470083" lon="7.8192683"><ele>290.0</ele><time>2026-04-11T06:54:45.453Z</time></trkpt><trkpt lat="44.747" lon="7.8194233"><ele>290.0</ele><time>2026-04-11T06:54:47.453Z</time></trkpt><trkpt lat="44.7470233" lon="7.81954"><ele>290.0</ele><time>2026-04-11T06:54:49.453Z</time></trkpt><trkpt lat="44.74709" lon="7.8196067"><ele>290.0</ele><time>2026-04-11T06:54:51.453Z</time></trkpt><trkpt lat="44.7471633" lon="7.81962"><ele>290.57142857142856</ele><time>2026-04-11T06:54:53.453Z</time></trkpt><trkpt lat="44.7472467" lon="7.81964"><ele>291.14285714285717</ele><time>2026-04-11T06:54:55.453Z</time></trkpt><trkpt lat="44.747305" lon="7.8196767"><ele>291.7142857142857</ele><time>2026-04-11T06:54:57.454Z</time></trkpt><trkpt lat="44.747365" lon="7.819725"><ele>292.2857142857143</ele><time>2026-04-11T06:54:59.453Z</time></trkpt><trkpt lat="44.747425" lon="7.8197717"><ele>292.8571428571429</ele><time>2026-04-11T06:55:02.453Z</time></trkpt><trkpt lat="44.74746" lon="7.8198633"><ele>293.42857142857144</ele><time>2026-04-11T06:55:05.453Z</time></trkpt><trkpt lat="44.7475033" lon="7.8199683"><ele>294.0</ele><time>2026-04-11T06:55:08.454Z</time></trkpt><trkpt lat="44.7475383" lon="7.820045"><ele>294.0</ele><time>2026-04-11T06:55:10.453Z</time></trkpt><trkpt lat="44.7475817" lon="7.820125"><ele>294.0</ele><time>2026-04-11T06:55:12.453Z</time></trkpt><trkpt lat="44.747635" lon="7.8201933"><ele>294.0</ele><time>2026-04-11T06:55:14.453Z</time></trkpt><trkpt lat="44.7476783" lon="7.82026"><ele>294.0</ele><time>2026-04-11T06:55:16.453Z</time></trkpt><trkpt lat="44.74775" lon="7.820345"><ele>294.0</ele><time>2026-04-11T06:55:19.453Z</time></trkpt><trkpt lat="44.74783" lon="7.82042"><ele>294.0</ele><time>2026-04-11T06:55:22.453Z</time></trkpt><trkpt lat="44.74789" lon="7.820475"><ele>295.14285714285717</ele><time>2026-04-11T06:55:24.453Z</time></trkpt><trkpt lat="44.7479517" lon="7.8205017"><ele>296.2857142857143</ele><time>2026-04-11T06:55:26.453Z</time></trkpt><trkpt lat="44.7480167" lon="7.8205017"><ele>297.42857142857144</ele><time>2026-04-11T06:55:28.453Z</time></trkpt><trkpt lat="44.748095" lon="7.8204967"><ele>298.57142857142856</ele><time>2026-04-11T06:55:30.453Z</time></trkpt><trkpt lat="44.7481683" lon="7.820505"><ele>299.7142857142857</ele><time>2026-04-11T06:55:32.453Z</time></trkpt><trkpt lat="44.7482367" lon="7.82051"><ele>300.8571428571429</ele><time>2026-04-11T06:55:34.453Z</time></trkpt><trkpt lat="44.7483083" lon="7.8205317"><ele>302.0</ele><time>2026-04-11T06:55:36.453Z</time></trkpt><trkpt lat="44.7483767" lon="7.82056"><ele>302.00000000000006</ele><time>2026-04-11T06:55:38.453Z</time></trkpt><trkpt lat="44.7484383" lon="7.820595"><ele>302.0</ele><time>2026-04-11T06:55:40.453Z</time></trkpt><trkpt lat="44.7485" lon="7.8206267"><ele>302.0</ele><time>2026-04-11T06:55:42.453Z</time></trkpt><trkpt lat="44.7485633" lon="7.82066"><ele>302.0</ele><time>2026-04-11T06:55:44.453Z</time></trkpt><trkpt lat="44.7486233" lon="7.8206983"><ele>302.0</ele><time>2026-04-11T06:55:46.453Z</time></trkpt><trkpt lat="44.7486967" lon="7.82074"><ele>302.00000000000006</ele><time>2026-04-11T06:55:49.453Z</time></trkpt><trkpt lat="44.7487583" lon="7.8207967"><ele>302.0</ele><time>2026-04-11T06:55:52.453Z</time></trkpt><trkpt lat="44.7488217" lon="7.8208517"><ele>303.83333333333337</ele><time>2026-04-11T06:55:55.453Z</time></trkpt><trkpt lat="44.74891" lon="7.8208733"><ele>305.6666666666667</ele><time>2026-04-11T06:55:58.453Z</time></trkpt><trkpt lat="44.7489867" lon="7.8208933"><ele>307.5</ele><time>2026-04-11T06:56:00.453Z</time></trkpt><trkpt lat="44.7490517" lon="7.8209583"><ele>309.3333333333333</ele><time>2026-04-11T06:56:02.453Z</time></trkpt><trkpt lat="44.749105" lon="7.8210117"><ele>311.16666666666663</ele><time>2026-04-11T06:56:04.453Z</time></trkpt><trkpt lat="44.7491817" lon="7.8210683"><ele>313.0</ele><time>2026-04-11T06:56:07.453Z</time></trkpt><trkpt lat="44.7492533" lon="7.82112"><ele>314.5</ele><time>2026-04-11T06:56:10.453Z</time></trkpt><trkpt lat="44.749325" lon="7.8211783"><ele>316.0</ele><time>2026-04-11T06:56:14.453Z</time></trkpt><trkpt lat="44.749385" lon="7.82122"><ele>317.5</ele><time>2026-04-11T06:56:17.453Z</time></trkpt><trkpt lat="44.7494533" lon="7.821255"><ele>319.0</ele><time>2026-04-11T06:56:20.453Z</time></trkpt><trkpt lat="44.7495233" lon="7.8212867"><ele>320.5</ele><time>2026-04-11T06:56:23.453Z</time></trkpt><trkpt lat="44.749595" lon="7.8213167"><ele>322.0</ele><time>2026-04-11T06:56:26.453Z</time></trkpt><trkpt lat="44.74968" lon="7.8213333"><ele>322.66666666666663</ele><time>2026-04-11T06:56:29.453Z</time></trkpt><trkpt lat="44.7497533" lon="7.82136"><ele>323.3333333333333</ele><time>2026-04-11T06:56:32.453Z</time></trkpt><trkpt lat="44.7498283" lon="7.8213983"><ele>324.0</ele><time>2026-04-11T06:56:35.453Z</time></trkpt><trkpt lat="44.7498983" lon="7.8214683"><ele>324.6666666666667</ele><time>2026-04-11T06:56:38.453Z</time></trkpt><trkpt lat="44.7499633" lon="7.82152"><ele>325.33333333333337</ele><time>2026-04-11T06:56:41.453Z</time></trkpt><trkpt lat="44.750035" lon="7.8215583"><ele>326.0</ele><time>2026-04-11T06:56:44.453Z</time></trkpt><trkpt lat="44.7501033" lon="7.8216133"><ele>326.0</ele><time>2026-04-11T06:56:47.453Z</time></trkpt><trkpt lat="44.750155" lon="7.8216783"><ele>326.0</ele><time>2026-04-11T06:56:50.453Z</time></trkpt><trkpt lat="44.750225" lon="7.8217767"><ele>326.0</ele><time>2026-04-11T06:56:53.453Z</time></trkpt><trkpt lat="44.750285" lon="7.821855"><ele>326.0</ele><time>2026-04-11T06:56:55.453Z</time></trkpt><trkpt lat="44.75035" lon="7.8219217"><ele>326.0</ele><time>2026-04-11T06:56:58.453Z</time></trkpt><trkpt lat="44.7503683" lon="7.82203"><ele>326.0</ele><time>2026-04-11T06:57:01.453Z</time></trkpt><trkpt lat="44.7503367" lon="7.82214"><ele>327.0</ele><time>2026-04-11T06:57:04.453Z</time></trkpt><trkpt lat="44.7503017" lon="7.8222183"><ele>328.0</ele><time>2026-04-11T06:57:06.453Z</time></trkpt><trkpt lat="44.7502733" lon="7.8223117"><ele>329.0</ele><time>2026-04-11T06:57:08.453Z</time></trkpt><trkpt lat="44.75027" lon="7.8224367"><ele>330.0</ele><time>2026-04-11T06:57:10.453Z</time></trkpt><trkpt lat="44.750285" lon="7.8225617"><ele>331.0</ele><time>2026-04-11T06:57:12.453Z</time></trkpt><trkpt lat="44.7503033" lon="7.8226933"><ele>332.0</ele><time>2026-04-11T06:57:14.453Z</time></trkpt><trkpt lat="44.75031" lon="7.822815"><ele>332.1666666666667</ele><time>2026-04-11T06:57:16.453Z</time></trkpt><trkpt lat="44.7502533" lon="7.8229183"><ele>332.33333333333337</ele><time>2026-04-11T06:57:19.453Z</time></trkpt><trkpt lat="44.7501933" lon="7.8230117"><ele>332.5</ele><time>2026-04-11T06:57:22.453Z</time></trkpt><trkpt lat="44.7501517" lon="7.8230817"><ele>332.6666666666667</ele><time>2026-04-11T06:57:24.453Z</time></trkpt><trkpt lat="44.7501133" lon="7.8231533"><ele>332.8333333333333</ele><time>2026-04-11T06:57:26.453Z</time></trkpt><trkpt lat="44.7500817" lon="7.8232617"><ele>333.0</ele><time>2026-04-11T06:57:29.453Z</time></trkpt><trkpt lat="44.7501183" lon="7.82335"><ele>333.0</ele><time>2026-04-11T06:57:32.453Z</time></trkpt><trkpt lat="44.7501767" lon="7.823415"><ele>333.0</ele><time>2026-04-11T06:57:35.453Z</time></trkpt><trkpt lat="44.7502417" lon="7.823465"><ele>333.0</ele><time>2026-04-11T06:57:39.453Z</time></trkpt><trkpt lat="44.75033" lon="7.823465"><ele>333.0</ele><time>2026-04-11T06:57:43.453Z</time></trkpt><trkpt lat="44.7504017" lon="7.8234617"><ele>333.0</ele><time>2026-04-11T06:57:45.453Z</time></trkpt><trkpt lat="44.7504667" lon="7.8234683"><ele>333.0</ele><time>2026-04-11T06:57:47.453Z</time></trkpt><trkpt lat="44.75054" lon="7.82348"><ele>333.0</ele><time>2026-04-11T06:57:49.453Z</time></trkpt><trkpt lat="44.7506083" lon="7.82348"><ele>333.8333333333333</ele><time>2026-04-11T06:57:51.453Z</time></trkpt><trkpt lat="44.7506967" lon="7.8234933"><ele>334.6666666666667</ele><time>2026-04-11T06:57:54.453Z</time></trkpt><trkpt lat="44.75077" lon="7.82351"><ele>335.5</ele><time>2026-04-11T06:57:57.453Z</time></trkpt><trkpt lat="44.7508367" lon="7.8234867"><ele>336.33333333333337</ele><time>2026-04-11T06:58:00.453Z</time></trkpt><trkpt lat="44.7508983" lon="7.8234367"><ele>337.1666666666667</ele><time>2026-04-11T06:58:02.453Z</time></trkpt><trkpt lat="44.7509667" lon="7.8233817"><ele>338.0</ele><time>2026-04-11T06:58:04.454Z</time></trkpt><trkpt lat="44.75103" lon="7.8233317"><ele>338.42857142857144</ele><time>2026-04-11T06:58:06.453Z</time></trkpt><trkpt lat="44.75109" lon="7.82329"><ele>338.85714285714283</ele><time>2026-04-11T06:58:08.453Z</time></trkpt><trkpt lat="44.75118" lon="7.8232967"><ele>339.2857142857143</ele><time>2026-04-11T06:58:11.453Z</time></trkpt><trkpt lat="44.7512133" lon="7.8233883"><ele>339.7142857142857</ele><time>2026-04-11T06:58:14.453Z</time></trkpt><trkpt lat="44.75119" lon="7.82348"><ele>340.14285714285717</ele><time>2026-04-11T06:58:56.453Z</time></trkpt><trkpt lat="44.751165" lon="7.8235633"><ele>340.57142857142856</ele><time>2026-04-11T06:58:59.453Z</time></trkpt><trkpt lat="44.751125" lon="7.8236517"><ele>341.0</ele><time>2026-04-11T06:59:03.453Z</time></trkpt><trkpt lat="44.7510883" lon="7.82374"><ele>341.0</ele><time>2026-04-11T06:59:07.453Z</time></trkpt><trkpt lat="44.7510533" lon="7.823815"><ele>341.0</ele><time>2026-04-11T06:59:11.453Z</time></trkpt><trkpt lat="44.7509967" lon="7.8239183"><ele>341.0</ele><time>2026-04-11T06:59:21.453Z</time></trkpt><trkpt lat="44.75094" lon="7.8240167"><ele>341.0</ele><time>2026-04-11T06:59:23.453Z</time></trkpt><trkpt lat="44.7508717" lon="7.824135"><ele>341.0</ele><time>2026-04-11T06:59:25.453Z</time></trkpt><trkpt lat="44.7508017" lon="7.8242567"><ele>340.8</ele><time>2026-04-11T06:59:27.453Z</time></trkpt><trkpt lat="44.7507317" lon="7.8243833"><ele>340.6</ele><time>2026-04-11T06:59:29.453Z</time></trkpt><trkpt lat="44.7506717" lon="7.8245167"><ele>340.4</ele><time>2026-04-11T06:59:31.453Z</time></trkpt><trkpt lat="44.7506033" lon="7.8246583"><ele>340.2</ele><time>2026-04-11T06:59:33.453Z</time></trkpt><trkpt lat="44.750565" lon="7.8247333"><ele>340.0</ele><time>2026-04-11T06:59:34.453Z</time></trkpt><trkpt lat="44.750525" lon="7.82481"><ele>340.0</ele><time>2026-04-11T06:59:35.453Z</time></trkpt><trkpt lat="44.7504867" lon="7.8248833"><ele>340.0</ele><time>2026-04-11T06:59:36.453Z</time></trkpt><trkpt lat="44.750415" lon="7.8250233"><ele>340.0</ele><time>2026-04-11T06:59:38.453Z</time></trkpt><trkpt lat="44.7503483" lon="7.8251617"><ele>340.0</ele><time>2026-04-11T06:59:40.453Z</time></trkpt><trkpt lat="44.75028" lon="7.8252933"><ele>340.0</ele><time>2026-04-11T06:59:42.453Z</time></trkpt><trkpt lat="44.7502133" lon="7.8254317"><ele>340.0</ele><time>2026-04-11T06:59:44.453Z</time></trkpt><trkpt lat="44.7501367" lon="7.8255683"><ele>340.0</ele><time>2026-04-11T06:59:46.453Z</time></trkpt><trkpt lat="44.7500967" lon="7.8256417"><ele>340.0</ele><time>2026-04-11T06:59:47.453Z</time></trkpt><trkpt lat="44.7500583" lon="7.8257167"><ele>340.0</ele><time>2026-04-11T06:59:48.453Z</time></trkpt><trkpt lat="44.7500183" lon="7.8257917"><ele>340.0</ele><time>2026-04-11T06:59:49.453Z</time></trkpt><trkpt lat="44.7499783" lon="7.8258717"><ele>340.0</ele><time>2026-04-11T06:59:50.453Z</time></trkpt><trkpt lat="44.749935" lon="7.8259467"><ele>340.0</ele><time>2026-04-11T06:59:51.454Z</time></trkpt><trkpt lat="44.7498883" lon="7.8260233"><ele>340.0</ele><time>2026-04-11T06:59:52.453Z</time></trkpt><trkpt lat="44.749845" lon="7.8260983"><ele>340.0</ele><time>2026-04-11T06:59:53.453Z</time></trkpt><trkpt lat="44.7498033" lon="7.8261767"><ele>340.0</ele><time>2026-04-11T06:59:54.453Z</time></trkpt><trkpt lat="44.7497633" lon="7.8262583"><ele>340.0</ele><time>2026-04-11T06:59:55.454Z</time></trkpt><trkpt lat="44.7497267" lon="7.82634"><ele>340.0</ele><time>2026-04-11T06:59:56.453Z</time></trkpt><trkpt lat="44.7496867" lon="7.8264167"><ele>340.0</ele><time>2026-04-11T06:59:57.453Z</time></trkpt><trkpt lat="44.7496133" lon="7.8265617"><ele>340.0</ele><time>2026-04-11T06:59:59.453Z</time></trkpt><trkpt lat="44.7495433" lon="7.8266933"><ele>340.0</ele><time>2026-04-11T07:00:01.453Z</time></trkpt><trkpt lat="44.7494767" lon="7.8268067"><ele>340.0</ele><time>2026-04-11T07:00:03.453Z</time></trkpt><trkpt lat="44.7494033" lon="7.82692"><ele>340.0</ele><time>2026-04-11T07:00:05.453Z</time></trkpt><trkpt lat="44.7493333" lon="7.8270383"><ele>340.0</ele><time>2026-04-11T07:00:07.453Z</time></trkpt><trkpt lat="44.7492633" lon="7.8271433"><ele>341.2</ele><time>2026-04-11T07:00:09.453Z</time></trkpt><trkpt lat="44.7491983" lon="7.8272467"><ele>342.4</ele><time>2026-04-11T07:00:11.453Z</time></trkpt><trkpt lat="44.7491267" lon="7.827355"><ele>343.6</ele><time>2026-04-11T07:00:13.453Z</time></trkpt><trkpt lat="44.7490583" lon="7.8274617"><ele>344.8</ele><time>2026-04-11T07:00:15.453Z</time></trkpt><trkpt lat="44.748995" lon="7.8275617"><ele>346.0</ele><time>2026-04-11T07:00:17.453Z</time></trkpt><trkpt lat="44.7489233" lon="7.8276833"><ele>346.0</ele><time>2026-04-11T07:00:19.453Z</time></trkpt><trkpt lat="44.74883" lon="7.8277967"><ele>346.0</ele><time>2026-04-11T07:00:21.453Z</time></trkpt><trkpt lat="44.7487783" lon="7.827855"><ele>346.0</ele><time>2026-04-11T07:00:22.453Z</time></trkpt><trkpt lat="44.7487183" lon="7.8279133"><ele>346.0</ele><time>2026-04-11T07:00:23.453Z</time></trkpt><trkpt lat="44.7486667" lon="7.82797"><ele>346.0</ele><time>2026-04-11T07:00:24.453Z</time></trkpt><trkpt lat="44.74861" lon="7.8280267"><ele>346.0</ele><time>2026-04-11T07:00:25.453Z</time></trkpt><trkpt lat="44.748555" lon="7.82809"><ele>345.85714285714283</ele><time>2026-04-11T07:00:26.453Z</time></trkpt><trkpt lat="44.7485067" lon="7.8281583"><ele>345.7142857142857</ele><time>2026-04-11T07:00:27.453Z</time></trkpt><trkpt lat="44.7484633" lon="7.828235"><ele>345.57142857142856</ele><time>2026-04-11T07:00:28.453Z</time></trkpt><trkpt lat="44.74842" lon="7.8283117"><ele>345.42857142857144</ele><time>2026-04-11T07:00:29.453Z</time></trkpt><trkpt lat="44.7483817" lon="7.8283917"><ele>345.2857142857143</ele><time>2026-04-11T07:00:30.453Z</time></trkpt><trkpt lat="44.748345" lon="7.82847"><ele>345.14285714285717</ele><time>2026-04-11T07:00:31.453Z</time></trkpt><trkpt lat="44.7483067" lon="7.8285583"><ele>345.0</ele><time>2026-04-11T07:00:32.453Z</time></trkpt><trkpt lat="44.7482683" lon="7.8286417"><ele>345.2857142857143</ele><time>2026-04-11T07:00:33.453Z</time></trkpt><trkpt lat="44.748235" lon="7.8287283"><ele>345.57142857142856</ele><time>2026-04-11T07:00:34.453Z</time></trkpt><trkpt lat="44.7482033" lon="7.8288183"><ele>345.8571428571429</ele><time>2026-04-11T07:00:35.453Z</time></trkpt><trkpt lat="44.7481717" lon="7.828905"><ele>346.1428571428571</ele><time>2026-04-11T07:00:36.453Z</time></trkpt><trkpt lat="44.74814" lon="7.828995"><ele>346.4285714285714</ele><time>2026-04-11T07:00:37.453Z</time></trkpt><trkpt lat="44.748105" lon="7.8290817"><ele>346.7142857142857</ele><time>2026-04-11T07:00:38.453Z</time></trkpt><trkpt lat="44.7480733" lon="7.82917"><ele>347.0</ele><time>2026-04-11T07:00:39.453Z</time></trkpt><trkpt lat="44.74805" lon="7.8292583"><ele>347.42857142857144</ele><time>2026-04-11T07:00:40.453Z</time></trkpt><trkpt lat="44.74802" lon="7.8293467"><ele>347.85714285714283</ele><time>2026-04-11T07:00:41.453Z</time></trkpt><trkpt lat="44.7479933" lon="7.82944"><ele>348.2857142857143</ele><time>2026-04-11T07:00:42.453Z</time></trkpt><trkpt lat="44.747975" lon="7.8295333"><ele>348.7142857142857</ele><time>2026-04-11T07:00:43.453Z</time></trkpt><trkpt lat="44.7479583" lon="7.82962"><ele>349.1428571428571</ele><time>2026-04-11T07:00:44.453Z</time></trkpt><trkpt lat="44.747945" lon="7.829715"><ele>349.57142857142856</ele><time>2026-04-11T07:00:45.453Z</time></trkpt><trkpt lat="44.7479333" lon="7.82981"><ele>350.0</ele><time>2026-04-11T07:00:46.453Z</time></trkpt><trkpt lat="44.7479367" lon="7.8299067"><ele>350.0</ele><time>2026-04-11T07:00:47.453Z</time></trkpt><trkpt lat="44.74796" lon="7.8299983"><ele>350.0</ele><time>2026-04-11T07:00:48.453Z</time></trkpt><trkpt lat="44.74799" lon="7.830085"><ele>350.0</ele><time>2026-04-11T07:00:49.453Z</time></trkpt><trkpt lat="44.7480283" lon="7.8301633"><ele>350.0</ele><time>2026-04-11T07:00:50.453Z</time></trkpt><trkpt lat="44.74806" lon="7.8302417"><ele>350.0</ele><time>2026-04-11T07:00:51.453Z</time></trkpt><trkpt lat="44.7480767" lon="7.8303317"><ele>350.0</ele><time>2026-04-11T07:00:52.453Z</time></trkpt><trkpt lat="44.7480833" lon="7.8304267"><ele>350.0</ele><time>2026-04-11T07:00:53.453Z</time></trkpt><trkpt lat="44.7480817" lon="7.8305217"><ele>350.0</ele><time>2026-04-11T07:00:54.454Z</time></trkpt><trkpt lat="44.74808" lon="7.8306167"><ele>350.0</ele><time>2026-04-11T07:00:55.453Z</time></trkpt><trkpt lat="44.7480767" lon="7.8307133"><ele>350.0</ele><time>2026-04-11T07:00:56.453Z</time></trkpt><trkpt lat="44.7480783" lon="7.830815"><ele>350.0</ele><time>2026-04-11T07:00:57.453Z</time></trkpt><trkpt lat="44.748085" lon="7.8309117"><ele>350.0</ele><time>2026-04-11T07:00:58.453Z</time></trkpt><trkpt lat="44.7481033" lon="7.8310017"><ele>350.0</ele><time>2026-04-11T07:00:59.453Z</time></trkpt><trkpt lat="44.7481283" lon="7.831085"><ele>350.0</ele><time>2026-04-11T07:01:00.453Z</time></trkpt><trkpt lat="44.74816" lon="7.8311617"><ele>350.1666666666667</ele><time>2026-04-11T07:01:01.453Z</time></trkpt><trkpt lat="44.7481883" lon="7.8312433"><ele>350.33333333333337</ele><time>2026-04-11T07:01:02.453Z</time></trkpt><trkpt lat="44.7482083" lon="7.8313317"><ele>350.5</ele><time>2026-04-11T07:01:03.454Z</time></trkpt><trkpt lat="44.7482217" lon="7.83151"><ele>350.6666666666667</ele><time>2026-04-11T07:01:05.453Z</time></trkpt><trkpt lat="44.7482233" lon="7.8316"><ele>350.8333333333333</ele><time>2026-04-11T07:01:06.453Z</time></trkpt><trkpt lat="44.7482067" lon="7.831765"><ele>351.0</ele><time>2026-04-11T07:01:08.453Z</time></trkpt><trkpt lat="44.7481667" lon="7.8319317"><ele>351.6</ele><time>2026-04-11T07:01:10.453Z</time></trkpt><trkpt lat="44.7481333" lon="7.832085"><ele>352.20000000000005</ele><time>2026-04-11T07:01:12.453Z</time></trkpt><trkpt lat="44.7481133" lon="7.832245"><ele>352.79999999999995</ele><time>2026-04-11T07:01:14.452Z</time></trkpt><trkpt lat="44.7481067" lon="7.8324017"><ele>353.4</ele><time>2026-04-11T07:01:16.452Z</time></trkpt><trkpt lat="44.748115" lon="7.83255"><ele>354.0</ele><time>2026-04-11T07:01:18.453Z</time></trkpt><trkpt lat="44.7481233" lon="7.8326967"><ele>354.0</ele><time>2026-04-11T07:01:20.452Z</time></trkpt><trkpt lat="44.7481183" lon="7.8328517"><ele>354.0</ele><time>2026-04-11T07:01:22.452Z</time></trkpt><trkpt lat="44.7481133" lon="7.8330133"><ele>354.0</ele><time>2026-04-11T07:01:24.452Z</time></trkpt><trkpt lat="44.7481017" lon="7.8331717"><ele>354.0</ele><time>2026-04-11T07:01:26.452Z</time></trkpt><trkpt lat="44.7480683" lon="7.833335"><ele>354.0</ele><time>2026-04-11T07:01:28.452Z</time></trkpt><trkpt lat="44.7480483" lon="7.83342"><ele>354.0</ele><time>2026-04-11T07:01:29.452Z</time></trkpt><trkpt lat="44.7480283" lon="7.8335083"><ele>354.0</ele><time>2026-04-11T07:01:30.452Z</time></trkpt><trkpt lat="44.7480033" lon="7.8335933"><ele>354.0</ele><time>2026-04-11T07:01:31.452Z</time></trkpt><trkpt lat="44.7479817" lon="7.8336833"><ele>354.0</ele><time>2026-04-11T07:01:32.452Z</time></trkpt><trkpt lat="44.7479633" lon="7.8337767"><ele>354.0</ele><time>2026-04-11T07:01:33.452Z</time></trkpt><trkpt lat="44.747945" lon="7.83388"><ele>354.0</ele><time>2026-04-11T07:01:34.452Z</time></trkpt><trkpt lat="44.7479333" lon="7.8339867"><ele>353.8571428571429</ele><time>2026-04-11T07:01:35.452Z</time></trkpt><trkpt lat="44.74792" lon="7.834095"><ele>353.71428571428567</ele><time>2026-04-11T07:01:36.452Z</time></trkpt><trkpt lat="44.74791" lon="7.8342"><ele>353.57142857142856</ele><time>2026-04-11T07:01:37.452Z</time></trkpt><trkpt lat="44.747895" lon="7.834305"><ele>353.42857142857144</ele><time>2026-04-11T07:01:38.452Z</time></trkpt><trkpt lat="44.7478733" lon="7.8343933"><ele>353.28571428571433</ele><time>2026-04-11T07:01:39.452Z</time></trkpt><trkpt lat="44.747835" lon="7.8344767"><ele>353.1428571428571</ele><time>2026-04-11T07:01:40.452Z</time></trkpt><trkpt lat="44.7477983" lon="7.8345567"><ele>353.0</ele><time>2026-04-11T07:01:41.452Z</time></trkpt><trkpt lat="44.7477633" lon="7.834635"><ele>353.6666666666667</ele><time>2026-04-11T07:01:42.452Z</time></trkpt><trkpt lat="44.7477333" lon="7.8347167"><ele>354.33333333333337</ele><time>2026-04-11T07:01:43.452Z</time></trkpt><trkpt lat="44.7477067" lon="7.8348"><ele>355.0</ele><time>2026-04-11T07:01:44.453Z</time></trkpt><trkpt lat="44.7476817" lon="7.8348817"><ele>355.6666666666667</ele><time>2026-04-11T07:01:45.452Z</time></trkpt><trkpt lat="44.7476567" lon="7.8349633"><ele>356.3333333333333</ele><time>2026-04-11T07:01:46.452Z</time></trkpt><trkpt lat="44.7476083" lon="7.835125"><ele>357.0</ele><time>2026-04-11T07:01:48.452Z</time></trkpt><trkpt lat="44.747565" lon="7.8352817"><ele>358.0</ele><time>2026-04-11T07:01:50.452Z</time></trkpt><trkpt lat="44.7474967" lon="7.8353933"><ele>359.0</ele><time>2026-04-11T07:01:52.452Z</time></trkpt><trkpt lat="44.7474067" lon="7.8354883"><ele>360.0</ele><time>2026-04-11T07:01:54.452Z</time></trkpt><trkpt lat="44.7473067" lon="7.8355633"><ele>361.0</ele><time>2026-04-11T07:01:56.452Z</time></trkpt><trkpt lat="44.747185" lon="7.8356333"><ele>361.0</ele><time>2026-04-11T07:01:58.452Z</time></trkpt><trkpt lat="44.7470767" lon="7.8356983"><ele>361.0</ele><time>2026-04-11T07:02:00.452Z</time></trkpt><trkpt lat="44.7469683" lon="7.8357633"><ele>361.0</ele><time>2026-04-11T07:02:02.453Z</time></trkpt><trkpt lat="44.746855" lon="7.8358233"><ele>361.0</ele><time>2026-04-11T07:02:04.452Z</time></trkpt><trkpt lat="44.746745" lon="7.835895"><ele>361.25</ele><time>2026-04-11T07:02:06.452Z</time></trkpt><trkpt lat="44.7466317" lon="7.835965"><ele>361.5</ele><time>2026-04-11T07:02:08.452Z</time></trkpt><trkpt lat="44.7465317" lon="7.83605"><ele>361.75</ele><time>2026-04-11T07:02:10.452Z</time></trkpt><trkpt lat="44.74643" lon="7.8361367"><ele>362.0</ele><time>2026-04-11T07:02:12.452Z</time></trkpt><trkpt lat="44.746315" lon="7.836205"><ele>362.40000000000003</ele><time>2026-04-11T07:02:14.452Z</time></trkpt><trkpt lat="44.7462183" lon="7.83631"><ele>362.8</ele><time>2026-04-11T07:02:16.452Z</time></trkpt><trkpt lat="44.7461667" lon="7.8364483"><ele>363.2</ele><time>2026-04-11T07:02:18.452Z</time></trkpt><trkpt lat="44.7461383" lon="7.83658"><ele>363.6</ele><time>2026-04-11T07:02:20.452Z</time></trkpt><trkpt lat="44.7460967" lon="7.8367"><ele>364.0</ele><time>2026-04-11T07:02:22.452Z</time></trkpt><trkpt lat="44.7460367" lon="7.8368067"><ele>364.2</ele><time>2026-04-11T07:02:24.452Z</time></trkpt><trkpt lat="44.7459767" lon="7.83692"><ele>364.4</ele><time>2026-04-11T07:02:26.452Z</time></trkpt><trkpt lat="44.7459333" lon="7.83705"><ele>364.6</ele><time>2026-04-11T07:02:28.452Z</time></trkpt><trkpt lat="44.7459083" lon="7.83719"><ele>364.8</ele><time>2026-04-11T07:02:30.452Z</time></trkpt><trkpt lat="44.7458983" lon="7.837325"><ele>365.0</ele><time>2026-04-11T07:02:32.453Z</time></trkpt><trkpt lat="44.745875" lon="7.8374617"><ele>365.0</ele><time>2026-04-11T07:02:34.452Z</time></trkpt><trkpt lat="44.7458283" lon="7.8375867"><ele>365.0</ele><time>2026-04-11T07:02:36.452Z</time></trkpt><trkpt lat="44.745755" lon="7.83767"><ele>365.0</ele><time>2026-04-11T07:02:38.452Z</time></trkpt><trkpt lat="44.74568" lon="7.83772"><ele>365.0</ele><time>2026-04-11T07:02:40.452Z</time></trkpt><trkpt lat="44.74561" lon="7.8377633"><ele>365.0</ele><time>2026-04-11T07:02:42.452Z</time></trkpt><trkpt lat="44.7455367" lon="7.837805"><ele>365.0</ele><time>2026-04-11T07:02:44.453Z</time></trkpt><trkpt lat="44.7454517" lon="7.8378583"><ele>364.4</ele><time>2026-04-11T07:02:46.452Z</time></trkpt><trkpt lat="44.7453633" lon="7.8379133"><ele>363.8</ele><time>2026-04-11T07:02:48.452Z</time></trkpt><trkpt lat="44.74527" lon="7.8379717"><ele>363.20000000000005</ele><time>2026-04-11T07:02:50.452Z</time></trkpt><trkpt lat="44.745175" lon="7.83803"><ele>362.6</ele><time>2026-04-11T07:02:52.452Z</time></trkpt><trkpt lat="44.7450817" lon="7.83809"><ele>362.0</ele><time>2026-04-11T07:02:54.452Z</time></trkpt><trkpt lat="44.74499" lon="7.8381467"><ele>362.6</ele><time>2026-04-11T07:02:56.452Z</time></trkpt><trkpt lat="44.744895" lon="7.8382083"><ele>363.20000000000005</ele><time>2026-04-11T07:02:58.452Z</time></trkpt><trkpt lat="44.7447933" lon="7.8382717"><ele>363.8</ele><time>2026-04-11T07:03:00.453Z</time></trkpt><trkpt lat="44.7446933" lon="7.8383383"><ele>364.4</ele><time>2026-04-11T07:03:02.452Z</time></trkpt><trkpt lat="44.7445883" lon="7.8384033"><ele>365.0</ele><time>2026-04-11T07:03:04.453Z</time></trkpt><trkpt lat="44.7444917" lon="7.8384717"><ele>365.0</ele><time>2026-04-11T07:03:06.452Z</time></trkpt><trkpt lat="44.744385" lon="7.8385367"><ele>365.0</ele><time>2026-04-11T07:03:08.452Z</time></trkpt><trkpt lat="44.74428" lon="7.8386017"><ele>365.0</ele><time>2026-04-11T07:03:10.452Z</time></trkpt><trkpt lat="44.7441767" lon="7.838665"><ele>365.0</ele><time>2026-04-11T07:03:12.452Z</time></trkpt><trkpt lat="44.7440933" lon="7.8386933"><ele>365.0</ele><time>2026-04-11T07:03:14.452Z</time></trkpt><trkpt lat="44.744005" lon="7.8387233"><ele>365.4</ele><time>2026-04-11T07:03:16.452Z</time></trkpt><trkpt lat="44.7438967" lon="7.838795"><ele>365.8</ele><time>2026-04-11T07:03:18.452Z</time></trkpt><trkpt lat="44.7438367" lon="7.838835"><ele>366.20000000000005</ele><time>2026-04-11T07:03:19.452Z</time></trkpt><trkpt lat="44.74378" lon="7.8388767"><ele>366.6</ele><time>2026-04-11T07:03:20.453Z</time></trkpt><trkpt lat="44.7436683" lon="7.8389433"><ele>367.0</ele><time>2026-04-11T07:03:22.452Z</time></trkpt><trkpt lat="44.74357" lon="7.8389917"><ele>367.8</ele><time>2026-04-11T07:03:24.452Z</time></trkpt><trkpt lat="44.7434717" lon="7.8390233"><ele>368.6</ele><time>2026-04-11T07:03:26.452Z</time></trkpt><trkpt lat="44.7433683" lon="7.8390467"><ele>369.40000000000003</ele><time>2026-04-11T07:03:28.452Z</time></trkpt><trkpt lat="44.7432533" lon="7.8390617"><ele>370.20000000000005</ele><time>2026-04-11T07:03:30.452Z</time></trkpt><trkpt lat="44.7431483" lon="7.8390867"><ele>371.0</ele><time>2026-04-11T07:03:32.452Z</time></trkpt><trkpt lat="44.7430517" lon="7.8391267"><ele>371.0</ele><time>2026-04-11T07:03:34.452Z</time></trkpt><trkpt lat="44.7429717" lon="7.839185"><ele>371.0</ele><time>2026-04-11T07:03:36.452Z</time></trkpt><trkpt lat="44.7428983" lon="7.839245"><ele>371.0</ele><time>2026-04-11T07:03:38.452Z</time></trkpt><trkpt lat="44.7428233" lon="7.839315"><ele>371.0</ele><time>2026-04-11T07:03:40.453Z</time></trkpt><trkpt lat="44.7427517" lon="7.8394117"><ele>371.0</ele><time>2026-04-11T07:03:42.453Z</time></trkpt><trkpt lat="44.74268" lon="7.8395183"><ele>371.1666666666667</ele><time>2026-04-11T07:03:44.452Z</time></trkpt><trkpt lat="44.7426017" lon="7.8395967"><ele>371.33333333333337</ele><time>2026-04-11T07:03:46.452Z</time></trkpt><trkpt lat="44.7425333" lon="7.83967"><ele>371.5</ele><time>2026-04-11T07:03:48.452Z</time></trkpt><trkpt lat="44.7424533" lon="7.8397433"><ele>371.6666666666667</ele><time>2026-04-11T07:03:50.452Z</time></trkpt><trkpt lat="44.742375" lon="7.839785"><ele>371.8333333333333</ele><time>2026-04-11T07:03:52.452Z</time></trkpt><trkpt lat="44.7422917" lon="7.8397933"><ele>372.0</ele><time>2026-04-11T07:03:54.452Z</time></trkpt><trkpt lat="44.742195" lon="7.839785"><ele>372.0</ele><time>2026-04-11T07:03:56.452Z</time></trkpt><trkpt lat="44.742095" lon="7.8398067"><ele>372.0</ele><time>2026-04-11T07:03:58.452Z</time></trkpt><trkpt lat="44.74199" lon="7.8398683"><ele>372.0</ele><time>2026-04-11T07:04:00.452Z</time></trkpt><trkpt lat="44.7418983" lon="7.839985"><ele>372.0</ele><time>2026-04-11T07:04:02.452Z</time></trkpt><trkpt lat="44.7418283" lon="7.8401083"><ele>372.6</ele><time>2026-04-11T07:04:04.452Z</time></trkpt><trkpt lat="44.74176" lon="7.840215"><ele>373.20000000000005</ele><time>2026-04-11T07:04:06.452Z</time></trkpt><trkpt lat="44.74169" lon="7.8403"><ele>373.8</ele><time>2026-04-11T07:04:08.452Z</time></trkpt><trkpt lat="44.7416083" lon="7.84039"><ele>374.4</ele><time>2026-04-11T07:04:10.452Z</time></trkpt><trkpt lat="44.7415483" lon="7.840495"><ele>375.0</ele><time>2026-04-11T07:04:12.452Z</time></trkpt><trkpt lat="44.741505" lon="7.8406083"><ele>375.0</ele><time>2026-04-11T07:04:14.452Z</time></trkpt><trkpt lat="44.7414983" lon="7.8407317"><ele>375.0</ele><time>2026-04-11T07:04:16.452Z</time></trkpt><trkpt lat="44.7415067" lon="7.8408567"><ele>375.0</ele><time>2026-04-11T07:04:18.452Z</time></trkpt><trkpt lat="44.7415283" lon="7.8409933"><ele>375.0</ele><time>2026-04-11T07:04:20.452Z</time></trkpt><trkpt lat="44.7415667" lon="7.8411383"><ele>375.0</ele><time>2026-04-11T07:04:22.452Z</time></trkpt><trkpt lat="44.741595" lon="7.8412667"><ele>375.0</ele><time>2026-04-11T07:04:24.452Z</time></trkpt><trkpt lat="44.7415817" lon="7.841405"><ele>375.0</ele><time>2026-04-11T07:04:26.452Z</time></trkpt><trkpt lat="44.7415317" lon="7.8415467"><ele>375.0</ele><time>2026-04-11T07:04:28.452Z</time></trkpt><trkpt lat="44.7414967" lon="7.8416833"><ele>375.0</ele><time>2026-04-11T07:04:30.452Z</time></trkpt><trkpt lat="44.741435" lon="7.8417933"><ele>375.0</ele><time>2026-04-11T07:04:32.452Z</time></trkpt><trkpt lat="44.7413467" lon="7.8418833"><ele>375.0</ele><time>2026-04-11T07:04:34.452Z</time></trkpt><trkpt lat="44.7412367" lon="7.8419367"><ele>375.0</ele><time>2026-04-11T07:04:36.452Z</time></trkpt><trkpt lat="44.7411367" lon="7.8419933"><ele>375.0</ele><time>2026-04-11T07:04:38.452Z</time></trkpt><trkpt lat="44.7410717" lon="7.8420917"><ele>375.0</ele><time>2026-04-11T07:04:40.452Z</time></trkpt><trkpt lat="44.741075" lon="7.842225"><ele>375.0</ele><time>2026-04-11T07:04:42.452Z</time></trkpt><trkpt lat="44.7411217" lon="7.8423733"><ele>375.0</ele><time>2026-04-11T07:04:44.452Z</time></trkpt><trkpt lat="44.7411883" lon="7.8425317"><ele>375.0</ele><time>2026-04-11T07:04:46.452Z</time></trkpt><trkpt lat="44.7412233" lon="7.842615"><ele>375.0</ele><time>2026-04-11T07:04:47.452Z</time></trkpt><trkpt lat="44.7412583" lon="7.84269"><ele>375.0</ele><time>2026-04-11T07:04:48.452Z</time></trkpt><trkpt lat="44.741285" lon="7.84278"><ele>375.0</ele><time>2026-04-11T07:04:49.453Z</time></trkpt><trkpt lat="44.7413067" lon="7.8428717"><ele>375.0</ele><time>2026-04-11T07:04:50.452Z</time></trkpt><trkpt lat="44.7413133" lon="7.8429667"><ele>375.3333333333333</ele><time>2026-04-11T07:04:51.452Z</time></trkpt><trkpt lat="44.7412967" lon="7.84306"><ele>375.6666666666667</ele><time>2026-04-11T07:04:52.452Z</time></trkpt><trkpt lat="44.7412167" lon="7.8431683"><ele>376.0</ele><time>2026-04-11T07:04:54.452Z</time></trkpt><trkpt lat="44.741105" lon="7.8432367"><ele>376.33333333333337</ele><time>2026-04-11T07:04:56.453Z</time></trkpt><trkpt lat="44.7410467" lon="7.8432817"><ele>376.6666666666667</ele><time>2026-04-11T07:04:57.452Z</time></trkpt><trkpt lat="44.7409883" lon="7.84333"><ele>377.0</ele><time>2026-04-11T07:04:58.452Z</time></trkpt><trkpt lat="44.74093" lon="7.84338"><ele>377.4285714285714</ele><time>2026-04-11T07:04:59.452Z</time></trkpt><trkpt lat="44.7408733" lon="7.8434433"><ele>377.85714285714283</ele><time>2026-04-11T07:05:00.452Z</time></trkpt><trkpt lat="44.7408167" lon="7.843505"><ele>378.2857142857143</ele><time>2026-04-11T07:05:01.452Z</time></trkpt><trkpt lat="44.7407583" lon="7.8435567"><ele>378.71428571428567</ele><time>2026-04-11T07:05:02.452Z</time></trkpt><trkpt lat="44.7407017" lon="7.8436017"><ele>379.14285714285717</ele><time>2026-04-11T07:05:03.452Z</time></trkpt><trkpt lat="44.7406417" lon="7.8436467"><ele>379.57142857142856</ele><time>2026-04-11T07:05:04.452Z</time></trkpt><trkpt lat="44.7405817" lon="7.843685"><ele>380.0</ele><time>2026-04-11T07:05:05.452Z</time></trkpt><trkpt lat="44.74052" lon="7.843725"><ele>379.8</ele><time>2026-04-11T07:05:06.452Z</time></trkpt><trkpt lat="44.7404633" lon="7.8437717"><ele>379.6</ele><time>2026-04-11T07:05:07.452Z</time></trkpt><trkpt lat="44.74037" lon="7.8438783"><ele>379.4</ele><time>2026-04-11T07:05:09.452Z</time></trkpt><trkpt lat="44.7403233" lon="7.8439417"><ele>379.2</ele><time>2026-04-11T07:05:10.452Z</time></trkpt><trkpt lat="44.7402517" lon="7.844055"><ele>379.0</ele><time>2026-04-11T07:05:12.452Z</time></trkpt><trkpt lat="44.7401967" lon="7.8441783"><ele>380.4</ele><time>2026-04-11T07:05:14.452Z</time></trkpt><trkpt lat="44.7401383" lon="7.8443233"><ele>381.79999999999995</ele><time>2026-04-11T07:05:16.452Z</time></trkpt><trkpt lat="44.7400867" lon="7.84448"><ele>383.20000000000005</ele><time>2026-04-11T07:05:18.452Z</time></trkpt><trkpt lat="44.7400367" lon="7.8446183"><ele>384.6</ele><time>2026-04-11T07:05:20.452Z</time></trkpt><trkpt lat="44.7400167" lon="7.84474"><ele>386.0</ele><time>2026-04-11T07:05:22.452Z</time></trkpt><trkpt lat="44.74002" lon="7.8448633"><ele>386.0</ele><time>2026-04-11T07:05:24.452Z</time></trkpt><trkpt lat="44.74" lon="7.8450033"><ele>386.0</ele><time>2026-04-11T07:05:26.452Z</time></trkpt><trkpt lat="44.739945" lon="7.8451283"><ele>386.0</ele><time>2026-04-11T07:05:28.452Z</time></trkpt><trkpt lat="44.7398867" lon="7.8452417"><ele>386.0</ele><time>2026-04-11T07:05:30.452Z</time></trkpt><trkpt lat="44.73981" lon="7.8453833"><ele>386.0</ele><time>2026-04-11T07:05:32.452Z</time></trkpt><trkpt lat="44.73979" lon="7.8455383"><ele>385.0</ele><time>2026-04-11T07:05:34.452Z</time></trkpt><trkpt lat="44.7398083" lon="7.8456817"><ele>384.0</ele><time>2026-04-11T07:05:36.452Z</time></trkpt><trkpt lat="44.739835" lon="7.8458533"><ele>383.0</ele><time>2026-04-11T07:05:38.452Z</time></trkpt><trkpt lat="44.739845" lon="7.845945"><ele>382.0</ele><time>2026-04-11T07:05:39.452Z</time></trkpt><trkpt lat="44.7398567" lon="7.8460333"><ele>381.0</ele><time>2026-04-11T07:05:40.452Z</time></trkpt><trkpt lat="44.7398533" lon="7.8462033"><ele>379.6666666666667</ele><time>2026-04-11T07:05:42.452Z</time></trkpt><trkpt lat="44.7398933" lon="7.8463667"><ele>378.3333333333333</ele><time>2026-04-11T07:05:44.452Z</time></trkpt><trkpt lat="44.7399183" lon="7.846455"><ele>377.0</ele><time>2026-04-11T07:05:45.452Z</time></trkpt><trkpt lat="44.7399517" lon="7.8465367"><ele>375.66666666666663</ele><time>2026-04-11T07:05:46.452Z</time></trkpt><trkpt lat="44.7399933" lon="7.8466133"><ele>374.3333333333333</ele><time>2026-04-11T07:05:47.452Z</time></trkpt><trkpt lat="44.7400333" lon="7.8466883"><ele>373.0</ele><time>2026-04-11T07:05:48.452Z</time></trkpt><trkpt lat="44.7400733" lon="7.8467617"><ele>372.16666666666663</ele><time>2026-04-11T07:05:49.452Z</time></trkpt><trkpt lat="44.740145" lon="7.8469033"><ele>371.3333333333333</ele><time>2026-04-11T07:05:51.452Z</time></trkpt><trkpt lat="44.7401733" lon="7.84699"><ele>370.5</ele><time>2026-04-11T07:05:52.452Z</time></trkpt><trkpt lat="44.740185" lon="7.8470917"><ele>369.6666666666667</ele><time>2026-04-11T07:05:53.452Z</time></trkpt><trkpt lat="44.740185" lon="7.847195"><ele>368.83333333333337</ele><time>2026-04-11T07:05:54.452Z</time></trkpt><trkpt lat="44.7401833" lon="7.8472967"><ele>368.0</ele><time>2026-04-11T07:05:55.452Z</time></trkpt><trkpt lat="44.7401733" lon="7.8473933"><ele>368.0</ele><time>2026-04-11T07:05:56.452Z</time></trkpt><trkpt lat="44.740145" lon="7.8474883"><ele>368.0</ele><time>2026-04-11T07:05:57.452Z</time></trkpt><trkpt lat="44.7401033" lon="7.8475817"><ele>368.0</ele><time>2026-04-11T07:05:58.452Z</time></trkpt><trkpt lat="44.7400567" lon="7.8476733"><ele>368.0</ele><time>2026-04-11T07:05:59.452Z</time></trkpt><trkpt lat="44.74001" lon="7.8477767"><ele>368.0</ele><time>2026-04-11T07:06:00.452Z</time></trkpt><trkpt lat="44.7399617" lon="7.8478767"><ele>368.0</ele><time>2026-04-11T07:06:01.452Z</time></trkpt><trkpt lat="44.7399183" lon="7.8479733"><ele>368.14285714285717</ele><time>2026-04-11T07:06:02.452Z</time></trkpt><trkpt lat="44.7398667" lon="7.8480733"><ele>368.2857142857143</ele><time>2026-04-11T07:06:03.452Z</time></trkpt><trkpt lat="44.73982" lon="7.84816"><ele>368.42857142857144</ele><time>2026-04-11T07:06:04.452Z</time></trkpt><trkpt lat="44.7397883" lon="7.8482483"><ele>368.57142857142856</ele><time>2026-04-11T07:06:05.452Z</time></trkpt><trkpt lat="44.73978" lon="7.8483417"><ele>368.71428571428567</ele><time>2026-04-11T07:06:06.453Z</time></trkpt><trkpt lat="44.7397933" lon="7.84844"><ele>368.85714285714283</ele><time>2026-04-11T07:06:07.453Z</time></trkpt><trkpt lat="44.7398233" lon="7.8485283"><ele>369.0</ele><time>2026-04-11T07:06:08.452Z</time></trkpt><trkpt lat="44.739885" lon="7.8486133"><ele>369.0</ele><time>2026-04-11T07:06:09.452Z</time></trkpt><trkpt lat="44.7399483" lon="7.8487033"><ele>369.0</ele><time>2026-04-11T07:06:10.452Z</time></trkpt><trkpt lat="44.74001" lon="7.8488083"><ele>369.0</ele><time>2026-04-11T07:06:11.452Z</time></trkpt><trkpt lat="44.740065" lon="7.8489267"><ele>369.0</ele><time>2026-04-11T07:06:12.453Z</time></trkpt><trkpt lat="44.7401067" lon="7.8490483"><ele>369.0</ele><time>2026-04-11T07:06:13.452Z</time></trkpt><trkpt lat="44.7401383" lon="7.849165"><ele>369.0</ele><time>2026-04-11T07:06:14.452Z</time></trkpt><trkpt lat="44.7401683" lon="7.8492783"><ele>369.0</ele><time>2026-04-11T07:06:15.452Z</time></trkpt><trkpt lat="44.740195" lon="7.849375"><ele>369.0</ele><time>2026-04-11T07:06:16.452Z</time></trkpt><trkpt lat="44.740225" lon="7.849455"><ele>369.0</ele><time>2026-04-11T07:06:17.452Z</time></trkpt><trkpt lat="44.7402933" lon="7.84955"><ele>369.0</ele><time>2026-04-11T07:06:19.452Z</time></trkpt><trkpt lat="44.7403683" lon="7.8496483"><ele>369.0</ele><time>2026-04-11T07:06:21.452Z</time></trkpt><trkpt lat="44.7404317" lon="7.8497233"><ele>370.5</ele><time>2026-04-11T07:06:23.452Z</time></trkpt><trkpt lat="44.740495" lon="7.8497133"><ele>372.0</ele><time>2026-04-11T07:06:25.452Z</time></trkpt><trkpt lat="44.74058" lon="7.8497167"><ele>373.5</ele><time>2026-04-11T07:06:28.452Z</time></trkpt><trkpt lat="44.7406417" lon="7.849795"><ele>375.0</ele><time>2026-04-11T07:06:31.452Z</time></trkpt><trkpt lat="44.7406467" lon="7.8498933"><ele>376.5</ele><time>2026-04-11T07:06:33.452Z</time></trkpt><trkpt lat="44.740635" lon="7.8500133"><ele>378.0</ele><time>2026-04-11T07:06:36.452Z</time></trkpt><trkpt lat="44.7406167" lon="7.8501333"><ele>378.0</ele><time>2026-04-11T07:06:39.452Z</time></trkpt><trkpt lat="44.74062" lon="7.85024"><ele>378.0</ele><time>2026-04-11T07:06:41.452Z</time></trkpt><trkpt lat="44.740645" lon="7.8503533"><ele>378.0</ele><time>2026-04-11T07:06:44.452Z</time></trkpt><trkpt lat="44.7407167" lon="7.8503617"><ele>378.0</ele><time>2026-04-11T07:06:50.452Z</time></trkpt><trkpt lat="44.7407733" lon="7.8503167"><ele>378.0</ele><time>2026-04-11T07:06:52.452Z</time></trkpt><trkpt lat="44.74082" lon="7.850245"><ele>378.0</ele><time>2026-04-11T07:06:55.452Z</time></trkpt><trkpt lat="44.7408783" lon="7.850165"><ele>378.0</ele><time>2026-04-11T07:06:59.452Z</time></trkpt><trkpt lat="44.7409533" lon="7.85012"><ele>378.0</ele><time>2026-04-11T07:07:02.452Z</time></trkpt><trkpt lat="44.7410117" lon="7.8500767"><ele>378.0</ele><time>2026-04-11T07:07:05.452Z</time></trkpt><trkpt lat="44.7411533" lon="7.8499983"><ele>378.0</ele><time>2026-04-11T07:07:12.452Z</time></trkpt><trkpt lat="44.7412333" lon="7.8499333"><ele>378.0</ele><time>2026-04-11T07:07:14.452Z</time></trkpt><trkpt lat="44.7413233" lon="7.849875"><ele>378.0</ele><time>2026-04-11T07:07:16.452Z</time></trkpt><trkpt lat="44.7414" lon="7.8498167"><ele>378.0</ele><time>2026-04-11T07:07:18.452Z</time></trkpt><trkpt lat="44.7414583" lon="7.8497483"><ele>378.0</ele><time>2026-04-11T07:07:20.452Z</time></trkpt><trkpt lat="44.7415033" lon="7.8496483"><ele>378.0</ele><time>2026-04-11T07:07:23.452Z</time></trkpt><trkpt lat="44.741555" lon="7.8495933"><ele>378.0</ele><time>2026-04-11T07:07:26.452Z</time></trkpt><trkpt lat="44.7416283" lon="7.84953"><ele>378.0</ele><time>2026-04-11T07:07:29.452Z</time></trkpt><trkpt lat="44.7416917" lon="7.8494867"><ele>378.0</ele><time>2026-04-11T07:07:31.452Z</time></trkpt><trkpt lat="44.74175" lon="7.84945"><ele>378.0</ele><time>2026-04-11T07:07:33.452Z</time></trkpt><trkpt lat="44.7418117" lon="7.8493617"><ele>377.0</ele><time>2026-04-11T07:07:39.452Z</time></trkpt><trkpt lat="44.741855" lon="7.84926"><ele>376.0</ele><time>2026-04-11T07:07:43.452Z</time></trkpt><trkpt lat="44.741915" lon="7.849175"><ele>375.0</ele><time>2026-04-11T07:07:45.452Z</time></trkpt><trkpt lat="44.7419733" lon="7.8491183"><ele>374.0</ele><time>2026-04-11T07:07:47.452Z</time></trkpt><trkpt lat="44.742045" lon="7.8490683"><ele>373.0</ele><time>2026-04-11T07:07:50.452Z</time></trkpt><trkpt lat="44.7421067" lon="7.8490133"><ele>372.0</ele><time>2026-04-11T07:07:53.452Z</time></trkpt><trkpt lat="44.74217" lon="7.8489867"><ele>372.0</ele><time>2026-04-11T07:07:55.452Z</time></trkpt><trkpt lat="44.74224" lon="7.84896"><ele>372.0</ele><time>2026-04-11T07:07:57.452Z</time></trkpt><trkpt lat="44.742305" lon="7.8489167"><ele>372.0</ele><time>2026-04-11T07:07:59.452Z</time></trkpt><trkpt lat="44.7423683" lon="7.8488633"><ele>372.0</ele><time>2026-04-11T07:08:01.452Z</time></trkpt><trkpt lat="44.7424317" lon="7.8488117"><ele>372.0</ele><time>2026-04-11T07:08:03.452Z</time></trkpt><trkpt lat="44.7425217" lon="7.8487517"><ele>372.0</ele><time>2026-04-11T07:08:05.452Z</time></trkpt><trkpt lat="44.7426183" lon="7.8487"><ele>372.0</ele><time>2026-04-11T07:08:07.452Z</time></trkpt><trkpt lat="44.74272" lon="7.848635"><ele>372.0</ele><time>2026-04-11T07:08:09.452Z</time></trkpt><trkpt lat="44.742805" lon="7.848565"><ele>372.0</ele><time>2026-04-11T07:08:11.452Z</time></trkpt><trkpt lat="44.74288" lon="7.848505"><ele>372.0</ele><time>2026-04-11T07:08:13.452Z</time></trkpt><trkpt lat="44.7429733" lon="7.84843"><ele>372.0</ele><time>2026-04-11T07:08:15.452Z</time></trkpt><trkpt lat="44.7430467" lon="7.8484"><ele>371.6666666666667</ele><time>2026-04-11T07:08:17.452Z</time></trkpt><trkpt lat="44.7431367" lon="7.84837"><ele>371.3333333333333</ele><time>2026-04-11T07:08:20.452Z</time></trkpt><trkpt lat="44.7432033" lon="7.8483417"><ele>371.0</ele><time>2026-04-11T07:08:22.453Z</time></trkpt><trkpt lat="44.743265" lon="7.8482917"><ele>370.66666666666663</ele><time>2026-04-11T07:08:25.452Z</time></trkpt><trkpt lat="44.7433317" lon="7.8482567"><ele>370.3333333333333</ele><time>2026-04-11T07:08:28.452Z</time></trkpt><trkpt lat="44.7434117" lon="7.848205"><ele>370.0</ele><time>2026-04-11T07:08:30.452Z</time></trkpt><trkpt lat="44.74347" lon="7.848135"><ele>370.0</ele><time>2026-04-11T07:08:32.452Z</time></trkpt><trkpt lat="44.743525" lon="7.8480433"><ele>370.0</ele><time>2026-04-11T07:08:35.452Z</time></trkpt><trkpt lat="44.7435683" lon="7.8479467"><ele>370.0</ele><time>2026-04-11T07:08:39.452Z</time></trkpt><trkpt lat="44.7436083" lon="7.8478717"><ele>370.0</ele><time>2026-04-11T07:08:41.452Z</time></trkpt><trkpt lat="44.743655" lon="7.8478117"><ele>370.0</ele><time>2026-04-11T07:08:43.452Z</time></trkpt><trkpt lat="44.7437333" lon="7.8477483"><ele>370.0</ele><time>2026-04-11T07:08:46.452Z</time></trkpt><trkpt lat="44.74382" lon="7.8477167"><ele>369.3333333333333</ele><time>2026-04-11T07:08:49.452Z</time></trkpt><trkpt lat="44.7438817" lon="7.847685"><ele>368.66666666666663</ele><time>2026-04-11T07:08:51.452Z</time></trkpt><trkpt lat="44.74395" lon="7.8476417"><ele>368.0</ele><time>2026-04-11T07:08:53.452Z</time></trkpt><trkpt lat="44.7440267" lon="7.8475933"><ele>367.3333333333333</ele><time>2026-04-11T07:08:55.452Z</time></trkpt><trkpt lat="44.7441117" lon="7.8475767"><ele>366.6666666666667</ele><time>2026-04-11T07:08:58.452Z</time></trkpt><trkpt lat="44.7441767" lon="7.8475717"><ele>366.0</ele><time>2026-04-11T07:09:01.452Z</time></trkpt><trkpt lat="44.74431" lon="7.8476067"><ele>366.0</ele><time>2026-04-11T07:09:21.452Z</time></trkpt><trkpt lat="44.7443467" lon="7.847755"><ele>366.0</ele><time>2026-04-11T07:09:30.452Z</time></trkpt><trkpt lat="44.7444483" lon="7.8478683"><ele>366.0</ele><time>2026-04-11T07:09:33.452Z</time></trkpt><trkpt lat="44.7443933" lon="7.847945"><ele>366.0</ele><time>2026-04-11T07:09:37.452Z</time></trkpt><trkpt lat="44.7443333" lon="7.84804"><ele>366.0</ele><time>2026-04-11T07:09:40.452Z</time></trkpt><trkpt lat="44.7442717" lon="7.8482233"><ele>366.0</ele><time>2026-04-11T07:09:42.452Z</time></trkpt><trkpt lat="44.7442083" lon="7.8483483"><ele>366.0</ele><time>2026-04-11T07:09:44.452Z</time></trkpt><trkpt lat="44.7441033" lon="7.8484483"><ele>366.0</ele><time>2026-04-11T07:09:46.452Z</time></trkpt><trkpt lat="44.74401" lon="7.8485333"><ele>366.0</ele><time>2026-04-11T07:09:48.452Z</time></trkpt><trkpt lat="44.743925" lon="7.8486017"><ele>366.0</ele><time>2026-04-11T07:09:50.452Z</time></trkpt><trkpt lat="44.7438767" lon="7.84867"><ele>366.7142857142857</ele><time>2026-04-11T07:09:52.452Z</time></trkpt><trkpt lat="44.74382" lon="7.84874"><ele>367.42857142857144</ele><time>2026-04-11T07:09:55.452Z</time></trkpt><trkpt lat="44.7437783" lon="7.8488117"><ele>368.1428571428571</ele><time>2026-04-11T07:09:58.452Z</time></trkpt><trkpt lat="44.743735" lon="7.8488783"><ele>368.8571428571429</ele><time>2026-04-11T07:10:01.452Z</time></trkpt><trkpt lat="44.7436733" lon="7.8489433"><ele>369.57142857142856</ele><time>2026-04-11T07:10:04.452Z</time></trkpt><trkpt lat="44.7436017" lon="7.8490033"><ele>370.2857142857143</ele><time>2026-04-11T07:10:07.452Z</time></trkpt><trkpt lat="44.74354" lon="7.8490683"><ele>371.0</ele><time>2026-04-11T07:10:10.452Z</time></trkpt><trkpt lat="44.7434767" lon="7.8491133"><ele>371.1666666666667</ele><time>2026-04-11T07:10:13.452Z</time></trkpt><trkpt lat="44.7434083" lon="7.8491417"><ele>371.33333333333337</ele><time>2026-04-11T07:10:16.452Z</time></trkpt><trkpt lat="44.7433517" lon="7.8492067"><ele>371.5</ele><time>2026-04-11T07:10:20.452Z</time></trkpt><trkpt lat="44.7432817" lon="7.8492517"><ele>371.6666666666667</ele><time>2026-04-11T07:10:23.452Z</time></trkpt><trkpt lat="44.7432" lon="7.84929"><ele>371.8333333333333</ele><time>2026-04-11T07:10:26.452Z</time></trkpt><trkpt lat="44.7431417" lon="7.8493467"><ele>372.0</ele><time>2026-04-11T07:10:29.452Z</time></trkpt><trkpt lat="44.743045" lon="7.8494333"><ele>372.5</ele><time>2026-04-11T07:10:33.452Z</time></trkpt><trkpt lat="44.7429917" lon="7.8494817"><ele>373.0</ele><time>2026-04-11T07:10:35.452Z</time></trkpt><trkpt lat="44.742995" lon="7.8496117"><ele>373.5</ele><time>2026-04-11T07:10:47.452Z</time></trkpt><trkpt lat="44.7430933" lon="7.8497133"><ele>374.0</ele><time>2026-04-11T07:10:56.452Z</time></trkpt><trkpt lat="44.743135" lon="7.8497967"><ele>374.5</ele><time>2026-04-11T07:11:00.452Z</time></trkpt><trkpt lat="44.7431517" lon="7.8498933"><ele>375.0</ele><time>2026-04-11T07:11:03.452Z</time></trkpt><trkpt lat="44.743155" lon="7.85001"><ele>375.0</ele><time>2026-04-11T07:11:06.452Z</time></trkpt><trkpt lat="44.7431817" lon="7.8500933"><ele>375.0</ele><time>2026-04-11T07:11:11.452Z</time></trkpt><trkpt lat="44.7432517" lon="7.8500933"><ele>375.0</ele><time>2026-04-11T07:11:14.452Z</time></trkpt><trkpt lat="44.7433217" lon="7.850055"><ele>375.0</ele><time>2026-04-11T07:11:16.452Z</time></trkpt><trkpt lat="44.7433983" lon="7.8499483"><ele>375.0</ele><time>2026-04-11T07:11:18.452Z</time></trkpt><trkpt lat="44.7434883" lon="7.8498483"><ele>375.0</ele><time>2026-04-11T07:11:20.452Z</time></trkpt><trkpt lat="44.7435867" lon="7.8497783"><ele>374.3333333333333</ele><time>2026-04-11T07:11:22.453Z</time></trkpt><trkpt lat="44.7436617" lon="7.8497117"><ele>373.6666666666667</ele><time>2026-04-11T07:11:24.453Z</time></trkpt><trkpt lat="44.7437367" lon="7.8496517"><ele>373.0</ele><time>2026-04-11T07:11:26.452Z</time></trkpt><trkpt lat="44.7438" lon="7.8495683"><ele>372.33333333333337</ele><time>2026-04-11T07:11:28.452Z</time></trkpt><trkpt lat="44.7438517" lon="7.8494833"><ele>371.6666666666667</ele><time>2026-04-11T07:11:30.452Z</time></trkpt><trkpt lat="44.743885" lon="7.8494"><ele>371.0</ele><time>2026-04-11T07:11:32.452Z</time></trkpt><trkpt lat="44.7439317" lon="7.8493267"><ele>371.0</ele><time>2026-04-11T07:11:34.452Z</time></trkpt><trkpt lat="44.7439983" lon="7.8492417"><ele>371.0</ele><time>2026-04-11T07:11:36.452Z</time></trkpt><trkpt lat="44.7440583" lon="7.8491967"><ele>371.0</ele><time>2026-04-11T07:11:38.452Z</time></trkpt><trkpt lat="44.744155" lon="7.8491667"><ele>371.0</ele><time>2026-04-11T07:11:40.452Z</time></trkpt><trkpt lat="44.7442483" lon="7.84913"><ele>371.0</ele><time>2026-04-11T07:11:42.452Z</time></trkpt><trkpt lat="44.74432" lon="7.8491217"><ele>371.0</ele><time>2026-04-11T07:11:45.452Z</time></trkpt><trkpt lat="44.744405" lon="7.8490733"><ele>370.33333333333337</ele><time>2026-04-11T07:11:48.452Z</time></trkpt><trkpt lat="44.7444917" lon="7.8489967"><ele>369.6666666666667</ele><time>2026-04-11T07:11:50.452Z</time></trkpt><trkpt lat="44.7445733" lon="7.8489383"><ele>369.0</ele><time>2026-04-11T07:11:52.452Z</time></trkpt><trkpt lat="44.7446467" lon="7.8489267"><ele>368.3333333333333</ele><time>2026-04-11T07:11:54.452Z</time></trkpt><trkpt lat="44.7447183" lon="7.8489367"><ele>367.66666666666663</ele><time>2026-04-11T07:11:56.452Z</time></trkpt><trkpt lat="44.7448017" lon="7.8489533"><ele>367.0</ele><time>2026-04-11T07:11:59.452Z</time></trkpt><trkpt lat="44.7448683" lon="7.8489583"><ele>367.0</ele><time>2026-04-11T07:12:01.452Z</time></trkpt><trkpt lat="44.744935" lon="7.8489483"><ele>367.0</ele><time>2026-04-11T07:12:03.452Z</time></trkpt><trkpt lat="44.7450233" lon="7.8489317"><ele>367.0</ele><time>2026-04-11T07:12:06.452Z</time></trkpt><trkpt lat="44.7450833" lon="7.8488683"><ele>367.0</ele><time>2026-04-11T07:12:08.452Z</time></trkpt><trkpt lat="44.7451267" lon="7.8487683"><ele>367.0</ele><time>2026-04-11T07:12:10.452Z</time></trkpt><trkpt lat="44.7451817" lon="7.8486833"><ele>367.0</ele><time>2026-04-11T07:12:12.452Z</time></trkpt><trkpt lat="44.74527" lon="7.8485983"><ele>366.5</ele><time>2026-04-11T07:12:14.452Z</time></trkpt><trkpt lat="44.7453633" lon="7.84853"><ele>366.0</ele><time>2026-04-11T07:12:16.452Z</time></trkpt><trkpt lat="44.74542" lon="7.84847"><ele>365.5</ele><time>2026-04-11T07:12:17.452Z</time></trkpt><trkpt lat="44.7454717" lon="7.8484183"><ele>365.0</ele><time>2026-04-11T07:12:18.452Z</time></trkpt><trkpt lat="44.7455717" lon="7.8483417"><ele>364.5</ele><time>2026-04-11T07:12:20.452Z</time></trkpt><trkpt lat="44.7456333" lon="7.8483117"><ele>364.0</ele><time>2026-04-11T07:12:21.452Z</time></trkpt><trkpt lat="44.7456933" lon="7.848275"><ele>364.0</ele><time>2026-04-11T07:12:22.452Z</time></trkpt><trkpt lat="44.7457767" lon="7.8482067"><ele>364.0</ele><time>2026-04-11T07:12:23.452Z</time></trkpt><trkpt lat="44.745855" lon="7.8481533"><ele>364.0</ele><time>2026-04-11T07:12:24.452Z</time></trkpt><trkpt lat="44.7459183" lon="7.84811"><ele>364.0</ele><time>2026-04-11T07:12:25.452Z</time></trkpt><trkpt lat="44.745975" lon="7.8480583"><ele>364.0</ele><time>2026-04-11T07:12:26.452Z</time></trkpt><trkpt lat="44.7460267" lon="7.8480017"><ele>364.0</ele><time>2026-04-11T07:12:27.452Z</time></trkpt><trkpt lat="44.7460783" lon="7.84795"><ele>363.4</ele><time>2026-04-11T07:12:28.452Z</time></trkpt><trkpt lat="44.746165" lon="7.847865"><ele>362.79999999999995</ele><time>2026-04-11T07:12:30.453Z</time></trkpt><trkpt lat="44.746255" lon="7.8477983"><ele>362.20000000000005</ele><time>2026-04-11T07:12:32.452Z</time></trkpt><trkpt lat="44.7463667" lon="7.847755"><ele>361.6</ele><time>2026-04-11T07:12:34.452Z</time></trkpt><trkpt lat="44.7464333" lon="7.8477333"><ele>361.0</ele><time>2026-04-11T07:12:35.452Z</time></trkpt><trkpt lat="44.7465133" lon="7.847715"><ele>361.0</ele><time>2026-04-11T07:12:36.452Z</time></trkpt><trkpt lat="44.7466033" lon="7.8476767"><ele>361.0</ele><time>2026-04-11T07:12:37.452Z</time></trkpt><trkpt lat="44.7466917" lon="7.8476417"><ele>361.0</ele><time>2026-04-11T07:12:38.452Z</time></trkpt><trkpt lat="44.746775" lon="7.8476117"><ele>361.0</ele><time>2026-04-11T07:12:39.453Z</time></trkpt><trkpt lat="44.74684" lon="7.84759"><ele>361.0</ele><time>2026-04-11T07:12:40.452Z</time></trkpt><trkpt lat="44.7469133" lon="7.8475633"><ele>361.0</ele><time>2026-04-11T07:12:42.452Z</time></trkpt><trkpt lat="44.7469817" lon="7.8475667"><ele>361.0</ele><time>2026-04-11T07:13:03.452Z</time></trkpt><trkpt lat="44.74707" lon="7.8476483"><ele>361.0</ele><time>2026-04-11T07:13:20.452Z</time></trkpt><trkpt lat="44.74703" lon="7.84773"><ele>361.0</ele><time>2026-04-11T07:13:26.452Z</time></trkpt><trkpt lat="44.7469583" lon="7.84782"><ele>361.0</ele><time>2026-04-11T07:13:29.452Z</time></trkpt><trkpt lat="44.7469133" lon="7.8479083"><ele>361.0</ele><time>2026-04-11T07:13:31.452Z</time></trkpt><trkpt lat="44.7468533" lon="7.8480167"><ele>361.0</ele><time>2026-04-11T07:13:33.452Z</time></trkpt><trkpt lat="44.74679" lon="7.8481167"><ele>361.0</ele><time>2026-04-11T07:13:35.452Z</time></trkpt><trkpt lat="44.7467433" lon="7.8481967"><ele>361.0</ele><time>2026-04-11T07:13:37.452Z</time></trkpt><trkpt lat="44.74668" lon="7.8482633"><ele>361.0</ele><time>2026-04-11T07:13:40.453Z</time></trkpt><trkpt lat="44.7465883" lon="7.84833"><ele>361.0</ele><time>2026-04-11T07:13:45.452Z</time></trkpt><trkpt lat="44.746505" lon="7.8484033"><ele>361.0</ele><time>2026-04-11T07:13:48.452Z</time></trkpt><trkpt lat="44.746435" lon="7.8484633"><ele>361.0</ele><time>2026-04-11T07:13:50.452Z</time></trkpt><trkpt lat="44.7463533" lon="7.8485233"><ele>361.16666666666663</ele><time>2026-04-11T07:13:52.452Z</time></trkpt><trkpt lat="44.74627" lon="7.8485983"><ele>361.3333333333333</ele><time>2026-04-11T07:13:54.452Z</time></trkpt><trkpt lat="44.7462" lon="7.848685"><ele>361.5</ele><time>2026-04-11T07:13:56.452Z</time></trkpt><trkpt lat="44.7461483" lon="7.8487483"><ele>361.6666666666667</ele><time>2026-04-11T07:13:58.452Z</time></trkpt><trkpt lat="44.7460833" lon="7.8488417"><ele>361.83333333333337</ele><time>2026-04-11T07:14:01.452Z</time></trkpt><trkpt lat="44.74602" lon="7.8488983"><ele>362.0</ele><time>2026-04-11T07:14:03.452Z</time></trkpt><trkpt lat="44.7459517" lon="7.84894"><ele>362.20000000000005</ele><time>2026-04-11T07:14:05.452Z</time></trkpt><trkpt lat="44.7458983" lon="7.8489883"><ele>362.4</ele><time>2026-04-11T07:14:19.452Z</time></trkpt><trkpt lat="44.7458067" lon="7.8490433"><ele>362.6</ele><time>2026-04-11T07:14:20.452Z</time></trkpt><trkpt lat="44.745695" lon="7.849145"><ele>362.79999999999995</ele><time>2026-04-11T07:14:33.452Z</time></trkpt><trkpt lat="44.745625" lon="7.849235"><ele>363.0</ele><time>2026-04-11T07:14:40.452Z</time></trkpt><trkpt lat="44.7455567" lon="7.8493183"><ele>363.3333333333333</ele><time>2026-04-11T07:14:43.452Z</time></trkpt><trkpt lat="44.7455" lon="7.849375"><ele>363.6666666666667</ele><time>2026-04-11T07:14:45.452Z</time></trkpt><trkpt lat="44.7454233" lon="7.849435"><ele>364.0</ele><time>2026-04-11T07:14:49.452Z</time></trkpt><trkpt lat="44.7453467" lon="7.8495033"><ele>364.33333333333337</ele><time>2026-04-11T07:14:52.452Z</time></trkpt><trkpt lat="44.7452833" lon="7.84954"><ele>364.6666666666667</ele><time>2026-04-11T07:14:55.452Z</time></trkpt><trkpt lat="44.7451783" lon="7.8496517"><ele>365.0</ele><time>2026-04-11T07:15:07.452Z</time></trkpt><trkpt lat="44.7451283" lon="7.84974"><ele>365.33333333333337</ele><time>2026-04-11T07:15:10.452Z</time></trkpt><trkpt lat="44.7450683" lon="7.8498217"><ele>365.6666666666667</ele><time>2026-04-11T07:15:13.452Z</time></trkpt><trkpt lat="44.7450167" lon="7.8498883"><ele>366.0</ele><time>2026-04-11T07:15:15.452Z</time></trkpt><trkpt lat="44.744955" lon="7.8499483"><ele>366.3333333333333</ele><time>2026-04-11T07:15:17.452Z</time></trkpt><trkpt lat="44.74489" lon="7.850005"><ele>366.66666666666663</ele><time>2026-04-11T07:15:20.453Z</time></trkpt><trkpt lat="44.7448433" lon="7.8501"><ele>367.0</ele><time>2026-04-11T07:15:24.452Z</time></trkpt><trkpt lat="44.7448" lon="7.8502"><ele>367.3333333333333</ele><time>2026-04-11T07:15:28.452Z</time></trkpt><trkpt lat="44.74475" lon="7.8502883"><ele>367.66666666666663</ele><time>2026-04-11T07:15:31.452Z</time></trkpt><trkpt lat="44.744685" lon="7.8503717"><ele>368.0</ele><time>2026-04-11T07:15:34.453Z</time></trkpt><trkpt lat="44.7446167" lon="7.8504267"><ele>368.3333333333333</ele><time>2026-04-11T07:15:36.452Z</time></trkpt><trkpt lat="44.7445533" lon="7.8504967"><ele>368.6666666666667</ele><time>2026-04-11T07:15:38.452Z</time></trkpt><trkpt lat="44.7444967" lon="7.850565"><ele>369.0</ele><time>2026-04-11T07:15:40.452Z</time></trkpt><trkpt lat="44.744445" lon="7.85064"><ele>369.0</ele><time>2026-04-11T07:15:42.452Z</time></trkpt><trkpt lat="44.7443933" lon="7.8506967"><ele>369.0</ele><time>2026-04-11T07:15:44.452Z</time></trkpt><trkpt lat="44.7443433" lon="7.8507717"><ele>369.0</ele><time>2026-04-11T07:15:46.452Z</time></trkpt><trkpt lat="44.7442983" lon="7.85087"><ele>369.0</ele><time>2026-04-11T07:15:48.452Z</time></trkpt><trkpt lat="44.744285" lon="7.8510067"><ele>369.0</ele><time>2026-04-11T07:15:50.452Z</time></trkpt><trkpt lat="44.744255" lon="7.8511017"><ele>369.0</ele><time>2026-04-11T07:15:53.452Z</time></trkpt><trkpt lat="44.74423" lon="7.851185"><ele>369.8333333333333</ele><time>2026-04-11T07:15:56.452Z</time></trkpt><trkpt lat="44.744185" lon="7.8512917"><ele>370.6666666666667</ele><time>2026-04-11T07:15:59.452Z</time></trkpt><trkpt lat="44.7441367" lon="7.8514183"><ele>371.5</ele><time>2026-04-11T07:16:02.452Z</time></trkpt><trkpt lat="44.7441117" lon="7.8515183"><ele>372.33333333333337</ele><time>2026-04-11T07:16:04.452Z</time></trkpt><trkpt lat="44.744105" lon="7.8516167"><ele>373.1666666666667</ele><time>2026-04-11T07:16:06.452Z</time></trkpt><trkpt lat="44.7440817" lon="7.8517033"><ele>374.0</ele><time>2026-04-11T07:16:08.452Z</time></trkpt><trkpt lat="44.74405" lon="7.8517817"><ele>374.1428571428571</ele><time>2026-04-11T07:16:10.452Z</time></trkpt><trkpt lat="44.743995" lon="7.8518833"><ele>374.28571428571433</ele><time>2026-04-11T07:16:13.452Z</time></trkpt><trkpt lat="44.74395" lon="7.85195"><ele>374.42857142857144</ele><time>2026-04-11T07:16:15.452Z</time></trkpt><trkpt lat="44.743905" lon="7.8520433"><ele>374.57142857142856</ele><time>2026-04-11T07:16:18.452Z</time></trkpt><trkpt lat="44.7438833" lon="7.852135"><ele>374.71428571428567</ele><time>2026-04-11T07:16:21.452Z</time></trkpt><trkpt lat="44.74386" lon="7.85222"><ele>374.8571428571429</ele><time>2026-04-11T07:16:23.452Z</time></trkpt><trkpt lat="44.7438433" lon="7.8523117"><ele>375.0</ele><time>2026-04-11T07:16:25.452Z</time></trkpt><trkpt lat="44.7438217" lon="7.8524"><ele>375.0</ele><time>2026-04-11T07:16:27.452Z</time></trkpt><trkpt lat="44.7437833" lon="7.8524833"><ele>375.0</ele><time>2026-04-11T07:16:29.452Z</time></trkpt><trkpt lat="44.74375" lon="7.85256"><ele>375.0</ele><time>2026-04-11T07:16:31.452Z</time></trkpt><trkpt lat="44.7436933" lon="7.852665"><ele>375.0</ele><time>2026-04-11T07:16:34.452Z</time></trkpt><trkpt lat="44.74365" lon="7.8527317"><ele>375.0</ele><time>2026-04-11T07:16:37.452Z</time></trkpt><trkpt lat="44.7435983" lon="7.85279"><ele>375.0</ele><time>2026-04-11T07:16:40.452Z</time></trkpt><trkpt lat="44.7435333" lon="7.8528417"><ele>375.0</ele><time>2026-04-11T07:16:43.452Z</time></trkpt><trkpt lat="44.7434983" lon="7.8529333"><ele>375.3333333333333</ele><time>2026-04-11T07:16:46.452Z</time></trkpt><trkpt lat="44.7434417" lon="7.8530133"><ele>375.6666666666667</ele><time>2026-04-11T07:16:49.452Z</time></trkpt><trkpt lat="44.7434" lon="7.8530967"><ele>376.0</ele><time>2026-04-11T07:16:52.452Z</time></trkpt><trkpt lat="44.7433533" lon="7.8531617"><ele>376.33333333333337</ele><time>2026-04-11T07:16:56.452Z</time></trkpt><trkpt lat="44.7432417" lon="7.8532217"><ele>376.6666666666667</ele><time>2026-04-11T07:17:03.452Z</time></trkpt><trkpt lat="44.7431667" lon="7.8532483"><ele>377.0</ele><time>2026-04-11T07:17:07.452Z</time></trkpt><trkpt lat="44.7431017" lon="7.8532667"><ele>376.99999999999994</ele><time>2026-04-11T07:17:10.452Z</time></trkpt><trkpt lat="44.7430167" lon="7.8532467"><ele>377.0</ele><time>2026-04-11T07:17:13.452Z</time></trkpt><trkpt lat="44.7429317" lon="7.8532233"><ele>377.0</ele><time>2026-04-11T07:17:16.452Z</time></trkpt><trkpt lat="44.7428667" lon="7.8532483"><ele>377.0</ele><time>2026-04-11T07:17:19.452Z</time></trkpt><trkpt lat="44.7428117" lon="7.8533033"><ele>377.0</ele><time>2026-04-11T07:17:22.452Z</time></trkpt><trkpt lat="44.7427433" lon="7.85332"><ele>376.99999999999994</ele><time>2026-04-11T07:17:25.451Z</time></trkpt><trkpt lat="44.7426783" lon="7.8533167"><ele>377.0</ele><time>2026-04-11T07:17:27.451Z</time></trkpt><trkpt lat="44.7425983" lon="7.853295"><ele>377.1666666666667</ele><time>2026-04-11T07:17:30.451Z</time></trkpt><trkpt lat="44.74252" lon="7.85326"><ele>377.33333333333337</ele><time>2026-04-11T07:17:33.451Z</time></trkpt><trkpt lat="44.7424467" lon="7.8532467"><ele>377.5</ele><time>2026-04-11T07:17:36.452Z</time></trkpt><trkpt lat="44.7423617" lon="7.8532583"><ele>377.6666666666667</ele><time>2026-04-11T07:17:39.452Z</time></trkpt><trkpt lat="44.74229" lon="7.8532783"><ele>377.8333333333333</ele><time>2026-04-11T07:17:41.451Z</time></trkpt><trkpt lat="44.7422183" lon="7.8533167"><ele>378.0</ele><time>2026-04-11T07:17:43.451Z</time></trkpt><trkpt lat="44.74215" lon="7.853325"><ele>378.0</ele><time>2026-04-11T07:17:45.451Z</time></trkpt><trkpt lat="44.7420833" lon="7.8533367"><ele>378.0</ele><time>2026-04-11T07:17:47.451Z</time></trkpt><trkpt lat="44.7419967" lon="7.8533717"><ele>378.0</ele><time>2026-04-11T07:17:49.451Z</time></trkpt><trkpt lat="44.7419417" lon="7.8532717"><ele>378.0</ele><time>2026-04-11T07:17:57.451Z</time></trkpt><trkpt lat="44.7418617" lon="7.8532817"><ele>378.0</ele><time>2026-04-11T07:17:59.451Z</time></trkpt><trkpt lat="44.7417717" lon="7.853315"><ele>378.0</ele><time>2026-04-11T07:18:01.451Z</time></trkpt><trkpt lat="44.7416883" lon="7.853335"><ele>378.79999999999995</ele><time>2026-04-11T07:18:03.451Z</time></trkpt><trkpt lat="44.741625" lon="7.8533517"><ele>379.6</ele><time>2026-04-11T07:18:06.451Z</time></trkpt><trkpt lat="44.741525" lon="7.8533917"><ele>380.4</ele><time>2026-04-11T07:18:20.451Z</time></trkpt><trkpt lat="44.7414283" lon="7.85349"><ele>381.20000000000005</ele><time>2026-04-11T07:18:27.452Z</time></trkpt><trkpt lat="44.7414" lon="7.85359"><ele>382.0</ele><time>2026-04-11T07:18:31.451Z</time></trkpt><trkpt lat="44.7413317" lon="7.853735"><ele>382.0</ele><time>2026-04-11T07:18:40.451Z</time></trkpt><trkpt lat="44.7413133" lon="7.8538267"><ele>382.0</ele><time>2026-04-11T07:18:43.451Z</time></trkpt><trkpt lat="44.741315" lon="7.8539267"><ele>382.0</ele><time>2026-04-11T07:18:45.451Z</time></trkpt><trkpt lat="44.7412967" lon="7.854025"><ele>382.0</ele><time>2026-04-11T07:18:47.451Z</time></trkpt><trkpt lat="44.7412483" lon="7.8541217"><ele>382.0</ele><time>2026-04-11T07:18:50.452Z</time></trkpt><trkpt lat="44.7411917" lon="7.8541867"><ele>382.0</ele><time>2026-04-11T07:18:53.451Z</time></trkpt><trkpt lat="44.74114" lon="7.8542383"><ele>382.0</ele><time>2026-04-11T07:18:56.451Z</time></trkpt><trkpt lat="44.7410767" lon="7.85426"><ele>383.0</ele><time>2026-04-11T07:18:59.451Z</time></trkpt><trkpt lat="44.7410183" lon="7.8542967"><ele>384.0</ele><time>2026-04-11T07:19:02.451Z</time></trkpt><trkpt lat="44.7409217" lon="7.8543033"><ele>385.0</ele><time>2026-04-11T07:19:06.451Z</time></trkpt><trkpt lat="44.7408533" lon="7.8543083"><ele>386.0</ele><time>2026-04-11T07:19:08.451Z</time></trkpt><trkpt lat="44.74079" lon="7.8543233"><ele>387.0</ele><time>2026-04-11T07:19:10.451Z</time></trkpt><trkpt lat="44.7407283" lon="7.85435"><ele>388.0</ele><time>2026-04-11T07:19:12.451Z</time></trkpt><trkpt lat="44.740655" lon="7.854385"><ele>389.0</ele><time>2026-04-11T07:19:14.451Z</time></trkpt><trkpt lat="44.7405817" lon="7.8544117"><ele>388.99999999999994</ele><time>2026-04-11T07:19:16.451Z</time></trkpt><trkpt lat="44.74052" lon="7.8544333"><ele>389.0</ele><time>2026-04-11T07:19:18.451Z</time></trkpt><trkpt lat="44.740465" lon="7.854495"><ele>389.0</ele><time>2026-04-11T07:19:21.451Z</time></trkpt><trkpt lat="44.7404" lon="7.8545417"><ele>389.0</ele><time>2026-04-11T07:19:24.451Z</time></trkpt><trkpt lat="44.7403183" lon="7.8545533"><ele>388.99999999999994</ele><time>2026-04-11T07:19:27.451Z</time></trkpt><trkpt lat="44.7402583" lon="7.854605"><ele>389.0</ele><time>2026-04-11T07:19:31.451Z</time></trkpt><trkpt lat="44.74018" lon="7.8546683"><ele>389.0</ele><time>2026-04-11T07:19:34.451Z</time></trkpt><trkpt lat="44.7400917" lon="7.8546983"><ele>389.0</ele><time>2026-04-11T07:19:37.451Z</time></trkpt><trkpt lat="44.7400233" lon="7.8547067"><ele>389.0</ele><time>2026-04-11T07:19:39.451Z</time></trkpt><trkpt lat="44.7399517" lon="7.8547233"><ele>389.0</ele><time>2026-04-11T07:19:41.451Z</time></trkpt><trkpt lat="44.7398833" lon="7.8547283"><ele>389.0</ele><time>2026-04-11T07:19:43.451Z</time></trkpt><trkpt lat="44.73982" lon="7.8547267"><ele>389.0</ele><time>2026-04-11T07:19:45.451Z</time></trkpt><trkpt lat="44.7397483" lon="7.8547417"><ele>389.0</ele><time>2026-04-11T07:19:48.451Z</time></trkpt><trkpt lat="44.7396717" lon="7.854745"><ele>388.99999999999994</ele><time>2026-04-11T07:19:50.451Z</time></trkpt><trkpt lat="44.7395833" lon="7.854755"><ele>389.0</ele><time>2026-04-11T07:19:53.451Z</time></trkpt><trkpt lat="44.7395167" lon="7.854795"><ele>389.0</ele><time>2026-04-11T07:19:56.451Z</time></trkpt><trkpt lat="44.739455" lon="7.8548417"><ele>389.0</ele><time>2026-04-11T07:19:59.451Z</time></trkpt><trkpt lat="44.73937" lon="7.854925"><ele>388.99999999999994</ele><time>2026-04-11T07:20:02.451Z</time></trkpt><trkpt lat="44.7392817" lon="7.8550217"><ele>389.0</ele><time>2026-04-11T07:20:04.451Z</time></trkpt><trkpt lat="44.739225" lon="7.8550817"><ele>388.7142857142857</ele><time>2026-04-11T07:20:05.451Z</time></trkpt><trkpt lat="44.7391683" lon="7.8551483"><ele>388.4285714285714</ele><time>2026-04-11T07:20:06.451Z</time></trkpt><trkpt lat="44.7391133" lon="7.855225"><ele>388.1428571428571</ele><time>2026-04-11T07:20:07.451Z</time></trkpt><trkpt lat="44.7390683" lon="7.8552983"><ele>387.8571428571429</ele><time>2026-04-11T07:20:08.451Z</time></trkpt><trkpt lat="44.73901" lon="7.8553583"><ele>387.57142857142856</ele><time>2026-04-11T07:20:09.451Z</time></trkpt><trkpt lat="44.738955" lon="7.8554083"><ele>387.2857142857143</ele><time>2026-04-11T07:20:10.451Z</time></trkpt><trkpt lat="44.7388883" lon="7.8554517"><ele>387.0</ele><time>2026-04-11T07:20:11.451Z</time></trkpt><trkpt lat="44.7388267" lon="7.8554983"><ele>387.0</ele><time>2026-04-11T07:20:12.451Z</time></trkpt><trkpt lat="44.738745" lon="7.8555967"><ele>387.0</ele><time>2026-04-11T07:20:14.451Z</time></trkpt><trkpt lat="44.7386833" lon="7.85569"><ele>387.0</ele><time>2026-04-11T07:20:16.451Z</time></trkpt><trkpt lat="44.7386517" lon="7.855785"><ele>387.0</ele><time>2026-04-11T07:20:20.451Z</time></trkpt><trkpt lat="44.7387017" lon="7.855845"><ele>387.0</ele><time>2026-04-11T07:20:23.451Z</time></trkpt><trkpt lat="44.7387817" lon="7.8558933"><ele>387.0</ele><time>2026-04-11T07:20:25.451Z</time></trkpt><trkpt lat="44.7388883" lon="7.8559717"><ele>387.0</ele><time>2026-04-11T07:20:27.451Z</time></trkpt><trkpt lat="44.7389483" lon="7.8560033"><ele>387.0</ele><time>2026-04-11T07:20:28.451Z</time></trkpt><trkpt lat="44.73901" lon="7.8560217"><ele>387.0</ele><time>2026-04-11T07:20:29.451Z</time></trkpt><trkpt lat="44.7391217" lon="7.8560567"><ele>387.0</ele><time>2026-04-11T07:20:31.451Z</time></trkpt><trkpt lat="44.739205" lon="7.856085"><ele>387.0</ele><time>2026-04-11T07:20:33.451Z</time></trkpt><trkpt lat="44.7392933" lon="7.8561267"><ele>387.0</ele><time>2026-04-11T07:20:35.451Z</time></trkpt><trkpt lat="44.7393517" lon="7.856165"><ele>384.8</ele><time>2026-04-11T07:20:36.451Z</time></trkpt><trkpt lat="44.73946" lon="7.856245"><ele>382.6</ele><time>2026-04-11T07:20:38.451Z</time></trkpt><trkpt lat="44.73956" lon="7.8563433"><ele>380.40000000000003</ele><time>2026-04-11T07:20:40.451Z</time></trkpt><trkpt lat="44.7396217" lon="7.8564167"><ele>378.20000000000005</ele><time>2026-04-11T07:20:43.451Z</time></trkpt><trkpt lat="44.7396867" lon="7.856485"><ele>376.0</ele><time>2026-04-11T07:20:45.451Z</time></trkpt><trkpt lat="44.739745" lon="7.856555"><ele>376.0</ele><time>2026-04-11T07:20:47.451Z</time></trkpt><trkpt lat="44.739805" lon="7.8565967"><ele>376.0</ele><time>2026-04-11T07:20:49.451Z</time></trkpt><trkpt lat="44.7398783" lon="7.8566233"><ele>376.0</ele><time>2026-04-11T07:20:51.451Z</time></trkpt><trkpt lat="44.739985" lon="7.856605"><ele>376.0</ele><time>2026-04-11T07:20:53.451Z</time></trkpt><trkpt lat="44.7400967" lon="7.8566033"><ele>376.0</ele><time>2026-04-11T07:20:55.451Z</time></trkpt><trkpt lat="44.7402083" lon="7.8566583"><ele>375.5</ele><time>2026-04-11T07:20:57.451Z</time></trkpt><trkpt lat="44.74029" lon="7.8567233"><ele>375.0</ele><time>2026-04-11T07:20:59.451Z</time></trkpt><trkpt lat="44.740395" lon="7.8567083"><ele>374.5</ele><time>2026-04-11T07:21:01.451Z</time></trkpt><trkpt lat="44.7404933" lon="7.8566967"><ele>374.0</ele><time>2026-04-11T07:21:03.451Z</time></trkpt><trkpt lat="44.7405583" lon="7.8566667"><ele>373.5</ele><time>2026-04-11T07:21:05.451Z</time></trkpt><trkpt lat="44.7406233" lon="7.8566467"><ele>373.0</ele><time>2026-04-11T07:21:07.451Z</time></trkpt><trkpt lat="44.74073" lon="7.8566033"><ele>373.0</ele><time>2026-04-11T07:21:09.451Z</time></trkpt><trkpt lat="44.7407967" lon="7.8565833"><ele>373.0</ele><time>2026-04-11T07:21:10.451Z</time></trkpt><trkpt lat="44.7408817" lon="7.85657"><ele>373.0</ele><time>2026-04-11T07:21:11.451Z</time></trkpt><trkpt lat="44.7409533" lon="7.856585"><ele>373.0</ele><time>2026-04-11T07:21:12.451Z</time></trkpt><trkpt lat="44.741035" lon="7.8566017"><ele>373.0</ele><time>2026-04-11T07:21:13.451Z</time></trkpt><trkpt lat="44.7411117" lon="7.8566"><ele>373.0</ele><time>2026-04-11T07:21:14.451Z</time></trkpt><trkpt lat="44.7411833" lon="7.8566017"><ele>372.7142857142857</ele><time>2026-04-11T07:21:15.451Z</time></trkpt><trkpt lat="44.7412567" lon="7.8566033"><ele>372.42857142857144</ele><time>2026-04-11T07:21:16.451Z</time></trkpt><trkpt lat="44.7413233" lon="7.8566017"><ele>372.1428571428571</ele><time>2026-04-11T07:21:17.451Z</time></trkpt><trkpt lat="44.7413867" lon="7.8566067"><ele>371.8571428571429</ele><time>2026-04-11T07:21:18.451Z</time></trkpt><trkpt lat="44.7414517" lon="7.8566133"><ele>371.57142857142856</ele><time>2026-04-11T07:21:19.451Z</time></trkpt><trkpt lat="44.7415183" lon="7.85662"><ele>371.2857142857143</ele><time>2026-04-11T07:21:20.451Z</time></trkpt><trkpt lat="44.7415833" lon="7.8566167"><ele>371.0</ele><time>2026-04-11T07:21:21.451Z</time></trkpt><trkpt lat="44.7416517" lon="7.8566217"><ele>371.0</ele><time>2026-04-11T07:21:22.451Z</time></trkpt><trkpt lat="44.7417217" lon="7.85664"><ele>371.0</ele><time>2026-04-11T07:21:23.451Z</time></trkpt><trkpt lat="44.7417933" lon="7.8566667"><ele>371.0</ele><time>2026-04-11T07:21:24.451Z</time></trkpt><trkpt lat="44.741865" lon="7.85671"><ele>371.0</ele><time>2026-04-11T07:21:25.451Z</time></trkpt><trkpt lat="44.7419267" lon="7.8567617"><ele>371.0</ele><time>2026-04-11T07:21:26.451Z</time></trkpt><trkpt lat="44.74198" lon="7.8568267"><ele>371.0</ele><time>2026-04-11T07:21:27.451Z</time></trkpt><trkpt lat="44.7420383" lon="7.8569133"><ele>370.33333333333337</ele><time>2026-04-11T07:21:28.451Z</time></trkpt><trkpt lat="44.74209" lon="7.8570033"><ele>369.6666666666667</ele><time>2026-04-11T07:21:29.451Z</time></trkpt><trkpt lat="44.7421467" lon="7.857095"><ele>369.0</ele><time>2026-04-11T07:21:30.451Z</time></trkpt><trkpt lat="44.7422033" lon="7.8571783"><ele>368.3333333333333</ele><time>2026-04-11T07:21:31.451Z</time></trkpt><trkpt lat="44.7422717" lon="7.8572567"><ele>367.66666666666663</ele><time>2026-04-11T07:21:32.451Z</time></trkpt><trkpt lat="44.74234" lon="7.8573333"><ele>367.0</ele><time>2026-04-11T07:21:33.451Z</time></trkpt><trkpt lat="44.742395" lon="7.8574167"><ele>367.0</ele><time>2026-04-11T07:21:34.451Z</time></trkpt><trkpt lat="44.74245" lon="7.8575"><ele>367.0</ele><time>2026-04-11T07:21:35.451Z</time></trkpt><trkpt lat="44.7424933" lon="7.857575"><ele>367.0</ele><time>2026-04-11T07:21:36.451Z</time></trkpt><trkpt lat="44.7425333" lon="7.857645"><ele>367.0</ele><time>2026-04-11T07:21:37.451Z</time></trkpt><trkpt lat="44.742575" lon="7.8577233"><ele>367.0</ele><time>2026-04-11T07:21:38.451Z</time></trkpt><trkpt lat="44.7426217" lon="7.8577983"><ele>367.0</ele><time>2026-04-11T07:21:39.451Z</time></trkpt><trkpt lat="44.7426717" lon="7.8578683"><ele>367.0</ele><time>2026-04-11T07:21:40.451Z</time></trkpt><trkpt lat="44.74272" lon="7.8579417"><ele>366.2857142857143</ele><time>2026-04-11T07:21:41.451Z</time></trkpt><trkpt lat="44.74276" lon="7.85802"><ele>365.5714285714286</ele><time>2026-04-11T07:21:42.451Z</time></trkpt><trkpt lat="44.742795" lon="7.8581117"><ele>364.8571428571429</ele><time>2026-04-11T07:21:43.451Z</time></trkpt><trkpt lat="44.7428283" lon="7.8582117"><ele>364.1428571428571</ele><time>2026-04-11T07:21:44.451Z</time></trkpt><trkpt lat="44.74287" lon="7.8582983"><ele>363.42857142857144</ele><time>2026-04-11T07:21:45.451Z</time></trkpt><trkpt lat="44.7429183" lon="7.8583683"><ele>362.7142857142857</ele><time>2026-04-11T07:21:46.451Z</time></trkpt><trkpt lat="44.7429683" lon="7.8584283"><ele>362.0</ele><time>2026-04-11T07:21:47.452Z</time></trkpt><trkpt lat="44.7430167" lon="7.858485"><ele>361.5</ele><time>2026-04-11T07:21:48.451Z</time></trkpt><trkpt lat="44.7431117" lon="7.858565"><ele>361.0</ele><time>2026-04-11T07:21:50.451Z</time></trkpt><trkpt lat="44.7432" lon="7.858655"><ele>360.5</ele><time>2026-04-11T07:21:52.452Z</time></trkpt><trkpt lat="44.7433117" lon="7.8587033"><ele>360.0</ele><time>2026-04-11T07:21:54.451Z</time></trkpt><trkpt lat="44.743425" lon="7.8587417"><ele>360.0</ele><time>2026-04-11T07:21:56.451Z</time></trkpt><trkpt lat="44.7435417" lon="7.8587533"><ele>360.0</ele><time>2026-04-11T07:21:58.451Z</time></trkpt><trkpt lat="44.7436433" lon="7.8587733"><ele>360.0</ele><time>2026-04-11T07:22:00.451Z</time></trkpt><trkpt lat="44.7437417" lon="7.8588133"><ele>360.0</ele><time>2026-04-11T07:22:02.452Z</time></trkpt><trkpt lat="44.7438517" lon="7.8588767"><ele>360.0</ele><time>2026-04-11T07:22:04.451Z</time></trkpt><trkpt lat="44.743905" lon="7.858925"><ele>359.75</ele><time>2026-04-11T07:22:05.451Z</time></trkpt><trkpt lat="44.74401" lon="7.8590283"><ele>359.5</ele><time>2026-04-11T07:22:07.451Z</time></trkpt><trkpt lat="44.7441083" lon="7.859135"><ele>359.25</ele><time>2026-04-11T07:22:09.451Z</time></trkpt><trkpt lat="44.7442083" lon="7.8592383"><ele>359.0</ele><time>2026-04-11T07:22:11.451Z</time></trkpt><trkpt lat="44.7442967" lon="7.8593333"><ele>357.79999999999995</ele><time>2026-04-11T07:22:13.452Z</time></trkpt><trkpt lat="44.7443867" lon="7.85944"><ele>356.59999999999997</ele><time>2026-04-11T07:22:15.451Z</time></trkpt><trkpt lat="44.74448" lon="7.8595483"><ele>355.4</ele><time>2026-04-11T07:22:17.451Z</time></trkpt><trkpt lat="44.7445467" lon="7.8596417"><ele>354.2</ele><time>2026-04-11T07:22:19.451Z</time></trkpt><trkpt lat="44.7446" lon="7.8597383"><ele>353.0</ele><time>2026-04-11T07:22:21.451Z</time></trkpt><trkpt lat="44.7446567" lon="7.8598783"><ele>353.0</ele><time>2026-04-11T07:22:23.451Z</time></trkpt><trkpt lat="44.7446983" lon="7.86004"><ele>353.0</ele><time>2026-04-11T07:22:25.451Z</time></trkpt><trkpt lat="44.7447633" lon="7.8601733"><ele>353.0</ele><time>2026-04-11T07:22:27.451Z</time></trkpt><trkpt lat="44.74484" lon="7.8602717"><ele>353.0</ele><time>2026-04-11T07:22:29.451Z</time></trkpt><trkpt lat="44.7449033" lon="7.8603717"><ele>353.0</ele><time>2026-04-11T07:22:31.451Z</time></trkpt><trkpt lat="44.7449767" lon="7.860405"><ele>353.0</ele><time>2026-04-11T07:22:35.451Z</time></trkpt><trkpt lat="44.74501" lon="7.8603033"><ele>353.0</ele><time>2026-04-11T07:22:38.451Z</time></trkpt><trkpt lat="44.7450433" lon="7.8602083"><ele>353.0</ele><time>2026-04-11T07:22:40.451Z</time></trkpt><trkpt lat="44.745095" lon="7.8601"><ele>353.0</ele><time>2026-04-11T07:22:43.451Z</time></trkpt><trkpt lat="44.745135" lon="7.8599983"><ele>353.0</ele><time>2026-04-11T07:22:46.451Z</time></trkpt><trkpt lat="44.7451917" lon="7.859905"><ele>353.0</ele><time>2026-04-11T07:22:48.451Z</time></trkpt><trkpt lat="44.7452317" lon="7.8598283"><ele>353.2</ele><time>2026-04-11T07:22:51.451Z</time></trkpt><trkpt lat="44.7453317" lon="7.859775"><ele>353.4</ele><time>2026-04-11T07:23:48.451Z</time></trkpt><trkpt lat="44.745365" lon="7.8596967"><ele>353.59999999999997</ele><time>2026-04-11T07:27:29.451Z</time></trkpt><trkpt lat="44.7452883" lon="7.8596267"><ele>353.79999999999995</ele><time>2026-04-11T07:27:30.451Z</time></trkpt><trkpt lat="44.7453883" lon="7.859745"><ele>354.0</ele><time>2026-04-11T07:28:54.45Z</time></trkpt><trkpt lat="44.745415" lon="7.8596567"><ele>354.0</ele><time>2026-04-11T07:28:59.45Z</time></trkpt><trkpt lat="44.7454617" lon="7.8595783"><ele>354.0</ele><time>2026-04-11T07:29:05.45Z</time></trkpt><trkpt lat="44.7454967" lon="7.8594817"><ele>354.0</ele><time>2026-04-11T07:29:14.45Z</time></trkpt><trkpt lat="44.745555" lon="7.859385"><ele>354.0</ele><time>2026-04-11T07:29:17.45Z</time></trkpt><trkpt lat="44.7456083" lon="7.85927"><ele>354.0</ele><time>2026-04-11T07:29:20.45Z</time></trkpt><trkpt lat="44.7456767" lon="7.8591933"><ele>354.0</ele><time>2026-04-11T07:29:23.45Z</time></trkpt><trkpt lat="44.7457233" lon="7.8591083"><ele>354.2</ele><time>2026-04-11T07:29:26.45Z</time></trkpt><trkpt lat="44.7457867" lon="7.8589867"><ele>354.4</ele><time>2026-04-11T07:29:28.45Z</time></trkpt><trkpt lat="44.7458333" lon="7.858845"><ele>354.6</ele><time>2026-04-11T07:29:30.45Z</time></trkpt><trkpt lat="44.7458733" lon="7.8587583"><ele>354.8</ele><time>2026-04-11T07:29:31.45Z</time></trkpt><trkpt lat="44.7459233" lon="7.858635"><ele>355.0</ele><time>2026-04-11T07:29:33.45Z</time></trkpt><trkpt lat="44.7459883" lon="7.8585383"><ele>354.0</ele><time>2026-04-11T07:29:35.45Z</time></trkpt><trkpt lat="44.7460783" lon="7.858415"><ele>353.0</ele><time>2026-04-11T07:29:37.45Z</time></trkpt><trkpt lat="44.7461783" lon="7.858295"><ele>352.0</ele><time>2026-04-11T07:29:39.45Z</time></trkpt><trkpt lat="44.746225" lon="7.8582217"><ele>351.0</ele><time>2026-04-11T07:29:40.45Z</time></trkpt><trkpt lat="44.7463" lon="7.8580833"><ele>351.0</ele><time>2026-04-11T07:29:42.45Z</time></trkpt><trkpt lat="44.7463367" lon="7.858005"><ele>351.0</ele><time>2026-04-11T07:29:43.45Z</time></trkpt><trkpt lat="44.7463667" lon="7.8579167"><ele>351.0</ele><time>2026-04-11T07:29:44.45Z</time></trkpt><trkpt lat="44.7463933" lon="7.8578183"><ele>351.0</ele><time>2026-04-11T07:29:45.45Z</time></trkpt><trkpt lat="44.7464233" lon="7.8577233"><ele>351.0</ele><time>2026-04-11T07:29:46.45Z</time></trkpt><trkpt lat="44.7464583" lon="7.85761"><ele>351.0</ele><time>2026-04-11T07:29:47.45Z</time></trkpt><trkpt lat="44.746495" lon="7.8574933"><ele>351.00000000000006</ele><time>2026-04-11T07:29:48.45Z</time></trkpt><trkpt lat="44.7465367" lon="7.8573983"><ele>351.0</ele><time>2026-04-11T07:29:49.45Z</time></trkpt><trkpt lat="44.74658" lon="7.8573017"><ele>351.0</ele><time>2026-04-11T07:29:50.45Z</time></trkpt><trkpt lat="44.7466267" lon="7.85722"><ele>351.0</ele><time>2026-04-11T07:29:51.45Z</time></trkpt><trkpt lat="44.746675" lon="7.8571467"><ele>351.0</ele><time>2026-04-11T07:29:52.45Z</time></trkpt><trkpt lat="44.74672" lon="7.8570717"><ele>351.00000000000006</ele><time>2026-04-11T07:29:53.45Z</time></trkpt><trkpt lat="44.7467683" lon="7.8569983"><ele>351.0</ele><time>2026-04-11T07:29:54.45Z</time></trkpt><trkpt lat="44.746815" lon="7.8569217"><ele>351.0</ele><time>2026-04-11T07:29:55.45Z</time></trkpt><trkpt lat="44.746865" lon="7.8568483"><ele>351.0</ele><time>2026-04-11T07:29:56.45Z</time></trkpt><trkpt lat="44.746915" lon="7.8567867"><ele>351.0</ele><time>2026-04-11T07:29:57.45Z</time></trkpt><trkpt lat="44.746965" lon="7.85673"><ele>351.0</ele><time>2026-04-11T07:29:58.45Z</time></trkpt><trkpt lat="44.747065" lon="7.8566267"><ele>351.0</ele><time>2026-04-11T07:30:00.45Z</time></trkpt><trkpt lat="44.7471767" lon="7.8565233"><ele>350.6666666666667</ele><time>2026-04-11T07:30:02.45Z</time></trkpt><trkpt lat="44.7472333" lon="7.8564633"><ele>350.3333333333333</ele><time>2026-04-11T07:30:03.45Z</time></trkpt><trkpt lat="44.7472867" lon="7.8563983"><ele>350.0</ele><time>2026-04-11T07:30:04.45Z</time></trkpt><trkpt lat="44.7473417" lon="7.8563267"><ele>349.66666666666663</ele><time>2026-04-11T07:30:05.45Z</time></trkpt><trkpt lat="44.7473967" lon="7.8562517"><ele>349.3333333333333</ele><time>2026-04-11T07:30:06.451Z</time></trkpt><trkpt lat="44.7474517" lon="7.856165"><ele>349.0</ele><time>2026-04-11T07:30:07.451Z</time></trkpt><trkpt lat="44.74751" lon="7.8560783"><ele>349.0</ele><time>2026-04-11T07:30:08.45Z</time></trkpt><trkpt lat="44.747575" lon="7.85601"><ele>349.0</ele><time>2026-04-11T07:30:09.45Z</time></trkpt><trkpt lat="44.7476467" lon="7.8559583"><ele>349.0</ele><time>2026-04-11T07:30:10.45Z</time></trkpt><trkpt lat="44.7477217" lon="7.8559117"><ele>349.0</ele><time>2026-04-11T07:30:11.45Z</time></trkpt><trkpt lat="44.7477933" lon="7.855865"><ele>349.0</ele><time>2026-04-11T07:30:12.45Z</time></trkpt><trkpt lat="44.7478633" lon="7.8558083"><ele>349.0</ele><time>2026-04-11T07:30:13.45Z</time></trkpt><trkpt lat="44.7479267" lon="7.8557533"><ele>348.5</ele><time>2026-04-11T07:30:14.45Z</time></trkpt><trkpt lat="44.7479967" lon="7.855705"><ele>348.0</ele><time>2026-04-11T07:30:15.45Z</time></trkpt><trkpt lat="44.748075" lon="7.8556483"><ele>347.5</ele><time>2026-04-11T07:30:16.45Z</time></trkpt><trkpt lat="44.7481533" lon="7.855585"><ele>347.0</ele><time>2026-04-11T07:30:17.45Z</time></trkpt><trkpt lat="44.74823" lon="7.8555183"><ele>346.5</ele><time>2026-04-11T07:30:18.45Z</time></trkpt><trkpt lat="44.7483083" lon="7.8554467"><ele>346.0</ele><time>2026-04-11T07:30:19.45Z</time></trkpt><trkpt lat="44.7483833" lon="7.855365"><ele>346.0</ele><time>2026-04-11T07:30:20.45Z</time></trkpt><trkpt lat="44.7484517" lon="7.85528"><ele>346.0</ele><time>2026-04-11T07:30:21.45Z</time></trkpt><trkpt lat="44.7485083" lon="7.85519"><ele>346.0</ele><time>2026-04-11T07:30:22.45Z</time></trkpt><trkpt lat="44.7485683" lon="7.8550933"><ele>346.0</ele><time>2026-04-11T07:30:23.45Z</time></trkpt><trkpt lat="44.7486233" lon="7.85499"><ele>346.0</ele><time>2026-04-11T07:30:24.451Z</time></trkpt><trkpt lat="44.748675" lon="7.8548817"><ele>345.6</ele><time>2026-04-11T07:30:25.451Z</time></trkpt><trkpt lat="44.7487317" lon="7.8547717"><ele>345.20000000000005</ele><time>2026-04-11T07:30:26.45Z</time></trkpt><trkpt lat="44.7487883" lon="7.8546667"><ele>344.79999999999995</ele><time>2026-04-11T07:30:27.45Z</time></trkpt><trkpt lat="44.7488533" lon="7.854575"><ele>344.4</ele><time>2026-04-11T07:30:28.45Z</time></trkpt><trkpt lat="44.7489233" lon="7.8544983"><ele>344.0</ele><time>2026-04-11T07:30:29.45Z</time></trkpt><trkpt lat="44.7490017" lon="7.8544317"><ele>344.0</ele><time>2026-04-11T07:30:30.45Z</time></trkpt><trkpt lat="44.7490817" lon="7.85438"><ele>344.0</ele><time>2026-04-11T07:30:31.45Z</time></trkpt><trkpt lat="44.7491617" lon="7.8543283"><ele>344.0</ele><time>2026-04-11T07:30:32.45Z</time></trkpt><trkpt lat="44.749235" lon="7.854285"><ele>344.0</ele><time>2026-04-11T07:30:33.45Z</time></trkpt><trkpt lat="44.74931" lon="7.85424"><ele>344.0</ele><time>2026-04-11T07:30:34.45Z</time></trkpt><trkpt lat="44.7493867" lon="7.8541833"><ele>344.0</ele><time>2026-04-11T07:30:35.45Z</time></trkpt><trkpt lat="44.7494517" lon="7.8541267"><ele>343.7142857142857</ele><time>2026-04-11T07:30:36.45Z</time></trkpt><trkpt lat="44.7495167" lon="7.8540683"><ele>343.42857142857144</ele><time>2026-04-11T07:30:37.45Z</time></trkpt><trkpt lat="44.74958" lon="7.85401"><ele>343.1428571428571</ele><time>2026-04-11T07:30:38.45Z</time></trkpt><trkpt lat="44.74964" lon="7.85395"><ele>342.8571428571429</ele><time>2026-04-11T07:30:39.45Z</time></trkpt><trkpt lat="44.7496883" lon="7.8538817"><ele>342.57142857142856</ele><time>2026-04-11T07:30:40.45Z</time></trkpt><trkpt lat="44.7497367" lon="7.8538133"><ele>342.2857142857143</ele><time>2026-04-11T07:30:41.451Z</time></trkpt><trkpt lat="44.749785" lon="7.85375"><ele>342.0</ele><time>2026-04-11T07:30:42.45Z</time></trkpt><trkpt lat="44.74984" lon="7.8536983"><ele>341.99999999999994</ele><time>2026-04-11T07:30:43.45Z</time></trkpt><trkpt lat="44.7499" lon="7.8536467"><ele>342.0</ele><time>2026-04-11T07:30:44.45Z</time></trkpt><trkpt lat="44.7499617" lon="7.8535817"><ele>342.0</ele><time>2026-04-11T07:30:45.45Z</time></trkpt><trkpt lat="44.75002" lon="7.8535083"><ele>342.0</ele><time>2026-04-11T07:30:46.45Z</time></trkpt><trkpt lat="44.750075" lon="7.8534333"><ele>342.0</ele><time>2026-04-11T07:30:47.45Z</time></trkpt><trkpt lat="44.7501317" lon="7.8533633"><ele>341.99999999999994</ele><time>2026-04-11T07:30:48.45Z</time></trkpt><trkpt lat="44.7501767" lon="7.8532967"><ele>342.0</ele><time>2026-04-11T07:30:49.45Z</time></trkpt><trkpt lat="44.7502233" lon="7.8532283"><ele>342.40000000000003</ele><time>2026-04-11T07:30:50.45Z</time></trkpt><trkpt lat="44.7502683" lon="7.853165"><ele>342.8</ele><time>2026-04-11T07:30:51.45Z</time></trkpt><trkpt lat="44.7503583" lon="7.8530467"><ele>343.2</ele><time>2026-04-11T07:30:53.45Z</time></trkpt><trkpt lat="44.75045" lon="7.8529233"><ele>343.6</ele><time>2026-04-11T07:30:55.45Z</time></trkpt><trkpt lat="44.7504917" lon="7.8528517"><ele>344.0</ele><time>2026-04-11T07:30:56.45Z</time></trkpt><trkpt lat="44.7505333" lon="7.85277"><ele>344.00000000000006</ele><time>2026-04-11T07:30:57.45Z</time></trkpt><trkpt lat="44.7505767" lon="7.8526817"><ele>344.0</ele><time>2026-04-11T07:30:58.45Z</time></trkpt><trkpt lat="44.7506233" lon="7.8525917"><ele>344.0</ele><time>2026-04-11T07:30:59.45Z</time></trkpt><trkpt lat="44.7506633" lon="7.8525033"><ele>344.0</ele><time>2026-04-11T07:31:00.45Z</time></trkpt><trkpt lat="44.7507017" lon="7.8524217"><ele>344.0</ele><time>2026-04-11T07:31:01.45Z</time></trkpt><trkpt lat="44.750735" lon="7.8523333"><ele>344.00000000000006</ele><time>2026-04-11T07:31:02.451Z</time></trkpt><trkpt lat="44.75077" lon="7.8522433"><ele>344.0</ele><time>2026-04-11T07:31:03.45Z</time></trkpt><trkpt lat="44.7508017" lon="7.8521533"><ele>343.5</ele><time>2026-04-11T07:31:04.45Z</time></trkpt><trkpt lat="44.750835" lon="7.852055"><ele>343.0</ele><time>2026-04-11T07:31:05.45Z</time></trkpt><trkpt lat="44.7508667" lon="7.8519567"><ele>342.5</ele><time>2026-04-11T07:31:06.451Z</time></trkpt><trkpt lat="44.7509017" lon="7.8518517"><ele>342.0</ele><time>2026-04-11T07:31:07.45Z</time></trkpt><trkpt lat="44.75094" lon="7.8517567"><ele>341.5</ele><time>2026-04-11T07:31:08.45Z</time></trkpt><trkpt lat="44.7509767" lon="7.8516533"><ele>341.0</ele><time>2026-04-11T07:31:09.451Z</time></trkpt><trkpt lat="44.7510183" lon="7.8515467"><ele>340.6666666666667</ele><time>2026-04-11T07:31:10.45Z</time></trkpt><trkpt lat="44.751055" lon="7.8514367"><ele>340.33333333333337</ele><time>2026-04-11T07:31:11.45Z</time></trkpt><trkpt lat="44.7510917" lon="7.85134"><ele>340.0</ele><time>2026-04-11T07:31:12.45Z</time></trkpt><trkpt lat="44.751135" lon="7.8512533"><ele>339.6666666666667</ele><time>2026-04-11T07:31:13.45Z</time></trkpt><trkpt lat="44.7511783" lon="7.8511683"><ele>339.3333333333333</ele><time>2026-04-11T07:31:14.45Z</time></trkpt><trkpt lat="44.751215" lon="7.8510767"><ele>339.0</ele><time>2026-04-11T07:31:15.45Z</time></trkpt><trkpt lat="44.7512517" lon="7.8509867"><ele>338.6666666666667</ele><time>2026-04-11T07:31:16.45Z</time></trkpt><trkpt lat="44.751295" lon="7.850895"><ele>338.3333333333333</ele><time>2026-04-11T07:31:17.45Z</time></trkpt><trkpt lat="44.7513417" lon="7.85081"><ele>338.0</ele><time>2026-04-11T07:31:18.45Z</time></trkpt><trkpt lat="44.7513917" lon="7.85072"><ele>337.66666666666663</ele><time>2026-04-11T07:31:19.45Z</time></trkpt><trkpt lat="44.751435" lon="7.850635"><ele>337.3333333333333</ele><time>2026-04-11T07:31:20.45Z</time></trkpt><trkpt lat="44.75148" lon="7.8505533"><ele>337.0</ele><time>2026-04-11T07:31:21.45Z</time></trkpt><trkpt lat="44.7515267" lon="7.8504767"><ele>337.0</ele><time>2026-04-11T07:31:22.45Z</time></trkpt><trkpt lat="44.7515717" lon="7.8504033"><ele>337.0</ele><time>2026-04-11T07:31:23.45Z</time></trkpt><trkpt lat="44.7516133" lon="7.85033"><ele>337.0</ele><time>2026-04-11T07:31:24.45Z</time></trkpt><trkpt lat="44.7516583" lon="7.85026"><ele>337.0</ele><time>2026-04-11T07:31:25.45Z</time></trkpt><trkpt lat="44.7517283" lon="7.8501217"><ele>337.0</ele><time>2026-04-11T07:31:27.45Z</time></trkpt><trkpt lat="44.7517983" lon="7.8499967"><ele>337.0</ele><time>2026-04-11T07:31:29.45Z</time></trkpt><trkpt lat="44.75186" lon="7.849865"><ele>337.0</ele><time>2026-04-11T07:31:31.45Z</time></trkpt><trkpt lat="44.7519383" lon="7.8497433"><ele>337.0</ele><time>2026-04-11T07:31:33.45Z</time></trkpt><trkpt lat="44.7520117" lon="7.849605"><ele>337.0</ele><time>2026-04-11T07:31:35.45Z</time></trkpt><trkpt lat="44.7520733" lon="7.84948"><ele>337.0</ele><time>2026-04-11T07:31:37.45Z</time></trkpt><trkpt lat="44.7521267" lon="7.8493533"><ele>336.6</ele><time>2026-04-11T07:31:39.45Z</time></trkpt><trkpt lat="44.7521767" lon="7.8492217"><ele>336.20000000000005</ele><time>2026-04-11T07:31:41.45Z</time></trkpt><trkpt lat="44.7522233" lon="7.8490867"><ele>335.8</ele><time>2026-04-11T07:31:43.45Z</time></trkpt><trkpt lat="44.7522767" lon="7.84894"><ele>335.4</ele><time>2026-04-11T07:31:45.45Z</time></trkpt><trkpt lat="44.7523283" lon="7.8487917"><ele>335.0</ele><time>2026-04-11T07:31:47.45Z</time></trkpt><trkpt lat="44.7523917" lon="7.8486533"><ele>335.0</ele><time>2026-04-11T07:31:49.45Z</time></trkpt><trkpt lat="44.7524533" lon="7.8485067"><ele>335.0</ele><time>2026-04-11T07:31:51.45Z</time></trkpt><trkpt lat="44.7524867" lon="7.8484267"><ele>335.0</ele><time>2026-04-11T07:31:52.45Z</time></trkpt><trkpt lat="44.752515" lon="7.8483433"><ele>335.0</ele><time>2026-04-11T07:31:53.45Z</time></trkpt><trkpt lat="44.7525667" lon="7.84818"><ele>335.0</ele><time>2026-04-11T07:31:55.45Z</time></trkpt><trkpt lat="44.752595" lon="7.848095"><ele>335.0</ele><time>2026-04-11T07:31:56.45Z</time></trkpt><trkpt lat="44.7526267" lon="7.848005"><ele>334.85714285714283</ele><time>2026-04-11T07:31:57.45Z</time></trkpt><trkpt lat="44.7526567" lon="7.8479183"><ele>334.7142857142857</ele><time>2026-04-11T07:31:58.45Z</time></trkpt><trkpt lat="44.75269" lon="7.847835"><ele>334.57142857142856</ele><time>2026-04-11T07:31:59.45Z</time></trkpt><trkpt lat="44.75272" lon="7.84775"><ele>334.42857142857144</ele><time>2026-04-11T07:32:00.45Z</time></trkpt><trkpt lat="44.7527567" lon="7.8476617"><ele>334.2857142857143</ele><time>2026-04-11T07:32:01.45Z</time></trkpt><trkpt lat="44.7527917" lon="7.84757"><ele>334.1428571428571</ele><time>2026-04-11T07:32:02.451Z</time></trkpt><trkpt lat="44.7528283" lon="7.8474833"><ele>334.0</ele><time>2026-04-11T07:32:03.45Z</time></trkpt><trkpt lat="44.7528617" lon="7.8473967"><ele>333.85714285714283</ele><time>2026-04-11T07:32:04.45Z</time></trkpt><trkpt lat="44.7529" lon="7.8473167"><ele>333.7142857142857</ele><time>2026-04-11T07:32:05.45Z</time></trkpt><trkpt lat="44.7529383" lon="7.8472367"><ele>333.57142857142856</ele><time>2026-04-11T07:32:06.45Z</time></trkpt><trkpt lat="44.7529783" lon="7.84716"><ele>333.42857142857144</ele><time>2026-04-11T07:32:07.45Z</time></trkpt><trkpt lat="44.753015" lon="7.8470783"><ele>333.2857142857143</ele><time>2026-04-11T07:32:08.45Z</time></trkpt><trkpt lat="44.7530567" lon="7.8470033"><ele>333.14285714285717</ele><time>2026-04-11T07:32:09.45Z</time></trkpt><trkpt lat="44.7531033" lon="7.84693"><ele>333.0</ele><time>2026-04-11T07:32:10.45Z</time></trkpt><trkpt lat="44.75315" lon="7.8468533"><ele>333.2</ele><time>2026-04-11T07:32:11.45Z</time></trkpt><trkpt lat="44.7531883" lon="7.84678"><ele>333.4</ele><time>2026-04-11T07:32:12.45Z</time></trkpt><trkpt lat="44.7532333" lon="7.8466233"><ele>333.59999999999997</ele><time>2026-04-11T07:32:14.45Z</time></trkpt><trkpt lat="44.7532467" lon="7.8464567"><ele>333.79999999999995</ele><time>2026-04-11T07:32:16.45Z</time></trkpt><trkpt lat="44.75325" lon="7.8462783"><ele>334.0</ele><time>2026-04-11T07:32:18.45Z</time></trkpt><trkpt lat="44.753245" lon="7.8461017"><ele>334.0</ele><time>2026-04-11T07:32:20.45Z</time></trkpt><trkpt lat="44.7532317" lon="7.84593"><ele>334.0</ele><time>2026-04-11T07:32:22.45Z</time></trkpt><trkpt lat="44.753225" lon="7.845835"><ele>334.0</ele><time>2026-04-11T07:32:23.45Z</time></trkpt><trkpt lat="44.753205" lon="7.845665"><ele>334.0</ele><time>2026-04-11T07:32:25.45Z</time></trkpt><trkpt lat="44.7531867" lon="7.8455083"><ele>334.0</ele><time>2026-04-11T07:32:27.45Z</time></trkpt><trkpt lat="44.7531817" lon="7.8453233"><ele>334.0</ele><time>2026-04-11T07:32:29.45Z</time></trkpt><trkpt lat="44.7531817" lon="7.8452233"><ele>334.0</ele><time>2026-04-11T07:32:30.45Z</time></trkpt><trkpt lat="44.7531817" lon="7.8451217"><ele>334.0</ele><time>2026-04-11T07:32:31.45Z</time></trkpt><trkpt lat="44.7531817" lon="7.8450183"><ele>334.0</ele><time>2026-04-11T07:32:32.45Z</time></trkpt><trkpt lat="44.7531867" lon="7.8449117"><ele>334.0</ele><time>2026-04-11T07:32:33.45Z</time></trkpt><trkpt lat="44.7531933" lon="7.8448067"><ele>334.0</ele><time>2026-04-11T07:32:34.45Z</time></trkpt><trkpt lat="44.7532017" lon="7.844695"><ele>334.0</ele><time>2026-04-11T07:32:35.45Z</time></trkpt><trkpt lat="44.7532167" lon="7.8445817"><ele>333.79999999999995</ele><time>2026-04-11T07:32:36.45Z</time></trkpt><trkpt lat="44.7532417" lon="7.8444683"><ele>333.59999999999997</ele><time>2026-04-11T07:32:37.45Z</time></trkpt><trkpt lat="44.753275" lon="7.8443617"><ele>333.4</ele><time>2026-04-11T07:32:38.45Z</time></trkpt><trkpt lat="44.7533083" lon="7.8442483"><ele>333.2</ele><time>2026-04-11T07:32:39.45Z</time></trkpt><trkpt lat="44.7533483" lon="7.8441367"><ele>333.0</ele><time>2026-04-11T07:32:40.45Z</time></trkpt><trkpt lat="44.7533883" lon="7.8439767"><ele>332.8333333333333</ele><time>2026-04-11T07:32:41.45Z</time></trkpt><trkpt lat="44.75342" lon="7.8438633"><ele>332.6666666666667</ele><time>2026-04-11T07:32:42.45Z</time></trkpt><trkpt lat="44.7534533" lon="7.84375"><ele>332.5</ele><time>2026-04-11T07:32:43.451Z</time></trkpt><trkpt lat="44.7534817" lon="7.8436367"><ele>332.33333333333337</ele><time>2026-04-11T07:32:44.45Z</time></trkpt><trkpt lat="44.7534967" lon="7.8435233"><ele>332.1666666666667</ele><time>2026-04-11T07:32:45.45Z</time></trkpt><trkpt lat="44.7535" lon="7.8434033"><ele>332.0</ele><time>2026-04-11T07:32:46.45Z</time></trkpt><trkpt lat="44.7535" lon="7.8432883"><ele>332.0</ele><time>2026-04-11T07:32:47.45Z</time></trkpt><trkpt lat="44.7535033" lon="7.843175"><ele>332.0</ele><time>2026-04-11T07:32:48.45Z</time></trkpt><trkpt lat="44.7535067" lon="7.84307"><ele>332.0</ele><time>2026-04-11T07:32:49.45Z</time></trkpt><trkpt lat="44.7535183" lon="7.8429717"><ele>332.0</ele><time>2026-04-11T07:32:50.45Z</time></trkpt><trkpt lat="44.753535" lon="7.8428733"><ele>332.0</ele><time>2026-04-11T07:32:51.45Z</time></trkpt><trkpt lat="44.7535583" lon="7.8427617"><ele>332.0</ele><time>2026-04-11T07:32:52.45Z</time></trkpt><trkpt lat="44.7535883" lon="7.8426517"><ele>331.83333333333337</ele><time>2026-04-11T07:32:53.45Z</time></trkpt><trkpt lat="44.7536267" lon="7.8425383"><ele>331.6666666666667</ele><time>2026-04-11T07:32:54.45Z</time></trkpt><trkpt lat="44.7536583" lon="7.8424233"><ele>331.5</ele><time>2026-04-11T07:32:55.45Z</time></trkpt><trkpt lat="44.7536933" lon="7.8423167"><ele>331.3333333333333</ele><time>2026-04-11T07:32:56.45Z</time></trkpt><trkpt lat="44.75373" lon="7.842215"><ele>331.16666666666663</ele><time>2026-04-11T07:32:57.45Z</time></trkpt><trkpt lat="44.75377" lon="7.842115"><ele>331.0</ele><time>2026-04-11T07:32:58.45Z</time></trkpt><trkpt lat="44.7538217" lon="7.8420233"><ele>331.0</ele><time>2026-04-11T07:32:59.45Z</time></trkpt><trkpt lat="44.7538767" lon="7.8419333"><ele>331.0</ele><time>2026-04-11T07:33:00.45Z</time></trkpt><trkpt lat="44.7539233" lon="7.841845"><ele>331.0</ele><time>2026-04-11T07:33:01.45Z</time></trkpt><trkpt lat="44.753975" lon="7.8417583"><ele>331.0</ele><time>2026-04-11T07:33:02.45Z</time></trkpt><trkpt lat="44.754025" lon="7.84168"><ele>331.0</ele><time>2026-04-11T07:33:03.45Z</time></trkpt><trkpt lat="44.7540717" lon="7.8416"><ele>331.0</ele><time>2026-04-11T07:33:04.45Z</time></trkpt><trkpt lat="44.75412" lon="7.8415117"><ele>330.8333333333333</ele><time>2026-04-11T07:33:05.45Z</time></trkpt><trkpt lat="44.754165" lon="7.8414217"><ele>330.66666666666663</ele><time>2026-04-11T07:33:06.45Z</time></trkpt><trkpt lat="44.7542133" lon="7.8413333"><ele>330.5</ele><time>2026-04-11T07:33:07.45Z</time></trkpt><trkpt lat="44.7542633" lon="7.8412367"><ele>330.3333333333333</ele><time>2026-04-11T07:33:08.45Z</time></trkpt><trkpt lat="44.7543133" lon="7.841155"><ele>330.1666666666667</ele><time>2026-04-11T07:33:09.45Z</time></trkpt><trkpt lat="44.75436" lon="7.8410733"><ele>330.0</ele><time>2026-04-11T07:33:10.45Z</time></trkpt><trkpt lat="44.754405" lon="7.8409917"><ele>329.5</ele><time>2026-04-11T07:33:11.45Z</time></trkpt><trkpt lat="44.7544533" lon="7.8409067"><ele>329.0</ele><time>2026-04-11T07:33:12.45Z</time></trkpt><trkpt lat="44.7545033" lon="7.840835"><ele>328.5</ele><time>2026-04-11T07:33:13.45Z</time></trkpt><trkpt lat="44.7545583" lon="7.840775"><ele>328.0</ele><time>2026-04-11T07:33:14.45Z</time></trkpt><trkpt lat="44.7546133" lon="7.8407117"><ele>327.5</ele><time>2026-04-11T07:33:15.45Z</time></trkpt><trkpt lat="44.7547" lon="7.8405883"><ele>327.0</ele><time>2026-04-11T07:33:17.45Z</time></trkpt><trkpt lat="44.7547533" lon="7.84053"><ele>327.0</ele><time>2026-04-11T07:33:18.45Z</time></trkpt><trkpt lat="44.7548433" lon="7.8403917"><ele>327.0</ele><time>2026-04-11T07:33:20.45Z</time></trkpt><trkpt lat="44.7548883" lon="7.8402983"><ele>327.0</ele><time>2026-04-11T07:33:21.45Z</time></trkpt><trkpt lat="44.754925" lon="7.8401933"><ele>327.0</ele><time>2026-04-11T07:33:22.45Z</time></trkpt><trkpt lat="44.7549633" lon="7.8400717"><ele>327.0</ele><time>2026-04-11T07:33:23.45Z</time></trkpt><trkpt lat="44.7550033" lon="7.83995"><ele>327.0</ele><time>2026-04-11T07:33:24.45Z</time></trkpt><trkpt lat="44.7550433" lon="7.839835"><ele>327.0</ele><time>2026-04-11T07:33:25.45Z</time></trkpt><trkpt lat="44.7550783" lon="7.8397083"><ele>327.0</ele><time>2026-04-11T07:33:26.45Z</time></trkpt><trkpt lat="44.75511" lon="7.839585"><ele>327.0</ele><time>2026-04-11T07:33:27.45Z</time></trkpt><trkpt lat="44.7551383" lon="7.8394583"><ele>327.0</ele><time>2026-04-11T07:33:28.45Z</time></trkpt><trkpt lat="44.7551583" lon="7.8393317"><ele>327.1666666666667</ele><time>2026-04-11T07:33:29.45Z</time></trkpt><trkpt lat="44.7551767" lon="7.839205"><ele>327.3333333333333</ele><time>2026-04-11T07:33:30.45Z</time></trkpt><trkpt lat="44.7551683" lon="7.8390883"><ele>327.5</ele><time>2026-04-11T07:33:31.45Z</time></trkpt><trkpt lat="44.7551583" lon="7.8389967"><ele>327.66666666666663</ele><time>2026-04-11T07:33:32.45Z</time></trkpt><trkpt lat="44.7551517" lon="7.8389017"><ele>327.8333333333333</ele><time>2026-04-11T07:33:34.45Z</time></trkpt><trkpt lat="44.7551933" lon="7.838775"><ele>328.0</ele><time>2026-04-11T07:33:43.45Z</time></trkpt><trkpt lat="44.755245" lon="7.8386883"><ele>327.66666666666663</ele><time>2026-04-11T07:33:46.45Z</time></trkpt><trkpt lat="44.7552833" lon="7.8386017"><ele>327.3333333333333</ele><time>2026-04-11T07:33:49.45Z</time></trkpt><trkpt lat="44.755335" lon="7.838495"><ele>327.0</ele><time>2026-04-11T07:33:52.45Z</time></trkpt><trkpt lat="44.7553933" lon="7.8384"><ele>326.6666666666667</ele><time>2026-04-11T07:33:54.45Z</time></trkpt><trkpt lat="44.7554533" lon="7.8383267"><ele>326.33333333333337</ele><time>2026-04-11T07:33:56.45Z</time></trkpt><trkpt lat="44.7555217" lon="7.8382783"><ele>326.0</ele><time>2026-04-11T07:33:58.45Z</time></trkpt><trkpt lat="44.7555817" lon="7.8382383"><ele>326.0</ele><time>2026-04-11T07:34:00.45Z</time></trkpt><trkpt lat="44.755645" lon="7.8381933"><ele>326.0</ele><time>2026-04-11T07:34:02.45Z</time></trkpt><trkpt lat="44.7557317" lon="7.8381433"><ele>326.0</ele><time>2026-04-11T07:34:04.45Z</time></trkpt><trkpt lat="44.75584" lon="7.8380933"><ele>326.0</ele><time>2026-04-11T07:34:06.45Z</time></trkpt><trkpt lat="44.755905" lon="7.8380717"><ele>326.0</ele><time>2026-04-11T07:34:07.45Z</time></trkpt><trkpt lat="44.7559683" lon="7.8380467"><ele>326.0</ele><time>2026-04-11T07:34:08.45Z</time></trkpt><trkpt lat="44.7560317" lon="7.8380133"><ele>326.33333333333337</ele><time>2026-04-11T07:34:09.45Z</time></trkpt><trkpt lat="44.7560933" lon="7.8379683"><ele>326.6666666666667</ele><time>2026-04-11T07:34:10.45Z</time></trkpt><trkpt lat="44.7562117" lon="7.83787"><ele>327.0</ele><time>2026-04-11T07:34:12.451Z</time></trkpt><trkpt lat="44.756275" lon="7.8378133"><ele>327.3333333333333</ele><time>2026-04-11T07:34:13.45Z</time></trkpt><trkpt lat="44.7563367" lon="7.8377583"><ele>327.66666666666663</ele><time>2026-04-11T07:34:14.45Z</time></trkpt><trkpt lat="44.756395" lon="7.8377033"><ele>328.0</ele><time>2026-04-11T07:34:15.45Z</time></trkpt><trkpt lat="44.7564483" lon="7.8376533"><ele>327.0</ele><time>2026-04-11T07:34:16.451Z</time></trkpt><trkpt lat="44.7565033" lon="7.83759"><ele>326.0</ele><time>2026-04-11T07:34:17.45Z</time></trkpt><trkpt lat="44.7565567" lon="7.8375183"><ele>325.0</ele><time>2026-04-11T07:34:18.45Z</time></trkpt><trkpt lat="44.7566483" lon="7.8374383"><ele>324.0</ele><time>2026-04-11T07:34:20.45Z</time></trkpt><trkpt lat="44.75674" lon="7.8373567"><ele>323.0</ele><time>2026-04-11T07:34:22.45Z</time></trkpt><trkpt lat="44.7568367" lon="7.837265"><ele>322.59999999999997</ele><time>2026-04-11T07:34:24.451Z</time></trkpt><trkpt lat="44.7569283" lon="7.8371583"><ele>322.2</ele><time>2026-04-11T07:34:26.45Z</time></trkpt><trkpt lat="44.7570217" lon="7.837065"><ele>321.8</ele><time>2026-04-11T07:34:28.45Z</time></trkpt><trkpt lat="44.7571117" lon="7.837005"><ele>321.4</ele><time>2026-04-11T07:34:30.45Z</time></trkpt><trkpt lat="44.757195" lon="7.836935"><ele>321.0</ele><time>2026-04-11T07:34:32.45Z</time></trkpt><trkpt lat="44.7572633" lon="7.8368533"><ele>320.8</ele><time>2026-04-11T07:34:34.45Z</time></trkpt><trkpt lat="44.7573367" lon="7.8367517"><ele>320.6</ele><time>2026-04-11T07:34:36.45Z</time></trkpt><trkpt lat="44.7574233" lon="7.836665"><ele>320.4</ele><time>2026-04-11T07:34:38.45Z</time></trkpt><trkpt lat="44.7575283" lon="7.83659"><ele>320.2</ele><time>2026-04-11T07:34:40.45Z</time></trkpt><trkpt lat="44.7576133" lon="7.8365367"><ele>320.0</ele><time>2026-04-11T07:34:42.45Z</time></trkpt><trkpt lat="44.7576917" lon="7.8364883"><ele>320.2</ele><time>2026-04-11T07:34:44.45Z</time></trkpt><trkpt lat="44.7577867" lon="7.8364383"><ele>320.4</ele><time>2026-04-11T07:34:46.45Z</time></trkpt><trkpt lat="44.7578867" lon="7.8364067"><ele>320.6</ele><time>2026-04-11T07:34:48.45Z</time></trkpt><trkpt lat="44.7579817" lon="7.83638"><ele>320.8</ele><time>2026-04-11T07:34:50.45Z</time></trkpt><trkpt lat="44.7580667" lon="7.8363633"><ele>321.0</ele><time>2026-04-11T07:34:52.45Z</time></trkpt><trkpt lat="44.7581633" lon="7.8363433"><ele>321.0</ele><time>2026-04-11T07:34:54.45Z</time></trkpt><trkpt lat="44.758265" lon="7.8363067"><ele>321.0</ele><time>2026-04-11T07:34:56.45Z</time></trkpt><trkpt lat="44.758375" lon="7.8362667"><ele>321.0</ele><time>2026-04-11T07:34:58.45Z</time></trkpt><trkpt lat="44.7584783" lon="7.8362267"><ele>321.0</ele><time>2026-04-11T07:35:00.45Z</time></trkpt><trkpt lat="44.7585667" lon="7.8361933"><ele>321.0</ele><time>2026-04-11T07:35:02.45Z</time></trkpt><trkpt lat="44.7586717" lon="7.8361583"><ele>321.4</ele><time>2026-04-11T07:35:04.45Z</time></trkpt><trkpt lat="44.7587817" lon="7.8361167"><ele>321.8</ele><time>2026-04-11T07:35:06.45Z</time></trkpt><trkpt lat="44.7588867" lon="7.83608"><ele>322.2</ele><time>2026-04-11T07:35:08.45Z</time></trkpt><trkpt lat="44.758975" lon="7.83603"><ele>322.59999999999997</ele><time>2026-04-11T07:35:10.45Z</time></trkpt><trkpt lat="44.7590667" lon="7.835975"><ele>323.0</ele><time>2026-04-11T07:35:12.45Z</time></trkpt><trkpt lat="44.7591417" lon="7.8358817"><ele>323.0</ele><time>2026-04-11T07:35:14.45Z</time></trkpt><trkpt lat="44.7592133" lon="7.8357467"><ele>323.0</ele><time>2026-04-11T07:35:16.45Z</time></trkpt><trkpt lat="44.7592817" lon="7.8356217"><ele>323.0</ele><time>2026-04-11T07:35:18.45Z</time></trkpt><trkpt lat="44.7593183" lon="7.8355467"><ele>323.0</ele><time>2026-04-11T07:35:19.45Z</time></trkpt><trkpt lat="44.7593917" lon="7.835405"><ele>323.0</ele><time>2026-04-11T07:35:21.45Z</time></trkpt><trkpt lat="44.7594583" lon="7.83528"><ele>322.5</ele><time>2026-04-11T07:35:23.45Z</time></trkpt><trkpt lat="44.7595383" lon="7.8351517"><ele>322.0</ele><time>2026-04-11T07:35:25.45Z</time></trkpt><trkpt lat="44.7596083" lon="7.835035"><ele>321.5</ele><time>2026-04-11T07:35:27.45Z</time></trkpt><trkpt lat="44.7596817" lon="7.8349333"><ele>321.0</ele><time>2026-04-11T07:35:29.45Z</time></trkpt><trkpt lat="44.7597783" lon="7.8348283"><ele>321.0</ele><time>2026-04-11T07:35:31.45Z</time></trkpt><trkpt lat="44.7598267" lon="7.8347667"><ele>321.0</ele><time>2026-04-11T07:35:32.45Z</time></trkpt><trkpt lat="44.759915" lon="7.834665"><ele>321.0</ele><time>2026-04-11T07:35:34.45Z</time></trkpt><trkpt lat="44.7599967" lon="7.83456"><ele>321.0</ele><time>2026-04-11T07:35:36.45Z</time></trkpt><trkpt lat="44.76004" lon="7.834495"><ele>321.0</ele><time>2026-04-11T07:35:37.45Z</time></trkpt><trkpt lat="44.7600883" lon="7.83443"><ele>321.0</ele><time>2026-04-11T07:35:38.45Z</time></trkpt><trkpt lat="44.7601717" lon="7.8343133"><ele>320.6</ele><time>2026-04-11T07:35:40.45Z</time></trkpt><trkpt lat="44.7602517" lon="7.8342"><ele>320.20000000000005</ele><time>2026-04-11T07:35:42.45Z</time></trkpt><trkpt lat="44.7603317" lon="7.8340783"><ele>319.79999999999995</ele><time>2026-04-11T07:35:44.451Z</time></trkpt><trkpt lat="44.7603733" lon="7.8340067"><ele>319.4</ele><time>2026-04-11T07:35:45.45Z</time></trkpt><trkpt lat="44.7604483" lon="7.833875"><ele>319.0</ele><time>2026-04-11T07:35:47.45Z</time></trkpt><trkpt lat="44.7605267" lon="7.8337567"><ele>319.0</ele><time>2026-04-11T07:35:49.45Z</time></trkpt><trkpt lat="44.7606017" lon="7.8336367"><ele>319.0</ele><time>2026-04-11T07:35:51.45Z</time></trkpt><trkpt lat="44.76067" lon="7.8335167"><ele>319.0</ele><time>2026-04-11T07:35:53.45Z</time></trkpt><trkpt lat="44.76072" lon="7.8334"><ele>319.0</ele><time>2026-04-11T07:35:55.45Z</time></trkpt><trkpt lat="44.7607567" lon="7.8332867"><ele>319.0</ele><time>2026-04-11T07:35:57.45Z</time></trkpt><trkpt lat="44.7608117" lon="7.833215"><ele>319.14285714285717</ele><time>2026-04-11T07:35:59.45Z</time></trkpt><trkpt lat="44.7608867" lon="7.8331317"><ele>319.2857142857143</ele><time>2026-04-11T07:36:01.45Z</time></trkpt><trkpt lat="44.7609333" lon="7.8330717"><ele>319.42857142857144</ele><time>2026-04-11T07:36:02.45Z</time></trkpt><trkpt lat="44.760985" lon="7.8330017"><ele>319.57142857142856</ele><time>2026-04-11T07:36:03.45Z</time></trkpt><trkpt lat="44.761035" lon="7.8329267"><ele>319.7142857142857</ele><time>2026-04-11T07:36:04.45Z</time></trkpt><trkpt lat="44.76108" lon="7.8328467"><ele>319.85714285714283</ele><time>2026-04-11T07:36:05.45Z</time></trkpt><trkpt lat="44.7611217" lon="7.8327783"><ele>320.0</ele><time>2026-04-11T07:36:06.45Z</time></trkpt><trkpt lat="44.7611967" lon="7.832645"><ele>319.8</ele><time>2026-04-11T07:36:08.45Z</time></trkpt><trkpt lat="44.7612817" lon="7.83255"><ele>319.6</ele><time>2026-04-11T07:36:10.45Z</time></trkpt><trkpt lat="44.7613633" lon="7.8324467"><ele>319.4</ele><time>2026-04-11T07:36:12.45Z</time></trkpt><trkpt lat="44.7614367" lon="7.8323433"><ele>319.2</ele><time>2026-04-11T07:36:14.45Z</time></trkpt><trkpt lat="44.7615117" lon="7.83221"><ele>319.0</ele><time>2026-04-11T07:36:16.45Z</time></trkpt><trkpt lat="44.7615633" lon="7.83206"><ele>319.0</ele><time>2026-04-11T07:36:18.45Z</time></trkpt><trkpt lat="44.7615983" lon="7.8319783"><ele>319.0</ele><time>2026-04-11T07:36:19.45Z</time></trkpt><trkpt lat="44.7616417" lon="7.8318867"><ele>319.0</ele><time>2026-04-11T07:36:20.45Z</time></trkpt><trkpt lat="44.7616817" lon="7.8317717"><ele>319.0</ele><time>2026-04-11T07:36:21.45Z</time></trkpt><trkpt lat="44.7617283" lon="7.8316583"><ele>319.0</ele><time>2026-04-11T07:36:22.45Z</time></trkpt><trkpt lat="44.7617733" lon="7.8315533"><ele>319.0</ele><time>2026-04-11T07:36:23.45Z</time></trkpt><trkpt lat="44.761815" lon="7.83145"><ele>319.2</ele><time>2026-04-11T07:36:24.45Z</time></trkpt><trkpt lat="44.7618633" lon="7.83134"><ele>319.4</ele><time>2026-04-11T07:36:25.45Z</time></trkpt><trkpt lat="44.7619017" lon="7.8312267"><ele>319.6</ele><time>2026-04-11T07:36:26.451Z</time></trkpt><trkpt lat="44.7619367" lon="7.8311083"><ele>319.8</ele><time>2026-04-11T07:36:27.45Z</time></trkpt><trkpt lat="44.7619617" lon="7.830985"><ele>320.0</ele><time>2026-04-11T07:36:28.45Z</time></trkpt><trkpt lat="44.7619883" lon="7.83086"><ele>319.5</ele><time>2026-04-11T07:36:29.45Z</time></trkpt><trkpt lat="44.762025" lon="7.8307367"><ele>319.0</ele><time>2026-04-11T07:36:30.45Z</time></trkpt><trkpt lat="44.7620583" lon="7.8306217"><ele>318.5</ele><time>2026-04-11T07:36:31.45Z</time></trkpt><trkpt lat="44.7620883" lon="7.830515"><ele>318.0</ele><time>2026-04-11T07:36:32.45Z</time></trkpt><trkpt lat="44.7621267" lon="7.830405"><ele>317.5</ele><time>2026-04-11T07:36:33.45Z</time></trkpt><trkpt lat="44.7621567" lon="7.8302983"><ele>317.0</ele><time>2026-04-11T07:36:34.45Z</time></trkpt><trkpt lat="44.7621833" lon="7.830185"><ele>316.83333333333337</ele><time>2026-04-11T07:36:35.45Z</time></trkpt><trkpt lat="44.7622133" lon="7.830075"><ele>316.6666666666667</ele><time>2026-04-11T07:36:36.45Z</time></trkpt><trkpt lat="44.762235" lon="7.829965"><ele>316.5</ele><time>2026-04-11T07:36:37.45Z</time></trkpt><trkpt lat="44.7622383" lon="7.8298617"><ele>316.3333333333333</ele><time>2026-04-11T07:36:38.45Z</time></trkpt><trkpt lat="44.7622417" lon="7.8297567"><ele>316.16666666666663</ele><time>2026-04-11T07:36:39.45Z</time></trkpt><trkpt lat="44.7622417" lon="7.8296533"><ele>316.0</ele><time>2026-04-11T07:36:40.45Z</time></trkpt><trkpt lat="44.7622367" lon="7.82955"><ele>316.00000000000006</ele><time>2026-04-11T07:36:41.45Z</time></trkpt><trkpt lat="44.7622317" lon="7.8294467"><ele>316.0</ele><time>2026-04-11T07:36:42.45Z</time></trkpt><trkpt lat="44.7622283" lon="7.82935"><ele>316.0</ele><time>2026-04-11T07:36:43.45Z</time></trkpt><trkpt lat="44.7622283" lon="7.8292567"><ele>316.0</ele><time>2026-04-11T07:36:44.45Z</time></trkpt><trkpt lat="44.76223" lon="7.8291617"><ele>316.0</ele><time>2026-04-11T07:36:45.45Z</time></trkpt><trkpt lat="44.7622333" lon="7.8290617"><ele>316.00000000000006</ele><time>2026-04-11T07:36:46.45Z</time></trkpt><trkpt lat="44.7622317" lon="7.8289633"><ele>316.0</ele><time>2026-04-11T07:36:47.45Z</time></trkpt><trkpt lat="44.7622367" lon="7.8288617"><ele>315.8571428571429</ele><time>2026-04-11T07:36:48.45Z</time></trkpt><trkpt lat="44.7622433" lon="7.8287683"><ele>315.7142857142857</ele><time>2026-04-11T07:36:49.45Z</time></trkpt><trkpt lat="44.76225" lon="7.8286717"><ele>315.57142857142856</ele><time>2026-04-11T07:36:50.45Z</time></trkpt><trkpt lat="44.7622533" lon="7.82858"><ele>315.42857142857144</ele><time>2026-04-11T07:36:51.45Z</time></trkpt><trkpt lat="44.7622617" lon="7.8284833"><ele>315.2857142857143</ele><time>2026-04-11T07:36:52.45Z</time></trkpt><trkpt lat="44.76227" lon="7.8283867"><ele>315.14285714285717</ele><time>2026-04-11T07:36:53.45Z</time></trkpt><trkpt lat="44.7622733" lon="7.8282933"><ele>315.0</ele><time>2026-04-11T07:36:54.45Z</time></trkpt><trkpt lat="44.7622783" lon="7.8282"><ele>315.0</ele><time>2026-04-11T07:36:55.45Z</time></trkpt><trkpt lat="44.7622867" lon="7.8281117"><ele>315.0</ele><time>2026-04-11T07:36:56.45Z</time></trkpt><trkpt lat="44.7622933" lon="7.82802"><ele>315.0</ele><time>2026-04-11T07:36:57.45Z</time></trkpt><trkpt lat="44.7623033" lon="7.82793"><ele>315.0</ele><time>2026-04-11T07:36:58.45Z</time></trkpt><trkpt lat="44.7623183" lon="7.8278433"><ele>315.0</ele><time>2026-04-11T07:36:59.45Z</time></trkpt><trkpt lat="44.7623317" lon="7.82775"><ele>315.0</ele><time>2026-04-11T07:37:00.45Z</time></trkpt><trkpt lat="44.76235" lon="7.82766"><ele>315.0</ele><time>2026-04-11T07:37:01.45Z</time></trkpt><trkpt lat="44.76237" lon="7.827575"><ele>314.85714285714283</ele><time>2026-04-11T07:37:02.45Z</time></trkpt><trkpt lat="44.762395" lon="7.8274833"><ele>314.7142857142857</ele><time>2026-04-11T07:37:03.45Z</time></trkpt><trkpt lat="44.76242" lon="7.8274017"><ele>314.57142857142856</ele><time>2026-04-11T07:37:04.451Z</time></trkpt><trkpt lat="44.76245" lon="7.8273183"><ele>314.42857142857144</ele><time>2026-04-11T07:37:05.45Z</time></trkpt><trkpt lat="44.76248" lon="7.8272233"><ele>314.2857142857143</ele><time>2026-04-11T07:37:06.45Z</time></trkpt><trkpt lat="44.7625033" lon="7.8271267"><ele>314.1428571428571</ele><time>2026-04-11T07:37:07.45Z</time></trkpt><trkpt lat="44.76252" lon="7.827025"><ele>314.0</ele><time>2026-04-11T07:37:08.451Z</time></trkpt><trkpt lat="44.7625333" lon="7.8269133"><ele>314.1666666666667</ele><time>2026-04-11T07:37:09.45Z</time></trkpt><trkpt lat="44.762545" lon="7.8268017"><ele>314.33333333333337</ele><time>2026-04-11T07:37:10.45Z</time></trkpt><trkpt lat="44.76255" lon="7.82671"><ele>314.5</ele><time>2026-04-11T07:37:11.45Z</time></trkpt><trkpt lat="44.7625583" lon="7.82656"><ele>314.6666666666667</ele><time>2026-04-11T07:37:13.451Z</time></trkpt><trkpt lat="44.762565" lon="7.8264317"><ele>314.8333333333333</ele><time>2026-04-11T07:37:15.45Z</time></trkpt><trkpt lat="44.76258" lon="7.8263383"><ele>315.0</ele><time>2026-04-11T07:37:17.45Z</time></trkpt><trkpt lat="44.7625983" lon="7.8262383"><ele>315.0</ele><time>2026-04-11T07:37:19.45Z</time></trkpt><trkpt lat="44.762605" lon="7.8260833"><ele>315.0</ele><time>2026-04-11T07:37:21.45Z</time></trkpt><trkpt lat="44.7626067" lon="7.8259733"><ele>315.0</ele><time>2026-04-11T07:37:22.45Z</time></trkpt><trkpt lat="44.76259" lon="7.8258467"><ele>315.0</ele><time>2026-04-11T07:37:24.45Z</time></trkpt><trkpt lat="44.762585" lon="7.8257167"><ele>315.0</ele><time>2026-04-11T07:37:26.45Z</time></trkpt><trkpt lat="44.7625817" lon="7.8256"><ele>315.1666666666667</ele><time>2026-04-11T07:37:27.45Z</time></trkpt><trkpt lat="44.76257" lon="7.8255117"><ele>315.3333333333333</ele><time>2026-04-11T07:37:28.45Z</time></trkpt><trkpt lat="44.762555" lon="7.8254167"><ele>315.5</ele><time>2026-04-11T07:37:29.45Z</time></trkpt><trkpt lat="44.762545" lon="7.8253183"><ele>315.66666666666663</ele><time>2026-04-11T07:37:30.45Z</time></trkpt><trkpt lat="44.76254" lon="7.8252217"><ele>315.8333333333333</ele><time>2026-04-11T07:37:31.45Z</time></trkpt><trkpt lat="44.7625383" lon="7.825055"><ele>316.0</ele><time>2026-04-11T07:37:33.45Z</time></trkpt><trkpt lat="44.762535" lon="7.824955"><ele>315.66666666666663</ele><time>2026-04-11T07:37:34.45Z</time></trkpt><trkpt lat="44.7625233" lon="7.824865"><ele>315.3333333333333</ele><time>2026-04-11T07:37:35.45Z</time></trkpt><trkpt lat="44.7625133" lon="7.8247667"><ele>315.0</ele><time>2026-04-11T07:37:36.45Z</time></trkpt><trkpt lat="44.762505" lon="7.8246017"><ele>314.6666666666667</ele><time>2026-04-11T07:37:38.45Z</time></trkpt><trkpt lat="44.7624783" lon="7.824495"><ele>314.33333333333337</ele><time>2026-04-11T07:37:40.45Z</time></trkpt><trkpt lat="44.7624833" lon="7.8243883"><ele>314.0</ele><time>2026-04-11T07:37:42.45Z</time></trkpt><trkpt lat="44.762525" lon="7.8242833"><ele>314.0</ele><time>2026-04-11T07:37:48.45Z</time></trkpt><trkpt lat="44.7625517" lon="7.8241767"><ele>314.0</ele><time>2026-04-11T07:37:50.45Z</time></trkpt><trkpt lat="44.762585" lon="7.8240417"><ele>314.0</ele><time>2026-04-11T07:37:52.45Z</time></trkpt><trkpt lat="44.7626133" lon="7.8238667"><ele>314.0</ele><time>2026-04-11T07:37:54.449Z</time></trkpt><trkpt lat="44.7626233" lon="7.8237117"><ele>314.0</ele><time>2026-04-11T07:37:56.449Z</time></trkpt><trkpt lat="44.7626267" lon="7.8236117"><ele>314.0</ele><time>2026-04-11T07:37:58.449Z</time></trkpt><trkpt lat="44.7626283" lon="7.8235083"><ele>314.0</ele><time>2026-04-11T07:38:00.449Z</time></trkpt><trkpt lat="44.7626333" lon="7.8233917"><ele>314.0</ele><time>2026-04-11T07:38:02.449Z</time></trkpt><trkpt lat="44.7626517" lon="7.8232733"><ele>314.0</ele><time>2026-04-11T07:38:04.45Z</time></trkpt><trkpt lat="44.7626567" lon="7.8231567"><ele>314.0</ele><time>2026-04-11T07:38:06.449Z</time></trkpt><trkpt lat="44.76268" lon="7.8230333"><ele>314.0</ele><time>2026-04-11T07:38:08.449Z</time></trkpt><trkpt lat="44.762715" lon="7.8229583"><ele>313.0</ele><time>2026-04-11T07:38:10.45Z</time></trkpt><trkpt lat="44.7627383" lon="7.82279"><ele>312.0</ele><time>2026-04-11T07:38:12.449Z</time></trkpt><trkpt lat="44.7627433" lon="7.8227"><ele>311.0</ele><time>2026-04-11T07:38:13.449Z</time></trkpt><trkpt lat="44.7627417" lon="7.8225467"><ele>310.0</ele><time>2026-04-11T07:38:15.449Z</time></trkpt><trkpt lat="44.7627333" lon="7.8224283"><ele>309.0</ele><time>2026-04-11T07:38:17.449Z</time></trkpt><trkpt lat="44.7627217" lon="7.8222883"><ele>309.0</ele><time>2026-04-11T07:38:20.449Z</time></trkpt><trkpt lat="44.7627167" lon="7.822165"><ele>309.0</ele><time>2026-04-11T07:38:22.449Z</time></trkpt><trkpt lat="44.7627133" lon="7.8220033"><ele>309.0</ele><time>2026-04-11T07:38:24.449Z</time></trkpt><trkpt lat="44.76271" lon="7.8218417"><ele>309.0</ele><time>2026-04-11T07:38:26.449Z</time></trkpt><trkpt lat="44.762705" lon="7.82169"><ele>309.0</ele><time>2026-04-11T07:38:28.449Z</time></trkpt><trkpt lat="44.7626667" lon="7.8215417"><ele>308.8333333333333</ele><time>2026-04-11T07:38:30.449Z</time></trkpt><trkpt lat="44.7626233" lon="7.8214767"><ele>308.6666666666667</ele><time>2026-04-11T07:38:32.449Z</time></trkpt><trkpt lat="44.762555" lon="7.821375"><ele>308.5</ele><time>2026-04-11T07:38:36.449Z</time></trkpt><trkpt lat="44.7624983" lon="7.821275"><ele>308.33333333333337</ele><time>2026-04-11T07:38:38.449Z</time></trkpt><trkpt lat="44.7624633" lon="7.8211883"><ele>308.1666666666667</ele><time>2026-04-11T07:38:40.449Z</time></trkpt><trkpt lat="44.7624283" lon="7.8210983"><ele>308.0</ele><time>2026-04-11T07:38:42.449Z</time></trkpt><trkpt lat="44.762385" lon="7.82099"><ele>307.33333333333337</ele><time>2026-04-11T07:38:44.449Z</time></trkpt><trkpt lat="44.762345" lon="7.8208533"><ele>306.6666666666667</ele><time>2026-04-11T07:38:46.449Z</time></trkpt><trkpt lat="44.7623083" lon="7.82075"><ele>306.0</ele><time>2026-04-11T07:38:48.449Z</time></trkpt><trkpt lat="44.7622633" lon="7.820655"><ele>305.3333333333333</ele><time>2026-04-11T07:38:50.449Z</time></trkpt><trkpt lat="44.7622183" lon="7.820545"><ele>304.66666666666663</ele><time>2026-04-11T07:38:52.449Z</time></trkpt><trkpt lat="44.7621867" lon="7.8204583"><ele>304.0</ele><time>2026-04-11T07:38:54.449Z</time></trkpt><trkpt lat="44.762165" lon="7.8203467"><ele>304.0</ele><time>2026-04-11T07:38:56.449Z</time></trkpt><trkpt lat="44.7621783" lon="7.8202083"><ele>304.0</ele><time>2026-04-11T07:38:58.449Z</time></trkpt><trkpt lat="44.7622183" lon="7.8200733"><ele>304.0</ele><time>2026-04-11T07:39:00.45Z</time></trkpt><trkpt lat="44.7622633" lon="7.8199383"><ele>304.0</ele><time>2026-04-11T07:39:02.449Z</time></trkpt><trkpt lat="44.7622883" lon="7.8198367"><ele>304.0</ele><time>2026-04-11T07:39:03.449Z</time></trkpt><trkpt lat="44.76231" lon="7.8197383"><ele>304.0</ele><time>2026-04-11T07:39:04.449Z</time></trkpt><trkpt lat="44.7623317" lon="7.8196383"><ele>304.0</ele><time>2026-04-11T07:39:05.449Z</time></trkpt><trkpt lat="44.7623483" lon="7.8195433"><ele>304.0</ele><time>2026-04-11T07:39:06.449Z</time></trkpt><trkpt lat="44.7623667" lon="7.8194383"><ele>304.0</ele><time>2026-04-11T07:39:07.449Z</time></trkpt><trkpt lat="44.7623817" lon="7.81934"><ele>304.0</ele><time>2026-04-11T07:39:08.449Z</time></trkpt><trkpt lat="44.7624" lon="7.81924"><ele>304.0</ele><time>2026-04-11T07:39:09.449Z</time></trkpt><trkpt lat="44.7624233" lon="7.8191217"><ele>304.59999999999997</ele><time>2026-04-11T07:39:10.449Z</time></trkpt><trkpt lat="44.7624417" lon="7.8189967"><ele>305.2</ele><time>2026-04-11T07:39:11.449Z</time></trkpt><trkpt lat="44.7624717" lon="7.818875"><ele>305.79999999999995</ele><time>2026-04-11T07:39:12.449Z</time></trkpt><trkpt lat="44.7624917" lon="7.8187583"><ele>306.4</ele><time>2026-04-11T07:39:13.449Z</time></trkpt><trkpt lat="44.762515" lon="7.81864"><ele>307.0</ele><time>2026-04-11T07:39:14.449Z</time></trkpt><trkpt lat="44.7625383" lon="7.818505"><ele>307.0</ele><time>2026-04-11T07:39:15.449Z</time></trkpt><trkpt lat="44.76256" lon="7.8183633"><ele>307.0</ele><time>2026-04-11T07:39:16.449Z</time></trkpt><trkpt lat="44.7625783" lon="7.8182367"><ele>307.0</ele><time>2026-04-11T07:39:17.449Z</time></trkpt><trkpt lat="44.7625967" lon="7.8181117"><ele>307.0</ele><time>2026-04-11T07:39:18.449Z</time></trkpt><trkpt lat="44.7626233" lon="7.8179817"><ele>307.0</ele><time>2026-04-11T07:39:19.449Z</time></trkpt><trkpt lat="44.7626483" lon="7.8178567"><ele>306.99999999999994</ele><time>2026-04-11T07:39:20.449Z</time></trkpt><trkpt lat="44.7626633" lon="7.8177417"><ele>307.0</ele><time>2026-04-11T07:39:21.449Z</time></trkpt><trkpt lat="44.76267" lon="7.81763"><ele>307.0</ele><time>2026-04-11T07:39:22.449Z</time></trkpt><trkpt lat="44.7626617" lon="7.8175417"><ele>307.0</ele><time>2026-04-11T07:39:23.449Z</time></trkpt><trkpt lat="44.7626483" lon="7.817445"><ele>307.0</ele><time>2026-04-11T07:39:24.449Z</time></trkpt><trkpt lat="44.762625" lon="7.8173617"><ele>306.99999999999994</ele><time>2026-04-11T07:39:25.449Z</time></trkpt><trkpt lat="44.762595" lon="7.8172767"><ele>307.0</ele><time>2026-04-11T07:39:26.449Z</time></trkpt><trkpt lat="44.7625633" lon="7.8171883"><ele>307.2</ele><time>2026-04-11T07:39:27.449Z</time></trkpt><trkpt lat="44.762545" lon="7.8171033"><ele>307.4</ele><time>2026-04-11T07:39:28.449Z</time></trkpt><trkpt lat="44.7625267" lon="7.8169267"><ele>307.6</ele><time>2026-04-11T07:39:30.449Z</time></trkpt><trkpt lat="44.7625267" lon="7.8167467"><ele>307.8</ele><time>2026-04-11T07:39:32.449Z</time></trkpt><trkpt lat="44.7625233" lon="7.81658"><ele>308.0</ele><time>2026-04-11T07:39:34.449Z</time></trkpt><trkpt lat="44.7625267" lon="7.81644"><ele>308.2</ele><time>2026-04-11T07:39:36.449Z</time></trkpt><trkpt lat="44.7625217" lon="7.8162833"><ele>308.4</ele><time>2026-04-11T07:39:38.449Z</time></trkpt><trkpt lat="44.7625233" lon="7.816115"><ele>308.59999999999997</ele><time>2026-04-11T07:39:40.449Z</time></trkpt><trkpt lat="44.76253" lon="7.8159367"><ele>308.8</ele><time>2026-04-11T07:39:42.449Z</time></trkpt><trkpt lat="44.7625283" lon="7.8158417"><ele>309.0</ele><time>2026-04-11T07:39:43.449Z</time></trkpt><trkpt lat="44.7625283" lon="7.81575"><ele>309.0</ele><time>2026-04-11T07:39:44.449Z</time></trkpt><trkpt lat="44.7625267" lon="7.81566"><ele>309.0</ele><time>2026-04-11T07:39:45.449Z</time></trkpt><trkpt lat="44.7624883" lon="7.8155033"><ele>309.0</ele><time>2026-04-11T07:39:47.449Z</time></trkpt><trkpt lat="44.7623867" lon="7.8154317"><ele>309.0</ele><time>2026-04-11T07:39:49.449Z</time></trkpt><trkpt lat="44.76228" lon="7.815375"><ele>309.0</ele><time>2026-04-11T07:39:51.449Z</time></trkpt><trkpt lat="44.7621817" lon="7.8153033"><ele>309.0</ele><time>2026-04-11T07:39:53.449Z</time></trkpt><trkpt lat="44.762085" lon="7.8152317"><ele>309.0</ele><time>2026-04-11T07:39:55.449Z</time></trkpt><trkpt lat="44.7619967" lon="7.815155"><ele>309.0</ele><time>2026-04-11T07:39:57.449Z</time></trkpt><trkpt lat="44.7619117" lon="7.8150883"><ele>309.0</ele><time>2026-04-11T07:39:59.449Z</time></trkpt><trkpt lat="44.7618283" lon="7.81501"><ele>309.0</ele><time>2026-04-11T07:40:01.449Z</time></trkpt><trkpt lat="44.76175" lon="7.8149167"><ele>309.8</ele><time>2026-04-11T07:40:03.449Z</time></trkpt><trkpt lat="44.76169" lon="7.8148067"><ele>310.59999999999997</ele><time>2026-04-11T07:40:05.449Z</time></trkpt><trkpt lat="44.7616717" lon="7.81468"><ele>311.4</ele><time>2026-04-11T07:40:07.449Z</time></trkpt><trkpt lat="44.7616917" lon="7.8145517"><ele>312.2</ele><time>2026-04-11T07:40:09.449Z</time></trkpt><trkpt lat="44.7617283" lon="7.81445"><ele>313.0</ele><time>2026-04-11T07:40:11.449Z</time></trkpt><trkpt lat="44.7617967" lon="7.8143767"><ele>312.2</ele><time>2026-04-11T07:40:14.449Z</time></trkpt><trkpt lat="44.76187" lon="7.814295"><ele>311.4</ele><time>2026-04-11T07:40:17.449Z</time></trkpt><trkpt lat="44.7619367" lon="7.81419"><ele>310.59999999999997</ele><time>2026-04-11T07:40:19.449Z</time></trkpt><trkpt lat="44.76201" lon="7.81406"><ele>309.8</ele><time>2026-04-11T07:40:21.449Z</time></trkpt><trkpt lat="44.7620783" lon="7.8139217"><ele>309.0</ele><time>2026-04-11T07:40:23.449Z</time></trkpt><trkpt lat="44.7621183" lon="7.8138517"><ele>309.0</ele><time>2026-04-11T07:40:24.449Z</time></trkpt><trkpt lat="44.7621967" lon="7.8137117"><ele>309.0</ele><time>2026-04-11T07:40:26.449Z</time></trkpt><trkpt lat="44.76227" lon="7.81357"><ele>309.0</ele><time>2026-04-11T07:40:28.449Z</time></trkpt><trkpt lat="44.7623083" lon="7.8134983"><ele>309.0</ele><time>2026-04-11T07:40:29.449Z</time></trkpt><trkpt lat="44.7623833" lon="7.8133633"><ele>309.0</ele><time>2026-04-11T07:40:31.449Z</time></trkpt><trkpt lat="44.762465" lon="7.8132367"><ele>310.4</ele><time>2026-04-11T07:40:33.449Z</time></trkpt><trkpt lat="44.7625283" lon="7.8131067"><ele>311.79999999999995</ele><time>2026-04-11T07:40:35.45Z</time></trkpt><trkpt lat="44.7625717" lon="7.8129533"><ele>313.20000000000005</ele><time>2026-04-11T07:40:37.449Z</time></trkpt><trkpt lat="44.7625933" lon="7.812805"><ele>314.6</ele><time>2026-04-11T07:40:39.449Z</time></trkpt><trkpt lat="44.762615" lon="7.81266"><ele>316.0</ele><time>2026-04-11T07:40:41.449Z</time></trkpt><trkpt lat="44.7626383" lon="7.8124917"><ele>316.2</ele><time>2026-04-11T07:40:43.449Z</time></trkpt><trkpt lat="44.7626683" lon="7.8123367"><ele>316.40000000000003</ele><time>2026-04-11T07:40:45.449Z</time></trkpt><trkpt lat="44.7627233" lon="7.81222"><ele>316.6</ele><time>2026-04-11T07:40:47.449Z</time></trkpt><trkpt lat="44.7628033" lon="7.8121533"><ele>316.8</ele><time>2026-04-11T07:40:49.449Z</time></trkpt><trkpt lat="44.7628983" lon="7.8121083"><ele>317.0</ele><time>2026-04-11T07:40:51.449Z</time></trkpt><trkpt lat="44.762985" lon="7.8120533"><ele>315.6666666666667</ele><time>2026-04-11T07:40:53.449Z</time></trkpt><trkpt lat="44.7630683" lon="7.8119733"><ele>314.33333333333337</ele><time>2026-04-11T07:40:55.449Z</time></trkpt><trkpt lat="44.7631183" lon="7.811915"><ele>313.0</ele><time>2026-04-11T07:40:56.449Z</time></trkpt><trkpt lat="44.7631733" lon="7.8118433"><ele>311.6666666666667</ele><time>2026-04-11T07:40:57.449Z</time></trkpt><trkpt lat="44.7632217" lon="7.8117633"><ele>310.3333333333333</ele><time>2026-04-11T07:40:58.449Z</time></trkpt><trkpt lat="44.7632667" lon="7.811675"><ele>309.0</ele><time>2026-04-11T07:40:59.449Z</time></trkpt><trkpt lat="44.763305" lon="7.811585"><ele>308.8333333333333</ele><time>2026-04-11T07:41:00.449Z</time></trkpt><trkpt lat="44.7633533" lon="7.811495"><ele>308.6666666666667</ele><time>2026-04-11T07:41:01.449Z</time></trkpt><trkpt lat="44.7633967" lon="7.8114033"><ele>308.5</ele><time>2026-04-11T07:41:02.449Z</time></trkpt><trkpt lat="44.7634417" lon="7.811315"><ele>308.33333333333337</ele><time>2026-04-11T07:41:03.449Z</time></trkpt><trkpt lat="44.763485" lon="7.811225"><ele>308.1666666666667</ele><time>2026-04-11T07:41:04.449Z</time></trkpt><trkpt lat="44.76353" lon="7.8111367"><ele>308.0</ele><time>2026-04-11T07:41:05.449Z</time></trkpt><trkpt lat="44.7635667" lon="7.81104"><ele>307.6666666666667</ele><time>2026-04-11T07:41:06.449Z</time></trkpt><trkpt lat="44.7636083" lon="7.810945"><ele>307.33333333333337</ele><time>2026-04-11T07:41:07.449Z</time></trkpt><trkpt lat="44.763655" lon="7.8108517"><ele>307.0</ele><time>2026-04-11T07:41:08.449Z</time></trkpt><trkpt lat="44.7636983" lon="7.81076"><ele>306.6666666666667</ele><time>2026-04-11T07:41:09.449Z</time></trkpt><trkpt lat="44.7637467" lon="7.8106667"><ele>306.3333333333333</ele><time>2026-04-11T07:41:10.449Z</time></trkpt><trkpt lat="44.763795" lon="7.8105833"><ele>306.0</ele><time>2026-04-11T07:41:11.449Z</time></trkpt><trkpt lat="44.7638417" lon="7.8104983"><ele>306.0</ele><time>2026-04-11T07:41:12.449Z</time></trkpt><trkpt lat="44.763885" lon="7.81042"><ele>306.0</ele><time>2026-04-11T07:41:13.449Z</time></trkpt><trkpt lat="44.763925" lon="7.8103433"><ele>306.0</ele><time>2026-04-11T07:41:14.449Z</time></trkpt><trkpt lat="44.7639817" lon="7.8102383"><ele>306.0</ele><time>2026-04-11T07:41:16.449Z</time></trkpt><trkpt lat="44.764025" lon="7.81017"><ele>306.0</ele><time>2026-04-11T07:41:18.449Z</time></trkpt><trkpt lat="44.7640617" lon="7.81009"><ele>306.0</ele><time>2026-04-11T07:41:21.45Z</time></trkpt><trkpt lat="44.7641217" lon="7.8099967"><ele>305.85714285714283</ele><time>2026-04-11T07:41:24.449Z</time></trkpt><trkpt lat="44.7641667" lon="7.80992"><ele>305.7142857142857</ele><time>2026-04-11T07:41:26.449Z</time></trkpt><trkpt lat="44.7642067" lon="7.80985"><ele>305.57142857142856</ele><time>2026-04-11T07:41:28.449Z</time></trkpt><trkpt lat="44.7642583" lon="7.80975"><ele>305.42857142857144</ele><time>2026-04-11T07:41:31.449Z</time></trkpt><trkpt lat="44.7643017" lon="7.8096783"><ele>305.2857142857143</ele><time>2026-04-11T07:41:33.449Z</time></trkpt><trkpt lat="44.7643517" lon="7.8096"><ele>305.14285714285717</ele><time>2026-04-11T07:41:35.449Z</time></trkpt><trkpt lat="44.764405" lon="7.8095067"><ele>305.0</ele><time>2026-04-11T07:41:37.449Z</time></trkpt><trkpt lat="44.76447" lon="7.809405"><ele>305.0</ele><time>2026-04-11T07:41:39.449Z</time></trkpt><trkpt lat="44.764535" lon="7.8092883"><ele>305.0</ele><time>2026-04-11T07:41:41.449Z</time></trkpt><trkpt lat="44.7646083" lon="7.8091583"><ele>305.0</ele><time>2026-04-11T07:41:43.449Z</time></trkpt><trkpt lat="44.76469" lon="7.8090217"><ele>305.0</ele><time>2026-04-11T07:41:45.449Z</time></trkpt><trkpt lat="44.764735" lon="7.8089417"><ele>305.0</ele><time>2026-04-11T07:41:46.449Z</time></trkpt><trkpt lat="44.7647867" lon="7.8088633"><ele>305.0</ele><time>2026-04-11T07:41:47.449Z</time></trkpt><trkpt lat="44.7648367" lon="7.8087833"><ele>305.0</ele><time>2026-04-11T07:41:48.449Z</time></trkpt><trkpt lat="44.76489" lon="7.8087033"><ele>305.0</ele><time>2026-04-11T07:41:49.449Z</time></trkpt><trkpt lat="44.7649383" lon="7.808625"><ele>305.0</ele><time>2026-04-11T07:41:50.45Z</time></trkpt><trkpt lat="44.7649817" lon="7.8085383"><ele>305.0</ele><time>2026-04-11T07:41:51.449Z</time></trkpt><trkpt lat="44.7650333" lon="7.808455"><ele>305.0</ele><time>2026-04-11T07:41:52.449Z</time></trkpt><trkpt lat="44.7650833" lon="7.8083767"><ele>305.33333333333337</ele><time>2026-04-11T07:41:53.449Z</time></trkpt><trkpt lat="44.7651317" lon="7.808305"><ele>305.6666666666667</ele><time>2026-04-11T07:41:54.449Z</time></trkpt><trkpt lat="44.7651767" lon="7.8082317"><ele>306.0</ele><time>2026-04-11T07:41:55.449Z</time></trkpt><trkpt lat="44.7652183" lon="7.80816"><ele>306.3333333333333</ele><time>2026-04-11T07:41:56.449Z</time></trkpt><trkpt lat="44.76526" lon="7.8080933"><ele>306.66666666666663</ele><time>2026-04-11T07:41:57.449Z</time></trkpt><trkpt lat="44.765325" lon="7.8079817"><ele>307.0</ele><time>2026-04-11T07:41:59.449Z</time></trkpt><trkpt lat="44.7653783" lon="7.8078683"><ele>306.2</ele><time>2026-04-11T07:42:01.449Z</time></trkpt><trkpt lat="44.765445" lon="7.80773"><ele>305.4</ele><time>2026-04-11T07:42:03.449Z</time></trkpt><trkpt lat="44.7655217" lon="7.8075783"><ele>304.6</ele><time>2026-04-11T07:42:05.449Z</time></trkpt><trkpt lat="44.7655667" lon="7.8075"><ele>303.8</ele><time>2026-04-11T07:42:06.449Z</time></trkpt><trkpt lat="44.7656133" lon="7.8074233"><ele>303.0</ele><time>2026-04-11T07:42:07.449Z</time></trkpt><trkpt lat="44.7656583" lon="7.8073383"><ele>303.0</ele><time>2026-04-11T07:42:08.449Z</time></trkpt><trkpt lat="44.7657" lon="7.8072633"><ele>303.0</ele><time>2026-04-11T07:42:09.449Z</time></trkpt><trkpt lat="44.7657417" lon="7.8071917"><ele>303.0</ele><time>2026-04-11T07:42:10.449Z</time></trkpt><trkpt lat="44.765785" lon="7.8071133"><ele>303.0</ele><time>2026-04-11T07:42:11.449Z</time></trkpt><trkpt lat="44.7658233" lon="7.8070417"><ele>303.0</ele><time>2026-04-11T07:42:12.449Z</time></trkpt><trkpt lat="44.7658917" lon="7.80691"><ele>303.0</ele><time>2026-04-11T07:42:14.449Z</time></trkpt><trkpt lat="44.765935" lon="7.806775"><ele>303.2</ele><time>2026-04-11T07:42:16.449Z</time></trkpt><trkpt lat="44.76594" lon="7.8066283"><ele>303.4</ele><time>2026-04-11T07:42:18.449Z</time></trkpt><trkpt lat="44.7659283" lon="7.8064883"><ele>303.59999999999997</ele><time>2026-04-11T07:42:20.449Z</time></trkpt><trkpt lat="44.7659533" lon="7.8063517"><ele>303.8</ele><time>2026-04-11T07:42:22.449Z</time></trkpt><trkpt lat="44.76602" lon="7.8062283"><ele>304.0</ele><time>2026-04-11T07:42:24.449Z</time></trkpt><trkpt lat="44.7660983" lon="7.8061083"><ele>303.66666666666663</ele><time>2026-04-11T07:42:26.449Z</time></trkpt><trkpt lat="44.766175" lon="7.8059883"><ele>303.3333333333333</ele><time>2026-04-11T07:42:28.449Z</time></trkpt><trkpt lat="44.7662217" lon="7.80592"><ele>303.0</ele><time>2026-04-11T07:42:29.449Z</time></trkpt><trkpt lat="44.76627" lon="7.80585"><ele>302.6666666666667</ele><time>2026-04-11T07:42:30.449Z</time></trkpt><trkpt lat="44.7663183" lon="7.8057767"><ele>302.33333333333337</ele><time>2026-04-11T07:42:31.449Z</time></trkpt><trkpt lat="44.7663667" lon="7.8057017"><ele>302.0</ele><time>2026-04-11T07:42:32.449Z</time></trkpt><trkpt lat="44.7664133" lon="7.80563"><ele>302.0</ele><time>2026-04-11T07:42:33.449Z</time></trkpt><trkpt lat="44.7664617" lon="7.8055583"><ele>302.0</ele><time>2026-04-11T07:42:34.449Z</time></trkpt><trkpt lat="44.7665083" lon="7.8054867"><ele>302.0</ele><time>2026-04-11T07:42:35.449Z</time></trkpt><trkpt lat="44.7665583" lon="7.8054267"><ele>302.0</ele><time>2026-04-11T07:42:36.449Z</time></trkpt><trkpt lat="44.7666483" lon="7.8053983"><ele>302.0</ele><time>2026-04-11T07:42:38.449Z</time></trkpt><trkpt lat="44.7667317" lon="7.80547"><ele>302.0</ele><time>2026-04-11T07:42:40.449Z</time></trkpt><trkpt lat="44.766825" lon="7.8055567"><ele>301.5</ele><time>2026-04-11T07:42:42.449Z</time></trkpt><trkpt lat="44.766905" lon="7.8055917"><ele>301.0</ele><time>2026-04-11T07:42:44.449Z</time></trkpt><trkpt lat="44.766985" lon="7.8055533"><ele>300.5</ele><time>2026-04-11T07:42:46.449Z</time></trkpt><trkpt lat="44.76707" lon="7.8054767"><ele>300.0</ele><time>2026-04-11T07:42:48.449Z</time></trkpt><trkpt lat="44.76712" lon="7.8054217"><ele>299.5</ele><time>2026-04-11T07:42:49.449Z</time></trkpt><trkpt lat="44.76717" lon="7.805365"><ele>299.0</ele><time>2026-04-11T07:42:50.449Z</time></trkpt><trkpt lat="44.767225" lon="7.8053067"><ele>299.0</ele><time>2026-04-11T07:42:51.449Z</time></trkpt><trkpt lat="44.76728" lon="7.8052467"><ele>299.0</ele><time>2026-04-11T07:42:52.449Z</time></trkpt><trkpt lat="44.767335" lon="7.8051833"><ele>299.0</ele><time>2026-04-11T07:42:53.449Z</time></trkpt><trkpt lat="44.76739" lon="7.805125"><ele>299.0</ele><time>2026-04-11T07:42:54.449Z</time></trkpt><trkpt lat="44.7674467" lon="7.805065"><ele>299.0</ele><time>2026-04-11T07:42:55.449Z</time></trkpt><trkpt lat="44.7675033" lon="7.805005"><ele>299.0</ele><time>2026-04-11T07:42:56.449Z</time></trkpt><trkpt lat="44.7675617" lon="7.8049433"><ele>299.0</ele><time>2026-04-11T07:42:57.449Z</time></trkpt><trkpt lat="44.76762" lon="7.80488"><ele>299.0</ele><time>2026-04-11T07:42:58.449Z</time></trkpt><trkpt lat="44.7676767" lon="7.8048183"><ele>299.0</ele><time>2026-04-11T07:42:59.449Z</time></trkpt><trkpt lat="44.7677317" lon="7.8047533"><ele>299.0</ele><time>2026-04-11T07:43:00.449Z</time></trkpt><trkpt lat="44.7677883" lon="7.8046883"><ele>299.0</ele><time>2026-04-11T07:43:01.449Z</time></trkpt><trkpt lat="44.7678367" lon="7.8046267"><ele>299.0</ele><time>2026-04-11T07:43:02.449Z</time></trkpt><trkpt lat="44.7679067" lon="7.8045067"><ele>299.0</ele><time>2026-04-11T07:43:04.449Z</time></trkpt><trkpt lat="44.7679617" lon="7.8043917"><ele>299.0</ele><time>2026-04-11T07:43:06.449Z</time></trkpt><trkpt lat="44.768005" lon="7.804245"><ele>299.0</ele><time>2026-04-11T07:43:08.449Z</time></trkpt><trkpt lat="44.7680267" lon="7.8041567"><ele>299.0</ele><time>2026-04-11T07:43:09.449Z</time></trkpt><trkpt lat="44.76805" lon="7.8040617"><ele>299.0</ele><time>2026-04-11T07:43:10.449Z</time></trkpt><trkpt lat="44.7680717" lon="7.8039683"><ele>299.0</ele><time>2026-04-11T07:43:11.449Z</time></trkpt><trkpt lat="44.7680917" lon="7.8038783"><ele>299.0</ele><time>2026-04-11T07:43:12.449Z</time></trkpt><trkpt lat="44.7681133" lon="7.80379"><ele>299.0</ele><time>2026-04-11T07:43:13.449Z</time></trkpt><trkpt lat="44.7681317" lon="7.803705"><ele>299.0</ele><time>2026-04-11T07:43:14.449Z</time></trkpt><trkpt lat="44.768155" lon="7.8035467"><ele>299.0</ele><time>2026-04-11T07:43:16.449Z</time></trkpt><trkpt lat="44.7681683" lon="7.803405"><ele>299.0</ele><time>2026-04-11T07:43:18.449Z</time></trkpt><trkpt lat="44.7681833" lon="7.8032783"><ele>299.0</ele><time>2026-04-11T07:43:20.449Z</time></trkpt><trkpt lat="44.768195" lon="7.80317"><ele>299.0</ele><time>2026-04-11T07:43:22.449Z</time></trkpt><trkpt lat="44.76821" lon="7.8030733"><ele>299.0</ele><time>2026-04-11T07:43:24.449Z</time></trkpt><trkpt lat="44.7682283" lon="7.802975"><ele>299.0</ele><time>2026-04-11T07:43:26.449Z</time></trkpt><trkpt lat="44.7682583" lon="7.8028833"><ele>299.0</ele><time>2026-04-11T07:43:28.449Z</time></trkpt><trkpt lat="44.76832" lon="7.80279"><ele>299.0</ele><time>2026-04-11T07:43:31.449Z</time></trkpt><trkpt lat="44.7683967" lon="7.80275"><ele>299.0</ele><time>2026-04-11T07:43:34.45Z</time></trkpt><trkpt lat="44.768475" lon="7.8027417"><ele>299.0</ele><time>2026-04-11T07:43:36.449Z</time></trkpt><trkpt lat="44.7685633" lon="7.8027283"><ele>299.0</ele><time>2026-04-11T07:43:38.449Z</time></trkpt><trkpt lat="44.7686367" lon="7.802695"><ele>299.0</ele><time>2026-04-11T07:43:40.449Z</time></trkpt><trkpt lat="44.7686767" lon="7.8025867"><ele>299.0</ele><time>2026-04-11T07:44:05.449Z</time></trkpt><trkpt lat="44.7687" lon="7.8024917"><ele>299.0</ele><time>2026-04-11T07:44:07.449Z</time></trkpt><trkpt lat="44.7687167" lon="7.8023317"><ele>299.0</ele><time>2026-04-11T07:44:09.449Z</time></trkpt><trkpt lat="44.7687383" lon="7.80217"><ele>298.85714285714283</ele><time>2026-04-11T07:44:11.449Z</time></trkpt><trkpt lat="44.76875" lon="7.80208"><ele>298.7142857142857</ele><time>2026-04-11T07:44:12.449Z</time></trkpt><trkpt lat="44.76876" lon="7.8019867"><ele>298.57142857142856</ele><time>2026-04-11T07:44:13.449Z</time></trkpt><trkpt lat="44.76877" lon="7.8018867"><ele>298.42857142857144</ele><time>2026-04-11T07:44:14.449Z</time></trkpt><trkpt lat="44.76878" lon="7.8017817"><ele>298.2857142857143</ele><time>2026-04-11T07:44:15.449Z</time></trkpt><trkpt lat="44.7687933" lon="7.8016817"><ele>298.1428571428571</ele><time>2026-04-11T07:44:16.449Z</time></trkpt><trkpt lat="44.7688067" lon="7.801585"><ele>298.0</ele><time>2026-04-11T07:44:17.449Z</time></trkpt><trkpt lat="44.7688217" lon="7.8014883"><ele>297.66666666666663</ele><time>2026-04-11T07:44:18.449Z</time></trkpt><trkpt lat="44.768835" lon="7.801395"><ele>297.3333333333333</ele><time>2026-04-11T07:44:19.449Z</time></trkpt><trkpt lat="44.7688467" lon="7.8013033"><ele>297.0</ele><time>2026-04-11T07:44:20.449Z</time></trkpt><trkpt lat="44.7688567" lon="7.801215"><ele>296.6666666666667</ele><time>2026-04-11T07:44:21.449Z</time></trkpt><trkpt lat="44.768885" lon="7.801035"><ele>296.33333333333337</ele><time>2026-04-11T07:44:23.449Z</time></trkpt><trkpt lat="44.7689" lon="7.8009433"><ele>296.0</ele><time>2026-04-11T07:44:24.449Z</time></trkpt><trkpt lat="44.768915" lon="7.8008517"><ele>296.0</ele><time>2026-04-11T07:44:25.449Z</time></trkpt><trkpt lat="44.76893" lon="7.8007567"><ele>296.0</ele><time>2026-04-11T07:44:26.449Z</time></trkpt><trkpt lat="44.7689483" lon="7.80067"><ele>296.0</ele><time>2026-04-11T07:44:27.449Z</time></trkpt><trkpt lat="44.7689683" lon="7.800585"><ele>296.0</ele><time>2026-04-11T07:44:28.449Z</time></trkpt><trkpt lat="44.7689883" lon="7.8004967"><ele>296.0</ele><time>2026-04-11T07:44:29.449Z</time></trkpt><trkpt lat="44.76901" lon="7.8004133"><ele>296.0</ele><time>2026-04-11T07:44:30.449Z</time></trkpt><trkpt lat="44.769045" lon="7.8002483"><ele>296.0</ele><time>2026-04-11T07:44:32.449Z</time></trkpt><trkpt lat="44.76907" lon="7.8001617"><ele>295.7142857142857</ele><time>2026-04-11T07:44:33.449Z</time></trkpt><trkpt lat="44.7690933" lon="7.8000733"><ele>295.42857142857144</ele><time>2026-04-11T07:44:34.449Z</time></trkpt><trkpt lat="44.7691133" lon="7.79998"><ele>295.1428571428571</ele><time>2026-04-11T07:44:35.449Z</time></trkpt><trkpt lat="44.7691383" lon="7.7998883"><ele>294.8571428571429</ele><time>2026-04-11T07:44:36.449Z</time></trkpt><trkpt lat="44.7691633" lon="7.799805"><ele>294.57142857142856</ele><time>2026-04-11T07:44:37.449Z</time></trkpt><trkpt lat="44.76919" lon="7.799715"><ele>294.2857142857143</ele><time>2026-04-11T07:44:38.449Z</time></trkpt><trkpt lat="44.7692183" lon="7.7996233"><ele>294.0</ele><time>2026-04-11T07:44:39.449Z</time></trkpt><trkpt lat="44.76925" lon="7.7995317"><ele>294.0</ele><time>2026-04-11T07:44:40.449Z</time></trkpt><trkpt lat="44.76928" lon="7.79944"><ele>294.0</ele><time>2026-04-11T07:44:41.449Z</time></trkpt><trkpt lat="44.7693067" lon="7.7993533"><ele>294.0</ele><time>2026-04-11T07:44:42.449Z</time></trkpt><trkpt lat="44.7693317" lon="7.7992683"><ele>294.0</ele><time>2026-04-11T07:44:43.45Z</time></trkpt><trkpt lat="44.7693567" lon="7.7991733"><ele>294.0</ele><time>2026-04-11T07:44:44.449Z</time></trkpt><trkpt lat="44.7693833" lon="7.7990833"><ele>294.0</ele><time>2026-04-11T07:44:45.45Z</time></trkpt><trkpt lat="44.7694117" lon="7.798995"><ele>294.0</ele><time>2026-04-11T07:44:46.449Z</time></trkpt><trkpt lat="44.7694433" lon="7.7989133"><ele>293.59999999999997</ele><time>2026-04-11T07:44:47.449Z</time></trkpt><trkpt lat="44.7694783" lon="7.798835"><ele>293.2</ele><time>2026-04-11T07:44:48.449Z</time></trkpt><trkpt lat="44.76953" lon="7.7986833"><ele>292.79999999999995</ele><time>2026-04-11T07:44:50.449Z</time></trkpt><trkpt lat="44.7696" lon="7.7985667"><ele>292.4</ele><time>2026-04-11T07:44:52.449Z</time></trkpt><trkpt lat="44.7697" lon="7.7985117"><ele>292.0</ele><time>2026-04-11T07:44:54.449Z</time></trkpt><trkpt lat="44.769815" lon="7.7984633"><ele>291.85714285714283</ele><time>2026-04-11T07:44:56.449Z</time></trkpt><trkpt lat="44.7698767" lon="7.7984383"><ele>291.7142857142857</ele><time>2026-04-11T07:44:57.449Z</time></trkpt><trkpt lat="44.7699417" lon="7.79841"><ele>291.57142857142856</ele><time>2026-04-11T07:44:58.449Z</time></trkpt><trkpt lat="44.77001" lon="7.798375"><ele>291.42857142857144</ele><time>2026-04-11T07:44:59.449Z</time></trkpt><trkpt lat="44.77008" lon="7.7983383"><ele>291.2857142857143</ele><time>2026-04-11T07:45:00.449Z</time></trkpt><trkpt lat="44.7701467" lon="7.798295"><ele>291.1428571428571</ele><time>2026-04-11T07:45:01.449Z</time></trkpt><trkpt lat="44.7702117" lon="7.7982417"><ele>291.0</ele><time>2026-04-11T07:45:02.449Z</time></trkpt><trkpt lat="44.77027" lon="7.7981817"><ele>290.8333333333333</ele><time>2026-04-11T07:45:03.449Z</time></trkpt><trkpt lat="44.77033" lon="7.7981183"><ele>290.6666666666667</ele><time>2026-04-11T07:45:04.449Z</time></trkpt><trkpt lat="44.7703883" lon="7.7980367"><ele>290.5</ele><time>2026-04-11T07:45:05.45Z</time></trkpt><trkpt lat="44.77044" lon="7.79794"><ele>290.33333333333337</ele><time>2026-04-11T07:45:06.449Z</time></trkpt><trkpt lat="44.7704883" lon="7.7978367"><ele>290.1666666666667</ele><time>2026-04-11T07:45:07.449Z</time></trkpt><trkpt lat="44.7705283" lon="7.7977333"><ele>290.0</ele><time>2026-04-11T07:45:08.449Z</time></trkpt><trkpt lat="44.7705683" lon="7.7976367"><ele>290.0</ele><time>2026-04-11T07:45:09.449Z</time></trkpt><trkpt lat="44.7706033" lon="7.797545"><ele>290.0</ele><time>2026-04-11T07:45:10.449Z</time></trkpt><trkpt lat="44.770635" lon="7.797445"><ele>290.0</ele><time>2026-04-11T07:45:11.449Z</time></trkpt><trkpt lat="44.770665" lon="7.7973417"><ele>290.0</ele><time>2026-04-11T07:45:12.449Z</time></trkpt><trkpt lat="44.7706917" lon="7.79724"><ele>290.0</ele><time>2026-04-11T07:45:13.45Z</time></trkpt><trkpt lat="44.77072" lon="7.797135"><ele>290.0</ele><time>2026-04-11T07:45:14.449Z</time></trkpt><trkpt lat="44.7707533" lon="7.7970283"><ele>290.0</ele><time>2026-04-11T07:45:15.449Z</time></trkpt><trkpt lat="44.77079" lon="7.7969217"><ele>290.0</ele><time>2026-04-11T07:45:16.449Z</time></trkpt><trkpt lat="44.7708333" lon="7.7967983"><ele>290.0</ele><time>2026-04-11T07:45:17.449Z</time></trkpt><trkpt lat="44.770865" lon="7.79671"><ele>290.0</ele><time>2026-04-11T07:45:18.449Z</time></trkpt><trkpt lat="44.7708933" lon="7.79661"><ele>290.0</ele><time>2026-04-11T07:45:19.449Z</time></trkpt><trkpt lat="44.7709267" lon="7.79651"><ele>290.0</ele><time>2026-04-11T07:45:20.449Z</time></trkpt><trkpt lat="44.7709617" lon="7.7964033"><ele>289.83333333333337</ele><time>2026-04-11T07:45:21.448Z</time></trkpt><trkpt lat="44.7709917" lon="7.7963033"><ele>289.6666666666667</ele><time>2026-04-11T07:45:22.448Z</time></trkpt><trkpt lat="44.7710283" lon="7.7962017"><ele>289.5</ele><time>2026-04-11T07:45:23.448Z</time></trkpt><trkpt lat="44.7710683" lon="7.7961033"><ele>289.3333333333333</ele><time>2026-04-11T07:45:24.448Z</time></trkpt><trkpt lat="44.7711183" lon="7.79601"><ele>289.16666666666663</ele><time>2026-04-11T07:45:25.448Z</time></trkpt><trkpt lat="44.7711533" lon="7.7959083"><ele>289.0</ele><time>2026-04-11T07:45:26.448Z</time></trkpt><trkpt lat="44.77119" lon="7.795805"><ele>288.16666666666663</ele><time>2026-04-11T07:45:27.448Z</time></trkpt><trkpt lat="44.77123" lon="7.7957033"><ele>287.3333333333333</ele><time>2026-04-11T07:45:28.448Z</time></trkpt><trkpt lat="44.7712567" lon="7.795605"><ele>286.5</ele><time>2026-04-11T07:45:29.448Z</time></trkpt><trkpt lat="44.7712833" lon="7.79551"><ele>285.6666666666667</ele><time>2026-04-11T07:45:30.448Z</time></trkpt><trkpt lat="44.7713117" lon="7.79542"><ele>284.83333333333337</ele><time>2026-04-11T07:45:31.448Z</time></trkpt><trkpt lat="44.77133" lon="7.7952783"><ele>284.0</ele><time>2026-04-11T07:45:33.448Z</time></trkpt><trkpt lat="44.7713183" lon="7.7951617"><ele>283.2</ele><time>2026-04-11T07:45:36.448Z</time></trkpt><trkpt lat="44.77127" lon="7.7950633"><ele>282.4</ele><time>2026-04-11T07:46:01.448Z</time></trkpt><trkpt lat="44.7712183" lon="7.7948933"><ele>281.6</ele><time>2026-04-11T07:46:03.448Z</time></trkpt><trkpt lat="44.7711833" lon="7.79479"><ele>280.8</ele><time>2026-04-11T07:46:04.448Z</time></trkpt><trkpt lat="44.7711383" lon="7.794695"><ele>280.0</ele><time>2026-04-11T07:46:05.448Z</time></trkpt><trkpt lat="44.7710833" lon="7.7945983"><ele>279.8</ele><time>2026-04-11T07:46:06.448Z</time></trkpt><trkpt lat="44.7710183" lon="7.7944967"><ele>279.6</ele><time>2026-04-11T07:46:07.448Z</time></trkpt><trkpt lat="44.77096" lon="7.7943817"><ele>279.4</ele><time>2026-04-11T07:46:08.449Z</time></trkpt><trkpt lat="44.7709167" lon="7.794255"><ele>279.2</ele><time>2026-04-11T07:46:09.448Z</time></trkpt><trkpt lat="44.7708967" lon="7.7941217"><ele>279.0</ele><time>2026-04-11T07:46:10.448Z</time></trkpt><trkpt lat="44.7709117" lon="7.793985"><ele>279.0</ele><time>2026-04-11T07:46:11.448Z</time></trkpt><trkpt lat="44.7709617" lon="7.793865"><ele>279.0</ele><time>2026-04-11T07:46:12.448Z</time></trkpt><trkpt lat="44.7710283" lon="7.7937617"><ele>279.0</ele><time>2026-04-11T07:46:13.448Z</time></trkpt><trkpt lat="44.771095" lon="7.79366"><ele>279.0</ele><time>2026-04-11T07:46:14.448Z</time></trkpt><trkpt lat="44.7711567" lon="7.7935567"><ele>279.0</ele><time>2026-04-11T07:46:15.448Z</time></trkpt><trkpt lat="44.77122" lon="7.7934517"><ele>278.2</ele><time>2026-04-11T07:46:16.448Z</time></trkpt><trkpt lat="44.771285" lon="7.7933583"><ele>277.4</ele><time>2026-04-11T07:46:17.448Z</time></trkpt><trkpt lat="44.7713383" lon="7.793275"><ele>276.6</ele><time>2026-04-11T07:46:18.448Z</time></trkpt><trkpt lat="44.7713867" lon="7.7932067"><ele>275.8</ele><time>2026-04-11T07:46:19.448Z</time></trkpt><trkpt lat="44.7714733" lon="7.7931483"><ele>275.0</ele><time>2026-04-11T07:46:21.448Z</time></trkpt><trkpt lat="44.771565" lon="7.7933"><ele>275.0</ele><time>2026-04-11T07:46:24.448Z</time></trkpt><trkpt lat="44.7715817" lon="7.79339"><ele>275.0</ele><time>2026-04-11T07:46:25.448Z</time></trkpt><trkpt lat="44.7716067" lon="7.79348"><ele>275.0</ele><time>2026-04-11T07:46:26.448Z</time></trkpt><trkpt lat="44.7716333" lon="7.7935733"><ele>275.0</ele><time>2026-04-11T07:46:27.448Z</time></trkpt><trkpt lat="44.7716667" lon="7.7936667"><ele>275.0</ele><time>2026-04-11T07:46:28.448Z</time></trkpt><trkpt lat="44.7717083" lon="7.79375"><ele>275.0</ele><time>2026-04-11T07:46:29.448Z</time></trkpt><trkpt lat="44.7717533" lon="7.7938233"><ele>275.0</ele><time>2026-04-11T07:46:30.448Z</time></trkpt><trkpt lat="44.7718" lon="7.793895"><ele>275.5</ele><time>2026-04-11T07:46:31.448Z</time></trkpt><trkpt lat="44.7718583" lon="7.7939717"><ele>276.0</ele><time>2026-04-11T07:46:32.448Z</time></trkpt><trkpt lat="44.7719117" lon="7.7940567"><ele>276.5</ele><time>2026-04-11T07:46:33.448Z</time></trkpt><trkpt lat="44.7719667" lon="7.7941483"><ele>277.0</ele><time>2026-04-11T07:46:34.448Z</time></trkpt><trkpt lat="44.77202" lon="7.7942317"><ele>277.5</ele><time>2026-04-11T07:46:35.448Z</time></trkpt><trkpt lat="44.77208" lon="7.7943033"><ele>278.0</ele><time>2026-04-11T07:46:36.448Z</time></trkpt><trkpt lat="44.7721417" lon="7.7943817"><ele>278.1666666666667</ele><time>2026-04-11T07:46:37.448Z</time></trkpt><trkpt lat="44.7722" lon="7.7944683"><ele>278.33333333333337</ele><time>2026-04-11T07:46:38.448Z</time></trkpt><trkpt lat="44.7722533" lon="7.7945567"><ele>278.5</ele><time>2026-04-11T07:46:39.448Z</time></trkpt><trkpt lat="44.77231" lon="7.7946417"><ele>278.6666666666667</ele><time>2026-04-11T07:46:40.448Z</time></trkpt><trkpt lat="44.7723667" lon="7.7947317"><ele>278.8333333333333</ele><time>2026-04-11T07:46:41.448Z</time></trkpt><trkpt lat="44.7724217" lon="7.7948233"><ele>279.0</ele><time>2026-04-11T07:46:42.448Z</time></trkpt><trkpt lat="44.7724633" lon="7.794915"><ele>278.99999999999994</ele><time>2026-04-11T07:46:43.448Z</time></trkpt><trkpt lat="44.7725" lon="7.7950117"><ele>279.0</ele><time>2026-04-11T07:46:44.448Z</time></trkpt><trkpt lat="44.772535" lon="7.7951133"><ele>279.0</ele><time>2026-04-11T07:46:45.448Z</time></trkpt><trkpt lat="44.772565" lon="7.79521"><ele>279.0</ele><time>2026-04-11T07:46:46.448Z</time></trkpt><trkpt lat="44.7725883" lon="7.7953067"><ele>279.0</ele><time>2026-04-11T07:46:47.448Z</time></trkpt><trkpt lat="44.77261" lon="7.7954033"><ele>278.99999999999994</ele><time>2026-04-11T07:46:48.448Z</time></trkpt><trkpt lat="44.7726333" lon="7.795495"><ele>279.0</ele><time>2026-04-11T07:46:49.448Z</time></trkpt><trkpt lat="44.7726583" lon="7.7955933"><ele>278.85714285714283</ele><time>2026-04-11T07:46:50.448Z</time></trkpt><trkpt lat="44.7726867" lon="7.7956867"><ele>278.7142857142857</ele><time>2026-04-11T07:46:51.448Z</time></trkpt><trkpt lat="44.7727133" lon="7.7957783"><ele>278.57142857142856</ele><time>2026-04-11T07:46:52.448Z</time></trkpt><trkpt lat="44.77274" lon="7.7958667"><ele>278.42857142857144</ele><time>2026-04-11T07:46:53.448Z</time></trkpt><trkpt lat="44.772765" lon="7.7959583"><ele>278.2857142857143</ele><time>2026-04-11T07:46:54.448Z</time></trkpt><trkpt lat="44.7727867" lon="7.7960467"><ele>278.1428571428571</ele><time>2026-04-11T07:46:55.448Z</time></trkpt><trkpt lat="44.7728067" lon="7.7961367"><ele>278.0</ele><time>2026-04-11T07:46:56.448Z</time></trkpt><trkpt lat="44.7728267" lon="7.7962283"><ele>278.0</ele><time>2026-04-11T07:46:57.448Z</time></trkpt><trkpt lat="44.7728417" lon="7.7963217"><ele>278.0</ele><time>2026-04-11T07:46:58.448Z</time></trkpt><trkpt lat="44.7728617" lon="7.7964183"><ele>278.0</ele><time>2026-04-11T07:46:59.448Z</time></trkpt><trkpt lat="44.7728833" lon="7.796515"><ele>278.0</ele><time>2026-04-11T07:47:00.448Z</time></trkpt><trkpt lat="44.772905" lon="7.7966167"><ele>278.0</ele><time>2026-04-11T07:47:01.448Z</time></trkpt><trkpt lat="44.7729217" lon="7.796715"><ele>278.0</ele><time>2026-04-11T07:47:02.448Z</time></trkpt><trkpt lat="44.7729433" lon="7.7968217"><ele>278.0</ele><time>2026-04-11T07:47:03.448Z</time></trkpt><trkpt lat="44.7729583" lon="7.796925"><ele>278.0</ele><time>2026-04-11T07:47:04.448Z</time></trkpt><trkpt lat="44.7729733" lon="7.7970283"><ele>278.0</ele><time>2026-04-11T07:47:05.448Z</time></trkpt><trkpt lat="44.77299" lon="7.7971317"><ele>278.0</ele><time>2026-04-11T07:47:06.448Z</time></trkpt><trkpt lat="44.773005" lon="7.7972367"><ele>278.0</ele><time>2026-04-11T07:47:07.448Z</time></trkpt><trkpt lat="44.77302" lon="7.797335"><ele>278.0</ele><time>2026-04-11T07:47:08.448Z</time></trkpt><trkpt lat="44.7730283" lon="7.7974317"><ele>278.0</ele><time>2026-04-11T07:47:09.448Z</time></trkpt><trkpt lat="44.7730367" lon="7.7975317"><ele>278.0</ele><time>2026-04-11T07:47:10.448Z</time></trkpt><trkpt lat="44.7730467" lon="7.79763"><ele>278.0</ele><time>2026-04-11T07:47:11.448Z</time></trkpt><trkpt lat="44.77305" lon="7.79773"><ele>278.0</ele><time>2026-04-11T07:47:12.448Z</time></trkpt><trkpt lat="44.7730583" lon="7.797825"><ele>278.0</ele><time>2026-04-11T07:47:13.448Z</time></trkpt><trkpt lat="44.7730717" lon="7.7979183"><ele>278.0</ele><time>2026-04-11T07:47:14.448Z</time></trkpt><trkpt lat="44.7730817" lon="7.7980117"><ele>278.0</ele><time>2026-04-11T07:47:15.448Z</time></trkpt><trkpt lat="44.7730917" lon="7.7981033"><ele>278.0</ele><time>2026-04-11T07:47:16.448Z</time></trkpt><trkpt lat="44.7731017" lon="7.7981917"><ele>278.0</ele><time>2026-04-11T07:47:17.448Z</time></trkpt><trkpt lat="44.773105" lon="7.7982833"><ele>278.0</ele><time>2026-04-11T07:47:18.448Z</time></trkpt><trkpt lat="44.7731117" lon="7.7984583"><ele>278.0</ele><time>2026-04-11T07:47:20.448Z</time></trkpt><trkpt lat="44.7731133" lon="7.7986317"><ele>278.0</ele><time>2026-04-11T07:47:22.448Z</time></trkpt><trkpt lat="44.7731283" lon="7.7988083"><ele>278.0</ele><time>2026-04-11T07:47:24.448Z</time></trkpt><trkpt lat="44.7731283" lon="7.7989"><ele>278.0</ele><time>2026-04-11T07:47:25.448Z</time></trkpt><trkpt lat="44.77314" lon="7.799075"><ele>278.33333333333337</ele><time>2026-04-11T07:47:27.448Z</time></trkpt><trkpt lat="44.773145" lon="7.799165"><ele>278.6666666666667</ele><time>2026-04-11T07:47:28.448Z</time></trkpt><trkpt lat="44.773155" lon="7.7993417"><ele>279.0</ele><time>2026-04-11T07:47:30.448Z</time></trkpt><trkpt lat="44.7731617" lon="7.7994333"><ele>279.3333333333333</ele><time>2026-04-11T07:47:31.448Z</time></trkpt><trkpt lat="44.7731567" lon="7.7995317"><ele>279.66666666666663</ele><time>2026-04-11T07:47:32.449Z</time></trkpt><trkpt lat="44.7731517" lon="7.7996367"><ele>280.0</ele><time>2026-04-11T07:47:33.448Z</time></trkpt><trkpt lat="44.7731567" lon="7.7997333"><ele>280.0</ele><time>2026-04-11T07:47:34.448Z</time></trkpt><trkpt lat="44.77316" lon="7.799825"><ele>280.0</ele><time>2026-04-11T07:47:35.448Z</time></trkpt><trkpt lat="44.7731583" lon="7.7999217"><ele>280.0</ele><time>2026-04-11T07:47:36.448Z</time></trkpt><trkpt lat="44.7731533" lon="7.8000167"><ele>280.0</ele><time>2026-04-11T07:47:37.448Z</time></trkpt><trkpt lat="44.7731367" lon="7.8001883"><ele>280.0</ele><time>2026-04-11T07:47:39.448Z</time></trkpt><trkpt lat="44.7731267" lon="7.8002783"><ele>280.0</ele><time>2026-04-11T07:47:40.448Z</time></trkpt><trkpt lat="44.7731417" lon="7.80045"><ele>280.3333333333333</ele><time>2026-04-11T07:47:42.448Z</time></trkpt><trkpt lat="44.7731633" lon="7.8006183"><ele>280.66666666666663</ele><time>2026-04-11T07:47:44.448Z</time></trkpt><trkpt lat="44.7731867" lon="7.8007033"><ele>281.0</ele><time>2026-04-11T07:47:45.448Z</time></trkpt><trkpt lat="44.7732167" lon="7.8007933"><ele>281.3333333333333</ele><time>2026-04-11T07:47:46.448Z</time></trkpt><trkpt lat="44.7732433" lon="7.80088"><ele>281.6666666666667</ele><time>2026-04-11T07:47:47.448Z</time></trkpt><trkpt lat="44.773265" lon="7.8009683"><ele>282.0</ele><time>2026-04-11T07:47:48.448Z</time></trkpt><trkpt lat="44.773285" lon="7.801055"><ele>282.2</ele><time>2026-04-11T07:47:49.448Z</time></trkpt><trkpt lat="44.773305" lon="7.8011417"><ele>282.4</ele><time>2026-04-11T07:47:50.448Z</time></trkpt><trkpt lat="44.7733383" lon="7.80131"><ele>282.6</ele><time>2026-04-11T07:47:52.448Z</time></trkpt><trkpt lat="44.7733833" lon="7.8014717"><ele>282.8</ele><time>2026-04-11T07:47:54.448Z</time></trkpt><trkpt lat="44.7734567" lon="7.8016083"><ele>283.0</ele><time>2026-04-11T07:47:56.448Z</time></trkpt><trkpt lat="44.7735467" lon="7.8016983"><ele>284.2</ele><time>2026-04-11T07:47:58.448Z</time></trkpt><trkpt lat="44.7736467" lon="7.8017533"><ele>285.4</ele><time>2026-04-11T07:48:00.448Z</time></trkpt><trkpt lat="44.77373" lon="7.801805"><ele>286.59999999999997</ele><time>2026-04-11T07:48:02.448Z</time></trkpt><trkpt lat="44.773775" lon="7.8019167"><ele>287.8</ele><time>2026-04-11T07:48:04.448Z</time></trkpt><trkpt lat="44.77378" lon="7.8020667"><ele>289.0</ele><time>2026-04-11T07:48:06.448Z</time></trkpt><trkpt lat="44.7737767" lon="7.8022233"><ele>290.4</ele><time>2026-04-11T07:48:08.448Z</time></trkpt><trkpt lat="44.7737767" lon="7.8023767"><ele>291.79999999999995</ele><time>2026-04-11T07:48:10.448Z</time></trkpt><trkpt lat="44.77378" lon="7.802525"><ele>293.20000000000005</ele><time>2026-04-11T07:48:12.448Z</time></trkpt><trkpt lat="44.7738133" lon="7.8026833"><ele>294.6</ele><time>2026-04-11T07:48:14.448Z</time></trkpt><trkpt lat="44.77384" lon="7.8027817"><ele>296.0</ele><time>2026-04-11T07:48:16.448Z</time></trkpt><trkpt lat="44.7738767" lon="7.8028767"><ele>296.2857142857143</ele><time>2026-04-11T07:48:18.448Z</time></trkpt><trkpt lat="44.7739267" lon="7.8029467"><ele>296.57142857142856</ele><time>2026-04-11T07:48:20.448Z</time></trkpt><trkpt lat="44.7739767" lon="7.8030117"><ele>296.85714285714283</ele><time>2026-04-11T07:48:22.448Z</time></trkpt><trkpt lat="44.774025" lon="7.8030883"><ele>297.1428571428571</ele><time>2026-04-11T07:48:24.448Z</time></trkpt><trkpt lat="44.7740783" lon="7.8031683"><ele>297.4285714285714</ele><time>2026-04-11T07:48:26.448Z</time></trkpt><trkpt lat="44.774135" lon="7.8032467"><ele>297.7142857142857</ele><time>2026-04-11T07:48:28.448Z</time></trkpt><trkpt lat="44.7741867" lon="7.8033167"><ele>298.0</ele><time>2026-04-11T07:48:30.448Z</time></trkpt><trkpt lat="44.774235" lon="7.8033833"><ele>298.0</ele><time>2026-04-11T07:48:32.449Z</time></trkpt><trkpt lat="44.774285" lon="7.80344"><ele>298.0</ele><time>2026-04-11T07:48:34.448Z</time></trkpt><trkpt lat="44.7743417" lon="7.803495"><ele>298.0</ele><time>2026-04-11T07:48:37.448Z</time></trkpt><trkpt lat="44.77448" lon="7.8035733"><ele>298.0</ele><time>2026-04-11T07:49:07.448Z</time></trkpt><trkpt lat="44.7744033" lon="7.8035683"><ele>298.0</ele><time>2026-04-11T07:51:23.448Z</time></trkpt><trkpt lat="44.774335" lon="7.803495"><ele>298.0</ele><time>2026-04-11T07:51:25.448Z</time></trkpt><trkpt lat="44.7742283" lon="7.803395"><ele>298.0</ele><time>2026-04-11T07:51:27.448Z</time></trkpt><trkpt lat="44.7741767" lon="7.803335"><ele>298.0</ele><time>2026-04-11T07:51:28.448Z</time></trkpt><trkpt lat="44.7741317" lon="7.803265"><ele>298.0</ele><time>2026-04-11T07:51:29.448Z</time></trkpt><trkpt lat="44.774055" lon="7.8031317"><ele>298.0</ele><time>2026-04-11T07:51:31.448Z</time></trkpt><trkpt lat="44.7740133" lon="7.8030583"><ele>298.0</ele><time>2026-04-11T07:51:32.448Z</time></trkpt><trkpt lat="44.7739717" lon="7.8029917"><ele>298.0</ele><time>2026-04-11T07:51:33.448Z</time></trkpt><trkpt lat="44.7738817" lon="7.8028733"><ele>298.0</ele><time>2026-04-11T07:51:35.448Z</time></trkpt><trkpt lat="44.7738067" lon="7.8027583"><ele>298.0</ele><time>2026-04-11T07:51:37.448Z</time></trkpt><trkpt lat="44.7737683" lon="7.8025983"><ele>298.0</ele><time>2026-04-11T07:51:39.448Z</time></trkpt><trkpt lat="44.77376" lon="7.8024967"><ele>298.0</ele><time>2026-04-11T07:51:40.448Z</time></trkpt><trkpt lat="44.77376" lon="7.802385"><ele>298.0</ele><time>2026-04-11T07:51:41.448Z</time></trkpt><trkpt lat="44.7737617" lon="7.8022717"><ele>297.6</ele><time>2026-04-11T07:51:42.448Z</time></trkpt><trkpt lat="44.77376" lon="7.8021533"><ele>297.20000000000005</ele><time>2026-04-11T07:51:43.448Z</time></trkpt><trkpt lat="44.7737667" lon="7.8020367"><ele>296.8</ele><time>2026-04-11T07:51:44.448Z</time></trkpt><trkpt lat="44.773765" lon="7.8019283"><ele>296.40000000000003</ele><time>2026-04-11T07:51:45.449Z</time></trkpt><trkpt lat="44.7737217" lon="7.8017933"><ele>296.0</ele><time>2026-04-11T07:51:47.448Z</time></trkpt><trkpt lat="44.7736233" lon="7.801735"><ele>293.83333333333337</ele><time>2026-04-11T07:51:49.448Z</time></trkpt><trkpt lat="44.77351" lon="7.801675"><ele>291.6666666666667</ele><time>2026-04-11T07:51:51.448Z</time></trkpt><trkpt lat="44.77343" lon="7.801545"><ele>289.5</ele><time>2026-04-11T07:51:53.448Z</time></trkpt><trkpt lat="44.7734" lon="7.8014667"><ele>287.3333333333333</ele><time>2026-04-11T07:51:54.448Z</time></trkpt><trkpt lat="44.7733783" lon="7.8013817"><ele>285.16666666666663</ele><time>2026-04-11T07:51:55.448Z</time></trkpt><trkpt lat="44.7733583" lon="7.8012933"><ele>283.0</ele><time>2026-04-11T07:51:56.448Z</time></trkpt><trkpt lat="44.7733433" lon="7.8012"><ele>283.0</ele><time>2026-04-11T07:51:57.448Z</time></trkpt><trkpt lat="44.7733217" lon="7.8011133"><ele>283.0</ele><time>2026-04-11T07:51:58.448Z</time></trkpt><trkpt lat="44.7732983" lon="7.80102"><ele>283.0</ele><time>2026-04-11T07:51:59.448Z</time></trkpt><trkpt lat="44.773275" lon="7.80093"><ele>283.0</ele><time>2026-04-11T07:52:00.448Z</time></trkpt><trkpt lat="44.77325" lon="7.8008417"><ele>283.0</ele><time>2026-04-11T07:52:01.448Z</time></trkpt><trkpt lat="44.773225" lon="7.8007567"><ele>283.0</ele><time>2026-04-11T07:52:02.448Z</time></trkpt><trkpt lat="44.7731833" lon="7.80063"><ele>283.0</ele><time>2026-04-11T07:52:04.448Z</time></trkpt><trkpt lat="44.7731367" lon="7.800525"><ele>282.8333333333333</ele><time>2026-04-11T07:52:07.448Z</time></trkpt><trkpt lat="44.7730733" lon="7.80044"><ele>282.66666666666663</ele><time>2026-04-11T07:53:02.448Z</time></trkpt><trkpt lat="44.773055" lon="7.8003483"><ele>282.5</ele><time>2026-04-11T07:53:06.448Z</time></trkpt><trkpt lat="44.77307" lon="7.800215"><ele>282.3333333333333</ele><time>2026-04-11T07:53:09.448Z</time></trkpt><trkpt lat="44.7730867" lon="7.8000883"><ele>282.1666666666667</ele><time>2026-04-11T07:53:11.448Z</time></trkpt><trkpt lat="44.773095" lon="7.7999583"><ele>282.0</ele><time>2026-04-11T07:53:13.448Z</time></trkpt><trkpt lat="44.77309" lon="7.799845"><ele>281.6</ele><time>2026-04-11T07:53:15.448Z</time></trkpt><trkpt lat="44.773095" lon="7.7997133"><ele>281.2</ele><time>2026-04-11T07:53:17.448Z</time></trkpt><trkpt lat="44.77311" lon="7.7995817"><ele>280.8</ele><time>2026-04-11T07:53:19.448Z</time></trkpt><trkpt lat="44.7731067" lon="7.799445"><ele>280.4</ele><time>2026-04-11T07:53:21.448Z</time></trkpt><trkpt lat="44.7730867" lon="7.79926"><ele>280.0</ele><time>2026-04-11T07:53:23.448Z</time></trkpt><trkpt lat="44.773085" lon="7.7990883"><ele>280.0</ele><time>2026-04-11T07:53:25.448Z</time></trkpt><trkpt lat="44.773085" lon="7.7989967"><ele>280.0</ele><time>2026-04-11T07:53:26.448Z</time></trkpt><trkpt lat="44.77309" lon="7.7989033"><ele>280.0</ele><time>2026-04-11T07:53:27.448Z</time></trkpt><trkpt lat="44.7730917" lon="7.7987217"><ele>280.0</ele><time>2026-04-11T07:53:29.448Z</time></trkpt><trkpt lat="44.7730867" lon="7.79856"><ele>280.0</ele><time>2026-04-11T07:53:31.448Z</time></trkpt><trkpt lat="44.7730817" lon="7.7984033"><ele>279.6</ele><time>2026-04-11T07:53:33.448Z</time></trkpt><trkpt lat="44.7730767" lon="7.798255"><ele>279.2</ele><time>2026-04-11T07:53:35.448Z</time></trkpt><trkpt lat="44.77306" lon="7.79811"><ele>278.8</ele><time>2026-04-11T07:53:37.448Z</time></trkpt><trkpt lat="44.7730417" lon="7.7979633"><ele>278.4</ele><time>2026-04-11T07:53:39.448Z</time></trkpt><trkpt lat="44.7730267" lon="7.7978083"><ele>278.0</ele><time>2026-04-11T07:53:41.448Z</time></trkpt><trkpt lat="44.7730167" lon="7.7976417"><ele>278.0</ele><time>2026-04-11T07:53:43.448Z</time></trkpt><trkpt lat="44.773005" lon="7.7974767"><ele>278.0</ele><time>2026-04-11T07:53:45.448Z</time></trkpt><trkpt lat="44.7729867" lon="7.797305"><ele>278.0</ele><time>2026-04-11T07:53:47.448Z</time></trkpt><trkpt lat="44.77296" lon="7.7971317"><ele>278.0</ele><time>2026-04-11T07:53:49.448Z</time></trkpt><trkpt lat="44.7729467" lon="7.7970433"><ele>278.0</ele><time>2026-04-11T07:53:50.448Z</time></trkpt><trkpt lat="44.7729083" lon="7.7968683"><ele>278.0</ele><time>2026-04-11T07:53:52.448Z</time></trkpt><trkpt lat="44.7728883" lon="7.7967767"><ele>278.0</ele><time>2026-04-11T07:53:53.448Z</time></trkpt><trkpt lat="44.77287" lon="7.7966867"><ele>278.0</ele><time>2026-04-11T07:53:54.448Z</time></trkpt><trkpt lat="44.7728533" lon="7.796595"><ele>278.0</ele><time>2026-04-11T07:53:55.448Z</time></trkpt><trkpt lat="44.7728333" lon="7.7965017"><ele>278.0</ele><time>2026-04-11T07:53:56.448Z</time></trkpt><trkpt lat="44.7728133" lon="7.7964067"><ele>278.0</ele><time>2026-04-11T07:53:57.448Z</time></trkpt><trkpt lat="44.7727867" lon="7.7962467"><ele>278.0</ele><time>2026-04-11T07:53:59.448Z</time></trkpt><trkpt lat="44.7727583" lon="7.7960983"><ele>278.0</ele><time>2026-04-11T07:54:01.448Z</time></trkpt><trkpt lat="44.772725" lon="7.7959933"><ele>278.0</ele><time>2026-04-11T07:54:03.448Z</time></trkpt><trkpt lat="44.7726683" lon="7.7959383"><ele>278.0</ele><time>2026-04-11T07:54:05.448Z</time></trkpt><trkpt lat="44.772625" lon="7.795845"><ele>278.0</ele><time>2026-04-11T07:54:08.448Z</time></trkpt><trkpt lat="44.7725833" lon="7.7957183"><ele>278.0</ele><time>2026-04-11T07:54:10.448Z</time></trkpt><trkpt lat="44.7725217" lon="7.79547"><ele>278.0</ele><time>2026-04-11T07:54:13.448Z</time></trkpt><trkpt lat="44.7724683" lon="7.7953183"><ele>278.0</ele><time>2026-04-11T07:54:15.448Z</time></trkpt><trkpt lat="44.7724483" lon="7.79523"><ele>278.0</ele><time>2026-04-11T07:54:16.448Z</time></trkpt><trkpt lat="44.7724233" lon="7.79514"><ele>278.0</ele><time>2026-04-11T07:54:17.448Z</time></trkpt><trkpt lat="44.7723883" lon="7.7950567"><ele>278.0</ele><time>2026-04-11T07:54:18.449Z</time></trkpt><trkpt lat="44.7723133" lon="7.794895"><ele>278.0</ele><time>2026-04-11T07:54:20.448Z</time></trkpt><trkpt lat="44.7722683" lon="7.79481"><ele>278.0</ele><time>2026-04-11T07:54:21.448Z</time></trkpt><trkpt lat="44.7722283" lon="7.7947383"><ele>278.0</ele><time>2026-04-11T07:54:22.448Z</time></trkpt><trkpt lat="44.7721583" lon="7.7946"><ele>278.0</ele><time>2026-04-11T07:54:24.449Z</time></trkpt><trkpt lat="44.77212" lon="7.79451"><ele>278.0</ele><time>2026-04-11T07:54:25.448Z</time></trkpt><trkpt lat="44.7720867" lon="7.7943733"><ele>278.0</ele><time>2026-04-11T07:54:27.448Z</time></trkpt><trkpt lat="44.7720783" lon="7.7942483"><ele>278.0</ele><time>2026-04-11T07:54:29.448Z</time></trkpt><trkpt lat="44.7721183" lon="7.79412"><ele>278.0</ele><time>2026-04-11T07:54:31.448Z</time></trkpt><trkpt lat="44.7721983" lon="7.7940083"><ele>278.0</ele><time>2026-04-11T07:54:33.448Z</time></trkpt><trkpt lat="44.7722833" lon="7.7939"><ele>278.0</ele><time>2026-04-11T07:54:35.448Z</time></trkpt><trkpt lat="44.7723483" lon="7.7938117"><ele>278.0</ele><time>2026-04-11T07:54:37.448Z</time></trkpt><trkpt lat="44.77239" lon="7.793745"><ele>278.0</ele><time>2026-04-11T07:54:39.448Z</time></trkpt><trkpt lat="44.7724667" lon="7.7937633"><ele>278.0</ele><time>2026-04-11T07:54:42.448Z</time></trkpt><trkpt lat="44.7725267" lon="7.79381"><ele>278.0</ele><time>2026-04-11T07:54:44.448Z</time></trkpt><trkpt lat="44.7725967" lon="7.7938617"><ele>278.0</ele><time>2026-04-11T07:54:46.448Z</time></trkpt><trkpt lat="44.7726733" lon="7.7939317"><ele>278.0</ele><time>2026-04-11T07:54:48.448Z</time></trkpt><trkpt lat="44.772735" lon="7.7939967"><ele>278.0</ele><time>2026-04-11T07:54:50.448Z</time></trkpt><trkpt lat="44.7727967" lon="7.7940517"><ele>278.6666666666667</ele><time>2026-04-11T07:54:52.448Z</time></trkpt><trkpt lat="44.7728583" lon="7.7941017"><ele>279.33333333333337</ele><time>2026-04-11T07:54:54.448Z</time></trkpt><trkpt lat="44.7729233" lon="7.7941633"><ele>280.0</ele><time>2026-04-11T07:54:56.448Z</time></trkpt><trkpt lat="44.7729967" lon="7.79423"><ele>280.6666666666667</ele><time>2026-04-11T07:54:58.448Z</time></trkpt><trkpt lat="44.7730617" lon="7.7943083"><ele>281.3333333333333</ele><time>2026-04-11T07:55:00.448Z</time></trkpt><trkpt lat="44.77313" lon="7.7943867"><ele>282.0</ele><time>2026-04-11T07:55:02.448Z</time></trkpt><trkpt lat="44.7732017" lon="7.7944717"><ele>282.0</ele><time>2026-04-11T07:55:04.448Z</time></trkpt><trkpt lat="44.7732733" lon="7.7945767"><ele>282.0</ele><time>2026-04-11T07:55:06.448Z</time></trkpt><trkpt lat="44.7733417" lon="7.7946733"><ele>282.0</ele><time>2026-04-11T07:55:08.448Z</time></trkpt><trkpt lat="44.7734233" lon="7.7947817"><ele>282.0</ele><time>2026-04-11T07:55:10.448Z</time></trkpt><trkpt lat="44.7735017" lon="7.7948617"><ele>282.0</ele><time>2026-04-11T07:55:12.448Z</time></trkpt><trkpt lat="44.7735767" lon="7.7949283"><ele>283.5</ele><time>2026-04-11T07:55:14.448Z</time></trkpt><trkpt lat="44.7736433" lon="7.7949983"><ele>285.0</ele><time>2026-04-11T07:55:16.448Z</time></trkpt><trkpt lat="44.7737067" lon="7.7950633"><ele>286.5</ele><time>2026-04-11T07:55:18.448Z</time></trkpt><trkpt lat="44.77377" lon="7.7951317"><ele>288.0</ele><time>2026-04-11T07:55:20.449Z</time></trkpt><trkpt lat="44.7738333" lon="7.7951983"><ele>289.5</ele><time>2026-04-11T07:55:22.448Z</time></trkpt><trkpt lat="44.7738917" lon="7.7952583"><ele>291.0</ele><time>2026-04-11T07:55:24.448Z</time></trkpt><trkpt lat="44.77396" lon="7.7953117"><ele>291.0</ele><time>2026-04-11T07:55:26.448Z</time></trkpt><trkpt lat="44.77403" lon="7.7953883"><ele>291.0</ele><time>2026-04-11T07:55:28.448Z</time></trkpt><trkpt lat="44.7741017" lon="7.7954633"><ele>291.0</ele><time>2026-04-11T07:55:30.448Z</time></trkpt><trkpt lat="44.7741717" lon="7.795535"><ele>291.0</ele><time>2026-04-11T07:55:32.449Z</time></trkpt><trkpt lat="44.7742417" lon="7.7956"><ele>291.0</ele><time>2026-04-11T07:55:34.448Z</time></trkpt><trkpt lat="44.7743117" lon="7.7956633"><ele>291.0</ele><time>2026-04-11T07:55:36.448Z</time></trkpt><trkpt lat="44.774375" lon="7.795725"><ele>292.3333333333333</ele><time>2026-04-11T07:55:38.448Z</time></trkpt><trkpt lat="44.77445" lon="7.795805"><ele>293.6666666666667</ele><time>2026-04-11T07:55:40.448Z</time></trkpt><trkpt lat="44.7745333" lon="7.7958817"><ele>295.0</ele><time>2026-04-11T07:55:42.448Z</time></trkpt><trkpt lat="44.7746067" lon="7.7959317"><ele>296.33333333333337</ele><time>2026-04-11T07:55:44.448Z</time></trkpt><trkpt lat="44.7746767" lon="7.79597"><ele>297.6666666666667</ele><time>2026-04-11T07:55:46.448Z</time></trkpt><trkpt lat="44.7747467" lon="7.7960333"><ele>299.0</ele><time>2026-04-11T07:55:48.448Z</time></trkpt><trkpt lat="44.774815" lon="7.7960867"><ele>299.0</ele><time>2026-04-11T07:55:50.448Z</time></trkpt><trkpt lat="44.7748867" lon="7.7961417"><ele>299.0</ele><time>2026-04-11T07:55:52.449Z</time></trkpt><trkpt lat="44.77497" lon="7.7962167"><ele>299.0</ele><time>2026-04-11T07:55:54.448Z</time></trkpt><trkpt lat="44.7750467" lon="7.7962917"><ele>299.0</ele><time>2026-04-11T07:55:56.448Z</time></trkpt><trkpt lat="44.77512" lon="7.7963567"><ele>299.0</ele><time>2026-04-11T07:55:58.448Z</time></trkpt><trkpt lat="44.7751967" lon="7.7964217"><ele>299.4</ele><time>2026-04-11T07:56:00.449Z</time></trkpt><trkpt lat="44.77528" lon="7.7965"><ele>299.79999999999995</ele><time>2026-04-11T07:56:02.448Z</time></trkpt><trkpt lat="44.7753583" lon="7.7965867"><ele>300.20000000000005</ele><time>2026-04-11T07:56:04.447Z</time></trkpt><trkpt lat="44.77544" lon="7.7966767"><ele>300.6</ele><time>2026-04-11T07:56:06.447Z</time></trkpt><trkpt lat="44.7755267" lon="7.796785"><ele>301.0</ele><time>2026-04-11T07:56:08.447Z</time></trkpt><trkpt lat="44.7756183" lon="7.79691"><ele>301.0</ele><time>2026-04-11T07:56:10.447Z</time></trkpt><trkpt lat="44.7756633" lon="7.7969833"><ele>301.0</ele><time>2026-04-11T07:56:11.447Z</time></trkpt><trkpt lat="44.775705" lon="7.7970567"><ele>301.0</ele><time>2026-04-11T07:56:12.447Z</time></trkpt><trkpt lat="44.7757683" lon="7.79719"><ele>301.0</ele><time>2026-04-11T07:56:14.447Z</time></trkpt><trkpt lat="44.7758267" lon="7.7973433"><ele>301.0</ele><time>2026-04-11T07:56:16.447Z</time></trkpt><trkpt lat="44.7758517" lon="7.797425"><ele>301.0</ele><time>2026-04-11T07:56:17.447Z</time></trkpt><trkpt lat="44.77589" lon="7.79758"><ele>301.0</ele><time>2026-04-11T07:56:19.448Z</time></trkpt><trkpt lat="44.7759317" lon="7.797725"><ele>301.0</ele><time>2026-04-11T07:56:21.447Z</time></trkpt><trkpt lat="44.77597" lon="7.7978533"><ele>301.0</ele><time>2026-04-11T07:56:23.447Z</time></trkpt><trkpt lat="44.7760117" lon="7.7979933"><ele>301.0</ele><time>2026-04-11T07:56:25.447Z</time></trkpt><trkpt lat="44.776055" lon="7.798135"><ele>301.0</ele><time>2026-04-11T07:56:27.447Z</time></trkpt><trkpt lat="44.7760917" lon="7.798265"><ele>301.0</ele><time>2026-04-11T07:56:29.447Z</time></trkpt><trkpt lat="44.776135" lon="7.7984067"><ele>301.0</ele><time>2026-04-11T07:56:31.447Z</time></trkpt><trkpt lat="44.7761817" lon="7.798555"><ele>301.0</ele><time>2026-04-11T07:56:33.448Z</time></trkpt><trkpt lat="44.7762183" lon="7.798705"><ele>301.0</ele><time>2026-04-11T07:56:35.447Z</time></trkpt><trkpt lat="44.7762583" lon="7.79885"><ele>301.0</ele><time>2026-04-11T07:56:37.447Z</time></trkpt><trkpt lat="44.7762967" lon="7.799"><ele>301.0</ele><time>2026-04-11T07:56:39.447Z</time></trkpt><trkpt lat="44.7763383" lon="7.7991683"><ele>301.0</ele><time>2026-04-11T07:56:41.447Z</time></trkpt><trkpt lat="44.776365" lon="7.7992533"><ele>301.0</ele><time>2026-04-11T07:56:42.447Z</time></trkpt><trkpt lat="44.77638" lon="7.7993417"><ele>301.0</ele><time>2026-04-11T07:56:43.447Z</time></trkpt><trkpt lat="44.7763933" lon="7.79943"><ele>301.0</ele><time>2026-04-11T07:56:44.447Z</time></trkpt><trkpt lat="44.7764233" lon="7.79961"><ele>301.0</ele><time>2026-04-11T07:56:46.447Z</time></trkpt><trkpt lat="44.7764367" lon="7.799705"><ele>301.0</ele><time>2026-04-11T07:56:47.447Z</time></trkpt><trkpt lat="44.7764533" lon="7.799795"><ele>301.0</ele><time>2026-04-11T07:56:48.448Z</time></trkpt><trkpt lat="44.7764667" lon="7.7998867"><ele>301.0</ele><time>2026-04-11T07:56:49.447Z</time></trkpt><trkpt lat="44.7764833" lon="7.7999817"><ele>301.0</ele><time>2026-04-11T07:56:50.447Z</time></trkpt><trkpt lat="44.7765067" lon="7.8001517"><ele>301.0</ele><time>2026-04-11T07:56:52.447Z</time></trkpt><trkpt lat="44.77654" lon="7.8003133"><ele>301.0</ele><time>2026-04-11T07:56:54.447Z</time></trkpt><trkpt lat="44.7765617" lon="7.800455"><ele>301.0</ele><time>2026-04-11T07:56:56.447Z</time></trkpt><trkpt lat="44.7765717" lon="7.800585"><ele>301.0</ele><time>2026-04-11T07:56:58.447Z</time></trkpt><trkpt lat="44.7765883" lon="7.80074"><ele>301.0</ele><time>2026-04-11T07:57:00.447Z</time></trkpt><trkpt lat="44.776615" lon="7.8008917"><ele>301.0</ele><time>2026-04-11T07:57:02.447Z</time></trkpt><trkpt lat="44.7766383" lon="7.80106"><ele>301.2</ele><time>2026-04-11T07:57:04.447Z</time></trkpt><trkpt lat="44.77665" lon="7.801155"><ele>301.40000000000003</ele><time>2026-04-11T07:57:05.447Z</time></trkpt><trkpt lat="44.776665" lon="7.801245"><ele>301.6</ele><time>2026-04-11T07:57:06.447Z</time></trkpt><trkpt lat="44.7766867" lon="7.801415"><ele>301.8</ele><time>2026-04-11T07:57:08.447Z</time></trkpt><trkpt lat="44.7767083" lon="7.80158"><ele>302.0</ele><time>2026-04-11T07:57:10.447Z</time></trkpt><trkpt lat="44.7767383" lon="7.8017517"><ele>302.0</ele><time>2026-04-11T07:57:12.447Z</time></trkpt><trkpt lat="44.7767783" lon="7.8019117"><ele>302.0</ele><time>2026-04-11T07:57:14.447Z</time></trkpt><trkpt lat="44.7768017" lon="7.802"><ele>302.0</ele><time>2026-04-11T07:57:15.447Z</time></trkpt><trkpt lat="44.7768233" lon="7.8020833"><ele>302.0</ele><time>2026-04-11T07:57:16.447Z</time></trkpt><trkpt lat="44.7768483" lon="7.8021667"><ele>302.0</ele><time>2026-04-11T07:57:17.447Z</time></trkpt><trkpt lat="44.776915" lon="7.802315"><ele>302.0</ele><time>2026-04-11T07:57:19.447Z</time></trkpt><trkpt lat="44.7769533" lon="7.80239"><ele>302.00000000000006</ele><time>2026-04-11T07:57:20.447Z</time></trkpt><trkpt lat="44.7769967" lon="7.80246"><ele>302.0</ele><time>2026-04-11T07:57:21.447Z</time></trkpt><trkpt lat="44.7770383" lon="7.802535"><ele>302.0</ele><time>2026-04-11T07:57:22.447Z</time></trkpt><trkpt lat="44.7770833" lon="7.802605"><ele>302.0</ele><time>2026-04-11T07:57:23.447Z</time></trkpt><trkpt lat="44.7771267" lon="7.8026717"><ele>302.0</ele><time>2026-04-11T07:57:24.447Z</time></trkpt><trkpt lat="44.77717" lon="7.8027383"><ele>302.00000000000006</ele><time>2026-04-11T07:57:25.447Z</time></trkpt><trkpt lat="44.77721" lon="7.80281"><ele>302.0</ele><time>2026-04-11T07:57:26.447Z</time></trkpt><trkpt lat="44.77725" lon="7.8028817"><ele>301.6</ele><time>2026-04-11T07:57:27.447Z</time></trkpt><trkpt lat="44.7773133" lon="7.8030217"><ele>301.2</ele><time>2026-04-11T07:57:29.447Z</time></trkpt><trkpt lat="44.7773167" lon="7.80317"><ele>300.8</ele><time>2026-04-11T07:57:31.447Z</time></trkpt><trkpt lat="44.7772267" lon="7.803285"><ele>300.4</ele><time>2026-04-11T07:57:33.447Z</time></trkpt><trkpt lat="44.77717" lon="7.80334"><ele>300.0</ele><time>2026-04-11T07:57:34.447Z</time></trkpt><trkpt lat="44.7771183" lon="7.8034067"><ele>299.99999999999994</ele><time>2026-04-11T07:57:35.447Z</time></trkpt><trkpt lat="44.77707" lon="7.803475"><ele>300.0</ele><time>2026-04-11T07:57:36.447Z</time></trkpt><trkpt lat="44.7770217" lon="7.803545"><ele>300.0</ele><time>2026-04-11T07:57:37.447Z</time></trkpt><trkpt lat="44.7769717" lon="7.8036133"><ele>300.0</ele><time>2026-04-11T07:57:38.447Z</time></trkpt><trkpt lat="44.776925" lon="7.803685"><ele>300.0</ele><time>2026-04-11T07:57:39.447Z</time></trkpt><trkpt lat="44.7768767" lon="7.8037567"><ele>299.99999999999994</ele><time>2026-04-11T07:57:40.447Z</time></trkpt><trkpt lat="44.7768283" lon="7.8038233"><ele>300.0</ele><time>2026-04-11T07:57:41.447Z</time></trkpt><trkpt lat="44.77678" lon="7.8038933"><ele>300.1428571428571</ele><time>2026-04-11T07:57:42.447Z</time></trkpt><trkpt lat="44.7767317" lon="7.8039633"><ele>300.2857142857143</ele><time>2026-04-11T07:57:43.447Z</time></trkpt><trkpt lat="44.7766867" lon="7.8040267"><ele>300.42857142857144</ele><time>2026-04-11T07:57:44.447Z</time></trkpt><trkpt lat="44.77664" lon="7.8040883"><ele>300.57142857142856</ele><time>2026-04-11T07:57:45.447Z</time></trkpt><trkpt lat="44.77659" lon="7.804155"><ele>300.7142857142857</ele><time>2026-04-11T07:57:46.447Z</time></trkpt><trkpt lat="44.7765417" lon="7.8042217"><ele>300.85714285714283</ele><time>2026-04-11T07:57:47.447Z</time></trkpt><trkpt lat="44.7764967" lon="7.804285"><ele>301.0</ele><time>2026-04-11T07:57:48.447Z</time></trkpt><trkpt lat="44.7764133" lon="7.804405"><ele>301.0</ele><time>2026-04-11T07:57:50.447Z</time></trkpt><trkpt lat="44.776325" lon="7.80453"><ele>301.0</ele><time>2026-04-11T07:57:52.447Z</time></trkpt><trkpt lat="44.776245" lon="7.804655"><ele>301.0</ele><time>2026-04-11T07:57:54.447Z</time></trkpt><trkpt lat="44.7761567" lon="7.8047817"><ele>301.0</ele><time>2026-04-11T07:57:56.447Z</time></trkpt><trkpt lat="44.7761117" lon="7.8048483"><ele>301.0</ele><time>2026-04-11T07:57:57.448Z</time></trkpt><trkpt lat="44.7760317" lon="7.804975"><ele>301.5</ele><time>2026-04-11T07:57:59.447Z</time></trkpt><trkpt lat="44.775945" lon="7.8050983"><ele>302.0</ele><time>2026-04-11T07:58:01.447Z</time></trkpt><trkpt lat="44.7758967" lon="7.8051567"><ele>302.5</ele><time>2026-04-11T07:58:02.447Z</time></trkpt><trkpt lat="44.77585" lon="7.8052217"><ele>303.0</ele><time>2026-04-11T07:58:03.447Z</time></trkpt><trkpt lat="44.7758033" lon="7.8052917"><ele>303.5</ele><time>2026-04-11T07:58:04.447Z</time></trkpt><trkpt lat="44.775715" lon="7.8054167"><ele>304.0</ele><time>2026-04-11T07:58:06.447Z</time></trkpt><trkpt lat="44.7756667" lon="7.805475"><ele>304.0</ele><time>2026-04-11T07:58:07.447Z</time></trkpt><trkpt lat="44.7756233" lon="7.8055433"><ele>304.0</ele><time>2026-04-11T07:58:08.447Z</time></trkpt><trkpt lat="44.77558" lon="7.80561"><ele>304.0</ele><time>2026-04-11T07:58:09.447Z</time></trkpt><trkpt lat="44.7755417" lon="7.8056833"><ele>304.0</ele><time>2026-04-11T07:58:10.447Z</time></trkpt><trkpt lat="44.7755" lon="7.80576"><ele>304.0</ele><time>2026-04-11T07:58:11.447Z</time></trkpt><trkpt lat="44.775465" lon="7.8058367"><ele>304.0</ele><time>2026-04-11T07:58:12.447Z</time></trkpt><trkpt lat="44.775435" lon="7.8059167"><ele>304.0</ele><time>2026-04-11T07:58:13.447Z</time></trkpt><trkpt lat="44.775365" lon="7.8060667"><ele>304.3333333333333</ele><time>2026-04-11T07:58:15.448Z</time></trkpt><trkpt lat="44.7753217" lon="7.806145"><ele>304.66666666666663</ele><time>2026-04-11T07:58:16.447Z</time></trkpt><trkpt lat="44.77528" lon="7.80622"><ele>305.0</ele><time>2026-04-11T07:58:17.447Z</time></trkpt><trkpt lat="44.77524" lon="7.8062917"><ele>305.3333333333333</ele><time>2026-04-11T07:58:18.447Z</time></trkpt><trkpt lat="44.7751533" lon="7.80643"><ele>305.6666666666667</ele><time>2026-04-11T07:58:20.447Z</time></trkpt><trkpt lat="44.7751067" lon="7.8065017"><ele>306.0</ele><time>2026-04-11T07:58:21.447Z</time></trkpt><trkpt lat="44.7750317" lon="7.8066367"><ele>306.0</ele><time>2026-04-11T07:58:23.447Z</time></trkpt><trkpt lat="44.7749617" lon="7.8067883"><ele>306.0</ele><time>2026-04-11T07:58:25.447Z</time></trkpt><trkpt lat="44.77492" lon="7.8068667"><ele>306.0</ele><time>2026-04-11T07:58:26.448Z</time></trkpt><trkpt lat="44.77488" lon="7.80694"><ele>306.0</ele><time>2026-04-11T07:58:27.447Z</time></trkpt><trkpt lat="44.7748417" lon="7.8070183"><ele>306.0</ele><time>2026-04-11T07:58:28.447Z</time></trkpt><trkpt lat="44.7748" lon="7.80709"><ele>306.0</ele><time>2026-04-11T07:58:29.447Z</time></trkpt><trkpt lat="44.7747633" lon="7.807165"><ele>306.0</ele><time>2026-04-11T07:58:30.447Z</time></trkpt><trkpt lat="44.7747267" lon="7.8072417"><ele>306.0</ele><time>2026-04-11T07:58:31.447Z</time></trkpt><trkpt lat="44.7746867" lon="7.8073183"><ele>306.0</ele><time>2026-04-11T07:58:32.447Z</time></trkpt><trkpt lat="44.77465" lon="7.807395"><ele>306.0</ele><time>2026-04-11T07:58:33.447Z</time></trkpt><trkpt lat="44.7746083" lon="7.807465"><ele>306.0</ele><time>2026-04-11T07:58:34.447Z</time></trkpt><trkpt lat="44.7745333" lon="7.8076133"><ele>306.0</ele><time>2026-04-11T07:58:36.447Z</time></trkpt><trkpt lat="44.774495" lon="7.80769"><ele>306.0</ele><time>2026-04-11T07:58:37.447Z</time></trkpt><trkpt lat="44.7744317" lon="7.8078367"><ele>306.0</ele><time>2026-04-11T07:58:39.447Z</time></trkpt><trkpt lat="44.7743683" lon="7.807985"><ele>306.0</ele><time>2026-04-11T07:58:41.447Z</time></trkpt><trkpt lat="44.7743383" lon="7.808065"><ele>306.0</ele><time>2026-04-11T07:58:42.447Z</time></trkpt><trkpt lat="44.7742983" lon="7.808145"><ele>306.0</ele><time>2026-04-11T07:58:43.447Z</time></trkpt><trkpt lat="44.7742683" lon="7.8082233"><ele>306.0</ele><time>2026-04-11T07:58:44.447Z</time></trkpt><trkpt lat="44.7741983" lon="7.8083717"><ele>306.0</ele><time>2026-04-11T07:58:46.447Z</time></trkpt><trkpt lat="44.7741567" lon="7.808455"><ele>306.0</ele><time>2026-04-11T07:58:47.447Z</time></trkpt><trkpt lat="44.7741133" lon="7.8085417"><ele>306.0</ele><time>2026-04-11T07:58:48.447Z</time></trkpt><trkpt lat="44.7740617" lon="7.8086267"><ele>306.0</ele><time>2026-04-11T07:58:49.448Z</time></trkpt><trkpt lat="44.7740133" lon="7.8087083"><ele>306.0</ele><time>2026-04-11T07:58:50.447Z</time></trkpt><trkpt lat="44.7739617" lon="7.8087883"><ele>306.0</ele><time>2026-04-11T07:58:51.447Z</time></trkpt><trkpt lat="44.7739133" lon="7.8088617"><ele>306.0</ele><time>2026-04-11T07:58:52.447Z</time></trkpt><trkpt lat="44.7738667" lon="7.8089383"><ele>306.0</ele><time>2026-04-11T07:58:53.447Z</time></trkpt><trkpt lat="44.7738183" lon="7.8090183"><ele>306.0</ele><time>2026-04-11T07:58:54.447Z</time></trkpt><trkpt lat="44.7737683" lon="7.8091"><ele>306.0</ele><time>2026-04-11T07:58:55.448Z</time></trkpt><trkpt lat="44.77372" lon="7.8091833"><ele>306.0</ele><time>2026-04-11T07:58:56.447Z</time></trkpt><trkpt lat="44.773675" lon="7.8092717"><ele>306.0</ele><time>2026-04-11T07:58:57.447Z</time></trkpt><trkpt lat="44.773635" lon="7.80936"><ele>306.1428571428571</ele><time>2026-04-11T07:58:58.447Z</time></trkpt><trkpt lat="44.773595" lon="7.8094533"><ele>306.2857142857143</ele><time>2026-04-11T07:58:59.447Z</time></trkpt><trkpt lat="44.7735583" lon="7.809535"><ele>306.42857142857144</ele><time>2026-04-11T07:59:00.447Z</time></trkpt><trkpt lat="44.7735183" lon="7.809615"><ele>306.57142857142856</ele><time>2026-04-11T07:59:01.447Z</time></trkpt><trkpt lat="44.7734833" lon="7.8096917"><ele>306.7142857142857</ele><time>2026-04-11T07:59:02.447Z</time></trkpt><trkpt lat="44.77345" lon="7.8097783"><ele>306.85714285714283</ele><time>2026-04-11T07:59:03.447Z</time></trkpt><trkpt lat="44.773415" lon="7.8098617"><ele>307.0</ele><time>2026-04-11T07:59:04.447Z</time></trkpt><trkpt lat="44.77338" lon="7.8099417"><ele>307.2857142857143</ele><time>2026-04-11T07:59:05.447Z</time></trkpt><trkpt lat="44.77335" lon="7.8100233"><ele>307.57142857142856</ele><time>2026-04-11T07:59:06.447Z</time></trkpt><trkpt lat="44.7733167" lon="7.8101033"><ele>307.8571428571429</ele><time>2026-04-11T07:59:07.447Z</time></trkpt><trkpt lat="44.773285" lon="7.8101817"><ele>308.1428571428571</ele><time>2026-04-11T07:59:08.447Z</time></trkpt><trkpt lat="44.7732417" lon="7.8103383"><ele>308.42857142857144</ele><time>2026-04-11T07:59:10.447Z</time></trkpt><trkpt lat="44.77321" lon="7.81042"><ele>308.7142857142857</ele><time>2026-04-11T07:59:11.447Z</time></trkpt><trkpt lat="44.7731883" lon="7.8105033"><ele>309.0</ele><time>2026-04-11T07:59:12.447Z</time></trkpt><trkpt lat="44.773145" lon="7.81058"><ele>309.0</ele><time>2026-04-11T07:59:13.447Z</time></trkpt><trkpt lat="44.773105" lon="7.81066"><ele>309.0</ele><time>2026-04-11T07:59:14.447Z</time></trkpt><trkpt lat="44.77307" lon="7.8107433"><ele>309.0</ele><time>2026-04-11T07:59:15.447Z</time></trkpt><trkpt lat="44.7730433" lon="7.810825"><ele>309.0</ele><time>2026-04-11T07:59:16.447Z</time></trkpt><trkpt lat="44.772995" lon="7.810985"><ele>309.0</ele><time>2026-04-11T07:59:18.448Z</time></trkpt><trkpt lat="44.77296" lon="7.8110667"><ele>309.0</ele><time>2026-04-11T07:59:19.447Z</time></trkpt><trkpt lat="44.7729317" lon="7.8111533"><ele>308.8333333333333</ele><time>2026-04-11T07:59:20.447Z</time></trkpt><trkpt lat="44.772905" lon="7.8112383"><ele>308.6666666666667</ele><time>2026-04-11T07:59:21.447Z</time></trkpt><trkpt lat="44.7728783" lon="7.8113217"><ele>308.5</ele><time>2026-04-11T07:59:22.447Z</time></trkpt><trkpt lat="44.772835" lon="7.81147"><ele>308.33333333333337</ele><time>2026-04-11T07:59:24.447Z</time></trkpt><trkpt lat="44.772785" lon="7.8116267"><ele>308.1666666666667</ele><time>2026-04-11T07:59:26.447Z</time></trkpt><trkpt lat="44.77276" lon="7.8117133"><ele>308.0</ele><time>2026-04-11T07:59:27.447Z</time></trkpt><trkpt lat="44.7727017" lon="7.8118683"><ele>308.33333333333337</ele><time>2026-04-11T07:59:29.447Z</time></trkpt><trkpt lat="44.7726117" lon="7.8119917"><ele>308.6666666666667</ele><time>2026-04-11T07:59:31.447Z</time></trkpt><trkpt lat="44.772565" lon="7.8120517"><ele>309.0</ele><time>2026-04-11T07:59:32.447Z</time></trkpt><trkpt lat="44.7725067" lon="7.8121183"><ele>309.3333333333333</ele><time>2026-04-11T07:59:33.447Z</time></trkpt><trkpt lat="44.7724467" lon="7.8121717"><ele>309.66666666666663</ele><time>2026-04-11T07:59:34.447Z</time></trkpt><trkpt lat="44.772395" lon="7.812225"><ele>310.0</ele><time>2026-04-11T07:59:35.447Z</time></trkpt><trkpt lat="44.7722933" lon="7.8123267"><ele>310.0</ele><time>2026-04-11T07:59:37.447Z</time></trkpt><trkpt lat="44.7722367" lon="7.8123783"><ele>310.0</ele><time>2026-04-11T07:59:38.447Z</time></trkpt><trkpt lat="44.772175" lon="7.8124333"><ele>310.0</ele><time>2026-04-11T07:59:39.447Z</time></trkpt><trkpt lat="44.77213" lon="7.8124967"><ele>310.0</ele><time>2026-04-11T07:59:40.447Z</time></trkpt><trkpt lat="44.7720833" lon="7.8125567"><ele>310.0</ele><time>2026-04-11T07:59:41.447Z</time></trkpt><trkpt lat="44.7720283" lon="7.8126167"><ele>310.0</ele><time>2026-04-11T07:59:42.447Z</time></trkpt><trkpt lat="44.7719733" lon="7.812675"><ele>310.0</ele><time>2026-04-11T07:59:43.447Z</time></trkpt><trkpt lat="44.771925" lon="7.81274"><ele>310.14285714285717</ele><time>2026-04-11T07:59:44.447Z</time></trkpt><trkpt lat="44.7718783" lon="7.8128183"><ele>310.2857142857143</ele><time>2026-04-11T07:59:45.447Z</time></trkpt><trkpt lat="44.7718383" lon="7.8129017"><ele>310.42857142857144</ele><time>2026-04-11T07:59:46.447Z</time></trkpt><trkpt lat="44.7718083" lon="7.8129933"><ele>310.57142857142856</ele><time>2026-04-11T07:59:47.447Z</time></trkpt><trkpt lat="44.7717867" lon="7.813095"><ele>310.7142857142857</ele><time>2026-04-11T07:59:48.447Z</time></trkpt><trkpt lat="44.77177" lon="7.8132"><ele>310.85714285714283</ele><time>2026-04-11T07:59:49.447Z</time></trkpt><trkpt lat="44.7717383" lon="7.813305"><ele>311.0</ele><time>2026-04-11T07:59:50.447Z</time></trkpt><trkpt lat="44.7717167" lon="7.813415"><ele>311.2857142857143</ele><time>2026-04-11T07:59:51.447Z</time></trkpt><trkpt lat="44.7716933" lon="7.8135283"><ele>311.5714285714286</ele><time>2026-04-11T07:59:52.447Z</time></trkpt><trkpt lat="44.7716783" lon="7.8136367"><ele>311.8571428571429</ele><time>2026-04-11T07:59:53.447Z</time></trkpt><trkpt lat="44.771665" lon="7.813735"><ele>312.1428571428571</ele><time>2026-04-11T07:59:54.447Z</time></trkpt><trkpt lat="44.7716633" lon="7.8138317"><ele>312.42857142857144</ele><time>2026-04-11T07:59:55.447Z</time></trkpt><trkpt lat="44.77167" lon="7.8139317"><ele>312.7142857142857</ele><time>2026-04-11T07:59:56.447Z</time></trkpt><trkpt lat="44.7716833" lon="7.8140367"><ele>313.0</ele><time>2026-04-11T07:59:57.447Z</time></trkpt><trkpt lat="44.77171" lon="7.814135"><ele>313.0</ele><time>2026-04-11T07:59:58.447Z</time></trkpt><trkpt lat="44.77174" lon="7.81423"><ele>313.0</ele><time>2026-04-11T07:59:59.448Z</time></trkpt><trkpt lat="44.7717717" lon="7.81432"><ele>313.0</ele><time>2026-04-11T08:00:00.447Z</time></trkpt><trkpt lat="44.7718017" lon="7.8144117"><ele>313.0</ele><time>2026-04-11T08:00:01.447Z</time></trkpt><trkpt lat="44.7718233" lon="7.8145067"><ele>313.0</ele><time>2026-04-11T08:00:02.447Z</time></trkpt><trkpt lat="44.771845" lon="7.8145983"><ele>313.0</ele><time>2026-04-11T08:00:03.447Z</time></trkpt><trkpt lat="44.7718533" lon="7.8146933"><ele>313.0</ele><time>2026-04-11T08:00:04.447Z</time></trkpt><trkpt lat="44.771855" lon="7.814785"><ele>313.2</ele><time>2026-04-11T08:00:05.447Z</time></trkpt><trkpt lat="44.7718533" lon="7.814875"><ele>313.4</ele><time>2026-04-11T08:00:06.447Z</time></trkpt><trkpt lat="44.7718383" lon="7.8149617"><ele>313.59999999999997</ele><time>2026-04-11T08:00:07.447Z</time></trkpt><trkpt lat="44.7717783" lon="7.815095"><ele>313.8</ele><time>2026-04-11T08:00:09.447Z</time></trkpt><trkpt lat="44.7716983" lon="7.8152"><ele>314.0</ele><time>2026-04-11T08:00:11.447Z</time></trkpt><trkpt lat="44.7716067" lon="7.8152783"><ele>314.25</ele><time>2026-04-11T08:00:13.447Z</time></trkpt><trkpt lat="44.7715167" lon="7.81537"><ele>314.5</ele><time>2026-04-11T08:00:15.447Z</time></trkpt><trkpt lat="44.7714183" lon="7.8154733"><ele>314.75</ele><time>2026-04-11T08:00:17.447Z</time></trkpt><trkpt lat="44.77132" lon="7.815565"><ele>315.0</ele><time>2026-04-11T08:00:19.447Z</time></trkpt><trkpt lat="44.77122" lon="7.8156683"><ele>315.0</ele><time>2026-04-11T08:00:21.447Z</time></trkpt><trkpt lat="44.7711667" lon="7.8157217"><ele>315.0</ele><time>2026-04-11T08:00:22.447Z</time></trkpt><trkpt lat="44.7711083" lon="7.815775"><ele>315.0</ele><time>2026-04-11T08:00:23.447Z</time></trkpt><trkpt lat="44.7710433" lon="7.8158333"><ele>315.0</ele><time>2026-04-11T08:00:24.447Z</time></trkpt><trkpt lat="44.7709933" lon="7.8158983"><ele>315.0</ele><time>2026-04-11T08:00:25.447Z</time></trkpt><trkpt lat="44.7709533" lon="7.8159733"><ele>315.0</ele><time>2026-04-11T08:00:26.447Z</time></trkpt><trkpt lat="44.770915" lon="7.8160583"><ele>315.0</ele><time>2026-04-11T08:00:27.447Z</time></trkpt><trkpt lat="44.7708983" lon="7.81616"><ele>315.3333333333333</ele><time>2026-04-11T08:00:28.447Z</time></trkpt><trkpt lat="44.7708917" lon="7.8162667"><ele>315.6666666666667</ele><time>2026-04-11T08:00:29.447Z</time></trkpt><trkpt lat="44.7708967" lon="7.8163767"><ele>316.0</ele><time>2026-04-11T08:00:30.447Z</time></trkpt><trkpt lat="44.7709133" lon="7.8164767"><ele>316.33333333333337</ele><time>2026-04-11T08:00:31.447Z</time></trkpt><trkpt lat="44.7709333" lon="7.8165833"><ele>316.6666666666667</ele><time>2026-04-11T08:00:32.447Z</time></trkpt><trkpt lat="44.7709633" lon="7.816685"><ele>317.0</ele><time>2026-04-11T08:00:33.447Z</time></trkpt><trkpt lat="44.7709983" lon="7.8167867"><ele>316.5</ele><time>2026-04-11T08:00:34.447Z</time></trkpt><trkpt lat="44.7710283" lon="7.81688"><ele>316.0</ele><time>2026-04-11T08:00:35.447Z</time></trkpt><trkpt lat="44.7710667" lon="7.8169717"><ele>315.5</ele><time>2026-04-11T08:00:36.447Z</time></trkpt><trkpt lat="44.771105" lon="7.817065"><ele>315.0</ele><time>2026-04-11T08:00:37.447Z</time></trkpt><trkpt lat="44.7711433" lon="7.8171567"><ele>314.5</ele><time>2026-04-11T08:00:38.447Z</time></trkpt><trkpt lat="44.7711833" lon="7.8172467"><ele>314.0</ele><time>2026-04-11T08:00:39.447Z</time></trkpt><trkpt lat="44.7712233" lon="7.8173417"><ele>313.99999999999994</ele><time>2026-04-11T08:00:40.447Z</time></trkpt><trkpt lat="44.771265" lon="7.817425"><ele>314.0</ele><time>2026-04-11T08:00:41.447Z</time></trkpt><trkpt lat="44.7713083" lon="7.8175133"><ele>314.0</ele><time>2026-04-11T08:00:42.447Z</time></trkpt><trkpt lat="44.7713483" lon="7.8176"><ele>314.0</ele><time>2026-04-11T08:00:43.447Z</time></trkpt><trkpt lat="44.7713883" lon="7.8176883"><ele>314.0</ele><time>2026-04-11T08:00:44.447Z</time></trkpt><trkpt lat="44.7714233" lon="7.8177717"><ele>313.99999999999994</ele><time>2026-04-11T08:00:45.447Z</time></trkpt><trkpt lat="44.7714617" lon="7.817855"><ele>314.0</ele><time>2026-04-11T08:00:46.447Z</time></trkpt><trkpt lat="44.7715033" lon="7.8179383"><ele>314.2857142857143</ele><time>2026-04-11T08:00:47.447Z</time></trkpt><trkpt lat="44.7715433" lon="7.8180233"><ele>314.57142857142856</ele><time>2026-04-11T08:00:48.447Z</time></trkpt><trkpt lat="44.77158" lon="7.818115"><ele>314.8571428571429</ele><time>2026-04-11T08:00:49.447Z</time></trkpt><trkpt lat="44.7716067" lon="7.81821"><ele>315.1428571428571</ele><time>2026-04-11T08:00:50.447Z</time></trkpt><trkpt lat="44.7716317" lon="7.8183083"><ele>315.42857142857144</ele><time>2026-04-11T08:00:51.447Z</time></trkpt><trkpt lat="44.7716517" lon="7.8184033"><ele>315.7142857142857</ele><time>2026-04-11T08:00:52.447Z</time></trkpt><trkpt lat="44.7716733" lon="7.8184983"><ele>316.0</ele><time>2026-04-11T08:00:53.447Z</time></trkpt><trkpt lat="44.7716983" lon="7.8185967"><ele>316.28571428571433</ele><time>2026-04-11T08:00:54.447Z</time></trkpt><trkpt lat="44.7717183" lon="7.81869"><ele>316.57142857142856</ele><time>2026-04-11T08:00:55.447Z</time></trkpt><trkpt lat="44.7717417" lon="7.81878"><ele>316.8571428571429</ele><time>2026-04-11T08:00:56.447Z</time></trkpt><trkpt lat="44.7717617" lon="7.818875"><ele>317.14285714285717</ele><time>2026-04-11T08:00:57.447Z</time></trkpt><trkpt lat="44.77178" lon="7.8189767"><ele>317.42857142857144</ele><time>2026-04-11T08:00:58.447Z</time></trkpt><trkpt lat="44.7717967" lon="7.8190783"><ele>317.7142857142857</ele><time>2026-04-11T08:00:59.447Z</time></trkpt><trkpt lat="44.771815" lon="7.8191683"><ele>318.0</ele><time>2026-04-11T08:01:00.447Z</time></trkpt><trkpt lat="44.7718317" lon="7.8192717"><ele>318.4285714285714</ele><time>2026-04-11T08:01:01.447Z</time></trkpt><trkpt lat="44.77185" lon="7.8193633"><ele>318.8571428571429</ele><time>2026-04-11T08:01:02.447Z</time></trkpt><trkpt lat="44.7718683" lon="7.8194533"><ele>319.2857142857143</ele><time>2026-04-11T08:01:03.447Z</time></trkpt><trkpt lat="44.771885" lon="7.81955"><ele>319.71428571428567</ele><time>2026-04-11T08:01:04.447Z</time></trkpt><trkpt lat="44.7719017" lon="7.8196433"><ele>320.1428571428571</ele><time>2026-04-11T08:01:05.447Z</time></trkpt><trkpt lat="44.7719233" lon="7.8197333"><ele>320.57142857142856</ele><time>2026-04-11T08:01:06.447Z</time></trkpt><trkpt lat="44.771945" lon="7.8198217"><ele>321.0</ele><time>2026-04-11T08:01:07.447Z</time></trkpt><trkpt lat="44.7719683" lon="7.81991"><ele>321.1428571428571</ele><time>2026-04-11T08:01:08.447Z</time></trkpt><trkpt lat="44.77199" lon="7.8200017"><ele>321.2857142857143</ele><time>2026-04-11T08:01:09.447Z</time></trkpt><trkpt lat="44.7720067" lon="7.8201017"><ele>321.42857142857144</ele><time>2026-04-11T08:01:10.447Z</time></trkpt><trkpt lat="44.7720233" lon="7.8201967"><ele>321.57142857142856</ele><time>2026-04-11T08:01:11.447Z</time></trkpt><trkpt lat="44.7720367" lon="7.8202933"><ele>321.7142857142857</ele><time>2026-04-11T08:01:12.447Z</time></trkpt><trkpt lat="44.7720367" lon="7.820385"><ele>321.85714285714283</ele><time>2026-04-11T08:01:13.447Z</time></trkpt><trkpt lat="44.7720217" lon="7.82048"><ele>322.0</ele><time>2026-04-11T08:01:14.447Z</time></trkpt><trkpt lat="44.7719367" lon="7.8206017"><ele>322.0</ele><time>2026-04-11T08:01:16.447Z</time></trkpt><trkpt lat="44.7718233" lon="7.8206683"><ele>322.0</ele><time>2026-04-11T08:01:18.447Z</time></trkpt><trkpt lat="44.7717617" lon="7.8207017"><ele>322.0</ele><time>2026-04-11T08:01:19.447Z</time></trkpt><trkpt lat="44.7716567" lon="7.820785"><ele>322.0</ele><time>2026-04-11T08:01:21.447Z</time></trkpt><trkpt lat="44.771605" lon="7.8208433"><ele>322.0</ele><time>2026-04-11T08:01:22.447Z</time></trkpt><trkpt lat="44.7715633" lon="7.82091"><ele>322.0</ele><time>2026-04-11T08:01:23.447Z</time></trkpt><trkpt lat="44.77152" lon="7.8209833"><ele>322.0</ele><time>2026-04-11T08:01:24.447Z</time></trkpt><trkpt lat="44.771505" lon="7.8211383"><ele>322.0</ele><time>2026-04-11T08:01:26.447Z</time></trkpt><trkpt lat="44.77152" lon="7.8212867"><ele>322.0</ele><time>2026-04-11T08:01:28.447Z</time></trkpt><trkpt lat="44.7715433" lon="7.82144"><ele>322.0</ele><time>2026-04-11T08:01:30.447Z</time></trkpt><trkpt lat="44.771555" lon="7.821565"><ele>322.0</ele><time>2026-04-11T08:01:32.447Z</time></trkpt><trkpt lat="44.7715683" lon="7.8216517"><ele>322.0</ele><time>2026-04-11T08:01:33.447Z</time></trkpt><trkpt lat="44.7715883" lon="7.8217483"><ele>322.0</ele><time>2026-04-11T08:01:34.447Z</time></trkpt><trkpt lat="44.7716033" lon="7.8218433"><ele>322.0</ele><time>2026-04-11T08:01:35.447Z</time></trkpt><trkpt lat="44.7716133" lon="7.8219383"><ele>322.0</ele><time>2026-04-11T08:01:36.447Z</time></trkpt><trkpt lat="44.7716317" lon="7.8221167"><ele>322.0</ele><time>2026-04-11T08:01:38.447Z</time></trkpt><trkpt lat="44.7716383" lon="7.8222117"><ele>322.0</ele><time>2026-04-11T08:01:39.447Z</time></trkpt><trkpt lat="44.7716483" lon="7.822385"><ele>321.8333333333333</ele><time>2026-04-11T08:01:41.447Z</time></trkpt><trkpt lat="44.7716583" lon="7.8224783"><ele>321.66666666666663</ele><time>2026-04-11T08:01:42.447Z</time></trkpt><trkpt lat="44.7716733" lon="7.82258"><ele>321.5</ele><time>2026-04-11T08:01:43.447Z</time></trkpt><trkpt lat="44.7716867" lon="7.8227133"><ele>321.3333333333333</ele><time>2026-04-11T08:01:44.447Z</time></trkpt><trkpt lat="44.7716983" lon="7.8228367"><ele>321.1666666666667</ele><time>2026-04-11T08:01:45.448Z</time></trkpt><trkpt lat="44.771705" lon="7.8229417"><ele>321.0</ele><time>2026-04-11T08:01:46.447Z</time></trkpt><trkpt lat="44.7717033" lon="7.8230433"><ele>321.3333333333333</ele><time>2026-04-11T08:01:47.447Z</time></trkpt><trkpt lat="44.7717017" lon="7.8231567"><ele>321.6666666666667</ele><time>2026-04-11T08:01:48.447Z</time></trkpt><trkpt lat="44.7717017" lon="7.8232583"><ele>322.0</ele><time>2026-04-11T08:01:49.447Z</time></trkpt><trkpt lat="44.77169" lon="7.8233633"><ele>322.33333333333337</ele><time>2026-04-11T08:01:50.447Z</time></trkpt><trkpt lat="44.771675" lon="7.8234533"><ele>322.6666666666667</ele><time>2026-04-11T08:01:51.447Z</time></trkpt><trkpt lat="44.7716567" lon="7.82354"><ele>323.0</ele><time>2026-04-11T08:01:52.447Z</time></trkpt><trkpt lat="44.7716183" lon="7.82371"><ele>323.0</ele><time>2026-04-11T08:01:54.447Z</time></trkpt><trkpt lat="44.7716017" lon="7.8237967"><ele>323.0</ele><time>2026-04-11T08:01:55.447Z</time></trkpt><trkpt lat="44.7715867" lon="7.8238833"><ele>323.0</ele><time>2026-04-11T08:01:56.447Z</time></trkpt><trkpt lat="44.771545" lon="7.82406"><ele>323.0</ele><time>2026-04-11T08:01:58.447Z</time></trkpt><trkpt lat="44.77152" lon="7.8241467"><ele>323.0</ele><time>2026-04-11T08:01:59.447Z</time></trkpt><trkpt lat="44.7714933" lon="7.8242333"><ele>323.0</ele><time>2026-04-11T08:02:00.447Z</time></trkpt><trkpt lat="44.7714667" lon="7.8243217"><ele>322.8571428571429</ele><time>2026-04-11T08:02:01.447Z</time></trkpt><trkpt lat="44.7714367" lon="7.8244167"><ele>322.7142857142857</ele><time>2026-04-11T08:02:02.447Z</time></trkpt><trkpt lat="44.7714017" lon="7.824515"><ele>322.57142857142856</ele><time>2026-04-11T08:02:03.447Z</time></trkpt><trkpt lat="44.7713667" lon="7.824605"><ele>322.42857142857144</ele><time>2026-04-11T08:02:04.447Z</time></trkpt><trkpt lat="44.7713283" lon="7.8246883"><ele>322.2857142857143</ele><time>2026-04-11T08:02:05.447Z</time></trkpt><trkpt lat="44.7712933" lon="7.824775"><ele>322.14285714285717</ele><time>2026-04-11T08:02:06.447Z</time></trkpt><trkpt lat="44.7712567" lon="7.824865"><ele>322.0</ele><time>2026-04-11T08:02:07.447Z</time></trkpt><trkpt lat="44.771215" lon="7.824955"><ele>322.0</ele><time>2026-04-11T08:02:08.447Z</time></trkpt><trkpt lat="44.7711717" lon="7.8250367"><ele>322.0</ele><time>2026-04-11T08:02:09.447Z</time></trkpt><trkpt lat="44.7711283" lon="7.82511"><ele>322.0</ele><time>2026-04-11T08:02:10.447Z</time></trkpt><trkpt lat="44.7710883" lon="7.8251883"><ele>322.0</ele><time>2026-04-11T08:02:11.447Z</time></trkpt><trkpt lat="44.77105" lon="7.8252617"><ele>322.0</ele><time>2026-04-11T08:02:12.447Z</time></trkpt><trkpt lat="44.771015" lon="7.82534"><ele>322.0</ele><time>2026-04-11T08:02:13.447Z</time></trkpt><trkpt lat="44.7709833" lon="7.8254267"><ele>322.0</ele><time>2026-04-11T08:02:14.447Z</time></trkpt><trkpt lat="44.770955" lon="7.82551"><ele>322.66666666666663</ele><time>2026-04-11T08:02:15.447Z</time></trkpt><trkpt lat="44.7709267" lon="7.825595"><ele>323.3333333333333</ele><time>2026-04-11T08:02:16.447Z</time></trkpt><trkpt lat="44.7708933" lon="7.8256717"><ele>324.0</ele><time>2026-04-11T08:02:17.447Z</time></trkpt><trkpt lat="44.77081" lon="7.8258"><ele>324.6666666666667</ele><time>2026-04-11T08:02:19.447Z</time></trkpt><trkpt lat="44.7707033" lon="7.825895"><ele>325.33333333333337</ele><time>2026-04-11T08:02:21.447Z</time></trkpt><trkpt lat="44.77064" lon="7.8259267"><ele>326.0</ele><time>2026-04-11T08:02:22.447Z</time></trkpt><trkpt lat="44.7705683" lon="7.8259417"><ele>326.0</ele><time>2026-04-11T08:02:23.447Z</time></trkpt><trkpt lat="44.7704967" lon="7.8259567"><ele>326.0</ele><time>2026-04-11T08:02:24.447Z</time></trkpt><trkpt lat="44.7704267" lon="7.8259667"><ele>326.0</ele><time>2026-04-11T08:02:25.447Z</time></trkpt><trkpt lat="44.7703633" lon="7.82598"><ele>326.0</ele><time>2026-04-11T08:02:26.447Z</time></trkpt><trkpt lat="44.7702983" lon="7.82599"><ele>326.0</ele><time>2026-04-11T08:02:27.447Z</time></trkpt><trkpt lat="44.770235" lon="7.8260033"><ele>326.0</ele><time>2026-04-11T08:02:28.447Z</time></trkpt><trkpt lat="44.77017" lon="7.8260167"><ele>326.0</ele><time>2026-04-11T08:02:29.447Z</time></trkpt><trkpt lat="44.770105" lon="7.8260283"><ele>326.5</ele><time>2026-04-11T08:02:30.447Z</time></trkpt><trkpt lat="44.7699733" lon="7.826055"><ele>327.0</ele><time>2026-04-11T08:02:32.447Z</time></trkpt><trkpt lat="44.7699083" lon="7.82607"><ele>327.5</ele><time>2026-04-11T08:02:33.447Z</time></trkpt><trkpt lat="44.7698417" lon="7.82608"><ele>328.0</ele><time>2026-04-11T08:02:34.447Z</time></trkpt><trkpt lat="44.7697717" lon="7.82609"><ele>328.5</ele><time>2026-04-11T08:02:35.447Z</time></trkpt><trkpt lat="44.7696967" lon="7.8261017"><ele>329.0</ele><time>2026-04-11T08:02:36.447Z</time></trkpt><trkpt lat="44.7696267" lon="7.8261133"><ele>329.0</ele><time>2026-04-11T08:02:37.447Z</time></trkpt><trkpt lat="44.7695567" lon="7.8261233"><ele>329.0</ele><time>2026-04-11T08:02:38.447Z</time></trkpt><trkpt lat="44.7694883" lon="7.8261317"><ele>329.0</ele><time>2026-04-11T08:02:39.447Z</time></trkpt><trkpt lat="44.7694133" lon="7.82615"><ele>329.0</ele><time>2026-04-11T08:02:40.447Z</time></trkpt><trkpt lat="44.7693383" lon="7.8261633"><ele>329.0</ele><time>2026-04-11T08:02:41.447Z</time></trkpt><trkpt lat="44.76926" lon="7.8261683"><ele>329.0</ele><time>2026-04-11T08:02:42.447Z</time></trkpt><trkpt lat="44.7691833" lon="7.82618"><ele>329.0</ele><time>2026-04-11T08:02:43.447Z</time></trkpt><trkpt lat="44.769115" lon="7.8262017"><ele>329.14285714285717</ele><time>2026-04-11T08:02:44.447Z</time></trkpt><trkpt lat="44.7690533" lon="7.8262367"><ele>329.2857142857143</ele><time>2026-04-11T08:02:45.447Z</time></trkpt><trkpt lat="44.7689917" lon="7.8262833"><ele>329.42857142857144</ele><time>2026-04-11T08:02:46.447Z</time></trkpt><trkpt lat="44.7689417" lon="7.82635"><ele>329.57142857142856</ele><time>2026-04-11T08:02:47.447Z</time></trkpt><trkpt lat="44.7689033" lon="7.8264267"><ele>329.7142857142857</ele><time>2026-04-11T08:02:48.448Z</time></trkpt><trkpt lat="44.7688817" lon="7.8265183"><ele>329.8571428571429</ele><time>2026-04-11T08:02:49.447Z</time></trkpt><trkpt lat="44.7688933" lon="7.8266067"><ele>330.0</ele><time>2026-04-11T08:02:50.447Z</time></trkpt><trkpt lat="44.7689217" lon="7.8266883"><ele>330.00000000000006</ele><time>2026-04-11T08:02:51.447Z</time></trkpt><trkpt lat="44.7689667" lon="7.8267667"><ele>330.0</ele><time>2026-04-11T08:02:52.447Z</time></trkpt><trkpt lat="44.769015" lon="7.8268433"><ele>330.0</ele><time>2026-04-11T08:02:53.447Z</time></trkpt><trkpt lat="44.769055" lon="7.8269267"><ele>330.0</ele><time>2026-04-11T08:02:54.447Z</time></trkpt><trkpt lat="44.769095" lon="7.8270067"><ele>330.0</ele><time>2026-04-11T08:02:55.447Z</time></trkpt><trkpt lat="44.769125" lon="7.8270917"><ele>330.00000000000006</ele><time>2026-04-11T08:02:56.447Z</time></trkpt><trkpt lat="44.7691533" lon="7.8271733"><ele>330.0</ele><time>2026-04-11T08:02:57.447Z</time></trkpt><trkpt lat="44.7691983" lon="7.8273183"><ele>330.0</ele><time>2026-04-11T08:02:59.447Z</time></trkpt><trkpt lat="44.76923" lon="7.8274683"><ele>330.0</ele><time>2026-04-11T08:03:01.447Z</time></trkpt><trkpt lat="44.7692533" lon="7.8276367"><ele>330.0</ele><time>2026-04-11T08:03:03.447Z</time></trkpt><trkpt lat="44.7692783" lon="7.8278117"><ele>330.0</ele><time>2026-04-11T08:03:05.447Z</time></trkpt><trkpt lat="44.769295" lon="7.8279133"><ele>330.0</ele><time>2026-04-11T08:03:06.447Z</time></trkpt><trkpt lat="44.7693083" lon="7.8280233"><ele>330.0</ele><time>2026-04-11T08:03:07.447Z</time></trkpt><trkpt lat="44.769325" lon="7.8281167"><ele>330.0</ele><time>2026-04-11T08:03:08.447Z</time></trkpt><trkpt lat="44.76934" lon="7.82821"><ele>330.0</ele><time>2026-04-11T08:03:09.447Z</time></trkpt><trkpt lat="44.769355" lon="7.8283017"><ele>330.0</ele><time>2026-04-11T08:03:10.447Z</time></trkpt><trkpt lat="44.76937" lon="7.828395"><ele>330.0</ele><time>2026-04-11T08:03:11.447Z</time></trkpt><trkpt lat="44.7694" lon="7.8285567"><ele>330.0</ele><time>2026-04-11T08:03:13.447Z</time></trkpt><trkpt lat="44.7694333" lon="7.8287333"><ele>329.6666666666667</ele><time>2026-04-11T08:03:15.447Z</time></trkpt><trkpt lat="44.7694517" lon="7.82883"><ele>329.3333333333333</ele><time>2026-04-11T08:03:16.447Z</time></trkpt><trkpt lat="44.7694667" lon="7.8289283"><ele>329.0</ele><time>2026-04-11T08:03:17.447Z</time></trkpt><trkpt lat="44.7694867" lon="7.8290367"><ele>328.66666666666663</ele><time>2026-04-11T08:03:18.447Z</time></trkpt><trkpt lat="44.7695017" lon="7.8291467"><ele>328.3333333333333</ele><time>2026-04-11T08:03:19.447Z</time></trkpt><trkpt lat="44.7695217" lon="7.82926"><ele>328.0</ele><time>2026-04-11T08:03:20.447Z</time></trkpt><trkpt lat="44.7695383" lon="7.8293683"><ele>328.0</ele><time>2026-04-11T08:03:21.448Z</time></trkpt><trkpt lat="44.7695517" lon="7.82948"><ele>328.0</ele><time>2026-04-11T08:03:22.447Z</time></trkpt><trkpt lat="44.7695683" lon="7.8295967"><ele>328.0</ele><time>2026-04-11T08:03:23.447Z</time></trkpt><trkpt lat="44.7695833" lon="7.829705"><ele>328.0</ele><time>2026-04-11T08:03:24.447Z</time></trkpt><trkpt lat="44.769595" lon="7.8298083"><ele>328.0</ele><time>2026-04-11T08:03:25.447Z</time></trkpt><trkpt lat="44.7696117" lon="7.8299167"><ele>328.0</ele><time>2026-04-11T08:03:26.447Z</time></trkpt><trkpt lat="44.769625" lon="7.8300183"><ele>327.99999999999994</ele><time>2026-04-11T08:03:27.447Z</time></trkpt><trkpt lat="44.7696383" lon="7.8301183"><ele>328.0</ele><time>2026-04-11T08:03:28.447Z</time></trkpt><trkpt lat="44.7696467" lon="7.8302117"><ele>328.0</ele><time>2026-04-11T08:03:29.447Z</time></trkpt><trkpt lat="44.7696483" lon="7.8303017"><ele>328.0</ele><time>2026-04-11T08:03:30.447Z</time></trkpt><trkpt lat="44.769645" lon="7.8304"><ele>328.0</ele><time>2026-04-11T08:03:31.447Z</time></trkpt><trkpt lat="44.7696267" lon="7.8305067"><ele>327.99999999999994</ele><time>2026-04-11T08:03:32.447Z</time></trkpt><trkpt lat="44.7695917" lon="7.8306067"><ele>328.0</ele><time>2026-04-11T08:03:33.448Z</time></trkpt><trkpt lat="44.76954" lon="7.830675"><ele>327.99999999999994</ele><time>2026-04-11T08:03:34.447Z</time></trkpt><trkpt lat="44.7694867" lon="7.8307283"><ele>328.0</ele><time>2026-04-11T08:03:35.447Z</time></trkpt><trkpt lat="44.769425" lon="7.83078"><ele>328.0</ele><time>2026-04-11T08:03:36.447Z</time></trkpt><trkpt lat="44.7693583" lon="7.830825"><ele>328.0</ele><time>2026-04-11T08:03:37.447Z</time></trkpt><trkpt lat="44.7692883" lon="7.83086"><ele>328.0</ele><time>2026-04-11T08:03:38.447Z</time></trkpt><trkpt lat="44.7692183" lon="7.8308933"><ele>327.99999999999994</ele><time>2026-04-11T08:03:39.447Z</time></trkpt><trkpt lat="44.76915" lon="7.8309317"><ele>328.0</ele><time>2026-04-11T08:03:40.447Z</time></trkpt><trkpt lat="44.7690817" lon="7.830975"><ele>328.16666666666663</ele><time>2026-04-11T08:03:41.447Z</time></trkpt><trkpt lat="44.76902" lon="7.8310167"><ele>328.3333333333333</ele><time>2026-04-11T08:03:42.447Z</time></trkpt><trkpt lat="44.7689567" lon="7.8310533"><ele>328.5</ele><time>2026-04-11T08:03:43.447Z</time></trkpt><trkpt lat="44.768895" lon="7.8310917"><ele>328.6666666666667</ele><time>2026-04-11T08:03:44.447Z</time></trkpt><trkpt lat="44.7688333" lon="7.8311267"><ele>328.83333333333337</ele><time>2026-04-11T08:03:45.447Z</time></trkpt><trkpt lat="44.768715" lon="7.8312017"><ele>329.0</ele><time>2026-04-11T08:03:47.447Z</time></trkpt><trkpt lat="44.768655" lon="7.8312417"><ele>329.0</ele><time>2026-04-11T08:03:48.447Z</time></trkpt><trkpt lat="44.7685917" lon="7.8312817"><ele>329.0</ele><time>2026-04-11T08:03:49.447Z</time></trkpt><trkpt lat="44.7685283" lon="7.8313217"><ele>329.0</ele><time>2026-04-11T08:03:50.447Z</time></trkpt><trkpt lat="44.7684667" lon="7.8313633"><ele>329.0</ele><time>2026-04-11T08:03:51.447Z</time></trkpt><trkpt lat="44.7684033" lon="7.831405"><ele>329.0</ele><time>2026-04-11T08:03:52.447Z</time></trkpt><trkpt lat="44.7683417" lon="7.8314483"><ele>329.0</ele><time>2026-04-11T08:03:53.447Z</time></trkpt><trkpt lat="44.76828" lon="7.8314917"><ele>329.0</ele><time>2026-04-11T08:03:54.447Z</time></trkpt><trkpt lat="44.7682217" lon="7.83154"><ele>329.2857142857143</ele><time>2026-04-11T08:03:55.447Z</time></trkpt><trkpt lat="44.76816" lon="7.8315933"><ele>329.57142857142856</ele><time>2026-04-11T08:03:56.447Z</time></trkpt><trkpt lat="44.7680883" lon="7.83164"><ele>329.8571428571429</ele><time>2026-04-11T08:03:57.447Z</time></trkpt><trkpt lat="44.7680233" lon="7.8316917"><ele>330.1428571428571</ele><time>2026-04-11T08:03:58.447Z</time></trkpt><trkpt lat="44.7679567" lon="7.8317467"><ele>330.42857142857144</ele><time>2026-04-11T08:03:59.447Z</time></trkpt><trkpt lat="44.7679033" lon="7.83181"><ele>330.7142857142857</ele><time>2026-04-11T08:04:00.447Z</time></trkpt><trkpt lat="44.7678533" lon="7.8318717"><ele>331.0</ele><time>2026-04-11T08:04:01.447Z</time></trkpt><trkpt lat="44.76781" lon="7.8319367"><ele>331.0</ele><time>2026-04-11T08:04:02.447Z</time></trkpt><trkpt lat="44.7677633" lon="7.8320017"><ele>331.0</ele><time>2026-04-11T08:04:03.447Z</time></trkpt><trkpt lat="44.7677183" lon="7.8320683"><ele>331.0</ele><time>2026-04-11T08:04:04.447Z</time></trkpt><trkpt lat="44.767675" lon="7.8321367"><ele>331.0</ele><time>2026-04-11T08:04:05.447Z</time></trkpt><trkpt lat="44.7676283" lon="7.8322083"><ele>331.0</ele><time>2026-04-11T08:04:06.447Z</time></trkpt><trkpt lat="44.767585" lon="7.83228"><ele>331.0</ele><time>2026-04-11T08:04:07.447Z</time></trkpt><trkpt lat="44.7675367" lon="7.832355"><ele>331.0</ele><time>2026-04-11T08:04:08.447Z</time></trkpt><trkpt lat="44.7674883" lon="7.8324233"><ele>331.2857142857143</ele><time>2026-04-11T08:04:09.447Z</time></trkpt><trkpt lat="44.76744" lon="7.832495"><ele>331.57142857142856</ele><time>2026-04-11T08:04:10.447Z</time></trkpt><trkpt lat="44.7673967" lon="7.8325667"><ele>331.8571428571429</ele><time>2026-04-11T08:04:11.448Z</time></trkpt><trkpt lat="44.76735" lon="7.832645"><ele>332.1428571428571</ele><time>2026-04-11T08:04:12.447Z</time></trkpt><trkpt lat="44.767305" lon="7.832735"><ele>332.4285714285714</ele><time>2026-04-11T08:04:13.447Z</time></trkpt><trkpt lat="44.7672633" lon="7.8328217"><ele>332.7142857142857</ele><time>2026-04-11T08:04:14.447Z</time></trkpt><trkpt lat="44.7672317" lon="7.8329183"><ele>333.0</ele><time>2026-04-11T08:04:15.447Z</time></trkpt><trkpt lat="44.7672217" lon="7.8330167"><ele>333.1666666666667</ele><time>2026-04-11T08:04:16.447Z</time></trkpt><trkpt lat="44.7672233" lon="7.8331167"><ele>333.3333333333333</ele><time>2026-04-11T08:04:17.448Z</time></trkpt><trkpt lat="44.7672317" lon="7.8332217"><ele>333.5</ele><time>2026-04-11T08:04:18.447Z</time></trkpt><trkpt lat="44.7672417" lon="7.8333283"><ele>333.66666666666663</ele><time>2026-04-11T08:04:19.447Z</time></trkpt><trkpt lat="44.7672567" lon="7.8334367"><ele>333.8333333333333</ele><time>2026-04-11T08:04:20.447Z</time></trkpt><trkpt lat="44.7672683" lon="7.8335383"><ele>334.0</ele><time>2026-04-11T08:04:21.447Z</time></trkpt><trkpt lat="44.767285" lon="7.8336483"><ele>334.5</ele><time>2026-04-11T08:04:22.448Z</time></trkpt><trkpt lat="44.7673" lon="7.8337633"><ele>335.0</ele><time>2026-04-11T08:04:23.447Z</time></trkpt><trkpt lat="44.7673033" lon="7.8338717"><ele>335.5</ele><time>2026-04-11T08:04:24.447Z</time></trkpt><trkpt lat="44.7673" lon="7.8339817"><ele>336.0</ele><time>2026-04-11T08:04:25.447Z</time></trkpt><trkpt lat="44.7672967" lon="7.834085"><ele>336.5</ele><time>2026-04-11T08:04:26.447Z</time></trkpt><trkpt lat="44.76729" lon="7.83419"><ele>337.0</ele><time>2026-04-11T08:04:27.447Z</time></trkpt><trkpt lat="44.767285" lon="7.83429"><ele>337.0</ele><time>2026-04-11T08:04:28.448Z</time></trkpt><trkpt lat="44.767275" lon="7.8343867"><ele>337.0</ele><time>2026-04-11T08:04:29.447Z</time></trkpt><trkpt lat="44.76726" lon="7.83457"><ele>337.0</ele><time>2026-04-11T08:04:31.447Z</time></trkpt><trkpt lat="44.767255" lon="7.83467"><ele>337.0</ele><time>2026-04-11T08:04:32.447Z</time></trkpt><trkpt lat="44.7672483" lon="7.8347667"><ele>337.0</ele><time>2026-04-11T08:04:33.447Z</time></trkpt><trkpt lat="44.7672433" lon="7.834865"><ele>337.0</ele><time>2026-04-11T08:04:34.447Z</time></trkpt><trkpt lat="44.7672383" lon="7.834955"><ele>337.00000000000006</ele><time>2026-04-11T08:04:35.447Z</time></trkpt><trkpt lat="44.7672367" lon="7.8350483"><ele>337.0</ele><time>2026-04-11T08:04:36.447Z</time></trkpt><trkpt lat="44.767235" lon="7.835145"><ele>337.0</ele><time>2026-04-11T08:04:37.447Z</time></trkpt><trkpt lat="44.767225" lon="7.8352383"><ele>337.0</ele><time>2026-04-11T08:04:38.447Z</time></trkpt><trkpt lat="44.767215" lon="7.8353317"><ele>337.0</ele><time>2026-04-11T08:04:39.447Z</time></trkpt><trkpt lat="44.7671983" lon="7.83543"><ele>337.00000000000006</ele><time>2026-04-11T08:04:40.447Z</time></trkpt><trkpt lat="44.7671833" lon="7.8355233"><ele>337.0</ele><time>2026-04-11T08:04:41.447Z</time></trkpt><trkpt lat="44.7671683" lon="7.835615"><ele>337.00000000000006</ele><time>2026-04-11T08:04:42.447Z</time></trkpt><trkpt lat="44.76716" lon="7.8357083"><ele>337.0</ele><time>2026-04-11T08:04:43.447Z</time></trkpt><trkpt lat="44.767155" lon="7.8357967"><ele>337.0</ele><time>2026-04-11T08:04:44.447Z</time></trkpt><trkpt lat="44.7671467" lon="7.8359667"><ele>337.0</ele><time>2026-04-11T08:04:46.447Z</time></trkpt><trkpt lat="44.7671367" lon="7.8360567"><ele>337.0</ele><time>2026-04-11T08:04:47.447Z</time></trkpt><trkpt lat="44.7671267" lon="7.836145"><ele>337.00000000000006</ele><time>2026-04-11T08:04:48.447Z</time></trkpt><trkpt lat="44.7671217" lon="7.83624"><ele>337.0</ele><time>2026-04-11T08:04:49.447Z</time></trkpt><trkpt lat="44.767115" lon="7.836345"><ele>337.00000000000006</ele><time>2026-04-11T08:04:50.447Z</time></trkpt><trkpt lat="44.76711" lon="7.8364417"><ele>337.0</ele><time>2026-04-11T08:04:51.447Z</time></trkpt><trkpt lat="44.7671083" lon="7.836535"><ele>337.0</ele><time>2026-04-11T08:04:52.447Z</time></trkpt><trkpt lat="44.76711" lon="7.83663"><ele>337.0</ele><time>2026-04-11T08:04:53.447Z</time></trkpt><trkpt lat="44.7671167" lon="7.83673"><ele>337.0</ele><time>2026-04-11T08:04:54.447Z</time></trkpt><trkpt lat="44.7671267" lon="7.8368267"><ele>337.00000000000006</ele><time>2026-04-11T08:04:55.447Z</time></trkpt><trkpt lat="44.7671467" lon="7.8369217"><ele>337.0</ele><time>2026-04-11T08:04:56.448Z</time></trkpt><trkpt lat="44.7671683" lon="7.8370133"><ele>336.6</ele><time>2026-04-11T08:04:57.447Z</time></trkpt><trkpt lat="44.7672233" lon="7.83717"><ele>336.20000000000005</ele><time>2026-04-11T08:04:59.447Z</time></trkpt><trkpt lat="44.7672817" lon="7.8373033"><ele>335.8</ele><time>2026-04-11T08:05:01.447Z</time></trkpt><trkpt lat="44.7673433" lon="7.8374433"><ele>335.4</ele><time>2026-04-11T08:05:03.447Z</time></trkpt><trkpt lat="44.7673767" lon="7.8375317"><ele>335.0</ele><time>2026-04-11T08:05:04.447Z</time></trkpt><trkpt lat="44.7674167" lon="7.8376233"><ele>334.6</ele><time>2026-04-11T08:05:05.447Z</time></trkpt><trkpt lat="44.7674633" lon="7.83772"><ele>334.2</ele><time>2026-04-11T08:05:06.447Z</time></trkpt><trkpt lat="44.7675133" lon="7.8378217"><ele>333.79999999999995</ele><time>2026-04-11T08:05:07.447Z</time></trkpt><trkpt lat="44.767575" lon="7.83793"><ele>333.4</ele><time>2026-04-11T08:05:08.447Z</time></trkpt><trkpt lat="44.76764" lon="7.8380317"><ele>333.0</ele><time>2026-04-11T08:05:09.447Z</time></trkpt><trkpt lat="44.76771" lon="7.8381383"><ele>332.0</ele><time>2026-04-11T08:05:10.447Z</time></trkpt><trkpt lat="44.767785" lon="7.8382267"><ele>331.0</ele><time>2026-04-11T08:05:11.447Z</time></trkpt><trkpt lat="44.7678633" lon="7.8383117"><ele>330.0</ele><time>2026-04-11T08:05:12.446Z</time></trkpt><trkpt lat="44.7679417" lon="7.8383967"><ele>329.0</ele><time>2026-04-11T08:05:13.446Z</time></trkpt><trkpt lat="44.768025" lon="7.8384833"><ele>328.0</ele><time>2026-04-11T08:05:14.446Z</time></trkpt><trkpt lat="44.76811" lon="7.8385633"><ele>328.0</ele><time>2026-04-11T08:05:15.446Z</time></trkpt><trkpt lat="44.768195" lon="7.8386433"><ele>328.0</ele><time>2026-04-11T08:05:16.446Z</time></trkpt><trkpt lat="44.7682767" lon="7.83873"><ele>328.0</ele><time>2026-04-11T08:05:17.446Z</time></trkpt><trkpt lat="44.7683467" lon="7.8388117"><ele>328.0</ele><time>2026-04-11T08:05:18.446Z</time></trkpt><trkpt lat="44.768395" lon="7.8389133"><ele>328.0</ele><time>2026-04-11T08:05:19.446Z</time></trkpt><trkpt lat="44.7684383" lon="7.83903"><ele>328.0</ele><time>2026-04-11T08:05:20.446Z</time></trkpt><trkpt lat="44.7684533" lon="7.8391383"><ele>328.0</ele><time>2026-04-11T08:05:21.446Z</time></trkpt><trkpt lat="44.76846" lon="7.839255"><ele>328.0</ele><time>2026-04-11T08:05:22.446Z</time></trkpt><trkpt lat="44.768455" lon="7.83938"><ele>328.0</ele><time>2026-04-11T08:05:23.446Z</time></trkpt><trkpt lat="44.76843" lon="7.839495"><ele>328.0</ele><time>2026-04-11T08:05:24.447Z</time></trkpt><trkpt lat="44.7684133" lon="7.8396117"><ele>328.0</ele><time>2026-04-11T08:05:25.446Z</time></trkpt><trkpt lat="44.768395" lon="7.839715"><ele>328.66666666666663</ele><time>2026-04-11T08:05:26.446Z</time></trkpt><trkpt lat="44.7683783" lon="7.8398183"><ele>329.3333333333333</ele><time>2026-04-11T08:05:27.446Z</time></trkpt><trkpt lat="44.7683617" lon="7.8399183"><ele>330.0</ele><time>2026-04-11T08:05:28.446Z</time></trkpt><trkpt lat="44.76834" lon="7.8400183"><ele>330.6666666666667</ele><time>2026-04-11T08:05:29.446Z</time></trkpt><trkpt lat="44.7683083" lon="7.8401133"><ele>331.33333333333337</ele><time>2026-04-11T08:05:30.446Z</time></trkpt><trkpt lat="44.7682617" lon="7.840205"><ele>332.0</ele><time>2026-04-11T08:05:31.446Z</time></trkpt><trkpt lat="44.76821" lon="7.84029"><ele>332.5</ele><time>2026-04-11T08:05:32.446Z</time></trkpt><trkpt lat="44.7681567" lon="7.8403717"><ele>333.0</ele><time>2026-04-11T08:05:33.446Z</time></trkpt><trkpt lat="44.7681" lon="7.840455"><ele>333.5</ele><time>2026-04-11T08:05:34.446Z</time></trkpt><trkpt lat="44.7680483" lon="7.840535"><ele>334.0</ele><time>2026-04-11T08:05:35.446Z</time></trkpt><trkpt lat="44.7680017" lon="7.8406083"><ele>334.5</ele><time>2026-04-11T08:05:36.446Z</time></trkpt><trkpt lat="44.7679617" lon="7.8406817"><ele>335.0</ele><time>2026-04-11T08:05:37.446Z</time></trkpt><trkpt lat="44.7678967" lon="7.8408"><ele>335.0</ele><time>2026-04-11T08:05:39.446Z</time></trkpt><trkpt lat="44.7678367" lon="7.8409217"><ele>335.0</ele><time>2026-04-11T08:05:41.446Z</time></trkpt><trkpt lat="44.767825" lon="7.8410467"><ele>335.0</ele><time>2026-04-11T08:05:43.446Z</time></trkpt><trkpt lat="44.7677817" lon="7.8411833"><ele>335.0</ele><time>2026-04-11T08:05:45.446Z</time></trkpt><trkpt lat="44.7677517" lon="7.841275"><ele>335.0</ele><time>2026-04-11T08:05:47.446Z</time></trkpt><trkpt lat="44.767755" lon="7.8413667"><ele>335.0</ele><time>2026-04-11T08:05:49.446Z</time></trkpt><trkpt lat="44.7677233" lon="7.8414817"><ele>335.6</ele><time>2026-04-11T08:05:51.446Z</time></trkpt><trkpt lat="44.7677367" lon="7.8416217"><ele>336.2</ele><time>2026-04-11T08:05:53.446Z</time></trkpt><trkpt lat="44.76775" lon="7.8417483"><ele>336.79999999999995</ele><time>2026-04-11T08:05:55.446Z</time></trkpt><trkpt lat="44.76778" lon="7.8418667"><ele>337.4</ele><time>2026-04-11T08:05:57.446Z</time></trkpt><trkpt lat="44.7678383" lon="7.8420117"><ele>338.0</ele><time>2026-04-11T08:06:00.446Z</time></trkpt><trkpt lat="44.76788" lon="7.84217"><ele>338.0</ele><time>2026-04-11T08:06:02.446Z</time></trkpt><trkpt lat="44.7678917" lon="7.8422783"><ele>338.0</ele><time>2026-04-11T08:06:03.446Z</time></trkpt><trkpt lat="44.767915" lon="7.8424017"><ele>338.0</ele><time>2026-04-11T08:06:04.446Z</time></trkpt><trkpt lat="44.7679283" lon="7.8425283"><ele>338.0</ele><time>2026-04-11T08:06:05.447Z</time></trkpt><trkpt lat="44.76794" lon="7.8426983"><ele>338.0</ele><time>2026-04-11T08:06:06.446Z</time></trkpt><trkpt lat="44.76795" lon="7.8428933"><ele>338.14285714285717</ele><time>2026-04-11T08:06:07.446Z</time></trkpt><trkpt lat="44.7679417" lon="7.8430317"><ele>338.2857142857143</ele><time>2026-04-11T08:06:08.446Z</time></trkpt><trkpt lat="44.7679267" lon="7.84314"><ele>338.42857142857144</ele><time>2026-04-11T08:06:09.446Z</time></trkpt><trkpt lat="44.7679017" lon="7.8432317"><ele>338.57142857142856</ele><time>2026-04-11T08:06:10.446Z</time></trkpt><trkpt lat="44.7678567" lon="7.8433017"><ele>338.7142857142857</ele><time>2026-04-11T08:06:11.446Z</time></trkpt><trkpt lat="44.76781" lon="7.8433683"><ele>338.85714285714283</ele><time>2026-04-11T08:06:12.446Z</time></trkpt><trkpt lat="44.7677533" lon="7.843415"><ele>339.0</ele><time>2026-04-11T08:06:13.446Z</time></trkpt><trkpt lat="44.767655" lon="7.8434783"><ele>339.4</ele><time>2026-04-11T08:06:15.446Z</time></trkpt><trkpt lat="44.767575" lon="7.84356"><ele>339.79999999999995</ele><time>2026-04-11T08:06:17.446Z</time></trkpt><trkpt lat="44.7674917" lon="7.843625"><ele>340.20000000000005</ele><time>2026-04-11T08:06:19.446Z</time></trkpt><trkpt lat="44.7674067" lon="7.84371"><ele>340.6</ele><time>2026-04-11T08:06:21.446Z</time></trkpt><trkpt lat="44.7673167" lon="7.8437917"><ele>341.0</ele><time>2026-04-11T08:06:23.446Z</time></trkpt><trkpt lat="44.7672217" lon="7.8438817"><ele>341.0</ele><time>2026-04-11T08:06:25.447Z</time></trkpt><trkpt lat="44.7671217" lon="7.8439733"><ele>341.0</ele><time>2026-04-11T08:06:27.446Z</time></trkpt><trkpt lat="44.7670217" lon="7.844065"><ele>341.0</ele><time>2026-04-11T08:06:29.446Z</time></trkpt><trkpt lat="44.7669267" lon="7.8441533"><ele>341.0</ele><time>2026-04-11T08:06:31.446Z</time></trkpt><trkpt lat="44.7668483" lon="7.8442483"><ele>341.6</ele><time>2026-04-11T08:06:33.446Z</time></trkpt><trkpt lat="44.766755" lon="7.8443417"><ele>342.20000000000005</ele><time>2026-04-11T08:06:35.446Z</time></trkpt><trkpt lat="44.766665" lon="7.84442"><ele>342.79999999999995</ele><time>2026-04-11T08:06:37.446Z</time></trkpt><trkpt lat="44.7665783" lon="7.8444967"><ele>343.4</ele><time>2026-04-11T08:06:39.446Z</time></trkpt><trkpt lat="44.7664883" lon="7.8445817"><ele>344.0</ele><time>2026-04-11T08:06:41.446Z</time></trkpt><trkpt lat="44.7663967" lon="7.84466"><ele>344.0</ele><time>2026-04-11T08:06:43.446Z</time></trkpt><trkpt lat="44.7663117" lon="7.8447517"><ele>344.0</ele><time>2026-04-11T08:06:45.446Z</time></trkpt><trkpt lat="44.7661967" lon="7.844865"><ele>344.0</ele><time>2026-04-11T08:06:47.446Z</time></trkpt><trkpt lat="44.7660967" lon="7.8449433"><ele>344.0</ele><time>2026-04-11T08:06:49.446Z</time></trkpt><trkpt lat="44.766" lon="7.8450283"><ele>344.6</ele><time>2026-04-11T08:06:51.446Z</time></trkpt><trkpt lat="44.765915" lon="7.8451067"><ele>345.2</ele><time>2026-04-11T08:06:53.446Z</time></trkpt><trkpt lat="44.76584" lon="7.845215"><ele>345.8</ele><time>2026-04-11T08:06:55.446Z</time></trkpt><trkpt lat="44.7658483" lon="7.845355"><ele>346.40000000000003</ele><time>2026-04-11T08:06:57.446Z</time></trkpt><trkpt lat="44.7658817" lon="7.8454383"><ele>347.0</ele><time>2026-04-11T08:06:58.446Z</time></trkpt><trkpt lat="44.7659467" lon="7.84558"><ele>346.8</ele><time>2026-04-11T08:07:00.446Z</time></trkpt><trkpt lat="44.766005" lon="7.845705"><ele>346.6</ele><time>2026-04-11T08:07:02.446Z</time></trkpt><trkpt lat="44.766075" lon="7.8458183"><ele>346.40000000000003</ele><time>2026-04-11T08:07:04.446Z</time></trkpt><trkpt lat="44.7661467" lon="7.8459217"><ele>346.20000000000005</ele><time>2026-04-11T08:07:06.446Z</time></trkpt><trkpt lat="44.7661967" lon="7.8460517"><ele>346.0</ele><time>2026-04-11T08:07:08.446Z</time></trkpt><trkpt lat="44.7662617" lon="7.8461433"><ele>346.0</ele><time>2026-04-11T08:07:10.446Z</time></trkpt><trkpt lat="44.76633" lon="7.84626"><ele>346.0</ele><time>2026-04-11T08:07:12.446Z</time></trkpt><trkpt lat="44.766405" lon="7.8464"><ele>346.0</ele><time>2026-04-11T08:07:14.446Z</time></trkpt><trkpt lat="44.76644" lon="7.846475"><ele>346.0</ele><time>2026-04-11T08:07:15.446Z</time></trkpt><trkpt lat="44.766475" lon="7.8465517"><ele>346.0</ele><time>2026-04-11T08:07:16.446Z</time></trkpt><trkpt lat="44.7665417" lon="7.846695"><ele>346.4</ele><time>2026-04-11T08:07:18.446Z</time></trkpt><trkpt lat="44.7666117" lon="7.8468367"><ele>346.8</ele><time>2026-04-11T08:07:20.446Z</time></trkpt><trkpt lat="44.7666833" lon="7.8469833"><ele>347.2</ele><time>2026-04-11T08:07:22.446Z</time></trkpt><trkpt lat="44.7667167" lon="7.84706"><ele>347.59999999999997</ele><time>2026-04-11T08:07:23.446Z</time></trkpt><trkpt lat="44.7667533" lon="7.8471333"><ele>348.0</ele><time>2026-04-11T08:07:24.446Z</time></trkpt><trkpt lat="44.7668267" lon="7.8472717"><ele>348.0</ele><time>2026-04-11T08:07:26.446Z</time></trkpt><trkpt lat="44.766855" lon="7.847355"><ele>348.0</ele><time>2026-04-11T08:07:27.446Z</time></trkpt><trkpt lat="44.766865" lon="7.8475133"><ele>348.0</ele><time>2026-04-11T08:07:29.447Z</time></trkpt><trkpt lat="44.7668167" lon="7.847625"><ele>348.0</ele><time>2026-04-11T08:07:31.446Z</time></trkpt><trkpt lat="44.7667433" lon="7.847715"><ele>348.0</ele><time>2026-04-11T08:07:33.446Z</time></trkpt><trkpt lat="44.766695" lon="7.8477883"><ele>348.0</ele><time>2026-04-11T08:07:35.446Z</time></trkpt><trkpt lat="44.76661" lon="7.847885"><ele>347.59999999999997</ele><time>2026-04-11T08:07:38.446Z</time></trkpt><trkpt lat="44.7665317" lon="7.8479633"><ele>347.2</ele><time>2026-04-11T08:07:40.446Z</time></trkpt><trkpt lat="44.76644" lon="7.8480283"><ele>346.8</ele><time>2026-04-11T08:07:42.446Z</time></trkpt><trkpt lat="44.7663083" lon="7.8481017"><ele>346.4</ele><time>2026-04-11T08:07:44.446Z</time></trkpt><trkpt lat="44.766245" lon="7.8481083"><ele>346.0</ele><time>2026-04-11T08:07:45.446Z</time></trkpt><trkpt lat="44.7661817" lon="7.8480967"><ele>346.0</ele><time>2026-04-11T08:07:46.446Z</time></trkpt><trkpt lat="44.7661183" lon="7.848075"><ele>346.0</ele><time>2026-04-11T08:07:47.446Z</time></trkpt><trkpt lat="44.766055" lon="7.84805"><ele>346.0</ele><time>2026-04-11T08:07:48.446Z</time></trkpt><trkpt lat="44.7659933" lon="7.8480267"><ele>346.0</ele><time>2026-04-11T08:07:49.446Z</time></trkpt><trkpt lat="44.765905" lon="7.8479883"><ele>346.0</ele><time>2026-04-11T08:07:51.446Z</time></trkpt><trkpt lat="44.7658417" lon="7.8479717"><ele>346.0</ele><time>2026-04-11T08:07:53.446Z</time></trkpt><trkpt lat="44.765785" lon="7.8480167"><ele>346.0</ele><time>2026-04-11T08:07:55.446Z</time></trkpt><trkpt lat="44.765715" lon="7.8480733"><ele>345.8</ele><time>2026-04-11T08:07:57.446Z</time></trkpt><trkpt lat="44.765635" lon="7.8481217"><ele>345.6</ele><time>2026-04-11T08:07:59.446Z</time></trkpt><trkpt lat="44.76557" lon="7.8482083"><ele>345.4</ele><time>2026-04-11T08:08:01.446Z</time></trkpt><trkpt lat="44.765495" lon="7.8482767"><ele>345.2</ele><time>2026-04-11T08:08:03.446Z</time></trkpt><trkpt lat="44.765405" lon="7.8483267"><ele>345.0</ele><time>2026-04-11T08:08:05.446Z</time></trkpt><trkpt lat="44.765315" lon="7.8484217"><ele>344.6</ele><time>2026-04-11T08:08:08.446Z</time></trkpt><trkpt lat="44.765295" lon="7.8485417"><ele>344.2</ele><time>2026-04-11T08:08:11.446Z</time></trkpt><trkpt lat="44.7653033" lon="7.84863"><ele>343.79999999999995</ele><time>2026-04-11T08:08:13.446Z</time></trkpt><trkpt lat="44.7653317" lon="7.8487667"><ele>343.4</ele><time>2026-04-11T08:08:15.446Z</time></trkpt><trkpt lat="44.7653583" lon="7.8489033"><ele>343.0</ele><time>2026-04-11T08:08:17.446Z</time></trkpt><trkpt lat="44.7653967" lon="7.849035"><ele>343.0</ele><time>2026-04-11T08:08:19.446Z</time></trkpt><trkpt lat="44.7654317" lon="7.8491367"><ele>343.0</ele><time>2026-04-11T08:08:21.446Z</time></trkpt><trkpt lat="44.7654883" lon="7.84925"><ele>343.0</ele><time>2026-04-11T08:08:23.446Z</time></trkpt><trkpt lat="44.76557" lon="7.8494067"><ele>343.0</ele><time>2026-04-11T08:08:25.446Z</time></trkpt><trkpt lat="44.765615" lon="7.849475"><ele>343.0</ele><time>2026-04-11T08:08:26.446Z</time></trkpt><trkpt lat="44.765745" lon="7.8496883"><ele>343.59999999999997</ele><time>2026-04-11T08:08:28.446Z</time></trkpt><trkpt lat="44.7658217" lon="7.8497783"><ele>344.2</ele><time>2026-04-11T08:08:30.447Z</time></trkpt><trkpt lat="44.7659067" lon="7.8498583"><ele>344.8</ele><time>2026-04-11T08:08:32.446Z</time></trkpt><trkpt lat="44.7660133" lon="7.8499333"><ele>345.4</ele><time>2026-04-11T08:08:34.446Z</time></trkpt><trkpt lat="44.766095" lon="7.8499783"><ele>346.0</ele><time>2026-04-11T08:08:35.446Z</time></trkpt><trkpt lat="44.76616" lon="7.8500133"><ele>344.8</ele><time>2026-04-11T08:08:36.446Z</time></trkpt><trkpt lat="44.76624" lon="7.8501133"><ele>343.6</ele><time>2026-04-11T08:08:37.446Z</time></trkpt><trkpt lat="44.7663133" lon="7.850195"><ele>342.4</ele><time>2026-04-11T08:08:38.446Z</time></trkpt><trkpt lat="44.76644" lon="7.8502683"><ele>341.2</ele><time>2026-04-11T08:08:40.446Z</time></trkpt><trkpt lat="44.7665167" lon="7.8502917"><ele>340.0</ele><time>2026-04-11T08:08:41.446Z</time></trkpt><trkpt lat="44.7665767" lon="7.85032"><ele>340.0</ele><time>2026-04-11T08:08:42.446Z</time></trkpt><trkpt lat="44.766635" lon="7.8503683"><ele>340.0</ele><time>2026-04-11T08:08:44.446Z</time></trkpt><trkpt lat="44.7666933" lon="7.85044"><ele>340.0</ele><time>2026-04-11T08:08:47.446Z</time></trkpt><trkpt lat="44.7667467" lon="7.8505933"><ele>340.0</ele><time>2026-04-11T08:08:49.446Z</time></trkpt><trkpt lat="44.76678" lon="7.8506767"><ele>340.0</ele><time>2026-04-11T08:08:50.446Z</time></trkpt><trkpt lat="44.7668283" lon="7.8507983"><ele>340.0</ele><time>2026-04-11T08:08:52.446Z</time></trkpt><trkpt lat="44.7668717" lon="7.8508917"><ele>339.6</ele><time>2026-04-11T08:08:54.446Z</time></trkpt><trkpt lat="44.7669117" lon="7.8510133"><ele>339.2</ele><time>2026-04-11T08:08:56.446Z</time></trkpt><trkpt lat="44.76694" lon="7.8511117"><ele>338.79999999999995</ele><time>2026-04-11T08:08:59.446Z</time></trkpt><trkpt lat="44.766975" lon="7.851225"><ele>338.4</ele><time>2026-04-11T08:09:01.446Z</time></trkpt><trkpt lat="44.767005" lon="7.8513617"><ele>338.0</ele><time>2026-04-11T08:09:04.446Z</time></trkpt><trkpt lat="44.7670117" lon="7.8515417"><ele>338.0</ele><time>2026-04-11T08:09:07.446Z</time></trkpt><trkpt lat="44.766995" lon="7.8516967"><ele>338.0</ele><time>2026-04-11T08:09:09.446Z</time></trkpt><trkpt lat="44.7669867" lon="7.8517983"><ele>338.0</ele><time>2026-04-11T08:09:10.446Z</time></trkpt><trkpt lat="44.766985" lon="7.85194"><ele>338.0</ele><time>2026-04-11T08:09:11.446Z</time></trkpt><trkpt lat="44.7669783" lon="7.85204"><ele>338.0</ele><time>2026-04-11T08:09:12.446Z</time></trkpt><trkpt lat="44.7669733" lon="7.85216"><ele>338.0</ele><time>2026-04-11T08:09:13.446Z</time></trkpt><trkpt lat="44.7669717" lon="7.8522683"><ele>337.79999999999995</ele><time>2026-04-11T08:09:14.446Z</time></trkpt><trkpt lat="44.7669783" lon="7.8524217"><ele>337.6</ele><time>2026-04-11T08:09:15.446Z</time></trkpt><trkpt lat="44.7669817" lon="7.8525533"><ele>337.4</ele><time>2026-04-11T08:09:16.446Z</time></trkpt><trkpt lat="44.7669783" lon="7.8526667"><ele>337.20000000000005</ele><time>2026-04-11T08:09:17.446Z</time></trkpt><trkpt lat="44.766965" lon="7.8528333"><ele>337.0</ele><time>2026-04-11T08:09:19.446Z</time></trkpt><trkpt lat="44.7669467" lon="7.8529833"><ele>336.40000000000003</ele><time>2026-04-11T08:09:21.446Z</time></trkpt><trkpt lat="44.76694" lon="7.853145"><ele>335.8</ele><time>2026-04-11T08:09:23.446Z</time></trkpt><trkpt lat="44.7669117" lon="7.853295"><ele>335.2</ele><time>2026-04-11T08:09:25.446Z</time></trkpt><trkpt lat="44.7668983" lon="7.8534117"><ele>334.6</ele><time>2026-04-11T08:09:26.446Z</time></trkpt><trkpt lat="44.76688" lon="7.8535217"><ele>334.0</ele><time>2026-04-11T08:09:27.446Z</time></trkpt><trkpt lat="44.76686" lon="7.85361"><ele>334.0</ele><time>2026-04-11T08:09:28.446Z</time></trkpt><trkpt lat="44.76684" lon="7.8537433"><ele>334.0</ele><time>2026-04-11T08:09:29.446Z</time></trkpt><trkpt lat="44.7668367" lon="7.8538867"><ele>334.0</ele><time>2026-04-11T08:09:30.446Z</time></trkpt><trkpt lat="44.7668367" lon="7.8539883"><ele>334.0</ele><time>2026-04-11T08:09:31.446Z</time></trkpt><trkpt lat="44.766825" lon="7.8541117"><ele>334.0</ele><time>2026-04-11T08:09:33.446Z</time></trkpt><trkpt lat="44.76676" lon="7.8541867"><ele>334.0</ele><time>2026-04-11T08:09:36.446Z</time></trkpt><trkpt lat="44.76668" lon="7.8541767"><ele>334.0</ele><time>2026-04-11T08:09:38.446Z</time></trkpt><trkpt lat="44.766605" lon="7.8541633"><ele>334.0</ele><time>2026-04-11T08:09:40.446Z</time></trkpt><trkpt lat="44.7665233" lon="7.8541667"><ele>334.0</ele><time>2026-04-11T08:09:42.446Z</time></trkpt><trkpt lat="44.7664383" lon="7.854175"><ele>334.0</ele><time>2026-04-11T08:09:43.446Z</time></trkpt><trkpt lat="44.7663683" lon="7.8541933"><ele>334.0</ele><time>2026-04-11T08:09:44.446Z</time></trkpt><trkpt lat="44.7662967" lon="7.8542183"><ele>334.0</ele><time>2026-04-11T08:09:45.446Z</time></trkpt><trkpt lat="44.7662183" lon="7.854255"><ele>334.16666666666663</ele><time>2026-04-11T08:09:46.446Z</time></trkpt><trkpt lat="44.7661567" lon="7.8542883"><ele>334.3333333333333</ele><time>2026-04-11T08:09:47.446Z</time></trkpt><trkpt lat="44.766055" lon="7.854335"><ele>334.5</ele><time>2026-04-11T08:09:49.446Z</time></trkpt><trkpt lat="44.7659817" lon="7.8543767"><ele>334.6666666666667</ele><time>2026-04-11T08:09:51.446Z</time></trkpt><trkpt lat="44.76591" lon="7.8544433"><ele>334.83333333333337</ele><time>2026-04-11T08:09:53.447Z</time></trkpt><trkpt lat="44.7658417" lon="7.8545067"><ele>335.0</ele><time>2026-04-11T08:09:55.446Z</time></trkpt><trkpt lat="44.7657633" lon="7.8545383"><ele>335.0</ele><time>2026-04-11T08:09:56.446Z</time></trkpt><trkpt lat="44.7656683" lon="7.8545767"><ele>335.0</ele><time>2026-04-11T08:09:58.446Z</time></trkpt><trkpt lat="44.7655467" lon="7.8546033"><ele>335.0</ele><time>2026-04-11T08:10:00.446Z</time></trkpt><trkpt lat="44.765435" lon="7.8546117"><ele>335.0</ele><time>2026-04-11T08:10:02.446Z</time></trkpt><trkpt lat="44.7653717" lon="7.8546233"><ele>335.0</ele><time>2026-04-11T08:10:03.446Z</time></trkpt><trkpt lat="44.76527" lon="7.8546383"><ele>335.0</ele><time>2026-04-11T08:10:04.446Z</time></trkpt><trkpt lat="44.7652067" lon="7.8546267"><ele>335.0</ele><time>2026-04-11T08:10:05.446Z</time></trkpt><trkpt lat="44.7651433" lon="7.8546133"><ele>335.0</ele><time>2026-04-11T08:10:07.446Z</time></trkpt><trkpt lat="44.765085" lon="7.8545717"><ele>335.0</ele><time>2026-04-11T08:10:11.446Z</time></trkpt><trkpt lat="44.7650883" lon="7.8543267"><ele>335.0</ele><time>2026-04-11T08:10:18.446Z</time></trkpt><trkpt lat="44.765025" lon="7.8542367"><ele>336.5</ele><time>2026-04-11T08:10:21.446Z</time></trkpt><trkpt lat="44.7649717" lon="7.8541683"><ele>338.0</ele><time>2026-04-11T08:10:23.446Z</time></trkpt><trkpt lat="44.764915" lon="7.8541083"><ele>339.5</ele><time>2026-04-11T08:10:24.446Z</time></trkpt><trkpt lat="44.764865" lon="7.85401"><ele>341.0</ele><time>2026-04-11T08:10:26.446Z</time></trkpt><trkpt lat="44.7648117" lon="7.8539267"><ele>342.5</ele><time>2026-04-11T08:10:28.446Z</time></trkpt><trkpt lat="44.7647517" lon="7.85387"><ele>344.0</ele><time>2026-04-11T08:10:29.446Z</time></trkpt><trkpt lat="44.7647017" lon="7.8537633"><ele>344.0</ele><time>2026-04-11T08:10:32.446Z</time></trkpt><trkpt lat="44.7646733" lon="7.8536817"><ele>344.0</ele><time>2026-04-11T08:10:35.447Z</time></trkpt><trkpt lat="44.7646383" lon="7.8535683"><ele>344.0</ele><time>2026-04-11T08:10:38.446Z</time></trkpt><trkpt lat="44.7646017" lon="7.8534733"><ele>344.0</ele><time>2026-04-11T08:10:41.446Z</time></trkpt><trkpt lat="44.76457" lon="7.8533817"><ele>344.0</ele><time>2026-04-11T08:10:48.446Z</time></trkpt><trkpt lat="44.76454" lon="7.853185"><ele>344.0</ele><time>2026-04-11T08:10:54.446Z</time></trkpt><trkpt lat="44.7644583" lon="7.8531167"><ele>344.4</ele><time>2026-04-11T08:11:00.446Z</time></trkpt><trkpt lat="44.76438" lon="7.8530567"><ele>344.79999999999995</ele><time>2026-04-11T08:11:03.446Z</time></trkpt><trkpt lat="44.764305" lon="7.8530017"><ele>345.20000000000005</ele><time>2026-04-11T08:11:04.446Z</time></trkpt><trkpt lat="44.76422" lon="7.8529617"><ele>345.6</ele><time>2026-04-11T08:11:05.446Z</time></trkpt><trkpt lat="44.764105" lon="7.8529017"><ele>346.0</ele><time>2026-04-11T08:11:07.446Z</time></trkpt><trkpt lat="44.7640433" lon="7.85287"><ele>347.4</ele><time>2026-04-11T08:11:08.446Z</time></trkpt><trkpt lat="44.76394" lon="7.8528117"><ele>348.8</ele><time>2026-04-11T08:11:10.446Z</time></trkpt><trkpt lat="44.7638483" lon="7.8527833"><ele>350.2</ele><time>2026-04-11T08:11:12.446Z</time></trkpt><trkpt lat="44.76378" lon="7.8527433"><ele>351.59999999999997</ele><time>2026-04-11T08:11:15.446Z</time></trkpt><trkpt lat="44.7637017" lon="7.8527"><ele>353.0</ele><time>2026-04-11T08:11:17.447Z</time></trkpt><trkpt lat="44.7636" lon="7.8526517"><ele>352.4</ele><time>2026-04-11T08:11:19.446Z</time></trkpt><trkpt lat="44.7634917" lon="7.8525817"><ele>351.79999999999995</ele><time>2026-04-11T08:11:20.446Z</time></trkpt><trkpt lat="44.7634067" lon="7.85254"><ele>351.2</ele><time>2026-04-11T08:11:21.446Z</time></trkpt><trkpt lat="44.763325" lon="7.852505"><ele>350.6</ele><time>2026-04-11T08:11:22.446Z</time></trkpt><trkpt lat="44.7632317" lon="7.8524533"><ele>350.0</ele><time>2026-04-11T08:11:23.446Z</time></trkpt><trkpt lat="44.7631583" lon="7.8524083"><ele>350.0</ele><time>2026-04-11T08:11:24.446Z</time></trkpt><trkpt lat="44.7630383" lon="7.8523467"><ele>350.0</ele><time>2026-04-11T08:11:26.446Z</time></trkpt><trkpt lat="44.7629533" lon="7.852325"><ele>350.0</ele><time>2026-04-11T08:11:27.446Z</time></trkpt><trkpt lat="44.7628567" lon="7.8522967"><ele>350.0</ele><time>2026-04-11T08:11:28.446Z</time></trkpt><trkpt lat="44.7627483" lon="7.8522583"><ele>350.0</ele><time>2026-04-11T08:11:29.446Z</time></trkpt><trkpt lat="44.76265" lon="7.8522283"><ele>348.8</ele><time>2026-04-11T08:11:30.446Z</time></trkpt><trkpt lat="44.76255" lon="7.852205"><ele>347.6</ele><time>2026-04-11T08:11:31.446Z</time></trkpt><trkpt lat="44.7624433" lon="7.85218"><ele>346.4</ele><time>2026-04-11T08:11:32.446Z</time></trkpt><trkpt lat="44.7623567" lon="7.8521517"><ele>345.2</ele><time>2026-04-11T08:11:33.446Z</time></trkpt><trkpt lat="44.76227" lon="7.852115"><ele>344.0</ele><time>2026-04-11T08:11:34.446Z</time></trkpt><trkpt lat="44.7621883" lon="7.8520833"><ele>344.0</ele><time>2026-04-11T08:11:35.446Z</time></trkpt><trkpt lat="44.7621167" lon="7.8520467"><ele>344.0</ele><time>2026-04-11T08:11:36.446Z</time></trkpt><trkpt lat="44.7620533" lon="7.8520117"><ele>344.0</ele><time>2026-04-11T08:11:37.446Z</time></trkpt><trkpt lat="44.7619567" lon="7.85197"><ele>344.0</ele><time>2026-04-11T08:11:39.446Z</time></trkpt><trkpt lat="44.7618633" lon="7.8519083"><ele>344.0</ele><time>2026-04-11T08:11:42.446Z</time></trkpt><trkpt lat="44.76172" lon="7.85185"><ele>344.4</ele><time>2026-04-11T08:11:45.447Z</time></trkpt><trkpt lat="44.761655" lon="7.851815"><ele>344.79999999999995</ele><time>2026-04-11T08:11:46.446Z</time></trkpt><trkpt lat="44.7615633" lon="7.8517767"><ele>345.20000000000005</ele><time>2026-04-11T08:11:48.446Z</time></trkpt><trkpt lat="44.7614583" lon="7.8517233"><ele>345.6</ele><time>2026-04-11T08:11:50.446Z</time></trkpt><trkpt lat="44.7613467" lon="7.85157"><ele>346.0</ele><time>2026-04-11T08:11:57.446Z</time></trkpt><trkpt lat="44.761295" lon="7.8514983"><ele>346.0</ele><time>2026-04-11T08:12:01.446Z</time></trkpt><trkpt lat="44.7612133" lon="7.8514567"><ele>346.0</ele><time>2026-04-11T08:12:06.446Z</time></trkpt><trkpt lat="44.7611233" lon="7.851465"><ele>346.0</ele><time>2026-04-11T08:12:09.446Z</time></trkpt><trkpt lat="44.7610483" lon="7.8514667"><ele>346.0</ele><time>2026-04-11T08:12:11.446Z</time></trkpt><trkpt lat="44.7609533" lon="7.851475"><ele>346.0</ele><time>2026-04-11T08:12:14.446Z</time></trkpt><trkpt lat="44.7608767" lon="7.85149"><ele>346.0</ele><time>2026-04-11T08:12:17.446Z</time></trkpt><trkpt lat="44.7608067" lon="7.851525"><ele>347.8</ele><time>2026-04-11T08:12:19.446Z</time></trkpt><trkpt lat="44.7606967" lon="7.851545"><ele>349.6</ele><time>2026-04-11T08:12:23.446Z</time></trkpt><trkpt lat="44.7606167" lon="7.8515667"><ele>351.4</ele><time>2026-04-11T08:12:25.446Z</time></trkpt><trkpt lat="44.7605417" lon="7.8515933"><ele>353.2</ele><time>2026-04-11T08:12:27.446Z</time></trkpt><trkpt lat="44.7604517" lon="7.851645"><ele>355.0</ele><time>2026-04-11T08:12:29.446Z</time></trkpt><trkpt lat="44.7603667" lon="7.8516833"><ele>355.0</ele><time>2026-04-11T08:12:31.446Z</time></trkpt><trkpt lat="44.7602967" lon="7.8517017"><ele>355.0</ele><time>2026-04-11T08:12:33.446Z</time></trkpt><trkpt lat="44.7602267" lon="7.8517067"><ele>355.0</ele><time>2026-04-11T08:12:36.446Z</time></trkpt><trkpt lat="44.7601483" lon="7.8516967"><ele>355.0</ele><time>2026-04-11T08:12:40.446Z</time></trkpt><trkpt lat="44.760085" lon="7.8517083"><ele>355.0</ele><time>2026-04-11T08:12:42.446Z</time></trkpt><trkpt lat="44.7600083" lon="7.8517317"><ele>355.0</ele><time>2026-04-11T08:12:44.446Z</time></trkpt><trkpt lat="44.759945" lon="7.851755"><ele>355.0</ele><time>2026-04-11T08:12:46.446Z</time></trkpt><trkpt lat="44.7598683" lon="7.85177"><ele>356.4</ele><time>2026-04-11T08:12:48.446Z</time></trkpt><trkpt lat="44.75975" lon="7.85177"><ele>357.8</ele><time>2026-04-11T08:12:52.446Z</time></trkpt><trkpt lat="44.759655" lon="7.8517617"><ele>359.20000000000005</ele><time>2026-04-11T08:12:54.446Z</time></trkpt><trkpt lat="44.759545" lon="7.8517283"><ele>360.6</ele><time>2026-04-11T08:12:58.446Z</time></trkpt><trkpt lat="44.759465" lon="7.8517033"><ele>362.0</ele><time>2026-04-11T08:13:00.446Z</time></trkpt><trkpt lat="44.7593733" lon="7.851675"><ele>362.6666666666667</ele><time>2026-04-11T08:13:02.446Z</time></trkpt><trkpt lat="44.7593017" lon="7.8516567"><ele>363.33333333333337</ele><time>2026-04-11T08:13:04.446Z</time></trkpt><trkpt lat="44.7592117" lon="7.851585"><ele>364.0</ele><time>2026-04-11T08:13:06.447Z</time></trkpt><trkpt lat="44.7591483" lon="7.8515433"><ele>364.6666666666667</ele><time>2026-04-11T08:13:08.446Z</time></trkpt><trkpt lat="44.7590883" lon="7.8515133"><ele>365.3333333333333</ele><time>2026-04-11T08:13:09.446Z</time></trkpt><trkpt lat="44.75903" lon="7.8514733"><ele>366.0</ele><time>2026-04-11T08:13:10.446Z</time></trkpt><trkpt lat="44.75893" lon="7.851405"><ele>366.0</ele><time>2026-04-11T08:13:12.446Z</time></trkpt><trkpt lat="44.7588583" lon="7.85135"><ele>366.0</ele><time>2026-04-11T08:13:15.446Z</time></trkpt><trkpt lat="44.7588367" lon="7.8512467"><ele>366.0</ele><time>2026-04-11T08:13:17.446Z</time></trkpt><trkpt lat="44.7587583" lon="7.8510817"><ele>366.0</ele><time>2026-04-11T08:13:19.446Z</time></trkpt><trkpt lat="44.7586717" lon="7.8510517"><ele>366.0</ele><time>2026-04-11T08:13:20.446Z</time></trkpt><trkpt lat="44.75861" lon="7.8510217"><ele>366.0</ele><time>2026-04-11T08:13:21.446Z</time></trkpt><trkpt lat="44.7585367" lon="7.8509783"><ele>366.0</ele><time>2026-04-11T08:13:23.446Z</time></trkpt><trkpt lat="44.7584783" lon="7.8509133"><ele>366.0</ele><time>2026-04-11T08:13:25.446Z</time></trkpt><trkpt lat="44.7584217" lon="7.850825"><ele>366.0</ele><time>2026-04-11T08:13:27.446Z</time></trkpt><trkpt lat="44.7583783" lon="7.85076"><ele>366.0</ele><time>2026-04-11T08:13:28.447Z</time></trkpt><trkpt lat="44.7582883" lon="7.8506867"><ele>366.0</ele><time>2026-04-11T08:13:30.446Z</time></trkpt><trkpt lat="44.758235" lon="7.8506183"><ele>367.6</ele><time>2026-04-11T08:13:32.446Z</time></trkpt><trkpt lat="44.758115" lon="7.8504733"><ele>369.20000000000005</ele><time>2026-04-11T08:13:41.446Z</time></trkpt><trkpt lat="44.7580483" lon="7.8503883"><ele>370.79999999999995</ele><time>2026-04-11T08:13:45.446Z</time></trkpt><trkpt lat="44.7579967" lon="7.85033"><ele>372.4</ele><time>2026-04-11T08:13:47.446Z</time></trkpt><trkpt lat="44.7579267" lon="7.8502983"><ele>374.0</ele><time>2026-04-11T08:13:49.446Z</time></trkpt><trkpt lat="44.7578683" lon="7.850265"><ele>374.0</ele><time>2026-04-11T08:13:51.446Z</time></trkpt><trkpt lat="44.7577833" lon="7.8502267"><ele>374.0</ele><time>2026-04-11T08:13:53.446Z</time></trkpt><trkpt lat="44.7577117" lon="7.8502233"><ele>374.0</ele><time>2026-04-11T08:13:55.446Z</time></trkpt><trkpt lat="44.7576317" lon="7.8502033"><ele>374.0</ele><time>2026-04-11T08:13:58.446Z</time></trkpt><trkpt lat="44.7575683" lon="7.8501817"><ele>374.0</ele><time>2026-04-11T08:14:00.446Z</time></trkpt><trkpt lat="44.7575067" lon="7.85011"><ele>374.0</ele><time>2026-04-11T08:14:03.446Z</time></trkpt><trkpt lat="44.757415" lon="7.8499917"><ele>374.2</ele><time>2026-04-11T08:14:10.446Z</time></trkpt><trkpt lat="44.7573" lon="7.8499583"><ele>374.4</ele><time>2026-04-11T08:14:15.446Z</time></trkpt><trkpt lat="44.7572267" lon="7.850025"><ele>374.6</ele><time>2026-04-11T08:14:18.446Z</time></trkpt><trkpt lat="44.7571783" lon="7.8501333"><ele>374.8</ele><time>2026-04-11T08:14:22.446Z</time></trkpt><trkpt lat="44.7570417" lon="7.850155"><ele>375.0</ele><time>2026-04-11T08:14:23.446Z</time></trkpt><trkpt lat="44.7569633" lon="7.8501883"><ele>375.0</ele><time>2026-04-11T08:14:24.446Z</time></trkpt><trkpt lat="44.7569033" lon="7.8502733"><ele>375.0</ele><time>2026-04-11T08:14:26.446Z</time></trkpt><trkpt lat="44.7568767" lon="7.8503683"><ele>375.0</ele><time>2026-04-11T08:14:28.446Z</time></trkpt><trkpt lat="44.7568633" lon="7.8504617"><ele>375.0</ele><time>2026-04-11T08:14:30.446Z</time></trkpt><trkpt lat="44.7568483" lon="7.8505617"><ele>375.0</ele><time>2026-04-11T08:14:32.446Z</time></trkpt><trkpt lat="44.7568367" lon="7.850665"><ele>375.0</ele><time>2026-04-11T08:14:34.446Z</time></trkpt><trkpt lat="44.7568267" lon="7.8507917"><ele>375.0</ele><time>2026-04-11T08:14:36.446Z</time></trkpt><trkpt lat="44.756825" lon="7.85093"><ele>375.0</ele><time>2026-04-11T08:14:38.446Z</time></trkpt><trkpt lat="44.75683" lon="7.85107"><ele>375.0</ele><time>2026-04-11T08:14:40.446Z</time></trkpt><trkpt lat="44.75683" lon="7.851215"><ele>375.0</ele><time>2026-04-11T08:14:42.446Z</time></trkpt><trkpt lat="44.7568317" lon="7.8513583"><ele>375.0</ele><time>2026-04-11T08:14:44.446Z</time></trkpt><trkpt lat="44.7568283" lon="7.8514983"><ele>375.0</ele><time>2026-04-11T08:14:46.446Z</time></trkpt><trkpt lat="44.7568217" lon="7.8516383"><ele>375.0</ele><time>2026-04-11T08:14:48.446Z</time></trkpt><trkpt lat="44.7568033" lon="7.851805"><ele>375.0</ele><time>2026-04-11T08:14:50.446Z</time></trkpt><trkpt lat="44.7567883" lon="7.851895"><ele>375.0</ele><time>2026-04-11T08:14:51.446Z</time></trkpt><trkpt lat="44.7567833" lon="7.85199"><ele>375.0</ele><time>2026-04-11T08:14:52.446Z</time></trkpt><trkpt lat="44.75678" lon="7.8520867"><ele>375.0</ele><time>2026-04-11T08:14:53.446Z</time></trkpt><trkpt lat="44.7567833" lon="7.8521867"><ele>376.0</ele><time>2026-04-11T08:14:54.446Z</time></trkpt><trkpt lat="44.7568033" lon="7.8523467"><ele>377.0</ele><time>2026-04-11T08:14:56.446Z</time></trkpt><trkpt lat="44.756825" lon="7.85251"><ele>378.0</ele><time>2026-04-11T08:14:58.446Z</time></trkpt><trkpt lat="44.7568283" lon="7.8526667"><ele>379.0</ele><time>2026-04-11T08:15:00.446Z</time></trkpt><trkpt lat="44.7568067" lon="7.8528383"><ele>379.4</ele><time>2026-04-11T08:15:02.446Z</time></trkpt><trkpt lat="44.7568067" lon="7.8529417"><ele>379.79999999999995</ele><time>2026-04-11T08:15:03.446Z</time></trkpt><trkpt lat="44.756795" lon="7.8530417"><ele>380.20000000000005</ele><time>2026-04-11T08:15:04.446Z</time></trkpt><trkpt lat="44.7567567" lon="7.853195"><ele>380.6</ele><time>2026-04-11T08:15:06.446Z</time></trkpt><trkpt lat="44.7567167" lon="7.8533517"><ele>381.0</ele><time>2026-04-11T08:15:08.446Z</time></trkpt><trkpt lat="44.7566883" lon="7.8534983"><ele>381.6</ele><time>2026-04-11T08:15:10.447Z</time></trkpt><trkpt lat="44.7566633" lon="7.85364"><ele>382.20000000000005</ele><time>2026-04-11T08:15:12.446Z</time></trkpt><trkpt lat="44.7566433" lon="7.8537817"><ele>382.79999999999995</ele><time>2026-04-11T08:15:14.446Z</time></trkpt><trkpt lat="44.75661" lon="7.8539417"><ele>383.4</ele><time>2026-04-11T08:15:16.446Z</time></trkpt><trkpt lat="44.7565967" lon="7.8540833"><ele>384.0</ele><time>2026-04-11T08:15:17.446Z</time></trkpt><trkpt lat="44.7565667" lon="7.8541867"><ele>384.0</ele><time>2026-04-11T08:15:18.446Z</time></trkpt><trkpt lat="44.7565417" lon="7.854275"><ele>384.0</ele><time>2026-04-11T08:15:19.446Z</time></trkpt><trkpt lat="44.756505" lon="7.8544567"><ele>384.0</ele><time>2026-04-11T08:15:21.446Z</time></trkpt><trkpt lat="44.7564883" lon="7.8545717"><ele>384.0</ele><time>2026-04-11T08:15:22.446Z</time></trkpt><trkpt lat="44.7564667" lon="7.85467"><ele>384.0</ele><time>2026-04-11T08:15:23.446Z</time></trkpt><trkpt lat="44.7564317" lon="7.8547533"><ele>384.0</ele><time>2026-04-11T08:15:24.447Z</time></trkpt><trkpt lat="44.75638" lon="7.85487"><ele>384.0</ele><time>2026-04-11T08:15:26.446Z</time></trkpt><trkpt lat="44.7563117" lon="7.85494"><ele>384.0</ele><time>2026-04-11T08:15:29.446Z</time></trkpt><trkpt lat="44.756265" lon="7.855005"><ele>384.0</ele><time>2026-04-11T08:15:31.446Z</time></trkpt><trkpt lat="44.756195" lon="7.85507"><ele>384.0</ele><time>2026-04-11T08:15:33.446Z</time></trkpt><trkpt lat="44.7561367" lon="7.8551417"><ele>384.0</ele><time>2026-04-11T08:15:35.446Z</time></trkpt><trkpt lat="44.7560767" lon="7.8552133"><ele>384.0</ele><time>2026-04-11T08:15:37.446Z</time></trkpt><trkpt lat="44.7560167" lon="7.8553183"><ele>384.6</ele><time>2026-04-11T08:15:39.446Z</time></trkpt><trkpt lat="44.7559617" lon="7.8554067"><ele>385.2</ele><time>2026-04-11T08:15:41.446Z</time></trkpt><trkpt lat="44.7558917" lon="7.8555167"><ele>385.8</ele><time>2026-04-11T08:15:43.446Z</time></trkpt><trkpt lat="44.7558417" lon="7.8555917"><ele>386.40000000000003</ele><time>2026-04-11T08:15:45.446Z</time></trkpt><trkpt lat="44.7558083" lon="7.855675"><ele>387.0</ele><time>2026-04-11T08:15:46.446Z</time></trkpt><trkpt lat="44.7557433" lon="7.8558217"><ele>387.0</ele><time>2026-04-11T08:15:48.446Z</time></trkpt><trkpt lat="44.7557067" lon="7.855905"><ele>387.0</ele><time>2026-04-11T08:15:49.446Z</time></trkpt><trkpt lat="44.7556567" lon="7.8560367"><ele>387.0</ele><time>2026-04-11T08:15:51.446Z</time></trkpt><trkpt lat="44.7556233" lon="7.8561583"><ele>387.0</ele><time>2026-04-11T08:15:53.446Z</time></trkpt><trkpt lat="44.7555933" lon="7.8562533"><ele>387.0</ele><time>2026-04-11T08:15:55.446Z</time></trkpt><trkpt lat="44.75555" lon="7.8563933"><ele>387.20000000000005</ele><time>2026-04-11T08:15:57.446Z</time></trkpt><trkpt lat="44.7555033" lon="7.85651"><ele>387.4</ele><time>2026-04-11T08:16:00.446Z</time></trkpt><trkpt lat="44.7553667" lon="7.8566233"><ele>387.6</ele><time>2026-04-11T08:16:04.446Z</time></trkpt><trkpt lat="44.75529" lon="7.8567367"><ele>387.79999999999995</ele><time>2026-04-11T08:16:07.446Z</time></trkpt><trkpt lat="44.75536" lon="7.856785"><ele>388.0</ele><time>2026-04-11T08:16:12.446Z</time></trkpt><trkpt lat="44.755485" lon="7.856895"><ele>387.4</ele><time>2026-04-11T08:16:15.447Z</time></trkpt><trkpt lat="44.7555667" lon="7.8568917"><ele>386.79999999999995</ele><time>2026-04-11T08:16:17.446Z</time></trkpt><trkpt lat="44.755685" lon="7.8569633"><ele>386.2</ele><time>2026-04-11T08:16:19.446Z</time></trkpt><trkpt lat="44.7557517" lon="7.8569567"><ele>385.6</ele><time>2026-04-11T08:16:21.446Z</time></trkpt><trkpt lat="44.75588" lon="7.85708"><ele>385.0</ele><time>2026-04-11T08:16:23.446Z</time></trkpt><trkpt lat="44.7560083" lon="7.8572167"><ele>384.00000000000006</ele><time>2026-04-11T08:16:25.446Z</time></trkpt><trkpt lat="44.756095" lon="7.8572367"><ele>383.0</ele><time>2026-04-11T08:16:27.446Z</time></trkpt><trkpt lat="44.756165" lon="7.8572233"><ele>382.0</ele><time>2026-04-11T08:16:28.446Z</time></trkpt><trkpt lat="44.7562383" lon="7.8572017"><ele>381.0</ele><time>2026-04-11T08:16:29.446Z</time></trkpt><trkpt lat="44.7563217" lon="7.857155"><ele>380.0</ele><time>2026-04-11T08:16:30.446Z</time></trkpt><trkpt lat="44.756385" lon="7.8571167"><ele>379.0</ele><time>2026-04-11T08:16:31.446Z</time></trkpt><trkpt lat="44.7564533" lon="7.8570883"><ele>379.0</ele><time>2026-04-11T08:16:33.446Z</time></trkpt><trkpt lat="44.7565167" lon="7.8570567"><ele>379.0</ele><time>2026-04-11T08:16:35.446Z</time></trkpt><trkpt lat="44.756605" lon="7.85698"><ele>379.0</ele><time>2026-04-11T08:16:38.446Z</time></trkpt><trkpt lat="44.7566767" lon="7.8569383"><ele>379.0</ele><time>2026-04-11T08:16:41.446Z</time></trkpt><trkpt lat="44.7567417" lon="7.8569083"><ele>379.0</ele><time>2026-04-11T08:16:43.446Z</time></trkpt><trkpt lat="44.7568083" lon="7.8569017"><ele>379.0</ele><time>2026-04-11T08:16:45.446Z</time></trkpt><trkpt lat="44.7569117" lon="7.85684"><ele>375.66666666666663</ele><time>2026-04-11T08:16:48.446Z</time></trkpt><trkpt lat="44.75698" lon="7.8566717"><ele>372.3333333333333</ele><time>2026-04-11T08:16:53.446Z</time></trkpt><trkpt lat="44.7570217" lon="7.85655"><ele>369.0</ele><time>2026-04-11T08:16:55.446Z</time></trkpt><trkpt lat="44.7571783" lon="7.8562767"><ele>369.0</ele><time>2026-04-11T08:17:05.446Z</time></trkpt><trkpt lat="44.7572367" lon="7.8561817"><ele>369.0</ele><time>2026-04-11T08:17:07.446Z</time></trkpt><trkpt lat="44.75727" lon="7.8561"><ele>369.0</ele><time>2026-04-11T08:17:08.446Z</time></trkpt><trkpt lat="44.7573083" lon="7.85602"><ele>369.0</ele><time>2026-04-11T08:17:09.446Z</time></trkpt><trkpt lat="44.7573433" lon="7.8559417"><ele>369.0</ele><time>2026-04-11T08:17:10.446Z</time></trkpt><trkpt lat="44.75738" lon="7.8558633"><ele>369.0</ele><time>2026-04-11T08:17:11.446Z</time></trkpt><trkpt lat="44.757425" lon="7.8557633"><ele>369.0</ele><time>2026-04-11T08:17:12.446Z</time></trkpt><trkpt lat="44.75749" lon="7.8556417"><ele>369.4</ele><time>2026-04-11T08:17:14.446Z</time></trkpt><trkpt lat="44.75756" lon="7.8555067"><ele>369.79999999999995</ele><time>2026-04-11T08:17:16.446Z</time></trkpt><trkpt lat="44.7576167" lon="7.855405"><ele>370.20000000000005</ele><time>2026-04-11T08:17:18.446Z</time></trkpt><trkpt lat="44.7577" lon="7.8553283"><ele>370.6</ele><time>2026-04-11T08:17:20.446Z</time></trkpt><trkpt lat="44.7577933" lon="7.855265"><ele>371.0</ele><time>2026-04-11T08:17:22.446Z</time></trkpt><trkpt lat="44.7578833" lon="7.8552517"><ele>370.33333333333337</ele><time>2026-04-11T08:17:24.446Z</time></trkpt><trkpt lat="44.7579633" lon="7.8552967"><ele>369.6666666666667</ele><time>2026-04-11T08:17:25.446Z</time></trkpt><trkpt lat="44.758055" lon="7.85534"><ele>369.0</ele><time>2026-04-11T08:17:27.446Z</time></trkpt><trkpt lat="44.7581317" lon="7.8552817"><ele>368.3333333333333</ele><time>2026-04-11T08:17:28.446Z</time></trkpt><trkpt lat="44.7581867" lon="7.8553317"><ele>367.66666666666663</ele><time>2026-04-11T08:17:33.446Z</time></trkpt><trkpt lat="44.7582867" lon="7.8553583"><ele>367.0</ele><time>2026-04-11T08:17:47.446Z</time></trkpt><trkpt lat="44.7583617" lon="7.8553333"><ele>367.0</ele><time>2026-04-11T08:17:49.446Z</time></trkpt><trkpt lat="44.758455" lon="7.85523"><ele>367.0</ele><time>2026-04-11T08:17:51.446Z</time></trkpt><trkpt lat="44.7585133" lon="7.855175"><ele>367.0</ele><time>2026-04-11T08:17:53.446Z</time></trkpt><trkpt lat="44.758575" lon="7.8551217"><ele>367.0</ele><time>2026-04-11T08:17:55.446Z</time></trkpt><trkpt lat="44.75864" lon="7.8550883"><ele>367.0</ele><time>2026-04-11T08:17:57.446Z</time></trkpt><trkpt lat="44.7586983" lon="7.855045"><ele>367.0</ele><time>2026-04-11T08:17:59.446Z</time></trkpt><trkpt lat="44.7587717" lon="7.8550017"><ele>367.3333333333333</ele><time>2026-04-11T08:18:01.446Z</time></trkpt><trkpt lat="44.7588367" lon="7.8549833"><ele>367.66666666666663</ele><time>2026-04-11T08:18:03.446Z</time></trkpt><trkpt lat="44.758905" lon="7.8549733"><ele>368.0</ele><time>2026-04-11T08:18:05.446Z</time></trkpt><trkpt lat="44.7589767" lon="7.854965"><ele>368.3333333333333</ele><time>2026-04-11T08:18:07.446Z</time></trkpt><trkpt lat="44.75907" lon="7.8549467"><ele>368.6666666666667</ele><time>2026-04-11T08:18:08.446Z</time></trkpt><trkpt lat="44.7591867" lon="7.85491"><ele>369.0</ele><time>2026-04-11T08:18:10.446Z</time></trkpt><trkpt lat="44.7592533" lon="7.8548567"><ele>369.0</ele><time>2026-04-11T08:18:11.446Z</time></trkpt><trkpt lat="44.7593133" lon="7.85481"><ele>369.0</ele><time>2026-04-11T08:18:13.446Z</time></trkpt><trkpt lat="44.759415" lon="7.8547183"><ele>369.0</ele><time>2026-04-11T08:18:15.446Z</time></trkpt><trkpt lat="44.7594783" lon="7.85468"><ele>369.0</ele><time>2026-04-11T08:18:19.446Z</time></trkpt><trkpt lat="44.7595417" lon="7.8546267"><ele>369.0</ele><time>2026-04-11T08:18:23.446Z</time></trkpt><trkpt lat="44.75956" lon="7.8547533"><ele>369.0</ele><time>2026-04-11T08:18:29.446Z</time></trkpt><trkpt lat="44.7595333" lon="7.8548517"><ele>369.0</ele><time>2026-04-11T08:18:30.446Z</time></trkpt><trkpt lat="44.7595167" lon="7.8549867"><ele>369.0</ele><time>2026-04-11T08:18:32.447Z</time></trkpt><trkpt lat="44.7595" lon="7.8551083"><ele>369.0</ele><time>2026-04-11T08:18:33.446Z</time></trkpt><trkpt lat="44.75948" lon="7.8552317"><ele>369.0</ele><time>2026-04-11T08:18:34.446Z</time></trkpt><trkpt lat="44.759455" lon="7.8553367"><ele>369.0</ele><time>2026-04-11T08:18:35.446Z</time></trkpt><trkpt lat="44.7594333" lon="7.85544"><ele>369.0</ele><time>2026-04-11T08:18:36.446Z</time></trkpt><trkpt lat="44.759415" lon="7.8555267"><ele>369.3333333333333</ele><time>2026-04-11T08:18:37.446Z</time></trkpt><trkpt lat="44.7593817" lon="7.8556467"><ele>369.6666666666667</ele><time>2026-04-11T08:18:39.446Z</time></trkpt><trkpt lat="44.7593533" lon="7.8557417"><ele>370.0</ele><time>2026-04-11T08:18:41.446Z</time></trkpt><trkpt lat="44.7593267" lon="7.85583"><ele>370.33333333333337</ele><time>2026-04-11T08:18:43.446Z</time></trkpt><trkpt lat="44.7592933" lon="7.8559567"><ele>370.6666666666667</ele><time>2026-04-11T08:18:45.446Z</time></trkpt><trkpt lat="44.7592567" lon="7.856085"><ele>371.0</ele><time>2026-04-11T08:18:47.446Z</time></trkpt><trkpt lat="44.7592233" lon="7.856195"><ele>372.6</ele><time>2026-04-11T08:18:49.446Z</time></trkpt><trkpt lat="44.7592033" lon="7.8563"><ele>374.20000000000005</ele><time>2026-04-11T08:18:51.446Z</time></trkpt><trkpt lat="44.7591767" lon="7.8564217"><ele>375.79999999999995</ele><time>2026-04-11T08:18:53.446Z</time></trkpt><trkpt lat="44.7591367" lon="7.856565"><ele>377.4</ele><time>2026-04-11T08:18:55.446Z</time></trkpt><trkpt lat="44.7590883" lon="7.856705"><ele>379.0</ele><time>2026-04-11T08:18:57.446Z</time></trkpt><trkpt lat="44.7590483" lon="7.8568617"><ele>379.4</ele><time>2026-04-11T08:18:59.446Z</time></trkpt><trkpt lat="44.7590017" lon="7.857005"><ele>379.79999999999995</ele><time>2026-04-11T08:19:01.446Z</time></trkpt><trkpt lat="44.758965" lon="7.85714"><ele>380.20000000000005</ele><time>2026-04-11T08:19:03.446Z</time></trkpt><trkpt lat="44.7589217" lon="7.8572667"><ele>380.6</ele><time>2026-04-11T08:19:05.446Z</time></trkpt><trkpt lat="44.7588767" lon="7.8574"><ele>381.0</ele><time>2026-04-11T08:19:07.446Z</time></trkpt><trkpt lat="44.75884" lon="7.857535"><ele>381.6</ele><time>2026-04-11T08:19:09.446Z</time></trkpt><trkpt lat="44.75879" lon="7.857665"><ele>382.20000000000005</ele><time>2026-04-11T08:19:11.446Z</time></trkpt><trkpt lat="44.7587467" lon="7.857805"><ele>382.79999999999995</ele><time>2026-04-11T08:19:13.446Z</time></trkpt><trkpt lat="44.7587083" lon="7.857935"><ele>383.4</ele><time>2026-04-11T08:19:15.446Z</time></trkpt><trkpt lat="44.75867" lon="7.858055"><ele>384.0</ele><time>2026-04-11T08:19:17.446Z</time></trkpt><trkpt lat="44.75863" lon="7.8582"><ele>384.0</ele><time>2026-04-11T08:19:19.446Z</time></trkpt><trkpt lat="44.7585783" lon="7.8583383"><ele>384.0</ele><time>2026-04-11T08:19:21.446Z</time></trkpt><trkpt lat="44.7585283" lon="7.85847"><ele>384.0</ele><time>2026-04-11T08:19:23.446Z</time></trkpt><trkpt lat="44.7584733" lon="7.858595"><ele>384.0</ele><time>2026-04-11T08:19:25.446Z</time></trkpt><trkpt lat="44.7584283" lon="7.8587233"><ele>384.0</ele><time>2026-04-11T08:19:27.446Z</time></trkpt><trkpt lat="44.7583833" lon="7.85885"><ele>384.2</ele><time>2026-04-11T08:19:29.446Z</time></trkpt><trkpt lat="44.75835" lon="7.85897"><ele>384.4</ele><time>2026-04-11T08:19:31.446Z</time></trkpt><trkpt lat="44.758305" lon="7.8591283"><ele>384.6</ele><time>2026-04-11T08:19:34.446Z</time></trkpt><trkpt lat="44.7582433" lon="7.85927"><ele>384.8</ele><time>2026-04-11T08:19:36.446Z</time></trkpt><trkpt lat="44.7581933" lon="7.85941"><ele>385.0</ele><time>2026-04-11T08:19:38.446Z</time></trkpt><trkpt lat="44.7581517" lon="7.8595433"><ele>385.0</ele><time>2026-04-11T08:19:40.446Z</time></trkpt><trkpt lat="44.75811" lon="7.85969"><ele>385.0</ele><time>2026-04-11T08:19:42.446Z</time></trkpt><trkpt lat="44.7580683" lon="7.859835"><ele>385.0</ele><time>2026-04-11T08:19:44.446Z</time></trkpt><trkpt lat="44.7580283" lon="7.85997"><ele>385.0</ele><time>2026-04-11T08:19:46.446Z</time></trkpt><trkpt lat="44.7579667" lon="7.8600883"><ele>385.0</ele><time>2026-04-11T08:19:48.446Z</time></trkpt><trkpt lat="44.7579033" lon="7.860195"><ele>385.6</ele><time>2026-04-11T08:19:50.447Z</time></trkpt><trkpt lat="44.7578367" lon="7.8602983"><ele>386.2</ele><time>2026-04-11T08:19:52.446Z</time></trkpt><trkpt lat="44.7577583" lon="7.8604017"><ele>386.79999999999995</ele><time>2026-04-11T08:19:54.446Z</time></trkpt><trkpt lat="44.757675" lon="7.8605"><ele>387.4</ele><time>2026-04-11T08:19:56.446Z</time></trkpt><trkpt lat="44.7575733" lon="7.8605583"><ele>388.0</ele><time>2026-04-11T08:19:58.446Z</time></trkpt><trkpt lat="44.7574817" lon="7.8606167"><ele>388.0</ele><time>2026-04-11T08:20:00.446Z</time></trkpt><trkpt lat="44.7573933" lon="7.8606683"><ele>388.0</ele><time>2026-04-11T08:20:02.447Z</time></trkpt><trkpt lat="44.7573067" lon="7.8607283"><ele>388.0</ele><time>2026-04-11T08:20:04.446Z</time></trkpt><trkpt lat="44.75722" lon="7.8608"><ele>388.0</ele><time>2026-04-11T08:20:06.446Z</time></trkpt><trkpt lat="44.7571317" lon="7.8608433"><ele>388.0</ele><time>2026-04-11T08:20:08.446Z</time></trkpt><trkpt lat="44.7570417" lon="7.8608617"><ele>388.00000000000006</ele><time>2026-04-11T08:20:10.446Z</time></trkpt><trkpt lat="44.7569667" lon="7.86088"><ele>388.0</ele><time>2026-04-11T08:20:12.446Z</time></trkpt><trkpt lat="44.7569033" lon="7.8608883"><ele>388.0</ele><time>2026-04-11T08:20:14.446Z</time></trkpt><trkpt lat="44.7568333" lon="7.8609067"><ele>388.0</ele><time>2026-04-11T08:20:16.446Z</time></trkpt><trkpt lat="44.75677" lon="7.8609167"><ele>388.00000000000006</ele><time>2026-04-11T08:20:18.446Z</time></trkpt><trkpt lat="44.75668" lon="7.8609167"><ele>388.0</ele><time>2026-04-11T08:20:20.446Z</time></trkpt><trkpt lat="44.7565667" lon="7.8609367"><ele>388.2</ele><time>2026-04-11T08:20:22.446Z</time></trkpt><trkpt lat="44.7564483" lon="7.8609667"><ele>388.4</ele><time>2026-04-11T08:20:24.446Z</time></trkpt><trkpt lat="44.7563467" lon="7.8610183"><ele>388.59999999999997</ele><time>2026-04-11T08:20:26.446Z</time></trkpt><trkpt lat="44.756245" lon="7.8610583"><ele>388.79999999999995</ele><time>2026-04-11T08:20:28.446Z</time></trkpt><trkpt lat="44.75614" lon="7.8611183"><ele>389.0</ele><time>2026-04-11T08:20:30.446Z</time></trkpt><trkpt lat="44.75603" lon="7.8611717"><ele>389.0</ele><time>2026-04-11T08:20:32.446Z</time></trkpt><trkpt lat="44.75592" lon="7.86122"><ele>389.0</ele><time>2026-04-11T08:20:34.446Z</time></trkpt><trkpt lat="44.7558167" lon="7.86126"><ele>389.0</ele><time>2026-04-11T08:20:36.446Z</time></trkpt><trkpt lat="44.7557117" lon="7.8613017"><ele>389.0</ele><time>2026-04-11T08:20:38.446Z</time></trkpt><trkpt lat="44.7556033" lon="7.8613467"><ele>389.0</ele><time>2026-04-11T08:20:40.446Z</time></trkpt><trkpt lat="44.7554983" lon="7.8614183"><ele>389.0</ele><time>2026-04-11T08:20:42.446Z</time></trkpt><trkpt lat="44.7554" lon="7.8615017"><ele>389.0</ele><time>2026-04-11T08:20:44.446Z</time></trkpt><trkpt lat="44.755305" lon="7.861585"><ele>389.0</ele><time>2026-04-11T08:20:46.446Z</time></trkpt><trkpt lat="44.7552133" lon="7.8616717"><ele>389.0</ele><time>2026-04-11T08:20:48.446Z</time></trkpt><trkpt lat="44.7551167" lon="7.8617633"><ele>389.5</ele><time>2026-04-11T08:20:50.446Z</time></trkpt><trkpt lat="44.755025" lon="7.8618567"><ele>390.0</ele><time>2026-04-11T08:20:52.446Z</time></trkpt><trkpt lat="44.7549283" lon="7.861905"><ele>390.5</ele><time>2026-04-11T08:20:54.446Z</time></trkpt><trkpt lat="44.7548417" lon="7.8620083"><ele>391.0</ele><time>2026-04-11T08:20:56.446Z</time></trkpt><trkpt lat="44.7547567" lon="7.8621417"><ele>391.0</ele><time>2026-04-11T08:20:58.446Z</time></trkpt><trkpt lat="44.75471" lon="7.8622033"><ele>391.0</ele><time>2026-04-11T08:20:59.445Z</time></trkpt><trkpt lat="44.7546167" lon="7.8623133"><ele>391.0</ele><time>2026-04-11T08:21:01.445Z</time></trkpt><trkpt lat="44.7545167" lon="7.86241"><ele>391.0</ele><time>2026-04-11T08:21:03.445Z</time></trkpt><trkpt lat="44.754425" lon="7.8625033"><ele>391.0</ele><time>2026-04-11T08:21:05.445Z</time></trkpt><trkpt lat="44.7543433" lon="7.8626067"><ele>392.25</ele><time>2026-04-11T08:21:07.445Z</time></trkpt><trkpt lat="44.7542633" lon="7.8627217"><ele>393.5</ele><time>2026-04-11T08:21:09.445Z</time></trkpt><trkpt lat="44.7541867" lon="7.8628533"><ele>394.75</ele><time>2026-04-11T08:21:11.445Z</time></trkpt><trkpt lat="44.754105" lon="7.86298"><ele>396.0</ele><time>2026-04-11T08:21:13.445Z</time></trkpt><trkpt lat="44.7540233" lon="7.8630867"><ele>396.0</ele><time>2026-04-11T08:21:15.445Z</time></trkpt><trkpt lat="44.7539433" lon="7.86319"><ele>396.0</ele><time>2026-04-11T08:21:17.445Z</time></trkpt><trkpt lat="44.753865" lon="7.8632867"><ele>396.0</ele><time>2026-04-11T08:21:19.445Z</time></trkpt><trkpt lat="44.75381" lon="7.8634033"><ele>396.0</ele><time>2026-04-11T08:21:21.445Z</time></trkpt><trkpt lat="44.7537633" lon="7.86352"><ele>396.0</ele><time>2026-04-11T08:21:23.446Z</time></trkpt><trkpt lat="44.753725" lon="7.8636583"><ele>395.5</ele><time>2026-04-11T08:21:25.445Z</time></trkpt><trkpt lat="44.7537183" lon="7.8637467"><ele>395.0</ele><time>2026-04-11T08:21:26.445Z</time></trkpt><trkpt lat="44.7537117" lon="7.8638383"><ele>394.5</ele><time>2026-04-11T08:21:27.445Z</time></trkpt><trkpt lat="44.7537067" lon="7.8640183"><ele>394.0</ele><time>2026-04-11T08:21:29.445Z</time></trkpt><trkpt lat="44.7537183" lon="7.8641067"><ele>393.5</ele><time>2026-04-11T08:21:30.445Z</time></trkpt><trkpt lat="44.75375" lon="7.8642467"><ele>393.0</ele><time>2026-04-11T08:21:32.445Z</time></trkpt><trkpt lat="44.75379" lon="7.8643933"><ele>391.3333333333333</ele><time>2026-04-11T08:21:34.445Z</time></trkpt><trkpt lat="44.75379" lon="7.8645633"><ele>389.6666666666667</ele><time>2026-04-11T08:21:36.446Z</time></trkpt><trkpt lat="44.75376" lon="7.86465"><ele>388.0</ele><time>2026-04-11T08:21:37.445Z</time></trkpt><trkpt lat="44.7537267" lon="7.8647367"><ele>386.33333333333337</ele><time>2026-04-11T08:21:38.445Z</time></trkpt><trkpt lat="44.7536917" lon="7.864825"><ele>384.6666666666667</ele><time>2026-04-11T08:21:39.445Z</time></trkpt><trkpt lat="44.7536567" lon="7.8649283"><ele>383.0</ele><time>2026-04-11T08:21:40.445Z</time></trkpt><trkpt lat="44.75363" lon="7.8650333"><ele>382.1666666666667</ele><time>2026-04-11T08:21:41.445Z</time></trkpt><trkpt lat="44.75363" lon="7.865135"><ele>381.33333333333337</ele><time>2026-04-11T08:21:42.445Z</time></trkpt><trkpt lat="44.7536567" lon="7.8652367"><ele>380.5</ele><time>2026-04-11T08:21:43.445Z</time></trkpt><trkpt lat="44.7536933" lon="7.8653417"><ele>379.6666666666667</ele><time>2026-04-11T08:21:44.445Z</time></trkpt><trkpt lat="44.75373" lon="7.86544"><ele>378.8333333333333</ele><time>2026-04-11T08:21:45.445Z</time></trkpt><trkpt lat="44.7537567" lon="7.865545"><ele>378.0</ele><time>2026-04-11T08:21:46.445Z</time></trkpt><trkpt lat="44.7537783" lon="7.8656517"><ele>378.0</ele><time>2026-04-11T08:21:47.445Z</time></trkpt><trkpt lat="44.7537917" lon="7.865765"><ele>378.0</ele><time>2026-04-11T08:21:48.445Z</time></trkpt><trkpt lat="44.7537967" lon="7.8658933"><ele>378.0</ele><time>2026-04-11T08:21:49.445Z</time></trkpt><trkpt lat="44.7538" lon="7.8660167"><ele>378.0</ele><time>2026-04-11T08:21:50.445Z</time></trkpt><trkpt lat="44.7537967" lon="7.8661217"><ele>378.0</ele><time>2026-04-11T08:21:51.445Z</time></trkpt><trkpt lat="44.753785" lon="7.8662133"><ele>378.0</ele><time>2026-04-11T08:21:52.445Z</time></trkpt><trkpt lat="44.75372" lon="7.86636"><ele>377.3333333333333</ele><time>2026-04-11T08:21:54.445Z</time></trkpt><trkpt lat="44.7536717" lon="7.8664233"><ele>376.6666666666667</ele><time>2026-04-11T08:21:55.445Z</time></trkpt><trkpt lat="44.7536233" lon="7.8664883"><ele>376.0</ele><time>2026-04-11T08:21:56.445Z</time></trkpt><trkpt lat="44.753565" lon="7.866525"><ele>375.33333333333337</ele><time>2026-04-11T08:21:57.446Z</time></trkpt><trkpt lat="44.7535033" lon="7.86655"><ele>374.6666666666667</ele><time>2026-04-11T08:21:58.445Z</time></trkpt><trkpt lat="44.7533883" lon="7.8665683"><ele>374.0</ele><time>2026-04-11T08:22:00.445Z</time></trkpt><trkpt lat="44.7532917" lon="7.8665567"><ele>373.5</ele><time>2026-04-11T08:22:02.445Z</time></trkpt><trkpt lat="44.75322" lon="7.86653"><ele>373.0</ele><time>2026-04-11T08:22:04.445Z</time></trkpt><trkpt lat="44.753155" lon="7.86659"><ele>372.5</ele><time>2026-04-11T08:22:07.445Z</time></trkpt><trkpt lat="44.7531467" lon="7.8666867"><ele>372.0</ele><time>2026-04-11T08:22:09.445Z</time></trkpt><trkpt lat="44.7531467" lon="7.8667983"><ele>371.5</ele><time>2026-04-11T08:22:11.445Z</time></trkpt><trkpt lat="44.753125" lon="7.8669333"><ele>371.0</ele><time>2026-04-11T08:22:13.445Z</time></trkpt><trkpt lat="44.7531083" lon="7.867025"><ele>370.33333333333337</ele><time>2026-04-11T08:22:14.445Z</time></trkpt><trkpt lat="44.7530933" lon="7.8671283"><ele>369.6666666666667</ele><time>2026-04-11T08:22:15.445Z</time></trkpt><trkpt lat="44.7530783" lon="7.86723"><ele>369.0</ele><time>2026-04-11T08:22:16.445Z</time></trkpt><trkpt lat="44.75307" lon="7.8673367"><ele>368.3333333333333</ele><time>2026-04-11T08:22:17.445Z</time></trkpt><trkpt lat="44.7530783" lon="7.86744"><ele>367.66666666666663</ele><time>2026-04-11T08:22:18.445Z</time></trkpt><trkpt lat="44.7530967" lon="7.8675533"><ele>367.0</ele><time>2026-04-11T08:22:19.445Z</time></trkpt><trkpt lat="44.7531167" lon="7.86768"><ele>366.3333333333333</ele><time>2026-04-11T08:22:20.446Z</time></trkpt><trkpt lat="44.753155" lon="7.867805"><ele>365.66666666666663</ele><time>2026-04-11T08:22:21.445Z</time></trkpt><trkpt lat="44.7532" lon="7.8679017"><ele>365.0</ele><time>2026-04-11T08:22:22.445Z</time></trkpt><trkpt lat="44.7532483" lon="7.8679883"><ele>364.3333333333333</ele><time>2026-04-11T08:22:23.445Z</time></trkpt><trkpt lat="44.7532783" lon="7.86809"><ele>363.6666666666667</ele><time>2026-04-11T08:22:24.445Z</time></trkpt><trkpt lat="44.75329" lon="7.868195"><ele>363.0</ele><time>2026-04-11T08:22:25.445Z</time></trkpt><trkpt lat="44.7533" lon="7.8683067"><ele>363.0</ele><time>2026-04-11T08:22:26.445Z</time></trkpt><trkpt lat="44.753315" lon="7.868435"><ele>363.0</ele><time>2026-04-11T08:22:27.445Z</time></trkpt><trkpt lat="44.7533317" lon="7.8685617"><ele>363.0</ele><time>2026-04-11T08:22:28.445Z</time></trkpt><trkpt lat="44.7533483" lon="7.86868"><ele>363.0</ele><time>2026-04-11T08:22:29.445Z</time></trkpt><trkpt lat="44.7533517" lon="7.86878"><ele>363.0</ele><time>2026-04-11T08:22:30.445Z</time></trkpt><trkpt lat="44.75334" lon="7.8688733"><ele>363.0</ele><time>2026-04-11T08:22:31.445Z</time></trkpt><trkpt lat="44.7533367" lon="7.8689817"><ele>361.8333333333333</ele><time>2026-04-11T08:22:32.445Z</time></trkpt><trkpt lat="44.7533283" lon="7.8690917"><ele>360.6666666666667</ele><time>2026-04-11T08:22:33.445Z</time></trkpt><trkpt lat="44.753315" lon="7.8692117"><ele>359.5</ele><time>2026-04-11T08:22:34.445Z</time></trkpt><trkpt lat="44.7533033" lon="7.8693267"><ele>358.33333333333337</ele><time>2026-04-11T08:22:35.446Z</time></trkpt><trkpt lat="44.753295" lon="7.8694533"><ele>357.1666666666667</ele><time>2026-04-11T08:22:36.445Z</time></trkpt><trkpt lat="44.7533017" lon="7.8695667"><ele>356.0</ele><time>2026-04-11T08:22:37.445Z</time></trkpt><trkpt lat="44.7533067" lon="7.8696833"><ele>355.0</ele><time>2026-04-11T08:22:38.445Z</time></trkpt><trkpt lat="44.75331" lon="7.8697733"><ele>354.0</ele><time>2026-04-11T08:22:39.445Z</time></trkpt><trkpt lat="44.7532817" lon="7.8699117"><ele>353.0</ele><time>2026-04-11T08:22:41.446Z</time></trkpt><trkpt lat="44.75319" lon="7.8699833"><ele>352.0</ele><time>2026-04-11T08:22:43.445Z</time></trkpt><trkpt lat="44.753125" lon="7.8700183"><ele>351.0</ele><time>2026-04-11T08:22:44.445Z</time></trkpt><trkpt lat="44.75306" lon="7.8700733"><ele>350.0</ele><time>2026-04-11T08:22:45.445Z</time></trkpt><trkpt lat="44.7530083" lon="7.8701383"><ele>349.5</ele><time>2026-04-11T08:22:46.445Z</time></trkpt><trkpt lat="44.752965" lon="7.87021"><ele>349.0</ele><time>2026-04-11T08:22:47.445Z</time></trkpt><trkpt lat="44.7529283" lon="7.870295"><ele>348.5</ele><time>2026-04-11T08:22:48.445Z</time></trkpt><trkpt lat="44.7529033" lon="7.8704017"><ele>348.0</ele><time>2026-04-11T08:22:49.445Z</time></trkpt><trkpt lat="44.7528783" lon="7.8705167"><ele>347.5</ele><time>2026-04-11T08:22:50.446Z</time></trkpt><trkpt lat="44.7528567" lon="7.87063"><ele>347.0</ele><time>2026-04-11T08:22:51.445Z</time></trkpt><trkpt lat="44.7528367" lon="7.870735"><ele>347.0</ele><time>2026-04-11T08:22:52.445Z</time></trkpt><trkpt lat="44.7528133" lon="7.8708317"><ele>347.0</ele><time>2026-04-11T08:22:53.445Z</time></trkpt><trkpt lat="44.7527817" lon="7.8709233"><ele>347.0</ele><time>2026-04-11T08:22:54.445Z</time></trkpt><trkpt lat="44.7527433" lon="7.8710117"><ele>347.0</ele><time>2026-04-11T08:22:55.446Z</time></trkpt><trkpt lat="44.7527033" lon="7.8711033"><ele>347.0</ele><time>2026-04-11T08:22:56.445Z</time></trkpt><trkpt lat="44.7526767" lon="7.8711967"><ele>347.0</ele><time>2026-04-11T08:22:57.445Z</time></trkpt><trkpt lat="44.7526433" lon="7.8712817"><ele>347.0</ele><time>2026-04-11T08:22:58.445Z</time></trkpt><trkpt lat="44.7526" lon="7.8713583"><ele>347.83333333333337</ele><time>2026-04-11T08:22:59.445Z</time></trkpt><trkpt lat="44.752555" lon="7.87144"><ele>348.6666666666667</ele><time>2026-04-11T08:23:00.445Z</time></trkpt><trkpt lat="44.7525067" lon="7.87152"><ele>349.5</ele><time>2026-04-11T08:23:01.445Z</time></trkpt><trkpt lat="44.752455" lon="7.8716017"><ele>350.3333333333333</ele><time>2026-04-11T08:23:02.445Z</time></trkpt><trkpt lat="44.752415" lon="7.8716883"><ele>351.16666666666663</ele><time>2026-04-11T08:23:03.445Z</time></trkpt><trkpt lat="44.7523733" lon="7.87186"><ele>352.0</ele><time>2026-04-11T08:23:05.445Z</time></trkpt><trkpt lat="44.7523583" lon="7.8719517"><ele>352.0</ele><time>2026-04-11T08:23:06.445Z</time></trkpt><trkpt lat="44.7523333" lon="7.8720383"><ele>352.0</ele><time>2026-04-11T08:23:07.446Z</time></trkpt><trkpt lat="44.7522883" lon="7.8721783"><ele>352.0</ele><time>2026-04-11T08:23:09.445Z</time></trkpt><trkpt lat="44.75225" lon="7.8722583"><ele>352.0</ele><time>2026-04-11T08:23:10.446Z</time></trkpt><trkpt lat="44.752205" lon="7.8723483"><ele>352.0</ele><time>2026-04-11T08:23:11.446Z</time></trkpt><trkpt lat="44.75216" lon="7.8724383"><ele>352.0</ele><time>2026-04-11T08:23:12.445Z</time></trkpt><trkpt lat="44.752125" lon="7.872525"><ele>352.7142857142857</ele><time>2026-04-11T08:23:13.445Z</time></trkpt><trkpt lat="44.7520883" lon="7.87261"><ele>353.42857142857144</ele><time>2026-04-11T08:23:14.445Z</time></trkpt><trkpt lat="44.75205" lon="7.8726933"><ele>354.1428571428571</ele><time>2026-04-11T08:23:15.445Z</time></trkpt><trkpt lat="44.7520183" lon="7.8727817"><ele>354.8571428571429</ele><time>2026-04-11T08:23:16.445Z</time></trkpt><trkpt lat="44.7519883" lon="7.8728617"><ele>355.57142857142856</ele><time>2026-04-11T08:23:17.445Z</time></trkpt><trkpt lat="44.751955" lon="7.8729433"><ele>356.2857142857143</ele><time>2026-04-11T08:23:18.445Z</time></trkpt><trkpt lat="44.7519217" lon="7.8730217"><ele>357.0</ele><time>2026-04-11T08:23:19.445Z</time></trkpt><trkpt lat="44.7518883" lon="7.8730983"><ele>356.40000000000003</ele><time>2026-04-11T08:23:20.445Z</time></trkpt><trkpt lat="44.7518183" lon="7.8732417"><ele>355.8</ele><time>2026-04-11T08:23:22.445Z</time></trkpt><trkpt lat="44.7517817" lon="7.8733167"><ele>355.2</ele><time>2026-04-11T08:23:23.445Z</time></trkpt><trkpt lat="44.75174" lon="7.87339"><ele>354.6</ele><time>2026-04-11T08:23:24.445Z</time></trkpt><trkpt lat="44.7516633" lon="7.8735267"><ele>354.0</ele><time>2026-04-11T08:23:26.445Z</time></trkpt><trkpt lat="44.7515783" lon="7.8736333"><ele>353.6</ele><time>2026-04-11T08:23:28.445Z</time></trkpt><trkpt lat="44.7514817" lon="7.8737183"><ele>353.2</ele><time>2026-04-11T08:23:30.445Z</time></trkpt><trkpt lat="44.75138" lon="7.87379"><ele>352.8</ele><time>2026-04-11T08:23:32.445Z</time></trkpt><trkpt lat="44.7513" lon="7.8738967"><ele>352.40000000000003</ele><time>2026-04-11T08:23:34.445Z</time></trkpt><trkpt lat="44.751225" lon="7.8740117"><ele>352.0</ele><time>2026-04-11T08:23:36.445Z</time></trkpt><trkpt lat="44.7511817" lon="7.87408"><ele>352.0</ele><time>2026-04-11T08:23:37.445Z</time></trkpt><trkpt lat="44.7511333" lon="7.8741467"><ele>352.0</ele><time>2026-04-11T08:23:38.445Z</time></trkpt><trkpt lat="44.751035" lon="7.8742533"><ele>352.0</ele><time>2026-04-11T08:23:40.445Z</time></trkpt><trkpt lat="44.7509817" lon="7.8743033"><ele>352.0</ele><time>2026-04-11T08:23:41.445Z</time></trkpt><trkpt lat="44.75093" lon="7.874365"><ele>352.0</ele><time>2026-04-11T08:23:42.446Z</time></trkpt><trkpt lat="44.75088" lon="7.8744283"><ele>352.0</ele><time>2026-04-11T08:23:43.445Z</time></trkpt><trkpt lat="44.7508317" lon="7.8744933"><ele>352.42857142857144</ele><time>2026-04-11T08:23:44.445Z</time></trkpt><trkpt lat="44.7507817" lon="7.8745567"><ele>352.85714285714283</ele><time>2026-04-11T08:23:45.445Z</time></trkpt><trkpt lat="44.750735" lon="7.8746183"><ele>353.2857142857143</ele><time>2026-04-11T08:23:46.445Z</time></trkpt><trkpt lat="44.750685" lon="7.8746783"><ele>353.7142857142857</ele><time>2026-04-11T08:23:47.445Z</time></trkpt><trkpt lat="44.7506333" lon="7.8747333"><ele>354.14285714285717</ele><time>2026-04-11T08:23:48.445Z</time></trkpt><trkpt lat="44.75058" lon="7.8747867"><ele>354.57142857142856</ele><time>2026-04-11T08:23:49.445Z</time></trkpt><trkpt lat="44.7505217" lon="7.87484"><ele>355.0</ele><time>2026-04-11T08:23:50.445Z</time></trkpt><trkpt lat="44.7504633" lon="7.8748933"><ele>355.0</ele><time>2026-04-11T08:23:51.445Z</time></trkpt><trkpt lat="44.7504083" lon="7.874945"><ele>355.0</ele><time>2026-04-11T08:23:52.445Z</time></trkpt><trkpt lat="44.750355" lon="7.8749983"><ele>355.0</ele><time>2026-04-11T08:23:53.445Z</time></trkpt><trkpt lat="44.750295" lon="7.8750567"><ele>355.0</ele><time>2026-04-11T08:23:54.445Z</time></trkpt><trkpt lat="44.7502417" lon="7.87512"><ele>355.0</ele><time>2026-04-11T08:23:55.445Z</time></trkpt><trkpt lat="44.75019" lon="7.8751867"><ele>355.0</ele><time>2026-04-11T08:23:56.445Z</time></trkpt><trkpt lat="44.75011" lon="7.8753233"><ele>355.5</ele><time>2026-04-11T08:23:58.445Z</time></trkpt><trkpt lat="44.7500767" lon="7.8754067"><ele>356.0</ele><time>2026-04-11T08:23:59.445Z</time></trkpt><trkpt lat="44.7500517" lon="7.8754933"><ele>356.5</ele><time>2026-04-11T08:24:00.445Z</time></trkpt><trkpt lat="44.7500333" lon="7.875585"><ele>357.0</ele><time>2026-04-11T08:24:01.445Z</time></trkpt><trkpt lat="44.75002" lon="7.8756783"><ele>357.5</ele><time>2026-04-11T08:24:02.445Z</time></trkpt><trkpt lat="44.7499967" lon="7.8758583"><ele>358.0</ele><time>2026-04-11T08:24:04.446Z</time></trkpt><trkpt lat="44.749985" lon="7.8759533"><ele>358.00000000000006</ele><time>2026-04-11T08:24:05.445Z</time></trkpt><trkpt lat="44.7499667" lon="7.87605"><ele>358.0</ele><time>2026-04-11T08:24:06.445Z</time></trkpt><trkpt lat="44.7499383" lon="7.87614"><ele>358.0</ele><time>2026-04-11T08:24:07.445Z</time></trkpt><trkpt lat="44.7499133" lon="7.8762367"><ele>358.0</ele><time>2026-04-11T08:24:08.445Z</time></trkpt><trkpt lat="44.7498933" lon="7.8763333"><ele>358.0</ele><time>2026-04-11T08:24:09.445Z</time></trkpt><trkpt lat="44.7498833" lon="7.8764283"><ele>358.00000000000006</ele><time>2026-04-11T08:24:10.445Z</time></trkpt><trkpt lat="44.7498683" lon="7.8765183"><ele>358.0</ele><time>2026-04-11T08:24:11.445Z</time></trkpt><trkpt lat="44.7498533" lon="7.8766083"><ele>359.16666666666663</ele><time>2026-04-11T08:24:12.445Z</time></trkpt><trkpt lat="44.7498233" lon="7.87678"><ele>360.3333333333333</ele><time>2026-04-11T08:24:14.445Z</time></trkpt><trkpt lat="44.7497767" lon="7.87695"><ele>361.5</ele><time>2026-04-11T08:24:16.446Z</time></trkpt><trkpt lat="44.7497583" lon="7.877035"><ele>362.6666666666667</ele><time>2026-04-11T08:24:17.445Z</time></trkpt><trkpt lat="44.7497317" lon="7.87712"><ele>363.83333333333337</ele><time>2026-04-11T08:24:18.445Z</time></trkpt><trkpt lat="44.7497117" lon="7.877205"><ele>365.0</ele><time>2026-04-11T08:24:19.445Z</time></trkpt><trkpt lat="44.74966" lon="7.8773633"><ele>365.0</ele><time>2026-04-11T08:24:21.445Z</time></trkpt><trkpt lat="44.74961" lon="7.8775167"><ele>365.0</ele><time>2026-04-11T08:24:23.445Z</time></trkpt><trkpt lat="44.7495783" lon="7.877595"><ele>365.0</ele><time>2026-04-11T08:24:24.445Z</time></trkpt><trkpt lat="44.749505" lon="7.87774"><ele>365.0</ele><time>2026-04-11T08:24:26.445Z</time></trkpt><trkpt lat="44.749475" lon="7.8778233"><ele>365.0</ele><time>2026-04-11T08:24:27.445Z</time></trkpt><trkpt lat="44.7494733" lon="7.877995"><ele>366.0</ele><time>2026-04-11T08:24:29.445Z</time></trkpt><trkpt lat="44.7494983" lon="7.8780767"><ele>367.0</ele><time>2026-04-11T08:24:30.445Z</time></trkpt><trkpt lat="44.7495417" lon="7.8782233"><ele>368.0</ele><time>2026-04-11T08:24:32.445Z</time></trkpt><trkpt lat="44.7495633" lon="7.878365"><ele>369.0</ele><time>2026-04-11T08:24:34.445Z</time></trkpt><trkpt lat="44.7495733" lon="7.8785317"><ele>370.0</ele><time>2026-04-11T08:24:36.445Z</time></trkpt><trkpt lat="44.7495783" lon="7.8786217"><ele>370.5</ele><time>2026-04-11T08:24:37.445Z</time></trkpt><trkpt lat="44.7495733" lon="7.8787917"><ele>371.0</ele><time>2026-04-11T08:24:39.445Z</time></trkpt><trkpt lat="44.749545" lon="7.8789583"><ele>371.5</ele><time>2026-04-11T08:24:41.445Z</time></trkpt><trkpt lat="44.7495133" lon="7.879115"><ele>372.0</ele><time>2026-04-11T08:24:43.445Z</time></trkpt><trkpt lat="44.7494883" lon="7.8792817"><ele>372.25</ele><time>2026-04-11T08:24:45.445Z</time></trkpt><trkpt lat="44.74948" lon="7.879445"><ele>372.5</ele><time>2026-04-11T08:24:47.445Z</time></trkpt><trkpt lat="44.749475" lon="7.8796117"><ele>372.75</ele><time>2026-04-11T08:24:49.445Z</time></trkpt><trkpt lat="44.7494733" lon="7.879775"><ele>373.0</ele><time>2026-04-11T08:24:51.445Z</time></trkpt><trkpt lat="44.7494733" lon="7.8799433"><ele>372.25</ele><time>2026-04-11T08:24:53.445Z</time></trkpt><trkpt lat="44.7494733" lon="7.8801033"><ele>371.5</ele><time>2026-04-11T08:24:55.445Z</time></trkpt><trkpt lat="44.749475" lon="7.8802683"><ele>370.75</ele><time>2026-04-11T08:24:57.445Z</time></trkpt><trkpt lat="44.7494883" lon="7.8804383"><ele>370.0</ele><time>2026-04-11T08:24:59.445Z</time></trkpt><trkpt lat="44.7494933" lon="7.880605"><ele>370.0</ele><time>2026-04-11T08:25:01.445Z</time></trkpt><trkpt lat="44.7494917" lon="7.8807633"><ele>370.0</ele><time>2026-04-11T08:25:03.445Z</time></trkpt><trkpt lat="44.74947" lon="7.88092"><ele>370.0</ele><time>2026-04-11T08:25:05.445Z</time></trkpt><trkpt lat="44.7494317" lon="7.881065"><ele>370.0</ele><time>2026-04-11T08:25:07.445Z</time></trkpt><trkpt lat="44.749385" lon="7.8812"><ele>370.0</ele><time>2026-04-11T08:25:09.445Z</time></trkpt><trkpt lat="44.7493233" lon="7.88133"><ele>369.6</ele><time>2026-04-11T08:25:11.445Z</time></trkpt><trkpt lat="44.749265" lon="7.8814633"><ele>369.2</ele><time>2026-04-11T08:25:13.445Z</time></trkpt><trkpt lat="44.749215" lon="7.8815817"><ele>368.79999999999995</ele><time>2026-04-11T08:25:15.445Z</time></trkpt><trkpt lat="44.7491717" lon="7.8817183"><ele>368.4</ele><time>2026-04-11T08:25:17.445Z</time></trkpt><trkpt lat="44.7491267" lon="7.8818467"><ele>368.0</ele><time>2026-04-11T08:25:19.445Z</time></trkpt><trkpt lat="44.749075" lon="7.88194"><ele>369.59999999999997</ele><time>2026-04-11T08:25:21.445Z</time></trkpt><trkpt lat="44.7490117" lon="7.8820317"><ele>371.2</ele><time>2026-04-11T08:25:23.445Z</time></trkpt><trkpt lat="44.748955" lon="7.882115"><ele>372.8</ele><time>2026-04-11T08:25:25.445Z</time></trkpt><trkpt lat="44.7488633" lon="7.8821983"><ele>374.4</ele><time>2026-04-11T08:25:27.445Z</time></trkpt><trkpt lat="44.7487733" lon="7.882265"><ele>376.0</ele><time>2026-04-11T08:25:29.445Z</time></trkpt><trkpt lat="44.7486833" lon="7.8823233"><ele>376.0</ele><time>2026-04-11T08:25:31.445Z</time></trkpt><trkpt lat="44.7485967" lon="7.8823983"><ele>376.0</ele><time>2026-04-11T08:25:33.445Z</time></trkpt><trkpt lat="44.7485217" lon="7.88249"><ele>376.0</ele><time>2026-04-11T08:25:35.445Z</time></trkpt><trkpt lat="44.748445" lon="7.8825833"><ele>376.0</ele><time>2026-04-11T08:25:37.445Z</time></trkpt><trkpt lat="44.748375" lon="7.88267"><ele>376.0</ele><time>2026-04-11T08:25:39.445Z</time></trkpt><trkpt lat="44.748305" lon="7.8827767"><ele>376.6</ele><time>2026-04-11T08:25:41.445Z</time></trkpt><trkpt lat="44.7482467" lon="7.8828867"><ele>377.20000000000005</ele><time>2026-04-11T08:25:43.445Z</time></trkpt><trkpt lat="44.7481917" lon="7.8829967"><ele>377.79999999999995</ele><time>2026-04-11T08:25:45.445Z</time></trkpt><trkpt lat="44.7481467" lon="7.883105"><ele>378.4</ele><time>2026-04-11T08:25:47.445Z</time></trkpt><trkpt lat="44.7481267" lon="7.8832483"><ele>379.0</ele><time>2026-04-11T08:25:49.445Z</time></trkpt><trkpt lat="44.7480967" lon="7.88337"><ele>380.7142857142857</ele><time>2026-04-11T08:25:51.445Z</time></trkpt><trkpt lat="44.74807" lon="7.8834867"><ele>382.42857142857144</ele><time>2026-04-11T08:25:53.445Z</time></trkpt><trkpt lat="44.7480517" lon="7.8835933"><ele>384.1428571428571</ele><time>2026-04-11T08:25:55.445Z</time></trkpt><trkpt lat="44.748025" lon="7.8836983"><ele>385.8571428571429</ele><time>2026-04-11T08:25:57.445Z</time></trkpt><trkpt lat="44.748005" lon="7.8837883"><ele>387.57142857142856</ele><time>2026-04-11T08:25:59.445Z</time></trkpt><trkpt lat="44.74797" lon="7.883875"><ele>389.2857142857143</ele><time>2026-04-11T08:26:01.446Z</time></trkpt><trkpt lat="44.7479333" lon="7.88395"><ele>391.0</ele><time>2026-04-11T08:26:03.445Z</time></trkpt><trkpt lat="44.747875" lon="7.8840517"><ele>391.00000000000006</ele><time>2026-04-11T08:26:06.445Z</time></trkpt><trkpt lat="44.7478233" lon="7.8841517"><ele>391.0</ele><time>2026-04-11T08:26:09.445Z</time></trkpt><trkpt lat="44.7477733" lon="7.8842517"><ele>391.0</ele><time>2026-04-11T08:26:12.445Z</time></trkpt><trkpt lat="44.747725" lon="7.8843567"><ele>391.0</ele><time>2026-04-11T08:26:15.445Z</time></trkpt><trkpt lat="44.7476833" lon="7.8844683"><ele>391.00000000000006</ele><time>2026-04-11T08:26:18.445Z</time></trkpt><trkpt lat="44.7476483" lon="7.88457"><ele>391.0</ele><time>2026-04-11T08:26:21.445Z</time></trkpt><trkpt lat="44.7475983" lon="7.8846583"><ele>391.1428571428571</ele><time>2026-04-11T08:26:24.445Z</time></trkpt><trkpt lat="44.74757" lon="7.88474"><ele>391.2857142857143</ele><time>2026-04-11T08:26:26.445Z</time></trkpt><trkpt lat="44.7475383" lon="7.8848167"><ele>391.42857142857144</ele><time>2026-04-11T08:26:28.445Z</time></trkpt><trkpt lat="44.747485" lon="7.884905"><ele>391.57142857142856</ele><time>2026-04-11T08:26:31.445Z</time></trkpt><trkpt lat="44.7474283" lon="7.8849533"><ele>391.7142857142857</ele><time>2026-04-11T08:26:34.445Z</time></trkpt><trkpt lat="44.7473433" lon="7.88499"><ele>391.85714285714283</ele><time>2026-04-11T08:26:37.445Z</time></trkpt><trkpt lat="44.74728" lon="7.8850133"><ele>392.0</ele><time>2026-04-11T08:26:39.445Z</time></trkpt><trkpt lat="44.7471867" lon="7.88503"><ele>391.99999999999994</ele><time>2026-04-11T08:26:42.445Z</time></trkpt><trkpt lat="44.7471233" lon="7.8850333"><ele>392.0</ele><time>2026-04-11T08:26:44.446Z</time></trkpt><trkpt lat="44.7470417" lon="7.8850383"><ele>392.0</ele><time>2026-04-11T08:26:47.445Z</time></trkpt><trkpt lat="44.7469583" lon="7.885065"><ele>392.0</ele><time>2026-04-11T08:26:50.445Z</time></trkpt><trkpt lat="44.7469017" lon="7.8851583"><ele>391.99999999999994</ele><time>2026-04-11T08:26:53.445Z</time></trkpt><trkpt lat="44.7468933" lon="7.8852583"><ele>392.0</ele><time>2026-04-11T08:26:56.445Z</time></trkpt><trkpt lat="44.7469217" lon="7.88538"><ele>393.8333333333333</ele><time>2026-04-11T08:26:59.445Z</time></trkpt><trkpt lat="44.74695" lon="7.8854617"><ele>395.66666666666663</ele><time>2026-04-11T08:27:01.445Z</time></trkpt><trkpt lat="44.7470017" lon="7.8855617"><ele>397.5</ele><time>2026-04-11T08:27:04.445Z</time></trkpt><trkpt lat="44.7470617" lon="7.8856683"><ele>399.33333333333337</ele><time>2026-04-11T08:27:07.445Z</time></trkpt><trkpt lat="44.7471083" lon="7.8857433"><ele>401.1666666666667</ele><time>2026-04-11T08:27:09.445Z</time></trkpt><trkpt lat="44.747145" lon="7.8858217"><ele>403.0</ele><time>2026-04-11T08:27:11.445Z</time></trkpt><trkpt lat="44.7471867" lon="7.8859333"><ele>404.0</ele><time>2026-04-11T08:27:14.445Z</time></trkpt><trkpt lat="44.7472167" lon="7.8860217"><ele>405.0</ele><time>2026-04-11T08:27:16.446Z</time></trkpt><trkpt lat="44.7472417" lon="7.8861133"><ele>406.0</ele><time>2026-04-11T08:27:18.445Z</time></trkpt><trkpt lat="44.7472667" lon="7.8862083"><ele>407.0</ele><time>2026-04-11T08:27:20.445Z</time></trkpt><trkpt lat="44.7472767" lon="7.8863017"><ele>408.0</ele><time>2026-04-11T08:27:22.445Z</time></trkpt><trkpt lat="44.7472867" lon="7.8863933"><ele>409.0</ele><time>2026-04-11T08:27:24.445Z</time></trkpt><trkpt lat="44.7472983" lon="7.8865217"><ele>410.0</ele><time>2026-04-11T08:27:27.445Z</time></trkpt><trkpt lat="44.7473067" lon="7.8866467"><ele>409.42857142857144</ele><time>2026-04-11T08:27:30.445Z</time></trkpt><trkpt lat="44.7473183" lon="7.8867633"><ele>408.85714285714283</ele><time>2026-04-11T08:27:33.445Z</time></trkpt><trkpt lat="44.747325" lon="7.8868883"><ele>408.2857142857143</ele><time>2026-04-11T08:27:36.445Z</time></trkpt><trkpt lat="44.74732" lon="7.8869783"><ele>407.7142857142857</ele><time>2026-04-11T08:27:38.445Z</time></trkpt><trkpt lat="44.7473067" lon="7.88707"><ele>407.1428571428571</ele><time>2026-04-11T08:27:40.445Z</time></trkpt><trkpt lat="44.7472933" lon="7.8871567"><ele>406.57142857142856</ele><time>2026-04-11T08:27:42.445Z</time></trkpt><trkpt lat="44.7472617" lon="7.8872633"><ele>406.0</ele><time>2026-04-11T08:27:45.445Z</time></trkpt><trkpt lat="44.747245" lon="7.8873667"><ele>406.00000000000006</ele><time>2026-04-11T08:27:48.445Z</time></trkpt><trkpt lat="44.7472817" lon="7.8872867"><ele>406.0</ele><time>2026-04-11T08:28:26.445Z</time></trkpt><trkpt lat="44.74733" lon="7.88717"><ele>406.0</ele><time>2026-04-11T08:28:29.445Z</time></trkpt><trkpt lat="44.7473617" lon="7.8870483"><ele>406.0</ele><time>2026-04-11T08:28:31.445Z</time></trkpt><trkpt lat="44.7473933" lon="7.8869133"><ele>406.00000000000006</ele><time>2026-04-11T08:28:33.445Z</time></trkpt><trkpt lat="44.7474217" lon="7.886795"><ele>406.0</ele><time>2026-04-11T08:28:35.445Z</time></trkpt><trkpt lat="44.7474533" lon="7.8866967"><ele>406.33333333333337</ele><time>2026-04-11T08:28:37.445Z</time></trkpt><trkpt lat="44.7474917" lon="7.8865883"><ele>406.6666666666667</ele><time>2026-04-11T08:28:39.445Z</time></trkpt><trkpt lat="44.7475333" lon="7.886485"><ele>407.0</ele><time>2026-04-11T08:28:41.445Z</time></trkpt><trkpt lat="44.7475867" lon="7.886395"><ele>407.33333333333337</ele><time>2026-04-11T08:28:43.445Z</time></trkpt><trkpt lat="44.7476433" lon="7.88631"><ele>407.6666666666667</ele><time>2026-04-11T08:28:45.445Z</time></trkpt><trkpt lat="44.747705" lon="7.8862117"><ele>408.0</ele><time>2026-04-11T08:28:47.445Z</time></trkpt><trkpt lat="44.7477817" lon="7.8861017"><ele>408.0</ele><time>2026-04-11T08:28:49.445Z</time></trkpt><trkpt lat="44.74786" lon="7.8859917"><ele>408.0</ele><time>2026-04-11T08:28:51.445Z</time></trkpt><trkpt lat="44.7479483" lon="7.8858767"><ele>408.0</ele><time>2026-04-11T08:28:53.446Z</time></trkpt><trkpt lat="44.748025" lon="7.88574"><ele>408.0</ele><time>2026-04-11T08:28:55.445Z</time></trkpt><trkpt lat="44.748065" lon="7.8856533"><ele>408.0</ele><time>2026-04-11T08:28:56.445Z</time></trkpt><trkpt lat="44.7481017" lon="7.88556"><ele>407.8571428571429</ele><time>2026-04-11T08:28:57.445Z</time></trkpt><trkpt lat="44.7481367" lon="7.8854783"><ele>407.7142857142857</ele><time>2026-04-11T08:28:58.445Z</time></trkpt><trkpt lat="44.74817" lon="7.8854"><ele>407.57142857142856</ele><time>2026-04-11T08:28:59.445Z</time></trkpt><trkpt lat="44.7482133" lon="7.8853167"><ele>407.42857142857144</ele><time>2026-04-11T08:29:00.445Z</time></trkpt><trkpt lat="44.7482567" lon="7.8852333"><ele>407.2857142857143</ele><time>2026-04-11T08:29:01.445Z</time></trkpt><trkpt lat="44.7483017" lon="7.8851517"><ele>407.14285714285717</ele><time>2026-04-11T08:29:02.445Z</time></trkpt><trkpt lat="44.7483467" lon="7.885085"><ele>407.0</ele><time>2026-04-11T08:29:03.446Z</time></trkpt><trkpt lat="44.7483917" lon="7.8850217"><ele>406.66666666666663</ele><time>2026-04-11T08:29:04.445Z</time></trkpt><trkpt lat="44.74844" lon="7.8849567"><ele>406.3333333333333</ele><time>2026-04-11T08:29:05.445Z</time></trkpt><trkpt lat="44.7484933" lon="7.8848967"><ele>406.0</ele><time>2026-04-11T08:29:06.445Z</time></trkpt><trkpt lat="44.7485433" lon="7.8848383"><ele>405.66666666666663</ele><time>2026-04-11T08:29:07.445Z</time></trkpt><trkpt lat="44.7485933" lon="7.8847833"><ele>405.3333333333333</ele><time>2026-04-11T08:29:08.445Z</time></trkpt><trkpt lat="44.7487" lon="7.884685"><ele>405.0</ele><time>2026-04-11T08:29:10.446Z</time></trkpt><trkpt lat="44.7487583" lon="7.8846317"><ele>405.0</ele><time>2026-04-11T08:29:11.445Z</time></trkpt><trkpt lat="44.74882" lon="7.8845783"><ele>405.0</ele><time>2026-04-11T08:29:12.445Z</time></trkpt><trkpt lat="44.748895" lon="7.884535"><ele>405.0</ele><time>2026-04-11T08:29:13.445Z</time></trkpt><trkpt lat="44.7489683" lon="7.8845017"><ele>405.0</ele><time>2026-04-11T08:29:14.445Z</time></trkpt><trkpt lat="44.7490433" lon="7.8844767"><ele>405.0</ele><time>2026-04-11T08:29:15.445Z</time></trkpt><trkpt lat="44.7491217" lon="7.88446"><ele>405.0</ele><time>2026-04-11T08:29:16.445Z</time></trkpt><trkpt lat="44.7491883" lon="7.88445"><ele>405.0</ele><time>2026-04-11T08:29:17.445Z</time></trkpt><trkpt lat="44.749255" lon="7.884445"><ele>405.0</ele><time>2026-04-11T08:29:18.445Z</time></trkpt><trkpt lat="44.7493217" lon="7.88444"><ele>405.0</ele><time>2026-04-11T08:29:19.445Z</time></trkpt><trkpt lat="44.7493867" lon="7.8844367"><ele>405.0</ele><time>2026-04-11T08:29:20.445Z</time></trkpt><trkpt lat="44.74945" lon="7.884435"><ele>405.0</ele><time>2026-04-11T08:29:21.445Z</time></trkpt><trkpt lat="44.7495683" lon="7.8844367"><ele>405.0</ele><time>2026-04-11T08:29:23.445Z</time></trkpt><trkpt lat="44.7496867" lon="7.8844233"><ele>404.6666666666667</ele><time>2026-04-11T08:29:25.445Z</time></trkpt><trkpt lat="44.749765" lon="7.8844333"><ele>404.33333333333337</ele><time>2026-04-11T08:29:26.445Z</time></trkpt><trkpt lat="44.7498767" lon="7.8844433"><ele>404.0</ele><time>2026-04-11T08:29:28.445Z</time></trkpt><trkpt lat="44.74997" lon="7.8844483"><ele>403.6666666666667</ele><time>2026-04-11T08:29:30.445Z</time></trkpt><trkpt lat="44.75005" lon="7.8844483"><ele>403.33333333333337</ele><time>2026-04-11T08:29:32.445Z</time></trkpt><trkpt lat="44.7501267" lon="7.884455"><ele>403.0</ele><time>2026-04-11T08:29:34.445Z</time></trkpt><trkpt lat="44.7502083" lon="7.8844583"><ele>402.4</ele><time>2026-04-11T08:29:36.445Z</time></trkpt><trkpt lat="44.7503117" lon="7.8844667"><ele>401.79999999999995</ele><time>2026-04-11T08:29:38.445Z</time></trkpt><trkpt lat="44.7503967" lon="7.884465"><ele>401.2</ele><time>2026-04-11T08:29:40.445Z</time></trkpt><trkpt lat="44.7504883" lon="7.884445"><ele>400.6</ele><time>2026-04-11T08:29:42.445Z</time></trkpt><trkpt lat="44.750585" lon="7.8844133"><ele>400.0</ele><time>2026-04-11T08:29:44.445Z</time></trkpt><trkpt lat="44.7506833" lon="7.8843483"><ele>400.0</ele><time>2026-04-11T08:29:46.445Z</time></trkpt><trkpt lat="44.7507733" lon="7.8842683"><ele>400.0</ele><time>2026-04-11T08:29:48.445Z</time></trkpt><trkpt lat="44.7508617" lon="7.8842017"><ele>400.0</ele><time>2026-04-11T08:29:50.445Z</time></trkpt><trkpt lat="44.7509233" lon="7.8841317"><ele>400.0</ele><time>2026-04-11T08:29:52.445Z</time></trkpt><trkpt lat="44.7509867" lon="7.884065"><ele>400.0</ele><time>2026-04-11T08:29:54.445Z</time></trkpt><trkpt lat="44.75107" lon="7.8840233"><ele>402.6</ele><time>2026-04-11T08:29:56.445Z</time></trkpt><trkpt lat="44.751155" lon="7.8839833"><ele>405.2</ele><time>2026-04-11T08:29:58.445Z</time></trkpt><trkpt lat="44.7512417" lon="7.8839367"><ele>407.79999999999995</ele><time>2026-04-11T08:30:00.445Z</time></trkpt><trkpt lat="44.7513267" lon="7.8838867"><ele>410.4</ele><time>2026-04-11T08:30:02.445Z</time></trkpt><trkpt lat="44.751415" lon="7.88383"><ele>413.0</ele><time>2026-04-11T08:30:04.445Z</time></trkpt><trkpt lat="44.7515" lon="7.883775"><ele>413.0</ele><time>2026-04-11T08:30:06.445Z</time></trkpt><trkpt lat="44.75158" lon="7.8837167"><ele>413.0</ele><time>2026-04-11T08:30:08.446Z</time></trkpt><trkpt lat="44.751655" lon="7.883655"><ele>413.0</ele><time>2026-04-11T08:30:10.445Z</time></trkpt><trkpt lat="44.751735" lon="7.88359"><ele>413.0</ele><time>2026-04-11T08:30:12.445Z</time></trkpt><trkpt lat="44.7518083" lon="7.8835117"><ele>413.0</ele><time>2026-04-11T08:30:14.445Z</time></trkpt><trkpt lat="44.7518817" lon="7.8834267"><ele>413.49999999999994</ele><time>2026-04-11T08:30:16.445Z</time></trkpt><trkpt lat="44.7519433" lon="7.883335"><ele>414.0</ele><time>2026-04-11T08:30:18.445Z</time></trkpt><trkpt lat="44.7519933" lon="7.8832267"><ele>414.5</ele><time>2026-04-11T08:30:20.445Z</time></trkpt><trkpt lat="44.752055" lon="7.88309"><ele>415.0</ele><time>2026-04-11T08:30:22.445Z</time></trkpt><trkpt lat="44.7520883" lon="7.8830117"><ele>415.49999999999994</ele><time>2026-04-11T08:30:23.445Z</time></trkpt><trkpt lat="44.7521133" lon="7.882925"><ele>416.0</ele><time>2026-04-11T08:30:24.445Z</time></trkpt><trkpt lat="44.7521433" lon="7.882845"><ele>416.0</ele><time>2026-04-11T08:30:25.445Z</time></trkpt><trkpt lat="44.7521767" lon="7.882765"><ele>416.0</ele><time>2026-04-11T08:30:26.445Z</time></trkpt><trkpt lat="44.75223" lon="7.8826133"><ele>416.0</ele><time>2026-04-11T08:30:28.445Z</time></trkpt><trkpt lat="44.7522517" lon="7.88248"><ele>416.0</ele><time>2026-04-11T08:30:30.445Z</time></trkpt><trkpt lat="44.752205" lon="7.8823367"><ele>416.0</ele><time>2026-04-11T08:30:32.445Z</time></trkpt><trkpt lat="44.7521583" lon="7.8822083"><ele>417.20000000000005</ele><time>2026-04-11T08:30:34.445Z</time></trkpt><trkpt lat="44.752125" lon="7.8820817"><ele>418.40000000000003</ele><time>2026-04-11T08:30:36.445Z</time></trkpt><trkpt lat="44.752115" lon="7.8819233"><ele>419.6</ele><time>2026-04-11T08:30:38.445Z</time></trkpt><trkpt lat="44.7521083" lon="7.8817617"><ele>420.8</ele><time>2026-04-11T08:30:40.445Z</time></trkpt><trkpt lat="44.752105" lon="7.8815967"><ele>422.0</ele><time>2026-04-11T08:30:42.445Z</time></trkpt><trkpt lat="44.7521217" lon="7.8814333"><ele>421.99999999999994</ele><time>2026-04-11T08:30:44.445Z</time></trkpt><trkpt lat="44.7521467" lon="7.88128"><ele>422.0</ele><time>2026-04-11T08:30:46.446Z</time></trkpt><trkpt lat="44.7521683" lon="7.8811967"><ele>422.0</ele><time>2026-04-11T08:30:47.445Z</time></trkpt><trkpt lat="44.7521933" lon="7.8811133"><ele>422.0</ele><time>2026-04-11T08:30:48.445Z</time></trkpt><trkpt lat="44.7522217" lon="7.8810183"><ele>421.99999999999994</ele><time>2026-04-11T08:30:49.445Z</time></trkpt><trkpt lat="44.752245" lon="7.8809233"><ele>422.0</ele><time>2026-04-11T08:30:50.445Z</time></trkpt><trkpt lat="44.7522717" lon="7.8808233"><ele>421.16666666666663</ele><time>2026-04-11T08:30:51.445Z</time></trkpt><trkpt lat="44.7522983" lon="7.8807183"><ele>420.3333333333333</ele><time>2026-04-11T08:30:52.445Z</time></trkpt><trkpt lat="44.7523233" lon="7.88062"><ele>419.5</ele><time>2026-04-11T08:30:53.445Z</time></trkpt><trkpt lat="44.7523633" lon="7.880475"><ele>418.66666666666663</ele><time>2026-04-11T08:30:55.445Z</time></trkpt><trkpt lat="44.7524033" lon="7.8804"><ele>417.8333333333333</ele><time>2026-04-11T08:30:57.445Z</time></trkpt><trkpt lat="44.7524633" lon="7.880345"><ele>417.0</ele><time>2026-04-11T08:30:59.445Z</time></trkpt><trkpt lat="44.7525717" lon="7.88028"><ele>417.0</ele><time>2026-04-11T08:31:01.445Z</time></trkpt><trkpt lat="44.7526367" lon="7.8802417"><ele>417.0</ele><time>2026-04-11T08:31:02.445Z</time></trkpt><trkpt lat="44.7527617" lon="7.880205"><ele>417.0</ele><time>2026-04-11T08:31:04.445Z</time></trkpt><trkpt lat="44.7528267" lon="7.880195"><ele>417.0</ele><time>2026-04-11T08:31:05.445Z</time></trkpt><trkpt lat="44.7528917" lon="7.8801733"><ele>417.0</ele><time>2026-04-11T08:31:06.445Z</time></trkpt><trkpt lat="44.7529583" lon="7.88015"><ele>417.0</ele><time>2026-04-11T08:31:07.445Z</time></trkpt><trkpt lat="44.7530233" lon="7.88012"><ele>414.7142857142857</ele><time>2026-04-11T08:31:08.445Z</time></trkpt><trkpt lat="44.753085" lon="7.8800767"><ele>412.4285714285714</ele><time>2026-04-11T08:31:09.445Z</time></trkpt><trkpt lat="44.7531383" lon="7.880025"><ele>410.1428571428571</ele><time>2026-04-11T08:31:10.445Z</time></trkpt><trkpt lat="44.7531783" lon="7.87995"><ele>407.8571428571429</ele><time>2026-04-11T08:31:11.445Z</time></trkpt><trkpt lat="44.7532167" lon="7.8798567"><ele>405.57142857142856</ele><time>2026-04-11T08:31:12.445Z</time></trkpt><trkpt lat="44.7532367" lon="7.87976"><ele>403.2857142857143</ele><time>2026-04-11T08:31:13.445Z</time></trkpt><trkpt lat="44.75326" lon="7.8796733"><ele>401.0</ele><time>2026-04-11T08:31:14.445Z</time></trkpt><trkpt lat="44.7533117" lon="7.8795233"><ele>401.0</ele><time>2026-04-11T08:31:16.445Z</time></trkpt><trkpt lat="44.7533533" lon="7.879355"><ele>401.0</ele><time>2026-04-11T08:31:18.445Z</time></trkpt><trkpt lat="44.7533733" lon="7.8792683"><ele>401.0</ele><time>2026-04-11T08:31:19.445Z</time></trkpt><trkpt lat="44.7534183" lon="7.8791"><ele>401.0</ele><time>2026-04-11T08:31:21.445Z</time></trkpt><trkpt lat="44.7534433" lon="7.8790183"><ele>401.0</ele><time>2026-04-11T08:31:22.445Z</time></trkpt><trkpt lat="44.7534917" lon="7.878875"><ele>399.8</ele><time>2026-04-11T08:31:24.445Z</time></trkpt><trkpt lat="44.7535417" lon="7.878725"><ele>398.6</ele><time>2026-04-11T08:31:26.445Z</time></trkpt><trkpt lat="44.7535933" lon="7.8785833"><ele>397.4</ele><time>2026-04-11T08:31:28.445Z</time></trkpt><trkpt lat="44.75367" lon="7.8784533"><ele>396.2</ele><time>2026-04-11T08:31:30.445Z</time></trkpt><trkpt lat="44.75372" lon="7.87839"><ele>395.0</ele><time>2026-04-11T08:31:31.445Z</time></trkpt><trkpt lat="44.7537733" lon="7.8783333"><ele>397.4</ele><time>2026-04-11T08:31:32.445Z</time></trkpt><trkpt lat="44.7538667" lon="7.87823"><ele>399.8</ele><time>2026-04-11T08:31:34.445Z</time></trkpt><trkpt lat="44.7539617" lon="7.8781367"><ele>402.20000000000005</ele><time>2026-04-11T08:31:36.445Z</time></trkpt><trkpt lat="44.7540333" lon="7.87804"><ele>404.6</ele><time>2026-04-11T08:31:38.445Z</time></trkpt><trkpt lat="44.7540783" lon="7.8779267"><ele>407.0</ele><time>2026-04-11T08:31:40.445Z</time></trkpt><trkpt lat="44.7541317" lon="7.8777883"><ele>406.99999999999994</ele><time>2026-04-11T08:31:42.445Z</time></trkpt><trkpt lat="44.7541933" lon="7.87764"><ele>407.0</ele><time>2026-04-11T08:31:44.445Z</time></trkpt><trkpt lat="44.7542333" lon="7.877545"><ele>407.0</ele><time>2026-04-11T08:31:45.445Z</time></trkpt><trkpt lat="44.7542717" lon="7.8774483"><ele>407.0</ele><time>2026-04-11T08:31:46.445Z</time></trkpt><trkpt lat="44.75431" lon="7.877345"><ele>406.99999999999994</ele><time>2026-04-11T08:31:47.445Z</time></trkpt><trkpt lat="44.7543517" lon="7.8772367"><ele>407.0</ele><time>2026-04-11T08:31:48.445Z</time></trkpt><trkpt lat="44.7543867" lon="7.8771383"><ele>408.16666666666663</ele><time>2026-04-11T08:31:49.445Z</time></trkpt><trkpt lat="44.7544217" lon="7.87704"><ele>409.3333333333333</ele><time>2026-04-11T08:31:50.445Z</time></trkpt><trkpt lat="44.7544517" lon="7.87695"><ele>410.5</ele><time>2026-04-11T08:31:51.445Z</time></trkpt><trkpt lat="44.7544967" lon="7.87686"><ele>411.66666666666663</ele><time>2026-04-11T08:31:52.445Z</time></trkpt><trkpt lat="44.7545317" lon="7.876775"><ele>412.8333333333333</ele><time>2026-04-11T08:31:53.445Z</time></trkpt><trkpt lat="44.7545617" lon="7.8766967"><ele>414.0</ele><time>2026-04-11T08:31:54.445Z</time></trkpt><trkpt lat="44.7545667" lon="7.8765317"><ele>414.00000000000006</ele><time>2026-04-11T08:31:56.445Z</time></trkpt><trkpt lat="44.7545767" lon="7.8764317"><ele>414.0</ele><time>2026-04-11T08:31:57.445Z</time></trkpt><trkpt lat="44.7545833" lon="7.87633"><ele>414.0</ele><time>2026-04-11T08:31:58.445Z</time></trkpt><trkpt lat="44.75459" lon="7.8762233"><ele>414.0</ele><time>2026-04-11T08:31:59.445Z</time></trkpt><trkpt lat="44.75458" lon="7.8761217"><ele>414.0</ele><time>2026-04-11T08:32:00.445Z</time></trkpt><trkpt lat="44.7545733" lon="7.8760167"><ele>414.00000000000006</ele><time>2026-04-11T08:32:01.445Z</time></trkpt><trkpt lat="44.7545667" lon="7.87591"><ele>414.0</ele><time>2026-04-11T08:32:02.445Z</time></trkpt><trkpt lat="44.7545667" lon="7.8758167"><ele>412.79999999999995</ele><time>2026-04-11T08:32:03.445Z</time></trkpt><trkpt lat="44.7545817" lon="7.875675"><ele>411.59999999999997</ele><time>2026-04-11T08:32:05.445Z</time></trkpt><trkpt lat="44.754585" lon="7.8755583"><ele>410.4</ele><time>2026-04-11T08:32:07.446Z</time></trkpt><trkpt lat="44.7545633" lon="7.87542"><ele>409.2</ele><time>2026-04-11T08:32:09.445Z</time></trkpt><trkpt lat="44.7545583" lon="7.8752617"><ele>408.0</ele><time>2026-04-11T08:32:11.445Z</time></trkpt><trkpt lat="44.754565" lon="7.87511"><ele>406.8333333333333</ele><time>2026-04-11T08:32:13.445Z</time></trkpt><trkpt lat="44.7545633" lon="7.87498"><ele>405.66666666666663</ele><time>2026-04-11T08:32:15.445Z</time></trkpt><trkpt lat="44.754575" lon="7.8748217"><ele>404.5</ele><time>2026-04-11T08:32:17.445Z</time></trkpt><trkpt lat="44.75458" lon="7.8747267"><ele>403.3333333333333</ele><time>2026-04-11T08:32:18.445Z</time></trkpt><trkpt lat="44.754575" lon="7.8746233"><ele>402.16666666666663</ele><time>2026-04-11T08:32:19.445Z</time></trkpt><trkpt lat="44.7545767" lon="7.874515"><ele>401.0</ele><time>2026-04-11T08:32:20.445Z</time></trkpt><trkpt lat="44.754585" lon="7.8744083"><ele>400.99999999999994</ele><time>2026-04-11T08:32:21.445Z</time></trkpt><trkpt lat="44.7545933" lon="7.874305"><ele>401.0</ele><time>2026-04-11T08:32:22.446Z</time></trkpt><trkpt lat="44.7545933" lon="7.8742017"><ele>401.0</ele><time>2026-04-11T08:32:23.445Z</time></trkpt><trkpt lat="44.75459" lon="7.874105"><ele>401.0</ele><time>2026-04-11T08:32:24.445Z</time></trkpt><trkpt lat="44.7545883" lon="7.8740133"><ele>400.99999999999994</ele><time>2026-04-11T08:32:25.445Z</time></trkpt><trkpt lat="44.7545833" lon="7.8739217"><ele>401.0</ele><time>2026-04-11T08:32:26.446Z</time></trkpt><trkpt lat="44.7546083" lon="7.8737683"><ele>401.20000000000005</ele><time>2026-04-11T08:32:28.445Z</time></trkpt><trkpt lat="44.7546733" lon="7.873685"><ele>401.40000000000003</ele><time>2026-04-11T08:32:30.446Z</time></trkpt><trkpt lat="44.7547717" lon="7.8736667"><ele>401.6</ele><time>2026-04-11T08:32:32.445Z</time></trkpt><trkpt lat="44.75489" lon="7.87358"><ele>401.8</ele><time>2026-04-11T08:32:34.445Z</time></trkpt><trkpt lat="44.75495" lon="7.8735317"><ele>402.0</ele><time>2026-04-11T08:32:35.445Z</time></trkpt><trkpt lat="44.7550183" lon="7.8734717"><ele>402.0</ele><time>2026-04-11T08:32:36.445Z</time></trkpt><trkpt lat="44.7550967" lon="7.873415"><ele>402.0</ele><time>2026-04-11T08:32:37.445Z</time></trkpt><trkpt lat="44.755165" lon="7.8733633"><ele>402.0</ele><time>2026-04-11T08:32:38.445Z</time></trkpt><trkpt lat="44.7552317" lon="7.8733233"><ele>402.0</ele><time>2026-04-11T08:32:39.445Z</time></trkpt><trkpt lat="44.755295" lon="7.8732917"><ele>402.0</ele><time>2026-04-11T08:32:40.445Z</time></trkpt><trkpt lat="44.7554067" lon="7.8732433"><ele>402.0</ele><time>2026-04-11T08:32:42.445Z</time></trkpt><trkpt lat="44.7554983" lon="7.8732117"><ele>402.3333333333333</ele><time>2026-04-11T08:32:44.445Z</time></trkpt><trkpt lat="44.7555767" lon="7.873205"><ele>402.66666666666663</ele><time>2026-04-11T08:32:46.445Z</time></trkpt><trkpt lat="44.7556867" lon="7.8731967"><ele>403.0</ele><time>2026-04-11T08:32:48.445Z</time></trkpt><trkpt lat="44.7557533" lon="7.8731883"><ele>403.3333333333333</ele><time>2026-04-11T08:32:49.445Z</time></trkpt><trkpt lat="44.7558333" lon="7.8731767"><ele>403.66666666666663</ele><time>2026-04-11T08:32:50.445Z</time></trkpt><trkpt lat="44.75591" lon="7.873165"><ele>404.0</ele><time>2026-04-11T08:32:51.445Z</time></trkpt><trkpt lat="44.755985" lon="7.8731517"><ele>404.3333333333333</ele><time>2026-04-11T08:32:52.445Z</time></trkpt><trkpt lat="44.7560667" lon="7.8731267"><ele>404.66666666666663</ele><time>2026-04-11T08:32:53.445Z</time></trkpt><trkpt lat="44.7561483" lon="7.8731033"><ele>405.0</ele><time>2026-04-11T08:32:54.445Z</time></trkpt><trkpt lat="44.7562317" lon="7.8730917"><ele>405.33333333333337</ele><time>2026-04-11T08:32:55.445Z</time></trkpt><trkpt lat="44.7563117" lon="7.8730833"><ele>405.6666666666667</ele><time>2026-04-11T08:32:56.445Z</time></trkpt><trkpt lat="44.7563867" lon="7.8730783"><ele>406.0</ele><time>2026-04-11T08:32:57.445Z</time></trkpt><trkpt lat="44.756455" lon="7.87308"><ele>406.0</ele><time>2026-04-11T08:32:58.446Z</time></trkpt><trkpt lat="44.7565233" lon="7.8730933"><ele>406.0</ele><time>2026-04-11T08:32:59.445Z</time></trkpt><trkpt lat="44.756645" lon="7.8731167"><ele>406.0</ele><time>2026-04-11T08:33:01.445Z</time></trkpt><trkpt lat="44.756755" lon="7.8731367"><ele>406.0</ele><time>2026-04-11T08:33:03.445Z</time></trkpt><trkpt lat="44.7568633" lon="7.8731567"><ele>406.0</ele><time>2026-04-11T08:33:05.445Z</time></trkpt><trkpt lat="44.7569933" lon="7.8731767"><ele>406.6</ele><time>2026-04-11T08:33:07.445Z</time></trkpt><trkpt lat="44.75706" lon="7.8731867"><ele>407.20000000000005</ele><time>2026-04-11T08:33:08.445Z</time></trkpt><trkpt lat="44.7571867" lon="7.87318"><ele>407.79999999999995</ele><time>2026-04-11T08:33:10.445Z</time></trkpt><trkpt lat="44.75725" lon="7.8731583"><ele>408.4</ele><time>2026-04-11T08:33:11.445Z</time></trkpt><trkpt lat="44.75737" lon="7.8731233"><ele>409.0</ele><time>2026-04-11T08:33:13.445Z</time></trkpt><trkpt lat="44.7574867" lon="7.8730883"><ele>409.0</ele><time>2026-04-11T08:33:15.445Z</time></trkpt><trkpt lat="44.75756" lon="7.8730783"><ele>409.0</ele><time>2026-04-11T08:33:16.445Z</time></trkpt><trkpt lat="44.7576333" lon="7.8730483"><ele>409.0</ele><time>2026-04-11T08:33:17.445Z</time></trkpt><trkpt lat="44.7576983" lon="7.8730117"><ele>409.0</ele><time>2026-04-11T08:33:18.445Z</time></trkpt><trkpt lat="44.757765" lon="7.8729783"><ele>409.0</ele><time>2026-04-11T08:33:19.445Z</time></trkpt><trkpt lat="44.757835" lon="7.8729433"><ele>409.0</ele><time>2026-04-11T08:33:20.445Z</time></trkpt><trkpt lat="44.7578967" lon="7.8728983"><ele>409.0</ele><time>2026-04-11T08:33:21.445Z</time></trkpt><trkpt lat="44.7579567" lon="7.8728433"><ele>408.83333333333337</ele><time>2026-04-11T08:33:22.445Z</time></trkpt><trkpt lat="44.7580083" lon="7.87279"><ele>408.6666666666667</ele><time>2026-04-11T08:33:23.445Z</time></trkpt><trkpt lat="44.7580967" lon="7.872665"><ele>408.5</ele><time>2026-04-11T08:33:25.445Z</time></trkpt><trkpt lat="44.758145" lon="7.8725917"><ele>408.33333333333337</ele><time>2026-04-11T08:33:26.445Z</time></trkpt><trkpt lat="44.758195" lon="7.87251"><ele>408.1666666666667</ele><time>2026-04-11T08:33:27.445Z</time></trkpt><trkpt lat="44.75824" lon="7.8724283"><ele>408.0</ele><time>2026-04-11T08:33:28.445Z</time></trkpt><trkpt lat="44.75828" lon="7.8723367"><ele>407.1666666666667</ele><time>2026-04-11T08:33:29.445Z</time></trkpt><trkpt lat="44.758315" lon="7.87224"><ele>406.33333333333337</ele><time>2026-04-11T08:33:30.445Z</time></trkpt><trkpt lat="44.758345" lon="7.872135"><ele>405.5</ele><time>2026-04-11T08:33:31.445Z</time></trkpt><trkpt lat="44.7583733" lon="7.8720333"><ele>404.6666666666667</ele><time>2026-04-11T08:33:32.445Z</time></trkpt><trkpt lat="44.7584133" lon="7.8719233"><ele>403.83333333333337</ele><time>2026-04-11T08:33:33.445Z</time></trkpt><trkpt lat="44.7584633" lon="7.8718217"><ele>403.0</ele><time>2026-04-11T08:33:34.445Z</time></trkpt><trkpt lat="44.7585167" lon="7.8717283"><ele>401.50000000000006</ele><time>2026-04-11T08:33:35.445Z</time></trkpt><trkpt lat="44.7585667" lon="7.8716533"><ele>400.0</ele><time>2026-04-11T08:33:36.445Z</time></trkpt><trkpt lat="44.7586167" lon="7.8715917"><ele>398.5</ele><time>2026-04-11T08:33:37.445Z</time></trkpt><trkpt lat="44.75869" lon="7.8714967"><ele>397.0</ele><time>2026-04-11T08:33:39.445Z</time></trkpt><trkpt lat="44.7587483" lon="7.8714133"><ele>395.50000000000006</ele><time>2026-04-11T08:33:42.445Z</time></trkpt><trkpt lat="44.75883" lon="7.8713517"><ele>394.0</ele><time>2026-04-11T08:33:48.445Z</time></trkpt><trkpt lat="44.7588067" lon="7.8712033"><ele>394.00000000000006</ele><time>2026-04-11T08:35:02.446Z</time></trkpt><trkpt lat="44.7588583" lon="7.871085"><ele>394.0</ele><time>2026-04-11T08:35:05.445Z</time></trkpt><trkpt lat="44.7588933" lon="7.8709533"><ele>394.0</ele><time>2026-04-11T08:35:07.445Z</time></trkpt><trkpt lat="44.758915" lon="7.8708533"><ele>394.0</ele><time>2026-04-11T08:35:08.444Z</time></trkpt><trkpt lat="44.7589483" lon="7.8707483"><ele>394.00000000000006</ele><time>2026-04-11T08:35:09.444Z</time></trkpt><trkpt lat="44.7589767" lon="7.870645"><ele>394.0</ele><time>2026-04-11T08:35:10.444Z</time></trkpt><trkpt lat="44.7590017" lon="7.8705467"><ele>394.0</ele><time>2026-04-11T08:35:11.444Z</time></trkpt><trkpt lat="44.7590183" lon="7.870455"><ele>394.0</ele><time>2026-04-11T08:35:12.444Z</time></trkpt><trkpt lat="44.7590317" lon="7.87029"><ele>394.0</ele><time>2026-04-11T08:35:14.444Z</time></trkpt><trkpt lat="44.759035" lon="7.8701283"><ele>394.0</ele><time>2026-04-11T08:35:16.444Z</time></trkpt><trkpt lat="44.7590733" lon="7.8699567"><ele>394.0</ele><time>2026-04-11T08:35:18.444Z</time></trkpt><trkpt lat="44.75911" lon="7.86986"><ele>394.00000000000006</ele><time>2026-04-11T08:35:19.444Z</time></trkpt><trkpt lat="44.759165" lon="7.8697617"><ele>394.0</ele><time>2026-04-11T08:35:20.444Z</time></trkpt><trkpt lat="44.7592233" lon="7.8696767"><ele>394.0</ele><time>2026-04-11T08:35:21.444Z</time></trkpt><trkpt lat="44.7592817" lon="7.8696017"><ele>394.0</ele><time>2026-04-11T08:35:22.444Z</time></trkpt><trkpt lat="44.7593417" lon="7.8695467"><ele>394.00000000000006</ele><time>2026-04-11T08:35:23.444Z</time></trkpt><trkpt lat="44.7594333" lon="7.8695017"><ele>394.0</ele><time>2026-04-11T08:35:25.444Z</time></trkpt><trkpt lat="44.7595033" lon="7.8694583"><ele>392.6666666666667</ele><time>2026-04-11T08:35:27.444Z</time></trkpt><trkpt lat="44.7595817" lon="7.8694"><ele>391.33333333333337</ele><time>2026-04-11T08:35:29.444Z</time></trkpt><trkpt lat="44.7596583" lon="7.8693767"><ele>390.0</ele><time>2026-04-11T08:35:31.444Z</time></trkpt><trkpt lat="44.75972" lon="7.8693583"><ele>388.66666666666663</ele><time>2026-04-11T08:35:33.444Z</time></trkpt><trkpt lat="44.7597567" lon="7.86928"><ele>387.3333333333333</ele><time>2026-04-11T08:35:35.444Z</time></trkpt><trkpt lat="44.7597933" lon="7.8691533"><ele>386.0</ele><time>2026-04-11T08:35:37.444Z</time></trkpt><trkpt lat="44.75984" lon="7.8690267"><ele>385.99999999999994</ele><time>2026-04-11T08:35:39.444Z</time></trkpt><trkpt lat="44.759865" lon="7.8688867"><ele>386.0</ele><time>2026-04-11T08:35:41.444Z</time></trkpt><trkpt lat="44.7598967" lon="7.868735"><ele>386.0</ele><time>2026-04-11T08:35:43.445Z</time></trkpt><trkpt lat="44.7599267" lon="7.8686333"><ele>386.0</ele><time>2026-04-11T08:35:44.444Z</time></trkpt><trkpt lat="44.7599517" lon="7.8685417"><ele>385.99999999999994</ele><time>2026-04-11T08:35:45.444Z</time></trkpt><trkpt lat="44.7599883" lon="7.8684467"><ele>386.0</ele><time>2026-04-11T08:35:46.444Z</time></trkpt><trkpt lat="44.7600317" lon="7.8683467"><ele>385.6</ele><time>2026-04-11T08:35:47.444Z</time></trkpt><trkpt lat="44.7600667" lon="7.8682633"><ele>385.20000000000005</ele><time>2026-04-11T08:35:48.444Z</time></trkpt><trkpt lat="44.760105" lon="7.8681233"><ele>384.79999999999995</ele><time>2026-04-11T08:35:50.444Z</time></trkpt><trkpt lat="44.7601167" lon="7.86797"><ele>384.4</ele><time>2026-04-11T08:35:52.444Z</time></trkpt><trkpt lat="44.7601283" lon="7.8678817"><ele>384.0</ele><time>2026-04-11T08:35:53.444Z</time></trkpt><trkpt lat="44.760165" lon="7.8677433"><ele>382.6666666666667</ele><time>2026-04-11T08:35:55.444Z</time></trkpt><trkpt lat="44.76021" lon="7.8676417"><ele>381.3333333333333</ele><time>2026-04-11T08:35:57.444Z</time></trkpt><trkpt lat="44.7602517" lon="7.8674967"><ele>380.0</ele><time>2026-04-11T08:35:59.444Z</time></trkpt><trkpt lat="44.7602883" lon="7.8673883"><ele>378.66666666666663</ele><time>2026-04-11T08:36:01.444Z</time></trkpt><trkpt lat="44.76033" lon="7.8672883"><ele>377.3333333333333</ele><time>2026-04-11T08:36:03.444Z</time></trkpt><trkpt lat="44.760365" lon="7.8671967"><ele>376.0</ele><time>2026-04-11T08:36:05.444Z</time></trkpt><trkpt lat="44.760405" lon="7.867125"><ele>375.5</ele><time>2026-04-11T08:36:07.444Z</time></trkpt><trkpt lat="44.76043" lon="7.866995"><ele>375.0</ele><time>2026-04-11T08:36:09.444Z</time></trkpt><trkpt lat="44.76045" lon="7.86691"><ele>374.5</ele><time>2026-04-11T08:36:10.444Z</time></trkpt><trkpt lat="44.7604783" lon="7.86681"><ele>374.0</ele><time>2026-04-11T08:36:11.444Z</time></trkpt><trkpt lat="44.760535" lon="7.8666733"><ele>373.5</ele><time>2026-04-11T08:36:13.444Z</time></trkpt><trkpt lat="44.7605833" lon="7.8665733"><ele>373.0</ele><time>2026-04-11T08:36:15.444Z</time></trkpt><trkpt lat="44.760595" lon="7.8664417"><ele>372.3333333333333</ele><time>2026-04-11T08:36:17.444Z</time></trkpt><trkpt lat="44.7605783" lon="7.86632"><ele>371.66666666666663</ele><time>2026-04-11T08:36:19.444Z</time></trkpt><trkpt lat="44.7605367" lon="7.8662233"><ele>371.0</ele><time>2026-04-11T08:36:22.444Z</time></trkpt><trkpt lat="44.7605333" lon="7.8661217"><ele>370.3333333333333</ele><time>2026-04-11T08:36:27.444Z</time></trkpt><trkpt lat="44.7605633" lon="7.866035"><ele>369.6666666666667</ele><time>2026-04-11T08:36:29.444Z</time></trkpt><trkpt lat="44.7606483" lon="7.865965"><ele>369.0</ele><time>2026-04-11T08:36:32.444Z</time></trkpt><trkpt lat="44.7607633" lon="7.8659083"><ele>366.2</ele><time>2026-04-11T08:36:34.444Z</time></trkpt><trkpt lat="44.760845" lon="7.865855"><ele>363.4</ele><time>2026-04-11T08:36:36.444Z</time></trkpt><trkpt lat="44.7609167" lon="7.8657683"><ele>360.6</ele><time>2026-04-11T08:36:38.444Z</time></trkpt><trkpt lat="44.76097" lon="7.8657083"><ele>357.8</ele><time>2026-04-11T08:36:39.445Z</time></trkpt><trkpt lat="44.7610483" lon="7.8656317"><ele>355.0</ele><time>2026-04-11T08:36:41.444Z</time></trkpt><trkpt lat="44.7611467" lon="7.8655883"><ele>355.0</ele><time>2026-04-11T08:36:43.444Z</time></trkpt><trkpt lat="44.761215" lon="7.86558"><ele>355.0</ele><time>2026-04-11T08:36:44.444Z</time></trkpt><trkpt lat="44.7613283" lon="7.8655717"><ele>355.0</ele><time>2026-04-11T08:36:46.444Z</time></trkpt><trkpt lat="44.7614383" lon="7.865565"><ele>355.0</ele><time>2026-04-11T08:36:48.444Z</time></trkpt><trkpt lat="44.7615017" lon="7.8655683"><ele>355.0</ele><time>2026-04-11T08:36:49.444Z</time></trkpt><trkpt lat="44.7615917" lon="7.8655883"><ele>355.0</ele><time>2026-04-11T08:36:51.445Z</time></trkpt><trkpt lat="44.7616717" lon="7.86559"><ele>355.0</ele><time>2026-04-11T08:36:53.444Z</time></trkpt><trkpt lat="44.7617483" lon="7.8656033"><ele>355.0</ele><time>2026-04-11T08:36:55.444Z</time></trkpt><trkpt lat="44.761835" lon="7.8656"><ele>355.0</ele><time>2026-04-11T08:36:57.444Z</time></trkpt><trkpt lat="44.7619" lon="7.8655467"><ele>355.0</ele><time>2026-04-11T08:36:59.444Z</time></trkpt><trkpt lat="44.7619233" lon="7.8654333"><ele>355.0</ele><time>2026-04-11T08:37:02.444Z</time></trkpt><trkpt lat="44.7619233" lon="7.8653367"><ele>355.0</ele><time>2026-04-11T08:37:04.444Z</time></trkpt><trkpt lat="44.7619517" lon="7.8652383"><ele>353.6</ele><time>2026-04-11T08:37:06.444Z</time></trkpt><trkpt lat="44.7620083" lon="7.8651533"><ele>352.2</ele><time>2026-04-11T08:37:08.444Z</time></trkpt><trkpt lat="44.7620767" lon="7.8651033"><ele>350.79999999999995</ele><time>2026-04-11T08:37:10.444Z</time></trkpt><trkpt lat="44.7621933" lon="7.8650667"><ele>349.4</ele><time>2026-04-11T08:37:12.444Z</time></trkpt><trkpt lat="44.7623083" lon="7.8650783"><ele>348.0</ele><time>2026-04-11T08:37:14.444Z</time></trkpt><trkpt lat="44.762405" lon="7.8651333"><ele>348.0</ele><time>2026-04-11T08:37:16.444Z</time></trkpt><trkpt lat="44.7624817" lon="7.8651717"><ele>348.0</ele><time>2026-04-11T08:37:18.444Z</time></trkpt><trkpt lat="44.762555" lon="7.8651683"><ele>348.0</ele><time>2026-04-11T08:37:20.444Z</time></trkpt><trkpt lat="44.7626217" lon="7.865155"><ele>348.0</ele><time>2026-04-11T08:37:22.444Z</time></trkpt><trkpt lat="44.7626867" lon="7.8651667"><ele>348.0</ele><time>2026-04-11T08:37:24.444Z</time></trkpt><trkpt lat="44.7627733" lon="7.865225"><ele>348.0</ele><time>2026-04-11T08:37:27.444Z</time></trkpt><trkpt lat="44.76286" lon="7.865225"><ele>346.0</ele><time>2026-04-11T08:37:30.444Z</time></trkpt><trkpt lat="44.7629367" lon="7.865205"><ele>344.0</ele><time>2026-04-11T08:37:32.444Z</time></trkpt><trkpt lat="44.76302" lon="7.8652233"><ele>342.0</ele><time>2026-04-11T08:37:34.445Z</time></trkpt><trkpt lat="44.7630817" lon="7.865285"><ele>340.0</ele><time>2026-04-11T08:37:37.444Z</time></trkpt><trkpt lat="44.7631633" lon="7.865405"><ele>338.0</ele><time>2026-04-11T08:37:54.445Z</time></trkpt><trkpt lat="44.76322" lon="7.8655467"><ele>338.0</ele><time>2026-04-11T08:38:05.444Z</time></trkpt><trkpt lat="44.7632933" lon="7.86562"><ele>338.0</ele><time>2026-04-11T08:38:11.444Z</time></trkpt><trkpt lat="44.7633667" lon="7.8656267"><ele>338.0</ele><time>2026-04-11T08:38:14.444Z</time></trkpt><trkpt lat="44.7634467" lon="7.8656533"><ele>338.0</ele><time>2026-04-11T08:38:17.444Z</time></trkpt><trkpt lat="44.7635367" lon="7.8656383"><ele>338.0</ele><time>2026-04-11T08:38:19.444Z</time></trkpt><trkpt lat="44.7636183" lon="7.8656"><ele>338.0</ele><time>2026-04-11T08:38:21.444Z</time></trkpt><trkpt lat="44.7636967" lon="7.86559"><ele>338.2</ele><time>2026-04-11T08:38:23.444Z</time></trkpt><trkpt lat="44.7637867" lon="7.8655767"><ele>338.4</ele><time>2026-04-11T08:38:25.444Z</time></trkpt><trkpt lat="44.7638867" lon="7.86557"><ele>338.59999999999997</ele><time>2026-04-11T08:38:27.444Z</time></trkpt><trkpt lat="44.7639867" lon="7.865555"><ele>338.79999999999995</ele><time>2026-04-11T08:38:29.444Z</time></trkpt><trkpt lat="44.7640833" lon="7.8655417"><ele>339.0</ele><time>2026-04-11T08:38:31.444Z</time></trkpt><trkpt lat="44.7641683" lon="7.86553"><ele>339.0</ele><time>2026-04-11T08:38:33.444Z</time></trkpt><trkpt lat="44.7642317" lon="7.8655433"><ele>339.0</ele><time>2026-04-11T08:38:35.444Z</time></trkpt><trkpt lat="44.764315" lon="7.865555"><ele>339.0</ele><time>2026-04-11T08:38:38.444Z</time></trkpt><trkpt lat="44.764385" lon="7.86556"><ele>339.0</ele><time>2026-04-11T08:38:41.444Z</time></trkpt><trkpt lat="44.764465" lon="7.8654967"><ele>339.0</ele><time>2026-04-11T08:38:58.444Z</time></trkpt><trkpt lat="44.7644417" lon="7.8654117"><ele>339.0</ele><time>2026-04-11T08:39:14.444Z</time></trkpt><trkpt lat="44.7644133" lon="7.8653217"><ele>339.0</ele><time>2026-04-11T08:39:19.444Z</time></trkpt><trkpt lat="44.7643217" lon="7.8652167"><ele>337.0</ele><time>2026-04-11T08:39:30.444Z</time></trkpt><trkpt lat="44.7643054" lon="7.8651024"><ele>335.0</ele><time>2026-04-11T08:41:27.547Z</time></trkpt><trkpt lat="44.7642794" lon="7.8648896"><ele>333.0</ele><time>2026-04-11T08:41:57.481Z</time></trkpt><trkpt lat="44.7642732" lon="7.8647894"><ele>331.0</ele><time>2026-04-11T08:42:00.551Z</time></trkpt><trkpt lat="44.7642567" lon="7.864555"><ele>331.0</ele><time>2026-04-11T08:42:03.445Z</time></trkpt><trkpt lat="44.764295" lon="7.86447"><ele>331.0</ele><time>2026-04-11T08:42:05.444Z</time></trkpt><trkpt lat="44.7643283" lon="7.8643717"><ele>331.0</ele><time>2026-04-11T08:42:07.444Z</time></trkpt><trkpt lat="44.7643583" lon="7.8642933"><ele>331.0</ele><time>2026-04-11T08:42:09.444Z</time></trkpt><trkpt lat="44.764405" lon="7.8642067"><ele>331.0</ele><time>2026-04-11T08:42:11.444Z</time></trkpt><trkpt lat="44.76446" lon="7.864105"><ele>331.0</ele><time>2026-04-11T08:42:13.444Z</time></trkpt><trkpt lat="44.7645233" lon="7.864"><ele>331.0</ele><time>2026-04-11T08:42:15.444Z</time></trkpt><trkpt lat="44.7646017" lon="7.863915"><ele>331.0</ele><time>2026-04-11T08:42:17.444Z</time></trkpt><trkpt lat="44.7646933" lon="7.86387"><ele>331.0</ele><time>2026-04-11T08:42:19.444Z</time></trkpt><trkpt lat="44.7647783" lon="7.863815"><ele>331.0</ele><time>2026-04-11T08:42:21.444Z</time></trkpt><trkpt lat="44.764865" lon="7.86372"><ele>331.0</ele><time>2026-04-11T08:42:23.444Z</time></trkpt><trkpt lat="44.7649233" lon="7.8635933"><ele>331.0</ele><time>2026-04-11T08:42:25.444Z</time></trkpt><trkpt lat="44.7649533" lon="7.86345"><ele>331.0</ele><time>2026-04-11T08:42:27.444Z</time></trkpt><trkpt lat="44.7649633" lon="7.8632833"><ele>331.0</ele><time>2026-04-11T08:42:29.444Z</time></trkpt><trkpt lat="44.764995" lon="7.86313"><ele>331.0</ele><time>2026-04-11T08:42:31.444Z</time></trkpt><trkpt lat="44.7650517" lon="7.8629867"><ele>331.20000000000005</ele><time>2026-04-11T08:42:33.444Z</time></trkpt><trkpt lat="44.7651067" lon="7.86285"><ele>331.40000000000003</ele><time>2026-04-11T08:42:35.444Z</time></trkpt><trkpt lat="44.765135" lon="7.86277"><ele>331.6</ele><time>2026-04-11T08:42:36.444Z</time></trkpt><trkpt lat="44.7651767" lon="7.862615"><ele>331.8</ele><time>2026-04-11T08:42:38.444Z</time></trkpt><trkpt lat="44.7652083" lon="7.8624583"><ele>332.0</ele><time>2026-04-11T08:42:40.445Z</time></trkpt><trkpt lat="44.7652533" lon="7.8623067"><ele>332.0</ele><time>2026-04-11T08:42:42.444Z</time></trkpt><trkpt lat="44.7653083" lon="7.8621583"><ele>332.0</ele><time>2026-04-11T08:42:44.444Z</time></trkpt><trkpt lat="44.7653533" lon="7.862005"><ele>332.0</ele><time>2026-04-11T08:42:46.444Z</time></trkpt><trkpt lat="44.765375" lon="7.861915"><ele>332.0</ele><time>2026-04-11T08:42:47.445Z</time></trkpt><trkpt lat="44.7653933" lon="7.86182"><ele>332.0</ele><time>2026-04-11T08:42:48.444Z</time></trkpt><trkpt lat="44.7654517" lon="7.861675"><ele>331.40000000000003</ele><time>2026-04-11T08:42:50.444Z</time></trkpt><trkpt lat="44.7655133" lon="7.8615133"><ele>330.8</ele><time>2026-04-11T08:42:52.444Z</time></trkpt><trkpt lat="44.7655483" lon="7.86143"><ele>330.2</ele><time>2026-04-11T08:42:53.444Z</time></trkpt><trkpt lat="44.765585" lon="7.8613467"><ele>329.6</ele><time>2026-04-11T08:42:54.444Z</time></trkpt><trkpt lat="44.7656067" lon="7.8612633"><ele>329.0</ele><time>2026-04-11T08:42:55.444Z</time></trkpt><trkpt lat="44.7656417" lon="7.8611017"><ele>328.85714285714283</ele><time>2026-04-11T08:42:57.444Z</time></trkpt><trkpt lat="44.7656717" lon="7.8609383"><ele>328.7142857142857</ele><time>2026-04-11T08:42:59.444Z</time></trkpt><trkpt lat="44.7657" lon="7.8608583"><ele>328.57142857142856</ele><time>2026-04-11T08:43:00.444Z</time></trkpt><trkpt lat="44.7657283" lon="7.8607767"><ele>328.42857142857144</ele><time>2026-04-11T08:43:01.444Z</time></trkpt><trkpt lat="44.7657583" lon="7.8606983"><ele>328.2857142857143</ele><time>2026-04-11T08:43:02.444Z</time></trkpt><trkpt lat="44.7657883" lon="7.8606133"><ele>328.1428571428571</ele><time>2026-04-11T08:43:03.444Z</time></trkpt><trkpt lat="44.7658183" lon="7.8605233"><ele>328.0</ele><time>2026-04-11T08:43:04.444Z</time></trkpt><trkpt lat="44.76588" lon="7.8603717"><ele>327.99999999999994</ele><time>2026-04-11T08:43:06.444Z</time></trkpt><trkpt lat="44.7659133" lon="7.8602917"><ele>328.0</ele><time>2026-04-11T08:43:07.444Z</time></trkpt><trkpt lat="44.7659467" lon="7.8602083"><ele>328.0</ele><time>2026-04-11T08:43:08.444Z</time></trkpt><trkpt lat="44.7659767" lon="7.8601233"><ele>328.0</ele><time>2026-04-11T08:43:09.444Z</time></trkpt><trkpt lat="44.766015" lon="7.8600333"><ele>328.0</ele><time>2026-04-11T08:43:10.444Z</time></trkpt><trkpt lat="44.766055" lon="7.8599583"><ele>327.99999999999994</ele><time>2026-04-11T08:43:11.444Z</time></trkpt><trkpt lat="44.7660967" lon="7.85988"><ele>328.0</ele><time>2026-04-11T08:43:12.444Z</time></trkpt><trkpt lat="44.7661483" lon="7.8598067"><ele>328.71428571428567</ele><time>2026-04-11T08:43:13.444Z</time></trkpt><trkpt lat="44.766205" lon="7.8597383"><ele>329.42857142857144</ele><time>2026-04-11T08:43:14.444Z</time></trkpt><trkpt lat="44.766255" lon="7.8596833"><ele>330.1428571428571</ele><time>2026-04-11T08:43:15.444Z</time></trkpt><trkpt lat="44.7663067" lon="7.8596167"><ele>330.85714285714283</ele><time>2026-04-11T08:43:16.444Z</time></trkpt><trkpt lat="44.766355" lon="7.8595483"><ele>331.57142857142856</ele><time>2026-04-11T08:43:17.444Z</time></trkpt><trkpt lat="44.7664017" lon="7.85947"><ele>332.2857142857143</ele><time>2026-04-11T08:43:18.444Z</time></trkpt><trkpt lat="44.7664483" lon="7.8593917"><ele>333.0</ele><time>2026-04-11T08:43:19.444Z</time></trkpt><trkpt lat="44.7664917" lon="7.8593117"><ele>332.1666666666667</ele><time>2026-04-11T08:43:20.444Z</time></trkpt><trkpt lat="44.7665317" lon="7.8592283"><ele>331.3333333333333</ele><time>2026-04-11T08:43:21.444Z</time></trkpt><trkpt lat="44.7665733" lon="7.85914"><ele>330.5</ele><time>2026-04-11T08:43:22.444Z</time></trkpt><trkpt lat="44.7666133" lon="7.859045"><ele>329.66666666666663</ele><time>2026-04-11T08:43:23.444Z</time></trkpt><trkpt lat="44.76665" lon="7.8589467"><ele>328.8333333333333</ele><time>2026-04-11T08:43:24.444Z</time></trkpt><trkpt lat="44.7666783" lon="7.8588483"><ele>328.0</ele><time>2026-04-11T08:43:25.444Z</time></trkpt><trkpt lat="44.7667017" lon="7.85874"><ele>327.99999999999994</ele><time>2026-04-11T08:43:26.444Z</time></trkpt><trkpt lat="44.7667233" lon="7.8586283"><ele>328.0</ele><time>2026-04-11T08:43:27.444Z</time></trkpt><trkpt lat="44.76675" lon="7.85853"><ele>328.0</ele><time>2026-04-11T08:43:28.444Z</time></trkpt><trkpt lat="44.766785" lon="7.8584417"><ele>328.0</ele><time>2026-04-11T08:43:29.444Z</time></trkpt><trkpt lat="44.7668267" lon="7.858365"><ele>328.0</ele><time>2026-04-11T08:43:30.444Z</time></trkpt><trkpt lat="44.7668733" lon="7.858295"><ele>327.99999999999994</ele><time>2026-04-11T08:43:31.444Z</time></trkpt><trkpt lat="44.7669283" lon="7.8582167"><ele>328.0</ele><time>2026-04-11T08:43:32.444Z</time></trkpt><trkpt lat="44.76698" lon="7.8581383"><ele>327.85714285714283</ele><time>2026-04-11T08:43:33.444Z</time></trkpt><trkpt lat="44.7670283" lon="7.8580667"><ele>327.7142857142857</ele><time>2026-04-11T08:43:34.444Z</time></trkpt><trkpt lat="44.767075" lon="7.8579933"><ele>327.57142857142856</ele><time>2026-04-11T08:43:35.444Z</time></trkpt><trkpt lat="44.76712" lon="7.8579183"><ele>327.42857142857144</ele><time>2026-04-11T08:43:36.444Z</time></trkpt><trkpt lat="44.7671617" lon="7.8578433"><ele>327.2857142857143</ele><time>2026-04-11T08:43:37.445Z</time></trkpt><trkpt lat="44.7672067" lon="7.8577617"><ele>327.1428571428571</ele><time>2026-04-11T08:43:38.444Z</time></trkpt><trkpt lat="44.7672617" lon="7.8576817"><ele>327.0</ele><time>2026-04-11T08:43:39.444Z</time></trkpt><trkpt lat="44.767315" lon="7.8576"><ele>327.0</ele><time>2026-04-11T08:43:40.444Z</time></trkpt><trkpt lat="44.76736" lon="7.857525"><ele>327.0</ele><time>2026-04-11T08:43:41.444Z</time></trkpt><trkpt lat="44.7674" lon="7.85745"><ele>327.0</ele><time>2026-04-11T08:43:42.444Z</time></trkpt><trkpt lat="44.7674367" lon="7.8573717"><ele>327.0</ele><time>2026-04-11T08:43:43.444Z</time></trkpt><trkpt lat="44.76747" lon="7.857295"><ele>327.0</ele><time>2026-04-11T08:43:44.445Z</time></trkpt><trkpt lat="44.7675017" lon="7.8572167"><ele>327.0</ele><time>2026-04-11T08:43:45.444Z</time></trkpt><trkpt lat="44.7675333" lon="7.8571233"><ele>327.0</ele><time>2026-04-11T08:43:46.444Z</time></trkpt><trkpt lat="44.7675617" lon="7.8570233"><ele>327.0</ele><time>2026-04-11T08:43:47.444Z</time></trkpt><trkpt lat="44.7675867" lon="7.85693"><ele>327.0</ele><time>2026-04-11T08:43:48.444Z</time></trkpt><trkpt lat="44.76763" lon="7.8567717"><ele>327.0</ele><time>2026-04-11T08:43:50.444Z</time></trkpt><trkpt lat="44.7676833" lon="7.85662"><ele>327.0</ele><time>2026-04-11T08:43:52.444Z</time></trkpt><trkpt lat="44.7677217" lon="7.8564817"><ele>327.0</ele><time>2026-04-11T08:43:54.444Z</time></trkpt><trkpt lat="44.7677183" lon="7.85634"><ele>327.8</ele><time>2026-04-11T08:43:56.444Z</time></trkpt><trkpt lat="44.7676783" lon="7.8562067"><ele>328.6</ele><time>2026-04-11T08:43:58.444Z</time></trkpt><trkpt lat="44.7676417" lon="7.8560917"><ele>329.40000000000003</ele><time>2026-04-11T08:44:00.444Z</time></trkpt><trkpt lat="44.7675917" lon="7.8559967"><ele>330.20000000000005</ele><time>2026-04-11T08:44:02.444Z</time></trkpt><trkpt lat="44.76752" lon="7.855915"><ele>331.0</ele><time>2026-04-11T08:44:04.444Z</time></trkpt><trkpt lat="44.7674267" lon="7.855845"><ele>331.16666666666663</ele><time>2026-04-11T08:44:06.444Z</time></trkpt><trkpt lat="44.7673667" lon="7.8557433"><ele>331.3333333333333</ele><time>2026-04-11T08:44:08.444Z</time></trkpt><trkpt lat="44.7673433" lon="7.8556233"><ele>331.5</ele><time>2026-04-11T08:44:10.444Z</time></trkpt><trkpt lat="44.76734" lon="7.855505"><ele>331.6666666666667</ele><time>2026-04-11T08:44:12.444Z</time></trkpt><trkpt lat="44.7673317" lon="7.8553817"><ele>331.83333333333337</ele><time>2026-04-11T08:44:14.444Z</time></trkpt><trkpt lat="44.7672917" lon="7.8552633"><ele>332.0</ele><time>2026-04-11T08:44:17.444Z</time></trkpt><trkpt lat="44.7672583" lon="7.855085"><ele>331.6666666666667</ele><time>2026-04-11T08:44:18.444Z</time></trkpt><trkpt lat="44.7672883" lon="7.8549367"><ele>331.33333333333337</ele><time>2026-04-11T08:44:20.444Z</time></trkpt><trkpt lat="44.76733" lon="7.8548283"><ele>331.0</ele><time>2026-04-11T08:44:21.444Z</time></trkpt><trkpt lat="44.7673983" lon="7.854775"><ele>330.6666666666667</ele><time>2026-04-11T08:44:22.444Z</time></trkpt><trkpt lat="44.7674633" lon="7.8547117"><ele>330.3333333333333</ele><time>2026-04-11T08:44:23.444Z</time></trkpt><trkpt lat="44.7675183" lon="7.8546383"><ele>330.0</ele><time>2026-04-11T08:44:24.444Z</time></trkpt><trkpt lat="44.7675583" lon="7.8545667"><ele>330.0</ele><time>2026-04-11T08:44:25.444Z</time></trkpt><trkpt lat="44.767605" lon="7.85448"><ele>330.0</ele><time>2026-04-11T08:44:26.444Z</time></trkpt><trkpt lat="44.7676533" lon="7.8543867"><ele>330.0</ele><time>2026-04-11T08:44:27.444Z</time></trkpt><trkpt lat="44.7677" lon="7.8543033"><ele>330.0</ele><time>2026-04-11T08:44:28.444Z</time></trkpt><trkpt lat="44.7677583" lon="7.8542317"><ele>330.0</ele><time>2026-04-11T08:44:29.444Z</time></trkpt><trkpt lat="44.7678167" lon="7.85417"><ele>330.0</ele><time>2026-04-11T08:44:30.444Z</time></trkpt><trkpt lat="44.7678683" lon="7.8541133"><ele>329.28571428571433</ele><time>2026-04-11T08:44:31.444Z</time></trkpt><trkpt lat="44.7679217" lon="7.8540583"><ele>328.57142857142856</ele><time>2026-04-11T08:44:32.444Z</time></trkpt><trkpt lat="44.7679733" lon="7.8539983"><ele>327.8571428571429</ele><time>2026-04-11T08:44:33.444Z</time></trkpt><trkpt lat="44.7680317" lon="7.853945"><ele>327.14285714285717</ele><time>2026-04-11T08:44:34.444Z</time></trkpt><trkpt lat="44.7680917" lon="7.8538933"><ele>326.42857142857144</ele><time>2026-04-11T08:44:35.444Z</time></trkpt><trkpt lat="44.7681533" lon="7.85384"><ele>325.7142857142857</ele><time>2026-04-11T08:44:36.444Z</time></trkpt><trkpt lat="44.76821" lon="7.8537883"><ele>325.0</ele><time>2026-04-11T08:44:37.444Z</time></trkpt><trkpt lat="44.7682667" lon="7.8537267"><ele>325.0</ele><time>2026-04-11T08:44:38.445Z</time></trkpt><trkpt lat="44.7683233" lon="7.8536633"><ele>325.0</ele><time>2026-04-11T08:44:39.444Z</time></trkpt><trkpt lat="44.76841" lon="7.8535733"><ele>325.0</ele><time>2026-04-11T08:44:41.444Z</time></trkpt><trkpt lat="44.7684883" lon="7.8535117"><ele>325.0</ele><time>2026-04-11T08:44:43.444Z</time></trkpt><trkpt lat="44.7685617" lon="7.8534767"><ele>325.0</ele><time>2026-04-11T08:44:45.444Z</time></trkpt><trkpt lat="44.768635" lon="7.853435"><ele>325.0</ele><time>2026-04-11T08:44:47.444Z</time></trkpt><trkpt lat="44.7687033" lon="7.8533617"><ele>325.0</ele><time>2026-04-11T08:44:49.444Z</time></trkpt><trkpt lat="44.7687433" lon="7.8532817"><ele>325.0</ele><time>2026-04-11T08:44:51.444Z</time></trkpt><trkpt lat="44.7688017" lon="7.853205"><ele>325.0</ele><time>2026-04-11T08:45:15.444Z</time></trkpt><trkpt lat="44.7688583" lon="7.8531183"><ele>325.0</ele><time>2026-04-11T08:45:17.444Z</time></trkpt><trkpt lat="44.768895" lon="7.8530433"><ele>325.0</ele><time>2026-04-11T08:45:18.444Z</time></trkpt><trkpt lat="44.7689283" lon="7.8529517"><ele>325.0</ele><time>2026-04-11T08:45:19.444Z</time></trkpt><trkpt lat="44.768955" lon="7.85285"><ele>325.0</ele><time>2026-04-11T08:45:20.444Z</time></trkpt><trkpt lat="44.7689717" lon="7.85275"><ele>325.0</ele><time>2026-04-11T08:45:21.444Z</time></trkpt><trkpt lat="44.7689733" lon="7.8526433"><ele>325.0</ele><time>2026-04-11T08:45:22.444Z</time></trkpt><trkpt lat="44.7689717" lon="7.852545"><ele>325.0</ele><time>2026-04-11T08:45:23.444Z</time></trkpt><trkpt lat="44.76897" lon="7.8524433"><ele>325.0</ele><time>2026-04-11T08:45:24.444Z</time></trkpt><trkpt lat="44.76898" lon="7.8523033"><ele>325.0</ele><time>2026-04-11T08:45:26.444Z</time></trkpt><trkpt lat="44.769005" lon="7.852175"><ele>325.0</ele><time>2026-04-11T08:45:28.445Z</time></trkpt><trkpt lat="44.7690017" lon="7.8520317"><ele>324.5</ele><time>2026-04-11T08:45:30.444Z</time></trkpt><trkpt lat="44.768985" lon="7.8518917"><ele>324.0</ele><time>2026-04-11T08:45:32.444Z</time></trkpt><trkpt lat="44.7689683" lon="7.85178"><ele>323.5</ele><time>2026-04-11T08:45:34.444Z</time></trkpt><trkpt lat="44.7689467" lon="7.85167"><ele>323.0</ele><time>2026-04-11T08:45:36.444Z</time></trkpt><trkpt lat="44.7689317" lon="7.8515667"><ele>322.5</ele><time>2026-04-11T08:45:38.444Z</time></trkpt><trkpt lat="44.7689133" lon="7.85146"><ele>322.0</ele><time>2026-04-11T08:45:40.444Z</time></trkpt><trkpt lat="44.7688917" lon="7.8513433"><ele>322.0</ele><time>2026-04-11T08:45:42.444Z</time></trkpt><trkpt lat="44.768875" lon="7.8512283"><ele>322.0</ele><time>2026-04-11T08:45:44.444Z</time></trkpt><trkpt lat="44.7688467" lon="7.8511217"><ele>322.0</ele><time>2026-04-11T08:45:46.444Z</time></trkpt><trkpt lat="44.768815" lon="7.8509967"><ele>322.0</ele><time>2026-04-11T08:45:48.444Z</time></trkpt><trkpt lat="44.768795" lon="7.8508717"><ele>322.0</ele><time>2026-04-11T08:45:50.444Z</time></trkpt><trkpt lat="44.7687667" lon="7.8507583"><ele>322.0</ele><time>2026-04-11T08:45:52.445Z</time></trkpt><trkpt lat="44.7687433" lon="7.8506383"><ele>322.0</ele><time>2026-04-11T08:45:54.444Z</time></trkpt><trkpt lat="44.768755" lon="7.8505383"><ele>322.0</ele><time>2026-04-11T08:45:56.444Z</time></trkpt><trkpt lat="44.768795" lon="7.850445"><ele>322.0</ele><time>2026-04-11T08:45:58.444Z</time></trkpt><trkpt lat="44.7688717" lon="7.8503867"><ele>322.0</ele><time>2026-04-11T08:46:00.444Z</time></trkpt><trkpt lat="44.7689533" lon="7.8503467"><ele>322.0</ele><time>2026-04-11T08:46:02.444Z</time></trkpt><trkpt lat="44.7690417" lon="7.8503"><ele>322.0</ele><time>2026-04-11T08:46:04.444Z</time></trkpt><trkpt lat="44.7691417" lon="7.8502417"><ele>322.0</ele><time>2026-04-11T08:46:06.444Z</time></trkpt><trkpt lat="44.7692567" lon="7.850175"><ele>322.0</ele><time>2026-04-11T08:46:08.444Z</time></trkpt><trkpt lat="44.7693633" lon="7.8501033"><ele>322.0</ele><time>2026-04-11T08:46:10.444Z</time></trkpt><trkpt lat="44.7694217" lon="7.8500667"><ele>322.0</ele><time>2026-04-11T08:46:11.444Z</time></trkpt><trkpt lat="44.7694833" lon="7.8500283"><ele>322.0</ele><time>2026-04-11T08:46:12.444Z</time></trkpt><trkpt lat="44.769545" lon="7.8499917"><ele>322.0</ele><time>2026-04-11T08:46:13.444Z</time></trkpt><trkpt lat="44.7696033" lon="7.8499517"><ele>321.8</ele><time>2026-04-11T08:46:14.444Z</time></trkpt><trkpt lat="44.7696617" lon="7.8499167"><ele>321.6</ele><time>2026-04-11T08:46:15.444Z</time></trkpt><trkpt lat="44.7697583" lon="7.8497967"><ele>321.40000000000003</ele><time>2026-04-11T08:46:17.444Z</time></trkpt><trkpt lat="44.7697933" lon="7.8497017"><ele>321.20000000000005</ele><time>2026-04-11T08:46:18.445Z</time></trkpt><trkpt lat="44.7697967" lon="7.8495333"><ele>321.0</ele><time>2026-04-11T08:46:20.444Z</time></trkpt><trkpt lat="44.7697667" lon="7.8493667"><ele>321.0</ele><time>2026-04-11T08:46:22.444Z</time></trkpt><trkpt lat="44.7697483" lon="7.8492133"><ele>321.0</ele><time>2026-04-11T08:46:24.444Z</time></trkpt><trkpt lat="44.7697267" lon="7.849075"><ele>321.0</ele><time>2026-04-11T08:46:26.444Z</time></trkpt><trkpt lat="44.7697117" lon="7.8489333"><ele>321.0</ele><time>2026-04-11T08:46:28.444Z</time></trkpt><trkpt lat="44.7696967" lon="7.8487867"><ele>321.0</ele><time>2026-04-11T08:46:30.444Z</time></trkpt><trkpt lat="44.7696817" lon="7.8486433"><ele>321.0</ele><time>2026-04-11T08:46:32.445Z</time></trkpt><trkpt lat="44.76967" lon="7.8485017"><ele>321.0</ele><time>2026-04-11T08:46:34.444Z</time></trkpt><trkpt lat="44.76966" lon="7.8483733"><ele>321.0</ele><time>2026-04-11T08:46:36.444Z</time></trkpt><trkpt lat="44.7696583" lon="7.8482717"><ele>321.0</ele><time>2026-04-11T08:46:38.444Z</time></trkpt><trkpt lat="44.7696467" lon="7.8481667"><ele>321.0</ele><time>2026-04-11T08:46:41.445Z</time></trkpt><trkpt lat="44.769715" lon="7.8481217"><ele>321.0</ele><time>2026-04-11T08:46:44.444Z</time></trkpt><trkpt lat="44.7698" lon="7.848125"><ele>321.6</ele><time>2026-04-11T08:46:46.444Z</time></trkpt><trkpt lat="44.7699083" lon="7.848125"><ele>322.20000000000005</ele><time>2026-04-11T08:46:48.444Z</time></trkpt><trkpt lat="44.7700267" lon="7.8481317"><ele>322.79999999999995</ele><time>2026-04-11T08:46:50.444Z</time></trkpt><trkpt lat="44.77009" lon="7.8481283"><ele>323.4</ele><time>2026-04-11T08:46:51.445Z</time></trkpt><trkpt lat="44.770215" lon="7.8481233"><ele>324.0</ele><time>2026-04-11T08:46:53.444Z</time></trkpt><trkpt lat="44.7703433" lon="7.8481017"><ele>324.0</ele><time>2026-04-11T08:46:55.444Z</time></trkpt><trkpt lat="44.77041" lon="7.8480867"><ele>324.0</ele><time>2026-04-11T08:46:56.444Z</time></trkpt><trkpt lat="44.7704783" lon="7.84808"><ele>324.0</ele><time>2026-04-11T08:46:57.444Z</time></trkpt><trkpt lat="44.7705433" lon="7.8480567"><ele>324.0</ele><time>2026-04-11T08:46:58.444Z</time></trkpt><trkpt lat="44.7706083" lon="7.8480333"><ele>324.0</ele><time>2026-04-11T08:46:59.444Z</time></trkpt><trkpt lat="44.7706717" lon="7.8480083"><ele>324.0</ele><time>2026-04-11T08:47:00.444Z</time></trkpt><trkpt lat="44.7707333" lon="7.8479833"><ele>324.0</ele><time>2026-04-11T08:47:01.444Z</time></trkpt><trkpt lat="44.77085" lon="7.84793"><ele>324.0</ele><time>2026-04-11T08:47:03.444Z</time></trkpt><trkpt lat="44.77096" lon="7.8478717"><ele>324.0</ele><time>2026-04-11T08:47:05.444Z</time></trkpt><trkpt lat="44.7710667" lon="7.8478233"><ele>324.0</ele><time>2026-04-11T08:47:07.444Z</time></trkpt><trkpt lat="44.7711617" lon="7.8477683"><ele>324.0</ele><time>2026-04-11T08:47:09.444Z</time></trkpt><trkpt lat="44.7712517" lon="7.84768"><ele>324.0</ele><time>2026-04-11T08:47:11.444Z</time></trkpt><trkpt lat="44.7713033" lon="7.8476267"><ele>325.0</ele><time>2026-04-11T08:47:12.444Z</time></trkpt><trkpt lat="44.7714083" lon="7.8475333"><ele>326.0</ele><time>2026-04-11T08:47:14.444Z</time></trkpt><trkpt lat="44.7714633" lon="7.8474883"><ele>327.0</ele><time>2026-04-11T08:47:15.444Z</time></trkpt><trkpt lat="44.7715683" lon="7.8473867"><ele>328.0</ele><time>2026-04-11T08:47:17.444Z</time></trkpt><trkpt lat="44.771625" lon="7.8473367"><ele>329.0</ele><time>2026-04-11T08:47:18.444Z</time></trkpt><trkpt lat="44.7716783" lon="7.847285"><ele>330.0</ele><time>2026-04-11T08:47:19.444Z</time></trkpt><trkpt lat="44.77173" lon="7.8472333"><ele>330.0</ele><time>2026-04-11T08:47:20.444Z</time></trkpt><trkpt lat="44.7717817" lon="7.84718"><ele>330.0</ele><time>2026-04-11T08:47:21.444Z</time></trkpt><trkpt lat="44.7718783" lon="7.8470833"><ele>330.0</ele><time>2026-04-11T08:47:23.444Z</time></trkpt><trkpt lat="44.7719783" lon="7.8469933"><ele>330.0</ele><time>2026-04-11T08:47:25.444Z</time></trkpt><trkpt lat="44.7720783" lon="7.8469117"><ele>330.0</ele><time>2026-04-11T08:47:27.444Z</time></trkpt><trkpt lat="44.77218" lon="7.8468317"><ele>330.0</ele><time>2026-04-11T08:47:29.444Z</time></trkpt><trkpt lat="44.772275" lon="7.8467433"><ele>330.0</ele><time>2026-04-11T08:47:31.444Z</time></trkpt><trkpt lat="44.7723683" lon="7.84666"><ele>330.0</ele><time>2026-04-11T08:47:33.444Z</time></trkpt><trkpt lat="44.7724583" lon="7.8465633"><ele>330.0</ele><time>2026-04-11T08:47:35.444Z</time></trkpt><trkpt lat="44.77251" lon="7.8465117"><ele>330.0</ele><time>2026-04-11T08:47:36.444Z</time></trkpt><trkpt lat="44.7725667" lon="7.8464567"><ele>330.0</ele><time>2026-04-11T08:47:37.444Z</time></trkpt><trkpt lat="44.7726717" lon="7.84636"><ele>330.0</ele><time>2026-04-11T08:47:39.444Z</time></trkpt><trkpt lat="44.7727317" lon="7.8463083"><ele>330.0</ele><time>2026-04-11T08:47:40.444Z</time></trkpt><trkpt lat="44.7727883" lon="7.8462483"><ele>330.0</ele><time>2026-04-11T08:47:41.444Z</time></trkpt><trkpt lat="44.772845" lon="7.8461967"><ele>330.0</ele><time>2026-04-11T08:47:42.444Z</time></trkpt><trkpt lat="44.772955" lon="7.84609"><ele>329.8333333333333</ele><time>2026-04-11T08:47:44.444Z</time></trkpt><trkpt lat="44.7730117" lon="7.8460317"><ele>329.6666666666667</ele><time>2026-04-11T08:47:45.444Z</time></trkpt><trkpt lat="44.77307" lon="7.8459767"><ele>329.5</ele><time>2026-04-11T08:47:46.445Z</time></trkpt><trkpt lat="44.7731217" lon="7.8459233"><ele>329.33333333333337</ele><time>2026-04-11T08:47:47.444Z</time></trkpt><trkpt lat="44.77318" lon="7.84587"><ele>329.1666666666667</ele><time>2026-04-11T08:47:48.444Z</time></trkpt><trkpt lat="44.77329" lon="7.8457667"><ele>329.0</ele><time>2026-04-11T08:47:50.444Z</time></trkpt><trkpt lat="44.7733533" lon="7.8457017"><ele>329.2857142857143</ele><time>2026-04-11T08:47:51.444Z</time></trkpt><trkpt lat="44.773415" lon="7.8456383"><ele>329.57142857142856</ele><time>2026-04-11T08:47:52.444Z</time></trkpt><trkpt lat="44.77347" lon="7.845585"><ele>329.8571428571429</ele><time>2026-04-11T08:47:53.444Z</time></trkpt><trkpt lat="44.7735233" lon="7.8455267"><ele>330.1428571428571</ele><time>2026-04-11T08:47:54.444Z</time></trkpt><trkpt lat="44.7735733" lon="7.8454717"><ele>330.42857142857144</ele><time>2026-04-11T08:47:55.444Z</time></trkpt><trkpt lat="44.7736283" lon="7.84541"><ele>330.7142857142857</ele><time>2026-04-11T08:47:56.444Z</time></trkpt><trkpt lat="44.7736867" lon="7.8453483"><ele>331.0</ele><time>2026-04-11T08:47:57.445Z</time></trkpt><trkpt lat="44.773745" lon="7.845285"><ele>330.57142857142856</ele><time>2026-04-11T08:47:58.444Z</time></trkpt><trkpt lat="44.7738033" lon="7.84522"><ele>330.1428571428571</ele><time>2026-04-11T08:47:59.444Z</time></trkpt><trkpt lat="44.77386" lon="7.845165"><ele>329.71428571428567</ele><time>2026-04-11T08:48:00.444Z</time></trkpt><trkpt lat="44.7739183" lon="7.84511"><ele>329.2857142857143</ele><time>2026-04-11T08:48:01.445Z</time></trkpt><trkpt lat="44.7739767" lon="7.84505"><ele>328.85714285714283</ele><time>2026-04-11T08:48:02.444Z</time></trkpt><trkpt lat="44.7740433" lon="7.8449833"><ele>328.4285714285714</ele><time>2026-04-11T08:48:03.444Z</time></trkpt><trkpt lat="44.77411" lon="7.8449217"><ele>328.0</ele><time>2026-04-11T08:48:04.444Z</time></trkpt><trkpt lat="44.7741767" lon="7.84486"><ele>328.0</ele><time>2026-04-11T08:48:05.444Z</time></trkpt><trkpt lat="44.77425" lon="7.84481"><ele>328.0</ele><time>2026-04-11T08:48:06.444Z</time></trkpt><trkpt lat="44.7743283" lon="7.8447667"><ele>328.0</ele><time>2026-04-11T08:48:07.444Z</time></trkpt><trkpt lat="44.7744117" lon="7.8447333"><ele>328.0</ele><time>2026-04-11T08:48:08.445Z</time></trkpt><trkpt lat="44.7744967" lon="7.84471"><ele>328.0</ele><time>2026-04-11T08:48:09.444Z</time></trkpt><trkpt lat="44.7745817" lon="7.8446983"><ele>328.0</ele><time>2026-04-11T08:48:10.444Z</time></trkpt><trkpt lat="44.77467" lon="7.84469"><ele>327.0</ele><time>2026-04-11T08:48:11.444Z</time></trkpt><trkpt lat="44.7747583" lon="7.8446917"><ele>326.0</ele><time>2026-04-11T08:48:12.444Z</time></trkpt><trkpt lat="44.7748417" lon="7.8446817"><ele>325.0</ele><time>2026-04-11T08:48:13.444Z</time></trkpt><trkpt lat="44.77493" lon="7.844675"><ele>324.0</ele><time>2026-04-11T08:48:14.444Z</time></trkpt><trkpt lat="44.7750217" lon="7.8446533"><ele>323.0</ele><time>2026-04-11T08:48:15.444Z</time></trkpt><trkpt lat="44.77511" lon="7.8446317"><ele>322.0</ele><time>2026-04-11T08:48:16.444Z</time></trkpt><trkpt lat="44.7751933" lon="7.8445867"><ele>321.6</ele><time>2026-04-11T08:48:17.444Z</time></trkpt><trkpt lat="44.7752733" lon="7.84453"><ele>321.20000000000005</ele><time>2026-04-11T08:48:18.444Z</time></trkpt><trkpt lat="44.77536" lon="7.8444617"><ele>320.8</ele><time>2026-04-11T08:48:19.444Z</time></trkpt><trkpt lat="44.775445" lon="7.8443833"><ele>320.4</ele><time>2026-04-11T08:48:20.444Z</time></trkpt><trkpt lat="44.7755317" lon="7.8443083"><ele>320.0</ele><time>2026-04-11T08:48:21.444Z</time></trkpt><trkpt lat="44.77562" lon="7.844235"><ele>320.0</ele><time>2026-04-11T08:48:22.444Z</time></trkpt><trkpt lat="44.7757017" lon="7.8441617"><ele>320.0</ele><time>2026-04-11T08:48:23.444Z</time></trkpt><trkpt lat="44.7757867" lon="7.8440933"><ele>320.0</ele><time>2026-04-11T08:48:24.444Z</time></trkpt><trkpt lat="44.775875" lon="7.844025"><ele>320.0</ele><time>2026-04-11T08:48:25.444Z</time></trkpt><trkpt lat="44.7759583" lon="7.8439533"><ele>320.0</ele><time>2026-04-11T08:48:26.444Z</time></trkpt><trkpt lat="44.7760433" lon="7.8438817"><ele>318.6</ele><time>2026-04-11T08:48:27.444Z</time></trkpt><trkpt lat="44.7761267" lon="7.8438117"><ele>317.2</ele><time>2026-04-11T08:48:28.444Z</time></trkpt><trkpt lat="44.7762167" lon="7.84374"><ele>315.8</ele><time>2026-04-11T08:48:29.444Z</time></trkpt><trkpt lat="44.776305" lon="7.8436617"><ele>314.4</ele><time>2026-04-11T08:48:30.444Z</time></trkpt><trkpt lat="44.776395" lon="7.84358"><ele>313.0</ele><time>2026-04-11T08:48:31.444Z</time></trkpt><trkpt lat="44.776485" lon="7.843505"><ele>313.2</ele><time>2026-04-11T08:48:32.444Z</time></trkpt><trkpt lat="44.7765733" lon="7.84343"><ele>313.4</ele><time>2026-04-11T08:48:33.444Z</time></trkpt><trkpt lat="44.7766767" lon="7.84335"><ele>313.59999999999997</ele><time>2026-04-11T08:48:34.444Z</time></trkpt><trkpt lat="44.7767667" lon="7.843275"><ele>313.8</ele><time>2026-04-11T08:48:35.444Z</time></trkpt><trkpt lat="44.7768533" lon="7.8432067"><ele>314.0</ele><time>2026-04-11T08:48:36.444Z</time></trkpt><trkpt lat="44.77694" lon="7.843145"><ele>312.59999999999997</ele><time>2026-04-11T08:48:37.444Z</time></trkpt><trkpt lat="44.77703" lon="7.8430717"><ele>311.2</ele><time>2026-04-11T08:48:38.444Z</time></trkpt><trkpt lat="44.7771183" lon="7.842995"><ele>309.79999999999995</ele><time>2026-04-11T08:48:39.444Z</time></trkpt><trkpt lat="44.77721" lon="7.8429233"><ele>308.4</ele><time>2026-04-11T08:48:40.444Z</time></trkpt><trkpt lat="44.777295" lon="7.842845"><ele>307.0</ele><time>2026-04-11T08:48:41.444Z</time></trkpt><trkpt lat="44.7773767" lon="7.84277"><ele>307.0</ele><time>2026-04-11T08:48:42.444Z</time></trkpt><trkpt lat="44.7774617" lon="7.8426867"><ele>307.0</ele><time>2026-04-11T08:48:43.444Z</time></trkpt><trkpt lat="44.777545" lon="7.84261"><ele>307.0</ele><time>2026-04-11T08:48:44.444Z</time></trkpt><trkpt lat="44.7776183" lon="7.8425283"><ele>307.0</ele><time>2026-04-11T08:48:45.444Z</time></trkpt><trkpt lat="44.77769" lon="7.8424517"><ele>307.0</ele><time>2026-04-11T08:48:46.444Z</time></trkpt><trkpt lat="44.77776" lon="7.842365"><ele>308.5</ele><time>2026-04-11T08:48:47.444Z</time></trkpt><trkpt lat="44.7778267" lon="7.8422917"><ele>310.0</ele><time>2026-04-11T08:48:48.444Z</time></trkpt><trkpt lat="44.7778883" lon="7.8422167"><ele>311.5</ele><time>2026-04-11T08:48:49.444Z</time></trkpt><trkpt lat="44.7779517" lon="7.8421417"><ele>313.0</ele><time>2026-04-11T08:48:50.444Z</time></trkpt><trkpt lat="44.7780067" lon="7.8420767"><ele>314.5</ele><time>2026-04-11T08:48:51.444Z</time></trkpt><trkpt lat="44.7780617" lon="7.8420167"><ele>316.0</ele><time>2026-04-11T08:48:52.445Z</time></trkpt><trkpt lat="44.7781133" lon="7.8419583"><ele>316.0</ele><time>2026-04-11T08:48:53.444Z</time></trkpt><trkpt lat="44.7781633" lon="7.8418983"><ele>316.0</ele><time>2026-04-11T08:48:54.444Z</time></trkpt><trkpt lat="44.77821" lon="7.8418383"><ele>316.0</ele><time>2026-04-11T08:48:55.444Z</time></trkpt><trkpt lat="44.7782667" lon="7.84177"><ele>316.0</ele><time>2026-04-11T08:48:56.444Z</time></trkpt><trkpt lat="44.7783233" lon="7.84171"><ele>316.0</ele><time>2026-04-11T08:48:57.444Z</time></trkpt><trkpt lat="44.7784233" lon="7.84162"><ele>316.0</ele><time>2026-04-11T08:48:59.444Z</time></trkpt><trkpt lat="44.778535" lon="7.8415633"><ele>317.20000000000005</ele><time>2026-04-11T08:49:01.444Z</time></trkpt><trkpt lat="44.7786433" lon="7.8415733"><ele>318.40000000000003</ele><time>2026-04-11T08:49:03.444Z</time></trkpt><trkpt lat="44.778735" lon="7.8416283"><ele>319.6</ele><time>2026-04-11T08:49:05.444Z</time></trkpt><trkpt lat="44.7787917" lon="7.8417117"><ele>320.8</ele><time>2026-04-11T08:49:07.444Z</time></trkpt><trkpt lat="44.7788367" lon="7.8418267"><ele>322.0</ele><time>2026-04-11T08:49:09.444Z</time></trkpt><trkpt lat="44.77887" lon="7.84194"><ele>322.3333333333333</ele><time>2026-04-11T08:49:11.444Z</time></trkpt><trkpt lat="44.7789117" lon="7.84205"><ele>322.66666666666663</ele><time>2026-04-11T08:49:13.444Z</time></trkpt><trkpt lat="44.7789683" lon="7.842155"><ele>323.0</ele><time>2026-04-11T08:49:15.444Z</time></trkpt><trkpt lat="44.779035" lon="7.8422467"><ele>323.3333333333333</ele><time>2026-04-11T08:49:17.444Z</time></trkpt><trkpt lat="44.7791067" lon="7.8423067"><ele>323.6666666666667</ele><time>2026-04-11T08:49:19.444Z</time></trkpt><trkpt lat="44.7791917" lon="7.84234"><ele>324.0</ele><time>2026-04-11T08:49:21.444Z</time></trkpt><trkpt lat="44.7792883" lon="7.842365"><ele>324.4</ele><time>2026-04-11T08:49:23.444Z</time></trkpt><trkpt lat="44.7793867" lon="7.84236"><ele>324.79999999999995</ele><time>2026-04-11T08:49:25.444Z</time></trkpt><trkpt lat="44.7794817" lon="7.8423417"><ele>325.20000000000005</ele><time>2026-04-11T08:49:27.444Z</time></trkpt><trkpt lat="44.7795817" lon="7.8423233"><ele>325.6</ele><time>2026-04-11T08:49:29.444Z</time></trkpt><trkpt lat="44.7796817" lon="7.84229"><ele>326.0</ele><time>2026-04-11T08:49:31.444Z</time></trkpt><trkpt lat="44.779785" lon="7.8422467"><ele>326.0</ele><time>2026-04-11T08:49:33.444Z</time></trkpt><trkpt lat="44.779884" lon="7.8421663"><ele>326.0</ele><time>2026-04-11T08:49:35.444Z</time></trkpt><trkpt lat="44.7799698" lon="7.8420834"><ele>326.0</ele><time>2026-04-11T08:49:37.444Z</time></trkpt><trkpt lat="44.7800538" lon="7.8419996"><ele>326.0</ele><time>2026-04-11T08:49:39.444Z</time></trkpt><trkpt lat="44.7801353" lon="7.8419067"><ele>326.0</ele><time>2026-04-11T08:49:41.444Z</time></trkpt><trkpt lat="44.7802112" lon="7.8418243"><ele>325.6</ele><time>2026-04-11T08:49:43.444Z</time></trkpt><trkpt lat="44.7802979" lon="7.8417321"><ele>325.20000000000005</ele><time>2026-04-11T08:49:45.444Z</time></trkpt><trkpt lat="44.7803833" lon="7.8416288"><ele>324.79999999999995</ele><time>2026-04-11T08:49:47.444Z</time></trkpt><trkpt lat="44.7804565" lon="7.8415231"><ele>324.4</ele><time>2026-04-11T08:49:49.444Z</time></trkpt><trkpt lat="44.7805409" lon="7.8414317"><ele>324.0</ele><time>2026-04-11T08:49:51.444Z</time></trkpt><trkpt lat="44.7806283" lon="7.8413277"><ele>324.0</ele><time>2026-04-11T08:49:53.444Z</time></trkpt><trkpt lat="44.780733" lon="7.841236"><ele>324.0</ele><time>2026-04-11T08:49:55.444Z</time></trkpt><trkpt lat="44.7807943" lon="7.8412019"><ele>324.0</ele><time>2026-04-11T08:49:56.444Z</time></trkpt><trkpt lat="44.7808594" lon="7.8411683"><ele>324.0</ele><time>2026-04-11T08:49:57.444Z</time></trkpt><trkpt lat="44.7809221" lon="7.841158"><ele>324.0</ele><time>2026-04-11T08:49:58.444Z</time></trkpt><trkpt lat="44.7809872" lon="7.8411748"><ele>324.0</ele><time>2026-04-11T08:49:59.444Z</time></trkpt><trkpt lat="44.7810462" lon="7.8412112"><ele>323.3333333333333</ele><time>2026-04-11T08:50:00.444Z</time></trkpt><trkpt lat="44.781105" lon="7.8412617"><ele>322.6666666666667</ele><time>2026-04-11T08:50:01.444Z</time></trkpt><trkpt lat="44.7811641" lon="7.8413214"><ele>322.0</ele><time>2026-04-11T08:50:02.444Z</time></trkpt><trkpt lat="44.7812145" lon="7.841398"><ele>321.33333333333337</ele><time>2026-04-11T08:50:03.444Z</time></trkpt><trkpt lat="44.7812514" lon="7.8414877"><ele>320.6666666666667</ele><time>2026-04-11T08:50:04.444Z</time></trkpt><trkpt lat="44.7812767" lon="7.8415923"><ele>320.0</ele><time>2026-04-11T08:50:05.444Z</time></trkpt><trkpt lat="44.7812927" lon="7.8417072"><ele>319.33333333333337</ele><time>2026-04-11T08:50:06.445Z</time></trkpt><trkpt lat="44.7813056" lon="7.84182"><ele>318.6666666666667</ele><time>2026-04-11T08:50:07.444Z</time></trkpt><trkpt lat="44.7813185" lon="7.8419338"><ele>318.0</ele><time>2026-04-11T08:50:08.444Z</time></trkpt><trkpt lat="44.7813322" lon="7.8420513"><ele>317.3333333333333</ele><time>2026-04-11T08:50:09.444Z</time></trkpt><trkpt lat="44.7813567" lon="7.8421797"><ele>316.66666666666663</ele><time>2026-04-11T08:50:10.444Z</time></trkpt><trkpt lat="44.781391" lon="7.8423101"><ele>316.0</ele><time>2026-04-11T08:50:11.444Z</time></trkpt><trkpt lat="44.7814348" lon="7.8424394"><ele>316.0</ele><time>2026-04-11T08:50:12.444Z</time></trkpt><trkpt lat="44.7814874" lon="7.8425636"><ele>316.0</ele><time>2026-04-11T08:50:13.444Z</time></trkpt><trkpt lat="44.7815602" lon="7.8426631"><ele>316.0</ele><time>2026-04-11T08:50:14.444Z</time></trkpt><trkpt lat="44.7816467" lon="7.8427291"><ele>316.0</ele><time>2026-04-11T08:50:15.445Z</time></trkpt><trkpt lat="44.781747" lon="7.8427556"><ele>316.0</ele><time>2026-04-11T08:50:16.444Z</time></trkpt><trkpt lat="44.7818516" lon="7.8427366"><ele>315.0</ele><time>2026-04-11T08:50:17.445Z</time></trkpt><trkpt lat="44.7819589" lon="7.8426847"><ele>314.0</ele><time>2026-04-11T08:50:18.444Z</time></trkpt><trkpt lat="44.7820613" lon="7.8426135"><ele>313.0</ele><time>2026-04-11T08:50:19.444Z</time></trkpt><trkpt lat="44.7821562" lon="7.8425404"><ele>312.0</ele><time>2026-04-11T08:50:20.444Z</time></trkpt><trkpt lat="44.7822548" lon="7.8424738"><ele>311.0</ele><time>2026-04-11T08:50:21.444Z</time></trkpt><trkpt lat="44.7823558" lon="7.8424112"><ele>311.0</ele><time>2026-04-11T08:50:22.444Z</time></trkpt><trkpt lat="44.7824603" lon="7.8423553"><ele>311.0</ele><time>2026-04-11T08:50:23.444Z</time></trkpt><trkpt lat="44.7825673" lon="7.8423144"><ele>311.0</ele><time>2026-04-11T08:50:24.444Z</time></trkpt><trkpt lat="44.7826735" lon="7.8422913"><ele>311.0</ele><time>2026-04-11T08:50:25.444Z</time></trkpt><trkpt lat="44.7827806" lon="7.8422764"><ele>311.0</ele><time>2026-04-11T08:50:26.444Z</time></trkpt><trkpt lat="44.7828855" lon="7.8422725"><ele>309.40000000000003</ele><time>2026-04-11T08:50:27.444Z</time></trkpt><trkpt lat="44.7829945" lon="7.8422796"><ele>307.8</ele><time>2026-04-11T08:50:28.444Z</time></trkpt><trkpt lat="44.7831031" lon="7.8423005"><ele>306.20000000000005</ele><time>2026-04-11T08:50:29.444Z</time></trkpt><trkpt lat="44.7832161" lon="7.8423271"><ele>304.6</ele><time>2026-04-11T08:50:30.444Z</time></trkpt><trkpt lat="44.7833257" lon="7.8423616"><ele>303.0</ele><time>2026-04-11T08:50:31.444Z</time></trkpt><trkpt lat="44.7834327" lon="7.8424182"><ele>301.25</ele><time>2026-04-11T08:50:32.444Z</time></trkpt><trkpt lat="44.7835342" lon="7.8424863"><ele>299.5</ele><time>2026-04-11T08:50:33.444Z</time></trkpt><trkpt lat="44.78363" lon="7.8425704"><ele>297.75</ele><time>2026-04-11T08:50:34.444Z</time></trkpt><trkpt lat="44.7837254" lon="7.842662"><ele>296.0</ele><time>2026-04-11T08:50:35.444Z</time></trkpt><trkpt lat="44.7838132" lon="7.8427602"><ele>296.0</ele><time>2026-04-11T08:50:36.444Z</time></trkpt><trkpt lat="44.7838965" lon="7.8428687"><ele>296.0</ele><time>2026-04-11T08:50:37.444Z</time></trkpt><trkpt lat="44.7839756" lon="7.8429712"><ele>296.0</ele><time>2026-04-11T08:50:38.444Z</time></trkpt><trkpt lat="44.7840572" lon="7.8430716"><ele>296.0</ele><time>2026-04-11T08:50:39.444Z</time></trkpt><trkpt lat="44.7841334" lon="7.8431657"><ele>296.0</ele><time>2026-04-11T08:50:40.444Z</time></trkpt><trkpt lat="44.7842078" lon="7.8432619"><ele>296.0</ele><time>2026-04-11T08:50:41.444Z</time></trkpt><trkpt lat="44.7842783" lon="7.8433617"><ele>296.0</ele><time>2026-04-11T08:50:42.444Z</time></trkpt><trkpt lat="44.7843533" lon="7.8434583"><ele>296.0</ele><time>2026-04-11T08:50:43.444Z</time></trkpt><trkpt lat="44.7844317" lon="7.8435467"><ele>296.0</ele><time>2026-04-11T08:50:44.444Z</time></trkpt><trkpt lat="44.784505" lon="7.8436317"><ele>296.0</ele><time>2026-04-11T08:50:45.444Z</time></trkpt><trkpt lat="44.7845733" lon="7.843715"><ele>296.0</ele><time>2026-04-11T08:50:46.444Z</time></trkpt><trkpt lat="44.7846383" lon="7.8437967"><ele>296.0</ele><time>2026-04-11T08:50:47.444Z</time></trkpt><trkpt lat="44.784705" lon="7.8438833"><ele>296.0</ele><time>2026-04-11T08:50:48.444Z</time></trkpt><trkpt lat="44.78477" lon="7.8439683"><ele>296.0</ele><time>2026-04-11T08:50:49.444Z</time></trkpt><trkpt lat="44.784835" lon="7.8440467"><ele>296.0</ele><time>2026-04-11T08:50:50.445Z</time></trkpt><trkpt lat="44.7848967" lon="7.8441267"><ele>296.0</ele><time>2026-04-11T08:50:51.444Z</time></trkpt><trkpt lat="44.7849583" lon="7.8442067"><ele>296.0</ele><time>2026-04-11T08:50:52.444Z</time></trkpt><trkpt lat="44.785015" lon="7.8442833"><ele>296.0</ele><time>2026-04-11T08:50:53.444Z</time></trkpt><trkpt lat="44.78507" lon="7.844355"><ele>296.0</ele><time>2026-04-11T08:50:54.444Z</time></trkpt><trkpt lat="44.7851233" lon="7.84442"><ele>296.0</ele><time>2026-04-11T08:50:55.445Z</time></trkpt><trkpt lat="44.7851733" lon="7.8444833"><ele>296.0</ele><time>2026-04-11T08:50:56.444Z</time></trkpt><trkpt lat="44.78522" lon="7.8445433"><ele>296.0</ele><time>2026-04-11T08:50:57.444Z</time></trkpt><trkpt lat="44.7853033" lon="7.8446517"><ele>296.2</ele><time>2026-04-11T08:50:59.444Z</time></trkpt><trkpt lat="44.7853767" lon="7.8447417"><ele>296.40000000000003</ele><time>2026-04-11T08:51:01.444Z</time></trkpt><trkpt lat="44.7854433" lon="7.8448233"><ele>296.6</ele><time>2026-04-11T08:51:03.444Z</time></trkpt><trkpt lat="44.7855217" lon="7.8448483"><ele>296.8</ele><time>2026-04-11T08:51:05.444Z</time></trkpt><trkpt lat="44.7856017" lon="7.844795"><ele>297.0</ele><time>2026-04-11T08:51:07.444Z</time></trkpt><trkpt lat="44.7856583" lon="7.8446517"><ele>297.0</ele><time>2026-04-11T08:51:09.444Z</time></trkpt><trkpt lat="44.7856783" lon="7.8445617"><ele>297.0</ele><time>2026-04-11T08:51:10.444Z</time></trkpt><trkpt lat="44.7857017" lon="7.8444717"><ele>297.0</ele><time>2026-04-11T08:51:11.444Z</time></trkpt><trkpt lat="44.785725" lon="7.844375"><ele>297.0</ele><time>2026-04-11T08:51:12.444Z</time></trkpt><trkpt lat="44.7857433" lon="7.8442767"><ele>297.0</ele><time>2026-04-11T08:51:13.444Z</time></trkpt><trkpt lat="44.7857717" lon="7.84418"><ele>297.0</ele><time>2026-04-11T08:51:14.444Z</time></trkpt><trkpt lat="44.785795" lon="7.84408"><ele>297.0</ele><time>2026-04-11T08:51:15.444Z</time></trkpt><trkpt lat="44.7858133" lon="7.8439833"><ele>296.7142857142857</ele><time>2026-04-11T08:51:16.444Z</time></trkpt><trkpt lat="44.7858367" lon="7.84389"><ele>296.42857142857144</ele><time>2026-04-11T08:51:17.444Z</time></trkpt><trkpt lat="44.785855" lon="7.8437933"><ele>296.14285714285717</ele><time>2026-04-11T08:51:18.444Z</time></trkpt><trkpt lat="44.7858817" lon="7.84369"><ele>295.8571428571429</ele><time>2026-04-11T08:51:19.444Z</time></trkpt><trkpt lat="44.7859017" lon="7.8435883"><ele>295.57142857142856</ele><time>2026-04-11T08:51:20.444Z</time></trkpt><trkpt lat="44.785925" lon="7.8434933"><ele>295.28571428571433</ele><time>2026-04-11T08:51:21.444Z</time></trkpt><trkpt lat="44.78595" lon="7.8434017"><ele>295.0</ele><time>2026-04-11T08:51:22.444Z</time></trkpt><trkpt lat="44.7859683" lon="7.843315"><ele>294.8571428571429</ele><time>2026-04-11T08:51:23.444Z</time></trkpt><trkpt lat="44.7859883" lon="7.8432217"><ele>294.7142857142857</ele><time>2026-04-11T08:51:24.444Z</time></trkpt><trkpt lat="44.786005" lon="7.8431317"><ele>294.57142857142856</ele><time>2026-04-11T08:51:25.444Z</time></trkpt><trkpt lat="44.786025" lon="7.8430417"><ele>294.42857142857144</ele><time>2026-04-11T08:51:26.444Z</time></trkpt><trkpt lat="44.78605" lon="7.8429417"><ele>294.2857142857143</ele><time>2026-04-11T08:51:27.444Z</time></trkpt><trkpt lat="44.7860717" lon="7.8428433"><ele>294.14285714285717</ele><time>2026-04-11T08:51:28.444Z</time></trkpt><trkpt lat="44.786095" lon="7.8427417"><ele>294.0</ele><time>2026-04-11T08:51:29.444Z</time></trkpt><trkpt lat="44.7861233" lon="7.84264"><ele>294.57142857142856</ele><time>2026-04-11T08:51:30.444Z</time></trkpt><trkpt lat="44.78615" lon="7.8425333"><ele>295.1428571428571</ele><time>2026-04-11T08:51:31.444Z</time></trkpt><trkpt lat="44.7861733" lon="7.8424367"><ele>295.7142857142857</ele><time>2026-04-11T08:51:32.444Z</time></trkpt><trkpt lat="44.7861983" lon="7.842335"><ele>296.2857142857143</ele><time>2026-04-11T08:51:33.444Z</time></trkpt><trkpt lat="44.78622" lon="7.8422417"><ele>296.85714285714283</ele><time>2026-04-11T08:51:34.444Z</time></trkpt><trkpt lat="44.7862417" lon="7.8421467"><ele>297.42857142857144</ele><time>2026-04-11T08:51:35.444Z</time></trkpt><trkpt lat="44.7862633" lon="7.8420583"><ele>298.0</ele><time>2026-04-11T08:51:36.444Z</time></trkpt><trkpt lat="44.7862833" lon="7.84197"><ele>298.0</ele><time>2026-04-11T08:51:37.444Z</time></trkpt><trkpt lat="44.7863033" lon="7.8418817"><ele>298.0</ele><time>2026-04-11T08:51:38.444Z</time></trkpt><trkpt lat="44.78634" lon="7.8417167"><ele>298.0</ele><time>2026-04-11T08:51:40.444Z</time></trkpt><trkpt lat="44.7863733" lon="7.841565"><ele>298.0</ele><time>2026-04-11T08:51:42.444Z</time></trkpt><trkpt lat="44.7864133" lon="7.84143"><ele>298.0</ele><time>2026-04-11T08:51:44.444Z</time></trkpt><trkpt lat="44.7864933" lon="7.8413933"><ele>297.8</ele><time>2026-04-11T08:51:46.444Z</time></trkpt><trkpt lat="44.7865667" lon="7.8414483"><ele>297.6</ele><time>2026-04-11T08:51:48.444Z</time></trkpt><trkpt lat="44.7866517" lon="7.8415367"><ele>297.4</ele><time>2026-04-11T08:51:50.444Z</time></trkpt><trkpt lat="44.786735" lon="7.8416233"><ele>297.2</ele><time>2026-04-11T08:51:52.444Z</time></trkpt><trkpt lat="44.7868033" lon="7.841695"><ele>297.0</ele><time>2026-04-11T08:51:54.444Z</time></trkpt><trkpt lat="44.786875" lon="7.8417633"><ele>298.6</ele><time>2026-04-11T08:51:56.444Z</time></trkpt><trkpt lat="44.7869667" lon="7.84181"><ele>300.2</ele><time>2026-04-11T08:51:58.444Z</time></trkpt><trkpt lat="44.78707" lon="7.841805"><ele>301.8</ele><time>2026-04-11T08:52:00.444Z</time></trkpt><trkpt lat="44.78717" lon="7.8417833"><ele>303.4</ele><time>2026-04-11T08:52:02.445Z</time></trkpt><trkpt lat="44.7872667" lon="7.841745"><ele>305.0</ele><time>2026-04-11T08:52:04.444Z</time></trkpt><trkpt lat="44.7873483" lon="7.84172"><ele>305.2</ele><time>2026-04-11T08:52:06.444Z</time></trkpt><trkpt lat="44.7874333" lon="7.8416917"><ele>305.4</ele><time>2026-04-11T08:52:08.444Z</time></trkpt><trkpt lat="44.7875217" lon="7.8416783"><ele>305.6</ele><time>2026-04-11T08:52:10.444Z</time></trkpt><trkpt lat="44.787615" lon="7.841665"><ele>305.8</ele><time>2026-04-11T08:52:12.444Z</time></trkpt><trkpt lat="44.7877033" lon="7.8416467"><ele>306.0</ele><time>2026-04-11T08:52:14.444Z</time></trkpt><trkpt lat="44.7877933" lon="7.8416333"><ele>306.8333333333333</ele><time>2026-04-11T08:52:16.444Z</time></trkpt><trkpt lat="44.78788" lon="7.8416383"><ele>307.6666666666667</ele><time>2026-04-11T08:52:18.444Z</time></trkpt><trkpt lat="44.787965" lon="7.8416533"><ele>308.5</ele><time>2026-04-11T08:52:20.444Z</time></trkpt><trkpt lat="44.788035" lon="7.8416933"><ele>309.33333333333337</ele><time>2026-04-11T08:52:22.445Z</time></trkpt><trkpt lat="44.7881067" lon="7.8417267"><ele>310.1666666666667</ele><time>2026-04-11T08:52:24.444Z</time></trkpt><trkpt lat="44.78818" lon="7.8417733"><ele>311.0</ele><time>2026-04-11T08:52:26.444Z</time></trkpt><trkpt lat="44.7882483" lon="7.8418183"><ele>311.0</ele><time>2026-04-11T08:52:28.445Z</time></trkpt><trkpt lat="44.7883133" lon="7.84188"><ele>311.0</ele><time>2026-04-11T08:52:30.444Z</time></trkpt><trkpt lat="44.7883717" lon="7.8419533"><ele>311.0</ele><time>2026-04-11T08:52:32.444Z</time></trkpt><trkpt lat="44.7884333" lon="7.8420183"><ele>311.0</ele><time>2026-04-11T08:52:34.444Z</time></trkpt><trkpt lat="44.788485" lon="7.8420883"><ele>311.0</ele><time>2026-04-11T08:52:36.444Z</time></trkpt><trkpt lat="44.788535" lon="7.8421767"><ele>311.0</ele><time>2026-04-11T08:52:38.444Z</time></trkpt><trkpt lat="44.7885883" lon="7.8422567"><ele>311.5</ele><time>2026-04-11T08:52:40.444Z</time></trkpt><trkpt lat="44.7886433" lon="7.842345"><ele>312.0</ele><time>2026-04-11T08:52:42.444Z</time></trkpt><trkpt lat="44.7886983" lon="7.84243"><ele>312.5</ele><time>2026-04-11T08:52:44.444Z</time></trkpt><trkpt lat="44.7887467" lon="7.8425117"><ele>313.0</ele><time>2026-04-11T08:52:46.444Z</time></trkpt><trkpt lat="44.788785" lon="7.84261"><ele>313.5</ele><time>2026-04-11T08:52:48.444Z</time></trkpt><trkpt lat="44.7888333" lon="7.842705"><ele>314.0</ele><time>2026-04-11T08:52:50.444Z</time></trkpt><trkpt lat="44.78888" lon="7.8428"><ele>314.0</ele><time>2026-04-11T08:52:52.444Z</time></trkpt><trkpt lat="44.78893" lon="7.8428883"><ele>314.0</ele><time>2026-04-11T08:52:54.444Z</time></trkpt><trkpt lat="44.78899" lon="7.8429817"><ele>314.0</ele><time>2026-04-11T08:52:56.444Z</time></trkpt><trkpt lat="44.7890467" lon="7.8430633"><ele>314.0</ele><time>2026-04-11T08:52:58.444Z</time></trkpt><trkpt lat="44.78911" lon="7.8431433"><ele>314.0</ele><time>2026-04-11T08:53:00.444Z</time></trkpt><trkpt lat="44.7891667" lon="7.8432217"><ele>314.0</ele><time>2026-04-11T08:53:02.445Z</time></trkpt><trkpt lat="44.7892183" lon="7.8433017"><ele>314.0</ele><time>2026-04-11T08:53:04.444Z</time></trkpt><trkpt lat="44.7892667" lon="7.8433767"><ele>314.0</ele><time>2026-04-11T08:53:06.444Z</time></trkpt><trkpt lat="44.7893167" lon="7.843455"><ele>314.0</ele><time>2026-04-11T08:53:08.444Z</time></trkpt><trkpt lat="44.78938" lon="7.8435183"><ele>314.0</ele><time>2026-04-11T08:53:10.444Z</time></trkpt><trkpt lat="44.7894483" lon="7.84357"><ele>314.0</ele><time>2026-04-11T08:53:12.444Z</time></trkpt><trkpt lat="44.789515" lon="7.8436217"><ele>314.0</ele><time>2026-04-11T08:53:14.444Z</time></trkpt><trkpt lat="44.7895783" lon="7.8436767"><ele>315.0</ele><time>2026-04-11T08:53:16.444Z</time></trkpt><trkpt lat="44.7896533" lon="7.8437267"><ele>316.0</ele><time>2026-04-11T08:53:19.444Z</time></trkpt><trkpt lat="44.7897533" lon="7.8437467"><ele>317.0</ele><time>2026-04-11T08:53:22.444Z</time></trkpt><trkpt lat="44.7898283" lon="7.843765"><ele>318.0</ele><time>2026-04-11T08:53:24.444Z</time></trkpt><trkpt lat="44.789905" lon="7.8437833"><ele>319.0</ele><time>2026-04-11T08:53:26.444Z</time></trkpt><trkpt lat="44.789975" lon="7.8437967"><ele>320.0</ele><time>2026-04-11T08:53:28.444Z</time></trkpt><trkpt lat="44.790045" lon="7.8438117"><ele>320.0</ele><time>2026-04-11T08:53:30.444Z</time></trkpt><trkpt lat="44.7901167" lon="7.8438283"><ele>320.0</ele><time>2026-04-11T08:53:32.444Z</time></trkpt><trkpt lat="44.7901883" lon="7.8438517"><ele>320.0</ele><time>2026-04-11T08:53:34.444Z</time></trkpt><trkpt lat="44.790265" lon="7.8438633"><ele>320.0</ele><time>2026-04-11T08:53:36.444Z</time></trkpt><trkpt lat="44.790345" lon="7.8438667"><ele>320.0</ele><time>2026-04-11T08:53:38.444Z</time></trkpt><trkpt lat="44.7904217" lon="7.8438567"><ele>320.0</ele><time>2026-04-11T08:53:40.444Z</time></trkpt><trkpt lat="44.7904983" lon="7.8438383"><ele>321.0</ele><time>2026-04-11T08:53:42.444Z</time></trkpt><trkpt lat="44.7905733" lon="7.8438133"><ele>322.0</ele><time>2026-04-11T08:53:44.444Z</time></trkpt><trkpt lat="44.79065" lon="7.8437917"><ele>323.0</ele><time>2026-04-11T08:53:46.444Z</time></trkpt><trkpt lat="44.7907267" lon="7.8437717"><ele>324.0</ele><time>2026-04-11T08:53:48.444Z</time></trkpt><trkpt lat="44.7908017" lon="7.8437417"><ele>325.0</ele><time>2026-04-11T08:53:50.444Z</time></trkpt><trkpt lat="44.7908833" lon="7.8437117"><ele>326.0</ele><time>2026-04-11T08:53:52.444Z</time></trkpt><trkpt lat="44.7909633" lon="7.8436817"><ele>326.83333333333337</ele><time>2026-04-11T08:53:54.444Z</time></trkpt><trkpt lat="44.7910367" lon="7.8436683"><ele>327.6666666666667</ele><time>2026-04-11T08:53:56.444Z</time></trkpt><trkpt lat="44.7911183" lon="7.8436733"><ele>328.5</ele><time>2026-04-11T08:53:58.445Z</time></trkpt><trkpt lat="44.7911933" lon="7.8437017"><ele>329.3333333333333</ele><time>2026-04-11T08:54:00.444Z</time></trkpt><trkpt lat="44.7912667" lon="7.8437517"><ele>330.16666666666663</ele><time>2026-04-11T08:54:02.444Z</time></trkpt><trkpt lat="44.7913383" lon="7.8437933"><ele>331.0</ele><time>2026-04-11T08:54:04.444Z</time></trkpt><trkpt lat="44.7914017" lon="7.8438567"><ele>331.0</ele><time>2026-04-11T08:54:06.444Z</time></trkpt><trkpt lat="44.791445" lon="7.8439467"><ele>331.0</ele><time>2026-04-11T08:54:08.444Z</time></trkpt><trkpt lat="44.7914833" lon="7.8440467"><ele>331.0</ele><time>2026-04-11T08:54:10.444Z</time></trkpt><trkpt lat="44.7915033" lon="7.8441483"><ele>331.0</ele><time>2026-04-11T08:54:12.444Z</time></trkpt><trkpt lat="44.7915233" lon="7.8442617"><ele>331.0</ele><time>2026-04-11T08:54:14.444Z</time></trkpt><trkpt lat="44.7915483" lon="7.84437"><ele>331.0</ele><time>2026-04-11T08:54:16.444Z</time></trkpt><trkpt lat="44.7915783" lon="7.8444733"><ele>330.8333333333333</ele><time>2026-04-11T08:54:18.444Z</time></trkpt><trkpt lat="44.79162" lon="7.8445733"><ele>330.66666666666663</ele><time>2026-04-11T08:54:20.444Z</time></trkpt><trkpt lat="44.79165" lon="7.84466"><ele>330.5</ele><time>2026-04-11T08:54:22.444Z</time></trkpt><trkpt lat="44.791675" lon="7.8447667"><ele>330.3333333333333</ele><time>2026-04-11T08:54:24.444Z</time></trkpt><trkpt lat="44.7916867" lon="7.8448867"><ele>330.1666666666667</ele><time>2026-04-11T08:54:26.444Z</time></trkpt><trkpt lat="44.7917133" lon="7.8450267"><ele>330.0</ele><time>2026-04-11T08:54:28.444Z</time></trkpt><trkpt lat="44.7917433" lon="7.845165"><ele>330.0</ele><time>2026-04-11T08:54:30.444Z</time></trkpt><trkpt lat="44.7917817" lon="7.8453183"><ele>330.0</ele><time>2026-04-11T08:54:32.444Z</time></trkpt><trkpt lat="44.7918417" lon="7.8454467"><ele>330.0</ele><time>2026-04-11T08:54:34.445Z</time></trkpt><trkpt lat="44.7919383" lon="7.8455317"><ele>330.0</ele><time>2026-04-11T08:54:36.444Z</time></trkpt><trkpt lat="44.7920433" lon="7.8455817"><ele>330.0</ele><time>2026-04-11T08:54:38.444Z</time></trkpt><trkpt lat="44.7921483" lon="7.8455667"><ele>330.6</ele><time>2026-04-11T08:54:40.444Z</time></trkpt><trkpt lat="44.7922533" lon="7.845505"><ele>331.2</ele><time>2026-04-11T08:54:42.444Z</time></trkpt><trkpt lat="44.792355" lon="7.8454383"><ele>331.79999999999995</ele><time>2026-04-11T08:54:44.444Z</time></trkpt><trkpt lat="44.7924517" lon="7.8453967"><ele>332.4</ele><time>2026-04-11T08:54:46.444Z</time></trkpt><trkpt lat="44.7925433" lon="7.8453583"><ele>333.0</ele><time>2026-04-11T08:54:48.444Z</time></trkpt><trkpt lat="44.7926383" lon="7.845315"><ele>332.2</ele><time>2026-04-11T08:54:50.444Z</time></trkpt><trkpt lat="44.7927483" lon="7.84527"><ele>331.4</ele><time>2026-04-11T08:54:52.444Z</time></trkpt><trkpt lat="44.7928667" lon="7.84522"><ele>330.59999999999997</ele><time>2026-04-11T08:54:54.444Z</time></trkpt><trkpt lat="44.7929617" lon="7.8451817"><ele>329.79999999999995</ele><time>2026-04-11T08:54:56.444Z</time></trkpt><trkpt lat="44.7930417" lon="7.8451867"><ele>329.0</ele><time>2026-04-11T08:54:59.444Z</time></trkpt><trkpt lat="44.793065" lon="7.845335"><ele>329.0</ele><time>2026-04-11T08:55:02.444Z</time></trkpt><trkpt lat="44.7930567" lon="7.8454783"><ele>329.0</ele><time>2026-04-11T08:55:04.444Z</time></trkpt><trkpt lat="44.79305" lon="7.8456383"><ele>329.0</ele><time>2026-04-11T08:55:06.444Z</time></trkpt><trkpt lat="44.79304" lon="7.8458033"><ele>329.0</ele><time>2026-04-11T08:55:08.444Z</time></trkpt><trkpt lat="44.7930267" lon="7.84595"><ele>329.0</ele><time>2026-04-11T08:55:10.444Z</time></trkpt><trkpt lat="44.7930033" lon="7.8460967"><ele>329.25</ele><time>2026-04-11T08:55:12.444Z</time></trkpt><trkpt lat="44.7929817" lon="7.8462517"><ele>329.5</ele><time>2026-04-11T08:55:14.444Z</time></trkpt><trkpt lat="44.792955" lon="7.846415"><ele>329.75</ele><time>2026-04-11T08:55:16.444Z</time></trkpt><trkpt lat="44.7929283" lon="7.8465717"><ele>330.0</ele><time>2026-04-11T08:55:18.444Z</time></trkpt><trkpt lat="44.792895" lon="7.8467267"><ele>330.5</ele><time>2026-04-11T08:55:20.444Z</time></trkpt><trkpt lat="44.79287" lon="7.8468833"><ele>331.0</ele><time>2026-04-11T08:55:22.444Z</time></trkpt><trkpt lat="44.792855" lon="7.8470467"><ele>331.5</ele><time>2026-04-11T08:55:24.444Z</time></trkpt><trkpt lat="44.79289" lon="7.8472033"><ele>332.0</ele><time>2026-04-11T08:55:26.444Z</time></trkpt><trkpt lat="44.792975" lon="7.84731"><ele>332.0</ele><time>2026-04-11T08:55:28.444Z</time></trkpt><trkpt lat="44.7930833" lon="7.8473533"><ele>332.0</ele><time>2026-04-11T08:55:30.444Z</time></trkpt><trkpt lat="44.7932" lon="7.8473883"><ele>332.0</ele><time>2026-04-11T08:55:32.444Z</time></trkpt><trkpt lat="44.79331" lon="7.8474233"><ele>332.0</ele><time>2026-04-11T08:55:34.444Z</time></trkpt><trkpt lat="44.7934283" lon="7.84746"><ele>332.40000000000003</ele><time>2026-04-11T08:55:36.444Z</time></trkpt><trkpt lat="44.7935333" lon="7.8474983"><ele>332.8</ele><time>2026-04-11T08:55:38.444Z</time></trkpt><trkpt lat="44.7936383" lon="7.8475333"><ele>333.2</ele><time>2026-04-11T08:55:40.444Z</time></trkpt><trkpt lat="44.7937417" lon="7.847575"><ele>333.6</ele><time>2026-04-11T08:55:42.444Z</time></trkpt><trkpt lat="44.79385" lon="7.8476133"><ele>334.0</ele><time>2026-04-11T08:55:44.444Z</time></trkpt><trkpt lat="44.7939633" lon="7.8476517"><ele>334.0</ele><time>2026-04-11T08:55:46.444Z</time></trkpt><trkpt lat="44.79408" lon="7.8476883"><ele>334.0</ele><time>2026-04-11T08:55:48.444Z</time></trkpt><trkpt lat="44.7941967" lon="7.8477317"><ele>334.0</ele><time>2026-04-11T08:55:50.444Z</time></trkpt><trkpt lat="44.7942617" lon="7.847755"><ele>334.0</ele><time>2026-04-11T08:55:51.444Z</time></trkpt><trkpt lat="44.79433" lon="7.84778"><ele>334.0</ele><time>2026-04-11T08:55:52.444Z</time></trkpt><trkpt lat="44.7943933" lon="7.8478033"><ele>334.0</ele><time>2026-04-11T08:55:53.444Z</time></trkpt><trkpt lat="44.7945117" lon="7.84785"><ele>334.0</ele><time>2026-04-11T08:55:55.444Z</time></trkpt><trkpt lat="44.794575" lon="7.8478783"><ele>334.0</ele><time>2026-04-11T08:55:56.444Z</time></trkpt><trkpt lat="44.79469" lon="7.8479333"><ele>334.0</ele><time>2026-04-11T08:55:58.444Z</time></trkpt><trkpt lat="44.794805" lon="7.8479917"><ele>334.0</ele><time>2026-04-11T08:56:00.444Z</time></trkpt><trkpt lat="44.794865" lon="7.8480233"><ele>334.0</ele><time>2026-04-11T08:56:01.444Z</time></trkpt><trkpt lat="44.7949267" lon="7.8480517"><ele>334.0</ele><time>2026-04-11T08:56:02.444Z</time></trkpt><trkpt lat="44.7949883" lon="7.84808"><ele>334.0</ele><time>2026-04-11T08:56:03.445Z</time></trkpt><trkpt lat="44.7950533" lon="7.84811"><ele>334.0</ele><time>2026-04-11T08:56:04.444Z</time></trkpt><trkpt lat="44.795115" lon="7.848145"><ele>334.0</ele><time>2026-04-11T08:56:05.444Z</time></trkpt><trkpt lat="44.7951767" lon="7.848175"><ele>334.0</ele><time>2026-04-11T08:56:06.444Z</time></trkpt><trkpt lat="44.79524" lon="7.8482083"><ele>334.0</ele><time>2026-04-11T08:56:07.444Z</time></trkpt><trkpt lat="44.7953" lon="7.84824"><ele>334.0</ele><time>2026-04-11T08:56:08.444Z</time></trkpt><trkpt lat="44.7953633" lon="7.8482767"><ele>334.0</ele><time>2026-04-11T08:56:09.444Z</time></trkpt><trkpt lat="44.795425" lon="7.8483117"><ele>333.66666666666663</ele><time>2026-04-11T08:56:10.444Z</time></trkpt><trkpt lat="44.7954883" lon="7.848345"><ele>333.3333333333333</ele><time>2026-04-11T08:56:11.444Z</time></trkpt><trkpt lat="44.7955483" lon="7.84838"><ele>333.0</ele><time>2026-04-11T08:56:12.445Z</time></trkpt><trkpt lat="44.795605" lon="7.8484233"><ele>332.6666666666667</ele><time>2026-04-11T08:56:13.444Z</time></trkpt><trkpt lat="44.7957183" lon="7.8484967"><ele>332.33333333333337</ele><time>2026-04-11T08:56:15.444Z</time></trkpt><trkpt lat="44.7958317" lon="7.848565"><ele>332.0</ele><time>2026-04-11T08:56:17.444Z</time></trkpt><trkpt lat="44.79589" lon="7.8486"><ele>332.0</ele><time>2026-04-11T08:56:18.444Z</time></trkpt><trkpt lat="44.7959483" lon="7.8486367"><ele>332.0</ele><time>2026-04-11T08:56:19.444Z</time></trkpt><trkpt lat="44.796005" lon="7.8486767"><ele>332.0</ele><time>2026-04-11T08:56:20.444Z</time></trkpt><trkpt lat="44.7961183" lon="7.8487533"><ele>332.0</ele><time>2026-04-11T08:56:22.444Z</time></trkpt><trkpt lat="44.796175" lon="7.8487967"><ele>332.0</ele><time>2026-04-11T08:56:23.444Z</time></trkpt><trkpt lat="44.79627" lon="7.8488933"><ele>332.0</ele><time>2026-04-11T08:56:25.444Z</time></trkpt><trkpt lat="44.79633" lon="7.84905"><ele>331.83333333333337</ele><time>2026-04-11T08:56:27.444Z</time></trkpt><trkpt lat="44.79634" lon="7.84915"><ele>331.6666666666667</ele><time>2026-04-11T08:56:28.444Z</time></trkpt><trkpt lat="44.7963417" lon="7.8492517"><ele>331.5</ele><time>2026-04-11T08:56:29.444Z</time></trkpt><trkpt lat="44.7963367" lon="7.84936"><ele>331.3333333333333</ele><time>2026-04-11T08:56:30.444Z</time></trkpt><trkpt lat="44.7963267" lon="7.8494667"><ele>331.16666666666663</ele><time>2026-04-11T08:56:31.444Z</time></trkpt><trkpt lat="44.7963217" lon="7.8495767"><ele>331.0</ele><time>2026-04-11T08:56:32.444Z</time></trkpt><trkpt lat="44.7963117" lon="7.8496883"><ele>330.5</ele><time>2026-04-11T08:56:33.444Z</time></trkpt><trkpt lat="44.7963067" lon="7.8498"><ele>330.0</ele><time>2026-04-11T08:56:34.444Z</time></trkpt><trkpt lat="44.79629" lon="7.8499133"><ele>329.5</ele><time>2026-04-11T08:56:35.444Z</time></trkpt><trkpt lat="44.7962783" lon="7.850025"><ele>329.0</ele><time>2026-04-11T08:56:36.444Z</time></trkpt><trkpt lat="44.7962633" lon="7.8501333"><ele>328.5</ele><time>2026-04-11T08:56:37.444Z</time></trkpt><trkpt lat="44.7962517" lon="7.8502417"><ele>328.0</ele><time>2026-04-11T08:56:38.444Z</time></trkpt><trkpt lat="44.796235" lon="7.8503483"><ele>327.3333333333333</ele><time>2026-04-11T08:56:39.444Z</time></trkpt><trkpt lat="44.7962233" lon="7.8504583"><ele>326.66666666666663</ele><time>2026-04-11T08:56:40.444Z</time></trkpt><trkpt lat="44.7962067" lon="7.8505683"><ele>326.0</ele><time>2026-04-11T08:56:41.444Z</time></trkpt><trkpt lat="44.796205" lon="7.8506717"><ele>325.3333333333333</ele><time>2026-04-11T08:56:42.444Z</time></trkpt><trkpt lat="44.7962333" lon="7.85076"><ele>324.6666666666667</ele><time>2026-04-11T08:56:43.444Z</time></trkpt><trkpt lat="44.79629" lon="7.850825"><ele>324.0</ele><time>2026-04-11T08:56:44.444Z</time></trkpt><trkpt lat="44.7963633" lon="7.8508567"><ele>324.0</ele><time>2026-04-11T08:56:45.444Z</time></trkpt><trkpt lat="44.796445" lon="7.850855"><ele>324.0</ele><time>2026-04-11T08:56:46.444Z</time></trkpt><trkpt lat="44.796525" lon="7.8508383"><ele>324.0</ele><time>2026-04-11T08:56:47.444Z</time></trkpt><trkpt lat="44.7966117" lon="7.8508133"><ele>324.0</ele><time>2026-04-11T08:56:48.444Z</time></trkpt><trkpt lat="44.79669" lon="7.850795"><ele>324.0</ele><time>2026-04-11T08:56:49.444Z</time></trkpt><trkpt lat="44.7967667" lon="7.850775"><ele>324.0</ele><time>2026-04-11T08:56:50.444Z</time></trkpt><trkpt lat="44.7968417" lon="7.8507533"><ele>324.0</ele><time>2026-04-11T08:56:51.444Z</time></trkpt><trkpt lat="44.796915" lon="7.8507233"><ele>324.0</ele><time>2026-04-11T08:56:52.444Z</time></trkpt><trkpt lat="44.79699" lon="7.8506967"><ele>324.0</ele><time>2026-04-11T08:56:53.445Z</time></trkpt><trkpt lat="44.7970633" lon="7.8506717"><ele>324.0</ele><time>2026-04-11T08:56:54.444Z</time></trkpt><trkpt lat="44.7971367" lon="7.85065"><ele>324.0</ele><time>2026-04-11T08:56:55.444Z</time></trkpt><trkpt lat="44.79721" lon="7.8506283"><ele>324.0</ele><time>2026-04-11T08:56:56.444Z</time></trkpt><trkpt lat="44.797285" lon="7.8506083"><ele>324.0</ele><time>2026-04-11T08:56:57.444Z</time></trkpt><trkpt lat="44.79736" lon="7.8506083"><ele>324.0</ele><time>2026-04-11T08:56:58.444Z</time></trkpt><trkpt lat="44.7974267" lon="7.8506367"><ele>324.0</ele><time>2026-04-11T08:56:59.444Z</time></trkpt><trkpt lat="44.797485" lon="7.8506967"><ele>324.0</ele><time>2026-04-11T08:57:00.444Z</time></trkpt><trkpt lat="44.797525" lon="7.8507783"><ele>324.0</ele><time>2026-04-11T08:57:01.444Z</time></trkpt><trkpt lat="44.7975583" lon="7.8508783"><ele>324.0</ele><time>2026-04-11T08:57:02.444Z</time></trkpt><trkpt lat="44.79759" lon="7.8509783"><ele>324.0</ele><time>2026-04-11T08:57:03.444Z</time></trkpt><trkpt lat="44.79762" lon="7.8510767"><ele>323.8571428571429</ele><time>2026-04-11T08:57:04.444Z</time></trkpt><trkpt lat="44.7976533" lon="7.8511733"><ele>323.7142857142857</ele><time>2026-04-11T08:57:05.444Z</time></trkpt><trkpt lat="44.7976833" lon="7.8512717"><ele>323.57142857142856</ele><time>2026-04-11T08:57:06.445Z</time></trkpt><trkpt lat="44.797715" lon="7.8513633"><ele>323.42857142857144</ele><time>2026-04-11T08:57:07.444Z</time></trkpt><trkpt lat="44.7977433" lon="7.8514583"><ele>323.2857142857143</ele><time>2026-04-11T08:57:08.444Z</time></trkpt><trkpt lat="44.79777" lon="7.8515583"><ele>323.14285714285717</ele><time>2026-04-11T08:57:09.444Z</time></trkpt><trkpt lat="44.7977983" lon="7.85165"><ele>323.0</ele><time>2026-04-11T08:57:10.444Z</time></trkpt><trkpt lat="44.79783" lon="7.8517367"><ele>323.00000000000006</ele><time>2026-04-11T08:57:11.444Z</time></trkpt><trkpt lat="44.7978617" lon="7.8518267"><ele>323.0</ele><time>2026-04-11T08:57:12.444Z</time></trkpt><trkpt lat="44.7978867" lon="7.8519117"><ele>323.0</ele><time>2026-04-11T08:57:13.444Z</time></trkpt><trkpt lat="44.7979133" lon="7.851995"><ele>323.0</ele><time>2026-04-11T08:57:14.444Z</time></trkpt><trkpt lat="44.7979417" lon="7.8520767"><ele>323.0</ele><time>2026-04-11T08:57:15.444Z</time></trkpt><trkpt lat="44.79797" lon="7.8521583"><ele>323.00000000000006</ele><time>2026-04-11T08:57:16.445Z</time></trkpt><trkpt lat="44.7979983" lon="7.85224"><ele>323.0</ele><time>2026-04-11T08:57:17.444Z</time></trkpt><trkpt lat="44.7980533" lon="7.8523967"><ele>323.0</ele><time>2026-04-11T08:57:19.444Z</time></trkpt><trkpt lat="44.7981183" lon="7.8525317"><ele>323.0</ele><time>2026-04-11T08:57:21.444Z</time></trkpt><trkpt lat="44.7982317" lon="7.8525883"><ele>323.0</ele><time>2026-04-11T08:57:23.445Z</time></trkpt><trkpt lat="44.7982983" lon="7.8525717"><ele>323.0</ele><time>2026-04-11T08:57:24.444Z</time></trkpt><trkpt lat="44.7983667" lon="7.852545"><ele>323.0</ele><time>2026-04-11T08:57:25.444Z</time></trkpt><trkpt lat="44.7984367" lon="7.8525033"><ele>322.33333333333337</ele><time>2026-04-11T08:57:26.444Z</time></trkpt><trkpt lat="44.79851" lon="7.8524633"><ele>321.6666666666667</ele><time>2026-04-11T08:57:27.444Z</time></trkpt><trkpt lat="44.7985817" lon="7.8524283"><ele>321.0</ele><time>2026-04-11T08:57:28.444Z</time></trkpt><trkpt lat="44.7986567" lon="7.85239"><ele>320.3333333333333</ele><time>2026-04-11T08:57:29.444Z</time></trkpt><trkpt lat="44.7987233" lon="7.8523617"><ele>319.66666666666663</ele><time>2026-04-11T08:57:30.444Z</time></trkpt><trkpt lat="44.798795" lon="7.8523317"><ele>319.0</ele><time>2026-04-11T08:57:31.444Z</time></trkpt><trkpt lat="44.7988667" lon="7.8522983"><ele>319.0</ele><time>2026-04-11T08:57:32.444Z</time></trkpt><trkpt lat="44.7989333" lon="7.85227"><ele>319.0</ele><time>2026-04-11T08:57:33.444Z</time></trkpt><trkpt lat="44.798995" lon="7.852245"><ele>319.0</ele><time>2026-04-11T08:57:34.445Z</time></trkpt><trkpt lat="44.7990567" lon="7.8522167"><ele>319.0</ele><time>2026-04-11T08:57:35.444Z</time></trkpt><trkpt lat="44.7991183" lon="7.852185"><ele>319.0</ele><time>2026-04-11T08:57:36.444Z</time></trkpt><trkpt lat="44.799185" lon="7.8521617"><ele>319.0</ele><time>2026-04-11T08:57:37.445Z</time></trkpt><trkpt lat="44.7992517" lon="7.85213"><ele>319.0</ele><time>2026-04-11T08:57:38.444Z</time></trkpt><trkpt lat="44.7993167" lon="7.852105"><ele>318.3333333333333</ele><time>2026-04-11T08:57:39.444Z</time></trkpt><trkpt lat="44.799435" lon="7.85206"><ele>317.66666666666663</ele><time>2026-04-11T08:57:41.444Z</time></trkpt><trkpt lat="44.7994983" lon="7.8520483"><ele>317.0</ele><time>2026-04-11T08:57:42.444Z</time></trkpt><trkpt lat="44.7995633" lon="7.85206"><ele>316.3333333333333</ele><time>2026-04-11T08:57:43.444Z</time></trkpt><trkpt lat="44.7996317" lon="7.85211"><ele>315.6666666666667</ele><time>2026-04-11T08:57:44.444Z</time></trkpt><trkpt lat="44.7996917" lon="7.8522"><ele>315.0</ele><time>2026-04-11T08:57:45.444Z</time></trkpt><trkpt lat="44.799745" lon="7.8523117"><ele>315.0</ele><time>2026-04-11T08:57:46.444Z</time></trkpt><trkpt lat="44.799795" lon="7.85244"><ele>315.0</ele><time>2026-04-11T08:57:47.444Z</time></trkpt><trkpt lat="44.7998417" lon="7.8525817"><ele>315.0</ele><time>2026-04-11T08:57:48.444Z</time></trkpt><trkpt lat="44.7998933" lon="7.8527217"><ele>315.0</ele><time>2026-04-11T08:57:49.444Z</time></trkpt><trkpt lat="44.7999467" lon="7.85286"><ele>315.0</ele><time>2026-04-11T08:57:50.444Z</time></trkpt><trkpt lat="44.800005" lon="7.8530017"><ele>315.2</ele><time>2026-04-11T08:57:51.444Z</time></trkpt><trkpt lat="44.8000633" lon="7.8531383"><ele>315.4</ele><time>2026-04-11T08:57:52.444Z</time></trkpt><trkpt lat="44.8001217" lon="7.85327"><ele>315.6</ele><time>2026-04-11T08:57:53.444Z</time></trkpt><trkpt lat="44.80018" lon="7.853395"><ele>315.8</ele><time>2026-04-11T08:57:54.444Z</time></trkpt><trkpt lat="44.8002283" lon="7.8535117"><ele>316.0</ele><time>2026-04-11T08:57:55.445Z</time></trkpt><trkpt lat="44.8002733" lon="7.8536267"><ele>317.0</ele><time>2026-04-11T08:57:56.444Z</time></trkpt><trkpt lat="44.8003217" lon="7.8537317"><ele>318.0</ele><time>2026-04-11T08:57:57.445Z</time></trkpt><trkpt lat="44.8003617" lon="7.8538383"><ele>319.0</ele><time>2026-04-11T08:57:58.444Z</time></trkpt><trkpt lat="44.8003967" lon="7.8539333"><ele>320.0</ele><time>2026-04-11T08:57:59.444Z</time></trkpt><trkpt lat="44.8004283" lon="7.8540267"><ele>321.0</ele><time>2026-04-11T08:58:00.444Z</time></trkpt><trkpt lat="44.8004683" lon="7.85411"><ele>322.0</ele><time>2026-04-11T08:58:01.444Z</time></trkpt><trkpt lat="44.8005083" lon="7.854185"><ele>322.0</ele><time>2026-04-11T08:58:02.444Z</time></trkpt><trkpt lat="44.8005483" lon="7.85426"><ele>322.0</ele><time>2026-04-11T08:58:03.444Z</time></trkpt><trkpt lat="44.8005833" lon="7.85434"><ele>322.0</ele><time>2026-04-11T08:58:04.444Z</time></trkpt><trkpt lat="44.8006183" lon="7.8544183"><ele>322.0</ele><time>2026-04-11T08:58:05.444Z</time></trkpt><trkpt lat="44.8006817" lon="7.8545683"><ele>322.0</ele><time>2026-04-11T08:58:07.444Z</time></trkpt><trkpt lat="44.8007433" lon="7.8547083"><ele>322.0</ele><time>2026-04-11T08:58:09.444Z</time></trkpt><trkpt lat="44.8007983" lon="7.85484"><ele>323.8</ele><time>2026-04-11T08:58:11.444Z</time></trkpt><trkpt lat="44.800865" lon="7.854945"><ele>325.6</ele><time>2026-04-11T08:58:13.444Z</time></trkpt><trkpt lat="44.8009117" lon="7.85506"><ele>327.40000000000003</ele><time>2026-04-11T08:58:15.444Z</time></trkpt><trkpt lat="44.800945" lon="7.85519"><ele>329.20000000000005</ele><time>2026-04-11T08:58:17.444Z</time></trkpt><trkpt lat="44.80095" lon="7.8553167"><ele>331.0</ele><time>2026-04-11T08:58:19.444Z</time></trkpt><trkpt lat="44.8009433" lon="7.8554517"><ele>331.5</ele><time>2026-04-11T08:58:21.444Z</time></trkpt><trkpt lat="44.80092" lon="7.855575"><ele>332.0</ele><time>2026-04-11T08:58:23.444Z</time></trkpt><trkpt lat="44.8008883" lon="7.8557017"><ele>332.5</ele><time>2026-04-11T08:58:25.444Z</time></trkpt><trkpt lat="44.800855" lon="7.8558133"><ele>333.0</ele><time>2026-04-11T08:58:27.445Z</time></trkpt><trkpt lat="44.8008167" lon="7.8559167"><ele>333.5</ele><time>2026-04-11T08:58:29.444Z</time></trkpt><trkpt lat="44.80078" lon="7.8560217"><ele>334.0</ele><time>2026-04-11T08:58:31.444Z</time></trkpt><trkpt lat="44.80076" lon="7.8561217"><ele>334.0</ele><time>2026-04-11T08:58:33.444Z</time></trkpt><trkpt lat="44.8007667" lon="7.8562383"><ele>334.0</ele><time>2026-04-11T08:58:35.444Z</time></trkpt><trkpt lat="44.8008083" lon="7.8563783"><ele>334.0</ele><time>2026-04-11T08:58:37.444Z</time></trkpt><trkpt lat="44.8008783" lon="7.8564583"><ele>334.0</ele><time>2026-04-11T08:58:39.444Z</time></trkpt><trkpt lat="44.80096" lon="7.856525"><ele>334.0</ele><time>2026-04-11T08:58:41.444Z</time></trkpt><trkpt lat="44.8010367" lon="7.8565883"><ele>334.0</ele><time>2026-04-11T08:58:43.444Z</time></trkpt><trkpt lat="44.8011133" lon="7.856655"><ele>334.0</ele><time>2026-04-11T08:58:45.444Z</time></trkpt><trkpt lat="44.8011733" lon="7.8567133"><ele>334.0</ele><time>2026-04-11T08:58:47.444Z</time></trkpt><trkpt lat="44.8012333" lon="7.8567933"><ele>334.0</ele><time>2026-04-11T08:58:50.444Z</time></trkpt><trkpt lat="44.8012933" lon="7.85687"><ele>334.0</ele><time>2026-04-11T08:58:54.444Z</time></trkpt><trkpt lat="44.80134" lon="7.8569317"><ele>334.0</ele><time>2026-04-11T08:58:57.444Z</time></trkpt><trkpt lat="44.8013667" lon="7.85703"><ele>333.3333333333333</ele><time>2026-04-11T08:59:01.444Z</time></trkpt><trkpt lat="44.8013783" lon="7.8571233"><ele>332.66666666666663</ele><time>2026-04-11T08:59:03.444Z</time></trkpt><trkpt lat="44.80138" lon="7.8572667"><ele>332.0</ele><time>2026-04-11T08:59:05.444Z</time></trkpt><trkpt lat="44.8013683" lon="7.8574383"><ele>331.3333333333333</ele><time>2026-04-11T08:59:07.444Z</time></trkpt><trkpt lat="44.80136" lon="7.85754"><ele>330.6666666666667</ele><time>2026-04-11T08:59:08.444Z</time></trkpt><trkpt lat="44.8013433" lon="7.857655"><ele>330.0</ele><time>2026-04-11T08:59:09.444Z</time></trkpt><trkpt lat="44.80133" lon="7.8577833"><ele>328.4</ele><time>2026-04-11T08:59:10.444Z</time></trkpt><trkpt lat="44.8013183" lon="7.8579183"><ele>326.8</ele><time>2026-04-11T08:59:11.444Z</time></trkpt><trkpt lat="44.8013067" lon="7.8580533"><ele>325.20000000000005</ele><time>2026-04-11T08:59:12.444Z</time></trkpt><trkpt lat="44.8012933" lon="7.8581933"><ele>323.6</ele><time>2026-04-11T08:59:13.444Z</time></trkpt><trkpt lat="44.80127" lon="7.8583333"><ele>322.0</ele><time>2026-04-11T08:59:14.444Z</time></trkpt><trkpt lat="44.8012467" lon="7.85848"><ele>321.8</ele><time>2026-04-11T08:59:15.444Z</time></trkpt><trkpt lat="44.8012583" lon="7.8586183"><ele>321.6</ele><time>2026-04-11T08:59:16.444Z</time></trkpt><trkpt lat="44.8012983" lon="7.85876"><ele>321.40000000000003</ele><time>2026-04-11T08:59:17.444Z</time></trkpt><trkpt lat="44.8013617" lon="7.858885"><ele>321.20000000000005</ele><time>2026-04-11T08:59:18.445Z</time></trkpt><trkpt lat="44.80144" lon="7.859005"><ele>321.0</ele><time>2026-04-11T08:59:19.444Z</time></trkpt><trkpt lat="44.801525" lon="7.8591083"><ele>321.0</ele><time>2026-04-11T08:59:20.444Z</time></trkpt><trkpt lat="44.801615" lon="7.8592117"><ele>321.0</ele><time>2026-04-11T08:59:21.444Z</time></trkpt><trkpt lat="44.8017" lon="7.8593117"><ele>321.0</ele><time>2026-04-11T08:59:22.444Z</time></trkpt><trkpt lat="44.80177" lon="7.8594267"><ele>321.0</ele><time>2026-04-11T08:59:23.444Z</time></trkpt><trkpt lat="44.801825" lon="7.859545"><ele>321.0</ele><time>2026-04-11T08:59:24.444Z</time></trkpt><trkpt lat="44.8018817" lon="7.8596717"><ele>322.8</ele><time>2026-04-11T08:59:25.444Z</time></trkpt><trkpt lat="44.8019283" lon="7.8598033"><ele>324.6</ele><time>2026-04-11T08:59:26.444Z</time></trkpt><trkpt lat="44.801965" lon="7.8599333"><ele>326.4</ele><time>2026-04-11T08:59:27.444Z</time></trkpt><trkpt lat="44.8019967" lon="7.8600617"><ele>328.2</ele><time>2026-04-11T08:59:28.445Z</time></trkpt><trkpt lat="44.8020283" lon="7.86018"><ele>330.0</ele><time>2026-04-11T08:59:29.444Z</time></trkpt><trkpt lat="44.8020617" lon="7.860295"><ele>330.0</ele><time>2026-04-11T08:59:30.444Z</time></trkpt><trkpt lat="44.802095" lon="7.860405"><ele>330.0</ele><time>2026-04-11T08:59:31.444Z</time></trkpt><trkpt lat="44.80213" lon="7.860515"><ele>330.0</ele><time>2026-04-11T08:59:32.444Z</time></trkpt><trkpt lat="44.8021633" lon="7.86062"><ele>330.0</ele><time>2026-04-11T08:59:33.444Z</time></trkpt><trkpt lat="44.8021933" lon="7.86072"><ele>330.0</ele><time>2026-04-11T08:59:34.444Z</time></trkpt><trkpt lat="44.8022217" lon="7.8608183"><ele>330.0</ele><time>2026-04-11T08:59:35.444Z</time></trkpt><trkpt lat="44.802255" lon="7.8609183"><ele>329.5714285714286</ele><time>2026-04-11T08:59:36.444Z</time></trkpt><trkpt lat="44.8022867" lon="7.8610133"><ele>329.14285714285717</ele><time>2026-04-11T08:59:37.444Z</time></trkpt><trkpt lat="44.8023233" lon="7.8611"><ele>328.7142857142857</ele><time>2026-04-11T08:59:38.444Z</time></trkpt><trkpt lat="44.8023683" lon="7.8611867"><ele>328.28571428571433</ele><time>2026-04-11T08:59:39.445Z</time></trkpt><trkpt lat="44.802415" lon="7.8612617"><ele>327.8571428571429</ele><time>2026-04-11T08:59:40.444Z</time></trkpt><trkpt lat="44.8024583" lon="7.8613333"><ele>327.42857142857144</ele><time>2026-04-11T08:59:41.444Z</time></trkpt><trkpt lat="44.8025067" lon="7.8614083"><ele>327.0</ele><time>2026-04-11T08:59:42.444Z</time></trkpt><trkpt lat="44.80255" lon="7.8614767"><ele>327.0</ele><time>2026-04-11T08:59:43.445Z</time></trkpt><trkpt lat="44.8025933" lon="7.861545"><ele>327.0</ele><time>2026-04-11T08:59:44.444Z</time></trkpt><trkpt lat="44.8026783" lon="7.861665"><ele>327.0</ele><time>2026-04-11T08:59:46.444Z</time></trkpt><trkpt lat="44.8027517" lon="7.86178"><ele>327.0</ele><time>2026-04-11T08:59:48.444Z</time></trkpt><trkpt lat="44.802835" lon="7.8619"><ele>327.0</ele><time>2026-04-11T08:59:50.444Z</time></trkpt><trkpt lat="44.80292" lon="7.862005"><ele>328.6</ele><time>2026-04-11T08:59:52.444Z</time></trkpt><trkpt lat="44.802995" lon="7.8621"><ele>330.20000000000005</ele><time>2026-04-11T08:59:54.444Z</time></trkpt><trkpt lat="44.8030617" lon="7.8622033"><ele>331.8</ele><time>2026-04-11T08:59:56.444Z</time></trkpt><trkpt lat="44.8031333" lon="7.8622967"><ele>333.4</ele><time>2026-04-11T08:59:58.444Z</time></trkpt><trkpt lat="44.8031933" lon="7.8623867"><ele>335.0</ele><time>2026-04-11T09:00:00.444Z</time></trkpt><trkpt lat="44.8032467" lon="7.8624683"><ele>335.0</ele><time>2026-04-11T09:00:02.444Z</time></trkpt><trkpt lat="44.8032967" lon="7.862555"><ele>335.0</ele><time>2026-04-11T09:00:04.444Z</time></trkpt><trkpt lat="44.80335" lon="7.8626333"><ele>335.0</ele><time>2026-04-11T09:00:06.444Z</time></trkpt><trkpt lat="44.8034233" lon="7.86272"><ele>335.0</ele><time>2026-04-11T09:00:08.444Z</time></trkpt><trkpt lat="44.8034917" lon="7.8627983"><ele>335.0</ele><time>2026-04-11T09:00:10.444Z</time></trkpt><trkpt lat="44.803565" lon="7.86287"><ele>335.0</ele><time>2026-04-11T09:00:12.444Z</time></trkpt><trkpt lat="44.8036433" lon="7.86294"><ele>336.1666666666667</ele><time>2026-04-11T09:00:14.445Z</time></trkpt><trkpt lat="44.8037233" lon="7.8630083"><ele>337.33333333333337</ele><time>2026-04-11T09:00:16.444Z</time></trkpt><trkpt lat="44.803795" lon="7.8630817"><ele>338.5</ele><time>2026-04-11T09:00:18.444Z</time></trkpt><trkpt lat="44.80386" lon="7.863155"><ele>339.6666666666667</ele><time>2026-04-11T09:00:20.444Z</time></trkpt><trkpt lat="44.8039183" lon="7.8632367"><ele>340.8333333333333</ele><time>2026-04-11T09:00:22.444Z</time></trkpt><trkpt lat="44.8039733" lon="7.86333"><ele>342.0</ele><time>2026-04-11T09:00:24.444Z</time></trkpt><trkpt lat="44.8040167" lon="7.8634233"><ele>342.1666666666667</ele><time>2026-04-11T09:00:26.444Z</time></trkpt><trkpt lat="44.8040633" lon="7.8635133"><ele>342.3333333333333</ele><time>2026-04-11T09:00:28.444Z</time></trkpt><trkpt lat="44.8041" lon="7.863605"><ele>342.5</ele><time>2026-04-11T09:00:30.444Z</time></trkpt><trkpt lat="44.8041383" lon="7.8636983"><ele>342.66666666666663</ele><time>2026-04-11T09:00:32.444Z</time></trkpt><trkpt lat="44.8041833" lon="7.8637917"><ele>342.8333333333333</ele><time>2026-04-11T09:00:34.444Z</time></trkpt><trkpt lat="44.8042317" lon="7.86388"><ele>343.0</ele><time>2026-04-11T09:00:36.444Z</time></trkpt><trkpt lat="44.8042683" lon="7.863965"><ele>343.0</ele><time>2026-04-11T09:00:38.444Z</time></trkpt><trkpt lat="44.8043067" lon="7.864045"><ele>343.0</ele><time>2026-04-11T09:00:40.444Z</time></trkpt><trkpt lat="44.8043483" lon="7.8641233"><ele>343.0</ele><time>2026-04-11T09:00:42.444Z</time></trkpt><trkpt lat="44.8043833" lon="7.8642033"><ele>343.0</ele><time>2026-04-11T09:00:44.444Z</time></trkpt><trkpt lat="44.8044267" lon="7.864315"><ele>343.0</ele><time>2026-04-11T09:00:47.444Z</time></trkpt><trkpt lat="44.8044433" lon="7.8644017"><ele>343.0</ele><time>2026-04-11T09:00:49.445Z</time></trkpt><trkpt lat="44.80446" lon="7.8644917"><ele>343.0</ele><time>2026-04-11T09:00:51.444Z</time></trkpt><trkpt lat="44.8044833" lon="7.86458"><ele>344.0</ele><time>2026-04-11T09:00:53.444Z</time></trkpt><trkpt lat="44.8045083" lon="7.864675"><ele>345.0</ele><time>2026-04-11T09:00:55.444Z</time></trkpt><trkpt lat="44.8045183" lon="7.8647917"><ele>346.0</ele><time>2026-04-11T09:00:57.444Z</time></trkpt><trkpt lat="44.8045333" lon="7.8649167"><ele>347.0</ele><time>2026-04-11T09:00:59.444Z</time></trkpt><trkpt lat="44.8045517" lon="7.8650333"><ele>348.0</ele><time>2026-04-11T09:01:01.444Z</time></trkpt><trkpt lat="44.8045683" lon="7.865135"><ele>349.0</ele><time>2026-04-11T09:01:03.444Z</time></trkpt><trkpt lat="44.8045933" lon="7.8652467"><ele>349.0</ele><time>2026-04-11T09:01:05.444Z</time></trkpt><trkpt lat="44.8046133" lon="7.865365"><ele>349.0</ele><time>2026-04-11T09:01:07.444Z</time></trkpt><trkpt lat="44.8046267" lon="7.8654767"><ele>349.0</ele><time>2026-04-11T09:01:09.444Z</time></trkpt><trkpt lat="44.8046483" lon="7.8655817"><ele>349.0</ele><time>2026-04-11T09:01:11.444Z</time></trkpt><trkpt lat="44.8046667" lon="7.8656867"><ele>349.0</ele><time>2026-04-11T09:01:13.444Z</time></trkpt><trkpt lat="44.8046783" lon="7.8657933"><ele>349.0</ele><time>2026-04-11T09:01:15.444Z</time></trkpt><trkpt lat="44.804705" lon="7.8659067"><ele>348.66666666666663</ele><time>2026-04-11T09:01:17.444Z</time></trkpt><trkpt lat="44.80472" lon="7.8660033"><ele>348.3333333333333</ele><time>2026-04-11T09:01:19.444Z</time></trkpt><trkpt lat="44.80473" lon="7.8661083"><ele>348.0</ele><time>2026-04-11T09:01:21.444Z</time></trkpt><trkpt lat="44.8047517" lon="7.86621"><ele>347.6666666666667</ele><time>2026-04-11T09:01:23.444Z</time></trkpt><trkpt lat="44.804765" lon="7.8663283"><ele>347.33333333333337</ele><time>2026-04-11T09:01:25.444Z</time></trkpt><trkpt lat="44.8047883" lon="7.8664683"><ele>347.0</ele><time>2026-04-11T09:01:27.444Z</time></trkpt><trkpt lat="44.8048017" lon="7.8665983"><ele>347.0</ele><time>2026-04-11T09:01:29.444Z</time></trkpt><trkpt lat="44.8048" lon="7.866755"><ele>347.0</ele><time>2026-04-11T09:01:31.444Z</time></trkpt><trkpt lat="44.8047833" lon="7.8669183"><ele>347.0</ele><time>2026-04-11T09:01:33.444Z</time></trkpt><trkpt lat="44.8047583" lon="7.8670633"><ele>347.0</ele><time>2026-04-11T09:01:35.444Z</time></trkpt><trkpt lat="44.8047367" lon="7.8672233"><ele>346.83333333333337</ele><time>2026-04-11T09:01:37.444Z</time></trkpt><trkpt lat="44.804725" lon="7.8673817"><ele>346.6666666666667</ele><time>2026-04-11T09:01:39.444Z</time></trkpt><trkpt lat="44.8046983" lon="7.867545"><ele>346.5</ele><time>2026-04-11T09:01:41.444Z</time></trkpt><trkpt lat="44.8046883" lon="7.867635"><ele>346.3333333333333</ele><time>2026-04-11T09:01:42.444Z</time></trkpt><trkpt lat="44.8046733" lon="7.8677233"><ele>346.16666666666663</ele><time>2026-04-11T09:01:43.445Z</time></trkpt><trkpt lat="44.8046667" lon="7.867815"><ele>346.0</ele><time>2026-04-11T09:01:44.444Z</time></trkpt><trkpt lat="44.80464" lon="7.8679933"><ele>346.0</ele><time>2026-04-11T09:01:46.444Z</time></trkpt><trkpt lat="44.80462" lon="7.868085"><ele>346.0</ele><time>2026-04-11T09:01:47.445Z</time></trkpt><trkpt lat="44.80461" lon="7.8681767"><ele>346.0</ele><time>2026-04-11T09:01:48.444Z</time></trkpt><trkpt lat="44.8045983" lon="7.8683517"><ele>346.0</ele><time>2026-04-11T09:01:50.444Z</time></trkpt><trkpt lat="44.804575" lon="7.868525"><ele>346.0</ele><time>2026-04-11T09:01:52.444Z</time></trkpt><trkpt lat="44.8045617" lon="7.8686133"><ele>346.0</ele><time>2026-04-11T09:01:53.444Z</time></trkpt><trkpt lat="44.80453" lon="7.8687817"><ele>346.5</ele><time>2026-04-11T09:01:55.444Z</time></trkpt><trkpt lat="44.80452" lon="7.868955"><ele>347.0</ele><time>2026-04-11T09:01:57.444Z</time></trkpt><trkpt lat="44.8044983" lon="7.8691167"><ele>347.5</ele><time>2026-04-11T09:01:59.445Z</time></trkpt><trkpt lat="44.8044767" lon="7.869275"><ele>348.0</ele><time>2026-04-11T09:02:01.444Z</time></trkpt><trkpt lat="44.8044617" lon="7.8694133"><ele>348.6666666666667</ele><time>2026-04-11T09:02:03.444Z</time></trkpt><trkpt lat="44.8044433" lon="7.869515"><ele>349.3333333333333</ele><time>2026-04-11T09:02:05.444Z</time></trkpt><trkpt lat="44.804525" lon="7.869585"><ele>350.0</ele><time>2026-04-11T09:02:08.444Z</time></trkpt><trkpt lat="44.8046067" lon="7.869565"><ele>350.66666666666663</ele><time>2026-04-11T09:02:10.444Z</time></trkpt><trkpt lat="44.804695" lon="7.8695533"><ele>351.3333333333333</ele><time>2026-04-11T09:02:12.444Z</time></trkpt><trkpt lat="44.8047933" lon="7.869565"><ele>352.0</ele><time>2026-04-11T09:02:14.444Z</time></trkpt><trkpt lat="44.8049083" lon="7.86956"><ele>352.0</ele><time>2026-04-11T09:02:16.445Z</time></trkpt><trkpt lat="44.8050317" lon="7.8695617"><ele>352.0</ele><time>2026-04-11T09:02:18.444Z</time></trkpt><trkpt lat="44.8051017" lon="7.8695533"><ele>352.0</ele><time>2026-04-11T09:02:19.444Z</time></trkpt><trkpt lat="44.8051767" lon="7.8695583"><ele>352.0</ele><time>2026-04-11T09:02:20.444Z</time></trkpt><trkpt lat="44.8052467" lon="7.8695483"><ele>352.0</ele><time>2026-04-11T09:02:21.444Z</time></trkpt><trkpt lat="44.8053133" lon="7.8695433"><ele>352.0</ele><time>2026-04-11T09:02:22.444Z</time></trkpt><trkpt lat="44.8053833" lon="7.86954"><ele>351.66666666666663</ele><time>2026-04-11T09:02:23.444Z</time></trkpt><trkpt lat="44.80545" lon="7.8695433"><ele>351.3333333333333</ele><time>2026-04-11T09:02:24.444Z</time></trkpt><trkpt lat="44.8055133" lon="7.8695567"><ele>351.0</ele><time>2026-04-11T09:02:25.444Z</time></trkpt><trkpt lat="44.8055783" lon="7.8695667"><ele>350.6666666666667</ele><time>2026-04-11T09:02:26.444Z</time></trkpt><trkpt lat="44.8056983" lon="7.8695833"><ele>350.33333333333337</ele><time>2026-04-11T09:02:28.444Z</time></trkpt><trkpt lat="44.8058233" lon="7.8695667"><ele>350.0</ele><time>2026-04-11T09:02:30.444Z</time></trkpt><trkpt lat="44.8059433" lon="7.8695217"><ele>348.6</ele><time>2026-04-11T09:02:32.444Z</time></trkpt><trkpt lat="44.8060083" lon="7.869495"><ele>347.2</ele><time>2026-04-11T09:02:33.444Z</time></trkpt><trkpt lat="44.8061267" lon="7.8694467"><ele>345.79999999999995</ele><time>2026-04-11T09:02:35.444Z</time></trkpt><trkpt lat="44.8062467" lon="7.8694067"><ele>344.4</ele><time>2026-04-11T09:02:37.444Z</time></trkpt><trkpt lat="44.8063667" lon="7.8693933"><ele>343.0</ele><time>2026-04-11T09:02:39.444Z</time></trkpt><trkpt lat="44.80643" lon="7.86939"><ele>343.0</ele><time>2026-04-11T09:02:40.444Z</time></trkpt><trkpt lat="44.806495" lon="7.8693817"><ele>343.0</ele><time>2026-04-11T09:02:41.444Z</time></trkpt><trkpt lat="44.8065633" lon="7.8693617"><ele>343.0</ele><time>2026-04-11T09:02:42.444Z</time></trkpt><trkpt lat="44.8066267" lon="7.8693333"><ele>343.0</ele><time>2026-04-11T09:02:43.444Z</time></trkpt><trkpt lat="44.80669" lon="7.8692967"><ele>343.0</ele><time>2026-04-11T09:02:44.444Z</time></trkpt><trkpt lat="44.8067517" lon="7.869255"><ele>343.0</ele><time>2026-04-11T09:02:45.444Z</time></trkpt><trkpt lat="44.80681" lon="7.869215"><ele>343.0</ele><time>2026-04-11T09:02:46.445Z</time></trkpt><trkpt lat="44.80687" lon="7.8691717"><ele>343.2857142857143</ele><time>2026-04-11T09:02:47.444Z</time></trkpt><trkpt lat="44.80693" lon="7.869125"><ele>343.57142857142856</ele><time>2026-04-11T09:02:48.444Z</time></trkpt><trkpt lat="44.8069917" lon="7.86908"><ele>343.8571428571429</ele><time>2026-04-11T09:02:49.444Z</time></trkpt><trkpt lat="44.8070517" lon="7.8690333"><ele>344.1428571428571</ele><time>2026-04-11T09:02:50.444Z</time></trkpt><trkpt lat="44.8071133" lon="7.8689933"><ele>344.42857142857144</ele><time>2026-04-11T09:02:51.445Z</time></trkpt><trkpt lat="44.8071783" lon="7.86895"><ele>344.7142857142857</ele><time>2026-04-11T09:02:52.444Z</time></trkpt><trkpt lat="44.8072483" lon="7.8689033"><ele>345.0</ele><time>2026-04-11T09:02:53.444Z</time></trkpt><trkpt lat="44.8073233" lon="7.8688617"><ele>345.0</ele><time>2026-04-11T09:02:54.444Z</time></trkpt><trkpt lat="44.8073933" lon="7.868815"><ele>345.0</ele><time>2026-04-11T09:02:55.444Z</time></trkpt><trkpt lat="44.8074633" lon="7.86877"><ele>345.0</ele><time>2026-04-11T09:02:56.444Z</time></trkpt><trkpt lat="44.807535" lon="7.8687267"><ele>345.0</ele><time>2026-04-11T09:02:57.444Z</time></trkpt><trkpt lat="44.8076" lon="7.86868"><ele>345.0</ele><time>2026-04-11T09:02:58.444Z</time></trkpt><trkpt lat="44.8076683" lon="7.86864"><ele>345.0</ele><time>2026-04-11T09:02:59.445Z</time></trkpt><trkpt lat="44.8077333" lon="7.868595"><ele>345.1666666666667</ele><time>2026-04-11T09:03:00.444Z</time></trkpt><trkpt lat="44.8077983" lon="7.8685517"><ele>345.3333333333333</ele><time>2026-04-11T09:03:01.444Z</time></trkpt><trkpt lat="44.8078667" lon="7.868505"><ele>345.5</ele><time>2026-04-11T09:03:02.444Z</time></trkpt><trkpt lat="44.8079333" lon="7.868465"><ele>345.66666666666663</ele><time>2026-04-11T09:03:03.444Z</time></trkpt><trkpt lat="44.808" lon="7.8684167"><ele>345.8333333333333</ele><time>2026-04-11T09:03:04.444Z</time></trkpt><trkpt lat="44.8080667" lon="7.8683633"><ele>346.0</ele><time>2026-04-11T09:03:05.444Z</time></trkpt><trkpt lat="44.8081333" lon="7.8683067"><ele>346.0</ele><time>2026-04-11T09:03:06.444Z</time></trkpt><trkpt lat="44.8081967" lon="7.8682483"><ele>346.0</ele><time>2026-04-11T09:03:07.444Z</time></trkpt><trkpt lat="44.8082583" lon="7.8681867"><ele>346.0</ele><time>2026-04-11T09:03:08.444Z</time></trkpt><trkpt lat="44.8083217" lon="7.86812"><ele>346.0</ele><time>2026-04-11T09:03:09.444Z</time></trkpt><trkpt lat="44.8083767" lon="7.8680433"><ele>346.0</ele><time>2026-04-11T09:03:10.444Z</time></trkpt><trkpt lat="44.8084267" lon="7.8679667"><ele>346.0</ele><time>2026-04-11T09:03:11.444Z</time></trkpt><trkpt lat="44.8084817" lon="7.8678883"><ele>345.85714285714283</ele><time>2026-04-11T09:03:12.444Z</time></trkpt><trkpt lat="44.808535" lon="7.8678133"><ele>345.7142857142857</ele><time>2026-04-11T09:03:13.444Z</time></trkpt><trkpt lat="44.8085867" lon="7.86774"><ele>345.57142857142856</ele><time>2026-04-11T09:03:14.444Z</time></trkpt><trkpt lat="44.8086333" lon="7.86767"><ele>345.42857142857144</ele><time>2026-04-11T09:03:15.444Z</time></trkpt><trkpt lat="44.8086833" lon="7.8675933"><ele>345.2857142857143</ele><time>2026-04-11T09:03:16.444Z</time></trkpt><trkpt lat="44.80873" lon="7.8675233"><ele>345.14285714285717</ele><time>2026-04-11T09:03:17.444Z</time></trkpt><trkpt lat="44.80878" lon="7.8674483"><ele>345.0</ele><time>2026-04-11T09:03:18.444Z</time></trkpt><trkpt lat="44.8088333" lon="7.8673683"><ele>345.0</ele><time>2026-04-11T09:03:19.444Z</time></trkpt><trkpt lat="44.8088817" lon="7.8672917"><ele>345.0</ele><time>2026-04-11T09:03:20.444Z</time></trkpt><trkpt lat="44.8089367" lon="7.8672167"><ele>345.0</ele><time>2026-04-11T09:03:21.444Z</time></trkpt><trkpt lat="44.8089883" lon="7.8671417"><ele>345.0</ele><time>2026-04-11T09:03:22.444Z</time></trkpt><trkpt lat="44.809045" lon="7.8670667"><ele>345.0</ele><time>2026-04-11T09:03:23.444Z</time></trkpt><trkpt lat="44.8091067" lon="7.8669883"><ele>345.0</ele><time>2026-04-11T09:03:24.444Z</time></trkpt><trkpt lat="44.809175" lon="7.866915"><ele>345.0</ele><time>2026-04-11T09:03:25.445Z</time></trkpt><trkpt lat="44.8092383" lon="7.8668367"><ele>345.0</ele><time>2026-04-11T09:03:26.444Z</time></trkpt><trkpt lat="44.8093083" lon="7.8667617"><ele>345.0</ele><time>2026-04-11T09:03:27.444Z</time></trkpt><trkpt lat="44.80938" lon="7.866685"><ele>345.0</ele><time>2026-04-11T09:03:28.444Z</time></trkpt><trkpt lat="44.8094567" lon="7.86661"><ele>345.0</ele><time>2026-04-11T09:03:29.444Z</time></trkpt><trkpt lat="44.8095383" lon="7.8665383"><ele>344.0</ele><time>2026-04-11T09:03:30.444Z</time></trkpt><trkpt lat="44.80962" lon="7.8664683"><ele>343.0</ele><time>2026-04-11T09:03:31.444Z</time></trkpt><trkpt lat="44.8097" lon="7.8664017"><ele>342.0</ele><time>2026-04-11T09:03:32.444Z</time></trkpt><trkpt lat="44.809785" lon="7.86634"><ele>341.0</ele><time>2026-04-11T09:03:33.444Z</time></trkpt><trkpt lat="44.80986" lon="7.8662867"><ele>340.0</ele><time>2026-04-11T09:03:34.444Z</time></trkpt><trkpt lat="44.80994" lon="7.86623"><ele>340.0</ele><time>2026-04-11T09:03:35.444Z</time></trkpt><trkpt lat="44.810015" lon="7.8661767"><ele>340.0</ele><time>2026-04-11T09:03:36.444Z</time></trkpt><trkpt lat="44.810095" lon="7.86611"><ele>340.0</ele><time>2026-04-11T09:03:37.444Z</time></trkpt><trkpt lat="44.8101717" lon="7.8660433"><ele>340.0</ele><time>2026-04-11T09:03:38.444Z</time></trkpt><trkpt lat="44.810245" lon="7.8659867"><ele>340.0</ele><time>2026-04-11T09:03:39.444Z</time></trkpt><trkpt lat="44.8103167" lon="7.865925"><ele>340.0</ele><time>2026-04-11T09:03:40.444Z</time></trkpt><trkpt lat="44.81039" lon="7.8658667"><ele>339.66666666666663</ele><time>2026-04-11T09:03:41.444Z</time></trkpt><trkpt lat="44.8104617" lon="7.8658017"><ele>339.3333333333333</ele><time>2026-04-11T09:03:42.444Z</time></trkpt><trkpt lat="44.810535" lon="7.86574"><ele>339.0</ele><time>2026-04-11T09:03:43.444Z</time></trkpt><trkpt lat="44.810605" lon="7.8656867"><ele>338.6666666666667</ele><time>2026-04-11T09:03:44.444Z</time></trkpt><trkpt lat="44.8106783" lon="7.865635"><ele>338.33333333333337</ele><time>2026-04-11T09:03:45.444Z</time></trkpt><trkpt lat="44.81075" lon="7.8655833"><ele>338.0</ele><time>2026-04-11T09:03:46.444Z</time></trkpt><trkpt lat="44.8108233" lon="7.86553"><ele>338.0</ele><time>2026-04-11T09:03:47.444Z</time></trkpt><trkpt lat="44.8108917" lon="7.8654783"><ele>338.0</ele><time>2026-04-11T09:03:48.444Z</time></trkpt><trkpt lat="44.8109583" lon="7.8654233"><ele>338.0</ele><time>2026-04-11T09:03:49.444Z</time></trkpt><trkpt lat="44.8110267" lon="7.8653667"><ele>338.0</ele><time>2026-04-11T09:03:50.444Z</time></trkpt><trkpt lat="44.811085" lon="7.865315"><ele>338.0</ele><time>2026-04-11T09:03:51.444Z</time></trkpt><trkpt lat="44.8111417" lon="7.8652633"><ele>338.0</ele><time>2026-04-11T09:03:52.444Z</time></trkpt><trkpt lat="44.8112017" lon="7.86522"><ele>338.0</ele><time>2026-04-11T09:03:53.444Z</time></trkpt><trkpt lat="44.8112583" lon="7.865175"><ele>338.14285714285717</ele><time>2026-04-11T09:03:54.444Z</time></trkpt><trkpt lat="44.8113167" lon="7.86513"><ele>338.2857142857143</ele><time>2026-04-11T09:03:55.444Z</time></trkpt><trkpt lat="44.8113783" lon="7.8650833"><ele>338.42857142857144</ele><time>2026-04-11T09:03:56.444Z</time></trkpt><trkpt lat="44.81144" lon="7.8650367"><ele>338.57142857142856</ele><time>2026-04-11T09:03:57.444Z</time></trkpt><trkpt lat="44.8115033" lon="7.864985"><ele>338.7142857142857</ele><time>2026-04-11T09:03:58.444Z</time></trkpt><trkpt lat="44.8115667" lon="7.8649333"><ele>338.85714285714283</ele><time>2026-04-11T09:03:59.444Z</time></trkpt><trkpt lat="44.8116267" lon="7.86488"><ele>339.0</ele><time>2026-04-11T09:04:00.444Z</time></trkpt><trkpt lat="44.811695" lon="7.8648267"><ele>339.1428571428571</ele><time>2026-04-11T09:04:01.444Z</time></trkpt><trkpt lat="44.8117667" lon="7.8647783"><ele>339.28571428571433</ele><time>2026-04-11T09:04:02.444Z</time></trkpt><trkpt lat="44.8118283" lon="7.8647317"><ele>339.42857142857144</ele><time>2026-04-11T09:04:03.444Z</time></trkpt><trkpt lat="44.8118933" lon="7.8646817"><ele>339.57142857142856</ele><time>2026-04-11T09:04:04.444Z</time></trkpt><trkpt lat="44.8119567" lon="7.8646283"><ele>339.71428571428567</ele><time>2026-04-11T09:04:05.444Z</time></trkpt><trkpt lat="44.81202" lon="7.864575"><ele>339.8571428571429</ele><time>2026-04-11T09:04:06.444Z</time></trkpt><trkpt lat="44.8120783" lon="7.8645317"><ele>340.0</ele><time>2026-04-11T09:04:07.444Z</time></trkpt><trkpt lat="44.8121383" lon="7.8644867"><ele>340.0</ele><time>2026-04-11T09:04:08.444Z</time></trkpt><trkpt lat="44.8122033" lon="7.8644383"><ele>340.0</ele><time>2026-04-11T09:04:09.444Z</time></trkpt><trkpt lat="44.812265" lon="7.8643833"><ele>340.0</ele><time>2026-04-11T09:04:10.444Z</time></trkpt><trkpt lat="44.81233" lon="7.8643233"><ele>340.0</ele><time>2026-04-11T09:04:11.444Z</time></trkpt><trkpt lat="44.8123983" lon="7.86427"><ele>340.0</ele><time>2026-04-11T09:04:12.444Z</time></trkpt><trkpt lat="44.812465" lon="7.8642167"><ele>340.0</ele><time>2026-04-11T09:04:13.444Z</time></trkpt><trkpt lat="44.8125317" lon="7.8641617"><ele>339.8333333333333</ele><time>2026-04-11T09:04:14.444Z</time></trkpt><trkpt lat="44.8126017" lon="7.8641067"><ele>339.66666666666663</ele><time>2026-04-11T09:04:15.445Z</time></trkpt><trkpt lat="44.8126667" lon="7.8640533"><ele>339.5</ele><time>2026-04-11T09:04:16.444Z</time></trkpt><trkpt lat="44.8127317" lon="7.864005"><ele>339.3333333333333</ele><time>2026-04-11T09:04:17.444Z</time></trkpt><trkpt lat="44.812795" lon="7.8639533"><ele>339.1666666666667</ele><time>2026-04-11T09:04:18.444Z</time></trkpt><trkpt lat="44.8128617" lon="7.8639"><ele>339.0</ele><time>2026-04-11T09:04:19.444Z</time></trkpt><trkpt lat="44.81293" lon="7.8638483"><ele>339.0</ele><time>2026-04-11T09:04:20.444Z</time></trkpt><trkpt lat="44.812995" lon="7.8638017"><ele>339.0</ele><time>2026-04-11T09:04:21.444Z</time></trkpt><trkpt lat="44.813055" lon="7.8637583"><ele>339.0</ele><time>2026-04-11T09:04:22.444Z</time></trkpt><trkpt lat="44.8131167" lon="7.863715"><ele>339.0</ele><time>2026-04-11T09:04:23.444Z</time></trkpt><trkpt lat="44.81318" lon="7.863665"><ele>339.0</ele><time>2026-04-11T09:04:24.444Z</time></trkpt><trkpt lat="44.8132433" lon="7.8636167"><ele>339.0</ele><time>2026-04-11T09:04:25.445Z</time></trkpt><trkpt lat="44.8133117" lon="7.8635667"><ele>339.0</ele><time>2026-04-11T09:04:26.444Z</time></trkpt><trkpt lat="44.81338" lon="7.8635183"><ele>339.0</ele><time>2026-04-11T09:04:27.445Z</time></trkpt><trkpt lat="44.81345" lon="7.863465"><ele>339.0</ele><time>2026-04-11T09:04:28.444Z</time></trkpt><trkpt lat="44.8135233" lon="7.8634033"><ele>339.0</ele><time>2026-04-11T09:04:29.444Z</time></trkpt><trkpt lat="44.8136033" lon="7.86334"><ele>339.0</ele><time>2026-04-11T09:04:30.444Z</time></trkpt><trkpt lat="44.81368" lon="7.8632683"><ele>339.0</ele><time>2026-04-11T09:04:31.444Z</time></trkpt><trkpt lat="44.8137567" lon="7.8632083"><ele>339.0</ele><time>2026-04-11T09:04:32.444Z</time></trkpt><trkpt lat="44.81382" lon="7.8631617"><ele>337.6</ele><time>2026-04-11T09:04:33.444Z</time></trkpt><trkpt lat="44.8138733" lon="7.8631117"><ele>336.2</ele><time>2026-04-11T09:04:34.444Z</time></trkpt><trkpt lat="44.8139233" lon="7.863"><ele>334.8</ele><time>2026-04-11T09:04:36.444Z</time></trkpt><trkpt lat="44.813895" lon="7.8628483"><ele>333.40000000000003</ele><time>2026-04-11T09:04:38.444Z</time></trkpt><trkpt lat="44.8138567" lon="7.8627767"><ele>332.0</ele><time>2026-04-11T09:04:39.444Z</time></trkpt><trkpt lat="44.8137767" lon="7.86263"><ele>331.33333333333337</ele><time>2026-04-11T09:04:41.444Z</time></trkpt><trkpt lat="44.813735" lon="7.86255"><ele>330.6666666666667</ele><time>2026-04-11T09:04:42.444Z</time></trkpt><trkpt lat="44.8136867" lon="7.8624667"><ele>330.0</ele><time>2026-04-11T09:04:43.444Z</time></trkpt><trkpt lat="44.8136417" lon="7.862385"><ele>329.3333333333333</ele><time>2026-04-11T09:04:44.444Z</time></trkpt><trkpt lat="44.8135967" lon="7.8623"><ele>328.66666666666663</ele><time>2026-04-11T09:04:45.444Z</time></trkpt><trkpt lat="44.8135467" lon="7.8622167"><ele>328.0</ele><time>2026-04-11T09:04:46.444Z</time></trkpt><trkpt lat="44.8134933" lon="7.862135"><ele>328.66666666666663</ele><time>2026-04-11T09:04:47.444Z</time></trkpt><trkpt lat="44.81344" lon="7.8620517"><ele>329.3333333333333</ele><time>2026-04-11T09:04:48.444Z</time></trkpt><trkpt lat="44.8133933" lon="7.861965"><ele>330.0</ele><time>2026-04-11T09:04:49.444Z</time></trkpt><trkpt lat="44.8133483" lon="7.8618783"><ele>330.6666666666667</ele><time>2026-04-11T09:04:50.444Z</time></trkpt><trkpt lat="44.8133083" lon="7.8617867"><ele>331.33333333333337</ele><time>2026-04-11T09:04:51.445Z</time></trkpt><trkpt lat="44.8132683" lon="7.86169"><ele>332.0</ele><time>2026-04-11T09:04:52.444Z</time></trkpt><trkpt lat="44.8132267" lon="7.8615883"><ele>332.0</ele><time>2026-04-11T09:04:53.444Z</time></trkpt><trkpt lat="44.81319" lon="7.8614917"><ele>332.0</ele><time>2026-04-11T09:04:54.444Z</time></trkpt><trkpt lat="44.8131567" lon="7.861395"><ele>332.0</ele><time>2026-04-11T09:04:55.444Z</time></trkpt><trkpt lat="44.813125" lon="7.861305"><ele>332.0</ele><time>2026-04-11T09:04:56.444Z</time></trkpt><trkpt lat="44.8130933" lon="7.861215"><ele>332.0</ele><time>2026-04-11T09:04:57.444Z</time></trkpt><trkpt lat="44.8130617" lon="7.8611183"><ele>332.0</ele><time>2026-04-11T09:04:58.444Z</time></trkpt><trkpt lat="44.8130283" lon="7.8610283"><ele>332.0</ele><time>2026-04-11T09:04:59.444Z</time></trkpt><trkpt lat="44.8129917" lon="7.860935"><ele>332.0</ele><time>2026-04-11T09:05:00.444Z</time></trkpt><trkpt lat="44.8129567" lon="7.8608433"><ele>332.0</ele><time>2026-04-11T09:05:01.444Z</time></trkpt><trkpt lat="44.8129267" lon="7.86075"><ele>332.0</ele><time>2026-04-11T09:05:02.444Z</time></trkpt><trkpt lat="44.8128933" lon="7.8606667"><ele>332.0</ele><time>2026-04-11T09:05:03.444Z</time></trkpt><trkpt lat="44.8128583" lon="7.8605783"><ele>332.0</ele><time>2026-04-11T09:05:04.444Z</time></trkpt><trkpt lat="44.81282" lon="7.8605033"><ele>332.0</ele><time>2026-04-11T09:05:05.444Z</time></trkpt><trkpt lat="44.8127533" lon="7.86036"><ele>332.0</ele><time>2026-04-11T09:05:07.444Z</time></trkpt><trkpt lat="44.81273" lon="7.8602767"><ele>332.0</ele><time>2026-04-11T09:05:08.444Z</time></trkpt><trkpt lat="44.8127067" lon="7.8601183"><ele>332.0</ele><time>2026-04-11T09:05:10.445Z</time></trkpt><trkpt lat="44.8126833" lon="7.85996"><ele>332.0</ele><time>2026-04-11T09:05:12.444Z</time></trkpt><trkpt lat="44.8126767" lon="7.859805"><ele>332.0</ele><time>2026-04-11T09:05:14.444Z</time></trkpt><trkpt lat="44.8126817" lon="7.85964"><ele>332.0</ele><time>2026-04-11T09:05:16.445Z</time></trkpt><trkpt lat="44.8126883" lon="7.85947"><ele>332.0</ele><time>2026-04-11T09:05:18.444Z</time></trkpt><trkpt lat="44.812685" lon="7.859295"><ele>332.0</ele><time>2026-04-11T09:05:20.444Z</time></trkpt><trkpt lat="44.8126867" lon="7.8591117"><ele>332.0</ele><time>2026-04-11T09:05:22.444Z</time></trkpt><trkpt lat="44.8126883" lon="7.8590183"><ele>332.0</ele><time>2026-04-11T09:05:23.444Z</time></trkpt><trkpt lat="44.8126833" lon="7.8589183"><ele>331.85714285714283</ele><time>2026-04-11T09:05:24.444Z</time></trkpt><trkpt lat="44.81268" lon="7.8588183"><ele>331.7142857142857</ele><time>2026-04-11T09:05:25.444Z</time></trkpt><trkpt lat="44.812675" lon="7.8587267"><ele>331.57142857142856</ele><time>2026-04-11T09:05:26.444Z</time></trkpt><trkpt lat="44.8126667" lon="7.8586367"><ele>331.42857142857144</ele><time>2026-04-11T09:05:27.444Z</time></trkpt><trkpt lat="44.81266" lon="7.8585483"><ele>331.2857142857143</ele><time>2026-04-11T09:05:28.444Z</time></trkpt><trkpt lat="44.8126583" lon="7.858455"><ele>331.14285714285717</ele><time>2026-04-11T09:05:29.443Z</time></trkpt><trkpt lat="44.812645" lon="7.85829"><ele>331.0</ele><time>2026-04-11T09:05:31.443Z</time></trkpt><trkpt lat="44.81263" lon="7.8581233"><ele>331.0</ele><time>2026-04-11T09:05:33.443Z</time></trkpt><trkpt lat="44.81261" lon="7.8579683"><ele>331.0</ele><time>2026-04-11T09:05:35.443Z</time></trkpt><trkpt lat="44.8125917" lon="7.85782"><ele>331.0</ele><time>2026-04-11T09:05:37.443Z</time></trkpt><trkpt lat="44.8126033" lon="7.8576683"><ele>331.0</ele><time>2026-04-11T09:05:39.443Z</time></trkpt><trkpt lat="44.81263" lon="7.8575"><ele>331.0</ele><time>2026-04-11T09:05:41.443Z</time></trkpt><trkpt lat="44.8126667" lon="7.8573333"><ele>331.0</ele><time>2026-04-11T09:05:43.443Z</time></trkpt><trkpt lat="44.8126917" lon="7.85725"><ele>331.0</ele><time>2026-04-11T09:05:44.443Z</time></trkpt><trkpt lat="44.8127183" lon="7.8571633"><ele>331.0</ele><time>2026-04-11T09:05:45.443Z</time></trkpt><trkpt lat="44.812745" lon="7.8570683"><ele>331.0</ele><time>2026-04-11T09:05:46.443Z</time></trkpt><trkpt lat="44.812775" lon="7.8569817"><ele>331.0</ele><time>2026-04-11T09:05:47.443Z</time></trkpt><trkpt lat="44.8128033" lon="7.8568883"><ele>331.0</ele><time>2026-04-11T09:05:48.443Z</time></trkpt><trkpt lat="44.8128333" lon="7.8567967"><ele>331.0</ele><time>2026-04-11T09:05:49.443Z</time></trkpt><trkpt lat="44.8128667" lon="7.856705"><ele>331.3333333333333</ele><time>2026-04-11T09:05:50.443Z</time></trkpt><trkpt lat="44.8129017" lon="7.8566117"><ele>331.66666666666663</ele><time>2026-04-11T09:05:51.443Z</time></trkpt><trkpt lat="44.8129417" lon="7.85652"><ele>332.0</ele><time>2026-04-11T09:05:52.443Z</time></trkpt><trkpt lat="44.812985" lon="7.8564283"><ele>332.3333333333333</ele><time>2026-04-11T09:05:53.443Z</time></trkpt><trkpt lat="44.8130417" lon="7.856345"><ele>332.6666666666667</ele><time>2026-04-11T09:05:54.443Z</time></trkpt><trkpt lat="44.8130967" lon="7.85627"><ele>333.0</ele><time>2026-04-11T09:05:55.443Z</time></trkpt><trkpt lat="44.8131517" lon="7.856195"><ele>333.0</ele><time>2026-04-11T09:05:56.443Z</time></trkpt><trkpt lat="44.8132017" lon="7.8561283"><ele>333.0</ele><time>2026-04-11T09:05:57.443Z</time></trkpt><trkpt lat="44.8132517" lon="7.856055"><ele>333.0</ele><time>2026-04-11T09:05:58.443Z</time></trkpt><trkpt lat="44.8132983" lon="7.8559767"><ele>333.0</ele><time>2026-04-11T09:05:59.443Z</time></trkpt><trkpt lat="44.8133383" lon="7.8558983"><ele>333.0</ele><time>2026-04-11T09:06:00.443Z</time></trkpt><trkpt lat="44.813375" lon="7.855805"><ele>333.0</ele><time>2026-04-11T09:06:01.443Z</time></trkpt><trkpt lat="44.8134117" lon="7.8557083"><ele>333.0</ele><time>2026-04-11T09:06:02.443Z</time></trkpt><trkpt lat="44.8134483" lon="7.855615"><ele>333.14285714285717</ele><time>2026-04-11T09:06:03.443Z</time></trkpt><trkpt lat="44.813485" lon="7.855515"><ele>333.2857142857143</ele><time>2026-04-11T09:06:04.443Z</time></trkpt><trkpt lat="44.8135183" lon="7.8554317"><ele>333.42857142857144</ele><time>2026-04-11T09:06:05.443Z</time></trkpt><trkpt lat="44.8135567" lon="7.855335"><ele>333.57142857142856</ele><time>2026-04-11T09:06:06.443Z</time></trkpt><trkpt lat="44.8135917" lon="7.8552467"><ele>333.7142857142857</ele><time>2026-04-11T09:06:07.443Z</time></trkpt><trkpt lat="44.8136283" lon="7.8551617"><ele>333.85714285714283</ele><time>2026-04-11T09:06:08.443Z</time></trkpt><trkpt lat="44.8136633" lon="7.8550733"><ele>334.0</ele><time>2026-04-11T09:06:09.443Z</time></trkpt><trkpt lat="44.8136983" lon="7.8549917"><ele>334.2</ele><time>2026-04-11T09:06:10.443Z</time></trkpt><trkpt lat="44.813765" lon="7.8548417"><ele>334.4</ele><time>2026-04-11T09:06:12.443Z</time></trkpt><trkpt lat="44.8138383" lon="7.8546967"><ele>334.6</ele><time>2026-04-11T09:06:14.443Z</time></trkpt><trkpt lat="44.8138867" lon="7.8546333"><ele>334.8</ele><time>2026-04-11T09:06:15.443Z</time></trkpt><trkpt lat="44.813945" lon="7.8545767"><ele>335.0</ele><time>2026-04-11T09:06:16.443Z</time></trkpt><trkpt lat="44.8140033" lon="7.8545417"><ele>335.0</ele><time>2026-04-11T09:06:17.443Z</time></trkpt><trkpt lat="44.8141083" lon="7.8545117"><ele>335.0</ele><time>2026-04-11T09:06:19.444Z</time></trkpt><trkpt lat="44.814195" lon="7.8544483"><ele>335.0</ele><time>2026-04-11T09:06:21.443Z</time></trkpt><trkpt lat="44.8142633" lon="7.854405"><ele>335.0</ele><time>2026-04-11T09:06:23.443Z</time></trkpt><trkpt lat="44.8143367" lon="7.8543783"><ele>335.0</ele><time>2026-04-11T09:06:25.444Z</time></trkpt><trkpt lat="44.81443" lon="7.8543667"><ele>335.0</ele><time>2026-04-11T09:06:27.443Z</time></trkpt><trkpt lat="44.814515" lon="7.8543267"><ele>334.0</ele><time>2026-04-11T09:06:29.443Z</time></trkpt><trkpt lat="44.8146183" lon="7.8542433"><ele>333.0</ele><time>2026-04-11T09:06:31.443Z</time></trkpt><trkpt lat="44.814675" lon="7.854185"><ele>332.0</ele><time>2026-04-11T09:06:32.443Z</time></trkpt><trkpt lat="44.814735" lon="7.85412"><ele>331.0</ele><time>2026-04-11T09:06:33.443Z</time></trkpt><trkpt lat="44.8147967" lon="7.854045"><ele>330.0</ele><time>2026-04-11T09:06:34.443Z</time></trkpt><trkpt lat="44.81486" lon="7.853965"><ele>329.0</ele><time>2026-04-11T09:06:35.443Z</time></trkpt><trkpt lat="44.81492" lon="7.85388"><ele>329.0</ele><time>2026-04-11T09:06:36.443Z</time></trkpt><trkpt lat="44.8149683" lon="7.8538067"><ele>329.0</ele><time>2026-04-11T09:06:37.443Z</time></trkpt><trkpt lat="44.815015" lon="7.8537417"><ele>329.0</ele><time>2026-04-11T09:06:38.443Z</time></trkpt><trkpt lat="44.8150983" lon="7.85363"><ele>329.0</ele><time>2026-04-11T09:06:40.443Z</time></trkpt><trkpt lat="44.8151783" lon="7.8535083"><ele>329.0</ele><time>2026-04-11T09:06:42.444Z</time></trkpt><trkpt lat="44.8152617" lon="7.853375"><ele>327.6666666666667</ele><time>2026-04-11T09:06:44.443Z</time></trkpt><trkpt lat="44.8153033" lon="7.8533033"><ele>326.33333333333337</ele><time>2026-04-11T09:06:45.443Z</time></trkpt><trkpt lat="44.8153483" lon="7.8532233"><ele>325.0</ele><time>2026-04-11T09:06:46.443Z</time></trkpt><trkpt lat="44.8154017" lon="7.8531383"><ele>323.6666666666667</ele><time>2026-04-11T09:06:47.443Z</time></trkpt><trkpt lat="44.8154533" lon="7.8530533"><ele>322.3333333333333</ele><time>2026-04-11T09:06:48.443Z</time></trkpt><trkpt lat="44.81551" lon="7.8529717"><ele>321.0</ele><time>2026-04-11T09:06:49.444Z</time></trkpt><trkpt lat="44.81556" lon="7.8528867"><ele>321.0</ele><time>2026-04-11T09:06:50.443Z</time></trkpt><trkpt lat="44.81561" lon="7.852805"><ele>321.0</ele><time>2026-04-11T09:06:51.443Z</time></trkpt><trkpt lat="44.8156567" lon="7.85273"><ele>321.0</ele><time>2026-04-11T09:06:52.443Z</time></trkpt><trkpt lat="44.815745" lon="7.8526617"><ele>321.0</ele><time>2026-04-11T09:06:54.443Z</time></trkpt><trkpt lat="44.8158383" lon="7.8526967"><ele>321.0</ele><time>2026-04-11T09:06:56.444Z</time></trkpt><trkpt lat="44.8159283" lon="7.852775"><ele>320.40000000000003</ele><time>2026-04-11T09:06:58.443Z</time></trkpt><trkpt lat="44.8160117" lon="7.85286"><ele>319.8</ele><time>2026-04-11T09:07:00.443Z</time></trkpt><trkpt lat="44.8161183" lon="7.85295"><ele>319.20000000000005</ele><time>2026-04-11T09:07:02.443Z</time></trkpt><trkpt lat="44.8161783" lon="7.8529867"><ele>318.6</ele><time>2026-04-11T09:07:03.443Z</time></trkpt><trkpt lat="44.8162817" lon="7.8530433"><ele>318.0</ele><time>2026-04-11T09:07:05.443Z</time></trkpt><trkpt lat="44.81636" lon="7.85308"><ele>318.0</ele><time>2026-04-11T09:07:07.443Z</time></trkpt><trkpt lat="44.8164233" lon="7.8530517"><ele>318.0</ele><time>2026-04-11T09:07:10.443Z</time></trkpt><trkpt lat="44.8164733" lon="7.8529567"><ele>318.0</ele><time>2026-04-11T09:07:13.443Z</time></trkpt><trkpt lat="44.816515" lon="7.8528683"><ele>318.0</ele><time>2026-04-11T09:07:17.443Z</time></trkpt><trkpt lat="44.81656" lon="7.8527583"><ele>318.0</ele><time>2026-04-11T09:07:21.443Z</time></trkpt><trkpt lat="44.8165967" lon="7.8526767"><ele>318.0</ele><time>2026-04-11T09:07:23.443Z</time></trkpt><trkpt lat="44.816635" lon="7.85259"><ele>317.2</ele><time>2026-04-11T09:07:25.443Z</time></trkpt><trkpt lat="44.816665" lon="7.8524783"><ele>316.4</ele><time>2026-04-11T09:07:27.443Z</time></trkpt><trkpt lat="44.81669" lon="7.8523633"><ele>315.59999999999997</ele><time>2026-04-11T09:07:29.443Z</time></trkpt><trkpt lat="44.816725" lon="7.8522267"><ele>314.8</ele><time>2026-04-11T09:07:31.443Z</time></trkpt><trkpt lat="44.8167517" lon="7.85209"><ele>314.0</ele><time>2026-04-11T09:07:33.443Z</time></trkpt><trkpt lat="44.8167867" lon="7.851935"><ele>313.59999999999997</ele><time>2026-04-11T09:07:35.443Z</time></trkpt><trkpt lat="44.8168283" lon="7.8517767"><ele>313.2</ele><time>2026-04-11T09:07:37.444Z</time></trkpt><trkpt lat="44.8168583" lon="7.8516317"><ele>312.79999999999995</ele><time>2026-04-11T09:07:39.443Z</time></trkpt><trkpt lat="44.8168817" lon="7.8514917"><ele>312.4</ele><time>2026-04-11T09:07:41.443Z</time></trkpt><trkpt lat="44.8169133" lon="7.8513367"><ele>312.0</ele><time>2026-04-11T09:07:43.443Z</time></trkpt><trkpt lat="44.816955" lon="7.8511983"><ele>312.0</ele><time>2026-04-11T09:07:45.443Z</time></trkpt><trkpt lat="44.817" lon="7.851065"><ele>312.0</ele><time>2026-04-11T09:07:47.443Z</time></trkpt><trkpt lat="44.8170367" lon="7.850925"><ele>312.0</ele><time>2026-04-11T09:07:49.444Z</time></trkpt><trkpt lat="44.817105" lon="7.8507783"><ele>312.0</ele><time>2026-04-11T09:07:51.443Z</time></trkpt><trkpt lat="44.8171533" lon="7.8507067"><ele>312.0</ele><time>2026-04-11T09:07:52.443Z</time></trkpt><trkpt lat="44.8172033" lon="7.8506433"><ele>311.6666666666667</ele><time>2026-04-11T09:07:53.443Z</time></trkpt><trkpt lat="44.8172517" lon="7.8505817"><ele>311.3333333333333</ele><time>2026-04-11T09:07:54.443Z</time></trkpt><trkpt lat="44.8173017" lon="7.8505067"><ele>311.0</ele><time>2026-04-11T09:07:55.443Z</time></trkpt><trkpt lat="44.8173517" lon="7.85044"><ele>310.66666666666663</ele><time>2026-04-11T09:07:56.443Z</time></trkpt><trkpt lat="44.8174017" lon="7.8503733"><ele>310.3333333333333</ele><time>2026-04-11T09:07:57.443Z</time></trkpt><trkpt lat="44.8175" lon="7.8502567"><ele>310.0</ele><time>2026-04-11T09:07:59.443Z</time></trkpt><trkpt lat="44.817555" lon="7.8502067"><ele>310.0</ele><time>2026-04-11T09:08:00.443Z</time></trkpt><trkpt lat="44.8176117" lon="7.8501667"><ele>310.0</ele><time>2026-04-11T09:08:01.443Z</time></trkpt><trkpt lat="44.8176717" lon="7.8501367"><ele>310.0</ele><time>2026-04-11T09:08:02.443Z</time></trkpt><trkpt lat="44.817735" lon="7.8501183"><ele>310.0</ele><time>2026-04-11T09:08:03.443Z</time></trkpt><trkpt lat="44.8178033" lon="7.85011"><ele>310.0</ele><time>2026-04-11T09:08:04.443Z</time></trkpt><trkpt lat="44.8178683" lon="7.8501083"><ele>310.0</ele><time>2026-04-11T09:08:05.443Z</time></trkpt><trkpt lat="44.8179367" lon="7.8500967"><ele>310.0</ele><time>2026-04-11T09:08:06.444Z</time></trkpt><trkpt lat="44.8180033" lon="7.850065"><ele>309.7142857142857</ele><time>2026-04-11T09:08:07.443Z</time></trkpt><trkpt lat="44.818065" lon="7.8500183"><ele>309.42857142857144</ele><time>2026-04-11T09:08:08.443Z</time></trkpt><trkpt lat="44.8181233" lon="7.8499667"><ele>309.1428571428571</ele><time>2026-04-11T09:08:09.443Z</time></trkpt><trkpt lat="44.8181817" lon="7.8499"><ele>308.8571428571429</ele><time>2026-04-11T09:08:10.443Z</time></trkpt><trkpt lat="44.8182333" lon="7.8498183"><ele>308.57142857142856</ele><time>2026-04-11T09:08:11.443Z</time></trkpt><trkpt lat="44.8182867" lon="7.849735"><ele>308.2857142857143</ele><time>2026-04-11T09:08:12.443Z</time></trkpt><trkpt lat="44.8183367" lon="7.84967"><ele>308.0</ele><time>2026-04-11T09:08:13.443Z</time></trkpt><trkpt lat="44.8184317" lon="7.8495533"><ele>307.0</ele><time>2026-04-11T09:08:15.444Z</time></trkpt><trkpt lat="44.8185233" lon="7.8494383"><ele>306.0</ele><time>2026-04-11T09:08:17.443Z</time></trkpt><trkpt lat="44.8185733" lon="7.8493817"><ele>305.0</ele><time>2026-04-11T09:08:18.443Z</time></trkpt><trkpt lat="44.818625" lon="7.849305"><ele>304.0</ele><time>2026-04-11T09:08:19.443Z</time></trkpt><trkpt lat="44.818675" lon="7.849225"><ele>303.0</ele><time>2026-04-11T09:08:20.444Z</time></trkpt><trkpt lat="44.8187233" lon="7.84915"><ele>302.0</ele><time>2026-04-11T09:08:21.443Z</time></trkpt><trkpt lat="44.8187633" lon="7.849025"><ele>302.0</ele><time>2026-04-11T09:08:23.443Z</time></trkpt><trkpt lat="44.818725" lon="7.8488967"><ele>302.0</ele><time>2026-04-11T09:08:25.443Z</time></trkpt><trkpt lat="44.81866" lon="7.8487733"><ele>302.0</ele><time>2026-04-11T09:08:27.443Z</time></trkpt><trkpt lat="44.81861" lon="7.8486233"><ele>302.0</ele><time>2026-04-11T09:08:29.443Z</time></trkpt><trkpt lat="44.8185833" lon="7.8485367"><ele>302.0</ele><time>2026-04-11T09:08:30.443Z</time></trkpt><trkpt lat="44.8185533" lon="7.8484533"><ele>302.1666666666667</ele><time>2026-04-11T09:08:31.443Z</time></trkpt><trkpt lat="44.8185233" lon="7.8483683"><ele>302.33333333333337</ele><time>2026-04-11T09:08:32.443Z</time></trkpt><trkpt lat="44.8184917" lon="7.848285"><ele>302.5</ele><time>2026-04-11T09:08:33.443Z</time></trkpt><trkpt lat="44.8184533" lon="7.8482133"><ele>302.6666666666667</ele><time>2026-04-11T09:08:34.443Z</time></trkpt><trkpt lat="44.8183483" lon="7.8481133"><ele>302.8333333333333</ele><time>2026-04-11T09:08:36.443Z</time></trkpt><trkpt lat="44.81829" lon="7.8480767"><ele>303.0</ele><time>2026-04-11T09:08:37.443Z</time></trkpt><trkpt lat="44.8181717" lon="7.8480483"><ele>303.6666666666667</ele><time>2026-04-11T09:08:39.443Z</time></trkpt><trkpt lat="44.81804" lon="7.848015"><ele>304.3333333333333</ele><time>2026-04-11T09:08:41.443Z</time></trkpt><trkpt lat="44.8179617" lon="7.848"><ele>305.0</ele><time>2026-04-11T09:08:42.443Z</time></trkpt><trkpt lat="44.8178833" lon="7.8479967"><ele>305.66666666666663</ele><time>2026-04-11T09:08:43.443Z</time></trkpt><trkpt lat="44.81781" lon="7.847995"><ele>306.3333333333333</ele><time>2026-04-11T09:08:44.443Z</time></trkpt><trkpt lat="44.817735" lon="7.8479867"><ele>307.0</ele><time>2026-04-11T09:08:45.443Z</time></trkpt><trkpt lat="44.8176717" lon="7.84796"><ele>307.3333333333333</ele><time>2026-04-11T09:08:46.444Z</time></trkpt><trkpt lat="44.8176117" lon="7.8479167"><ele>307.66666666666663</ele><time>2026-04-11T09:08:47.443Z</time></trkpt><trkpt lat="44.8175567" lon="7.8478483"><ele>308.0</ele><time>2026-04-11T09:08:48.443Z</time></trkpt><trkpt lat="44.8175083" lon="7.84775"><ele>308.3333333333333</ele><time>2026-04-11T09:08:49.443Z</time></trkpt><trkpt lat="44.8174617" lon="7.847635"><ele>308.6666666666667</ele><time>2026-04-11T09:08:50.443Z</time></trkpt><trkpt lat="44.8174083" lon="7.8475083"><ele>309.0</ele><time>2026-04-11T09:08:51.443Z</time></trkpt><trkpt lat="44.8173467" lon="7.84741"><ele>308.1666666666667</ele><time>2026-04-11T09:08:52.443Z</time></trkpt><trkpt lat="44.817285" lon="7.8473417"><ele>307.3333333333333</ele><time>2026-04-11T09:08:53.443Z</time></trkpt><trkpt lat="44.8172083" lon="7.8472867"><ele>306.5</ele><time>2026-04-11T09:08:55.443Z</time></trkpt><trkpt lat="44.817125" lon="7.8472433"><ele>305.66666666666663</ele><time>2026-04-11T09:08:58.443Z</time></trkpt><trkpt lat="44.8170383" lon="7.8472183"><ele>304.8333333333333</ele><time>2026-04-11T09:09:01.443Z</time></trkpt><trkpt lat="44.81695" lon="7.8471883"><ele>304.0</ele><time>2026-04-11T09:09:04.443Z</time></trkpt><trkpt lat="44.816885" lon="7.8471817"><ele>303.4</ele><time>2026-04-11T09:09:06.443Z</time></trkpt><trkpt lat="44.81676" lon="7.8471483"><ele>302.79999999999995</ele><time>2026-04-11T09:09:08.443Z</time></trkpt><trkpt lat="44.8166933" lon="7.8471217"><ele>302.20000000000005</ele><time>2026-04-11T09:09:09.443Z</time></trkpt><trkpt lat="44.8165817" lon="7.8470633"><ele>301.6</ele><time>2026-04-11T09:09:11.443Z</time></trkpt><trkpt lat="44.8164767" lon="7.8469933"><ele>301.0</ele><time>2026-04-11T09:09:13.443Z</time></trkpt><trkpt lat="44.816375" lon="7.8469083"><ele>301.0</ele><time>2026-04-11T09:09:15.443Z</time></trkpt><trkpt lat="44.8162733" lon="7.8468217"><ele>301.0</ele><time>2026-04-11T09:09:17.443Z</time></trkpt><trkpt lat="44.8161983" lon="7.84674"><ele>301.0</ele><time>2026-04-11T09:09:19.443Z</time></trkpt><trkpt lat="44.8161183" lon="7.8466567"><ele>301.0</ele><time>2026-04-11T09:09:21.444Z</time></trkpt><trkpt lat="44.8160467" lon="7.846575"><ele>301.0</ele><time>2026-04-11T09:09:23.443Z</time></trkpt><trkpt lat="44.8159767" lon="7.8464833"><ele>300.8333333333333</ele><time>2026-04-11T09:09:25.443Z</time></trkpt><trkpt lat="44.8159117" lon="7.8463783"><ele>300.66666666666663</ele><time>2026-04-11T09:09:27.443Z</time></trkpt><trkpt lat="44.81587" lon="7.84626"><ele>300.5</ele><time>2026-04-11T09:09:29.443Z</time></trkpt><trkpt lat="44.8158233" lon="7.846155"><ele>300.3333333333333</ele><time>2026-04-11T09:09:31.443Z</time></trkpt><trkpt lat="44.81578" lon="7.8460583"><ele>300.1666666666667</ele><time>2026-04-11T09:09:33.443Z</time></trkpt><trkpt lat="44.8157317" lon="7.84597"><ele>300.0</ele><time>2026-04-11T09:09:35.443Z</time></trkpt><trkpt lat="44.8156717" lon="7.8459067"><ele>299.8333333333333</ele><time>2026-04-11T09:09:37.443Z</time></trkpt><trkpt lat="44.8156167" lon="7.8458567"><ele>299.6666666666667</ele><time>2026-04-11T09:09:39.443Z</time></trkpt><trkpt lat="44.8155667" lon="7.8457567"><ele>299.5</ele><time>2026-04-11T09:09:42.443Z</time></trkpt><trkpt lat="44.8155067" lon="7.845665"><ele>299.33333333333337</ele><time>2026-04-11T09:09:44.443Z</time></trkpt><trkpt lat="44.8154267" lon="7.8455933"><ele>299.1666666666667</ele><time>2026-04-11T09:09:46.443Z</time></trkpt><trkpt lat="44.81538" lon="7.8454817"><ele>299.0</ele><time>2026-04-11T09:09:48.443Z</time></trkpt><trkpt lat="44.8154167" lon="7.8453683"><ele>299.0</ele><time>2026-04-11T09:09:50.443Z</time></trkpt><trkpt lat="44.815495" lon="7.845275"><ele>299.0</ele><time>2026-04-11T09:09:52.443Z</time></trkpt><trkpt lat="44.815585" lon="7.8451767"><ele>299.0</ele><time>2026-04-11T09:09:54.443Z</time></trkpt><trkpt lat="44.8156383" lon="7.8451233"><ele>299.0</ele><time>2026-04-11T09:09:55.444Z</time></trkpt><trkpt lat="44.8157467" lon="7.8450133"><ele>299.0</ele><time>2026-04-11T09:09:57.443Z</time></trkpt><trkpt lat="44.8158067" lon="7.844955"><ele>298.5</ele><time>2026-04-11T09:09:58.443Z</time></trkpt><trkpt lat="44.8158633" lon="7.844895"><ele>298.0</ele><time>2026-04-11T09:09:59.443Z</time></trkpt><trkpt lat="44.8159217" lon="7.844835"><ele>297.5</ele><time>2026-04-11T09:10:00.443Z</time></trkpt><trkpt lat="44.8159767" lon="7.8447833"><ele>297.0</ele><time>2026-04-11T09:10:01.443Z</time></trkpt><trkpt lat="44.816035" lon="7.8447383"><ele>296.5</ele><time>2026-04-11T09:10:02.443Z</time></trkpt><trkpt lat="44.81609" lon="7.8446883"><ele>296.0</ele><time>2026-04-11T09:10:03.443Z</time></trkpt><trkpt lat="44.8161917" lon="7.8446033"><ele>296.0</ele><time>2026-04-11T09:10:05.443Z</time></trkpt><trkpt lat="44.81628" lon="7.8445333"><ele>296.0</ele><time>2026-04-11T09:10:07.443Z</time></trkpt><trkpt lat="44.8163817" lon="7.8444667"><ele>296.0</ele><time>2026-04-11T09:10:09.443Z</time></trkpt><trkpt lat="44.8164933" lon="7.84441"><ele>296.0</ele><time>2026-04-11T09:10:11.443Z</time></trkpt><trkpt lat="44.8165567" lon="7.84439"><ele>296.0</ele><time>2026-04-11T09:10:12.443Z</time></trkpt><trkpt lat="44.8166217" lon="7.8443633"><ele>296.0</ele><time>2026-04-11T09:10:13.443Z</time></trkpt><trkpt lat="44.816685" lon="7.844325"><ele>296.0</ele><time>2026-04-11T09:10:14.443Z</time></trkpt><trkpt lat="44.8167467" lon="7.8442917"><ele>296.0</ele><time>2026-04-11T09:10:15.443Z</time></trkpt><trkpt lat="44.8168017" lon="7.8442483"><ele>296.0</ele><time>2026-04-11T09:10:16.443Z</time></trkpt><trkpt lat="44.8168933" lon="7.8441383"><ele>296.0</ele><time>2026-04-11T09:10:18.443Z</time></trkpt><trkpt lat="44.816925" lon="7.8440017"><ele>296.0</ele><time>2026-04-11T09:10:20.443Z</time></trkpt><trkpt lat="44.81692" lon="7.843865"><ele>296.0</ele><time>2026-04-11T09:10:22.443Z</time></trkpt><trkpt lat="44.8169083" lon="7.8437167"><ele>296.0</ele><time>2026-04-11T09:10:24.443Z</time></trkpt><trkpt lat="44.8168833" lon="7.8435717"><ele>296.0</ele><time>2026-04-11T09:10:26.443Z</time></trkpt><trkpt lat="44.81686" lon="7.8434167"><ele>296.0</ele><time>2026-04-11T09:10:28.443Z</time></trkpt><trkpt lat="44.81685" lon="7.8433283"><ele>296.0</ele><time>2026-04-11T09:10:29.443Z</time></trkpt><trkpt lat="44.8168367" lon="7.8431483"><ele>296.0</ele><time>2026-04-11T09:10:31.443Z</time></trkpt><trkpt lat="44.81683" lon="7.8430583"><ele>296.0</ele><time>2026-04-11T09:10:32.443Z</time></trkpt><trkpt lat="44.8168183" lon="7.8429567"><ele>296.0</ele><time>2026-04-11T09:10:33.443Z</time></trkpt><trkpt lat="44.8168117" lon="7.8428583"><ele>296.0</ele><time>2026-04-11T09:10:34.443Z</time></trkpt><trkpt lat="44.8168233" lon="7.8427633"><ele>296.0</ele><time>2026-04-11T09:10:35.443Z</time></trkpt><trkpt lat="44.81685" lon="7.842595"><ele>296.0</ele><time>2026-04-11T09:10:37.443Z</time></trkpt><trkpt lat="44.81689" lon="7.8424267"><ele>296.1666666666667</ele><time>2026-04-11T09:10:39.443Z</time></trkpt><trkpt lat="44.8169117" lon="7.8423333"><ele>296.33333333333337</ele><time>2026-04-11T09:10:40.443Z</time></trkpt><trkpt lat="44.81693" lon="7.8422467"><ele>296.5</ele><time>2026-04-11T09:10:41.444Z</time></trkpt><trkpt lat="44.81694" lon="7.8421583"><ele>296.6666666666667</ele><time>2026-04-11T09:10:42.443Z</time></trkpt><trkpt lat="44.8169567" lon="7.8419867"><ele>296.8333333333333</ele><time>2026-04-11T09:10:44.443Z</time></trkpt><trkpt lat="44.8169617" lon="7.8418067"><ele>297.0</ele><time>2026-04-11T09:10:46.443Z</time></trkpt><trkpt lat="44.8169633" lon="7.8416383"><ele>297.2</ele><time>2026-04-11T09:10:48.443Z</time></trkpt><trkpt lat="44.8169583" lon="7.84148"><ele>297.4</ele><time>2026-04-11T09:10:50.443Z</time></trkpt><trkpt lat="44.8169533" lon="7.841335"><ele>297.6</ele><time>2026-04-11T09:10:52.443Z</time></trkpt><trkpt lat="44.8169183" lon="7.84119"><ele>297.8</ele><time>2026-04-11T09:10:54.443Z</time></trkpt><trkpt lat="44.8168717" lon="7.8410467"><ele>298.0</ele><time>2026-04-11T09:10:56.443Z</time></trkpt><trkpt lat="44.816825" lon="7.8409067"><ele>298.4</ele><time>2026-04-11T09:10:58.443Z</time></trkpt><trkpt lat="44.8168033" lon="7.84075"><ele>298.8</ele><time>2026-04-11T09:11:00.443Z</time></trkpt><trkpt lat="44.81679" lon="7.8406017"><ele>299.2</ele><time>2026-04-11T09:11:02.443Z</time></trkpt><trkpt lat="44.81678" lon="7.8404467"><ele>299.6</ele><time>2026-04-11T09:11:04.443Z</time></trkpt><trkpt lat="44.8167717" lon="7.8403"><ele>300.0</ele><time>2026-04-11T09:11:06.444Z</time></trkpt><trkpt lat="44.8167583" lon="7.8401783"><ele>300.4</ele><time>2026-04-11T09:11:08.443Z</time></trkpt><trkpt lat="44.81674" lon="7.84005"><ele>300.8</ele><time>2026-04-11T09:11:10.443Z</time></trkpt><trkpt lat="44.81672" lon="7.8399267"><ele>301.2</ele><time>2026-04-11T09:11:12.443Z</time></trkpt><trkpt lat="44.816695" lon="7.839795"><ele>301.6</ele><time>2026-04-11T09:11:14.443Z</time></trkpt><trkpt lat="44.8166467" lon="7.8396683"><ele>302.0</ele><time>2026-04-11T09:11:16.443Z</time></trkpt><trkpt lat="44.8165867" lon="7.8395583"><ele>302.0</ele><time>2026-04-11T09:11:18.443Z</time></trkpt><trkpt lat="44.8165233" lon="7.8394383"><ele>302.0</ele><time>2026-04-11T09:11:20.443Z</time></trkpt><trkpt lat="44.8164383" lon="7.8393083"><ele>302.0</ele><time>2026-04-11T09:11:22.443Z</time></trkpt><trkpt lat="44.8163583" lon="7.8391817"><ele>302.0</ele><time>2026-04-11T09:11:24.443Z</time></trkpt><trkpt lat="44.8162917" lon="7.8390433"><ele>302.2</ele><time>2026-04-11T09:11:26.443Z</time></trkpt><trkpt lat="44.8162533" lon="7.8389"><ele>302.4</ele><time>2026-04-11T09:11:28.443Z</time></trkpt><trkpt lat="44.81625" lon="7.838755"><ele>302.6</ele><time>2026-04-11T09:11:30.443Z</time></trkpt><trkpt lat="44.8162533" lon="7.8386233"><ele>302.8</ele><time>2026-04-11T09:11:32.443Z</time></trkpt><trkpt lat="44.8162667" lon="7.8384867"><ele>303.0</ele><time>2026-04-11T09:11:34.443Z</time></trkpt><trkpt lat="44.81627" lon="7.8383617"><ele>303.4</ele><time>2026-04-11T09:11:36.443Z</time></trkpt><trkpt lat="44.816285" lon="7.83824"><ele>303.8</ele><time>2026-04-11T09:11:38.443Z</time></trkpt><trkpt lat="44.81631" lon="7.8381217"><ele>304.2</ele><time>2026-04-11T09:11:40.443Z</time></trkpt><trkpt lat="44.8163433" lon="7.838"><ele>304.6</ele><time>2026-04-11T09:11:42.443Z</time></trkpt><trkpt lat="44.816385" lon="7.8378583"><ele>305.0</ele><time>2026-04-11T09:11:44.443Z</time></trkpt><trkpt lat="44.8163917" lon="7.8377183"><ele>305.33333333333337</ele><time>2026-04-11T09:11:46.443Z</time></trkpt><trkpt lat="44.8163733" lon="7.8376"><ele>305.6666666666667</ele><time>2026-04-11T09:11:48.443Z</time></trkpt><trkpt lat="44.8163567" lon="7.837505"><ele>306.0</ele><time>2026-04-11T09:11:50.443Z</time></trkpt><trkpt lat="44.8163633" lon="7.8374167"><ele>306.3333333333333</ele><time>2026-04-11T09:11:52.443Z</time></trkpt><trkpt lat="44.81644" lon="7.8373267"><ele>306.66666666666663</ele><time>2026-04-11T09:11:55.443Z</time></trkpt><trkpt lat="44.8165317" lon="7.8372733"><ele>307.0</ele><time>2026-04-11T09:11:57.443Z</time></trkpt><trkpt lat="44.8166233" lon="7.8372083"><ele>307.0</ele><time>2026-04-11T09:11:59.443Z</time></trkpt><trkpt lat="44.8167" lon="7.83715"><ele>307.0</ele><time>2026-04-11T09:12:01.443Z</time></trkpt><trkpt lat="44.816785" lon="7.837075"><ele>307.0</ele><time>2026-04-11T09:12:03.443Z</time></trkpt><trkpt lat="44.8168533" lon="7.8369733"><ele>307.0</ele><time>2026-04-11T09:12:05.443Z</time></trkpt><trkpt lat="44.816915" lon="7.8368567"><ele>307.0</ele><time>2026-04-11T09:12:07.443Z</time></trkpt><trkpt lat="44.8169883" lon="7.8367567"><ele>306.2</ele><time>2026-04-11T09:12:09.443Z</time></trkpt><trkpt lat="44.8170417" lon="7.8366533"><ele>305.4</ele><time>2026-04-11T09:12:11.443Z</time></trkpt><trkpt lat="44.817105" lon="7.8365617"><ele>304.6</ele><time>2026-04-11T09:12:13.443Z</time></trkpt><trkpt lat="44.8171733" lon="7.8364617"><ele>303.8</ele><time>2026-04-11T09:12:15.443Z</time></trkpt><trkpt lat="44.8172417" lon="7.83637"><ele>303.0</ele><time>2026-04-11T09:12:17.443Z</time></trkpt><trkpt lat="44.8173117" lon="7.8362583"><ele>303.0</ele><time>2026-04-11T09:12:19.443Z</time></trkpt><trkpt lat="44.817375" lon="7.836155"><ele>303.0</ele><time>2026-04-11T09:12:21.443Z</time></trkpt><trkpt lat="44.817435" lon="7.83604"><ele>303.0</ele><time>2026-04-11T09:12:23.443Z</time></trkpt><trkpt lat="44.8174933" lon="7.835915"><ele>303.0</ele><time>2026-04-11T09:12:25.444Z</time></trkpt><trkpt lat="44.8175267" lon="7.8357817"><ele>303.0</ele><time>2026-04-11T09:12:27.444Z</time></trkpt><trkpt lat="44.8175267" lon="7.835635"><ele>302.8333333333333</ele><time>2026-04-11T09:12:29.443Z</time></trkpt><trkpt lat="44.8175433" lon="7.835495"><ele>302.6666666666667</ele><time>2026-04-11T09:12:31.443Z</time></trkpt><trkpt lat="44.8175983" lon="7.835425"><ele>302.5</ele><time>2026-04-11T09:12:33.443Z</time></trkpt><trkpt lat="44.817665" lon="7.835465"><ele>302.33333333333337</ele><time>2026-04-11T09:12:35.443Z</time></trkpt><trkpt lat="44.8177317" lon="7.8355417"><ele>302.1666666666667</ele><time>2026-04-11T09:12:37.443Z</time></trkpt><trkpt lat="44.817805" lon="7.83562"><ele>302.0</ele><time>2026-04-11T09:12:39.443Z</time></trkpt><trkpt lat="44.817895" lon="7.8357067"><ele>301.75</ele><time>2026-04-11T09:12:41.443Z</time></trkpt><trkpt lat="44.817985" lon="7.83579"><ele>301.5</ele><time>2026-04-11T09:12:43.443Z</time></trkpt><trkpt lat="44.8180817" lon="7.83588"><ele>301.25</ele><time>2026-04-11T09:12:45.443Z</time></trkpt><trkpt lat="44.818185" lon="7.835965"><ele>301.0</ele><time>2026-04-11T09:12:47.443Z</time></trkpt><trkpt lat="44.8182867" lon="7.8360533"><ele>300.8</ele><time>2026-04-11T09:12:49.443Z</time></trkpt><trkpt lat="44.8183833" lon="7.836145"><ele>300.6</ele><time>2026-04-11T09:12:51.443Z</time></trkpt><trkpt lat="44.818485" lon="7.8362417"><ele>300.4</ele><time>2026-04-11T09:12:53.443Z</time></trkpt><trkpt lat="44.8185367" lon="7.836295"><ele>300.2</ele><time>2026-04-11T09:12:54.443Z</time></trkpt><trkpt lat="44.8186383" lon="7.8363967"><ele>300.0</ele><time>2026-04-11T09:12:56.443Z</time></trkpt><trkpt lat="44.8187433" lon="7.83649"><ele>300.2857142857143</ele><time>2026-04-11T09:12:58.443Z</time></trkpt><trkpt lat="44.818845" lon="7.836585"><ele>300.57142857142856</ele><time>2026-04-11T09:13:00.443Z</time></trkpt><trkpt lat="44.818895" lon="7.8366433"><ele>300.8571428571429</ele><time>2026-04-11T09:13:01.443Z</time></trkpt><trkpt lat="44.8189433" lon="7.8367017"><ele>301.1428571428571</ele><time>2026-04-11T09:13:02.443Z</time></trkpt><trkpt lat="44.8189917" lon="7.8367683"><ele>301.42857142857144</ele><time>2026-04-11T09:13:03.443Z</time></trkpt><trkpt lat="44.8190367" lon="7.836835"><ele>301.7142857142857</ele><time>2026-04-11T09:13:04.443Z</time></trkpt><trkpt lat="44.81908" lon="7.8369033"><ele>302.0</ele><time>2026-04-11T09:13:05.443Z</time></trkpt><trkpt lat="44.81915" lon="7.837045"><ele>302.2</ele><time>2026-04-11T09:13:07.443Z</time></trkpt><trkpt lat="44.8192067" lon="7.8371767"><ele>302.4</ele><time>2026-04-11T09:13:09.443Z</time></trkpt><trkpt lat="44.8192533" lon="7.8373017"><ele>302.6</ele><time>2026-04-11T09:13:11.443Z</time></trkpt><trkpt lat="44.819295" lon="7.83744"><ele>302.8</ele><time>2026-04-11T09:13:13.443Z</time></trkpt><trkpt lat="44.8193367" lon="7.8375767"><ele>303.0</ele><time>2026-04-11T09:13:15.443Z</time></trkpt><trkpt lat="44.8194117" lon="7.8376717"><ele>302.5</ele><time>2026-04-11T09:13:17.443Z</time></trkpt><trkpt lat="44.8195233" lon="7.837675"><ele>302.0</ele><time>2026-04-11T09:13:19.443Z</time></trkpt><trkpt lat="44.8196433" lon="7.8376133"><ele>301.5</ele><time>2026-04-11T09:13:21.444Z</time></trkpt><trkpt lat="44.819705" lon="7.8375833"><ele>301.0</ele><time>2026-04-11T09:13:22.444Z</time></trkpt><trkpt lat="44.8197667" lon="7.837555"><ele>300.5</ele><time>2026-04-11T09:13:23.443Z</time></trkpt><trkpt lat="44.8198267" lon="7.8375233"><ele>300.0</ele><time>2026-04-11T09:13:24.443Z</time></trkpt><trkpt lat="44.8198883" lon="7.8374917"><ele>299.99999999999994</ele><time>2026-04-11T09:13:25.443Z</time></trkpt><trkpt lat="44.8199483" lon="7.83746"><ele>300.0</ele><time>2026-04-11T09:13:26.443Z</time></trkpt><trkpt lat="44.8200117" lon="7.837435"><ele>300.0</ele><time>2026-04-11T09:13:27.443Z</time></trkpt><trkpt lat="44.8200733" lon="7.8374083"><ele>300.0</ele><time>2026-04-11T09:13:28.443Z</time></trkpt><trkpt lat="44.820135" lon="7.8373767"><ele>300.0</ele><time>2026-04-11T09:13:29.443Z</time></trkpt><trkpt lat="44.8202017" lon="7.8373467"><ele>299.99999999999994</ele><time>2026-04-11T09:13:30.443Z</time></trkpt><trkpt lat="44.8202667" lon="7.8373117"><ele>300.0</ele><time>2026-04-11T09:13:31.443Z</time></trkpt><trkpt lat="44.8203317" lon="7.8372733"><ele>299.85714285714283</ele><time>2026-04-11T09:13:32.443Z</time></trkpt><trkpt lat="44.8203967" lon="7.83724"><ele>299.7142857142857</ele><time>2026-04-11T09:13:33.443Z</time></trkpt><trkpt lat="44.8204617" lon="7.8372067"><ele>299.57142857142856</ele><time>2026-04-11T09:13:34.444Z</time></trkpt><trkpt lat="44.8205333" lon="7.8371717"><ele>299.42857142857144</ele><time>2026-04-11T09:13:35.443Z</time></trkpt><trkpt lat="44.8205983" lon="7.8371417"><ele>299.2857142857143</ele><time>2026-04-11T09:13:36.443Z</time></trkpt><trkpt lat="44.8206633" lon="7.8371133"><ele>299.1428571428571</ele><time>2026-04-11T09:13:37.443Z</time></trkpt><trkpt lat="44.820735" lon="7.83708"><ele>299.0</ele><time>2026-04-11T09:13:38.443Z</time></trkpt><trkpt lat="44.8208" lon="7.8370517"><ele>299.0</ele><time>2026-04-11T09:13:39.443Z</time></trkpt><trkpt lat="44.8208683" lon="7.83702"><ele>299.0</ele><time>2026-04-11T09:13:40.444Z</time></trkpt><trkpt lat="44.8209317" lon="7.836985"><ele>299.0</ele><time>2026-04-11T09:13:41.443Z</time></trkpt><trkpt lat="44.821" lon="7.8369467"><ele>299.0</ele><time>2026-04-11T09:13:42.443Z</time></trkpt><trkpt lat="44.8210717" lon="7.8369067"><ele>299.0</ele><time>2026-04-11T09:13:43.443Z</time></trkpt><trkpt lat="44.8211383" lon="7.8368767"><ele>299.0</ele><time>2026-04-11T09:13:44.443Z</time></trkpt><trkpt lat="44.82121" lon="7.8368433"><ele>299.0</ele><time>2026-04-11T09:13:45.443Z</time></trkpt><trkpt lat="44.82129" lon="7.8368133"><ele>298.6666666666667</ele><time>2026-04-11T09:13:46.443Z</time></trkpt><trkpt lat="44.821365" lon="7.8367833"><ele>298.33333333333337</ele><time>2026-04-11T09:13:47.443Z</time></trkpt><trkpt lat="44.82144" lon="7.836755"><ele>298.0</ele><time>2026-04-11T09:13:48.443Z</time></trkpt><trkpt lat="44.8215133" lon="7.8367267"><ele>297.6666666666667</ele><time>2026-04-11T09:13:49.443Z</time></trkpt><trkpt lat="44.8215917" lon="7.8367017"><ele>297.3333333333333</ele><time>2026-04-11T09:13:50.443Z</time></trkpt><trkpt lat="44.8216667" lon="7.8366767"><ele>297.0</ele><time>2026-04-11T09:13:51.443Z</time></trkpt><trkpt lat="44.82174" lon="7.836645"><ele>297.0</ele><time>2026-04-11T09:13:52.443Z</time></trkpt><trkpt lat="44.8218117" lon="7.8366233"><ele>297.0</ele><time>2026-04-11T09:13:53.443Z</time></trkpt><trkpt lat="44.8218833" lon="7.8365983"><ele>297.0</ele><time>2026-04-11T09:13:54.443Z</time></trkpt><trkpt lat="44.8219533" lon="7.8365767"><ele>297.0</ele><time>2026-04-11T09:13:55.443Z</time></trkpt><trkpt lat="44.8220283" lon="7.8365467"><ele>297.0</ele><time>2026-04-11T09:13:56.443Z</time></trkpt><trkpt lat="44.8221033" lon="7.8365133"><ele>297.0</ele><time>2026-04-11T09:13:57.443Z</time></trkpt><trkpt lat="44.8221783" lon="7.8364817"><ele>297.1666666666667</ele><time>2026-04-11T09:13:58.443Z</time></trkpt><trkpt lat="44.8222533" lon="7.8364517"><ele>297.3333333333333</ele><time>2026-04-11T09:13:59.443Z</time></trkpt><trkpt lat="44.8223317" lon="7.8364183"><ele>297.5</ele><time>2026-04-11T09:14:00.443Z</time></trkpt><trkpt lat="44.8224033" lon="7.8363867"><ele>297.66666666666663</ele><time>2026-04-11T09:14:01.443Z</time></trkpt><trkpt lat="44.8224733" lon="7.8363533"><ele>297.8333333333333</ele><time>2026-04-11T09:14:02.443Z</time></trkpt><trkpt lat="44.82254" lon="7.8363233"><ele>298.0</ele><time>2026-04-11T09:14:03.443Z</time></trkpt><trkpt lat="44.82261" lon="7.8362833"><ele>297.2857142857143</ele><time>2026-04-11T09:14:04.443Z</time></trkpt><trkpt lat="44.8226783" lon="7.8362467"><ele>296.57142857142856</ele><time>2026-04-11T09:14:05.444Z</time></trkpt><trkpt lat="44.8227483" lon="7.8362133"><ele>295.85714285714283</ele><time>2026-04-11T09:14:06.443Z</time></trkpt><trkpt lat="44.8228183" lon="7.8361867"><ele>295.1428571428571</ele><time>2026-04-11T09:14:07.443Z</time></trkpt><trkpt lat="44.8228883" lon="7.8361533"><ele>294.42857142857144</ele><time>2026-04-11T09:14:08.443Z</time></trkpt><trkpt lat="44.82296" lon="7.83612"><ele>293.71428571428567</ele><time>2026-04-11T09:14:09.443Z</time></trkpt><trkpt lat="44.823035" lon="7.83608"><ele>293.0</ele><time>2026-04-11T09:14:10.443Z</time></trkpt><trkpt lat="44.82311" lon="7.8360483"><ele>293.0</ele><time>2026-04-11T09:14:11.443Z</time></trkpt><trkpt lat="44.823185" lon="7.83602"><ele>293.0</ele><time>2026-04-11T09:14:12.443Z</time></trkpt><trkpt lat="44.8232617" lon="7.8359933"><ele>293.0</ele><time>2026-04-11T09:14:13.443Z</time></trkpt><trkpt lat="44.8233367" lon="7.8359667"><ele>293.0</ele><time>2026-04-11T09:14:14.443Z</time></trkpt><trkpt lat="44.823415" lon="7.8359333"><ele>293.0</ele><time>2026-04-11T09:14:15.443Z</time></trkpt><trkpt lat="44.8234967" lon="7.8359067"><ele>293.0</ele><time>2026-04-11T09:14:16.443Z</time></trkpt><trkpt lat="44.82358" lon="7.8358833"><ele>293.1666666666667</ele><time>2026-04-11T09:14:17.443Z</time></trkpt><trkpt lat="44.8236567" lon="7.8358667"><ele>293.33333333333337</ele><time>2026-04-11T09:14:18.443Z</time></trkpt><trkpt lat="44.82373" lon="7.8358317"><ele>293.5</ele><time>2026-04-11T09:14:19.443Z</time></trkpt><trkpt lat="44.823795" lon="7.8357683"><ele>293.6666666666667</ele><time>2026-04-11T09:14:20.443Z</time></trkpt><trkpt lat="44.8238417" lon="7.83568"><ele>293.8333333333333</ele><time>2026-04-11T09:14:21.443Z</time></trkpt><trkpt lat="44.8238583" lon="7.8355733"><ele>294.0</ele><time>2026-04-11T09:14:22.444Z</time></trkpt><trkpt lat="44.823835" lon="7.8354733"><ele>294.0</ele><time>2026-04-11T09:14:23.444Z</time></trkpt><trkpt lat="44.8237917" lon="7.8353733"><ele>294.0</ele><time>2026-04-11T09:14:24.443Z</time></trkpt><trkpt lat="44.823745" lon="7.8352783"><ele>294.0</ele><time>2026-04-11T09:14:25.443Z</time></trkpt><trkpt lat="44.8237133" lon="7.8351783"><ele>294.0</ele><time>2026-04-11T09:14:26.443Z</time></trkpt><trkpt lat="44.8236967" lon="7.8350633"><ele>294.0</ele><time>2026-04-11T09:14:27.443Z</time></trkpt><trkpt lat="44.8237033" lon="7.8349567"><ele>294.0</ele><time>2026-04-11T09:14:28.443Z</time></trkpt><trkpt lat="44.8237483" lon="7.8348583"><ele>293.6666666666667</ele><time>2026-04-11T09:14:29.443Z</time></trkpt><trkpt lat="44.82381" lon="7.8347717"><ele>293.3333333333333</ele><time>2026-04-11T09:14:30.443Z</time></trkpt><trkpt lat="44.823875" lon="7.8346917"><ele>293.0</ele><time>2026-04-11T09:14:31.443Z</time></trkpt><trkpt lat="44.8239367" lon="7.834605"><ele>292.66666666666663</ele><time>2026-04-11T09:14:32.443Z</time></trkpt><trkpt lat="44.8239933" lon="7.83452"><ele>292.3333333333333</ele><time>2026-04-11T09:14:33.443Z</time></trkpt><trkpt lat="44.8240517" lon="7.834435"><ele>292.0</ele><time>2026-04-11T09:14:34.443Z</time></trkpt><trkpt lat="44.8241067" lon="7.834355"><ele>291.66666666666663</ele><time>2026-04-11T09:14:35.443Z</time></trkpt><trkpt lat="44.8241633" lon="7.8342717"><ele>291.3333333333333</ele><time>2026-04-11T09:14:36.443Z</time></trkpt><trkpt lat="44.8242167" lon="7.8341867"><ele>291.0</ele><time>2026-04-11T09:14:37.443Z</time></trkpt><trkpt lat="44.824265" lon="7.8340967"><ele>290.6666666666667</ele><time>2026-04-11T09:14:38.443Z</time></trkpt><trkpt lat="44.824315" lon="7.834015"><ele>290.33333333333337</ele><time>2026-04-11T09:14:39.444Z</time></trkpt><trkpt lat="44.8243733" lon="7.8339233"><ele>290.0</ele><time>2026-04-11T09:14:40.443Z</time></trkpt><trkpt lat="44.82442" lon="7.8338317"><ele>290.33333333333337</ele><time>2026-04-11T09:14:41.443Z</time></trkpt><trkpt lat="44.82446" lon="7.83375"><ele>290.6666666666667</ele><time>2026-04-11T09:14:42.443Z</time></trkpt><trkpt lat="44.8245017" lon="7.8336733"><ele>291.0</ele><time>2026-04-11T09:14:43.443Z</time></trkpt><trkpt lat="44.8245467" lon="7.8336033"><ele>291.3333333333333</ele><time>2026-04-11T09:14:44.443Z</time></trkpt><trkpt lat="44.8245967" lon="7.8335417"><ele>291.66666666666663</ele><time>2026-04-11T09:14:45.443Z</time></trkpt><trkpt lat="44.8247" lon="7.8334317"><ele>292.0</ele><time>2026-04-11T09:14:47.443Z</time></trkpt><trkpt lat="44.8248133" lon="7.83333"><ele>292.0</ele><time>2026-04-11T09:14:49.443Z</time></trkpt><trkpt lat="44.82487" lon="7.8332683"><ele>292.0</ele><time>2026-04-11T09:14:50.443Z</time></trkpt><trkpt lat="44.8249233" lon="7.833215"><ele>292.0</ele><time>2026-04-11T09:14:51.443Z</time></trkpt><trkpt lat="44.82498" lon="7.8331583"><ele>292.0</ele><time>2026-04-11T09:14:52.443Z</time></trkpt><trkpt lat="44.8250333" lon="7.8331083"><ele>292.0</ele><time>2026-04-11T09:14:53.443Z</time></trkpt><trkpt lat="44.8250883" lon="7.833045"><ele>292.0</ele><time>2026-04-11T09:14:54.443Z</time></trkpt><trkpt lat="44.8251383" lon="7.8329817"><ele>292.0</ele><time>2026-04-11T09:14:55.443Z</time></trkpt><trkpt lat="44.8251983" lon="7.8329167"><ele>291.85714285714283</ele><time>2026-04-11T09:14:56.443Z</time></trkpt><trkpt lat="44.8252533" lon="7.83286"><ele>291.7142857142857</ele><time>2026-04-11T09:14:57.443Z</time></trkpt><trkpt lat="44.82531" lon="7.8328033"><ele>291.57142857142856</ele><time>2026-04-11T09:14:58.443Z</time></trkpt><trkpt lat="44.8253567" lon="7.8327367"><ele>291.42857142857144</ele><time>2026-04-11T09:14:59.443Z</time></trkpt><trkpt lat="44.8253933" lon="7.8326533"><ele>291.2857142857143</ele><time>2026-04-11T09:15:00.443Z</time></trkpt><trkpt lat="44.8254033" lon="7.8325633"><ele>291.1428571428571</ele><time>2026-04-11T09:15:01.443Z</time></trkpt><trkpt lat="44.8253917" lon="7.8324733"><ele>291.0</ele><time>2026-04-11T09:15:02.443Z</time></trkpt><trkpt lat="44.82536" lon="7.83239"><ele>290.40000000000003</ele><time>2026-04-11T09:15:03.443Z</time></trkpt><trkpt lat="44.8253117" lon="7.8323133"><ele>289.8</ele><time>2026-04-11T09:15:04.444Z</time></trkpt><trkpt lat="44.825265" lon="7.8322433"><ele>289.20000000000005</ele><time>2026-04-11T09:15:05.443Z</time></trkpt><trkpt lat="44.8252217" lon="7.8321717"><ele>288.6</ele><time>2026-04-11T09:15:06.443Z</time></trkpt><trkpt lat="44.825175" lon="7.8320133"><ele>288.0</ele><time>2026-04-11T09:15:08.443Z</time></trkpt><trkpt lat="44.8252" lon="7.831835"><ele>288.14285714285717</ele><time>2026-04-11T09:15:10.443Z</time></trkpt><trkpt lat="44.8252317" lon="7.8317517"><ele>288.2857142857143</ele><time>2026-04-11T09:15:11.443Z</time></trkpt><trkpt lat="44.8252683" lon="7.8316717"><ele>288.42857142857144</ele><time>2026-04-11T09:15:12.443Z</time></trkpt><trkpt lat="44.82531" lon="7.83159"><ele>288.57142857142856</ele><time>2026-04-11T09:15:13.443Z</time></trkpt><trkpt lat="44.8253467" lon="7.8315067"><ele>288.7142857142857</ele><time>2026-04-11T09:15:14.443Z</time></trkpt><trkpt lat="44.8253833" lon="7.8314167"><ele>288.8571428571429</ele><time>2026-04-11T09:15:15.443Z</time></trkpt><trkpt lat="44.8254133" lon="7.831325"><ele>289.0</ele><time>2026-04-11T09:15:16.443Z</time></trkpt><trkpt lat="44.825445" lon="7.8312317"><ele>289.0</ele><time>2026-04-11T09:15:17.443Z</time></trkpt><trkpt lat="44.82548" lon="7.831135"><ele>289.0</ele><time>2026-04-11T09:15:18.443Z</time></trkpt><trkpt lat="44.8255133" lon="7.831045"><ele>289.0</ele><time>2026-04-11T09:15:19.443Z</time></trkpt><trkpt lat="44.8255533" lon="7.830955"><ele>289.0</ele><time>2026-04-11T09:15:20.443Z</time></trkpt><trkpt lat="44.8255983" lon="7.8308667"><ele>289.0</ele><time>2026-04-11T09:15:21.443Z</time></trkpt><trkpt lat="44.8256533" lon="7.83078"><ele>289.0</ele><time>2026-04-11T09:15:22.443Z</time></trkpt><trkpt lat="44.8257067" lon="7.8307033"><ele>289.0</ele><time>2026-04-11T09:15:23.443Z</time></trkpt><trkpt lat="44.8257583" lon="7.8306333"><ele>289.0</ele><time>2026-04-11T09:15:24.443Z</time></trkpt><trkpt lat="44.8258167" lon="7.8305533"><ele>289.0</ele><time>2026-04-11T09:15:25.443Z</time></trkpt><trkpt lat="44.8258667" lon="7.8304767"><ele>289.0</ele><time>2026-04-11T09:15:26.443Z</time></trkpt><trkpt lat="44.82592" lon="7.830405"><ele>289.0</ele><time>2026-04-11T09:15:27.443Z</time></trkpt><trkpt lat="44.82598" lon="7.8303333"><ele>289.0</ele><time>2026-04-11T09:15:28.443Z</time></trkpt><trkpt lat="44.8260367" lon="7.830265"><ele>288.57142857142856</ele><time>2026-04-11T09:15:29.443Z</time></trkpt><trkpt lat="44.8260867" lon="7.8302"><ele>288.1428571428571</ele><time>2026-04-11T09:15:30.443Z</time></trkpt><trkpt lat="44.82614" lon="7.8301383"><ele>287.71428571428567</ele><time>2026-04-11T09:15:31.443Z</time></trkpt><trkpt lat="44.8261867" lon="7.8300667"><ele>287.2857142857143</ele><time>2026-04-11T09:15:32.443Z</time></trkpt><trkpt lat="44.8262317" lon="7.829985"><ele>286.85714285714283</ele><time>2026-04-11T09:15:33.444Z</time></trkpt><trkpt lat="44.8262667" lon="7.8298983"><ele>286.4285714285714</ele><time>2026-04-11T09:15:34.443Z</time></trkpt><trkpt lat="44.8262883" lon="7.8298"><ele>286.0</ele><time>2026-04-11T09:15:35.443Z</time></trkpt><trkpt lat="44.8263033" lon="7.8296883"><ele>286.0</ele><time>2026-04-11T09:15:36.443Z</time></trkpt><trkpt lat="44.8263183" lon="7.8295783"><ele>286.0</ele><time>2026-04-11T09:15:37.443Z</time></trkpt><trkpt lat="44.82633" lon="7.8294733"><ele>286.0</ele><time>2026-04-11T09:15:38.443Z</time></trkpt><trkpt lat="44.8263383" lon="7.82936"><ele>286.0</ele><time>2026-04-11T09:15:39.443Z</time></trkpt><trkpt lat="44.8263483" lon="7.8292483"><ele>286.0</ele><time>2026-04-11T09:15:40.443Z</time></trkpt><trkpt lat="44.82635" lon="7.82914"><ele>286.0</ele><time>2026-04-11T09:15:41.443Z</time></trkpt><trkpt lat="44.8263483" lon="7.82903"><ele>286.5</ele><time>2026-04-11T09:15:42.443Z</time></trkpt><trkpt lat="44.826345" lon="7.8289183"><ele>287.0</ele><time>2026-04-11T09:15:43.443Z</time></trkpt><trkpt lat="44.8263417" lon="7.8288117"><ele>287.5</ele><time>2026-04-11T09:15:44.443Z</time></trkpt><trkpt lat="44.826355" lon="7.8287133"><ele>288.0</ele><time>2026-04-11T09:15:45.443Z</time></trkpt><trkpt lat="44.8263667" lon="7.8286133"><ele>288.5</ele><time>2026-04-11T09:15:46.443Z</time></trkpt><trkpt lat="44.8263767" lon="7.82852"><ele>289.0</ele><time>2026-04-11T09:15:47.443Z</time></trkpt><trkpt lat="44.8263933" lon="7.8283533"><ele>289.16666666666663</ele><time>2026-04-11T09:15:49.443Z</time></trkpt><trkpt lat="44.8264117" lon="7.8282617"><ele>289.3333333333333</ele><time>2026-04-11T09:15:50.443Z</time></trkpt><trkpt lat="44.82643" lon="7.8281"><ele>289.5</ele><time>2026-04-11T09:15:52.443Z</time></trkpt><trkpt lat="44.826485" lon="7.828015"><ele>289.6666666666667</ele><time>2026-04-11T09:15:54.443Z</time></trkpt><trkpt lat="44.8265717" lon="7.828025"><ele>289.83333333333337</ele><time>2026-04-11T09:15:56.443Z</time></trkpt><trkpt lat="44.8266467" lon="7.828085"><ele>290.0</ele><time>2026-04-11T09:15:58.443Z</time></trkpt><trkpt lat="44.8267367" lon="7.8281667"><ele>290.2</ele><time>2026-04-11T09:16:00.443Z</time></trkpt><trkpt lat="44.8268267" lon="7.8282483"><ele>290.4</ele><time>2026-04-11T09:16:02.443Z</time></trkpt><trkpt lat="44.8269167" lon="7.8283067"><ele>290.6</ele><time>2026-04-11T09:16:04.443Z</time></trkpt><trkpt lat="44.827015" lon="7.8283767"><ele>290.8</ele><time>2026-04-11T09:16:06.443Z</time></trkpt><trkpt lat="44.8271267" lon="7.8284533"><ele>291.0</ele><time>2026-04-11T09:16:08.443Z</time></trkpt><trkpt lat="44.8271883" lon="7.8285017"><ele>290.2857142857143</ele><time>2026-04-11T09:16:09.443Z</time></trkpt><trkpt lat="44.8272483" lon="7.8285533"><ele>289.57142857142856</ele><time>2026-04-11T09:16:10.443Z</time></trkpt><trkpt lat="44.82731" lon="7.8285983"><ele>288.85714285714283</ele><time>2026-04-11T09:16:11.443Z</time></trkpt><trkpt lat="44.8273667" lon="7.8286467"><ele>288.1428571428571</ele><time>2026-04-11T09:16:12.443Z</time></trkpt><trkpt lat="44.82743" lon="7.828695"><ele>287.42857142857144</ele><time>2026-04-11T09:16:13.443Z</time></trkpt><trkpt lat="44.827485" lon="7.8287383"><ele>286.71428571428567</ele><time>2026-04-11T09:16:14.443Z</time></trkpt><trkpt lat="44.827545" lon="7.828785"><ele>286.0</ele><time>2026-04-11T09:16:15.443Z</time></trkpt><trkpt lat="44.8276033" lon="7.8288317"><ele>286.2857142857143</ele><time>2026-04-11T09:16:16.443Z</time></trkpt><trkpt lat="44.8276633" lon="7.82888"><ele>286.57142857142856</ele><time>2026-04-11T09:16:17.443Z</time></trkpt><trkpt lat="44.8277283" lon="7.828935"><ele>286.8571428571429</ele><time>2026-04-11T09:16:18.443Z</time></trkpt><trkpt lat="44.8277917" lon="7.8289867"><ele>287.1428571428571</ele><time>2026-04-11T09:16:19.443Z</time></trkpt><trkpt lat="44.8278533" lon="7.8290417"><ele>287.42857142857144</ele><time>2026-04-11T09:16:20.443Z</time></trkpt><trkpt lat="44.82792" lon="7.82909"><ele>287.7142857142857</ele><time>2026-04-11T09:16:21.443Z</time></trkpt><trkpt lat="44.8279867" lon="7.8291333"><ele>288.0</ele><time>2026-04-11T09:16:22.443Z</time></trkpt><trkpt lat="44.82805" lon="7.8291733"><ele>288.00000000000006</ele><time>2026-04-11T09:16:23.443Z</time></trkpt><trkpt lat="44.8281117" lon="7.8292183"><ele>288.0</ele><time>2026-04-11T09:16:24.443Z</time></trkpt><trkpt lat="44.828175" lon="7.8292633"><ele>288.0</ele><time>2026-04-11T09:16:25.443Z</time></trkpt><trkpt lat="44.8282367" lon="7.8293117"><ele>288.0</ele><time>2026-04-11T09:16:26.443Z</time></trkpt><trkpt lat="44.8282983" lon="7.829365"><ele>288.0</ele><time>2026-04-11T09:16:27.443Z</time></trkpt><trkpt lat="44.82836" lon="7.8294183"><ele>288.00000000000006</ele><time>2026-04-11T09:16:28.443Z</time></trkpt><trkpt lat="44.8284267" lon="7.8294683"><ele>288.0</ele><time>2026-04-11T09:16:29.443Z</time></trkpt><trkpt lat="44.8284933" lon="7.82952"><ele>287.5714285714286</ele><time>2026-04-11T09:16:30.443Z</time></trkpt><trkpt lat="44.8285633" lon="7.829575"><ele>287.14285714285717</ele><time>2026-04-11T09:16:31.443Z</time></trkpt><trkpt lat="44.8286283" lon="7.8296267"><ele>286.7142857142857</ele><time>2026-04-11T09:16:32.443Z</time></trkpt><trkpt lat="44.8286883" lon="7.8296783"><ele>286.28571428571433</ele><time>2026-04-11T09:16:33.443Z</time></trkpt><trkpt lat="44.828745" lon="7.829725"><ele>285.8571428571429</ele><time>2026-04-11T09:16:34.443Z</time></trkpt><trkpt lat="44.8288067" lon="7.8297733"><ele>285.42857142857144</ele><time>2026-04-11T09:16:35.443Z</time></trkpt><trkpt lat="44.8288633" lon="7.8298333"><ele>285.0</ele><time>2026-04-11T09:16:36.443Z</time></trkpt><trkpt lat="44.8289183" lon="7.8298933"><ele>285.0</ele><time>2026-04-11T09:16:37.443Z</time></trkpt><trkpt lat="44.8290183" lon="7.8300133"><ele>285.0</ele><time>2026-04-11T09:16:39.443Z</time></trkpt><trkpt lat="44.8290633" lon="7.8300833"><ele>285.0</ele><time>2026-04-11T09:16:40.444Z</time></trkpt><trkpt lat="44.8291417" lon="7.830175"><ele>285.0</ele><time>2026-04-11T09:16:42.443Z</time></trkpt><trkpt lat="44.8292233" lon="7.8301733"><ele>285.0</ele><time>2026-04-11T09:16:44.443Z</time></trkpt><trkpt lat="44.829285" lon="7.8300883"><ele>284.2</ele><time>2026-04-11T09:16:46.443Z</time></trkpt><trkpt lat="44.8293283" lon="7.8299817"><ele>283.4</ele><time>2026-04-11T09:16:48.443Z</time></trkpt><trkpt lat="44.82937" lon="7.8298667"><ele>282.6</ele><time>2026-04-11T09:16:50.443Z</time></trkpt><trkpt lat="44.8294417" lon="7.8297317"><ele>281.8</ele><time>2026-04-11T09:16:52.443Z</time></trkpt><trkpt lat="44.8295117" lon="7.829585"><ele>281.0</ele><time>2026-04-11T09:16:54.443Z</time></trkpt><trkpt lat="44.8295517" lon="7.8295117"><ele>281.0</ele><time>2026-04-11T09:16:55.443Z</time></trkpt><trkpt lat="44.8295883" lon="7.8294367"><ele>281.0</ele><time>2026-04-11T09:16:56.443Z</time></trkpt><trkpt lat="44.8296633" lon="7.829295"><ele>281.0</ele><time>2026-04-11T09:16:58.443Z</time></trkpt><trkpt lat="44.8297383" lon="7.82916"><ele>281.0</ele><time>2026-04-11T09:17:00.443Z</time></trkpt><trkpt lat="44.8298167" lon="7.8290267"><ele>281.0</ele><time>2026-04-11T09:17:02.443Z</time></trkpt><trkpt lat="44.8298883" lon="7.8288917"><ele>281.6</ele><time>2026-04-11T09:17:04.443Z</time></trkpt><trkpt lat="44.8299617" lon="7.82876"><ele>282.20000000000005</ele><time>2026-04-11T09:17:06.443Z</time></trkpt><trkpt lat="44.8300033" lon="7.8286867"><ele>282.79999999999995</ele><time>2026-04-11T09:17:07.444Z</time></trkpt><trkpt lat="44.830075" lon="7.82854"><ele>283.4</ele><time>2026-04-11T09:17:09.443Z</time></trkpt><trkpt lat="44.8301417" lon="7.8284"><ele>284.0</ele><time>2026-04-11T09:17:11.443Z</time></trkpt><trkpt lat="44.8302017" lon="7.8282717"><ele>284.0</ele><time>2026-04-11T09:17:13.443Z</time></trkpt><trkpt lat="44.8302583" lon="7.8281467"><ele>284.0</ele><time>2026-04-11T09:17:15.443Z</time></trkpt><trkpt lat="44.8303067" lon="7.82803"><ele>284.0</ele><time>2026-04-11T09:17:17.443Z</time></trkpt><trkpt lat="44.83036" lon="7.8278983"><ele>284.0</ele><time>2026-04-11T09:17:19.443Z</time></trkpt><trkpt lat="44.8303933" lon="7.8278217"><ele>284.0</ele><time>2026-04-11T09:17:20.443Z</time></trkpt><trkpt lat="44.8304617" lon="7.8276767"><ele>283.0</ele><time>2026-04-11T09:17:22.443Z</time></trkpt><trkpt lat="44.830535" lon="7.8275367"><ele>282.0</ele><time>2026-04-11T09:17:24.443Z</time></trkpt><trkpt lat="44.8306083" lon="7.8274317"><ele>281.0</ele><time>2026-04-11T09:17:26.443Z</time></trkpt><trkpt lat="44.8307067" lon="7.8273817"><ele>280.0</ele><time>2026-04-11T09:17:28.443Z</time></trkpt><trkpt lat="44.8308317" lon="7.8273983"><ele>280.0</ele><time>2026-04-11T09:17:30.443Z</time></trkpt><trkpt lat="44.8309467" lon="7.82737"><ele>280.0</ele><time>2026-04-11T09:17:32.443Z</time></trkpt><trkpt lat="44.8310167" lon="7.8272583"><ele>280.0</ele><time>2026-04-11T09:17:34.443Z</time></trkpt><trkpt lat="44.831065" lon="7.8271"><ele>280.0</ele><time>2026-04-11T09:17:36.443Z</time></trkpt><trkpt lat="44.8310967" lon="7.82694"><ele>279.85714285714283</ele><time>2026-04-11T09:17:38.443Z</time></trkpt><trkpt lat="44.831115" lon="7.8268533"><ele>279.7142857142857</ele><time>2026-04-11T09:17:39.443Z</time></trkpt><trkpt lat="44.8311333" lon="7.8267683"><ele>279.57142857142856</ele><time>2026-04-11T09:17:40.444Z</time></trkpt><trkpt lat="44.8311467" lon="7.82668"><ele>279.42857142857144</ele><time>2026-04-11T09:17:41.443Z</time></trkpt><trkpt lat="44.8311533" lon="7.826505"><ele>279.2857142857143</ele><time>2026-04-11T09:17:43.443Z</time></trkpt><trkpt lat="44.831155" lon="7.8264133"><ele>279.1428571428571</ele><time>2026-04-11T09:17:44.443Z</time></trkpt><trkpt lat="44.8311517" lon="7.8263167"><ele>279.0</ele><time>2026-04-11T09:17:45.443Z</time></trkpt><trkpt lat="44.8311483" lon="7.82621"><ele>279.2857142857143</ele><time>2026-04-11T09:17:46.443Z</time></trkpt><trkpt lat="44.8311467" lon="7.8261133"><ele>279.57142857142856</ele><time>2026-04-11T09:17:47.443Z</time></trkpt><trkpt lat="44.8311483" lon="7.8260067"><ele>279.8571428571429</ele><time>2026-04-11T09:17:48.443Z</time></trkpt><trkpt lat="44.8311467" lon="7.8259017"><ele>280.1428571428571</ele><time>2026-04-11T09:17:49.443Z</time></trkpt><trkpt lat="44.8311417" lon="7.8257983"><ele>280.42857142857144</ele><time>2026-04-11T09:17:50.443Z</time></trkpt><trkpt lat="44.83114" lon="7.8256967"><ele>280.7142857142857</ele><time>2026-04-11T09:17:51.443Z</time></trkpt><trkpt lat="44.8311383" lon="7.8255933"><ele>281.0</ele><time>2026-04-11T09:17:52.443Z</time></trkpt><trkpt lat="44.8311383" lon="7.825495"><ele>281.28571428571433</ele><time>2026-04-11T09:17:53.443Z</time></trkpt><trkpt lat="44.8311383" lon="7.8253967"><ele>281.57142857142856</ele><time>2026-04-11T09:17:54.443Z</time></trkpt><trkpt lat="44.8311483" lon="7.8253017"><ele>281.8571428571429</ele><time>2026-04-11T09:17:55.443Z</time></trkpt><trkpt lat="44.831165" lon="7.8252"><ele>282.14285714285717</ele><time>2026-04-11T09:17:56.443Z</time></trkpt><trkpt lat="44.8311867" lon="7.825105"><ele>282.42857142857144</ele><time>2026-04-11T09:17:57.443Z</time></trkpt><trkpt lat="44.8312133" lon="7.8250133"><ele>282.7142857142857</ele><time>2026-04-11T09:17:58.443Z</time></trkpt><trkpt lat="44.8312483" lon="7.8249283"><ele>283.0</ele><time>2026-04-11T09:17:59.443Z</time></trkpt><trkpt lat="44.8312817" lon="7.8248483"><ele>283.0</ele><time>2026-04-11T09:18:00.443Z</time></trkpt><trkpt lat="44.83133" lon="7.8247033"><ele>283.0</ele><time>2026-04-11T09:18:02.443Z</time></trkpt><trkpt lat="44.831375" lon="7.8245567"><ele>283.0</ele><time>2026-04-11T09:18:04.443Z</time></trkpt><trkpt lat="44.8314267" lon="7.8244033"><ele>283.0</ele><time>2026-04-11T09:18:06.443Z</time></trkpt><trkpt lat="44.8314533" lon="7.82432"><ele>283.0</ele><time>2026-04-11T09:18:07.443Z</time></trkpt><trkpt lat="44.8314833" lon="7.82424"><ele>283.0</ele><time>2026-04-11T09:18:08.443Z</time></trkpt><trkpt lat="44.8315133" lon="7.82416"><ele>283.0</ele><time>2026-04-11T09:18:09.443Z</time></trkpt><trkpt lat="44.831575" lon="7.824"><ele>283.0</ele><time>2026-04-11T09:18:11.443Z</time></trkpt><trkpt lat="44.8316033" lon="7.8239167"><ele>283.0</ele><time>2026-04-11T09:18:12.443Z</time></trkpt><trkpt lat="44.8316517" lon="7.8237533"><ele>283.0</ele><time>2026-04-11T09:18:14.443Z</time></trkpt><trkpt lat="44.8316817" lon="7.8235933"><ele>283.0</ele><time>2026-04-11T09:18:16.443Z</time></trkpt><trkpt lat="44.8316883" lon="7.823505"><ele>283.0</ele><time>2026-04-11T09:18:17.443Z</time></trkpt><trkpt lat="44.8316867" lon="7.823415"><ele>283.0</ele><time>2026-04-11T09:18:18.443Z</time></trkpt><trkpt lat="44.83167" lon="7.8233233"><ele>283.0</ele><time>2026-04-11T09:18:19.443Z</time></trkpt><trkpt lat="44.8316467" lon="7.82324"><ele>283.0</ele><time>2026-04-11T09:18:20.443Z</time></trkpt><trkpt lat="44.8316167" lon="7.8231483"><ele>283.0</ele><time>2026-04-11T09:18:21.443Z</time></trkpt><trkpt lat="44.8315817" lon="7.8229767"><ele>283.0</ele><time>2026-04-11T09:18:23.443Z</time></trkpt><trkpt lat="44.8315833" lon="7.8228867"><ele>283.0</ele><time>2026-04-11T09:18:24.443Z</time></trkpt><trkpt lat="44.8316" lon="7.8227967"><ele>283.0</ele><time>2026-04-11T09:18:25.443Z</time></trkpt><trkpt lat="44.83163" lon="7.8227183"><ele>283.0</ele><time>2026-04-11T09:18:26.443Z</time></trkpt><trkpt lat="44.8316633" lon="7.8226383"><ele>283.0</ele><time>2026-04-11T09:18:27.443Z</time></trkpt><trkpt lat="44.831695" lon="7.82256"><ele>283.0</ele><time>2026-04-11T09:18:28.443Z</time></trkpt><trkpt lat="44.8317317" lon="7.8224783"><ele>283.0</ele><time>2026-04-11T09:18:29.443Z</time></trkpt><trkpt lat="44.83177" lon="7.8223917"><ele>282.7142857142857</ele><time>2026-04-11T09:18:30.443Z</time></trkpt><trkpt lat="44.83181" lon="7.8223067"><ele>282.42857142857144</ele><time>2026-04-11T09:18:31.443Z</time></trkpt><trkpt lat="44.83185" lon="7.8222217"><ele>282.14285714285717</ele><time>2026-04-11T09:18:32.443Z</time></trkpt><trkpt lat="44.83189" lon="7.8221383"><ele>281.8571428571429</ele><time>2026-04-11T09:18:33.443Z</time></trkpt><trkpt lat="44.8319267" lon="7.8220533"><ele>281.57142857142856</ele><time>2026-04-11T09:18:34.443Z</time></trkpt><trkpt lat="44.8319583" lon="7.8219633"><ele>281.28571428571433</ele><time>2026-04-11T09:18:35.443Z</time></trkpt><trkpt lat="44.8319917" lon="7.8218817"><ele>281.0</ele><time>2026-04-11T09:18:36.444Z</time></trkpt><trkpt lat="44.83202" lon="7.8217967"><ele>281.00000000000006</ele><time>2026-04-11T09:18:37.443Z</time></trkpt><trkpt lat="44.8320533" lon="7.8217117"><ele>281.0</ele><time>2026-04-11T09:18:38.443Z</time></trkpt><trkpt lat="44.83209" lon="7.82163"><ele>281.0</ele><time>2026-04-11T09:18:39.443Z</time></trkpt><trkpt lat="44.8321267" lon="7.8215517"><ele>281.0</ele><time>2026-04-11T09:18:40.443Z</time></trkpt><trkpt lat="44.8321617" lon="7.8214683"><ele>281.0</ele><time>2026-04-11T09:18:41.443Z</time></trkpt><trkpt lat="44.8321933" lon="7.8213867"><ele>281.00000000000006</ele><time>2026-04-11T09:18:42.443Z</time></trkpt><trkpt lat="44.8322283" lon="7.8213017"><ele>281.0</ele><time>2026-04-11T09:18:43.443Z</time></trkpt><trkpt lat="44.832265" lon="7.82122"><ele>281.0</ele><time>2026-04-11T09:18:44.443Z</time></trkpt><trkpt lat="44.83233" lon="7.8210717"><ele>281.0</ele><time>2026-04-11T09:18:46.443Z</time></trkpt><trkpt lat="44.8323967" lon="7.8209283"><ele>281.0</ele><time>2026-04-11T09:18:48.443Z</time></trkpt><trkpt lat="44.8324267" lon="7.8208483"><ele>281.0</ele><time>2026-04-11T09:18:49.443Z</time></trkpt><trkpt lat="44.8324583" lon="7.8207667"><ele>281.0</ele><time>2026-04-11T09:18:50.443Z</time></trkpt><trkpt lat="44.8324917" lon="7.8206833"><ele>281.0</ele><time>2026-04-11T09:18:51.443Z</time></trkpt><trkpt lat="44.83253" lon="7.8205983"><ele>280.6666666666667</ele><time>2026-04-11T09:18:52.443Z</time></trkpt><trkpt lat="44.8325717" lon="7.82051"><ele>280.33333333333337</ele><time>2026-04-11T09:18:53.443Z</time></trkpt><trkpt lat="44.8326117" lon="7.8204317"><ele>280.0</ele><time>2026-04-11T09:18:54.443Z</time></trkpt><trkpt lat="44.832655" lon="7.8203617"><ele>279.6666666666667</ele><time>2026-04-11T09:18:55.443Z</time></trkpt><trkpt lat="44.83274" lon="7.820245"><ele>279.3333333333333</ele><time>2026-04-11T09:18:57.443Z</time></trkpt><trkpt lat="44.8328217" lon="7.8201367"><ele>279.0</ele><time>2026-04-11T09:18:59.443Z</time></trkpt><trkpt lat="44.832905" lon="7.8200333"><ele>279.0</ele><time>2026-04-11T09:19:01.443Z</time></trkpt><trkpt lat="44.832985" lon="7.8199117"><ele>279.0</ele><time>2026-04-11T09:19:03.443Z</time></trkpt><trkpt lat="44.8330717" lon="7.819785"><ele>279.0</ele><time>2026-04-11T09:19:05.443Z</time></trkpt><trkpt lat="44.8331233" lon="7.819715"><ele>279.0</ele><time>2026-04-11T09:19:06.443Z</time></trkpt><trkpt lat="44.8331683" lon="7.819645"><ele>279.0</ele><time>2026-04-11T09:19:07.443Z</time></trkpt><trkpt lat="44.833215" lon="7.8195683"><ele>279.0</ele><time>2026-04-11T09:19:08.443Z</time></trkpt><trkpt lat="44.8332633" lon="7.8194967"><ele>279.0</ele><time>2026-04-11T09:19:09.443Z</time></trkpt><trkpt lat="44.8333067" lon="7.8194283"><ele>279.0</ele><time>2026-04-11T09:19:10.443Z</time></trkpt><trkpt lat="44.8333533" lon="7.8193567"><ele>279.0</ele><time>2026-04-11T09:19:11.443Z</time></trkpt><trkpt lat="44.8334317" lon="7.8192417"><ele>279.0</ele><time>2026-04-11T09:19:13.443Z</time></trkpt><trkpt lat="44.8334717" lon="7.8191717"><ele>279.0</ele><time>2026-04-11T09:19:14.443Z</time></trkpt><trkpt lat="44.8335467" lon="7.81907"><ele>279.0</ele><time>2026-04-11T09:19:16.443Z</time></trkpt><trkpt lat="44.8336117" lon="7.8190517"><ele>279.0</ele><time>2026-04-11T09:19:18.443Z</time></trkpt><trkpt lat="44.833665" lon="7.8191283"><ele>279.0</ele><time>2026-04-11T09:19:21.443Z</time></trkpt><trkpt lat="44.833705" lon="7.8192017"><ele>279.0</ele><time>2026-04-11T09:19:23.443Z</time></trkpt><trkpt lat="44.8337467" lon="7.8192733"><ele>279.0</ele><time>2026-04-11T09:19:26.443Z</time></trkpt><trkpt lat="44.83381" lon="7.8193567"><ele>279.0</ele><time>2026-04-11T09:19:30.443Z</time></trkpt><trkpt lat="44.83388" lon="7.8194417"><ele>278.8333333333333</ele><time>2026-04-11T09:19:33.443Z</time></trkpt><trkpt lat="44.8339367" lon="7.8195167"><ele>278.6666666666667</ele><time>2026-04-11T09:19:35.443Z</time></trkpt><trkpt lat="44.8340033" lon="7.8196"><ele>278.5</ele><time>2026-04-11T09:19:38.443Z</time></trkpt><trkpt lat="44.83408" lon="7.8196833"><ele>278.33333333333337</ele><time>2026-04-11T09:19:41.443Z</time></trkpt><trkpt lat="44.8341417" lon="7.8197367"><ele>278.1666666666667</ele><time>2026-04-11T09:19:43.443Z</time></trkpt><trkpt lat="44.8342067" lon="7.8198067"><ele>278.0</ele><time>2026-04-11T09:19:45.443Z</time></trkpt><trkpt lat="44.8342717" lon="7.8198867"><ele>277.6666666666667</ele><time>2026-04-11T09:19:47.443Z</time></trkpt><trkpt lat="44.8343417" lon="7.81995"><ele>277.33333333333337</ele><time>2026-04-11T09:19:49.443Z</time></trkpt><trkpt lat="44.8344133" lon="7.8200233"><ele>277.0</ele><time>2026-04-11T09:19:51.443Z</time></trkpt><trkpt lat="44.83448" lon="7.8200983"><ele>276.6666666666667</ele><time>2026-04-11T09:19:53.443Z</time></trkpt><trkpt lat="44.834555" lon="7.8201683"><ele>276.3333333333333</ele><time>2026-04-11T09:19:55.443Z</time></trkpt><trkpt lat="44.8346283" lon="7.8202283"><ele>276.0</ele><time>2026-04-11T09:19:57.443Z</time></trkpt><trkpt lat="44.8346983" lon="7.8202883"><ele>275.8333333333333</ele><time>2026-04-11T09:19:59.443Z</time></trkpt><trkpt lat="44.834755" lon="7.8203533"><ele>275.6666666666667</ele><time>2026-04-11T09:20:01.443Z</time></trkpt><trkpt lat="44.8348133" lon="7.8204183"><ele>275.5</ele><time>2026-04-11T09:20:03.443Z</time></trkpt><trkpt lat="44.8348783" lon="7.8204783"><ele>275.33333333333337</ele><time>2026-04-11T09:20:05.443Z</time></trkpt><trkpt lat="44.8349333" lon="7.8205367"><ele>275.1666666666667</ele><time>2026-04-11T09:20:07.443Z</time></trkpt><trkpt lat="44.8349967" lon="7.8206"><ele>275.0</ele><time>2026-04-11T09:20:09.443Z</time></trkpt><trkpt lat="44.835075" lon="7.820665"><ele>274.8</ele><time>2026-04-11T09:20:11.443Z</time></trkpt><trkpt lat="44.8351583" lon="7.8207467"><ele>274.6</ele><time>2026-04-11T09:20:13.444Z</time></trkpt><trkpt lat="44.835235" lon="7.8208217"><ele>274.4</ele><time>2026-04-11T09:20:15.443Z</time></trkpt><trkpt lat="44.8353167" lon="7.8209017"><ele>274.2</ele><time>2026-04-11T09:20:17.444Z</time></trkpt><trkpt lat="44.8353967" lon="7.8209833"><ele>274.0</ele><time>2026-04-11T09:20:19.443Z</time></trkpt><trkpt lat="44.835485" lon="7.8210583"><ele>274.3333333333333</ele><time>2026-04-11T09:20:21.443Z</time></trkpt><trkpt lat="44.83557" lon="7.821145"><ele>274.66666666666663</ele><time>2026-04-11T09:20:23.443Z</time></trkpt><trkpt lat="44.8356467" lon="7.821225"><ele>275.0</ele><time>2026-04-11T09:20:25.443Z</time></trkpt><trkpt lat="44.8357133" lon="7.8213"><ele>275.3333333333333</ele><time>2026-04-11T09:20:27.443Z</time></trkpt><trkpt lat="44.83577" lon="7.82138"><ele>275.6666666666667</ele><time>2026-04-11T09:20:29.443Z</time></trkpt><trkpt lat="44.8358333" lon="7.8214417"><ele>276.0</ele><time>2026-04-11T09:20:31.443Z</time></trkpt><trkpt lat="44.8358967" lon="7.8215067"><ele>276.0</ele><time>2026-04-11T09:20:33.443Z</time></trkpt><trkpt lat="44.83595" lon="7.8215583"><ele>276.0</ele><time>2026-04-11T09:20:35.443Z</time></trkpt><trkpt lat="44.8360033" lon="7.8216133"><ele>276.0</ele><time>2026-04-11T09:20:37.443Z</time></trkpt><trkpt lat="44.836075" lon="7.8216817"><ele>276.0</ele><time>2026-04-11T09:20:40.443Z</time></trkpt><trkpt lat="44.836155" lon="7.8217417"><ele>276.0</ele><time>2026-04-11T09:20:43.443Z</time></trkpt><trkpt lat="44.836215" lon="7.821785"><ele>276.0</ele><time>2026-04-11T09:20:45.443Z</time></trkpt><trkpt lat="44.8362983" lon="7.8218167"><ele>276.1666666666667</ele><time>2026-04-11T09:20:48.443Z</time></trkpt><trkpt lat="44.8363633" lon="7.8217967"><ele>276.3333333333333</ele><time>2026-04-11T09:20:51.443Z</time></trkpt><trkpt lat="44.8364233" lon="7.8217183"><ele>276.5</ele><time>2026-04-11T09:20:55.443Z</time></trkpt><trkpt lat="44.8364683" lon="7.82165"><ele>276.66666666666663</ele><time>2026-04-11T09:20:58.444Z</time></trkpt><trkpt lat="44.8365383" lon="7.82155"><ele>276.8333333333333</ele><time>2026-04-11T09:21:01.443Z</time></trkpt><trkpt lat="44.8365883" lon="7.8214733"><ele>277.0</ele><time>2026-04-11T09:21:03.443Z</time></trkpt><trkpt lat="44.836645" lon="7.8213933"><ele>277.0</ele><time>2026-04-11T09:21:05.443Z</time></trkpt><trkpt lat="44.836715" lon="7.8212983"><ele>277.0</ele><time>2026-04-11T09:21:07.443Z</time></trkpt><trkpt lat="44.836795" lon="7.8211817"><ele>277.0</ele><time>2026-04-11T09:21:09.443Z</time></trkpt><trkpt lat="44.836865" lon="7.8210767"><ele>277.0</ele><time>2026-04-11T09:21:11.443Z</time></trkpt><trkpt lat="44.836945" lon="7.82096"><ele>277.0</ele><time>2026-04-11T09:21:13.443Z</time></trkpt><trkpt lat="44.83703" lon="7.8208433"><ele>276.8</ele><time>2026-04-11T09:21:15.443Z</time></trkpt><trkpt lat="44.8370733" lon="7.8207783"><ele>276.6</ele><time>2026-04-11T09:21:16.443Z</time></trkpt><trkpt lat="44.8371583" lon="7.8206533"><ele>276.40000000000003</ele><time>2026-04-11T09:21:18.443Z</time></trkpt><trkpt lat="44.83725" lon="7.82053"><ele>276.2</ele><time>2026-04-11T09:21:20.443Z</time></trkpt><trkpt lat="44.837335" lon="7.8204017"><ele>276.0</ele><time>2026-04-11T09:21:22.443Z</time></trkpt><trkpt lat="44.8373783" lon="7.8203333"><ele>276.0</ele><time>2026-04-11T09:21:23.443Z</time></trkpt><trkpt lat="44.8374217" lon="7.8202683"><ele>276.0</ele><time>2026-04-11T09:21:24.443Z</time></trkpt><trkpt lat="44.8374683" lon="7.820205"><ele>276.0</ele><time>2026-04-11T09:21:25.443Z</time></trkpt><trkpt lat="44.8375533" lon="7.820075"><ele>276.0</ele><time>2026-04-11T09:21:27.443Z</time></trkpt><trkpt lat="44.8376483" lon="7.8199433"><ele>276.0</ele><time>2026-04-11T09:21:29.443Z</time></trkpt><trkpt lat="44.8376917" lon="7.8198783"><ele>276.0</ele><time>2026-04-11T09:21:30.443Z</time></trkpt><trkpt lat="44.8377417" lon="7.81981"><ele>276.0</ele><time>2026-04-11T09:21:31.444Z</time></trkpt><trkpt lat="44.8377917" lon="7.8197383"><ele>276.0</ele><time>2026-04-11T09:21:32.443Z</time></trkpt><trkpt lat="44.8378367" lon="7.8196733"><ele>276.0</ele><time>2026-04-11T09:21:33.443Z</time></trkpt><trkpt lat="44.837925" lon="7.81955"><ele>276.0</ele><time>2026-04-11T09:21:35.443Z</time></trkpt><trkpt lat="44.8379733" lon="7.8194783"><ele>276.0</ele><time>2026-04-11T09:21:36.443Z</time></trkpt><trkpt lat="44.8380233" lon="7.819415"><ele>276.0</ele><time>2026-04-11T09:21:37.443Z</time></trkpt><trkpt lat="44.8380683" lon="7.8193517"><ele>276.0</ele><time>2026-04-11T09:21:38.443Z</time></trkpt><trkpt lat="44.8381117" lon="7.8192867"><ele>276.0</ele><time>2026-04-11T09:21:39.443Z</time></trkpt><trkpt lat="44.8381983" lon="7.8191717"><ele>276.0</ele><time>2026-04-11T09:21:41.443Z</time></trkpt><trkpt lat="44.8382867" lon="7.819045"><ele>276.0</ele><time>2026-04-11T09:21:43.444Z</time></trkpt><trkpt lat="44.8383683" lon="7.8189267"><ele>275.8333333333333</ele><time>2026-04-11T09:21:45.443Z</time></trkpt><trkpt lat="44.8384167" lon="7.8188683"><ele>275.6666666666667</ele><time>2026-04-11T09:21:46.443Z</time></trkpt><trkpt lat="44.8385067" lon="7.8187517"><ele>275.5</ele><time>2026-04-11T09:21:48.443Z</time></trkpt><trkpt lat="44.838595" lon="7.8186267"><ele>275.33333333333337</ele><time>2026-04-11T09:21:50.443Z</time></trkpt><trkpt lat="44.83864" lon="7.8185533"><ele>275.1666666666667</ele><time>2026-04-11T09:21:51.443Z</time></trkpt><trkpt lat="44.83869" lon="7.818485"><ele>275.0</ele><time>2026-04-11T09:21:52.443Z</time></trkpt><trkpt lat="44.8387317" lon="7.81841"><ele>274.7142857142857</ele><time>2026-04-11T09:21:53.443Z</time></trkpt><trkpt lat="44.8387767" lon="7.8183383"><ele>274.42857142857144</ele><time>2026-04-11T09:21:54.443Z</time></trkpt><trkpt lat="44.83882" lon="7.8182667"><ele>274.1428571428571</ele><time>2026-04-11T09:21:55.443Z</time></trkpt><trkpt lat="44.8388683" lon="7.8182017"><ele>273.8571428571429</ele><time>2026-04-11T09:21:56.443Z</time></trkpt><trkpt lat="44.8389183" lon="7.8181317"><ele>273.57142857142856</ele><time>2026-04-11T09:21:57.443Z</time></trkpt><trkpt lat="44.8389683" lon="7.8180583"><ele>273.2857142857143</ele><time>2026-04-11T09:21:58.443Z</time></trkpt><trkpt lat="44.8390233" lon="7.81798"><ele>273.0</ele><time>2026-04-11T09:21:59.443Z</time></trkpt><trkpt lat="44.8390667" lon="7.8179133"><ele>273.0</ele><time>2026-04-11T09:22:00.443Z</time></trkpt><trkpt lat="44.83911" lon="7.8178367"><ele>273.0</ele><time>2026-04-11T09:22:01.443Z</time></trkpt><trkpt lat="44.8391483" lon="7.8177633"><ele>273.0</ele><time>2026-04-11T09:22:02.443Z</time></trkpt><trkpt lat="44.8391983" lon="7.81769"><ele>273.0</ele><time>2026-04-11T09:22:03.443Z</time></trkpt><trkpt lat="44.83925" lon="7.81762"><ele>273.0</ele><time>2026-04-11T09:22:04.443Z</time></trkpt><trkpt lat="44.839295" lon="7.8175467"><ele>273.0</ele><time>2026-04-11T09:22:05.443Z</time></trkpt><trkpt lat="44.83935" lon="7.8174683"><ele>273.0</ele><time>2026-04-11T09:22:06.443Z</time></trkpt><trkpt lat="44.8393917" lon="7.8174017"><ele>273.1666666666667</ele><time>2026-04-11T09:22:07.443Z</time></trkpt><trkpt lat="44.8394433" lon="7.8173267"><ele>273.3333333333333</ele><time>2026-04-11T09:22:08.443Z</time></trkpt><trkpt lat="44.8395017" lon="7.8172517"><ele>273.5</ele><time>2026-04-11T09:22:09.443Z</time></trkpt><trkpt lat="44.83956" lon="7.817185"><ele>273.66666666666663</ele><time>2026-04-11T09:22:10.443Z</time></trkpt><trkpt lat="44.8396183" lon="7.817115"><ele>273.8333333333333</ele><time>2026-04-11T09:22:11.443Z</time></trkpt><trkpt lat="44.8396767" lon="7.81704"><ele>274.0</ele><time>2026-04-11T09:22:12.443Z</time></trkpt><trkpt lat="44.83973" lon="7.81696"><ele>274.0</ele><time>2026-04-11T09:22:13.444Z</time></trkpt><trkpt lat="44.8397817" lon="7.8168883"><ele>274.0</ele><time>2026-04-11T09:22:14.443Z</time></trkpt><trkpt lat="44.8398783" lon="7.81677"><ele>274.0</ele><time>2026-04-11T09:22:16.443Z</time></trkpt><trkpt lat="44.83994" lon="7.816725"><ele>274.0</ele><time>2026-04-11T09:22:17.443Z</time></trkpt><trkpt lat="44.8400667" lon="7.8167117"><ele>274.0</ele><time>2026-04-11T09:22:19.443Z</time></trkpt><trkpt lat="44.8401783" lon="7.8167883"><ele>273.42857142857144</ele><time>2026-04-11T09:22:21.443Z</time></trkpt><trkpt lat="44.840235" lon="7.8168583"><ele>272.8571428571429</ele><time>2026-04-11T09:22:22.443Z</time></trkpt><trkpt lat="44.8402817" lon="7.8169267"><ele>272.2857142857143</ele><time>2026-04-11T09:22:23.443Z</time></trkpt><trkpt lat="44.840335" lon="7.816985"><ele>271.7142857142857</ele><time>2026-04-11T09:22:24.443Z</time></trkpt><trkpt lat="44.8403883" lon="7.8170367"><ele>271.1428571428571</ele><time>2026-04-11T09:22:25.443Z</time></trkpt><trkpt lat="44.84044" lon="7.8170967"><ele>270.57142857142856</ele><time>2026-04-11T09:22:26.444Z</time></trkpt><trkpt lat="44.8404933" lon="7.8171483"><ele>270.0</ele><time>2026-04-11T09:22:27.443Z</time></trkpt><trkpt lat="44.8406033" lon="7.8172367"><ele>270.0</ele><time>2026-04-11T09:22:29.443Z</time></trkpt><trkpt lat="44.8407133" lon="7.8173233"><ele>270.0</ele><time>2026-04-11T09:22:31.443Z</time></trkpt><trkpt lat="44.84077" lon="7.8173717"><ele>270.0</ele><time>2026-04-11T09:22:32.443Z</time></trkpt><trkpt lat="44.8408317" lon="7.81742"><ele>270.0</ele><time>2026-04-11T09:22:33.443Z</time></trkpt><trkpt lat="44.84089" lon="7.8174683"><ele>270.0</ele><time>2026-04-11T09:22:34.443Z</time></trkpt><trkpt lat="44.8409467" lon="7.81751"><ele>270.0</ele><time>2026-04-11T09:22:35.443Z</time></trkpt><trkpt lat="44.8410033" lon="7.81755"><ele>270.0</ele><time>2026-04-11T09:22:36.444Z</time></trkpt><trkpt lat="44.841105" lon="7.817625"><ele>270.0</ele><time>2026-04-11T09:22:38.443Z</time></trkpt><trkpt lat="44.8412183" lon="7.8177"><ele>270.0</ele><time>2026-04-11T09:22:40.443Z</time></trkpt><trkpt lat="44.8412783" lon="7.8177367"><ele>270.0</ele><time>2026-04-11T09:22:41.443Z</time></trkpt><trkpt lat="44.84134" lon="7.8177717"><ele>270.0</ele><time>2026-04-11T09:22:42.443Z</time></trkpt><trkpt lat="44.841405" lon="7.8178017"><ele>270.0</ele><time>2026-04-11T09:22:43.443Z</time></trkpt><trkpt lat="44.841475" lon="7.81782"><ele>270.0</ele><time>2026-04-11T09:22:44.443Z</time></trkpt><trkpt lat="44.8415433" lon="7.8178333"><ele>270.0</ele><time>2026-04-11T09:22:45.443Z</time></trkpt><trkpt lat="44.84161" lon="7.8178433"><ele>270.0</ele><time>2026-04-11T09:22:46.443Z</time></trkpt><trkpt lat="44.8416783" lon="7.8178517"><ele>270.0</ele><time>2026-04-11T09:22:47.443Z</time></trkpt><trkpt lat="44.841745" lon="7.8178483"><ele>270.0</ele><time>2026-04-11T09:22:48.443Z</time></trkpt><trkpt lat="44.8418183" lon="7.81784"><ele>270.0</ele><time>2026-04-11T09:22:49.443Z</time></trkpt><trkpt lat="44.84189" lon="7.8178283"><ele>270.0</ele><time>2026-04-11T09:22:50.443Z</time></trkpt><trkpt lat="44.8419617" lon="7.817825"><ele>269.57142857142856</ele><time>2026-04-11T09:22:51.443Z</time></trkpt><trkpt lat="44.842035" lon="7.8178217"><ele>269.1428571428571</ele><time>2026-04-11T09:22:52.443Z</time></trkpt><trkpt lat="44.8421067" lon="7.8178283"><ele>268.7142857142857</ele><time>2026-04-11T09:22:53.443Z</time></trkpt><trkpt lat="44.8421817" lon="7.8178367"><ele>268.2857142857143</ele><time>2026-04-11T09:22:54.443Z</time></trkpt><trkpt lat="44.8422517" lon="7.817865"><ele>267.8571428571429</ele><time>2026-04-11T09:22:55.443Z</time></trkpt><trkpt lat="44.8423217" lon="7.81789"><ele>267.42857142857144</ele><time>2026-04-11T09:22:56.443Z</time></trkpt><trkpt lat="44.84239" lon="7.8179117"><ele>267.0</ele><time>2026-04-11T09:22:57.444Z</time></trkpt><trkpt lat="44.84246" lon="7.81793"><ele>267.00000000000006</ele><time>2026-04-11T09:22:58.443Z</time></trkpt><trkpt lat="44.8425283" lon="7.817945"><ele>267.0</ele><time>2026-04-11T09:22:59.443Z</time></trkpt><trkpt lat="44.8426" lon="7.817955"><ele>267.0</ele><time>2026-04-11T09:23:00.443Z</time></trkpt><trkpt lat="44.8426717" lon="7.817965"><ele>267.0</ele><time>2026-04-11T09:23:01.443Z</time></trkpt><trkpt lat="44.8427433" lon="7.8179717"><ele>267.0</ele><time>2026-04-11T09:23:02.443Z</time></trkpt><trkpt lat="44.8428167" lon="7.8179767"><ele>267.00000000000006</ele><time>2026-04-11T09:23:03.443Z</time></trkpt><trkpt lat="44.84289" lon="7.8179767"><ele>267.0</ele><time>2026-04-11T09:23:04.443Z</time></trkpt><trkpt lat="44.84296" lon="7.817975"><ele>266.7142857142857</ele><time>2026-04-11T09:23:05.443Z</time></trkpt><trkpt lat="44.843035" lon="7.8179717"><ele>266.42857142857144</ele><time>2026-04-11T09:23:06.443Z</time></trkpt><trkpt lat="44.8431017" lon="7.8179717"><ele>266.1428571428571</ele><time>2026-04-11T09:23:07.443Z</time></trkpt><trkpt lat="44.8431733" lon="7.81797"><ele>265.8571428571429</ele><time>2026-04-11T09:23:08.443Z</time></trkpt><trkpt lat="44.8432433" lon="7.8179683"><ele>265.57142857142856</ele><time>2026-04-11T09:23:09.443Z</time></trkpt><trkpt lat="44.84331" lon="7.81797"><ele>265.2857142857143</ele><time>2026-04-11T09:23:10.443Z</time></trkpt><trkpt lat="44.8433817" lon="7.8179767"><ele>265.0</ele><time>2026-04-11T09:23:11.443Z</time></trkpt><trkpt lat="44.8434583" lon="7.8179917"><ele>264.85714285714283</ele><time>2026-04-11T09:23:12.443Z</time></trkpt><trkpt lat="44.84353" lon="7.8180183"><ele>264.7142857142857</ele><time>2026-04-11T09:23:13.443Z</time></trkpt><trkpt lat="44.843605" lon="7.818035"><ele>264.57142857142856</ele><time>2026-04-11T09:23:14.443Z</time></trkpt><trkpt lat="44.8436767" lon="7.818055"><ele>264.42857142857144</ele><time>2026-04-11T09:23:15.443Z</time></trkpt><trkpt lat="44.8437467" lon="7.818075"><ele>264.2857142857143</ele><time>2026-04-11T09:23:16.443Z</time></trkpt><trkpt lat="44.8438167" lon="7.8180967"><ele>264.1428571428571</ele><time>2026-04-11T09:23:17.443Z</time></trkpt><trkpt lat="44.8438883" lon="7.81812"><ele>264.0</ele><time>2026-04-11T09:23:18.443Z</time></trkpt><trkpt lat="44.8439583" lon="7.8181433"><ele>264.0</ele><time>2026-04-11T09:23:19.443Z</time></trkpt><trkpt lat="44.844025" lon="7.8181667"><ele>264.0</ele><time>2026-04-11T09:23:20.443Z</time></trkpt><trkpt lat="44.84409" lon="7.8181867"><ele>264.0</ele><time>2026-04-11T09:23:21.443Z</time></trkpt><trkpt lat="44.844215" lon="7.818205"><ele>264.0</ele><time>2026-04-11T09:23:23.443Z</time></trkpt><trkpt lat="44.8442783" lon="7.8181883"><ele>264.0</ele><time>2026-04-11T09:23:24.443Z</time></trkpt><trkpt lat="44.8443383" lon="7.8181467"><ele>264.0</ele><time>2026-04-11T09:23:25.443Z</time></trkpt><trkpt lat="44.8443983" lon="7.8180917"><ele>264.1666666666667</ele><time>2026-04-11T09:23:26.443Z</time></trkpt><trkpt lat="44.8444617" lon="7.8180283"><ele>264.3333333333333</ele><time>2026-04-11T09:23:27.443Z</time></trkpt><trkpt lat="44.844525" lon="7.81796"><ele>264.5</ele><time>2026-04-11T09:23:28.443Z</time></trkpt><trkpt lat="44.84459" lon="7.817895"><ele>264.66666666666663</ele><time>2026-04-11T09:23:29.443Z</time></trkpt><trkpt lat="44.8446583" lon="7.817835"><ele>264.8333333333333</ele><time>2026-04-11T09:23:30.443Z</time></trkpt><trkpt lat="44.8447317" lon="7.8177667"><ele>265.0</ele><time>2026-04-11T09:23:31.443Z</time></trkpt><trkpt lat="44.8448033" lon="7.817695"><ele>264.8333333333333</ele><time>2026-04-11T09:23:32.443Z</time></trkpt><trkpt lat="44.8448767" lon="7.8176217"><ele>264.66666666666663</ele><time>2026-04-11T09:23:33.443Z</time></trkpt><trkpt lat="44.8449483" lon="7.817555"><ele>264.5</ele><time>2026-04-11T09:23:34.443Z</time></trkpt><trkpt lat="44.8450217" lon="7.8174867"><ele>264.3333333333333</ele><time>2026-04-11T09:23:35.443Z</time></trkpt><trkpt lat="44.8450983" lon="7.8174133"><ele>264.1666666666667</ele><time>2026-04-11T09:23:36.443Z</time></trkpt><trkpt lat="44.8451683" lon="7.8173433"><ele>264.0</ele><time>2026-04-11T09:23:37.443Z</time></trkpt><trkpt lat="44.8452417" lon="7.8172667"><ele>264.0</ele><time>2026-04-11T09:23:38.443Z</time></trkpt><trkpt lat="44.8453167" lon="7.8171917"><ele>264.0</ele><time>2026-04-11T09:23:39.443Z</time></trkpt><trkpt lat="44.8453917" lon="7.8171183"><ele>264.0</ele><time>2026-04-11T09:23:40.443Z</time></trkpt><trkpt lat="44.845465" lon="7.8170467"><ele>264.0</ele><time>2026-04-11T09:23:41.443Z</time></trkpt><trkpt lat="44.8455383" lon="7.8169767"><ele>264.0</ele><time>2026-04-11T09:23:42.443Z</time></trkpt><trkpt lat="44.845615" lon="7.8169117"><ele>264.0</ele><time>2026-04-11T09:23:43.443Z</time></trkpt><trkpt lat="44.8456917" lon="7.8168433"><ele>264.0</ele><time>2026-04-11T09:23:44.443Z</time></trkpt><trkpt lat="44.8457633" lon="7.8167717"><ele>264.0</ele><time>2026-04-11T09:23:45.443Z</time></trkpt><trkpt lat="44.8458367" lon="7.816705"><ele>264.0</ele><time>2026-04-11T09:23:46.443Z</time></trkpt><trkpt lat="44.84591" lon="7.8166317"><ele>264.0</ele><time>2026-04-11T09:23:47.443Z</time></trkpt><trkpt lat="44.8459817" lon="7.8165583"><ele>264.0</ele><time>2026-04-11T09:23:48.443Z</time></trkpt><trkpt lat="44.8460533" lon="7.8164833"><ele>263.8</ele><time>2026-04-11T09:23:49.443Z</time></trkpt><trkpt lat="44.84613" lon="7.816405"><ele>263.59999999999997</ele><time>2026-04-11T09:23:50.443Z</time></trkpt><trkpt lat="44.8462083" lon="7.81633"><ele>263.4</ele><time>2026-04-11T09:23:51.443Z</time></trkpt><trkpt lat="44.84628" lon="7.816255"><ele>263.2</ele><time>2026-04-11T09:23:52.443Z</time></trkpt><trkpt lat="44.8463583" lon="7.8161883"><ele>263.0</ele><time>2026-04-11T09:23:53.443Z</time></trkpt><trkpt lat="44.846445" lon="7.8161333"><ele>263.0</ele><time>2026-04-11T09:23:54.443Z</time></trkpt><trkpt lat="44.84653" lon="7.8160833"><ele>263.0</ele><time>2026-04-11T09:23:55.443Z</time></trkpt><trkpt lat="44.8466133" lon="7.816045"><ele>263.0</ele><time>2026-04-11T09:23:56.443Z</time></trkpt><trkpt lat="44.8466967" lon="7.8160067"><ele>263.0</ele><time>2026-04-11T09:23:57.443Z</time></trkpt><trkpt lat="44.846785" lon="7.81596"><ele>263.0</ele><time>2026-04-11T09:23:58.443Z</time></trkpt><trkpt lat="44.8468767" lon="7.8159167"><ele>262.6</ele><time>2026-04-11T09:23:59.443Z</time></trkpt><trkpt lat="44.8469633" lon="7.8158783"><ele>262.20000000000005</ele><time>2026-04-11T09:24:00.443Z</time></trkpt><trkpt lat="44.8470483" lon="7.8158383"><ele>261.8</ele><time>2026-04-11T09:24:01.443Z</time></trkpt><trkpt lat="44.8471383" lon="7.8157967"><ele>261.40000000000003</ele><time>2026-04-11T09:24:02.443Z</time></trkpt><trkpt lat="44.8472267" lon="7.8157517"><ele>261.0</ele><time>2026-04-11T09:24:03.443Z</time></trkpt><trkpt lat="44.8473133" lon="7.8157083"><ele>261.0</ele><time>2026-04-11T09:24:04.443Z</time></trkpt><trkpt lat="44.8474" lon="7.8156633"><ele>261.0</ele><time>2026-04-11T09:24:05.443Z</time></trkpt><trkpt lat="44.8474867" lon="7.81562"><ele>261.0</ele><time>2026-04-11T09:24:06.443Z</time></trkpt><trkpt lat="44.847575" lon="7.8155817"><ele>261.0</ele><time>2026-04-11T09:24:07.443Z</time></trkpt><trkpt lat="44.84766" lon="7.8155417"><ele>261.0</ele><time>2026-04-11T09:24:08.443Z</time></trkpt><trkpt lat="44.8477467" lon="7.8154967"><ele>261.0</ele><time>2026-04-11T09:24:09.443Z</time></trkpt><trkpt lat="44.84783" lon="7.8154533"><ele>261.0</ele><time>2026-04-11T09:24:10.443Z</time></trkpt><trkpt lat="44.847915" lon="7.81541"><ele>261.0</ele><time>2026-04-11T09:24:11.443Z</time></trkpt><trkpt lat="44.8479983" lon="7.8153667"><ele>261.0</ele><time>2026-04-11T09:24:12.443Z</time></trkpt><trkpt lat="44.8480767" lon="7.815325"><ele>261.0</ele><time>2026-04-11T09:24:13.443Z</time></trkpt><trkpt lat="44.848155" lon="7.8152817"><ele>261.0</ele><time>2026-04-11T09:24:14.443Z</time></trkpt><trkpt lat="44.8482367" lon="7.815235"><ele>261.0</ele><time>2026-04-11T09:24:15.443Z</time></trkpt><trkpt lat="44.8483167" lon="7.8151933"><ele>261.0</ele><time>2026-04-11T09:24:16.443Z</time></trkpt><trkpt lat="44.8483967" lon="7.8151467"><ele>261.0</ele><time>2026-04-11T09:24:17.443Z</time></trkpt><trkpt lat="44.8484783" lon="7.8151"><ele>261.0</ele><time>2026-04-11T09:24:18.443Z</time></trkpt><trkpt lat="44.84856" lon="7.81506"><ele>261.0</ele><time>2026-04-11T09:24:19.443Z</time></trkpt><trkpt lat="44.84864" lon="7.8150267"><ele>261.0</ele><time>2026-04-11T09:24:20.443Z</time></trkpt><trkpt lat="44.84872" lon="7.8149933"><ele>260.8333333333333</ele><time>2026-04-11T09:24:21.443Z</time></trkpt><trkpt lat="44.8487967" lon="7.8149517"><ele>260.6666666666667</ele><time>2026-04-11T09:24:22.444Z</time></trkpt><trkpt lat="44.848875" lon="7.814905"><ele>260.5</ele><time>2026-04-11T09:24:23.443Z</time></trkpt><trkpt lat="44.84895" lon="7.8148567"><ele>260.33333333333337</ele><time>2026-04-11T09:24:24.443Z</time></trkpt><trkpt lat="44.84903" lon="7.8148133"><ele>260.1666666666667</ele><time>2026-04-11T09:24:25.443Z</time></trkpt><trkpt lat="44.84911" lon="7.81477"><ele>260.0</ele><time>2026-04-11T09:24:26.443Z</time></trkpt><trkpt lat="44.84919" lon="7.81472"><ele>260.0</ele><time>2026-04-11T09:24:27.443Z</time></trkpt><trkpt lat="44.8492733" lon="7.814675"><ele>260.0</ele><time>2026-04-11T09:24:28.443Z</time></trkpt><trkpt lat="44.84935" lon="7.8146267"><ele>260.0</ele><time>2026-04-11T09:24:29.443Z</time></trkpt><trkpt lat="44.8494267" lon="7.81458"><ele>260.0</ele><time>2026-04-11T09:24:30.444Z</time></trkpt><trkpt lat="44.8495067" lon="7.8145433"><ele>260.0</ele><time>2026-04-11T09:24:31.443Z</time></trkpt><trkpt lat="44.8495833" lon="7.8145017"><ele>260.0</ele><time>2026-04-11T09:24:32.443Z</time></trkpt><trkpt lat="44.8496583" lon="7.814455"><ele>260.0</ele><time>2026-04-11T09:24:33.443Z</time></trkpt><trkpt lat="44.8497367" lon="7.8144117"><ele>260.0</ele><time>2026-04-11T09:24:34.443Z</time></trkpt><trkpt lat="44.8498167" lon="7.8143683"><ele>260.0</ele><time>2026-04-11T09:24:35.443Z</time></trkpt><trkpt lat="44.8498917" lon="7.8143283"><ele>260.0</ele><time>2026-04-11T09:24:36.443Z</time></trkpt><trkpt lat="44.849965" lon="7.8142867"><ele>260.0</ele><time>2026-04-11T09:24:37.443Z</time></trkpt><trkpt lat="44.85004" lon="7.8142433"><ele>260.0</ele><time>2026-04-11T09:24:38.443Z</time></trkpt><trkpt lat="44.8501167" lon="7.8141967"><ele>260.0</ele><time>2026-04-11T09:24:39.443Z</time></trkpt><trkpt lat="44.850195" lon="7.81415"><ele>260.0</ele><time>2026-04-11T09:24:40.443Z</time></trkpt><trkpt lat="44.8502717" lon="7.81411"><ele>260.0</ele><time>2026-04-11T09:24:41.443Z</time></trkpt><trkpt lat="44.85035" lon="7.814065"><ele>260.0</ele><time>2026-04-11T09:24:42.443Z</time></trkpt><trkpt lat="44.8504267" lon="7.8140233"><ele>260.0</ele><time>2026-04-11T09:24:43.443Z</time></trkpt><trkpt lat="44.850505" lon="7.8139817"><ele>260.0</ele><time>2026-04-11T09:24:44.443Z</time></trkpt><trkpt lat="44.8505817" lon="7.8139333"><ele>260.0</ele><time>2026-04-11T09:24:45.443Z</time></trkpt><trkpt lat="44.85066" lon="7.8138917"><ele>260.0</ele><time>2026-04-11T09:24:46.443Z</time></trkpt><trkpt lat="44.8507383" lon="7.8138467"><ele>260.0</ele><time>2026-04-11T09:24:47.443Z</time></trkpt><trkpt lat="44.8508133" lon="7.8138083"><ele>260.0</ele><time>2026-04-11T09:24:48.443Z</time></trkpt><trkpt lat="44.85089" lon="7.8137633"><ele>260.0</ele><time>2026-04-11T09:24:49.443Z</time></trkpt><trkpt lat="44.8509683" lon="7.813715"><ele>260.0</ele><time>2026-04-11T09:24:50.443Z</time></trkpt><trkpt lat="44.8510483" lon="7.8136667"><ele>260.0</ele><time>2026-04-11T09:24:51.443Z</time></trkpt><trkpt lat="44.8511267" lon="7.81362"><ele>260.0</ele><time>2026-04-11T09:24:52.443Z</time></trkpt><trkpt lat="44.8512067" lon="7.81357"><ele>260.0</ele><time>2026-04-11T09:24:53.443Z</time></trkpt><trkpt lat="44.8512883" lon="7.813525"><ele>260.0</ele><time>2026-04-11T09:24:54.443Z</time></trkpt><trkpt lat="44.851365" lon="7.8134817"><ele>260.0</ele><time>2026-04-11T09:24:55.443Z</time></trkpt><trkpt lat="44.851445" lon="7.81344"><ele>260.0</ele><time>2026-04-11T09:24:56.443Z</time></trkpt><trkpt lat="44.8515217" lon="7.8133983"><ele>259.83333333333337</ele><time>2026-04-11T09:24:57.443Z</time></trkpt><trkpt lat="44.8516" lon="7.8133467"><ele>259.6666666666667</ele><time>2026-04-11T09:24:58.443Z</time></trkpt><trkpt lat="44.8516783" lon="7.81329"><ele>259.5</ele><time>2026-04-11T09:24:59.443Z</time></trkpt><trkpt lat="44.85176" lon="7.8132333"><ele>259.3333333333333</ele><time>2026-04-11T09:25:00.443Z</time></trkpt><trkpt lat="44.85184" lon="7.81317"><ele>259.16666666666663</ele><time>2026-04-11T09:25:01.443Z</time></trkpt><trkpt lat="44.851915" lon="7.8131067"><ele>259.0</ele><time>2026-04-11T09:25:02.443Z</time></trkpt><trkpt lat="44.851985" lon="7.81304"><ele>259.0</ele><time>2026-04-11T09:25:03.443Z</time></trkpt><trkpt lat="44.8520467" lon="7.812965"><ele>259.0</ele><time>2026-04-11T09:25:04.443Z</time></trkpt><trkpt lat="44.8521117" lon="7.8128833"><ele>259.0</ele><time>2026-04-11T09:25:05.444Z</time></trkpt><trkpt lat="44.85218" lon="7.8128083"><ele>259.0</ele><time>2026-04-11T09:25:06.443Z</time></trkpt><trkpt lat="44.8522467" lon="7.81273"><ele>259.0</ele><time>2026-04-11T09:25:07.443Z</time></trkpt><trkpt lat="44.85231" lon="7.81265"><ele>259.0</ele><time>2026-04-11T09:25:08.443Z</time></trkpt><trkpt lat="44.8523733" lon="7.812575"><ele>258.8333333333333</ele><time>2026-04-11T09:25:09.443Z</time></trkpt><trkpt lat="44.85244" lon="7.8124983"><ele>258.66666666666663</ele><time>2026-04-11T09:25:10.443Z</time></trkpt><trkpt lat="44.8525017" lon="7.8124183"><ele>258.5</ele><time>2026-04-11T09:25:11.443Z</time></trkpt><trkpt lat="44.85257" lon="7.8123317"><ele>258.3333333333333</ele><time>2026-04-11T09:25:12.443Z</time></trkpt><trkpt lat="44.852635" lon="7.8122517"><ele>258.1666666666667</ele><time>2026-04-11T09:25:13.443Z</time></trkpt><trkpt lat="44.8527" lon="7.812175"><ele>258.0</ele><time>2026-04-11T09:25:14.443Z</time></trkpt><trkpt lat="44.8527717" lon="7.8120933"><ele>258.0</ele><time>2026-04-11T09:25:15.443Z</time></trkpt><trkpt lat="44.85284" lon="7.8120133"><ele>258.0</ele><time>2026-04-11T09:25:16.443Z</time></trkpt><trkpt lat="44.8529083" lon="7.81193"><ele>258.0</ele><time>2026-04-11T09:25:17.443Z</time></trkpt><trkpt lat="44.85298" lon="7.81185"><ele>258.0</ele><time>2026-04-11T09:25:18.443Z</time></trkpt><trkpt lat="44.8530467" lon="7.8117667"><ele>258.0</ele><time>2026-04-11T09:25:19.444Z</time></trkpt><trkpt lat="44.8531117" lon="7.811685"><ele>258.0</ele><time>2026-04-11T09:25:20.443Z</time></trkpt><trkpt lat="44.8531833" lon="7.8115967"><ele>258.0</ele><time>2026-04-11T09:25:21.443Z</time></trkpt><trkpt lat="44.8532517" lon="7.81151"><ele>258.0</ele><time>2026-04-11T09:25:22.443Z</time></trkpt><trkpt lat="44.85332" lon="7.8114267"><ele>258.0</ele><time>2026-04-11T09:25:23.443Z</time></trkpt><trkpt lat="44.85339" lon="7.811345"><ele>258.0</ele><time>2026-04-11T09:25:24.443Z</time></trkpt><trkpt lat="44.8534583" lon="7.8112667"><ele>258.0</ele><time>2026-04-11T09:25:25.443Z</time></trkpt><trkpt lat="44.853525" lon="7.8111883"><ele>258.0</ele><time>2026-04-11T09:25:26.443Z</time></trkpt><trkpt lat="44.85359" lon="7.81111"><ele>257.8333333333333</ele><time>2026-04-11T09:25:27.443Z</time></trkpt><trkpt lat="44.8536567" lon="7.81103"><ele>257.6666666666667</ele><time>2026-04-11T09:25:28.443Z</time></trkpt><trkpt lat="44.8537283" lon="7.8109483"><ele>257.5</ele><time>2026-04-11T09:25:29.443Z</time></trkpt><trkpt lat="44.853795" lon="7.8108683"><ele>257.33333333333337</ele><time>2026-04-11T09:25:30.443Z</time></trkpt><trkpt lat="44.8538633" lon="7.810785"><ele>257.1666666666667</ele><time>2026-04-11T09:25:31.443Z</time></trkpt><trkpt lat="44.8539333" lon="7.8107033"><ele>257.0</ele><time>2026-04-11T09:25:32.443Z</time></trkpt><trkpt lat="44.8540017" lon="7.8106217"><ele>257.0</ele><time>2026-04-11T09:25:33.443Z</time></trkpt><trkpt lat="44.8540683" lon="7.8105417"><ele>257.0</ele><time>2026-04-11T09:25:34.443Z</time></trkpt><trkpt lat="44.8541267" lon="7.8104633"><ele>257.0</ele><time>2026-04-11T09:25:35.443Z</time></trkpt><trkpt lat="44.8541967" lon="7.8103833"><ele>257.0</ele><time>2026-04-11T09:25:36.443Z</time></trkpt><trkpt lat="44.854265" lon="7.8103"><ele>257.0</ele><time>2026-04-11T09:25:37.443Z</time></trkpt><trkpt lat="44.8543317" lon="7.8102183"><ele>257.0</ele><time>2026-04-11T09:25:38.443Z</time></trkpt><trkpt lat="44.8544017" lon="7.81014"><ele>256.83333333333337</ele><time>2026-04-11T09:25:39.443Z</time></trkpt><trkpt lat="44.8544667" lon="7.8100683"><ele>256.6666666666667</ele><time>2026-04-11T09:25:40.443Z</time></trkpt><trkpt lat="44.85453" lon="7.8099967"><ele>256.5</ele><time>2026-04-11T09:25:41.443Z</time></trkpt><trkpt lat="44.85459" lon="7.8099233"><ele>256.3333333333333</ele><time>2026-04-11T09:25:42.443Z</time></trkpt><trkpt lat="44.8546533" lon="7.8098517"><ele>256.16666666666663</ele><time>2026-04-11T09:25:43.443Z</time></trkpt><trkpt lat="44.8547283" lon="7.8098017"><ele>256.0</ele><time>2026-04-11T09:25:44.443Z</time></trkpt><trkpt lat="44.854805" lon="7.809775"><ele>255.99999999999997</ele><time>2026-04-11T09:25:45.443Z</time></trkpt><trkpt lat="44.8548767" lon="7.8097767"><ele>256.0</ele><time>2026-04-11T09:25:46.443Z</time></trkpt><trkpt lat="44.8549567" lon="7.8097917"><ele>256.0</ele><time>2026-04-11T09:25:47.443Z</time></trkpt><trkpt lat="44.855035" lon="7.8098"><ele>256.0</ele><time>2026-04-11T09:25:48.443Z</time></trkpt><trkpt lat="44.8551167" lon="7.8098067"><ele>255.99999999999997</ele><time>2026-04-11T09:25:49.443Z</time></trkpt><trkpt lat="44.8552" lon="7.8098083"><ele>256.0</ele><time>2026-04-11T09:25:50.443Z</time></trkpt><trkpt lat="44.8552783" lon="7.8098133"><ele>255.83333333333331</ele><time>2026-04-11T09:25:51.443Z</time></trkpt><trkpt lat="44.855355" lon="7.8098183"><ele>255.66666666666666</ele><time>2026-04-11T09:25:52.443Z</time></trkpt><trkpt lat="44.8554283" lon="7.8098217"><ele>255.5</ele><time>2026-04-11T09:25:53.443Z</time></trkpt><trkpt lat="44.8555267" lon="7.8098167"><ele>255.33333333333331</ele><time>2026-04-11T09:25:55.443Z</time></trkpt><trkpt lat="44.8556083" lon="7.80978"><ele>255.16666666666666</ele><time>2026-04-11T09:26:04.443Z</time></trkpt><trkpt lat="44.8556617" lon="7.8096933"><ele>255.0</ele><time>2026-04-11T09:26:07.443Z</time></trkpt><trkpt lat="44.8556683" lon="7.8096033"><ele>255.0</ele><time>2026-04-11T09:26:09.443Z</time></trkpt><trkpt lat="44.8556833" lon="7.8095083"><ele>255.00000000000003</ele><time>2026-04-11T09:26:11.443Z</time></trkpt><trkpt lat="44.8557033" lon="7.8094033"><ele>255.0</ele><time>2026-04-11T09:26:13.443Z</time></trkpt><trkpt lat="44.8557183" lon="7.8093083"><ele>255.0</ele><time>2026-04-11T09:26:15.443Z</time></trkpt><trkpt lat="44.855735" lon="7.80922"><ele>255.00000000000003</ele><time>2026-04-11T09:26:17.444Z</time></trkpt><trkpt lat="44.8557967" lon="7.8091533"><ele>255.0</ele><time>2026-04-11T09:26:20.443Z</time></trkpt><trkpt lat="44.85585" lon="7.8090983"><ele>255.0</ele><time>2026-04-11T09:26:22.443Z</time></trkpt><trkpt lat="44.8559083" lon="7.8090367"><ele>254.83333333333334</ele><time>2026-04-11T09:26:24.443Z</time></trkpt><trkpt lat="44.8559667" lon="7.80897"><ele>254.66666666666669</ele><time>2026-04-11T09:26:26.443Z</time></trkpt><trkpt lat="44.8560233" lon="7.808905"><ele>254.5</ele><time>2026-04-11T09:26:28.443Z</time></trkpt><trkpt lat="44.8560767" lon="7.808845"><ele>254.33333333333334</ele><time>2026-04-11T09:26:30.443Z</time></trkpt><trkpt lat="44.8561367" lon="7.8087683"><ele>254.16666666666669</ele><time>2026-04-11T09:26:32.443Z</time></trkpt><trkpt lat="44.8561967" lon="7.8086917"><ele>254.0</ele><time>2026-04-11T09:26:34.443Z</time></trkpt><trkpt lat="44.856265" lon="7.80861"><ele>254.0</ele><time>2026-04-11T09:26:36.443Z</time></trkpt><trkpt lat="44.8563383" lon="7.808525"><ele>253.99999999999997</ele><time>2026-04-11T09:26:38.443Z</time></trkpt><trkpt lat="44.8564167" lon="7.808425"><ele>253.99999999999997</ele><time>2026-04-11T09:26:40.443Z</time></trkpt><trkpt lat="44.8565" lon="7.8083217"><ele>254.0</ele><time>2026-04-11T09:26:42.443Z</time></trkpt><trkpt lat="44.8565817" lon="7.8082283"><ele>254.0</ele><time>2026-04-11T09:26:44.443Z</time></trkpt><trkpt lat="44.8566667" lon="7.80813"><ele>254.0</ele><time>2026-04-11T09:26:46.443Z</time></trkpt><trkpt lat="44.8567533" lon="7.808025"><ele>253.99999999999997</ele><time>2026-04-11T09:26:48.443Z</time></trkpt><trkpt lat="44.8568267" lon="7.80793"><ele>253.99999999999997</ele><time>2026-04-11T09:26:50.444Z</time></trkpt><trkpt lat="44.8568967" lon="7.8078417"><ele>254.0</ele><time>2026-04-11T09:26:52.443Z</time></trkpt><trkpt lat="44.856975" lon="7.8077567"><ele>254.0</ele><time>2026-04-11T09:26:54.443Z</time></trkpt><trkpt lat="44.8570617" lon="7.807665"><ele>254.00000000000003</ele><time>2026-04-11T09:26:56.443Z</time></trkpt><trkpt lat="44.8571567" lon="7.807555"><ele>254.0</ele><time>2026-04-11T09:26:58.443Z</time></trkpt><trkpt lat="44.8572117" lon="7.8074867"><ele>254.0</ele><time>2026-04-11T09:26:59.443Z</time></trkpt><trkpt lat="44.8572683" lon="7.8074167"><ele>254.0</ele><time>2026-04-11T09:27:00.443Z</time></trkpt><trkpt lat="44.857325" lon="7.807355"><ele>254.00000000000003</ele><time>2026-04-11T09:27:01.443Z</time></trkpt><trkpt lat="44.8573767" lon="7.8072917"><ele>254.0</ele><time>2026-04-11T09:27:02.444Z</time></trkpt><trkpt lat="44.85743" lon="7.8072333"><ele>254.00000000000003</ele><time>2026-04-11T09:27:03.443Z</time></trkpt><trkpt lat="44.85748" lon="7.8071733"><ele>254.0</ele><time>2026-04-11T09:27:04.443Z</time></trkpt><trkpt lat="44.8575333" lon="7.807105"><ele>254.0</ele><time>2026-04-11T09:27:05.443Z</time></trkpt><trkpt lat="44.85759" lon="7.8070433"><ele>254.0</ele><time>2026-04-11T09:27:06.443Z</time></trkpt><trkpt lat="44.8576433" lon="7.8069767"><ele>254.00000000000003</ele><time>2026-04-11T09:27:07.444Z</time></trkpt><trkpt lat="44.8576967" lon="7.8069167"><ele>254.0</ele><time>2026-04-11T09:27:08.443Z</time></trkpt><trkpt lat="44.8577933" lon="7.8068083"><ele>253.83333333333334</ele><time>2026-04-11T09:27:10.443Z</time></trkpt><trkpt lat="44.8578883" lon="7.8066983"><ele>253.66666666666669</ele><time>2026-04-11T09:27:12.443Z</time></trkpt><trkpt lat="44.8579883" lon="7.806585"><ele>253.5</ele><time>2026-04-11T09:27:14.443Z</time></trkpt><trkpt lat="44.8580383" lon="7.8065267"><ele>253.33333333333331</ele><time>2026-04-11T09:27:15.443Z</time></trkpt><trkpt lat="44.85809" lon="7.80647"><ele>253.16666666666666</ele><time>2026-04-11T09:27:16.443Z</time></trkpt><trkpt lat="44.85814" lon="7.8064083"><ele>253.0</ele><time>2026-04-11T09:27:17.443Z</time></trkpt><trkpt lat="44.8581883" lon="7.80635"><ele>253.00000000000003</ele><time>2026-04-11T09:27:18.444Z</time></trkpt><trkpt lat="44.8582383" lon="7.8062933"><ele>253.0</ele><time>2026-04-11T09:27:19.444Z</time></trkpt><trkpt lat="44.8582883" lon="7.8062367"><ele>253.00000000000003</ele><time>2026-04-11T09:27:20.443Z</time></trkpt><trkpt lat="44.858345" lon="7.8061733"><ele>253.00000000000003</ele><time>2026-04-11T09:27:21.443Z</time></trkpt><trkpt lat="44.8583983" lon="7.8061083"><ele>253.0</ele><time>2026-04-11T09:27:22.443Z</time></trkpt><trkpt lat="44.8584467" lon="7.806045"><ele>253.00000000000003</ele><time>2026-04-11T09:27:23.443Z</time></trkpt><trkpt lat="44.8585" lon="7.8059733"><ele>253.00000000000003</ele><time>2026-04-11T09:27:24.443Z</time></trkpt><trkpt lat="44.8585767" lon="7.80582"><ele>252.71428571428575</ele><time>2026-04-11T09:27:26.443Z</time></trkpt><trkpt lat="44.85861" lon="7.8057367"><ele>252.42857142857144</ele><time>2026-04-11T09:27:27.443Z</time></trkpt><trkpt lat="44.8586367" lon="7.8056483"><ele>252.14285714285714</ele><time>2026-04-11T09:27:28.443Z</time></trkpt><trkpt lat="44.8586633" lon="7.80555"><ele>251.85714285714286</ele><time>2026-04-11T09:27:29.443Z</time></trkpt><trkpt lat="44.8586867" lon="7.80546"><ele>251.57142857142856</ele><time>2026-04-11T09:27:30.443Z</time></trkpt><trkpt lat="44.8587083" lon="7.8053683"><ele>251.28571428571425</ele><time>2026-04-11T09:27:31.443Z</time></trkpt><trkpt lat="44.8587267" lon="7.80527"><ele>250.99999999999997</ele><time>2026-04-11T09:27:32.443Z</time></trkpt><trkpt lat="44.8587467" lon="7.8051733"><ele>251.1428571428571</ele><time>2026-04-11T09:27:33.443Z</time></trkpt><trkpt lat="44.8587617" lon="7.8050783"><ele>251.28571428571428</ele><time>2026-04-11T09:27:34.443Z</time></trkpt><trkpt lat="44.858785" lon="7.80497"><ele>251.42857142857142</ele><time>2026-04-11T09:27:35.443Z</time></trkpt><trkpt lat="44.8588033" lon="7.8048683"><ele>251.57142857142856</ele><time>2026-04-11T09:27:36.443Z</time></trkpt><trkpt lat="44.8588233" lon="7.8047717"><ele>251.71428571428572</ele><time>2026-04-11T09:27:37.443Z</time></trkpt><trkpt lat="44.85884" lon="7.8046817"><ele>251.85714285714286</ele><time>2026-04-11T09:27:38.443Z</time></trkpt><trkpt lat="44.8588567" lon="7.8045883"><ele>252.0</ele><time>2026-04-11T09:27:39.443Z</time></trkpt><trkpt lat="44.8588783" lon="7.8044933"><ele>252.0</ele><time>2026-04-11T09:27:40.443Z</time></trkpt><trkpt lat="44.858895" lon="7.8043917"><ele>252.0</ele><time>2026-04-11T09:27:41.443Z</time></trkpt><trkpt lat="44.8589083" lon="7.8043017"><ele>252.0</ele><time>2026-04-11T09:27:42.443Z</time></trkpt><trkpt lat="44.858925" lon="7.8042117"><ele>252.0</ele><time>2026-04-11T09:27:43.443Z</time></trkpt><trkpt lat="44.85894" lon="7.8041217"><ele>252.0</ele><time>2026-04-11T09:27:44.443Z</time></trkpt><trkpt lat="44.85896" lon="7.8040267"><ele>252.0</ele><time>2026-04-11T09:27:45.444Z</time></trkpt><trkpt lat="44.8589767" lon="7.8039333"><ele>252.0</ele><time>2026-04-11T09:27:46.443Z</time></trkpt><trkpt lat="44.8589933" lon="7.8038333"><ele>252.0</ele><time>2026-04-11T09:27:47.443Z</time></trkpt><trkpt lat="44.85901" lon="7.8037333"><ele>252.0</ele><time>2026-04-11T09:27:48.443Z</time></trkpt><trkpt lat="44.85903" lon="7.8036317"><ele>252.0</ele><time>2026-04-11T09:27:49.443Z</time></trkpt><trkpt lat="44.8590467" lon="7.8035317"><ele>252.0</ele><time>2026-04-11T09:27:50.443Z</time></trkpt><trkpt lat="44.85907" lon="7.8034333"><ele>252.0</ele><time>2026-04-11T09:27:51.443Z</time></trkpt><trkpt lat="44.8590933" lon="7.8033383"><ele>252.0</ele><time>2026-04-11T09:27:52.443Z</time></trkpt><trkpt lat="44.8591167" lon="7.80324"><ele>252.0</ele><time>2026-04-11T09:27:53.443Z</time></trkpt><trkpt lat="44.8591417" lon="7.803145"><ele>252.0</ele><time>2026-04-11T09:27:54.444Z</time></trkpt><trkpt lat="44.85917" lon="7.8030533"><ele>252.0</ele><time>2026-04-11T09:27:55.443Z</time></trkpt><trkpt lat="44.8591967" lon="7.8029633"><ele>252.0</ele><time>2026-04-11T09:27:56.443Z</time></trkpt><trkpt lat="44.8592317" lon="7.80287"><ele>252.0</ele><time>2026-04-11T09:27:57.443Z</time></trkpt><trkpt lat="44.8592733" lon="7.802785"><ele>252.0</ele><time>2026-04-11T09:27:58.443Z</time></trkpt><trkpt lat="44.8593217" lon="7.8027"><ele>252.0</ele><time>2026-04-11T09:27:59.443Z</time></trkpt><trkpt lat="44.859375" lon="7.8026133"><ele>252.0</ele><time>2026-04-11T09:28:00.443Z</time></trkpt><trkpt lat="44.85943" lon="7.8025317"><ele>252.0</ele><time>2026-04-11T09:28:01.443Z</time></trkpt><trkpt lat="44.8594767" lon="7.80245"><ele>252.0</ele><time>2026-04-11T09:28:02.443Z</time></trkpt><trkpt lat="44.859525" lon="7.8023767"><ele>252.0</ele><time>2026-04-11T09:28:03.443Z</time></trkpt><trkpt lat="44.8595767" lon="7.8023"><ele>252.0</ele><time>2026-04-11T09:28:04.443Z</time></trkpt><trkpt lat="44.85963" lon="7.8022117"><ele>252.0</ele><time>2026-04-11T09:28:05.443Z</time></trkpt><trkpt lat="44.859685" lon="7.8021217"><ele>252.0</ele><time>2026-04-11T09:28:06.443Z</time></trkpt><trkpt lat="44.859735" lon="7.8020367"><ele>252.0</ele><time>2026-04-11T09:28:07.443Z</time></trkpt><trkpt lat="44.8597833" lon="7.801945"><ele>252.0</ele><time>2026-04-11T09:28:08.443Z</time></trkpt><trkpt lat="44.8598383" lon="7.8018567"><ele>252.0</ele><time>2026-04-11T09:28:09.443Z</time></trkpt><trkpt lat="44.859895" lon="7.8017667"><ele>252.0</ele><time>2026-04-11T09:28:10.443Z</time></trkpt><trkpt lat="44.8599483" lon="7.801675"><ele>252.0</ele><time>2026-04-11T09:28:11.443Z</time></trkpt><trkpt lat="44.86" lon="7.8015867"><ele>252.0</ele><time>2026-04-11T09:28:12.443Z</time></trkpt><trkpt lat="44.860055" lon="7.8015017"><ele>252.0</ele><time>2026-04-11T09:28:13.443Z</time></trkpt><trkpt lat="44.86011" lon="7.8014183"><ele>252.0</ele><time>2026-04-11T09:28:14.443Z</time></trkpt><trkpt lat="44.8601667" lon="7.8013283"><ele>252.0</ele><time>2026-04-11T09:28:15.443Z</time></trkpt><trkpt lat="44.8602217" lon="7.8012367"><ele>252.0</ele><time>2026-04-11T09:28:16.443Z</time></trkpt><trkpt lat="44.8602767" lon="7.8011483"><ele>252.0</ele><time>2026-04-11T09:28:17.443Z</time></trkpt><trkpt lat="44.8603333" lon="7.8010567"><ele>252.0</ele><time>2026-04-11T09:28:18.443Z</time></trkpt><trkpt lat="44.860395" lon="7.8009667"><ele>252.0</ele><time>2026-04-11T09:28:19.443Z</time></trkpt><trkpt lat="44.8604433" lon="7.8008767"><ele>252.0</ele><time>2026-04-11T09:28:20.444Z</time></trkpt><trkpt lat="44.860495" lon="7.80079"><ele>252.0</ele><time>2026-04-11T09:28:21.443Z</time></trkpt><trkpt lat="44.8605417" lon="7.8007117"><ele>252.0</ele><time>2026-04-11T09:28:22.443Z</time></trkpt><trkpt lat="44.86059" lon="7.8006383"><ele>252.0</ele><time>2026-04-11T09:28:23.443Z</time></trkpt><trkpt lat="44.8606417" lon="7.80056"><ele>252.0</ele><time>2026-04-11T09:28:24.443Z</time></trkpt><trkpt lat="44.860695" lon="7.80048"><ele>252.0</ele><time>2026-04-11T09:28:25.443Z</time></trkpt><trkpt lat="44.8607417" lon="7.8003983"><ele>252.0</ele><time>2026-04-11T09:28:26.443Z</time></trkpt><trkpt lat="44.86079" lon="7.8003117"><ele>252.0</ele><time>2026-04-11T09:28:27.443Z</time></trkpt><trkpt lat="44.8608433" lon="7.8002267"><ele>252.0</ele><time>2026-04-11T09:28:28.443Z</time></trkpt><trkpt lat="44.8608917" lon="7.8001467"><ele>252.0</ele><time>2026-04-11T09:28:29.443Z</time></trkpt><trkpt lat="44.86094" lon="7.8000667"><ele>252.0</ele><time>2026-04-11T09:28:30.443Z</time></trkpt><trkpt lat="44.8609867" lon="7.7999817"><ele>251.5</ele><time>2026-04-11T09:28:31.443Z</time></trkpt><trkpt lat="44.8610383" lon="7.7998983"><ele>251.0</ele><time>2026-04-11T09:28:32.443Z</time></trkpt><trkpt lat="44.86109" lon="7.7998133"><ele>250.5</ele><time>2026-04-11T09:28:33.444Z</time></trkpt><trkpt lat="44.8611367" lon="7.79973"><ele>250.0</ele><time>2026-04-11T09:28:34.443Z</time></trkpt><trkpt lat="44.8611867" lon="7.799645"><ele>249.5</ele><time>2026-04-11T09:28:35.444Z</time></trkpt><trkpt lat="44.8612367" lon="7.7995567"><ele>249.0</ele><time>2026-04-11T09:28:36.443Z</time></trkpt><trkpt lat="44.8612917" lon="7.7994733"><ele>249.0</ele><time>2026-04-11T09:28:37.443Z</time></trkpt><trkpt lat="44.86134" lon="7.79939"><ele>248.99999999999997</ele><time>2026-04-11T09:28:38.443Z</time></trkpt><trkpt lat="44.8613783" lon="7.7993167"><ele>249.0</ele><time>2026-04-11T09:28:39.444Z</time></trkpt><trkpt lat="44.8614133" lon="7.7992367"><ele>249.0</ele><time>2026-04-11T09:28:40.443Z</time></trkpt><trkpt lat="44.8614533" lon="7.7991517"><ele>248.99999999999997</ele><time>2026-04-11T09:28:41.443Z</time></trkpt><trkpt lat="44.8614883" lon="7.7990583"><ele>249.0</ele><time>2026-04-11T09:28:42.443Z</time></trkpt><trkpt lat="44.8615233" lon="7.7989617"><ele>249.0</ele><time>2026-04-11T09:28:43.443Z</time></trkpt><trkpt lat="44.861555" lon="7.7988567"><ele>249.33333333333334</ele><time>2026-04-11T09:28:44.443Z</time></trkpt><trkpt lat="44.8615833" lon="7.798755"><ele>249.66666666666669</ele><time>2026-04-11T09:28:45.443Z</time></trkpt><trkpt lat="44.8616167" lon="7.7986533"><ele>250.0</ele><time>2026-04-11T09:28:46.443Z</time></trkpt><trkpt lat="44.861655" lon="7.798555"><ele>250.33333333333334</ele><time>2026-04-11T09:28:47.444Z</time></trkpt><trkpt lat="44.8616917" lon="7.798465"><ele>250.66666666666669</ele><time>2026-04-11T09:28:48.443Z</time></trkpt><trkpt lat="44.86173" lon="7.79838"><ele>251.0</ele><time>2026-04-11T09:28:49.443Z</time></trkpt><trkpt lat="44.8617717" lon="7.798295"><ele>250.85714285714283</ele><time>2026-04-11T09:28:50.443Z</time></trkpt><trkpt lat="44.8618083" lon="7.7982067"><ele>250.71428571428572</ele><time>2026-04-11T09:28:51.443Z</time></trkpt><trkpt lat="44.8618467" lon="7.7981167"><ele>250.57142857142856</ele><time>2026-04-11T09:28:52.443Z</time></trkpt><trkpt lat="44.8618917" lon="7.7980317"><ele>250.42857142857142</ele><time>2026-04-11T09:28:53.443Z</time></trkpt><trkpt lat="44.861935" lon="7.797945"><ele>250.28571428571428</ele><time>2026-04-11T09:28:54.443Z</time></trkpt><trkpt lat="44.86197" lon="7.797855"><ele>250.14285714285714</ele><time>2026-04-11T09:28:55.443Z</time></trkpt><trkpt lat="44.862005" lon="7.7977633"><ele>250.0</ele><time>2026-04-11T09:28:56.443Z</time></trkpt><trkpt lat="44.8620467" lon="7.797665"><ele>249.83333333333331</ele><time>2026-04-11T09:28:57.444Z</time></trkpt><trkpt lat="44.8620817" lon="7.7975633"><ele>249.66666666666666</ele><time>2026-04-11T09:28:58.443Z</time></trkpt><trkpt lat="44.8621233" lon="7.7974633"><ele>249.5</ele><time>2026-04-11T09:28:59.443Z</time></trkpt><trkpt lat="44.862165" lon="7.797365"><ele>249.33333333333331</ele><time>2026-04-11T09:29:00.443Z</time></trkpt><trkpt lat="44.86221" lon="7.79727"><ele>249.16666666666666</ele><time>2026-04-11T09:29:01.443Z</time></trkpt><trkpt lat="44.8622583" lon="7.797175"><ele>249.0</ele><time>2026-04-11T09:29:02.443Z</time></trkpt><trkpt lat="44.8623067" lon="7.7970833"><ele>249.0</ele><time>2026-04-11T09:29:03.443Z</time></trkpt><trkpt lat="44.8623483" lon="7.796985"><ele>249.0</ele><time>2026-04-11T09:29:04.443Z</time></trkpt><trkpt lat="44.8623883" lon="7.7968883"><ele>249.0</ele><time>2026-04-11T09:29:05.443Z</time></trkpt><trkpt lat="44.8624317" lon="7.7967933"><ele>249.0</ele><time>2026-04-11T09:29:06.443Z</time></trkpt><trkpt lat="44.8624733" lon="7.7966933"><ele>249.0</ele><time>2026-04-11T09:29:07.443Z</time></trkpt><trkpt lat="44.8625083" lon="7.79659"><ele>249.0</ele><time>2026-04-11T09:29:08.443Z</time></trkpt><trkpt lat="44.8625417" lon="7.7964833"><ele>249.0</ele><time>2026-04-11T09:29:09.443Z</time></trkpt><trkpt lat="44.862565" lon="7.7963717"><ele>248.99999999999997</ele><time>2026-04-11T09:29:10.443Z</time></trkpt><trkpt lat="44.8625767" lon="7.7962617"><ele>249.0</ele><time>2026-04-11T09:29:11.443Z</time></trkpt><trkpt lat="44.8625767" lon="7.7961533"><ele>249.0</ele><time>2026-04-11T09:29:12.443Z</time></trkpt><trkpt lat="44.8625683" lon="7.7960567"><ele>248.99999999999997</ele><time>2026-04-11T09:29:13.443Z</time></trkpt><trkpt lat="44.862555" lon="7.79596"><ele>249.0</ele><time>2026-04-11T09:29:14.443Z</time></trkpt><trkpt lat="44.8625367" lon="7.7958683"><ele>249.0</ele><time>2026-04-11T09:29:15.443Z</time></trkpt><trkpt lat="44.8625233" lon="7.7957783"><ele>249.2</ele><time>2026-04-11T09:29:16.443Z</time></trkpt><trkpt lat="44.8625067" lon="7.795685"><ele>249.39999999999998</ele><time>2026-04-11T09:29:17.443Z</time></trkpt><trkpt lat="44.8624967" lon="7.7955817"><ele>249.6</ele><time>2026-04-11T09:29:18.443Z</time></trkpt><trkpt lat="44.862485" lon="7.7954183"><ele>249.8</ele><time>2026-04-11T09:29:20.443Z</time></trkpt><trkpt lat="44.8625317" lon="7.7953033"><ele>250.0</ele><time>2026-04-11T09:29:22.443Z</time></trkpt><trkpt lat="44.8626383" lon="7.795265"><ele>249.99999999999997</ele><time>2026-04-11T09:29:24.443Z</time></trkpt><trkpt lat="44.8627517" lon="7.7952667"><ele>250.0</ele><time>2026-04-11T09:29:26.443Z</time></trkpt><trkpt lat="44.8628733" lon="7.79524"><ele>250.0</ele><time>2026-04-11T09:29:28.443Z</time></trkpt><trkpt lat="44.8629417" lon="7.7952167"><ele>250.0</ele><time>2026-04-11T09:29:29.443Z</time></trkpt><trkpt lat="44.8630117" lon="7.7951933"><ele>249.99999999999997</ele><time>2026-04-11T09:29:30.443Z</time></trkpt><trkpt lat="44.8630783" lon="7.7951767"><ele>250.0</ele><time>2026-04-11T09:29:31.444Z</time></trkpt><trkpt lat="44.86315" lon="7.795155"><ele>249.85714285714283</ele><time>2026-04-11T09:29:32.443Z</time></trkpt><trkpt lat="44.8632217" lon="7.795135"><ele>249.71428571428572</ele><time>2026-04-11T09:29:33.443Z</time></trkpt><trkpt lat="44.86329" lon="7.7951167"><ele>249.57142857142856</ele><time>2026-04-11T09:29:34.443Z</time></trkpt><trkpt lat="44.8633617" lon="7.7951067"><ele>249.42857142857142</ele><time>2026-04-11T09:29:35.443Z</time></trkpt><trkpt lat="44.863435" lon="7.7950917"><ele>249.28571428571428</ele><time>2026-04-11T09:29:36.443Z</time></trkpt><trkpt lat="44.863505" lon="7.7950733"><ele>249.14285714285714</ele><time>2026-04-11T09:29:37.443Z</time></trkpt><trkpt lat="44.863575" lon="7.7950567"><ele>249.0</ele><time>2026-04-11T09:29:38.443Z</time></trkpt><trkpt lat="44.8636517" lon="7.7950383"><ele>249.0</ele><time>2026-04-11T09:29:39.443Z</time></trkpt><trkpt lat="44.86372" lon="7.795025"><ele>248.99999999999997</ele><time>2026-04-11T09:29:40.443Z</time></trkpt><trkpt lat="44.8637883" lon="7.795005"><ele>249.0</ele><time>2026-04-11T09:29:41.443Z</time></trkpt><trkpt lat="44.8638517" lon="7.7949867"><ele>249.0</ele><time>2026-04-11T09:29:42.443Z</time></trkpt><trkpt lat="44.8639217" lon="7.7949733"><ele>248.99999999999997</ele><time>2026-04-11T09:29:43.443Z</time></trkpt><trkpt lat="44.86399" lon="7.7949517"><ele>249.0</ele><time>2026-04-11T09:29:44.443Z</time></trkpt><trkpt lat="44.8640617" lon="7.79493"><ele>249.0</ele><time>2026-04-11T09:29:45.443Z</time></trkpt><trkpt lat="44.8641367" lon="7.7949133"><ele>249.0</ele><time>2026-04-11T09:29:46.443Z</time></trkpt><trkpt lat="44.8642083" lon="7.794905"><ele>248.99999999999997</ele><time>2026-04-11T09:29:47.443Z</time></trkpt><trkpt lat="44.8642817" lon="7.79489"><ele>249.0</ele><time>2026-04-11T09:29:48.443Z</time></trkpt><trkpt lat="44.864355" lon="7.7948683"><ele>249.0</ele><time>2026-04-11T09:29:49.443Z</time></trkpt><trkpt lat="44.8644317" lon="7.7948567"><ele>248.99999999999997</ele><time>2026-04-11T09:29:50.443Z</time></trkpt><trkpt lat="44.8644967" lon="7.7948433"><ele>249.0</ele><time>2026-04-11T09:29:51.443Z</time></trkpt><trkpt lat="44.864565" lon="7.7948317"><ele>249.0</ele><time>2026-04-11T09:29:52.444Z</time></trkpt><trkpt lat="44.8646367" lon="7.7948167"><ele>248.66666666666666</ele><time>2026-04-11T09:29:53.443Z</time></trkpt><trkpt lat="44.8647033" lon="7.7948"><ele>248.33333333333331</ele><time>2026-04-11T09:29:54.443Z</time></trkpt><trkpt lat="44.8647767" lon="7.7947817"><ele>248.0</ele><time>2026-04-11T09:29:55.443Z</time></trkpt><trkpt lat="44.8648517" lon="7.7947567"><ele>247.66666666666666</ele><time>2026-04-11T09:29:56.443Z</time></trkpt><trkpt lat="44.86493" lon="7.7947317"><ele>247.33333333333331</ele><time>2026-04-11T09:29:57.443Z</time></trkpt><trkpt lat="44.8650033" lon="7.7947133"><ele>247.0</ele><time>2026-04-11T09:29:58.443Z</time></trkpt><trkpt lat="44.8650833" lon="7.794695"><ele>246.83333333333331</ele><time>2026-04-11T09:29:59.443Z</time></trkpt><trkpt lat="44.86516" lon="7.794675"><ele>246.66666666666666</ele><time>2026-04-11T09:30:00.444Z</time></trkpt><trkpt lat="44.86524" lon="7.7946583"><ele>246.5</ele><time>2026-04-11T09:30:01.443Z</time></trkpt><trkpt lat="44.8653167" lon="7.79464"><ele>246.33333333333331</ele><time>2026-04-11T09:30:02.443Z</time></trkpt><trkpt lat="44.8653933" lon="7.7946217"><ele>246.16666666666666</ele><time>2026-04-11T09:30:03.443Z</time></trkpt><trkpt lat="44.86547" lon="7.7946033"><ele>246.0</ele><time>2026-04-11T09:30:04.443Z</time></trkpt><trkpt lat="44.8655433" lon="7.794585"><ele>246.0</ele><time>2026-04-11T09:30:05.443Z</time></trkpt><trkpt lat="44.8656217" lon="7.7945633"><ele>246.0</ele><time>2026-04-11T09:30:06.443Z</time></trkpt><trkpt lat="44.865705" lon="7.7945417"><ele>246.0</ele><time>2026-04-11T09:30:07.443Z</time></trkpt><trkpt lat="44.865785" lon="7.7945217"><ele>246.0</ele><time>2026-04-11T09:30:08.443Z</time></trkpt><trkpt lat="44.865865" lon="7.7945017"><ele>246.0</ele><time>2026-04-11T09:30:09.443Z</time></trkpt><trkpt lat="44.8659417" lon="7.794485"><ele>246.0</ele><time>2026-04-11T09:30:10.443Z</time></trkpt><trkpt lat="44.8660233" lon="7.7944683"><ele>246.0</ele><time>2026-04-11T09:30:11.443Z</time></trkpt><trkpt lat="44.8660967" lon="7.7944467"><ele>246.0</ele><time>2026-04-11T09:30:12.443Z</time></trkpt><trkpt lat="44.8661717" lon="7.794425"><ele>246.0</ele><time>2026-04-11T09:30:13.443Z</time></trkpt><trkpt lat="44.8662517" lon="7.7944067"><ele>246.0</ele><time>2026-04-11T09:30:14.443Z</time></trkpt><trkpt lat="44.8663333" lon="7.7943883"><ele>246.0</ele><time>2026-04-11T09:30:15.443Z</time></trkpt><trkpt lat="44.8664133" lon="7.7943683"><ele>246.0</ele><time>2026-04-11T09:30:16.443Z</time></trkpt><trkpt lat="44.8664983" lon="7.794345"><ele>246.0</ele><time>2026-04-11T09:30:17.443Z</time></trkpt><trkpt lat="44.86658" lon="7.7943267"><ele>246.0</ele><time>2026-04-11T09:30:18.443Z</time></trkpt><trkpt lat="44.86666" lon="7.7943083"><ele>246.0</ele><time>2026-04-11T09:30:19.443Z</time></trkpt><trkpt lat="44.8667367" lon="7.7942917"><ele>246.0</ele><time>2026-04-11T09:30:20.443Z</time></trkpt><trkpt lat="44.8668233" lon="7.7942767"><ele>246.0</ele><time>2026-04-11T09:30:21.443Z</time></trkpt><trkpt lat="44.8669067" lon="7.79426"><ele>246.0</ele><time>2026-04-11T09:30:22.443Z</time></trkpt><trkpt lat="44.8669833" lon="7.7942433"><ele>246.0</ele><time>2026-04-11T09:30:23.443Z</time></trkpt><trkpt lat="44.8670617" lon="7.79423"><ele>246.0</ele><time>2026-04-11T09:30:24.443Z</time></trkpt><trkpt lat="44.8671433" lon="7.7942133"><ele>246.0</ele><time>2026-04-11T09:30:25.443Z</time></trkpt><trkpt lat="44.8672233" lon="7.7941933"><ele>246.0</ele><time>2026-04-11T09:30:26.443Z</time></trkpt><trkpt lat="44.8673017" lon="7.7941733"><ele>246.0</ele><time>2026-04-11T09:30:27.443Z</time></trkpt><trkpt lat="44.8673783" lon="7.794155"><ele>246.0</ele><time>2026-04-11T09:30:28.443Z</time></trkpt><trkpt lat="44.867455" lon="7.794135"><ele>246.0</ele><time>2026-04-11T09:30:29.443Z</time></trkpt><trkpt lat="44.86753" lon="7.794115"><ele>246.0</ele><time>2026-04-11T09:30:30.443Z</time></trkpt><trkpt lat="44.867605" lon="7.7940983"><ele>246.0</ele><time>2026-04-11T09:30:31.443Z</time></trkpt><trkpt lat="44.8676833" lon="7.7940817"><ele>246.0</ele><time>2026-04-11T09:30:32.443Z</time></trkpt><trkpt lat="44.8677583" lon="7.7940717"><ele>246.0</ele><time>2026-04-11T09:30:33.443Z</time></trkpt><trkpt lat="44.8678383" lon="7.794055"><ele>246.0</ele><time>2026-04-11T09:30:34.443Z</time></trkpt><trkpt lat="44.86792" lon="7.7940317"><ele>246.0</ele><time>2026-04-11T09:30:35.443Z</time></trkpt><trkpt lat="44.868" lon="7.7940133"><ele>246.0</ele><time>2026-04-11T09:30:36.443Z</time></trkpt><trkpt lat="44.8680817" lon="7.793995"><ele>246.0</ele><time>2026-04-11T09:30:37.443Z</time></trkpt><trkpt lat="44.8681667" lon="7.793975"><ele>246.0</ele><time>2026-04-11T09:30:38.443Z</time></trkpt><trkpt lat="44.8682467" lon="7.7939567"><ele>246.0</ele><time>2026-04-11T09:30:39.444Z</time></trkpt><trkpt lat="44.8683233" lon="7.79394"><ele>246.0</ele><time>2026-04-11T09:30:40.443Z</time></trkpt><trkpt lat="44.8684017" lon="7.7939217"><ele>245.8571428571429</ele><time>2026-04-11T09:30:41.443Z</time></trkpt><trkpt lat="44.8684783" lon="7.7939033"><ele>245.71428571428572</ele><time>2026-04-11T09:30:42.443Z</time></trkpt><trkpt lat="44.868555" lon="7.793885"><ele>245.57142857142858</ele><time>2026-04-11T09:30:43.443Z</time></trkpt><trkpt lat="44.8686267" lon="7.7938733"><ele>245.42857142857144</ele><time>2026-04-11T09:30:44.443Z</time></trkpt><trkpt lat="44.8687" lon="7.7938533"><ele>245.28571428571428</ele><time>2026-04-11T09:30:45.443Z</time></trkpt><trkpt lat="44.8687717" lon="7.79383"><ele>245.14285714285714</ele><time>2026-04-11T09:30:46.443Z</time></trkpt><trkpt lat="44.8688383" lon="7.7938067"><ele>245.0</ele><time>2026-04-11T09:30:47.443Z</time></trkpt><trkpt lat="44.8689067" lon="7.7937817"><ele>245.00000000000003</ele><time>2026-04-11T09:30:48.443Z</time></trkpt><trkpt lat="44.86897" lon="7.79375"><ele>245.0</ele><time>2026-04-11T09:30:49.443Z</time></trkpt><trkpt lat="44.8690817" lon="7.793735"><ele>245.0</ele><time>2026-04-11T09:30:51.444Z</time></trkpt><trkpt lat="44.869155" lon="7.793845"><ele>245.0</ele><time>2026-04-11T09:30:53.443Z</time></trkpt><trkpt lat="44.8691817" lon="7.79393"><ele>245.00000000000003</ele><time>2026-04-11T09:30:54.443Z</time></trkpt><trkpt lat="44.869205" lon="7.7940217"><ele>245.0</ele><time>2026-04-11T09:30:55.443Z</time></trkpt><trkpt lat="44.869225" lon="7.7941167"><ele>245.0</ele><time>2026-04-11T09:30:56.443Z</time></trkpt><trkpt lat="44.8692467" lon="7.7942133"><ele>245.0</ele><time>2026-04-11T09:30:57.443Z</time></trkpt><trkpt lat="44.86927" lon="7.79431"><ele>245.0</ele><time>2026-04-11T09:30:58.443Z</time></trkpt><trkpt lat="44.8693" lon="7.7944017"><ele>245.0</ele><time>2026-04-11T09:30:59.443Z</time></trkpt><trkpt lat="44.8693267" lon="7.7944933"><ele>245.0</ele><time>2026-04-11T09:31:00.443Z</time></trkpt><trkpt lat="44.86935" lon="7.7945783"><ele>245.0</ele><time>2026-04-11T09:31:01.443Z</time></trkpt><trkpt lat="44.8693717" lon="7.7946667"><ele>245.0</ele><time>2026-04-11T09:31:02.443Z</time></trkpt><trkpt lat="44.8693917" lon="7.7947517"><ele>245.14285714285714</ele><time>2026-04-11T09:31:03.443Z</time></trkpt><trkpt lat="44.869415" lon="7.79484"><ele>245.28571428571428</ele><time>2026-04-11T09:31:04.443Z</time></trkpt><trkpt lat="44.8694333" lon="7.79493"><ele>245.42857142857144</ele><time>2026-04-11T09:31:05.443Z</time></trkpt><trkpt lat="44.86946" lon="7.7950183"><ele>245.57142857142858</ele><time>2026-04-11T09:31:06.443Z</time></trkpt><trkpt lat="44.8694833" lon="7.7951083"><ele>245.71428571428572</ele><time>2026-04-11T09:31:07.443Z</time></trkpt><trkpt lat="44.869505" lon="7.7951967"><ele>245.8571428571429</ele><time>2026-04-11T09:31:08.443Z</time></trkpt><trkpt lat="44.8695317" lon="7.79529"><ele>246.00000000000003</ele><time>2026-04-11T09:31:09.443Z</time></trkpt><trkpt lat="44.8695583" lon="7.79538"><ele>246.00000000000003</ele><time>2026-04-11T09:31:10.443Z</time></trkpt><trkpt lat="44.869585" lon="7.7954683"><ele>246.0</ele><time>2026-04-11T09:31:11.443Z</time></trkpt><trkpt lat="44.8696083" lon="7.7955567"><ele>246.00000000000003</ele><time>2026-04-11T09:31:12.443Z</time></trkpt><trkpt lat="44.8696333" lon="7.7956433"><ele>246.00000000000003</ele><time>2026-04-11T09:31:13.443Z</time></trkpt><trkpt lat="44.8696567" lon="7.7957317"><ele>246.0</ele><time>2026-04-11T09:31:14.443Z</time></trkpt><trkpt lat="44.8696817" lon="7.7958217"><ele>246.00000000000003</ele><time>2026-04-11T09:31:15.443Z</time></trkpt><trkpt lat="44.8697067" lon="7.7959117"><ele>246.00000000000003</ele><time>2026-04-11T09:31:16.443Z</time></trkpt><trkpt lat="44.8697317" lon="7.7959967"><ele>246.00000000000003</ele><time>2026-04-11T09:31:17.443Z</time></trkpt><trkpt lat="44.8697517" lon="7.796085"><ele>246.0</ele><time>2026-04-11T09:31:18.443Z</time></trkpt><trkpt lat="44.8697767" lon="7.796175"><ele>246.00000000000003</ele><time>2026-04-11T09:31:19.443Z</time></trkpt><trkpt lat="44.8697983" lon="7.796265"><ele>246.00000000000003</ele><time>2026-04-11T09:31:20.443Z</time></trkpt><trkpt lat="44.8698233" lon="7.7963617"><ele>246.0</ele><time>2026-04-11T09:31:21.443Z</time></trkpt><trkpt lat="44.8698467" lon="7.7964533"><ele>246.00000000000003</ele><time>2026-04-11T09:31:22.443Z</time></trkpt><trkpt lat="44.8698717" lon="7.7965483"><ele>246.00000000000003</ele><time>2026-04-11T09:31:23.443Z</time></trkpt><trkpt lat="44.8698967" lon="7.796645"><ele>246.00000000000003</ele><time>2026-04-11T09:31:24.443Z</time></trkpt><trkpt lat="44.8699233" lon="7.7967417"><ele>246.0</ele><time>2026-04-11T09:31:25.443Z</time></trkpt><trkpt lat="44.8699567" lon="7.7968367"><ele>246.00000000000003</ele><time>2026-04-11T09:31:26.443Z</time></trkpt><trkpt lat="44.8699783" lon="7.7969333"><ele>246.00000000000003</ele><time>2026-04-11T09:31:27.443Z</time></trkpt><trkpt lat="44.8699983" lon="7.79703"><ele>246.0</ele><time>2026-04-11T09:31:28.443Z</time></trkpt><trkpt lat="44.870025" lon="7.7971283"><ele>246.00000000000003</ele><time>2026-04-11T09:31:29.443Z</time></trkpt><trkpt lat="44.8700483" lon="7.7972233"><ele>246.00000000000003</ele><time>2026-04-11T09:31:30.443Z</time></trkpt><trkpt lat="44.87007" lon="7.797315"><ele>245.8571428571429</ele><time>2026-04-11T09:31:31.443Z</time></trkpt><trkpt lat="44.8700933" lon="7.797405"><ele>245.71428571428572</ele><time>2026-04-11T09:31:32.443Z</time></trkpt><trkpt lat="44.8701233" lon="7.7974933"><ele>245.57142857142858</ele><time>2026-04-11T09:31:33.443Z</time></trkpt><trkpt lat="44.870155" lon="7.7975833"><ele>245.42857142857144</ele><time>2026-04-11T09:31:34.443Z</time></trkpt><trkpt lat="44.8701817" lon="7.7976783"><ele>245.28571428571428</ele><time>2026-04-11T09:31:35.443Z</time></trkpt><trkpt lat="44.8702067" lon="7.7977767"><ele>245.14285714285714</ele><time>2026-04-11T09:31:36.443Z</time></trkpt><trkpt lat="44.8702333" lon="7.7978733"><ele>245.0</ele><time>2026-04-11T09:31:37.443Z</time></trkpt><trkpt lat="44.8702583" lon="7.7979617"><ele>245.0</ele><time>2026-04-11T09:31:38.443Z</time></trkpt><trkpt lat="44.8702867" lon="7.798045"><ele>245.0</ele><time>2026-04-11T09:31:39.443Z</time></trkpt><trkpt lat="44.87031" lon="7.7981367"><ele>245.0</ele><time>2026-04-11T09:31:40.443Z</time></trkpt><trkpt lat="44.870335" lon="7.7982317"><ele>245.0</ele><time>2026-04-11T09:31:41.443Z</time></trkpt><trkpt lat="44.8703617" lon="7.7983217"><ele>245.0</ele><time>2026-04-11T09:31:42.443Z</time></trkpt><trkpt lat="44.8703817" lon="7.7984117"><ele>245.0</ele><time>2026-04-11T09:31:43.443Z</time></trkpt><trkpt lat="44.8704017" lon="7.7985033"><ele>245.0</ele><time>2026-04-11T09:31:44.443Z</time></trkpt><trkpt lat="44.8704217" lon="7.7985967"><ele>244.83333333333334</ele><time>2026-04-11T09:31:45.443Z</time></trkpt><trkpt lat="44.8704533" lon="7.7986933"><ele>244.66666666666669</ele><time>2026-04-11T09:31:46.443Z</time></trkpt><trkpt lat="44.8704767" lon="7.7987867"><ele>244.5</ele><time>2026-04-11T09:31:47.444Z</time></trkpt><trkpt lat="44.8705183" lon="7.7989583"><ele>244.33333333333331</ele><time>2026-04-11T09:31:49.443Z</time></trkpt><trkpt lat="44.87054" lon="7.7990483"><ele>244.16666666666666</ele><time>2026-04-11T09:31:50.443Z</time></trkpt><trkpt lat="44.8705633" lon="7.7991383"><ele>244.0</ele><time>2026-04-11T09:31:51.443Z</time></trkpt><trkpt lat="44.87059" lon="7.7992317"><ele>244.16666666666666</ele><time>2026-04-11T09:31:52.443Z</time></trkpt><trkpt lat="44.8706283" lon="7.7993967"><ele>244.33333333333331</ele><time>2026-04-11T09:31:54.443Z</time></trkpt><trkpt lat="44.8706567" lon="7.7994783"><ele>244.5</ele><time>2026-04-11T09:31:55.443Z</time></trkpt><trkpt lat="44.8706817" lon="7.79956"><ele>244.66666666666669</ele><time>2026-04-11T09:31:56.443Z</time></trkpt><trkpt lat="44.8707133" lon="7.7996383"><ele>244.83333333333334</ele><time>2026-04-11T09:31:57.443Z</time></trkpt><trkpt lat="44.8707533" lon="7.7997217"><ele>245.0</ele><time>2026-04-11T09:31:58.443Z</time></trkpt><trkpt lat="44.8708167" lon="7.79978"><ele>245.0</ele><time>2026-04-11T09:31:59.443Z</time></trkpt><trkpt lat="44.8708867" lon="7.7998167"><ele>245.0</ele><time>2026-04-11T09:32:00.443Z</time></trkpt><trkpt lat="44.8709617" lon="7.799845"><ele>245.0</ele><time>2026-04-11T09:32:01.443Z</time></trkpt><trkpt lat="44.87103" lon="7.7998717"><ele>245.0</ele><time>2026-04-11T09:32:02.443Z</time></trkpt><trkpt lat="44.871095" lon="7.7999"><ele>245.0</ele><time>2026-04-11T09:32:03.443Z</time></trkpt><trkpt lat="44.8711633" lon="7.799935"><ele>245.0</ele><time>2026-04-11T09:32:04.443Z</time></trkpt><trkpt lat="44.871235" lon="7.7999567"><ele>245.0</ele><time>2026-04-11T09:32:05.443Z</time></trkpt><trkpt lat="44.871305" lon="7.7999767"><ele>244.85714285714286</ele><time>2026-04-11T09:32:06.443Z</time></trkpt><trkpt lat="44.8713717" lon="7.8000033"><ele>244.71428571428572</ele><time>2026-04-11T09:32:07.443Z</time></trkpt><trkpt lat="44.8714367" lon="7.8000233"><ele>244.57142857142856</ele><time>2026-04-11T09:32:08.443Z</time></trkpt><trkpt lat="44.8715083" lon="7.8000417"><ele>244.42857142857142</ele><time>2026-04-11T09:32:09.443Z</time></trkpt><trkpt lat="44.8715767" lon="7.8000617"><ele>244.28571428571428</ele><time>2026-04-11T09:32:10.443Z</time></trkpt><trkpt lat="44.8716467" lon="7.8000917"><ele>244.1428571428571</ele><time>2026-04-11T09:32:11.443Z</time></trkpt><trkpt lat="44.8717133" lon="7.8001183"><ele>243.99999999999997</ele><time>2026-04-11T09:32:12.443Z</time></trkpt><trkpt lat="44.87178" lon="7.8001417"><ele>244.1428571428571</ele><time>2026-04-11T09:32:13.443Z</time></trkpt><trkpt lat="44.87185" lon="7.8001683"><ele>244.28571428571428</ele><time>2026-04-11T09:32:14.443Z</time></trkpt><trkpt lat="44.8719183" lon="7.8001917"><ele>244.42857142857142</ele><time>2026-04-11T09:32:15.443Z</time></trkpt><trkpt lat="44.8719867" lon="7.8002167"><ele>244.57142857142856</ele><time>2026-04-11T09:32:16.443Z</time></trkpt><trkpt lat="44.872055" lon="7.8002367"><ele>244.71428571428572</ele><time>2026-04-11T09:32:17.444Z</time></trkpt><trkpt lat="44.8721183" lon="7.8002583"><ele>244.85714285714286</ele><time>2026-04-11T09:32:18.444Z</time></trkpt><trkpt lat="44.8721817" lon="7.80028"><ele>245.0</ele><time>2026-04-11T09:32:19.443Z</time></trkpt><trkpt lat="44.8722483" lon="7.8003033"><ele>245.0</ele><time>2026-04-11T09:32:20.443Z</time></trkpt><trkpt lat="44.872315" lon="7.8003283"><ele>245.0</ele><time>2026-04-11T09:32:21.443Z</time></trkpt><trkpt lat="44.8723833" lon="7.80035"><ele>245.0</ele><time>2026-04-11T09:32:22.443Z</time></trkpt><trkpt lat="44.8724483" lon="7.8003733"><ele>245.0</ele><time>2026-04-11T09:32:23.443Z</time></trkpt><trkpt lat="44.872515" lon="7.8004"><ele>245.0</ele><time>2026-04-11T09:32:24.443Z</time></trkpt><trkpt lat="44.8725817" lon="7.8004267"><ele>245.0</ele><time>2026-04-11T09:32:25.443Z</time></trkpt><trkpt lat="44.87265" lon="7.800455"><ele>245.0</ele><time>2026-04-11T09:32:26.443Z</time></trkpt><trkpt lat="44.8727183" lon="7.8004767"><ele>245.0</ele><time>2026-04-11T09:32:27.443Z</time></trkpt><trkpt lat="44.8727867" lon="7.8005017"><ele>245.0</ele><time>2026-04-11T09:32:28.443Z</time></trkpt><trkpt lat="44.8728567" lon="7.800525"><ele>245.0</ele><time>2026-04-11T09:32:29.443Z</time></trkpt><trkpt lat="44.8729217" lon="7.8005483"><ele>245.0</ele><time>2026-04-11T09:32:30.443Z</time></trkpt><trkpt lat="44.8729867" lon="7.8005733"><ele>245.0</ele><time>2026-04-11T09:32:31.443Z</time></trkpt><trkpt lat="44.8730583" lon="7.8006"><ele>245.0</ele><time>2026-04-11T09:32:32.443Z</time></trkpt><trkpt lat="44.87313" lon="7.8006283"><ele>245.0</ele><time>2026-04-11T09:32:33.443Z</time></trkpt><trkpt lat="44.8731967" lon="7.8006583"><ele>245.0</ele><time>2026-04-11T09:32:34.443Z</time></trkpt><trkpt lat="44.8732633" lon="7.8006833"><ele>245.0</ele><time>2026-04-11T09:32:35.443Z</time></trkpt><trkpt lat="44.8733283" lon="7.8007067"><ele>245.0</ele><time>2026-04-11T09:32:36.443Z</time></trkpt><trkpt lat="44.8733983" lon="7.800735"><ele>245.0</ele><time>2026-04-11T09:32:37.443Z</time></trkpt><trkpt lat="44.8734717" lon="7.8007567"><ele>245.0</ele><time>2026-04-11T09:32:38.443Z</time></trkpt><trkpt lat="44.8735433" lon="7.800775"><ele>245.0</ele><time>2026-04-11T09:32:39.443Z</time></trkpt><trkpt lat="44.8736117" lon="7.8007983"><ele>245.0</ele><time>2026-04-11T09:32:40.443Z</time></trkpt><trkpt lat="44.8736783" lon="7.8008183"><ele>245.0</ele><time>2026-04-11T09:32:41.443Z</time></trkpt><trkpt lat="44.8737467" lon="7.800845"><ele>245.0</ele><time>2026-04-11T09:32:42.443Z</time></trkpt><trkpt lat="44.8738133" lon="7.800875"><ele>245.0</ele><time>2026-04-11T09:32:43.443Z</time></trkpt><trkpt lat="44.8738783" lon="7.8009017"><ele>245.0</ele><time>2026-04-11T09:32:44.443Z</time></trkpt><trkpt lat="44.8739417" lon="7.800935"><ele>245.0</ele><time>2026-04-11T09:32:45.443Z</time></trkpt><trkpt lat="44.87401" lon="7.80096"><ele>245.0</ele><time>2026-04-11T09:32:46.443Z</time></trkpt><trkpt lat="44.87408" lon="7.80098"><ele>245.0</ele><time>2026-04-11T09:32:47.443Z</time></trkpt><trkpt lat="44.8741517" lon="7.801005"><ele>244.85714285714286</ele><time>2026-04-11T09:32:48.443Z</time></trkpt><trkpt lat="44.8742233" lon="7.80103"><ele>244.71428571428572</ele><time>2026-04-11T09:32:49.443Z</time></trkpt><trkpt lat="44.8742983" lon="7.8010517"><ele>244.57142857142856</ele><time>2026-04-11T09:32:50.443Z</time></trkpt><trkpt lat="44.8743683" lon="7.8010783"><ele>244.42857142857142</ele><time>2026-04-11T09:32:51.443Z</time></trkpt><trkpt lat="44.8744417" lon="7.8011033"><ele>244.28571428571428</ele><time>2026-04-11T09:32:52.443Z</time></trkpt><trkpt lat="44.87451" lon="7.8011267"><ele>244.1428571428571</ele><time>2026-04-11T09:32:53.443Z</time></trkpt><trkpt lat="44.8745767" lon="7.801155"><ele>243.99999999999997</ele><time>2026-04-11T09:32:54.443Z</time></trkpt><trkpt lat="44.8746433" lon="7.8011817"><ele>243.99999999999997</ele><time>2026-04-11T09:32:55.443Z</time></trkpt><trkpt lat="44.8747133" lon="7.8012067"><ele>244.0</ele><time>2026-04-11T09:32:56.443Z</time></trkpt><trkpt lat="44.8747817" lon="7.8012317"><ele>243.99999999999997</ele><time>2026-04-11T09:32:57.443Z</time></trkpt><trkpt lat="44.8748533" lon="7.8012533"><ele>243.99999999999997</ele><time>2026-04-11T09:32:58.443Z</time></trkpt><trkpt lat="44.8749217" lon="7.8012833"><ele>244.0</ele><time>2026-04-11T09:32:59.443Z</time></trkpt><trkpt lat="44.8749967" lon="7.8013083"><ele>243.99999999999997</ele><time>2026-04-11T09:33:00.443Z</time></trkpt><trkpt lat="44.8750667" lon="7.80133"><ele>243.99999999999997</ele><time>2026-04-11T09:33:01.443Z</time></trkpt><trkpt lat="44.875135" lon="7.8013567"><ele>243.99999999999997</ele><time>2026-04-11T09:33:02.443Z</time></trkpt><trkpt lat="44.8752133" lon="7.8013867"><ele>244.0</ele><time>2026-04-11T09:33:03.443Z</time></trkpt><trkpt lat="44.8752833" lon="7.8014117"><ele>244.0</ele><time>2026-04-11T09:33:04.443Z</time></trkpt><trkpt lat="44.8753533" lon="7.801435"><ele>244.0</ele><time>2026-04-11T09:33:05.443Z</time></trkpt><trkpt lat="44.8754283" lon="7.8014617"><ele>243.99999999999997</ele><time>2026-04-11T09:33:06.443Z</time></trkpt><trkpt lat="44.875505" lon="7.8014833"><ele>244.0</ele><time>2026-04-11T09:33:07.443Z</time></trkpt><trkpt lat="44.87558" lon="7.8015117"><ele>243.99999999999997</ele><time>2026-04-11T09:33:08.443Z</time></trkpt><trkpt lat="44.8756583" lon="7.80154"><ele>244.0</ele><time>2026-04-11T09:33:09.443Z</time></trkpt><trkpt lat="44.875735" lon="7.80156"><ele>243.99999999999997</ele><time>2026-04-11T09:33:10.443Z</time></trkpt><trkpt lat="44.8758067" lon="7.801585"><ele>243.99999999999997</ele><time>2026-04-11T09:33:11.443Z</time></trkpt><trkpt lat="44.8758783" lon="7.8016117"><ele>244.0</ele><time>2026-04-11T09:33:12.444Z</time></trkpt><trkpt lat="44.8759467" lon="7.8016417"><ele>243.99999999999997</ele><time>2026-04-11T09:33:13.443Z</time></trkpt><trkpt lat="44.8760117" lon="7.8016767"><ele>243.99999999999997</ele><time>2026-04-11T09:33:14.443Z</time></trkpt><trkpt lat="44.87608" lon="7.8017017"><ele>243.85714285714283</ele><time>2026-04-11T09:33:15.443Z</time></trkpt><trkpt lat="44.8761533" lon="7.8017283"><ele>243.71428571428572</ele><time>2026-04-11T09:33:16.443Z</time></trkpt><trkpt lat="44.8762267" lon="7.80175"><ele>243.57142857142856</ele><time>2026-04-11T09:33:17.443Z</time></trkpt><trkpt lat="44.8762983" lon="7.8017667"><ele>243.42857142857142</ele><time>2026-04-11T09:33:18.443Z</time></trkpt><trkpt lat="44.8763717" lon="7.8017867"><ele>243.28571428571428</ele><time>2026-04-11T09:33:19.443Z</time></trkpt><trkpt lat="44.8764417" lon="7.8018167"><ele>243.14285714285714</ele><time>2026-04-11T09:33:20.443Z</time></trkpt><trkpt lat="44.87651" lon="7.80184"><ele>243.0</ele><time>2026-04-11T09:33:21.443Z</time></trkpt><trkpt lat="44.87658" lon="7.8018667"><ele>242.83333333333334</ele><time>2026-04-11T09:33:22.443Z</time></trkpt><trkpt lat="44.8766517" lon="7.8018867"><ele>242.66666666666669</ele><time>2026-04-11T09:33:23.443Z</time></trkpt><trkpt lat="44.87673" lon="7.801915"><ele>242.5</ele><time>2026-04-11T09:33:24.443Z</time></trkpt><trkpt lat="44.8768067" lon="7.8019367"><ele>242.33333333333334</ele><time>2026-04-11T09:33:25.443Z</time></trkpt><trkpt lat="44.876885" lon="7.801965"><ele>242.16666666666669</ele><time>2026-04-11T09:33:26.443Z</time></trkpt><trkpt lat="44.8769567" lon="7.80199"><ele>242.0</ele><time>2026-04-11T09:33:27.444Z</time></trkpt><trkpt lat="44.8770283" lon="7.8020183"><ele>242.28571428571428</ele><time>2026-04-11T09:33:28.443Z</time></trkpt><trkpt lat="44.8770983" lon="7.8020467"><ele>242.57142857142856</ele><time>2026-04-11T09:33:29.443Z</time></trkpt><trkpt lat="44.877175" lon="7.8020733"><ele>242.85714285714283</ele><time>2026-04-11T09:33:30.443Z</time></trkpt><trkpt lat="44.8772483" lon="7.8021"><ele>243.1428571428571</ele><time>2026-04-11T09:33:31.443Z</time></trkpt><trkpt lat="44.8773183" lon="7.80212"><ele>243.42857142857142</ele><time>2026-04-11T09:33:32.443Z</time></trkpt><trkpt lat="44.8773817" lon="7.8021483"><ele>243.71428571428567</ele><time>2026-04-11T09:33:33.443Z</time></trkpt><trkpt lat="44.8774433" lon="7.80218"><ele>243.99999999999997</ele><time>2026-04-11T09:33:34.443Z</time></trkpt><trkpt lat="44.8775133" lon="7.80221"><ele>243.99999999999997</ele><time>2026-04-11T09:33:35.443Z</time></trkpt><trkpt lat="44.8775833" lon="7.8022383"><ele>244.0</ele><time>2026-04-11T09:33:36.443Z</time></trkpt><trkpt lat="44.8776517" lon="7.802265"><ele>243.99999999999997</ele><time>2026-04-11T09:33:37.443Z</time></trkpt><trkpt lat="44.8777233" lon="7.8022933"><ele>243.99999999999997</ele><time>2026-04-11T09:33:38.443Z</time></trkpt><trkpt lat="44.8777983" lon="7.802315"><ele>244.0</ele><time>2026-04-11T09:33:39.443Z</time></trkpt><trkpt lat="44.8778683" lon="7.8023417"><ele>243.99999999999997</ele><time>2026-04-11T09:33:40.443Z</time></trkpt><trkpt lat="44.8779433" lon="7.8023633"><ele>243.99999999999997</ele><time>2026-04-11T09:33:41.443Z</time></trkpt><trkpt lat="44.8780167" lon="7.8023883"><ele>243.85714285714283</ele><time>2026-04-11T09:33:42.443Z</time></trkpt><trkpt lat="44.8780833" lon="7.802415"><ele>243.71428571428572</ele><time>2026-04-11T09:33:43.443Z</time></trkpt><trkpt lat="44.878155" lon="7.8024433"><ele>243.57142857142856</ele><time>2026-04-11T09:33:44.443Z</time></trkpt><trkpt lat="44.8782267" lon="7.80247"><ele>243.42857142857142</ele><time>2026-04-11T09:33:45.443Z</time></trkpt><trkpt lat="44.8782983" lon="7.802495"><ele>243.28571428571428</ele><time>2026-04-11T09:33:46.443Z</time></trkpt><trkpt lat="44.878375" lon="7.8025117"><ele>243.14285714285714</ele><time>2026-04-11T09:33:47.443Z</time></trkpt><trkpt lat="44.878445" lon="7.8025367"><ele>243.0</ele><time>2026-04-11T09:33:48.443Z</time></trkpt><trkpt lat="44.87852" lon="7.802565"><ele>243.0</ele><time>2026-04-11T09:33:49.443Z</time></trkpt><trkpt lat="44.8785917" lon="7.80259"><ele>243.0</ele><time>2026-04-11T09:33:50.443Z</time></trkpt><trkpt lat="44.878665" lon="7.8026133"><ele>243.0</ele><time>2026-04-11T09:33:51.443Z</time></trkpt><trkpt lat="44.8787267" lon="7.80264"><ele>243.0</ele><time>2026-04-11T09:33:52.443Z</time></trkpt><trkpt lat="44.8787933" lon="7.8026683"><ele>243.0</ele><time>2026-04-11T09:33:53.443Z</time></trkpt><trkpt lat="44.8788583" lon="7.802695"><ele>243.0</ele><time>2026-04-11T09:33:54.444Z</time></trkpt><trkpt lat="44.8789283" lon="7.8027183"><ele>243.0</ele><time>2026-04-11T09:33:55.443Z</time></trkpt><trkpt lat="44.8789983" lon="7.80275"><ele>243.0</ele><time>2026-04-11T09:33:56.443Z</time></trkpt><trkpt lat="44.879065" lon="7.802775"><ele>243.0</ele><time>2026-04-11T09:33:57.443Z</time></trkpt><trkpt lat="44.879135" lon="7.8028017"><ele>243.0</ele><time>2026-04-11T09:33:58.443Z</time></trkpt><trkpt lat="44.8792133" lon="7.802825"><ele>243.0</ele><time>2026-04-11T09:33:59.443Z</time></trkpt><trkpt lat="44.87928" lon="7.80285"><ele>243.0</ele><time>2026-04-11T09:34:00.443Z</time></trkpt><trkpt lat="44.8793483" lon="7.80287"><ele>243.0</ele><time>2026-04-11T09:34:01.443Z</time></trkpt><trkpt lat="44.879415" lon="7.802895"><ele>243.0</ele><time>2026-04-11T09:34:02.443Z</time></trkpt><trkpt lat="44.87949" lon="7.80292"><ele>243.14285714285714</ele><time>2026-04-11T09:34:03.443Z</time></trkpt><trkpt lat="44.87956" lon="7.802945"><ele>243.28571428571428</ele><time>2026-04-11T09:34:04.443Z</time></trkpt><trkpt lat="44.8796317" lon="7.80297"><ele>243.42857142857142</ele><time>2026-04-11T09:34:05.443Z</time></trkpt><trkpt lat="44.879705" lon="7.802995"><ele>243.57142857142856</ele><time>2026-04-11T09:34:06.443Z</time></trkpt><trkpt lat="44.8797717" lon="7.80303"><ele>243.71428571428572</ele><time>2026-04-11T09:34:07.443Z</time></trkpt><trkpt lat="44.8798417" lon="7.80306"><ele>243.85714285714283</ele><time>2026-04-11T09:34:08.443Z</time></trkpt><trkpt lat="44.879915" lon="7.803085"><ele>243.99999999999997</ele><time>2026-04-11T09:34:09.443Z</time></trkpt><trkpt lat="44.8799883" lon="7.8031067"><ele>243.99999999999997</ele><time>2026-04-11T09:34:10.443Z</time></trkpt><trkpt lat="44.88006" lon="7.8031283"><ele>244.0</ele><time>2026-04-11T09:34:11.443Z</time></trkpt><trkpt lat="44.8801333" lon="7.80316"><ele>243.99999999999997</ele><time>2026-04-11T09:34:12.443Z</time></trkpt><trkpt lat="44.8802017" lon="7.80319"><ele>243.99999999999997</ele><time>2026-04-11T09:34:13.443Z</time></trkpt><trkpt lat="44.88027" lon="7.803215"><ele>244.0</ele><time>2026-04-11T09:34:14.443Z</time></trkpt><trkpt lat="44.8803383" lon="7.80324"><ele>243.99999999999997</ele><time>2026-04-11T09:34:15.444Z</time></trkpt><trkpt lat="44.88041" lon="7.8032633"><ele>243.99999999999997</ele><time>2026-04-11T09:34:16.443Z</time></trkpt><trkpt lat="44.8804817" lon="7.803285"><ele>243.99999999999997</ele><time>2026-04-11T09:34:17.443Z</time></trkpt><trkpt lat="44.8805517" lon="7.80331"><ele>244.0</ele><time>2026-04-11T09:34:18.443Z</time></trkpt><trkpt lat="44.880625" lon="7.8033367"><ele>243.99999999999997</ele><time>2026-04-11T09:34:19.444Z</time></trkpt><trkpt lat="44.8806933" lon="7.8033717"><ele>243.99999999999997</ele><time>2026-04-11T09:34:20.443Z</time></trkpt><trkpt lat="44.8807583" lon="7.803405"><ele>244.0</ele><time>2026-04-11T09:34:21.443Z</time></trkpt><trkpt lat="44.8808317" lon="7.803435"><ele>243.99999999999997</ele><time>2026-04-11T09:34:22.443Z</time></trkpt><trkpt lat="44.8809067" lon="7.803465"><ele>243.99999999999997</ele><time>2026-04-11T09:34:23.443Z</time></trkpt><trkpt lat="44.8809833" lon="7.8034867"><ele>243.57142857142856</ele><time>2026-04-11T09:34:24.443Z</time></trkpt><trkpt lat="44.8810533" lon="7.80351"><ele>243.14285714285714</ele><time>2026-04-11T09:34:25.443Z</time></trkpt><trkpt lat="44.8811183" lon="7.8035283"><ele>242.71428571428572</ele><time>2026-04-11T09:34:26.443Z</time></trkpt><trkpt lat="44.8811833" lon="7.8035517"><ele>242.28571428571428</ele><time>2026-04-11T09:34:27.443Z</time></trkpt><trkpt lat="44.8812533" lon="7.803575"><ele>241.8571428571429</ele><time>2026-04-11T09:34:28.443Z</time></trkpt><trkpt lat="44.881325" lon="7.8035933"><ele>241.42857142857144</ele><time>2026-04-11T09:34:29.443Z</time></trkpt><trkpt lat="44.8814017" lon="7.8036183"><ele>241.0</ele><time>2026-04-11T09:34:30.443Z</time></trkpt><trkpt lat="44.881475" lon="7.8036483"><ele>241.0</ele><time>2026-04-11T09:34:31.443Z</time></trkpt><trkpt lat="44.8815467" lon="7.80368"><ele>241.00000000000003</ele><time>2026-04-11T09:34:32.443Z</time></trkpt><trkpt lat="44.88162" lon="7.803705"><ele>241.0</ele><time>2026-04-11T09:34:33.443Z</time></trkpt><trkpt lat="44.8816933" lon="7.8037283"><ele>241.0</ele><time>2026-04-11T09:34:34.444Z</time></trkpt><trkpt lat="44.881765" lon="7.8037517"><ele>241.00000000000003</ele><time>2026-04-11T09:34:35.443Z</time></trkpt><trkpt lat="44.8818283" lon="7.803775"><ele>241.0</ele><time>2026-04-11T09:34:36.443Z</time></trkpt><trkpt lat="44.8818983" lon="7.8037983"><ele>241.0</ele><time>2026-04-11T09:34:37.443Z</time></trkpt><trkpt lat="44.8819683" lon="7.803825"><ele>240.85714285714286</ele><time>2026-04-11T09:34:38.443Z</time></trkpt><trkpt lat="44.88204" lon="7.8038483"><ele>240.71428571428572</ele><time>2026-04-11T09:34:39.443Z</time></trkpt><trkpt lat="44.8821117" lon="7.803865"><ele>240.57142857142858</ele><time>2026-04-11T09:34:40.443Z</time></trkpt><trkpt lat="44.8821833" lon="7.8038917"><ele>240.42857142857144</ele><time>2026-04-11T09:34:41.443Z</time></trkpt><trkpt lat="44.882255" lon="7.8039133"><ele>240.28571428571428</ele><time>2026-04-11T09:34:42.443Z</time></trkpt><trkpt lat="44.882325" lon="7.80394"><ele>240.14285714285717</ele><time>2026-04-11T09:34:43.443Z</time></trkpt><trkpt lat="44.88239" lon="7.8039733"><ele>240.0</ele><time>2026-04-11T09:34:44.443Z</time></trkpt><trkpt lat="44.88246" lon="7.8041"><ele>240.0</ele><time>2026-04-11T09:34:46.443Z</time></trkpt><trkpt lat="44.88245" lon="7.8041917"><ele>240.0</ele><time>2026-04-11T09:34:47.443Z</time></trkpt><trkpt lat="44.882425" lon="7.8042867"><ele>240.0</ele><time>2026-04-11T09:34:48.443Z</time></trkpt><trkpt lat="44.8824067" lon="7.80438"><ele>240.0</ele><time>2026-04-11T09:34:49.443Z</time></trkpt><trkpt lat="44.8823833" lon="7.804475"><ele>240.0</ele><time>2026-04-11T09:34:50.443Z</time></trkpt><trkpt lat="44.8823633" lon="7.804565"><ele>240.0</ele><time>2026-04-11T09:34:51.443Z</time></trkpt><trkpt lat="44.8823467" lon="7.804655"><ele>240.0</ele><time>2026-04-11T09:34:52.443Z</time></trkpt><trkpt lat="44.88233" lon="7.804745"><ele>240.14285714285717</ele><time>2026-04-11T09:34:53.444Z</time></trkpt><trkpt lat="44.8823117" lon="7.80484"><ele>240.28571428571428</ele><time>2026-04-11T09:34:54.443Z</time></trkpt><trkpt lat="44.8822967" lon="7.80493"><ele>240.42857142857144</ele><time>2026-04-11T09:34:55.443Z</time></trkpt><trkpt lat="44.8822833" lon="7.80502"><ele>240.57142857142858</ele><time>2026-04-11T09:34:56.443Z</time></trkpt><trkpt lat="44.882265" lon="7.8051083"><ele>240.71428571428572</ele><time>2026-04-11T09:34:57.443Z</time></trkpt><trkpt lat="44.8822467" lon="7.805195"><ele>240.85714285714286</ele><time>2026-04-11T09:34:58.443Z</time></trkpt><trkpt lat="44.8822267" lon="7.8052867"><ele>241.0</ele><time>2026-04-11T09:34:59.443Z</time></trkpt><trkpt lat="44.8822083" lon="7.805375"><ele>241.14285714285717</ele><time>2026-04-11T09:35:00.443Z</time></trkpt><trkpt lat="44.8821917" lon="7.8054667"><ele>241.2857142857143</ele><time>2026-04-11T09:35:01.444Z</time></trkpt><trkpt lat="44.88218" lon="7.80556"><ele>241.42857142857144</ele><time>2026-04-11T09:35:02.443Z</time></trkpt><trkpt lat="44.88217" lon="7.80565"><ele>241.57142857142856</ele><time>2026-04-11T09:35:03.443Z</time></trkpt><trkpt lat="44.882155" lon="7.8057367"><ele>241.7142857142857</ele><time>2026-04-11T09:35:04.443Z</time></trkpt><trkpt lat="44.8821433" lon="7.8058267"><ele>241.85714285714283</ele><time>2026-04-11T09:35:05.443Z</time></trkpt><trkpt lat="44.88213" lon="7.805915"><ele>242.0</ele><time>2026-04-11T09:35:06.443Z</time></trkpt><trkpt lat="44.8821133" lon="7.8060017"><ele>243.0</ele><time>2026-04-11T09:35:07.443Z</time></trkpt><trkpt lat="44.8820967" lon="7.8060883"><ele>244.0</ele><time>2026-04-11T09:35:08.443Z</time></trkpt><trkpt lat="44.88206" lon="7.8062533"><ele>245.0</ele><time>2026-04-11T09:35:10.444Z</time></trkpt><trkpt lat="44.88203" lon="7.8064133"><ele>246.0</ele><time>2026-04-11T09:35:12.443Z</time></trkpt><trkpt lat="44.882" lon="7.8065683"><ele>247.0</ele><time>2026-04-11T09:35:14.443Z</time></trkpt><trkpt lat="44.8819733" lon="7.8067133"><ele>247.8</ele><time>2026-04-11T09:35:16.443Z</time></trkpt><trkpt lat="44.88195" lon="7.806845"><ele>248.6</ele><time>2026-04-11T09:35:18.443Z</time></trkpt><trkpt lat="44.8819233" lon="7.8069783"><ele>249.40000000000003</ele><time>2026-04-11T09:35:20.443Z</time></trkpt><trkpt lat="44.8818967" lon="7.8070983"><ele>250.20000000000002</ele><time>2026-04-11T09:35:22.444Z</time></trkpt><trkpt lat="44.88187" lon="7.8072183"><ele>251.0</ele><time>2026-04-11T09:35:24.443Z</time></trkpt><trkpt lat="44.8818533" lon="7.807335"><ele>251.0</ele><time>2026-04-11T09:35:26.443Z</time></trkpt><trkpt lat="44.8818133" lon="7.80745"><ele>251.00000000000003</ele><time>2026-04-11T09:35:28.443Z</time></trkpt><trkpt lat="44.8817607" lon="7.8075639"><ele>251.00000000000003</ele><time>2026-04-11T09:35:30.443Z</time></trkpt><trkpt lat="44.8816865" lon="7.8076523"><ele>251.0</ele><time>2026-04-11T09:35:32.444Z</time></trkpt><trkpt lat="44.8816022" lon="7.8077211"><ele>251.0</ele><time>2026-04-11T09:35:34.443Z</time></trkpt><trkpt lat="44.8815132" lon="7.8077858"><ele>252.0</ele><time>2026-04-11T09:35:36.443Z</time></trkpt><trkpt lat="44.881426" lon="7.8078507"><ele>253.00000000000003</ele><time>2026-04-11T09:35:38.443Z</time></trkpt><trkpt lat="44.8813353" lon="7.8079022"><ele>254.00000000000003</ele><time>2026-04-11T09:35:40.443Z</time></trkpt><trkpt lat="44.8812333" lon="7.8079683"><ele>255.0</ele><time>2026-04-11T09:35:42.443Z</time></trkpt><trkpt lat="44.8811367" lon="7.8080417"><ele>256.0</ele><time>2026-04-11T09:35:44.444Z</time></trkpt><trkpt lat="44.8810467" lon="7.80813"><ele>256.0</ele><time>2026-04-11T09:35:46.443Z</time></trkpt><trkpt lat="44.8809567" lon="7.8082133"><ele>256.0</ele><time>2026-04-11T09:35:48.443Z</time></trkpt><trkpt lat="44.8808633" lon="7.808305"><ele>256.0</ele><time>2026-04-11T09:35:50.443Z</time></trkpt><trkpt lat="44.8807817" lon="7.8084067"><ele>256.0</ele><time>2026-04-11T09:35:52.443Z</time></trkpt><trkpt lat="44.8807067" lon="7.8085017"><ele>256.0</ele><time>2026-04-11T09:35:54.444Z</time></trkpt><trkpt lat="44.88064" lon="7.8086"><ele>256.5</ele><time>2026-04-11T09:35:56.443Z</time></trkpt><trkpt lat="44.8805683" lon="7.808705"><ele>257.0</ele><time>2026-04-11T09:35:58.443Z</time></trkpt><trkpt lat="44.8804983" lon="7.80882"><ele>257.5</ele><time>2026-04-11T09:36:00.443Z</time></trkpt><trkpt lat="44.8804083" lon="7.8089367"><ele>258.0</ele><time>2026-04-11T09:36:02.443Z</time></trkpt><trkpt lat="44.8803217" lon="7.80906"><ele>258.0</ele><time>2026-04-11T09:36:04.443Z</time></trkpt><trkpt lat="44.88025" lon="7.809195"><ele>258.0</ele><time>2026-04-11T09:36:06.444Z</time></trkpt><trkpt lat="44.8801833" lon="7.8093283"><ele>258.0</ele><time>2026-04-11T09:36:08.443Z</time></trkpt><trkpt lat="44.8801183" lon="7.8094633"><ele>258.0</ele><time>2026-04-11T09:36:10.443Z</time></trkpt><trkpt lat="44.8800617" lon="7.8096083"><ele>258.0</ele><time>2026-04-11T09:36:12.443Z</time></trkpt><trkpt lat="44.88001" lon="7.8097567"><ele>258.0</ele><time>2026-04-11T09:36:14.443Z</time></trkpt><trkpt lat="44.8799533" lon="7.8099"><ele>258.0</ele><time>2026-04-11T09:36:16.443Z</time></trkpt><trkpt lat="44.879905" lon="7.8100567"><ele>258.0</ele><time>2026-04-11T09:36:18.443Z</time></trkpt><trkpt lat="44.879865" lon="7.8102183"><ele>258.0</ele><time>2026-04-11T09:36:20.443Z</time></trkpt><trkpt lat="44.87982" lon="7.8103683"><ele>258.0</ele><time>2026-04-11T09:36:22.443Z</time></trkpt><trkpt lat="44.8797767" lon="7.81052"><ele>258.0</ele><time>2026-04-11T09:36:24.443Z</time></trkpt><trkpt lat="44.87972" lon="7.8106833"><ele>258.0</ele><time>2026-04-11T09:36:26.444Z</time></trkpt><trkpt lat="44.8796833" lon="7.8107667"><ele>258.0</ele><time>2026-04-11T09:36:27.443Z</time></trkpt><trkpt lat="44.8796467" lon="7.8108417"><ele>258.0</ele><time>2026-04-11T09:36:28.443Z</time></trkpt><trkpt lat="44.87957" lon="7.8109683"><ele>258.0</ele><time>2026-04-11T09:36:30.443Z</time></trkpt><trkpt lat="44.87948" lon="7.811085"><ele>258.0</ele><time>2026-04-11T09:36:32.444Z</time></trkpt><trkpt lat="44.8794267" lon="7.811135"><ele>258.0</ele><time>2026-04-11T09:36:33.443Z</time></trkpt><trkpt lat="44.87937" lon="7.81118"><ele>258.0</ele><time>2026-04-11T09:36:34.443Z</time></trkpt><trkpt lat="44.87931" lon="7.8112167"><ele>258.0</ele><time>2026-04-11T09:36:35.443Z</time></trkpt><trkpt lat="44.879195" lon="7.8112983"><ele>258.2</ele><time>2026-04-11T09:36:37.443Z</time></trkpt><trkpt lat="44.8791367" lon="7.8113383"><ele>258.4</ele><time>2026-04-11T09:36:38.443Z</time></trkpt><trkpt lat="44.879025" lon="7.8114133"><ele>258.59999999999997</ele><time>2026-04-11T09:36:40.443Z</time></trkpt><trkpt lat="44.8789183" lon="7.8114933"><ele>258.8</ele><time>2026-04-11T09:36:42.444Z</time></trkpt><trkpt lat="44.8788633" lon="7.8115383"><ele>259.0</ele><time>2026-04-11T09:36:43.443Z</time></trkpt><trkpt lat="44.8787667" lon="7.8116417"><ele>259.0</ele><time>2026-04-11T09:36:45.443Z</time></trkpt><trkpt lat="44.87869" lon="7.8117733"><ele>259.0</ele><time>2026-04-11T09:36:47.443Z</time></trkpt><trkpt lat="44.8786217" lon="7.8118967"><ele>259.0</ele><time>2026-04-11T09:36:49.443Z</time></trkpt><trkpt lat="44.87856" lon="7.812045"><ele>259.0</ele><time>2026-04-11T09:36:51.443Z</time></trkpt><trkpt lat="44.8784933" lon="7.81219"><ele>258.85714285714283</ele><time>2026-04-11T09:36:53.443Z</time></trkpt><trkpt lat="44.8784533" lon="7.81226"><ele>258.7142857142857</ele><time>2026-04-11T09:36:54.443Z</time></trkpt><trkpt lat="44.8783833" lon="7.8124033"><ele>258.57142857142856</ele><time>2026-04-11T09:36:56.443Z</time></trkpt><trkpt lat="44.87834" lon="7.8124717"><ele>258.42857142857144</ele><time>2026-04-11T09:36:57.443Z</time></trkpt><trkpt lat="44.8782967" lon="7.8125367"><ele>258.2857142857143</ele><time>2026-04-11T09:36:58.443Z</time></trkpt><trkpt lat="44.8782467" lon="7.8125917"><ele>258.1428571428571</ele><time>2026-04-11T09:36:59.443Z</time></trkpt><trkpt lat="44.878195" lon="7.81265"><ele>258.0</ele><time>2026-04-11T09:37:00.443Z</time></trkpt><trkpt lat="44.8781433" lon="7.8127133"><ele>257.8</ele><time>2026-04-11T09:37:01.443Z</time></trkpt><trkpt lat="44.8780933" lon="7.8127767"><ele>257.6</ele><time>2026-04-11T09:37:02.443Z</time></trkpt><trkpt lat="44.87804" lon="7.81284"><ele>257.4</ele><time>2026-04-11T09:37:03.444Z</time></trkpt><trkpt lat="44.8779933" lon="7.8129"><ele>257.2</ele><time>2026-04-11T09:37:04.443Z</time></trkpt><trkpt lat="44.8779017" lon="7.81302"><ele>257.0</ele><time>2026-04-11T09:37:06.443Z</time></trkpt><trkpt lat="44.8778033" lon="7.8131367"><ele>257.0</ele><time>2026-04-11T09:37:08.443Z</time></trkpt><trkpt lat="44.8777533" lon="7.813205"><ele>257.0</ele><time>2026-04-11T09:37:09.443Z</time></trkpt><trkpt lat="44.8777033" lon="7.8132683"><ele>257.0</ele><time>2026-04-11T09:37:10.443Z</time></trkpt><trkpt lat="44.8776583" lon="7.8133383"><ele>257.0</ele><time>2026-04-11T09:37:11.443Z</time></trkpt><trkpt lat="44.87761" lon="7.8134033"><ele>257.0</ele><time>2026-04-11T09:37:12.443Z</time></trkpt><trkpt lat="44.8775633" lon="7.813475"><ele>257.0</ele><time>2026-04-11T09:37:13.443Z</time></trkpt><trkpt lat="44.8775183" lon="7.813545"><ele>257.0</ele><time>2026-04-11T09:37:14.443Z</time></trkpt><trkpt lat="44.87747" lon="7.8136117"><ele>257.42857142857144</ele><time>2026-04-11T09:37:15.443Z</time></trkpt><trkpt lat="44.8774233" lon="7.8136767"><ele>257.8571428571429</ele><time>2026-04-11T09:37:16.443Z</time></trkpt><trkpt lat="44.877375" lon="7.8137367"><ele>258.28571428571433</ele><time>2026-04-11T09:37:17.443Z</time></trkpt><trkpt lat="44.8773217" lon="7.8138017"><ele>258.7142857142857</ele><time>2026-04-11T09:37:18.443Z</time></trkpt><trkpt lat="44.8772667" lon="7.81387"><ele>259.14285714285717</ele><time>2026-04-11T09:37:19.443Z</time></trkpt><trkpt lat="44.87722" lon="7.8139367"><ele>259.5714285714286</ele><time>2026-04-11T09:37:20.443Z</time></trkpt><trkpt lat="44.8771733" lon="7.814005"><ele>260.0</ele><time>2026-04-11T09:37:21.443Z</time></trkpt><trkpt lat="44.8771267" lon="7.8140683"><ele>260.00000000000006</ele><time>2026-04-11T09:37:22.443Z</time></trkpt><trkpt lat="44.8770783" lon="7.8141333"><ele>260.0</ele><time>2026-04-11T09:37:23.443Z</time></trkpt><trkpt lat="44.8770267" lon="7.8141983"><ele>260.0</ele><time>2026-04-11T09:37:24.443Z</time></trkpt><trkpt lat="44.876975" lon="7.8142683"><ele>260.0</ele><time>2026-04-11T09:37:25.443Z</time></trkpt><trkpt lat="44.8769317" lon="7.8143333"><ele>260.0</ele><time>2026-04-11T09:37:26.443Z</time></trkpt><trkpt lat="44.87688" lon="7.8143967"><ele>260.00000000000006</ele><time>2026-04-11T09:37:27.443Z</time></trkpt><trkpt lat="44.8768283" lon="7.81446"><ele>260.0</ele><time>2026-04-11T09:37:28.443Z</time></trkpt><trkpt lat="44.8767767" lon="7.814525"><ele>260.00000000000006</ele><time>2026-04-11T09:37:29.443Z</time></trkpt><trkpt lat="44.876725" lon="7.814595"><ele>260.0</ele><time>2026-04-11T09:37:30.443Z</time></trkpt><trkpt lat="44.8766767" lon="7.81466"><ele>260.0</ele><time>2026-04-11T09:37:31.443Z</time></trkpt><trkpt lat="44.8766233" lon="7.8147267"><ele>260.0</ele><time>2026-04-11T09:37:32.443Z</time></trkpt><trkpt lat="44.8765767" lon="7.8147933"><ele>260.0</ele><time>2026-04-11T09:37:33.443Z</time></trkpt><trkpt lat="44.8765283" lon="7.8148567"><ele>260.00000000000006</ele><time>2026-04-11T09:37:34.443Z</time></trkpt><trkpt lat="44.876475" lon="7.8149217"><ele>260.0</ele><time>2026-04-11T09:37:35.443Z</time></trkpt><trkpt lat="44.8764217" lon="7.81499"><ele>260.00000000000006</ele><time>2026-04-11T09:37:36.443Z</time></trkpt><trkpt lat="44.8763717" lon="7.8150567"><ele>260.0</ele><time>2026-04-11T09:37:37.443Z</time></trkpt><trkpt lat="44.8763233" lon="7.8151233"><ele>260.0</ele><time>2026-04-11T09:37:38.443Z</time></trkpt><trkpt lat="44.87627" lon="7.8151833"><ele>260.0</ele><time>2026-04-11T09:37:39.443Z</time></trkpt><trkpt lat="44.8762133" lon="7.81524"><ele>260.0</ele><time>2026-04-11T09:37:40.443Z</time></trkpt><trkpt lat="44.8761583" lon="7.8153033"><ele>260.00000000000006</ele><time>2026-04-11T09:37:41.443Z</time></trkpt><trkpt lat="44.8761067" lon="7.815365"><ele>260.0</ele><time>2026-04-11T09:37:42.443Z</time></trkpt><trkpt lat="44.8760533" lon="7.8154217"><ele>259.7142857142857</ele><time>2026-04-11T09:37:43.443Z</time></trkpt><trkpt lat="44.8759967" lon="7.81548"><ele>259.42857142857144</ele><time>2026-04-11T09:37:44.444Z</time></trkpt><trkpt lat="44.87594" lon="7.8155383"><ele>259.1428571428571</ele><time>2026-04-11T09:37:45.443Z</time></trkpt><trkpt lat="44.8758833" lon="7.8155983"><ele>258.8571428571429</ele><time>2026-04-11T09:37:46.443Z</time></trkpt><trkpt lat="44.8758267" lon="7.8156617"><ele>258.57142857142856</ele><time>2026-04-11T09:37:47.443Z</time></trkpt><trkpt lat="44.8757667" lon="7.8157183"><ele>258.2857142857143</ele><time>2026-04-11T09:37:48.443Z</time></trkpt><trkpt lat="44.8757033" lon="7.8157717"><ele>258.0</ele><time>2026-04-11T09:37:49.443Z</time></trkpt><trkpt lat="44.8756433" lon="7.8158283"><ele>257.99999999999994</ele><time>2026-04-11T09:37:50.443Z</time></trkpt><trkpt lat="44.8755833" lon="7.815885"><ele>258.0</ele><time>2026-04-11T09:37:51.443Z</time></trkpt><trkpt lat="44.87553" lon="7.81594"><ele>258.0</ele><time>2026-04-11T09:37:52.443Z</time></trkpt><trkpt lat="44.8754717" lon="7.816005"><ele>258.0</ele><time>2026-04-11T09:37:53.443Z</time></trkpt><trkpt lat="44.8754133" lon="7.8160683"><ele>258.0</ele><time>2026-04-11T09:37:54.443Z</time></trkpt><trkpt lat="44.8753483" lon="7.8161333"><ele>257.99999999999994</ele><time>2026-04-11T09:37:55.443Z</time></trkpt><trkpt lat="44.875285" lon="7.8161917"><ele>258.0</ele><time>2026-04-11T09:37:56.443Z</time></trkpt><trkpt lat="44.8752233" lon="7.8162517"><ele>257.6666666666667</ele><time>2026-04-11T09:37:57.443Z</time></trkpt><trkpt lat="44.875165" lon="7.8163117"><ele>257.3333333333333</ele><time>2026-04-11T09:37:58.443Z</time></trkpt><trkpt lat="44.8751067" lon="7.816375"><ele>257.0</ele><time>2026-04-11T09:37:59.443Z</time></trkpt><trkpt lat="44.8750433" lon="7.8164367"><ele>256.66666666666663</ele><time>2026-04-11T09:38:00.443Z</time></trkpt><trkpt lat="44.8749833" lon="7.8164983"><ele>256.3333333333333</ele><time>2026-04-11T09:38:01.443Z</time></trkpt><trkpt lat="44.8749183" lon="7.81656"><ele>256.0</ele><time>2026-04-11T09:38:02.443Z</time></trkpt><trkpt lat="44.87486" lon="7.816625"><ele>256.1428571428571</ele><time>2026-04-11T09:38:03.443Z</time></trkpt><trkpt lat="44.8748033" lon="7.8166917"><ele>256.2857142857143</ele><time>2026-04-11T09:38:04.444Z</time></trkpt><trkpt lat="44.8747433" lon="7.8167567"><ele>256.42857142857144</ele><time>2026-04-11T09:38:05.443Z</time></trkpt><trkpt lat="44.8746833" lon="7.8168167"><ele>256.57142857142856</ele><time>2026-04-11T09:38:06.443Z</time></trkpt><trkpt lat="44.874625" lon="7.8168817"><ele>256.7142857142857</ele><time>2026-04-11T09:38:07.443Z</time></trkpt><trkpt lat="44.8745683" lon="7.816945"><ele>256.85714285714283</ele><time>2026-04-11T09:38:08.443Z</time></trkpt><trkpt lat="44.8745067" lon="7.8170083"><ele>257.0</ele><time>2026-04-11T09:38:09.443Z</time></trkpt><trkpt lat="44.8744483" lon="7.8170683"><ele>257.0</ele><time>2026-04-11T09:38:10.443Z</time></trkpt><trkpt lat="44.87439" lon="7.8171267"><ele>257.0</ele><time>2026-04-11T09:38:11.443Z</time></trkpt><trkpt lat="44.874335" lon="7.8171883"><ele>257.0</ele><time>2026-04-11T09:38:12.443Z</time></trkpt><trkpt lat="44.8742783" lon="7.8172533"><ele>257.0</ele><time>2026-04-11T09:38:13.443Z</time></trkpt><trkpt lat="44.87422" lon="7.81732"><ele>257.0</ele><time>2026-04-11T09:38:14.443Z</time></trkpt><trkpt lat="44.8741683" lon="7.81739"><ele>257.0</ele><time>2026-04-11T09:38:15.443Z</time></trkpt><trkpt lat="44.874115" lon="7.8174533"><ele>257.0</ele><time>2026-04-11T09:38:16.443Z</time></trkpt><trkpt lat="44.874065" lon="7.817515"><ele>257.7142857142857</ele><time>2026-04-11T09:38:17.443Z</time></trkpt><trkpt lat="44.8740117" lon="7.8175733"><ele>258.42857142857144</ele><time>2026-04-11T09:38:18.443Z</time></trkpt><trkpt lat="44.87396" lon="7.8176267"><ele>259.14285714285717</ele><time>2026-04-11T09:38:19.443Z</time></trkpt><trkpt lat="44.87391" lon="7.8176883"><ele>259.8571428571429</ele><time>2026-04-11T09:38:20.443Z</time></trkpt><trkpt lat="44.8738667" lon="7.81776"><ele>260.5714285714286</ele><time>2026-04-11T09:38:21.443Z</time></trkpt><trkpt lat="44.8738317" lon="7.8178433"><ele>261.2857142857143</ele><time>2026-04-11T09:38:22.443Z</time></trkpt><trkpt lat="44.8738067" lon="7.8179383"><ele>262.0</ele><time>2026-04-11T09:38:23.443Z</time></trkpt><trkpt lat="44.873795" lon="7.818035"><ele>262.0</ele><time>2026-04-11T09:38:24.443Z</time></trkpt><trkpt lat="44.873795" lon="7.81814"><ele>262.0</ele><time>2026-04-11T09:38:25.443Z</time></trkpt><trkpt lat="44.87381" lon="7.8182367"><ele>262.0</ele><time>2026-04-11T09:38:26.443Z</time></trkpt><trkpt lat="44.87383" lon="7.8183333"><ele>262.0</ele><time>2026-04-11T09:38:27.443Z</time></trkpt><trkpt lat="44.8738567" lon="7.81842"><ele>262.0</ele><time>2026-04-11T09:38:28.443Z</time></trkpt><trkpt lat="44.8738783" lon="7.8185117"><ele>262.0</ele><time>2026-04-11T09:38:29.443Z</time></trkpt><trkpt lat="44.873895" lon="7.818605"><ele>262.0</ele><time>2026-04-11T09:38:30.443Z</time></trkpt><trkpt lat="44.87391" lon="7.8187067"><ele>261.8571428571429</ele><time>2026-04-11T09:38:31.443Z</time></trkpt><trkpt lat="44.8739283" lon="7.8188017"><ele>261.7142857142857</ele><time>2026-04-11T09:38:32.443Z</time></trkpt><trkpt lat="44.8739517" lon="7.818895"><ele>261.57142857142856</ele><time>2026-04-11T09:38:33.443Z</time></trkpt><trkpt lat="44.8739767" lon="7.8189917"><ele>261.42857142857144</ele><time>2026-04-11T09:38:34.443Z</time></trkpt><trkpt lat="44.873995" lon="7.819085"><ele>261.2857142857143</ele><time>2026-04-11T09:38:35.443Z</time></trkpt><trkpt lat="44.8740183" lon="7.8191883"><ele>261.14285714285717</ele><time>2026-04-11T09:38:36.443Z</time></trkpt><trkpt lat="44.8740417" lon="7.8192933"><ele>261.0</ele><time>2026-04-11T09:38:37.443Z</time></trkpt><trkpt lat="44.87406" lon="7.8194067"><ele>260.3333333333333</ele><time>2026-04-11T09:38:38.443Z</time></trkpt><trkpt lat="44.8740817" lon="7.8195217"><ele>259.6666666666667</ele><time>2026-04-11T09:38:39.443Z</time></trkpt><trkpt lat="44.8741033" lon="7.81964"><ele>259.0</ele><time>2026-04-11T09:38:40.443Z</time></trkpt><trkpt lat="44.874125" lon="7.819755"><ele>258.33333333333337</ele><time>2026-04-11T09:38:41.443Z</time></trkpt><trkpt lat="44.8741517" lon="7.8198717"><ele>257.6666666666667</ele><time>2026-04-11T09:38:42.443Z</time></trkpt><trkpt lat="44.87418" lon="7.8199933"><ele>257.0</ele><time>2026-04-11T09:38:43.443Z</time></trkpt><trkpt lat="44.8742017" lon="7.82011"><ele>256.1666666666667</ele><time>2026-04-11T09:38:44.443Z</time></trkpt><trkpt lat="44.8742267" lon="7.820225"><ele>255.33333333333334</ele><time>2026-04-11T09:38:45.443Z</time></trkpt><trkpt lat="44.8742517" lon="7.82034"><ele>254.5</ele><time>2026-04-11T09:38:46.443Z</time></trkpt><trkpt lat="44.8742783" lon="7.8204533"><ele>253.66666666666669</ele><time>2026-04-11T09:38:47.443Z</time></trkpt><trkpt lat="44.8743033" lon="7.820565"><ele>252.83333333333334</ele><time>2026-04-11T09:38:48.443Z</time></trkpt><trkpt lat="44.87433" lon="7.8206767"><ele>252.0</ele><time>2026-04-11T09:38:49.443Z</time></trkpt><trkpt lat="44.8743533" lon="7.820785"><ele>251.83333333333334</ele><time>2026-04-11T09:38:50.443Z</time></trkpt><trkpt lat="44.8743817" lon="7.8208983"><ele>251.66666666666669</ele><time>2026-04-11T09:38:51.443Z</time></trkpt><trkpt lat="44.8744067" lon="7.8210133"><ele>251.5</ele><time>2026-04-11T09:38:52.443Z</time></trkpt><trkpt lat="44.8744333" lon="7.8211333"><ele>251.33333333333334</ele><time>2026-04-11T09:38:53.444Z</time></trkpt><trkpt lat="44.8744583" lon="7.82124"><ele>251.16666666666669</ele><time>2026-04-11T09:38:54.443Z</time></trkpt><trkpt lat="44.874485" lon="7.821345"><ele>251.0</ele><time>2026-04-11T09:38:55.443Z</time></trkpt><trkpt lat="44.8745067" lon="7.8214583"><ele>251.00000000000003</ele><time>2026-04-11T09:38:56.443Z</time></trkpt><trkpt lat="44.8745283" lon="7.82157"><ele>251.0</ele><time>2026-04-11T09:38:57.443Z</time></trkpt><trkpt lat="44.8745467" lon="7.821685"><ele>251.0</ele><time>2026-04-11T09:38:58.443Z</time></trkpt><trkpt lat="44.87456" lon="7.8218017"><ele>251.0</ele><time>2026-04-11T09:38:59.443Z</time></trkpt><trkpt lat="44.8745633" lon="7.821925"><ele>251.00000000000003</ele><time>2026-04-11T09:39:00.443Z</time></trkpt><trkpt lat="44.8745617" lon="7.82204"><ele>251.0</ele><time>2026-04-11T09:39:01.443Z</time></trkpt><trkpt lat="44.8745633" lon="7.8221533"><ele>250.83333333333334</ele><time>2026-04-11T09:39:02.443Z</time></trkpt><trkpt lat="44.874565" lon="7.8222683"><ele>250.66666666666669</ele><time>2026-04-11T09:39:03.443Z</time></trkpt><trkpt lat="44.874565" lon="7.822385"><ele>250.5</ele><time>2026-04-11T09:39:04.443Z</time></trkpt><trkpt lat="44.87456" lon="7.822495"><ele>250.33333333333331</ele><time>2026-04-11T09:39:05.443Z</time></trkpt><trkpt lat="44.874555" lon="7.8226067"><ele>250.16666666666666</ele><time>2026-04-11T09:39:06.443Z</time></trkpt><trkpt lat="44.8745517" lon="7.8227133"><ele>250.0</ele><time>2026-04-11T09:39:07.443Z</time></trkpt><trkpt lat="44.8745483" lon="7.8228183"><ele>250.42857142857142</ele><time>2026-04-11T09:39:08.443Z</time></trkpt><trkpt lat="44.87455" lon="7.82292"><ele>250.8571428571429</ele><time>2026-04-11T09:39:09.443Z</time></trkpt><trkpt lat="44.8745517" lon="7.8230233"><ele>251.2857142857143</ele><time>2026-04-11T09:39:10.443Z</time></trkpt><trkpt lat="44.87456" lon="7.8231183"><ele>251.71428571428572</ele><time>2026-04-11T09:39:11.443Z</time></trkpt><trkpt lat="44.87457" lon="7.8232117"><ele>252.14285714285717</ele><time>2026-04-11T09:39:12.443Z</time></trkpt><trkpt lat="44.874585" lon="7.823305"><ele>252.5714285714286</ele><time>2026-04-11T09:39:13.443Z</time></trkpt><trkpt lat="44.874595" lon="7.8233933"><ele>253.00000000000003</ele><time>2026-04-11T09:39:14.443Z</time></trkpt><trkpt lat="44.8746283" lon="7.8235583"><ele>254.4</ele><time>2026-04-11T09:39:16.443Z</time></trkpt><trkpt lat="44.87466" lon="7.8237033"><ele>255.8</ele><time>2026-04-11T09:39:18.443Z</time></trkpt><trkpt lat="44.87469" lon="7.8238433"><ele>257.2</ele><time>2026-04-11T09:39:20.443Z</time></trkpt><trkpt lat="44.8747183" lon="7.8239667"><ele>258.6</ele><time>2026-04-11T09:39:22.443Z</time></trkpt><trkpt lat="44.87474" lon="7.8240933"><ele>260.0</ele><time>2026-04-11T09:39:24.443Z</time></trkpt><trkpt lat="44.8747817" lon="7.824215"><ele>260.8</ele><time>2026-04-11T09:39:26.443Z</time></trkpt><trkpt lat="44.874825" lon="7.8243483"><ele>261.6</ele><time>2026-04-11T09:39:28.443Z</time></trkpt><trkpt lat="44.8748767" lon="7.82448"><ele>262.4</ele><time>2026-04-11T09:39:30.443Z</time></trkpt><trkpt lat="44.8749217" lon="7.8245983"><ele>263.2</ele><time>2026-04-11T09:39:32.443Z</time></trkpt><trkpt lat="44.8749633" lon="7.8247167"><ele>264.0</ele><time>2026-04-11T09:39:34.443Z</time></trkpt><trkpt lat="44.8750067" lon="7.824825"><ele>264.0</ele><time>2026-04-11T09:39:36.443Z</time></trkpt><trkpt lat="44.875045" lon="7.8249283"><ele>264.0</ele><time>2026-04-11T09:39:38.443Z</time></trkpt><trkpt lat="44.875075" lon="7.8250417"><ele>264.0</ele><time>2026-04-11T09:39:40.443Z</time></trkpt><trkpt lat="44.87511" lon="7.8251733"><ele>264.0</ele><time>2026-04-11T09:39:42.443Z</time></trkpt><trkpt lat="44.8751567" lon="7.825305"><ele>264.0</ele><time>2026-04-11T09:39:44.443Z</time></trkpt><trkpt lat="44.8752117" lon="7.82543"><ele>264.0</ele><time>2026-04-11T09:39:46.443Z</time></trkpt><trkpt lat="44.875285" lon="7.8255383"><ele>264.0</ele><time>2026-04-11T09:39:48.443Z</time></trkpt><trkpt lat="44.8753633" lon="7.8256567"><ele>264.0</ele><time>2026-04-11T09:39:50.443Z</time></trkpt><trkpt lat="44.8754267" lon="7.8257817"><ele>264.0</ele><time>2026-04-11T09:39:52.443Z</time></trkpt><trkpt lat="44.8754733" lon="7.8259"><ele>264.0</ele><time>2026-04-11T09:39:54.443Z</time></trkpt><trkpt lat="44.8754867" lon="7.8260333"><ele>263.4</ele><time>2026-04-11T09:39:56.443Z</time></trkpt><trkpt lat="44.87546" lon="7.8262"><ele>262.79999999999995</ele><time>2026-04-11T09:39:58.443Z</time></trkpt><trkpt lat="44.8754167" lon="7.8263483"><ele>262.20000000000005</ele><time>2026-04-11T09:40:00.443Z</time></trkpt><trkpt lat="44.875385" lon="7.826495"><ele>261.6</ele><time>2026-04-11T09:40:02.443Z</time></trkpt><trkpt lat="44.8753567" lon="7.82663"><ele>261.0</ele><time>2026-04-11T09:40:04.443Z</time></trkpt><trkpt lat="44.875325" lon="7.82678"><ele>260.6</ele><time>2026-04-11T09:40:06.443Z</time></trkpt><trkpt lat="44.8752783" lon="7.8269233"><ele>260.20000000000005</ele><time>2026-04-11T09:40:08.443Z</time></trkpt><trkpt lat="44.875235" lon="7.827055"><ele>259.79999999999995</ele><time>2026-04-11T09:40:10.443Z</time></trkpt><trkpt lat="44.87519" lon="7.827175"><ele>259.4</ele><time>2026-04-11T09:40:12.443Z</time></trkpt><trkpt lat="44.8751367" lon="7.8272883"><ele>259.0</ele><time>2026-04-11T09:40:14.443Z</time></trkpt><trkpt lat="44.87508" lon="7.827415"><ele>259.8</ele><time>2026-04-11T09:40:16.444Z</time></trkpt><trkpt lat="44.874995" lon="7.8275333"><ele>260.59999999999997</ele><time>2026-04-11T09:40:18.443Z</time></trkpt><trkpt lat="44.8749383" lon="7.8276517"><ele>261.4</ele><time>2026-04-11T09:40:20.443Z</time></trkpt><trkpt lat="44.8749033" lon="7.8278"><ele>262.2</ele><time>2026-04-11T09:40:22.443Z</time></trkpt><trkpt lat="44.8748617" lon="7.8279367"><ele>263.0</ele><time>2026-04-11T09:40:24.443Z</time></trkpt><trkpt lat="44.8748083" lon="7.8280717"><ele>263.0</ele><time>2026-04-11T09:40:26.443Z</time></trkpt><trkpt lat="44.8747517" lon="7.8282067"><ele>263.0</ele><time>2026-04-11T09:40:28.444Z</time></trkpt><trkpt lat="44.8746917" lon="7.8283517"><ele>263.0</ele><time>2026-04-11T09:40:30.443Z</time></trkpt><trkpt lat="44.8746283" lon="7.8285033"><ele>263.0</ele><time>2026-04-11T09:40:32.443Z</time></trkpt><trkpt lat="44.8745617" lon="7.8286517"><ele>262.7142857142857</ele><time>2026-04-11T09:40:34.443Z</time></trkpt><trkpt lat="44.8745233" lon="7.828725"><ele>262.4285714285714</ele><time>2026-04-11T09:40:35.443Z</time></trkpt><trkpt lat="44.8744933" lon="7.8288067"><ele>262.1428571428571</ele><time>2026-04-11T09:40:36.443Z</time></trkpt><trkpt lat="44.8744583" lon="7.82889"><ele>261.85714285714283</ele><time>2026-04-11T09:40:37.443Z</time></trkpt><trkpt lat="44.8744267" lon="7.82897"><ele>261.57142857142856</ele><time>2026-04-11T09:40:38.443Z</time></trkpt><trkpt lat="44.87439" lon="7.829055"><ele>261.2857142857143</ele><time>2026-04-11T09:40:39.443Z</time></trkpt><trkpt lat="44.87435" lon="7.8291283"><ele>261.0</ele><time>2026-04-11T09:40:40.443Z</time></trkpt><trkpt lat="44.8743067" lon="7.8292067"><ele>261.42857142857144</ele><time>2026-04-11T09:40:41.443Z</time></trkpt><trkpt lat="44.8742617" lon="7.829285"><ele>261.85714285714283</ele><time>2026-04-11T09:40:42.443Z</time></trkpt><trkpt lat="44.874215" lon="7.8293617"><ele>262.2857142857143</ele><time>2026-04-11T09:40:43.444Z</time></trkpt><trkpt lat="44.8741667" lon="7.82943"><ele>262.7142857142857</ele><time>2026-04-11T09:40:44.443Z</time></trkpt><trkpt lat="44.87412" lon="7.829495"><ele>263.14285714285717</ele><time>2026-04-11T09:40:45.443Z</time></trkpt><trkpt lat="44.8740717" lon="7.82956"><ele>263.57142857142856</ele><time>2026-04-11T09:40:46.443Z</time></trkpt><trkpt lat="44.8740267" lon="7.82963"><ele>264.0</ele><time>2026-04-11T09:40:47.443Z</time></trkpt><trkpt lat="44.8739383" lon="7.829755"><ele>264.0</ele><time>2026-04-11T09:40:49.443Z</time></trkpt><trkpt lat="44.8738917" lon="7.8298233"><ele>264.0</ele><time>2026-04-11T09:40:50.443Z</time></trkpt><trkpt lat="44.87385" lon="7.8298933"><ele>264.0</ele><time>2026-04-11T09:40:51.443Z</time></trkpt><trkpt lat="44.873775" lon="7.83003"><ele>264.0</ele><time>2026-04-11T09:40:53.443Z</time></trkpt><trkpt lat="44.87374" lon="7.8301133"><ele>264.0</ele><time>2026-04-11T09:40:54.443Z</time></trkpt><trkpt lat="44.8736983" lon="7.8301967"><ele>264.0</ele><time>2026-04-11T09:40:55.443Z</time></trkpt><trkpt lat="44.8736633" lon="7.830275"><ele>263.8333333333333</ele><time>2026-04-11T09:40:56.443Z</time></trkpt><trkpt lat="44.8736283" lon="7.8303533"><ele>263.6666666666667</ele><time>2026-04-11T09:40:57.443Z</time></trkpt><trkpt lat="44.873595" lon="7.8304367"><ele>263.5</ele><time>2026-04-11T09:40:58.443Z</time></trkpt><trkpt lat="44.8735583" lon="7.8305133"><ele>263.33333333333337</ele><time>2026-04-11T09:40:59.443Z</time></trkpt><trkpt lat="44.8735017" lon="7.8306683"><ele>263.1666666666667</ele><time>2026-04-11T09:41:01.443Z</time></trkpt><trkpt lat="44.873465" lon="7.830825"><ele>263.0</ele><time>2026-04-11T09:41:03.443Z</time></trkpt><trkpt lat="44.87349" lon="7.83098"><ele>263.0</ele><time>2026-04-11T09:41:05.443Z</time></trkpt><trkpt lat="44.873575" lon="7.83109"><ele>263.0</ele><time>2026-04-11T09:41:07.443Z</time></trkpt><trkpt lat="44.8736817" lon="7.8311633"><ele>263.0</ele><time>2026-04-11T09:41:09.443Z</time></trkpt><trkpt lat="44.8737883" lon="7.8312467"><ele>263.0</ele><time>2026-04-11T09:41:11.443Z</time></trkpt><trkpt lat="44.8738867" lon="7.831345"><ele>263.0</ele><time>2026-04-11T09:41:13.443Z</time></trkpt><trkpt lat="44.87394" lon="7.8314867"><ele>263.0</ele><time>2026-04-11T09:41:15.443Z</time></trkpt><trkpt lat="44.8739017" lon="7.8316467"><ele>263.0</ele><time>2026-04-11T09:41:17.444Z</time></trkpt><trkpt lat="44.8738433" lon="7.8317817"><ele>263.0</ele><time>2026-04-11T09:41:19.443Z</time></trkpt><trkpt lat="44.873825" lon="7.831915"><ele>263.0</ele><time>2026-04-11T09:41:21.443Z</time></trkpt><trkpt lat="44.87389" lon="7.832005"><ele>263.33333333333337</ele><time>2026-04-11T09:41:23.443Z</time></trkpt><trkpt lat="44.8739733" lon="7.8320517"><ele>263.6666666666667</ele><time>2026-04-11T09:41:25.443Z</time></trkpt><trkpt lat="44.8740483" lon="7.83209"><ele>264.0</ele><time>2026-04-11T09:41:27.443Z</time></trkpt><trkpt lat="44.8741283" lon="7.8321483"><ele>264.3333333333333</ele><time>2026-04-11T09:41:29.443Z</time></trkpt><trkpt lat="44.8742217" lon="7.832195"><ele>264.66666666666663</ele><time>2026-04-11T09:41:31.443Z</time></trkpt><trkpt lat="44.874295" lon="7.8322317"><ele>265.0</ele><time>2026-04-11T09:41:33.443Z</time></trkpt><trkpt lat="44.8743683" lon="7.832285"><ele>265.0</ele><time>2026-04-11T09:41:35.443Z</time></trkpt><trkpt lat="44.87445" lon="7.8323317"><ele>265.0</ele><time>2026-04-11T09:41:37.443Z</time></trkpt><trkpt lat="44.8745267" lon="7.8323833"><ele>265.0</ele><time>2026-04-11T09:41:39.443Z</time></trkpt><trkpt lat="44.8745867" lon="7.83244"><ele>265.0</ele><time>2026-04-11T09:41:41.443Z</time></trkpt><trkpt lat="44.87466" lon="7.8324883"><ele>265.0</ele><time>2026-04-11T09:41:43.443Z</time></trkpt><trkpt lat="44.8747383" lon="7.8325433"><ele>265.0</ele><time>2026-04-11T09:41:45.443Z</time></trkpt><trkpt lat="44.8748183" lon="7.8326017"><ele>265.25</ele><time>2026-04-11T09:41:47.443Z</time></trkpt><trkpt lat="44.87491" lon="7.8326683"><ele>265.5</ele><time>2026-04-11T09:41:49.443Z</time></trkpt><trkpt lat="44.87502" lon="7.832725"><ele>265.75</ele><time>2026-04-11T09:41:51.443Z</time></trkpt><trkpt lat="44.8751283" lon="7.8327883"><ele>266.0</ele><time>2026-04-11T09:41:53.443Z</time></trkpt><trkpt lat="44.875245" lon="7.8328517"><ele>265.42857142857144</ele><time>2026-04-11T09:41:55.443Z</time></trkpt><trkpt lat="44.87531" lon="7.832885"><ele>264.8571428571429</ele><time>2026-04-11T09:41:56.443Z</time></trkpt><trkpt lat="44.8753717" lon="7.832915"><ele>264.2857142857143</ele><time>2026-04-11T09:41:57.443Z</time></trkpt><trkpt lat="44.8754317" lon="7.8329517"><ele>263.7142857142857</ele><time>2026-04-11T09:41:58.443Z</time></trkpt><trkpt lat="44.8754883" lon="7.832995"><ele>263.14285714285717</ele><time>2026-04-11T09:41:59.443Z</time></trkpt><trkpt lat="44.8755517" lon="7.83303"><ele>262.57142857142856</ele><time>2026-04-11T09:42:00.443Z</time></trkpt><trkpt lat="44.8756083" lon="7.83307"><ele>262.0</ele><time>2026-04-11T09:42:01.443Z</time></trkpt><trkpt lat="44.8756667" lon="7.8331117"><ele>262.0</ele><time>2026-04-11T09:42:02.443Z</time></trkpt><trkpt lat="44.8757283" lon="7.8331483"><ele>262.0</ele><time>2026-04-11T09:42:03.443Z</time></trkpt><trkpt lat="44.87579" lon="7.8331917"><ele>262.0</ele><time>2026-04-11T09:42:04.443Z</time></trkpt><trkpt lat="44.87585" lon="7.8332267"><ele>262.0</ele><time>2026-04-11T09:42:05.443Z</time></trkpt><trkpt lat="44.87591" lon="7.8332583"><ele>262.0</ele><time>2026-04-11T09:42:06.443Z</time></trkpt><trkpt lat="44.87602" lon="7.83333"><ele>262.0</ele><time>2026-04-11T09:42:08.443Z</time></trkpt><trkpt lat="44.8761383" lon="7.8334083"><ele>262.2857142857143</ele><time>2026-04-11T09:42:10.443Z</time></trkpt><trkpt lat="44.8762033" lon="7.8334467"><ele>262.5714285714286</ele><time>2026-04-11T09:42:11.443Z</time></trkpt><trkpt lat="44.8762667" lon="7.833485"><ele>262.8571428571429</ele><time>2026-04-11T09:42:12.443Z</time></trkpt><trkpt lat="44.87633" lon="7.8335283"><ele>263.14285714285717</ele><time>2026-04-11T09:42:13.443Z</time></trkpt><trkpt lat="44.8763883" lon="7.833565"><ele>263.42857142857144</ele><time>2026-04-11T09:42:14.443Z</time></trkpt><trkpt lat="44.8764517" lon="7.83361"><ele>263.7142857142857</ele><time>2026-04-11T09:42:15.444Z</time></trkpt><trkpt lat="44.8765117" lon="7.8336517"><ele>264.0</ele><time>2026-04-11T09:42:16.443Z</time></trkpt><trkpt lat="44.8765717" lon="7.8336917"><ele>264.0</ele><time>2026-04-11T09:42:17.443Z</time></trkpt><trkpt lat="44.8766333" lon="7.83373"><ele>264.0</ele><time>2026-04-11T09:42:18.443Z</time></trkpt><trkpt lat="44.876695" lon="7.83377"><ele>264.0</ele><time>2026-04-11T09:42:19.443Z</time></trkpt><trkpt lat="44.8767583" lon="7.8338067"><ele>264.0</ele><time>2026-04-11T09:42:20.443Z</time></trkpt><trkpt lat="44.8768233" lon="7.83385"><ele>264.0</ele><time>2026-04-11T09:42:21.443Z</time></trkpt><trkpt lat="44.8768833" lon="7.8339"><ele>264.0</ele><time>2026-04-11T09:42:22.443Z</time></trkpt><trkpt lat="44.8769467" lon="7.8339467"><ele>264.0</ele><time>2026-04-11T09:42:23.443Z</time></trkpt><trkpt lat="44.8770083" lon="7.8339917"><ele>263.6666666666667</ele><time>2026-04-11T09:42:24.443Z</time></trkpt><trkpt lat="44.8770683" lon="7.83403"><ele>263.3333333333333</ele><time>2026-04-11T09:42:25.443Z</time></trkpt><trkpt lat="44.87713" lon="7.834065"><ele>263.0</ele><time>2026-04-11T09:42:26.443Z</time></trkpt><trkpt lat="44.8771917" lon="7.8341033"><ele>262.66666666666663</ele><time>2026-04-11T09:42:27.443Z</time></trkpt><trkpt lat="44.8772517" lon="7.8341367"><ele>262.3333333333333</ele><time>2026-04-11T09:42:28.443Z</time></trkpt><trkpt lat="44.8773133" lon="7.8341733"><ele>262.0</ele><time>2026-04-11T09:42:29.443Z</time></trkpt><trkpt lat="44.87743" lon="7.834255"><ele>262.0</ele><time>2026-04-11T09:42:31.443Z</time></trkpt><trkpt lat="44.8774917" lon="7.834295"><ele>262.0</ele><time>2026-04-11T09:42:32.443Z</time></trkpt><trkpt lat="44.87755" lon="7.8343383"><ele>262.0</ele><time>2026-04-11T09:42:33.443Z</time></trkpt><trkpt lat="44.87761" lon="7.8343817"><ele>262.0</ele><time>2026-04-11T09:42:34.443Z</time></trkpt><trkpt lat="44.87767" lon="7.834415"><ele>262.0</ele><time>2026-04-11T09:42:35.443Z</time></trkpt><trkpt lat="44.8777317" lon="7.83445"><ele>262.0</ele><time>2026-04-11T09:42:36.443Z</time></trkpt><trkpt lat="44.877795" lon="7.8344833"><ele>262.0</ele><time>2026-04-11T09:42:37.443Z</time></trkpt><trkpt lat="44.8779133" lon="7.8345567"><ele>261.57142857142856</ele><time>2026-04-11T09:42:39.443Z</time></trkpt><trkpt lat="44.877975" lon="7.834595"><ele>261.14285714285717</ele><time>2026-04-11T09:42:40.443Z</time></trkpt><trkpt lat="44.8780383" lon="7.8346317"><ele>260.7142857142857</ele><time>2026-04-11T09:42:41.443Z</time></trkpt><trkpt lat="44.8780967" lon="7.8346717"><ele>260.2857142857143</ele><time>2026-04-11T09:42:42.443Z</time></trkpt><trkpt lat="44.8781567" lon="7.8347167"><ele>259.8571428571429</ele><time>2026-04-11T09:42:43.443Z</time></trkpt><trkpt lat="44.8782217" lon="7.8347583"><ele>259.42857142857144</ele><time>2026-04-11T09:42:44.443Z</time></trkpt><trkpt lat="44.87829" lon="7.8348017"><ele>259.0</ele><time>2026-04-11T09:42:45.443Z</time></trkpt><trkpt lat="44.8783517" lon="7.8348383"><ele>259.0</ele><time>2026-04-11T09:42:46.443Z</time></trkpt><trkpt lat="44.8784167" lon="7.8348783"><ele>259.0</ele><time>2026-04-11T09:42:47.443Z</time></trkpt><trkpt lat="44.8784783" lon="7.83492"><ele>259.0</ele><time>2026-04-11T09:42:48.443Z</time></trkpt><trkpt lat="44.87854" lon="7.834965"><ele>259.0</ele><time>2026-04-11T09:42:49.443Z</time></trkpt><trkpt lat="44.878605" lon="7.8350083"><ele>259.0</ele><time>2026-04-11T09:42:50.443Z</time></trkpt><trkpt lat="44.8786683" lon="7.83505"><ele>259.0</ele><time>2026-04-11T09:42:51.443Z</time></trkpt><trkpt lat="44.8787333" lon="7.8350917"><ele>259.0</ele><time>2026-04-11T09:42:52.443Z</time></trkpt><trkpt lat="44.8787983" lon="7.8351333"><ele>259.0</ele><time>2026-04-11T09:42:53.443Z</time></trkpt><trkpt lat="44.8788633" lon="7.835175"><ele>259.0</ele><time>2026-04-11T09:42:54.443Z</time></trkpt><trkpt lat="44.87893" lon="7.8352083"><ele>259.0</ele><time>2026-04-11T09:42:55.443Z</time></trkpt><trkpt lat="44.8789917" lon="7.835245"><ele>259.0</ele><time>2026-04-11T09:42:56.443Z</time></trkpt><trkpt lat="44.8790517" lon="7.8352867"><ele>259.0</ele><time>2026-04-11T09:42:57.444Z</time></trkpt><trkpt lat="44.879115" lon="7.8353317"><ele>259.0</ele><time>2026-04-11T09:42:58.443Z</time></trkpt><trkpt lat="44.8791767" lon="7.83537"><ele>259.0</ele><time>2026-04-11T09:42:59.444Z</time></trkpt><trkpt lat="44.8792433" lon="7.8353933"><ele>258.42857142857144</ele><time>2026-04-11T09:43:00.443Z</time></trkpt><trkpt lat="44.879315" lon="7.8353817"><ele>257.8571428571429</ele><time>2026-04-11T09:43:01.443Z</time></trkpt><trkpt lat="44.8793817" lon="7.835355"><ele>257.2857142857143</ele><time>2026-04-11T09:43:02.443Z</time></trkpt><trkpt lat="44.8794417" lon="7.835315"><ele>256.7142857142857</ele><time>2026-04-11T09:43:03.443Z</time></trkpt><trkpt lat="44.8795" lon="7.835265"><ele>256.14285714285717</ele><time>2026-04-11T09:43:04.443Z</time></trkpt><trkpt lat="44.87956" lon="7.8352133"><ele>255.57142857142858</ele><time>2026-04-11T09:43:05.443Z</time></trkpt><trkpt lat="44.879615" lon="7.8351583"><ele>255.0</ele><time>2026-04-11T09:43:06.444Z</time></trkpt><trkpt lat="44.8796667" lon="7.8351"><ele>255.0</ele><time>2026-04-11T09:43:07.443Z</time></trkpt><trkpt lat="44.8797167" lon="7.8350417"><ele>255.00000000000003</ele><time>2026-04-11T09:43:08.443Z</time></trkpt><trkpt lat="44.879765" lon="7.83498"><ele>255.0</ele><time>2026-04-11T09:43:09.443Z</time></trkpt><trkpt lat="44.8798117" lon="7.8349117"><ele>255.0</ele><time>2026-04-11T09:43:10.443Z</time></trkpt><trkpt lat="44.8798517" lon="7.8348417"><ele>255.00000000000003</ele><time>2026-04-11T09:43:11.443Z</time></trkpt><trkpt lat="44.8798867" lon="7.834765"><ele>255.0</ele><time>2026-04-11T09:43:12.443Z</time></trkpt><trkpt lat="44.8799217" lon="7.83468"><ele>255.0</ele><time>2026-04-11T09:43:13.443Z</time></trkpt><trkpt lat="44.87996" lon="7.8345983"><ele>255.0</ele><time>2026-04-11T09:43:14.443Z</time></trkpt><trkpt lat="44.8800017" lon="7.834525"><ele>255.00000000000003</ele><time>2026-04-11T09:43:15.443Z</time></trkpt><trkpt lat="44.8800583" lon="7.83446"><ele>255.0</ele><time>2026-04-11T09:43:16.443Z</time></trkpt><trkpt lat="44.8801167" lon="7.8344167"><ele>255.0</ele><time>2026-04-11T09:43:17.443Z</time></trkpt><trkpt lat="44.8801767" lon="7.8343883"><ele>255.00000000000003</ele><time>2026-04-11T09:43:18.443Z</time></trkpt><trkpt lat="44.8802917" lon="7.8344017"><ele>255.0</ele><time>2026-04-11T09:43:20.443Z</time></trkpt><trkpt lat="44.8803533" lon="7.83443"><ele>255.0</ele><time>2026-04-11T09:43:21.443Z</time></trkpt><trkpt lat="44.8804167" lon="7.8344567"><ele>255.33333333333334</ele><time>2026-04-11T09:43:22.443Z</time></trkpt><trkpt lat="44.8804817" lon="7.8344933"><ele>255.66666666666669</ele><time>2026-04-11T09:43:23.443Z</time></trkpt><trkpt lat="44.880545" lon="7.834535"><ele>256.0</ele><time>2026-04-11T09:43:24.443Z</time></trkpt><trkpt lat="44.8806017" lon="7.834575"><ele>256.33333333333337</ele><time>2026-04-11T09:43:25.443Z</time></trkpt><trkpt lat="44.880655" lon="7.8346233"><ele>256.6666666666667</ele><time>2026-04-11T09:43:26.443Z</time></trkpt><trkpt lat="44.8807433" lon="7.8347167"><ele>257.0</ele><time>2026-04-11T09:43:28.443Z</time></trkpt><trkpt lat="44.88084" lon="7.8348133"><ele>256.83333333333337</ele><time>2026-04-11T09:43:30.443Z</time></trkpt><trkpt lat="44.88096" lon="7.8348967"><ele>256.6666666666667</ele><time>2026-04-11T09:43:32.443Z</time></trkpt><trkpt lat="44.8810233" lon="7.83494"><ele>256.5</ele><time>2026-04-11T09:43:33.443Z</time></trkpt><trkpt lat="44.8810883" lon="7.83499"><ele>256.3333333333333</ele><time>2026-04-11T09:43:34.443Z</time></trkpt><trkpt lat="44.8811533" lon="7.83504"><ele>256.16666666666663</ele><time>2026-04-11T09:43:35.443Z</time></trkpt><trkpt lat="44.8812167" lon="7.8350917"><ele>256.0</ele><time>2026-04-11T09:43:36.443Z</time></trkpt><trkpt lat="44.8812817" lon="7.8351433"><ele>255.83333333333331</ele><time>2026-04-11T09:43:37.443Z</time></trkpt><trkpt lat="44.8813417" lon="7.8351933"><ele>255.66666666666666</ele><time>2026-04-11T09:43:38.443Z</time></trkpt><trkpt lat="44.8814033" lon="7.8352483"><ele>255.5</ele><time>2026-04-11T09:43:39.443Z</time></trkpt><trkpt lat="44.8814667" lon="7.8353017"><ele>255.33333333333331</ele><time>2026-04-11T09:43:40.443Z</time></trkpt><trkpt lat="44.8815317" lon="7.8353517"><ele>255.16666666666666</ele><time>2026-04-11T09:43:41.443Z</time></trkpt><trkpt lat="44.8816017" lon="7.835405"><ele>255.0</ele><time>2026-04-11T09:43:42.443Z</time></trkpt><trkpt lat="44.8816733" lon="7.835465"><ele>255.0</ele><time>2026-04-11T09:43:43.443Z</time></trkpt><trkpt lat="44.8817417" lon="7.8355183"><ele>255.0</ele><time>2026-04-11T09:43:44.443Z</time></trkpt><trkpt lat="44.8818133" lon="7.83558"><ele>255.0</ele><time>2026-04-11T09:43:45.443Z</time></trkpt><trkpt lat="44.8818817" lon="7.835635"><ele>255.0</ele><time>2026-04-11T09:43:46.443Z</time></trkpt><trkpt lat="44.8819467" lon="7.8356917"><ele>255.0</ele><time>2026-04-11T09:43:47.443Z</time></trkpt><trkpt lat="44.8820167" lon="7.835745"><ele>255.0</ele><time>2026-04-11T09:43:48.443Z</time></trkpt><trkpt lat="44.8820817" lon="7.8357917"><ele>254.33333333333334</ele><time>2026-04-11T09:43:49.443Z</time></trkpt><trkpt lat="44.882145" lon="7.8358383"><ele>253.66666666666669</ele><time>2026-04-11T09:43:50.443Z</time></trkpt><trkpt lat="44.88221" lon="7.8358817"><ele>253.0</ele><time>2026-04-11T09:43:51.443Z</time></trkpt><trkpt lat="44.8822767" lon="7.8359267"><ele>252.33333333333334</ele><time>2026-04-11T09:43:52.443Z</time></trkpt><trkpt lat="44.8823467" lon="7.8359783"><ele>251.66666666666669</ele><time>2026-04-11T09:43:53.443Z</time></trkpt><trkpt lat="44.88242" lon="7.83602"><ele>251.0</ele><time>2026-04-11T09:43:54.443Z</time></trkpt><trkpt lat="44.8825" lon="7.8360233"><ele>250.71428571428567</ele><time>2026-04-11T09:43:55.443Z</time></trkpt><trkpt lat="44.88257" lon="7.8359967"><ele>250.42857142857142</ele><time>2026-04-11T09:43:56.443Z</time></trkpt><trkpt lat="44.8826267" lon="7.8359433"><ele>250.1428571428571</ele><time>2026-04-11T09:43:57.443Z</time></trkpt><trkpt lat="44.882665" lon="7.8358683"><ele>249.85714285714283</ele><time>2026-04-11T09:43:58.443Z</time></trkpt><trkpt lat="44.8826933" lon="7.8357883"><ele>249.57142857142856</ele><time>2026-04-11T09:43:59.443Z</time></trkpt><trkpt lat="44.8827183" lon="7.8356967"><ele>249.28571428571428</ele><time>2026-04-11T09:44:00.443Z</time></trkpt><trkpt lat="44.882745" lon="7.835605"><ele>249.0</ele><time>2026-04-11T09:44:01.443Z</time></trkpt><trkpt lat="44.8827733" lon="7.8355133"><ele>248.79999999999998</ele><time>2026-04-11T09:44:02.443Z</time></trkpt><trkpt lat="44.8827983" lon="7.8354283"><ele>248.59999999999997</ele><time>2026-04-11T09:44:03.443Z</time></trkpt><trkpt lat="44.882825" lon="7.8353383"><ele>248.4</ele><time>2026-04-11T09:44:04.443Z</time></trkpt><trkpt lat="44.8828883" lon="7.835195"><ele>248.2</ele><time>2026-04-11T09:44:06.443Z</time></trkpt><trkpt lat="44.88298" lon="7.835145"><ele>248.0</ele><time>2026-04-11T09:44:08.443Z</time></trkpt><trkpt lat="44.883085" lon="7.83519"><ele>248.0</ele><time>2026-04-11T09:44:10.443Z</time></trkpt><trkpt lat="44.8831767" lon="7.8352817"><ele>248.0</ele><time>2026-04-11T09:44:12.443Z</time></trkpt><trkpt lat="44.883275" lon="7.8353617"><ele>248.0</ele><time>2026-04-11T09:44:14.443Z</time></trkpt><trkpt lat="44.8833683" lon="7.8354383"><ele>248.0</ele><time>2026-04-11T09:44:16.443Z</time></trkpt><trkpt lat="44.8834683" lon="7.8355117"><ele>248.0</ele><time>2026-04-11T09:44:18.443Z</time></trkpt><trkpt lat="44.8835783" lon="7.8355967"><ele>248.33333333333334</ele><time>2026-04-11T09:44:20.443Z</time></trkpt><trkpt lat="44.883635" lon="7.83564"><ele>248.66666666666669</ele><time>2026-04-11T09:44:21.443Z</time></trkpt><trkpt lat="44.8836917" lon="7.8356833"><ele>249.0</ele><time>2026-04-11T09:44:22.444Z</time></trkpt><trkpt lat="44.8838067" lon="7.83576"><ele>249.33333333333331</ele><time>2026-04-11T09:44:24.443Z</time></trkpt><trkpt lat="44.88392" lon="7.8358333"><ele>249.66666666666666</ele><time>2026-04-11T09:44:26.443Z</time></trkpt><trkpt lat="44.88398" lon="7.8358683"><ele>250.0</ele><time>2026-04-11T09:44:27.443Z</time></trkpt><trkpt lat="44.88409" lon="7.8359483"><ele>249.8</ele><time>2026-04-11T09:44:29.443Z</time></trkpt><trkpt lat="44.8841967" lon="7.8360217"><ele>249.6</ele><time>2026-04-11T09:44:31.443Z</time></trkpt><trkpt lat="44.8842983" lon="7.836085"><ele>249.39999999999998</ele><time>2026-04-11T09:44:33.443Z</time></trkpt><trkpt lat="44.8844083" lon="7.8361333"><ele>249.2</ele><time>2026-04-11T09:44:35.443Z</time></trkpt><trkpt lat="44.8844717" lon="7.8361383"><ele>249.0</ele><time>2026-04-11T09:44:36.443Z</time></trkpt><trkpt lat="44.884595" lon="7.8361183"><ele>249.66666666666666</ele><time>2026-04-11T09:44:38.443Z</time></trkpt><trkpt lat="44.8846617" lon="7.8360917"><ele>250.33333333333331</ele><time>2026-04-11T09:44:39.443Z</time></trkpt><trkpt lat="44.8847233" lon="7.83606"><ele>251.0</ele><time>2026-04-11T09:44:40.443Z</time></trkpt><trkpt lat="44.8848383" lon="7.8360133"><ele>251.66666666666666</ele><time>2026-04-11T09:44:42.444Z</time></trkpt><trkpt lat="44.8849467" lon="7.8359633"><ele>252.33333333333331</ele><time>2026-04-11T09:44:44.443Z</time></trkpt><trkpt lat="44.8850067" lon="7.8359333"><ele>253.0</ele><time>2026-04-11T09:44:45.443Z</time></trkpt><trkpt lat="44.8850667" lon="7.8359033"><ele>252.66666666666666</ele><time>2026-04-11T09:44:46.443Z</time></trkpt><trkpt lat="44.8851317" lon="7.8358717"><ele>252.33333333333331</ele><time>2026-04-11T09:44:47.443Z</time></trkpt><trkpt lat="44.885195" lon="7.83584"><ele>252.0</ele><time>2026-04-11T09:44:48.443Z</time></trkpt><trkpt lat="44.88526" lon="7.8358133"><ele>251.66666666666669</ele><time>2026-04-11T09:44:49.443Z</time></trkpt><trkpt lat="44.8853283" lon="7.83578"><ele>251.33333333333334</ele><time>2026-04-11T09:44:50.443Z</time></trkpt><trkpt lat="44.8853917" lon="7.8357483"><ele>251.0</ele><time>2026-04-11T09:44:51.443Z</time></trkpt><trkpt lat="44.88551" lon="7.8356967"><ele>251.0</ele><time>2026-04-11T09:44:53.443Z</time></trkpt><trkpt lat="44.88563" lon="7.8356567"><ele>251.00000000000003</ele><time>2026-04-11T09:44:55.443Z</time></trkpt><trkpt lat="44.88575" lon="7.8356467"><ele>251.00000000000003</ele><time>2026-04-11T09:44:57.443Z</time></trkpt><trkpt lat="44.8858167" lon="7.835645"><ele>251.0</ele><time>2026-04-11T09:44:58.443Z</time></trkpt><trkpt lat="44.8859417" lon="7.835635"><ele>251.0</ele><time>2026-04-11T09:45:00.443Z</time></trkpt><trkpt lat="44.8860067" lon="7.835635"><ele>251.50000000000003</ele><time>2026-04-11T09:45:01.443Z</time></trkpt><trkpt lat="44.8861317" lon="7.8356333"><ele>252.0</ele><time>2026-04-11T09:45:03.443Z</time></trkpt><trkpt lat="44.8861967" lon="7.8356333"><ele>252.5</ele><time>2026-04-11T09:45:04.443Z</time></trkpt><trkpt lat="44.88626" lon="7.8356367"><ele>253.0</ele><time>2026-04-11T09:45:05.443Z</time></trkpt><trkpt lat="44.8863233" lon="7.835635"><ele>253.50000000000003</ele><time>2026-04-11T09:45:06.443Z</time></trkpt><trkpt lat="44.8864467" lon="7.8356317"><ele>254.0</ele><time>2026-04-11T09:45:08.443Z</time></trkpt><trkpt lat="44.8865667" lon="7.8356333"><ele>254.0</ele><time>2026-04-11T09:45:10.443Z</time></trkpt><trkpt lat="44.88669" lon="7.835625"><ele>254.0</ele><time>2026-04-11T09:45:12.443Z</time></trkpt><trkpt lat="44.88681" lon="7.83561"><ele>254.0</ele><time>2026-04-11T09:45:14.443Z</time></trkpt><trkpt lat="44.8869233" lon="7.8355783"><ele>254.0</ele><time>2026-04-11T09:45:16.443Z</time></trkpt><trkpt lat="44.88703" lon="7.8355433"><ele>254.5</ele><time>2026-04-11T09:45:18.443Z</time></trkpt><trkpt lat="44.8871383" lon="7.83552"><ele>255.0</ele><time>2026-04-11T09:45:20.443Z</time></trkpt><trkpt lat="44.8872517" lon="7.8355"><ele>255.5</ele><time>2026-04-11T09:45:22.443Z</time></trkpt><trkpt lat="44.88736" lon="7.835475"><ele>256.0</ele><time>2026-04-11T09:45:24.443Z</time></trkpt><trkpt lat="44.8874733" lon="7.83543"><ele>256.0</ele><time>2026-04-11T09:45:26.443Z</time></trkpt><trkpt lat="44.88758" lon="7.8353567"><ele>256.0</ele><time>2026-04-11T09:45:28.443Z</time></trkpt><trkpt lat="44.88768" lon="7.8352733"><ele>256.0</ele><time>2026-04-11T09:45:30.443Z</time></trkpt><trkpt lat="44.8877667" lon="7.835165"><ele>256.0</ele><time>2026-04-11T09:45:32.443Z</time></trkpt><trkpt lat="44.8878517" lon="7.835055"><ele>255.49999999999997</ele><time>2026-04-11T09:45:34.443Z</time></trkpt><trkpt lat="44.887935" lon="7.8349417"><ele>255.0</ele><time>2026-04-11T09:45:36.443Z</time></trkpt><trkpt lat="44.8880267" lon="7.834825"><ele>254.5</ele><time>2026-04-11T09:45:38.443Z</time></trkpt><trkpt lat="44.88808" lon="7.8347667"><ele>254.0</ele><time>2026-04-11T09:45:39.444Z</time></trkpt><trkpt lat="44.8881283" lon="7.8347083"><ele>253.49999999999997</ele><time>2026-04-11T09:45:40.443Z</time></trkpt><trkpt lat="44.8881817" lon="7.8346467"><ele>253.0</ele><time>2026-04-11T09:45:41.443Z</time></trkpt><trkpt lat="44.8882817" lon="7.834545"><ele>253.0</ele><time>2026-04-11T09:45:43.443Z</time></trkpt><trkpt lat="44.8883817" lon="7.834455"><ele>253.0</ele><time>2026-04-11T09:45:45.443Z</time></trkpt><trkpt lat="44.8884817" lon="7.8343833"><ele>253.0</ele><time>2026-04-11T09:45:47.443Z</time></trkpt><trkpt lat="44.8885967" lon="7.8343"><ele>253.0</ele><time>2026-04-11T09:45:49.443Z</time></trkpt><trkpt lat="44.888655" lon="7.83426"><ele>253.0</ele><time>2026-04-11T09:45:50.443Z</time></trkpt><trkpt lat="44.8887717" lon="7.8342"><ele>253.33333333333331</ele><time>2026-04-11T09:45:52.444Z</time></trkpt><trkpt lat="44.888835" lon="7.83417"><ele>253.66666666666666</ele><time>2026-04-11T09:45:53.443Z</time></trkpt><trkpt lat="44.88895" lon="7.834115"><ele>254.0</ele><time>2026-04-11T09:45:55.443Z</time></trkpt><trkpt lat="44.8890117" lon="7.83408"><ele>254.33333333333331</ele><time>2026-04-11T09:45:56.443Z</time></trkpt><trkpt lat="44.88907" lon="7.8340433"><ele>254.66666666666666</ele><time>2026-04-11T09:45:57.443Z</time></trkpt><trkpt lat="44.8891267" lon="7.8340033"><ele>255.0</ele><time>2026-04-11T09:45:58.443Z</time></trkpt><trkpt lat="44.8892383" lon="7.8339317"><ele>254.8</ele><time>2026-04-11T09:46:00.444Z</time></trkpt><trkpt lat="44.889295" lon="7.83389"><ele>254.6</ele><time>2026-04-11T09:46:01.443Z</time></trkpt><trkpt lat="44.8893917" lon="7.8338083"><ele>254.39999999999998</ele><time>2026-04-11T09:46:03.443Z</time></trkpt><trkpt lat="44.8895" lon="7.8337433"><ele>254.2</ele><time>2026-04-11T09:46:05.443Z</time></trkpt><trkpt lat="44.8896" lon="7.8336467"><ele>254.0</ele><time>2026-04-11T09:46:07.443Z</time></trkpt><trkpt lat="44.8896983" lon="7.83355"><ele>254.00000000000003</ele><time>2026-04-11T09:46:09.443Z</time></trkpt><trkpt lat="44.88975" lon="7.833495"><ele>254.0</ele><time>2026-04-11T09:46:10.443Z</time></trkpt><trkpt lat="44.8898533" lon="7.8333883"><ele>254.0</ele><time>2026-04-11T09:46:12.443Z</time></trkpt><trkpt lat="44.8899033" lon="7.8333317"><ele>254.0</ele><time>2026-04-11T09:46:13.444Z</time></trkpt><trkpt lat="44.8899583" lon="7.8332717"><ele>254.00000000000003</ele><time>2026-04-11T09:46:14.443Z</time></trkpt><trkpt lat="44.89001" lon="7.8332117"><ele>254.0</ele><time>2026-04-11T09:46:15.444Z</time></trkpt><trkpt lat="44.8900633" lon="7.8331467"><ele>253.71428571428572</ele><time>2026-04-11T09:46:16.443Z</time></trkpt><trkpt lat="44.8901133" lon="7.833085"><ele>253.42857142857142</ele><time>2026-04-11T09:46:17.443Z</time></trkpt><trkpt lat="44.8902" lon="7.832965"><ele>253.14285714285714</ele><time>2026-04-11T09:46:19.443Z</time></trkpt><trkpt lat="44.8902467" lon="7.8329033"><ele>252.85714285714286</ele><time>2026-04-11T09:46:20.443Z</time></trkpt><trkpt lat="44.890295" lon="7.8328417"><ele>252.57142857142856</ele><time>2026-04-11T09:46:21.443Z</time></trkpt><trkpt lat="44.8903433" lon="7.8327817"><ele>252.28571428571428</ele><time>2026-04-11T09:46:22.443Z</time></trkpt><trkpt lat="44.89039" lon="7.8327183"><ele>252.0</ele><time>2026-04-11T09:46:23.443Z</time></trkpt><trkpt lat="44.89044" lon="7.8326583"><ele>252.14285714285714</ele><time>2026-04-11T09:46:24.443Z</time></trkpt><trkpt lat="44.89049" lon="7.8326"><ele>252.28571428571428</ele><time>2026-04-11T09:46:25.444Z</time></trkpt><trkpt lat="44.8905383" lon="7.83254"><ele>252.42857142857144</ele><time>2026-04-11T09:46:26.443Z</time></trkpt><trkpt lat="44.8905867" lon="7.8324767"><ele>252.57142857142858</ele><time>2026-04-11T09:46:27.443Z</time></trkpt><trkpt lat="44.8906383" lon="7.832415"><ele>252.71428571428572</ele><time>2026-04-11T09:46:28.443Z</time></trkpt><trkpt lat="44.8906933" lon="7.832355"><ele>252.8571428571429</ele><time>2026-04-11T09:46:29.443Z</time></trkpt><trkpt lat="44.8907467" lon="7.8322933"><ele>253.00000000000003</ele><time>2026-04-11T09:46:30.443Z</time></trkpt><trkpt lat="44.8908" lon="7.832235"><ele>253.00000000000003</ele><time>2026-04-11T09:46:31.443Z</time></trkpt><trkpt lat="44.8908533" lon="7.8321733"><ele>253.0</ele><time>2026-04-11T09:46:32.443Z</time></trkpt><trkpt lat="44.89091" lon="7.8321133"><ele>253.00000000000003</ele><time>2026-04-11T09:46:33.443Z</time></trkpt><trkpt lat="44.8909683" lon="7.832045"><ele>253.00000000000003</ele><time>2026-04-11T09:46:34.443Z</time></trkpt><trkpt lat="44.89103" lon="7.8319817"><ele>253.0</ele><time>2026-04-11T09:46:35.443Z</time></trkpt><trkpt lat="44.8910933" lon="7.8319183"><ele>253.00000000000003</ele><time>2026-04-11T09:46:36.443Z</time></trkpt><trkpt lat="44.891155" lon="7.8318517"><ele>253.00000000000003</ele><time>2026-04-11T09:46:37.443Z</time></trkpt><trkpt lat="44.8912133" lon="7.8317833"><ele>252.42857142857144</ele><time>2026-04-11T09:46:38.443Z</time></trkpt><trkpt lat="44.89127" lon="7.8317133"><ele>251.85714285714286</ele><time>2026-04-11T09:46:39.443Z</time></trkpt><trkpt lat="44.8913283" lon="7.8316483"><ele>251.28571428571428</ele><time>2026-04-11T09:46:40.443Z</time></trkpt><trkpt lat="44.8913833" lon="7.8315817"><ele>250.71428571428572</ele><time>2026-04-11T09:46:41.443Z</time></trkpt><trkpt lat="44.891435" lon="7.831515"><ele>250.1428571428571</ele><time>2026-04-11T09:46:42.443Z</time></trkpt><trkpt lat="44.891485" lon="7.8314517"><ele>249.57142857142856</ele><time>2026-04-11T09:46:43.443Z</time></trkpt><trkpt lat="44.8915483" lon="7.83138"><ele>249.0</ele><time>2026-04-11T09:46:44.443Z</time></trkpt><trkpt lat="44.891615" lon="7.83131"><ele>249.0</ele><time>2026-04-11T09:46:45.444Z</time></trkpt><trkpt lat="44.89168" lon="7.8312483"><ele>248.99999999999997</ele><time>2026-04-11T09:46:46.443Z</time></trkpt><trkpt lat="44.8917433" lon="7.831185"><ele>249.0</ele><time>2026-04-11T09:46:47.443Z</time></trkpt><trkpt lat="44.89181" lon="7.8311333"><ele>249.0</ele><time>2026-04-11T09:46:48.443Z</time></trkpt><trkpt lat="44.89187" lon="7.83109"><ele>248.99999999999997</ele><time>2026-04-11T09:46:49.443Z</time></trkpt><trkpt lat="44.8919333" lon="7.8310517"><ele>249.0</ele><time>2026-04-11T09:46:50.443Z</time></trkpt><trkpt lat="44.8920033" lon="7.8310183"><ele>249.0</ele><time>2026-04-11T09:46:51.443Z</time></trkpt><trkpt lat="44.8920783" lon="7.8309833"><ele>248.5</ele><time>2026-04-11T09:46:52.443Z</time></trkpt><trkpt lat="44.892155" lon="7.830955"><ele>248.0</ele><time>2026-04-11T09:46:53.443Z</time></trkpt><trkpt lat="44.8922317" lon="7.8309317"><ele>247.5</ele><time>2026-04-11T09:46:54.444Z</time></trkpt><trkpt lat="44.8923083" lon="7.8309167"><ele>247.0</ele><time>2026-04-11T09:46:55.443Z</time></trkpt><trkpt lat="44.8923867" lon="7.8309033"><ele>246.5</ele><time>2026-04-11T09:46:56.443Z</time></trkpt><trkpt lat="44.8924617" lon="7.8308917"><ele>246.0</ele><time>2026-04-11T09:46:57.443Z</time></trkpt><trkpt lat="44.8925383" lon="7.8308767"><ele>246.0</ele><time>2026-04-11T09:46:58.443Z</time></trkpt><trkpt lat="44.892615" lon="7.8308617"><ele>246.0</ele><time>2026-04-11T09:46:59.443Z</time></trkpt><trkpt lat="44.8926883" lon="7.8308433"><ele>246.0</ele><time>2026-04-11T09:47:00.443Z</time></trkpt><trkpt lat="44.8927633" lon="7.8308217"><ele>246.0</ele><time>2026-04-11T09:47:01.444Z</time></trkpt><trkpt lat="44.8928383" lon="7.8308017"><ele>246.0</ele><time>2026-04-11T09:47:02.443Z</time></trkpt><trkpt lat="44.8929117" lon="7.8307983"><ele>246.0</ele><time>2026-04-11T09:47:03.443Z</time></trkpt><trkpt lat="44.8929867" lon="7.8308083"><ele>246.00000000000003</ele><time>2026-04-11T09:47:04.443Z</time></trkpt><trkpt lat="44.8930583" lon="7.8308333"><ele>246.0</ele><time>2026-04-11T09:47:05.443Z</time></trkpt><trkpt lat="44.8931283" lon="7.830865"><ele>246.00000000000003</ele><time>2026-04-11T09:47:06.443Z</time></trkpt><trkpt lat="44.893195" lon="7.8308983"><ele>246.00000000000003</ele><time>2026-04-11T09:47:07.443Z</time></trkpt><trkpt lat="44.8932617" lon="7.830925"><ele>246.0</ele><time>2026-04-11T09:47:08.443Z</time></trkpt><trkpt lat="44.8933283" lon="7.8309533"><ele>246.00000000000003</ele><time>2026-04-11T09:47:09.443Z</time></trkpt><trkpt lat="44.89339" lon="7.83098"><ele>246.00000000000003</ele><time>2026-04-11T09:47:10.443Z</time></trkpt><trkpt lat="44.8934517" lon="7.831015"><ele>246.5714285714286</ele><time>2026-04-11T09:47:11.443Z</time></trkpt><trkpt lat="44.8935133" lon="7.831045"><ele>247.14285714285717</ele><time>2026-04-11T09:47:12.443Z</time></trkpt><trkpt lat="44.8935783" lon="7.831075"><ele>247.71428571428572</ele><time>2026-04-11T09:47:13.443Z</time></trkpt><trkpt lat="44.8936433" lon="7.8311083"><ele>248.2857142857143</ele><time>2026-04-11T09:47:14.443Z</time></trkpt><trkpt lat="44.89371" lon="7.8311333"><ele>248.8571428571429</ele><time>2026-04-11T09:47:15.443Z</time></trkpt><trkpt lat="44.8937717" lon="7.8311683"><ele>249.42857142857142</ele><time>2026-04-11T09:47:16.443Z</time></trkpt><trkpt lat="44.89384" lon="7.8312033"><ele>250.0</ele><time>2026-04-11T09:47:17.443Z</time></trkpt><trkpt lat="44.8939" lon="7.8312367"><ele>250.0</ele><time>2026-04-11T09:47:18.444Z</time></trkpt><trkpt lat="44.893965" lon="7.8312733"><ele>250.0</ele><time>2026-04-11T09:47:19.443Z</time></trkpt><trkpt lat="44.8940267" lon="7.8313117"><ele>250.0</ele><time>2026-04-11T09:47:20.443Z</time></trkpt><trkpt lat="44.89409" lon="7.831345"><ele>250.0</ele><time>2026-04-11T09:47:21.443Z</time></trkpt><trkpt lat="44.8941583" lon="7.831365"><ele>250.0</ele><time>2026-04-11T09:47:22.443Z</time></trkpt><trkpt lat="44.8942267" lon="7.831395"><ele>250.0</ele><time>2026-04-11T09:47:23.443Z</time></trkpt><trkpt lat="44.8942933" lon="7.8314267"><ele>250.0</ele><time>2026-04-11T09:47:24.443Z</time></trkpt><trkpt lat="44.8943567" lon="7.8314583"><ele>250.0</ele><time>2026-04-11T09:47:25.443Z</time></trkpt><trkpt lat="44.89442" lon="7.8314883"><ele>250.0</ele><time>2026-04-11T09:47:26.443Z</time></trkpt><trkpt lat="44.8944817" lon="7.8315183"><ele>250.0</ele><time>2026-04-11T09:47:27.443Z</time></trkpt><trkpt lat="44.8945433" lon="7.831555"><ele>250.0</ele><time>2026-04-11T09:47:28.443Z</time></trkpt><trkpt lat="44.8946067" lon="7.8315867"><ele>250.0</ele><time>2026-04-11T09:47:29.443Z</time></trkpt><trkpt lat="44.8946683" lon="7.8316233"><ele>250.0</ele><time>2026-04-11T09:47:30.443Z</time></trkpt><trkpt lat="44.89473" lon="7.83166"><ele>250.0</ele><time>2026-04-11T09:47:31.443Z</time></trkpt><trkpt lat="44.894795" lon="7.8316933"><ele>250.0</ele><time>2026-04-11T09:47:32.443Z</time></trkpt><trkpt lat="44.8948633" lon="7.8317167"><ele>250.0</ele><time>2026-04-11T09:47:33.443Z</time></trkpt><trkpt lat="44.8949333" lon="7.83174"><ele>250.0</ele><time>2026-04-11T09:47:34.443Z</time></trkpt><trkpt lat="44.89501" lon="7.83176"><ele>250.0</ele><time>2026-04-11T09:47:35.443Z</time></trkpt><trkpt lat="44.8950817" lon="7.83177"><ele>250.0</ele><time>2026-04-11T09:47:36.443Z</time></trkpt><trkpt lat="44.895155" lon="7.8317733"><ele>250.0</ele><time>2026-04-11T09:47:37.444Z</time></trkpt><trkpt lat="44.8952283" lon="7.831775"><ele>250.0</ele><time>2026-04-11T09:47:38.443Z</time></trkpt><trkpt lat="44.8953033" lon="7.8317783"><ele>249.71428571428572</ele><time>2026-04-11T09:47:39.443Z</time></trkpt><trkpt lat="44.8953767" lon="7.831785"><ele>249.42857142857144</ele><time>2026-04-11T09:47:40.443Z</time></trkpt><trkpt lat="44.895445" lon="7.8318017"><ele>249.14285714285717</ele><time>2026-04-11T09:47:41.443Z</time></trkpt><trkpt lat="44.8955167" lon="7.8318133"><ele>248.85714285714286</ele><time>2026-04-11T09:47:42.443Z</time></trkpt><trkpt lat="44.89558" lon="7.8318317"><ele>248.5714285714286</ele><time>2026-04-11T09:47:43.443Z</time></trkpt><trkpt lat="44.8956417" lon="7.8318517"><ele>248.2857142857143</ele><time>2026-04-11T09:47:44.443Z</time></trkpt><trkpt lat="44.8957067" lon="7.8318517"><ele>248.0</ele><time>2026-04-11T09:47:45.443Z</time></trkpt><trkpt lat="44.895765" lon="7.8318017"><ele>247.66666666666669</ele><time>2026-04-11T09:47:46.443Z</time></trkpt><trkpt lat="44.8958033" lon="7.8317283"><ele>247.33333333333334</ele><time>2026-04-11T09:47:47.443Z</time></trkpt><trkpt lat="44.89583" lon="7.83164"><ele>247.0</ele><time>2026-04-11T09:47:48.443Z</time></trkpt><trkpt lat="44.8958483" lon="7.8315483"><ele>246.66666666666669</ele><time>2026-04-11T09:47:49.443Z</time></trkpt><trkpt lat="44.8958883" lon="7.8313817"><ele>246.33333333333334</ele><time>2026-04-11T09:47:51.443Z</time></trkpt><trkpt lat="44.89591" lon="7.8312917"><ele>246.0</ele><time>2026-04-11T09:47:52.443Z</time></trkpt><trkpt lat="44.8959367" lon="7.8312017"><ele>246.00000000000003</ele><time>2026-04-11T09:47:53.443Z</time></trkpt><trkpt lat="44.8959667" lon="7.8311183"><ele>246.0</ele><time>2026-04-11T09:47:54.443Z</time></trkpt><trkpt lat="44.8959967" lon="7.8310333"><ele>246.00000000000003</ele><time>2026-04-11T09:47:55.443Z</time></trkpt><trkpt lat="44.8960283" lon="7.8309467"><ele>246.00000000000003</ele><time>2026-04-11T09:47:56.443Z</time></trkpt><trkpt lat="44.8960617" lon="7.830865"><ele>246.0</ele><time>2026-04-11T09:47:57.443Z</time></trkpt><trkpt lat="44.896105" lon="7.8307883"><ele>246.00000000000003</ele><time>2026-04-11T09:47:58.443Z</time></trkpt><trkpt lat="44.8961467" lon="7.8307183"><ele>246.00000000000003</ele><time>2026-04-11T09:47:59.443Z</time></trkpt><trkpt lat="44.8961867" lon="7.8306483"><ele>245.8571428571429</ele><time>2026-04-11T09:48:00.443Z</time></trkpt><trkpt lat="44.8962267" lon="7.8305717"><ele>245.71428571428572</ele><time>2026-04-11T09:48:01.443Z</time></trkpt><trkpt lat="44.8962667" lon="7.8305017"><ele>245.57142857142858</ele><time>2026-04-11T09:48:02.443Z</time></trkpt><trkpt lat="44.8963067" lon="7.8304217"><ele>245.42857142857144</ele><time>2026-04-11T09:48:03.443Z</time></trkpt><trkpt lat="44.8963417" lon="7.8303467"><ele>245.28571428571428</ele><time>2026-04-11T09:48:04.443Z</time></trkpt><trkpt lat="44.8963783" lon="7.830265"><ele>245.14285714285714</ele><time>2026-04-11T09:48:05.443Z</time></trkpt><trkpt lat="44.8964083" lon="7.8301867"><ele>245.0</ele><time>2026-04-11T09:48:06.443Z</time></trkpt><trkpt lat="44.8964367" lon="7.8301017"><ele>245.50000000000003</ele><time>2026-04-11T09:48:07.443Z</time></trkpt><trkpt lat="44.8964683" lon="7.830015"><ele>246.0</ele><time>2026-04-11T09:48:08.444Z</time></trkpt><trkpt lat="44.8964933" lon="7.82993"><ele>246.5</ele><time>2026-04-11T09:48:09.443Z</time></trkpt><trkpt lat="44.8965067" lon="7.8297533"><ele>247.0</ele><time>2026-04-11T09:48:11.443Z</time></trkpt><trkpt lat="44.8964917" lon="7.8296633"><ele>247.50000000000003</ele><time>2026-04-11T09:48:12.443Z</time></trkpt><trkpt lat="44.8964733" lon="7.8295783"><ele>248.0</ele><time>2026-04-11T09:48:13.443Z</time></trkpt><trkpt lat="44.8964333" lon="7.82941"><ele>248.0</ele><time>2026-04-11T09:48:15.443Z</time></trkpt><trkpt lat="44.8964083" lon="7.8293283"><ele>248.0</ele><time>2026-04-11T09:48:16.443Z</time></trkpt><trkpt lat="44.89637" lon="7.829165"><ele>248.0</ele><time>2026-04-11T09:48:18.444Z</time></trkpt><trkpt lat="44.8963267" lon="7.829005"><ele>248.0</ele><time>2026-04-11T09:48:20.443Z</time></trkpt><trkpt lat="44.89629" lon="7.828845"><ele>248.0</ele><time>2026-04-11T09:48:22.443Z</time></trkpt><trkpt lat="44.8962717" lon="7.8287567"><ele>248.5</ele><time>2026-04-11T09:48:23.443Z</time></trkpt><trkpt lat="44.8962283" lon="7.8285967"><ele>249.0</ele><time>2026-04-11T09:48:25.443Z</time></trkpt><trkpt lat="44.8961967" lon="7.8284367"><ele>249.5</ele><time>2026-04-11T09:48:27.443Z</time></trkpt><trkpt lat="44.8962183" lon="7.8282883"><ele>250.0</ele><time>2026-04-11T09:48:29.443Z</time></trkpt><trkpt lat="44.89631" lon="7.8282083"><ele>249.99999999999997</ele><time>2026-04-11T09:48:31.443Z</time></trkpt><trkpt lat="44.8964283" lon="7.8281767"><ele>250.0</ele><time>2026-04-11T09:48:33.443Z</time></trkpt><trkpt lat="44.896495" lon="7.8281683"><ele>250.0</ele><time>2026-04-11T09:48:34.443Z</time></trkpt><trkpt lat="44.8965583" lon="7.8281583"><ele>250.0</ele><time>2026-04-11T09:48:35.443Z</time></trkpt><trkpt lat="44.8966267" lon="7.8281467"><ele>249.99999999999997</ele><time>2026-04-11T09:48:36.443Z</time></trkpt><trkpt lat="44.89675" lon="7.8281167"><ele>250.0</ele><time>2026-04-11T09:48:38.443Z</time></trkpt><trkpt lat="44.896865" lon="7.828075"><ele>250.2</ele><time>2026-04-11T09:48:40.443Z</time></trkpt><trkpt lat="44.8969833" lon="7.8280167"><ele>250.4</ele><time>2026-04-11T09:48:42.443Z</time></trkpt><trkpt lat="44.8971067" lon="7.8279517"><ele>250.60000000000002</ele><time>2026-04-11T09:48:44.443Z</time></trkpt><trkpt lat="44.8971667" lon="7.8279183"><ele>250.8</ele><time>2026-04-11T09:48:45.443Z</time></trkpt><trkpt lat="44.897285" lon="7.8278567"><ele>251.0</ele><time>2026-04-11T09:48:47.443Z</time></trkpt><trkpt lat="44.89735" lon="7.8278267"><ele>250.99999999999997</ele><time>2026-04-11T09:48:48.443Z</time></trkpt><trkpt lat="44.8974217" lon="7.827795"><ele>251.0</ele><time>2026-04-11T09:48:49.443Z</time></trkpt><trkpt lat="44.8974883" lon="7.82778"><ele>250.99999999999997</ele><time>2026-04-11T09:48:50.443Z</time></trkpt><trkpt lat="44.8975567" lon="7.8277733"><ele>250.99999999999997</ele><time>2026-04-11T09:48:51.443Z</time></trkpt><trkpt lat="44.8976333" lon="7.8277767"><ele>251.0</ele><time>2026-04-11T09:48:52.443Z</time></trkpt><trkpt lat="44.89771" lon="7.8277817"><ele>250.99999999999997</ele><time>2026-04-11T09:48:53.443Z</time></trkpt><trkpt lat="44.897785" lon="7.8277883"><ele>250.99999999999997</ele><time>2026-04-11T09:48:54.443Z</time></trkpt><trkpt lat="44.8978633" lon="7.8277983"><ele>250.1428571428571</ele><time>2026-04-11T09:48:55.443Z</time></trkpt><trkpt lat="44.8979383" lon="7.8278033"><ele>249.28571428571428</ele><time>2026-04-11T09:48:56.444Z</time></trkpt><trkpt lat="44.8980167" lon="7.8278017"><ele>248.42857142857142</ele><time>2026-04-11T09:48:57.443Z</time></trkpt><trkpt lat="44.8980933" lon="7.827795"><ele>247.57142857142856</ele><time>2026-04-11T09:48:58.443Z</time></trkpt><trkpt lat="44.8981633" lon="7.827775"><ele>246.71428571428572</ele><time>2026-04-11T09:48:59.443Z</time></trkpt><trkpt lat="44.8982317" lon="7.82776"><ele>245.85714285714286</ele><time>2026-04-11T09:49:00.443Z</time></trkpt><trkpt lat="44.8983" lon="7.8277367"><ele>245.0</ele><time>2026-04-11T09:49:01.443Z</time></trkpt><trkpt lat="44.89837" lon="7.8277233"><ele>245.00000000000003</ele><time>2026-04-11T09:49:02.443Z</time></trkpt><trkpt lat="44.8984433" lon="7.8276983"><ele>245.0</ele><time>2026-04-11T09:49:03.443Z</time></trkpt><trkpt lat="44.898515" lon="7.8276667"><ele>245.0</ele><time>2026-04-11T09:49:04.443Z</time></trkpt><trkpt lat="44.8985833" lon="7.8276233"><ele>245.0</ele><time>2026-04-11T09:49:05.443Z</time></trkpt><trkpt lat="44.8986483" lon="7.82757"><ele>245.00000000000003</ele><time>2026-04-11T09:49:06.443Z</time></trkpt><trkpt lat="44.8987117" lon="7.82751"><ele>245.0</ele><time>2026-04-11T09:49:07.443Z</time></trkpt><trkpt lat="44.898775" lon="7.8274417"><ele>245.00000000000003</ele><time>2026-04-11T09:49:08.443Z</time></trkpt><trkpt lat="44.89883" lon="7.827365"><ele>245.0</ele><time>2026-04-11T09:49:09.443Z</time></trkpt><trkpt lat="44.8988817" lon="7.8272833"><ele>245.0</ele><time>2026-04-11T09:49:10.443Z</time></trkpt><trkpt lat="44.89893" lon="7.8271983"><ele>245.0</ele><time>2026-04-11T09:49:11.443Z</time></trkpt><trkpt lat="44.8989733" lon="7.8271083"><ele>245.00000000000003</ele><time>2026-04-11T09:49:12.443Z</time></trkpt><trkpt lat="44.8990167" lon="7.8270233"><ele>245.0</ele><time>2026-04-11T09:49:13.443Z</time></trkpt><trkpt lat="44.8990633" lon="7.82693"><ele>245.00000000000003</ele><time>2026-04-11T09:49:14.444Z</time></trkpt><trkpt lat="44.8991117" lon="7.8268383"><ele>245.0</ele><time>2026-04-11T09:49:15.443Z</time></trkpt><trkpt lat="44.8991633" lon="7.8267483"><ele>245.0</ele><time>2026-04-11T09:49:16.443Z</time></trkpt><trkpt lat="44.8992117" lon="7.8266633"><ele>245.0</ele><time>2026-04-11T09:49:17.443Z</time></trkpt><trkpt lat="44.899265" lon="7.8265767"><ele>245.00000000000003</ele><time>2026-04-11T09:49:18.443Z</time></trkpt><trkpt lat="44.8993233" lon="7.8264917"><ele>245.0</ele><time>2026-04-11T09:49:19.443Z</time></trkpt><trkpt lat="44.8993817" lon="7.8264017"><ele>244.50000000000003</ele><time>2026-04-11T09:49:20.443Z</time></trkpt><trkpt lat="44.8994383" lon="7.8263183"><ele>244.0</ele><time>2026-04-11T09:49:21.443Z</time></trkpt><trkpt lat="44.899495" lon="7.82624"><ele>243.5</ele><time>2026-04-11T09:49:22.443Z</time></trkpt><trkpt lat="44.8995533" lon="7.82616"><ele>243.0</ele><time>2026-04-11T09:49:23.443Z</time></trkpt><trkpt lat="44.8996117" lon="7.8260883"><ele>242.50000000000003</ele><time>2026-04-11T09:49:24.443Z</time></trkpt><trkpt lat="44.8996683" lon="7.826015"><ele>242.0</ele><time>2026-04-11T09:49:25.443Z</time></trkpt><trkpt lat="44.8997233" lon="7.8259417"><ele>242.00000000000003</ele><time>2026-04-11T09:49:26.443Z</time></trkpt><trkpt lat="44.89978" lon="7.8258683"><ele>242.0</ele><time>2026-04-11T09:49:27.443Z</time></trkpt><trkpt lat="44.8998367" lon="7.8257933"><ele>242.0</ele><time>2026-04-11T09:49:28.443Z</time></trkpt><trkpt lat="44.89989" lon="7.8257183"><ele>242.0</ele><time>2026-04-11T09:49:29.443Z</time></trkpt><trkpt lat="44.8999467" lon="7.82564"><ele>242.00000000000003</ele><time>2026-04-11T09:49:30.443Z</time></trkpt><trkpt lat="44.8999967" lon="7.82556"><ele>242.0</ele><time>2026-04-11T09:49:31.443Z</time></trkpt><trkpt lat="44.9000483" lon="7.8254883"><ele>242.14285714285714</ele><time>2026-04-11T09:49:32.443Z</time></trkpt><trkpt lat="44.9000983" lon="7.8254183"><ele>242.28571428571428</ele><time>2026-04-11T09:49:33.443Z</time></trkpt><trkpt lat="44.9001517" lon="7.8253467"><ele>242.42857142857142</ele><time>2026-04-11T09:49:34.443Z</time></trkpt><trkpt lat="44.9002117" lon="7.8252817"><ele>242.57142857142856</ele><time>2026-04-11T09:49:35.444Z</time></trkpt><trkpt lat="44.9002667" lon="7.825215"><ele>242.71428571428572</ele><time>2026-04-11T09:49:36.443Z</time></trkpt><trkpt lat="44.90033" lon="7.8251567"><ele>242.85714285714283</ele><time>2026-04-11T09:49:37.443Z</time></trkpt><trkpt lat="44.9003933" lon="7.8251017"><ele>243.0</ele><time>2026-04-11T09:49:38.443Z</time></trkpt><trkpt lat="44.9004583" lon="7.82504"><ele>243.0</ele><time>2026-04-11T09:49:39.443Z</time></trkpt><trkpt lat="44.900525" lon="7.8249867"><ele>243.0</ele><time>2026-04-11T09:49:40.443Z</time></trkpt><trkpt lat="44.9005917" lon="7.8249383"><ele>243.0</ele><time>2026-04-11T09:49:41.443Z</time></trkpt><trkpt lat="44.9006533" lon="7.8248833"><ele>243.0</ele><time>2026-04-11T09:49:42.443Z</time></trkpt><trkpt lat="44.9007167" lon="7.824835"><ele>243.0</ele><time>2026-04-11T09:49:43.443Z</time></trkpt><trkpt lat="44.9007817" lon="7.8247817"><ele>243.0</ele><time>2026-04-11T09:49:44.443Z</time></trkpt><trkpt lat="44.900845" lon="7.8247333"><ele>243.0</ele><time>2026-04-11T09:49:45.443Z</time></trkpt><trkpt lat="44.9009067" lon="7.8246917"><ele>242.57142857142856</ele><time>2026-04-11T09:49:46.443Z</time></trkpt><trkpt lat="44.90097" lon="7.8246517"><ele>242.14285714285717</ele><time>2026-04-11T09:49:47.443Z</time></trkpt><trkpt lat="44.9010333" lon="7.8246217"><ele>241.71428571428572</ele><time>2026-04-11T09:49:48.443Z</time></trkpt><trkpt lat="44.9010967" lon="7.8245933"><ele>241.28571428571428</ele><time>2026-04-11T09:49:49.443Z</time></trkpt><trkpt lat="44.9011617" lon="7.8245633"><ele>240.85714285714283</ele><time>2026-04-11T09:49:50.443Z</time></trkpt><trkpt lat="44.9012333" lon="7.8245383"><ele>240.42857142857144</ele><time>2026-04-11T09:49:51.443Z</time></trkpt><trkpt lat="44.9013017" lon="7.8245167"><ele>240.0</ele><time>2026-04-11T09:49:52.443Z</time></trkpt><trkpt lat="44.9013717" lon="7.8244967"><ele>240.0</ele><time>2026-04-11T09:49:53.443Z</time></trkpt><trkpt lat="44.9014433" lon="7.8244767"><ele>240.0</ele><time>2026-04-11T09:49:54.443Z</time></trkpt><trkpt lat="44.9015117" lon="7.82446"><ele>240.0</ele><time>2026-04-11T09:49:55.443Z</time></trkpt><trkpt lat="44.901585" lon="7.82444"><ele>240.0</ele><time>2026-04-11T09:49:56.443Z</time></trkpt><trkpt lat="44.9016533" lon="7.8244233"><ele>240.0</ele><time>2026-04-11T09:49:57.443Z</time></trkpt><trkpt lat="44.901725" lon="7.8244083"><ele>240.0</ele><time>2026-04-11T09:49:58.443Z</time></trkpt><trkpt lat="44.901795" lon="7.8243883"><ele>240.0</ele><time>2026-04-11T09:49:59.443Z</time></trkpt><trkpt lat="44.9018667" lon="7.8243683"><ele>240.14285714285717</ele><time>2026-04-11T09:50:00.443Z</time></trkpt><trkpt lat="44.9019383" lon="7.8243483"><ele>240.28571428571428</ele><time>2026-04-11T09:50:01.443Z</time></trkpt><trkpt lat="44.9020083" lon="7.82434"><ele>240.42857142857144</ele><time>2026-04-11T09:50:02.443Z</time></trkpt><trkpt lat="44.9020767" lon="7.824325"><ele>240.57142857142858</ele><time>2026-04-11T09:50:03.443Z</time></trkpt><trkpt lat="44.9021467" lon="7.8243083"><ele>240.71428571428572</ele><time>2026-04-11T09:50:04.443Z</time></trkpt><trkpt lat="44.9022183" lon="7.82429"><ele>240.85714285714286</ele><time>2026-04-11T09:50:05.443Z</time></trkpt><trkpt lat="44.9022917" lon="7.8242633"><ele>241.0</ele><time>2026-04-11T09:50:06.443Z</time></trkpt><trkpt lat="44.9023667" lon="7.8242367"><ele>241.0</ele><time>2026-04-11T09:50:07.443Z</time></trkpt><trkpt lat="44.9024367" lon="7.8242117"><ele>241.00000000000003</ele><time>2026-04-11T09:50:08.443Z</time></trkpt><trkpt lat="44.902505" lon="7.8241917"><ele>241.0</ele><time>2026-04-11T09:50:09.443Z</time></trkpt><trkpt lat="44.902575" lon="7.8241667"><ele>241.0</ele><time>2026-04-11T09:50:10.443Z</time></trkpt><trkpt lat="44.902645" lon="7.82414"><ele>241.00000000000003</ele><time>2026-04-11T09:50:11.443Z</time></trkpt><trkpt lat="44.9027183" lon="7.8241167"><ele>241.0</ele><time>2026-04-11T09:50:12.443Z</time></trkpt><trkpt lat="44.902785" lon="7.8240933"><ele>241.0</ele><time>2026-04-11T09:50:13.443Z</time></trkpt><trkpt lat="44.9028567" lon="7.824075"><ele>241.14285714285717</ele><time>2026-04-11T09:50:14.443Z</time></trkpt><trkpt lat="44.9029283" lon="7.8240467"><ele>241.2857142857143</ele><time>2026-04-11T09:50:15.443Z</time></trkpt><trkpt lat="44.903" lon="7.8240133"><ele>241.42857142857144</ele><time>2026-04-11T09:50:16.443Z</time></trkpt><trkpt lat="44.90307" lon="7.823985"><ele>241.57142857142856</ele><time>2026-04-11T09:50:17.443Z</time></trkpt><trkpt lat="44.90314" lon="7.8239567"><ele>241.7142857142857</ele><time>2026-04-11T09:50:18.443Z</time></trkpt><trkpt lat="44.9032083" lon="7.8239317"><ele>241.85714285714283</ele><time>2026-04-11T09:50:19.443Z</time></trkpt><trkpt lat="44.9032767" lon="7.82391"><ele>242.0</ele><time>2026-04-11T09:50:20.443Z</time></trkpt><trkpt lat="44.9033467" lon="7.8238867"><ele>241.66666666666669</ele><time>2026-04-11T09:50:21.443Z</time></trkpt><trkpt lat="44.903415" lon="7.8238617"><ele>241.33333333333334</ele><time>2026-04-11T09:50:22.443Z</time></trkpt><trkpt lat="44.9034817" lon="7.8238433"><ele>241.0</ele><time>2026-04-11T09:50:23.443Z</time></trkpt><trkpt lat="44.9035467" lon="7.82383"><ele>240.66666666666669</ele><time>2026-04-11T09:50:24.443Z</time></trkpt><trkpt lat="44.903615" lon="7.8238167"><ele>240.33333333333334</ele><time>2026-04-11T09:50:25.443Z</time></trkpt><trkpt lat="44.9036817" lon="7.8238033"><ele>240.0</ele><time>2026-04-11T09:50:26.443Z</time></trkpt><trkpt lat="44.9038017" lon="7.823755"><ele>240.0</ele><time>2026-04-11T09:50:28.443Z</time></trkpt><trkpt lat="44.9038667" lon="7.8237283"><ele>240.0</ele><time>2026-04-11T09:50:29.443Z</time></trkpt><trkpt lat="44.9039317" lon="7.8237083"><ele>240.0</ele><time>2026-04-11T09:50:30.443Z</time></trkpt><trkpt lat="44.9040017" lon="7.8236833"><ele>240.0</ele><time>2026-04-11T09:50:31.443Z</time></trkpt><trkpt lat="44.9040667" lon="7.8236617"><ele>240.0</ele><time>2026-04-11T09:50:32.443Z</time></trkpt><trkpt lat="44.9041283" lon="7.8236367"><ele>240.0</ele><time>2026-04-11T09:50:33.443Z</time></trkpt><trkpt lat="44.9041917" lon="7.8236167"><ele>240.0</ele><time>2026-04-11T09:50:34.443Z</time></trkpt><trkpt lat="44.9042583" lon="7.8235967"><ele>240.0</ele><time>2026-04-11T09:50:35.443Z</time></trkpt><trkpt lat="44.904325" lon="7.8235683"><ele>240.0</ele><time>2026-04-11T09:50:36.443Z</time></trkpt><trkpt lat="44.904395" lon="7.8235383"><ele>240.0</ele><time>2026-04-11T09:50:37.444Z</time></trkpt><trkpt lat="44.9044583" lon="7.8235067"><ele>240.0</ele><time>2026-04-11T09:50:38.443Z</time></trkpt><trkpt lat="44.9045233" lon="7.8234783"><ele>240.0</ele><time>2026-04-11T09:50:39.443Z</time></trkpt><trkpt lat="44.90459" lon="7.8234517"><ele>240.0</ele><time>2026-04-11T09:50:40.443Z</time></trkpt><trkpt lat="44.9046517" lon="7.823425"><ele>240.0</ele><time>2026-04-11T09:50:41.443Z</time></trkpt><trkpt lat="44.9047167" lon="7.8233917"><ele>240.0</ele><time>2026-04-11T09:50:42.443Z</time></trkpt><trkpt lat="44.904775" lon="7.823355"><ele>240.0</ele><time>2026-04-11T09:50:43.443Z</time></trkpt><trkpt lat="44.90483" lon="7.8233117"><ele>240.0</ele><time>2026-04-11T09:50:44.443Z</time></trkpt><trkpt lat="44.9048833" lon="7.8232617"><ele>240.0</ele><time>2026-04-11T09:50:45.443Z</time></trkpt><trkpt lat="44.904935" lon="7.8232083"><ele>240.0</ele><time>2026-04-11T09:50:46.443Z</time></trkpt><trkpt lat="44.9049867" lon="7.8231433"><ele>240.0</ele><time>2026-04-11T09:50:47.443Z</time></trkpt><trkpt lat="44.9050433" lon="7.82308"><ele>240.0</ele><time>2026-04-11T09:50:48.443Z</time></trkpt><trkpt lat="44.9051" lon="7.82302"><ele>240.0</ele><time>2026-04-11T09:50:49.443Z</time></trkpt><trkpt lat="44.90516" lon="7.8229667"><ele>240.0</ele><time>2026-04-11T09:50:50.443Z</time></trkpt><trkpt lat="44.9052217" lon="7.8229117"><ele>240.0</ele><time>2026-04-11T09:50:51.443Z</time></trkpt><trkpt lat="44.9052817" lon="7.82286"><ele>240.0</ele><time>2026-04-11T09:50:52.443Z</time></trkpt><trkpt lat="44.9053467" lon="7.8228117"><ele>240.0</ele><time>2026-04-11T09:50:53.443Z</time></trkpt><trkpt lat="44.9054117" lon="7.8227667"><ele>240.0</ele><time>2026-04-11T09:50:54.443Z</time></trkpt><trkpt lat="44.9054783" lon="7.82273"><ele>240.0</ele><time>2026-04-11T09:50:55.443Z</time></trkpt><trkpt lat="44.9055417" lon="7.822695"><ele>240.0</ele><time>2026-04-11T09:50:56.443Z</time></trkpt><trkpt lat="44.9056067" lon="7.8226633"><ele>240.0</ele><time>2026-04-11T09:50:57.443Z</time></trkpt><trkpt lat="44.9056683" lon="7.8226317"><ele>240.0</ele><time>2026-04-11T09:50:58.443Z</time></trkpt><trkpt lat="44.90573" lon="7.8226067"><ele>240.0</ele><time>2026-04-11T09:50:59.443Z</time></trkpt><trkpt lat="44.9058" lon="7.82257"><ele>240.0</ele><time>2026-04-11T09:51:00.443Z</time></trkpt><trkpt lat="44.9058683" lon="7.822535"><ele>240.0</ele><time>2026-04-11T09:51:01.443Z</time></trkpt><trkpt lat="44.9059383" lon="7.8225017"><ele>240.0</ele><time>2026-04-11T09:51:02.443Z</time></trkpt><trkpt lat="44.9060033" lon="7.82247"><ele>239.85714285714286</ele><time>2026-04-11T09:51:03.443Z</time></trkpt><trkpt lat="44.906065" lon="7.8224333"><ele>239.71428571428572</ele><time>2026-04-11T09:51:04.443Z</time></trkpt><trkpt lat="44.9061333" lon="7.8224033"><ele>239.57142857142858</ele><time>2026-04-11T09:51:05.443Z</time></trkpt><trkpt lat="44.9062" lon="7.82237"><ele>239.42857142857144</ele><time>2026-04-11T09:51:06.443Z</time></trkpt><trkpt lat="44.9062667" lon="7.8223383"><ele>239.28571428571428</ele><time>2026-04-11T09:51:07.443Z</time></trkpt><trkpt lat="44.9063333" lon="7.8223033"><ele>239.14285714285717</ele><time>2026-04-11T09:51:08.443Z</time></trkpt><trkpt lat="44.9063983" lon="7.82227"><ele>239.00000000000003</ele><time>2026-04-11T09:51:09.443Z</time></trkpt><trkpt lat="44.9064633" lon="7.8222367"><ele>239.00000000000003</ele><time>2026-04-11T09:51:10.443Z</time></trkpt><trkpt lat="44.9065333" lon="7.8222017"><ele>239.0</ele><time>2026-04-11T09:51:11.443Z</time></trkpt><trkpt lat="44.9066" lon="7.822165"><ele>239.00000000000003</ele><time>2026-04-11T09:51:12.443Z</time></trkpt><trkpt lat="44.9066633" lon="7.8221283"><ele>239.00000000000003</ele><time>2026-04-11T09:51:13.443Z</time></trkpt><trkpt lat="44.906725" lon="7.8220917"><ele>239.0</ele><time>2026-04-11T09:51:14.443Z</time></trkpt><trkpt lat="44.9067883" lon="7.8220517"><ele>239.00000000000003</ele><time>2026-04-11T09:51:15.443Z</time></trkpt><trkpt lat="44.9068533" lon="7.8220183"><ele>239.00000000000003</ele><time>2026-04-11T09:51:16.443Z</time></trkpt><trkpt lat="44.9069167" lon="7.82198"><ele>239.16666666666669</ele><time>2026-04-11T09:51:17.443Z</time></trkpt><trkpt lat="44.90698" lon="7.8219433"><ele>239.33333333333334</ele><time>2026-04-11T09:51:18.443Z</time></trkpt><trkpt lat="44.9070433" lon="7.821915"><ele>239.5</ele><time>2026-04-11T09:51:19.443Z</time></trkpt><trkpt lat="44.907105" lon="7.821885"><ele>239.66666666666669</ele><time>2026-04-11T09:51:20.443Z</time></trkpt><trkpt lat="44.90722" lon="7.8218283"><ele>239.83333333333334</ele><time>2026-04-11T09:51:22.443Z</time></trkpt><trkpt lat="44.9073333" lon="7.8217933"><ele>240.0</ele><time>2026-04-11T09:51:24.443Z</time></trkpt><trkpt lat="44.9074317" lon="7.8217533"><ele>240.0</ele><time>2026-04-11T09:51:26.443Z</time></trkpt><trkpt lat="44.9075183" lon="7.8217233"><ele>240.0</ele><time>2026-04-11T09:51:28.443Z</time></trkpt><trkpt lat="44.90756" lon="7.8217917"><ele>240.0</ele><time>2026-04-11T09:51:30.443Z</time></trkpt><trkpt lat="44.90757" lon="7.8219033"><ele>240.0</ele><time>2026-04-11T09:51:32.443Z</time></trkpt><trkpt lat="44.9075867" lon="7.8220083"><ele>240.0</ele><time>2026-04-11T09:51:34.443Z</time></trkpt><trkpt lat="44.9075983" lon="7.8221533"><ele>240.0</ele><time>2026-04-11T09:51:36.444Z</time></trkpt><trkpt lat="44.9076167" lon="7.8223133"><ele>240.0</ele><time>2026-04-11T09:51:38.443Z</time></trkpt><trkpt lat="44.90764" lon="7.8224817"><ele>240.0</ele><time>2026-04-11T09:51:40.443Z</time></trkpt><trkpt lat="44.9076567" lon="7.8225683"><ele>240.0</ele><time>2026-04-11T09:51:41.443Z</time></trkpt><trkpt lat="44.907705" lon="7.822735"><ele>240.0</ele><time>2026-04-11T09:51:43.443Z</time></trkpt><trkpt lat="44.9077267" lon="7.8228267"><ele>240.0</ele><time>2026-04-11T09:51:44.444Z</time></trkpt><trkpt lat="44.9077783" lon="7.822985"><ele>240.0</ele><time>2026-04-11T09:51:46.443Z</time></trkpt><trkpt lat="44.9078067" lon="7.8230733"><ele>240.0</ele><time>2026-04-11T09:51:47.443Z</time></trkpt><trkpt lat="44.9078267" lon="7.8231633"><ele>240.0</ele><time>2026-04-11T09:51:48.443Z</time></trkpt><trkpt lat="44.907845" lon="7.8232533"><ele>240.0</ele><time>2026-04-11T09:51:49.444Z</time></trkpt><trkpt lat="44.907865" lon="7.8233433"><ele>240.0</ele><time>2026-04-11T09:51:50.443Z</time></trkpt><trkpt lat="44.907885" lon="7.823435"><ele>240.0</ele><time>2026-04-11T09:51:51.443Z</time></trkpt><trkpt lat="44.9079033" lon="7.8235283"><ele>240.0</ele><time>2026-04-11T09:51:52.443Z</time></trkpt><trkpt lat="44.907915" lon="7.823625"><ele>239.85714285714286</ele><time>2026-04-11T09:51:53.443Z</time></trkpt><trkpt lat="44.9079267" lon="7.8237283"><ele>239.71428571428572</ele><time>2026-04-11T09:51:54.443Z</time></trkpt><trkpt lat="44.90794" lon="7.823825"><ele>239.57142857142858</ele><time>2026-04-11T09:51:55.443Z</time></trkpt><trkpt lat="44.90796" lon="7.8239217"><ele>239.42857142857144</ele><time>2026-04-11T09:51:56.443Z</time></trkpt><trkpt lat="44.90798" lon="7.82402"><ele>239.28571428571428</ele><time>2026-04-11T09:51:57.443Z</time></trkpt><trkpt lat="44.9079967" lon="7.8241117"><ele>239.14285714285717</ele><time>2026-04-11T09:51:58.443Z</time></trkpt><trkpt lat="44.9080117" lon="7.8242133"><ele>239.00000000000003</ele><time>2026-04-11T09:51:59.443Z</time></trkpt><trkpt lat="44.9080267" lon="7.8243133"><ele>239.42857142857144</ele><time>2026-04-11T09:52:00.443Z</time></trkpt><trkpt lat="44.90804" lon="7.8244133"><ele>239.85714285714286</ele><time>2026-04-11T09:52:01.443Z</time></trkpt><trkpt lat="44.9080583" lon="7.8245067"><ele>240.28571428571428</ele><time>2026-04-11T09:52:02.443Z</time></trkpt><trkpt lat="44.90807" lon="7.8245983"><ele>240.71428571428572</ele><time>2026-04-11T09:52:03.443Z</time></trkpt><trkpt lat="44.9080833" lon="7.8246933"><ele>241.1428571428571</ele><time>2026-04-11T09:52:04.443Z</time></trkpt><trkpt lat="44.908095" lon="7.824795"><ele>241.57142857142856</ele><time>2026-04-11T09:52:05.443Z</time></trkpt><trkpt lat="44.90811" lon="7.8248933"><ele>242.0</ele><time>2026-04-11T09:52:06.443Z</time></trkpt><trkpt lat="44.908125" lon="7.8249933"><ele>242.0</ele><time>2026-04-11T09:52:07.443Z</time></trkpt><trkpt lat="44.9081367" lon="7.8250933"><ele>241.99999999999997</ele><time>2026-04-11T09:52:08.443Z</time></trkpt><trkpt lat="44.9081483" lon="7.8251883"><ele>242.0</ele><time>2026-04-11T09:52:09.443Z</time></trkpt><trkpt lat="44.9081617" lon="7.82529"><ele>242.0</ele><time>2026-04-11T09:52:10.443Z</time></trkpt><trkpt lat="44.9081783" lon="7.8253917"><ele>241.99999999999997</ele><time>2026-04-11T09:52:11.443Z</time></trkpt><trkpt lat="44.9081933" lon="7.8254867"><ele>242.0</ele><time>2026-04-11T09:52:12.443Z</time></trkpt><trkpt lat="44.9082083" lon="7.8255867"><ele>242.0</ele><time>2026-04-11T09:52:13.443Z</time></trkpt><trkpt lat="44.90822" lon="7.8256933"><ele>241.7142857142857</ele><time>2026-04-11T09:52:14.443Z</time></trkpt><trkpt lat="44.9082317" lon="7.82581"><ele>241.4285714285714</ele><time>2026-04-11T09:52:15.443Z</time></trkpt><trkpt lat="44.90825" lon="7.8259083"><ele>241.14285714285714</ele><time>2026-04-11T09:52:16.443Z</time></trkpt><trkpt lat="44.90827" lon="7.826"><ele>240.85714285714283</ele><time>2026-04-11T09:52:17.443Z</time></trkpt><trkpt lat="44.908295" lon="7.826095"><ele>240.57142857142856</ele><time>2026-04-11T09:52:18.443Z</time></trkpt><trkpt lat="44.908325" lon="7.8261833"><ele>240.28571428571428</ele><time>2026-04-11T09:52:19.443Z</time></trkpt><trkpt lat="44.90836" lon="7.8262767"><ele>240.0</ele><time>2026-04-11T09:52:20.443Z</time></trkpt><trkpt lat="44.9083933" lon="7.8263767"><ele>239.85714285714286</ele><time>2026-04-11T09:52:21.443Z</time></trkpt><trkpt lat="44.90843" lon="7.8264767"><ele>239.71428571428572</ele><time>2026-04-11T09:52:22.443Z</time></trkpt><trkpt lat="44.9084617" lon="7.8265683"><ele>239.57142857142858</ele><time>2026-04-11T09:52:23.443Z</time></trkpt><trkpt lat="44.9084933" lon="7.82666"><ele>239.42857142857144</ele><time>2026-04-11T09:52:24.443Z</time></trkpt><trkpt lat="44.908525" lon="7.8267517"><ele>239.28571428571428</ele><time>2026-04-11T09:52:25.444Z</time></trkpt><trkpt lat="44.90856" lon="7.826845"><ele>239.14285714285717</ele><time>2026-04-11T09:52:26.443Z</time></trkpt><trkpt lat="44.9085917" lon="7.8269383"><ele>239.00000000000003</ele><time>2026-04-11T09:52:27.443Z</time></trkpt><trkpt lat="44.9086267" lon="7.8270267"><ele>239.00000000000003</ele><time>2026-04-11T09:52:28.443Z</time></trkpt><trkpt lat="44.90866" lon="7.82712"><ele>239.0</ele><time>2026-04-11T09:52:29.444Z</time></trkpt><trkpt lat="44.9086883" lon="7.827215"><ele>239.00000000000003</ele><time>2026-04-11T09:52:30.443Z</time></trkpt><trkpt lat="44.908715" lon="7.82731"><ele>239.00000000000003</ele><time>2026-04-11T09:52:31.443Z</time></trkpt><trkpt lat="44.90874" lon="7.8274117"><ele>239.0</ele><time>2026-04-11T09:52:32.443Z</time></trkpt><trkpt lat="44.90877" lon="7.8275117"><ele>239.00000000000003</ele><time>2026-04-11T09:52:33.444Z</time></trkpt><trkpt lat="44.9087983" lon="7.8276083"><ele>239.00000000000003</ele><time>2026-04-11T09:52:34.443Z</time></trkpt><trkpt lat="44.908825" lon="7.8277117"><ele>239.14285714285717</ele><time>2026-04-11T09:52:35.443Z</time></trkpt><trkpt lat="44.9088517" lon="7.8278083"><ele>239.28571428571428</ele><time>2026-04-11T09:52:36.443Z</time></trkpt><trkpt lat="44.9088783" lon="7.827905"><ele>239.42857142857144</ele><time>2026-04-11T09:52:37.443Z</time></trkpt><trkpt lat="44.9088983" lon="7.8280017"><ele>239.57142857142858</ele><time>2026-04-11T09:52:38.443Z</time></trkpt><trkpt lat="44.9089167" lon="7.8281017"><ele>239.71428571428572</ele><time>2026-04-11T09:52:39.443Z</time></trkpt><trkpt lat="44.9089367" lon="7.8282083"><ele>239.85714285714286</ele><time>2026-04-11T09:52:40.443Z</time></trkpt><trkpt lat="44.908955" lon="7.8283083"><ele>240.0</ele><time>2026-04-11T09:52:41.443Z</time></trkpt><trkpt lat="44.90898" lon="7.8284083"><ele>240.33333333333334</ele><time>2026-04-11T09:52:42.443Z</time></trkpt><trkpt lat="44.9090017" lon="7.828505"><ele>240.66666666666669</ele><time>2026-04-11T09:52:43.443Z</time></trkpt><trkpt lat="44.9090183" lon="7.8286"><ele>241.0</ele><time>2026-04-11T09:52:44.443Z</time></trkpt><trkpt lat="44.9090567" lon="7.8287717"><ele>241.33333333333334</ele><time>2026-04-11T09:52:46.444Z</time></trkpt><trkpt lat="44.9090767" lon="7.828865"><ele>241.66666666666669</ele><time>2026-04-11T09:52:47.443Z</time></trkpt><trkpt lat="44.909095" lon="7.8289567"><ele>242.0</ele><time>2026-04-11T09:52:48.443Z</time></trkpt><trkpt lat="44.9091167" lon="7.8290583"><ele>242.0</ele><time>2026-04-11T09:52:49.443Z</time></trkpt><trkpt lat="44.9091317" lon="7.8291483"><ele>241.99999999999997</ele><time>2026-04-11T09:52:50.443Z</time></trkpt><trkpt lat="44.9091467" lon="7.829245"><ele>242.0</ele><time>2026-04-11T09:52:51.443Z</time></trkpt><trkpt lat="44.9091617" lon="7.8293417"><ele>242.0</ele><time>2026-04-11T09:52:52.443Z</time></trkpt><trkpt lat="44.9091817" lon="7.8294333"><ele>241.99999999999997</ele><time>2026-04-11T09:52:53.443Z</time></trkpt><trkpt lat="44.9091983" lon="7.8295317"><ele>242.0</ele><time>2026-04-11T09:52:54.443Z</time></trkpt><trkpt lat="44.9092167" lon="7.829625"><ele>242.0</ele><time>2026-04-11T09:52:55.443Z</time></trkpt><trkpt lat="44.9092383" lon="7.8297283"><ele>241.66666666666669</ele><time>2026-04-11T09:52:56.443Z</time></trkpt><trkpt lat="44.9092567" lon="7.829825"><ele>241.33333333333334</ele><time>2026-04-11T09:52:57.443Z</time></trkpt><trkpt lat="44.9092717" lon="7.82992"><ele>241.0</ele><time>2026-04-11T09:52:58.443Z</time></trkpt><trkpt lat="44.9092967" lon="7.8300083"><ele>240.66666666666669</ele><time>2026-04-11T09:52:59.443Z</time></trkpt><trkpt lat="44.9093283" lon="7.8300883"><ele>240.33333333333334</ele><time>2026-04-11T09:53:00.443Z</time></trkpt><trkpt lat="44.9094017" lon="7.8302033"><ele>240.0</ele><time>2026-04-11T09:53:02.443Z</time></trkpt><trkpt lat="44.90947" lon="7.8302633"><ele>240.0</ele><time>2026-04-11T09:53:04.444Z</time></trkpt><trkpt lat="44.9095383" lon="7.8302467"><ele>240.0</ele><time>2026-04-11T09:53:06.443Z</time></trkpt><trkpt lat="44.9096" lon="7.8301483"><ele>240.0</ele><time>2026-04-11T09:53:08.443Z</time></trkpt><trkpt lat="44.9096467" lon="7.8300483"><ele>240.0</ele><time>2026-04-11T09:53:10.443Z</time></trkpt><trkpt lat="44.9096917" lon="7.8299467"><ele>240.0</ele><time>2026-04-11T09:53:12.443Z</time></trkpt><trkpt lat="44.9097117" lon="7.829825"><ele>240.0</ele><time>2026-04-11T09:53:14.443Z</time></trkpt><trkpt lat="44.9097233" lon="7.8296783"><ele>240.0</ele><time>2026-04-11T09:53:16.443Z</time></trkpt><trkpt lat="44.9097633" lon="7.8295283"><ele>240.0</ele><time>2026-04-11T09:53:18.443Z</time></trkpt><trkpt lat="44.9098017" lon="7.82937"><ele>240.0</ele><time>2026-04-11T09:53:20.443Z</time></trkpt><trkpt lat="44.9098417" lon="7.8292167"><ele>240.0</ele><time>2026-04-11T09:53:22.443Z</time></trkpt><trkpt lat="44.9098783" lon="7.8290783"><ele>239.8</ele><time>2026-04-11T09:53:24.443Z</time></trkpt><trkpt lat="44.909935" lon="7.8289583"><ele>239.6</ele><time>2026-04-11T09:53:26.443Z</time></trkpt><trkpt lat="44.9099983" lon="7.82886"><ele>239.39999999999998</ele><time>2026-04-11T09:53:28.443Z</time></trkpt><trkpt lat="44.9100633" lon="7.8287717"><ele>239.2</ele><time>2026-04-11T09:53:30.443Z</time></trkpt><trkpt lat="44.9101517" lon="7.82867"><ele>239.0</ele><time>2026-04-11T09:53:32.443Z</time></trkpt><trkpt lat="44.9102367" lon="7.8286083"><ele>239.0</ele><time>2026-04-11T09:53:34.443Z</time></trkpt><trkpt lat="44.9103267" lon="7.8285367"><ele>238.99999999999997</ele><time>2026-04-11T09:53:36.443Z</time></trkpt><trkpt lat="44.9104083" lon="7.8284617"><ele>238.99999999999997</ele><time>2026-04-11T09:53:38.443Z</time></trkpt><trkpt lat="44.91051" lon="7.8283817"><ele>239.0</ele><time>2026-04-11T09:53:40.443Z</time></trkpt><trkpt lat="44.910615" lon="7.8283183"><ele>239.0</ele><time>2026-04-11T09:53:42.443Z</time></trkpt><trkpt lat="44.91067" lon="7.828275"><ele>239.16666666666669</ele><time>2026-04-11T09:53:43.443Z</time></trkpt><trkpt lat="44.9107267" lon="7.8282283"><ele>239.33333333333334</ele><time>2026-04-11T09:53:44.443Z</time></trkpt><trkpt lat="44.91078" lon="7.8281783"><ele>239.5</ele><time>2026-04-11T09:53:45.443Z</time></trkpt><trkpt lat="44.9108883" lon="7.8280933"><ele>239.66666666666669</ele><time>2026-04-11T09:53:47.443Z</time></trkpt><trkpt lat="44.91099" lon="7.8280067"><ele>239.83333333333334</ele><time>2026-04-11T09:53:49.443Z</time></trkpt><trkpt lat="44.911045" lon="7.8279633"><ele>240.0</ele><time>2026-04-11T09:53:50.443Z</time></trkpt><trkpt lat="44.9111033" lon="7.8279233"><ele>239.66666666666666</ele><time>2026-04-11T09:53:51.443Z</time></trkpt><trkpt lat="44.911165" lon="7.8278817"><ele>239.33333333333331</ele><time>2026-04-11T09:53:52.443Z</time></trkpt><trkpt lat="44.911225" lon="7.8278483"><ele>239.0</ele><time>2026-04-11T09:53:53.443Z</time></trkpt><trkpt lat="44.9112883" lon="7.827815"><ele>238.66666666666666</ele><time>2026-04-11T09:53:54.443Z</time></trkpt><trkpt lat="44.91135" lon="7.8277817"><ele>238.33333333333331</ele><time>2026-04-11T09:53:55.443Z</time></trkpt><trkpt lat="44.9114133" lon="7.827755"><ele>238.0</ele><time>2026-04-11T09:53:56.443Z</time></trkpt><trkpt lat="44.9115333" lon="7.8277083"><ele>238.0</ele><time>2026-04-11T09:53:58.444Z</time></trkpt><trkpt lat="44.9115967" lon="7.8276917"><ele>238.0</ele><time>2026-04-11T09:53:59.443Z</time></trkpt><trkpt lat="44.9117217" lon="7.8276633"><ele>238.0</ele><time>2026-04-11T09:54:01.443Z</time></trkpt><trkpt lat="44.911785" lon="7.8276533"><ele>238.0</ele><time>2026-04-11T09:54:02.443Z</time></trkpt><trkpt lat="44.9118483" lon="7.8276433"><ele>238.0</ele><time>2026-04-11T09:54:03.443Z</time></trkpt><trkpt lat="44.9119117" lon="7.8276383"><ele>238.0</ele><time>2026-04-11T09:54:04.443Z</time></trkpt><trkpt lat="44.911975" lon="7.8276367"><ele>238.0</ele><time>2026-04-11T09:54:05.443Z</time></trkpt><trkpt lat="44.91204" lon="7.8276417"><ele>238.5</ele><time>2026-04-11T09:54:06.443Z</time></trkpt><trkpt lat="44.9121617" lon="7.827665"><ele>239.0</ele><time>2026-04-11T09:54:08.443Z</time></trkpt><trkpt lat="44.91228" lon="7.827725"><ele>239.5</ele><time>2026-04-11T09:54:10.443Z</time></trkpt><trkpt lat="44.9123867" lon="7.8277933"><ele>240.0</ele><time>2026-04-11T09:54:12.443Z</time></trkpt><trkpt lat="44.9124833" lon="7.8278733"><ele>239.75</ele><time>2026-04-11T09:54:14.443Z</time></trkpt><trkpt lat="44.912595" lon="7.8279383"><ele>239.5</ele><time>2026-04-11T09:54:16.443Z</time></trkpt><trkpt lat="44.9127083" lon="7.8279767"><ele>239.25</ele><time>2026-04-11T09:54:18.443Z</time></trkpt><trkpt lat="44.9128183" lon="7.8280267"><ele>239.0</ele><time>2026-04-11T09:54:20.443Z</time></trkpt><trkpt lat="44.9129167" lon="7.828105"><ele>239.0</ele><time>2026-04-11T09:54:22.443Z</time></trkpt><trkpt lat="44.9130117" lon="7.828175"><ele>238.99999999999997</ele><time>2026-04-11T09:54:24.443Z</time></trkpt><trkpt lat="44.9131083" lon="7.8282133"><ele>238.99999999999997</ele><time>2026-04-11T09:54:26.443Z</time></trkpt><trkpt lat="44.9132083" lon="7.8282533"><ele>239.0</ele><time>2026-04-11T09:54:28.443Z</time></trkpt><trkpt lat="44.9133133" lon="7.8283217"><ele>239.0</ele><time>2026-04-11T09:54:30.443Z</time></trkpt><trkpt lat="44.9134167" lon="7.8283783"><ele>239.0</ele><time>2026-04-11T09:54:32.443Z</time></trkpt><trkpt lat="44.9135183" lon="7.8284333"><ele>238.99999999999997</ele><time>2026-04-11T09:54:34.443Z</time></trkpt><trkpt lat="44.9136183" lon="7.8284867"><ele>238.99999999999997</ele><time>2026-04-11T09:54:36.443Z</time></trkpt><trkpt lat="44.9137183" lon="7.8285617"><ele>239.0</ele><time>2026-04-11T09:54:38.443Z</time></trkpt><trkpt lat="44.9138183" lon="7.8286517"><ele>239.0</ele><time>2026-04-11T09:54:40.443Z</time></trkpt><trkpt lat="44.913925" lon="7.82874"><ele>239.0</ele><time>2026-04-11T09:54:42.443Z</time></trkpt><trkpt lat="44.9140167" lon="7.8288167"><ele>238.99999999999997</ele><time>2026-04-11T09:54:44.443Z</time></trkpt><trkpt lat="44.91409" lon="7.8288833"><ele>238.99999999999997</ele><time>2026-04-11T09:54:46.443Z</time></trkpt><trkpt lat="44.914165" lon="7.8289317"><ele>239.0</ele><time>2026-04-11T09:54:48.443Z</time></trkpt><trkpt lat="44.9142467" lon="7.828985"><ele>239.0</ele><time>2026-04-11T09:54:50.443Z</time></trkpt><trkpt lat="44.914335" lon="7.82905"><ele>239.2</ele><time>2026-04-11T09:54:52.443Z</time></trkpt><trkpt lat="44.9144333" lon="7.82911"><ele>239.39999999999998</ele><time>2026-04-11T09:54:54.443Z</time></trkpt><trkpt lat="44.9145467" lon="7.829125"><ele>239.6</ele><time>2026-04-11T09:54:56.443Z</time></trkpt><trkpt lat="44.9146533" lon="7.82912"><ele>239.8</ele><time>2026-04-11T09:54:58.443Z</time></trkpt><trkpt lat="44.9147367" lon="7.8291733"><ele>240.0</ele><time>2026-04-11T09:55:00.443Z</time></trkpt><trkpt lat="44.9147917" lon="7.829295"><ele>240.0</ele><time>2026-04-11T09:55:02.443Z</time></trkpt><trkpt lat="44.9148333" lon="7.8294367"><ele>240.0</ele><time>2026-04-11T09:55:04.443Z</time></trkpt><trkpt lat="44.9148517" lon="7.82958"><ele>240.0</ele><time>2026-04-11T09:55:06.443Z</time></trkpt><trkpt lat="44.9148917" lon="7.829725"><ele>240.0</ele><time>2026-04-11T09:55:08.443Z</time></trkpt><trkpt lat="44.91493" lon="7.8297967"><ele>240.0</ele><time>2026-04-11T09:55:09.443Z</time></trkpt><trkpt lat="44.9150083" lon="7.8299233"><ele>239.75</ele><time>2026-04-11T09:55:11.443Z</time></trkpt><trkpt lat="44.9150983" lon="7.8300317"><ele>239.5</ele><time>2026-04-11T09:55:13.443Z</time></trkpt><trkpt lat="44.9151917" lon="7.8301467"><ele>239.25</ele><time>2026-04-11T09:55:15.443Z</time></trkpt><trkpt lat="44.9152867" lon="7.8302617"><ele>239.0</ele><time>2026-04-11T09:55:17.443Z</time></trkpt><trkpt lat="44.9153783" lon="7.83038"><ele>239.75</ele><time>2026-04-11T09:55:19.443Z</time></trkpt><trkpt lat="44.91547" lon="7.8304933"><ele>240.5</ele><time>2026-04-11T09:55:21.443Z</time></trkpt><trkpt lat="44.9155517" lon="7.8306"><ele>241.25</ele><time>2026-04-11T09:55:23.443Z</time></trkpt><trkpt lat="44.915635" lon="7.8307067"><ele>242.0</ele><time>2026-04-11T09:55:25.443Z</time></trkpt><trkpt lat="44.9157333" lon="7.8308083"><ele>242.0</ele><time>2026-04-11T09:55:27.443Z</time></trkpt><trkpt lat="44.9158383" lon="7.83089"><ele>242.0</ele><time>2026-04-11T09:55:29.443Z</time></trkpt><trkpt lat="44.9159383" lon="7.8309783"><ele>242.0</ele><time>2026-04-11T09:55:31.443Z</time></trkpt><trkpt lat="44.9160467" lon="7.8310383"><ele>242.0</ele><time>2026-04-11T09:55:33.443Z</time></trkpt><trkpt lat="44.916155" lon="7.8310867"><ele>242.75</ele><time>2026-04-11T09:55:35.443Z</time></trkpt><trkpt lat="44.916265" lon="7.8311167"><ele>243.5</ele><time>2026-04-11T09:55:37.443Z</time></trkpt><trkpt lat="44.9163833" lon="7.8311267"><ele>244.25</ele><time>2026-04-11T09:55:39.443Z</time></trkpt><trkpt lat="44.9165033" lon="7.83113"><ele>245.0</ele><time>2026-04-11T09:55:41.443Z</time></trkpt><trkpt lat="44.9166133" lon="7.8311383"><ele>244.33333333333334</ele><time>2026-04-11T09:55:43.444Z</time></trkpt><trkpt lat="44.9167383" lon="7.831105"><ele>243.66666666666669</ele><time>2026-04-11T09:55:45.443Z</time></trkpt><trkpt lat="44.9168483" lon="7.83104"><ele>243.0</ele><time>2026-04-11T09:55:47.444Z</time></trkpt><trkpt lat="44.9168967" lon="7.8309817"><ele>242.33333333333331</ele><time>2026-04-11T09:55:48.443Z</time></trkpt><trkpt lat="44.9169483" lon="7.8309233"><ele>241.66666666666666</ele><time>2026-04-11T09:55:49.443Z</time></trkpt><trkpt lat="44.917" lon="7.830855"><ele>241.0</ele><time>2026-04-11T09:55:50.443Z</time></trkpt><trkpt lat="44.9170483" lon="7.8307883"><ele>240.85714285714286</ele><time>2026-04-11T09:55:51.444Z</time></trkpt><trkpt lat="44.9171" lon="7.8307267"><ele>240.71428571428572</ele><time>2026-04-11T09:55:52.443Z</time></trkpt><trkpt lat="44.9171517" lon="7.8306683"><ele>240.57142857142858</ele><time>2026-04-11T09:55:53.443Z</time></trkpt><trkpt lat="44.917205" lon="7.83061"><ele>240.42857142857144</ele><time>2026-04-11T09:55:54.443Z</time></trkpt><trkpt lat="44.917265" lon="7.8305583"><ele>240.28571428571428</ele><time>2026-04-11T09:55:55.443Z</time></trkpt><trkpt lat="44.91732" lon="7.8304933"><ele>240.14285714285717</ele><time>2026-04-11T09:55:56.443Z</time></trkpt><trkpt lat="44.9173733" lon="7.830425"><ele>240.0</ele><time>2026-04-11T09:55:57.443Z</time></trkpt><trkpt lat="44.9174317" lon="7.83036"><ele>240.0</ele><time>2026-04-11T09:55:58.443Z</time></trkpt><trkpt lat="44.9174917" lon="7.8302967"><ele>240.0</ele><time>2026-04-11T09:55:59.443Z</time></trkpt><trkpt lat="44.9175567" lon="7.83025"><ele>240.0</ele><time>2026-04-11T09:56:00.444Z</time></trkpt><trkpt lat="44.91763" lon="7.8302117"><ele>240.0</ele><time>2026-04-11T09:56:01.443Z</time></trkpt><trkpt lat="44.9177017" lon="7.83019"><ele>240.0</ele><time>2026-04-11T09:56:02.443Z</time></trkpt><trkpt lat="44.917775" lon="7.8301867"><ele>240.0</ele><time>2026-04-11T09:56:03.443Z</time></trkpt><trkpt lat="44.9178467" lon="7.8301867"><ele>240.0</ele><time>2026-04-11T09:56:04.443Z</time></trkpt><trkpt lat="44.917915" lon="7.8302"><ele>239.85714285714286</ele><time>2026-04-11T09:56:05.443Z</time></trkpt><trkpt lat="44.9179883" lon="7.8302067"><ele>239.71428571428572</ele><time>2026-04-11T09:56:06.444Z</time></trkpt><trkpt lat="44.9180567" lon="7.8302183"><ele>239.57142857142858</ele><time>2026-04-11T09:56:07.443Z</time></trkpt><trkpt lat="44.9181267" lon="7.8302367"><ele>239.42857142857144</ele><time>2026-04-11T09:56:08.443Z</time></trkpt><trkpt lat="44.9181917" lon="7.8302583"><ele>239.28571428571428</ele><time>2026-04-11T09:56:09.443Z</time></trkpt><trkpt lat="44.9182533" lon="7.8302783"><ele>239.14285714285717</ele><time>2026-04-11T09:56:10.444Z</time></trkpt><trkpt lat="44.9183167" lon="7.8302933"><ele>239.00000000000003</ele><time>2026-04-11T09:56:11.443Z</time></trkpt><trkpt lat="44.9183833" lon="7.830305"><ele>239.00000000000003</ele><time>2026-04-11T09:56:12.443Z</time></trkpt><trkpt lat="44.9184483" lon="7.83032"><ele>239.0</ele><time>2026-04-11T09:56:13.443Z</time></trkpt><trkpt lat="44.9185167" lon="7.830395"><ele>239.0</ele><time>2026-04-11T09:56:15.443Z</time></trkpt><trkpt lat="44.9185" lon="7.830495"><ele>239.0</ele><time>2026-04-11T09:56:17.443Z</time></trkpt><trkpt lat="44.918465" lon="7.83061"><ele>239.00000000000003</ele><time>2026-04-11T09:56:33.443Z</time></trkpt><trkpt lat="44.9184517" lon="7.8307267"><ele>239.0</ele><time>2026-04-11T09:56:37.443Z</time></trkpt><trkpt lat="44.918435" lon="7.8308367"><ele>239.0</ele><time>2026-04-11T09:56:39.443Z</time></trkpt><trkpt lat="44.9184167" lon="7.8309717"><ele>238.99999999999997</ele><time>2026-04-11T09:56:41.443Z</time></trkpt><trkpt lat="44.91839" lon="7.831125"><ele>238.99999999999997</ele><time>2026-04-11T09:56:43.443Z</time></trkpt><trkpt lat="44.9183583" lon="7.8312933"><ele>239.0</ele><time>2026-04-11T09:56:45.443Z</time></trkpt><trkpt lat="44.9183317" lon="7.8314483"><ele>239.0</ele><time>2026-04-11T09:56:47.444Z</time></trkpt><trkpt lat="44.9183033" lon="7.8316017"><ele>238.75</ele><time>2026-04-11T09:56:49.443Z</time></trkpt><trkpt lat="44.9182833" lon="7.83177"><ele>238.5</ele><time>2026-04-11T09:56:51.443Z</time></trkpt><trkpt lat="44.91828" lon="7.8319367"><ele>238.25</ele><time>2026-04-11T09:56:53.443Z</time></trkpt><trkpt lat="44.91829" lon="7.8321017"><ele>238.0</ele><time>2026-04-11T09:56:55.443Z</time></trkpt><trkpt lat="44.9183033" lon="7.8322683"><ele>238.0</ele><time>2026-04-11T09:56:57.443Z</time></trkpt><trkpt lat="44.918315" lon="7.8324367"><ele>238.0</ele><time>2026-04-11T09:56:59.443Z</time></trkpt><trkpt lat="44.9183317" lon="7.8326133"><ele>238.0</ele><time>2026-04-11T09:57:01.443Z</time></trkpt><trkpt lat="44.918355" lon="7.8327883"><ele>238.0</ele><time>2026-04-11T09:57:03.443Z</time></trkpt><trkpt lat="44.9183717" lon="7.8328783"><ele>238.0</ele><time>2026-04-11T09:57:04.443Z</time></trkpt><trkpt lat="44.9184" lon="7.833035"><ele>238.0</ele><time>2026-04-11T09:57:06.444Z</time></trkpt><trkpt lat="44.918445" lon="7.83317"><ele>238.0</ele><time>2026-04-11T09:57:08.443Z</time></trkpt><trkpt lat="44.9185067" lon="7.8332817"><ele>238.0</ele><time>2026-04-11T09:57:10.444Z</time></trkpt><trkpt lat="44.9185717" lon="7.83339"><ele>238.0</ele><time>2026-04-11T09:57:12.443Z</time></trkpt><trkpt lat="44.918635" lon="7.8335"><ele>238.0</ele><time>2026-04-11T09:57:14.443Z</time></trkpt><trkpt lat="44.9186833" lon="7.8336133"><ele>238.25</ele><time>2026-04-11T09:57:16.443Z</time></trkpt><trkpt lat="44.9187383" lon="7.833755"><ele>238.5</ele><time>2026-04-11T09:57:18.444Z</time></trkpt><trkpt lat="44.9187983" lon="7.8338983"><ele>238.75</ele><time>2026-04-11T09:57:20.443Z</time></trkpt><trkpt lat="44.9188383" lon="7.8340567"><ele>239.0</ele><time>2026-04-11T09:57:22.443Z</time></trkpt><trkpt lat="44.9188783" lon="7.8342233"><ele>239.14285714285717</ele><time>2026-04-11T09:57:24.442Z</time></trkpt><trkpt lat="44.9189" lon="7.83431"><ele>239.28571428571428</ele><time>2026-04-11T09:57:25.442Z</time></trkpt><trkpt lat="44.91892" lon="7.8343967"><ele>239.42857142857144</ele><time>2026-04-11T09:57:26.442Z</time></trkpt><trkpt lat="44.9189467" lon="7.8344833"><ele>239.57142857142858</ele><time>2026-04-11T09:57:27.442Z</time></trkpt><trkpt lat="44.9189717" lon="7.8345683"><ele>239.71428571428572</ele><time>2026-04-11T09:57:28.442Z</time></trkpt><trkpt lat="44.9189933" lon="7.8346567"><ele>239.85714285714286</ele><time>2026-04-11T09:57:29.442Z</time></trkpt><trkpt lat="44.9190167" lon="7.834745"><ele>240.0</ele><time>2026-04-11T09:57:30.442Z</time></trkpt><trkpt lat="44.91904" lon="7.8348283"><ele>240.0</ele><time>2026-04-11T09:57:31.442Z</time></trkpt><trkpt lat="44.9191" lon="7.8349783"><ele>240.0</ele><time>2026-04-11T09:57:33.442Z</time></trkpt><trkpt lat="44.9191367" lon="7.8350617"><ele>240.0</ele><time>2026-04-11T09:57:34.442Z</time></trkpt><trkpt lat="44.9191817" lon="7.835135"><ele>240.0</ele><time>2026-04-11T09:57:35.442Z</time></trkpt><trkpt lat="44.9192367" lon="7.8351917"><ele>240.0</ele><time>2026-04-11T09:57:36.442Z</time></trkpt><trkpt lat="44.91929" lon="7.8352483"><ele>240.0</ele><time>2026-04-11T09:57:37.442Z</time></trkpt><trkpt lat="44.919345" lon="7.8353117"><ele>239.4</ele><time>2026-04-11T09:57:38.442Z</time></trkpt><trkpt lat="44.9193917" lon="7.8353733"><ele>238.8</ele><time>2026-04-11T09:57:39.442Z</time></trkpt><trkpt lat="44.9194817" lon="7.8355083"><ele>238.2</ele><time>2026-04-11T09:57:41.442Z</time></trkpt><trkpt lat="44.9195567" lon="7.8356533"><ele>237.6</ele><time>2026-04-11T09:57:43.442Z</time></trkpt><trkpt lat="44.9196217" lon="7.8357867"><ele>237.0</ele><time>2026-04-11T09:57:45.442Z</time></trkpt><trkpt lat="44.9196967" lon="7.83592"><ele>237.25</ele><time>2026-04-11T09:57:47.442Z</time></trkpt><trkpt lat="44.9197683" lon="7.8360417"><ele>237.5</ele><time>2026-04-11T09:57:49.442Z</time></trkpt><trkpt lat="44.9198417" lon="7.8361683"><ele>237.75</ele><time>2026-04-11T09:57:51.442Z</time></trkpt><trkpt lat="44.91991" lon="7.8363"><ele>238.0</ele><time>2026-04-11T09:57:53.442Z</time></trkpt><trkpt lat="44.919945" lon="7.836445"><ele>238.0</ele><time>2026-04-11T09:57:55.442Z</time></trkpt><trkpt lat="44.9199617" lon="7.8365933"><ele>238.0</ele><time>2026-04-11T09:57:57.442Z</time></trkpt><trkpt lat="44.91998" lon="7.83674"><ele>238.0</ele><time>2026-04-11T09:57:59.442Z</time></trkpt><trkpt lat="44.919995" lon="7.8368733"><ele>238.0</ele><time>2026-04-11T09:58:01.442Z</time></trkpt><trkpt lat="44.9200233" lon="7.8369967"><ele>238.0</ele><time>2026-04-11T09:58:03.442Z</time></trkpt><trkpt lat="44.9200667" lon="7.837095"><ele>238.33333333333331</ele><time>2026-04-11T09:58:05.442Z</time></trkpt><trkpt lat="44.92012" lon="7.8371933"><ele>238.66666666666666</ele><time>2026-04-11T09:58:07.442Z</time></trkpt><trkpt lat="44.9201817" lon="7.8372867"><ele>239.0</ele><time>2026-04-11T09:58:09.442Z</time></trkpt><trkpt lat="44.9202417" lon="7.8373617"><ele>239.33333333333331</ele><time>2026-04-11T09:58:11.442Z</time></trkpt><trkpt lat="44.9203" lon="7.8374333"><ele>239.66666666666666</ele><time>2026-04-11T09:58:13.442Z</time></trkpt><trkpt lat="44.9203517" lon="7.8375167"><ele>240.0</ele><time>2026-04-11T09:58:15.442Z</time></trkpt><trkpt lat="44.920395" lon="7.8375883"><ele>240.33333333333334</ele><time>2026-04-11T09:58:17.442Z</time></trkpt><trkpt lat="44.9204383" lon="7.83766"><ele>240.66666666666669</ele><time>2026-04-11T09:58:19.442Z</time></trkpt><trkpt lat="44.9205033" lon="7.8377617"><ele>241.0</ele><time>2026-04-11T09:58:22.442Z</time></trkpt><trkpt lat="44.9205517" lon="7.8378617"><ele>241.33333333333334</ele><time>2026-04-11T09:58:25.442Z</time></trkpt><trkpt lat="44.92058" lon="7.8379417"><ele>241.66666666666669</ele><time>2026-04-11T09:58:28.442Z</time></trkpt><trkpt lat="44.9206" lon="7.8380433"><ele>242.0</ele><time>2026-04-11T09:58:33.442Z</time></trkpt><trkpt lat="44.9206483" lon="7.8381583"><ele>242.0</ele><time>2026-04-11T09:58:36.442Z</time></trkpt><trkpt lat="44.9206933" lon="7.838255"><ele>242.0</ele><time>2026-04-11T09:58:38.442Z</time></trkpt><trkpt lat="44.9207467" lon="7.838375"><ele>242.0</ele><time>2026-04-11T09:58:40.442Z</time></trkpt><trkpt lat="44.9208" lon="7.8385067"><ele>242.0</ele><time>2026-04-11T09:58:42.442Z</time></trkpt><trkpt lat="44.9208583" lon="7.83863"><ele>242.0</ele><time>2026-04-11T09:58:44.442Z</time></trkpt><trkpt lat="44.9209133" lon="7.838765"><ele>242.00000000000003</ele><time>2026-04-11T09:58:46.442Z</time></trkpt><trkpt lat="44.9209717" lon="7.83889"><ele>242.0</ele><time>2026-04-11T09:58:48.442Z</time></trkpt><trkpt lat="44.92102" lon="7.8390083"><ele>242.0</ele><time>2026-04-11T09:58:50.442Z</time></trkpt><trkpt lat="44.9210633" lon="7.8391117"><ele>242.0</ele><time>2026-04-11T09:58:52.442Z</time></trkpt><trkpt lat="44.921095" lon="7.83921"><ele>242.00000000000003</ele><time>2026-04-11T09:58:54.442Z</time></trkpt><trkpt lat="44.9211317" lon="7.8392983"><ele>242.0</ele><time>2026-04-11T09:58:56.442Z</time></trkpt><trkpt lat="44.9211617" lon="7.8393867"><ele>242.00000000000003</ele><time>2026-04-11T09:58:58.442Z</time></trkpt><trkpt lat="44.9211833" lon="7.8394733"><ele>242.0</ele><time>2026-04-11T09:59:00.442Z</time></trkpt><trkpt lat="44.9212117" lon="7.8395783"><ele>242.0</ele><time>2026-04-11T09:59:02.442Z</time></trkpt><trkpt lat="44.9212433" lon="7.8396883"><ele>242.0</ele><time>2026-04-11T09:59:04.442Z</time></trkpt><trkpt lat="44.9212717" lon="7.83979"><ele>242.00000000000003</ele><time>2026-04-11T09:59:06.442Z</time></trkpt><trkpt lat="44.9213067" lon="7.8398967"><ele>242.0</ele><time>2026-04-11T09:59:08.442Z</time></trkpt><trkpt lat="44.9213467" lon="7.8399967"><ele>242.00000000000003</ele><time>2026-04-11T09:59:10.442Z</time></trkpt><trkpt lat="44.9213867" lon="7.84009"><ele>242.0</ele><time>2026-04-11T09:59:12.443Z</time></trkpt><trkpt lat="44.9214367" lon="7.84019"><ele>242.0</ele><time>2026-04-11T09:59:15.442Z</time></trkpt><trkpt lat="44.92146" lon="7.8402917"><ele>242.0</ele><time>2026-04-11T09:59:19.442Z</time></trkpt><trkpt lat="44.92141" lon="7.8403983"><ele>242.00000000000003</ele><time>2026-04-11T09:59:21.443Z</time></trkpt><trkpt lat="44.9213533" lon="7.84051"><ele>242.0</ele><time>2026-04-11T09:59:23.442Z</time></trkpt><trkpt lat="44.9212933" lon="7.8405817"><ele>242.14285714285714</ele><time>2026-04-11T09:59:25.442Z</time></trkpt><trkpt lat="44.9212183" lon="7.840615"><ele>242.28571428571428</ele><time>2026-04-11T09:59:27.442Z</time></trkpt><trkpt lat="44.921115" lon="7.840655"><ele>242.42857142857142</ele><time>2026-04-11T10:02:42.442Z</time></trkpt><trkpt lat="44.9210517" lon="7.8406533"><ele>242.57142857142856</ele><time>2026-04-11T10:02:44.443Z</time></trkpt><trkpt lat="44.920985" lon="7.8406617"><ele>242.71428571428572</ele><time>2026-04-11T10:02:46.442Z</time></trkpt><trkpt lat="44.92092" lon="7.840685"><ele>242.85714285714283</ele><time>2026-04-11T10:02:48.442Z</time></trkpt><trkpt lat="44.920865" lon="7.8407283"><ele>243.0</ele><time>2026-04-11T10:02:50.442Z</time></trkpt><trkpt lat="44.92081" lon="7.8407817"><ele>243.0</ele><time>2026-04-11T10:02:52.442Z</time></trkpt><trkpt lat="44.92075" lon="7.84084"><ele>243.0</ele><time>2026-04-11T10:02:54.442Z</time></trkpt><trkpt lat="44.9207" lon="7.8409033"><ele>243.0</ele><time>2026-04-11T10:02:56.442Z</time></trkpt><trkpt lat="44.92065" lon="7.8409733"><ele>243.0</ele><time>2026-04-11T10:02:58.442Z</time></trkpt><trkpt lat="44.9206067" lon="7.8410583"><ele>243.0</ele><time>2026-04-11T10:03:00.442Z</time></trkpt><trkpt lat="44.9205417" lon="7.8411317"><ele>243.0</ele><time>2026-04-11T10:03:02.442Z</time></trkpt><trkpt lat="44.9204683" lon="7.8411967"><ele>243.5</ele><time>2026-04-11T10:03:04.442Z</time></trkpt><trkpt lat="44.9204133" lon="7.8413083"><ele>244.0</ele><time>2026-04-11T10:03:06.442Z</time></trkpt><trkpt lat="44.9203667" lon="7.8414017"><ele>244.5</ele><time>2026-04-11T10:03:08.442Z</time></trkpt><trkpt lat="44.920325" lon="7.8414917"><ele>245.0</ele><time>2026-04-11T10:03:11.442Z</time></trkpt><trkpt lat="44.92038" lon="7.8414383"><ele>245.5</ele><time>2026-04-11T10:03:29.442Z</time></trkpt><trkpt lat="44.920335" lon="7.8415183"><ele>246.0</ele><time>2026-04-11T10:04:05.442Z</time></trkpt><trkpt lat="44.9202917" lon="7.841605"><ele>246.0</ele><time>2026-04-11T10:04:07.442Z</time></trkpt><trkpt lat="44.9202617" lon="7.8417"><ele>246.0</ele><time>2026-04-11T10:04:09.442Z</time></trkpt><trkpt lat="44.9203267" lon="7.8418"><ele>246.0</ele><time>2026-04-11T10:04:12.442Z</time></trkpt><trkpt lat="44.9203833" lon="7.8418717"><ele>246.0</ele><time>2026-04-11T10:04:14.442Z</time></trkpt><trkpt lat="44.92045" lon="7.8419433"><ele>246.0</ele><time>2026-04-11T10:04:16.442Z</time></trkpt><trkpt lat="44.9205133" lon="7.84201"><ele>246.0</ele><time>2026-04-11T10:04:18.442Z</time></trkpt><trkpt lat="44.9205733" lon="7.8420717"><ele>246.66666666666666</ele><time>2026-04-11T10:04:20.442Z</time></trkpt><trkpt lat="44.92063" lon="7.842135"><ele>247.33333333333331</ele><time>2026-04-11T10:04:22.442Z</time></trkpt><trkpt lat="44.92068" lon="7.842195"><ele>248.0</ele><time>2026-04-11T10:04:24.442Z</time></trkpt><trkpt lat="44.9207467" lon="7.8422733"><ele>248.66666666666666</ele><time>2026-04-11T10:04:27.442Z</time></trkpt><trkpt lat="44.9208117" lon="7.8423433"><ele>249.33333333333331</ele><time>2026-04-11T10:04:30.442Z</time></trkpt><trkpt lat="44.9208667" lon="7.842425"><ele>250.0</ele><time>2026-04-11T10:04:33.442Z</time></trkpt><trkpt lat="44.9209" lon="7.84252"><ele>249.99999999999997</ele><time>2026-04-11T10:04:37.442Z</time></trkpt><trkpt lat="44.920875" lon="7.8426217"><ele>250.0</ele><time>2026-04-11T10:04:39.442Z</time></trkpt><trkpt lat="44.92082" lon="7.8427283"><ele>250.0</ele><time>2026-04-11T10:04:41.443Z</time></trkpt><trkpt lat="44.9207683" lon="7.84283"><ele>250.0</ele><time>2026-04-11T10:04:43.442Z</time></trkpt><trkpt lat="44.92072" lon="7.84293"><ele>249.99999999999997</ele><time>2026-04-11T10:04:45.442Z</time></trkpt><trkpt lat="44.920665" lon="7.8430283"><ele>250.0</ele><time>2026-04-11T10:04:47.442Z</time></trkpt><trkpt lat="44.9206217" lon="7.84312"><ele>250.83333333333331</ele><time>2026-04-11T10:04:49.442Z</time></trkpt><trkpt lat="44.92058" lon="7.8432017"><ele>251.66666666666666</ele><time>2026-04-11T10:04:51.442Z</time></trkpt><trkpt lat="44.9205333" lon="7.8432733"><ele>252.5</ele><time>2026-04-11T10:04:53.442Z</time></trkpt><trkpt lat="44.92049" lon="7.8433483"><ele>253.33333333333331</ele><time>2026-04-11T10:04:55.442Z</time></trkpt><trkpt lat="44.9204383" lon="7.8434283"><ele>254.16666666666666</ele><time>2026-04-11T10:04:58.442Z</time></trkpt><trkpt lat="44.9203867" lon="7.8435183"><ele>255.0</ele><time>2026-04-11T10:05:01.442Z</time></trkpt><trkpt lat="44.9203233" lon="7.8436233"><ele>255.33333333333334</ele><time>2026-04-11T10:05:04.442Z</time></trkpt><trkpt lat="44.920275" lon="7.8437183"><ele>255.66666666666669</ele><time>2026-04-11T10:05:06.442Z</time></trkpt><trkpt lat="44.9202317" lon="7.8438267"><ele>256.0</ele><time>2026-04-11T10:05:08.442Z</time></trkpt><trkpt lat="44.9202" lon="7.8439267"><ele>256.33333333333337</ele><time>2026-04-11T10:05:10.442Z</time></trkpt><trkpt lat="44.9201783" lon="7.8440283"><ele>256.6666666666667</ele><time>2026-04-11T10:05:12.442Z</time></trkpt><trkpt lat="44.92018" lon="7.8441267"><ele>257.0</ele><time>2026-04-11T10:05:14.442Z</time></trkpt><trkpt lat="44.9201633" lon="7.8442533"><ele>257.0</ele><time>2026-04-11T10:05:17.442Z</time></trkpt><trkpt lat="44.9201417" lon="7.8443567"><ele>257.0</ele><time>2026-04-11T10:05:20.442Z</time></trkpt><trkpt lat="44.920175" lon="7.8444383"><ele>257.0</ele><time>2026-04-11T10:05:23.442Z</time></trkpt><trkpt lat="44.920245" lon="7.84449"><ele>257.0</ele><time>2026-04-11T10:05:26.442Z</time></trkpt><trkpt lat="44.9203033" lon="7.8445267"><ele>257.0</ele><time>2026-04-11T10:05:29.442Z</time></trkpt><trkpt lat="44.92046" lon="7.8446167"><ele>257.0</ele><time>2026-04-11T10:05:49.442Z</time></trkpt><trkpt lat="44.9205217" lon="7.84466"><ele>257.0</ele><time>2026-04-11T10:05:55.442Z</time></trkpt><trkpt lat="44.9206" lon="7.8447033"><ele>257.0</ele><time>2026-04-11T10:05:59.442Z</time></trkpt><trkpt lat="44.92066" lon="7.8447467"><ele>257.0</ele><time>2026-04-11T10:06:02.442Z</time></trkpt><trkpt lat="44.92072" lon="7.8448"><ele>257.0</ele><time>2026-04-11T10:06:06.442Z</time></trkpt><trkpt lat="44.9207995" lon="7.8450816"><ele>257.0</ele><time>2026-04-11T10:07:01.828Z</time></trkpt><trkpt lat="44.9207583" lon="7.845275"><ele>257.0</ele><time>2026-04-11T10:07:29.455Z</time></trkpt><trkpt lat="44.9205717" lon="7.8454"><ele>257.0</ele><time>2026-04-11T10:07:31.455Z</time></trkpt><trkpt lat="44.92055" lon="7.8452617"><ele>257.0</ele><time>2026-04-11T10:07:37.455Z</time></trkpt><trkpt lat="44.9206567" lon="7.8451883"><ele>257.0</ele><time>2026-04-11T10:07:42.455Z</time></trkpt><trkpt lat="44.9206183" lon="7.8452783"><ele>257.0</ele><time>2026-04-11T10:08:28.456Z</time></trkpt><trkpt lat="44.9205233" lon="7.8452933"><ele>257.0</ele><time>2026-04-11T10:08:29.456Z</time></trkpt><trkpt lat="44.9208036" lon="7.8450762"><ele>257.0</ele><time>2026-04-11T10:09:16.42Z</time></trkpt><trkpt lat="44.9207383" lon="7.84479"><ele>257.0</ele><time>2026-04-11T10:09:22.454Z</time></trkpt><trkpt lat="44.9207733" lon="7.8449317"><ele>257.0</ele><time>2026-04-11T10:09:31.454Z</time></trkpt><trkpt lat="44.9207467" lon="7.8448467"><ele>257.0</ele><time>2026-04-11T10:09:42.454Z</time></trkpt><trkpt lat="44.9207827" lon="7.8449242"><ele>257.0</ele><time>2026-04-11T10:10:00.517Z</time></trkpt><trkpt lat="44.92074" lon="7.8449906"><ele>257.0</ele><time>2026-04-11T10:10:08.472Z</time></trkpt><trkpt lat="44.9207918" lon="7.8450562"><ele>257.0</ele><time>2026-04-11T10:11:49.483Z</time></trkpt><trkpt lat="44.9208731" lon="7.8450631"><ele>257.0</ele><time>2026-04-11T10:11:52.519Z</time></trkpt><trkpt lat="44.9209338" lon="7.8450985"><ele>257.0</ele><time>2026-04-11T10:11:54.508Z</time></trkpt><trkpt lat="44.9209922" lon="7.845183"><ele>257.0</ele><time>2026-04-11T10:11:57.543Z</time></trkpt><trkpt lat="44.920945" lon="7.8450603"><ele>257.0</ele><time>2026-04-11T10:12:01.521Z</time></trkpt><trkpt lat="44.9209092" lon="7.8449869"><ele>257.0</ele><time>2026-04-11T10:12:17.311Z</time></trkpt><trkpt lat="44.9208464" lon="7.8449299"><ele>257.0</ele><time>2026-04-11T10:12:20.468Z</time></trkpt><trkpt lat="44.9207846" lon="7.8449546"><ele>257.0</ele><time>2026-04-11T10:12:58.57Z</time></trkpt><trkpt lat="44.9207201" lon="7.8449847"><ele>257.0</ele><time>2026-04-11T10:14:09.454Z</time></trkpt><trkpt lat="44.9207701" lon="7.8450897"><ele>257.0</ele><time>2026-04-11T10:15:42.494Z</time></trkpt><trkpt lat="44.920755" lon="7.8450017"><ele>257.0</ele><time>2026-04-11T10:27:44.452Z</time></trkpt><trkpt lat="44.9207724" lon="7.8449072"><ele>257.0</ele><time>2026-04-11T10:31:11.489Z</time></trkpt><trkpt lat="44.9207774" lon="7.8448061"><ele>257.0</ele><time>2026-04-11T10:31:14.525Z</time></trkpt><trkpt lat="44.9208019" lon="7.8447185"><ele>257.0</ele><time>2026-04-11T10:31:16.513Z</time></trkpt><trkpt lat="44.9208917" lon="7.84461"><ele>257.0</ele><time>2026-04-11T10:31:17.452Z</time></trkpt><trkpt lat="44.9209383" lon="7.8445017"><ele>257.0</ele><time>2026-04-11T10:31:21.452Z</time></trkpt><trkpt lat="44.92097" lon="7.8444067"><ele>257.0</ele><time>2026-04-11T10:31:24.452Z</time></trkpt><trkpt lat="44.92103" lon="7.8443167"><ele>256.2857142857143</ele><time>2026-04-11T10:31:27.452Z</time></trkpt><trkpt lat="44.9210817" lon="7.8442417"><ele>255.57142857142858</ele><time>2026-04-11T10:31:29.452Z</time></trkpt><trkpt lat="44.9211183" lon="7.8441517"><ele>254.85714285714286</ele><time>2026-04-11T10:31:31.452Z</time></trkpt><trkpt lat="44.9211583" lon="7.84405"><ele>254.14285714285714</ele><time>2026-04-11T10:31:34.452Z</time></trkpt><trkpt lat="44.9211983" lon="7.843965"><ele>253.42857142857144</ele><time>2026-04-11T10:31:36.453Z</time></trkpt><trkpt lat="44.9212583" lon="7.843935"><ele>252.71428571428572</ele><time>2026-04-11T10:31:40.452Z</time></trkpt><trkpt lat="44.9213217" lon="7.8439767"><ele>252.0</ele><time>2026-04-11T10:31:43.452Z</time></trkpt><trkpt lat="44.9213783" lon="7.8440183"><ele>252.0</ele><time>2026-04-11T10:31:45.452Z</time></trkpt><trkpt lat="44.9214517" lon="7.844045"><ele>252.0</ele><time>2026-04-11T10:31:47.452Z</time></trkpt><trkpt lat="44.9215067" lon="7.8439817"><ele>252.0</ele><time>2026-04-11T10:31:50.452Z</time></trkpt><trkpt lat="44.9215417" lon="7.843895"><ele>252.0</ele><time>2026-04-11T10:31:53.452Z</time></trkpt><trkpt lat="44.9215833" lon="7.8438267"><ele>252.0</ele><time>2026-04-11T10:31:56.452Z</time></trkpt><trkpt lat="44.9216667" lon="7.843815"><ele>252.0</ele><time>2026-04-11T10:31:59.452Z</time></trkpt><trkpt lat="44.921725" lon="7.843745"><ele>252.0</ele><time>2026-04-11T10:32:01.452Z</time></trkpt><trkpt lat="44.9217883" lon="7.84362"><ele>250.66666666666666</ele><time>2026-04-11T10:32:03.452Z</time></trkpt><trkpt lat="44.9218667" lon="7.84345"><ele>249.33333333333331</ele><time>2026-04-11T10:32:05.452Z</time></trkpt><trkpt lat="44.9219083" lon="7.8433567"><ele>248.0</ele><time>2026-04-11T10:32:06.452Z</time></trkpt><trkpt lat="44.9219417" lon="7.8432667"><ele>246.66666666666666</ele><time>2026-04-11T10:32:07.452Z</time></trkpt><trkpt lat="44.92197" lon="7.84317"><ele>245.33333333333331</ele><time>2026-04-11T10:32:08.452Z</time></trkpt><trkpt lat="44.9219983" lon="7.8430783"><ele>244.0</ele><time>2026-04-11T10:32:09.452Z</time></trkpt><trkpt lat="44.922025" lon="7.8429883"><ele>244.0</ele><time>2026-04-11T10:32:10.452Z</time></trkpt><trkpt lat="44.9220483" lon="7.8429017"><ele>243.99999999999997</ele><time>2026-04-11T10:32:11.452Z</time></trkpt><trkpt lat="44.9220933" lon="7.8427433"><ele>243.99999999999997</ele><time>2026-04-11T10:32:13.452Z</time></trkpt><trkpt lat="44.9221367" lon="7.8426017"><ele>244.0</ele><time>2026-04-11T10:32:15.452Z</time></trkpt><trkpt lat="44.92218" lon="7.8424567"><ele>244.0</ele><time>2026-04-11T10:32:17.452Z</time></trkpt><trkpt lat="44.9222267" lon="7.842305"><ele>244.49999999999997</ele><time>2026-04-11T10:32:19.452Z</time></trkpt><trkpt lat="44.9222533" lon="7.8422217"><ele>245.0</ele><time>2026-04-11T10:32:20.452Z</time></trkpt><trkpt lat="44.9222817" lon="7.842135"><ele>245.5</ele><time>2026-04-11T10:32:21.453Z</time></trkpt><trkpt lat="44.92233" lon="7.841985"><ele>246.0</ele><time>2026-04-11T10:32:23.452Z</time></trkpt><trkpt lat="44.9223717" lon="7.8418733"><ele>246.49999999999997</ele><time>2026-04-11T10:32:25.453Z</time></trkpt><trkpt lat="44.9223817" lon="7.8417567"><ele>247.0</ele><time>2026-04-11T10:32:27.452Z</time></trkpt><trkpt lat="44.9223217" lon="7.8416067"><ele>246.99999999999997</ele><time>2026-04-11T10:32:29.452Z</time></trkpt><trkpt lat="44.92231" lon="7.841515"><ele>247.0</ele><time>2026-04-11T10:32:30.452Z</time></trkpt><trkpt lat="44.9223517" lon="7.841355"><ele>247.0</ele><time>2026-04-11T10:32:32.452Z</time></trkpt><trkpt lat="44.9223883" lon="7.8412733"><ele>247.0</ele><time>2026-04-11T10:32:33.452Z</time></trkpt><trkpt lat="44.922445" lon="7.8411483"><ele>246.99999999999997</ele><time>2026-04-11T10:32:35.452Z</time></trkpt><trkpt lat="44.922475" lon="7.8410567"><ele>247.0</ele><time>2026-04-11T10:32:38.452Z</time></trkpt><trkpt lat="44.9224967" lon="7.8409617"><ele>246.33333333333331</ele><time>2026-04-11T10:32:44.452Z</time></trkpt><trkpt lat="44.9224333" lon="7.8408617"><ele>245.66666666666666</ele><time>2026-04-11T10:32:47.452Z</time></trkpt><trkpt lat="44.92237" lon="7.84079"><ele>245.0</ele><time>2026-04-11T10:32:49.452Z</time></trkpt><trkpt lat="44.9223217" lon="7.8407233"><ele>244.33333333333331</ele><time>2026-04-11T10:32:51.452Z</time></trkpt><trkpt lat="44.9223683" lon="7.840615"><ele>243.66666666666666</ele><time>2026-04-11T10:32:54.452Z</time></trkpt><trkpt lat="44.922445" lon="7.840495"><ele>243.0</ele><time>2026-04-11T10:32:56.452Z</time></trkpt><trkpt lat="44.922485" lon="7.840425"><ele>243.0</ele><time>2026-04-11T10:32:57.452Z</time></trkpt><trkpt lat="44.92253" lon="7.8403567"><ele>243.0</ele><time>2026-04-11T10:32:58.452Z</time></trkpt><trkpt lat="44.92258" lon="7.840285"><ele>243.0</ele><time>2026-04-11T10:32:59.452Z</time></trkpt><trkpt lat="44.922635" lon="7.8402083"><ele>243.0</ele><time>2026-04-11T10:33:00.452Z</time></trkpt><trkpt lat="44.922685" lon="7.8401383"><ele>243.0</ele><time>2026-04-11T10:33:01.452Z</time></trkpt><trkpt lat="44.92273" lon="7.840065"><ele>243.0</ele><time>2026-04-11T10:33:02.452Z</time></trkpt><trkpt lat="44.922775" lon="7.84"><ele>243.0</ele><time>2026-04-11T10:33:03.452Z</time></trkpt><trkpt lat="44.922825" lon="7.8399333"><ele>242.4</ele><time>2026-04-11T10:33:04.452Z</time></trkpt><trkpt lat="44.922875" lon="7.8398717"><ele>241.8</ele><time>2026-04-11T10:33:05.452Z</time></trkpt><trkpt lat="44.9229667" lon="7.8397433"><ele>241.2</ele><time>2026-04-11T10:33:07.452Z</time></trkpt><trkpt lat="44.92305" lon="7.8396183"><ele>240.6</ele><time>2026-04-11T10:33:09.452Z</time></trkpt><trkpt lat="44.9231317" lon="7.8395217"><ele>240.0</ele><time>2026-04-11T10:33:11.452Z</time></trkpt><trkpt lat="44.9232217" lon="7.83942"><ele>240.0</ele><time>2026-04-11T10:33:13.452Z</time></trkpt><trkpt lat="44.9233167" lon="7.839325"><ele>240.0</ele><time>2026-04-11T10:33:15.453Z</time></trkpt><trkpt lat="44.92341" lon="7.8392283"><ele>240.0</ele><time>2026-04-11T10:33:17.452Z</time></trkpt><trkpt lat="44.9235" lon="7.8391433"><ele>240.0</ele><time>2026-04-11T10:33:19.452Z</time></trkpt><trkpt lat="44.9235867" lon="7.8390633"><ele>240.0</ele><time>2026-04-11T10:33:21.452Z</time></trkpt><trkpt lat="44.9236833" lon="7.8389733"><ele>240.0</ele><time>2026-04-11T10:33:23.453Z</time></trkpt><trkpt lat="44.923775" lon="7.8389033"><ele>240.0</ele><time>2026-04-11T10:33:25.452Z</time></trkpt><trkpt lat="44.9238567" lon="7.8388233"><ele>240.0</ele><time>2026-04-11T10:33:27.452Z</time></trkpt><trkpt lat="44.92395" lon="7.838735"><ele>240.0</ele><time>2026-04-11T10:33:29.452Z</time></trkpt><trkpt lat="44.9240367" lon="7.83867"><ele>240.0</ele><time>2026-04-11T10:33:31.452Z</time></trkpt><trkpt lat="44.9241233" lon="7.838595"><ele>240.0</ele><time>2026-04-11T10:33:33.452Z</time></trkpt><trkpt lat="44.924215" lon="7.83852"><ele>240.0</ele><time>2026-04-11T10:33:35.453Z</time></trkpt><trkpt lat="44.9243083" lon="7.838455"><ele>240.0</ele><time>2026-04-11T10:33:37.452Z</time></trkpt><trkpt lat="44.92441" lon="7.8384083"><ele>240.0</ele><time>2026-04-11T10:33:39.452Z</time></trkpt><trkpt lat="44.9245133" lon="7.8383683"><ele>240.0</ele><time>2026-04-11T10:33:41.452Z</time></trkpt><trkpt lat="44.9245933" lon="7.8382917"><ele>239.6</ele><time>2026-04-11T10:33:43.452Z</time></trkpt><trkpt lat="44.9246417" lon="7.8381767"><ele>239.2</ele><time>2026-04-11T10:33:45.452Z</time></trkpt><trkpt lat="44.9247183" lon="7.8380717"><ele>238.8</ele><time>2026-04-11T10:33:47.452Z</time></trkpt><trkpt lat="44.924815" lon="7.837995"><ele>238.4</ele><time>2026-04-11T10:33:49.452Z</time></trkpt><trkpt lat="44.9249133" lon="7.8379167"><ele>238.0</ele><time>2026-04-11T10:33:51.452Z</time></trkpt><trkpt lat="44.925005" lon="7.8378417"><ele>237.99999999999997</ele><time>2026-04-11T10:33:53.452Z</time></trkpt><trkpt lat="44.9251017" lon="7.8377633"><ele>238.0</ele><time>2026-04-11T10:33:55.452Z</time></trkpt><trkpt lat="44.92517" lon="7.8376983"><ele>238.0</ele><time>2026-04-11T10:33:57.452Z</time></trkpt><trkpt lat="44.9252233" lon="7.8376383"><ele>238.0</ele><time>2026-04-11T10:33:59.452Z</time></trkpt><trkpt lat="44.92528" lon="7.8375733"><ele>237.99999999999997</ele><time>2026-04-11T10:34:02.452Z</time></trkpt><trkpt lat="44.9253283" lon="7.8375067"><ele>238.0</ele><time>2026-04-11T10:34:06.452Z</time></trkpt><trkpt lat="44.925315" lon="7.8374117"><ele>238.0</ele><time>2026-04-11T10:34:09.452Z</time></trkpt><trkpt lat="44.9252683" lon="7.83732"><ele>238.0</ele><time>2026-04-11T10:34:11.452Z</time></trkpt><trkpt lat="44.9252033" lon="7.8372083"><ele>238.0</ele><time>2026-04-11T10:34:13.452Z</time></trkpt><trkpt lat="44.9251267" lon="7.8370783"><ele>238.0</ele><time>2026-04-11T10:34:15.452Z</time></trkpt><trkpt lat="44.9250517" lon="7.8369583"><ele>238.0</ele><time>2026-04-11T10:34:17.452Z</time></trkpt><trkpt lat="44.9249617" lon="7.8368433"><ele>237.49999999999997</ele><time>2026-04-11T10:34:19.452Z</time></trkpt><trkpt lat="44.9249133" lon="7.836785"><ele>237.0</ele><time>2026-04-11T10:34:20.452Z</time></trkpt><trkpt lat="44.9248667" lon="7.836725"><ele>236.5</ele><time>2026-04-11T10:34:21.452Z</time></trkpt><trkpt lat="44.92482" lon="7.8366633"><ele>236.0</ele><time>2026-04-11T10:34:22.452Z</time></trkpt><trkpt lat="44.9247383" lon="7.8365283"><ele>235.49999999999997</ele><time>2026-04-11T10:34:24.452Z</time></trkpt><trkpt lat="44.924695" lon="7.83646"><ele>235.0</ele><time>2026-04-11T10:34:25.452Z</time></trkpt><trkpt lat="44.9246217" lon="7.8363217"><ele>234.99999999999997</ele><time>2026-04-11T10:34:27.452Z</time></trkpt><trkpt lat="44.9245867" lon="7.836245"><ele>235.0</ele><time>2026-04-11T10:34:28.452Z</time></trkpt><trkpt lat="44.924555" lon="7.83616"><ele>235.0</ele><time>2026-04-11T10:34:29.453Z</time></trkpt><trkpt lat="44.92453" lon="7.836075"><ele>235.0</ele><time>2026-04-11T10:34:30.452Z</time></trkpt><trkpt lat="44.9245033" lon="7.8359933"><ele>234.99999999999997</ele><time>2026-04-11T10:34:31.452Z</time></trkpt><trkpt lat="44.9244467" lon="7.83584"><ele>235.0</ele><time>2026-04-11T10:34:33.452Z</time></trkpt><trkpt lat="44.9244267" lon="7.8357517"><ele>235.0</ele><time>2026-04-11T10:34:34.452Z</time></trkpt><trkpt lat="44.9243833" lon="7.8355933"><ele>235.0</ele><time>2026-04-11T10:34:36.452Z</time></trkpt><trkpt lat="44.9243467" lon="7.8354433"><ele>235.0</ele><time>2026-04-11T10:34:38.453Z</time></trkpt><trkpt lat="44.924315" lon="7.8352817"><ele>235.0</ele><time>2026-04-11T10:34:40.452Z</time></trkpt><trkpt lat="44.924305" lon="7.8351933"><ele>235.0</ele><time>2026-04-11T10:34:41.452Z</time></trkpt><trkpt lat="44.9243" lon="7.8351033"><ele>234.99999999999997</ele><time>2026-04-11T10:34:42.453Z</time></trkpt><trkpt lat="44.9242867" lon="7.8349183"><ele>235.0</ele><time>2026-04-11T10:34:44.452Z</time></trkpt><trkpt lat="44.924275" lon="7.834825"><ele>235.0</ele><time>2026-04-11T10:34:45.452Z</time></trkpt><trkpt lat="44.9242683" lon="7.8347333"><ele>235.0</ele><time>2026-04-11T10:34:46.452Z</time></trkpt><trkpt lat="44.9242617" lon="7.8346417"><ele>234.99999999999997</ele><time>2026-04-11T10:34:47.452Z</time></trkpt><trkpt lat="44.9242517" lon="7.8345483"><ele>235.0</ele><time>2026-04-11T10:34:48.452Z</time></trkpt><trkpt lat="44.9242483" lon="7.8344517"><ele>234.99999999999997</ele><time>2026-04-11T10:34:49.452Z</time></trkpt><trkpt lat="44.9242417" lon="7.83436"><ele>235.0</ele><time>2026-04-11T10:34:50.452Z</time></trkpt><trkpt lat="44.924225" lon="7.83427"><ele>235.0</ele><time>2026-04-11T10:34:51.452Z</time></trkpt><trkpt lat="44.9242133" lon="7.8341783"><ele>235.0</ele><time>2026-04-11T10:34:52.452Z</time></trkpt><trkpt lat="44.924195" lon="7.8340017"><ele>234.99999999999997</ele><time>2026-04-11T10:34:54.452Z</time></trkpt><trkpt lat="44.9241867" lon="7.8339067"><ele>235.0</ele><time>2026-04-11T10:34:55.452Z</time></trkpt><trkpt lat="44.9241867" lon="7.833815"><ele>235.14285714285714</ele><time>2026-04-11T10:34:56.452Z</time></trkpt><trkpt lat="44.924185" lon="7.8337183"><ele>235.28571428571428</ele><time>2026-04-11T10:34:57.452Z</time></trkpt><trkpt lat="44.92418" lon="7.8336233"><ele>235.42857142857142</ele><time>2026-04-11T10:34:58.452Z</time></trkpt><trkpt lat="44.9241733" lon="7.833525"><ele>235.57142857142856</ele><time>2026-04-11T10:34:59.452Z</time></trkpt><trkpt lat="44.9241667" lon="7.8334267"><ele>235.71428571428572</ele><time>2026-04-11T10:35:00.452Z</time></trkpt><trkpt lat="44.9241633" lon="7.83333"><ele>235.85714285714283</ele><time>2026-04-11T10:35:01.452Z</time></trkpt><trkpt lat="44.92416" lon="7.833235"><ele>236.0</ele><time>2026-04-11T10:35:02.452Z</time></trkpt><trkpt lat="44.92415" lon="7.8331433"><ele>236.0</ele><time>2026-04-11T10:35:03.452Z</time></trkpt><trkpt lat="44.9241367" lon="7.83305"><ele>236.0</ele><time>2026-04-11T10:35:04.452Z</time></trkpt><trkpt lat="44.9241117" lon="7.8329583"><ele>236.0</ele><time>2026-04-11T10:35:05.452Z</time></trkpt><trkpt lat="44.9240817" lon="7.832875"><ele>236.0</ele><time>2026-04-11T10:35:06.452Z</time></trkpt><trkpt lat="44.924055" lon="7.83279"><ele>236.0</ele><time>2026-04-11T10:35:07.452Z</time></trkpt><trkpt lat="44.92403" lon="7.8326983"><ele>236.0</ele><time>2026-04-11T10:35:08.452Z</time></trkpt><trkpt lat="44.9240033" lon="7.8326017"><ele>236.0</ele><time>2026-04-11T10:35:09.452Z</time></trkpt><trkpt lat="44.92398" lon="7.8325017"><ele>235.85714285714283</ele><time>2026-04-11T10:35:10.452Z</time></trkpt><trkpt lat="44.9239617" lon="7.8323983"><ele>235.71428571428572</ele><time>2026-04-11T10:35:11.452Z</time></trkpt><trkpt lat="44.9239533" lon="7.8322967"><ele>235.57142857142856</ele><time>2026-04-11T10:35:12.452Z</time></trkpt><trkpt lat="44.9239417" lon="7.8322033"><ele>235.42857142857142</ele><time>2026-04-11T10:35:13.452Z</time></trkpt><trkpt lat="44.9239333" lon="7.8321067"><ele>235.28571428571428</ele><time>2026-04-11T10:35:14.452Z</time></trkpt><trkpt lat="44.9239233" lon="7.8320133"><ele>235.14285714285714</ele><time>2026-04-11T10:35:15.452Z</time></trkpt><trkpt lat="44.9239183" lon="7.8319217"><ele>235.0</ele><time>2026-04-11T10:35:16.452Z</time></trkpt><trkpt lat="44.9239233" lon="7.8317683"><ele>235.4</ele><time>2026-04-11T10:35:18.452Z</time></trkpt><trkpt lat="44.923935" lon="7.83165"><ele>235.8</ele><time>2026-04-11T10:35:20.452Z</time></trkpt><trkpt lat="44.9239517" lon="7.831535"><ele>236.2</ele><time>2026-04-11T10:35:22.452Z</time></trkpt><trkpt lat="44.9239783" lon="7.8314017"><ele>236.6</ele><time>2026-04-11T10:35:24.452Z</time></trkpt><trkpt lat="44.9240017" lon="7.83126"><ele>237.0</ele><time>2026-04-11T10:35:26.452Z</time></trkpt><trkpt lat="44.92403" lon="7.83113"><ele>237.0</ele><time>2026-04-11T10:35:28.452Z</time></trkpt><trkpt lat="44.9240583" lon="7.8309883"><ele>237.0</ele><time>2026-04-11T10:35:30.452Z</time></trkpt><trkpt lat="44.9240933" lon="7.8308317"><ele>237.0</ele><time>2026-04-11T10:35:32.452Z</time></trkpt><trkpt lat="44.924135" lon="7.830685"><ele>237.0</ele><time>2026-04-11T10:35:34.452Z</time></trkpt><trkpt lat="44.9241867" lon="7.8305233"><ele>236.85714285714283</ele><time>2026-04-11T10:35:36.452Z</time></trkpt><trkpt lat="44.9242417" lon="7.8303717"><ele>236.71428571428572</ele><time>2026-04-11T10:35:38.452Z</time></trkpt><trkpt lat="44.9242717" lon="7.8302933"><ele>236.57142857142856</ele><time>2026-04-11T10:35:39.451Z</time></trkpt><trkpt lat="44.9243017" lon="7.8302133"><ele>236.42857142857142</ele><time>2026-04-11T10:35:40.452Z</time></trkpt><trkpt lat="44.9243317" lon="7.8301317"><ele>236.28571428571428</ele><time>2026-04-11T10:35:41.451Z</time></trkpt><trkpt lat="44.9243633" lon="7.83005"><ele>236.14285714285714</ele><time>2026-04-11T10:35:42.451Z</time></trkpt><trkpt lat="44.9243967" lon="7.82997"><ele>236.0</ele><time>2026-04-11T10:35:43.451Z</time></trkpt><trkpt lat="44.92447" lon="7.8298167"><ele>236.0</ele><time>2026-04-11T10:35:45.451Z</time></trkpt><trkpt lat="44.9245117" lon="7.82974"><ele>236.0</ele><time>2026-04-11T10:35:46.451Z</time></trkpt><trkpt lat="44.924555" lon="7.8296733"><ele>236.0</ele><time>2026-04-11T10:35:47.451Z</time></trkpt><trkpt lat="44.9246067" lon="7.829605"><ele>236.0</ele><time>2026-04-11T10:35:48.451Z</time></trkpt><trkpt lat="44.9246583" lon="7.8295417"><ele>236.0</ele><time>2026-04-11T10:35:49.451Z</time></trkpt><trkpt lat="44.92471" lon="7.8294767"><ele>236.0</ele><time>2026-04-11T10:35:50.451Z</time></trkpt><trkpt lat="44.92476" lon="7.8294217"><ele>236.0</ele><time>2026-04-11T10:35:51.451Z</time></trkpt><trkpt lat="44.9248083" lon="7.8293633"><ele>235.83333333333334</ele><time>2026-04-11T10:35:52.451Z</time></trkpt><trkpt lat="44.9248533" lon="7.8292967"><ele>235.66666666666669</ele><time>2026-04-11T10:35:53.451Z</time></trkpt><trkpt lat="44.9248967" lon="7.8292267"><ele>235.5</ele><time>2026-04-11T10:35:54.451Z</time></trkpt><trkpt lat="44.9249417" lon="7.8291583"><ele>235.33333333333331</ele><time>2026-04-11T10:35:55.451Z</time></trkpt><trkpt lat="44.924985" lon="7.82909"><ele>235.16666666666666</ele><time>2026-04-11T10:35:56.451Z</time></trkpt><trkpt lat="44.9250283" lon="7.8290183"><ele>235.0</ele><time>2026-04-11T10:35:57.451Z</time></trkpt><trkpt lat="44.9251017" lon="7.828875"><ele>234.83333333333331</ele><time>2026-04-11T10:35:59.451Z</time></trkpt><trkpt lat="44.9251367" lon="7.8287917"><ele>234.66666666666666</ele><time>2026-04-11T10:36:00.451Z</time></trkpt><trkpt lat="44.925175" lon="7.828715"><ele>234.5</ele><time>2026-04-11T10:36:01.451Z</time></trkpt><trkpt lat="44.9252517" lon="7.8285817"><ele>234.33333333333331</ele><time>2026-04-11T10:36:03.451Z</time></trkpt><trkpt lat="44.9253" lon="7.8285167"><ele>234.16666666666666</ele><time>2026-04-11T10:36:04.451Z</time></trkpt><trkpt lat="44.9253517" lon="7.82846"><ele>234.0</ele><time>2026-04-11T10:36:05.451Z</time></trkpt><trkpt lat="44.92541" lon="7.8284033"><ele>234.0</ele><time>2026-04-11T10:36:06.451Z</time></trkpt><trkpt lat="44.9254717" lon="7.828345"><ele>234.00000000000003</ele><time>2026-04-11T10:36:07.451Z</time></trkpt><trkpt lat="44.9255317" lon="7.828295"><ele>234.0</ele><time>2026-04-11T10:36:08.451Z</time></trkpt><trkpt lat="44.9255917" lon="7.828245"><ele>234.0</ele><time>2026-04-11T10:36:09.451Z</time></trkpt><trkpt lat="44.9256533" lon="7.8282"><ele>234.00000000000003</ele><time>2026-04-11T10:36:10.451Z</time></trkpt><trkpt lat="44.9257183" lon="7.8281517"><ele>234.0</ele><time>2026-04-11T10:36:11.451Z</time></trkpt><trkpt lat="44.9257783" lon="7.8281133"><ele>234.0</ele><time>2026-04-11T10:36:12.452Z</time></trkpt><trkpt lat="44.9258433" lon="7.8280733"><ele>234.0</ele><time>2026-04-11T10:36:13.451Z</time></trkpt><trkpt lat="44.9259117" lon="7.8280333"><ele>234.00000000000003</ele><time>2026-04-11T10:36:14.451Z</time></trkpt><trkpt lat="44.9259733" lon="7.827995"><ele>234.0</ele><time>2026-04-11T10:36:15.451Z</time></trkpt><trkpt lat="44.92603" lon="7.82795"><ele>234.0</ele><time>2026-04-11T10:36:16.451Z</time></trkpt><trkpt lat="44.9260833" lon="7.827895"><ele>234.00000000000003</ele><time>2026-04-11T10:36:17.451Z</time></trkpt><trkpt lat="44.92613" lon="7.8278317"><ele>234.0</ele><time>2026-04-11T10:36:18.451Z</time></trkpt><trkpt lat="44.9261733" lon="7.8277517"><ele>234.0</ele><time>2026-04-11T10:36:19.451Z</time></trkpt><trkpt lat="44.926215" lon="7.8276717"><ele>234.0</ele><time>2026-04-11T10:36:20.451Z</time></trkpt><trkpt lat="44.9262583" lon="7.827585"><ele>234.00000000000003</ele><time>2026-04-11T10:36:21.451Z</time></trkpt><trkpt lat="44.9262967" lon="7.8274933"><ele>234.0</ele><time>2026-04-11T10:36:22.451Z</time></trkpt><trkpt lat="44.9263233" lon="7.8274067"><ele>234.0</ele><time>2026-04-11T10:36:23.451Z</time></trkpt><trkpt lat="44.92635" lon="7.8273067"><ele>234.00000000000003</ele><time>2026-04-11T10:36:24.451Z</time></trkpt><trkpt lat="44.9263683" lon="7.82721"><ele>234.0</ele><time>2026-04-11T10:36:25.451Z</time></trkpt><trkpt lat="44.9263817" lon="7.8271167"><ele>234.0</ele><time>2026-04-11T10:36:26.451Z</time></trkpt><trkpt lat="44.9263983" lon="7.8270167"><ele>234.0</ele><time>2026-04-11T10:36:27.451Z</time></trkpt><trkpt lat="44.9264133" lon="7.8269133"><ele>234.00000000000003</ele><time>2026-04-11T10:36:28.451Z</time></trkpt><trkpt lat="44.9264283" lon="7.82681"><ele>234.0</ele><time>2026-04-11T10:36:29.451Z</time></trkpt><trkpt lat="44.926445" lon="7.8267117"><ele>234.0</ele><time>2026-04-11T10:36:30.451Z</time></trkpt><trkpt lat="44.926465" lon="7.8266083"><ele>234.00000000000003</ele><time>2026-04-11T10:36:31.451Z</time></trkpt><trkpt lat="44.9264833" lon="7.8265067"><ele>234.0</ele><time>2026-04-11T10:36:32.451Z</time></trkpt><trkpt lat="44.9265017" lon="7.8264117"><ele>234.0</ele><time>2026-04-11T10:36:33.451Z</time></trkpt><trkpt lat="44.926525" lon="7.8263167"><ele>234.14285714285717</ele><time>2026-04-11T10:36:34.452Z</time></trkpt><trkpt lat="44.9265567" lon="7.82623"><ele>234.2857142857143</ele><time>2026-04-11T10:36:35.451Z</time></trkpt><trkpt lat="44.92659" lon="7.8261417"><ele>234.42857142857144</ele><time>2026-04-11T10:36:36.451Z</time></trkpt><trkpt lat="44.9266267" lon="7.826065"><ele>234.57142857142856</ele><time>2026-04-11T10:36:37.451Z</time></trkpt><trkpt lat="44.92668" lon="7.8259783"><ele>234.7142857142857</ele><time>2026-04-11T10:36:38.451Z</time></trkpt><trkpt lat="44.926735" lon="7.8258967"><ele>234.85714285714283</ele><time>2026-04-11T10:36:39.451Z</time></trkpt><trkpt lat="44.9267883" lon="7.825815"><ele>235.0</ele><time>2026-04-11T10:36:40.451Z</time></trkpt><trkpt lat="44.9268417" lon="7.8257483"><ele>235.14285714285714</ele><time>2026-04-11T10:36:41.451Z</time></trkpt><trkpt lat="44.9268967" lon="7.82568"><ele>235.28571428571428</ele><time>2026-04-11T10:36:42.451Z</time></trkpt><trkpt lat="44.9269517" lon="7.8256133"><ele>235.42857142857142</ele><time>2026-04-11T10:36:43.451Z</time></trkpt><trkpt lat="44.9270033" lon="7.8255467"><ele>235.57142857142856</ele><time>2026-04-11T10:36:44.451Z</time></trkpt><trkpt lat="44.9270617" lon="7.8254883"><ele>235.71428571428572</ele><time>2026-04-11T10:36:45.451Z</time></trkpt><trkpt lat="44.9271267" lon="7.8254317"><ele>235.85714285714283</ele><time>2026-04-11T10:36:46.451Z</time></trkpt><trkpt lat="44.9271817" lon="7.8253683"><ele>236.0</ele><time>2026-04-11T10:36:47.451Z</time></trkpt><trkpt lat="44.92723" lon="7.8252983"><ele>236.0</ele><time>2026-04-11T10:36:48.451Z</time></trkpt><trkpt lat="44.9272767" lon="7.82522"><ele>236.0</ele><time>2026-04-11T10:36:49.451Z</time></trkpt><trkpt lat="44.9273233" lon="7.8251383"><ele>236.0</ele><time>2026-04-11T10:36:50.451Z</time></trkpt><trkpt lat="44.92737" lon="7.8250583"><ele>236.0</ele><time>2026-04-11T10:36:51.451Z</time></trkpt><trkpt lat="44.92741" lon="7.8249783"><ele>236.0</ele><time>2026-04-11T10:36:52.451Z</time></trkpt><trkpt lat="44.9274517" lon="7.8249"><ele>236.0</ele><time>2026-04-11T10:36:53.451Z</time></trkpt><trkpt lat="44.9275" lon="7.8248183"><ele>236.0</ele><time>2026-04-11T10:36:54.451Z</time></trkpt><trkpt lat="44.927545" lon="7.82474"><ele>235.85714285714283</ele><time>2026-04-11T10:36:55.451Z</time></trkpt><trkpt lat="44.9275867" lon="7.8246583"><ele>235.71428571428572</ele><time>2026-04-11T10:36:56.451Z</time></trkpt><trkpt lat="44.9276217" lon="7.8245733"><ele>235.57142857142856</ele><time>2026-04-11T10:36:57.451Z</time></trkpt><trkpt lat="44.9276533" lon="7.8244833"><ele>235.42857142857142</ele><time>2026-04-11T10:36:58.451Z</time></trkpt><trkpt lat="44.9276833" lon="7.8243883"><ele>235.28571428571428</ele><time>2026-04-11T10:36:59.451Z</time></trkpt><trkpt lat="44.927705" lon="7.8242933"><ele>235.14285714285714</ele><time>2026-04-11T10:37:00.451Z</time></trkpt><trkpt lat="44.9277283" lon="7.8241983"><ele>235.0</ele><time>2026-04-11T10:37:01.451Z</time></trkpt><trkpt lat="44.92775" lon="7.8241067"><ele>235.0</ele><time>2026-04-11T10:37:02.451Z</time></trkpt><trkpt lat="44.927765" lon="7.8240133"><ele>234.99999999999997</ele><time>2026-04-11T10:37:03.451Z</time></trkpt><trkpt lat="44.9277767" lon="7.82392"><ele>235.0</ele><time>2026-04-11T10:37:04.452Z</time></trkpt><trkpt lat="44.9277733" lon="7.82383"><ele>235.0</ele><time>2026-04-11T10:37:05.451Z</time></trkpt><trkpt lat="44.9277683" lon="7.8237317"><ele>234.99999999999997</ele><time>2026-04-11T10:37:06.451Z</time></trkpt><trkpt lat="44.9277667" lon="7.823635"><ele>235.0</ele><time>2026-04-11T10:37:07.451Z</time></trkpt><trkpt lat="44.9277667" lon="7.8235333"><ele>235.0</ele><time>2026-04-11T10:37:08.451Z</time></trkpt><trkpt lat="44.9277633" lon="7.8234333"><ele>235.0</ele><time>2026-04-11T10:37:09.451Z</time></trkpt><trkpt lat="44.9277567" lon="7.8233317"><ele>234.99999999999997</ele><time>2026-04-11T10:37:10.451Z</time></trkpt><trkpt lat="44.92775" lon="7.8232283"><ele>235.0</ele><time>2026-04-11T10:37:11.451Z</time></trkpt><trkpt lat="44.9277433" lon="7.8231233"><ele>235.0</ele><time>2026-04-11T10:37:12.451Z</time></trkpt><trkpt lat="44.9277367" lon="7.82302"><ele>234.99999999999997</ele><time>2026-04-11T10:37:13.451Z</time></trkpt><trkpt lat="44.9277317" lon="7.8229233"><ele>235.0</ele><time>2026-04-11T10:37:14.451Z</time></trkpt><trkpt lat="44.9277233" lon="7.8228233"><ele>235.0</ele><time>2026-04-11T10:37:15.451Z</time></trkpt><trkpt lat="44.927715" lon="7.8227217"><ele>235.0</ele><time>2026-04-11T10:37:16.451Z</time></trkpt><trkpt lat="44.9277033" lon="7.8226217"><ele>234.99999999999997</ele><time>2026-04-11T10:37:17.451Z</time></trkpt><trkpt lat="44.9276967" lon="7.8225233"><ele>235.0</ele><time>2026-04-11T10:37:18.451Z</time></trkpt><trkpt lat="44.9276933" lon="7.8224267"><ele>235.0</ele><time>2026-04-11T10:37:19.452Z</time></trkpt><trkpt lat="44.9276867" lon="7.8223317"><ele>234.99999999999997</ele><time>2026-04-11T10:37:20.451Z</time></trkpt><trkpt lat="44.9276783" lon="7.8222333"><ele>235.0</ele><time>2026-04-11T10:37:21.451Z</time></trkpt><trkpt lat="44.9276767" lon="7.8221383"><ele>235.0</ele><time>2026-04-11T10:37:22.451Z</time></trkpt><trkpt lat="44.9276783" lon="7.8220433"><ele>235.0</ele><time>2026-04-11T10:37:23.451Z</time></trkpt><trkpt lat="44.9276767" lon="7.8219483"><ele>234.99999999999997</ele><time>2026-04-11T10:37:24.451Z</time></trkpt><trkpt lat="44.927675" lon="7.8218467"><ele>235.0</ele><time>2026-04-11T10:37:25.451Z</time></trkpt><trkpt lat="44.9276733" lon="7.8217517"><ele>235.0</ele><time>2026-04-11T10:37:26.451Z</time></trkpt><trkpt lat="44.927665" lon="7.821655"><ele>234.99999999999997</ele><time>2026-04-11T10:37:27.451Z</time></trkpt><trkpt lat="44.927655" lon="7.8215617"><ele>235.0</ele><time>2026-04-11T10:37:28.451Z</time></trkpt><trkpt lat="44.9276483" lon="7.82147"><ele>235.0</ele><time>2026-04-11T10:37:29.451Z</time></trkpt><trkpt lat="44.9276483" lon="7.8213767"><ele>234.85714285714283</ele><time>2026-04-11T10:37:30.451Z</time></trkpt><trkpt lat="44.9276433" lon="7.8212783"><ele>234.7142857142857</ele><time>2026-04-11T10:37:31.452Z</time></trkpt><trkpt lat="44.9276433" lon="7.8211817"><ele>234.57142857142856</ele><time>2026-04-11T10:37:32.451Z</time></trkpt><trkpt lat="44.9276433" lon="7.8210817"><ele>234.42857142857144</ele><time>2026-04-11T10:37:33.451Z</time></trkpt><trkpt lat="44.9276483" lon="7.8209833"><ele>234.2857142857143</ele><time>2026-04-11T10:37:34.451Z</time></trkpt><trkpt lat="44.9276583" lon="7.8208867"><ele>234.14285714285717</ele><time>2026-04-11T10:37:35.451Z</time></trkpt><trkpt lat="44.9276733" lon="7.8207917"><ele>234.0</ele><time>2026-04-11T10:37:36.451Z</time></trkpt><trkpt lat="44.9276917" lon="7.8207"><ele>234.2857142857143</ele><time>2026-04-11T10:37:37.451Z</time></trkpt><trkpt lat="44.9277133" lon="7.8206067"><ele>234.5714285714286</ele><time>2026-04-11T10:37:38.451Z</time></trkpt><trkpt lat="44.92774" lon="7.8205133"><ele>234.85714285714286</ele><time>2026-04-11T10:37:39.451Z</time></trkpt><trkpt lat="44.92777" lon="7.8204267"><ele>235.14285714285717</ele><time>2026-04-11T10:37:40.451Z</time></trkpt><trkpt lat="44.9278017" lon="7.8203417"><ele>235.42857142857144</ele><time>2026-04-11T10:37:41.451Z</time></trkpt><trkpt lat="44.9278383" lon="7.82026"><ele>235.71428571428572</ele><time>2026-04-11T10:37:42.451Z</time></trkpt><trkpt lat="44.9278783" lon="7.8201783"><ele>236.0</ele><time>2026-04-11T10:37:43.451Z</time></trkpt><trkpt lat="44.9279217" lon="7.8200933"><ele>236.16666666666669</ele><time>2026-04-11T10:37:44.451Z</time></trkpt><trkpt lat="44.9279683" lon="7.8200117"><ele>236.33333333333334</ele><time>2026-04-11T10:37:45.451Z</time></trkpt><trkpt lat="44.92802" lon="7.8199283"><ele>236.5</ele><time>2026-04-11T10:37:46.451Z</time></trkpt><trkpt lat="44.9280733" lon="7.8198433"><ele>236.66666666666669</ele><time>2026-04-11T10:37:47.451Z</time></trkpt><trkpt lat="44.92813" lon="7.81976"><ele>236.83333333333334</ele><time>2026-04-11T10:37:48.451Z</time></trkpt><trkpt lat="44.92819" lon="7.8196833"><ele>237.0</ele><time>2026-04-11T10:37:49.451Z</time></trkpt><trkpt lat="44.9282517" lon="7.81961"><ele>237.0</ele><time>2026-04-11T10:37:50.451Z</time></trkpt><trkpt lat="44.9283133" lon="7.819545"><ele>237.0</ele><time>2026-04-11T10:37:51.451Z</time></trkpt><trkpt lat="44.92838" lon="7.8194817"><ele>237.0</ele><time>2026-04-11T10:37:52.451Z</time></trkpt><trkpt lat="44.9284483" lon="7.8194333"><ele>237.0</ele><time>2026-04-11T10:37:53.451Z</time></trkpt><trkpt lat="44.928515" lon="7.819385"><ele>237.0</ele><time>2026-04-11T10:37:54.451Z</time></trkpt><trkpt lat="44.92858" lon="7.8193367"><ele>237.0</ele><time>2026-04-11T10:37:55.451Z</time></trkpt><trkpt lat="44.928645" lon="7.8192917"><ele>236.85714285714283</ele><time>2026-04-11T10:37:56.451Z</time></trkpt><trkpt lat="44.92871" lon="7.819255"><ele>236.71428571428572</ele><time>2026-04-11T10:37:57.451Z</time></trkpt><trkpt lat="44.9287717" lon="7.819205"><ele>236.57142857142856</ele><time>2026-04-11T10:37:58.451Z</time></trkpt><trkpt lat="44.9288383" lon="7.819155"><ele>236.42857142857142</ele><time>2026-04-11T10:37:59.451Z</time></trkpt><trkpt lat="44.9289017" lon="7.8191033"><ele>236.28571428571428</ele><time>2026-04-11T10:38:00.451Z</time></trkpt><trkpt lat="44.9289683" lon="7.8190517"><ele>236.14285714285714</ele><time>2026-04-11T10:38:01.451Z</time></trkpt><trkpt lat="44.9290317" lon="7.819"><ele>236.0</ele><time>2026-04-11T10:38:02.451Z</time></trkpt><trkpt lat="44.9290967" lon="7.81894"><ele>236.0</ele><time>2026-04-11T10:38:03.451Z</time></trkpt><trkpt lat="44.9291567" lon="7.81888"><ele>236.0</ele><time>2026-04-11T10:38:04.451Z</time></trkpt><trkpt lat="44.9292133" lon="7.818815"><ele>236.0</ele><time>2026-04-11T10:38:05.451Z</time></trkpt><trkpt lat="44.92927" lon="7.8187483"><ele>236.0</ele><time>2026-04-11T10:38:06.451Z</time></trkpt><trkpt lat="44.92933" lon="7.8186867"><ele>236.0</ele><time>2026-04-11T10:38:07.451Z</time></trkpt><trkpt lat="44.9293883" lon="7.8186233"><ele>236.0</ele><time>2026-04-11T10:38:08.451Z</time></trkpt><trkpt lat="44.9294433" lon="7.81856"><ele>236.0</ele><time>2026-04-11T10:38:09.451Z</time></trkpt><trkpt lat="44.9294933" lon="7.8184983"><ele>236.14285714285714</ele><time>2026-04-11T10:38:10.451Z</time></trkpt><trkpt lat="44.929545" lon="7.8184333"><ele>236.28571428571428</ele><time>2026-04-11T10:38:11.451Z</time></trkpt><trkpt lat="44.929595" lon="7.8183717"><ele>236.42857142857142</ele><time>2026-04-11T10:38:12.451Z</time></trkpt><trkpt lat="44.92965" lon="7.818305"><ele>236.57142857142856</ele><time>2026-04-11T10:38:13.451Z</time></trkpt><trkpt lat="44.9297" lon="7.8182317"><ele>236.71428571428572</ele><time>2026-04-11T10:38:14.451Z</time></trkpt><trkpt lat="44.9297433" lon="7.818155"><ele>236.85714285714283</ele><time>2026-04-11T10:38:15.451Z</time></trkpt><trkpt lat="44.92978" lon="7.818075"><ele>236.99999999999997</ele><time>2026-04-11T10:38:16.451Z</time></trkpt><trkpt lat="44.92981" lon="7.8179933"><ele>237.0</ele><time>2026-04-11T10:38:17.451Z</time></trkpt><trkpt lat="44.9298583" lon="7.8178317"><ele>237.0</ele><time>2026-04-11T10:38:19.451Z</time></trkpt><trkpt lat="44.9298733" lon="7.817745"><ele>237.0</ele><time>2026-04-11T10:38:20.451Z</time></trkpt><trkpt lat="44.9298867" lon="7.8176517"><ele>237.0</ele><time>2026-04-11T10:38:21.451Z</time></trkpt><trkpt lat="44.92991" lon="7.817555"><ele>237.0</ele><time>2026-04-11T10:38:22.451Z</time></trkpt><trkpt lat="44.9299367" lon="7.8174567"><ele>237.0</ele><time>2026-04-11T10:38:23.451Z</time></trkpt><trkpt lat="44.9299767" lon="7.817365"><ele>236.85714285714283</ele><time>2026-04-11T10:38:24.451Z</time></trkpt><trkpt lat="44.9300167" lon="7.8172783"><ele>236.71428571428572</ele><time>2026-04-11T10:38:25.451Z</time></trkpt><trkpt lat="44.9300633" lon="7.81721"><ele>236.57142857142856</ele><time>2026-04-11T10:38:26.451Z</time></trkpt><trkpt lat="44.93011" lon="7.8171383"><ele>236.42857142857142</ele><time>2026-04-11T10:38:27.451Z</time></trkpt><trkpt lat="44.9301583" lon="7.81707"><ele>236.28571428571428</ele><time>2026-04-11T10:38:28.451Z</time></trkpt><trkpt lat="44.9302117" lon="7.817015"><ele>236.14285714285714</ele><time>2026-04-11T10:38:29.451Z</time></trkpt><trkpt lat="44.9302633" lon="7.81696"><ele>236.0</ele><time>2026-04-11T10:38:30.451Z</time></trkpt><trkpt lat="44.93037" lon="7.8168717"><ele>235.83333333333334</ele><time>2026-04-11T10:38:32.451Z</time></trkpt><trkpt lat="44.930425" lon="7.8168217"><ele>235.66666666666669</ele><time>2026-04-11T10:38:33.451Z</time></trkpt><trkpt lat="44.930485" lon="7.81677"><ele>235.5</ele><time>2026-04-11T10:38:34.451Z</time></trkpt><trkpt lat="44.9305883" lon="7.8166733"><ele>235.33333333333331</ele><time>2026-04-11T10:38:36.451Z</time></trkpt><trkpt lat="44.9306467" lon="7.81663"><ele>235.16666666666666</ele><time>2026-04-11T10:38:37.451Z</time></trkpt><trkpt lat="44.9307017" lon="7.8165833"><ele>235.0</ele><time>2026-04-11T10:38:38.451Z</time></trkpt><trkpt lat="44.9307617" lon="7.8165333"><ele>234.83333333333331</ele><time>2026-04-11T10:38:39.451Z</time></trkpt><trkpt lat="44.9308217" lon="7.81649"><ele>234.66666666666666</ele><time>2026-04-11T10:38:40.451Z</time></trkpt><trkpt lat="44.93088" lon="7.8164483"><ele>234.5</ele><time>2026-04-11T10:38:41.451Z</time></trkpt><trkpt lat="44.9309417" lon="7.8164117"><ele>234.33333333333331</ele><time>2026-04-11T10:38:42.451Z</time></trkpt><trkpt lat="44.9310017" lon="7.81638"><ele>234.16666666666666</ele><time>2026-04-11T10:38:43.451Z</time></trkpt><trkpt lat="44.93113" lon="7.8163167"><ele>234.0</ele><time>2026-04-11T10:38:45.451Z</time></trkpt><trkpt lat="44.931195" lon="7.8162817"><ele>234.0</ele><time>2026-04-11T10:38:46.451Z</time></trkpt><trkpt lat="44.9312583" lon="7.816245"><ele>233.99999999999997</ele><time>2026-04-11T10:38:47.451Z</time></trkpt><trkpt lat="44.9313217" lon="7.8162117"><ele>233.99999999999997</ele><time>2026-04-11T10:38:48.451Z</time></trkpt><trkpt lat="44.9313833" lon="7.8161783"><ele>234.0</ele><time>2026-04-11T10:38:49.451Z</time></trkpt><trkpt lat="44.9314983" lon="7.8161083"><ele>234.0</ele><time>2026-04-11T10:38:51.451Z</time></trkpt><trkpt lat="44.9316117" lon="7.8160333"><ele>234.0</ele><time>2026-04-11T10:38:53.451Z</time></trkpt><trkpt lat="44.9317217" lon="7.8159767"><ele>234.00000000000003</ele><time>2026-04-11T10:38:55.451Z</time></trkpt><trkpt lat="44.9317833" lon="7.8159583"><ele>234.0</ele><time>2026-04-11T10:38:56.451Z</time></trkpt><trkpt lat="44.9318467" lon="7.815955"><ele>234.0</ele><time>2026-04-11T10:38:57.451Z</time></trkpt><trkpt lat="44.9319167" lon="7.815955"><ele>234.00000000000003</ele><time>2026-04-11T10:38:58.451Z</time></trkpt><trkpt lat="44.93198" lon="7.8159667"><ele>234.0</ele><time>2026-04-11T10:38:59.451Z</time></trkpt><trkpt lat="44.932045" lon="7.8159817"><ele>234.0</ele><time>2026-04-11T10:39:00.451Z</time></trkpt><trkpt lat="44.93211" lon="7.815995"><ele>234.0</ele><time>2026-04-11T10:39:01.451Z</time></trkpt><trkpt lat="44.932175" lon="7.8160117"><ele>234.00000000000003</ele><time>2026-04-11T10:39:02.452Z</time></trkpt><trkpt lat="44.9322367" lon="7.8160317"><ele>234.0</ele><time>2026-04-11T10:39:03.451Z</time></trkpt><trkpt lat="44.9323" lon="7.81605"><ele>234.0</ele><time>2026-04-11T10:39:04.451Z</time></trkpt><trkpt lat="44.932365" lon="7.8160633"><ele>234.00000000000003</ele><time>2026-04-11T10:39:05.451Z</time></trkpt><trkpt lat="44.93243" lon="7.81608"><ele>234.0</ele><time>2026-04-11T10:39:06.451Z</time></trkpt><trkpt lat="44.932495" lon="7.8160917"><ele>234.0</ele><time>2026-04-11T10:39:07.451Z</time></trkpt><trkpt lat="44.9326183" lon="7.8161117"><ele>234.0</ele><time>2026-04-11T10:39:09.451Z</time></trkpt><trkpt lat="44.9326817" lon="7.8161183"><ele>234.0</ele><time>2026-04-11T10:39:10.451Z</time></trkpt><trkpt lat="44.9328033" lon="7.8160617"><ele>234.0</ele><time>2026-04-11T10:39:12.451Z</time></trkpt><trkpt lat="44.9328583" lon="7.8160117"><ele>234.0</ele><time>2026-04-11T10:39:13.451Z</time></trkpt><trkpt lat="44.9329033" lon="7.8159467"><ele>234.0</ele><time>2026-04-11T10:39:14.451Z</time></trkpt><trkpt lat="44.9329917" lon="7.8158233"><ele>234.0</ele><time>2026-04-11T10:39:16.451Z</time></trkpt><trkpt lat="44.9330817" lon="7.8157017"><ele>233.83333333333334</ele><time>2026-04-11T10:39:18.451Z</time></trkpt><trkpt lat="44.9331283" lon="7.815635"><ele>233.66666666666669</ele><time>2026-04-11T10:39:19.451Z</time></trkpt><trkpt lat="44.9332133" lon="7.815505"><ele>233.5</ele><time>2026-04-11T10:39:21.451Z</time></trkpt><trkpt lat="44.9332583" lon="7.8154383"><ele>233.33333333333334</ele><time>2026-04-11T10:39:22.451Z</time></trkpt><trkpt lat="44.9332967" lon="7.8153583"><ele>233.16666666666669</ele><time>2026-04-11T10:39:23.451Z</time></trkpt><trkpt lat="44.9333183" lon="7.815265"><ele>233.0</ele><time>2026-04-11T10:39:24.451Z</time></trkpt><trkpt lat="44.9333283" lon="7.8151717"><ele>233.00000000000003</ele><time>2026-04-11T10:39:25.451Z</time></trkpt><trkpt lat="44.9333333" lon="7.81508"><ele>233.0</ele><time>2026-04-11T10:39:26.451Z</time></trkpt><trkpt lat="44.933345" lon="7.8149883"><ele>233.0</ele><time>2026-04-11T10:39:27.451Z</time></trkpt><trkpt lat="44.93337" lon="7.814905"><ele>233.0</ele><time>2026-04-11T10:39:28.451Z</time></trkpt><trkpt lat="44.9334567" lon="7.8147633"><ele>233.00000000000003</ele><time>2026-04-11T10:39:30.452Z</time></trkpt><trkpt lat="44.9335117" lon="7.8147"><ele>233.0</ele><time>2026-04-11T10:39:31.451Z</time></trkpt><trkpt lat="44.9335667" lon="7.8146383"><ele>233.28571428571428</ele><time>2026-04-11T10:39:32.451Z</time></trkpt><trkpt lat="44.9336233" lon="7.81458"><ele>233.57142857142856</ele><time>2026-04-11T10:39:33.451Z</time></trkpt><trkpt lat="44.9336767" lon="7.8145183"><ele>233.85714285714283</ele><time>2026-04-11T10:39:34.451Z</time></trkpt><trkpt lat="44.93373" lon="7.8144533"><ele>234.14285714285714</ele><time>2026-04-11T10:39:35.451Z</time></trkpt><trkpt lat="44.9337833" lon="7.8143917"><ele>234.4285714285714</ele><time>2026-04-11T10:39:36.451Z</time></trkpt><trkpt lat="44.93384" lon="7.8143283"><ele>234.7142857142857</ele><time>2026-04-11T10:39:37.451Z</time></trkpt><trkpt lat="44.9338967" lon="7.814265"><ele>235.0</ele><time>2026-04-11T10:39:38.451Z</time></trkpt><trkpt lat="44.9339583" lon="7.8142"><ele>235.0</ele><time>2026-04-11T10:39:39.451Z</time></trkpt><trkpt lat="44.9340167" lon="7.8141333"><ele>234.99999999999997</ele><time>2026-04-11T10:39:40.451Z</time></trkpt><trkpt lat="44.93407" lon="7.8140767"><ele>235.0</ele><time>2026-04-11T10:39:41.451Z</time></trkpt><trkpt lat="44.9341283" lon="7.8140183"><ele>235.0</ele><time>2026-04-11T10:39:42.451Z</time></trkpt><trkpt lat="44.93419" lon="7.8139583"><ele>234.99999999999997</ele><time>2026-04-11T10:39:43.451Z</time></trkpt><trkpt lat="44.934255" lon="7.8139033"><ele>235.0</ele><time>2026-04-11T10:39:44.451Z</time></trkpt><trkpt lat="44.9343217" lon="7.8138633"><ele>235.0</ele><time>2026-04-11T10:39:45.451Z</time></trkpt><trkpt lat="44.9343933" lon="7.8138317"><ele>234.85714285714283</ele><time>2026-04-11T10:39:46.451Z</time></trkpt><trkpt lat="44.9344633" lon="7.81382"><ele>234.7142857142857</ele><time>2026-04-11T10:39:47.451Z</time></trkpt><trkpt lat="44.9345333" lon="7.81382"><ele>234.57142857142856</ele><time>2026-04-11T10:39:48.451Z</time></trkpt><trkpt lat="44.934605" lon="7.8138183"><ele>234.42857142857144</ele><time>2026-04-11T10:39:49.451Z</time></trkpt><trkpt lat="44.93468" lon="7.813805"><ele>234.2857142857143</ele><time>2026-04-11T10:39:50.451Z</time></trkpt><trkpt lat="44.9347517" lon="7.81379"><ele>234.14285714285717</ele><time>2026-04-11T10:39:51.451Z</time></trkpt><trkpt lat="44.93482" lon="7.8137533"><ele>234.0</ele><time>2026-04-11T10:39:52.451Z</time></trkpt><trkpt lat="44.9348817" lon="7.8137033"><ele>234.0</ele><time>2026-04-11T10:39:53.451Z</time></trkpt><trkpt lat="44.9349367" lon="7.81365"><ele>234.00000000000003</ele><time>2026-04-11T10:39:54.451Z</time></trkpt><trkpt lat="44.9349833" lon="7.8135817"><ele>234.0</ele><time>2026-04-11T10:39:55.451Z</time></trkpt><trkpt lat="44.9350367" lon="7.8135033"><ele>234.0</ele><time>2026-04-11T10:39:56.451Z</time></trkpt><trkpt lat="44.93509" lon="7.8134283"><ele>234.00000000000003</ele><time>2026-04-11T10:39:57.451Z</time></trkpt><trkpt lat="44.9351383" lon="7.8133533"><ele>234.0</ele><time>2026-04-11T10:39:58.451Z</time></trkpt><trkpt lat="44.935195" lon="7.813285"><ele>234.0</ele><time>2026-04-11T10:39:59.451Z</time></trkpt><trkpt lat="44.935255" lon="7.8132183"><ele>234.14285714285717</ele><time>2026-04-11T10:40:00.451Z</time></trkpt><trkpt lat="44.93531" lon="7.8131467"><ele>234.2857142857143</ele><time>2026-04-11T10:40:01.451Z</time></trkpt><trkpt lat="44.935365" lon="7.8130717"><ele>234.42857142857144</ele><time>2026-04-11T10:40:02.451Z</time></trkpt><trkpt lat="44.9354183" lon="7.8129883"><ele>234.57142857142856</ele><time>2026-04-11T10:40:03.451Z</time></trkpt><trkpt lat="44.9354667" lon="7.8128983"><ele>234.7142857142857</ele><time>2026-04-11T10:40:04.451Z</time></trkpt><trkpt lat="44.93551" lon="7.8128167"><ele>234.85714285714283</ele><time>2026-04-11T10:40:05.451Z</time></trkpt><trkpt lat="44.93555" lon="7.812745"><ele>235.0</ele><time>2026-04-11T10:40:06.451Z</time></trkpt><trkpt lat="44.9355983" lon="7.8126667"><ele>234.85714285714283</ele><time>2026-04-11T10:40:07.451Z</time></trkpt><trkpt lat="44.9356467" lon="7.812595"><ele>234.7142857142857</ele><time>2026-04-11T10:40:08.451Z</time></trkpt><trkpt lat="44.9356933" lon="7.8125217"><ele>234.57142857142856</ele><time>2026-04-11T10:40:09.451Z</time></trkpt><trkpt lat="44.9357433" lon="7.8124583"><ele>234.42857142857144</ele><time>2026-04-11T10:40:10.451Z</time></trkpt><trkpt lat="44.9358033" lon="7.812395"><ele>234.2857142857143</ele><time>2026-04-11T10:40:11.451Z</time></trkpt><trkpt lat="44.9358667" lon="7.81234"><ele>234.14285714285717</ele><time>2026-04-11T10:40:12.451Z</time></trkpt><trkpt lat="44.9359367" lon="7.8123017"><ele>234.0</ele><time>2026-04-11T10:40:13.451Z</time></trkpt><trkpt lat="44.936005" lon="7.8122767"><ele>234.5</ele><time>2026-04-11T10:40:14.451Z</time></trkpt><trkpt lat="44.9360733" lon="7.8122567"><ele>235.0</ele><time>2026-04-11T10:40:15.451Z</time></trkpt><trkpt lat="44.9361417" lon="7.8122367"><ele>235.5</ele><time>2026-04-11T10:40:16.451Z</time></trkpt><trkpt lat="44.9362117" lon="7.8122183"><ele>236.0</ele><time>2026-04-11T10:40:17.451Z</time></trkpt><trkpt lat="44.93628" lon="7.8122"><ele>236.5</ele><time>2026-04-11T10:40:18.451Z</time></trkpt><trkpt lat="44.9363483" lon="7.812185"><ele>237.0</ele><time>2026-04-11T10:40:19.451Z</time></trkpt><trkpt lat="44.9364767" lon="7.8121667"><ele>237.0</ele><time>2026-04-11T10:40:21.451Z</time></trkpt><trkpt lat="44.936605" lon="7.8121317"><ele>237.0</ele><time>2026-04-11T10:40:23.451Z</time></trkpt><trkpt lat="44.9366617" lon="7.8120867"><ele>237.0</ele><time>2026-04-11T10:40:24.451Z</time></trkpt><trkpt lat="44.936715" lon="7.8120233"><ele>237.0</ele><time>2026-04-11T10:40:25.451Z</time></trkpt><trkpt lat="44.9367667" lon="7.8119567"><ele>237.0</ele><time>2026-04-11T10:40:26.451Z</time></trkpt><trkpt lat="44.936815" lon="7.8118967"><ele>237.0</ele><time>2026-04-11T10:40:27.451Z</time></trkpt><trkpt lat="44.936865" lon="7.81184"><ele>236.71428571428567</ele><time>2026-04-11T10:40:28.451Z</time></trkpt><trkpt lat="44.9369233" lon="7.8117917"><ele>236.42857142857142</ele><time>2026-04-11T10:40:29.451Z</time></trkpt><trkpt lat="44.9369817" lon="7.811735"><ele>236.1428571428571</ele><time>2026-04-11T10:40:30.451Z</time></trkpt><trkpt lat="44.937035" lon="7.8116817"><ele>235.85714285714283</ele><time>2026-04-11T10:40:31.451Z</time></trkpt><trkpt lat="44.9370917" lon="7.81163"><ele>235.57142857142856</ele><time>2026-04-11T10:40:32.451Z</time></trkpt><trkpt lat="44.93715" lon="7.8115883"><ele>235.28571428571428</ele><time>2026-04-11T10:40:33.451Z</time></trkpt><trkpt lat="44.9372483" lon="7.81156"><ele>235.0</ele><time>2026-04-11T10:40:35.451Z</time></trkpt><trkpt lat="44.9373067" lon="7.8116433"><ele>235.0</ele><time>2026-04-11T10:40:37.451Z</time></trkpt><trkpt lat="44.9373333" lon="7.8117883"><ele>235.0</ele><time>2026-04-11T10:40:39.451Z</time></trkpt><trkpt lat="44.937375" lon="7.811945"><ele>235.0</ele><time>2026-04-11T10:40:41.451Z</time></trkpt><trkpt lat="44.9374167" lon="7.8121033"><ele>235.0</ele><time>2026-04-11T10:40:43.451Z</time></trkpt><trkpt lat="44.9374433" lon="7.812185"><ele>235.0</ele><time>2026-04-11T10:40:44.451Z</time></trkpt><trkpt lat="44.9375" lon="7.8123383"><ele>234.99999999999997</ele><time>2026-04-11T10:40:46.451Z</time></trkpt><trkpt lat="44.9375383" lon="7.81241"><ele>235.0</ele><time>2026-04-11T10:40:47.451Z</time></trkpt><trkpt lat="44.9376533" lon="7.81249"><ele>235.0</ele><time>2026-04-11T10:40:49.451Z</time></trkpt><trkpt lat="44.9377217" lon="7.8125033"><ele>235.0</ele><time>2026-04-11T10:40:50.451Z</time></trkpt><trkpt lat="44.93779" lon="7.8125017"><ele>234.99999999999997</ele><time>2026-04-11T10:40:51.451Z</time></trkpt><trkpt lat="44.9378583" lon="7.812485"><ele>235.0</ele><time>2026-04-11T10:40:52.451Z</time></trkpt><trkpt lat="44.9379817" lon="7.8124717"><ele>235.0</ele><time>2026-04-11T10:40:54.451Z</time></trkpt><trkpt lat="44.9380467" lon="7.81246"><ele>234.99999999999997</ele><time>2026-04-11T10:40:55.451Z</time></trkpt><trkpt lat="44.9381117" lon="7.81245"><ele>235.0</ele><time>2026-04-11T10:40:56.451Z</time></trkpt><trkpt lat="44.938175" lon="7.8124433"><ele>235.0</ele><time>2026-04-11T10:40:57.451Z</time></trkpt><trkpt lat="44.9382433" lon="7.8124317"><ele>234.99999999999997</ele><time>2026-04-11T10:40:58.451Z</time></trkpt><trkpt lat="44.93831" lon="7.812425"><ele>235.0</ele><time>2026-04-11T10:40:59.451Z</time></trkpt><trkpt lat="44.9383783" lon="7.812415"><ele>235.0</ele><time>2026-04-11T10:41:00.451Z</time></trkpt><trkpt lat="44.9384433" lon="7.8124083"><ele>234.99999999999997</ele><time>2026-04-11T10:41:01.451Z</time></trkpt><trkpt lat="44.9385067" lon="7.8123983"><ele>235.0</ele><time>2026-04-11T10:41:02.452Z</time></trkpt><trkpt lat="44.93857" lon="7.8123917"><ele>235.0</ele><time>2026-04-11T10:41:03.451Z</time></trkpt><trkpt lat="44.9387" lon="7.812375"><ele>235.0</ele><time>2026-04-11T10:41:05.451Z</time></trkpt><trkpt lat="44.9387633" lon="7.81236"><ele>234.99999999999997</ele><time>2026-04-11T10:41:06.451Z</time></trkpt><trkpt lat="44.9388867" lon="7.8123417"><ele>235.0</ele><time>2026-04-11T10:41:08.451Z</time></trkpt><trkpt lat="44.9389533" lon="7.8123317"><ele>235.0</ele><time>2026-04-11T10:41:09.451Z</time></trkpt><trkpt lat="44.9390167" lon="7.812325"><ele>235.0</ele><time>2026-04-11T10:41:10.451Z</time></trkpt><trkpt lat="44.9391417" lon="7.8122883"><ele>235.0</ele><time>2026-04-11T10:41:12.451Z</time></trkpt><trkpt lat="44.9392683" lon="7.812255"><ele>235.0</ele><time>2026-04-11T10:41:14.451Z</time></trkpt><trkpt lat="44.939395" lon="7.8122367"><ele>235.0</ele><time>2026-04-11T10:41:16.451Z</time></trkpt><trkpt lat="44.9395067" lon="7.8122167"><ele>235.16666666666666</ele><time>2026-04-11T10:41:18.451Z</time></trkpt><trkpt lat="44.93963" lon="7.812205"><ele>235.33333333333331</ele><time>2026-04-11T10:41:20.451Z</time></trkpt><trkpt lat="44.939695" lon="7.8121967"><ele>235.5</ele><time>2026-04-11T10:41:21.451Z</time></trkpt><trkpt lat="44.9397583" lon="7.8121833"><ele>235.66666666666669</ele><time>2026-04-11T10:41:22.451Z</time></trkpt><trkpt lat="44.9398767" lon="7.81218"><ele>235.83333333333334</ele><time>2026-04-11T10:41:24.451Z</time></trkpt><trkpt lat="44.93994" lon="7.812185"><ele>236.0</ele><time>2026-04-11T10:41:25.451Z</time></trkpt><trkpt lat="44.94006" lon="7.8121883"><ele>236.4</ele><time>2026-04-11T10:41:27.451Z</time></trkpt><trkpt lat="44.940125" lon="7.8121883"><ele>236.8</ele><time>2026-04-11T10:41:28.451Z</time></trkpt><trkpt lat="44.940245" lon="7.812195"><ele>237.20000000000002</ele><time>2026-04-11T10:41:30.452Z</time></trkpt><trkpt lat="44.94036" lon="7.812225"><ele>237.60000000000002</ele><time>2026-04-11T10:41:32.451Z</time></trkpt><trkpt lat="44.9404367" lon="7.8123167"><ele>238.0</ele><time>2026-04-11T10:41:34.451Z</time></trkpt><trkpt lat="44.9404367" lon="7.8124433"><ele>238.0</ele><time>2026-04-11T10:41:36.451Z</time></trkpt><trkpt lat="44.940445" lon="7.8125833"><ele>238.0</ele><time>2026-04-11T10:41:38.451Z</time></trkpt><trkpt lat="44.9404733" lon="7.8127183"><ele>238.0</ele><time>2026-04-11T10:41:40.451Z</time></trkpt><trkpt lat="44.9405617" lon="7.8127983"><ele>238.0</ele><time>2026-04-11T10:41:42.451Z</time></trkpt><trkpt lat="44.9406783" lon="7.8128317"><ele>238.0</ele><time>2026-04-11T10:41:44.451Z</time></trkpt><trkpt lat="44.9407867" lon="7.8128783"><ele>239.0</ele><time>2026-04-11T10:41:46.451Z</time></trkpt><trkpt lat="44.9408917" lon="7.8129233"><ele>240.0</ele><time>2026-04-11T10:41:48.451Z</time></trkpt><trkpt lat="44.9409983" lon="7.8129767"><ele>241.0</ele><time>2026-04-11T10:41:50.451Z</time></trkpt><trkpt lat="44.9410933" lon="7.8130317"><ele>242.0</ele><time>2026-04-11T10:41:52.451Z</time></trkpt><trkpt lat="44.9411883" lon="7.8130967"><ele>243.0</ele><time>2026-04-11T10:41:54.451Z</time></trkpt><trkpt lat="44.9413" lon="7.81314"><ele>243.0</ele><time>2026-04-11T10:41:56.451Z</time></trkpt><trkpt lat="44.9414033" lon="7.813175"><ele>243.0</ele><time>2026-04-11T10:41:58.451Z</time></trkpt><trkpt lat="44.9415133" lon="7.8131967"><ele>243.0</ele><time>2026-04-11T10:42:00.451Z</time></trkpt><trkpt lat="44.9416317" lon="7.81321"><ele>243.0</ele><time>2026-04-11T10:42:02.451Z</time></trkpt><trkpt lat="44.9417567" lon="7.8132283"><ele>243.2</ele><time>2026-04-11T10:42:04.451Z</time></trkpt><trkpt lat="44.9418817" lon="7.8132333"><ele>243.4</ele><time>2026-04-11T10:42:06.451Z</time></trkpt><trkpt lat="44.9419467" lon="7.8132367"><ele>243.59999999999997</ele><time>2026-04-11T10:42:07.451Z</time></trkpt><trkpt lat="44.9420633" lon="7.8132467"><ele>243.79999999999998</ele><time>2026-04-11T10:42:09.451Z</time></trkpt><trkpt lat="44.9421867" lon="7.8132583"><ele>244.0</ele><time>2026-04-11T10:42:11.451Z</time></trkpt><trkpt lat="44.942305" lon="7.813265"><ele>244.0</ele><time>2026-04-11T10:42:13.451Z</time></trkpt><trkpt lat="44.942425" lon="7.8132917"><ele>243.99999999999997</ele><time>2026-04-11T10:42:15.451Z</time></trkpt><trkpt lat="44.9425367" lon="7.813295"><ele>243.99999999999997</ele><time>2026-04-11T10:42:17.451Z</time></trkpt><trkpt lat="44.9426467" lon="7.8132817"><ele>244.0</ele><time>2026-04-11T10:42:19.451Z</time></trkpt><trkpt lat="44.9427367" lon="7.8132417"><ele>244.0</ele><time>2026-04-11T10:42:21.451Z</time></trkpt><trkpt lat="44.9428233" lon="7.8132467"><ele>245.2</ele><time>2026-04-11T10:42:23.451Z</time></trkpt><trkpt lat="44.94292" lon="7.81328"><ele>246.39999999999998</ele><time>2026-04-11T10:42:25.451Z</time></trkpt><trkpt lat="44.9430133" lon="7.813305"><ele>247.6</ele><time>2026-04-11T10:42:27.451Z</time></trkpt><trkpt lat="44.9431083" lon="7.8133317"><ele>248.8</ele><time>2026-04-11T10:42:29.451Z</time></trkpt><trkpt lat="44.9432017" lon="7.8133617"><ele>250.0</ele><time>2026-04-11T10:42:31.451Z</time></trkpt><trkpt lat="44.9433067" lon="7.8133817"><ele>249.83333333333331</ele><time>2026-04-11T10:42:33.451Z</time></trkpt><trkpt lat="44.9434067" lon="7.8134017"><ele>249.66666666666666</ele><time>2026-04-11T10:42:35.451Z</time></trkpt><trkpt lat="44.9434933" lon="7.8134233"><ele>249.5</ele><time>2026-04-11T10:42:37.451Z</time></trkpt><trkpt lat="44.94357" lon="7.81344"><ele>249.33333333333331</ele><time>2026-04-11T10:42:39.451Z</time></trkpt><trkpt lat="44.9436433" lon="7.8134517"><ele>249.16666666666666</ele><time>2026-04-11T10:42:41.451Z</time></trkpt><trkpt lat="44.9437167" lon="7.81346"><ele>249.0</ele><time>2026-04-11T10:42:45.451Z</time></trkpt><trkpt lat="44.9437867" lon="7.8134817"><ele>248.6</ele><time>2026-04-11T10:42:48.451Z</time></trkpt><trkpt lat="44.9438633" lon="7.8135"><ele>248.2</ele><time>2026-04-11T10:42:50.451Z</time></trkpt><trkpt lat="44.9439433" lon="7.8135233"><ele>247.79999999999998</ele><time>2026-04-11T10:42:52.451Z</time></trkpt><trkpt lat="44.9440317" lon="7.8135533"><ele>247.39999999999998</ele><time>2026-04-11T10:42:54.451Z</time></trkpt><trkpt lat="44.944125" lon="7.81358"><ele>247.0</ele><time>2026-04-11T10:42:56.451Z</time></trkpt><trkpt lat="44.94423" lon="7.8136167"><ele>247.0</ele><time>2026-04-11T10:42:58.452Z</time></trkpt><trkpt lat="44.9443333" lon="7.8136517"><ele>247.0</ele><time>2026-04-11T10:43:00.451Z</time></trkpt><trkpt lat="44.9444383" lon="7.813685"><ele>247.0</ele><time>2026-04-11T10:43:02.451Z</time></trkpt><trkpt lat="44.9445483" lon="7.8137133"><ele>247.0</ele><time>2026-04-11T10:43:04.451Z</time></trkpt><trkpt lat="44.9446117" lon="7.81373"><ele>247.0</ele><time>2026-04-11T10:43:05.452Z</time></trkpt><trkpt lat="44.944675" lon="7.8137517"><ele>246.99999999999997</ele><time>2026-04-11T10:43:06.451Z</time></trkpt><trkpt lat="44.9447383" lon="7.8137667"><ele>247.0</ele><time>2026-04-11T10:43:07.451Z</time></trkpt><trkpt lat="44.9448033" lon="7.8137783"><ele>247.0</ele><time>2026-04-11T10:43:08.451Z</time></trkpt><trkpt lat="44.9448683" lon="7.8137933"><ele>247.0</ele><time>2026-04-11T10:43:09.451Z</time></trkpt><trkpt lat="44.94499" lon="7.8138283"><ele>246.99999999999997</ele><time>2026-04-11T10:43:11.451Z</time></trkpt><trkpt lat="44.945055" lon="7.813845"><ele>247.0</ele><time>2026-04-11T10:43:12.451Z</time></trkpt><trkpt lat="44.9451767" lon="7.8138733"><ele>247.2</ele><time>2026-04-11T10:43:14.451Z</time></trkpt><trkpt lat="44.9453" lon="7.8138983"><ele>247.39999999999998</ele><time>2026-04-11T10:43:16.451Z</time></trkpt><trkpt lat="44.9454217" lon="7.81393"><ele>247.60000000000002</ele><time>2026-04-11T10:43:18.451Z</time></trkpt><trkpt lat="44.945485" lon="7.8139467"><ele>247.8</ele><time>2026-04-11T10:43:19.451Z</time></trkpt><trkpt lat="44.9455467" lon="7.813965"><ele>248.0</ele><time>2026-04-11T10:43:20.452Z</time></trkpt><trkpt lat="44.9456683" lon="7.8140033"><ele>248.00000000000003</ele><time>2026-04-11T10:43:22.451Z</time></trkpt><trkpt lat="44.9457317" lon="7.8140267"><ele>248.0</ele><time>2026-04-11T10:43:23.451Z</time></trkpt><trkpt lat="44.9457967" lon="7.8140483"><ele>248.0</ele><time>2026-04-11T10:43:24.451Z</time></trkpt><trkpt lat="44.9459183" lon="7.8140867"><ele>248.0</ele><time>2026-04-11T10:43:26.451Z</time></trkpt><trkpt lat="44.9460433" lon="7.81412"><ele>248.00000000000003</ele><time>2026-04-11T10:43:28.451Z</time></trkpt><trkpt lat="44.9461067" lon="7.8141383"><ele>248.0</ele><time>2026-04-11T10:43:29.451Z</time></trkpt><trkpt lat="44.9461717" lon="7.814155"><ele>248.50000000000003</ele><time>2026-04-11T10:43:30.451Z</time></trkpt><trkpt lat="44.9462333" lon="7.814175"><ele>249.0</ele><time>2026-04-11T10:43:31.452Z</time></trkpt><trkpt lat="44.9462983" lon="7.814195"><ele>249.5</ele><time>2026-04-11T10:43:32.451Z</time></trkpt><trkpt lat="44.9464233" lon="7.814225"><ele>250.0</ele><time>2026-04-11T10:43:34.451Z</time></trkpt><trkpt lat="44.9464867" lon="7.8142383"><ele>250.50000000000003</ele><time>2026-04-11T10:43:35.451Z</time></trkpt><trkpt lat="44.9466033" lon="7.8142667"><ele>251.0</ele><time>2026-04-11T10:43:37.451Z</time></trkpt><trkpt lat="44.946715" lon="7.8142833"><ele>251.4</ele><time>2026-04-11T10:43:39.451Z</time></trkpt><trkpt lat="44.94682" lon="7.8143017"><ele>251.8</ele><time>2026-04-11T10:43:41.452Z</time></trkpt><trkpt lat="44.94691" lon="7.8143183"><ele>252.20000000000002</ele><time>2026-04-11T10:43:43.451Z</time></trkpt><trkpt lat="44.9470033" lon="7.8142733"><ele>252.60000000000002</ele><time>2026-04-11T10:43:45.451Z</time></trkpt><trkpt lat="44.9470867" lon="7.8141733"><ele>253.0</ele><time>2026-04-11T10:43:47.451Z</time></trkpt><trkpt lat="44.947135" lon="7.8141133"><ele>252.99999999999997</ele><time>2026-04-11T10:43:48.451Z</time></trkpt><trkpt lat="44.9471883" lon="7.814055"><ele>253.0</ele><time>2026-04-11T10:43:49.451Z</time></trkpt><trkpt lat="44.9472417" lon="7.8139983"><ele>253.0</ele><time>2026-04-11T10:43:50.451Z</time></trkpt><trkpt lat="44.9472933" lon="7.8139433"><ele>253.0</ele><time>2026-04-11T10:43:51.451Z</time></trkpt><trkpt lat="44.94738" lon="7.81384"><ele>252.99999999999997</ele><time>2026-04-11T10:43:53.451Z</time></trkpt><trkpt lat="44.9474683" lon="7.8137433"><ele>253.0</ele><time>2026-04-11T10:43:55.451Z</time></trkpt><trkpt lat="44.9475167" lon="7.813685"><ele>253.00000000000003</ele><time>2026-04-11T10:43:56.451Z</time></trkpt><trkpt lat="44.9475617" lon="7.8136183"><ele>253.0</ele><time>2026-04-11T10:43:57.451Z</time></trkpt><trkpt lat="44.9476033" lon="7.8135383"><ele>253.00000000000003</ele><time>2026-04-11T10:43:58.451Z</time></trkpt><trkpt lat="44.94765" lon="7.8134567"><ele>253.00000000000003</ele><time>2026-04-11T10:43:59.451Z</time></trkpt><trkpt lat="44.947695" lon="7.8133833"><ele>253.0</ele><time>2026-04-11T10:44:00.451Z</time></trkpt><trkpt lat="44.9477417" lon="7.813305"><ele>253.00000000000003</ele><time>2026-04-11T10:44:01.451Z</time></trkpt><trkpt lat="44.9477883" lon="7.8132283"><ele>253.00000000000003</ele><time>2026-04-11T10:44:02.451Z</time></trkpt><trkpt lat="44.947835" lon="7.8131617"><ele>253.14285714285717</ele><time>2026-04-11T10:44:03.451Z</time></trkpt><trkpt lat="44.94788" lon="7.8130917"><ele>253.28571428571428</ele><time>2026-04-11T10:44:04.451Z</time></trkpt><trkpt lat="44.9479267" lon="7.8130233"><ele>253.42857142857144</ele><time>2026-04-11T10:44:05.451Z</time></trkpt><trkpt lat="44.9479733" lon="7.8129533"><ele>253.57142857142858</ele><time>2026-04-11T10:44:06.451Z</time></trkpt><trkpt lat="44.9480217" lon="7.8128783"><ele>253.71428571428572</ele><time>2026-04-11T10:44:07.451Z</time></trkpt><trkpt lat="44.9480617" lon="7.8128033"><ele>253.85714285714286</ele><time>2026-04-11T10:44:08.451Z</time></trkpt><trkpt lat="44.9481067" lon="7.812725"><ele>254.0</ele><time>2026-04-11T10:44:09.451Z</time></trkpt><trkpt lat="44.94815" lon="7.81264"><ele>254.0</ele><time>2026-04-11T10:44:10.452Z</time></trkpt><trkpt lat="44.94819" lon="7.81256"><ele>254.0</ele><time>2026-04-11T10:44:11.451Z</time></trkpt><trkpt lat="44.9482267" lon="7.8124767"><ele>254.0</ele><time>2026-04-11T10:44:12.451Z</time></trkpt><trkpt lat="44.9482617" lon="7.8123933"><ele>254.0</ele><time>2026-04-11T10:44:13.451Z</time></trkpt><trkpt lat="44.9482967" lon="7.8123083"><ele>254.0</ele><time>2026-04-11T10:44:14.451Z</time></trkpt><trkpt lat="44.948335" lon="7.8122217"><ele>254.0</ele><time>2026-04-11T10:44:15.451Z</time></trkpt><trkpt lat="44.9483733" lon="7.81214"><ele>254.0</ele><time>2026-04-11T10:44:16.451Z</time></trkpt><trkpt lat="44.94841" lon="7.8120633"><ele>254.0</ele><time>2026-04-11T10:44:17.451Z</time></trkpt><trkpt lat="44.948445" lon="7.811985"><ele>254.0</ele><time>2026-04-11T10:44:18.451Z</time></trkpt><trkpt lat="44.9484817" lon="7.8119017"><ele>254.0</ele><time>2026-04-11T10:44:19.451Z</time></trkpt><trkpt lat="44.94852" lon="7.8118183"><ele>254.0</ele><time>2026-04-11T10:44:20.451Z</time></trkpt><trkpt lat="44.9485617" lon="7.8117367"><ele>254.0</ele><time>2026-04-11T10:44:21.451Z</time></trkpt><trkpt lat="44.9486017" lon="7.8116583"><ele>254.0</ele><time>2026-04-11T10:44:22.451Z</time></trkpt><trkpt lat="44.9486467" lon="7.8115767"><ele>254.0</ele><time>2026-04-11T10:44:23.451Z</time></trkpt><trkpt lat="44.9486933" lon="7.811495"><ele>253.85714285714286</ele><time>2026-04-11T10:44:24.451Z</time></trkpt><trkpt lat="44.9487383" lon="7.8114183"><ele>253.71428571428572</ele><time>2026-04-11T10:44:25.451Z</time></trkpt><trkpt lat="44.948785" lon="7.811345"><ele>253.57142857142858</ele><time>2026-04-11T10:44:26.451Z</time></trkpt><trkpt lat="44.9488333" lon="7.81128"><ele>253.42857142857144</ele><time>2026-04-11T10:44:27.452Z</time></trkpt><trkpt lat="44.9488833" lon="7.81122"><ele>253.28571428571428</ele><time>2026-04-11T10:44:28.451Z</time></trkpt><trkpt lat="44.9489383" lon="7.8111633"><ele>253.14285714285717</ele><time>2026-04-11T10:44:29.451Z</time></trkpt><trkpt lat="44.9489933" lon="7.8111117"><ele>253.00000000000003</ele><time>2026-04-11T10:44:30.451Z</time></trkpt><trkpt lat="44.9490533" lon="7.811065"><ele>253.00000000000003</ele><time>2026-04-11T10:44:31.451Z</time></trkpt><trkpt lat="44.9491133" lon="7.81102"><ele>253.0</ele><time>2026-04-11T10:44:32.451Z</time></trkpt><trkpt lat="44.949175" lon="7.8109833"><ele>253.00000000000003</ele><time>2026-04-11T10:44:33.451Z</time></trkpt><trkpt lat="44.94924" lon="7.81095"><ele>253.00000000000003</ele><time>2026-04-11T10:44:34.451Z</time></trkpt><trkpt lat="44.949305" lon="7.8109167"><ele>253.0</ele><time>2026-04-11T10:44:35.451Z</time></trkpt><trkpt lat="44.9493767" lon="7.8108883"><ele>253.00000000000003</ele><time>2026-04-11T10:44:36.451Z</time></trkpt><trkpt lat="44.9494467" lon="7.8108617"><ele>253.00000000000003</ele><time>2026-04-11T10:44:37.451Z</time></trkpt><trkpt lat="44.9495117" lon="7.810835"><ele>253.33333333333331</ele><time>2026-04-11T10:44:38.451Z</time></trkpt><trkpt lat="44.9495783" lon="7.8108167"><ele>253.66666666666666</ele><time>2026-04-11T10:44:39.451Z</time></trkpt><trkpt lat="44.9496417" lon="7.81079"><ele>254.0</ele><time>2026-04-11T10:44:40.451Z</time></trkpt><trkpt lat="44.9497067" lon="7.8107583"><ele>254.33333333333331</ele><time>2026-04-11T10:44:41.451Z</time></trkpt><trkpt lat="44.9497717" lon="7.810735"><ele>254.66666666666666</ele><time>2026-04-11T10:44:42.451Z</time></trkpt><trkpt lat="44.9498933" lon="7.8106733"><ele>255.0</ele><time>2026-04-11T10:44:44.451Z</time></trkpt><trkpt lat="44.94996" lon="7.81065"><ele>254.5</ele><time>2026-04-11T10:44:45.451Z</time></trkpt><trkpt lat="44.9500783" lon="7.8106183"><ele>254.0</ele><time>2026-04-11T10:44:47.451Z</time></trkpt><trkpt lat="44.9501967" lon="7.8106083"><ele>253.5</ele><time>2026-04-11T10:44:49.451Z</time></trkpt><trkpt lat="44.95031" lon="7.8105967"><ele>253.0</ele><time>2026-04-11T10:44:51.451Z</time></trkpt><trkpt lat="44.9504233" lon="7.81055"><ele>253.00000000000003</ele><time>2026-04-11T10:44:53.451Z</time></trkpt><trkpt lat="44.9504833" lon="7.8105"><ele>253.0</ele><time>2026-04-11T10:44:54.452Z</time></trkpt><trkpt lat="44.95054" lon="7.8104333"><ele>253.00000000000003</ele><time>2026-04-11T10:44:55.451Z</time></trkpt><trkpt lat="44.95059" lon="7.8103633"><ele>253.00000000000003</ele><time>2026-04-11T10:44:56.451Z</time></trkpt><trkpt lat="44.9506383" lon="7.8102933"><ele>253.0</ele><time>2026-04-11T10:44:57.451Z</time></trkpt><trkpt lat="44.9506867" lon="7.81023"><ele>253.00000000000003</ele><time>2026-04-11T10:44:58.451Z</time></trkpt><trkpt lat="44.9507367" lon="7.81016"><ele>253.00000000000003</ele><time>2026-04-11T10:44:59.451Z</time></trkpt><trkpt lat="44.9507867" lon="7.8100967"><ele>252.99999999999997</ele><time>2026-04-11T10:45:00.451Z</time></trkpt><trkpt lat="44.950835" lon="7.810035"><ele>253.0</ele><time>2026-04-11T10:45:01.451Z</time></trkpt><trkpt lat="44.950885" lon="7.8099783"><ele>253.0</ele><time>2026-04-11T10:45:02.451Z</time></trkpt><trkpt lat="44.950975" lon="7.809865"><ele>253.0</ele><time>2026-04-11T10:45:04.451Z</time></trkpt><trkpt lat="44.9510733" lon="7.8097533"><ele>252.99999999999997</ele><time>2026-04-11T10:45:06.451Z</time></trkpt><trkpt lat="44.95112" lon="7.80969"><ele>253.0</ele><time>2026-04-11T10:45:07.451Z</time></trkpt><trkpt lat="44.9512017" lon="7.80957"><ele>253.2</ele><time>2026-04-11T10:45:09.451Z</time></trkpt><trkpt lat="44.95129" lon="7.80945"><ele>253.4</ele><time>2026-04-11T10:45:11.451Z</time></trkpt><trkpt lat="44.9513817" lon="7.8093217"><ele>253.59999999999997</ele><time>2026-04-11T10:45:13.451Z</time></trkpt><trkpt lat="44.9514283" lon="7.8092583"><ele>253.79999999999998</ele><time>2026-04-11T10:45:14.451Z</time></trkpt><trkpt lat="44.9515083" lon="7.8091333"><ele>254.0</ele><time>2026-04-11T10:45:16.451Z</time></trkpt><trkpt lat="44.9515967" lon="7.8090267"><ele>254.0</ele><time>2026-04-11T10:45:18.451Z</time></trkpt><trkpt lat="44.9516483" lon="7.80896"><ele>254.0</ele><time>2026-04-11T10:45:19.451Z</time></trkpt><trkpt lat="44.9516983" lon="7.8089"><ele>254.0</ele><time>2026-04-11T10:45:20.451Z</time></trkpt><trkpt lat="44.9517533" lon="7.8088283"><ele>254.0</ele><time>2026-04-11T10:45:21.451Z</time></trkpt><trkpt lat="44.95181" lon="7.80875"><ele>254.0</ele><time>2026-04-11T10:45:22.451Z</time></trkpt><trkpt lat="44.9518733" lon="7.8086767"><ele>254.0</ele><time>2026-04-11T10:45:23.451Z</time></trkpt><trkpt lat="44.9519233" lon="7.8086"><ele>254.0</ele><time>2026-04-11T10:45:24.451Z</time></trkpt><trkpt lat="44.9519717" lon="7.80853"><ele>254.71428571428572</ele><time>2026-04-11T10:45:25.451Z</time></trkpt><trkpt lat="44.9520217" lon="7.8084533"><ele>255.42857142857142</ele><time>2026-04-11T10:45:26.451Z</time></trkpt><trkpt lat="44.95207" lon="7.8083733"><ele>256.1428571428571</ele><time>2026-04-11T10:45:27.451Z</time></trkpt><trkpt lat="44.95212" lon="7.8082967"><ele>256.8571428571429</ele><time>2026-04-11T10:45:28.451Z</time></trkpt><trkpt lat="44.9521667" lon="7.8082233"><ele>257.57142857142856</ele><time>2026-04-11T10:45:29.451Z</time></trkpt><trkpt lat="44.9522133" lon="7.80815"><ele>258.2857142857143</ele><time>2026-04-11T10:45:30.451Z</time></trkpt><trkpt lat="44.9522567" lon="7.8080767"><ele>259.0</ele><time>2026-04-11T10:45:31.451Z</time></trkpt><trkpt lat="44.9523" lon="7.808005"><ele>259.0</ele><time>2026-04-11T10:45:32.451Z</time></trkpt><trkpt lat="44.952345" lon="7.8079333"><ele>259.0</ele><time>2026-04-11T10:45:33.451Z</time></trkpt><trkpt lat="44.9523883" lon="7.8078583"><ele>259.0</ele><time>2026-04-11T10:45:34.452Z</time></trkpt><trkpt lat="44.9524733" lon="7.807725"><ele>259.0</ele><time>2026-04-11T10:45:36.451Z</time></trkpt><trkpt lat="44.95252" lon="7.8076533"><ele>259.0</ele><time>2026-04-11T10:45:37.451Z</time></trkpt><trkpt lat="44.9525633" lon="7.8075833"><ele>259.0</ele><time>2026-04-11T10:45:38.451Z</time></trkpt><trkpt lat="44.95261" lon="7.807515"><ele>258.3333333333333</ele><time>2026-04-11T10:45:39.451Z</time></trkpt><trkpt lat="44.9526483" lon="7.80744"><ele>257.66666666666663</ele><time>2026-04-11T10:45:40.451Z</time></trkpt><trkpt lat="44.9527217" lon="7.8072983"><ele>257.0</ele><time>2026-04-11T10:45:42.451Z</time></trkpt><trkpt lat="44.952765" lon="7.8072333"><ele>256.3333333333333</ele><time>2026-04-11T10:45:43.451Z</time></trkpt><trkpt lat="44.9528133" lon="7.8071683"><ele>255.66666666666666</ele><time>2026-04-11T10:45:44.451Z</time></trkpt><trkpt lat="44.95286" lon="7.8071017"><ele>255.0</ele><time>2026-04-11T10:45:45.451Z</time></trkpt><trkpt lat="44.95291" lon="7.8070317"><ele>255.0</ele><time>2026-04-11T10:45:46.451Z</time></trkpt><trkpt lat="44.9529567" lon="7.806955"><ele>255.00000000000003</ele><time>2026-04-11T10:45:47.451Z</time></trkpt><trkpt lat="44.953" lon="7.8068767"><ele>255.0</ele><time>2026-04-11T10:45:48.451Z</time></trkpt><trkpt lat="44.9530417" lon="7.8067983"><ele>255.0</ele><time>2026-04-11T10:45:49.451Z</time></trkpt><trkpt lat="44.9530867" lon="7.8067233"><ele>255.00000000000003</ele><time>2026-04-11T10:45:50.451Z</time></trkpt><trkpt lat="44.9531317" lon="7.8066467"><ele>255.0</ele><time>2026-04-11T10:45:51.451Z</time></trkpt><trkpt lat="44.9531733" lon="7.806565"><ele>255.0</ele><time>2026-04-11T10:45:52.451Z</time></trkpt><trkpt lat="44.9532183" lon="7.8064917"><ele>255.0</ele><time>2026-04-11T10:45:53.451Z</time></trkpt><trkpt lat="44.9532583" lon="7.806415"><ele>255.0</ele><time>2026-04-11T10:45:54.451Z</time></trkpt><trkpt lat="44.9533283" lon="7.8062833"><ele>255.0</ele><time>2026-04-11T10:45:56.451Z</time></trkpt><trkpt lat="44.9533767" lon="7.8061733"><ele>255.0</ele><time>2026-04-11T10:45:58.451Z</time></trkpt><trkpt lat="44.9534317" lon="7.806055"><ele>255.0</ele><time>2026-04-11T10:46:00.451Z</time></trkpt><trkpt lat="44.9534883" lon="7.8059383"><ele>255.2</ele><time>2026-04-11T10:46:02.451Z</time></trkpt><trkpt lat="44.9535433" lon="7.8057967"><ele>255.4</ele><time>2026-04-11T10:46:04.451Z</time></trkpt><trkpt lat="44.9535917" lon="7.8056417"><ele>255.60000000000002</ele><time>2026-04-11T10:46:06.451Z</time></trkpt><trkpt lat="44.953625" lon="7.8054817"><ele>255.8</ele><time>2026-04-11T10:46:08.451Z</time></trkpt><trkpt lat="44.95364" lon="7.8053917"><ele>256.0</ele><time>2026-04-11T10:46:09.451Z</time></trkpt><trkpt lat="44.95367" lon="7.8052167"><ele>255.99999999999997</ele><time>2026-04-11T10:46:11.451Z</time></trkpt><trkpt lat="44.9536917" lon="7.8050367"><ele>256.0</ele><time>2026-04-11T10:46:13.451Z</time></trkpt><trkpt lat="44.9536983" lon="7.804945"><ele>256.0</ele><time>2026-04-11T10:46:14.451Z</time></trkpt><trkpt lat="44.9536983" lon="7.804855"><ele>256.0</ele><time>2026-04-11T10:46:15.451Z</time></trkpt><trkpt lat="44.953695" lon="7.8047633"><ele>255.99999999999997</ele><time>2026-04-11T10:46:16.451Z</time></trkpt><trkpt lat="44.953695" lon="7.8046667"><ele>256.0</ele><time>2026-04-11T10:46:17.451Z</time></trkpt><trkpt lat="44.9536933" lon="7.8045667"><ele>256.0</ele><time>2026-04-11T10:46:18.451Z</time></trkpt><trkpt lat="44.9536883" lon="7.80447"><ele>255.99999999999997</ele><time>2026-04-11T10:46:19.451Z</time></trkpt><trkpt lat="44.9536867" lon="7.8043783"><ele>256.0</ele><time>2026-04-11T10:46:20.451Z</time></trkpt><trkpt lat="44.9536867" lon="7.8042817"><ele>256.0</ele><time>2026-04-11T10:46:21.451Z</time></trkpt><trkpt lat="44.9536883" lon="7.8041883"><ele>255.99999999999997</ele><time>2026-04-11T10:46:22.451Z</time></trkpt><trkpt lat="44.9536867" lon="7.8040933"><ele>256.0</ele><time>2026-04-11T10:46:23.451Z</time></trkpt><trkpt lat="44.953685" lon="7.8040017"><ele>256.0</ele><time>2026-04-11T10:46:24.451Z</time></trkpt><trkpt lat="44.95369" lon="7.8039017"><ele>255.85714285714283</ele><time>2026-04-11T10:46:25.451Z</time></trkpt><trkpt lat="44.95369" lon="7.8038083"><ele>255.7142857142857</ele><time>2026-04-11T10:46:26.451Z</time></trkpt><trkpt lat="44.9536967" lon="7.803715"><ele>255.57142857142856</ele><time>2026-04-11T10:46:27.451Z</time></trkpt><trkpt lat="44.95371" lon="7.80362"><ele>255.42857142857144</ele><time>2026-04-11T10:46:28.451Z</time></trkpt><trkpt lat="44.9537233" lon="7.8035233"><ele>255.2857142857143</ele><time>2026-04-11T10:46:29.451Z</time></trkpt><trkpt lat="44.95374" lon="7.80343"><ele>255.14285714285717</ele><time>2026-04-11T10:46:30.451Z</time></trkpt><trkpt lat="44.9537517" lon="7.8033367"><ele>255.0</ele><time>2026-04-11T10:46:31.451Z</time></trkpt><trkpt lat="44.9537617" lon="7.80324"><ele>255.0</ele><time>2026-04-11T10:46:32.451Z</time></trkpt><trkpt lat="44.9537783" lon="7.8031383"><ele>255.00000000000003</ele><time>2026-04-11T10:46:33.451Z</time></trkpt><trkpt lat="44.9537967" lon="7.803045"><ele>255.0</ele><time>2026-04-11T10:46:34.451Z</time></trkpt><trkpt lat="44.9538217" lon="7.80295"><ele>255.0</ele><time>2026-04-11T10:46:35.451Z</time></trkpt><trkpt lat="44.953855" lon="7.8028467"><ele>255.00000000000003</ele><time>2026-04-11T10:46:36.451Z</time></trkpt><trkpt lat="44.9538817" lon="7.8027517"><ele>255.0</ele><time>2026-04-11T10:46:37.451Z</time></trkpt><trkpt lat="44.95391" lon="7.8026517"><ele>255.0</ele><time>2026-04-11T10:46:38.451Z</time></trkpt><trkpt lat="44.95394" lon="7.8025583"><ele>255.0</ele><time>2026-04-11T10:46:39.451Z</time></trkpt><trkpt lat="44.9539683" lon="7.8024667"><ele>255.00000000000003</ele><time>2026-04-11T10:46:40.451Z</time></trkpt><trkpt lat="44.953995" lon="7.8023767"><ele>255.0</ele><time>2026-04-11T10:46:41.451Z</time></trkpt><trkpt lat="44.9540167" lon="7.802285"><ele>255.0</ele><time>2026-04-11T10:46:42.451Z</time></trkpt><trkpt lat="44.9540433" lon="7.8021933"><ele>255.00000000000003</ele><time>2026-04-11T10:46:43.451Z</time></trkpt><trkpt lat="44.9540733" lon="7.80211"><ele>255.0</ele><time>2026-04-11T10:46:44.451Z</time></trkpt><trkpt lat="44.954105" lon="7.80203"><ele>255.0</ele><time>2026-04-11T10:46:45.451Z</time></trkpt><trkpt lat="44.9541417" lon="7.8019483"><ele>255.0</ele><time>2026-04-11T10:46:46.451Z</time></trkpt><trkpt lat="44.9541783" lon="7.801865"><ele>255.0</ele><time>2026-04-11T10:46:47.451Z</time></trkpt><trkpt lat="44.954215" lon="7.80178"><ele>255.0</ele><time>2026-04-11T10:46:48.451Z</time></trkpt><trkpt lat="44.9542517" lon="7.8016933"><ele>255.0</ele><time>2026-04-11T10:46:49.451Z</time></trkpt><trkpt lat="44.95429" lon="7.8016083"><ele>255.0</ele><time>2026-04-11T10:46:50.451Z</time></trkpt><trkpt lat="44.954325" lon="7.8015233"><ele>255.0</ele><time>2026-04-11T10:46:51.452Z</time></trkpt><trkpt lat="44.9543917" lon="7.8013717"><ele>255.16666666666666</ele><time>2026-04-11T10:46:53.451Z</time></trkpt><trkpt lat="44.95446" lon="7.801215"><ele>255.33333333333331</ele><time>2026-04-11T10:46:55.451Z</time></trkpt><trkpt lat="44.9544933" lon="7.8011333"><ele>255.5</ele><time>2026-04-11T10:46:56.451Z</time></trkpt><trkpt lat="44.9545267" lon="7.8010533"><ele>255.66666666666666</ele><time>2026-04-11T10:46:57.451Z</time></trkpt><trkpt lat="44.9545667" lon="7.8009783"><ele>255.83333333333331</ele><time>2026-04-11T10:46:58.451Z</time></trkpt><trkpt lat="44.9546083" lon="7.800905"><ele>256.0</ele><time>2026-04-11T10:46:59.451Z</time></trkpt><trkpt lat="44.9546483" lon="7.8008267"><ele>255.49999999999997</ele><time>2026-04-11T10:47:00.451Z</time></trkpt><trkpt lat="44.9546883" lon="7.8007517"><ele>255.0</ele><time>2026-04-11T10:47:01.451Z</time></trkpt><trkpt lat="44.95473" lon="7.8006817"><ele>254.5</ele><time>2026-04-11T10:47:02.451Z</time></trkpt><trkpt lat="44.95477" lon="7.800605"><ele>254.0</ele><time>2026-04-11T10:47:03.451Z</time></trkpt><trkpt lat="44.95481" lon="7.80053"><ele>253.49999999999997</ele><time>2026-04-11T10:47:04.451Z</time></trkpt><trkpt lat="44.9548783" lon="7.80039"><ele>253.0</ele><time>2026-04-11T10:47:06.451Z</time></trkpt><trkpt lat="44.9549433" lon="7.8002467"><ele>253.00000000000003</ele><time>2026-04-11T10:47:08.451Z</time></trkpt><trkpt lat="44.9549767" lon="7.8001683"><ele>253.0</ele><time>2026-04-11T10:47:09.451Z</time></trkpt><trkpt lat="44.955005" lon="7.80008"><ele>253.00000000000003</ele><time>2026-04-11T10:47:10.451Z</time></trkpt><trkpt lat="44.9550317" lon="7.7999917"><ele>253.00000000000003</ele><time>2026-04-11T10:47:11.451Z</time></trkpt><trkpt lat="44.9550567" lon="7.7999067"><ele>253.0</ele><time>2026-04-11T10:47:12.451Z</time></trkpt><trkpt lat="44.9550833" lon="7.7998217"><ele>253.00000000000003</ele><time>2026-04-11T10:47:13.452Z</time></trkpt><trkpt lat="44.9551083" lon="7.799735"><ele>253.00000000000003</ele><time>2026-04-11T10:47:14.451Z</time></trkpt><trkpt lat="44.9551333" lon="7.79965"><ele>253.2</ele><time>2026-04-11T10:47:15.451Z</time></trkpt><trkpt lat="44.95518" lon="7.7994983"><ele>253.4</ele><time>2026-04-11T10:47:17.452Z</time></trkpt><trkpt lat="44.95523" lon="7.7993983"><ele>253.59999999999997</ele><time>2026-04-11T10:47:19.451Z</time></trkpt><trkpt lat="44.95532" lon="7.79939"><ele>253.79999999999998</ele><time>2026-04-11T10:47:22.451Z</time></trkpt><trkpt lat="44.955405" lon="7.7994567"><ele>254.0</ele><time>2026-04-11T10:47:24.451Z</time></trkpt><trkpt lat="44.9554617" lon="7.799505"><ele>254.0</ele><time>2026-04-11T10:47:25.451Z</time></trkpt><trkpt lat="44.95557" lon="7.799585"><ele>254.0</ele><time>2026-04-11T10:47:27.452Z</time></trkpt><trkpt lat="44.955675" lon="7.7996583"><ele>254.0</ele><time>2026-04-11T10:47:29.451Z</time></trkpt><trkpt lat="44.9557817" lon="7.7997333"><ele>254.0</ele><time>2026-04-11T10:47:31.451Z</time></trkpt><trkpt lat="44.955885" lon="7.799815"><ele>254.0</ele><time>2026-04-11T10:47:33.451Z</time></trkpt><trkpt lat="44.9559933" lon="7.7998883"><ele>254.0</ele><time>2026-04-11T10:47:35.451Z</time></trkpt><trkpt lat="44.9561033" lon="7.7999567"><ele>254.0</ele><time>2026-04-11T10:47:37.451Z</time></trkpt><trkpt lat="44.956205" lon="7.8000283"><ele>254.0</ele><time>2026-04-11T10:47:39.451Z</time></trkpt><trkpt lat="44.9563167" lon="7.800105"><ele>254.2</ele><time>2026-04-11T10:47:41.451Z</time></trkpt><trkpt lat="44.9564233" lon="7.8001883"><ele>254.39999999999998</ele><time>2026-04-11T10:47:43.451Z</time></trkpt><trkpt lat="44.9564783" lon="7.8002333"><ele>254.6</ele><time>2026-04-11T10:47:44.451Z</time></trkpt><trkpt lat="44.95659" lon="7.8003067"><ele>254.8</ele><time>2026-04-11T10:47:46.451Z</time></trkpt><trkpt lat="44.9566483" lon="7.8003417"><ele>255.0</ele><time>2026-04-11T10:47:47.451Z</time></trkpt><trkpt lat="44.9567633" lon="7.80039"><ele>255.2</ele><time>2026-04-11T10:47:49.451Z</time></trkpt><trkpt lat="44.95688" lon="7.8004333"><ele>255.4</ele><time>2026-04-11T10:47:51.451Z</time></trkpt><trkpt lat="44.9569917" lon="7.8004783"><ele>255.60000000000002</ele><time>2026-04-11T10:47:53.451Z</time></trkpt><trkpt lat="44.957055" lon="7.8005033"><ele>255.8</ele><time>2026-04-11T10:47:54.451Z</time></trkpt><trkpt lat="44.957175" lon="7.8005467"><ele>256.0</ele><time>2026-04-11T10:47:56.451Z</time></trkpt><trkpt lat="44.9572833" lon="7.8005883"><ele>256.0</ele><time>2026-04-11T10:47:58.451Z</time></trkpt><trkpt lat="44.9573967" lon="7.8006183"><ele>256.0</ele><time>2026-04-11T10:48:00.451Z</time></trkpt><trkpt lat="44.9575067" lon="7.8006583"><ele>256.0</ele><time>2026-04-11T10:48:02.45Z</time></trkpt><trkpt lat="44.9576083" lon="7.800685"><ele>256.0</ele><time>2026-04-11T10:48:04.45Z</time></trkpt><trkpt lat="44.9577033" lon="7.80071"><ele>256.0</ele><time>2026-04-11T10:48:06.45Z</time></trkpt><trkpt lat="44.9577933" lon="7.8007433"><ele>257.0</ele><time>2026-04-11T10:48:08.45Z</time></trkpt><trkpt lat="44.95789" lon="7.8007717"><ele>258.0</ele><time>2026-04-11T10:48:10.45Z</time></trkpt><trkpt lat="44.9579917" lon="7.8008117"><ele>259.0</ele><time>2026-04-11T10:48:12.45Z</time></trkpt><trkpt lat="44.9580933" lon="7.8008567"><ele>260.0</ele><time>2026-04-11T10:48:14.45Z</time></trkpt><trkpt lat="44.95819" lon="7.8008833"><ele>261.0</ele><time>2026-04-11T10:48:16.45Z</time></trkpt><trkpt lat="44.9582817" lon="7.80091"><ele>260.8</ele><time>2026-04-11T10:48:18.45Z</time></trkpt><trkpt lat="44.958375" lon="7.8009233"><ele>260.6</ele><time>2026-04-11T10:48:20.45Z</time></trkpt><trkpt lat="44.9584733" lon="7.8009483"><ele>260.4</ele><time>2026-04-11T10:48:22.45Z</time></trkpt><trkpt lat="44.95858" lon="7.8009767"><ele>260.2</ele><time>2026-04-11T10:48:24.45Z</time></trkpt><trkpt lat="44.9586783" lon="7.8009967"><ele>260.0</ele><time>2026-04-11T10:48:26.45Z</time></trkpt><trkpt lat="44.9587767" lon="7.801005"><ele>259.8</ele><time>2026-04-11T10:48:28.45Z</time></trkpt><trkpt lat="44.9588633" lon="7.8010167"><ele>259.6</ele><time>2026-04-11T10:48:30.45Z</time></trkpt><trkpt lat="44.9589533" lon="7.801035"><ele>259.4</ele><time>2026-04-11T10:48:32.45Z</time></trkpt><trkpt lat="44.959055" lon="7.80105"><ele>259.2</ele><time>2026-04-11T10:48:34.45Z</time></trkpt><trkpt lat="44.9591617" lon="7.8010667"><ele>259.0</ele><time>2026-04-11T10:48:36.45Z</time></trkpt><trkpt lat="44.95927" lon="7.8010833"><ele>259.0</ele><time>2026-04-11T10:48:38.45Z</time></trkpt><trkpt lat="44.959375" lon="7.8010833"><ele>259.0</ele><time>2026-04-11T10:48:40.45Z</time></trkpt><trkpt lat="44.95947" lon="7.8011017"><ele>259.0</ele><time>2026-04-11T10:48:42.45Z</time></trkpt><trkpt lat="44.959575" lon="7.8011183"><ele>259.0</ele><time>2026-04-11T10:48:44.45Z</time></trkpt><trkpt lat="44.959695" lon="7.801145"><ele>259.0</ele><time>2026-04-11T10:48:46.45Z</time></trkpt><trkpt lat="44.9598117" lon="7.80118"><ele>259.0</ele><time>2026-04-11T10:48:48.45Z</time></trkpt><trkpt lat="44.9599383" lon="7.8012183"><ele>259.0</ele><time>2026-04-11T10:48:50.45Z</time></trkpt><trkpt lat="44.9600033" lon="7.8012367"><ele>259.0</ele><time>2026-04-11T10:48:51.45Z</time></trkpt><trkpt lat="44.960075" lon="7.8012533"><ele>259.0</ele><time>2026-04-11T10:48:52.45Z</time></trkpt><trkpt lat="44.9601467" lon="7.8012683"><ele>259.0</ele><time>2026-04-11T10:48:53.45Z</time></trkpt><trkpt lat="44.9602267" lon="7.8012833"><ele>259.0</ele><time>2026-04-11T10:48:54.45Z</time></trkpt><trkpt lat="44.9603117" lon="7.8012917"><ele>259.0</ele><time>2026-04-11T10:48:55.45Z</time></trkpt><trkpt lat="44.9603983" lon="7.8013"><ele>259.0</ele><time>2026-04-11T10:48:56.45Z</time></trkpt><trkpt lat="44.9604783" lon="7.8013133"><ele>259.0</ele><time>2026-04-11T10:48:57.45Z</time></trkpt><trkpt lat="44.960565" lon="7.801325"><ele>259.0</ele><time>2026-04-11T10:48:58.45Z</time></trkpt><trkpt lat="44.960655" lon="7.8013283"><ele>259.0</ele><time>2026-04-11T10:48:59.45Z</time></trkpt><trkpt lat="44.96075" lon="7.80134"><ele>259.0</ele><time>2026-04-11T10:49:00.45Z</time></trkpt><trkpt lat="44.960845" lon="7.8013483"><ele>258.5</ele><time>2026-04-11T10:49:01.45Z</time></trkpt><trkpt lat="44.96094" lon="7.801355"><ele>258.0</ele><time>2026-04-11T10:49:02.45Z</time></trkpt><trkpt lat="44.96103" lon="7.8013617"><ele>257.5</ele><time>2026-04-11T10:49:03.45Z</time></trkpt><trkpt lat="44.961115" lon="7.8013667"><ele>257.0</ele><time>2026-04-11T10:49:04.45Z</time></trkpt><trkpt lat="44.961195" lon="7.8013783"><ele>256.5</ele><time>2026-04-11T10:49:05.45Z</time></trkpt><trkpt lat="44.9612733" lon="7.8013933"><ele>256.0</ele><time>2026-04-11T10:49:06.45Z</time></trkpt><trkpt lat="44.9613483" lon="7.801415"><ele>255.99999999999997</ele><time>2026-04-11T10:49:07.45Z</time></trkpt><trkpt lat="44.961425" lon="7.80144"><ele>256.0</ele><time>2026-04-11T10:49:08.45Z</time></trkpt><trkpt lat="44.9615017" lon="7.8014717"><ele>256.0</ele><time>2026-04-11T10:49:09.45Z</time></trkpt><trkpt lat="44.961575" lon="7.8015017"><ele>256.0</ele><time>2026-04-11T10:49:10.45Z</time></trkpt><trkpt lat="44.9616467" lon="7.80153"><ele>255.99999999999997</ele><time>2026-04-11T10:49:11.45Z</time></trkpt><trkpt lat="44.9617183" lon="7.801565"><ele>256.0</ele><time>2026-04-11T10:49:12.45Z</time></trkpt><trkpt lat="44.9617917" lon="7.8016"><ele>256.1428571428571</ele><time>2026-04-11T10:49:13.45Z</time></trkpt><trkpt lat="44.9618633" lon="7.8016283"><ele>256.2857142857143</ele><time>2026-04-11T10:49:14.45Z</time></trkpt><trkpt lat="44.961935" lon="7.8016583"><ele>256.42857142857144</ele><time>2026-04-11T10:49:15.45Z</time></trkpt><trkpt lat="44.9620017" lon="7.801695"><ele>256.57142857142856</ele><time>2026-04-11T10:49:16.45Z</time></trkpt><trkpt lat="44.96207" lon="7.8017233"><ele>256.7142857142857</ele><time>2026-04-11T10:49:17.45Z</time></trkpt><trkpt lat="44.96214" lon="7.8017533"><ele>256.85714285714283</ele><time>2026-04-11T10:49:18.45Z</time></trkpt><trkpt lat="44.9622117" lon="7.801785"><ele>257.0</ele><time>2026-04-11T10:49:19.45Z</time></trkpt><trkpt lat="44.9622867" lon="7.801825"><ele>257.0</ele><time>2026-04-11T10:49:20.45Z</time></trkpt><trkpt lat="44.9623583" lon="7.8018617"><ele>257.0</ele><time>2026-04-11T10:49:21.45Z</time></trkpt><trkpt lat="44.9624233" lon="7.8018983"><ele>257.0</ele><time>2026-04-11T10:49:22.45Z</time></trkpt><trkpt lat="44.96249" lon="7.8019433"><ele>257.0</ele><time>2026-04-11T10:49:23.45Z</time></trkpt><trkpt lat="44.9625583" lon="7.8019833"><ele>257.0</ele><time>2026-04-11T10:49:24.45Z</time></trkpt><trkpt lat="44.96263" lon="7.8020183"><ele>257.0</ele><time>2026-04-11T10:49:25.45Z</time></trkpt><trkpt lat="44.9627017" lon="7.8020483"><ele>257.0</ele><time>2026-04-11T10:49:26.45Z</time></trkpt><trkpt lat="44.9627733" lon="7.80208"><ele>257.1666666666667</ele><time>2026-04-11T10:49:27.45Z</time></trkpt><trkpt lat="44.9628433" lon="7.802115"><ele>257.33333333333337</ele><time>2026-04-11T10:49:28.45Z</time></trkpt><trkpt lat="44.96292" lon="7.8021483"><ele>257.5</ele><time>2026-04-11T10:49:29.45Z</time></trkpt><trkpt lat="44.9629933" lon="7.8021867"><ele>257.6666666666667</ele><time>2026-04-11T10:49:30.45Z</time></trkpt><trkpt lat="44.9630667" lon="7.8022233"><ele>257.8333333333333</ele><time>2026-04-11T10:49:31.45Z</time></trkpt><trkpt lat="44.96314" lon="7.8022583"><ele>258.0</ele><time>2026-04-11T10:49:32.45Z</time></trkpt><trkpt lat="44.963215" lon="7.8022883"><ele>258.0</ele><time>2026-04-11T10:49:33.45Z</time></trkpt><trkpt lat="44.9632883" lon="7.8023233"><ele>258.0</ele><time>2026-04-11T10:49:34.45Z</time></trkpt><trkpt lat="44.96336" lon="7.80236"><ele>258.0</ele><time>2026-04-11T10:49:35.45Z</time></trkpt><trkpt lat="44.96343" lon="7.802395"><ele>258.0</ele><time>2026-04-11T10:49:36.45Z</time></trkpt><trkpt lat="44.9635017" lon="7.802425"><ele>258.0</ele><time>2026-04-11T10:49:37.45Z</time></trkpt><trkpt lat="44.963575" lon="7.80246"><ele>258.0</ele><time>2026-04-11T10:49:38.45Z</time></trkpt><trkpt lat="44.9636483" lon="7.8024867"><ele>258.2857142857143</ele><time>2026-04-11T10:49:39.45Z</time></trkpt><trkpt lat="44.96372" lon="7.8025117"><ele>258.57142857142856</ele><time>2026-04-11T10:49:40.45Z</time></trkpt><trkpt lat="44.96379" lon="7.8025367"><ele>258.8571428571429</ele><time>2026-04-11T10:49:41.45Z</time></trkpt><trkpt lat="44.9638533" lon="7.8025617"><ele>259.1428571428571</ele><time>2026-04-11T10:49:42.45Z</time></trkpt><trkpt lat="44.96392" lon="7.80259"><ele>259.42857142857144</ele><time>2026-04-11T10:49:43.45Z</time></trkpt><trkpt lat="44.96399" lon="7.8026167"><ele>259.7142857142857</ele><time>2026-04-11T10:49:44.45Z</time></trkpt><trkpt lat="44.9640533" lon="7.8026433"><ele>260.0</ele><time>2026-04-11T10:49:45.45Z</time></trkpt><trkpt lat="44.9641183" lon="7.802665"><ele>259.6666666666667</ele><time>2026-04-11T10:49:46.45Z</time></trkpt><trkpt lat="44.9641833" lon="7.8026883"><ele>259.33333333333337</ele><time>2026-04-11T10:49:47.45Z</time></trkpt><trkpt lat="44.9642483" lon="7.8027117"><ele>259.0</ele><time>2026-04-11T10:49:48.45Z</time></trkpt><trkpt lat="44.9643133" lon="7.802735"><ele>258.6666666666667</ele><time>2026-04-11T10:49:49.45Z</time></trkpt><trkpt lat="44.9644383" lon="7.8027317"><ele>258.3333333333333</ele><time>2026-04-11T10:49:51.45Z</time></trkpt><trkpt lat="44.9645" lon="7.8027017"><ele>258.0</ele><time>2026-04-11T10:49:52.45Z</time></trkpt><trkpt lat="44.9645567" lon="7.8026617"><ele>257.99999999999994</ele><time>2026-04-11T10:49:53.45Z</time></trkpt><trkpt lat="44.9646117" lon="7.8026133"><ele>258.0</ele><time>2026-04-11T10:49:54.45Z</time></trkpt><trkpt lat="44.9646683" lon="7.802565"><ele>258.0</ele><time>2026-04-11T10:49:55.45Z</time></trkpt><trkpt lat="44.9647267" lon="7.8025133"><ele>258.0</ele><time>2026-04-11T10:49:56.45Z</time></trkpt><trkpt lat="44.9647867" lon="7.8024667"><ele>258.0</ele><time>2026-04-11T10:49:57.45Z</time></trkpt><trkpt lat="44.964845" lon="7.8024183"><ele>257.99999999999994</ele><time>2026-04-11T10:49:58.45Z</time></trkpt><trkpt lat="44.964905" lon="7.802375"><ele>258.0</ele><time>2026-04-11T10:49:59.45Z</time></trkpt><trkpt lat="44.9649683" lon="7.8023367"><ele>257.3333333333333</ele><time>2026-04-11T10:50:00.45Z</time></trkpt><trkpt lat="44.9650317" lon="7.8023033"><ele>256.6666666666667</ele><time>2026-04-11T10:50:01.45Z</time></trkpt><trkpt lat="44.9650917" lon="7.802275"><ele>256.0</ele><time>2026-04-11T10:50:02.45Z</time></trkpt><trkpt lat="44.9651533" lon="7.8022517"><ele>255.33333333333334</ele><time>2026-04-11T10:50:03.45Z</time></trkpt><trkpt lat="44.9652767" lon="7.802215"><ele>254.66666666666669</ele><time>2026-04-11T10:50:05.45Z</time></trkpt><trkpt lat="44.96539" lon="7.8022117"><ele>254.0</ele><time>2026-04-11T10:50:07.45Z</time></trkpt><trkpt lat="44.9654917" lon="7.802215"><ele>254.0</ele><time>2026-04-11T10:50:09.45Z</time></trkpt><trkpt lat="44.9655883" lon="7.8021933"><ele>253.99999999999997</ele><time>2026-04-11T10:50:11.45Z</time></trkpt><trkpt lat="44.96565" lon="7.8021117"><ele>253.99999999999997</ele><time>2026-04-11T10:50:13.45Z</time></trkpt><trkpt lat="44.9656783" lon="7.8019733"><ele>254.0</ele><time>2026-04-11T10:50:15.45Z</time></trkpt><trkpt lat="44.9656967" lon="7.8018"><ele>254.0</ele><time>2026-04-11T10:50:17.45Z</time></trkpt><trkpt lat="44.9657" lon="7.8017"><ele>254.14285714285717</ele><time>2026-04-11T10:50:18.45Z</time></trkpt><trkpt lat="44.9657017" lon="7.8016017"><ele>254.28571428571428</ele><time>2026-04-11T10:50:19.45Z</time></trkpt><trkpt lat="44.9657033" lon="7.8015083"><ele>254.42857142857144</ele><time>2026-04-11T10:50:20.45Z</time></trkpt><trkpt lat="44.9657033" lon="7.8014133"><ele>254.57142857142858</ele><time>2026-04-11T10:50:21.45Z</time></trkpt><trkpt lat="44.965705" lon="7.801315"><ele>254.71428571428572</ele><time>2026-04-11T10:50:22.45Z</time></trkpt><trkpt lat="44.9657067" lon="7.8012167"><ele>254.85714285714286</ele><time>2026-04-11T10:50:23.45Z</time></trkpt><trkpt lat="44.9657133" lon="7.8011217"><ele>255.0</ele><time>2026-04-11T10:50:24.45Z</time></trkpt><trkpt lat="44.9657133" lon="7.8010233"><ele>255.0</ele><time>2026-04-11T10:50:25.45Z</time></trkpt><trkpt lat="44.9657117" lon="7.8009267"><ele>255.00000000000003</ele><time>2026-04-11T10:50:26.45Z</time></trkpt><trkpt lat="44.965715" lon="7.80083"><ele>255.0</ele><time>2026-04-11T10:50:27.45Z</time></trkpt><trkpt lat="44.96572" lon="7.8007333"><ele>255.0</ele><time>2026-04-11T10:50:28.45Z</time></trkpt><trkpt lat="44.96572" lon="7.8006383"><ele>255.00000000000003</ele><time>2026-04-11T10:50:29.45Z</time></trkpt><trkpt lat="44.9657217" lon="7.8005433"><ele>255.0</ele><time>2026-04-11T10:50:30.45Z</time></trkpt><trkpt lat="44.9657217" lon="7.8004417"><ele>255.0</ele><time>2026-04-11T10:50:31.45Z</time></trkpt><trkpt lat="44.9657283" lon="7.8002617"><ele>255.0</ele><time>2026-04-11T10:50:33.45Z</time></trkpt><trkpt lat="44.965735" lon="7.8001667"><ele>255.00000000000003</ele><time>2026-04-11T10:50:34.45Z</time></trkpt><trkpt lat="44.96574" lon="7.800075"><ele>255.0</ele><time>2026-04-11T10:50:35.45Z</time></trkpt><trkpt lat="44.965745" lon="7.7999833"><ele>255.0</ele><time>2026-04-11T10:50:36.45Z</time></trkpt><trkpt lat="44.9657467" lon="7.7998933"><ele>255.00000000000003</ele><time>2026-04-11T10:50:37.45Z</time></trkpt><trkpt lat="44.9657483" lon="7.7997967"><ele>255.0</ele><time>2026-04-11T10:50:38.45Z</time></trkpt><trkpt lat="44.9657483" lon="7.7997033"><ele>255.0</ele><time>2026-04-11T10:50:39.45Z</time></trkpt><trkpt lat="44.9657467" lon="7.7996083"><ele>254.85714285714286</ele><time>2026-04-11T10:50:40.45Z</time></trkpt><trkpt lat="44.9657433" lon="7.7995133"><ele>254.71428571428572</ele><time>2026-04-11T10:50:41.45Z</time></trkpt><trkpt lat="44.9657433" lon="7.79942"><ele>254.57142857142858</ele><time>2026-04-11T10:50:42.45Z</time></trkpt><trkpt lat="44.9657417" lon="7.7993267"><ele>254.42857142857144</ele><time>2026-04-11T10:50:43.45Z</time></trkpt><trkpt lat="44.965735" lon="7.799235"><ele>254.28571428571428</ele><time>2026-04-11T10:50:44.45Z</time></trkpt><trkpt lat="44.96573" lon="7.799145"><ele>254.14285714285717</ele><time>2026-04-11T10:50:45.45Z</time></trkpt><trkpt lat="44.965725" lon="7.7989767"><ele>254.0</ele><time>2026-04-11T10:50:47.45Z</time></trkpt><trkpt lat="44.965725" lon="7.7988183"><ele>254.00000000000003</ele><time>2026-04-11T10:50:49.45Z</time></trkpt><trkpt lat="44.9657467" lon="7.7987283"><ele>254.0</ele><time>2026-04-11T10:50:51.45Z</time></trkpt><trkpt lat="44.9658167" lon="7.7987033"><ele>254.0</ele><time>2026-04-11T10:50:53.45Z</time></trkpt><trkpt lat="44.9658983" lon="7.7987033"><ele>254.0</ele><time>2026-04-11T10:50:55.45Z</time></trkpt><trkpt lat="44.965985" lon="7.7987133"><ele>254.00000000000003</ele><time>2026-04-11T10:50:57.45Z</time></trkpt><trkpt lat="44.966085" lon="7.7987283"><ele>254.0</ele><time>2026-04-11T10:50:59.45Z</time></trkpt><trkpt lat="44.9661517" lon="7.79873"><ele>254.33333333333334</ele><time>2026-04-11T10:51:01.45Z</time></trkpt><trkpt lat="44.9660883" lon="7.7986683"><ele>254.66666666666669</ele><time>2026-04-11T10:51:07.45Z</time></trkpt><trkpt lat="44.9660517" lon="7.7985783"><ele>255.0</ele><time>2026-04-11T10:51:09.45Z</time></trkpt><trkpt lat="44.966045" lon="7.7983917"><ele>255.33333333333331</ele><time>2026-04-11T10:51:11.45Z</time></trkpt><trkpt lat="44.9660433" lon="7.798285"><ele>255.66666666666666</ele><time>2026-04-11T10:51:12.45Z</time></trkpt><trkpt lat="44.9660517" lon="7.7981783"><ele>256.0</ele><time>2026-04-11T10:51:13.45Z</time></trkpt><trkpt lat="44.96605" lon="7.7980717"><ele>256.16666666666663</ele><time>2026-04-11T10:51:14.45Z</time></trkpt><trkpt lat="44.9660483" lon="7.7979583"><ele>256.3333333333333</ele><time>2026-04-11T10:51:15.451Z</time></trkpt><trkpt lat="44.96605" lon="7.7978533"><ele>256.5</ele><time>2026-04-11T10:51:16.45Z</time></trkpt><trkpt lat="44.9660517" lon="7.7977433"><ele>256.6666666666667</ele><time>2026-04-11T10:51:17.45Z</time></trkpt><trkpt lat="44.966055" lon="7.7976333"><ele>256.83333333333337</ele><time>2026-04-11T10:51:18.45Z</time></trkpt><trkpt lat="44.96606" lon="7.797525"><ele>257.0</ele><time>2026-04-11T10:51:19.45Z</time></trkpt><trkpt lat="44.966055" lon="7.7974133"><ele>256.5</ele><time>2026-04-11T10:51:20.45Z</time></trkpt><trkpt lat="44.966055" lon="7.7973"><ele>256.0</ele><time>2026-04-11T10:51:21.45Z</time></trkpt><trkpt lat="44.9660567" lon="7.7971917"><ele>255.5</ele><time>2026-04-11T10:51:22.45Z</time></trkpt><trkpt lat="44.9660583" lon="7.79708"><ele>255.0</ele><time>2026-04-11T10:51:23.45Z</time></trkpt><trkpt lat="44.96606" lon="7.7969683"><ele>254.50000000000003</ele><time>2026-04-11T10:51:24.45Z</time></trkpt><trkpt lat="44.9660633" lon="7.7968533"><ele>254.0</ele><time>2026-04-11T10:51:25.45Z</time></trkpt><trkpt lat="44.966065" lon="7.7967383"><ele>253.66666666666669</ele><time>2026-04-11T10:51:26.45Z</time></trkpt><trkpt lat="44.96607" lon="7.7966267"><ele>253.33333333333334</ele><time>2026-04-11T10:51:27.45Z</time></trkpt><trkpt lat="44.9660733" lon="7.7965133"><ele>253.0</ele><time>2026-04-11T10:51:28.45Z</time></trkpt><trkpt lat="44.966075" lon="7.7964"><ele>252.66666666666669</ele><time>2026-04-11T10:51:29.45Z</time></trkpt><trkpt lat="44.9660767" lon="7.7962933"><ele>252.33333333333334</ele><time>2026-04-11T10:51:30.45Z</time></trkpt><trkpt lat="44.9660783" lon="7.796175"><ele>252.0</ele><time>2026-04-11T10:51:31.45Z</time></trkpt><trkpt lat="44.9660783" lon="7.79606"><ele>251.83333333333334</ele><time>2026-04-11T10:51:32.45Z</time></trkpt><trkpt lat="44.9660783" lon="7.7959383"><ele>251.66666666666669</ele><time>2026-04-11T10:51:33.45Z</time></trkpt><trkpt lat="44.9660767" lon="7.79581"><ele>251.5</ele><time>2026-04-11T10:51:34.451Z</time></trkpt><trkpt lat="44.9660783" lon="7.7956833"><ele>251.33333333333334</ele><time>2026-04-11T10:51:35.45Z</time></trkpt><trkpt lat="44.96608" lon="7.79556"><ele>251.16666666666669</ele><time>2026-04-11T10:51:36.451Z</time></trkpt><trkpt lat="44.9660783" lon="7.795435"><ele>251.0</ele><time>2026-04-11T10:51:37.45Z</time></trkpt><trkpt lat="44.9660767" lon="7.795315"><ele>251.0</ele><time>2026-04-11T10:51:38.45Z</time></trkpt><trkpt lat="44.9660683" lon="7.7951917"><ele>251.00000000000003</ele><time>2026-04-11T10:51:39.45Z</time></trkpt><trkpt lat="44.9660633" lon="7.795065"><ele>251.00000000000003</ele><time>2026-04-11T10:51:40.45Z</time></trkpt><trkpt lat="44.96606" lon="7.79493"><ele>251.0</ele><time>2026-04-11T10:51:41.45Z</time></trkpt><trkpt lat="44.9660667" lon="7.7947967"><ele>251.0</ele><time>2026-04-11T10:51:42.45Z</time></trkpt><trkpt lat="44.96607" lon="7.7946567"><ele>249.8</ele><time>2026-04-11T10:51:43.45Z</time></trkpt><trkpt lat="44.96608" lon="7.7945217"><ele>248.60000000000002</ele><time>2026-04-11T10:51:44.45Z</time></trkpt><trkpt lat="44.9660867" lon="7.7943817"><ele>247.4</ele><time>2026-04-11T10:51:45.45Z</time></trkpt><trkpt lat="44.966095" lon="7.7942417"><ele>246.2</ele><time>2026-04-11T10:51:46.45Z</time></trkpt><trkpt lat="44.9661083" lon="7.7941017"><ele>245.0</ele><time>2026-04-11T10:51:47.45Z</time></trkpt><trkpt lat="44.9661317" lon="7.7939733"><ele>245.00000000000003</ele><time>2026-04-11T10:51:48.45Z</time></trkpt><trkpt lat="44.9661617" lon="7.7938517"><ele>245.0</ele><time>2026-04-11T10:51:49.45Z</time></trkpt><trkpt lat="44.9661867" lon="7.7937317"><ele>245.0</ele><time>2026-04-11T10:51:50.45Z</time></trkpt><trkpt lat="44.9662233" lon="7.79362"><ele>245.0</ele><time>2026-04-11T10:51:51.45Z</time></trkpt><trkpt lat="44.9662617" lon="7.7935033"><ele>245.00000000000003</ele><time>2026-04-11T10:51:52.45Z</time></trkpt><trkpt lat="44.9662883" lon="7.7934"><ele>245.0</ele><time>2026-04-11T10:51:53.45Z</time></trkpt><trkpt lat="44.96632" lon="7.7932933"><ele>244.83333333333334</ele><time>2026-04-11T10:51:54.45Z</time></trkpt><trkpt lat="44.96635" lon="7.7931833"><ele>244.66666666666669</ele><time>2026-04-11T10:51:55.45Z</time></trkpt><trkpt lat="44.9663817" lon="7.79307"><ele>244.5</ele><time>2026-04-11T10:51:56.45Z</time></trkpt><trkpt lat="44.96641" lon="7.7929617"><ele>244.33333333333331</ele><time>2026-04-11T10:51:57.45Z</time></trkpt><trkpt lat="44.96643" lon="7.79285"><ele>244.16666666666666</ele><time>2026-04-11T10:51:58.45Z</time></trkpt><trkpt lat="44.966445" lon="7.7927333"><ele>244.0</ele><time>2026-04-11T10:51:59.45Z</time></trkpt><trkpt lat="44.9664517" lon="7.7926217"><ele>243.99999999999997</ele><time>2026-04-11T10:52:00.45Z</time></trkpt><trkpt lat="44.96646" lon="7.79251"><ele>244.0</ele><time>2026-04-11T10:52:01.45Z</time></trkpt><trkpt lat="44.9664733" lon="7.7924017"><ele>244.0</ele><time>2026-04-11T10:52:02.45Z</time></trkpt><trkpt lat="44.9664883" lon="7.7922983"><ele>244.0</ele><time>2026-04-11T10:52:03.45Z</time></trkpt><trkpt lat="44.9665067" lon="7.7921917"><ele>243.99999999999997</ele><time>2026-04-11T10:52:04.45Z</time></trkpt><trkpt lat="44.96653" lon="7.792085"><ele>244.0</ele><time>2026-04-11T10:52:05.45Z</time></trkpt><trkpt lat="44.9665583" lon="7.7919767"><ele>243.99999999999997</ele><time>2026-04-11T10:52:06.45Z</time></trkpt><trkpt lat="44.9665867" lon="7.7918767"><ele>244.0</ele><time>2026-04-11T10:52:07.45Z</time></trkpt><trkpt lat="44.9666183" lon="7.7917717"><ele>244.0</ele><time>2026-04-11T10:52:08.45Z</time></trkpt><trkpt lat="44.9666467" lon="7.791665"><ele>244.0</ele><time>2026-04-11T10:52:09.45Z</time></trkpt><trkpt lat="44.9666783" lon="7.7915583"><ele>243.99999999999997</ele><time>2026-04-11T10:52:10.45Z</time></trkpt><trkpt lat="44.9667117" lon="7.79146"><ele>244.0</ele><time>2026-04-11T10:52:11.45Z</time></trkpt><trkpt lat="44.9667433" lon="7.7913633"><ele>243.99999999999997</ele><time>2026-04-11T10:52:12.45Z</time></trkpt><trkpt lat="44.9667717" lon="7.7912767"><ele>244.0</ele><time>2026-04-11T10:52:13.45Z</time></trkpt><trkpt lat="44.9667983" lon="7.7911933"><ele>243.99999999999997</ele><time>2026-04-11T10:52:14.45Z</time></trkpt><trkpt lat="44.96683" lon="7.791115"><ele>243.99999999999997</ele><time>2026-04-11T10:52:15.45Z</time></trkpt><trkpt lat="44.9668667" lon="7.79104"><ele>244.0</ele><time>2026-04-11T10:52:16.451Z</time></trkpt><trkpt lat="44.966915" lon="7.7909733"><ele>243.99999999999997</ele><time>2026-04-11T10:52:17.45Z</time></trkpt><trkpt lat="44.9669667" lon="7.7909033"><ele>243.99999999999997</ele><time>2026-04-11T10:52:18.45Z</time></trkpt><trkpt lat="44.967015" lon="7.7908267"><ele>243.99999999999997</ele><time>2026-04-11T10:52:19.45Z</time></trkpt><trkpt lat="44.96707" lon="7.7907533"><ele>244.0</ele><time>2026-04-11T10:52:20.45Z</time></trkpt><trkpt lat="44.967125" lon="7.7906833"><ele>244.0</ele><time>2026-04-11T10:52:21.451Z</time></trkpt><trkpt lat="44.96718" lon="7.79061"><ele>244.0</ele><time>2026-04-11T10:52:22.45Z</time></trkpt><trkpt lat="44.96723" lon="7.7905283"><ele>243.99999999999997</ele><time>2026-04-11T10:52:23.45Z</time></trkpt><trkpt lat="44.96728" lon="7.7904467"><ele>244.0</ele><time>2026-04-11T10:52:24.45Z</time></trkpt><trkpt lat="44.9673367" lon="7.79037"><ele>243.99999999999997</ele><time>2026-04-11T10:52:25.45Z</time></trkpt><trkpt lat="44.9673967" lon="7.7902933"><ele>244.0</ele><time>2026-04-11T10:52:26.45Z</time></trkpt><trkpt lat="44.9674517" lon="7.7902267"><ele>244.0</ele><time>2026-04-11T10:52:27.451Z</time></trkpt><trkpt lat="44.9675" lon="7.7901533"><ele>244.0</ele><time>2026-04-11T10:52:28.45Z</time></trkpt><trkpt lat="44.9675517" lon="7.7900717"><ele>243.99999999999997</ele><time>2026-04-11T10:52:29.451Z</time></trkpt><trkpt lat="44.9676017" lon="7.7899833"><ele>244.0</ele><time>2026-04-11T10:52:30.45Z</time></trkpt><trkpt lat="44.967655" lon="7.7899"><ele>243.49999999999997</ele><time>2026-04-11T10:52:31.45Z</time></trkpt><trkpt lat="44.9677117" lon="7.78982"><ele>243.0</ele><time>2026-04-11T10:52:32.45Z</time></trkpt><trkpt lat="44.96777" lon="7.7897367"><ele>242.5</ele><time>2026-04-11T10:52:33.45Z</time></trkpt><trkpt lat="44.9678283" lon="7.7896567"><ele>242.0</ele><time>2026-04-11T10:52:34.45Z</time></trkpt><trkpt lat="44.9678833" lon="7.7895833"><ele>241.49999999999997</ele><time>2026-04-11T10:52:35.45Z</time></trkpt><trkpt lat="44.967935" lon="7.7895083"><ele>241.0</ele><time>2026-04-11T10:52:36.45Z</time></trkpt><trkpt lat="44.967985" lon="7.7894333"><ele>240.99999999999997</ele><time>2026-04-11T10:52:37.45Z</time></trkpt><trkpt lat="44.9680367" lon="7.78935"><ele>241.0</ele><time>2026-04-11T10:52:38.45Z</time></trkpt><trkpt lat="44.9680883" lon="7.789265"><ele>241.0</ele><time>2026-04-11T10:52:39.45Z</time></trkpt><trkpt lat="44.9681383" lon="7.7891817"><ele>241.0</ele><time>2026-04-11T10:52:40.45Z</time></trkpt><trkpt lat="44.9681917" lon="7.7891033"><ele>240.99999999999997</ele><time>2026-04-11T10:52:41.45Z</time></trkpt><trkpt lat="44.968245" lon="7.789025"><ele>241.0</ele><time>2026-04-11T10:52:42.45Z</time></trkpt><trkpt lat="44.9682967" lon="7.7889417"><ele>240.99999999999997</ele><time>2026-04-11T10:52:43.45Z</time></trkpt><trkpt lat="44.9683533" lon="7.7888583"><ele>241.0</ele><time>2026-04-11T10:52:44.45Z</time></trkpt><trkpt lat="44.9684067" lon="7.788775"><ele>241.0</ele><time>2026-04-11T10:52:45.45Z</time></trkpt><trkpt lat="44.96847" lon="7.7886967"><ele>241.0</ele><time>2026-04-11T10:52:46.45Z</time></trkpt><trkpt lat="44.9685267" lon="7.7886167"><ele>240.99999999999997</ele><time>2026-04-11T10:52:47.45Z</time></trkpt><trkpt lat="44.9685833" lon="7.7885333"><ele>241.0</ele><time>2026-04-11T10:52:48.45Z</time></trkpt><trkpt lat="44.9686383" lon="7.7884567"><ele>241.57142857142858</ele><time>2026-04-11T10:52:49.45Z</time></trkpt><trkpt lat="44.9686933" lon="7.7883717"><ele>242.14285714285717</ele><time>2026-04-11T10:52:50.45Z</time></trkpt><trkpt lat="44.968745" lon="7.7882967"><ele>242.71428571428572</ele><time>2026-04-11T10:52:51.45Z</time></trkpt><trkpt lat="44.96879" lon="7.788215"><ele>243.28571428571428</ele><time>2026-04-11T10:52:52.45Z</time></trkpt><trkpt lat="44.9688317" lon="7.7881367"><ele>243.85714285714286</ele><time>2026-04-11T10:52:53.45Z</time></trkpt><trkpt lat="44.9688717" lon="7.7880583"><ele>244.42857142857144</ele><time>2026-04-11T10:52:54.45Z</time></trkpt><trkpt lat="44.968915" lon="7.7879867"><ele>245.0</ele><time>2026-04-11T10:52:55.45Z</time></trkpt><trkpt lat="44.96897" lon="7.7879183"><ele>245.0</ele><time>2026-04-11T10:52:56.45Z</time></trkpt><trkpt lat="44.9690233" lon="7.7878417"><ele>245.0</ele><time>2026-04-11T10:52:57.45Z</time></trkpt><trkpt lat="44.9690783" lon="7.78777"><ele>245.0</ele><time>2026-04-11T10:52:58.45Z</time></trkpt><trkpt lat="44.9691317" lon="7.7876983"><ele>245.0</ele><time>2026-04-11T10:52:59.451Z</time></trkpt><trkpt lat="44.969185" lon="7.787625"><ele>245.0</ele><time>2026-04-11T10:53:00.45Z</time></trkpt><trkpt lat="44.969235" lon="7.7875467"><ele>245.0</ele><time>2026-04-11T10:53:01.45Z</time></trkpt><trkpt lat="44.96928" lon="7.7874717"><ele>245.0</ele><time>2026-04-11T10:53:02.45Z</time></trkpt><trkpt lat="44.9693283" lon="7.7874067"><ele>244.66666666666669</ele><time>2026-04-11T10:53:03.45Z</time></trkpt><trkpt lat="44.9693783" lon="7.7873467"><ele>244.33333333333334</ele><time>2026-04-11T10:53:04.45Z</time></trkpt><trkpt lat="44.9694233" lon="7.7872783"><ele>244.0</ele><time>2026-04-11T10:53:05.45Z</time></trkpt><trkpt lat="44.96947" lon="7.7872117"><ele>243.66666666666669</ele><time>2026-04-11T10:53:06.45Z</time></trkpt><trkpt lat="44.9695567" lon="7.78709"><ele>243.33333333333334</ele><time>2026-04-11T10:53:08.45Z</time></trkpt><trkpt lat="44.969635" lon="7.7869767"><ele>243.0</ele><time>2026-04-11T10:53:10.45Z</time></trkpt><trkpt lat="44.9696917" lon="7.7869117"><ele>243.4</ele><time>2026-04-11T10:53:12.45Z</time></trkpt><trkpt lat="44.9697633" lon="7.786835"><ele>243.8</ele><time>2026-04-11T10:53:20.45Z</time></trkpt><trkpt lat="44.96984" lon="7.7867383"><ele>244.2</ele><time>2026-04-11T10:53:23.45Z</time></trkpt><trkpt lat="44.9699" lon="7.7866533"><ele>244.6</ele><time>2026-04-11T10:53:25.45Z</time></trkpt><trkpt lat="44.9699733" lon="7.7865583"><ele>245.0</ele><time>2026-04-11T10:53:27.45Z</time></trkpt><trkpt lat="44.9700517" lon="7.7864567"><ele>245.0</ele><time>2026-04-11T10:53:29.45Z</time></trkpt><trkpt lat="44.970125" lon="7.7863583"><ele>245.0</ele><time>2026-04-11T10:53:31.45Z</time></trkpt><trkpt lat="44.970195" lon="7.786245"><ele>245.0</ele><time>2026-04-11T10:53:33.45Z</time></trkpt><trkpt lat="44.970265" lon="7.786135"><ele>245.0</ele><time>2026-04-11T10:53:35.45Z</time></trkpt><trkpt lat="44.9703367" lon="7.7860183"><ele>245.0</ele><time>2026-04-11T10:53:37.45Z</time></trkpt><trkpt lat="44.9703983" lon="7.7859017"><ele>245.5</ele><time>2026-04-11T10:53:39.45Z</time></trkpt><trkpt lat="44.97046" lon="7.7857867"><ele>246.0</ele><time>2026-04-11T10:53:41.45Z</time></trkpt><trkpt lat="44.9705467" lon="7.7856917"><ele>246.5</ele><time>2026-04-11T10:53:43.45Z</time></trkpt><trkpt lat="44.9706517" lon="7.785635"><ele>247.0</ele><time>2026-04-11T10:53:45.45Z</time></trkpt><trkpt lat="44.9707733" lon="7.7855783"><ele>247.0</ele><time>2026-04-11T10:53:47.45Z</time></trkpt><trkpt lat="44.9708367" lon="7.7855433"><ele>247.0</ele><time>2026-04-11T10:53:48.45Z</time></trkpt><trkpt lat="44.9709517" lon="7.78546"><ele>247.0</ele><time>2026-04-11T10:53:50.45Z</time></trkpt><trkpt lat="44.971055" lon="7.7853683"><ele>247.0</ele><time>2026-04-11T10:53:52.45Z</time></trkpt><trkpt lat="44.971155" lon="7.785275"><ele>247.0</ele><time>2026-04-11T10:53:54.45Z</time></trkpt><trkpt lat="44.9712467" lon="7.7851717"><ele>246.75</ele><time>2026-04-11T10:53:56.45Z</time></trkpt><trkpt lat="44.9713433" lon="7.785075"><ele>246.5</ele><time>2026-04-11T10:53:58.45Z</time></trkpt><trkpt lat="44.97144" lon="7.784975"><ele>246.25</ele><time>2026-04-11T10:54:00.45Z</time></trkpt><trkpt lat="44.9715417" lon="7.7848683"><ele>246.0</ele><time>2026-04-11T10:54:02.45Z</time></trkpt><trkpt lat="44.971645" lon="7.7847667"><ele>246.60000000000002</ele><time>2026-04-11T10:54:04.45Z</time></trkpt><trkpt lat="44.9717017" lon="7.7847133"><ele>247.20000000000002</ele><time>2026-04-11T10:54:05.45Z</time></trkpt><trkpt lat="44.9717933" lon="7.7845967"><ele>247.79999999999998</ele><time>2026-04-11T10:54:07.45Z</time></trkpt><trkpt lat="44.9718817" lon="7.7844967"><ele>248.39999999999998</ele><time>2026-04-11T10:54:09.45Z</time></trkpt><trkpt lat="44.9719867" lon="7.7843867"><ele>249.0</ele><time>2026-04-11T10:54:11.45Z</time></trkpt><trkpt lat="44.9720383" lon="7.7843317"><ele>249.39999999999998</ele><time>2026-04-11T10:54:12.45Z</time></trkpt><trkpt lat="44.97209" lon="7.7842783"><ele>249.79999999999998</ele><time>2026-04-11T10:54:13.451Z</time></trkpt><trkpt lat="44.9721367" lon="7.784215"><ele>250.20000000000002</ele><time>2026-04-11T10:54:14.45Z</time></trkpt><trkpt lat="44.9722317" lon="7.7841067"><ele>250.60000000000002</ele><time>2026-04-11T10:54:16.45Z</time></trkpt><trkpt lat="44.972325" lon="7.78399"><ele>251.0</ele><time>2026-04-11T10:54:18.45Z</time></trkpt><trkpt lat="44.9724117" lon="7.7838717"><ele>251.0</ele><time>2026-04-11T10:54:20.45Z</time></trkpt><trkpt lat="44.9724583" lon="7.7838083"><ele>251.00000000000003</ele><time>2026-04-11T10:54:21.45Z</time></trkpt><trkpt lat="44.9725433" lon="7.78369"><ele>251.00000000000003</ele><time>2026-04-11T10:54:23.45Z</time></trkpt><trkpt lat="44.9726317" lon="7.7835667"><ele>251.0</ele><time>2026-04-11T10:54:25.45Z</time></trkpt><trkpt lat="44.9726783" lon="7.7835033"><ele>251.0</ele><time>2026-04-11T10:54:26.45Z</time></trkpt><trkpt lat="44.9727567" lon="7.7833883"><ele>251.0</ele><time>2026-04-11T10:54:28.45Z</time></trkpt><trkpt lat="44.9728133" lon="7.7833017"><ele>251.00000000000003</ele><time>2026-04-11T10:54:30.45Z</time></trkpt><trkpt lat="44.9728867" lon="7.7832917"><ele>251.00000000000003</ele><time>2026-04-11T10:54:33.45Z</time></trkpt><trkpt lat="44.9729483" lon="7.7834067"><ele>251.0</ele><time>2026-04-11T10:54:36.45Z</time></trkpt><trkpt lat="44.97301" lon="7.7835267"><ele>251.0</ele><time>2026-04-11T10:54:38.45Z</time></trkpt><trkpt lat="44.9730883" lon="7.7836517"><ele>251.0</ele><time>2026-04-11T10:54:40.45Z</time></trkpt><trkpt lat="44.9732017" lon="7.783705"><ele>251.00000000000003</ele><time>2026-04-11T10:54:42.45Z</time></trkpt><trkpt lat="44.9733217" lon="7.7836833"><ele>251.00000000000003</ele><time>2026-04-11T10:54:44.45Z</time></trkpt><trkpt lat="44.9734417" lon="7.78366"><ele>251.0</ele><time>2026-04-11T10:54:46.45Z</time></trkpt><trkpt lat="44.9735033" lon="7.7836383"><ele>251.0</ele><time>2026-04-11T10:54:47.45Z</time></trkpt><trkpt lat="44.9735683" lon="7.7836083"><ele>251.20000000000002</ele><time>2026-04-11T10:54:48.45Z</time></trkpt><trkpt lat="44.9736333" lon="7.7835817"><ele>251.40000000000003</ele><time>2026-04-11T10:54:49.45Z</time></trkpt><trkpt lat="44.973695" lon="7.7835567"><ele>251.6</ele><time>2026-04-11T10:54:50.45Z</time></trkpt><trkpt lat="44.97381" lon="7.7835067"><ele>251.8</ele><time>2026-04-11T10:54:52.45Z</time></trkpt><trkpt lat="44.97392" lon="7.783465"><ele>252.0</ele><time>2026-04-11T10:54:54.45Z</time></trkpt><trkpt lat="44.974035" lon="7.783415"><ele>252.0</ele><time>2026-04-11T10:54:56.45Z</time></trkpt><trkpt lat="44.974145" lon="7.7833767"><ele>252.0</ele><time>2026-04-11T10:54:58.45Z</time></trkpt><trkpt lat="44.9742317" lon="7.7833517"><ele>252.0</ele><time>2026-04-11T10:55:00.45Z</time></trkpt><trkpt lat="44.97432" lon="7.7833317"><ele>252.0</ele><time>2026-04-11T10:55:02.45Z</time></trkpt><trkpt lat="44.97441" lon="7.7833683"><ele>252.0</ele><time>2026-04-11T10:55:04.45Z</time></trkpt><trkpt lat="44.974505" lon="7.78343"><ele>252.16666666666666</ele><time>2026-04-11T10:55:06.45Z</time></trkpt><trkpt lat="44.974615" lon="7.783495"><ele>252.33333333333331</ele><time>2026-04-11T10:55:08.45Z</time></trkpt><trkpt lat="44.9746767" lon="7.7835183"><ele>252.5</ele><time>2026-04-11T10:55:09.45Z</time></trkpt><trkpt lat="44.9747933" lon="7.7835567"><ele>252.66666666666666</ele><time>2026-04-11T10:55:11.45Z</time></trkpt><trkpt lat="44.97485" lon="7.7835967"><ele>252.83333333333331</ele><time>2026-04-11T10:55:12.45Z</time></trkpt><trkpt lat="44.9749133" lon="7.783625"><ele>253.0</ele><time>2026-04-11T10:55:13.45Z</time></trkpt><trkpt lat="44.9749767" lon="7.78366"><ele>252.66666666666666</ele><time>2026-04-11T10:55:14.45Z</time></trkpt><trkpt lat="44.9750967" lon="7.7837133"><ele>252.33333333333331</ele><time>2026-04-11T10:55:16.45Z</time></trkpt><trkpt lat="44.97516" lon="7.78374"><ele>252.0</ele><time>2026-04-11T10:55:17.45Z</time></trkpt><trkpt lat="44.9752217" lon="7.7837633"><ele>251.66666666666669</ele><time>2026-04-11T10:55:18.45Z</time></trkpt><trkpt lat="44.9752833" lon="7.7837933"><ele>251.33333333333334</ele><time>2026-04-11T10:55:19.45Z</time></trkpt><trkpt lat="44.9753483" lon="7.7838233"><ele>251.0</ele><time>2026-04-11T10:55:20.45Z</time></trkpt><trkpt lat="44.9754133" lon="7.7838583"><ele>250.99999999999997</ele><time>2026-04-11T10:55:21.45Z</time></trkpt><trkpt lat="44.9754733" lon="7.7838867"><ele>251.0</ele><time>2026-04-11T10:55:22.45Z</time></trkpt><trkpt lat="44.975535" lon="7.7839167"><ele>250.99999999999997</ele><time>2026-04-11T10:55:23.45Z</time></trkpt><trkpt lat="44.9756" lon="7.7839383"><ele>250.99999999999997</ele><time>2026-04-11T10:55:24.45Z</time></trkpt><trkpt lat="44.9756683" lon="7.7839517"><ele>251.0</ele><time>2026-04-11T10:55:25.45Z</time></trkpt><trkpt lat="44.9757383" lon="7.78397"><ele>250.99999999999997</ele><time>2026-04-11T10:55:26.45Z</time></trkpt><trkpt lat="44.975805" lon="7.783995"><ele>250.99999999999997</ele><time>2026-04-11T10:55:27.45Z</time></trkpt><trkpt lat="44.9758717" lon="7.7840067"><ele>251.16666666666669</ele><time>2026-04-11T10:55:28.45Z</time></trkpt><trkpt lat="44.9759967" lon="7.7840283"><ele>251.33333333333334</ele><time>2026-04-11T10:55:30.45Z</time></trkpt><trkpt lat="44.9761133" lon="7.7840917"><ele>251.5</ele><time>2026-04-11T10:55:32.45Z</time></trkpt><trkpt lat="44.9761767" lon="7.7841217"><ele>251.66666666666669</ele><time>2026-04-11T10:55:33.45Z</time></trkpt><trkpt lat="44.9762367" lon="7.7841567"><ele>251.83333333333334</ele><time>2026-04-11T10:55:34.45Z</time></trkpt><trkpt lat="44.9763" lon="7.7841817"><ele>252.0</ele><time>2026-04-11T10:55:35.45Z</time></trkpt><trkpt lat="44.9763633" lon="7.7841967"><ele>252.0</ele><time>2026-04-11T10:55:36.45Z</time></trkpt><trkpt lat="44.976485" lon="7.784235"><ele>252.0</ele><time>2026-04-11T10:55:38.45Z</time></trkpt><trkpt lat="44.9766067" lon="7.7842333"><ele>252.0</ele><time>2026-04-11T10:55:40.45Z</time></trkpt><trkpt lat="44.976715" lon="7.7841633"><ele>252.0</ele><time>2026-04-11T10:55:42.45Z</time></trkpt><trkpt lat="44.9768217" lon="7.78407"><ele>252.39999999999998</ele><time>2026-04-11T10:55:44.45Z</time></trkpt><trkpt lat="44.9769433" lon="7.78402"><ele>252.79999999999998</ele><time>2026-04-11T10:55:46.45Z</time></trkpt><trkpt lat="44.9770717" lon="7.7839967"><ele>253.2</ele><time>2026-04-11T10:55:48.45Z</time></trkpt><trkpt lat="44.9771367" lon="7.7839833"><ele>253.6</ele><time>2026-04-11T10:55:49.45Z</time></trkpt><trkpt lat="44.9772" lon="7.783965"><ele>254.0</ele><time>2026-04-11T10:55:50.45Z</time></trkpt><trkpt lat="44.9773183" lon="7.7839567"><ele>254.0</ele><time>2026-04-11T10:55:52.45Z</time></trkpt><trkpt lat="44.9773817" lon="7.7839567"><ele>254.0</ele><time>2026-04-11T10:55:53.45Z</time></trkpt><trkpt lat="44.977445" lon="7.7839533"><ele>254.0</ele><time>2026-04-11T10:55:54.45Z</time></trkpt><trkpt lat="44.9775117" lon="7.7839567"><ele>254.0</ele><time>2026-04-11T10:55:55.45Z</time></trkpt><trkpt lat="44.9775767" lon="7.7839617"><ele>254.0</ele><time>2026-04-11T10:55:56.451Z</time></trkpt><trkpt lat="44.9777017" lon="7.7839667"><ele>254.0</ele><time>2026-04-11T10:55:58.45Z</time></trkpt><trkpt lat="44.977765" lon="7.7839717"><ele>254.0</ele><time>2026-04-11T10:55:59.45Z</time></trkpt><trkpt lat="44.9778817" lon="7.78401"><ele>254.2</ele><time>2026-04-11T10:56:01.45Z</time></trkpt><trkpt lat="44.977955" lon="7.784145"><ele>254.39999999999998</ele><time>2026-04-11T10:56:03.45Z</time></trkpt><trkpt lat="44.9779733" lon="7.7842333"><ele>254.6</ele><time>2026-04-11T10:56:04.45Z</time></trkpt><trkpt lat="44.97799" lon="7.78432"><ele>254.8</ele><time>2026-04-11T10:56:05.45Z</time></trkpt><trkpt lat="44.9780483" lon="7.78446"><ele>255.0</ele><time>2026-04-11T10:56:07.45Z</time></trkpt><trkpt lat="44.9781667" lon="7.784485"><ele>254.8</ele><time>2026-04-11T10:56:09.45Z</time></trkpt><trkpt lat="44.97823" lon="7.7844767"><ele>254.6</ele><time>2026-04-11T10:56:10.45Z</time></trkpt><trkpt lat="44.9782933" lon="7.784465"><ele>254.39999999999998</ele><time>2026-04-11T10:56:11.45Z</time></trkpt><trkpt lat="44.97841" lon="7.7844467"><ele>254.2</ele><time>2026-04-11T10:56:13.45Z</time></trkpt><trkpt lat="44.97853" lon="7.784425"><ele>254.0</ele><time>2026-04-11T10:56:15.45Z</time></trkpt><trkpt lat="44.9786567" lon="7.7843967"><ele>254.0</ele><time>2026-04-11T10:56:17.45Z</time></trkpt><trkpt lat="44.9787233" lon="7.7843917"><ele>254.0</ele><time>2026-04-11T10:56:18.45Z</time></trkpt><trkpt lat="44.9787867" lon="7.7843817"><ele>254.0</ele><time>2026-04-11T10:56:19.45Z</time></trkpt><trkpt lat="44.978855" lon="7.7843717"><ele>254.0</ele><time>2026-04-11T10:56:20.45Z</time></trkpt><trkpt lat="44.9789217" lon="7.7843717"><ele>254.0</ele><time>2026-04-11T10:56:21.45Z</time></trkpt><trkpt lat="44.978985" lon="7.7843633"><ele>254.0</ele><time>2026-04-11T10:56:22.45Z</time></trkpt><trkpt lat="44.979105" lon="7.78436"><ele>254.0</ele><time>2026-04-11T10:56:24.45Z</time></trkpt><trkpt lat="44.97917" lon="7.784345"><ele>254.00000000000003</ele><time>2026-04-11T10:56:25.45Z</time></trkpt><trkpt lat="44.9792683" lon="7.7842667"><ele>254.0</ele><time>2026-04-11T10:56:27.45Z</time></trkpt><trkpt lat="44.9793083" lon="7.7841183"><ele>254.0</ele><time>2026-04-11T10:56:29.45Z</time></trkpt><trkpt lat="44.979315" lon="7.7840283"><ele>254.0</ele><time>2026-04-11T10:56:30.45Z</time></trkpt><trkpt lat="44.9793233" lon="7.7839333"><ele>254.00000000000003</ele><time>2026-04-11T10:56:31.45Z</time></trkpt><trkpt lat="44.9793333" lon="7.7838417"><ele>254.0</ele><time>2026-04-11T10:56:32.45Z</time></trkpt><trkpt lat="44.9793417" lon="7.7837517"><ele>254.0</ele><time>2026-04-11T10:56:33.45Z</time></trkpt><trkpt lat="44.9793517" lon="7.7836583"><ele>253.99999999999997</ele><time>2026-04-11T10:56:34.45Z</time></trkpt><trkpt lat="44.9793583" lon="7.7835667"><ele>253.99999999999997</ele><time>2026-04-11T10:56:35.45Z</time></trkpt><trkpt lat="44.9793833" lon="7.7833883"><ele>254.0</ele><time>2026-04-11T10:56:37.45Z</time></trkpt><trkpt lat="44.979395" lon="7.7832067"><ele>254.0</ele><time>2026-04-11T10:56:39.45Z</time></trkpt><trkpt lat="44.9794117" lon="7.7830367"><ele>254.33333333333334</ele><time>2026-04-11T10:56:41.45Z</time></trkpt><trkpt lat="44.979435" lon="7.7828783"><ele>254.66666666666669</ele><time>2026-04-11T10:56:43.45Z</time></trkpt><trkpt lat="44.9794583" lon="7.78275"><ele>255.0</ele><time>2026-04-11T10:56:45.45Z</time></trkpt><trkpt lat="44.9794717" lon="7.7826517"><ele>255.33333333333331</ele><time>2026-04-11T10:56:47.45Z</time></trkpt><trkpt lat="44.97949" lon="7.7825583"><ele>255.66666666666666</ele><time>2026-04-11T10:56:50.45Z</time></trkpt><trkpt lat="44.9795117" lon="7.78245"><ele>256.0</ele><time>2026-04-11T10:56:53.451Z</time></trkpt><trkpt lat="44.979545" lon="7.7823383"><ele>256.40000000000003</ele><time>2026-04-11T10:56:56.451Z</time></trkpt><trkpt lat="44.97958" lon="7.7822467"><ele>256.8</ele><time>2026-04-11T10:56:58.45Z</time></trkpt><trkpt lat="44.97962" lon="7.7821383"><ele>257.20000000000005</ele><time>2026-04-11T10:57:00.45Z</time></trkpt><trkpt lat="44.979675" lon="7.7820483"><ele>257.6</ele><time>2026-04-11T10:57:02.45Z</time></trkpt><trkpt lat="44.9797717" lon="7.7819967"><ele>258.0</ele><time>2026-04-11T10:57:04.45Z</time></trkpt><trkpt lat="44.979895" lon="7.781975"><ele>258.0</ele><time>2026-04-11T10:57:06.45Z</time></trkpt><trkpt lat="44.9799583" lon="7.7819617"><ele>258.0</ele><time>2026-04-11T10:57:07.45Z</time></trkpt><trkpt lat="44.9800233" lon="7.7819433"><ele>258.0</ele><time>2026-04-11T10:57:08.451Z</time></trkpt><trkpt lat="44.9800867" lon="7.7819333"><ele>258.0</ele><time>2026-04-11T10:57:09.45Z</time></trkpt><trkpt lat="44.9802083" lon="7.78191"><ele>258.0</ele><time>2026-04-11T10:57:11.45Z</time></trkpt><trkpt lat="44.980335" lon="7.7818833"><ele>258.0</ele><time>2026-04-11T10:57:13.45Z</time></trkpt><trkpt lat="44.9804033" lon="7.7818733"><ele>258.0</ele><time>2026-04-11T10:57:14.45Z</time></trkpt><trkpt lat="44.9804733" lon="7.7818617"><ele>258.0</ele><time>2026-04-11T10:57:15.45Z</time></trkpt><trkpt lat="44.9805383" lon="7.78186"><ele>258.0</ele><time>2026-04-11T10:57:16.451Z</time></trkpt><trkpt lat="44.9806033" lon="7.7818583"><ele>258.0</ele><time>2026-04-11T10:57:17.45Z</time></trkpt><trkpt lat="44.9806667" lon="7.7818533"><ele>258.0</ele><time>2026-04-11T10:57:18.45Z</time></trkpt><trkpt lat="44.9807317" lon="7.7818483"><ele>258.0</ele><time>2026-04-11T10:57:19.451Z</time></trkpt><trkpt lat="44.9808617" lon="7.7818283"><ele>258.2857142857143</ele><time>2026-04-11T10:57:21.45Z</time></trkpt><trkpt lat="44.9809283" lon="7.781825"><ele>258.57142857142856</ele><time>2026-04-11T10:57:22.45Z</time></trkpt><trkpt lat="44.980995" lon="7.7818217"><ele>258.8571428571429</ele><time>2026-04-11T10:57:23.45Z</time></trkpt><trkpt lat="44.9810617" lon="7.7818183"><ele>259.1428571428571</ele><time>2026-04-11T10:57:24.45Z</time></trkpt><trkpt lat="44.9811283" lon="7.7818133"><ele>259.42857142857144</ele><time>2026-04-11T10:57:25.45Z</time></trkpt><trkpt lat="44.9812" lon="7.7818033"><ele>259.7142857142857</ele><time>2026-04-11T10:57:26.45Z</time></trkpt><trkpt lat="44.981265" lon="7.7817933"><ele>260.0</ele><time>2026-04-11T10:57:27.45Z</time></trkpt><trkpt lat="44.9813317" lon="7.7817933"><ele>260.0</ele><time>2026-04-11T10:57:28.45Z</time></trkpt><trkpt lat="44.981395" lon="7.781795"><ele>260.0</ele><time>2026-04-11T10:57:29.45Z</time></trkpt><trkpt lat="44.9814583" lon="7.7817917"><ele>260.0</ele><time>2026-04-11T10:57:30.45Z</time></trkpt><trkpt lat="44.9815867" lon="7.7817817"><ele>260.0</ele><time>2026-04-11T10:57:32.45Z</time></trkpt><trkpt lat="44.9816517" lon="7.7817783"><ele>260.0</ele><time>2026-04-11T10:57:33.45Z</time></trkpt><trkpt lat="44.981715" lon="7.7817717"><ele>260.0</ele><time>2026-04-11T10:57:34.45Z</time></trkpt><trkpt lat="44.9817817" lon="7.7817633"><ele>259.83333333333337</ele><time>2026-04-11T10:57:35.45Z</time></trkpt><trkpt lat="44.981845" lon="7.781755"><ele>259.6666666666667</ele><time>2026-04-11T10:57:36.45Z</time></trkpt><trkpt lat="44.98197" lon="7.7817383"><ele>259.5</ele><time>2026-04-11T10:57:38.45Z</time></trkpt><trkpt lat="44.9820333" lon="7.781735"><ele>259.3333333333333</ele><time>2026-04-11T10:57:39.45Z</time></trkpt><trkpt lat="44.98216" lon="7.7817117"><ele>259.16666666666663</ele><time>2026-04-11T10:57:41.45Z</time></trkpt><trkpt lat="44.9822283" lon="7.7817"><ele>259.0</ele><time>2026-04-11T10:57:42.45Z</time></trkpt><trkpt lat="44.9822933" lon="7.781685"><ele>259.0</ele><time>2026-04-11T10:57:43.45Z</time></trkpt><trkpt lat="44.9823617" lon="7.7816633"><ele>259.0</ele><time>2026-04-11T10:57:44.45Z</time></trkpt><trkpt lat="44.98243" lon="7.7816517"><ele>259.0</ele><time>2026-04-11T10:57:45.45Z</time></trkpt><trkpt lat="44.9825" lon="7.7816333"><ele>259.0</ele><time>2026-04-11T10:57:46.45Z</time></trkpt><trkpt lat="44.98257" lon="7.781615"><ele>259.0</ele><time>2026-04-11T10:57:47.45Z</time></trkpt><trkpt lat="44.9826367" lon="7.7815867"><ele>259.0</ele><time>2026-04-11T10:57:48.451Z</time></trkpt><trkpt lat="44.9827017" lon="7.7815567"><ele>259.0</ele><time>2026-04-11T10:57:49.45Z</time></trkpt><trkpt lat="44.9827717" lon="7.7815317"><ele>259.2</ele><time>2026-04-11T10:57:50.451Z</time></trkpt><trkpt lat="44.9828367" lon="7.781505"><ele>259.4</ele><time>2026-04-11T10:57:51.45Z</time></trkpt><trkpt lat="44.9829583" lon="7.781455"><ele>259.6</ele><time>2026-04-11T10:57:53.45Z</time></trkpt><trkpt lat="44.9830783" lon="7.7814067"><ele>259.8</ele><time>2026-04-11T10:57:55.45Z</time></trkpt><trkpt lat="44.983145" lon="7.7813783"><ele>260.0</ele><time>2026-04-11T10:57:56.45Z</time></trkpt><trkpt lat="44.9832083" lon="7.7813467"><ele>260.00000000000006</ele><time>2026-04-11T10:57:57.45Z</time></trkpt><trkpt lat="44.983275" lon="7.7813217"><ele>260.0</ele><time>2026-04-11T10:57:58.45Z</time></trkpt><trkpt lat="44.98334" lon="7.781295"><ele>260.0</ele><time>2026-04-11T10:57:59.45Z</time></trkpt><trkpt lat="44.9834067" lon="7.7812633"><ele>260.0</ele><time>2026-04-11T10:58:00.45Z</time></trkpt><trkpt lat="44.983475" lon="7.7812383"><ele>260.0</ele><time>2026-04-11T10:58:01.45Z</time></trkpt><trkpt lat="44.9835417" lon="7.7812083"><ele>260.00000000000006</ele><time>2026-04-11T10:58:02.45Z</time></trkpt><trkpt lat="44.9836067" lon="7.7811733"><ele>260.0</ele><time>2026-04-11T10:58:03.45Z</time></trkpt><trkpt lat="44.9836717" lon="7.78114"><ele>259.8571428571429</ele><time>2026-04-11T10:58:04.45Z</time></trkpt><trkpt lat="44.983735" lon="7.7811033"><ele>259.7142857142857</ele><time>2026-04-11T10:58:05.45Z</time></trkpt><trkpt lat="44.9838" lon="7.781075"><ele>259.57142857142856</ele><time>2026-04-11T10:58:06.45Z</time></trkpt><trkpt lat="44.9838667" lon="7.781045"><ele>259.42857142857144</ele><time>2026-04-11T10:58:07.45Z</time></trkpt><trkpt lat="44.9839317" lon="7.7810183"><ele>259.2857142857143</ele><time>2026-04-11T10:58:08.45Z</time></trkpt><trkpt lat="44.984" lon="7.7809867"><ele>259.14285714285717</ele><time>2026-04-11T10:58:09.45Z</time></trkpt><trkpt lat="44.98407" lon="7.7809567"><ele>259.0</ele><time>2026-04-11T10:58:10.45Z</time></trkpt><trkpt lat="44.9841417" lon="7.7809317"><ele>259.14285714285717</ele><time>2026-04-11T10:58:11.45Z</time></trkpt><trkpt lat="44.9842117" lon="7.7809017"><ele>259.2857142857143</ele><time>2026-04-11T10:58:12.45Z</time></trkpt><trkpt lat="44.9842783" lon="7.7808683"><ele>259.42857142857144</ele><time>2026-04-11T10:58:13.45Z</time></trkpt><trkpt lat="44.9843467" lon="7.7808367"><ele>259.57142857142856</ele><time>2026-04-11T10:58:14.45Z</time></trkpt><trkpt lat="44.9844167" lon="7.7808083"><ele>259.7142857142857</ele><time>2026-04-11T10:58:15.45Z</time></trkpt><trkpt lat="44.9844883" lon="7.7807733"><ele>259.8571428571429</ele><time>2026-04-11T10:58:16.45Z</time></trkpt><trkpt lat="44.9845583" lon="7.7807367"><ele>260.0</ele><time>2026-04-11T10:58:17.451Z</time></trkpt><trkpt lat="44.9846317" lon="7.7807"><ele>260.00000000000006</ele><time>2026-04-11T10:58:18.45Z</time></trkpt><trkpt lat="44.9847033" lon="7.78066"><ele>260.0</ele><time>2026-04-11T10:58:19.45Z</time></trkpt><trkpt lat="44.984775" lon="7.780625"><ele>260.0</ele><time>2026-04-11T10:58:20.45Z</time></trkpt><trkpt lat="44.984845" lon="7.78059"><ele>260.0</ele><time>2026-04-11T10:58:21.45Z</time></trkpt><trkpt lat="44.9849133" lon="7.78056"><ele>260.0</ele><time>2026-04-11T10:58:22.45Z</time></trkpt><trkpt lat="44.984985" lon="7.7805333"><ele>260.00000000000006</ele><time>2026-04-11T10:58:23.45Z</time></trkpt><trkpt lat="44.98505" lon="7.7805067"><ele>260.0</ele><time>2026-04-11T10:58:24.45Z</time></trkpt><trkpt lat="44.98512" lon="7.780475"><ele>260.00000000000006</ele><time>2026-04-11T10:58:25.45Z</time></trkpt><trkpt lat="44.9851867" lon="7.7804417"><ele>260.0</ele><time>2026-04-11T10:58:26.45Z</time></trkpt><trkpt lat="44.985255" lon="7.7804083"><ele>260.0</ele><time>2026-04-11T10:58:27.45Z</time></trkpt><trkpt lat="44.9853183" lon="7.7803783"><ele>260.0</ele><time>2026-04-11T10:58:28.45Z</time></trkpt><trkpt lat="44.985385" lon="7.7803517"><ele>260.0</ele><time>2026-04-11T10:58:29.45Z</time></trkpt><trkpt lat="44.9854517" lon="7.78032"><ele>260.00000000000006</ele><time>2026-04-11T10:58:30.45Z</time></trkpt><trkpt lat="44.9855167" lon="7.78029"><ele>260.0</ele><time>2026-04-11T10:58:31.45Z</time></trkpt><trkpt lat="44.9855783" lon="7.78026"><ele>260.0</ele><time>2026-04-11T10:58:32.45Z</time></trkpt><trkpt lat="44.9856433" lon="7.7802367"><ele>260.0</ele><time>2026-04-11T10:58:33.45Z</time></trkpt><trkpt lat="44.9857683" lon="7.7801967"><ele>260.0</ele><time>2026-04-11T10:58:35.45Z</time></trkpt><trkpt lat="44.985835" lon="7.78018"><ele>260.0</ele><time>2026-04-11T10:58:36.45Z</time></trkpt><trkpt lat="44.9858983" lon="7.7801633"><ele>260.0</ele><time>2026-04-11T10:58:37.45Z</time></trkpt><trkpt lat="44.9859667" lon="7.7801433"><ele>260.0</ele><time>2026-04-11T10:58:38.45Z</time></trkpt><trkpt lat="44.986035" lon="7.78013"><ele>260.1666666666667</ele><time>2026-04-11T10:58:39.45Z</time></trkpt><trkpt lat="44.9861017" lon="7.78012"><ele>260.33333333333337</ele><time>2026-04-11T10:58:40.45Z</time></trkpt><trkpt lat="44.9861667" lon="7.7801"><ele>260.5</ele><time>2026-04-11T10:58:41.45Z</time></trkpt><trkpt lat="44.9862333" lon="7.7800833"><ele>260.6666666666667</ele><time>2026-04-11T10:58:42.45Z</time></trkpt><trkpt lat="44.9862983" lon="7.78007"><ele>260.8333333333333</ele><time>2026-04-11T10:58:43.45Z</time></trkpt><trkpt lat="44.9863617" lon="7.7800533"><ele>261.0</ele><time>2026-04-11T10:58:44.45Z</time></trkpt><trkpt lat="44.9864817" lon="7.7800233"><ele>261.0</ele><time>2026-04-11T10:58:46.45Z</time></trkpt><trkpt lat="44.98659" lon="7.7799967"><ele>261.0</ele><time>2026-04-11T10:58:48.45Z</time></trkpt><trkpt lat="44.9866867" lon="7.77996"><ele>261.0</ele><time>2026-04-11T10:58:50.45Z</time></trkpt><trkpt lat="44.9867683" lon="7.7799333"><ele>261.0</ele><time>2026-04-11T10:58:52.45Z</time></trkpt><trkpt lat="44.9868333" lon="7.7800017"><ele>261.0</ele><time>2026-04-11T10:58:55.45Z</time></trkpt><trkpt lat="44.9868667" lon="7.7801217"><ele>261.0</ele><time>2026-04-11T10:58:57.45Z</time></trkpt><trkpt lat="44.98694" lon="7.7802167"><ele>261.0</ele><time>2026-04-11T10:58:59.45Z</time></trkpt><trkpt lat="44.9870317" lon="7.7802967"><ele>261.0</ele><time>2026-04-11T10:59:01.45Z</time></trkpt><trkpt lat="44.9871267" lon="7.780375"><ele>261.0</ele><time>2026-04-11T10:59:03.45Z</time></trkpt><trkpt lat="44.9872283" lon="7.7804717"><ele>261.0</ele><time>2026-04-11T10:59:05.45Z</time></trkpt><trkpt lat="44.9873333" lon="7.780565"><ele>261.0</ele><time>2026-04-11T10:59:07.45Z</time></trkpt><trkpt lat="44.9873867" lon="7.7806167"><ele>261.0</ele><time>2026-04-11T10:59:08.45Z</time></trkpt><trkpt lat="44.9874417" lon="7.7806667"><ele>261.0</ele><time>2026-04-11T10:59:09.45Z</time></trkpt><trkpt lat="44.9874983" lon="7.7807067"><ele>261.0</ele><time>2026-04-11T10:59:10.45Z</time></trkpt><trkpt lat="44.987605" lon="7.780795"><ele>261.0</ele><time>2026-04-11T10:59:12.45Z</time></trkpt><trkpt lat="44.98766" lon="7.7808483"><ele>261.0</ele><time>2026-04-11T10:59:13.45Z</time></trkpt><trkpt lat="44.987715" lon="7.7808917"><ele>261.0</ele><time>2026-04-11T10:59:14.45Z</time></trkpt><trkpt lat="44.9878217" lon="7.7809883"><ele>261.8333333333333</ele><time>2026-04-11T10:59:16.45Z</time></trkpt><trkpt lat="44.987875" lon="7.78104"><ele>262.6666666666667</ele><time>2026-04-11T10:59:17.45Z</time></trkpt><trkpt lat="44.98793" lon="7.78109"><ele>263.5</ele><time>2026-04-11T10:59:18.45Z</time></trkpt><trkpt lat="44.9879817" lon="7.781145"><ele>264.33333333333337</ele><time>2026-04-11T10:59:19.45Z</time></trkpt><trkpt lat="44.988085" lon="7.7812333"><ele>265.1666666666667</ele><time>2026-04-11T10:59:21.451Z</time></trkpt><trkpt lat="44.98814" lon="7.7812867"><ele>266.0</ele><time>2026-04-11T10:59:22.45Z</time></trkpt><trkpt lat="44.9882417" lon="7.7813767"><ele>266.0</ele><time>2026-04-11T10:59:24.45Z</time></trkpt><trkpt lat="44.988345" lon="7.7814633"><ele>266.0</ele><time>2026-04-11T10:59:26.45Z</time></trkpt><trkpt lat="44.9884017" lon="7.7815083"><ele>266.0</ele><time>2026-04-11T10:59:27.45Z</time></trkpt><trkpt lat="44.9885067" lon="7.7815933"><ele>266.0</ele><time>2026-04-11T10:59:29.45Z</time></trkpt><trkpt lat="44.9886167" lon="7.7816583"><ele>266.0</ele><time>2026-04-11T10:59:31.45Z</time></trkpt><trkpt lat="44.9887267" lon="7.781725"><ele>266.0</ele><time>2026-04-11T10:59:33.45Z</time></trkpt><trkpt lat="44.9888383" lon="7.78177"><ele>266.0</ele><time>2026-04-11T10:59:35.45Z</time></trkpt><trkpt lat="44.98895" lon="7.781815"><ele>266.0</ele><time>2026-04-11T10:59:37.45Z</time></trkpt><trkpt lat="44.9890483" lon="7.781845"><ele>266.0</ele><time>2026-04-11T10:59:39.45Z</time></trkpt><trkpt lat="44.98915" lon="7.7818817"><ele>266.0</ele><time>2026-04-11T10:59:41.45Z</time></trkpt><trkpt lat="44.9892667" lon="7.7819217"><ele>267.2</ele><time>2026-04-11T10:59:43.451Z</time></trkpt><trkpt lat="44.989375" lon="7.7819517"><ele>268.40000000000003</ele><time>2026-04-11T10:59:45.45Z</time></trkpt><trkpt lat="44.989485" lon="7.7819683"><ele>269.6</ele><time>2026-04-11T10:59:47.45Z</time></trkpt><trkpt lat="44.9895867" lon="7.7819917"><ele>270.8</ele><time>2026-04-11T10:59:49.45Z</time></trkpt><trkpt lat="44.9896917" lon="7.7820083"><ele>272.0</ele><time>2026-04-11T10:59:51.45Z</time></trkpt><trkpt lat="44.9897983" lon="7.7820167"><ele>272.0</ele><time>2026-04-11T10:59:53.45Z</time></trkpt><trkpt lat="44.9898933" lon="7.7820333"><ele>272.0</ele><time>2026-04-11T10:59:55.45Z</time></trkpt><trkpt lat="44.9899883" lon="7.782025"><ele>272.0</ele><time>2026-04-11T10:59:57.45Z</time></trkpt><trkpt lat="44.9900917" lon="7.78201"><ele>272.0</ele><time>2026-04-11T10:59:59.45Z</time></trkpt><trkpt lat="44.9901967" lon="7.7819883"><ele>272.0</ele><time>2026-04-11T11:00:01.45Z</time></trkpt><trkpt lat="44.9902967" lon="7.7819817"><ele>271.4</ele><time>2026-04-11T11:00:03.45Z</time></trkpt><trkpt lat="44.9904" lon="7.7819617"><ele>270.79999999999995</ele><time>2026-04-11T11:00:05.451Z</time></trkpt><trkpt lat="44.9905017" lon="7.781945"><ele>270.2</ele><time>2026-04-11T11:00:07.451Z</time></trkpt><trkpt lat="44.990585" lon="7.7819783"><ele>269.59999999999997</ele><time>2026-04-11T11:00:09.45Z</time></trkpt><trkpt lat="44.9906067" lon="7.782105"><ele>269.0</ele><time>2026-04-11T11:00:11.45Z</time></trkpt><trkpt lat="44.9906483" lon="7.7822567"><ele>269.0</ele><time>2026-04-11T11:00:13.45Z</time></trkpt><trkpt lat="44.9907567" lon="7.7823517"><ele>269.0</ele><time>2026-04-11T11:00:15.45Z</time></trkpt><trkpt lat="44.9908233" lon="7.78238"><ele>269.0</ele><time>2026-04-11T11:00:16.45Z</time></trkpt><trkpt lat="44.9908933" lon="7.7823933"><ele>269.0</ele><time>2026-04-11T11:00:17.45Z</time></trkpt><trkpt lat="44.9909617" lon="7.7824017"><ele>269.0</ele><time>2026-04-11T11:00:18.45Z</time></trkpt><trkpt lat="44.99103" lon="7.7824"><ele>269.0</ele><time>2026-04-11T11:00:19.45Z</time></trkpt><trkpt lat="44.9911083" lon="7.7824"><ele>268.8571428571429</ele><time>2026-04-11T11:00:20.45Z</time></trkpt><trkpt lat="44.99119" lon="7.782395"><ele>268.7142857142857</ele><time>2026-04-11T11:00:21.45Z</time></trkpt><trkpt lat="44.9912667" lon="7.7823817"><ele>268.57142857142856</ele><time>2026-04-11T11:00:22.45Z</time></trkpt><trkpt lat="44.9913367" lon="7.7823667"><ele>268.42857142857144</ele><time>2026-04-11T11:00:23.45Z</time></trkpt><trkpt lat="44.991405" lon="7.782345"><ele>268.2857142857143</ele><time>2026-04-11T11:00:24.45Z</time></trkpt><trkpt lat="44.991475" lon="7.7823267"><ele>268.14285714285717</ele><time>2026-04-11T11:00:25.45Z</time></trkpt><trkpt lat="44.9915433" lon="7.7823133"><ele>268.0</ele><time>2026-04-11T11:00:26.45Z</time></trkpt><trkpt lat="44.9916083" lon="7.7822917"><ele>267.8333333333333</ele><time>2026-04-11T11:00:27.45Z</time></trkpt><trkpt lat="44.9916767" lon="7.7822783"><ele>267.66666666666663</ele><time>2026-04-11T11:00:28.45Z</time></trkpt><trkpt lat="44.9918017" lon="7.7822517"><ele>267.5</ele><time>2026-04-11T11:00:30.45Z</time></trkpt><trkpt lat="44.9918633" lon="7.7822333"><ele>267.3333333333333</ele><time>2026-04-11T11:00:31.45Z</time></trkpt><trkpt lat="44.9919283" lon="7.7822117"><ele>267.1666666666667</ele><time>2026-04-11T11:00:32.45Z</time></trkpt><trkpt lat="44.99199" lon="7.7821917"><ele>267.0</ele><time>2026-04-11T11:00:33.45Z</time></trkpt><trkpt lat="44.992055" lon="7.782175"><ele>267.00000000000006</ele><time>2026-04-11T11:00:34.451Z</time></trkpt><trkpt lat="44.99212" lon="7.782155"><ele>267.0</ele><time>2026-04-11T11:00:35.45Z</time></trkpt><trkpt lat="44.9921867" lon="7.7821367"><ele>267.0</ele><time>2026-04-11T11:00:36.45Z</time></trkpt><trkpt lat="44.9922533" lon="7.78211"><ele>267.0</ele><time>2026-04-11T11:00:37.45Z</time></trkpt><trkpt lat="44.9923233" lon="7.7820883"><ele>267.0</ele><time>2026-04-11T11:00:38.451Z</time></trkpt><trkpt lat="44.992395" lon="7.78207"><ele>267.00000000000006</ele><time>2026-04-11T11:00:39.45Z</time></trkpt><trkpt lat="44.992465" lon="7.7820583"><ele>267.0</ele><time>2026-04-11T11:00:40.45Z</time></trkpt><trkpt lat="44.9925367" lon="7.7820483"><ele>267.1666666666667</ele><time>2026-04-11T11:00:41.451Z</time></trkpt><trkpt lat="44.9926133" lon="7.7820317"><ele>267.3333333333333</ele><time>2026-04-11T11:00:42.45Z</time></trkpt><trkpt lat="44.99269" lon="7.78201"><ele>267.5</ele><time>2026-04-11T11:00:43.45Z</time></trkpt><trkpt lat="44.992765" lon="7.7819933"><ele>267.66666666666663</ele><time>2026-04-11T11:00:44.45Z</time></trkpt><trkpt lat="44.9928433" lon="7.78198"><ele>267.8333333333333</ele><time>2026-04-11T11:00:45.45Z</time></trkpt><trkpt lat="44.9929283" lon="7.781965"><ele>268.0</ele><time>2026-04-11T11:00:46.45Z</time></trkpt><trkpt lat="44.9930083" lon="7.7819433"><ele>268.0</ele><time>2026-04-11T11:00:47.45Z</time></trkpt><trkpt lat="44.9930883" lon="7.7819233"><ele>268.0</ele><time>2026-04-11T11:00:48.45Z</time></trkpt><trkpt lat="44.9931667" lon="7.7819133"><ele>268.0</ele><time>2026-04-11T11:00:49.45Z</time></trkpt><trkpt lat="44.9932417" lon="7.7819067"><ele>268.0</ele><time>2026-04-11T11:00:50.45Z</time></trkpt><trkpt lat="44.9933167" lon="7.7819"><ele>268.0</ele><time>2026-04-11T11:00:51.45Z</time></trkpt><trkpt lat="44.993385" lon="7.781895"><ele>268.0</ele><time>2026-04-11T11:00:52.45Z</time></trkpt><trkpt lat="44.9934567" lon="7.7818883"><ele>268.0</ele><time>2026-04-11T11:00:53.45Z</time></trkpt><trkpt lat="44.99353" lon="7.78189"><ele>268.0</ele><time>2026-04-11T11:00:54.451Z</time></trkpt><trkpt lat="44.9935983" lon="7.7818883"><ele>268.0</ele><time>2026-04-11T11:00:55.45Z</time></trkpt><trkpt lat="44.993705" lon="7.781915"><ele>268.0</ele><time>2026-04-11T11:00:57.45Z</time></trkpt><trkpt lat="44.9937783" lon="7.7819667"><ele>268.0</ele><time>2026-04-11T11:00:59.45Z</time></trkpt><trkpt lat="44.99384" lon="7.7820267"><ele>268.0</ele><time>2026-04-11T11:01:02.45Z</time></trkpt><trkpt lat="44.9939167" lon="7.782105"><ele>268.0</ele><time>2026-04-11T11:01:05.45Z</time></trkpt><trkpt lat="44.9939883" lon="7.7821067"><ele>268.0</ele><time>2026-04-11T11:01:07.45Z</time></trkpt><trkpt lat="44.9940317" lon="7.7820017"><ele>268.0</ele><time>2026-04-11T11:01:09.45Z</time></trkpt><trkpt lat="44.994025" lon="7.7818767"><ele>268.0</ele><time>2026-04-11T11:01:11.45Z</time></trkpt><trkpt lat="44.9940133" lon="7.7817733"><ele>268.0</ele><time>2026-04-11T11:01:13.45Z</time></trkpt><trkpt lat="44.9939683" lon="7.78166"><ele>268.0</ele><time>2026-04-11T11:01:15.45Z</time></trkpt><trkpt lat="44.99394" lon="7.7815333"><ele>268.5</ele><time>2026-04-11T11:01:17.45Z</time></trkpt><trkpt lat="44.9939183" lon="7.7814083"><ele>269.0</ele><time>2026-04-11T11:01:19.45Z</time></trkpt><trkpt lat="44.9939133" lon="7.7812967"><ele>269.5</ele><time>2026-04-11T11:01:21.45Z</time></trkpt><trkpt lat="44.9939033" lon="7.78116"><ele>270.0</ele><time>2026-04-11T11:01:23.45Z</time></trkpt><trkpt lat="44.9938817" lon="7.781045"><ele>270.5</ele><time>2026-04-11T11:01:25.45Z</time></trkpt><trkpt lat="44.9938567" lon="7.78093"><ele>271.0</ele><time>2026-04-11T11:01:27.45Z</time></trkpt><trkpt lat="44.9938383" lon="7.780825"><ele>271.0</ele><time>2026-04-11T11:01:29.45Z</time></trkpt><trkpt lat="44.9938117" lon="7.7807183"><ele>271.0</ele><time>2026-04-11T11:01:31.45Z</time></trkpt><trkpt lat="44.9937717" lon="7.780615"><ele>271.0</ele><time>2026-04-11T11:01:33.45Z</time></trkpt><trkpt lat="44.9937367" lon="7.7805167"><ele>271.0</ele><time>2026-04-11T11:01:35.45Z</time></trkpt><trkpt lat="44.9937167" lon="7.780405"><ele>271.0</ele><time>2026-04-11T11:01:37.45Z</time></trkpt><trkpt lat="44.9936967" lon="7.78029"><ele>271.0</ele><time>2026-04-11T11:01:39.451Z</time></trkpt><trkpt lat="44.9936783" lon="7.78017"><ele>271.66666666666663</ele><time>2026-04-11T11:01:41.45Z</time></trkpt><trkpt lat="44.9936567" lon="7.7800617"><ele>272.3333333333333</ele><time>2026-04-11T11:01:43.45Z</time></trkpt><trkpt lat="44.99364" lon="7.7799433"><ele>273.0</ele><time>2026-04-11T11:01:45.45Z</time></trkpt><trkpt lat="44.99362" lon="7.77982"><ele>273.6666666666667</ele><time>2026-04-11T11:01:47.45Z</time></trkpt><trkpt lat="44.9936" lon="7.7796983"><ele>274.33333333333337</ele><time>2026-04-11T11:01:49.45Z</time></trkpt><trkpt lat="44.9935783" lon="7.7795733"><ele>275.0</ele><time>2026-04-11T11:01:51.45Z</time></trkpt><trkpt lat="44.9935667" lon="7.7794567"><ele>276.4</ele><time>2026-04-11T11:01:53.45Z</time></trkpt><trkpt lat="44.99355" lon="7.7793333"><ele>277.8</ele><time>2026-04-11T11:01:55.45Z</time></trkpt><trkpt lat="44.9935383" lon="7.7791983"><ele>279.2</ele><time>2026-04-11T11:01:57.45Z</time></trkpt><trkpt lat="44.993515" lon="7.77907"><ele>280.6</ele><time>2026-04-11T11:01:59.45Z</time></trkpt><trkpt lat="44.993495" lon="7.7789333"><ele>282.0</ele><time>2026-04-11T11:02:01.45Z</time></trkpt><trkpt lat="44.9934683" lon="7.7788033"><ele>282.0</ele><time>2026-04-11T11:02:03.45Z</time></trkpt><trkpt lat="44.9934533" lon="7.7786583"><ele>282.0</ele><time>2026-04-11T11:02:05.45Z</time></trkpt><trkpt lat="44.9934267" lon="7.7785217"><ele>282.0</ele><time>2026-04-11T11:02:07.45Z</time></trkpt><trkpt lat="44.9933983" lon="7.77837"><ele>282.0</ele><time>2026-04-11T11:02:09.45Z</time></trkpt><trkpt lat="44.9933683" lon="7.7782067"><ele>282.0</ele><time>2026-04-11T11:02:11.449Z</time></trkpt><trkpt lat="44.993335" lon="7.778035"><ele>281.2</ele><time>2026-04-11T11:02:13.449Z</time></trkpt><trkpt lat="44.9933017" lon="7.7778683"><ele>280.4</ele><time>2026-04-11T11:02:15.449Z</time></trkpt><trkpt lat="44.9932683" lon="7.7777"><ele>279.6</ele><time>2026-04-11T11:02:17.449Z</time></trkpt><trkpt lat="44.9932467" lon="7.77761"><ele>278.8</ele><time>2026-04-11T11:02:18.449Z</time></trkpt><trkpt lat="44.99323" lon="7.777515"><ele>278.0</ele><time>2026-04-11T11:02:19.449Z</time></trkpt><trkpt lat="44.993215" lon="7.7774217"><ele>278.0</ele><time>2026-04-11T11:02:20.449Z</time></trkpt><trkpt lat="44.9932017" lon="7.77733"><ele>278.0</ele><time>2026-04-11T11:02:21.449Z</time></trkpt><trkpt lat="44.993185" lon="7.7772367"><ele>278.0</ele><time>2026-04-11T11:02:22.449Z</time></trkpt><trkpt lat="44.9931683" lon="7.7771417"><ele>278.0</ele><time>2026-04-11T11:02:23.449Z</time></trkpt><trkpt lat="44.99315" lon="7.7770483"><ele>278.0</ele><time>2026-04-11T11:02:24.449Z</time></trkpt><trkpt lat="44.99313" lon="7.7769483"><ele>278.0</ele><time>2026-04-11T11:02:25.449Z</time></trkpt><trkpt lat="44.99311" lon="7.7768533"><ele>278.0</ele><time>2026-04-11T11:02:26.449Z</time></trkpt><trkpt lat="44.9930833" lon="7.7767617"><ele>277.83333333333337</ele><time>2026-04-11T11:02:27.449Z</time></trkpt><trkpt lat="44.9930467" lon="7.77659"><ele>277.6666666666667</ele><time>2026-04-11T11:02:29.449Z</time></trkpt><trkpt lat="44.99303" lon="7.7764967"><ele>277.5</ele><time>2026-04-11T11:02:30.449Z</time></trkpt><trkpt lat="44.9930117" lon="7.7764067"><ele>277.3333333333333</ele><time>2026-04-11T11:02:31.449Z</time></trkpt><trkpt lat="44.9929967" lon="7.7763183"><ele>277.16666666666663</ele><time>2026-04-11T11:02:32.449Z</time></trkpt><trkpt lat="44.9929783" lon="7.7762317"><ele>277.0</ele><time>2026-04-11T11:02:33.449Z</time></trkpt><trkpt lat="44.9929583" lon="7.7761467"><ele>277.0</ele><time>2026-04-11T11:02:34.449Z</time></trkpt><trkpt lat="44.99294" lon="7.7760533"><ele>277.0</ele><time>2026-04-11T11:02:35.449Z</time></trkpt><trkpt lat="44.9929067" lon="7.77588"><ele>277.0</ele><time>2026-04-11T11:02:37.449Z</time></trkpt><trkpt lat="44.9928967" lon="7.7757783"><ele>277.0</ele><time>2026-04-11T11:02:38.45Z</time></trkpt><trkpt lat="44.99288" lon="7.775685"><ele>277.0</ele><time>2026-04-11T11:02:39.449Z</time></trkpt><trkpt lat="44.9928683" lon="7.7755933"><ele>277.0</ele><time>2026-04-11T11:02:40.449Z</time></trkpt><trkpt lat="44.99285" lon="7.7755"><ele>276.66666666666663</ele><time>2026-04-11T11:02:41.449Z</time></trkpt><trkpt lat="44.9928367" lon="7.77541"><ele>276.3333333333333</ele><time>2026-04-11T11:02:42.449Z</time></trkpt><trkpt lat="44.9928083" lon="7.7752283"><ele>276.0</ele><time>2026-04-11T11:02:44.449Z</time></trkpt><trkpt lat="44.9927867" lon="7.7751367"><ele>275.6666666666667</ele><time>2026-04-11T11:02:45.449Z</time></trkpt><trkpt lat="44.992765" lon="7.7750417"><ele>275.33333333333337</ele><time>2026-04-11T11:02:46.449Z</time></trkpt><trkpt lat="44.9927467" lon="7.77495"><ele>275.0</ele><time>2026-04-11T11:02:47.449Z</time></trkpt><trkpt lat="44.9927133" lon="7.7748"><ele>274.83333333333337</ele><time>2026-04-11T11:02:49.449Z</time></trkpt><trkpt lat="44.9926967" lon="7.7747067"><ele>274.6666666666667</ele><time>2026-04-11T11:02:51.449Z</time></trkpt><trkpt lat="44.9927067" lon="7.7746183"><ele>274.5</ele><time>2026-04-11T11:02:54.449Z</time></trkpt><trkpt lat="44.992765" lon="7.7745817"><ele>274.3333333333333</ele><time>2026-04-11T11:02:56.45Z</time></trkpt><trkpt lat="44.9928533" lon="7.7745517"><ele>274.16666666666663</ele><time>2026-04-11T11:02:58.449Z</time></trkpt><trkpt lat="44.99296" lon="7.77451"><ele>274.0</ele><time>2026-04-11T11:03:00.449Z</time></trkpt><trkpt lat="44.9930217" lon="7.7744817"><ele>274.00000000000006</ele><time>2026-04-11T11:03:01.449Z</time></trkpt><trkpt lat="44.993085" lon="7.77445"><ele>274.0</ele><time>2026-04-11T11:03:02.449Z</time></trkpt><trkpt lat="44.9931483" lon="7.7744183"><ele>274.0</ele><time>2026-04-11T11:03:03.449Z</time></trkpt><trkpt lat="44.9932133" lon="7.7743883"><ele>274.0</ele><time>2026-04-11T11:03:04.449Z</time></trkpt><trkpt lat="44.993275" lon="7.774355"><ele>274.0</ele><time>2026-04-11T11:03:05.449Z</time></trkpt><trkpt lat="44.9933417" lon="7.7743183"><ele>274.00000000000006</ele><time>2026-04-11T11:03:06.449Z</time></trkpt><trkpt lat="44.9934067" lon="7.7742833"><ele>274.0</ele><time>2026-04-11T11:03:07.449Z</time></trkpt><trkpt lat="44.9934717" lon="7.77425"><ele>273.16666666666663</ele><time>2026-04-11T11:03:08.449Z</time></trkpt><trkpt lat="44.99354" lon="7.77421"><ele>272.3333333333333</ele><time>2026-04-11T11:03:09.449Z</time></trkpt><trkpt lat="44.9936067" lon="7.7741633"><ele>271.5</ele><time>2026-04-11T11:03:10.449Z</time></trkpt><trkpt lat="44.9936683" lon="7.7741283"><ele>270.6666666666667</ele><time>2026-04-11T11:03:11.449Z</time></trkpt><trkpt lat="44.99373" lon="7.7740917"><ele>269.83333333333337</ele><time>2026-04-11T11:03:12.449Z</time></trkpt><trkpt lat="44.9937917" lon="7.7740567"><ele>269.0</ele><time>2026-04-11T11:03:13.449Z</time></trkpt><trkpt lat="44.9939083" lon="7.7739817"><ele>269.0</ele><time>2026-04-11T11:03:15.449Z</time></trkpt><trkpt lat="44.9939633" lon="7.7738417"><ele>269.0</ele><time>2026-04-11T11:03:17.449Z</time></trkpt><trkpt lat="44.9939567" lon="7.77375"><ele>269.0</ele><time>2026-04-11T11:03:18.449Z</time></trkpt><trkpt lat="44.993945" lon="7.7736483"><ele>269.0</ele><time>2026-04-11T11:03:19.449Z</time></trkpt><trkpt lat="44.993935" lon="7.773545"><ele>269.0</ele><time>2026-04-11T11:03:20.449Z</time></trkpt><trkpt lat="44.9939233" lon="7.7734383"><ele>269.0</ele><time>2026-04-11T11:03:21.449Z</time></trkpt><trkpt lat="44.99391" lon="7.773325"><ele>268.83333333333337</ele><time>2026-04-11T11:03:22.449Z</time></trkpt><trkpt lat="44.9939017" lon="7.77322"><ele>268.6666666666667</ele><time>2026-04-11T11:03:23.449Z</time></trkpt><trkpt lat="44.9938933" lon="7.77311"><ele>268.5</ele><time>2026-04-11T11:03:24.449Z</time></trkpt><trkpt lat="44.9938867" lon="7.7729983"><ele>268.3333333333333</ele><time>2026-04-11T11:03:25.449Z</time></trkpt><trkpt lat="44.9938783" lon="7.77289"><ele>268.16666666666663</ele><time>2026-04-11T11:03:26.449Z</time></trkpt><trkpt lat="44.9938667" lon="7.772775"><ele>268.0</ele><time>2026-04-11T11:03:27.449Z</time></trkpt><trkpt lat="44.9938617" lon="7.7726583"><ele>267.66666666666663</ele><time>2026-04-11T11:03:28.449Z</time></trkpt><trkpt lat="44.9938517" lon="7.7725483"><ele>267.3333333333333</ele><time>2026-04-11T11:03:29.449Z</time></trkpt><trkpt lat="44.9938417" lon="7.7724333"><ele>267.0</ele><time>2026-04-11T11:03:30.449Z</time></trkpt><trkpt lat="44.993825" lon="7.7723183"><ele>266.6666666666667</ele><time>2026-04-11T11:03:31.449Z</time></trkpt><trkpt lat="44.99381" lon="7.7722"><ele>266.33333333333337</ele><time>2026-04-11T11:03:32.449Z</time></trkpt><trkpt lat="44.9937983" lon="7.77208"><ele>266.0</ele><time>2026-04-11T11:03:33.449Z</time></trkpt><trkpt lat="44.9937883" lon="7.771965"><ele>266.33333333333337</ele><time>2026-04-11T11:03:34.449Z</time></trkpt><trkpt lat="44.9937767" lon="7.7718533"><ele>266.6666666666667</ele><time>2026-04-11T11:03:35.449Z</time></trkpt><trkpt lat="44.99377" lon="7.7717367"><ele>267.0</ele><time>2026-04-11T11:03:36.449Z</time></trkpt><trkpt lat="44.9937617" lon="7.771625"><ele>267.3333333333333</ele><time>2026-04-11T11:03:37.449Z</time></trkpt><trkpt lat="44.993745" lon="7.7715133"><ele>267.66666666666663</ele><time>2026-04-11T11:03:38.449Z</time></trkpt><trkpt lat="44.9937367" lon="7.7714067"><ele>268.0</ele><time>2026-04-11T11:03:39.449Z</time></trkpt><trkpt lat="44.9937283" lon="7.771305"><ele>268.0</ele><time>2026-04-11T11:03:40.449Z</time></trkpt><trkpt lat="44.9937217" lon="7.7712017"><ele>268.0</ele><time>2026-04-11T11:03:41.449Z</time></trkpt><trkpt lat="44.9937117" lon="7.7711067"><ele>268.0</ele><time>2026-04-11T11:03:42.449Z</time></trkpt><trkpt lat="44.993705" lon="7.771015"><ele>268.0</ele><time>2026-04-11T11:03:43.449Z</time></trkpt><trkpt lat="44.993695" lon="7.7709233"><ele>268.0</ele><time>2026-04-11T11:03:44.449Z</time></trkpt><trkpt lat="44.9936633" lon="7.7707783"><ele>268.0</ele><time>2026-04-11T11:03:46.449Z</time></trkpt><trkpt lat="44.9935683" lon="7.7706917"><ele>268.0</ele><time>2026-04-11T11:03:48.449Z</time></trkpt><trkpt lat="44.993445" lon="7.7706483"><ele>268.0</ele><time>2026-04-11T11:03:50.449Z</time></trkpt><trkpt lat="44.9933817" lon="7.7706183"><ele>268.0</ele><time>2026-04-11T11:03:51.449Z</time></trkpt><trkpt lat="44.9932733" lon="7.7705417"><ele>268.0</ele><time>2026-04-11T11:03:53.449Z</time></trkpt><trkpt lat="44.993165" lon="7.770465"><ele>268.0</ele><time>2026-04-11T11:03:55.449Z</time></trkpt><trkpt lat="44.9930783" lon="7.7703633"><ele>268.0</ele><time>2026-04-11T11:03:57.449Z</time></trkpt><trkpt lat="44.9930333" lon="7.7702217"><ele>268.0</ele><time>2026-04-11T11:03:59.449Z</time></trkpt><trkpt lat="44.9930233" lon="7.7701267"><ele>268.0</ele><time>2026-04-11T11:04:00.449Z</time></trkpt><trkpt lat="44.9930117" lon="7.7700333"><ele>268.0</ele><time>2026-04-11T11:04:01.449Z</time></trkpt><trkpt lat="44.9929967" lon="7.7699467"><ele>268.0</ele><time>2026-04-11T11:04:02.449Z</time></trkpt><trkpt lat="44.9929867" lon="7.7698533"><ele>268.0</ele><time>2026-04-11T11:04:03.449Z</time></trkpt><trkpt lat="44.9929783" lon="7.769765"><ele>268.0</ele><time>2026-04-11T11:04:04.449Z</time></trkpt><trkpt lat="44.99297" lon="7.7696717"><ele>268.5</ele><time>2026-04-11T11:04:05.449Z</time></trkpt><trkpt lat="44.992965" lon="7.7695783"><ele>269.0</ele><time>2026-04-11T11:04:06.449Z</time></trkpt><trkpt lat="44.9929567" lon="7.769485"><ele>269.5</ele><time>2026-04-11T11:04:07.449Z</time></trkpt><trkpt lat="44.9929467" lon="7.76939"><ele>270.0</ele><time>2026-04-11T11:04:08.449Z</time></trkpt><trkpt lat="44.9929433" lon="7.7692117"><ele>270.5</ele><time>2026-04-11T11:04:10.449Z</time></trkpt><trkpt lat="44.9929667" lon="7.7691167"><ele>271.0</ele><time>2026-04-11T11:04:11.449Z</time></trkpt><trkpt lat="44.99299" lon="7.76903"><ele>271.1428571428571</ele><time>2026-04-11T11:04:12.449Z</time></trkpt><trkpt lat="44.9930167" lon="7.7689367"><ele>271.2857142857143</ele><time>2026-04-11T11:04:13.449Z</time></trkpt><trkpt lat="44.99304" lon="7.7688433"><ele>271.42857142857144</ele><time>2026-04-11T11:04:14.449Z</time></trkpt><trkpt lat="44.99306" lon="7.7687533"><ele>271.57142857142856</ele><time>2026-04-11T11:04:15.449Z</time></trkpt><trkpt lat="44.9930733" lon="7.76866"><ele>271.7142857142857</ele><time>2026-04-11T11:04:16.449Z</time></trkpt><trkpt lat="44.9930817" lon="7.7685633"><ele>271.85714285714283</ele><time>2026-04-11T11:04:17.449Z</time></trkpt><trkpt lat="44.9930967" lon="7.7684617"><ele>272.0</ele><time>2026-04-11T11:04:18.449Z</time></trkpt><trkpt lat="44.993115" lon="7.7683667"><ele>271.71428571428567</ele><time>2026-04-11T11:04:19.449Z</time></trkpt><trkpt lat="44.9931333" lon="7.7682683"><ele>271.42857142857144</ele><time>2026-04-11T11:04:20.449Z</time></trkpt><trkpt lat="44.9931417" lon="7.7681717"><ele>271.1428571428571</ele><time>2026-04-11T11:04:21.449Z</time></trkpt><trkpt lat="44.9931517" lon="7.76807"><ele>270.85714285714283</ele><time>2026-04-11T11:04:22.449Z</time></trkpt><trkpt lat="44.993165" lon="7.76797"><ele>270.57142857142856</ele><time>2026-04-11T11:04:23.449Z</time></trkpt><trkpt lat="44.9931767" lon="7.767865"><ele>270.2857142857143</ele><time>2026-04-11T11:04:24.449Z</time></trkpt><trkpt lat="44.99319" lon="7.7677583"><ele>270.0</ele><time>2026-04-11T11:04:25.449Z</time></trkpt><trkpt lat="44.993205" lon="7.7676567"><ele>269.85714285714283</ele><time>2026-04-11T11:04:26.449Z</time></trkpt><trkpt lat="44.9932267" lon="7.7675583"><ele>269.71428571428567</ele><time>2026-04-11T11:04:27.449Z</time></trkpt><trkpt lat="44.99325" lon="7.7674633"><ele>269.57142857142856</ele><time>2026-04-11T11:04:28.449Z</time></trkpt><trkpt lat="44.99327" lon="7.7673683"><ele>269.42857142857144</ele><time>2026-04-11T11:04:29.449Z</time></trkpt><trkpt lat="44.993285" lon="7.7672733"><ele>269.28571428571433</ele><time>2026-04-11T11:04:30.449Z</time></trkpt><trkpt lat="44.9933033" lon="7.7671717"><ele>269.14285714285717</ele><time>2026-04-11T11:04:31.449Z</time></trkpt><trkpt lat="44.99332" lon="7.7670767"><ele>269.0</ele><time>2026-04-11T11:04:32.449Z</time></trkpt><trkpt lat="44.9933367" lon="7.766975"><ele>269.1666666666667</ele><time>2026-04-11T11:04:33.449Z</time></trkpt><trkpt lat="44.9933517" lon="7.7668733"><ele>269.33333333333337</ele><time>2026-04-11T11:04:34.449Z</time></trkpt><trkpt lat="44.9933683" lon="7.76677"><ele>269.5</ele><time>2026-04-11T11:04:35.449Z</time></trkpt><trkpt lat="44.9933883" lon="7.7666567"><ele>269.6666666666667</ele><time>2026-04-11T11:04:36.449Z</time></trkpt><trkpt lat="44.993405" lon="7.76655"><ele>269.8333333333333</ele><time>2026-04-11T11:04:37.449Z</time></trkpt><trkpt lat="44.99342" lon="7.76646"><ele>270.0</ele><time>2026-04-11T11:04:38.449Z</time></trkpt><trkpt lat="44.9934367" lon="7.7663183"><ele>269.6666666666667</ele><time>2026-04-11T11:04:40.449Z</time></trkpt><trkpt lat="44.9933783" lon="7.7662333"><ele>269.3333333333333</ele><time>2026-04-11T11:04:42.449Z</time></trkpt><trkpt lat="44.99326" lon="7.766235"><ele>269.0</ele><time>2026-04-11T11:04:44.449Z</time></trkpt><trkpt lat="44.9931867" lon="7.76624"><ele>268.66666666666663</ele><time>2026-04-11T11:04:45.449Z</time></trkpt><trkpt lat="44.99312" lon="7.7662483"><ele>268.3333333333333</ele><time>2026-04-11T11:04:46.449Z</time></trkpt><trkpt lat="44.993045" lon="7.7662617"><ele>268.0</ele><time>2026-04-11T11:04:47.449Z</time></trkpt><trkpt lat="44.9929733" lon="7.7662733"><ele>267.8333333333333</ele><time>2026-04-11T11:04:48.449Z</time></trkpt><trkpt lat="44.9929033" lon="7.766295"><ele>267.66666666666663</ele><time>2026-04-11T11:04:49.449Z</time></trkpt><trkpt lat="44.9928233" lon="7.7663267"><ele>267.5</ele><time>2026-04-11T11:04:50.449Z</time></trkpt><trkpt lat="44.9927533" lon="7.7663533"><ele>267.3333333333333</ele><time>2026-04-11T11:04:51.449Z</time></trkpt><trkpt lat="44.9926767" lon="7.7663883"><ele>267.1666666666667</ele><time>2026-04-11T11:04:52.449Z</time></trkpt><trkpt lat="44.992595" lon="7.7664317"><ele>267.0</ele><time>2026-04-11T11:04:53.449Z</time></trkpt><trkpt lat="44.9925167" lon="7.76646"><ele>266.8333333333333</ele><time>2026-04-11T11:04:54.449Z</time></trkpt><trkpt lat="44.9924367" lon="7.7664883"><ele>266.6666666666667</ele><time>2026-04-11T11:04:55.449Z</time></trkpt><trkpt lat="44.9923583" lon="7.766505"><ele>266.5</ele><time>2026-04-11T11:04:56.449Z</time></trkpt><trkpt lat="44.99228" lon="7.7665133"><ele>266.33333333333337</ele><time>2026-04-11T11:04:57.449Z</time></trkpt><trkpt lat="44.9922033" lon="7.7665183"><ele>266.1666666666667</ele><time>2026-04-11T11:04:58.449Z</time></trkpt><trkpt lat="44.99213" lon="7.7665167"><ele>266.0</ele><time>2026-04-11T11:04:59.449Z</time></trkpt><trkpt lat="44.9920667" lon="7.7664983"><ele>266.0</ele><time>2026-04-11T11:05:00.449Z</time></trkpt><trkpt lat="44.99199" lon="7.766385"><ele>266.0</ele><time>2026-04-11T11:05:02.449Z</time></trkpt><trkpt lat="44.9919917" lon="7.7662433"><ele>266.0</ele><time>2026-04-11T11:05:04.449Z</time></trkpt><trkpt lat="44.9920033" lon="7.7661183"><ele>266.0</ele><time>2026-04-11T11:05:06.449Z</time></trkpt><trkpt lat="44.9920067" lon="7.7659967"><ele>266.0</ele><time>2026-04-11T11:05:08.449Z</time></trkpt><trkpt lat="44.9919967" lon="7.7658717"><ele>266.0</ele><time>2026-04-11T11:05:10.449Z</time></trkpt><trkpt lat="44.9919983" lon="7.76573"><ele>266.0</ele><time>2026-04-11T11:05:12.449Z</time></trkpt><trkpt lat="44.9920033" lon="7.765585"><ele>266.0</ele><time>2026-04-11T11:05:14.449Z</time></trkpt><trkpt lat="44.99201" lon="7.7654367"><ele>266.0</ele><time>2026-04-11T11:05:16.449Z</time></trkpt><trkpt lat="44.9920167" lon="7.7652917"><ele>266.0</ele><time>2026-04-11T11:05:18.449Z</time></trkpt><trkpt lat="44.992025" lon="7.7651617"><ele>266.40000000000003</ele><time>2026-04-11T11:05:20.449Z</time></trkpt><trkpt lat="44.9920333" lon="7.7650217"><ele>266.8</ele><time>2026-04-11T11:05:22.449Z</time></trkpt><trkpt lat="44.9920383" lon="7.7648783"><ele>267.20000000000005</ele><time>2026-04-11T11:05:24.449Z</time></trkpt><trkpt lat="44.9920517" lon="7.76475"><ele>267.6</ele><time>2026-04-11T11:05:26.449Z</time></trkpt><trkpt lat="44.9920617" lon="7.7646233"><ele>268.0</ele><time>2026-04-11T11:05:28.449Z</time></trkpt><trkpt lat="44.9920767" lon="7.7644983"><ele>268.0</ele><time>2026-04-11T11:05:30.449Z</time></trkpt><trkpt lat="44.9920833" lon="7.7643717"><ele>268.0</ele><time>2026-04-11T11:05:32.449Z</time></trkpt><trkpt lat="44.9920967" lon="7.764245"><ele>268.0</ele><time>2026-04-11T11:05:34.449Z</time></trkpt><trkpt lat="44.9921133" lon="7.764115"><ele>268.0</ele><time>2026-04-11T11:05:36.449Z</time></trkpt><trkpt lat="44.9921267" lon="7.76398"><ele>268.0</ele><time>2026-04-11T11:05:38.449Z</time></trkpt><trkpt lat="44.9921317" lon="7.7638517"><ele>268.4</ele><time>2026-04-11T11:05:40.449Z</time></trkpt><trkpt lat="44.9921467" lon="7.7637217"><ele>268.8</ele><time>2026-04-11T11:05:42.449Z</time></trkpt><trkpt lat="44.9921617" lon="7.7635817"><ele>269.2</ele><time>2026-04-11T11:05:44.449Z</time></trkpt><trkpt lat="44.9921733" lon="7.7634517"><ele>269.6</ele><time>2026-04-11T11:05:46.449Z</time></trkpt><trkpt lat="44.9921783" lon="7.76333"><ele>270.0</ele><time>2026-04-11T11:05:48.449Z</time></trkpt><trkpt lat="44.99218" lon="7.7632"><ele>270.3333333333333</ele><time>2026-04-11T11:05:50.449Z</time></trkpt><trkpt lat="44.9921883" lon="7.763075"><ele>270.6666666666667</ele><time>2026-04-11T11:05:52.449Z</time></trkpt><trkpt lat="44.9921983" lon="7.762955"><ele>271.0</ele><time>2026-04-11T11:05:54.449Z</time></trkpt><trkpt lat="44.99221" lon="7.7628333"><ele>271.33333333333337</ele><time>2026-04-11T11:05:56.449Z</time></trkpt><trkpt lat="44.992215" lon="7.7627167"><ele>271.6666666666667</ele><time>2026-04-11T11:05:58.449Z</time></trkpt><trkpt lat="44.9922367" lon="7.7626183"><ele>272.0</ele><time>2026-04-11T11:06:00.449Z</time></trkpt><trkpt lat="44.992285" lon="7.762525"><ele>272.6666666666667</ele><time>2026-04-11T11:06:02.449Z</time></trkpt><trkpt lat="44.9923167" lon="7.7624117"><ele>273.33333333333337</ele><time>2026-04-11T11:06:04.449Z</time></trkpt><trkpt lat="44.992345" lon="7.7623"><ele>274.0</ele><time>2026-04-11T11:06:06.449Z</time></trkpt><trkpt lat="44.9923717" lon="7.7621767"><ele>274.6666666666667</ele><time>2026-04-11T11:06:08.449Z</time></trkpt><trkpt lat="44.9923983" lon="7.7620583"><ele>275.3333333333333</ele><time>2026-04-11T11:06:10.449Z</time></trkpt><trkpt lat="44.99243" lon="7.7619283"><ele>276.0</ele><time>2026-04-11T11:06:12.449Z</time></trkpt><trkpt lat="44.9924567" lon="7.7618133"><ele>276.3333333333333</ele><time>2026-04-11T11:06:14.449Z</time></trkpt><trkpt lat="44.9924833" lon="7.7616917"><ele>276.6666666666667</ele><time>2026-04-11T11:06:16.449Z</time></trkpt><trkpt lat="44.9925117" lon="7.7615783"><ele>277.0</ele><time>2026-04-11T11:06:18.449Z</time></trkpt><trkpt lat="44.9925383" lon="7.7614517"><ele>277.33333333333337</ele><time>2026-04-11T11:06:20.449Z</time></trkpt><trkpt lat="44.9925633" lon="7.76134"><ele>277.6666666666667</ele><time>2026-04-11T11:06:22.449Z</time></trkpt><trkpt lat="44.99258" lon="7.76122"><ele>278.0</ele><time>2026-04-11T11:06:24.449Z</time></trkpt><trkpt lat="44.9926017" lon="7.7611033"><ele>279.5</ele><time>2026-04-11T11:06:26.449Z</time></trkpt><trkpt lat="44.992635" lon="7.7609833"><ele>281.0</ele><time>2026-04-11T11:06:28.45Z</time></trkpt><trkpt lat="44.9926633" lon="7.760855"><ele>282.5</ele><time>2026-04-11T11:06:30.449Z</time></trkpt><trkpt lat="44.9926917" lon="7.7607383"><ele>284.0</ele><time>2026-04-11T11:06:32.449Z</time></trkpt><trkpt lat="44.9927167" lon="7.76064"><ele>285.5</ele><time>2026-04-11T11:06:34.449Z</time></trkpt><trkpt lat="44.9927333" lon="7.7605367"><ele>287.0</ele><time>2026-04-11T11:06:36.449Z</time></trkpt><trkpt lat="44.992745" lon="7.7604217"><ele>287.0</ele><time>2026-04-11T11:06:38.449Z</time></trkpt><trkpt lat="44.99276" lon="7.7603133"><ele>287.0</ele><time>2026-04-11T11:06:40.449Z</time></trkpt><trkpt lat="44.99279" lon="7.760215"><ele>287.0</ele><time>2026-04-11T11:06:42.449Z</time></trkpt><trkpt lat="44.9928233" lon="7.7601183"><ele>287.0</ele><time>2026-04-11T11:06:44.449Z</time></trkpt><trkpt lat="44.9928533" lon="7.76002"><ele>287.0</ele><time>2026-04-11T11:06:46.449Z</time></trkpt><trkpt lat="44.9928833" lon="7.7599217"><ele>287.0</ele><time>2026-04-11T11:06:48.449Z</time></trkpt><trkpt lat="44.9928917" lon="7.7598267"><ele>287.0</ele><time>2026-04-11T11:06:50.449Z</time></trkpt><trkpt lat="44.9929033" lon="7.7597267"><ele>287.83333333333337</ele><time>2026-04-11T11:06:52.449Z</time></trkpt><trkpt lat="44.9929183" lon="7.7595983"><ele>288.6666666666667</ele><time>2026-04-11T11:06:55.45Z</time></trkpt><trkpt lat="44.992945" lon="7.7595067"><ele>289.5</ele><time>2026-04-11T11:06:57.449Z</time></trkpt><trkpt lat="44.9929767" lon="7.7594067"><ele>290.3333333333333</ele><time>2026-04-11T11:06:59.449Z</time></trkpt><trkpt lat="44.9930067" lon="7.7592967"><ele>291.16666666666663</ele><time>2026-04-11T11:07:01.449Z</time></trkpt><trkpt lat="44.9930333" lon="7.7591917"><ele>292.0</ele><time>2026-04-11T11:07:03.449Z</time></trkpt><trkpt lat="44.9930467" lon="7.7590933"><ele>292.0</ele><time>2026-04-11T11:07:05.449Z</time></trkpt><trkpt lat="44.99298" lon="7.7590517"><ele>292.0</ele><time>2026-04-11T11:07:08.449Z</time></trkpt><trkpt lat="44.9929117" lon="7.7590833"><ele>292.0</ele><time>2026-04-11T11:07:10.449Z</time></trkpt><trkpt lat="44.9928317" lon="7.7591133"><ele>292.0</ele><time>2026-04-11T11:07:12.45Z</time></trkpt><trkpt lat="44.9927467" lon="7.7591517"><ele>292.0</ele><time>2026-04-11T11:07:14.449Z</time></trkpt><trkpt lat="44.9926667" lon="7.7591817"><ele>292.0</ele><time>2026-04-11T11:07:16.449Z</time></trkpt><trkpt lat="44.9925767" lon="7.7592067"><ele>291.4</ele><time>2026-04-11T11:07:18.449Z</time></trkpt><trkpt lat="44.9924717" lon="7.75923"><ele>290.79999999999995</ele><time>2026-04-11T11:07:20.449Z</time></trkpt><trkpt lat="44.9923667" lon="7.759235"><ele>290.2</ele><time>2026-04-11T11:07:22.449Z</time></trkpt><trkpt lat="44.992265" lon="7.75924"><ele>289.59999999999997</ele><time>2026-04-11T11:07:24.449Z</time></trkpt><trkpt lat="44.992165" lon="7.75924"><ele>289.0</ele><time>2026-04-11T11:07:26.449Z</time></trkpt><trkpt lat="44.9920683" lon="7.7592383"><ele>289.0</ele><time>2026-04-11T11:07:28.449Z</time></trkpt><trkpt lat="44.9919717" lon="7.7592483"><ele>289.0</ele><time>2026-04-11T11:07:30.449Z</time></trkpt><trkpt lat="44.9918833" lon="7.759235"><ele>289.0</ele><time>2026-04-11T11:07:32.449Z</time></trkpt><trkpt lat="44.9918083" lon="7.759195"><ele>289.0</ele><time>2026-04-11T11:07:34.449Z</time></trkpt><trkpt lat="44.991725" lon="7.7591367"><ele>289.0</ele><time>2026-04-11T11:07:36.449Z</time></trkpt><trkpt lat="44.9916167" lon="7.7590867"><ele>288.8</ele><time>2026-04-11T11:07:38.449Z</time></trkpt><trkpt lat="44.9915017" lon="7.75903"><ele>288.59999999999997</ele><time>2026-04-11T11:07:40.449Z</time></trkpt><trkpt lat="44.991385" lon="7.758985"><ele>288.4</ele><time>2026-04-11T11:07:42.449Z</time></trkpt><trkpt lat="44.9912617" lon="7.75894"><ele>288.2</ele><time>2026-04-11T11:07:44.449Z</time></trkpt><trkpt lat="44.9911917" lon="7.7589183"><ele>288.0</ele><time>2026-04-11T11:07:45.449Z</time></trkpt><trkpt lat="44.9911167" lon="7.7588917"><ele>288.0</ele><time>2026-04-11T11:07:46.449Z</time></trkpt><trkpt lat="44.9910383" lon="7.7588583"><ele>288.0</ele><time>2026-04-11T11:07:47.449Z</time></trkpt><trkpt lat="44.99096" lon="7.75882"><ele>288.0</ele><time>2026-04-11T11:07:48.449Z</time></trkpt><trkpt lat="44.990875" lon="7.75878"><ele>288.0</ele><time>2026-04-11T11:07:49.449Z</time></trkpt><trkpt lat="44.990795" lon="7.758745"><ele>288.0</ele><time>2026-04-11T11:07:50.449Z</time></trkpt><trkpt lat="44.9907117" lon="7.7587117"><ele>288.0</ele><time>2026-04-11T11:07:51.449Z</time></trkpt><trkpt lat="44.9906267" lon="7.7586783"><ele>288.0</ele><time>2026-04-11T11:07:52.449Z</time></trkpt><trkpt lat="44.990545" lon="7.7586417"><ele>288.0</ele><time>2026-04-11T11:07:53.449Z</time></trkpt><trkpt lat="44.9904533" lon="7.7586133"><ele>288.0</ele><time>2026-04-11T11:07:54.45Z</time></trkpt><trkpt lat="44.9903567" lon="7.758595"><ele>288.0</ele><time>2026-04-11T11:07:55.449Z</time></trkpt><trkpt lat="44.9902667" lon="7.758575"><ele>288.0</ele><time>2026-04-11T11:07:56.449Z</time></trkpt><trkpt lat="44.99018" lon="7.758555"><ele>288.1666666666667</ele><time>2026-04-11T11:07:57.449Z</time></trkpt><trkpt lat="44.9900967" lon="7.75853"><ele>288.3333333333333</ele><time>2026-04-11T11:07:58.449Z</time></trkpt><trkpt lat="44.990015" lon="7.75851"><ele>288.5</ele><time>2026-04-11T11:07:59.449Z</time></trkpt><trkpt lat="44.9899383" lon="7.75849"><ele>288.66666666666663</ele><time>2026-04-11T11:08:00.449Z</time></trkpt><trkpt lat="44.9898567" lon="7.7584717"><ele>288.8333333333333</ele><time>2026-04-11T11:08:01.449Z</time></trkpt><trkpt lat="44.989775" lon="7.7584417"><ele>289.0</ele><time>2026-04-11T11:08:02.449Z</time></trkpt><trkpt lat="44.9896967" lon="7.7584117"><ele>288.66666666666663</ele><time>2026-04-11T11:08:03.449Z</time></trkpt><trkpt lat="44.98962" lon="7.75838"><ele>288.3333333333333</ele><time>2026-04-11T11:08:04.449Z</time></trkpt><trkpt lat="44.9895433" lon="7.7583483"><ele>288.0</ele><time>2026-04-11T11:08:05.449Z</time></trkpt><trkpt lat="44.9894683" lon="7.7583133"><ele>287.6666666666667</ele><time>2026-04-11T11:08:06.449Z</time></trkpt><trkpt lat="44.9894017" lon="7.7582683"><ele>287.33333333333337</ele><time>2026-04-11T11:08:07.449Z</time></trkpt><trkpt lat="44.9893233" lon="7.75822"><ele>287.0</ele><time>2026-04-11T11:08:08.449Z</time></trkpt><trkpt lat="44.9892533" lon="7.7581667"><ele>287.0</ele><time>2026-04-11T11:08:09.449Z</time></trkpt><trkpt lat="44.9891817" lon="7.758105"><ele>287.0</ele><time>2026-04-11T11:08:10.449Z</time></trkpt><trkpt lat="44.9891067" lon="7.7580517"><ele>287.0</ele><time>2026-04-11T11:08:11.449Z</time></trkpt><trkpt lat="44.9890283" lon="7.7580033"><ele>287.0</ele><time>2026-04-11T11:08:12.449Z</time></trkpt><trkpt lat="44.9889467" lon="7.757975"><ele>287.0</ele><time>2026-04-11T11:08:13.449Z</time></trkpt><trkpt lat="44.9888633" lon="7.7579617"><ele>287.0</ele><time>2026-04-11T11:08:14.449Z</time></trkpt><trkpt lat="44.988775" lon="7.7579733"><ele>286.33333333333337</ele><time>2026-04-11T11:08:15.449Z</time></trkpt><trkpt lat="44.9886867" lon="7.7579933"><ele>285.6666666666667</ele><time>2026-04-11T11:08:16.449Z</time></trkpt><trkpt lat="44.9885933" lon="7.7580167"><ele>285.0</ele><time>2026-04-11T11:08:17.449Z</time></trkpt><trkpt lat="44.9885067" lon="7.7580383"><ele>284.3333333333333</ele><time>2026-04-11T11:08:18.449Z</time></trkpt><trkpt lat="44.9884283" lon="7.758055"><ele>283.66666666666663</ele><time>2026-04-11T11:08:19.449Z</time></trkpt><trkpt lat="44.9883433" lon="7.75809"><ele>283.0</ele><time>2026-04-11T11:08:20.449Z</time></trkpt><trkpt lat="44.9882583" lon="7.7581167"><ele>282.66666666666663</ele><time>2026-04-11T11:08:21.449Z</time></trkpt><trkpt lat="44.98818" lon="7.7581317"><ele>282.3333333333333</ele><time>2026-04-11T11:08:22.449Z</time></trkpt><trkpt lat="44.9881017" lon="7.7581483"><ele>282.0</ele><time>2026-04-11T11:08:23.449Z</time></trkpt><trkpt lat="44.9880133" lon="7.75817"><ele>281.6666666666667</ele><time>2026-04-11T11:08:24.449Z</time></trkpt><trkpt lat="44.9879267" lon="7.7581883"><ele>281.33333333333337</ele><time>2026-04-11T11:08:25.449Z</time></trkpt><trkpt lat="44.98784" lon="7.758205"><ele>281.0</ele><time>2026-04-11T11:08:26.449Z</time></trkpt><trkpt lat="44.9877533" lon="7.75823"><ele>281.0</ele><time>2026-04-11T11:08:27.449Z</time></trkpt><trkpt lat="44.9876683" lon="7.7582633"><ele>281.0</ele><time>2026-04-11T11:08:28.449Z</time></trkpt><trkpt lat="44.98759" lon="7.758295"><ele>281.0</ele><time>2026-04-11T11:08:29.449Z</time></trkpt><trkpt lat="44.9875" lon="7.7583133"><ele>281.0</ele><time>2026-04-11T11:08:30.449Z</time></trkpt><trkpt lat="44.9874133" lon="7.7583167"><ele>281.0</ele><time>2026-04-11T11:08:31.449Z</time></trkpt><trkpt lat="44.9873283" lon="7.7583167"><ele>281.0</ele><time>2026-04-11T11:08:32.449Z</time></trkpt><trkpt lat="44.9872417" lon="7.7583133"><ele>281.1666666666667</ele><time>2026-04-11T11:08:33.449Z</time></trkpt><trkpt lat="44.987155" lon="7.758305"><ele>281.33333333333337</ele><time>2026-04-11T11:08:34.449Z</time></trkpt><trkpt lat="44.9870667" lon="7.758295"><ele>281.5</ele><time>2026-04-11T11:08:35.449Z</time></trkpt><trkpt lat="44.9869833" lon="7.7582683"><ele>281.6666666666667</ele><time>2026-04-11T11:08:36.449Z</time></trkpt><trkpt lat="44.9869017" lon="7.758235"><ele>281.8333333333333</ele><time>2026-04-11T11:08:37.449Z</time></trkpt><trkpt lat="44.9868233" lon="7.75819"><ele>282.0</ele><time>2026-04-11T11:08:38.449Z</time></trkpt><trkpt lat="44.9867467" lon="7.7581467"><ele>281.3333333333333</ele><time>2026-04-11T11:08:39.449Z</time></trkpt><trkpt lat="44.9866667" lon="7.7581"><ele>280.6666666666667</ele><time>2026-04-11T11:08:40.449Z</time></trkpt><trkpt lat="44.98659" lon="7.75806"><ele>280.0</ele><time>2026-04-11T11:08:41.449Z</time></trkpt><trkpt lat="44.9865167" lon="7.758025"><ele>279.33333333333337</ele><time>2026-04-11T11:08:42.449Z</time></trkpt><trkpt lat="44.9864383" lon="7.7579867"><ele>278.6666666666667</ele><time>2026-04-11T11:08:43.449Z</time></trkpt><trkpt lat="44.9863667" lon="7.7579533"><ele>278.0</ele><time>2026-04-11T11:08:44.449Z</time></trkpt><trkpt lat="44.9862867" lon="7.7579117"><ele>278.0</ele><time>2026-04-11T11:08:45.449Z</time></trkpt><trkpt lat="44.9862017" lon="7.7578817"><ele>278.0</ele><time>2026-04-11T11:08:46.449Z</time></trkpt><trkpt lat="44.98611" lon="7.7578533"><ele>278.0</ele><time>2026-04-11T11:08:47.449Z</time></trkpt><trkpt lat="44.98602" lon="7.7578333"><ele>278.0</ele><time>2026-04-11T11:08:48.449Z</time></trkpt><trkpt lat="44.9859333" lon="7.7578117"><ele>278.0</ele><time>2026-04-11T11:08:49.45Z</time></trkpt><trkpt lat="44.98585" lon="7.7577783"><ele>278.0</ele><time>2026-04-11T11:08:50.449Z</time></trkpt><trkpt lat="44.98576" lon="7.7577567"><ele>277.33333333333337</ele><time>2026-04-11T11:08:51.449Z</time></trkpt><trkpt lat="44.9856733" lon="7.7577333"><ele>276.6666666666667</ele><time>2026-04-11T11:08:52.449Z</time></trkpt><trkpt lat="44.9855883" lon="7.757705"><ele>276.0</ele><time>2026-04-11T11:08:53.449Z</time></trkpt><trkpt lat="44.98551" lon="7.75768"><ele>275.3333333333333</ele><time>2026-04-11T11:08:54.449Z</time></trkpt><trkpt lat="44.98543" lon="7.7576467"><ele>274.66666666666663</ele><time>2026-04-11T11:08:55.449Z</time></trkpt><trkpt lat="44.9853483" lon="7.7576167"><ele>274.0</ele><time>2026-04-11T11:08:56.449Z</time></trkpt><trkpt lat="44.9852633" lon="7.757585"><ele>274.0</ele><time>2026-04-11T11:08:57.449Z</time></trkpt><trkpt lat="44.9851783" lon="7.7575567"><ele>274.0</ele><time>2026-04-11T11:08:58.449Z</time></trkpt><trkpt lat="44.9850933" lon="7.7575233"><ele>274.0</ele><time>2026-04-11T11:08:59.45Z</time></trkpt><trkpt lat="44.9850083" lon="7.7574883"><ele>274.0</ele><time>2026-04-11T11:09:00.449Z</time></trkpt><trkpt lat="44.9849167" lon="7.7574533"><ele>274.0</ele><time>2026-04-11T11:09:01.449Z</time></trkpt><trkpt lat="44.98483" lon="7.7574267"><ele>274.0</ele><time>2026-04-11T11:09:02.45Z</time></trkpt><trkpt lat="44.9847467" lon="7.757395"><ele>274.0</ele><time>2026-04-11T11:09:03.449Z</time></trkpt><trkpt lat="44.9846617" lon="7.757375"><ele>274.0</ele><time>2026-04-11T11:09:04.449Z</time></trkpt><trkpt lat="44.9845783" lon="7.7573517"><ele>274.0</ele><time>2026-04-11T11:09:05.449Z</time></trkpt><trkpt lat="44.9844933" lon="7.7573183"><ele>274.0</ele><time>2026-04-11T11:09:06.449Z</time></trkpt><trkpt lat="44.9844117" lon="7.757275"><ele>274.0</ele><time>2026-04-11T11:09:07.449Z</time></trkpt><trkpt lat="44.9843367" lon="7.75723"><ele>274.0</ele><time>2026-04-11T11:09:08.449Z</time></trkpt><trkpt lat="44.9842667" lon="7.757165"><ele>274.0</ele><time>2026-04-11T11:09:09.449Z</time></trkpt><trkpt lat="44.9841883" lon="7.7571083"><ele>274.0</ele><time>2026-04-11T11:09:10.449Z</time></trkpt><trkpt lat="44.98411" lon="7.7570633"><ele>274.0</ele><time>2026-04-11T11:09:11.449Z</time></trkpt><trkpt lat="44.9840267" lon="7.75702"><ele>274.0</ele><time>2026-04-11T11:09:12.449Z</time></trkpt><trkpt lat="44.98394" lon="7.7569883"><ele>274.0</ele><time>2026-04-11T11:09:13.449Z</time></trkpt><trkpt lat="44.9838467" lon="7.756985"><ele>274.0</ele><time>2026-04-11T11:09:14.449Z</time></trkpt><trkpt lat="44.9837533" lon="7.7569867"><ele>273.66666666666663</ele><time>2026-04-11T11:09:15.449Z</time></trkpt><trkpt lat="44.983665" lon="7.7569967"><ele>273.3333333333333</ele><time>2026-04-11T11:09:16.449Z</time></trkpt><trkpt lat="44.9835817" lon="7.7570083"><ele>273.0</ele><time>2026-04-11T11:09:17.449Z</time></trkpt><trkpt lat="44.9835033" lon="7.75702"><ele>272.6666666666667</ele><time>2026-04-11T11:09:18.449Z</time></trkpt><trkpt lat="44.9834217" lon="7.7570267"><ele>272.33333333333337</ele><time>2026-04-11T11:09:19.449Z</time></trkpt><trkpt lat="44.98333" lon="7.7570267"><ele>272.0</ele><time>2026-04-11T11:09:20.449Z</time></trkpt><trkpt lat="44.9832383" lon="7.7570167"><ele>272.0</ele><time>2026-04-11T11:09:21.449Z</time></trkpt><trkpt lat="44.98314" lon="7.7570033"><ele>272.0</ele><time>2026-04-11T11:09:22.449Z</time></trkpt><trkpt lat="44.9830383" lon="7.7569917"><ele>272.0</ele><time>2026-04-11T11:09:23.449Z</time></trkpt><trkpt lat="44.9829467" lon="7.7569883"><ele>272.0</ele><time>2026-04-11T11:09:24.449Z</time></trkpt><trkpt lat="44.982855" lon="7.7570067"><ele>272.0</ele><time>2026-04-11T11:09:25.449Z</time></trkpt><trkpt lat="44.9827667" lon="7.75705"><ele>272.0</ele><time>2026-04-11T11:09:26.449Z</time></trkpt><trkpt lat="44.982695" lon="7.757115"><ele>272.0</ele><time>2026-04-11T11:09:27.449Z</time></trkpt><trkpt lat="44.9826317" lon="7.7571867"><ele>272.0</ele><time>2026-04-11T11:09:28.449Z</time></trkpt><trkpt lat="44.98258" lon="7.7572717"><ele>272.0</ele><time>2026-04-11T11:09:29.449Z</time></trkpt><trkpt lat="44.9825633" lon="7.75741"><ele>272.0</ele><time>2026-04-11T11:09:30.449Z</time></trkpt><trkpt lat="44.9825433" lon="7.7575467"><ele>272.0</ele><time>2026-04-11T11:09:31.449Z</time></trkpt><trkpt lat="44.9825333" lon="7.7576883"><ele>270.2</ele><time>2026-04-11T11:09:32.449Z</time></trkpt><trkpt lat="44.9825333" lon="7.75784"><ele>268.4</ele><time>2026-04-11T11:09:33.449Z</time></trkpt><trkpt lat="44.982535" lon="7.7579883"><ele>266.6</ele><time>2026-04-11T11:09:34.449Z</time></trkpt><trkpt lat="44.98252" lon="7.75813"><ele>264.8</ele><time>2026-04-11T11:09:35.449Z</time></trkpt><trkpt lat="44.9824917" lon="7.7582633"><ele>263.0</ele><time>2026-04-11T11:09:36.449Z</time></trkpt><trkpt lat="44.9824633" lon="7.7584133"><ele>261.4</ele><time>2026-04-11T11:09:37.449Z</time></trkpt><trkpt lat="44.9824217" lon="7.75855"><ele>259.8</ele><time>2026-04-11T11:09:38.449Z</time></trkpt><trkpt lat="44.9823767" lon="7.7586867"><ele>258.2</ele><time>2026-04-11T11:09:39.449Z</time></trkpt><trkpt lat="44.9823283" lon="7.7588167"><ele>256.6</ele><time>2026-04-11T11:09:40.449Z</time></trkpt><trkpt lat="44.9822667" lon="7.7589517"><ele>255.0</ele><time>2026-04-11T11:09:41.449Z</time></trkpt><trkpt lat="44.98221" lon="7.7590783"><ele>255.0</ele><time>2026-04-11T11:09:42.449Z</time></trkpt><trkpt lat="44.9821433" lon="7.7591967"><ele>255.0</ele><time>2026-04-11T11:09:43.449Z</time></trkpt><trkpt lat="44.9820817" lon="7.75928"><ele>255.0</ele><time>2026-04-11T11:09:44.449Z</time></trkpt><trkpt lat="44.982015" lon="7.7593367"><ele>255.0</ele><time>2026-04-11T11:09:45.449Z</time></trkpt><trkpt lat="44.9819517" lon="7.7593633"><ele>255.0</ele><time>2026-04-11T11:09:46.449Z</time></trkpt><trkpt lat="44.9818867" lon="7.759365"><ele>255.0</ele><time>2026-04-11T11:09:47.449Z</time></trkpt><trkpt lat="44.98182" lon="7.7593383"><ele>255.0</ele><time>2026-04-11T11:09:48.449Z</time></trkpt><trkpt lat="44.9817583" lon="7.7592883"><ele>255.0</ele><time>2026-04-11T11:09:49.449Z</time></trkpt><trkpt lat="44.981695" lon="7.759225"><ele>255.0</ele><time>2026-04-11T11:09:50.449Z</time></trkpt><trkpt lat="44.981635" lon="7.759155"><ele>255.0</ele><time>2026-04-11T11:09:51.449Z</time></trkpt><trkpt lat="44.9815717" lon="7.7590783"><ele>255.0</ele><time>2026-04-11T11:09:52.449Z</time></trkpt><trkpt lat="44.9815083" lon="7.758995"><ele>255.0</ele><time>2026-04-11T11:09:53.449Z</time></trkpt><trkpt lat="44.9814367" lon="7.7589167"><ele>254.5</ele><time>2026-04-11T11:09:54.449Z</time></trkpt><trkpt lat="44.9813683" lon="7.758845"><ele>254.0</ele><time>2026-04-11T11:09:55.449Z</time></trkpt><trkpt lat="44.981295" lon="7.758785"><ele>253.5</ele><time>2026-04-11T11:09:56.449Z</time></trkpt><trkpt lat="44.98122" lon="7.7587317"><ele>253.0</ele><time>2026-04-11T11:09:57.449Z</time></trkpt><trkpt lat="44.981145" lon="7.7586867"><ele>252.5</ele><time>2026-04-11T11:09:58.449Z</time></trkpt><trkpt lat="44.9810783" lon="7.7586483"><ele>252.0</ele><time>2026-04-11T11:09:59.449Z</time></trkpt><trkpt lat="44.9810183" lon="7.7586117"><ele>252.0</ele><time>2026-04-11T11:10:00.449Z</time></trkpt><trkpt lat="44.9809617" lon="7.7585717"><ele>252.0</ele><time>2026-04-11T11:10:01.449Z</time></trkpt><trkpt lat="44.9808733" lon="7.758445"><ele>252.0</ele><time>2026-04-11T11:10:03.449Z</time></trkpt><trkpt lat="44.9808367" lon="7.7583583"><ele>252.0</ele><time>2026-04-11T11:10:04.449Z</time></trkpt><trkpt lat="44.9808067" lon="7.7582717"><ele>252.0</ele><time>2026-04-11T11:10:05.449Z</time></trkpt><trkpt lat="44.9807833" lon="7.7581817"><ele>252.0</ele><time>2026-04-11T11:10:06.449Z</time></trkpt><trkpt lat="44.98076" lon="7.758095"><ele>251.71428571428572</ele><time>2026-04-11T11:10:07.449Z</time></trkpt><trkpt lat="44.9807417" lon="7.7580017"><ele>251.42857142857144</ele><time>2026-04-11T11:10:08.45Z</time></trkpt><trkpt lat="44.9807283" lon="7.7579133"><ele>251.14285714285714</ele><time>2026-04-11T11:10:09.449Z</time></trkpt><trkpt lat="44.9807167" lon="7.757825"><ele>250.85714285714286</ele><time>2026-04-11T11:10:10.449Z</time></trkpt><trkpt lat="44.9807083" lon="7.757735"><ele>250.57142857142858</ele><time>2026-04-11T11:10:11.449Z</time></trkpt><trkpt lat="44.980695" lon="7.757565"><ele>250.28571428571428</ele><time>2026-04-11T11:10:13.449Z</time></trkpt><trkpt lat="44.9807017" lon="7.75747"><ele>250.0</ele><time>2026-04-11T11:10:14.449Z</time></trkpt><trkpt lat="44.9807233" lon="7.7572617"><ele>250.0</ele><time>2026-04-11T11:10:16.449Z</time></trkpt><trkpt lat="44.98073" lon="7.757165"><ele>250.0</ele><time>2026-04-11T11:10:17.449Z</time></trkpt><trkpt lat="44.9807417" lon="7.7570633"><ele>250.0</ele><time>2026-04-11T11:10:18.449Z</time></trkpt><trkpt lat="44.98075" lon="7.756955"><ele>250.0</ele><time>2026-04-11T11:10:19.449Z</time></trkpt><trkpt lat="44.98076" lon="7.7568583"><ele>250.0</ele><time>2026-04-11T11:10:20.449Z</time></trkpt><trkpt lat="44.98077" lon="7.7567583"><ele>250.0</ele><time>2026-04-11T11:10:21.449Z</time></trkpt><trkpt lat="44.98078" lon="7.7566617"><ele>250.0</ele><time>2026-04-11T11:10:22.449Z</time></trkpt><trkpt lat="44.9807933" lon="7.75656"><ele>249.83333333333331</ele><time>2026-04-11T11:10:23.449Z</time></trkpt><trkpt lat="44.9808033" lon="7.7564567"><ele>249.66666666666666</ele><time>2026-04-11T11:10:24.449Z</time></trkpt><trkpt lat="44.98081" lon="7.75636"><ele>249.5</ele><time>2026-04-11T11:10:25.449Z</time></trkpt><trkpt lat="44.98082" lon="7.7562717"><ele>249.33333333333331</ele><time>2026-04-11T11:10:26.449Z</time></trkpt><trkpt lat="44.98083" lon="7.7561833"><ele>249.16666666666666</ele><time>2026-04-11T11:10:27.449Z</time></trkpt><trkpt lat="44.980855" lon="7.7560033"><ele>249.0</ele><time>2026-04-11T11:10:29.449Z</time></trkpt><trkpt lat="44.9808883" lon="7.755835"><ele>249.0</ele><time>2026-04-11T11:10:31.449Z</time></trkpt><trkpt lat="44.98092" lon="7.7556617"><ele>248.99999999999997</ele><time>2026-04-11T11:10:33.449Z</time></trkpt><trkpt lat="44.9809583" lon="7.7554933"><ele>248.99999999999997</ele><time>2026-04-11T11:10:35.449Z</time></trkpt><trkpt lat="44.98098" lon="7.755395"><ele>249.0</ele><time>2026-04-11T11:10:36.449Z</time></trkpt><trkpt lat="44.9809967" lon="7.7552917"><ele>249.0</ele><time>2026-04-11T11:10:37.449Z</time></trkpt><trkpt lat="44.98101" lon="7.7551933"><ele>248.57142857142856</ele><time>2026-04-11T11:10:38.449Z</time></trkpt><trkpt lat="44.9810133" lon="7.7550917"><ele>248.1428571428571</ele><time>2026-04-11T11:10:39.449Z</time></trkpt><trkpt lat="44.981015" lon="7.75499"><ele>247.71428571428572</ele><time>2026-04-11T11:10:40.449Z</time></trkpt><trkpt lat="44.98102" lon="7.7548833"><ele>247.28571428571428</ele><time>2026-04-11T11:10:41.449Z</time></trkpt><trkpt lat="44.98102" lon="7.754785"><ele>246.85714285714286</ele><time>2026-04-11T11:10:42.449Z</time></trkpt><trkpt lat="44.98101" lon="7.7546833"><ele>246.42857142857144</ele><time>2026-04-11T11:10:43.449Z</time></trkpt><trkpt lat="44.981" lon="7.7545867"><ele>246.00000000000003</ele><time>2026-04-11T11:10:44.449Z</time></trkpt><trkpt lat="44.98099" lon="7.7544967"><ele>246.0</ele><time>2026-04-11T11:10:45.449Z</time></trkpt><trkpt lat="44.980975" lon="7.7544067"><ele>246.0</ele><time>2026-04-11T11:10:46.449Z</time></trkpt><trkpt lat="44.98096" lon="7.7542517"><ele>246.0</ele><time>2026-04-11T11:10:48.449Z</time></trkpt><trkpt lat="44.9809783" lon="7.754155"><ele>246.0</ele><time>2026-04-11T11:10:50.449Z</time></trkpt><trkpt lat="44.9810517" lon="7.75411"><ele>246.0</ele><time>2026-04-11T11:10:52.449Z</time></trkpt><trkpt lat="44.9811417" lon="7.75408"><ele>246.0</ele><time>2026-04-11T11:10:54.449Z</time></trkpt><trkpt lat="44.98124" lon="7.7540717"><ele>245.8</ele><time>2026-04-11T11:10:56.449Z</time></trkpt><trkpt lat="44.98135" lon="7.7540733"><ele>245.60000000000002</ele><time>2026-04-11T11:10:58.449Z</time></trkpt><trkpt lat="44.981455" lon="7.7540733"><ele>245.4</ele><time>2026-04-11T11:11:00.449Z</time></trkpt><trkpt lat="44.9815183" lon="7.754075"><ele>245.2</ele><time>2026-04-11T11:11:01.45Z</time></trkpt><trkpt lat="44.9815817" lon="7.75408"><ele>245.0</ele><time>2026-04-11T11:11:02.449Z</time></trkpt><trkpt lat="44.9817067" lon="7.7540733"><ele>245.33333333333334</ele><time>2026-04-11T11:11:04.45Z</time></trkpt><trkpt lat="44.9817717" lon="7.7540683"><ele>245.66666666666669</ele><time>2026-04-11T11:11:05.449Z</time></trkpt><trkpt lat="44.9818367" lon="7.7540483"><ele>246.0</ele><time>2026-04-11T11:11:06.449Z</time></trkpt><trkpt lat="44.9818983" lon="7.7540183"><ele>246.33333333333331</ele><time>2026-04-11T11:11:07.45Z</time></trkpt><trkpt lat="44.981965" lon="7.7539967"><ele>246.66666666666666</ele><time>2026-04-11T11:11:08.449Z</time></trkpt><trkpt lat="44.982085" lon="7.753935"><ele>247.0</ele><time>2026-04-11T11:11:10.449Z</time></trkpt><trkpt lat="44.9821383" lon="7.753885"><ele>247.0</ele><time>2026-04-11T11:11:11.449Z</time></trkpt><trkpt lat="44.9821883" lon="7.753825"><ele>247.0</ele><time>2026-04-11T11:11:12.449Z</time></trkpt><trkpt lat="44.982235" lon="7.753765"><ele>247.0</ele><time>2026-04-11T11:11:13.449Z</time></trkpt><trkpt lat="44.9822833" lon="7.7536967"><ele>247.0</ele><time>2026-04-11T11:11:14.449Z</time></trkpt><trkpt lat="44.9823317" lon="7.7536283"><ele>247.0</ele><time>2026-04-11T11:11:15.449Z</time></trkpt><trkpt lat="44.9823817" lon="7.753565"><ele>247.0</ele><time>2026-04-11T11:11:16.449Z</time></trkpt><trkpt lat="44.9824333" lon="7.7534983"><ele>247.0</ele><time>2026-04-11T11:11:17.449Z</time></trkpt><trkpt lat="44.9825267" lon="7.7533733"><ele>247.49999999999997</ele><time>2026-04-11T11:11:19.449Z</time></trkpt><trkpt lat="44.9825883" lon="7.7533367"><ele>248.0</ele><time>2026-04-11T11:11:20.449Z</time></trkpt><trkpt lat="44.982655" lon="7.753315"><ele>248.5</ele><time>2026-04-11T11:11:21.449Z</time></trkpt><trkpt lat="44.98272" lon="7.753305"><ele>249.0</ele><time>2026-04-11T11:11:22.449Z</time></trkpt><trkpt lat="44.98284" lon="7.753325"><ele>249.49999999999997</ele><time>2026-04-11T11:11:24.449Z</time></trkpt><trkpt lat="44.9829033" lon="7.7533483"><ele>250.0</ele><time>2026-04-11T11:11:25.449Z</time></trkpt><trkpt lat="44.98297" lon="7.7533767"><ele>250.0</ele><time>2026-04-11T11:11:26.45Z</time></trkpt><trkpt lat="44.9830383" lon="7.753405"><ele>250.0</ele><time>2026-04-11T11:11:27.449Z</time></trkpt><trkpt lat="44.9831117" lon="7.7534283"><ele>250.0</ele><time>2026-04-11T11:11:28.449Z</time></trkpt><trkpt lat="44.9831817" lon="7.7534483"><ele>250.0</ele><time>2026-04-11T11:11:29.45Z</time></trkpt><trkpt lat="44.9832433" lon="7.753475"><ele>250.0</ele><time>2026-04-11T11:11:30.449Z</time></trkpt><trkpt lat="44.9833083" lon="7.75351"><ele>250.0</ele><time>2026-04-11T11:11:31.449Z</time></trkpt><trkpt lat="44.9833767" lon="7.7535417"><ele>250.0</ele><time>2026-04-11T11:11:32.449Z</time></trkpt><trkpt lat="44.9834917" lon="7.7536033"><ele>249.99999999999997</ele><time>2026-04-11T11:11:34.449Z</time></trkpt><trkpt lat="44.983555" lon="7.7536417"><ele>250.0</ele><time>2026-04-11T11:11:35.449Z</time></trkpt><trkpt lat="44.98362" lon="7.7536717"><ele>250.0</ele><time>2026-04-11T11:11:36.449Z</time></trkpt><trkpt lat="44.9836867" lon="7.7537"><ele>250.0</ele><time>2026-04-11T11:11:37.449Z</time></trkpt><trkpt lat="44.98375" lon="7.7537183"><ele>249.99999999999997</ele><time>2026-04-11T11:11:38.449Z</time></trkpt><trkpt lat="44.983865" lon="7.75375"><ele>250.0</ele><time>2026-04-11T11:11:40.449Z</time></trkpt><trkpt lat="44.9839317" lon="7.7537583"><ele>250.0</ele><time>2026-04-11T11:11:41.449Z</time></trkpt><trkpt lat="44.983995" lon="7.75376"><ele>250.0</ele><time>2026-04-11T11:11:42.449Z</time></trkpt><trkpt lat="44.98412" lon="7.75377"><ele>250.0</ele><time>2026-04-11T11:11:44.449Z</time></trkpt><trkpt lat="44.9841833" lon="7.7537733"><ele>250.0</ele><time>2026-04-11T11:11:45.449Z</time></trkpt><trkpt lat="44.9842483" lon="7.7537767"><ele>250.0</ele><time>2026-04-11T11:11:46.449Z</time></trkpt><trkpt lat="44.9843133" lon="7.7537783"><ele>250.0</ele><time>2026-04-11T11:11:47.449Z</time></trkpt><trkpt lat="44.9843767" lon="7.7537767"><ele>250.0</ele><time>2026-04-11T11:11:48.449Z</time></trkpt><trkpt lat="44.9845067" lon="7.7537867"><ele>250.0</ele><time>2026-04-11T11:11:50.449Z</time></trkpt><trkpt lat="44.9845733" lon="7.7537817"><ele>250.0</ele><time>2026-04-11T11:11:51.449Z</time></trkpt><trkpt lat="44.9847" lon="7.7537767"><ele>250.0</ele><time>2026-04-11T11:11:53.449Z</time></trkpt><trkpt lat="44.9848133" lon="7.7537867"><ele>250.0</ele><time>2026-04-11T11:11:55.449Z</time></trkpt><trkpt lat="44.9849317" lon="7.7537983"><ele>250.0</ele><time>2026-04-11T11:11:57.449Z</time></trkpt><trkpt lat="44.9850433" lon="7.7538017"><ele>250.0</ele><time>2026-04-11T11:11:59.449Z</time></trkpt><trkpt lat="44.985165" lon="7.7538017"><ele>250.0</ele><time>2026-04-11T11:12:01.449Z</time></trkpt><trkpt lat="44.9852783" lon="7.7537967"><ele>250.0</ele><time>2026-04-11T11:12:03.449Z</time></trkpt><trkpt lat="44.985375" lon="7.7537967"><ele>250.0</ele><time>2026-04-11T11:12:05.449Z</time></trkpt><trkpt lat="44.985465" lon="7.753805"><ele>250.0</ele><time>2026-04-11T11:12:07.449Z</time></trkpt><trkpt lat="44.9855383" lon="7.7537883"><ele>250.0</ele><time>2026-04-11T11:12:09.449Z</time></trkpt><trkpt lat="44.985585" lon="7.7536833"><ele>250.0</ele><time>2026-04-11T11:12:11.449Z</time></trkpt><trkpt lat="44.9855917" lon="7.7535617"><ele>250.0</ele><time>2026-04-11T11:12:13.449Z</time></trkpt><trkpt lat="44.9855933" lon="7.7534367"><ele>250.0</ele><time>2026-04-11T11:12:15.45Z</time></trkpt><trkpt lat="44.9856133" lon="7.7533083"><ele>250.0</ele><time>2026-04-11T11:12:17.449Z</time></trkpt><trkpt lat="44.98567" lon="7.753195"><ele>249.8</ele><time>2026-04-11T11:12:19.45Z</time></trkpt><trkpt lat="44.985725" lon="7.7530817"><ele>249.6</ele><time>2026-04-11T11:12:21.449Z</time></trkpt><trkpt lat="44.985755" lon="7.75294"><ele>249.39999999999998</ele><time>2026-04-11T11:12:23.449Z</time></trkpt><trkpt lat="44.9857767" lon="7.7528183"><ele>249.2</ele><time>2026-04-11T11:12:25.449Z</time></trkpt><trkpt lat="44.9858033" lon="7.7527"><ele>249.0</ele><time>2026-04-11T11:12:27.449Z</time></trkpt><trkpt lat="44.9858267" lon="7.7525783"><ele>250.39999999999998</ele><time>2026-04-11T11:12:29.449Z</time></trkpt><trkpt lat="44.985855" lon="7.7524517"><ele>251.79999999999998</ele><time>2026-04-11T11:12:31.449Z</time></trkpt><trkpt lat="44.9858817" lon="7.7523283"><ele>253.20000000000002</ele><time>2026-04-11T11:12:33.449Z</time></trkpt><trkpt lat="44.9859067" lon="7.7521967"><ele>254.60000000000002</ele><time>2026-04-11T11:12:35.449Z</time></trkpt><trkpt lat="44.9859433" lon="7.75209"><ele>256.0</ele><time>2026-04-11T11:12:37.449Z</time></trkpt><trkpt lat="44.9859967" lon="7.7519717"><ele>257.0</ele><time>2026-04-11T11:12:39.449Z</time></trkpt><trkpt lat="44.9860467" lon="7.7518483"><ele>258.0</ele><time>2026-04-11T11:12:41.449Z</time></trkpt><trkpt lat="44.9861083" lon="7.7517217"><ele>259.0</ele><time>2026-04-11T11:12:43.449Z</time></trkpt><trkpt lat="44.9861717" lon="7.7516017"><ele>260.0</ele><time>2026-04-11T11:12:45.449Z</time></trkpt><trkpt lat="44.9862333" lon="7.7514717"><ele>261.0</ele><time>2026-04-11T11:12:47.449Z</time></trkpt><trkpt lat="44.9862967" lon="7.7513633"><ele>261.0</ele><time>2026-04-11T11:12:49.449Z</time></trkpt><trkpt lat="44.9863733" lon="7.7512517"><ele>261.0</ele><time>2026-04-11T11:12:51.449Z</time></trkpt><trkpt lat="44.98645" lon="7.7511267"><ele>261.0</ele><time>2026-04-11T11:12:53.449Z</time></trkpt><trkpt lat="44.9865233" lon="7.750985"><ele>261.0</ele><time>2026-04-11T11:12:55.449Z</time></trkpt><trkpt lat="44.9865917" lon="7.7508367"><ele>261.0</ele><time>2026-04-11T11:12:57.449Z</time></trkpt><trkpt lat="44.9866283" lon="7.750755"><ele>261.0</ele><time>2026-04-11T11:12:58.449Z</time></trkpt><trkpt lat="44.9866883" lon="7.75061"><ele>261.0</ele><time>2026-04-11T11:13:00.449Z</time></trkpt><trkpt lat="44.9867167" lon="7.75053"><ele>261.0</ele><time>2026-04-11T11:13:01.449Z</time></trkpt><trkpt lat="44.9867833" lon="7.750375"><ele>261.0</ele><time>2026-04-11T11:13:03.449Z</time></trkpt><trkpt lat="44.98682" lon="7.750295"><ele>261.0</ele><time>2026-04-11T11:13:04.449Z</time></trkpt><trkpt lat="44.986855" lon="7.7502067"><ele>261.7142857142857</ele><time>2026-04-11T11:13:05.449Z</time></trkpt><trkpt lat="44.9868883" lon="7.7501267"><ele>262.42857142857144</ele><time>2026-04-11T11:13:06.449Z</time></trkpt><trkpt lat="44.98692" lon="7.7500417"><ele>263.1428571428571</ele><time>2026-04-11T11:13:07.449Z</time></trkpt><trkpt lat="44.9869533" lon="7.7499617"><ele>263.8571428571429</ele><time>2026-04-11T11:13:08.449Z</time></trkpt><trkpt lat="44.9869883" lon="7.749875"><ele>264.57142857142856</ele><time>2026-04-11T11:13:09.449Z</time></trkpt><trkpt lat="44.9870267" lon="7.7497883"><ele>265.2857142857143</ele><time>2026-04-11T11:13:10.449Z</time></trkpt><trkpt lat="44.9870583" lon="7.7497033"><ele>266.0</ele><time>2026-04-11T11:13:11.449Z</time></trkpt><trkpt lat="44.9870867" lon="7.749615"><ele>266.0</ele><time>2026-04-11T11:13:12.449Z</time></trkpt><trkpt lat="44.9871167" lon="7.7495233"><ele>266.0</ele><time>2026-04-11T11:13:13.449Z</time></trkpt><trkpt lat="44.9871433" lon="7.749435"><ele>266.0</ele><time>2026-04-11T11:13:14.449Z</time></trkpt><trkpt lat="44.98716" lon="7.7493433"><ele>266.0</ele><time>2026-04-11T11:13:15.449Z</time></trkpt><trkpt lat="44.9871883" lon="7.7491733"><ele>266.0</ele><time>2026-04-11T11:13:17.449Z</time></trkpt><trkpt lat="44.9872017" lon="7.7490067"><ele>266.0</ele><time>2026-04-11T11:13:19.449Z</time></trkpt><trkpt lat="44.9872017" lon="7.7488417"><ele>266.0</ele><time>2026-04-11T11:13:21.449Z</time></trkpt><trkpt lat="44.9872083" lon="7.748665"><ele>266.0</ele><time>2026-04-11T11:13:23.449Z</time></trkpt><trkpt lat="44.9872183" lon="7.74857"><ele>266.0</ele><time>2026-04-11T11:13:24.449Z</time></trkpt><trkpt lat="44.98723" lon="7.7484767"><ele>266.0</ele><time>2026-04-11T11:13:25.449Z</time></trkpt><trkpt lat="44.9872483" lon="7.7483883"><ele>266.0</ele><time>2026-04-11T11:13:26.449Z</time></trkpt><trkpt lat="44.9872717" lon="7.748305"><ele>266.0</ele><time>2026-04-11T11:13:27.449Z</time></trkpt><trkpt lat="44.987325" lon="7.7481567"><ele>266.0</ele><time>2026-04-11T11:13:29.449Z</time></trkpt><trkpt lat="44.9873967" lon="7.7480267"><ele>266.0</ele><time>2026-04-11T11:13:31.449Z</time></trkpt><trkpt lat="44.9874767" lon="7.74791"><ele>266.0</ele><time>2026-04-11T11:13:33.449Z</time></trkpt><trkpt lat="44.9875467" lon="7.7478067"><ele>266.0</ele><time>2026-04-11T11:13:35.45Z</time></trkpt><trkpt lat="44.98762" lon="7.7477283"><ele>266.0</ele><time>2026-04-11T11:13:37.449Z</time></trkpt><trkpt lat="44.9877017" lon="7.7476967"><ele>266.6</ele><time>2026-04-11T11:13:39.449Z</time></trkpt><trkpt lat="44.987795" lon="7.7476667"><ele>267.20000000000005</ele><time>2026-04-11T11:13:41.449Z</time></trkpt><trkpt lat="44.9878883" lon="7.7476633"><ele>267.79999999999995</ele><time>2026-04-11T11:13:43.449Z</time></trkpt><trkpt lat="44.9879767" lon="7.747685"><ele>268.4</ele><time>2026-04-11T11:13:45.449Z</time></trkpt><trkpt lat="44.9880567" lon="7.747705"><ele>269.0</ele><time>2026-04-11T11:13:47.449Z</time></trkpt><trkpt lat="44.9881483" lon="7.7477217"><ele>269.0</ele><time>2026-04-11T11:13:49.449Z</time></trkpt><trkpt lat="44.9882367" lon="7.747735"><ele>269.0</ele><time>2026-04-11T11:13:51.449Z</time></trkpt><trkpt lat="44.9883217" lon="7.7477417"><ele>269.0</ele><time>2026-04-11T11:13:53.449Z</time></trkpt><trkpt lat="44.98841" lon="7.7477383"><ele>269.0</ele><time>2026-04-11T11:13:55.449Z</time></trkpt><trkpt lat="44.9884933" lon="7.7477083"><ele>269.0</ele><time>2026-04-11T11:13:57.449Z</time></trkpt><trkpt lat="44.9885767" lon="7.7476733"><ele>269.0</ele><time>2026-04-11T11:13:59.449Z</time></trkpt><trkpt lat="44.988635" lon="7.7476267"><ele>269.59999999999997</ele><time>2026-04-11T11:14:01.449Z</time></trkpt><trkpt lat="44.9887117" lon="7.74758"><ele>270.2</ele><time>2026-04-11T11:14:03.449Z</time></trkpt><trkpt lat="44.9887867" lon="7.7475433"><ele>270.79999999999995</ele><time>2026-04-11T11:14:05.449Z</time></trkpt><trkpt lat="44.988865" lon="7.7475117"><ele>271.4</ele><time>2026-04-11T11:14:07.449Z</time></trkpt><trkpt lat="44.9889683" lon="7.747485"><ele>272.0</ele><time>2026-04-11T11:14:09.449Z</time></trkpt><trkpt lat="44.989085" lon="7.747445"><ele>271.99999999999994</ele><time>2026-04-11T11:14:11.449Z</time></trkpt><trkpt lat="44.9891417" lon="7.7473983"><ele>272.0</ele><time>2026-04-11T11:14:12.449Z</time></trkpt><trkpt lat="44.989195" lon="7.7473417"><ele>272.0</ele><time>2026-04-11T11:14:13.449Z</time></trkpt><trkpt lat="44.9892617" lon="7.7472833"><ele>272.0</ele><time>2026-04-11T11:14:14.449Z</time></trkpt><trkpt lat="44.98933" lon="7.74723"><ele>272.0</ele><time>2026-04-11T11:14:15.449Z</time></trkpt><trkpt lat="44.989395" lon="7.7471783"><ele>271.99999999999994</ele><time>2026-04-11T11:14:16.45Z</time></trkpt><trkpt lat="44.9894533" lon="7.7471317"><ele>272.0</ele><time>2026-04-11T11:14:17.449Z</time></trkpt><trkpt lat="44.9895033" lon="7.7470733"><ele>272.1428571428571</ele><time>2026-04-11T11:14:18.449Z</time></trkpt><trkpt lat="44.9895517" lon="7.7470117"><ele>272.2857142857143</ele><time>2026-04-11T11:14:19.449Z</time></trkpt><trkpt lat="44.9895983" lon="7.7469433"><ele>272.42857142857144</ele><time>2026-04-11T11:14:20.449Z</time></trkpt><trkpt lat="44.9896433" lon="7.74687"><ele>272.57142857142856</ele><time>2026-04-11T11:14:21.449Z</time></trkpt><trkpt lat="44.989695" lon="7.746795"><ele>272.7142857142857</ele><time>2026-04-11T11:14:22.449Z</time></trkpt><trkpt lat="44.98975" lon="7.74671"><ele>272.85714285714283</ele><time>2026-04-11T11:14:23.449Z</time></trkpt><trkpt lat="44.9897983" lon="7.74663"><ele>273.0</ele><time>2026-04-11T11:14:24.449Z</time></trkpt><trkpt lat="44.9898467" lon="7.7465567"><ele>273.0</ele><time>2026-04-11T11:14:25.449Z</time></trkpt><trkpt lat="44.9899033" lon="7.7464867"><ele>273.0</ele><time>2026-04-11T11:14:26.449Z</time></trkpt><trkpt lat="44.98996" lon="7.7464233"><ele>273.0</ele><time>2026-04-11T11:14:27.449Z</time></trkpt><trkpt lat="44.9900183" lon="7.74637"><ele>273.0</ele><time>2026-04-11T11:14:28.449Z</time></trkpt><trkpt lat="44.9901267" lon="7.746295"><ele>273.0</ele><time>2026-04-11T11:14:30.45Z</time></trkpt><trkpt lat="44.9902233" lon="7.746205"><ele>273.5</ele><time>2026-04-11T11:14:32.449Z</time></trkpt><trkpt lat="44.9903317" lon="7.746115"><ele>274.0</ele><time>2026-04-11T11:14:34.449Z</time></trkpt><trkpt lat="44.9904483" lon="7.7460433"><ele>274.5</ele><time>2026-04-11T11:14:36.449Z</time></trkpt><trkpt lat="44.9905717" lon="7.7459867"><ele>275.0</ele><time>2026-04-11T11:14:38.449Z</time></trkpt><trkpt lat="44.9906367" lon="7.74595"><ele>275.2857142857143</ele><time>2026-04-11T11:14:39.449Z</time></trkpt><trkpt lat="44.9907" lon="7.7459067"><ele>275.57142857142856</ele><time>2026-04-11T11:14:40.449Z</time></trkpt><trkpt lat="44.9907633" lon="7.74586"><ele>275.85714285714283</ele><time>2026-04-11T11:14:41.449Z</time></trkpt><trkpt lat="44.990825" lon="7.7458233"><ele>276.1428571428571</ele><time>2026-04-11T11:14:42.449Z</time></trkpt><trkpt lat="44.99089" lon="7.7457833"><ele>276.4285714285714</ele><time>2026-04-11T11:14:43.449Z</time></trkpt><trkpt lat="44.9909483" lon="7.745745"><ele>276.7142857142857</ele><time>2026-04-11T11:14:44.449Z</time></trkpt><trkpt lat="44.99101" lon="7.7456967"><ele>277.0</ele><time>2026-04-11T11:14:45.449Z</time></trkpt><trkpt lat="44.9910717" lon="7.7456467"><ele>277.0</ele><time>2026-04-11T11:14:46.45Z</time></trkpt><trkpt lat="44.991135" lon="7.7456033"><ele>277.0</ele><time>2026-04-11T11:14:47.449Z</time></trkpt><trkpt lat="44.9911967" lon="7.7455633"><ele>277.0</ele><time>2026-04-11T11:14:48.449Z</time></trkpt><trkpt lat="44.9912567" lon="7.7455167"><ele>277.0</ele><time>2026-04-11T11:14:49.449Z</time></trkpt><trkpt lat="44.9913117" lon="7.7454733"><ele>277.0</ele><time>2026-04-11T11:14:50.449Z</time></trkpt><trkpt lat="44.991375" lon="7.7454267"><ele>277.0</ele><time>2026-04-11T11:14:51.449Z</time></trkpt><trkpt lat="44.99143" lon="7.74538"><ele>277.0</ele><time>2026-04-11T11:14:52.449Z</time></trkpt><trkpt lat="44.9914867" lon="7.74533"><ele>277.0</ele><time>2026-04-11T11:14:53.449Z</time></trkpt><trkpt lat="44.991545" lon="7.74529"><ele>277.0</ele><time>2026-04-11T11:14:54.449Z</time></trkpt><trkpt lat="44.99166" lon="7.7452067"><ele>277.0</ele><time>2026-04-11T11:14:56.449Z</time></trkpt><trkpt lat="44.9917183" lon="7.745165"><ele>277.0</ele><time>2026-04-11T11:14:57.449Z</time></trkpt><trkpt lat="44.9917767" lon="7.7451217"><ele>277.0</ele><time>2026-04-11T11:14:58.449Z</time></trkpt><trkpt lat="44.9918817" lon="7.7450333"><ele>277.0</ele><time>2026-04-11T11:15:00.45Z</time></trkpt><trkpt lat="44.99199" lon="7.744945"><ele>277.6</ele><time>2026-04-11T11:15:02.449Z</time></trkpt><trkpt lat="44.9920483" lon="7.7449"><ele>278.2</ele><time>2026-04-11T11:15:03.449Z</time></trkpt><trkpt lat="44.9921567" lon="7.7448167"><ele>278.8</ele><time>2026-04-11T11:15:05.449Z</time></trkpt><trkpt lat="44.99226" lon="7.7447367"><ele>279.4</ele><time>2026-04-11T11:15:07.449Z</time></trkpt><trkpt lat="44.99233" lon="7.7446067"><ele>280.0</ele><time>2026-04-11T11:15:09.449Z</time></trkpt><trkpt lat="44.9923317" lon="7.74443"><ele>279.85714285714283</ele><time>2026-04-11T11:15:11.449Z</time></trkpt><trkpt lat="44.992335" lon="7.7443317"><ele>279.7142857142857</ele><time>2026-04-11T11:15:12.449Z</time></trkpt><trkpt lat="44.9923417" lon="7.7442333"><ele>279.57142857142856</ele><time>2026-04-11T11:15:13.449Z</time></trkpt><trkpt lat="44.992345" lon="7.7441283"><ele>279.42857142857144</ele><time>2026-04-11T11:15:14.449Z</time></trkpt><trkpt lat="44.9923483" lon="7.7440183"><ele>279.2857142857143</ele><time>2026-04-11T11:15:15.449Z</time></trkpt><trkpt lat="44.99235" lon="7.74392"><ele>279.1428571428571</ele><time>2026-04-11T11:15:16.449Z</time></trkpt><trkpt lat="44.9923433" lon="7.7438267"><ele>279.0</ele><time>2026-04-11T11:15:17.449Z</time></trkpt><trkpt lat="44.9923333" lon="7.743645"><ele>279.0</ele><time>2026-04-11T11:15:19.45Z</time></trkpt><trkpt lat="44.9923317" lon="7.7435517"><ele>279.0</ele><time>2026-04-11T11:15:20.449Z</time></trkpt><trkpt lat="44.99233" lon="7.7434583"><ele>279.0</ele><time>2026-04-11T11:15:21.449Z</time></trkpt><trkpt lat="44.9923233" lon="7.7433667"><ele>279.0</ele><time>2026-04-11T11:15:22.449Z</time></trkpt><trkpt lat="44.992315" lon="7.743195"><ele>279.0</ele><time>2026-04-11T11:15:24.449Z</time></trkpt><trkpt lat="44.992315" lon="7.743005"><ele>279.5</ele><time>2026-04-11T11:15:26.45Z</time></trkpt><trkpt lat="44.9923167" lon="7.7429083"><ele>280.0</ele><time>2026-04-11T11:15:27.449Z</time></trkpt><trkpt lat="44.992315" lon="7.7428183"><ele>280.5</ele><time>2026-04-11T11:15:28.45Z</time></trkpt><trkpt lat="44.99232" lon="7.7426533"><ele>281.0</ele><time>2026-04-11T11:15:30.449Z</time></trkpt><trkpt lat="44.9923383" lon="7.7425567"><ele>281.5</ele><time>2026-04-11T11:15:32.449Z</time></trkpt><trkpt lat="44.9924183" lon="7.74255"><ele>282.0</ele><time>2026-04-11T11:15:36.449Z</time></trkpt><trkpt lat="44.9925083" lon="7.742595"><ele>282.14285714285717</ele><time>2026-04-11T11:15:39.449Z</time></trkpt><trkpt lat="44.9925667" lon="7.7426333"><ele>282.2857142857143</ele><time>2026-04-11T11:15:41.449Z</time></trkpt><trkpt lat="44.9926317" lon="7.7426533"><ele>282.42857142857144</ele><time>2026-04-11T11:15:43.449Z</time></trkpt><trkpt lat="44.9927067" lon="7.7427033"><ele>282.57142857142856</ele><time>2026-04-11T11:15:46.449Z</time></trkpt><trkpt lat="44.9927833" lon="7.7427467"><ele>282.7142857142857</ele><time>2026-04-11T11:15:49.449Z</time></trkpt><trkpt lat="44.9928283" lon="7.74268"><ele>282.8571428571429</ele><time>2026-04-11T11:15:52.449Z</time></trkpt><trkpt lat="44.9928333" lon="7.7425783"><ele>283.0</ele><time>2026-04-11T11:15:54.449Z</time></trkpt><trkpt lat="44.9928533" lon="7.7424217"><ele>283.0</ele><time>2026-04-11T11:15:56.449Z</time></trkpt><trkpt lat="44.992875" lon="7.7422433"><ele>283.0</ele><time>2026-04-11T11:15:58.449Z</time></trkpt><trkpt lat="44.9928883" lon="7.7421517"><ele>283.0</ele><time>2026-04-11T11:15:59.449Z</time></trkpt><trkpt lat="44.9928967" lon="7.742055"><ele>283.0</ele><time>2026-04-11T11:16:00.449Z</time></trkpt><trkpt lat="44.9929133" lon="7.7419583"><ele>283.0</ele><time>2026-04-11T11:16:01.449Z</time></trkpt><trkpt lat="44.9929267" lon="7.74187"><ele>283.0</ele><time>2026-04-11T11:16:02.449Z</time></trkpt><trkpt lat="44.99294" lon="7.7417717"><ele>282.57142857142856</ele><time>2026-04-11T11:16:03.449Z</time></trkpt><trkpt lat="44.9929517" lon="7.74167"><ele>282.14285714285717</ele><time>2026-04-11T11:16:04.449Z</time></trkpt><trkpt lat="44.9929683" lon="7.7415733"><ele>281.7142857142857</ele><time>2026-04-11T11:16:05.449Z</time></trkpt><trkpt lat="44.9929833" lon="7.7414783"><ele>281.2857142857143</ele><time>2026-04-11T11:16:06.449Z</time></trkpt><trkpt lat="44.9929983" lon="7.7413783"><ele>280.8571428571429</ele><time>2026-04-11T11:16:07.449Z</time></trkpt><trkpt lat="44.99302" lon="7.7412733"><ele>280.42857142857144</ele><time>2026-04-11T11:16:08.449Z</time></trkpt><trkpt lat="44.9930433" lon="7.74117"><ele>280.0</ele><time>2026-04-11T11:16:09.449Z</time></trkpt><trkpt lat="44.99307" lon="7.7410583"><ele>279.0</ele><time>2026-04-11T11:16:10.449Z</time></trkpt><trkpt lat="44.9930983" lon="7.740935"><ele>278.0</ele><time>2026-04-11T11:16:11.449Z</time></trkpt><trkpt lat="44.9931317" lon="7.74081"><ele>277.0</ele><time>2026-04-11T11:16:12.449Z</time></trkpt><trkpt lat="44.993165" lon="7.7406767"><ele>276.0</ele><time>2026-04-11T11:16:13.449Z</time></trkpt><trkpt lat="44.9932033" lon="7.7405467"><ele>275.0</ele><time>2026-04-11T11:16:14.449Z</time></trkpt><trkpt lat="44.9932383" lon="7.740405"><ele>275.0</ele><time>2026-04-11T11:16:15.449Z</time></trkpt><trkpt lat="44.9932467" lon="7.74025"><ele>275.0</ele><time>2026-04-11T11:16:16.449Z</time></trkpt><trkpt lat="44.9932217" lon="7.7401"><ele>275.0</ele><time>2026-04-11T11:16:17.449Z</time></trkpt><trkpt lat="44.9931633" lon="7.739965"><ele>275.0</ele><time>2026-04-11T11:16:18.449Z</time></trkpt><trkpt lat="44.993085" lon="7.7398467"><ele>275.0</ele><time>2026-04-11T11:16:19.449Z</time></trkpt><trkpt lat="44.9930017" lon="7.73974"><ele>274.25</ele><time>2026-04-11T11:16:20.45Z</time></trkpt><trkpt lat="44.9929133" lon="7.7396333"><ele>273.5</ele><time>2026-04-11T11:16:21.449Z</time></trkpt><trkpt lat="44.992825" lon="7.7395183"><ele>272.75</ele><time>2026-04-11T11:16:22.449Z</time></trkpt><trkpt lat="44.992735" lon="7.7394117"><ele>272.0</ele><time>2026-04-11T11:16:23.449Z</time></trkpt><trkpt lat="44.9926383" lon="7.7393017"><ele>271.5</ele><time>2026-04-11T11:16:24.449Z</time></trkpt><trkpt lat="44.9925367" lon="7.7392"><ele>271.0</ele><time>2026-04-11T11:16:25.449Z</time></trkpt><trkpt lat="44.9924283" lon="7.739125"><ele>270.5</ele><time>2026-04-11T11:16:26.449Z</time></trkpt><trkpt lat="44.992325" lon="7.7390733"><ele>270.0</ele><time>2026-04-11T11:16:27.449Z</time></trkpt><trkpt lat="44.9922317" lon="7.7390367"><ele>270.0</ele><time>2026-04-11T11:16:28.45Z</time></trkpt><trkpt lat="44.9921367" lon="7.7390117"><ele>270.0</ele><time>2026-04-11T11:16:29.449Z</time></trkpt><trkpt lat="44.9920467" lon="7.7389817"><ele>270.0</ele><time>2026-04-11T11:16:30.449Z</time></trkpt><trkpt lat="44.9919683" lon="7.7389617"><ele>270.0</ele><time>2026-04-11T11:16:31.449Z</time></trkpt><trkpt lat="44.991905" lon="7.7389467"><ele>270.0</ele><time>2026-04-11T11:16:32.449Z</time></trkpt><trkpt lat="44.9918267" lon="7.7388867"><ele>270.0</ele><time>2026-04-11T11:16:34.45Z</time></trkpt><trkpt lat="44.9918367" lon="7.738795"><ele>270.0</ele><time>2026-04-11T11:16:36.449Z</time></trkpt><trkpt lat="44.9919" lon="7.73872"><ele>270.0</ele><time>2026-04-11T11:16:38.449Z</time></trkpt><trkpt lat="44.9919717" lon="7.738635"><ele>270.0</ele><time>2026-04-11T11:16:40.449Z</time></trkpt><trkpt lat="44.9920333" lon="7.7385383"><ele>270.0</ele><time>2026-04-11T11:16:42.449Z</time></trkpt><trkpt lat="44.992095" lon="7.738445"><ele>270.0</ele><time>2026-04-11T11:16:44.449Z</time></trkpt><trkpt lat="44.992155" lon="7.7383633"><ele>270.0</ele><time>2026-04-11T11:16:46.449Z</time></trkpt><trkpt lat="44.99221" lon="7.738275"><ele>269.6666666666667</ele><time>2026-04-11T11:16:48.449Z</time></trkpt><trkpt lat="44.9922767" lon="7.7381933"><ele>269.3333333333333</ele><time>2026-04-11T11:16:50.449Z</time></trkpt><trkpt lat="44.9923367" lon="7.7381217"><ele>269.0</ele><time>2026-04-11T11:16:52.449Z</time></trkpt><trkpt lat="44.99239" lon="7.7380433"><ele>268.66666666666663</ele><time>2026-04-11T11:16:54.449Z</time></trkpt><trkpt lat="44.992435" lon="7.7379417"><ele>268.3333333333333</ele><time>2026-04-11T11:16:57.449Z</time></trkpt><trkpt lat="44.9924783" lon="7.737835"><ele>268.0</ele><time>2026-04-11T11:17:00.449Z</time></trkpt><trkpt lat="44.9925167" lon="7.7377633"><ele>269.0</ele><time>2026-04-11T11:17:02.45Z</time></trkpt><trkpt lat="44.992575" lon="7.7376817"><ele>270.0</ele><time>2026-04-11T11:17:04.449Z</time></trkpt><trkpt lat="44.9926417" lon="7.7375983"><ele>271.0</ele><time>2026-04-11T11:17:06.449Z</time></trkpt><trkpt lat="44.9927167" lon="7.7375417"><ele>272.0</ele><time>2026-04-11T11:17:08.449Z</time></trkpt><trkpt lat="44.99279" lon="7.7374933"><ele>273.0</ele><time>2026-04-11T11:17:10.449Z</time></trkpt><trkpt lat="44.9928583" lon="7.7374467"><ele>274.0</ele><time>2026-04-11T11:17:12.449Z</time></trkpt><trkpt lat="44.9929283" lon="7.737395"><ele>274.0</ele><time>2026-04-11T11:17:14.449Z</time></trkpt><trkpt lat="44.9930017" lon="7.7373383"><ele>274.0</ele><time>2026-04-11T11:17:16.449Z</time></trkpt><trkpt lat="44.9930867" lon="7.7372583"><ele>274.0</ele><time>2026-04-11T11:17:18.449Z</time></trkpt><trkpt lat="44.99317" lon="7.7371617"><ele>274.0</ele><time>2026-04-11T11:17:20.449Z</time></trkpt><trkpt lat="44.99325" lon="7.73706"><ele>274.0</ele><time>2026-04-11T11:17:22.449Z</time></trkpt><trkpt lat="44.9933217" lon="7.7369717"><ele>275.8</ele><time>2026-04-11T11:17:24.449Z</time></trkpt><trkpt lat="44.9933867" lon="7.7368783"><ele>277.59999999999997</ele><time>2026-04-11T11:17:26.449Z</time></trkpt><trkpt lat="44.99346" lon="7.736775"><ele>279.4</ele><time>2026-04-11T11:17:28.449Z</time></trkpt><trkpt lat="44.99354" lon="7.7366667"><ele>281.2</ele><time>2026-04-11T11:17:30.449Z</time></trkpt><trkpt lat="44.9936167" lon="7.7365617"><ele>283.0</ele><time>2026-04-11T11:17:32.449Z</time></trkpt><trkpt lat="44.9936917" lon="7.7364683"><ele>283.0</ele><time>2026-04-11T11:17:34.449Z</time></trkpt><trkpt lat="44.993755" lon="7.73639"><ele>283.0</ele><time>2026-04-11T11:17:36.449Z</time></trkpt><trkpt lat="44.9938117" lon="7.73634"><ele>283.0</ele><time>2026-04-11T11:17:38.449Z</time></trkpt><trkpt lat="44.99388" lon="7.736295"><ele>283.0</ele><time>2026-04-11T11:17:40.449Z</time></trkpt><trkpt lat="44.9939517" lon="7.7362383"><ele>283.0</ele><time>2026-04-11T11:17:42.449Z</time></trkpt><trkpt lat="44.9940217" lon="7.736215"><ele>283.0</ele><time>2026-04-11T11:17:44.449Z</time></trkpt><trkpt lat="44.9940883" lon="7.7362217"><ele>283.0</ele><time>2026-04-11T11:17:46.449Z</time></trkpt><trkpt lat="44.9941517" lon="7.7362267"><ele>284.0</ele><time>2026-04-11T11:17:48.449Z</time></trkpt><trkpt lat="44.994245" lon="7.7362467"><ele>285.0</ele><time>2026-04-11T11:17:51.449Z</time></trkpt><trkpt lat="44.9943233" lon="7.7362683"><ele>286.0</ele><time>2026-04-11T11:17:53.449Z</time></trkpt><trkpt lat="44.99439" lon="7.7362767"><ele>287.0</ele><time>2026-04-11T11:17:55.449Z</time></trkpt><trkpt lat="44.9944633" lon="7.7362217"><ele>288.0</ele><time>2026-04-11T11:17:57.449Z</time></trkpt><trkpt lat="44.9945383" lon="7.7361367"><ele>289.0</ele><time>2026-04-11T11:17:59.449Z</time></trkpt><trkpt lat="44.9946183" lon="7.7360417"><ele>289.0</ele><time>2026-04-11T11:18:01.449Z</time></trkpt><trkpt lat="44.9947067" lon="7.7359467"><ele>289.0</ele><time>2026-04-11T11:18:03.449Z</time></trkpt><trkpt lat="44.994805" lon="7.7358483"><ele>289.0</ele><time>2026-04-11T11:18:05.449Z</time></trkpt><trkpt lat="44.9948983" lon="7.7357317"><ele>289.0</ele><time>2026-04-11T11:18:07.449Z</time></trkpt><trkpt lat="44.9949483" lon="7.7356767"><ele>289.0</ele><time>2026-04-11T11:18:08.449Z</time></trkpt><trkpt lat="44.9949983" lon="7.73561"><ele>288.14285714285717</ele><time>2026-04-11T11:18:09.449Z</time></trkpt><trkpt lat="44.995045" lon="7.7355383"><ele>287.2857142857143</ele><time>2026-04-11T11:18:10.449Z</time></trkpt><trkpt lat="44.9950883" lon="7.73547"><ele>286.42857142857144</ele><time>2026-04-11T11:18:11.449Z</time></trkpt><trkpt lat="44.9951367" lon="7.735395"><ele>285.57142857142856</ele><time>2026-04-11T11:18:12.449Z</time></trkpt><trkpt lat="44.9951833" lon="7.7353183"><ele>284.7142857142857</ele><time>2026-04-11T11:18:13.449Z</time></trkpt><trkpt lat="44.99523" lon="7.735235"><ele>283.8571428571429</ele><time>2026-04-11T11:18:14.449Z</time></trkpt><trkpt lat="44.9952783" lon="7.7351567"><ele>283.0</ele><time>2026-04-11T11:18:15.449Z</time></trkpt><trkpt lat="44.995325" lon="7.735075"><ele>282.7142857142857</ele><time>2026-04-11T11:18:16.449Z</time></trkpt><trkpt lat="44.9953683" lon="7.7349967"><ele>282.42857142857144</ele><time>2026-04-11T11:18:17.449Z</time></trkpt><trkpt lat="44.9954167" lon="7.73492"><ele>282.14285714285717</ele><time>2026-04-11T11:18:18.449Z</time></trkpt><trkpt lat="44.99546" lon="7.73484"><ele>281.8571428571429</ele><time>2026-04-11T11:18:19.449Z</time></trkpt><trkpt lat="44.9955033" lon="7.73476"><ele>281.57142857142856</ele><time>2026-04-11T11:18:20.449Z</time></trkpt><trkpt lat="44.995555" lon="7.7346767"><ele>281.28571428571433</ele><time>2026-04-11T11:18:21.449Z</time></trkpt><trkpt lat="44.9956" lon="7.7345967"><ele>281.0</ele><time>2026-04-11T11:18:22.449Z</time></trkpt><trkpt lat="44.9956533" lon="7.73454"><ele>281.0</ele><time>2026-04-11T11:18:23.449Z</time></trkpt><trkpt lat="44.9957167" lon="7.7345067"><ele>281.0</ele><time>2026-04-11T11:18:24.449Z</time></trkpt><trkpt lat="44.9958483" lon="7.734535"><ele>281.0</ele><time>2026-04-11T11:18:26.449Z</time></trkpt><trkpt lat="44.9959133" lon="7.73457"><ele>281.0</ele><time>2026-04-11T11:18:27.449Z</time></trkpt><trkpt lat="44.9959767" lon="7.73461"><ele>281.0</ele><time>2026-04-11T11:18:28.449Z</time></trkpt><trkpt lat="44.9960433" lon="7.7346417"><ele>281.0</ele><time>2026-04-11T11:18:29.449Z</time></trkpt><trkpt lat="44.9961067" lon="7.7346667"><ele>280.8</ele><time>2026-04-11T11:18:30.449Z</time></trkpt><trkpt lat="44.9962233" lon="7.7346967"><ele>280.6</ele><time>2026-04-11T11:18:32.449Z</time></trkpt><trkpt lat="44.9963083" lon="7.7346883"><ele>280.4</ele><time>2026-04-11T11:18:34.449Z</time></trkpt><trkpt lat="44.9963417" lon="7.7345617"><ele>280.2</ele><time>2026-04-11T11:18:43.448Z</time></trkpt><trkpt lat="44.9963783" lon="7.7344667"><ele>280.0</ele><time>2026-04-11T11:18:45.448Z</time></trkpt><trkpt lat="44.9964433" lon="7.73432"><ele>280.0</ele><time>2026-04-11T11:18:47.449Z</time></trkpt><trkpt lat="44.9964683" lon="7.7342333"><ele>280.0</ele><time>2026-04-11T11:18:48.448Z</time></trkpt><trkpt lat="44.9965067" lon="7.734145"><ele>280.0</ele><time>2026-04-11T11:18:49.449Z</time></trkpt><trkpt lat="44.9965533" lon="7.7340417"><ele>280.0</ele><time>2026-04-11T11:18:50.448Z</time></trkpt><trkpt lat="44.99659" lon="7.73395"><ele>280.0</ele><time>2026-04-11T11:18:51.448Z</time></trkpt><trkpt lat="44.99662" lon="7.733845"><ele>280.0</ele><time>2026-04-11T11:18:52.448Z</time></trkpt><trkpt lat="44.9966567" lon="7.7337467"><ele>280.5</ele><time>2026-04-11T11:18:53.448Z</time></trkpt><trkpt lat="44.9966983" lon="7.7336333"><ele>281.0</ele><time>2026-04-11T11:18:54.448Z</time></trkpt><trkpt lat="44.99674" lon="7.7335317"><ele>281.5</ele><time>2026-04-11T11:18:55.448Z</time></trkpt><trkpt lat="44.9967883" lon="7.7334283"><ele>282.0</ele><time>2026-04-11T11:18:56.449Z</time></trkpt><trkpt lat="44.9968333" lon="7.7333217"><ele>282.5</ele><time>2026-04-11T11:18:57.448Z</time></trkpt><trkpt lat="44.9968717" lon="7.7332167"><ele>283.0</ele><time>2026-04-11T11:18:58.448Z</time></trkpt><trkpt lat="44.9969133" lon="7.7331167"><ele>283.0</ele><time>2026-04-11T11:18:59.448Z</time></trkpt><trkpt lat="44.9969517" lon="7.7330317"><ele>283.0</ele><time>2026-04-11T11:19:00.448Z</time></trkpt><trkpt lat="44.996995" lon="7.732955"><ele>283.0</ele><time>2026-04-11T11:19:01.448Z</time></trkpt><trkpt lat="44.9970933" lon="7.732865"><ele>283.0</ele><time>2026-04-11T11:19:03.448Z</time></trkpt><trkpt lat="44.9971983" lon="7.7328133"><ele>283.0</ele><time>2026-04-11T11:19:05.448Z</time></trkpt><trkpt lat="44.9973117" lon="7.7327867"><ele>283.0</ele><time>2026-04-11T11:19:07.448Z</time></trkpt><trkpt lat="44.997425" lon="7.7327717"><ele>283.0</ele><time>2026-04-11T11:19:09.448Z</time></trkpt><trkpt lat="44.99753" lon="7.7327633"><ele>283.0</ele><time>2026-04-11T11:19:11.448Z</time></trkpt><trkpt lat="44.9976483" lon="7.732755"><ele>283.0</ele><time>2026-04-11T11:19:13.449Z</time></trkpt><trkpt lat="44.9977517" lon="7.7327883"><ele>283.0</ele><time>2026-04-11T11:19:15.448Z</time></trkpt><trkpt lat="44.99786" lon="7.7328517"><ele>283.4</ele><time>2026-04-11T11:19:17.448Z</time></trkpt><trkpt lat="44.99796" lon="7.7329167"><ele>283.8</ele><time>2026-04-11T11:19:19.448Z</time></trkpt><trkpt lat="44.9980617" lon="7.7329633"><ele>284.2</ele><time>2026-04-11T11:19:21.448Z</time></trkpt><trkpt lat="44.9981683" lon="7.73296"><ele>284.6</ele><time>2026-04-11T11:19:23.448Z</time></trkpt><trkpt lat="44.9982683" lon="7.7329067"><ele>285.0</ele><time>2026-04-11T11:19:25.448Z</time></trkpt><trkpt lat="44.9983817" lon="7.7328267"><ele>285.8333333333333</ele><time>2026-04-11T11:19:27.448Z</time></trkpt><trkpt lat="44.9984383" lon="7.73278"><ele>286.6666666666667</ele><time>2026-04-11T11:19:28.449Z</time></trkpt><trkpt lat="44.9985383" lon="7.7327133"><ele>287.5</ele><time>2026-04-11T11:19:30.448Z</time></trkpt><trkpt lat="44.998615" lon="7.732635"><ele>288.33333333333337</ele><time>2026-04-11T11:19:32.448Z</time></trkpt><trkpt lat="44.9986333" lon="7.7325283"><ele>289.1666666666667</ele><time>2026-04-11T11:19:34.448Z</time></trkpt><trkpt lat="44.9986217" lon="7.7324033"><ele>290.0</ele><time>2026-04-11T11:19:36.448Z</time></trkpt><trkpt lat="44.9985683" lon="7.7322683"><ele>290.0</ele><time>2026-04-11T11:19:38.448Z</time></trkpt><trkpt lat="44.99852" lon="7.732135"><ele>290.0</ele><time>2026-04-11T11:19:40.448Z</time></trkpt><trkpt lat="44.9984917" lon="7.732015"><ele>290.0</ele><time>2026-04-11T11:19:42.448Z</time></trkpt><trkpt lat="44.9984633" lon="7.7319067"><ele>290.0</ele><time>2026-04-11T11:19:44.448Z</time></trkpt><trkpt lat="44.9984367" lon="7.7318167"><ele>290.0</ele><time>2026-04-11T11:19:46.448Z</time></trkpt><trkpt lat="44.998405" lon="7.73173"><ele>290.0</ele><time>2026-04-11T11:19:48.448Z</time></trkpt><trkpt lat="44.9983683" lon="7.7316317"><ele>290.0</ele><time>2026-04-11T11:19:51.448Z</time></trkpt><trkpt lat="44.998335" lon="7.7315283"><ele>290.0</ele><time>2026-04-11T11:19:54.448Z</time></trkpt><trkpt lat="44.9983083" lon="7.7314167"><ele>290.0</ele><time>2026-04-11T11:19:57.449Z</time></trkpt><trkpt lat="44.998285" lon="7.7313083"><ele>290.0</ele><time>2026-04-11T11:20:00.448Z</time></trkpt><trkpt lat="44.9982567" lon="7.7312233"><ele>290.0</ele><time>2026-04-11T11:20:02.448Z</time></trkpt><trkpt lat="44.99822" lon="7.7311183"><ele>290.0</ele><time>2026-04-11T11:20:04.448Z</time></trkpt><trkpt lat="44.998185" lon="7.7310183"><ele>290.57142857142856</ele><time>2026-04-11T11:20:06.448Z</time></trkpt><trkpt lat="44.998155" lon="7.7309217"><ele>291.14285714285717</ele><time>2026-04-11T11:20:08.449Z</time></trkpt><trkpt lat="44.998125" lon="7.7308333"><ele>291.7142857142857</ele><time>2026-04-11T11:20:10.448Z</time></trkpt><trkpt lat="44.99811" lon="7.7307383"><ele>292.2857142857143</ele><time>2026-04-11T11:20:12.448Z</time></trkpt><trkpt lat="44.99815" lon="7.7306667"><ele>292.8571428571429</ele><time>2026-04-11T11:20:14.448Z</time></trkpt><trkpt lat="44.9982283" lon="7.7306417"><ele>293.42857142857144</ele><time>2026-04-11T11:20:16.448Z</time></trkpt><trkpt lat="44.99831" lon="7.7306233"><ele>294.0</ele><time>2026-04-11T11:20:18.448Z</time></trkpt><trkpt lat="44.9983933" lon="7.730625"><ele>294.3333333333333</ele><time>2026-04-11T11:20:20.448Z</time></trkpt><trkpt lat="44.9984667" lon="7.7306367"><ele>294.6666666666667</ele><time>2026-04-11T11:20:22.448Z</time></trkpt><trkpt lat="44.99855" lon="7.7306467"><ele>295.0</ele><time>2026-04-11T11:20:24.448Z</time></trkpt><trkpt lat="44.9986333" lon="7.7306517"><ele>295.33333333333337</ele><time>2026-04-11T11:20:26.448Z</time></trkpt><trkpt lat="44.9987217" lon="7.73066"><ele>295.6666666666667</ele><time>2026-04-11T11:20:28.448Z</time></trkpt><trkpt lat="44.9988333" lon="7.7306717"><ele>296.0</ele><time>2026-04-11T11:20:30.448Z</time></trkpt><trkpt lat="44.9988967" lon="7.7306733"><ele>296.0</ele><time>2026-04-11T11:20:31.448Z</time></trkpt><trkpt lat="44.9989933" lon="7.73064"><ele>296.0</ele><time>2026-04-11T11:20:33.448Z</time></trkpt><trkpt lat="44.9990883" lon="7.7305933"><ele>296.0</ele><time>2026-04-11T11:20:35.448Z</time></trkpt><trkpt lat="44.9991683" lon="7.7305417"><ele>296.0</ele><time>2026-04-11T11:20:37.448Z</time></trkpt><trkpt lat="44.999235" lon="7.7304617"><ele>296.0</ele><time>2026-04-11T11:20:39.448Z</time></trkpt><trkpt lat="44.9992633" lon="7.730355"><ele>296.2</ele><time>2026-04-11T11:20:41.448Z</time></trkpt><trkpt lat="44.9992567" lon="7.7302433"><ele>296.40000000000003</ele><time>2026-04-11T11:20:43.448Z</time></trkpt><trkpt lat="44.9992583" lon="7.7301267"><ele>296.6</ele><time>2026-04-11T11:20:45.448Z</time></trkpt><trkpt lat="44.999275" lon="7.7299883"><ele>296.8</ele><time>2026-04-11T11:20:47.448Z</time></trkpt><trkpt lat="44.9992883" lon="7.7298367"><ele>297.0</ele><time>2026-04-11T11:20:49.448Z</time></trkpt><trkpt lat="44.9993017" lon="7.7296733"><ele>298.0</ele><time>2026-04-11T11:20:51.448Z</time></trkpt><trkpt lat="44.9993067" lon="7.7295717"><ele>299.0</ele><time>2026-04-11T11:20:52.448Z</time></trkpt><trkpt lat="44.9993167" lon="7.729465"><ele>300.0</ele><time>2026-04-11T11:20:53.448Z</time></trkpt><trkpt lat="44.9993233" lon="7.729355"><ele>301.0</ele><time>2026-04-11T11:20:54.448Z</time></trkpt><trkpt lat="44.99932" lon="7.7292533"><ele>302.0</ele><time>2026-04-11T11:20:55.448Z</time></trkpt><trkpt lat="44.999315" lon="7.7291383"><ele>303.0</ele><time>2026-04-11T11:20:56.448Z</time></trkpt><trkpt lat="44.99931" lon="7.7290217"><ele>303.0</ele><time>2026-04-11T11:20:57.448Z</time></trkpt><trkpt lat="44.9993017" lon="7.7289"><ele>303.0</ele><time>2026-04-11T11:20:58.448Z</time></trkpt><trkpt lat="44.999295" lon="7.7287967"><ele>303.0</ele><time>2026-04-11T11:20:59.449Z</time></trkpt><trkpt lat="44.9992883" lon="7.7287"><ele>303.0</ele><time>2026-04-11T11:21:00.448Z</time></trkpt><trkpt lat="44.9992867" lon="7.7286017"><ele>303.0</ele><time>2026-04-11T11:21:01.448Z</time></trkpt><trkpt lat="44.9992983" lon="7.7284517"><ele>303.0</ele><time>2026-04-11T11:21:03.448Z</time></trkpt><trkpt lat="44.99932" lon="7.7283033"><ele>302.4</ele><time>2026-04-11T11:21:05.448Z</time></trkpt><trkpt lat="44.9993633" lon="7.7281267"><ele>301.8</ele><time>2026-04-11T11:21:07.448Z</time></trkpt><trkpt lat="44.999385" lon="7.7280267"><ele>301.2</ele><time>2026-04-11T11:21:08.448Z</time></trkpt><trkpt lat="44.999415" lon="7.7279183"><ele>300.6</ele><time>2026-04-11T11:21:09.448Z</time></trkpt><trkpt lat="44.9994433" lon="7.7278"><ele>300.0</ele><time>2026-04-11T11:21:10.448Z</time></trkpt><trkpt lat="44.9994717" lon="7.727685"><ele>298.57142857142856</ele><time>2026-04-11T11:21:11.448Z</time></trkpt><trkpt lat="44.9995" lon="7.72757"><ele>297.1428571428571</ele><time>2026-04-11T11:21:12.448Z</time></trkpt><trkpt lat="44.999535" lon="7.7274733"><ele>295.7142857142857</ele><time>2026-04-11T11:21:13.448Z</time></trkpt><trkpt lat="44.9995667" lon="7.7273817"><ele>294.2857142857143</ele><time>2026-04-11T11:21:14.448Z</time></trkpt><trkpt lat="44.9996017" lon="7.7272917"><ele>292.8571428571429</ele><time>2026-04-11T11:21:15.448Z</time></trkpt><trkpt lat="44.999635" lon="7.7272117"><ele>291.42857142857144</ele><time>2026-04-11T11:21:16.448Z</time></trkpt><trkpt lat="44.9996683" lon="7.7271217"><ele>290.0</ele><time>2026-04-11T11:21:17.448Z</time></trkpt><trkpt lat="44.999705" lon="7.72702"><ele>290.0</ele><time>2026-04-11T11:21:18.448Z</time></trkpt><trkpt lat="44.9997417" lon="7.7269033"><ele>290.0</ele><time>2026-04-11T11:21:19.448Z</time></trkpt><trkpt lat="44.9997833" lon="7.7267767"><ele>290.0</ele><time>2026-04-11T11:21:20.448Z</time></trkpt><trkpt lat="44.9998167" lon="7.7266517"><ele>290.0</ele><time>2026-04-11T11:21:21.449Z</time></trkpt><trkpt lat="44.9998283" lon="7.7265217"><ele>290.0</ele><time>2026-04-11T11:21:22.448Z</time></trkpt><trkpt lat="44.9998317" lon="7.7263933"><ele>287.0</ele><time>2026-04-11T11:21:23.448Z</time></trkpt><trkpt lat="44.9998283" lon="7.7262583"><ele>284.0</ele><time>2026-04-11T11:21:24.448Z</time></trkpt><trkpt lat="44.9998133" lon="7.7261133"><ele>281.0</ele><time>2026-04-11T11:21:25.448Z</time></trkpt><trkpt lat="44.9997917" lon="7.725965"><ele>278.0</ele><time>2026-04-11T11:21:26.448Z</time></trkpt><trkpt lat="44.9997683" lon="7.7258183"><ele>275.0</ele><time>2026-04-11T11:21:27.448Z</time></trkpt><trkpt lat="44.9997483" lon="7.7256717"><ele>273.0</ele><time>2026-04-11T11:21:28.448Z</time></trkpt><trkpt lat="44.9997133" lon="7.7255283"><ele>271.0</ele><time>2026-04-11T11:21:29.448Z</time></trkpt><trkpt lat="44.9996617" lon="7.7253883"><ele>269.0</ele><time>2026-04-11T11:21:30.448Z</time></trkpt><trkpt lat="44.9996117" lon="7.7252533"><ele>267.0</ele><time>2026-04-11T11:21:31.448Z</time></trkpt><trkpt lat="44.9995583" lon="7.7251217"><ele>265.0</ele><time>2026-04-11T11:21:32.448Z</time></trkpt><trkpt lat="44.9994983" lon="7.7249883"><ele>263.8</ele><time>2026-04-11T11:21:33.448Z</time></trkpt><trkpt lat="44.9994417" lon="7.72486"><ele>262.6</ele><time>2026-04-11T11:21:34.448Z</time></trkpt><trkpt lat="44.9993817" lon="7.724735"><ele>261.4</ele><time>2026-04-11T11:21:35.448Z</time></trkpt><trkpt lat="44.999325" lon="7.7246117"><ele>260.2</ele><time>2026-04-11T11:21:36.448Z</time></trkpt><trkpt lat="44.9992717" lon="7.724485"><ele>259.0</ele><time>2026-04-11T11:21:37.448Z</time></trkpt><trkpt lat="44.999225" lon="7.7243567"><ele>259.0</ele><time>2026-04-11T11:21:38.448Z</time></trkpt><trkpt lat="44.9991817" lon="7.724225"><ele>259.0</ele><time>2026-04-11T11:21:39.448Z</time></trkpt><trkpt lat="44.9991433" lon="7.724095"><ele>259.0</ele><time>2026-04-11T11:21:40.448Z</time></trkpt><trkpt lat="44.9991117" lon="7.7239583"><ele>259.0</ele><time>2026-04-11T11:21:41.448Z</time></trkpt><trkpt lat="44.9990867" lon="7.72382"><ele>259.0</ele><time>2026-04-11T11:21:42.448Z</time></trkpt><trkpt lat="44.9990717" lon="7.7236933"><ele>258.5</ele><time>2026-04-11T11:21:43.448Z</time></trkpt><trkpt lat="44.9990583" lon="7.7235733"><ele>258.0</ele><time>2026-04-11T11:21:44.448Z</time></trkpt><trkpt lat="44.9990483" lon="7.7234617"><ele>257.5</ele><time>2026-04-11T11:21:45.448Z</time></trkpt><trkpt lat="44.9990417" lon="7.7233533"><ele>257.0</ele><time>2026-04-11T11:21:46.448Z</time></trkpt><trkpt lat="44.9990383" lon="7.7232333"><ele>256.5</ele><time>2026-04-11T11:21:47.448Z</time></trkpt><trkpt lat="44.9990483" lon="7.723125"><ele>256.0</ele><time>2026-04-11T11:21:48.448Z</time></trkpt><trkpt lat="44.9990683" lon="7.7230183"><ele>255.66666666666666</ele><time>2026-04-11T11:21:49.448Z</time></trkpt><trkpt lat="44.999085" lon="7.7229183"><ele>255.33333333333331</ele><time>2026-04-11T11:21:50.449Z</time></trkpt><trkpt lat="44.999105" lon="7.7228117"><ele>255.0</ele><time>2026-04-11T11:21:51.448Z</time></trkpt><trkpt lat="44.9991283" lon="7.7227117"><ele>254.66666666666669</ele><time>2026-04-11T11:21:52.448Z</time></trkpt><trkpt lat="44.99915" lon="7.7226183"><ele>254.33333333333334</ele><time>2026-04-11T11:21:53.448Z</time></trkpt><trkpt lat="44.99917" lon="7.7224867"><ele>254.0</ele><time>2026-04-11T11:21:55.449Z</time></trkpt><trkpt lat="44.9991933" lon="7.7223967"><ele>255.00000000000003</ele><time>2026-04-11T11:21:57.448Z</time></trkpt><trkpt lat="44.999235" lon="7.722275"><ele>256.0</ele><time>2026-04-11T11:22:13.448Z</time></trkpt><trkpt lat="44.999235" lon="7.7221667"><ele>257.0</ele><time>2026-04-11T11:22:16.448Z</time></trkpt><trkpt lat="44.9992233" lon="7.7220733"><ele>258.0</ele><time>2026-04-11T11:22:18.448Z</time></trkpt><trkpt lat="44.999215" lon="7.7219667"><ele>259.0</ele><time>2026-04-11T11:22:20.449Z</time></trkpt><trkpt lat="44.9991983" lon="7.7218333"><ele>260.0</ele><time>2026-04-11T11:22:22.448Z</time></trkpt><trkpt lat="44.999175" lon="7.72168"><ele>258.8</ele><time>2026-04-11T11:22:24.448Z</time></trkpt><trkpt lat="44.9991467" lon="7.721525"><ele>257.6</ele><time>2026-04-11T11:22:26.448Z</time></trkpt><trkpt lat="44.9991333" lon="7.7213533"><ele>256.4</ele><time>2026-04-11T11:22:28.448Z</time></trkpt><trkpt lat="44.9991267" lon="7.7212617"><ele>255.2</ele><time>2026-04-11T11:22:29.448Z</time></trkpt><trkpt lat="44.99911" lon="7.721095"><ele>254.0</ele><time>2026-04-11T11:22:31.448Z</time></trkpt><trkpt lat="44.999095" lon="7.7209217"><ele>253.66666666666669</ele><time>2026-04-11T11:22:33.448Z</time></trkpt><trkpt lat="44.9990733" lon="7.72083"><ele>253.33333333333334</ele><time>2026-04-11T11:22:34.448Z</time></trkpt><trkpt lat="44.9990617" lon="7.7207417"><ele>253.0</ele><time>2026-04-11T11:22:35.448Z</time></trkpt><trkpt lat="44.9990383" lon="7.7205683"><ele>252.66666666666669</ele><time>2026-04-11T11:22:37.448Z</time></trkpt><trkpt lat="44.9989933" lon="7.7204"><ele>252.33333333333334</ele><time>2026-04-11T11:22:39.448Z</time></trkpt><trkpt lat="44.99897" lon="7.720315"><ele>252.0</ele><time>2026-04-11T11:22:40.448Z</time></trkpt><trkpt lat="44.998925" lon="7.720175"><ele>252.0</ele><time>2026-04-11T11:22:42.448Z</time></trkpt><trkpt lat="44.9988833" lon="7.7199967"><ele>252.0</ele><time>2026-04-11T11:22:45.448Z</time></trkpt><trkpt lat="44.9988367" lon="7.71988"><ele>252.0</ele><time>2026-04-11T11:22:47.448Z</time></trkpt><trkpt lat="44.99877" lon="7.71975"><ele>252.0</ele><time>2026-04-11T11:22:49.448Z</time></trkpt><trkpt lat="44.998705" lon="7.7196333"><ele>252.0</ele><time>2026-04-11T11:22:51.448Z</time></trkpt><trkpt lat="44.9986383" lon="7.7195117"><ele>251.83333333333334</ele><time>2026-04-11T11:22:53.448Z</time></trkpt><trkpt lat="44.998565" lon="7.7193917"><ele>251.66666666666669</ele><time>2026-04-11T11:22:55.448Z</time></trkpt><trkpt lat="44.9985233" lon="7.7193233"><ele>251.5</ele><time>2026-04-11T11:22:56.448Z</time></trkpt><trkpt lat="44.9984833" lon="7.7192467"><ele>251.33333333333334</ele><time>2026-04-11T11:22:57.449Z</time></trkpt><trkpt lat="44.9984417" lon="7.719175"><ele>251.16666666666669</ele><time>2026-04-11T11:22:58.448Z</time></trkpt><trkpt lat="44.9983983" lon="7.7191017"><ele>251.0</ele><time>2026-04-11T11:22:59.448Z</time></trkpt><trkpt lat="44.998315" lon="7.7189617"><ele>250.99999999999997</ele><time>2026-04-11T11:23:01.448Z</time></trkpt><trkpt lat="44.9982733" lon="7.7188883"><ele>251.0</ele><time>2026-04-11T11:23:02.448Z</time></trkpt><trkpt lat="44.99823" lon="7.7188133"><ele>250.99999999999997</ele><time>2026-04-11T11:23:03.448Z</time></trkpt><trkpt lat="44.9981817" lon="7.7187417"><ele>250.99999999999997</ele><time>2026-04-11T11:23:04.448Z</time></trkpt><trkpt lat="44.9981433" lon="7.7186683"><ele>251.0</ele><time>2026-04-11T11:23:05.448Z</time></trkpt><trkpt lat="44.9981" lon="7.7185933"><ele>250.99999999999997</ele><time>2026-04-11T11:23:06.448Z</time></trkpt><trkpt lat="44.998055" lon="7.71852"><ele>250.99999999999997</ele><time>2026-04-11T11:23:07.448Z</time></trkpt><trkpt lat="44.9980117" lon="7.71845"><ele>251.66666666666669</ele><time>2026-04-11T11:23:08.448Z</time></trkpt><trkpt lat="44.9979733" lon="7.7183733"><ele>252.33333333333334</ele><time>2026-04-11T11:23:09.448Z</time></trkpt><trkpt lat="44.9979317" lon="7.7183017"><ele>253.0</ele><time>2026-04-11T11:23:10.448Z</time></trkpt><trkpt lat="44.99789" lon="7.718235"><ele>253.66666666666669</ele><time>2026-04-11T11:23:11.448Z</time></trkpt><trkpt lat="44.9978083" lon="7.7181117"><ele>254.33333333333334</ele><time>2026-04-11T11:23:13.448Z</time></trkpt><trkpt lat="44.9976983" lon="7.7180417"><ele>255.0</ele><time>2026-04-11T11:23:15.448Z</time></trkpt><trkpt lat="44.9975783" lon="7.717995"><ele>255.0</ele><time>2026-04-11T11:23:17.448Z</time></trkpt><trkpt lat="44.9975117" lon="7.7179767"><ele>255.0</ele><time>2026-04-11T11:23:18.448Z</time></trkpt><trkpt lat="44.99745" lon="7.71795"><ele>255.0</ele><time>2026-04-11T11:23:19.448Z</time></trkpt><trkpt lat="44.9973883" lon="7.7179267"><ele>255.0</ele><time>2026-04-11T11:23:20.448Z</time></trkpt><trkpt lat="44.9973217" lon="7.7179067"><ele>255.0</ele><time>2026-04-11T11:23:21.448Z</time></trkpt><trkpt lat="44.9972583" lon="7.71788"><ele>255.0</ele><time>2026-04-11T11:23:22.448Z</time></trkpt><trkpt lat="44.9971417" lon="7.7178167"><ele>255.6</ele><time>2026-04-11T11:23:24.448Z</time></trkpt><trkpt lat="44.9970817" lon="7.7177783"><ele>256.2</ele><time>2026-04-11T11:23:25.449Z</time></trkpt><trkpt lat="44.99702" lon="7.717735"><ele>256.8</ele><time>2026-04-11T11:23:26.449Z</time></trkpt><trkpt lat="44.996905" lon="7.7176483"><ele>257.4</ele><time>2026-04-11T11:23:28.448Z</time></trkpt><trkpt lat="44.9968517" lon="7.7175983"><ele>258.0</ele><time>2026-04-11T11:23:29.448Z</time></trkpt><trkpt lat="44.9967533" lon="7.717485"><ele>257.99999999999994</ele><time>2026-04-11T11:23:31.448Z</time></trkpt><trkpt lat="44.996705" lon="7.7174217"><ele>258.0</ele><time>2026-04-11T11:23:32.448Z</time></trkpt><trkpt lat="44.99665" lon="7.71736"><ele>258.0</ele><time>2026-04-11T11:23:33.448Z</time></trkpt><trkpt lat="44.996605" lon="7.7172833"><ele>258.0</ele><time>2026-04-11T11:23:34.448Z</time></trkpt><trkpt lat="44.996555" lon="7.7172117"><ele>258.0</ele><time>2026-04-11T11:23:35.448Z</time></trkpt><trkpt lat="44.9965067" lon="7.7171417"><ele>257.99999999999994</ele><time>2026-04-11T11:23:36.448Z</time></trkpt><trkpt lat="44.9964583" lon="7.7170633"><ele>258.0</ele><time>2026-04-11T11:23:37.448Z</time></trkpt><trkpt lat="44.9964033" lon="7.7169917"><ele>257.0</ele><time>2026-04-11T11:23:38.448Z</time></trkpt><trkpt lat="44.9963533" lon="7.7169183"><ele>256.0</ele><time>2026-04-11T11:23:39.448Z</time></trkpt><trkpt lat="44.9963017" lon="7.71684"><ele>255.0</ele><time>2026-04-11T11:23:40.448Z</time></trkpt><trkpt lat="44.996255" lon="7.71676"><ele>254.0</ele><time>2026-04-11T11:23:41.448Z</time></trkpt><trkpt lat="44.996215" lon="7.7166783"><ele>253.0</ele><time>2026-04-11T11:23:42.448Z</time></trkpt><trkpt lat="44.9961683" lon="7.7165867"><ele>252.0</ele><time>2026-04-11T11:23:43.449Z</time></trkpt><trkpt lat="44.996115" lon="7.7165"><ele>252.0</ele><time>2026-04-11T11:23:44.448Z</time></trkpt><trkpt lat="44.9960617" lon="7.7164233"><ele>252.0</ele><time>2026-04-11T11:23:45.448Z</time></trkpt><trkpt lat="44.996015" lon="7.71634"><ele>252.0</ele><time>2026-04-11T11:23:46.448Z</time></trkpt><trkpt lat="44.9959667" lon="7.7162483"><ele>252.0</ele><time>2026-04-11T11:23:47.448Z</time></trkpt><trkpt lat="44.995925" lon="7.7161533"><ele>252.0</ele><time>2026-04-11T11:23:48.448Z</time></trkpt><trkpt lat="44.9958783" lon="7.71606"><ele>252.0</ele><time>2026-04-11T11:23:49.448Z</time></trkpt><trkpt lat="44.9958383" lon="7.7159567"><ele>251.33333333333334</ele><time>2026-04-11T11:23:50.448Z</time></trkpt><trkpt lat="44.9958017" lon="7.7158517"><ele>250.66666666666669</ele><time>2026-04-11T11:23:51.448Z</time></trkpt><trkpt lat="44.9957683" lon="7.7157417"><ele>250.0</ele><time>2026-04-11T11:23:52.448Z</time></trkpt><trkpt lat="44.99575" lon="7.715635"><ele>249.33333333333334</ele><time>2026-04-11T11:23:53.448Z</time></trkpt><trkpt lat="44.995745" lon="7.7155233"><ele>248.66666666666669</ele><time>2026-04-11T11:23:54.448Z</time></trkpt><trkpt lat="44.99576" lon="7.7153817"><ele>248.0</ele><time>2026-04-11T11:23:55.448Z</time></trkpt><trkpt lat="44.9957767" lon="7.7152867"><ele>247.85714285714286</ele><time>2026-04-11T11:23:56.448Z</time></trkpt><trkpt lat="44.9957967" lon="7.7151883"><ele>247.71428571428572</ele><time>2026-04-11T11:23:57.448Z</time></trkpt><trkpt lat="44.9958217" lon="7.715095"><ele>247.57142857142858</ele><time>2026-04-11T11:23:58.448Z</time></trkpt><trkpt lat="44.9958467" lon="7.715005"><ele>247.42857142857144</ele><time>2026-04-11T11:23:59.448Z</time></trkpt><trkpt lat="44.9958667" lon="7.71492"><ele>247.28571428571428</ele><time>2026-04-11T11:24:00.448Z</time></trkpt><trkpt lat="44.99588" lon="7.7148283"><ele>247.14285714285717</ele><time>2026-04-11T11:24:01.448Z</time></trkpt><trkpt lat="44.9959" lon="7.714735"><ele>247.0</ele><time>2026-04-11T11:24:02.448Z</time></trkpt><trkpt lat="44.99592" lon="7.7146383"><ele>248.16666666666666</ele><time>2026-04-11T11:24:03.448Z</time></trkpt><trkpt lat="44.99594" lon="7.7145283"><ele>249.33333333333331</ele><time>2026-04-11T11:24:04.448Z</time></trkpt><trkpt lat="44.9959667" lon="7.714425"><ele>250.5</ele><time>2026-04-11T11:24:05.448Z</time></trkpt><trkpt lat="44.9959983" lon="7.7143217"><ele>251.66666666666669</ele><time>2026-04-11T11:24:06.449Z</time></trkpt><trkpt lat="44.9960383" lon="7.7142233"><ele>252.83333333333334</ele><time>2026-04-11T11:24:07.448Z</time></trkpt><trkpt lat="44.99607" lon="7.7141217"><ele>254.0</ele><time>2026-04-11T11:24:08.448Z</time></trkpt><trkpt lat="44.9961083" lon="7.7140217"><ele>254.00000000000003</ele><time>2026-04-11T11:24:09.448Z</time></trkpt><trkpt lat="44.99614" lon="7.7139183"><ele>254.0</ele><time>2026-04-11T11:24:10.448Z</time></trkpt><trkpt lat="44.9961783" lon="7.71382"><ele>254.0</ele><time>2026-04-11T11:24:11.448Z</time></trkpt><trkpt lat="44.99621" lon="7.7137233"><ele>254.0</ele><time>2026-04-11T11:24:12.449Z</time></trkpt><trkpt lat="44.9962417" lon="7.7136233"><ele>254.00000000000003</ele><time>2026-04-11T11:24:13.448Z</time></trkpt><trkpt lat="44.9962733" lon="7.7135183"><ele>254.0</ele><time>2026-04-11T11:24:14.448Z</time></trkpt><trkpt lat="44.9962983" lon="7.713415"><ele>253.66666666666669</ele><time>2026-04-11T11:24:15.448Z</time></trkpt><trkpt lat="44.9963217" lon="7.7133083"><ele>253.33333333333334</ele><time>2026-04-11T11:24:16.448Z</time></trkpt><trkpt lat="44.99635" lon="7.7132133"><ele>253.0</ele><time>2026-04-11T11:24:17.448Z</time></trkpt><trkpt lat="44.996375" lon="7.7131233"><ele>252.66666666666669</ele><time>2026-04-11T11:24:18.448Z</time></trkpt><trkpt lat="44.996405" lon="7.7130267"><ele>252.33333333333334</ele><time>2026-04-11T11:24:19.448Z</time></trkpt><trkpt lat="44.996435" lon="7.7129283"><ele>252.0</ele><time>2026-04-11T11:24:20.449Z</time></trkpt><trkpt lat="44.9964733" lon="7.71283"><ele>251.33333333333334</ele><time>2026-04-11T11:24:21.448Z</time></trkpt><trkpt lat="44.996505" lon="7.7127317"><ele>250.66666666666669</ele><time>2026-04-11T11:24:22.449Z</time></trkpt><trkpt lat="44.9965383" lon="7.7126317"><ele>250.0</ele><time>2026-04-11T11:24:23.448Z</time></trkpt><trkpt lat="44.9965617" lon="7.712535"><ele>249.33333333333334</ele><time>2026-04-11T11:24:24.448Z</time></trkpt><trkpt lat="44.9965883" lon="7.7124333"><ele>248.66666666666669</ele><time>2026-04-11T11:24:25.448Z</time></trkpt><trkpt lat="44.99662" lon="7.7123383"><ele>248.0</ele><time>2026-04-11T11:24:26.448Z</time></trkpt><trkpt lat="44.996655" lon="7.7122417"><ele>248.16666666666669</ele><time>2026-04-11T11:24:27.448Z</time></trkpt><trkpt lat="44.996685" lon="7.7121517"><ele>248.33333333333334</ele><time>2026-04-11T11:24:28.448Z</time></trkpt><trkpt lat="44.9967117" lon="7.7120633"><ele>248.5</ele><time>2026-04-11T11:24:29.448Z</time></trkpt><trkpt lat="44.99674" lon="7.7119783"><ele>248.66666666666669</ele><time>2026-04-11T11:24:30.448Z</time></trkpt><trkpt lat="44.996775" lon="7.7118933"><ele>248.83333333333334</ele><time>2026-04-11T11:24:31.448Z</time></trkpt><trkpt lat="44.996805" lon="7.71181"><ele>249.0</ele><time>2026-04-11T11:24:32.448Z</time></trkpt><trkpt lat="44.9968667" lon="7.7116617"><ele>249.0</ele><time>2026-04-11T11:24:34.448Z</time></trkpt><trkpt lat="44.9969283" lon="7.71152"><ele>248.99999999999997</ele><time>2026-04-11T11:24:36.448Z</time></trkpt><trkpt lat="44.996975" lon="7.7113883"><ele>248.99999999999997</ele><time>2026-04-11T11:24:38.448Z</time></trkpt><trkpt lat="44.9970217" lon="7.71126"><ele>249.0</ele><time>2026-04-11T11:24:40.448Z</time></trkpt><trkpt lat="44.9970567" lon="7.7111717"><ele>249.0</ele><time>2026-04-11T11:24:42.448Z</time></trkpt><trkpt lat="44.9970933" lon="7.711055"><ele>249.0</ele><time>2026-04-11T11:24:45.448Z</time></trkpt><trkpt lat="44.9971233" lon="7.71094"><ele>249.0</ele><time>2026-04-11T11:24:48.448Z</time></trkpt><trkpt lat="44.9971533" lon="7.7108617"><ele>249.0</ele><time>2026-04-11T11:24:52.448Z</time></trkpt><trkpt lat="44.9971783" lon="7.7107717"><ele>249.0</ele><time>2026-04-11T11:25:08.448Z</time></trkpt><trkpt lat="44.9972083" lon="7.7106483"><ele>249.0</ele><time>2026-04-11T11:25:11.448Z</time></trkpt><trkpt lat="44.9972333" lon="7.7105067"><ele>249.0</ele><time>2026-04-11T11:25:13.448Z</time></trkpt><trkpt lat="44.99726" lon="7.7103417"><ele>249.0</ele><time>2026-04-11T11:25:15.448Z</time></trkpt><trkpt lat="44.99728" lon="7.7102483"><ele>248.99999999999997</ele><time>2026-04-11T11:25:16.448Z</time></trkpt><trkpt lat="44.99731" lon="7.7101533"><ele>249.0</ele><time>2026-04-11T11:25:17.448Z</time></trkpt><trkpt lat="44.9973417" lon="7.7100583"><ele>249.0</ele><time>2026-04-11T11:25:18.448Z</time></trkpt><trkpt lat="44.997375" lon="7.7099717"><ele>248.99999999999997</ele><time>2026-04-11T11:25:19.448Z</time></trkpt><trkpt lat="44.99741" lon="7.709885"><ele>249.0</ele><time>2026-04-11T11:25:20.448Z</time></trkpt><trkpt lat="44.9974433" lon="7.7098033"><ele>249.0</ele><time>2026-04-11T11:25:21.448Z</time></trkpt><trkpt lat="44.99748" lon="7.7097233"><ele>248.85714285714283</ele><time>2026-04-11T11:25:22.449Z</time></trkpt><trkpt lat="44.997515" lon="7.709645"><ele>248.7142857142857</ele><time>2026-04-11T11:25:23.448Z</time></trkpt><trkpt lat="44.99755" lon="7.70956"><ele>248.57142857142856</ele><time>2026-04-11T11:25:24.448Z</time></trkpt><trkpt lat="44.99759" lon="7.7094683"><ele>248.42857142857144</ele><time>2026-04-11T11:25:25.448Z</time></trkpt><trkpt lat="44.9976283" lon="7.70938"><ele>248.2857142857143</ele><time>2026-04-11T11:25:26.448Z</time></trkpt><trkpt lat="44.9976717" lon="7.7092967"><ele>248.14285714285717</ele><time>2026-04-11T11:25:27.448Z</time></trkpt><trkpt lat="44.99771" lon="7.709215"><ele>248.0</ele><time>2026-04-11T11:25:28.448Z</time></trkpt><trkpt lat="44.9977483" lon="7.7091367"><ele>247.83333333333334</ele><time>2026-04-11T11:25:29.448Z</time></trkpt><trkpt lat="44.9977867" lon="7.70905"><ele>247.66666666666669</ele><time>2026-04-11T11:25:30.448Z</time></trkpt><trkpt lat="44.9978183" lon="7.7089567"><ele>247.5</ele><time>2026-04-11T11:25:31.448Z</time></trkpt><trkpt lat="44.9978617" lon="7.7088667"><ele>247.33333333333331</ele><time>2026-04-11T11:25:32.448Z</time></trkpt><trkpt lat="44.9979117" lon="7.7087733"><ele>247.16666666666666</ele><time>2026-04-11T11:25:33.449Z</time></trkpt><trkpt lat="44.997955" lon="7.7086683"><ele>247.0</ele><time>2026-04-11T11:25:34.448Z</time></trkpt><trkpt lat="44.998" lon="7.70856"><ele>246.49999999999997</ele><time>2026-04-11T11:25:35.448Z</time></trkpt><trkpt lat="44.9980433" lon="7.708455"><ele>246.0</ele><time>2026-04-11T11:25:36.448Z</time></trkpt><trkpt lat="44.9980883" lon="7.7083483"><ele>245.5</ele><time>2026-04-11T11:25:37.448Z</time></trkpt><trkpt lat="44.99813" lon="7.7082433"><ele>245.0</ele><time>2026-04-11T11:25:38.448Z</time></trkpt><trkpt lat="44.998175" lon="7.7081433"><ele>244.49999999999997</ele><time>2026-04-11T11:25:39.448Z</time></trkpt><trkpt lat="44.99822" lon="7.7080333"><ele>244.0</ele><time>2026-04-11T11:25:40.448Z</time></trkpt><trkpt lat="44.998265" lon="7.707925"><ele>244.0</ele><time>2026-04-11T11:25:41.448Z</time></trkpt><trkpt lat="44.9983083" lon="7.7078217"><ele>243.99999999999997</ele><time>2026-04-11T11:25:42.448Z</time></trkpt><trkpt lat="44.998355" lon="7.70771"><ele>243.99999999999997</ele><time>2026-04-11T11:25:43.448Z</time></trkpt><trkpt lat="44.9984033" lon="7.7075983"><ele>244.0</ele><time>2026-04-11T11:25:44.448Z</time></trkpt><trkpt lat="44.9984483" lon="7.7074783"><ele>244.0</ele><time>2026-04-11T11:25:45.448Z</time></trkpt><trkpt lat="44.9984917" lon="7.70737"><ele>243.83333333333331</ele><time>2026-04-11T11:25:46.448Z</time></trkpt><trkpt lat="44.9985383" lon="7.7072617"><ele>243.66666666666666</ele><time>2026-04-11T11:25:47.448Z</time></trkpt><trkpt lat="44.9985883" lon="7.7071567"><ele>243.5</ele><time>2026-04-11T11:25:48.448Z</time></trkpt><trkpt lat="44.9986417" lon="7.7070533"><ele>243.33333333333331</ele><time>2026-04-11T11:25:49.448Z</time></trkpt><trkpt lat="44.9986917" lon="7.7069517"><ele>243.16666666666666</ele><time>2026-04-11T11:25:50.448Z</time></trkpt><trkpt lat="44.9987383" lon="7.7068567"><ele>243.0</ele><time>2026-04-11T11:25:51.448Z</time></trkpt><trkpt lat="44.9987867" lon="7.70676"><ele>242.0</ele><time>2026-04-11T11:25:52.449Z</time></trkpt><trkpt lat="44.9988333" lon="7.7066583"><ele>241.0</ele><time>2026-04-11T11:25:53.448Z</time></trkpt><trkpt lat="44.9988733" lon="7.7065583"><ele>240.0</ele><time>2026-04-11T11:25:54.448Z</time></trkpt><trkpt lat="44.998915" lon="7.7064533"><ele>239.0</ele><time>2026-04-11T11:25:55.448Z</time></trkpt><trkpt lat="44.9989583" lon="7.7063483"><ele>238.0</ele><time>2026-04-11T11:25:56.448Z</time></trkpt><trkpt lat="44.9990033" lon="7.7062433"><ele>237.0</ele><time>2026-04-11T11:25:57.448Z</time></trkpt><trkpt lat="44.9990467" lon="7.7061433"><ele>237.16666666666666</ele><time>2026-04-11T11:25:58.449Z</time></trkpt><trkpt lat="44.9990883" lon="7.7060383"><ele>237.33333333333331</ele><time>2026-04-11T11:25:59.448Z</time></trkpt><trkpt lat="44.99913" lon="7.7059317"><ele>237.5</ele><time>2026-04-11T11:26:00.448Z</time></trkpt><trkpt lat="44.999175" lon="7.7058317"><ele>237.66666666666666</ele><time>2026-04-11T11:26:01.448Z</time></trkpt><trkpt lat="44.9992183" lon="7.7057267"><ele>237.83333333333331</ele><time>2026-04-11T11:26:02.448Z</time></trkpt><trkpt lat="44.99926" lon="7.70562"><ele>238.0</ele><time>2026-04-11T11:26:03.448Z</time></trkpt><trkpt lat="44.9993" lon="7.70552"><ele>238.83333333333331</ele><time>2026-04-11T11:26:04.448Z</time></trkpt><trkpt lat="44.9993417" lon="7.70542"><ele>239.66666666666666</ele><time>2026-04-11T11:26:05.448Z</time></trkpt><trkpt lat="44.999375" lon="7.705315"><ele>240.5</ele><time>2026-04-11T11:26:06.448Z</time></trkpt><trkpt lat="44.9994033" lon="7.705205"><ele>241.33333333333331</ele><time>2026-04-11T11:26:07.448Z</time></trkpt><trkpt lat="44.999425" lon="7.7050983"><ele>242.16666666666666</ele><time>2026-04-11T11:26:08.448Z</time></trkpt><trkpt lat="44.9994433" lon="7.704995"><ele>243.0</ele><time>2026-04-11T11:26:09.448Z</time></trkpt><trkpt lat="44.9994633" lon="7.7048883"><ele>243.0</ele><time>2026-04-11T11:26:10.448Z</time></trkpt><trkpt lat="44.9994833" lon="7.70478"><ele>243.0</ele><time>2026-04-11T11:26:11.448Z</time></trkpt><trkpt lat="44.9995133" lon="7.7046717"><ele>243.0</ele><time>2026-04-11T11:26:12.448Z</time></trkpt><trkpt lat="44.9995367" lon="7.7045683"><ele>243.0</ele><time>2026-04-11T11:26:13.448Z</time></trkpt><trkpt lat="44.999555" lon="7.70446"><ele>243.0</ele><time>2026-04-11T11:26:14.448Z</time></trkpt><trkpt lat="44.9995717" lon="7.7043583"><ele>243.0</ele><time>2026-04-11T11:26:15.448Z</time></trkpt><trkpt lat="44.9995967" lon="7.7042583"><ele>243.16666666666666</ele><time>2026-04-11T11:26:16.448Z</time></trkpt><trkpt lat="44.999615" lon="7.704155"><ele>243.33333333333331</ele><time>2026-04-11T11:26:17.448Z</time></trkpt><trkpt lat="44.9996433" lon="7.7040483"><ele>243.5</ele><time>2026-04-11T11:26:18.448Z</time></trkpt><trkpt lat="44.9996667" lon="7.7039467"><ele>243.66666666666666</ele><time>2026-04-11T11:26:19.448Z</time></trkpt><trkpt lat="44.9996883" lon="7.7038433"><ele>243.83333333333331</ele><time>2026-04-11T11:26:20.448Z</time></trkpt><trkpt lat="44.99972" lon="7.7037367"><ele>244.0</ele><time>2026-04-11T11:26:21.448Z</time></trkpt><trkpt lat="44.9997533" lon="7.70363"><ele>243.49999999999997</ele><time>2026-04-11T11:26:22.448Z</time></trkpt><trkpt lat="44.9997833" lon="7.703525"><ele>243.0</ele><time>2026-04-11T11:26:23.448Z</time></trkpt><trkpt lat="44.999815" lon="7.7034167"><ele>242.5</ele><time>2026-04-11T11:26:24.448Z</time></trkpt><trkpt lat="44.9998483" lon="7.70331"><ele>242.0</ele><time>2026-04-11T11:26:25.448Z</time></trkpt><trkpt lat="44.999895" lon="7.7031983"><ele>241.49999999999997</ele><time>2026-04-11T11:26:26.448Z</time></trkpt><trkpt lat="44.9999283" lon="7.7030933"><ele>241.0</ele><time>2026-04-11T11:26:27.448Z</time></trkpt><trkpt lat="44.9999617" lon="7.70299"><ele>240.99999999999997</ele><time>2026-04-11T11:26:28.448Z</time></trkpt><trkpt lat="45.0" lon="7.7028933"><ele>241.0</ele><time>2026-04-11T11:26:29.448Z</time></trkpt><trkpt lat="45.0000483" lon="7.7027917"><ele>241.0</ele><time>2026-04-11T11:26:30.448Z</time></trkpt><trkpt lat="45.000085" lon="7.7026983"><ele>241.0</ele><time>2026-04-11T11:26:31.448Z</time></trkpt><trkpt lat="45.00012" lon="7.702605"><ele>240.99999999999997</ele><time>2026-04-11T11:26:32.448Z</time></trkpt><trkpt lat="45.0001633" lon="7.7025183"><ele>241.0</ele><time>2026-04-11T11:26:33.448Z</time></trkpt><trkpt lat="45.0002033" lon="7.7024267"><ele>241.16666666666666</ele><time>2026-04-11T11:26:34.448Z</time></trkpt><trkpt lat="45.0002467" lon="7.7023333"><ele>241.33333333333331</ele><time>2026-04-11T11:26:35.449Z</time></trkpt><trkpt lat="45.0002867" lon="7.7022333"><ele>241.5</ele><time>2026-04-11T11:26:36.448Z</time></trkpt><trkpt lat="45.0003233" lon="7.70213"><ele>241.66666666666669</ele><time>2026-04-11T11:26:37.448Z</time></trkpt><trkpt lat="45.00035" lon="7.7020283"><ele>241.83333333333334</ele><time>2026-04-11T11:26:38.448Z</time></trkpt><trkpt lat="45.0003967" lon="7.7019317"><ele>242.0</ele><time>2026-04-11T11:26:39.448Z</time></trkpt><trkpt lat="45.0004367" lon="7.701825"><ele>242.00000000000003</ele><time>2026-04-11T11:26:40.448Z</time></trkpt><trkpt lat="45.0004867" lon="7.7017217"><ele>242.0</ele><time>2026-04-11T11:26:41.448Z</time></trkpt><trkpt lat="45.0005333" lon="7.7016167"><ele>242.0</ele><time>2026-04-11T11:26:42.448Z</time></trkpt><trkpt lat="45.0005833" lon="7.701515"><ele>242.0</ele><time>2026-04-11T11:26:43.448Z</time></trkpt><trkpt lat="45.0006233" lon="7.701415"><ele>242.00000000000003</ele><time>2026-04-11T11:26:44.448Z</time></trkpt><trkpt lat="45.000665" lon="7.7013017"><ele>242.0</ele><time>2026-04-11T11:26:45.448Z</time></trkpt><trkpt lat="45.000705" lon="7.7012067"><ele>242.0</ele><time>2026-04-11T11:26:46.448Z</time></trkpt><trkpt lat="45.0007417" lon="7.7011167"><ele>241.99999999999997</ele><time>2026-04-11T11:26:47.448Z</time></trkpt><trkpt lat="45.0007783" lon="7.7010317"><ele>242.0</ele><time>2026-04-11T11:26:48.448Z</time></trkpt><trkpt lat="45.00082" lon="7.7009467"><ele>242.0</ele><time>2026-04-11T11:26:49.448Z</time></trkpt><trkpt lat="45.00086" lon="7.700865"><ele>241.99999999999997</ele><time>2026-04-11T11:26:50.448Z</time></trkpt><trkpt lat="45.0008917" lon="7.7007767"><ele>242.0</ele><time>2026-04-11T11:26:51.448Z</time></trkpt><trkpt lat="45.0009267" lon="7.70068"><ele>242.0</ele><time>2026-04-11T11:26:52.448Z</time></trkpt><trkpt lat="45.0009533" lon="7.7005783"><ele>242.16666666666669</ele><time>2026-04-11T11:26:53.448Z</time></trkpt><trkpt lat="45.0009717" lon="7.7004633"><ele>242.33333333333334</ele><time>2026-04-11T11:26:54.448Z</time></trkpt><trkpt lat="45.0009967" lon="7.7003467"><ele>242.5</ele><time>2026-04-11T11:26:55.448Z</time></trkpt><trkpt lat="45.001015" lon="7.70023"><ele>242.66666666666669</ele><time>2026-04-11T11:26:56.448Z</time></trkpt><trkpt lat="45.0010317" lon="7.7001183"><ele>242.83333333333334</ele><time>2026-04-11T11:26:57.448Z</time></trkpt><trkpt lat="45.0010433" lon="7.7000133"><ele>243.0</ele><time>2026-04-11T11:26:58.449Z</time></trkpt><trkpt lat="45.0010517" lon="7.6999"><ele>243.0</ele><time>2026-04-11T11:26:59.448Z</time></trkpt><trkpt lat="45.0010667" lon="7.6997917"><ele>243.0</ele><time>2026-04-11T11:27:00.448Z</time></trkpt><trkpt lat="45.0010717" lon="7.699675"><ele>243.0</ele><time>2026-04-11T11:27:01.448Z</time></trkpt><trkpt lat="45.0010783" lon="7.699565"><ele>243.0</ele><time>2026-04-11T11:27:02.448Z</time></trkpt><trkpt lat="45.0010917" lon="7.6994583"><ele>243.0</ele><time>2026-04-11T11:27:03.448Z</time></trkpt><trkpt lat="45.0011083" lon="7.6993583"><ele>243.0</ele><time>2026-04-11T11:27:04.449Z</time></trkpt><trkpt lat="45.0011167" lon="7.6992667"><ele>242.42857142857142</ele><time>2026-04-11T11:27:05.448Z</time></trkpt><trkpt lat="45.00113" lon="7.699165"><ele>241.8571428571429</ele><time>2026-04-11T11:27:06.448Z</time></trkpt><trkpt lat="45.001145" lon="7.6990583"><ele>241.2857142857143</ele><time>2026-04-11T11:27:07.448Z</time></trkpt><trkpt lat="45.0011683" lon="7.698955"><ele>240.71428571428572</ele><time>2026-04-11T11:27:08.448Z</time></trkpt><trkpt lat="45.0011883" lon="7.6988633"><ele>240.14285714285717</ele><time>2026-04-11T11:27:09.448Z</time></trkpt><trkpt lat="45.0012117" lon="7.6987717"><ele>239.5714285714286</ele><time>2026-04-11T11:27:10.448Z</time></trkpt><trkpt lat="45.0012317" lon="7.6986867"><ele>239.00000000000003</ele><time>2026-04-11T11:27:11.448Z</time></trkpt><trkpt lat="45.0012933" lon="7.69854"><ele>239.33333333333334</ele><time>2026-04-11T11:27:13.448Z</time></trkpt><trkpt lat="45.001345" lon="7.6984883"><ele>239.66666666666669</ele><time>2026-04-11T11:27:14.448Z</time></trkpt><trkpt lat="45.0014067" lon="7.69846"><ele>240.0</ele><time>2026-04-11T11:27:15.448Z</time></trkpt><trkpt lat="45.00151" lon="7.698425"><ele>240.33333333333331</ele><time>2026-04-11T11:27:17.448Z</time></trkpt><trkpt lat="45.0016033" lon="7.69842"><ele>240.66666666666666</ele><time>2026-04-11T11:27:19.448Z</time></trkpt><trkpt lat="45.00169" lon="7.69842"><ele>241.0</ele><time>2026-04-11T11:27:21.448Z</time></trkpt><trkpt lat="45.00179" lon="7.698425"><ele>240.99999999999997</ele><time>2026-04-11T11:27:23.448Z</time></trkpt><trkpt lat="45.0019033" lon="7.6984167"><ele>241.0</ele><time>2026-04-11T11:27:25.448Z</time></trkpt><trkpt lat="45.00203" lon="7.698395"><ele>241.0</ele><time>2026-04-11T11:27:27.448Z</time></trkpt><trkpt lat="45.0020967" lon="7.6983767"><ele>241.0</ele><time>2026-04-11T11:27:28.448Z</time></trkpt><trkpt lat="45.002165" lon="7.69835"><ele>240.99999999999997</ele><time>2026-04-11T11:27:29.448Z</time></trkpt><trkpt lat="45.0022267" lon="7.6983083"><ele>241.0</ele><time>2026-04-11T11:27:30.448Z</time></trkpt><trkpt lat="45.002285" lon="7.6982583"><ele>241.0</ele><time>2026-04-11T11:27:31.448Z</time></trkpt><trkpt lat="45.0023367" lon="7.698195"><ele>241.00000000000003</ele><time>2026-04-11T11:27:32.448Z</time></trkpt><trkpt lat="45.0023783" lon="7.6981133"><ele>241.0</ele><time>2026-04-11T11:27:33.448Z</time></trkpt><trkpt lat="45.0024067" lon="7.6980183"><ele>241.0</ele><time>2026-04-11T11:27:34.448Z</time></trkpt><trkpt lat="45.0024283" lon="7.6979217"><ele>241.00000000000003</ele><time>2026-04-11T11:27:35.448Z</time></trkpt><trkpt lat="45.002445" lon="7.69782"><ele>241.0</ele><time>2026-04-11T11:27:36.448Z</time></trkpt><trkpt lat="45.0024633" lon="7.6977167"><ele>241.0</ele><time>2026-04-11T11:27:37.448Z</time></trkpt><trkpt lat="45.0024817" lon="7.6976167"><ele>242.42857142857144</ele><time>2026-04-11T11:27:38.448Z</time></trkpt><trkpt lat="45.0024983" lon="7.69752"><ele>243.8571428571429</ele><time>2026-04-11T11:27:39.449Z</time></trkpt><trkpt lat="45.0025133" lon="7.6974233"><ele>245.28571428571428</ele><time>2026-04-11T11:27:40.448Z</time></trkpt><trkpt lat="45.0025333" lon="7.69733"><ele>246.71428571428572</ele><time>2026-04-11T11:27:41.448Z</time></trkpt><trkpt lat="45.0025567" lon="7.69723"><ele>248.14285714285714</ele><time>2026-04-11T11:27:42.448Z</time></trkpt><trkpt lat="45.0025717" lon="7.69714"><ele>249.57142857142856</ele><time>2026-04-11T11:27:43.448Z</time></trkpt><trkpt lat="45.0025867" lon="7.6970467"><ele>250.99999999999997</ele><time>2026-04-11T11:27:44.448Z</time></trkpt><trkpt lat="45.0026167" lon="7.6969533"><ele>251.00000000000003</ele><time>2026-04-11T11:27:45.448Z</time></trkpt><trkpt lat="45.0026467" lon="7.69686"><ele>251.0</ele><time>2026-04-11T11:27:46.448Z</time></trkpt><trkpt lat="45.00268" lon="7.6967683"><ele>251.0</ele><time>2026-04-11T11:27:47.448Z</time></trkpt><trkpt lat="45.0027067" lon="7.6966767"><ele>251.0</ele><time>2026-04-11T11:27:48.448Z</time></trkpt><trkpt lat="45.0027417" lon="7.6966017"><ele>251.00000000000003</ele><time>2026-04-11T11:27:49.448Z</time></trkpt><trkpt lat="45.002805" lon="7.696455"><ele>251.0</ele><time>2026-04-11T11:27:51.448Z</time></trkpt><trkpt lat="45.0028617" lon="7.6963033"><ele>250.99999999999997</ele><time>2026-04-11T11:27:53.448Z</time></trkpt><trkpt lat="45.0028917" lon="7.696215"><ele>251.0</ele><time>2026-04-11T11:27:54.448Z</time></trkpt><trkpt lat="45.0029183" lon="7.6961267"><ele>250.99999999999997</ele><time>2026-04-11T11:27:55.448Z</time></trkpt><trkpt lat="45.0029417" lon="7.696035"><ele>250.99999999999997</ele><time>2026-04-11T11:27:56.448Z</time></trkpt><trkpt lat="45.002965" lon="7.6959383"><ele>251.0</ele><time>2026-04-11T11:27:57.448Z</time></trkpt><trkpt lat="45.002985" lon="7.695845"><ele>250.99999999999997</ele><time>2026-04-11T11:27:58.448Z</time></trkpt><trkpt lat="45.0030017" lon="7.6957483"><ele>250.99999999999997</ele><time>2026-04-11T11:27:59.448Z</time></trkpt><trkpt lat="45.003005" lon="7.6956517"><ele>250.85714285714283</ele><time>2026-04-11T11:28:00.448Z</time></trkpt><trkpt lat="45.0030033" lon="7.6955483"><ele>250.71428571428572</ele><time>2026-04-11T11:28:01.448Z</time></trkpt><trkpt lat="45.0029967" lon="7.695445"><ele>250.57142857142856</ele><time>2026-04-11T11:28:02.448Z</time></trkpt><trkpt lat="45.0029867" lon="7.6953417"><ele>250.42857142857142</ele><time>2026-04-11T11:28:03.448Z</time></trkpt><trkpt lat="45.002975" lon="7.6952417"><ele>250.28571428571428</ele><time>2026-04-11T11:28:04.448Z</time></trkpt><trkpt lat="45.00296" lon="7.6951483"><ele>250.14285714285714</ele><time>2026-04-11T11:28:05.448Z</time></trkpt><trkpt lat="45.002945" lon="7.6950417"><ele>250.0</ele><time>2026-04-11T11:28:06.448Z</time></trkpt><trkpt lat="45.00294" lon="7.694935"><ele>249.28571428571428</ele><time>2026-04-11T11:28:07.448Z</time></trkpt><trkpt lat="45.0029383" lon="7.6948333"><ele>248.57142857142858</ele><time>2026-04-11T11:28:08.448Z</time></trkpt><trkpt lat="45.0029317" lon="7.6947283"><ele>247.85714285714286</ele><time>2026-04-11T11:28:09.448Z</time></trkpt><trkpt lat="45.00293" lon="7.6946333"><ele>247.14285714285714</ele><time>2026-04-11T11:28:10.448Z</time></trkpt><trkpt lat="45.002935" lon="7.6945317"><ele>246.42857142857144</ele><time>2026-04-11T11:28:11.448Z</time></trkpt><trkpt lat="45.002935" lon="7.69444"><ele>245.71428571428572</ele><time>2026-04-11T11:28:12.448Z</time></trkpt><trkpt lat="45.002945" lon="7.694345"><ele>245.0</ele><time>2026-04-11T11:28:13.448Z</time></trkpt><trkpt lat="45.00298" lon="7.69417"><ele>244.6</ele><time>2026-04-11T11:28:15.449Z</time></trkpt><trkpt lat="45.0029917" lon="7.6940783"><ele>244.2</ele><time>2026-04-11T11:28:16.448Z</time></trkpt><trkpt lat="45.0030083" lon="7.693895"><ele>243.8</ele><time>2026-04-11T11:28:18.448Z</time></trkpt><trkpt lat="45.0030283" lon="7.69372"><ele>243.4</ele><time>2026-04-11T11:28:20.448Z</time></trkpt><trkpt lat="45.0030317" lon="7.6936283"><ele>243.0</ele><time>2026-04-11T11:28:21.448Z</time></trkpt><trkpt lat="45.003025" lon="7.693535"><ele>243.8</ele><time>2026-04-11T11:28:22.448Z</time></trkpt><trkpt lat="45.00304" lon="7.6933733"><ele>244.60000000000002</ele><time>2026-04-11T11:28:24.448Z</time></trkpt><trkpt lat="45.0030617" lon="7.69319"><ele>245.39999999999998</ele><time>2026-04-11T11:28:26.448Z</time></trkpt><trkpt lat="45.0030683" lon="7.6930867"><ele>246.2</ele><time>2026-04-11T11:28:27.448Z</time></trkpt><trkpt lat="45.0030917" lon="7.69292"><ele>247.0</ele><time>2026-04-11T11:28:29.448Z</time></trkpt><trkpt lat="45.003115" lon="7.692765"><ele>247.0</ele><time>2026-04-11T11:28:31.448Z</time></trkpt><trkpt lat="45.0031317" lon="7.6925967"><ele>247.0</ele><time>2026-04-11T11:28:33.448Z</time></trkpt><trkpt lat="45.0031383" lon="7.69244"><ele>247.0</ele><time>2026-04-11T11:28:35.448Z</time></trkpt><trkpt lat="45.0031467" lon="7.692295"><ele>247.0</ele><time>2026-04-11T11:28:37.448Z</time></trkpt><trkpt lat="45.0031633" lon="7.69216"><ele>247.0</ele><time>2026-04-11T11:28:39.448Z</time></trkpt><trkpt lat="45.003175" lon="7.6920233"><ele>247.49999999999997</ele><time>2026-04-11T11:28:41.448Z</time></trkpt><trkpt lat="45.0031783" lon="7.6918933"><ele>248.0</ele><time>2026-04-11T11:28:43.448Z</time></trkpt><trkpt lat="45.0031867" lon="7.691775"><ele>248.5</ele><time>2026-04-11T11:28:45.448Z</time></trkpt><trkpt lat="45.0032" lon="7.6916567"><ele>249.0</ele><time>2026-04-11T11:28:47.448Z</time></trkpt><trkpt lat="45.003205" lon="7.69153"><ele>249.49999999999997</ele><time>2026-04-11T11:28:49.448Z</time></trkpt><trkpt lat="45.0032017" lon="7.6914033"><ele>250.0</ele><time>2026-04-11T11:28:51.448Z</time></trkpt><trkpt lat="45.0031967" lon="7.6912683"><ele>250.0</ele><time>2026-04-11T11:28:53.448Z</time></trkpt><trkpt lat="45.0031983" lon="7.6911233"><ele>250.0</ele><time>2026-04-11T11:28:55.448Z</time></trkpt><trkpt lat="45.0031933" lon="7.6909683"><ele>250.0</ele><time>2026-04-11T11:28:57.449Z</time></trkpt><trkpt lat="45.0031783" lon="7.6908183"><ele>250.0</ele><time>2026-04-11T11:28:59.448Z</time></trkpt><trkpt lat="45.0031567" lon="7.6906767"><ele>250.0</ele><time>2026-04-11T11:29:01.448Z</time></trkpt><trkpt lat="45.003125" lon="7.690555"><ele>250.8</ele><time>2026-04-11T11:29:03.448Z</time></trkpt><trkpt lat="45.00309" lon="7.6904283"><ele>251.6</ele><time>2026-04-11T11:29:05.448Z</time></trkpt><trkpt lat="45.0030533" lon="7.690285"><ele>252.39999999999998</ele><time>2026-04-11T11:29:07.448Z</time></trkpt><trkpt lat="45.003015" lon="7.69014"><ele>253.2</ele><time>2026-04-11T11:29:09.448Z</time></trkpt><trkpt lat="45.0029733" lon="7.6899983"><ele>254.0</ele><time>2026-04-11T11:29:11.448Z</time></trkpt><trkpt lat="45.00293" lon="7.6898567"><ele>255.2</ele><time>2026-04-11T11:29:13.448Z</time></trkpt><trkpt lat="45.0028767" lon="7.68973"><ele>256.4</ele><time>2026-04-11T11:29:15.449Z</time></trkpt><trkpt lat="45.0028283" lon="7.6896033"><ele>257.6</ele><time>2026-04-11T11:29:17.448Z</time></trkpt><trkpt lat="45.0027833" lon="7.6894933"><ele>258.8</ele><time>2026-04-11T11:29:19.448Z</time></trkpt><trkpt lat="45.0027383" lon="7.6893933"><ele>260.0</ele><time>2026-04-11T11:29:21.448Z</time></trkpt><trkpt lat="45.0026733" lon="7.68932"><ele>260.0</ele><time>2026-04-11T11:29:23.448Z</time></trkpt><trkpt lat="45.0025867" lon="7.6892683"><ele>260.0</ele><time>2026-04-11T11:29:25.449Z</time></trkpt><trkpt lat="45.0025017" lon="7.68923"><ele>260.0</ele><time>2026-04-11T11:29:27.448Z</time></trkpt><trkpt lat="45.0024" lon="7.689185"><ele>260.0</ele><time>2026-04-11T11:29:29.448Z</time></trkpt><trkpt lat="45.0022883" lon="7.6891167"><ele>260.0</ele><time>2026-04-11T11:29:31.448Z</time></trkpt><trkpt lat="45.00223" lon="7.689065"><ele>260.0</ele><time>2026-04-11T11:29:32.448Z</time></trkpt><trkpt lat="45.0021733" lon="7.6890167"><ele>260.0</ele><time>2026-04-11T11:29:33.448Z</time></trkpt><trkpt lat="45.0021183" lon="7.6889617"><ele>260.0</ele><time>2026-04-11T11:29:34.448Z</time></trkpt><trkpt lat="45.0020533" lon="7.6888967"><ele>260.0</ele><time>2026-04-11T11:29:35.448Z</time></trkpt><trkpt lat="45.0019867" lon="7.6888367"><ele>260.0</ele><time>2026-04-11T11:29:36.448Z</time></trkpt><trkpt lat="45.00191" lon="7.6888033"><ele>260.0</ele><time>2026-04-11T11:29:37.448Z</time></trkpt><trkpt lat="45.0018317" lon="7.68875"><ele>260.0</ele><time>2026-04-11T11:29:38.448Z</time></trkpt><trkpt lat="45.001755" lon="7.6886917"><ele>260.0</ele><time>2026-04-11T11:29:39.448Z</time></trkpt><trkpt lat="45.0016833" lon="7.6886383"><ele>260.0</ele><time>2026-04-11T11:29:40.448Z</time></trkpt><trkpt lat="45.0016167" lon="7.68857"><ele>260.0</ele><time>2026-04-11T11:29:41.448Z</time></trkpt><trkpt lat="45.001565" lon="7.68849"><ele>260.0</ele><time>2026-04-11T11:29:42.448Z</time></trkpt><trkpt lat="45.00154" lon="7.688385"><ele>260.0</ele><time>2026-04-11T11:29:43.449Z</time></trkpt><trkpt lat="45.0015383" lon="7.6882583"><ele>258.33333333333337</ele><time>2026-04-11T11:29:44.448Z</time></trkpt><trkpt lat="45.0015467" lon="7.688145"><ele>256.6666666666667</ele><time>2026-04-11T11:29:45.448Z</time></trkpt><trkpt lat="45.001545" lon="7.68804"><ele>255.0</ele><time>2026-04-11T11:29:46.448Z</time></trkpt><trkpt lat="45.00156" lon="7.6879133"><ele>253.33333333333331</ele><time>2026-04-11T11:29:48.448Z</time></trkpt><trkpt lat="45.0014967" lon="7.6878417"><ele>251.66666666666666</ele><time>2026-04-11T11:29:58.448Z</time></trkpt><trkpt lat="45.0014683" lon="7.6877333"><ele>250.0</ele><time>2026-04-11T11:30:00.448Z</time></trkpt><trkpt lat="45.001445" lon="7.6875733"><ele>249.99999999999997</ele><time>2026-04-11T11:30:02.448Z</time></trkpt><trkpt lat="45.0014333" lon="7.6874733"><ele>250.0</ele><time>2026-04-11T11:30:03.448Z</time></trkpt><trkpt lat="45.0014117" lon="7.6873617"><ele>250.0</ele><time>2026-04-11T11:30:04.448Z</time></trkpt><trkpt lat="45.001395" lon="7.6872633"><ele>250.0</ele><time>2026-04-11T11:30:05.448Z</time></trkpt><trkpt lat="45.0013767" lon="7.687175"><ele>249.99999999999997</ele><time>2026-04-11T11:30:06.448Z</time></trkpt><trkpt lat="45.0013483" lon="7.6870133"><ele>250.0</ele><time>2026-04-11T11:30:08.448Z</time></trkpt><trkpt lat="45.0013233" lon="7.686875"><ele>250.83333333333331</ele><time>2026-04-11T11:30:10.448Z</time></trkpt><trkpt lat="45.0012983" lon="7.68674"><ele>251.66666666666666</ele><time>2026-04-11T11:30:12.448Z</time></trkpt><trkpt lat="45.00127" lon="7.68661"><ele>252.5</ele><time>2026-04-11T11:30:14.448Z</time></trkpt><trkpt lat="45.0012617" lon="7.6864917"><ele>253.33333333333331</ele><time>2026-04-11T11:30:17.448Z</time></trkpt><trkpt lat="45.0013033" lon="7.6864117"><ele>254.16666666666666</ele><time>2026-04-11T11:30:20.449Z</time></trkpt><trkpt lat="45.0013583" lon="7.686365"><ele>255.0</ele><time>2026-04-11T11:30:22.448Z</time></trkpt><trkpt lat="45.0014183" lon="7.68632"><ele>255.0</ele><time>2026-04-11T11:30:24.448Z</time></trkpt><trkpt lat="45.0014517" lon="7.6862083"><ele>255.0</ele><time>2026-04-11T11:30:28.448Z</time></trkpt><trkpt lat="45.0014267" lon="7.686105"><ele>255.0</ele><time>2026-04-11T11:30:30.448Z</time></trkpt><trkpt lat="45.0013583" lon="7.686"><ele>255.0</ele><time>2026-04-11T11:30:32.448Z</time></trkpt><trkpt lat="45.00129" lon="7.68586"><ele>255.0</ele><time>2026-04-11T11:30:34.448Z</time></trkpt><trkpt lat="45.0012233" lon="7.6857083"><ele>256.0</ele><time>2026-04-11T11:30:36.448Z</time></trkpt><trkpt lat="45.0011867" lon="7.685615"><ele>257.0</ele><time>2026-04-11T11:30:37.448Z</time></trkpt><trkpt lat="45.0011533" lon="7.685535"><ele>258.0</ele><time>2026-04-11T11:30:38.448Z</time></trkpt><trkpt lat="45.0011217" lon="7.6853683"><ele>259.0</ele><time>2026-04-11T11:30:40.448Z</time></trkpt><trkpt lat="45.0011067" lon="7.6852333"><ele>260.0</ele><time>2026-04-11T11:30:42.448Z</time></trkpt><trkpt lat="45.0010767" lon="7.6851333"><ele>261.0</ele><time>2026-04-11T11:30:45.448Z</time></trkpt><trkpt lat="45.0011236" lon="7.6849908"><ele>261.0</ele><time>2026-04-11T11:32:25.609Z</time></trkpt><trkpt lat="45.001061" lon="7.6849741"><ele>261.0</ele><time>2026-04-11T11:34:12.472Z</time></trkpt><trkpt lat="45.0010926" lon="7.6850526"><ele>261.0</ele><time>2026-04-11T11:36:21.526Z</time></trkpt><trkpt lat="45.0010773" lon="7.6851398"><ele>261.0</ele><time>2026-04-11T11:38:00.543Z</time></trkpt><trkpt lat="45.0010817" lon="7.68504"><ele>261.0</ele><time>2026-04-11T11:39:39.455Z</time></trkpt><trkpt lat="45.0010367" lon="7.6849467"><ele>261.0</ele><time>2026-04-11T11:39:41.455Z</time></trkpt><trkpt lat="45.0009983" lon="7.6848683"><ele>261.0</ele><time>2026-04-11T11:39:43.456Z</time></trkpt><trkpt lat="45.0009567" lon="7.684785"><ele>261.0</ele><time>2026-04-11T11:39:45.455Z</time></trkpt><trkpt lat="45.0009017" lon="7.6846917"><ele>261.0</ele><time>2026-04-11T11:39:48.455Z</time></trkpt><trkpt lat="45.0008467" lon="7.68459"><ele>261.0</ele><time>2026-04-11T11:39:51.455Z</time></trkpt><trkpt lat="45.000805" lon="7.6845217"><ele>261.0</ele><time>2026-04-11T11:39:53.455Z</time></trkpt><trkpt lat="45.0007617" lon="7.684425"><ele>261.0</ele><time>2026-04-11T11:39:56.455Z</time></trkpt><trkpt lat="45.000725" lon="7.6843333"><ele>261.0</ele><time>2026-04-11T11:40:00.455Z</time></trkpt><trkpt lat="45.0006867" lon="7.6842533"><ele>260.0</ele><time>2026-04-11T11:40:03.455Z</time></trkpt><trkpt lat="45.0006417" lon="7.6841683"><ele>259.0</ele><time>2026-04-11T11:40:06.455Z</time></trkpt><trkpt lat="45.0007017" lon="7.6840967"><ele>258.0</ele><time>2026-04-11T11:40:09.455Z</time></trkpt><trkpt lat="45.000785" lon="7.68404"><ele>257.0</ele><time>2026-04-11T11:40:11.455Z</time></trkpt><trkpt lat="45.0008683" lon="7.6839733"><ele>256.0</ele><time>2026-04-11T11:40:13.455Z</time></trkpt><trkpt lat="45.000935" lon="7.68391"><ele>255.0</ele><time>2026-04-11T11:40:15.455Z</time></trkpt><trkpt lat="45.001" lon="7.6838383"><ele>255.0</ele><time>2026-04-11T11:40:18.455Z</time></trkpt><trkpt lat="45.0010217" lon="7.683725"><ele>255.0</ele><time>2026-04-11T11:40:22.455Z</time></trkpt><trkpt lat="45.00099" lon="7.68363"><ele>255.0</ele><time>2026-04-11T11:40:24.455Z</time></trkpt><trkpt lat="45.00095" lon="7.68352"><ele>255.0</ele><time>2026-04-11T11:40:26.455Z</time></trkpt><trkpt lat="45.0008633" lon="7.6833567"><ele>255.0</ele><time>2026-04-11T11:40:28.455Z</time></trkpt><trkpt lat="45.00082" lon="7.6832683"><ele>254.33333333333334</ele><time>2026-04-11T11:40:29.455Z</time></trkpt><trkpt lat="45.0007783" lon="7.68318"><ele>253.66666666666669</ele><time>2026-04-11T11:40:30.455Z</time></trkpt><trkpt lat="45.0007417" lon="7.683095"><ele>253.0</ele><time>2026-04-11T11:40:31.456Z</time></trkpt><trkpt lat="45.000705" lon="7.6830067"><ele>252.33333333333334</ele><time>2026-04-11T11:40:32.455Z</time></trkpt><trkpt lat="45.0006683" lon="7.682915"><ele>251.66666666666669</ele><time>2026-04-11T11:40:33.455Z</time></trkpt><trkpt lat="45.00064" lon="7.6828117"><ele>251.0</ele><time>2026-04-11T11:40:34.455Z</time></trkpt><trkpt lat="45.00061" lon="7.6827017"><ele>250.33333333333334</ele><time>2026-04-11T11:40:35.455Z</time></trkpt><trkpt lat="45.0005783" lon="7.6825983"><ele>249.66666666666669</ele><time>2026-04-11T11:40:36.455Z</time></trkpt><trkpt lat="45.0005467" lon="7.6825083"><ele>249.0</ele><time>2026-04-11T11:40:37.455Z</time></trkpt><trkpt lat="45.000515" lon="7.682425"><ele>248.33333333333331</ele><time>2026-04-11T11:40:38.455Z</time></trkpt><trkpt lat="45.000445" lon="7.6822683"><ele>247.66666666666666</ele><time>2026-04-11T11:40:40.455Z</time></trkpt><trkpt lat="45.00041" lon="7.68219"><ele>247.0</ele><time>2026-04-11T11:40:41.455Z</time></trkpt><trkpt lat="45.0003683" lon="7.6821033"><ele>246.99999999999997</ele><time>2026-04-11T11:40:42.455Z</time></trkpt><trkpt lat="45.0003317" lon="7.6820117"><ele>247.0</ele><time>2026-04-11T11:40:43.455Z</time></trkpt><trkpt lat="45.0003017" lon="7.6819067"><ele>247.0</ele><time>2026-04-11T11:40:44.455Z</time></trkpt><trkpt lat="45.0002717" lon="7.6817967"><ele>247.0</ele><time>2026-04-11T11:40:45.455Z</time></trkpt><trkpt lat="45.0002383" lon="7.68168"><ele>246.99999999999997</ele><time>2026-04-11T11:40:46.455Z</time></trkpt><trkpt lat="45.000205" lon="7.6815783"><ele>247.0</ele><time>2026-04-11T11:40:47.455Z</time></trkpt><trkpt lat="45.0001733" lon="7.6814817"><ele>245.39999999999998</ele><time>2026-04-11T11:40:48.455Z</time></trkpt><trkpt lat="45.00015" lon="7.6813917"><ele>243.79999999999998</ele><time>2026-04-11T11:40:49.455Z</time></trkpt><trkpt lat="45.0000967" lon="7.68125"><ele>242.2</ele><time>2026-04-11T11:40:51.455Z</time></trkpt><trkpt lat="45.0000483" lon="7.6811167"><ele>240.6</ele><time>2026-04-11T11:40:53.455Z</time></trkpt><trkpt lat="45.000015" lon="7.6809667"><ele>239.0</ele><time>2026-04-11T11:40:55.455Z</time></trkpt><trkpt lat="44.9999933" lon="7.6808183"><ele>238.28571428571433</ele><time>2026-04-11T11:40:57.455Z</time></trkpt><trkpt lat="44.9999583" lon="7.6807133"><ele>237.57142857142858</ele><time>2026-04-11T11:40:59.455Z</time></trkpt><trkpt lat="44.9999133" lon="7.6806233"><ele>236.8571428571429</ele><time>2026-04-11T11:41:01.455Z</time></trkpt><trkpt lat="44.9998517" lon="7.6806017"><ele>236.14285714285717</ele><time>2026-04-11T11:41:05.455Z</time></trkpt><trkpt lat="44.9997917" lon="7.6806467"><ele>235.42857142857144</ele><time>2026-04-11T11:41:07.455Z</time></trkpt><trkpt lat="44.9997283" lon="7.68066"><ele>234.71428571428572</ele><time>2026-04-11T11:41:09.456Z</time></trkpt><trkpt lat="44.999645" lon="7.6806417"><ele>234.0</ele><time>2026-04-11T11:41:11.455Z</time></trkpt><trkpt lat="44.999555" lon="7.68063"><ele>234.0</ele><time>2026-04-11T11:41:13.455Z</time></trkpt><trkpt lat="44.999485" lon="7.6806283"><ele>234.0</ele><time>2026-04-11T11:41:14.455Z</time></trkpt><trkpt lat="44.9994217" lon="7.6806183"><ele>234.0</ele><time>2026-04-11T11:41:15.455Z</time></trkpt><trkpt lat="44.99934" lon="7.6805717"><ele>234.0</ele><time>2026-04-11T11:41:17.456Z</time></trkpt><trkpt lat="44.99928" lon="7.6804767"><ele>234.0</ele><time>2026-04-11T11:41:19.455Z</time></trkpt><trkpt lat="44.9992483" lon="7.6803917"><ele>234.0</ele><time>2026-04-11T11:41:20.455Z</time></trkpt><trkpt lat="44.999205" lon="7.6802583"><ele>233.16666666666666</ele><time>2026-04-11T11:41:22.455Z</time></trkpt><trkpt lat="44.9992467" lon="7.6801633"><ele>232.33333333333331</ele><time>2026-04-11T11:41:26.455Z</time></trkpt><trkpt lat="44.9993067" lon="7.68012"><ele>231.5</ele><time>2026-04-11T11:41:30.455Z</time></trkpt><trkpt lat="44.9993933" lon="7.6800817"><ele>230.66666666666666</ele><time>2026-04-11T11:41:33.455Z</time></trkpt><trkpt lat="44.9994717" lon="7.68006"><ele>229.83333333333331</ele><time>2026-04-11T11:41:35.455Z</time></trkpt><trkpt lat="44.9995433" lon="7.680045"><ele>229.0</ele><time>2026-04-11T11:41:37.455Z</time></trkpt><trkpt lat="44.9996233" lon="7.6800233"><ele>228.99999999999997</ele><time>2026-04-11T11:41:39.456Z</time></trkpt><trkpt lat="44.9996967" lon="7.6800067"><ele>229.0</ele><time>2026-04-11T11:41:41.456Z</time></trkpt><trkpt lat="44.99977" lon="7.6800067"><ele>229.0</ele><time>2026-04-11T11:41:43.455Z</time></trkpt><trkpt lat="44.9998583" lon="7.6799867"><ele>229.0</ele><time>2026-04-11T11:41:45.455Z</time></trkpt><trkpt lat="44.9999417" lon="7.6799"><ele>228.99999999999997</ele><time>2026-04-11T11:41:47.455Z</time></trkpt><trkpt lat="45.000015" lon="7.6798233"><ele>229.0</ele><time>2026-04-11T11:41:49.455Z</time></trkpt><trkpt lat="45.0000933" lon="7.6797667"><ele>229.0</ele><time>2026-04-11T11:41:51.455Z</time></trkpt><trkpt lat="45.0001833" lon="7.679715"><ele>228.99999999999997</ele><time>2026-04-11T11:41:53.455Z</time></trkpt><trkpt lat="45.0002567" lon="7.6796533"><ele>228.99999999999997</ele><time>2026-04-11T11:41:55.455Z</time></trkpt><trkpt lat="45.0003183" lon="7.67955"><ele>229.0</ele><time>2026-04-11T11:41:57.455Z</time></trkpt><trkpt lat="45.0004183" lon="7.6794417"><ele>229.0</ele><time>2026-04-11T11:41:59.455Z</time></trkpt><trkpt lat="45.00047" lon="7.67939"><ele>228.25</ele><time>2026-04-11T11:42:00.455Z</time></trkpt><trkpt lat="45.00056" lon="7.679275"><ele>227.5</ele><time>2026-04-11T11:42:02.455Z</time></trkpt><trkpt lat="45.00065" lon="7.67916"><ele>226.75</ele><time>2026-04-11T11:42:04.456Z</time></trkpt><trkpt lat="45.0007333" lon="7.6790367"><ele>226.0</ele><time>2026-04-11T11:42:06.455Z</time></trkpt><trkpt lat="45.0008183" lon="7.67892"><ele>224.8</ele><time>2026-04-11T11:42:08.455Z</time></trkpt><trkpt lat="45.0008983" lon="7.6788167"><ele>223.60000000000002</ele><time>2026-04-11T11:42:10.455Z</time></trkpt><trkpt lat="45.0009767" lon="7.6787183"><ele>222.4</ele><time>2026-04-11T11:42:12.455Z</time></trkpt><trkpt lat="45.0010533" lon="7.6786183"><ele>221.2</ele><time>2026-04-11T11:42:14.455Z</time></trkpt><trkpt lat="45.00113" lon="7.678525"><ele>220.0</ele><time>2026-04-11T11:42:16.455Z</time></trkpt><trkpt lat="45.0011967" lon="7.6784317"><ele>220.0</ele><time>2026-04-11T11:42:18.455Z</time></trkpt><trkpt lat="45.0012883" lon="7.678305"><ele>220.0</ele><time>2026-04-11T11:42:21.455Z</time></trkpt><trkpt lat="45.0013633" lon="7.6782133"><ele>220.0</ele><time>2026-04-11T11:42:23.455Z</time></trkpt><trkpt lat="45.0014467" lon="7.6781083"><ele>220.0</ele><time>2026-04-11T11:42:25.455Z</time></trkpt><trkpt lat="45.00152" lon="7.6780217"><ele>220.0</ele><time>2026-04-11T11:42:27.455Z</time></trkpt><trkpt lat="45.0016033" lon="7.6779467"><ele>220.2</ele><time>2026-04-11T11:42:29.455Z</time></trkpt><trkpt lat="45.00168" lon="7.677855"><ele>220.4</ele><time>2026-04-11T11:42:31.455Z</time></trkpt><trkpt lat="45.0017583" lon="7.6777683"><ele>220.60000000000002</ele><time>2026-04-11T11:42:33.455Z</time></trkpt><trkpt lat="45.0018333" lon="7.6776633"><ele>220.8</ele><time>2026-04-11T11:42:35.455Z</time></trkpt><trkpt lat="45.0019067" lon="7.6775633"><ele>221.0</ele><time>2026-04-11T11:42:37.455Z</time></trkpt><trkpt lat="45.0019733" lon="7.67756"><ele>221.00000000000003</ele><time>2026-04-11T11:42:40.455Z</time></trkpt><trkpt lat="45.0019733" lon="7.6776517"><ele>221.0</ele><time>2026-04-11T11:42:42.455Z</time></trkpt><trkpt lat="45.0019983" lon="7.6777683"><ele>221.0</ele><time>2026-04-11T11:42:44.455Z</time></trkpt><trkpt lat="45.0020433" lon="7.67793"><ele>221.0</ele><time>2026-04-11T11:42:46.455Z</time></trkpt><trkpt lat="45.0020683" lon="7.678035"><ele>221.00000000000003</ele><time>2026-04-11T11:42:47.455Z</time></trkpt><trkpt lat="45.0020867" lon="7.6781533"><ele>221.0</ele><time>2026-04-11T11:42:48.455Z</time></trkpt><trkpt lat="45.0021033" lon="7.6782717"><ele>220.16666666666669</ele><time>2026-04-11T11:42:49.455Z</time></trkpt><trkpt lat="45.0021217" lon="7.6783867"><ele>219.33333333333334</ele><time>2026-04-11T11:42:50.455Z</time></trkpt><trkpt lat="45.002135" lon="7.6784983"><ele>218.5</ele><time>2026-04-11T11:42:51.455Z</time></trkpt><trkpt lat="45.0021417" lon="7.6786067"><ele>217.66666666666669</ele><time>2026-04-11T11:42:52.455Z</time></trkpt><trkpt lat="45.0021467" lon="7.67871"><ele>216.83333333333334</ele><time>2026-04-11T11:42:53.455Z</time></trkpt><trkpt lat="45.002155" lon="7.678815"><ele>216.0</ele><time>2026-04-11T11:42:54.455Z</time></trkpt><trkpt lat="45.0021567" lon="7.67892"><ele>216.0</ele><time>2026-04-11T11:42:55.455Z</time></trkpt><trkpt lat="45.0021683" lon="7.6790117"><ele>216.0</ele><time>2026-04-11T11:42:56.455Z</time></trkpt><trkpt lat="45.0022133" lon="7.6791783"><ele>216.0</ele><time>2026-04-11T11:42:58.455Z</time></trkpt><trkpt lat="45.002255" lon="7.679265"><ele>216.0</ele><time>2026-04-11T11:42:59.455Z</time></trkpt><trkpt lat="45.0023017" lon="7.67935"><ele>216.0</ele><time>2026-04-11T11:43:00.455Z</time></trkpt><trkpt lat="45.00235" lon="7.6794383"><ele>216.0</ele><time>2026-04-11T11:43:01.455Z</time></trkpt><trkpt lat="45.002405" lon="7.6795217"><ele>215.83333333333334</ele><time>2026-04-11T11:43:02.455Z</time></trkpt><trkpt lat="45.0024467" lon="7.6796067"><ele>215.66666666666669</ele><time>2026-04-11T11:43:03.455Z</time></trkpt><trkpt lat="45.0024917" lon="7.67968"><ele>215.5</ele><time>2026-04-11T11:43:04.455Z</time></trkpt><trkpt lat="45.0025333" lon="7.6797583"><ele>215.33333333333334</ele><time>2026-04-11T11:43:05.455Z</time></trkpt><trkpt lat="45.0025717" lon="7.6798333"><ele>215.16666666666669</ele><time>2026-04-11T11:43:06.455Z</time></trkpt><trkpt lat="45.0026483" lon="7.6799667"><ele>215.0</ele><time>2026-04-11T11:43:08.455Z</time></trkpt><trkpt lat="45.0027417" lon="7.680085"><ele>215.0</ele><time>2026-04-11T11:43:10.455Z</time></trkpt><trkpt lat="45.0028167" lon="7.6801983"><ele>215.0</ele><time>2026-04-11T11:43:12.456Z</time></trkpt><trkpt lat="45.002875" lon="7.680295"><ele>215.0</ele><time>2026-04-11T11:43:14.455Z</time></trkpt><trkpt lat="45.00294" lon="7.6804167"><ele>215.0</ele><time>2026-04-11T11:43:16.455Z</time></trkpt><trkpt lat="45.0030133" lon="7.6805517"><ele>215.0</ele><time>2026-04-11T11:43:18.455Z</time></trkpt><trkpt lat="45.003085" lon="7.68069"><ele>216.0</ele><time>2026-04-11T11:43:20.455Z</time></trkpt><trkpt lat="45.003125" lon="7.6807633"><ele>217.0</ele><time>2026-04-11T11:43:21.455Z</time></trkpt><trkpt lat="45.0031967" lon="7.6809"><ele>218.0</ele><time>2026-04-11T11:43:23.455Z</time></trkpt><trkpt lat="45.003265" lon="7.6809983"><ele>219.0</ele><time>2026-04-11T11:43:25.455Z</time></trkpt><trkpt lat="45.0033317" lon="7.68111"><ele>220.0</ele><time>2026-04-11T11:43:27.455Z</time></trkpt><trkpt lat="45.0033983" lon="7.6812167"><ele>220.0</ele><time>2026-04-11T11:43:29.455Z</time></trkpt><trkpt lat="45.0034767" lon="7.68133"><ele>220.0</ele><time>2026-04-11T11:43:31.455Z</time></trkpt><trkpt lat="45.0035683" lon="7.6814533"><ele>220.0</ele><time>2026-04-11T11:43:33.455Z</time></trkpt><trkpt lat="45.0036617" lon="7.68157"><ele>220.0</ele><time>2026-04-11T11:43:35.455Z</time></trkpt><trkpt lat="45.0037483" lon="7.6816833"><ele>220.0</ele><time>2026-04-11T11:43:37.455Z</time></trkpt><trkpt lat="45.0038217" lon="7.6817767"><ele>220.0</ele><time>2026-04-11T11:43:39.455Z</time></trkpt><trkpt lat="45.0038917" lon="7.6818717"><ele>220.0</ele><time>2026-04-11T11:43:41.455Z</time></trkpt><trkpt lat="45.0039517" lon="7.6819633"><ele>220.0</ele><time>2026-04-11T11:43:43.455Z</time></trkpt><trkpt lat="45.0040167" lon="7.6820567"><ele>220.0</ele><time>2026-04-11T11:43:45.455Z</time></trkpt><trkpt lat="45.0040833" lon="7.68214"><ele>220.0</ele><time>2026-04-11T11:43:47.455Z</time></trkpt><trkpt lat="45.0041567" lon="7.6822317"><ele>220.0</ele><time>2026-04-11T11:43:49.455Z</time></trkpt><trkpt lat="45.00424" lon="7.682325"><ele>220.0</ele><time>2026-04-11T11:43:51.455Z</time></trkpt><trkpt lat="45.0043183" lon="7.6823983"><ele>220.0</ele><time>2026-04-11T11:43:53.455Z</time></trkpt><trkpt lat="45.0043833" lon="7.6824683"><ele>220.0</ele><time>2026-04-11T11:43:55.455Z</time></trkpt><trkpt lat="45.0044317" lon="7.682555"><ele>219.99999999999997</ele><time>2026-04-11T11:43:58.455Z</time></trkpt><trkpt lat="45.00447" lon="7.68264"><ele>220.0</ele><time>2026-04-11T11:44:02.455Z</time></trkpt><trkpt lat="45.0045183" lon="7.6827483"><ele>220.0</ele><time>2026-04-11T11:44:05.456Z</time></trkpt><trkpt lat="45.0045683" lon="7.68282"><ele>220.0</ele><time>2026-04-11T11:44:07.456Z</time></trkpt><trkpt lat="45.00464" lon="7.6828917"><ele>219.99999999999997</ele><time>2026-04-11T11:44:09.455Z</time></trkpt><trkpt lat="45.00473" lon="7.682995"><ele>220.0</ele><time>2026-04-11T11:44:11.455Z</time></trkpt><trkpt lat="45.0047883" lon="7.6830467"><ele>220.4</ele><time>2026-04-11T11:44:12.455Z</time></trkpt><trkpt lat="45.0048433" lon="7.6830933"><ele>220.8</ele><time>2026-04-11T11:44:13.455Z</time></trkpt><trkpt lat="45.0048983" lon="7.6831367"><ele>221.2</ele><time>2026-04-11T11:44:14.455Z</time></trkpt><trkpt lat="45.0049967" lon="7.683225"><ele>221.6</ele><time>2026-04-11T11:44:16.456Z</time></trkpt><trkpt lat="45.00509" lon="7.6833133"><ele>222.0</ele><time>2026-04-11T11:44:18.455Z</time></trkpt><trkpt lat="45.00519" lon="7.6834017"><ele>222.16666666666666</ele><time>2026-04-11T11:44:20.455Z</time></trkpt><trkpt lat="45.00525" lon="7.68345"><ele>222.33333333333331</ele><time>2026-04-11T11:44:21.455Z</time></trkpt><trkpt lat="45.00531" lon="7.6835"><ele>222.5</ele><time>2026-04-11T11:44:22.455Z</time></trkpt><trkpt lat="45.0053717" lon="7.68354"><ele>222.66666666666666</ele><time>2026-04-11T11:44:23.455Z</time></trkpt><trkpt lat="45.0054333" lon="7.6835817"><ele>222.83333333333331</ele><time>2026-04-11T11:44:24.456Z</time></trkpt><trkpt lat="45.0055517" lon="7.6836433"><ele>223.0</ele><time>2026-04-11T11:44:26.455Z</time></trkpt><trkpt lat="45.005615" lon="7.683675"><ele>223.4</ele><time>2026-04-11T11:44:27.455Z</time></trkpt><trkpt lat="45.00568" lon="7.6837"><ele>223.8</ele><time>2026-04-11T11:44:28.455Z</time></trkpt><trkpt lat="45.0057433" lon="7.6837067"><ele>224.2</ele><time>2026-04-11T11:44:29.455Z</time></trkpt><trkpt lat="45.0058617" lon="7.6836667"><ele>224.6</ele><time>2026-04-11T11:44:31.455Z</time></trkpt><trkpt lat="45.0059683" lon="7.6835933"><ele>225.0</ele><time>2026-04-11T11:44:33.455Z</time></trkpt><trkpt lat="45.0060733" lon="7.683515"><ele>224.33333333333334</ele><time>2026-04-11T11:44:35.455Z</time></trkpt><trkpt lat="45.00617" lon="7.6834983"><ele>223.66666666666669</ele><time>2026-04-11T11:44:37.455Z</time></trkpt><trkpt lat="45.0062517" lon="7.6835083"><ele>223.0</ele><time>2026-04-11T11:44:40.455Z</time></trkpt><trkpt lat="45.0063367" lon="7.6835033"><ele>222.33333333333334</ele><time>2026-04-11T11:44:43.455Z</time></trkpt><trkpt lat="45.0064233" lon="7.6835083"><ele>221.66666666666669</ele><time>2026-04-11T11:44:45.455Z</time></trkpt><trkpt lat="45.00652" lon="7.6835217"><ele>221.0</ele><time>2026-04-11T11:44:47.455Z</time></trkpt><trkpt lat="45.0066117" lon="7.6835533"><ele>220.60000000000002</ele><time>2026-04-11T11:44:49.455Z</time></trkpt><trkpt lat="45.0067017" lon="7.6835667"><ele>220.20000000000002</ele><time>2026-04-11T11:44:51.455Z</time></trkpt><trkpt lat="45.00681" lon="7.6835767"><ele>219.79999999999998</ele><time>2026-04-11T11:44:53.455Z</time></trkpt><trkpt lat="45.00693" lon="7.6835917"><ele>219.39999999999998</ele><time>2026-04-11T11:44:55.455Z</time></trkpt><trkpt lat="45.0069933" lon="7.6836017"><ele>219.0</ele><time>2026-04-11T11:44:56.455Z</time></trkpt><trkpt lat="45.0071117" lon="7.6836117"><ele>219.0</ele><time>2026-04-11T11:44:58.455Z</time></trkpt><trkpt lat="45.00723" lon="7.6835867"><ele>219.0</ele><time>2026-04-11T11:45:00.455Z</time></trkpt><trkpt lat="45.0073433" lon="7.6835483"><ele>219.0</ele><time>2026-04-11T11:45:02.455Z</time></trkpt><trkpt lat="45.0074667" lon="7.6835333"><ele>219.0</ele><time>2026-04-11T11:45:04.455Z</time></trkpt><trkpt lat="45.0075783" lon="7.683525"><ele>219.2</ele><time>2026-04-11T11:45:06.455Z</time></trkpt><trkpt lat="45.0076783" lon="7.6835217"><ele>219.39999999999998</ele><time>2026-04-11T11:45:08.455Z</time></trkpt><trkpt lat="45.0077583" lon="7.68351"><ele>219.6</ele><time>2026-04-11T11:45:10.455Z</time></trkpt><trkpt lat="45.00783" lon="7.6834717"><ele>219.8</ele><time>2026-04-11T11:45:12.455Z</time></trkpt><trkpt lat="45.0079117" lon="7.6834217"><ele>220.0</ele><time>2026-04-11T11:45:14.455Z</time></trkpt><trkpt lat="45.0080067" lon="7.6833517"><ele>219.99999999999997</ele><time>2026-04-11T11:45:16.455Z</time></trkpt><trkpt lat="45.00812" lon="7.6832883"><ele>220.0</ele><time>2026-04-11T11:45:18.455Z</time></trkpt><trkpt lat="45.00818" lon="7.6832567"><ele>220.0</ele><time>2026-04-11T11:45:19.455Z</time></trkpt><trkpt lat="45.0082517" lon="7.6832233"><ele>220.0</ele><time>2026-04-11T11:45:20.455Z</time></trkpt><trkpt lat="45.00832" lon="7.6831933"><ele>219.99999999999997</ele><time>2026-04-11T11:45:21.455Z</time></trkpt><trkpt lat="45.0083767" lon="7.6831433"><ele>220.0</ele><time>2026-04-11T11:45:22.455Z</time></trkpt><trkpt lat="45.0084283" lon="7.6830917"><ele>219.6</ele><time>2026-04-11T11:45:23.455Z</time></trkpt><trkpt lat="45.0085167" lon="7.6829783"><ele>219.2</ele><time>2026-04-11T11:45:25.455Z</time></trkpt><trkpt lat="45.008595" lon="7.6828617"><ele>218.8</ele><time>2026-04-11T11:45:27.455Z</time></trkpt><trkpt lat="45.0086717" lon="7.6827817"><ele>218.4</ele><time>2026-04-11T11:45:29.455Z</time></trkpt><trkpt lat="45.0087433" lon="7.682715"><ele>218.0</ele><time>2026-04-11T11:45:31.455Z</time></trkpt><trkpt lat="45.00881" lon="7.6826567"><ele>217.8</ele><time>2026-04-11T11:45:33.455Z</time></trkpt><trkpt lat="45.0088717" lon="7.6826"><ele>217.60000000000002</ele><time>2026-04-11T11:45:35.455Z</time></trkpt><trkpt lat="45.0089683" lon="7.6825017"><ele>217.39999999999998</ele><time>2026-04-11T11:45:37.455Z</time></trkpt><trkpt lat="45.0090267" lon="7.6824583"><ele>217.2</ele><time>2026-04-11T11:45:38.455Z</time></trkpt><trkpt lat="45.009085" lon="7.68242"><ele>217.0</ele><time>2026-04-11T11:45:39.455Z</time></trkpt><trkpt lat="45.0091966" lon="7.6823205"><ele>216.83333333333331</ele><time>2026-04-11T11:45:41.455Z</time></trkpt><trkpt lat="45.0092545" lon="7.6822669"><ele>216.66666666666666</ele><time>2026-04-11T11:45:42.455Z</time></trkpt><trkpt lat="45.0093098" lon="7.6822125"><ele>216.5</ele><time>2026-04-11T11:45:43.455Z</time></trkpt><trkpt lat="45.0093652" lon="7.6821678"><ele>216.33333333333331</ele><time>2026-04-11T11:45:44.455Z</time></trkpt><trkpt lat="45.0094717" lon="7.6820963"><ele>216.16666666666666</ele><time>2026-04-11T11:45:46.455Z</time></trkpt><trkpt lat="45.009532" lon="7.6820525"><ele>216.0</ele><time>2026-04-11T11:45:47.455Z</time></trkpt><trkpt lat="45.0095861" lon="7.6820046"><ele>216.0</ele><time>2026-04-11T11:45:48.455Z</time></trkpt><trkpt lat="45.0096367" lon="7.6819451"><ele>216.0</ele><time>2026-04-11T11:45:49.455Z</time></trkpt><trkpt lat="45.009687" lon="7.6818854"><ele>216.0</ele><time>2026-04-11T11:45:50.455Z</time></trkpt><trkpt lat="45.0097415" lon="7.6818302"><ele>216.0</ele><time>2026-04-11T11:45:51.455Z</time></trkpt><trkpt lat="45.0097926" lon="7.6817747"><ele>216.0</ele><time>2026-04-11T11:45:52.455Z</time></trkpt><trkpt lat="45.0098453" lon="7.6817131"><ele>216.0</ele><time>2026-04-11T11:45:53.455Z</time></trkpt><trkpt lat="45.0098932" lon="7.6816493"><ele>216.0</ele><time>2026-04-11T11:45:54.455Z</time></trkpt><trkpt lat="45.0099374" lon="7.6815821"><ele>217.0</ele><time>2026-04-11T11:45:55.455Z</time></trkpt><trkpt lat="45.0100113" lon="7.6814641"><ele>218.00000000000003</ele><time>2026-04-11T11:45:57.455Z</time></trkpt><trkpt lat="45.0100977" lon="7.6813485"><ele>219.00000000000003</ele><time>2026-04-11T11:45:59.455Z</time></trkpt><trkpt lat="45.0102043" lon="7.681256"><ele>220.0</ele><time>2026-04-11T11:46:01.455Z</time></trkpt><trkpt lat="45.0102572" lon="7.6812077"><ele>221.0</ele><time>2026-04-11T11:46:02.455Z</time></trkpt><trkpt lat="45.0103107" lon="7.6811601"><ele>221.20000000000002</ele><time>2026-04-11T11:46:03.455Z</time></trkpt><trkpt lat="45.0104102" lon="7.6810703"><ele>221.40000000000003</ele><time>2026-04-11T11:46:05.455Z</time></trkpt><trkpt lat="45.0105181" lon="7.6809942"><ele>221.6</ele><time>2026-04-11T11:46:07.455Z</time></trkpt><trkpt lat="45.0105793" lon="7.6809521"><ele>221.8</ele><time>2026-04-11T11:46:08.455Z</time></trkpt><trkpt lat="45.0106454" lon="7.6809007"><ele>222.0</ele><time>2026-04-11T11:46:09.456Z</time></trkpt><trkpt lat="45.0107127" lon="7.6808432"><ele>222.0</ele><time>2026-04-11T11:46:10.455Z</time></trkpt><trkpt lat="45.0107715" lon="7.680781"><ele>222.0</ele><time>2026-04-11T11:46:11.455Z</time></trkpt><trkpt lat="45.0108258" lon="7.6807274"><ele>222.0</ele><time>2026-04-11T11:46:12.455Z</time></trkpt><trkpt lat="45.0108833" lon="7.6806583"><ele>222.0</ele><time>2026-04-11T11:46:13.456Z</time></trkpt><trkpt lat="45.01094" lon="7.6805933"><ele>222.0</ele><time>2026-04-11T11:46:14.455Z</time></trkpt><trkpt lat="45.0109983" lon="7.680535"><ele>222.0</ele><time>2026-04-11T11:46:15.455Z</time></trkpt><trkpt lat="45.0110517" lon="7.680475"><ele>222.0</ele><time>2026-04-11T11:46:16.455Z</time></trkpt><trkpt lat="45.0111583" lon="7.6803967"><ele>222.0</ele><time>2026-04-11T11:46:18.455Z</time></trkpt><trkpt lat="45.011265" lon="7.680325"><ele>222.0</ele><time>2026-04-11T11:46:20.455Z</time></trkpt><trkpt lat="45.0113467" lon="7.6802417"><ele>222.0</ele><time>2026-04-11T11:46:22.455Z</time></trkpt><trkpt lat="45.0114233" lon="7.6801433"><ele>222.0</ele><time>2026-04-11T11:46:24.455Z</time></trkpt><trkpt lat="45.0114983" lon="7.6800383"><ele>222.0</ele><time>2026-04-11T11:46:26.455Z</time></trkpt><trkpt lat="45.0115817" lon="7.6799367"><ele>222.0</ele><time>2026-04-11T11:46:28.455Z</time></trkpt><trkpt lat="45.0116267" lon="7.6798667"><ele>222.0</ele><time>2026-04-11T11:46:29.455Z</time></trkpt><trkpt lat="45.0117067" lon="7.6797533"><ele>222.0</ele><time>2026-04-11T11:46:31.455Z</time></trkpt><trkpt lat="45.0118017" lon="7.6796633"><ele>222.0</ele><time>2026-04-11T11:46:33.455Z</time></trkpt><trkpt lat="45.0119033" lon="7.6795933"><ele>222.0</ele><time>2026-04-11T11:46:35.455Z</time></trkpt><trkpt lat="45.012" lon="7.6795317"><ele>222.0</ele><time>2026-04-11T11:46:37.455Z</time></trkpt><trkpt lat="45.0120867" lon="7.6794883"><ele>222.0</ele><time>2026-04-11T11:46:39.456Z</time></trkpt><trkpt lat="45.0121667" lon="7.6794383"><ele>222.0</ele><time>2026-04-11T11:46:41.455Z</time></trkpt><trkpt lat="45.0122383" lon="7.6793733"><ele>222.0</ele><time>2026-04-11T11:46:43.455Z</time></trkpt><trkpt lat="45.0123033" lon="7.6793017"><ele>222.0</ele><time>2026-04-11T11:46:45.455Z</time></trkpt><trkpt lat="45.0124" lon="7.679225"><ele>221.5</ele><time>2026-04-11T11:46:47.455Z</time></trkpt><trkpt lat="45.01251" lon="7.6791433"><ele>221.0</ele><time>2026-04-11T11:46:49.455Z</time></trkpt><trkpt lat="45.01262" lon="7.679085"><ele>220.5</ele><time>2026-04-11T11:46:51.456Z</time></trkpt><trkpt lat="45.012725" lon="7.6790417"><ele>220.0</ele><time>2026-04-11T11:46:53.455Z</time></trkpt><trkpt lat="45.01283" lon="7.6790117"><ele>219.99999999999997</ele><time>2026-04-11T11:46:55.455Z</time></trkpt><trkpt lat="45.0129517" lon="7.6789617"><ele>220.0</ele><time>2026-04-11T11:46:57.455Z</time></trkpt><trkpt lat="45.0130133" lon="7.6789333"><ele>220.0</ele><time>2026-04-11T11:46:58.455Z</time></trkpt><trkpt lat="45.01308" lon="7.678905"><ele>220.0</ele><time>2026-04-11T11:46:59.455Z</time></trkpt><trkpt lat="45.0131467" lon="7.67887"><ele>219.99999999999997</ele><time>2026-04-11T11:47:00.455Z</time></trkpt><trkpt lat="45.0132033" lon="7.678825"><ele>220.0</ele><time>2026-04-11T11:47:01.455Z</time></trkpt><trkpt lat="45.0133067" lon="7.6787317"><ele>219.66666666666666</ele><time>2026-04-11T11:47:03.455Z</time></trkpt><trkpt lat="45.0133567" lon="7.6786767"><ele>219.33333333333331</ele><time>2026-04-11T11:47:04.456Z</time></trkpt><trkpt lat="45.0134533" lon="7.6785717"><ele>219.0</ele><time>2026-04-11T11:47:06.455Z</time></trkpt><trkpt lat="45.0135083" lon="7.6785233"><ele>218.66666666666669</ele><time>2026-04-11T11:47:07.455Z</time></trkpt><trkpt lat="45.0135717" lon="7.6784783"><ele>218.33333333333334</ele><time>2026-04-11T11:47:08.455Z</time></trkpt><trkpt lat="45.01368" lon="7.678385"><ele>218.0</ele><time>2026-04-11T11:47:10.455Z</time></trkpt><trkpt lat="45.0137317" lon="7.6783333"><ele>218.00000000000003</ele><time>2026-04-11T11:47:11.455Z</time></trkpt><trkpt lat="45.0137883" lon="7.6782833"><ele>218.0</ele><time>2026-04-11T11:47:12.455Z</time></trkpt><trkpt lat="45.0138483" lon="7.6782333"><ele>218.0</ele><time>2026-04-11T11:47:13.455Z</time></trkpt><trkpt lat="45.013905" lon="7.6781767"><ele>218.0</ele><time>2026-04-11T11:47:14.455Z</time></trkpt><trkpt lat="45.014025" lon="7.6780917"><ele>218.00000000000003</ele><time>2026-04-11T11:47:16.455Z</time></trkpt><trkpt lat="45.0140867" lon="7.6780517"><ele>218.0</ele><time>2026-04-11T11:47:17.456Z</time></trkpt><trkpt lat="45.0141467" lon="7.678"><ele>218.66666666666669</ele><time>2026-04-11T11:47:18.456Z</time></trkpt><trkpt lat="45.0142017" lon="7.6779433"><ele>219.33333333333334</ele><time>2026-04-11T11:47:19.455Z</time></trkpt><trkpt lat="45.0143133" lon="7.6778433"><ele>220.0</ele><time>2026-04-11T11:47:21.455Z</time></trkpt><trkpt lat="45.0143667" lon="7.6777833"><ele>220.66666666666669</ele><time>2026-04-11T11:47:22.455Z</time></trkpt><trkpt lat="45.014415" lon="7.67772"><ele>221.33333333333334</ele><time>2026-04-11T11:47:23.455Z</time></trkpt><trkpt lat="45.014465" lon="7.6776617"><ele>222.0</ele><time>2026-04-11T11:47:24.455Z</time></trkpt><trkpt lat="45.014515" lon="7.6776067"><ele>222.0</ele><time>2026-04-11T11:47:25.455Z</time></trkpt><trkpt lat="45.014615" lon="7.67752"><ele>222.0</ele><time>2026-04-11T11:47:27.455Z</time></trkpt><trkpt lat="45.0147083" lon="7.6774367"><ele>222.0</ele><time>2026-04-11T11:47:29.455Z</time></trkpt><trkpt lat="45.0147967" lon="7.6773333"><ele>222.0</ele><time>2026-04-11T11:47:31.455Z</time></trkpt><trkpt lat="45.0148967" lon="7.677235"><ele>222.0</ele><time>2026-04-11T11:47:33.455Z</time></trkpt><trkpt lat="45.0149483" lon="7.67717"><ele>222.0</ele><time>2026-04-11T11:47:34.455Z</time></trkpt><trkpt lat="45.0149983" lon="7.6771117"><ele>222.0</ele><time>2026-04-11T11:47:35.455Z</time></trkpt><trkpt lat="45.0150483" lon="7.67705"><ele>222.0</ele><time>2026-04-11T11:47:36.455Z</time></trkpt><trkpt lat="45.0150983" lon="7.6769867"><ele>222.0</ele><time>2026-04-11T11:47:37.455Z</time></trkpt><trkpt lat="45.0151467" lon="7.6769283"><ele>222.0</ele><time>2026-04-11T11:47:38.455Z</time></trkpt><trkpt lat="45.0152317" lon="7.676825"><ele>222.0</ele><time>2026-04-11T11:47:40.455Z</time></trkpt><trkpt lat="45.01532" lon="7.6767133"><ele>222.33333333333334</ele><time>2026-04-11T11:47:42.455Z</time></trkpt><trkpt lat="45.0153617" lon="7.67664"><ele>222.66666666666669</ele><time>2026-04-11T11:47:43.455Z</time></trkpt><trkpt lat="45.015435" lon="7.6765083"><ele>223.0</ele><time>2026-04-11T11:47:45.455Z</time></trkpt><trkpt lat="45.01549" lon="7.6764533"><ele>223.33333333333334</ele><time>2026-04-11T11:47:46.455Z</time></trkpt><trkpt lat="45.0155533" lon="7.6764"><ele>223.66666666666669</ele><time>2026-04-11T11:47:47.455Z</time></trkpt><trkpt lat="45.0156133" lon="7.6763467"><ele>224.0</ele><time>2026-04-11T11:47:48.455Z</time></trkpt><trkpt lat="45.0156683" lon="7.6762883"><ele>224.0</ele><time>2026-04-11T11:47:49.455Z</time></trkpt><trkpt lat="45.0157183" lon="7.6762217"><ele>224.0</ele><time>2026-04-11T11:47:50.455Z</time></trkpt><trkpt lat="45.015765" lon="7.67615"><ele>224.0</ele><time>2026-04-11T11:47:51.455Z</time></trkpt><trkpt lat="45.015815" lon="7.6760817"><ele>224.0</ele><time>2026-04-11T11:47:52.455Z</time></trkpt><trkpt lat="45.0158617" lon="7.6760017"><ele>224.0</ele><time>2026-04-11T11:47:53.455Z</time></trkpt><trkpt lat="45.0159083" lon="7.6759317"><ele>224.0</ele><time>2026-04-11T11:47:54.455Z</time></trkpt><trkpt lat="45.0159633" lon="7.6758617"><ele>224.0</ele><time>2026-04-11T11:47:55.455Z</time></trkpt><trkpt lat="45.01601" lon="7.6757933"><ele>223.83333333333334</ele><time>2026-04-11T11:47:56.455Z</time></trkpt><trkpt lat="45.016055" lon="7.6757267"><ele>223.66666666666669</ele><time>2026-04-11T11:47:57.455Z</time></trkpt><trkpt lat="45.0161" lon="7.6756517"><ele>223.5</ele><time>2026-04-11T11:47:58.456Z</time></trkpt><trkpt lat="45.016145" lon="7.6755833"><ele>223.33333333333331</ele><time>2026-04-11T11:47:59.454Z</time></trkpt><trkpt lat="45.016185" lon="7.6755067"><ele>223.16666666666666</ele><time>2026-04-11T11:48:00.454Z</time></trkpt><trkpt lat="45.016265" lon="7.6754083"><ele>223.0</ele><time>2026-04-11T11:48:02.454Z</time></trkpt><trkpt lat="45.0163467" lon="7.6753333"><ele>223.0</ele><time>2026-04-11T11:48:04.454Z</time></trkpt><trkpt lat="45.0164267" lon="7.6752333"><ele>223.0</ele><time>2026-04-11T11:48:06.454Z</time></trkpt><trkpt lat="45.0165233" lon="7.675185"><ele>223.0</ele><time>2026-04-11T11:48:08.454Z</time></trkpt><trkpt lat="45.016625" lon="7.6751217"><ele>223.0</ele><time>2026-04-11T11:48:10.454Z</time></trkpt><trkpt lat="45.0167183" lon="7.6750617"><ele>223.0</ele><time>2026-04-11T11:48:12.454Z</time></trkpt><trkpt lat="45.016815" lon="7.6749883"><ele>222.8</ele><time>2026-04-11T11:48:14.454Z</time></trkpt><trkpt lat="45.0169233" lon="7.6748767"><ele>222.60000000000002</ele><time>2026-04-11T11:48:16.454Z</time></trkpt><trkpt lat="45.01698" lon="7.6748183"><ele>222.39999999999998</ele><time>2026-04-11T11:48:17.454Z</time></trkpt><trkpt lat="45.01704" lon="7.674755"><ele>222.2</ele><time>2026-04-11T11:48:18.454Z</time></trkpt><trkpt lat="45.0170933" lon="7.6747033"><ele>222.0</ele><time>2026-04-11T11:48:19.454Z</time></trkpt><trkpt lat="45.0172017" lon="7.6746217"><ele>222.0</ele><time>2026-04-11T11:48:21.454Z</time></trkpt><trkpt lat="45.01726" lon="7.6745783"><ele>222.0</ele><time>2026-04-11T11:48:22.455Z</time></trkpt><trkpt lat="45.0173167" lon="7.67453"><ele>222.0</ele><time>2026-04-11T11:48:23.454Z</time></trkpt><trkpt lat="45.017395" lon="7.6744333"><ele>222.0</ele><time>2026-04-11T11:48:25.454Z</time></trkpt><trkpt lat="45.017425" lon="7.6743083"><ele>222.0</ele><time>2026-04-11T11:48:27.454Z</time></trkpt><trkpt lat="45.017455" lon="7.674185"><ele>222.0</ele><time>2026-04-11T11:48:29.454Z</time></trkpt><trkpt lat="45.0174983" lon="7.6741"><ele>222.0</ele><time>2026-04-11T11:48:31.454Z</time></trkpt><trkpt lat="45.017535" lon="7.6740167"><ele>222.0</ele><time>2026-04-11T11:48:33.454Z</time></trkpt><trkpt lat="45.0175433" lon="7.673895"><ele>222.0</ele><time>2026-04-11T11:48:36.454Z</time></trkpt><trkpt lat="45.0175333" lon="7.6737917"><ele>222.0</ele><time>2026-04-11T11:48:39.454Z</time></trkpt><trkpt lat="45.0175367" lon="7.6737017"><ele>222.0</ele><time>2026-04-11T11:48:41.454Z</time></trkpt><trkpt lat="45.0175417" lon="7.6735883"><ele>222.0</ele><time>2026-04-11T11:48:43.454Z</time></trkpt><trkpt lat="45.0175517" lon="7.67344"><ele>222.0</ele><time>2026-04-11T11:48:45.454Z</time></trkpt><trkpt lat="45.01757" lon="7.673285"><ele>222.0</ele><time>2026-04-11T11:48:47.455Z</time></trkpt><trkpt lat="45.0175833" lon="7.6731317"><ele>222.0</ele><time>2026-04-11T11:48:49.454Z</time></trkpt><trkpt lat="45.0175917" lon="7.6729967"><ele>222.0</ele><time>2026-04-11T11:48:51.454Z</time></trkpt><trkpt lat="45.0175933" lon="7.6728683"><ele>222.0</ele><time>2026-04-11T11:48:53.454Z</time></trkpt><trkpt lat="45.0176017" lon="7.6727383"><ele>223.0</ele><time>2026-04-11T11:48:55.454Z</time></trkpt><trkpt lat="45.0176133" lon="7.6726433"><ele>224.0</ele><time>2026-04-11T11:48:57.454Z</time></trkpt><trkpt lat="45.017715" lon="7.6726267"><ele>225.0</ele><time>2026-04-11T11:49:00.454Z</time></trkpt><trkpt lat="45.017825" lon="7.6726467"><ele>226.0</ele><time>2026-04-11T11:49:02.455Z</time></trkpt><trkpt lat="45.0179333" lon="7.6726667"><ele>227.0</ele><time>2026-04-11T11:49:04.454Z</time></trkpt><trkpt lat="45.018035" lon="7.6726717"><ele>227.0</ele><time>2026-04-11T11:49:06.454Z</time></trkpt><trkpt lat="45.01812" lon="7.6726833"><ele>227.0</ele><time>2026-04-11T11:49:08.454Z</time></trkpt><trkpt lat="45.0182217" lon="7.672715"><ele>227.0</ele><time>2026-04-11T11:49:10.454Z</time></trkpt><trkpt lat="45.0183267" lon="7.67275"><ele>227.0</ele><time>2026-04-11T11:49:12.454Z</time></trkpt><trkpt lat="45.0184533" lon="7.6727617"><ele>227.0</ele><time>2026-04-11T11:49:14.454Z</time></trkpt><trkpt lat="45.0185783" lon="7.6727633"><ele>226.39999999999998</ele><time>2026-04-11T11:49:16.454Z</time></trkpt><trkpt lat="45.0187017" lon="7.6727583"><ele>225.79999999999998</ele><time>2026-04-11T11:49:18.454Z</time></trkpt><trkpt lat="45.0187667" lon="7.6727567"><ele>225.2</ele><time>2026-04-11T11:49:19.454Z</time></trkpt><trkpt lat="45.0188933" lon="7.6727683"><ele>224.6</ele><time>2026-04-11T11:49:21.454Z</time></trkpt><trkpt lat="45.018965" lon="7.67277"><ele>224.0</ele><time>2026-04-11T11:49:22.454Z</time></trkpt><trkpt lat="45.019035" lon="7.6727767"><ele>223.50000000000003</ele><time>2026-04-11T11:49:23.454Z</time></trkpt><trkpt lat="45.0191017" lon="7.6727833"><ele>223.0</ele><time>2026-04-11T11:49:24.454Z</time></trkpt><trkpt lat="45.0191683" lon="7.6727867"><ele>222.5</ele><time>2026-04-11T11:49:25.454Z</time></trkpt><trkpt lat="45.019295" lon="7.6728033"><ele>222.0</ele><time>2026-04-11T11:49:27.454Z</time></trkpt><trkpt lat="45.01936" lon="7.6728117"><ele>221.50000000000003</ele><time>2026-04-11T11:49:28.454Z</time></trkpt><trkpt lat="45.0194283" lon="7.67282"><ele>221.0</ele><time>2026-04-11T11:49:29.454Z</time></trkpt><trkpt lat="45.019495" lon="7.6728267"><ele>220.57142857142858</ele><time>2026-04-11T11:49:30.454Z</time></trkpt><trkpt lat="45.019565" lon="7.672835"><ele>220.14285714285714</ele><time>2026-04-11T11:49:31.454Z</time></trkpt><trkpt lat="45.0196317" lon="7.6728433"><ele>219.71428571428572</ele><time>2026-04-11T11:49:32.454Z</time></trkpt><trkpt lat="45.0197017" lon="7.6728533"><ele>219.28571428571428</ele><time>2026-04-11T11:49:33.454Z</time></trkpt><trkpt lat="45.0197667" lon="7.672865"><ele>218.85714285714286</ele><time>2026-04-11T11:49:34.454Z</time></trkpt><trkpt lat="45.01984" lon="7.6728783"><ele>218.42857142857144</ele><time>2026-04-11T11:49:35.454Z</time></trkpt><trkpt lat="45.0199067" lon="7.6728867"><ele>218.0</ele><time>2026-04-11T11:49:36.455Z</time></trkpt><trkpt lat="45.01997" lon="7.6729067"><ele>219.0</ele><time>2026-04-11T11:49:37.454Z</time></trkpt><trkpt lat="45.02009" lon="7.6729317"><ele>220.0</ele><time>2026-04-11T11:49:39.454Z</time></trkpt><trkpt lat="45.0202183" lon="7.6729633"><ele>221.0</ele><time>2026-04-11T11:49:41.454Z</time></trkpt><trkpt lat="45.020285" lon="7.672975"><ele>222.0</ele><time>2026-04-11T11:49:42.454Z</time></trkpt><trkpt lat="45.0203567" lon="7.672975"><ele>223.0</ele><time>2026-04-11T11:49:43.454Z</time></trkpt><trkpt lat="45.0204233" lon="7.6729817"><ele>223.0</ele><time>2026-04-11T11:49:44.454Z</time></trkpt><trkpt lat="45.02049" lon="7.67299"><ele>223.0</ele><time>2026-04-11T11:49:45.454Z</time></trkpt><trkpt lat="45.0206133" lon="7.6730033"><ele>223.0</ele><time>2026-04-11T11:49:47.454Z</time></trkpt><trkpt lat="45.0207367" lon="7.6730217"><ele>223.0</ele><time>2026-04-11T11:49:49.454Z</time></trkpt><trkpt lat="45.0208017" lon="7.673025"><ele>223.0</ele><time>2026-04-11T11:49:50.454Z</time></trkpt><trkpt lat="45.02092" lon="7.6730433"><ele>223.2</ele><time>2026-04-11T11:49:52.454Z</time></trkpt><trkpt lat="45.02105" lon="7.673075"><ele>223.4</ele><time>2026-04-11T11:49:54.454Z</time></trkpt><trkpt lat="45.0211117" lon="7.6730967"><ele>223.59999999999997</ele><time>2026-04-11T11:49:55.455Z</time></trkpt><trkpt lat="45.0212367" lon="7.6731317"><ele>223.79999999999998</ele><time>2026-04-11T11:49:57.454Z</time></trkpt><trkpt lat="45.0213083" lon="7.673155"><ele>224.0</ele><time>2026-04-11T11:49:58.454Z</time></trkpt><trkpt lat="45.021375" lon="7.673175"><ele>224.0</ele><time>2026-04-11T11:49:59.454Z</time></trkpt><trkpt lat="45.0214417" lon="7.6731967"><ele>223.99999999999997</ele><time>2026-04-11T11:50:00.454Z</time></trkpt><trkpt lat="45.0215117" lon="7.673215"><ele>223.99999999999997</ele><time>2026-04-11T11:50:01.454Z</time></trkpt><trkpt lat="45.0216333" lon="7.6732467"><ele>224.0</ele><time>2026-04-11T11:50:03.454Z</time></trkpt><trkpt lat="45.02175" lon="7.6732767"><ele>224.0</ele><time>2026-04-11T11:50:05.454Z</time></trkpt><trkpt lat="45.02182" lon="7.6732983"><ele>224.0</ele><time>2026-04-11T11:50:06.454Z</time></trkpt><trkpt lat="45.0218917" lon="7.6733117"><ele>224.0</ele><time>2026-04-11T11:50:07.454Z</time></trkpt><trkpt lat="45.0219583" lon="7.673315"><ele>224.0</ele><time>2026-04-11T11:50:08.454Z</time></trkpt><trkpt lat="45.022025" lon="7.67332"><ele>224.0</ele><time>2026-04-11T11:50:09.454Z</time></trkpt><trkpt lat="45.022095" lon="7.6733217"><ele>224.0</ele><time>2026-04-11T11:50:10.454Z</time></trkpt><trkpt lat="45.0221667" lon="7.6733217"><ele>224.0</ele><time>2026-04-11T11:50:11.454Z</time></trkpt><trkpt lat="45.0222383" lon="7.67332"><ele>224.0</ele><time>2026-04-11T11:50:12.454Z</time></trkpt><trkpt lat="45.022315" lon="7.6733183"><ele>224.0</ele><time>2026-04-11T11:50:13.454Z</time></trkpt><trkpt lat="45.0223883" lon="7.6733233"><ele>224.0</ele><time>2026-04-11T11:50:14.454Z</time></trkpt><trkpt lat="45.022465" lon="7.6733367"><ele>224.0</ele><time>2026-04-11T11:50:15.454Z</time></trkpt><trkpt lat="45.0225383" lon="7.6733517"><ele>224.0</ele><time>2026-04-11T11:50:16.454Z</time></trkpt><trkpt lat="45.02261" lon="7.673365"><ele>224.0</ele><time>2026-04-11T11:50:17.454Z</time></trkpt><trkpt lat="45.0226783" lon="7.673375"><ele>224.0</ele><time>2026-04-11T11:50:18.454Z</time></trkpt><trkpt lat="45.022745" lon="7.6733817"><ele>224.0</ele><time>2026-04-11T11:50:19.454Z</time></trkpt><trkpt lat="45.0228183" lon="7.6733733"><ele>224.14285714285714</ele><time>2026-04-11T11:50:20.454Z</time></trkpt><trkpt lat="45.022895" lon="7.6733633"><ele>224.28571428571428</ele><time>2026-04-11T11:50:21.455Z</time></trkpt><trkpt lat="45.02297" lon="7.67337"><ele>224.42857142857144</ele><time>2026-04-11T11:50:22.454Z</time></trkpt><trkpt lat="45.0230483" lon="7.673375"><ele>224.57142857142858</ele><time>2026-04-11T11:50:23.454Z</time></trkpt><trkpt lat="45.02312" lon="7.67337"><ele>224.71428571428572</ele><time>2026-04-11T11:50:24.454Z</time></trkpt><trkpt lat="45.0231933" lon="7.6733633"><ele>224.8571428571429</ele><time>2026-04-11T11:50:25.454Z</time></trkpt><trkpt lat="45.0232667" lon="7.6733633"><ele>225.00000000000003</ele><time>2026-04-11T11:50:26.454Z</time></trkpt><trkpt lat="45.0233383" lon="7.6733667"><ele>225.00000000000003</ele><time>2026-04-11T11:50:27.454Z</time></trkpt><trkpt lat="45.0234133" lon="7.6733567"><ele>225.0</ele><time>2026-04-11T11:50:28.454Z</time></trkpt><trkpt lat="45.0234833" lon="7.6733583"><ele>225.00000000000003</ele><time>2026-04-11T11:50:29.454Z</time></trkpt><trkpt lat="45.023555" lon="7.6733583"><ele>225.00000000000003</ele><time>2026-04-11T11:50:30.454Z</time></trkpt><trkpt lat="45.02363" lon="7.673355"><ele>225.0</ele><time>2026-04-11T11:50:31.454Z</time></trkpt><trkpt lat="45.0237033" lon="7.6733467"><ele>225.00000000000003</ele><time>2026-04-11T11:50:32.454Z</time></trkpt><trkpt lat="45.0237717" lon="7.6733417"><ele>225.00000000000003</ele><time>2026-04-11T11:50:33.454Z</time></trkpt><trkpt lat="45.0238417" lon="7.6733433"><ele>225.00000000000003</ele><time>2026-04-11T11:50:34.454Z</time></trkpt><trkpt lat="45.02391" lon="7.67335"><ele>225.0</ele><time>2026-04-11T11:50:35.454Z</time></trkpt><trkpt lat="45.0239767" lon="7.673365"><ele>225.00000000000003</ele><time>2026-04-11T11:50:36.454Z</time></trkpt><trkpt lat="45.0240483" lon="7.6733733"><ele>225.00000000000003</ele><time>2026-04-11T11:50:37.454Z</time></trkpt><trkpt lat="45.0241167" lon="7.6733933"><ele>225.0</ele><time>2026-04-11T11:50:38.454Z</time></trkpt><trkpt lat="45.024185" lon="7.6734067"><ele>225.00000000000003</ele><time>2026-04-11T11:50:39.454Z</time></trkpt><trkpt lat="45.0242567" lon="7.67343"><ele>225.00000000000003</ele><time>2026-04-11T11:50:40.454Z</time></trkpt><trkpt lat="45.0243267" lon="7.6734483"><ele>224.8571428571429</ele><time>2026-04-11T11:50:41.454Z</time></trkpt><trkpt lat="45.0244" lon="7.673465"><ele>224.71428571428572</ele><time>2026-04-11T11:50:42.454Z</time></trkpt><trkpt lat="45.0244717" lon="7.673485"><ele>224.57142857142858</ele><time>2026-04-11T11:50:43.454Z</time></trkpt><trkpt lat="45.02454" lon="7.6735167"><ele>224.42857142857144</ele><time>2026-04-11T11:50:44.454Z</time></trkpt><trkpt lat="45.0246117" lon="7.67354"><ele>224.28571428571428</ele><time>2026-04-11T11:50:45.454Z</time></trkpt><trkpt lat="45.0246833" lon="7.6735583"><ele>224.14285714285714</ele><time>2026-04-11T11:50:46.454Z</time></trkpt><trkpt lat="45.0247533" lon="7.6735767"><ele>224.0</ele><time>2026-04-11T11:50:47.454Z</time></trkpt><trkpt lat="45.0248267" lon="7.6736"><ele>224.00000000000003</ele><time>2026-04-11T11:50:48.454Z</time></trkpt><trkpt lat="45.0249" lon="7.67363"><ele>224.0</ele><time>2026-04-11T11:50:49.454Z</time></trkpt><trkpt lat="45.0249717" lon="7.6736483"><ele>224.0</ele><time>2026-04-11T11:50:50.454Z</time></trkpt><trkpt lat="45.0250367" lon="7.6736683"><ele>224.0</ele><time>2026-04-11T11:50:51.454Z</time></trkpt><trkpt lat="45.025145" lon="7.673705"><ele>224.00000000000003</ele><time>2026-04-11T11:50:53.454Z</time></trkpt><trkpt lat="45.0252233" lon="7.6736883"><ele>224.0</ele><time>2026-04-11T11:50:55.454Z</time></trkpt><trkpt lat="45.0252633" lon="7.6735983"><ele>223.39999999999998</ele><time>2026-04-11T11:50:57.454Z</time></trkpt><trkpt lat="45.0252767" lon="7.6734783"><ele>222.79999999999998</ele><time>2026-04-11T11:50:59.455Z</time></trkpt><trkpt lat="45.0253267" lon="7.6733917"><ele>222.20000000000002</ele><time>2026-04-11T11:51:02.454Z</time></trkpt><trkpt lat="45.0253983" lon="7.6733983"><ele>221.60000000000002</ele><time>2026-04-11T11:51:04.454Z</time></trkpt><trkpt lat="45.0255083" lon="7.673405"><ele>221.0</ele><time>2026-04-11T11:51:06.454Z</time></trkpt><trkpt lat="45.025615" lon="7.6734267"><ele>221.0</ele><time>2026-04-11T11:51:08.454Z</time></trkpt><trkpt lat="45.0257267" lon="7.6734067"><ele>221.00000000000003</ele><time>2026-04-11T11:51:10.454Z</time></trkpt><trkpt lat="45.0258383" lon="7.6734017"><ele>221.00000000000003</ele><time>2026-04-11T11:51:12.454Z</time></trkpt><trkpt lat="45.0259517" lon="7.6734067"><ele>221.0</ele><time>2026-04-11T11:51:14.454Z</time></trkpt><trkpt lat="45.0260467" lon="7.6734067"><ele>221.0</ele><time>2026-04-11T11:51:16.454Z</time></trkpt><trkpt lat="45.0261483" lon="7.6733883"><ele>221.00000000000003</ele><time>2026-04-11T11:51:18.454Z</time></trkpt><trkpt lat="45.0262517" lon="7.6733917"><ele>221.0</ele><time>2026-04-11T11:51:20.454Z</time></trkpt><trkpt lat="45.026345" lon="7.6733867"><ele>221.0</ele><time>2026-04-11T11:51:22.454Z</time></trkpt><trkpt lat="45.0264249" lon="7.6733649"><ele>221.0</ele><time>2026-04-11T11:51:25.454Z</time></trkpt><trkpt lat="45.0263783" lon="7.6732967"><ele>221.00000000000003</ele><time>2026-04-11T11:51:31.454Z</time></trkpt><trkpt lat="45.0263" lon="7.6732783"><ele>221.0</ele><time>2026-04-11T11:51:34.454Z</time></trkpt><trkpt lat="45.026335" lon="7.6733617"><ele>221.0</ele><time>2026-04-11T11:51:51.454Z</time></trkpt><trkpt lat="45.0264083" lon="7.6733717"><ele>221.00000000000003</ele><time>2026-04-11T11:51:54.455Z</time></trkpt><trkpt lat="45.026505" lon="7.6733617"><ele>221.00000000000003</ele><time>2026-04-11T11:51:56.454Z</time></trkpt><trkpt lat="45.0266183" lon="7.6733283"><ele>221.0</ele><time>2026-04-11T11:51:58.454Z</time></trkpt><trkpt lat="45.0267267" lon="7.6732917"><ele>221.0</ele><time>2026-04-11T11:52:00.454Z</time></trkpt><trkpt lat="45.0268033" lon="7.6732733"><ele>221.8</ele><time>2026-04-11T11:52:02.454Z</time></trkpt><trkpt lat="45.0268867" lon="7.6732583"><ele>222.60000000000002</ele><time>2026-04-11T11:52:04.454Z</time></trkpt><trkpt lat="45.0269883" lon="7.67324"><ele>223.4</ele><time>2026-04-11T11:52:06.454Z</time></trkpt><trkpt lat="45.0271067" lon="7.6732183"><ele>224.2</ele><time>2026-04-11T11:52:08.454Z</time></trkpt><trkpt lat="45.0272317" lon="7.6732067"><ele>225.0</ele><time>2026-04-11T11:52:10.454Z</time></trkpt><trkpt lat="45.0272983" lon="7.6731917"><ele>225.0</ele><time>2026-04-11T11:52:11.454Z</time></trkpt><trkpt lat="45.0274183" lon="7.67317"><ele>225.0</ele><time>2026-04-11T11:52:13.454Z</time></trkpt><trkpt lat="45.0275367" lon="7.6731383"><ele>225.0</ele><time>2026-04-11T11:52:15.454Z</time></trkpt><trkpt lat="45.0276017" lon="7.67312"><ele>225.0</ele><time>2026-04-11T11:52:16.454Z</time></trkpt><trkpt lat="45.027665" lon="7.6731117"><ele>225.0</ele><time>2026-04-11T11:52:17.454Z</time></trkpt><trkpt lat="45.027775" lon="7.6731633"><ele>224.4</ele><time>2026-04-11T11:52:19.454Z</time></trkpt><trkpt lat="45.0279" lon="7.6731883"><ele>223.8</ele><time>2026-04-11T11:52:21.454Z</time></trkpt><trkpt lat="45.028035" lon="7.6731817"><ele>223.2</ele><time>2026-04-11T11:52:23.454Z</time></trkpt><trkpt lat="45.028115" lon="7.6731767"><ele>222.6</ele><time>2026-04-11T11:52:24.454Z</time></trkpt><trkpt lat="45.0282017" lon="7.67317"><ele>222.0</ele><time>2026-04-11T11:52:25.454Z</time></trkpt><trkpt lat="45.0282783" lon="7.6731683"><ele>222.28571428571428</ele><time>2026-04-11T11:52:26.454Z</time></trkpt><trkpt lat="45.0283567" lon="7.6731717"><ele>222.57142857142858</ele><time>2026-04-11T11:52:27.454Z</time></trkpt><trkpt lat="45.0284317" lon="7.6731733"><ele>222.85714285714286</ele><time>2026-04-11T11:52:28.454Z</time></trkpt><trkpt lat="45.0285067" lon="7.67317"><ele>223.14285714285714</ele><time>2026-04-11T11:52:29.454Z</time></trkpt><trkpt lat="45.0285817" lon="7.6731683"><ele>223.42857142857144</ele><time>2026-04-11T11:52:30.454Z</time></trkpt><trkpt lat="45.0286517" lon="7.673185"><ele>223.71428571428572</ele><time>2026-04-11T11:52:31.454Z</time></trkpt><trkpt lat="45.0287217" lon="7.6731983"><ele>224.0</ele><time>2026-04-11T11:52:32.454Z</time></trkpt><trkpt lat="45.0287933" lon="7.67321"><ele>224.00000000000003</ele><time>2026-04-11T11:52:33.454Z</time></trkpt><trkpt lat="45.0288667" lon="7.673225"><ele>224.0</ele><time>2026-04-11T11:52:34.455Z</time></trkpt><trkpt lat="45.02894" lon="7.6732467"><ele>224.0</ele><time>2026-04-11T11:52:35.454Z</time></trkpt><trkpt lat="45.029015" lon="7.67327"><ele>224.0</ele><time>2026-04-11T11:52:36.455Z</time></trkpt><trkpt lat="45.029085" lon="7.6732967"><ele>224.00000000000003</ele><time>2026-04-11T11:52:37.455Z</time></trkpt><trkpt lat="45.02915" lon="7.6733167"><ele>224.0</ele><time>2026-04-11T11:52:38.454Z</time></trkpt><trkpt lat="45.0292617" lon="7.67335"><ele>223.79999999999998</ele><time>2026-04-11T11:52:40.454Z</time></trkpt><trkpt lat="45.0293233" lon="7.67337"><ele>223.59999999999997</ele><time>2026-04-11T11:52:41.454Z</time></trkpt><trkpt lat="45.02943" lon="7.673425"><ele>223.4</ele><time>2026-04-11T11:52:43.454Z</time></trkpt><trkpt lat="45.0295267" lon="7.6734883"><ele>223.2</ele><time>2026-04-11T11:52:45.454Z</time></trkpt><trkpt lat="45.0296233" lon="7.6735433"><ele>223.0</ele><time>2026-04-11T11:52:47.454Z</time></trkpt><trkpt lat="45.029705" lon="7.673595"><ele>223.0</ele><time>2026-04-11T11:52:49.454Z</time></trkpt><trkpt lat="45.0297783" lon="7.6736333"><ele>223.0</ele><time>2026-04-11T11:52:51.454Z</time></trkpt><trkpt lat="45.0298567" lon="7.6736583"><ele>223.0</ele><time>2026-04-11T11:52:53.454Z</time></trkpt><trkpt lat="45.0299517" lon="7.673685"><ele>223.0</ele><time>2026-04-11T11:52:56.454Z</time></trkpt><trkpt lat="45.0300283" lon="7.673755"><ele>223.0</ele><time>2026-04-11T11:52:58.454Z</time></trkpt><trkpt lat="45.0301117" lon="7.6738433"><ele>223.0</ele><time>2026-04-11T11:53:00.454Z</time></trkpt><trkpt lat="45.0302017" lon="7.6739133"><ele>223.0</ele><time>2026-04-11T11:53:02.454Z</time></trkpt><trkpt lat="45.030285" lon="7.673985"><ele>223.0</ele><time>2026-04-11T11:53:04.454Z</time></trkpt><trkpt lat="45.030355" lon="7.67408"><ele>223.0</ele><time>2026-04-11T11:53:06.454Z</time></trkpt><trkpt lat="45.0304283" lon="7.6741633"><ele>223.0</ele><time>2026-04-11T11:53:08.454Z</time></trkpt><trkpt lat="45.0305017" lon="7.6742517"><ele>223.0</ele><time>2026-04-11T11:53:10.454Z</time></trkpt><trkpt lat="45.03058" lon="7.67435"><ele>223.0</ele><time>2026-04-11T11:53:12.454Z</time></trkpt><trkpt lat="45.0306667" lon="7.674445"><ele>223.0</ele><time>2026-04-11T11:53:14.454Z</time></trkpt><trkpt lat="45.0307467" lon="7.6745333"><ele>223.0</ele><time>2026-04-11T11:53:16.454Z</time></trkpt><trkpt lat="45.03081" lon="7.6746467"><ele>223.0</ele><time>2026-04-11T11:53:18.455Z</time></trkpt><trkpt lat="45.0308883" lon="7.6747633"><ele>222.8</ele><time>2026-04-11T11:53:20.454Z</time></trkpt><trkpt lat="45.030975" lon="7.6748633"><ele>222.60000000000002</ele><time>2026-04-11T11:53:22.454Z</time></trkpt><trkpt lat="45.031035" lon="7.6749633"><ele>222.39999999999998</ele><time>2026-04-11T11:53:24.455Z</time></trkpt><trkpt lat="45.031095" lon="7.67506"><ele>222.2</ele><time>2026-04-11T11:53:26.454Z</time></trkpt><trkpt lat="45.03115" lon="7.6751583"><ele>222.0</ele><time>2026-04-11T11:53:28.454Z</time></trkpt><trkpt lat="45.0312" lon="7.6752417"><ele>221.83333333333334</ele><time>2026-04-11T11:53:30.454Z</time></trkpt><trkpt lat="45.0312567" lon="7.675315"><ele>221.66666666666669</ele><time>2026-04-11T11:53:32.454Z</time></trkpt><trkpt lat="45.0313167" lon="7.6753683"><ele>221.5</ele><time>2026-04-11T11:53:34.454Z</time></trkpt><trkpt lat="45.0313933" lon="7.67544"><ele>221.33333333333334</ele><time>2026-04-11T11:53:37.454Z</time></trkpt><trkpt lat="45.031455" lon="7.6754867"><ele>221.16666666666669</ele><time>2026-04-11T11:53:40.454Z</time></trkpt><trkpt lat="45.03151" lon="7.6755367"><ele>221.0</ele><time>2026-04-11T11:53:43.454Z</time></trkpt><trkpt lat="45.0315717" lon="7.6755983"><ele>221.00000000000003</ele><time>2026-04-11T11:53:47.454Z</time></trkpt><trkpt lat="45.0316283" lon="7.6756483"><ele>221.0</ele><time>2026-04-11T11:53:52.455Z</time></trkpt><trkpt lat="45.0316967" lon="7.6757"><ele>221.0</ele><time>2026-04-11T11:53:59.454Z</time></trkpt><trkpt lat="45.03174" lon="7.6757767"><ele>221.0</ele><time>2026-04-11T11:54:03.455Z</time></trkpt><trkpt lat="45.03183" lon="7.67593"><ele>221.00000000000003</ele><time>2026-04-11T11:54:19.454Z</time></trkpt><trkpt lat="45.0318883" lon="7.6760217"><ele>221.0</ele><time>2026-04-11T11:54:22.454Z</time></trkpt><trkpt lat="45.0319267" lon="7.6761033"><ele>221.50000000000003</ele><time>2026-04-11T11:54:24.454Z</time></trkpt><trkpt lat="45.031965" lon="7.6761883"><ele>222.0</ele><time>2026-04-11T11:54:26.454Z</time></trkpt><trkpt lat="45.0320217" lon="7.67627"><ele>222.5</ele><time>2026-04-11T11:54:28.454Z</time></trkpt><trkpt lat="45.0320667" lon="7.676335"><ele>223.0</ele><time>2026-04-11T11:54:29.454Z</time></trkpt><trkpt lat="45.0321483" lon="7.6764333"><ele>223.50000000000003</ele><time>2026-04-11T11:54:31.454Z</time></trkpt><trkpt lat="45.032235" lon="7.6765217"><ele>224.0</ele><time>2026-04-11T11:54:33.454Z</time></trkpt><trkpt lat="45.0323283" lon="7.6766183"><ele>224.0</ele><time>2026-04-11T11:54:35.454Z</time></trkpt><trkpt lat="45.032425" lon="7.6767217"><ele>224.0</ele><time>2026-04-11T11:54:37.454Z</time></trkpt><trkpt lat="45.032515" lon="7.67682"><ele>224.0</ele><time>2026-04-11T11:54:39.454Z</time></trkpt><trkpt lat="45.0325933" lon="7.67693"><ele>224.0</ele><time>2026-04-11T11:54:41.455Z</time></trkpt><trkpt lat="45.032695" lon="7.677035"><ele>224.0</ele><time>2026-04-11T11:54:43.454Z</time></trkpt><trkpt lat="45.03275" lon="7.6770883"><ele>223.99999999999997</ele><time>2026-04-11T11:54:44.454Z</time></trkpt><trkpt lat="45.03285" lon="7.6771767"><ele>223.99999999999997</ele><time>2026-04-11T11:54:46.454Z</time></trkpt><trkpt lat="45.032945" lon="7.6772467"><ele>224.0</ele><time>2026-04-11T11:54:48.454Z</time></trkpt><trkpt lat="45.0330567" lon="7.6773183"><ele>224.0</ele><time>2026-04-11T11:54:50.454Z</time></trkpt><trkpt lat="45.03317" lon="7.6773883"><ele>224.0</ele><time>2026-04-11T11:54:52.454Z</time></trkpt><trkpt lat="45.0332733" lon="7.677435"><ele>223.99999999999997</ele><time>2026-04-11T11:54:54.454Z</time></trkpt><trkpt lat="45.0333917" lon="7.6774867"><ele>223.99999999999997</ele><time>2026-04-11T11:54:56.454Z</time></trkpt><trkpt lat="45.0335" lon="7.6775267"><ele>224.0</ele><time>2026-04-11T11:54:58.454Z</time></trkpt><trkpt lat="45.0335733" lon="7.677615"><ele>224.0</ele><time>2026-04-11T11:55:00.454Z</time></trkpt><trkpt lat="45.0336167" lon="7.6776867"><ele>224.00000000000003</ele><time>2026-04-11T11:55:01.454Z</time></trkpt><trkpt lat="45.0336767" lon="7.6777567"><ele>224.0</ele><time>2026-04-11T11:55:02.454Z</time></trkpt><trkpt lat="45.0337533" lon="7.677815"><ele>224.0</ele><time>2026-04-11T11:55:03.454Z</time></trkpt><trkpt lat="45.03383" lon="7.6778583"><ele>224.0</ele><time>2026-04-11T11:55:04.454Z</time></trkpt><trkpt lat="45.033905" lon="7.6778883"><ele>224.00000000000003</ele><time>2026-04-11T11:55:05.454Z</time></trkpt><trkpt lat="45.0339767" lon="7.6779133"><ele>224.0</ele><time>2026-04-11T11:55:06.454Z</time></trkpt><trkpt lat="45.0340483" lon="7.6779367"><ele>224.00000000000003</ele><time>2026-04-11T11:55:07.454Z</time></trkpt><trkpt lat="45.034125" lon="7.677955"><ele>224.0</ele><time>2026-04-11T11:55:08.454Z</time></trkpt><trkpt lat="45.034205" lon="7.6779633"><ele>224.0</ele><time>2026-04-11T11:55:09.454Z</time></trkpt><trkpt lat="45.0342867" lon="7.6779633"><ele>224.0</ele><time>2026-04-11T11:55:10.454Z</time></trkpt><trkpt lat="45.034365" lon="7.67796"><ele>224.00000000000003</ele><time>2026-04-11T11:55:11.454Z</time></trkpt><trkpt lat="45.0344417" lon="7.6779567"><ele>224.0</ele><time>2026-04-11T11:55:12.454Z</time></trkpt><trkpt lat="45.03451" lon="7.6779467"><ele>224.16666666666669</ele><time>2026-04-11T11:55:13.454Z</time></trkpt><trkpt lat="45.0345833" lon="7.6779333"><ele>224.33333333333334</ele><time>2026-04-11T11:55:14.454Z</time></trkpt><trkpt lat="45.0346483" lon="7.6779183"><ele>224.5</ele><time>2026-04-11T11:55:15.454Z</time></trkpt><trkpt lat="45.0347783" lon="7.6778867"><ele>224.66666666666669</ele><time>2026-04-11T11:55:17.454Z</time></trkpt><trkpt lat="45.0348433" lon="7.6778667"><ele>224.83333333333334</ele><time>2026-04-11T11:55:18.454Z</time></trkpt><trkpt lat="45.0349067" lon="7.67785"><ele>225.0</ele><time>2026-04-11T11:55:19.454Z</time></trkpt><trkpt lat="45.03497" lon="7.6778417"><ele>224.8571428571429</ele><time>2026-04-11T11:55:20.454Z</time></trkpt><trkpt lat="45.0350383" lon="7.67782"><ele>224.71428571428572</ele><time>2026-04-11T11:55:21.454Z</time></trkpt><trkpt lat="45.03511" lon="7.6777917"><ele>224.57142857142858</ele><time>2026-04-11T11:55:22.454Z</time></trkpt><trkpt lat="45.03518" lon="7.6777483"><ele>224.42857142857144</ele><time>2026-04-11T11:55:23.454Z</time></trkpt><trkpt lat="45.0352533" lon="7.677715"><ele>224.28571428571428</ele><time>2026-04-11T11:55:24.454Z</time></trkpt><trkpt lat="45.0353217" lon="7.67768"><ele>224.14285714285714</ele><time>2026-04-11T11:55:25.454Z</time></trkpt><trkpt lat="45.035385" lon="7.677635"><ele>224.0</ele><time>2026-04-11T11:55:26.454Z</time></trkpt><trkpt lat="45.0354467" lon="7.6775883"><ele>224.0</ele><time>2026-04-11T11:55:27.454Z</time></trkpt><trkpt lat="45.035505" lon="7.6775467"><ele>223.99999999999997</ele><time>2026-04-11T11:55:28.454Z</time></trkpt><trkpt lat="45.0356233" lon="7.6774867"><ele>223.99999999999997</ele><time>2026-04-11T11:55:30.454Z</time></trkpt><trkpt lat="45.0356867" lon="7.6774517"><ele>224.0</ele><time>2026-04-11T11:55:31.454Z</time></trkpt><trkpt lat="45.0358" lon="7.67739"><ele>224.0</ele><time>2026-04-11T11:55:33.454Z</time></trkpt><trkpt lat="45.0359233" lon="7.6773367"><ele>224.14285714285714</ele><time>2026-04-11T11:55:35.454Z</time></trkpt><trkpt lat="45.0359917" lon="7.6773067"><ele>224.28571428571428</ele><time>2026-04-11T11:55:36.454Z</time></trkpt><trkpt lat="45.0360533" lon="7.67727"><ele>224.42857142857144</ele><time>2026-04-11T11:55:37.454Z</time></trkpt><trkpt lat="45.03612" lon="7.6772417"><ele>224.57142857142858</ele><time>2026-04-11T11:55:38.454Z</time></trkpt><trkpt lat="45.0361883" lon="7.6772217"><ele>224.71428571428572</ele><time>2026-04-11T11:55:39.454Z</time></trkpt><trkpt lat="45.03626" lon="7.677195"><ele>224.8571428571429</ele><time>2026-04-11T11:55:40.454Z</time></trkpt><trkpt lat="45.036325" lon="7.6771667"><ele>225.00000000000003</ele><time>2026-04-11T11:55:41.454Z</time></trkpt><trkpt lat="45.03639" lon="7.6771283"><ele>225.0</ele><time>2026-04-11T11:55:42.454Z</time></trkpt><trkpt lat="45.036455" lon="7.677105"><ele>225.0</ele><time>2026-04-11T11:55:43.454Z</time></trkpt><trkpt lat="45.0365183" lon="7.6771"><ele>225.0</ele><time>2026-04-11T11:55:44.454Z</time></trkpt><trkpt lat="45.036585" lon="7.6770867"><ele>225.0</ele><time>2026-04-11T11:55:45.454Z</time></trkpt><trkpt lat="45.0367033" lon="7.6770667"><ele>225.0</ele><time>2026-04-11T11:55:47.454Z</time></trkpt><trkpt lat="45.0368233" lon="7.6770233"><ele>225.0</ele><time>2026-04-11T11:55:49.454Z</time></trkpt><trkpt lat="45.0368883" lon="7.677005"><ele>225.00000000000003</ele><time>2026-04-11T11:55:50.454Z</time></trkpt><trkpt lat="45.03696" lon="7.6769867"><ele>225.0</ele><time>2026-04-11T11:55:51.454Z</time></trkpt><trkpt lat="45.03703" lon="7.6769733"><ele>225.00000000000003</ele><time>2026-04-11T11:55:52.454Z</time></trkpt><trkpt lat="45.0371" lon="7.6769567"><ele>225.00000000000003</ele><time>2026-04-11T11:55:53.455Z</time></trkpt><trkpt lat="45.0371733" lon="7.6769367"><ele>225.0</ele><time>2026-04-11T11:55:54.454Z</time></trkpt><trkpt lat="45.0372383" lon="7.6769033"><ele>225.00000000000003</ele><time>2026-04-11T11:55:55.454Z</time></trkpt><trkpt lat="45.0373083" lon="7.6768867"><ele>225.00000000000003</ele><time>2026-04-11T11:55:56.454Z</time></trkpt><trkpt lat="45.0373767" lon="7.6768633"><ele>225.00000000000003</ele><time>2026-04-11T11:55:57.454Z</time></trkpt><trkpt lat="45.0374417" lon="7.6768383"><ele>225.0</ele><time>2026-04-11T11:55:58.454Z</time></trkpt><trkpt lat="45.0375083" lon="7.6768083"><ele>225.00000000000003</ele><time>2026-04-11T11:55:59.454Z</time></trkpt><trkpt lat="45.037575" lon="7.67679"><ele>225.00000000000003</ele><time>2026-04-11T11:56:00.454Z</time></trkpt><trkpt lat="45.0376433" lon="7.676775"><ele>225.0</ele><time>2026-04-11T11:56:01.454Z</time></trkpt><trkpt lat="45.0377133" lon="7.6767667"><ele>225.00000000000003</ele><time>2026-04-11T11:56:02.454Z</time></trkpt><trkpt lat="45.037785" lon="7.6767583"><ele>225.00000000000003</ele><time>2026-04-11T11:56:03.454Z</time></trkpt><trkpt lat="45.0378533" lon="7.6767433"><ele>225.00000000000003</ele><time>2026-04-11T11:56:04.454Z</time></trkpt><trkpt lat="45.0379217" lon="7.67672"><ele>225.0</ele><time>2026-04-11T11:56:05.454Z</time></trkpt><trkpt lat="45.03799" lon="7.67671"><ele>225.00000000000003</ele><time>2026-04-11T11:56:06.454Z</time></trkpt><trkpt lat="45.03806" lon="7.6767017"><ele>225.00000000000003</ele><time>2026-04-11T11:56:07.454Z</time></trkpt><trkpt lat="45.0381333" lon="7.6766967"><ele>225.0</ele><time>2026-04-11T11:56:08.454Z</time></trkpt><trkpt lat="45.038205" lon="7.67669"><ele>225.00000000000003</ele><time>2026-04-11T11:56:09.454Z</time></trkpt><trkpt lat="45.0382733" lon="7.6766917"><ele>225.00000000000003</ele><time>2026-04-11T11:56:10.454Z</time></trkpt><trkpt lat="45.0383383" lon="7.6766933"><ele>225.00000000000003</ele><time>2026-04-11T11:56:11.454Z</time></trkpt><trkpt lat="45.03841" lon="7.6766883"><ele>225.0</ele><time>2026-04-11T11:56:12.454Z</time></trkpt><trkpt lat="45.0384767" lon="7.67668"><ele>225.00000000000003</ele><time>2026-04-11T11:56:13.454Z</time></trkpt><trkpt lat="45.0385433" lon="7.676675"><ele>225.00000000000003</ele><time>2026-04-11T11:56:14.454Z</time></trkpt><trkpt lat="45.0386083" lon="7.676675"><ele>225.0</ele><time>2026-04-11T11:56:15.454Z</time></trkpt><trkpt lat="45.0386783" lon="7.6766733"><ele>225.00000000000003</ele><time>2026-04-11T11:56:16.454Z</time></trkpt><trkpt lat="45.0387483" lon="7.6766733"><ele>225.00000000000003</ele><time>2026-04-11T11:56:17.455Z</time></trkpt><trkpt lat="45.038875" lon="7.676675"><ele>225.0</ele><time>2026-04-11T11:56:19.454Z</time></trkpt><trkpt lat="45.0390033" lon="7.67668"><ele>225.0</ele><time>2026-04-11T11:56:21.454Z</time></trkpt><trkpt lat="45.0390733" lon="7.6766817"><ele>225.0</ele><time>2026-04-11T11:56:22.454Z</time></trkpt><trkpt lat="45.0391467" lon="7.676685"><ele>225.0</ele><time>2026-04-11T11:56:23.454Z</time></trkpt><trkpt lat="45.0392167" lon="7.6766883"><ele>225.0</ele><time>2026-04-11T11:56:24.454Z</time></trkpt><trkpt lat="45.03928" lon="7.6766933"><ele>225.0</ele><time>2026-04-11T11:56:25.454Z</time></trkpt><trkpt lat="45.0393433" lon="7.6767017"><ele>225.4</ele><time>2026-04-11T11:56:26.454Z</time></trkpt><trkpt lat="45.03945" lon="7.6767267"><ele>225.8</ele><time>2026-04-11T11:56:28.454Z</time></trkpt><trkpt lat="45.0395683" lon="7.676765"><ele>226.2</ele><time>2026-04-11T11:56:30.454Z</time></trkpt><trkpt lat="45.0396367" lon="7.676775"><ele>226.6</ele><time>2026-04-11T11:56:31.454Z</time></trkpt><trkpt lat="45.0397033" lon="7.6767817"><ele>227.0</ele><time>2026-04-11T11:56:32.454Z</time></trkpt><trkpt lat="45.039825" lon="7.67681"><ele>227.00000000000003</ele><time>2026-04-11T11:56:34.454Z</time></trkpt><trkpt lat="45.03995" lon="7.6768633"><ele>227.0</ele><time>2026-04-11T11:56:36.454Z</time></trkpt><trkpt lat="45.0400183" lon="7.6768967"><ele>227.0</ele><time>2026-04-11T11:56:37.454Z</time></trkpt><trkpt lat="45.0400867" lon="7.676925"><ele>227.0</ele><time>2026-04-11T11:56:38.454Z</time></trkpt><trkpt lat="45.040155" lon="7.6769367"><ele>227.00000000000003</ele><time>2026-04-11T11:56:39.454Z</time></trkpt><trkpt lat="45.0402167" lon="7.676955"><ele>227.0</ele><time>2026-04-11T11:56:40.454Z</time></trkpt><trkpt lat="45.04028" lon="7.6769817"><ele>226.57142857142858</ele><time>2026-04-11T11:56:41.454Z</time></trkpt><trkpt lat="45.0403433" lon="7.6770067"><ele>226.14285714285717</ele><time>2026-04-11T11:56:42.454Z</time></trkpt><trkpt lat="45.040405" lon="7.6770383"><ele>225.71428571428572</ele><time>2026-04-11T11:56:43.454Z</time></trkpt><trkpt lat="45.04047" lon="7.6770633"><ele>225.28571428571428</ele><time>2026-04-11T11:56:44.454Z</time></trkpt><trkpt lat="45.040535" lon="7.67709"><ele>224.85714285714286</ele><time>2026-04-11T11:56:45.454Z</time></trkpt><trkpt lat="45.0406067" lon="7.6771083"><ele>224.42857142857144</ele><time>2026-04-11T11:56:46.454Z</time></trkpt><trkpt lat="45.04068" lon="7.67713"><ele>224.0</ele><time>2026-04-11T11:56:47.454Z</time></trkpt><trkpt lat="45.0407483" lon="7.67716"><ele>224.28571428571428</ele><time>2026-04-11T11:56:48.454Z</time></trkpt><trkpt lat="45.0408167" lon="7.6771867"><ele>224.57142857142856</ele><time>2026-04-11T11:56:49.454Z</time></trkpt><trkpt lat="45.0408817" lon="7.6772183"><ele>224.85714285714286</ele><time>2026-04-11T11:56:50.454Z</time></trkpt><trkpt lat="45.0409417" lon="7.67725"><ele>225.14285714285714</ele><time>2026-04-11T11:56:51.454Z</time></trkpt><trkpt lat="45.0410017" lon="7.6772917"><ele>225.42857142857142</ele><time>2026-04-11T11:56:52.454Z</time></trkpt><trkpt lat="45.04106" lon="7.67734"><ele>225.71428571428572</ele><time>2026-04-11T11:56:53.454Z</time></trkpt><trkpt lat="45.041125" lon="7.6773917"><ele>226.0</ele><time>2026-04-11T11:56:54.454Z</time></trkpt><trkpt lat="45.04119" lon="7.6774433"><ele>226.0</ele><time>2026-04-11T11:56:55.454Z</time></trkpt><trkpt lat="45.041255" lon="7.6775"><ele>226.0</ele><time>2026-04-11T11:56:56.454Z</time></trkpt><trkpt lat="45.0413217" lon="7.677545"><ele>226.0</ele><time>2026-04-11T11:56:57.454Z</time></trkpt><trkpt lat="45.0413817" lon="7.6775917"><ele>226.0</ele><time>2026-04-11T11:56:58.454Z</time></trkpt><trkpt lat="45.04145" lon="7.6776367"><ele>226.0</ele><time>2026-04-11T11:56:59.454Z</time></trkpt><trkpt lat="45.041515" lon="7.6776767"><ele>226.0</ele><time>2026-04-11T11:57:00.454Z</time></trkpt><trkpt lat="45.0415833" lon="7.6777133"><ele>226.0</ele><time>2026-04-11T11:57:01.454Z</time></trkpt><trkpt lat="45.0416667" lon="7.677725"><ele>225.85714285714286</ele><time>2026-04-11T11:57:02.454Z</time></trkpt><trkpt lat="45.0417317" lon="7.6777667"><ele>225.71428571428572</ele><time>2026-04-11T11:57:03.454Z</time></trkpt><trkpt lat="45.0417917" lon="7.6778133"><ele>225.57142857142858</ele><time>2026-04-11T11:57:04.454Z</time></trkpt><trkpt lat="45.04185" lon="7.67787"><ele>225.42857142857144</ele><time>2026-04-11T11:57:05.454Z</time></trkpt><trkpt lat="45.0419067" lon="7.6779283"><ele>225.28571428571428</ele><time>2026-04-11T11:57:06.454Z</time></trkpt><trkpt lat="45.04196" lon="7.6779867"><ele>225.14285714285717</ele><time>2026-04-11T11:57:07.454Z</time></trkpt><trkpt lat="45.0420117" lon="7.6780433"><ele>225.00000000000003</ele><time>2026-04-11T11:57:08.454Z</time></trkpt><trkpt lat="45.0420967" lon="7.6781383"><ele>224.83333333333334</ele><time>2026-04-11T11:57:10.454Z</time></trkpt><trkpt lat="45.0421883" lon="7.6782517"><ele>224.66666666666669</ele><time>2026-04-11T11:57:12.454Z</time></trkpt><trkpt lat="45.04224" lon="7.6783117"><ele>224.5</ele><time>2026-04-11T11:57:13.454Z</time></trkpt><trkpt lat="45.0422917" lon="7.678375"><ele>224.33333333333334</ele><time>2026-04-11T11:57:14.454Z</time></trkpt><trkpt lat="45.0423467" lon="7.6784417"><ele>224.16666666666669</ele><time>2026-04-11T11:57:15.454Z</time></trkpt><trkpt lat="45.042395" lon="7.678515"><ele>224.0</ele><time>2026-04-11T11:57:16.454Z</time></trkpt><trkpt lat="45.04244" lon="7.678595"><ele>224.57142857142856</ele><time>2026-04-11T11:57:17.454Z</time></trkpt><trkpt lat="45.0424817" lon="7.6786783"><ele>225.14285714285714</ele><time>2026-04-11T11:57:18.454Z</time></trkpt><trkpt lat="45.0425267" lon="7.6787567"><ele>225.71428571428572</ele><time>2026-04-11T11:57:19.454Z</time></trkpt><trkpt lat="45.0425633" lon="7.6788383"><ele>226.28571428571428</ele><time>2026-04-11T11:57:20.454Z</time></trkpt><trkpt lat="45.0425967" lon="7.6789167"><ele>226.85714285714283</ele><time>2026-04-11T11:57:21.454Z</time></trkpt><trkpt lat="45.0426333" lon="7.6789967"><ele>227.42857142857142</ele><time>2026-04-11T11:57:22.454Z</time></trkpt><trkpt lat="45.0426667" lon="7.6790783"><ele>228.0</ele><time>2026-04-11T11:57:23.454Z</time></trkpt><trkpt lat="45.0427383" lon="7.6792283"><ele>228.0</ele><time>2026-04-11T11:57:25.454Z</time></trkpt><trkpt lat="45.0427783" lon="7.6793067"><ele>228.0</ele><time>2026-04-11T11:57:26.454Z</time></trkpt><trkpt lat="45.042845" lon="7.6794517"><ele>228.0</ele><time>2026-04-11T11:57:28.454Z</time></trkpt><trkpt lat="45.0429033" lon="7.6795783"><ele>228.0</ele><time>2026-04-11T11:57:30.454Z</time></trkpt><trkpt lat="45.0429583" lon="7.6796783"><ele>228.0</ele><time>2026-04-11T11:57:32.454Z</time></trkpt><trkpt lat="45.0429933" lon="7.679785"><ele>227.60000000000002</ele><time>2026-04-11T11:57:34.454Z</time></trkpt><trkpt lat="45.0430433" lon="7.6799083"><ele>227.20000000000002</ele><time>2026-04-11T11:57:36.454Z</time></trkpt><trkpt lat="45.0431" lon="7.6800267"><ele>226.8</ele><time>2026-04-11T11:57:38.454Z</time></trkpt><trkpt lat="45.0431533" lon="7.68014"><ele>226.4</ele><time>2026-04-11T11:57:40.454Z</time></trkpt><trkpt lat="45.0432017" lon="7.68027"><ele>226.0</ele><time>2026-04-11T11:57:42.454Z</time></trkpt><trkpt lat="45.0432567" lon="7.6803967"><ele>225.4</ele><time>2026-04-11T11:57:44.455Z</time></trkpt><trkpt lat="45.0433083" lon="7.6805217"><ele>224.8</ele><time>2026-04-11T11:57:46.455Z</time></trkpt><trkpt lat="45.043365" lon="7.6806483"><ele>224.20000000000002</ele><time>2026-04-11T11:57:48.454Z</time></trkpt><trkpt lat="45.0434267" lon="7.6807783"><ele>223.60000000000002</ele><time>2026-04-11T11:57:50.454Z</time></trkpt><trkpt lat="45.043495" lon="7.680915"><ele>223.0</ele><time>2026-04-11T11:57:52.454Z</time></trkpt><trkpt lat="45.0435783" lon="7.6810467"><ele>223.4</ele><time>2026-04-11T11:57:54.454Z</time></trkpt><trkpt lat="45.0436367" lon="7.6811933"><ele>223.8</ele><time>2026-04-11T11:57:56.454Z</time></trkpt><trkpt lat="45.0436733" lon="7.68135"><ele>224.2</ele><time>2026-04-11T11:57:58.454Z</time></trkpt><trkpt lat="45.0437083" lon="7.6815233"><ele>224.6</ele><time>2026-04-11T11:58:00.454Z</time></trkpt><trkpt lat="45.04373" lon="7.6816117"><ele>225.0</ele><time>2026-04-11T11:58:01.454Z</time></trkpt><trkpt lat="45.04376" lon="7.681695"><ele>225.00000000000003</ele><time>2026-04-11T11:58:02.454Z</time></trkpt><trkpt lat="45.04379" lon="7.6817767"><ele>225.0</ele><time>2026-04-11T11:58:03.454Z</time></trkpt><trkpt lat="45.0438167" lon="7.68186"><ele>225.00000000000003</ele><time>2026-04-11T11:58:04.454Z</time></trkpt><trkpt lat="45.0438483" lon="7.6819483"><ele>225.00000000000003</ele><time>2026-04-11T11:58:05.454Z</time></trkpt><trkpt lat="45.0438767" lon="7.6820333"><ele>225.0</ele><time>2026-04-11T11:58:06.454Z</time></trkpt><trkpt lat="45.0439067" lon="7.6821117"><ele>225.00000000000003</ele><time>2026-04-11T11:58:07.454Z</time></trkpt><trkpt lat="45.0439567" lon="7.6822633"><ele>225.00000000000003</ele><time>2026-04-11T11:58:09.455Z</time></trkpt><trkpt lat="45.044005" lon="7.6824067"><ele>225.4</ele><time>2026-04-11T11:58:11.454Z</time></trkpt><trkpt lat="45.0440533" lon="7.682535"><ele>225.8</ele><time>2026-04-11T11:58:13.454Z</time></trkpt><trkpt lat="45.0440917" lon="7.6826483"><ele>226.2</ele><time>2026-04-11T11:58:15.454Z</time></trkpt><trkpt lat="45.0441483" lon="7.6827783"><ele>226.6</ele><time>2026-04-11T11:58:17.454Z</time></trkpt><trkpt lat="45.0442033" lon="7.682915"><ele>227.0</ele><time>2026-04-11T11:58:19.454Z</time></trkpt><trkpt lat="45.044265" lon="7.683065"><ele>227.0</ele><time>2026-04-11T11:58:21.454Z</time></trkpt><trkpt lat="45.0443017" lon="7.6831433"><ele>227.00000000000003</ele><time>2026-04-11T11:58:22.454Z</time></trkpt><trkpt lat="45.0443483" lon="7.683225"><ele>227.0</ele><time>2026-04-11T11:58:23.454Z</time></trkpt><trkpt lat="45.044395" lon="7.6833067"><ele>227.0</ele><time>2026-04-11T11:58:24.454Z</time></trkpt><trkpt lat="45.0444467" lon="7.683385"><ele>227.00000000000003</ele><time>2026-04-11T11:58:25.454Z</time></trkpt><trkpt lat="45.0444933" lon="7.6834533"><ele>227.0</ele><time>2026-04-11T11:58:26.454Z</time></trkpt><trkpt lat="45.04454" lon="7.6835183"><ele>227.0</ele><time>2026-04-11T11:58:27.454Z</time></trkpt><trkpt lat="45.04459" lon="7.683575"><ele>227.5</ele><time>2026-04-11T11:58:28.454Z</time></trkpt><trkpt lat="45.044685" lon="7.6836767"><ele>228.0</ele><time>2026-04-11T11:58:30.455Z</time></trkpt><trkpt lat="45.0447767" lon="7.683775"><ele>228.5</ele><time>2026-04-11T11:58:32.454Z</time></trkpt><trkpt lat="45.044865" lon="7.6838783"><ele>229.0</ele><time>2026-04-11T11:58:34.454Z</time></trkpt><trkpt lat="45.0449567" lon="7.6839683"><ele>228.39999999999998</ele><time>2026-04-11T11:58:36.454Z</time></trkpt><trkpt lat="45.0450417" lon="7.6840417"><ele>227.79999999999998</ele><time>2026-04-11T11:58:38.454Z</time></trkpt><trkpt lat="45.0451417" lon="7.6841033"><ele>227.20000000000002</ele><time>2026-04-11T11:58:40.454Z</time></trkpt><trkpt lat="45.0452217" lon="7.68415"><ele>226.60000000000002</ele><time>2026-04-11T11:58:42.454Z</time></trkpt><trkpt lat="45.0452933" lon="7.6841967"><ele>226.0</ele><time>2026-04-11T11:58:44.454Z</time></trkpt><trkpt lat="45.0453983" lon="7.6842067"><ele>226.0</ele><time>2026-04-11T11:58:46.454Z</time></trkpt><trkpt lat="45.045505" lon="7.6842083"><ele>226.00000000000003</ele><time>2026-04-11T11:58:48.454Z</time></trkpt><trkpt lat="45.045575" lon="7.6842617"><ele>226.00000000000003</ele><time>2026-04-11T11:58:50.454Z</time></trkpt><trkpt lat="45.0456333" lon="7.6843467"><ele>226.0</ele><time>2026-04-11T11:58:52.454Z</time></trkpt><trkpt lat="45.0457183" lon="7.6844233"><ele>226.0</ele><time>2026-04-11T11:58:54.454Z</time></trkpt><trkpt lat="45.0458333" lon="7.6844817"><ele>225.8</ele><time>2026-04-11T11:58:56.454Z</time></trkpt><trkpt lat="45.0459317" lon="7.68454"><ele>225.60000000000002</ele><time>2026-04-11T11:58:58.454Z</time></trkpt><trkpt lat="45.0460217" lon="7.68459"><ele>225.4</ele><time>2026-04-11T11:59:00.454Z</time></trkpt><trkpt lat="45.04612" lon="7.6846583"><ele>225.2</ele><time>2026-04-11T11:59:02.454Z</time></trkpt><trkpt lat="45.0462267" lon="7.684715"><ele>225.0</ele><time>2026-04-11T11:59:04.454Z</time></trkpt><trkpt lat="45.0463233" lon="7.6847783"><ele>225.0</ele><time>2026-04-11T11:59:06.454Z</time></trkpt><trkpt lat="45.0464267" lon="7.68483"><ele>225.0</ele><time>2026-04-11T11:59:08.454Z</time></trkpt><trkpt lat="45.0465267" lon="7.684855"><ele>225.0</ele><time>2026-04-11T11:59:10.455Z</time></trkpt><trkpt lat="45.0466483" lon="7.6848867"><ele>225.0</ele><time>2026-04-11T11:59:12.454Z</time></trkpt><trkpt lat="45.0467133" lon="7.684905"><ele>225.0</ele><time>2026-04-11T11:59:13.454Z</time></trkpt><trkpt lat="45.0467833" lon="7.6849183"><ele>225.0</ele><time>2026-04-11T11:59:14.454Z</time></trkpt><trkpt lat="45.04685" lon="7.684915"><ele>225.0</ele><time>2026-04-11T11:59:15.454Z</time></trkpt><trkpt lat="45.04697" lon="7.6849067"><ele>225.0</ele><time>2026-04-11T11:59:17.455Z</time></trkpt><trkpt lat="45.0470817" lon="7.6849133"><ele>225.0</ele><time>2026-04-11T11:59:19.454Z</time></trkpt><trkpt lat="45.047185" lon="7.6849167"><ele>225.0</ele><time>2026-04-11T11:59:21.455Z</time></trkpt><trkpt lat="45.0472933" lon="7.6849033"><ele>225.0</ele><time>2026-04-11T11:59:23.454Z</time></trkpt><trkpt lat="45.0473883" lon="7.684875"><ele>225.0</ele><time>2026-04-11T11:59:25.454Z</time></trkpt><trkpt lat="45.047475" lon="7.6848417"><ele>225.0</ele><time>2026-04-11T11:59:27.454Z</time></trkpt><trkpt lat="45.0475533" lon="7.6847883"><ele>225.0</ele><time>2026-04-11T11:59:29.454Z</time></trkpt><trkpt lat="45.047625" lon="7.6847433"><ele>225.0</ele><time>2026-04-11T11:59:31.454Z</time></trkpt><trkpt lat="45.0476867" lon="7.684705"><ele>225.0</ele><time>2026-04-11T11:59:33.454Z</time></trkpt><trkpt lat="45.0477533" lon="7.6846617"><ele>225.33333333333334</ele><time>2026-04-11T11:59:35.454Z</time></trkpt><trkpt lat="45.0478283" lon="7.6845967"><ele>225.66666666666669</ele><time>2026-04-11T11:59:37.454Z</time></trkpt><trkpt lat="45.0479033" lon="7.6845267"><ele>226.0</ele><time>2026-04-11T11:59:39.454Z</time></trkpt><trkpt lat="45.0479717" lon="7.68446"><ele>226.33333333333334</ele><time>2026-04-11T11:59:41.454Z</time></trkpt><trkpt lat="45.0480483" lon="7.684395"><ele>226.66666666666669</ele><time>2026-04-11T11:59:43.454Z</time></trkpt><trkpt lat="45.0481283" lon="7.6843517"><ele>227.0</ele><time>2026-04-11T11:59:45.454Z</time></trkpt><trkpt lat="45.04821" lon="7.68432"><ele>227.66666666666669</ele><time>2026-04-11T11:59:47.454Z</time></trkpt><trkpt lat="45.048295" lon="7.6842833"><ele>228.33333333333334</ele><time>2026-04-11T11:59:49.454Z</time></trkpt><trkpt lat="45.0483833" lon="7.6842267"><ele>229.0</ele><time>2026-04-11T11:59:51.454Z</time></trkpt><trkpt lat="45.0484583" lon="7.6841783"><ele>229.66666666666669</ele><time>2026-04-11T11:59:53.454Z</time></trkpt><trkpt lat="45.0485417" lon="7.6841517"><ele>230.33333333333334</ele><time>2026-04-11T11:59:55.454Z</time></trkpt><trkpt lat="45.0486267" lon="7.684135"><ele>231.0</ele><time>2026-04-11T11:59:57.454Z</time></trkpt><trkpt lat="45.0487183" lon="7.6841483"><ele>231.0</ele><time>2026-04-11T11:59:59.454Z</time></trkpt><trkpt lat="45.0488117" lon="7.6841667"><ele>231.00000000000003</ele><time>2026-04-11T12:00:01.454Z</time></trkpt><trkpt lat="45.0489067" lon="7.6842"><ele>231.00000000000003</ele><time>2026-04-11T12:00:03.454Z</time></trkpt><trkpt lat="45.04899" lon="7.6842617"><ele>231.0</ele><time>2026-04-11T12:00:05.454Z</time></trkpt><trkpt lat="45.04907" lon="7.6843467"><ele>231.0</ele><time>2026-04-11T12:00:07.454Z</time></trkpt><trkpt lat="45.049155" lon="7.6844417"><ele>230.83333333333334</ele><time>2026-04-11T12:00:09.454Z</time></trkpt><trkpt lat="45.0492467" lon="7.6845517"><ele>230.66666666666669</ele><time>2026-04-11T12:00:11.454Z</time></trkpt><trkpt lat="45.0493417" lon="7.6846617"><ele>230.5</ele><time>2026-04-11T12:00:13.454Z</time></trkpt><trkpt lat="45.04939" lon="7.6847233"><ele>230.33333333333334</ele><time>2026-04-11T12:00:14.454Z</time></trkpt><trkpt lat="45.0494383" lon="7.68479"><ele>230.16666666666669</ele><time>2026-04-11T12:00:15.454Z</time></trkpt><trkpt lat="45.049485" lon="7.6848583"><ele>230.0</ele><time>2026-04-11T12:00:16.454Z</time></trkpt><trkpt lat="45.0495283" lon="7.6849233"><ele>229.99999999999997</ele><time>2026-04-11T12:00:17.454Z</time></trkpt><trkpt lat="45.0495833" lon="7.6849833"><ele>230.0</ele><time>2026-04-11T12:00:18.454Z</time></trkpt><trkpt lat="45.0496367" lon="7.6850417"><ele>229.99999999999997</ele><time>2026-04-11T12:00:19.454Z</time></trkpt><trkpt lat="45.0496933" lon="7.6850983"><ele>229.99999999999997</ele><time>2026-04-11T12:00:20.454Z</time></trkpt><trkpt lat="45.0497467" lon="7.6851483"><ele>230.0</ele><time>2026-04-11T12:00:21.454Z</time></trkpt><trkpt lat="45.0498033" lon="7.6852"><ele>229.99999999999997</ele><time>2026-04-11T12:00:22.454Z</time></trkpt><trkpt lat="45.04986" lon="7.685255"><ele>229.99999999999997</ele><time>2026-04-11T12:00:23.454Z</time></trkpt><trkpt lat="45.0499217" lon="7.6853133"><ele>228.66666666666669</ele><time>2026-04-11T12:00:24.454Z</time></trkpt><trkpt lat="45.0499917" lon="7.6853683"><ele>227.33333333333334</ele><time>2026-04-11T12:00:25.454Z</time></trkpt><trkpt lat="45.050065" lon="7.6854167"><ele>226.0</ele><time>2026-04-11T12:00:26.454Z</time></trkpt><trkpt lat="45.050135" lon="7.685455"><ele>224.66666666666669</ele><time>2026-04-11T12:00:27.454Z</time></trkpt><trkpt lat="45.0501967" lon="7.6854983"><ele>223.33333333333334</ele><time>2026-04-11T12:00:28.454Z</time></trkpt><trkpt lat="45.0503" lon="7.6855483"><ele>222.0</ele><time>2026-04-11T12:00:30.454Z</time></trkpt><trkpt lat="45.0504067" lon="7.6856033"><ele>222.0</ele><time>2026-04-11T12:00:32.454Z</time></trkpt><trkpt lat="45.0505233" lon="7.6856333"><ele>222.0</ele><time>2026-04-11T12:00:34.454Z</time></trkpt><trkpt lat="45.0505917" lon="7.6856417"><ele>222.0</ele><time>2026-04-11T12:00:35.454Z</time></trkpt><trkpt lat="45.0507067" lon="7.685615"><ele>222.0</ele><time>2026-04-11T12:00:37.454Z</time></trkpt><trkpt lat="45.05082" lon="7.68558"><ele>222.0</ele><time>2026-04-11T12:00:39.454Z</time></trkpt><trkpt lat="45.0509333" lon="7.6855517"><ele>222.6</ele><time>2026-04-11T12:00:41.454Z</time></trkpt><trkpt lat="45.0510433" lon="7.6855417"><ele>223.2</ele><time>2026-04-11T12:00:43.454Z</time></trkpt><trkpt lat="45.0511467" lon="7.685555"><ele>223.8</ele><time>2026-04-11T12:00:45.454Z</time></trkpt><trkpt lat="45.05124" lon="7.6855733"><ele>224.4</ele><time>2026-04-11T12:00:47.455Z</time></trkpt><trkpt lat="45.0513267" lon="7.6856017"><ele>225.0</ele><time>2026-04-11T12:00:49.454Z</time></trkpt><trkpt lat="45.0514017" lon="7.685645"><ele>225.0</ele><time>2026-04-11T12:00:51.454Z</time></trkpt><trkpt lat="45.0514783" lon="7.6856817"><ele>225.0</ele><time>2026-04-11T12:00:53.454Z</time></trkpt><trkpt lat="45.05156" lon="7.68572"><ele>225.0</ele><time>2026-04-11T12:00:55.454Z</time></trkpt><trkpt lat="45.0516483" lon="7.6857467"><ele>225.0</ele><time>2026-04-11T12:00:57.454Z</time></trkpt><trkpt lat="45.05174" lon="7.685755"><ele>225.0</ele><time>2026-04-11T12:00:59.454Z</time></trkpt><trkpt lat="45.0518267" lon="7.6857767"><ele>225.0</ele><time>2026-04-11T12:01:01.454Z</time></trkpt><trkpt lat="45.051915" lon="7.6857817"><ele>225.83333333333334</ele><time>2026-04-11T12:01:03.454Z</time></trkpt><trkpt lat="45.0519967" lon="7.685795"><ele>226.66666666666669</ele><time>2026-04-11T12:01:05.454Z</time></trkpt><trkpt lat="45.05208" lon="7.6858117"><ele>227.5</ele><time>2026-04-11T12:01:07.454Z</time></trkpt><trkpt lat="45.0521683" lon="7.685815"><ele>228.33333333333334</ele><time>2026-04-11T12:01:09.454Z</time></trkpt><trkpt lat="45.0522517" lon="7.685835"><ele>229.16666666666669</ele><time>2026-04-11T12:01:11.454Z</time></trkpt><trkpt lat="45.0523233" lon="7.685835"><ele>230.0</ele><time>2026-04-11T12:01:13.454Z</time></trkpt><trkpt lat="45.0524067" lon="7.6858283"><ele>230.16666666666669</ele><time>2026-04-11T12:01:15.454Z</time></trkpt><trkpt lat="45.0524933" lon="7.6858"><ele>230.33333333333334</ele><time>2026-04-11T12:01:17.454Z</time></trkpt><trkpt lat="45.052565" lon="7.6857467"><ele>230.5</ele><time>2026-04-11T12:01:19.454Z</time></trkpt><trkpt lat="45.0526383" lon="7.685695"><ele>230.66666666666669</ele><time>2026-04-11T12:01:21.454Z</time></trkpt><trkpt lat="45.0527083" lon="7.6856383"><ele>230.83333333333334</ele><time>2026-04-11T12:01:23.454Z</time></trkpt><trkpt lat="45.0527667" lon="7.685555"><ele>231.0</ele><time>2026-04-11T12:01:25.454Z</time></trkpt><trkpt lat="45.052815" lon="7.6854517"><ele>231.0</ele><time>2026-04-11T12:01:27.454Z</time></trkpt><trkpt lat="45.0528933" lon="7.6853167"><ele>231.00000000000003</ele><time>2026-04-11T12:01:30.454Z</time></trkpt><trkpt lat="45.0529417" lon="7.6852133"><ele>231.00000000000003</ele><time>2026-04-11T12:01:32.454Z</time></trkpt><trkpt lat="45.0529883" lon="7.6851017"><ele>231.0</ele><time>2026-04-11T12:01:34.454Z</time></trkpt><trkpt lat="45.0530317" lon="7.6849933"><ele>231.0</ele><time>2026-04-11T12:01:36.454Z</time></trkpt><trkpt lat="45.0530683" lon="7.6848883"><ele>231.33333333333334</ele><time>2026-04-11T12:01:38.454Z</time></trkpt><trkpt lat="45.0531083" lon="7.6847817"><ele>231.66666666666669</ele><time>2026-04-11T12:01:40.454Z</time></trkpt><trkpt lat="45.0531617" lon="7.6847067"><ele>232.0</ele><time>2026-04-11T12:01:42.454Z</time></trkpt><trkpt lat="45.0532467" lon="7.6846767"><ele>232.33333333333334</ele><time>2026-04-11T12:01:44.454Z</time></trkpt><trkpt lat="45.053345" lon="7.68468"><ele>232.66666666666669</ele><time>2026-04-11T12:01:46.454Z</time></trkpt><trkpt lat="45.0534333" lon="7.6846933"><ele>233.0</ele><time>2026-04-11T12:01:48.454Z</time></trkpt><trkpt lat="45.053515" lon="7.6847167"><ele>233.50000000000003</ele><time>2026-04-11T12:01:50.454Z</time></trkpt><trkpt lat="45.0535917" lon="7.6847517"><ele>234.0</ele><time>2026-04-11T12:01:52.454Z</time></trkpt><trkpt lat="45.0536667" lon="7.68478"><ele>234.5</ele><time>2026-04-11T12:01:54.454Z</time></trkpt><trkpt lat="45.0537333" lon="7.6848183"><ele>235.0</ele><time>2026-04-11T12:01:56.454Z</time></trkpt><trkpt lat="45.0538017" lon="7.6848683"><ele>235.50000000000003</ele><time>2026-04-11T12:01:58.454Z</time></trkpt><trkpt lat="45.0538833" lon="7.684915"><ele>236.0</ele><time>2026-04-11T12:02:00.454Z</time></trkpt><trkpt lat="45.0539617" lon="7.684945"><ele>236.00000000000003</ele><time>2026-04-11T12:02:02.454Z</time></trkpt><trkpt lat="45.0540333" lon="7.6849633"><ele>236.0</ele><time>2026-04-11T12:02:04.454Z</time></trkpt><trkpt lat="45.0541033" lon="7.685"><ele>236.0</ele><time>2026-04-11T12:02:06.454Z</time></trkpt><trkpt lat="45.0541783" lon="7.6850283"><ele>236.0</ele><time>2026-04-11T12:02:08.454Z</time></trkpt><trkpt lat="45.05424" lon="7.6850633"><ele>236.00000000000003</ele><time>2026-04-11T12:02:10.454Z</time></trkpt><trkpt lat="45.05433" lon="7.6850817"><ele>236.0</ele><time>2026-04-11T12:02:13.454Z</time></trkpt><trkpt lat="45.0544217" lon="7.685075"><ele>235.85714285714283</ele><time>2026-04-11T12:02:16.454Z</time></trkpt><trkpt lat="45.0544983" lon="7.6850533"><ele>235.71428571428572</ele><time>2026-04-11T12:02:19.454Z</time></trkpt><trkpt lat="45.0545617" lon="7.685065"><ele>235.57142857142856</ele><time>2026-04-11T12:02:22.454Z</time></trkpt><trkpt lat="45.0546317" lon="7.6851083"><ele>235.42857142857142</ele><time>2026-04-11T12:02:26.454Z</time></trkpt><trkpt lat="45.0546633" lon="7.6851867"><ele>235.28571428571428</ele><time>2026-04-11T12:02:30.454Z</time></trkpt><trkpt lat="45.0547017" lon="7.6852733"><ele>235.14285714285714</ele><time>2026-04-11T12:02:34.454Z</time></trkpt><trkpt lat="45.0547467" lon="7.6853617"><ele>235.0</ele><time>2026-04-11T12:02:40.454Z</time></trkpt><trkpt lat="45.05482" lon="7.6854617"><ele>234.99999999999997</ele><time>2026-04-11T12:02:43.454Z</time></trkpt><trkpt lat="45.05489" lon="7.6855383"><ele>235.0</ele><time>2026-04-11T12:02:45.454Z</time></trkpt><trkpt lat="45.0549633" lon="7.685615"><ele>235.0</ele><time>2026-04-11T12:02:47.454Z</time></trkpt><trkpt lat="45.0550333" lon="7.6856817"><ele>235.0</ele><time>2026-04-11T12:02:49.454Z</time></trkpt><trkpt lat="45.0550967" lon="7.6857483"><ele>234.99999999999997</ele><time>2026-04-11T12:02:51.454Z</time></trkpt><trkpt lat="45.0551617" lon="7.6858083"><ele>235.0</ele><time>2026-04-11T12:02:53.454Z</time></trkpt><trkpt lat="45.0552483" lon="7.6858683"><ele>235.2</ele><time>2026-04-11T12:02:55.454Z</time></trkpt><trkpt lat="45.0553417" lon="7.68594"><ele>235.4</ele><time>2026-04-11T12:02:57.454Z</time></trkpt><trkpt lat="45.05543" lon="7.6860267"><ele>235.60000000000002</ele><time>2026-04-11T12:02:59.454Z</time></trkpt><trkpt lat="45.0555133" lon="7.68612"><ele>235.8</ele><time>2026-04-11T12:03:01.454Z</time></trkpt><trkpt lat="45.05561" lon="7.6861867"><ele>236.0</ele><time>2026-04-11T12:03:03.454Z</time></trkpt><trkpt lat="45.0557017" lon="7.6862583"><ele>236.0</ele><time>2026-04-11T12:03:05.454Z</time></trkpt><trkpt lat="45.0557767" lon="7.68632"><ele>236.00000000000003</ele><time>2026-04-11T12:03:07.454Z</time></trkpt><trkpt lat="45.0558567" lon="7.68639"><ele>236.00000000000003</ele><time>2026-04-11T12:03:09.454Z</time></trkpt><trkpt lat="45.055955" lon="7.6864817"><ele>236.0</ele><time>2026-04-11T12:03:11.454Z</time></trkpt><trkpt lat="45.0560717" lon="7.6865717"><ele>236.0</ele><time>2026-04-11T12:03:13.454Z</time></trkpt><trkpt lat="45.056135" lon="7.6866117"><ele>236.0</ele><time>2026-04-11T12:03:14.454Z</time></trkpt><trkpt lat="45.0561917" lon="7.686655"><ele>236.0</ele><time>2026-04-11T12:03:15.454Z</time></trkpt><trkpt lat="45.0562483" lon="7.6867017"><ele>236.0</ele><time>2026-04-11T12:03:16.454Z</time></trkpt><trkpt lat="45.0563083" lon="7.6867433"><ele>236.0</ele><time>2026-04-11T12:03:17.455Z</time></trkpt><trkpt lat="45.056375" lon="7.6867867"><ele>236.0</ele><time>2026-04-11T12:03:18.454Z</time></trkpt><trkpt lat="45.0564383" lon="7.6868283"><ele>236.0</ele><time>2026-04-11T12:03:19.454Z</time></trkpt><trkpt lat="45.056495" lon="7.686875"><ele>236.0</ele><time>2026-04-11T12:03:20.454Z</time></trkpt><trkpt lat="45.056585" lon="7.6869617"><ele>236.0</ele><time>2026-04-11T12:03:22.454Z</time></trkpt><trkpt lat="45.05662" lon="7.6871033"><ele>236.00000000000003</ele><time>2026-04-11T12:03:24.454Z</time></trkpt><trkpt lat="45.056635" lon="7.6872767"><ele>236.00000000000003</ele><time>2026-04-11T12:03:26.454Z</time></trkpt><trkpt lat="45.0566417" lon="7.687455"><ele>236.0</ele><time>2026-04-11T12:03:28.454Z</time></trkpt><trkpt lat="45.0566383" lon="7.687545"><ele>236.0</ele><time>2026-04-11T12:03:29.454Z</time></trkpt><trkpt lat="45.0566267" lon="7.6876333"><ele>235.42857142857142</ele><time>2026-04-11T12:03:30.454Z</time></trkpt><trkpt lat="45.0566117" lon="7.6877217"><ele>234.8571428571429</ele><time>2026-04-11T12:03:31.454Z</time></trkpt><trkpt lat="45.0565933" lon="7.687815"><ele>234.2857142857143</ele><time>2026-04-11T12:03:32.454Z</time></trkpt><trkpt lat="45.056575" lon="7.6879083"><ele>233.71428571428572</ele><time>2026-04-11T12:03:33.454Z</time></trkpt><trkpt lat="45.05655" lon="7.687995"><ele>233.14285714285717</ele><time>2026-04-11T12:03:34.454Z</time></trkpt><trkpt lat="45.0565217" lon="7.6880767"><ele>232.5714285714286</ele><time>2026-04-11T12:03:35.455Z</time></trkpt><trkpt lat="45.0564467" lon="7.6882"><ele>232.00000000000003</ele><time>2026-04-11T12:03:37.454Z</time></trkpt><trkpt lat="45.0563683" lon="7.68829"><ele>231.49999999999997</ele><time>2026-04-11T12:03:39.455Z</time></trkpt><trkpt lat="45.0563233" lon="7.6883667"><ele>231.0</ele><time>2026-04-11T12:03:41.454Z</time></trkpt><trkpt lat="45.0562667" lon="7.6884467"><ele>230.5</ele><time>2026-04-11T12:03:43.454Z</time></trkpt><trkpt lat="45.05632" lon="7.6885033"><ele>230.0</ele><time>2026-04-11T12:03:53.454Z</time></trkpt><trkpt lat="45.0563933" lon="7.6885033"><ele>229.49999999999997</ele><time>2026-04-11T12:03:56.454Z</time></trkpt><trkpt lat="45.0564717" lon="7.6885233"><ele>229.0</ele><time>2026-04-11T12:03:58.454Z</time></trkpt><trkpt lat="45.056555" lon="7.6885583"><ele>229.25</ele><time>2026-04-11T12:04:00.454Z</time></trkpt><trkpt lat="45.0566467" lon="7.6886383"><ele>229.5</ele><time>2026-04-11T12:04:02.454Z</time></trkpt><trkpt lat="45.056725" lon="7.68875"><ele>229.75</ele><time>2026-04-11T12:04:04.454Z</time></trkpt><trkpt lat="45.0568067" lon="7.688865"><ele>230.0</ele><time>2026-04-11T12:04:06.454Z</time></trkpt><trkpt lat="45.0568783" lon="7.6889983"><ele>229.99999999999997</ele><time>2026-04-11T12:04:08.454Z</time></trkpt><trkpt lat="45.0569267" lon="7.6890733"><ele>230.0</ele><time>2026-04-11T12:04:09.454Z</time></trkpt><trkpt lat="45.05698" lon="7.6891417"><ele>229.99999999999997</ele><time>2026-04-11T12:04:10.454Z</time></trkpt><trkpt lat="45.05704" lon="7.6892033"><ele>229.99999999999997</ele><time>2026-04-11T12:04:11.454Z</time></trkpt><trkpt lat="45.0571033" lon="7.6892567"><ele>230.0</ele><time>2026-04-11T12:04:12.454Z</time></trkpt><trkpt lat="45.05717" lon="7.6893033"><ele>229.99999999999997</ele><time>2026-04-11T12:04:13.454Z</time></trkpt><trkpt lat="45.057235" lon="7.6893517"><ele>229.99999999999997</ele><time>2026-04-11T12:04:14.454Z</time></trkpt><trkpt lat="45.0573" lon="7.68939"><ele>229.99999999999997</ele><time>2026-04-11T12:04:15.454Z</time></trkpt><trkpt lat="45.0573633" lon="7.6894233"><ele>230.0</ele><time>2026-04-11T12:04:16.454Z</time></trkpt><trkpt lat="45.057435" lon="7.6894483"><ele>229.99999999999997</ele><time>2026-04-11T12:04:17.454Z</time></trkpt><trkpt lat="45.0575033" lon="7.6894783"><ele>229.99999999999997</ele><time>2026-04-11T12:04:18.454Z</time></trkpt><trkpt lat="45.0575667" lon="7.6895217"><ele>230.0</ele><time>2026-04-11T12:04:19.454Z</time></trkpt><trkpt lat="45.0576283" lon="7.6895633"><ele>229.99999999999997</ele><time>2026-04-11T12:04:20.455Z</time></trkpt><trkpt lat="45.05769" lon="7.6896067"><ele>229.99999999999997</ele><time>2026-04-11T12:04:21.454Z</time></trkpt><trkpt lat="45.0577483" lon="7.6896433"><ele>229.4</ele><time>2026-04-11T12:04:22.454Z</time></trkpt><trkpt lat="45.0578467" lon="7.6897367"><ele>228.8</ele><time>2026-04-11T12:04:24.454Z</time></trkpt><trkpt lat="45.0578983" lon="7.6897883"><ele>228.2</ele><time>2026-04-11T12:04:25.454Z</time></trkpt><trkpt lat="45.0579883" lon="7.6898933"><ele>227.6</ele><time>2026-04-11T12:04:27.454Z</time></trkpt><trkpt lat="45.0580567" lon="7.6900083"><ele>227.0</ele><time>2026-04-11T12:04:29.454Z</time></trkpt><trkpt lat="45.058105" lon="7.69012"><ele>227.0</ele><time>2026-04-11T12:04:31.454Z</time></trkpt><trkpt lat="45.05814" lon="7.69024"><ele>227.0</ele><time>2026-04-11T12:04:33.454Z</time></trkpt><trkpt lat="45.058155" lon="7.690375"><ele>227.0</ele><time>2026-04-11T12:04:35.454Z</time></trkpt><trkpt lat="45.058155" lon="7.69049"><ele>227.0</ele><time>2026-04-11T12:04:37.454Z</time></trkpt><trkpt lat="45.05817" lon="7.6906117"><ele>227.0</ele><time>2026-04-11T12:04:39.454Z</time></trkpt><trkpt lat="45.0582" lon="7.6907383"><ele>226.6</ele><time>2026-04-11T12:04:41.454Z</time></trkpt><trkpt lat="45.058265" lon="7.69084"><ele>226.2</ele><time>2026-04-11T12:04:43.454Z</time></trkpt><trkpt lat="45.058345" lon="7.690935"><ele>225.8</ele><time>2026-04-11T12:04:45.455Z</time></trkpt><trkpt lat="45.0584233" lon="7.6910083"><ele>225.4</ele><time>2026-04-11T12:04:47.454Z</time></trkpt><trkpt lat="45.0585" lon="7.6910267"><ele>225.0</ele><time>2026-04-11T12:04:49.454Z</time></trkpt><trkpt lat="45.0585783" lon="7.691045"><ele>223.83333333333334</ele><time>2026-04-11T12:04:51.454Z</time></trkpt><trkpt lat="45.058645" lon="7.6910933"><ele>222.66666666666669</ele><time>2026-04-11T12:04:53.454Z</time></trkpt><trkpt lat="45.05869" lon="7.6911633"><ele>221.5</ele><time>2026-04-11T12:04:55.454Z</time></trkpt><trkpt lat="45.05871" lon="7.69127"><ele>220.33333333333334</ele><time>2026-04-11T12:04:57.454Z</time></trkpt><trkpt lat="45.0587717" lon="7.691385"><ele>219.16666666666669</ele><time>2026-04-11T12:04:59.454Z</time></trkpt><trkpt lat="45.0588183" lon="7.691445"><ele>218.0</ele><time>2026-04-11T12:05:00.453Z</time></trkpt><trkpt lat="45.05887" lon="7.69151"><ele>218.0</ele><time>2026-04-11T12:05:01.453Z</time></trkpt><trkpt lat="45.0589283" lon="7.6915667"><ele>218.0</ele><time>2026-04-11T12:05:02.453Z</time></trkpt><trkpt lat="45.0589867" lon="7.6916167"><ele>218.0</ele><time>2026-04-11T12:05:03.453Z</time></trkpt><trkpt lat="45.0590483" lon="7.691665"><ele>218.0</ele><time>2026-04-11T12:05:04.453Z</time></trkpt><trkpt lat="45.0591067" lon="7.69171"><ele>218.0</ele><time>2026-04-11T12:05:05.454Z</time></trkpt><trkpt lat="45.05917" lon="7.6917567"><ele>218.0</ele><time>2026-04-11T12:05:06.453Z</time></trkpt><trkpt lat="45.0592383" lon="7.6918067"><ele>218.0</ele><time>2026-04-11T12:05:07.453Z</time></trkpt><trkpt lat="45.0593" lon="7.6918567"><ele>218.33333333333334</ele><time>2026-04-11T12:05:08.453Z</time></trkpt><trkpt lat="45.05937" lon="7.6919033"><ele>218.66666666666669</ele><time>2026-04-11T12:05:09.453Z</time></trkpt><trkpt lat="45.0594417" lon="7.6919533"><ele>219.0</ele><time>2026-04-11T12:05:10.453Z</time></trkpt><trkpt lat="45.0595067" lon="7.692015"><ele>219.33333333333331</ele><time>2026-04-11T12:05:11.453Z</time></trkpt><trkpt lat="45.0595683" lon="7.692075"><ele>219.66666666666666</ele><time>2026-04-11T12:05:12.453Z</time></trkpt><trkpt lat="45.0596367" lon="7.6921333"><ele>220.0</ele><time>2026-04-11T12:05:13.453Z</time></trkpt><trkpt lat="45.059705" lon="7.6921933"><ele>219.99999999999997</ele><time>2026-04-11T12:05:14.453Z</time></trkpt><trkpt lat="45.0597717" lon="7.6922667"><ele>220.0</ele><time>2026-04-11T12:05:15.453Z</time></trkpt><trkpt lat="45.059835" lon="7.69234"><ele>220.0</ele><time>2026-04-11T12:05:16.453Z</time></trkpt><trkpt lat="45.059895" lon="7.692415"><ele>220.0</ele><time>2026-04-11T12:05:17.454Z</time></trkpt><trkpt lat="45.0599617" lon="7.6924867"><ele>219.99999999999997</ele><time>2026-04-11T12:05:18.453Z</time></trkpt><trkpt lat="45.0600267" lon="7.6925617"><ele>220.0</ele><time>2026-04-11T12:05:19.453Z</time></trkpt><trkpt lat="45.06009" lon="7.692625"><ele>220.16666666666666</ele><time>2026-04-11T12:05:20.453Z</time></trkpt><trkpt lat="45.0601567" lon="7.6926767"><ele>220.33333333333331</ele><time>2026-04-11T12:05:21.453Z</time></trkpt><trkpt lat="45.0602233" lon="7.6927217"><ele>220.5</ele><time>2026-04-11T12:05:22.453Z</time></trkpt><trkpt lat="45.0602833" lon="7.6927633"><ele>220.66666666666669</ele><time>2026-04-11T12:05:23.453Z</time></trkpt><trkpt lat="45.06034" lon="7.692815"><ele>220.83333333333334</ele><time>2026-04-11T12:05:24.453Z</time></trkpt><trkpt lat="45.060435" lon="7.6929183"><ele>221.0</ele><time>2026-04-11T12:05:26.453Z</time></trkpt><trkpt lat="45.0605233" lon="7.6930133"><ele>220.60000000000002</ele><time>2026-04-11T12:05:28.453Z</time></trkpt><trkpt lat="45.0606183" lon="7.6931117"><ele>220.20000000000002</ele><time>2026-04-11T12:05:30.453Z</time></trkpt><trkpt lat="45.0607167" lon="7.6932117"><ele>219.79999999999998</ele><time>2026-04-11T12:05:32.453Z</time></trkpt><trkpt lat="45.0607683" lon="7.693265"><ele>219.39999999999998</ele><time>2026-04-11T12:05:33.453Z</time></trkpt><trkpt lat="45.0608217" lon="7.693315"><ele>219.0</ele><time>2026-04-11T12:05:34.453Z</time></trkpt><trkpt lat="45.060925" lon="7.6933933"><ele>220.2</ele><time>2026-04-11T12:05:36.453Z</time></trkpt><trkpt lat="45.0610367" lon="7.6934867"><ele>221.39999999999998</ele><time>2026-04-11T12:05:38.453Z</time></trkpt><trkpt lat="45.0610967" lon="7.69354"><ele>222.6</ele><time>2026-04-11T12:05:39.453Z</time></trkpt><trkpt lat="45.0611517" lon="7.6935983"><ele>223.8</ele><time>2026-04-11T12:05:40.453Z</time></trkpt><trkpt lat="45.0612433" lon="7.69372"><ele>225.0</ele><time>2026-04-11T12:05:42.453Z</time></trkpt><trkpt lat="45.0612917" lon="7.6937783"><ele>225.0</ele><time>2026-04-11T12:05:43.453Z</time></trkpt><trkpt lat="45.06139" lon="7.6938667"><ele>225.0</ele><time>2026-04-11T12:05:45.453Z</time></trkpt><trkpt lat="45.061485" lon="7.69396"><ele>225.0</ele><time>2026-04-11T12:05:47.453Z</time></trkpt><trkpt lat="45.0615783" lon="7.6940683"><ele>225.0</ele><time>2026-04-11T12:05:49.453Z</time></trkpt><trkpt lat="45.0616683" lon="7.6941533"><ele>225.0</ele><time>2026-04-11T12:05:51.453Z</time></trkpt><trkpt lat="45.0617567" lon="7.6942417"><ele>225.0</ele><time>2026-04-11T12:05:53.453Z</time></trkpt><trkpt lat="45.0618283" lon="7.6943167"><ele>225.0</ele><time>2026-04-11T12:05:55.453Z</time></trkpt><trkpt lat="45.061905" lon="7.69438"><ele>225.0</ele><time>2026-04-11T12:05:57.453Z</time></trkpt><trkpt lat="45.06196" lon="7.694435"><ele>225.0</ele><time>2026-04-11T12:05:59.453Z</time></trkpt><trkpt lat="45.0620167" lon="7.6945317"><ele>225.0</ele><time>2026-04-11T12:06:03.453Z</time></trkpt><trkpt lat="45.0620783" lon="7.6945867"><ele>224.5</ele><time>2026-04-11T12:06:05.453Z</time></trkpt><trkpt lat="45.0621433" lon="7.6946517"><ele>224.0</ele><time>2026-04-11T12:06:07.453Z</time></trkpt><trkpt lat="45.0622017" lon="7.6947183"><ele>223.5</ele><time>2026-04-11T12:06:09.453Z</time></trkpt><trkpt lat="45.0622533" lon="7.6947917"><ele>223.0</ele><time>2026-04-11T12:06:11.453Z</time></trkpt><trkpt lat="45.062325" lon="7.6948533"><ele>222.5</ele><time>2026-04-11T12:06:13.453Z</time></trkpt><trkpt lat="45.0623983" lon="7.6948967"><ele>222.0</ele><time>2026-04-11T12:06:15.453Z</time></trkpt><trkpt lat="45.0624667" lon="7.6949533"><ele>222.16666666666666</ele><time>2026-04-11T12:06:17.453Z</time></trkpt><trkpt lat="45.06252" lon="7.6950017"><ele>222.33333333333331</ele><time>2026-04-11T12:06:19.453Z</time></trkpt><trkpt lat="45.0625967" lon="7.6950717"><ele>222.5</ele><time>2026-04-11T12:06:21.453Z</time></trkpt><trkpt lat="45.0626567" lon="7.6951433"><ele>222.66666666666666</ele><time>2026-04-11T12:06:23.453Z</time></trkpt><trkpt lat="45.0627133" lon="7.6952083"><ele>222.83333333333331</ele><time>2026-04-11T12:06:25.454Z</time></trkpt><trkpt lat="45.0627733" lon="7.6952633"><ele>223.0</ele><time>2026-04-11T12:06:27.453Z</time></trkpt><trkpt lat="45.062835" lon="7.6953267"><ele>222.99999999999997</ele><time>2026-04-11T12:06:29.453Z</time></trkpt><trkpt lat="45.06292" lon="7.6953917"><ele>223.0</ele><time>2026-04-11T12:06:32.453Z</time></trkpt><trkpt lat="45.062965" lon="7.6954583"><ele>223.0</ele><time>2026-04-11T12:06:34.453Z</time></trkpt><trkpt lat="45.063015" lon="7.6955383"><ele>223.0</ele><time>2026-04-11T12:06:36.454Z</time></trkpt><trkpt lat="45.0630583" lon="7.69564"><ele>222.99999999999997</ele><time>2026-04-11T12:06:38.453Z</time></trkpt><trkpt lat="45.0631067" lon="7.69572"><ele>223.0</ele><time>2026-04-11T12:06:40.453Z</time></trkpt><trkpt lat="45.06316" lon="7.69577"><ele>223.0</ele><time>2026-04-11T12:06:42.453Z</time></trkpt><trkpt lat="45.0632183" lon="7.6958417"><ele>223.0</ele><time>2026-04-11T12:06:44.453Z</time></trkpt><trkpt lat="45.0632817" lon="7.69592"><ele>223.0</ele><time>2026-04-11T12:06:46.454Z</time></trkpt><trkpt lat="45.0633433" lon="7.6959883"><ele>223.0</ele><time>2026-04-11T12:06:48.453Z</time></trkpt><trkpt lat="45.0633983" lon="7.6960533"><ele>223.0</ele><time>2026-04-11T12:06:50.453Z</time></trkpt><trkpt lat="45.063445" lon="7.6961283"><ele>223.0</ele><time>2026-04-11T12:06:52.453Z</time></trkpt><trkpt lat="45.0634933" lon="7.696195"><ele>223.0</ele><time>2026-04-11T12:06:54.454Z</time></trkpt><trkpt lat="45.063545" lon="7.69626"><ele>223.49999999999997</ele><time>2026-04-11T12:06:56.453Z</time></trkpt><trkpt lat="45.0636183" lon="7.6963483"><ele>224.0</ele><time>2026-04-11T12:06:59.453Z</time></trkpt><trkpt lat="45.0636717" lon="7.6964033"><ele>224.5</ele><time>2026-04-11T12:07:01.453Z</time></trkpt><trkpt lat="45.063725" lon="7.69647"><ele>225.0</ele><time>2026-04-11T12:07:03.453Z</time></trkpt><trkpt lat="45.06378" lon="7.6965667"><ele>225.49999999999997</ele><time>2026-04-11T12:07:06.453Z</time></trkpt><trkpt lat="45.0638383" lon="7.696635"><ele>226.0</ele><time>2026-04-11T12:07:09.453Z</time></trkpt><trkpt lat="45.0638867" lon="7.6967083"><ele>225.99999999999997</ele><time>2026-04-11T12:07:13.454Z</time></trkpt><trkpt lat="45.0638683" lon="7.6968233"><ele>226.0</ele><time>2026-04-11T12:07:17.453Z</time></trkpt><trkpt lat="45.0638017" lon="7.6969167"><ele>226.0</ele><time>2026-04-11T12:07:19.453Z</time></trkpt><trkpt lat="45.06374" lon="7.6969983"><ele>226.0</ele><time>2026-04-11T12:07:21.453Z</time></trkpt><trkpt lat="45.0636933" lon="7.6970833"><ele>225.99999999999997</ele><time>2026-04-11T12:07:23.453Z</time></trkpt><trkpt lat="45.063645" lon="7.6971517"><ele>226.0</ele><time>2026-04-11T12:07:25.453Z</time></trkpt><trkpt lat="45.0635883" lon="7.697235"><ele>223.60000000000002</ele><time>2026-04-11T12:07:27.453Z</time></trkpt><trkpt lat="45.063535" lon="7.69733"><ele>221.20000000000002</ele><time>2026-04-11T12:07:29.453Z</time></trkpt><trkpt lat="45.0634783" lon="7.6974233"><ele>218.79999999999998</ele><time>2026-04-11T12:07:31.453Z</time></trkpt><trkpt lat="45.06342" lon="7.69752"><ele>216.39999999999998</ele><time>2026-04-11T12:07:33.453Z</time></trkpt><trkpt lat="45.06335" lon="7.69762"><ele>214.0</ele><time>2026-04-11T12:07:35.453Z</time></trkpt><trkpt lat="45.0632833" lon="7.69773"><ele>215.6</ele><time>2026-04-11T12:07:37.453Z</time></trkpt><trkpt lat="45.0632067" lon="7.6978517"><ele>217.2</ele><time>2026-04-11T12:07:39.453Z</time></trkpt><trkpt lat="45.06312" lon="7.6979767"><ele>218.79999999999998</ele><time>2026-04-11T12:07:41.453Z</time></trkpt><trkpt lat="45.0630383" lon="7.698095"><ele>220.39999999999998</ele><time>2026-04-11T12:07:43.453Z</time></trkpt><trkpt lat="45.062985" lon="7.6982"><ele>222.0</ele><time>2026-04-11T12:07:45.453Z</time></trkpt><trkpt lat="45.0629733" lon="7.698305"><ele>222.0</ele><time>2026-04-11T12:07:47.453Z</time></trkpt><trkpt lat="45.0630133" lon="7.6984083"><ele>222.0</ele><time>2026-04-11T12:07:49.453Z</time></trkpt><trkpt lat="45.0630883" lon="7.69853"><ele>222.0</ele><time>2026-04-11T12:07:51.453Z</time></trkpt><trkpt lat="45.06317" lon="7.6986583"><ele>222.0</ele><time>2026-04-11T12:07:53.453Z</time></trkpt><trkpt lat="45.0632517" lon="7.6987667"><ele>222.0</ele><time>2026-04-11T12:07:55.453Z</time></trkpt><trkpt lat="45.0633283" lon="7.69889"><ele>222.39999999999998</ele><time>2026-04-11T12:07:57.453Z</time></trkpt><trkpt lat="45.0633983" lon="7.6990067"><ele>222.79999999999998</ele><time>2026-04-11T12:07:59.453Z</time></trkpt><trkpt lat="45.06347" lon="7.6991217"><ele>223.2</ele><time>2026-04-11T12:08:01.453Z</time></trkpt><trkpt lat="45.0635517" lon="7.6992167"><ele>223.6</ele><time>2026-04-11T12:08:03.453Z</time></trkpt><trkpt lat="45.0636233" lon="7.6993133"><ele>224.0</ele><time>2026-04-11T12:08:05.454Z</time></trkpt><trkpt lat="45.06369" lon="7.6994317"><ele>224.39999999999998</ele><time>2026-04-11T12:08:07.453Z</time></trkpt><trkpt lat="45.063775" lon="7.6995433"><ele>224.79999999999998</ele><time>2026-04-11T12:08:09.453Z</time></trkpt><trkpt lat="45.0638583" lon="7.6996517"><ele>225.20000000000002</ele><time>2026-04-11T12:08:11.453Z</time></trkpt><trkpt lat="45.0639417" lon="7.69974"><ele>225.60000000000002</ele><time>2026-04-11T12:08:13.453Z</time></trkpt><trkpt lat="45.06404" lon="7.6998217"><ele>226.0</ele><time>2026-04-11T12:08:15.453Z</time></trkpt><trkpt lat="45.064095" lon="7.69987"><ele>226.4</ele><time>2026-04-11T12:08:16.453Z</time></trkpt><trkpt lat="45.0641467" lon="7.6999217"><ele>226.8</ele><time>2026-04-11T12:08:17.453Z</time></trkpt><trkpt lat="45.0642417" lon="7.700025"><ele>227.20000000000002</ele><time>2026-04-11T12:08:19.453Z</time></trkpt><trkpt lat="45.0643133" lon="7.7001433"><ele>227.60000000000002</ele><time>2026-04-11T12:08:21.453Z</time></trkpt><trkpt lat="45.0643833" lon="7.7002583"><ele>228.0</ele><time>2026-04-11T12:08:23.453Z</time></trkpt><trkpt lat="45.0644517" lon="7.700325"><ele>228.0</ele><time>2026-04-11T12:08:25.453Z</time></trkpt><trkpt lat="45.0645167" lon="7.7003633"><ele>228.0</ele><time>2026-04-11T12:08:27.453Z</time></trkpt><trkpt lat="45.0646033" lon="7.7004033"><ele>228.0</ele><time>2026-04-11T12:08:29.453Z</time></trkpt><trkpt lat="45.06471" lon="7.70046"><ele>228.0</ele><time>2026-04-11T12:08:31.453Z</time></trkpt><trkpt lat="45.0648133" lon="7.7005367"><ele>228.0</ele><time>2026-04-11T12:08:33.453Z</time></trkpt><trkpt lat="45.06491" lon="7.7006383"><ele>228.0</ele><time>2026-04-11T12:08:35.453Z</time></trkpt><trkpt lat="45.065" lon="7.70075"><ele>228.0</ele><time>2026-04-11T12:08:37.453Z</time></trkpt><trkpt lat="45.065045" lon="7.7008133"><ele>228.0</ele><time>2026-04-11T12:08:38.453Z</time></trkpt><trkpt lat="45.0650917" lon="7.70088"><ele>228.0</ele><time>2026-04-11T12:08:39.453Z</time></trkpt><trkpt lat="45.0651367" lon="7.7009433"><ele>228.0</ele><time>2026-04-11T12:08:40.453Z</time></trkpt><trkpt lat="45.0651833" lon="7.7010033"><ele>228.0</ele><time>2026-04-11T12:08:41.453Z</time></trkpt><trkpt lat="45.0652733" lon="7.701105"><ele>228.8</ele><time>2026-04-11T12:08:43.453Z</time></trkpt><trkpt lat="45.0653667" lon="7.7012017"><ele>229.60000000000002</ele><time>2026-04-11T12:08:45.454Z</time></trkpt><trkpt lat="45.0654467" lon="7.7013017"><ele>230.39999999999998</ele><time>2026-04-11T12:08:47.453Z</time></trkpt><trkpt lat="45.0655067" lon="7.7014283"><ele>231.2</ele><time>2026-04-11T12:08:49.453Z</time></trkpt><trkpt lat="45.0655533" lon="7.7015483"><ele>232.0</ele><time>2026-04-11T12:08:51.453Z</time></trkpt><trkpt lat="45.0656133" lon="7.70166"><ele>232.0</ele><time>2026-04-11T12:08:53.453Z</time></trkpt><trkpt lat="45.06568" lon="7.70181"><ele>232.0</ele><time>2026-04-11T12:08:55.453Z</time></trkpt><trkpt lat="45.065715" lon="7.7019017"><ele>232.0</ele><time>2026-04-11T12:08:56.453Z</time></trkpt><trkpt lat="45.0657583" lon="7.702015"><ele>232.0</ele><time>2026-04-11T12:08:57.453Z</time></trkpt><trkpt lat="45.0657983" lon="7.70212"><ele>232.0</ele><time>2026-04-11T12:08:58.453Z</time></trkpt><trkpt lat="45.06584" lon="7.7022133"><ele>231.33333333333331</ele><time>2026-04-11T12:08:59.453Z</time></trkpt><trkpt lat="45.0658817" lon="7.7023"><ele>230.66666666666666</ele><time>2026-04-11T12:09:00.453Z</time></trkpt><trkpt lat="45.06592" lon="7.7023917"><ele>230.0</ele><time>2026-04-11T12:09:01.453Z</time></trkpt><trkpt lat="45.0659533" lon="7.7024717"><ele>229.33333333333331</ele><time>2026-04-11T12:09:02.453Z</time></trkpt><trkpt lat="45.06599" lon="7.702545"><ele>228.66666666666666</ele><time>2026-04-11T12:09:03.453Z</time></trkpt><trkpt lat="45.0660483" lon="7.7026817"><ele>228.0</ele><time>2026-04-11T12:09:05.453Z</time></trkpt><trkpt lat="45.0660967" lon="7.70282"><ele>228.0</ele><time>2026-04-11T12:09:07.453Z</time></trkpt><trkpt lat="45.0661317" lon="7.702895"><ele>228.0</ele><time>2026-04-11T12:09:08.453Z</time></trkpt><trkpt lat="45.06617" lon="7.702975"><ele>228.0</ele><time>2026-04-11T12:09:09.453Z</time></trkpt><trkpt lat="45.0662367" lon="7.70313"><ele>228.0</ele><time>2026-04-11T12:09:11.453Z</time></trkpt><trkpt lat="45.0662767" lon="7.7032117"><ele>228.0</ele><time>2026-04-11T12:09:12.453Z</time></trkpt><trkpt lat="45.0663433" lon="7.7033533"><ele>228.0</ele><time>2026-04-11T12:09:14.453Z</time></trkpt><trkpt lat="45.0663967" lon="7.7034833"><ele>228.0</ele><time>2026-04-11T12:09:16.453Z</time></trkpt><trkpt lat="45.0664467" lon="7.7036167"><ele>228.0</ele><time>2026-04-11T12:09:18.453Z</time></trkpt><trkpt lat="45.06651" lon="7.7037733"><ele>228.0</ele><time>2026-04-11T12:09:20.453Z</time></trkpt><trkpt lat="45.0665683" lon="7.7039283"><ele>228.0</ele><time>2026-04-11T12:09:22.453Z</time></trkpt><trkpt lat="45.0666" lon="7.7040167"><ele>228.0</ele><time>2026-04-11T12:09:23.453Z</time></trkpt><trkpt lat="45.0666267" lon="7.7041167"><ele>228.0</ele><time>2026-04-11T12:09:24.453Z</time></trkpt><trkpt lat="45.0666517" lon="7.7042133"><ele>228.0</ele><time>2026-04-11T12:09:25.453Z</time></trkpt><trkpt lat="45.0666817" lon="7.7043033"><ele>228.0</ele><time>2026-04-11T12:09:26.453Z</time></trkpt><trkpt lat="45.0667117" lon="7.7043867"><ele>228.0</ele><time>2026-04-11T12:09:27.453Z</time></trkpt><trkpt lat="45.0667683" lon="7.7045333"><ele>227.0</ele><time>2026-04-11T12:09:29.453Z</time></trkpt><trkpt lat="45.0668133" lon="7.7046767"><ele>226.0</ele><time>2026-04-11T12:09:31.453Z</time></trkpt><trkpt lat="45.06685" lon="7.7047933"><ele>225.0</ele><time>2026-04-11T12:09:33.453Z</time></trkpt><trkpt lat="45.0668833" lon="7.7049183"><ele>224.0</ele><time>2026-04-11T12:09:35.453Z</time></trkpt><trkpt lat="45.0669317" lon="7.7050633"><ele>223.0</ele><time>2026-04-11T12:09:37.453Z</time></trkpt><trkpt lat="45.0669583" lon="7.7051483"><ele>223.0</ele><time>2026-04-11T12:09:38.453Z</time></trkpt><trkpt lat="45.0669783" lon="7.705235"><ele>223.0</ele><time>2026-04-11T12:09:39.453Z</time></trkpt><trkpt lat="45.067005" lon="7.70532"><ele>223.0</ele><time>2026-04-11T12:09:40.453Z</time></trkpt><trkpt lat="45.0670283" lon="7.7054033"><ele>223.0</ele><time>2026-04-11T12:09:41.453Z</time></trkpt><trkpt lat="45.067055" lon="7.7054883"><ele>223.0</ele><time>2026-04-11T12:09:42.453Z</time></trkpt><trkpt lat="45.06708" lon="7.7055767"><ele>223.0</ele><time>2026-04-11T12:09:43.453Z</time></trkpt><trkpt lat="45.0671083" lon="7.7056633"><ele>223.0</ele><time>2026-04-11T12:09:44.453Z</time></trkpt><trkpt lat="45.06713" lon="7.70575"><ele>223.14285714285714</ele><time>2026-04-11T12:09:45.453Z</time></trkpt><trkpt lat="45.0671567" lon="7.7058433"><ele>223.28571428571428</ele><time>2026-04-11T12:09:46.453Z</time></trkpt><trkpt lat="45.06718" lon="7.7059367"><ele>223.42857142857144</ele><time>2026-04-11T12:09:47.453Z</time></trkpt><trkpt lat="45.0672" lon="7.70603"><ele>223.57142857142856</ele><time>2026-04-11T12:09:48.453Z</time></trkpt><trkpt lat="45.06722" lon="7.706125"><ele>223.71428571428572</ele><time>2026-04-11T12:09:49.453Z</time></trkpt><trkpt lat="45.06724" lon="7.70622"><ele>223.85714285714286</ele><time>2026-04-11T12:09:50.453Z</time></trkpt><trkpt lat="45.06726" lon="7.7063083"><ele>224.0</ele><time>2026-04-11T12:09:51.453Z</time></trkpt><trkpt lat="45.0672983" lon="7.7064817"><ele>224.2</ele><time>2026-04-11T12:09:53.453Z</time></trkpt><trkpt lat="45.067315" lon="7.70657"><ele>224.39999999999998</ele><time>2026-04-11T12:09:54.453Z</time></trkpt><trkpt lat="45.067345" lon="7.70673"><ele>224.6</ele><time>2026-04-11T12:09:56.453Z</time></trkpt><trkpt lat="45.0673667" lon="7.706815"><ele>224.8</ele><time>2026-04-11T12:09:57.453Z</time></trkpt><trkpt lat="45.0673967" lon="7.7069733"><ele>225.0</ele><time>2026-04-11T12:09:59.453Z</time></trkpt><trkpt lat="45.067415" lon="7.7071217"><ele>225.0</ele><time>2026-04-11T12:10:01.453Z</time></trkpt><trkpt lat="45.0674317" lon="7.7072317"><ele>225.0</ele><time>2026-04-11T12:10:03.453Z</time></trkpt><trkpt lat="45.06746" lon="7.7073317"><ele>225.0</ele><time>2026-04-11T12:10:05.453Z</time></trkpt><trkpt lat="45.06751" lon="7.707485"><ele>225.0</ele><time>2026-04-11T12:10:07.453Z</time></trkpt><trkpt lat="45.0675383" lon="7.707575"><ele>225.0</ele><time>2026-04-11T12:10:08.453Z</time></trkpt><trkpt lat="45.0675683" lon="7.707665"><ele>225.0</ele><time>2026-04-11T12:10:09.453Z</time></trkpt><trkpt lat="45.0676" lon="7.7077617"><ele>224.0</ele><time>2026-04-11T12:10:10.453Z</time></trkpt><trkpt lat="45.0676367" lon="7.7078667"><ele>223.0</ele><time>2026-04-11T12:10:11.453Z</time></trkpt><trkpt lat="45.0676683" lon="7.7079783"><ele>222.0</ele><time>2026-04-11T12:10:12.454Z</time></trkpt><trkpt lat="45.0676983" lon="7.7080883"><ele>221.0</ele><time>2026-04-11T12:10:13.453Z</time></trkpt><trkpt lat="45.067725" lon="7.7081917"><ele>220.0</ele><time>2026-04-11T12:10:14.453Z</time></trkpt><trkpt lat="45.0677533" lon="7.7082867"><ele>219.0</ele><time>2026-04-11T12:10:15.453Z</time></trkpt><trkpt lat="45.0677983" lon="7.708445"><ele>219.33333333333334</ele><time>2026-04-11T12:10:17.453Z</time></trkpt><trkpt lat="45.0678467" lon="7.708585"><ele>219.66666666666669</ele><time>2026-04-11T12:10:19.453Z</time></trkpt><trkpt lat="45.06787" lon="7.7087"><ele>220.0</ele><time>2026-04-11T12:10:20.453Z</time></trkpt><trkpt lat="45.067875" lon="7.7088033"><ele>220.33333333333334</ele><time>2026-04-11T12:10:21.453Z</time></trkpt><trkpt lat="45.0679033" lon="7.708905"><ele>220.66666666666669</ele><time>2026-04-11T12:10:22.453Z</time></trkpt><trkpt lat="45.0679233" lon="7.7089983"><ele>221.0</ele><time>2026-04-11T12:10:23.453Z</time></trkpt><trkpt lat="45.0679117" lon="7.709105"><ele>221.00000000000003</ele><time>2026-04-11T12:10:24.453Z</time></trkpt><trkpt lat="45.0679117" lon="7.709255"><ele>221.0</ele><time>2026-04-11T12:10:26.453Z</time></trkpt><trkpt lat="45.0679133" lon="7.709345"><ele>221.0</ele><time>2026-04-11T12:10:28.453Z</time></trkpt><trkpt lat="45.06792" lon="7.7094383"><ele>221.0</ele><time>2026-04-11T12:10:30.453Z</time></trkpt><trkpt lat="45.06794" lon="7.7095417"><ele>221.00000000000003</ele><time>2026-04-11T12:10:32.453Z</time></trkpt><trkpt lat="45.0679567" lon="7.7096633"><ele>221.0</ele><time>2026-04-11T12:10:34.453Z</time></trkpt><trkpt lat="45.0679667" lon="7.7097883"><ele>221.20000000000002</ele><time>2026-04-11T12:10:36.453Z</time></trkpt><trkpt lat="45.067985" lon="7.7099517"><ele>221.40000000000003</ele><time>2026-04-11T12:10:38.453Z</time></trkpt><trkpt lat="45.067995" lon="7.7100417"><ele>221.6</ele><time>2026-04-11T12:10:39.453Z</time></trkpt><trkpt lat="45.0680117" lon="7.7101283"><ele>221.8</ele><time>2026-04-11T12:10:40.453Z</time></trkpt><trkpt lat="45.0680567" lon="7.7102883"><ele>222.0</ele><time>2026-04-11T12:10:42.453Z</time></trkpt><trkpt lat="45.0681017" lon="7.7104533"><ele>222.33333333333334</ele><time>2026-04-11T12:10:44.453Z</time></trkpt><trkpt lat="45.068125" lon="7.7105383"><ele>222.66666666666669</ele><time>2026-04-11T12:10:45.454Z</time></trkpt><trkpt lat="45.06815" lon="7.7106217"><ele>223.0</ele><time>2026-04-11T12:10:46.454Z</time></trkpt><trkpt lat="45.0682117" lon="7.710785"><ele>223.33333333333334</ele><time>2026-04-11T12:10:48.453Z</time></trkpt><trkpt lat="45.06824" lon="7.7108683"><ele>223.66666666666669</ele><time>2026-04-11T12:10:49.453Z</time></trkpt><trkpt lat="45.0682667" lon="7.710955"><ele>224.0</ele><time>2026-04-11T12:10:50.453Z</time></trkpt><trkpt lat="45.0682917" lon="7.7110433"><ele>223.79999999999998</ele><time>2026-04-11T12:10:51.453Z</time></trkpt><trkpt lat="45.0683183" lon="7.7111317"><ele>223.59999999999997</ele><time>2026-04-11T12:10:52.453Z</time></trkpt><trkpt lat="45.0683433" lon="7.7112167"><ele>223.4</ele><time>2026-04-11T12:10:53.453Z</time></trkpt><trkpt lat="45.0683817" lon="7.711395"><ele>223.2</ele><time>2026-04-11T12:10:55.453Z</time></trkpt><trkpt lat="45.0683917" lon="7.711485"><ele>223.0</ele><time>2026-04-11T12:10:56.454Z</time></trkpt><trkpt lat="45.0684167" lon="7.71166"><ele>223.0</ele><time>2026-04-11T12:10:58.453Z</time></trkpt><trkpt lat="45.0684467" lon="7.7118233"><ele>223.0</ele><time>2026-04-11T12:11:00.453Z</time></trkpt><trkpt lat="45.0684783" lon="7.7119883"><ele>223.0</ele><time>2026-04-11T12:11:02.453Z</time></trkpt><trkpt lat="45.06851" lon="7.7121517"><ele>223.0</ele><time>2026-04-11T12:11:04.453Z</time></trkpt><trkpt lat="45.068535" lon="7.7123233"><ele>222.8</ele><time>2026-04-11T12:11:06.453Z</time></trkpt><trkpt lat="45.06856" lon="7.7124917"><ele>222.60000000000002</ele><time>2026-04-11T12:11:08.453Z</time></trkpt><trkpt lat="45.06857" lon="7.7125817"><ele>222.39999999999998</ele><time>2026-04-11T12:11:09.453Z</time></trkpt><trkpt lat="45.0685783" lon="7.712675"><ele>222.2</ele><time>2026-04-11T12:11:10.453Z</time></trkpt><trkpt lat="45.0685983" lon="7.712855"><ele>222.0</ele><time>2026-04-11T12:11:12.453Z</time></trkpt><trkpt lat="45.0686233" lon="7.7130167"><ele>222.0</ele><time>2026-04-11T12:11:14.453Z</time></trkpt><trkpt lat="45.0686383" lon="7.713105"><ele>222.0</ele><time>2026-04-11T12:11:15.453Z</time></trkpt><trkpt lat="45.068655" lon="7.7131917"><ele>222.0</ele><time>2026-04-11T12:11:16.453Z</time></trkpt><trkpt lat="45.0686633" lon="7.7132817"><ele>222.0</ele><time>2026-04-11T12:11:17.453Z</time></trkpt><trkpt lat="45.0686683" lon="7.713375"><ele>222.0</ele><time>2026-04-11T12:11:18.453Z</time></trkpt><trkpt lat="45.0686767" lon="7.7134667"><ele>222.0</ele><time>2026-04-11T12:11:19.453Z</time></trkpt><trkpt lat="45.068685" lon="7.71356"><ele>222.0</ele><time>2026-04-11T12:11:20.453Z</time></trkpt><trkpt lat="45.068695" lon="7.71365"><ele>222.0</ele><time>2026-04-11T12:11:21.453Z</time></trkpt><trkpt lat="45.0687083" lon="7.7137417"><ele>222.0</ele><time>2026-04-11T12:11:22.453Z</time></trkpt><trkpt lat="45.0687183" lon="7.7138317"><ele>222.0</ele><time>2026-04-11T12:11:23.453Z</time></trkpt><trkpt lat="45.0687433" lon="7.7140017"><ele>222.0</ele><time>2026-04-11T12:11:25.453Z</time></trkpt><trkpt lat="45.0687617" lon="7.7141683"><ele>222.0</ele><time>2026-04-11T12:11:27.453Z</time></trkpt><trkpt lat="45.06877" lon="7.7142583"><ele>222.0</ele><time>2026-04-11T12:11:28.453Z</time></trkpt><trkpt lat="45.0687767" lon="7.7143483"><ele>222.14285714285714</ele><time>2026-04-11T12:11:29.453Z</time></trkpt><trkpt lat="45.0687833" lon="7.7144417"><ele>222.2857142857143</ele><time>2026-04-11T12:11:30.453Z</time></trkpt><trkpt lat="45.0687917" lon="7.71454"><ele>222.42857142857144</ele><time>2026-04-11T12:11:31.453Z</time></trkpt><trkpt lat="45.0687983" lon="7.7146433"><ele>222.57142857142856</ele><time>2026-04-11T12:11:32.453Z</time></trkpt><trkpt lat="45.06881" lon="7.7147483"><ele>222.71428571428572</ele><time>2026-04-11T12:11:33.453Z</time></trkpt><trkpt lat="45.068825" lon="7.714845"><ele>222.85714285714286</ele><time>2026-04-11T12:11:34.453Z</time></trkpt><trkpt lat="45.068845" lon="7.7149383"><ele>223.0</ele><time>2026-04-11T12:11:35.453Z</time></trkpt><trkpt lat="45.0688667" lon="7.715035"><ele>223.0</ele><time>2026-04-11T12:11:36.453Z</time></trkpt><trkpt lat="45.0688817" lon="7.71513"><ele>223.0</ele><time>2026-04-11T12:11:37.453Z</time></trkpt><trkpt lat="45.0688933" lon="7.71523"><ele>223.0</ele><time>2026-04-11T12:11:38.453Z</time></trkpt><trkpt lat="45.0689033" lon="7.7153283"><ele>223.0</ele><time>2026-04-11T12:11:39.453Z</time></trkpt><trkpt lat="45.0689133" lon="7.7154233"><ele>223.0</ele><time>2026-04-11T12:11:40.453Z</time></trkpt><trkpt lat="45.068925" lon="7.7155183"><ele>223.0</ele><time>2026-04-11T12:11:41.453Z</time></trkpt><trkpt lat="45.0689383" lon="7.7156083"><ele>223.0</ele><time>2026-04-11T12:11:42.453Z</time></trkpt><trkpt lat="45.0689533" lon="7.7157033"><ele>223.14285714285714</ele><time>2026-04-11T12:11:43.453Z</time></trkpt><trkpt lat="45.0689667" lon="7.7157983"><ele>223.28571428571428</ele><time>2026-04-11T12:11:44.453Z</time></trkpt><trkpt lat="45.06898" lon="7.715895"><ele>223.42857142857144</ele><time>2026-04-11T12:11:45.453Z</time></trkpt><trkpt lat="45.0689883" lon="7.7159983"><ele>223.57142857142856</ele><time>2026-04-11T12:11:46.453Z</time></trkpt><trkpt lat="45.068995" lon="7.7160983"><ele>223.71428571428572</ele><time>2026-04-11T12:11:47.453Z</time></trkpt><trkpt lat="45.0690067" lon="7.71619"><ele>223.85714285714286</ele><time>2026-04-11T12:11:48.453Z</time></trkpt><trkpt lat="45.0690183" lon="7.7162817"><ele>224.0</ele><time>2026-04-11T12:11:49.453Z</time></trkpt><trkpt lat="45.0690333" lon="7.7163733"><ele>223.71428571428572</ele><time>2026-04-11T12:11:50.453Z</time></trkpt><trkpt lat="45.06905" lon="7.7164633"><ele>223.42857142857144</ele><time>2026-04-11T12:11:51.453Z</time></trkpt><trkpt lat="45.069065" lon="7.7165617"><ele>223.14285714285714</ele><time>2026-04-11T12:11:52.453Z</time></trkpt><trkpt lat="45.0690733" lon="7.7166583"><ele>222.85714285714286</ele><time>2026-04-11T12:11:53.453Z</time></trkpt><trkpt lat="45.0690783" lon="7.7167517"><ele>222.57142857142858</ele><time>2026-04-11T12:11:54.453Z</time></trkpt><trkpt lat="45.069085" lon="7.7168433"><ele>222.28571428571428</ele><time>2026-04-11T12:11:55.453Z</time></trkpt><trkpt lat="45.0691" lon="7.71694"><ele>222.0</ele><time>2026-04-11T12:11:56.453Z</time></trkpt><trkpt lat="45.06911" lon="7.71704"><ele>222.57142857142856</ele><time>2026-04-11T12:11:57.453Z</time></trkpt><trkpt lat="45.069125" lon="7.71714"><ele>223.14285714285717</ele><time>2026-04-11T12:11:58.453Z</time></trkpt><trkpt lat="45.0691383" lon="7.7172367"><ele>223.71428571428572</ele><time>2026-04-11T12:11:59.453Z</time></trkpt><trkpt lat="45.0691483" lon="7.717335"><ele>224.28571428571428</ele><time>2026-04-11T12:12:00.453Z</time></trkpt><trkpt lat="45.0691583" lon="7.7174383"><ele>224.85714285714283</ele><time>2026-04-11T12:12:01.453Z</time></trkpt><trkpt lat="45.06917" lon="7.7175367"><ele>225.42857142857144</ele><time>2026-04-11T12:12:02.453Z</time></trkpt><trkpt lat="45.0691733" lon="7.717635"><ele>226.0</ele><time>2026-04-11T12:12:03.453Z</time></trkpt><trkpt lat="45.06918" lon="7.7177333"><ele>225.71428571428572</ele><time>2026-04-11T12:12:04.453Z</time></trkpt><trkpt lat="45.069185" lon="7.7178283"><ele>225.42857142857142</ele><time>2026-04-11T12:12:05.453Z</time></trkpt><trkpt lat="45.0691983" lon="7.7179167"><ele>225.14285714285714</ele><time>2026-04-11T12:12:06.453Z</time></trkpt><trkpt lat="45.0692167" lon="7.7180117"><ele>224.85714285714286</ele><time>2026-04-11T12:12:07.453Z</time></trkpt><trkpt lat="45.0692317" lon="7.7181133"><ele>224.57142857142856</ele><time>2026-04-11T12:12:08.453Z</time></trkpt><trkpt lat="45.0692517" lon="7.7182117"><ele>224.28571428571428</ele><time>2026-04-11T12:12:09.453Z</time></trkpt><trkpt lat="45.06927" lon="7.7183117"><ele>224.0</ele><time>2026-04-11T12:12:10.454Z</time></trkpt><trkpt lat="45.0692883" lon="7.718415"><ele>224.0</ele><time>2026-04-11T12:12:11.453Z</time></trkpt><trkpt lat="45.0693" lon="7.7185117"><ele>224.0</ele><time>2026-04-11T12:12:12.453Z</time></trkpt><trkpt lat="45.0693067" lon="7.71861"><ele>224.0</ele><time>2026-04-11T12:12:13.454Z</time></trkpt><trkpt lat="45.069315" lon="7.718705"><ele>224.0</ele><time>2026-04-11T12:12:14.453Z</time></trkpt><trkpt lat="45.0693283" lon="7.7188"><ele>224.0</ele><time>2026-04-11T12:12:15.453Z</time></trkpt><trkpt lat="45.0693417" lon="7.718895"><ele>224.0</ele><time>2026-04-11T12:12:16.453Z</time></trkpt><trkpt lat="45.0693583" lon="7.7189933"><ele>224.0</ele><time>2026-04-11T12:12:17.453Z</time></trkpt><trkpt lat="45.0693717" lon="7.7190817"><ele>223.71428571428572</ele><time>2026-04-11T12:12:18.453Z</time></trkpt><trkpt lat="45.0693883" lon="7.7191783"><ele>223.42857142857144</ele><time>2026-04-11T12:12:19.453Z</time></trkpt><trkpt lat="45.0693967" lon="7.71927"><ele>223.14285714285714</ele><time>2026-04-11T12:12:20.453Z</time></trkpt><trkpt lat="45.069405" lon="7.7193617"><ele>222.85714285714286</ele><time>2026-04-11T12:12:21.453Z</time></trkpt><trkpt lat="45.0694183" lon="7.71946"><ele>222.57142857142858</ele><time>2026-04-11T12:12:22.453Z</time></trkpt><trkpt lat="45.0694333" lon="7.71956"><ele>222.28571428571428</ele><time>2026-04-11T12:12:23.453Z</time></trkpt><trkpt lat="45.069445" lon="7.71966"><ele>222.0</ele><time>2026-04-11T12:12:24.453Z</time></trkpt><trkpt lat="45.0694583" lon="7.7197583"><ele>222.0</ele><time>2026-04-11T12:12:25.453Z</time></trkpt><trkpt lat="45.0694667" lon="7.7198483"><ele>222.0</ele><time>2026-04-11T12:12:26.453Z</time></trkpt><trkpt lat="45.0694833" lon="7.7200067"><ele>222.0</ele><time>2026-04-11T12:12:28.453Z</time></trkpt><trkpt lat="45.0695033" lon="7.7201467"><ele>222.0</ele><time>2026-04-11T12:12:30.453Z</time></trkpt><trkpt lat="45.06952" lon="7.7202517"><ele>222.0</ele><time>2026-04-11T12:12:32.453Z</time></trkpt><trkpt lat="45.0695267" lon="7.7203717"><ele>222.0</ele><time>2026-04-11T12:12:35.453Z</time></trkpt><trkpt lat="45.0695233" lon="7.7204717"><ele>221.83333333333334</ele><time>2026-04-11T12:12:38.454Z</time></trkpt><trkpt lat="45.0695317" lon="7.720605"><ele>221.66666666666669</ele><time>2026-04-11T12:12:40.453Z</time></trkpt><trkpt lat="45.06956" lon="7.7207683"><ele>221.5</ele><time>2026-04-11T12:12:42.453Z</time></trkpt><trkpt lat="45.06957" lon="7.7208567"><ele>221.33333333333334</ele><time>2026-04-11T12:12:43.453Z</time></trkpt><trkpt lat="45.069575" lon="7.7209467"><ele>221.16666666666669</ele><time>2026-04-11T12:12:44.453Z</time></trkpt><trkpt lat="45.0695833" lon="7.7210383"><ele>221.0</ele><time>2026-04-11T12:12:45.453Z</time></trkpt><trkpt lat="45.0696083" lon="7.7212083"><ele>220.8</ele><time>2026-04-11T12:12:47.453Z</time></trkpt><trkpt lat="45.0696417" lon="7.7213683"><ele>220.60000000000002</ele><time>2026-04-11T12:12:49.453Z</time></trkpt><trkpt lat="45.069675" lon="7.7215383"><ele>220.4</ele><time>2026-04-11T12:12:51.453Z</time></trkpt><trkpt lat="45.069695" lon="7.72163"><ele>220.2</ele><time>2026-04-11T12:12:52.453Z</time></trkpt><trkpt lat="45.0697167" lon="7.721725"><ele>220.0</ele><time>2026-04-11T12:12:53.453Z</time></trkpt><trkpt lat="45.0697383" lon="7.7218183"><ele>219.85714285714283</ele><time>2026-04-11T12:12:54.453Z</time></trkpt><trkpt lat="45.0697633" lon="7.7219117"><ele>219.71428571428572</ele><time>2026-04-11T12:12:55.453Z</time></trkpt><trkpt lat="45.0697867" lon="7.7220117"><ele>219.57142857142856</ele><time>2026-04-11T12:12:56.454Z</time></trkpt><trkpt lat="45.0698133" lon="7.7221033"><ele>219.42857142857142</ele><time>2026-04-11T12:12:57.453Z</time></trkpt><trkpt lat="45.06984" lon="7.722195"><ele>219.28571428571428</ele><time>2026-04-11T12:12:58.453Z</time></trkpt><trkpt lat="45.0698667" lon="7.7222883"><ele>219.14285714285714</ele><time>2026-04-11T12:12:59.453Z</time></trkpt><trkpt lat="45.0698867" lon="7.7223767"><ele>219.0</ele><time>2026-04-11T12:13:00.453Z</time></trkpt><trkpt lat="45.06991" lon="7.72246"><ele>219.0</ele><time>2026-04-11T12:13:01.453Z</time></trkpt><trkpt lat="45.0699333" lon="7.7225483"><ele>219.0</ele><time>2026-04-11T12:13:02.453Z</time></trkpt><trkpt lat="45.069955" lon="7.72264"><ele>219.0</ele><time>2026-04-11T12:13:03.453Z</time></trkpt><trkpt lat="45.0699783" lon="7.7227317"><ele>219.0</ele><time>2026-04-11T12:13:04.453Z</time></trkpt><trkpt lat="45.0699983" lon="7.72282"><ele>219.0</ele><time>2026-04-11T12:13:05.453Z</time></trkpt><trkpt lat="45.0700217" lon="7.7229033"><ele>219.0</ele><time>2026-04-11T12:13:06.453Z</time></trkpt><trkpt lat="45.0700517" lon="7.7229867"><ele>219.0</ele><time>2026-04-11T12:13:07.453Z</time></trkpt><trkpt lat="45.0700817" lon="7.7230717"><ele>219.0</ele><time>2026-04-11T12:13:08.453Z</time></trkpt><trkpt lat="45.0701117" lon="7.7231617"><ele>219.0</ele><time>2026-04-11T12:13:09.453Z</time></trkpt><trkpt lat="45.070135" lon="7.72325"><ele>219.0</ele><time>2026-04-11T12:13:10.453Z</time></trkpt><trkpt lat="45.07015" lon="7.72334"><ele>219.0</ele><time>2026-04-11T12:13:11.453Z</time></trkpt><trkpt lat="45.070165" lon="7.7234333"><ele>219.0</ele><time>2026-04-11T12:13:12.453Z</time></trkpt><trkpt lat="45.070195" lon="7.72361"><ele>219.0</ele><time>2026-04-11T12:13:14.453Z</time></trkpt><trkpt lat="45.0702133" lon="7.7236983"><ele>219.0</ele><time>2026-04-11T12:13:15.453Z</time></trkpt><trkpt lat="45.0702367" lon="7.7237867"><ele>219.0</ele><time>2026-04-11T12:13:16.453Z</time></trkpt><trkpt lat="45.07026" lon="7.723875"><ele>219.0</ele><time>2026-04-11T12:13:17.453Z</time></trkpt><trkpt lat="45.0702817" lon="7.7239633"><ele>219.0</ele><time>2026-04-11T12:13:18.453Z</time></trkpt><trkpt lat="45.0703283" lon="7.724125"><ele>219.0</ele><time>2026-04-11T12:13:20.453Z</time></trkpt><trkpt lat="45.0703583" lon="7.724205"><ele>219.0</ele><time>2026-04-11T12:13:21.453Z</time></trkpt><trkpt lat="45.07039" lon="7.7242867"><ele>219.0</ele><time>2026-04-11T12:13:22.453Z</time></trkpt><trkpt lat="45.07043" lon="7.7243683"><ele>219.0</ele><time>2026-04-11T12:13:23.453Z</time></trkpt><trkpt lat="45.0704817" lon="7.7244533"><ele>219.0</ele><time>2026-04-11T12:13:24.453Z</time></trkpt><trkpt lat="45.0705317" lon="7.72453"><ele>219.0</ele><time>2026-04-11T12:13:25.453Z</time></trkpt><trkpt lat="45.0705833" lon="7.7246033"><ele>219.0</ele><time>2026-04-11T12:13:26.453Z</time></trkpt><trkpt lat="45.0706383" lon="7.7246717"><ele>219.0</ele><time>2026-04-11T12:13:27.453Z</time></trkpt><trkpt lat="45.0706883" lon="7.7247467"><ele>219.0</ele><time>2026-04-11T12:13:28.453Z</time></trkpt><trkpt lat="45.0707367" lon="7.7248183"><ele>218.66666666666666</ele><time>2026-04-11T12:13:29.453Z</time></trkpt><trkpt lat="45.0707833" lon="7.724895"><ele>218.33333333333331</ele><time>2026-04-11T12:13:30.453Z</time></trkpt><trkpt lat="45.07083" lon="7.72496"><ele>218.0</ele><time>2026-04-11T12:13:31.453Z</time></trkpt><trkpt lat="45.070875" lon="7.725025"><ele>217.66666666666666</ele><time>2026-04-11T12:13:32.453Z</time></trkpt><trkpt lat="45.0709533" lon="7.72516"><ele>217.33333333333331</ele><time>2026-04-11T12:13:34.453Z</time></trkpt><trkpt lat="45.0709933" lon="7.72523"><ele>217.0</ele><time>2026-04-11T12:13:35.453Z</time></trkpt><trkpt lat="45.0710683" lon="7.7253733"><ele>217.0</ele><time>2026-04-11T12:13:37.453Z</time></trkpt><trkpt lat="45.071105" lon="7.7254467"><ele>217.0</ele><time>2026-04-11T12:13:38.453Z</time></trkpt><trkpt lat="45.071145" lon="7.7255217"><ele>217.0</ele><time>2026-04-11T12:13:39.454Z</time></trkpt><trkpt lat="45.0711917" lon="7.7256"><ele>217.0</ele><time>2026-04-11T12:13:40.453Z</time></trkpt><trkpt lat="45.0712367" lon="7.7256733"><ele>217.0</ele><time>2026-04-11T12:13:41.453Z</time></trkpt><trkpt lat="45.0712817" lon="7.725745"><ele>217.0</ele><time>2026-04-11T12:13:42.453Z</time></trkpt><trkpt lat="45.0713283" lon="7.7258133"><ele>217.0</ele><time>2026-04-11T12:13:43.453Z</time></trkpt><trkpt lat="45.0713767" lon="7.725895"><ele>216.99999999999997</ele><time>2026-04-11T12:13:44.453Z</time></trkpt><trkpt lat="45.071425" lon="7.72597"><ele>217.0</ele><time>2026-04-11T12:13:45.453Z</time></trkpt><trkpt lat="45.0714733" lon="7.7260483"><ele>217.0</ele><time>2026-04-11T12:13:46.453Z</time></trkpt><trkpt lat="45.071525" lon="7.7261267"><ele>217.0</ele><time>2026-04-11T12:13:47.453Z</time></trkpt><trkpt lat="45.07158" lon="7.7262067"><ele>216.99999999999997</ele><time>2026-04-11T12:13:48.453Z</time></trkpt><trkpt lat="45.0716283" lon="7.7262867"><ele>217.0</ele><time>2026-04-11T12:13:49.453Z</time></trkpt><trkpt lat="45.07168" lon="7.7263683"><ele>217.57142857142858</ele><time>2026-04-11T12:13:50.453Z</time></trkpt><trkpt lat="45.0717317" lon="7.7264483"><ele>218.14285714285714</ele><time>2026-04-11T12:13:51.453Z</time></trkpt><trkpt lat="45.0717783" lon="7.7265267"><ele>218.71428571428572</ele><time>2026-04-11T12:13:52.453Z</time></trkpt><trkpt lat="45.0718267" lon="7.726605"><ele>219.28571428571428</ele><time>2026-04-11T12:13:53.453Z</time></trkpt><trkpt lat="45.0718767" lon="7.7266833"><ele>219.85714285714286</ele><time>2026-04-11T12:13:54.453Z</time></trkpt><trkpt lat="45.0719183" lon="7.72676"><ele>220.42857142857144</ele><time>2026-04-11T12:13:55.453Z</time></trkpt><trkpt lat="45.0719633" lon="7.726835"><ele>221.0</ele><time>2026-04-11T12:13:56.453Z</time></trkpt><trkpt lat="45.0720133" lon="7.7269117"><ele>221.00000000000003</ele><time>2026-04-11T12:13:57.453Z</time></trkpt><trkpt lat="45.0720617" lon="7.726985"><ele>221.0</ele><time>2026-04-11T12:13:58.453Z</time></trkpt><trkpt lat="45.0721133" lon="7.7270583"><ele>221.0</ele><time>2026-04-11T12:13:59.453Z</time></trkpt><trkpt lat="45.0721633" lon="7.7271333"><ele>221.0</ele><time>2026-04-11T12:14:00.453Z</time></trkpt><trkpt lat="45.0722133" lon="7.7272017"><ele>221.0</ele><time>2026-04-11T12:14:01.453Z</time></trkpt><trkpt lat="45.072265" lon="7.7272717"><ele>221.00000000000003</ele><time>2026-04-11T12:14:02.453Z</time></trkpt><trkpt lat="45.07232" lon="7.7273417"><ele>221.0</ele><time>2026-04-11T12:14:03.453Z</time></trkpt><trkpt lat="45.0723733" lon="7.727405"><ele>221.00000000000003</ele><time>2026-04-11T12:14:04.453Z</time></trkpt><trkpt lat="45.0724317" lon="7.7274667"><ele>221.0</ele><time>2026-04-11T12:14:05.453Z</time></trkpt><trkpt lat="45.07249" lon="7.7275233"><ele>221.0</ele><time>2026-04-11T12:14:06.453Z</time></trkpt><trkpt lat="45.0725517" lon="7.7275867"><ele>221.0</ele><time>2026-04-11T12:14:07.453Z</time></trkpt><trkpt lat="45.072615" lon="7.727655"><ele>221.0</ele><time>2026-04-11T12:14:08.453Z</time></trkpt><trkpt lat="45.072675" lon="7.7277183"><ele>221.00000000000003</ele><time>2026-04-11T12:14:09.453Z</time></trkpt><trkpt lat="45.0727383" lon="7.7277717"><ele>221.0</ele><time>2026-04-11T12:14:10.453Z</time></trkpt><trkpt lat="45.0728017" lon="7.727825"><ele>221.16666666666669</ele><time>2026-04-11T12:14:11.453Z</time></trkpt><trkpt lat="45.0728667" lon="7.727875"><ele>221.33333333333334</ele><time>2026-04-11T12:14:12.453Z</time></trkpt><trkpt lat="45.0729333" lon="7.7279333"><ele>221.5</ele><time>2026-04-11T12:14:13.453Z</time></trkpt><trkpt lat="45.0729983" lon="7.72799"><ele>221.66666666666669</ele><time>2026-04-11T12:14:14.453Z</time></trkpt><trkpt lat="45.0730683" lon="7.7280467"><ele>221.83333333333334</ele><time>2026-04-11T12:14:15.454Z</time></trkpt><trkpt lat="45.07314" lon="7.7281017"><ele>222.0</ele><time>2026-04-11T12:14:16.453Z</time></trkpt><trkpt lat="45.0732133" lon="7.728135"><ele>220.83333333333334</ele><time>2026-04-11T12:14:17.453Z</time></trkpt><trkpt lat="45.0732833" lon="7.7281733"><ele>219.66666666666669</ele><time>2026-04-11T12:14:18.453Z</time></trkpt><trkpt lat="45.0733567" lon="7.728215"><ele>218.5</ele><time>2026-04-11T12:14:19.453Z</time></trkpt><trkpt lat="45.073425" lon="7.7282567"><ele>217.33333333333334</ele><time>2026-04-11T12:14:20.453Z</time></trkpt><trkpt lat="45.0734983" lon="7.7283033"><ele>216.16666666666669</ele><time>2026-04-11T12:14:21.453Z</time></trkpt><trkpt lat="45.0735667" lon="7.728355"><ele>215.0</ele><time>2026-04-11T12:14:22.453Z</time></trkpt><trkpt lat="45.07363" lon="7.7283917"><ele>215.0</ele><time>2026-04-11T12:14:23.453Z</time></trkpt><trkpt lat="45.0736983" lon="7.728425"><ele>215.0</ele><time>2026-04-11T12:14:24.453Z</time></trkpt><trkpt lat="45.0737633" lon="7.7284567"><ele>215.0</ele><time>2026-04-11T12:14:25.453Z</time></trkpt><trkpt lat="45.073825" lon="7.7284917"><ele>215.0</ele><time>2026-04-11T12:14:26.453Z</time></trkpt><trkpt lat="45.0738917" lon="7.72853"><ele>215.0</ele><time>2026-04-11T12:14:27.453Z</time></trkpt><trkpt lat="45.073955" lon="7.7285667"><ele>215.0</ele><time>2026-04-11T12:14:28.453Z</time></trkpt><trkpt lat="45.0740167" lon="7.7286033"><ele>215.0</ele><time>2026-04-11T12:14:29.454Z</time></trkpt><trkpt lat="45.0740783" lon="7.7286417"><ele>215.85714285714286</ele><time>2026-04-11T12:14:30.453Z</time></trkpt><trkpt lat="45.07414" lon="7.7286767"><ele>216.71428571428572</ele><time>2026-04-11T12:14:31.453Z</time></trkpt><trkpt lat="45.0742" lon="7.728715"><ele>217.57142857142858</ele><time>2026-04-11T12:14:32.453Z</time></trkpt><trkpt lat="45.07426" lon="7.7287517"><ele>218.42857142857144</ele><time>2026-04-11T12:14:33.453Z</time></trkpt><trkpt lat="45.07432" lon="7.7287917"><ele>219.28571428571428</ele><time>2026-04-11T12:14:34.453Z</time></trkpt><trkpt lat="45.0743817" lon="7.728815"><ele>220.14285714285717</ele><time>2026-04-11T12:14:35.453Z</time></trkpt><trkpt lat="45.0744717" lon="7.7288417"><ele>221.0</ele><time>2026-04-11T12:14:36.453Z</time></trkpt><trkpt lat="45.0745783" lon="7.7288583"><ele>221.0</ele><time>2026-04-11T12:14:38.453Z</time></trkpt><trkpt lat="45.0746883" lon="7.7288633"><ele>221.00000000000003</ele><time>2026-04-11T12:14:40.453Z</time></trkpt><trkpt lat="45.0748133" lon="7.7288517"><ele>221.00000000000003</ele><time>2026-04-11T12:14:42.453Z</time></trkpt><trkpt lat="45.0748867" lon="7.7288467"><ele>221.0</ele><time>2026-04-11T12:14:43.453Z</time></trkpt><trkpt lat="45.0750067" lon="7.728855"><ele>221.0</ele><time>2026-04-11T12:14:45.453Z</time></trkpt><trkpt lat="45.07507" lon="7.72886"><ele>220.25</ele><time>2026-04-11T12:14:46.453Z</time></trkpt><trkpt lat="45.075135" lon="7.728865"><ele>219.5</ele><time>2026-04-11T12:14:47.453Z</time></trkpt><trkpt lat="45.0752583" lon="7.728885"><ele>218.75</ele><time>2026-04-11T12:14:49.453Z</time></trkpt><trkpt lat="45.0753767" lon="7.7289067"><ele>218.0</ele><time>2026-04-11T12:14:52.453Z</time></trkpt><trkpt lat="45.07554" lon="7.7288817"><ele>218.00000000000003</ele><time>2026-04-11T12:14:54.453Z</time></trkpt><trkpt lat="45.07566" lon="7.72889"><ele>218.0</ele><time>2026-04-11T12:14:55.453Z</time></trkpt><trkpt lat="45.0757467" lon="7.7288833"><ele>218.0</ele><time>2026-04-11T12:14:56.453Z</time></trkpt><trkpt lat="45.075815" lon="7.72888"><ele>218.0</ele><time>2026-04-11T12:14:57.453Z</time></trkpt><trkpt lat="45.0759067" lon="7.7288817"><ele>218.00000000000003</ele><time>2026-04-11T12:14:58.453Z</time></trkpt><trkpt lat="45.0759767" lon="7.7288717"><ele>218.0</ele><time>2026-04-11T12:14:59.453Z</time></trkpt><trkpt lat="45.07605" lon="7.728855"><ele>217.83333333333334</ele><time>2026-04-11T12:15:00.453Z</time></trkpt><trkpt lat="45.0761167" lon="7.7288417"><ele>217.66666666666669</ele><time>2026-04-11T12:15:01.453Z</time></trkpt><trkpt lat="45.0761817" lon="7.7288317"><ele>217.5</ele><time>2026-04-11T12:15:02.453Z</time></trkpt><trkpt lat="45.076245" lon="7.7288267"><ele>217.33333333333331</ele><time>2026-04-11T12:15:03.453Z</time></trkpt><trkpt lat="45.0763533" lon="7.72882"><ele>217.16666666666666</ele><time>2026-04-11T12:15:05.453Z</time></trkpt><trkpt lat="45.0764667" lon="7.7288133"><ele>217.0</ele><time>2026-04-11T12:15:07.454Z</time></trkpt><trkpt lat="45.0765317" lon="7.7288067"><ele>217.0</ele><time>2026-04-11T12:15:08.453Z</time></trkpt><trkpt lat="45.0766533" lon="7.728785"><ele>217.0</ele><time>2026-04-11T12:15:10.453Z</time></trkpt><trkpt lat="45.0767667" lon="7.7287233"><ele>217.0</ele><time>2026-04-11T12:15:12.453Z</time></trkpt><trkpt lat="45.0768633" lon="7.7286333"><ele>217.0</ele><time>2026-04-11T12:15:14.453Z</time></trkpt><trkpt lat="45.0769683" lon="7.728545"><ele>216.49999999999997</ele><time>2026-04-11T12:15:16.453Z</time></trkpt><trkpt lat="45.0770233" lon="7.7284983"><ele>216.0</ele><time>2026-04-11T12:15:17.453Z</time></trkpt><trkpt lat="45.0771233" lon="7.7284"><ele>215.5</ele><time>2026-04-11T12:15:19.453Z</time></trkpt><trkpt lat="45.0771783" lon="7.7283467"><ele>215.0</ele><time>2026-04-11T12:15:20.453Z</time></trkpt><trkpt lat="45.0772267" lon="7.728285"><ele>214.49999999999997</ele><time>2026-04-11T12:15:21.453Z</time></trkpt><trkpt lat="45.0772817" lon="7.7282167"><ele>214.0</ele><time>2026-04-11T12:15:22.453Z</time></trkpt><trkpt lat="45.0773383" lon="7.72815"><ele>214.00000000000003</ele><time>2026-04-11T12:15:23.453Z</time></trkpt><trkpt lat="45.0773933" lon="7.7280883"><ele>214.0</ele><time>2026-04-11T12:15:24.453Z</time></trkpt><trkpt lat="45.07745" lon="7.7280267"><ele>214.0</ele><time>2026-04-11T12:15:25.453Z</time></trkpt><trkpt lat="45.0775083" lon="7.7279533"><ele>214.0</ele><time>2026-04-11T12:15:26.453Z</time></trkpt><trkpt lat="45.0775617" lon="7.7278867"><ele>214.0</ele><time>2026-04-11T12:15:27.454Z</time></trkpt><trkpt lat="45.077615" lon="7.7278233"><ele>214.00000000000003</ele><time>2026-04-11T12:15:28.453Z</time></trkpt><trkpt lat="45.0776683" lon="7.7277683"><ele>214.0</ele><time>2026-04-11T12:15:29.453Z</time></trkpt><trkpt lat="45.0777683" lon="7.7276667"><ele>213.49999999999997</ele><time>2026-04-11T12:15:31.453Z</time></trkpt><trkpt lat="45.0778117" lon="7.7275967"><ele>213.0</ele><time>2026-04-11T12:15:32.453Z</time></trkpt><trkpt lat="45.07791" lon="7.7274767"><ele>212.5</ele><time>2026-04-11T12:15:34.453Z</time></trkpt><trkpt lat="45.0779617" lon="7.72742"><ele>212.0</ele><time>2026-04-11T12:15:35.453Z</time></trkpt><trkpt lat="45.0780117" lon="7.727365"><ele>211.49999999999997</ele><time>2026-04-11T12:15:36.453Z</time></trkpt><trkpt lat="45.0780717" lon="7.72731"><ele>211.0</ele><time>2026-04-11T12:15:37.453Z</time></trkpt><trkpt lat="45.078125" lon="7.7272567"><ele>210.99999999999997</ele><time>2026-04-11T12:15:38.453Z</time></trkpt><trkpt lat="45.07818" lon="7.7272017"><ele>211.0</ele><time>2026-04-11T12:15:39.453Z</time></trkpt><trkpt lat="45.078275" lon="7.7270917"><ele>211.0</ele><time>2026-04-11T12:15:41.453Z</time></trkpt><trkpt lat="45.07833" lon="7.72704"><ele>211.0</ele><time>2026-04-11T12:15:42.453Z</time></trkpt><trkpt lat="45.07839" lon="7.7269867"><ele>210.99999999999997</ele><time>2026-04-11T12:15:43.453Z</time></trkpt><trkpt lat="45.07845" lon="7.7269317"><ele>211.0</ele><time>2026-04-11T12:15:44.453Z</time></trkpt><trkpt lat="45.07851" lon="7.7268833"><ele>211.14285714285714</ele><time>2026-04-11T12:15:45.453Z</time></trkpt><trkpt lat="45.078565" lon="7.7268233"><ele>211.28571428571428</ele><time>2026-04-11T12:15:46.453Z</time></trkpt><trkpt lat="45.0786183" lon="7.726765"><ele>211.42857142857144</ele><time>2026-04-11T12:15:47.453Z</time></trkpt><trkpt lat="45.0786717" lon="7.726705"><ele>211.57142857142856</ele><time>2026-04-11T12:15:48.453Z</time></trkpt><trkpt lat="45.0787267" lon="7.7266433"><ele>211.7142857142857</ele><time>2026-04-11T12:15:49.453Z</time></trkpt><trkpt lat="45.0787833" lon="7.7265833"><ele>211.85714285714286</ele><time>2026-04-11T12:15:50.453Z</time></trkpt><trkpt lat="45.078845" lon="7.7265233"><ele>212.0</ele><time>2026-04-11T12:15:51.453Z</time></trkpt><trkpt lat="45.0788983" lon="7.7264667"><ele>212.00000000000003</ele><time>2026-04-11T12:15:52.453Z</time></trkpt><trkpt lat="45.0789533" lon="7.7264117"><ele>212.0</ele><time>2026-04-11T12:15:53.453Z</time></trkpt><trkpt lat="45.07901" lon="7.7263617"><ele>212.0</ele><time>2026-04-11T12:15:54.453Z</time></trkpt><trkpt lat="45.0791083" lon="7.7262683"><ele>212.0</ele><time>2026-04-11T12:15:56.453Z</time></trkpt><trkpt lat="45.0791617" lon="7.72622"><ele>212.00000000000003</ele><time>2026-04-11T12:15:57.453Z</time></trkpt><trkpt lat="45.0792683" lon="7.7261433"><ele>212.0</ele><time>2026-04-11T12:15:59.453Z</time></trkpt><trkpt lat="45.0793817" lon="7.72606"><ele>213.0</ele><time>2026-04-11T12:16:01.453Z</time></trkpt><trkpt lat="45.0794867" lon="7.725965"><ele>214.0</ele><time>2026-04-11T12:16:03.453Z</time></trkpt><trkpt lat="45.0795433" lon="7.7259167"><ele>215.0</ele><time>2026-04-11T12:16:04.453Z</time></trkpt><trkpt lat="45.0796433" lon="7.7258283"><ele>216.0</ele><time>2026-04-11T12:16:06.453Z</time></trkpt><trkpt lat="45.0797017" lon="7.72579"><ele>217.0</ele><time>2026-04-11T12:16:07.453Z</time></trkpt><trkpt lat="45.0798067" lon="7.725705"><ele>217.0</ele><time>2026-04-11T12:16:09.453Z</time></trkpt><trkpt lat="45.0799083" lon="7.7256367"><ele>217.0</ele><time>2026-04-11T12:16:11.454Z</time></trkpt><trkpt lat="45.080015" lon="7.7255717"><ele>217.0</ele><time>2026-04-11T12:16:13.453Z</time></trkpt><trkpt lat="45.0801183" lon="7.72549"><ele>217.0</ele><time>2026-04-11T12:16:15.453Z</time></trkpt><trkpt lat="45.080215" lon="7.7254067"><ele>216.42857142857142</ele><time>2026-04-11T12:16:17.453Z</time></trkpt><trkpt lat="45.0803217" lon="7.7253433"><ele>215.85714285714286</ele><time>2026-04-11T12:16:19.453Z</time></trkpt><trkpt lat="45.080385" lon="7.7253267"><ele>215.28571428571428</ele><time>2026-04-11T12:16:20.453Z</time></trkpt><trkpt lat="45.0804483" lon="7.725305"><ele>214.71428571428572</ele><time>2026-04-11T12:16:21.453Z</time></trkpt><trkpt lat="45.0805133" lon="7.7252817"><ele>214.14285714285714</ele><time>2026-04-11T12:16:22.453Z</time></trkpt><trkpt lat="45.08058" lon="7.72526"><ele>213.57142857142856</ele><time>2026-04-11T12:16:23.453Z</time></trkpt><trkpt lat="45.0806433" lon="7.7252417"><ele>213.0</ele><time>2026-04-11T12:16:24.453Z</time></trkpt><trkpt lat="45.0807083" lon="7.7252067"><ele>212.7142857142857</ele><time>2026-04-11T12:16:25.454Z</time></trkpt><trkpt lat="45.080775" lon="7.7251533"><ele>212.42857142857142</ele><time>2026-04-11T12:16:26.453Z</time></trkpt><trkpt lat="45.08084" lon="7.7250983"><ele>212.14285714285714</ele><time>2026-04-11T12:16:27.453Z</time></trkpt><trkpt lat="45.0809033" lon="7.7250533"><ele>211.85714285714283</ele><time>2026-04-11T12:16:28.453Z</time></trkpt><trkpt lat="45.0809667" lon="7.725"><ele>211.57142857142858</ele><time>2026-04-11T12:16:29.453Z</time></trkpt><trkpt lat="45.0810283" lon="7.7249483"><ele>211.28571428571428</ele><time>2026-04-11T12:16:30.453Z</time></trkpt><trkpt lat="45.0810883" lon="7.7249017"><ele>211.0</ele><time>2026-04-11T12:16:31.453Z</time></trkpt><trkpt lat="45.0811483" lon="7.7248567"><ele>210.99999999999997</ele><time>2026-04-11T12:16:32.453Z</time></trkpt><trkpt lat="45.0812083" lon="7.7248133"><ele>211.0</ele><time>2026-04-11T12:16:33.453Z</time></trkpt><trkpt lat="45.0812683" lon="7.7247733"><ele>211.0</ele><time>2026-04-11T12:16:34.454Z</time></trkpt><trkpt lat="45.0813817" lon="7.7246867"><ele>211.0</ele><time>2026-04-11T12:16:36.453Z</time></trkpt><trkpt lat="45.0814383" lon="7.7246367"><ele>210.99999999999997</ele><time>2026-04-11T12:16:37.453Z</time></trkpt><trkpt lat="45.0814983" lon="7.7245883"><ele>211.0</ele><time>2026-04-11T12:16:38.453Z</time></trkpt><trkpt lat="45.08156" lon="7.7245517"><ele>211.28571428571428</ele><time>2026-04-11T12:16:39.453Z</time></trkpt><trkpt lat="45.0816233" lon="7.724535"><ele>211.57142857142858</ele><time>2026-04-11T12:16:40.454Z</time></trkpt><trkpt lat="45.0816933" lon="7.724525"><ele>211.85714285714283</ele><time>2026-04-11T12:16:41.453Z</time></trkpt><trkpt lat="45.08176" lon="7.724545"><ele>212.14285714285714</ele><time>2026-04-11T12:16:42.453Z</time></trkpt><trkpt lat="45.0818267" lon="7.7245783"><ele>212.42857142857142</ele><time>2026-04-11T12:16:43.453Z</time></trkpt><trkpt lat="45.08189" lon="7.724625"><ele>212.7142857142857</ele><time>2026-04-11T12:16:44.453Z</time></trkpt><trkpt lat="45.0819483" lon="7.7246783"><ele>213.0</ele><time>2026-04-11T12:16:45.453Z</time></trkpt><trkpt lat="45.0820183" lon="7.7248083"><ele>213.0</ele><time>2026-04-11T12:16:47.453Z</time></trkpt><trkpt lat="45.0820333" lon="7.7248967"><ele>213.0</ele><time>2026-04-11T12:16:49.453Z</time></trkpt><trkpt lat="45.0819767" lon="7.7249867"><ele>213.0</ele><time>2026-04-11T12:16:53.453Z</time></trkpt><trkpt lat="45.0818983" lon="7.7250417"><ele>213.0</ele><time>2026-04-11T12:16:56.453Z</time></trkpt><trkpt lat="45.0818417" lon="7.725085"><ele>213.0</ele><time>2026-04-11T12:16:58.453Z</time></trkpt><trkpt lat="45.0817967" lon="7.72518"><ele>213.0</ele><time>2026-04-11T12:17:00.453Z</time></trkpt><trkpt lat="45.08176" lon="7.725285"><ele>213.4</ele><time>2026-04-11T12:17:02.453Z</time></trkpt><trkpt lat="45.0817317" lon="7.7254167"><ele>213.8</ele><time>2026-04-11T12:17:04.453Z</time></trkpt><trkpt lat="45.08171" lon="7.7255567"><ele>214.2</ele><time>2026-04-11T12:17:06.453Z</time></trkpt><trkpt lat="45.0816883" lon="7.7256983"><ele>214.6</ele><time>2026-04-11T12:17:08.453Z</time></trkpt><trkpt lat="45.0816683" lon="7.725845"><ele>215.0</ele><time>2026-04-11T12:17:10.453Z</time></trkpt><trkpt lat="45.0816533" lon="7.7259933"><ele>215.33333333333334</ele><time>2026-04-11T12:17:12.453Z</time></trkpt><trkpt lat="45.0816283" lon="7.7261317"><ele>215.66666666666669</ele><time>2026-04-11T12:17:14.453Z</time></trkpt><trkpt lat="45.08159" lon="7.726245"><ele>216.0</ele><time>2026-04-11T12:17:16.453Z</time></trkpt><trkpt lat="45.0815583" lon="7.7263617"><ele>216.33333333333331</ele><time>2026-04-11T12:17:18.453Z</time></trkpt><trkpt lat="45.0815333" lon="7.726485"><ele>216.66666666666666</ele><time>2026-04-11T12:17:20.453Z</time></trkpt><trkpt lat="45.0815267" lon="7.7265933"><ele>217.0</ele><time>2026-04-11T12:17:22.453Z</time></trkpt><trkpt lat="45.0815117" lon="7.7266967"><ele>216.33333333333331</ele><time>2026-04-11T12:17:24.453Z</time></trkpt><trkpt lat="45.0814883" lon="7.7267917"><ele>215.66666666666666</ele><time>2026-04-11T12:17:26.453Z</time></trkpt><trkpt lat="45.081465" lon="7.72689"><ele>215.0</ele><time>2026-04-11T12:17:28.453Z</time></trkpt><trkpt lat="45.0814517" lon="7.7270133"><ele>214.33333333333331</ele><time>2026-04-11T12:17:30.453Z</time></trkpt><trkpt lat="45.0814233" lon="7.72713"><ele>213.66666666666666</ele><time>2026-04-11T12:17:32.453Z</time></trkpt><trkpt lat="45.081405" lon="7.7272417"><ele>213.0</ele><time>2026-04-11T12:17:34.453Z</time></trkpt><trkpt lat="45.0813883" lon="7.727365"><ele>213.0</ele><time>2026-04-11T12:17:36.453Z</time></trkpt><trkpt lat="45.081375" lon="7.7275017"><ele>213.0</ele><time>2026-04-11T12:17:38.453Z</time></trkpt><trkpt lat="45.0813483" lon="7.7276617"><ele>213.0</ele><time>2026-04-11T12:17:40.453Z</time></trkpt><trkpt lat="45.0813183" lon="7.7278367"><ele>213.0</ele><time>2026-04-11T12:17:42.453Z</time></trkpt><trkpt lat="45.0812967" lon="7.728"><ele>213.4</ele><time>2026-04-11T12:17:44.453Z</time></trkpt><trkpt lat="45.081295" lon="7.728155"><ele>213.8</ele><time>2026-04-11T12:17:46.453Z</time></trkpt><trkpt lat="45.0812783" lon="7.728305"><ele>214.2</ele><time>2026-04-11T12:17:48.453Z</time></trkpt><trkpt lat="45.081255" lon="7.7284633"><ele>214.6</ele><time>2026-04-11T12:17:50.453Z</time></trkpt><trkpt lat="45.0812383" lon="7.7285867"><ele>215.0</ele><time>2026-04-11T12:17:52.453Z</time></trkpt><trkpt lat="45.0811967" lon="7.7287017"><ele>215.66666666666669</ele><time>2026-04-11T12:17:54.454Z</time></trkpt><trkpt lat="45.0811617" lon="7.7288"><ele>216.33333333333334</ele><time>2026-04-11T12:17:56.453Z</time></trkpt><trkpt lat="45.0811383" lon="7.7288933"><ele>217.0</ele><time>2026-04-11T12:17:58.453Z</time></trkpt><trkpt lat="45.0811033" lon="7.7289917"><ele>217.66666666666669</ele><time>2026-04-11T12:18:01.453Z</time></trkpt><trkpt lat="45.0810817" lon="7.72911"><ele>218.33333333333334</ele><time>2026-04-11T12:19:43.452Z</time></trkpt><trkpt lat="45.08103" lon="7.7291867"><ele>219.0</ele><time>2026-04-11T12:20:39.452Z</time></trkpt><trkpt lat="45.08099" lon="7.7293167"><ele>219.33333333333334</ele><time>2026-04-11T12:20:42.452Z</time></trkpt><trkpt lat="45.0809733" lon="7.729405"><ele>219.66666666666669</ele><time>2026-04-11T12:20:44.452Z</time></trkpt><trkpt lat="45.0809367" lon="7.729515"><ele>220.0</ele><time>2026-04-11T12:20:47.452Z</time></trkpt><trkpt lat="45.0808867" lon="7.7296033"><ele>220.33333333333334</ele><time>2026-04-11T12:20:51.452Z</time></trkpt><trkpt lat="45.080845" lon="7.7297217"><ele>220.66666666666669</ele><time>2026-04-11T12:21:29.452Z</time></trkpt><trkpt lat="45.0808317" lon="7.72981"><ele>221.0</ele><time>2026-04-11T12:21:31.452Z</time></trkpt><trkpt lat="45.0808133" lon="7.7299167"><ele>221.0</ele><time>2026-04-11T12:21:33.452Z</time></trkpt><trkpt lat="45.0807817" lon="7.7300383"><ele>221.00000000000003</ele><time>2026-04-11T12:21:35.452Z</time></trkpt><trkpt lat="45.080745" lon="7.73018"><ele>221.00000000000003</ele><time>2026-04-11T12:21:37.452Z</time></trkpt><trkpt lat="45.0806983" lon="7.7303133"><ele>221.0</ele><time>2026-04-11T12:21:39.452Z</time></trkpt><trkpt lat="45.08065" lon="7.7304483"><ele>221.0</ele><time>2026-04-11T12:21:41.452Z</time></trkpt><trkpt lat="45.080625" lon="7.730575"><ele>221.16666666666669</ele><time>2026-04-11T12:21:43.452Z</time></trkpt><trkpt lat="45.0805967" lon="7.730685"><ele>221.33333333333334</ele><time>2026-04-11T12:21:45.452Z</time></trkpt><trkpt lat="45.0805633" lon="7.730785"><ele>221.5</ele><time>2026-04-11T12:21:48.452Z</time></trkpt><trkpt lat="45.0805317" lon="7.7308667"><ele>221.66666666666669</ele><time>2026-04-11T12:21:51.452Z</time></trkpt><trkpt lat="45.0804617" lon="7.730905"><ele>221.83333333333334</ele><time>2026-04-11T12:22:01.452Z</time></trkpt><trkpt lat="45.0803967" lon="7.730975"><ele>222.0</ele><time>2026-04-11T12:22:04.452Z</time></trkpt><trkpt lat="45.08034" lon="7.7310317"><ele>222.66666666666666</ele><time>2026-04-11T12:22:06.452Z</time></trkpt><trkpt lat="45.0802767" lon="7.7310667"><ele>223.33333333333331</ele><time>2026-04-11T12:22:08.452Z</time></trkpt><trkpt lat="45.080215" lon="7.7310967"><ele>224.0</ele><time>2026-04-11T12:22:10.452Z</time></trkpt><trkpt lat="45.0801383" lon="7.7311467"><ele>224.66666666666666</ele><time>2026-04-11T12:22:13.452Z</time></trkpt><trkpt lat="45.080065" lon="7.7312367"><ele>225.33333333333331</ele><time>2026-04-11T12:22:16.452Z</time></trkpt><trkpt lat="45.07999" lon="7.731295"><ele>226.0</ele><time>2026-04-11T12:22:18.452Z</time></trkpt><trkpt lat="45.0799283" lon="7.731365"><ele>226.0</ele><time>2026-04-11T12:22:20.452Z</time></trkpt><trkpt lat="45.0799" lon="7.7314767"><ele>226.00000000000003</ele><time>2026-04-11T12:22:22.452Z</time></trkpt><trkpt lat="45.07995" lon="7.731605"><ele>226.00000000000003</ele><time>2026-04-11T12:22:24.452Z</time></trkpt><trkpt lat="45.0800283" lon="7.7317"><ele>226.0</ele><time>2026-04-11T12:22:26.452Z</time></trkpt><trkpt lat="45.0800933" lon="7.73179"><ele>226.0</ele><time>2026-04-11T12:22:28.452Z</time></trkpt><trkpt lat="45.0801517" lon="7.7318917"><ele>226.0</ele><time>2026-04-11T12:22:30.452Z</time></trkpt><trkpt lat="45.0801867" lon="7.7320183"><ele>226.00000000000003</ele><time>2026-04-11T12:22:32.452Z</time></trkpt><trkpt lat="45.0802233" lon="7.7321583"><ele>226.00000000000003</ele><time>2026-04-11T12:22:34.452Z</time></trkpt><trkpt lat="45.0802633" lon="7.7322917"><ele>226.0</ele><time>2026-04-11T12:22:36.452Z</time></trkpt><trkpt lat="45.0802933" lon="7.7324217"><ele>226.0</ele><time>2026-04-11T12:22:38.452Z</time></trkpt><trkpt lat="45.080325" lon="7.73255"><ele>225.99999999999997</ele><time>2026-04-11T12:22:40.452Z</time></trkpt><trkpt lat="45.080365" lon="7.7326767"><ele>226.0</ele><time>2026-04-11T12:22:42.452Z</time></trkpt><trkpt lat="45.0804033" lon="7.7327983"><ele>226.0</ele><time>2026-04-11T12:22:44.452Z</time></trkpt><trkpt lat="45.080435" lon="7.732915"><ele>226.0</ele><time>2026-04-11T12:22:46.453Z</time></trkpt><trkpt lat="45.0804483" lon="7.733015"><ele>225.99999999999997</ele><time>2026-04-11T12:22:48.452Z</time></trkpt><trkpt lat="45.0804283" lon="7.7331"><ele>226.0</ele><time>2026-04-11T12:22:50.452Z</time></trkpt><trkpt lat="45.08035" lon="7.7331617"><ele>226.60000000000002</ele><time>2026-04-11T12:22:52.452Z</time></trkpt><trkpt lat="45.08026" lon="7.7332217"><ele>227.20000000000002</ele><time>2026-04-11T12:22:54.452Z</time></trkpt><trkpt lat="45.0801733" lon="7.7332583"><ele>227.79999999999998</ele><time>2026-04-11T12:22:56.452Z</time></trkpt><trkpt lat="45.080085" lon="7.7333083"><ele>228.39999999999998</ele><time>2026-04-11T12:22:58.452Z</time></trkpt><trkpt lat="45.0800017" lon="7.7333967"><ele>229.0</ele><time>2026-04-11T12:23:00.452Z</time></trkpt><trkpt lat="45.0799233" lon="7.7334867"><ele>229.6</ele><time>2026-04-11T12:23:02.452Z</time></trkpt><trkpt lat="45.079865" lon="7.733615"><ele>230.2</ele><time>2026-04-11T12:23:04.452Z</time></trkpt><trkpt lat="45.0798267" lon="7.73376"><ele>230.79999999999998</ele><time>2026-04-11T12:23:06.452Z</time></trkpt><trkpt lat="45.0797933" lon="7.7339067"><ele>231.39999999999998</ele><time>2026-04-11T12:23:08.452Z</time></trkpt><trkpt lat="45.0797583" lon="7.7340533"><ele>232.0</ele><time>2026-04-11T12:23:10.452Z</time></trkpt><trkpt lat="45.0797133" lon="7.7341767"><ele>232.0</ele><time>2026-04-11T12:23:12.452Z</time></trkpt><trkpt lat="45.0796683" lon="7.7342967"><ele>232.0</ele><time>2026-04-11T12:23:14.452Z</time></trkpt><trkpt lat="45.0796267" lon="7.73442"><ele>232.0</ele><time>2026-04-11T12:23:16.452Z</time></trkpt><trkpt lat="45.079585" lon="7.734555"><ele>232.0</ele><time>2026-04-11T12:23:18.452Z</time></trkpt><trkpt lat="45.0795367" lon="7.7346817"><ele>232.0</ele><time>2026-04-11T12:23:20.452Z</time></trkpt><trkpt lat="45.0794817" lon="7.7348033"><ele>232.6</ele><time>2026-04-11T12:23:22.452Z</time></trkpt><trkpt lat="45.0794283" lon="7.7349167"><ele>233.2</ele><time>2026-04-11T12:23:24.452Z</time></trkpt><trkpt lat="45.0793683" lon="7.7350383"><ele>233.8</ele><time>2026-04-11T12:23:26.452Z</time></trkpt><trkpt lat="45.0793167" lon="7.73516"><ele>234.4</ele><time>2026-04-11T12:23:28.452Z</time></trkpt><trkpt lat="45.079265" lon="7.73528"><ele>235.0</ele><time>2026-04-11T12:23:30.452Z</time></trkpt><trkpt lat="45.0792167" lon="7.7354"><ele>235.6</ele><time>2026-04-11T12:23:32.452Z</time></trkpt><trkpt lat="45.0791733" lon="7.7355083"><ele>236.2</ele><time>2026-04-11T12:23:34.452Z</time></trkpt><trkpt lat="45.0791317" lon="7.7356167"><ele>236.8</ele><time>2026-04-11T12:23:36.452Z</time></trkpt><trkpt lat="45.0790733" lon="7.7357217"><ele>237.4</ele><time>2026-04-11T12:23:38.452Z</time></trkpt><trkpt lat="45.078995" lon="7.7358283"><ele>238.0</ele><time>2026-04-11T12:23:40.452Z</time></trkpt><trkpt lat="45.0789483" lon="7.7359433"><ele>238.0</ele><time>2026-04-11T12:23:42.452Z</time></trkpt><trkpt lat="45.078915" lon="7.7360467"><ele>238.0</ele><time>2026-04-11T12:23:44.452Z</time></trkpt><trkpt lat="45.0788717" lon="7.7361517"><ele>238.0</ele><time>2026-04-11T12:23:46.452Z</time></trkpt><trkpt lat="45.07882" lon="7.736265"><ele>238.0</ele><time>2026-04-11T12:23:48.452Z</time></trkpt><trkpt lat="45.0787717" lon="7.7363867"><ele>238.0</ele><time>2026-04-11T12:23:50.452Z</time></trkpt><trkpt lat="45.0787267" lon="7.7365083"><ele>238.0</ele><time>2026-04-11T12:23:52.452Z</time></trkpt><trkpt lat="45.0786817" lon="7.7366367"><ele>238.0</ele><time>2026-04-11T12:23:54.452Z</time></trkpt><trkpt lat="45.07863" lon="7.7367617"><ele>238.0</ele><time>2026-04-11T12:23:56.452Z</time></trkpt><trkpt lat="45.0785767" lon="7.7368767"><ele>238.0</ele><time>2026-04-11T12:23:58.452Z</time></trkpt><trkpt lat="45.07852" lon="7.73699"><ele>238.0</ele><time>2026-04-11T12:24:00.452Z</time></trkpt><trkpt lat="45.0784517" lon="7.7371117"><ele>238.4</ele><time>2026-04-11T12:24:02.452Z</time></trkpt><trkpt lat="45.0784017" lon="7.7372483"><ele>238.8</ele><time>2026-04-11T12:24:04.452Z</time></trkpt><trkpt lat="45.0783333" lon="7.737325"><ele>239.2</ele><time>2026-04-11T12:24:06.452Z</time></trkpt><trkpt lat="45.078265" lon="7.7374017"><ele>239.6</ele><time>2026-04-11T12:24:08.452Z</time></trkpt><trkpt lat="45.0781817" lon="7.7374817"><ele>240.0</ele><time>2026-04-11T12:24:10.452Z</time></trkpt><trkpt lat="45.0780983" lon="7.7375667"><ele>240.0</ele><time>2026-04-11T12:24:12.452Z</time></trkpt><trkpt lat="45.0780267" lon="7.7376667"><ele>240.0</ele><time>2026-04-11T12:24:14.452Z</time></trkpt><trkpt lat="45.0779533" lon="7.7377533"><ele>240.0</ele><time>2026-04-11T12:24:16.452Z</time></trkpt><trkpt lat="45.0778767" lon="7.7378467"><ele>240.0</ele><time>2026-04-11T12:24:18.452Z</time></trkpt><trkpt lat="45.0778083" lon="7.7379133"><ele>240.0</ele><time>2026-04-11T12:24:20.452Z</time></trkpt><trkpt lat="45.0777367" lon="7.738005"><ele>240.75</ele><time>2026-04-11T12:24:22.452Z</time></trkpt><trkpt lat="45.077655" lon="7.7380867"><ele>241.5</ele><time>2026-04-11T12:24:24.452Z</time></trkpt><trkpt lat="45.0775917" lon="7.7381783"><ele>242.25</ele><time>2026-04-11T12:24:26.452Z</time></trkpt><trkpt lat="45.0774533" lon="7.7383067"><ele>243.0</ele><time>2026-04-11T12:24:29.452Z</time></trkpt><trkpt lat="45.0773567" lon="7.73839"><ele>243.60000000000002</ele><time>2026-04-11T12:24:31.452Z</time></trkpt><trkpt lat="45.077265" lon="7.7384683"><ele>244.20000000000002</ele><time>2026-04-11T12:24:33.452Z</time></trkpt><trkpt lat="45.0771817" lon="7.738535"><ele>244.8</ele><time>2026-04-11T12:24:35.452Z</time></trkpt><trkpt lat="45.0770817" lon="7.738585"><ele>245.4</ele><time>2026-04-11T12:24:37.452Z</time></trkpt><trkpt lat="45.0769817" lon="7.7386517"><ele>246.0</ele><time>2026-04-11T12:24:39.452Z</time></trkpt><trkpt lat="45.07688" lon="7.7387117"><ele>246.4</ele><time>2026-04-11T12:24:41.452Z</time></trkpt><trkpt lat="45.0767817" lon="7.73874"><ele>246.8</ele><time>2026-04-11T12:24:43.452Z</time></trkpt><trkpt lat="45.0766883" lon="7.738795"><ele>247.20000000000002</ele><time>2026-04-11T12:24:45.452Z</time></trkpt><trkpt lat="45.0765933" lon="7.73886"><ele>247.60000000000002</ele><time>2026-04-11T12:24:47.452Z</time></trkpt><trkpt lat="45.0764967" lon="7.7389033"><ele>248.0</ele><time>2026-04-11T12:24:49.452Z</time></trkpt><trkpt lat="45.076415" lon="7.7389533"><ele>248.50000000000003</ele><time>2026-04-11T12:24:51.452Z</time></trkpt><trkpt lat="45.0763433" lon="7.7389883"><ele>249.0</ele><time>2026-04-11T12:24:53.452Z</time></trkpt><trkpt lat="45.076275" lon="7.7390233"><ele>249.5</ele><time>2026-04-11T12:24:55.452Z</time></trkpt><trkpt lat="45.0762033" lon="7.739085"><ele>250.0</ele><time>2026-04-11T12:24:57.452Z</time></trkpt><trkpt lat="45.07614" lon="7.7391817"><ele>250.50000000000003</ele><time>2026-04-11T12:24:59.452Z</time></trkpt><trkpt lat="45.07612" lon="7.7392933"><ele>251.0</ele><time>2026-04-11T12:25:01.452Z</time></trkpt><trkpt lat="45.076135" lon="7.7393983"><ele>251.0</ele><time>2026-04-11T12:25:03.452Z</time></trkpt><trkpt lat="45.07618" lon="7.7395217"><ele>251.00000000000003</ele><time>2026-04-11T12:25:05.452Z</time></trkpt><trkpt lat="45.0762283" lon="7.7396667"><ele>251.00000000000003</ele><time>2026-04-11T12:25:07.452Z</time></trkpt><trkpt lat="45.076275" lon="7.7398117"><ele>251.0</ele><time>2026-04-11T12:25:09.452Z</time></trkpt><trkpt lat="45.0763167" lon="7.7399467"><ele>251.0</ele><time>2026-04-11T12:25:11.452Z</time></trkpt><trkpt lat="45.0763033" lon="7.740085"><ele>251.20000000000002</ele><time>2026-04-11T12:25:13.452Z</time></trkpt><trkpt lat="45.0762817" lon="7.7402167"><ele>251.40000000000003</ele><time>2026-04-11T12:25:15.452Z</time></trkpt><trkpt lat="45.0762517" lon="7.740355"><ele>251.6</ele><time>2026-04-11T12:25:17.452Z</time></trkpt><trkpt lat="45.0762267" lon="7.7404917"><ele>251.8</ele><time>2026-04-11T12:25:19.452Z</time></trkpt><trkpt lat="45.0762033" lon="7.7406167"><ele>252.0</ele><time>2026-04-11T12:25:21.452Z</time></trkpt><trkpt lat="45.0761633" lon="7.74074"><ele>252.0</ele><time>2026-04-11T12:25:23.452Z</time></trkpt><trkpt lat="45.076125" lon="7.7408617"><ele>252.0</ele><time>2026-04-11T12:25:25.452Z</time></trkpt><trkpt lat="45.0760767" lon="7.7409767"><ele>252.0</ele><time>2026-04-11T12:25:27.452Z</time></trkpt><trkpt lat="45.0760083" lon="7.741065"><ele>252.0</ele><time>2026-04-11T12:25:29.452Z</time></trkpt><trkpt lat="45.0759233" lon="7.7411083"><ele>252.0</ele><time>2026-04-11T12:25:31.452Z</time></trkpt><trkpt lat="45.07583" lon="7.7411183"><ele>252.5</ele><time>2026-04-11T12:25:33.452Z</time></trkpt><trkpt lat="45.0757383" lon="7.7411333"><ele>253.0</ele><time>2026-04-11T12:25:35.452Z</time></trkpt><trkpt lat="45.07565" lon="7.7411367"><ele>253.5</ele><time>2026-04-11T12:25:37.452Z</time></trkpt><trkpt lat="45.07557" lon="7.7411467"><ele>254.0</ele><time>2026-04-11T12:25:39.452Z</time></trkpt><trkpt lat="45.0754933" lon="7.7411833"><ele>254.5</ele><time>2026-04-11T12:25:41.452Z</time></trkpt><trkpt lat="45.0754317" lon="7.741255"><ele>255.0</ele><time>2026-04-11T12:25:43.452Z</time></trkpt><trkpt lat="45.0754" lon="7.74137"><ele>255.0</ele><time>2026-04-11T12:25:45.452Z</time></trkpt><trkpt lat="45.07538" lon="7.7415133"><ele>255.0</ele><time>2026-04-11T12:25:47.453Z</time></trkpt><trkpt lat="45.0753733" lon="7.74165"><ele>255.0</ele><time>2026-04-11T12:25:49.452Z</time></trkpt><trkpt lat="45.075365" lon="7.74179"><ele>255.0</ele><time>2026-04-11T12:25:51.452Z</time></trkpt><trkpt lat="45.07534" lon="7.741935"><ele>255.0</ele><time>2026-04-11T12:25:53.452Z</time></trkpt><trkpt lat="45.0753133" lon="7.7420783"><ele>255.2</ele><time>2026-04-11T12:25:55.452Z</time></trkpt><trkpt lat="45.07527" lon="7.74222"><ele>255.4</ele><time>2026-04-11T12:25:57.452Z</time></trkpt><trkpt lat="45.0752217" lon="7.7423583"><ele>255.60000000000002</ele><time>2026-04-11T12:25:59.452Z</time></trkpt><trkpt lat="45.075175" lon="7.742495"><ele>255.8</ele><time>2026-04-11T12:26:01.452Z</time></trkpt><trkpt lat="45.0751267" lon="7.742635"><ele>256.0</ele><time>2026-04-11T12:26:03.452Z</time></trkpt><trkpt lat="45.0750733" lon="7.7427633"><ele>256.0</ele><time>2026-04-11T12:26:05.452Z</time></trkpt><trkpt lat="45.0750183" lon="7.7428933"><ele>256.0</ele><time>2026-04-11T12:26:07.452Z</time></trkpt><trkpt lat="45.0749667" lon="7.7430167"><ele>256.0</ele><time>2026-04-11T12:26:09.452Z</time></trkpt><trkpt lat="45.0749017" lon="7.743135"><ele>256.0</ele><time>2026-04-11T12:26:11.453Z</time></trkpt><trkpt lat="45.0748217" lon="7.7432267"><ele>256.0</ele><time>2026-04-11T12:26:13.452Z</time></trkpt><trkpt lat="45.0747567" lon="7.7433233"><ele>257.6</ele><time>2026-04-11T12:26:15.452Z</time></trkpt><trkpt lat="45.0746917" lon="7.7434267"><ele>259.20000000000005</ele><time>2026-04-11T12:26:17.452Z</time></trkpt><trkpt lat="45.07463" lon="7.7435283"><ele>260.79999999999995</ele><time>2026-04-11T12:26:19.453Z</time></trkpt><trkpt lat="45.074555" lon="7.7436267"><ele>262.4</ele><time>2026-04-11T12:26:21.452Z</time></trkpt><trkpt lat="45.0744783" lon="7.7437183"><ele>264.0</ele><time>2026-04-11T12:26:23.452Z</time></trkpt><trkpt lat="45.0744067" lon="7.743815"><ele>264.0</ele><time>2026-04-11T12:26:25.452Z</time></trkpt><trkpt lat="45.07433" lon="7.7438867"><ele>264.0</ele><time>2026-04-11T12:26:27.452Z</time></trkpt><trkpt lat="45.0742367" lon="7.7439433"><ele>264.0</ele><time>2026-04-11T12:26:29.452Z</time></trkpt><trkpt lat="45.0741483" lon="7.7440067"><ele>264.0</ele><time>2026-04-11T12:26:31.452Z</time></trkpt><trkpt lat="45.07407" lon="7.7440867"><ele>264.0</ele><time>2026-04-11T12:26:33.452Z</time></trkpt><trkpt lat="45.073995" lon="7.7441767"><ele>269.4</ele><time>2026-04-11T12:26:35.452Z</time></trkpt><trkpt lat="45.073925" lon="7.7442933"><ele>274.79999999999995</ele><time>2026-04-11T12:26:37.453Z</time></trkpt><trkpt lat="45.0738617" lon="7.744405"><ele>280.20000000000005</ele><time>2026-04-11T12:26:39.452Z</time></trkpt><trkpt lat="45.0738117" lon="7.744525"><ele>285.6</ele><time>2026-04-11T12:26:41.452Z</time></trkpt><trkpt lat="45.0737767" lon="7.74465"><ele>291.0</ele><time>2026-04-11T12:26:43.452Z</time></trkpt><trkpt lat="45.0737533" lon="7.74479"><ele>291.0</ele><time>2026-04-11T12:26:45.452Z</time></trkpt><trkpt lat="45.0737583" lon="7.74491"><ele>291.0</ele><time>2026-04-11T12:26:47.452Z</time></trkpt><trkpt lat="45.0737683" lon="7.74505"><ele>291.0</ele><time>2026-04-11T12:26:49.452Z</time></trkpt><trkpt lat="45.0737917" lon="7.7451917"><ele>291.0</ele><time>2026-04-11T12:26:51.452Z</time></trkpt><trkpt lat="45.0738267" lon="7.7453267"><ele>291.0</ele><time>2026-04-11T12:26:53.453Z</time></trkpt><trkpt lat="45.07386" lon="7.74545"><ele>289.8</ele><time>2026-04-11T12:26:55.452Z</time></trkpt><trkpt lat="45.07387" lon="7.74559"><ele>288.6</ele><time>2026-04-11T12:26:57.452Z</time></trkpt><trkpt lat="45.073855" lon="7.74574"><ele>287.4</ele><time>2026-04-11T12:26:59.453Z</time></trkpt><trkpt lat="45.07383" lon="7.7458767"><ele>286.2</ele><time>2026-04-11T12:27:01.452Z</time></trkpt><trkpt lat="45.07382" lon="7.74601"><ele>285.0</ele><time>2026-04-11T12:27:03.452Z</time></trkpt><trkpt lat="45.0738217" lon="7.74615"><ele>284.0</ele><time>2026-04-11T12:27:05.453Z</time></trkpt><trkpt lat="45.0738683" lon="7.7462817"><ele>283.0</ele><time>2026-04-11T12:27:07.452Z</time></trkpt><trkpt lat="45.0739233" lon="7.7464017"><ele>282.0</ele><time>2026-04-11T12:27:09.452Z</time></trkpt><trkpt lat="45.0739633" lon="7.7465283"><ele>281.0</ele><time>2026-04-11T12:27:11.452Z</time></trkpt><trkpt lat="45.0739783" lon="7.7466583"><ele>280.0</ele><time>2026-04-11T12:27:13.452Z</time></trkpt><trkpt lat="45.07396" lon="7.746775"><ele>278.8</ele><time>2026-04-11T12:27:15.452Z</time></trkpt><trkpt lat="45.0739083" lon="7.746885"><ele>277.6</ele><time>2026-04-11T12:27:17.452Z</time></trkpt><trkpt lat="45.0738467" lon="7.7469783"><ele>276.4</ele><time>2026-04-11T12:27:19.453Z</time></trkpt><trkpt lat="45.0737733" lon="7.7470517"><ele>275.2</ele><time>2026-04-11T12:27:21.453Z</time></trkpt><trkpt lat="45.0737083" lon="7.74714"><ele>274.0</ele><time>2026-04-11T12:27:23.453Z</time></trkpt><trkpt lat="45.0736417" lon="7.7472317"><ele>274.0</ele><time>2026-04-11T12:27:25.452Z</time></trkpt><trkpt lat="45.0735783" lon="7.7473217"><ele>274.0</ele><time>2026-04-11T12:27:27.452Z</time></trkpt><trkpt lat="45.0735167" lon="7.7474017"><ele>274.0</ele><time>2026-04-11T12:27:29.452Z</time></trkpt><trkpt lat="45.0734517" lon="7.7474783"><ele>274.0</ele><time>2026-04-11T12:27:31.452Z</time></trkpt><trkpt lat="45.0733817" lon="7.74757"><ele>274.0</ele><time>2026-04-11T12:27:33.452Z</time></trkpt><trkpt lat="45.0733117" lon="7.7476417"><ele>274.0</ele><time>2026-04-11T12:27:35.452Z</time></trkpt><trkpt lat="45.073235" lon="7.7477"><ele>277.3333333333333</ele><time>2026-04-11T12:27:37.452Z</time></trkpt><trkpt lat="45.0731617" lon="7.7477617"><ele>280.66666666666663</ele><time>2026-04-11T12:27:39.452Z</time></trkpt><trkpt lat="45.0730883" lon="7.747835"><ele>284.0</ele><time>2026-04-11T12:27:41.452Z</time></trkpt><trkpt lat="45.0730317" lon="7.7479033"><ele>287.3333333333333</ele><time>2026-04-11T12:27:43.452Z</time></trkpt><trkpt lat="45.072975" lon="7.747985"><ele>290.6666666666667</ele><time>2026-04-11T12:27:45.452Z</time></trkpt><trkpt lat="45.07293" lon="7.7480817"><ele>294.0</ele><time>2026-04-11T12:27:47.452Z</time></trkpt><trkpt lat="45.0728867" lon="7.7481767"><ele>294.0</ele><time>2026-04-11T12:27:49.452Z</time></trkpt><trkpt lat="45.0728633" lon="7.7482733"><ele>294.0</ele><time>2026-04-11T12:27:51.452Z</time></trkpt><trkpt lat="45.0728317" lon="7.74838"><ele>294.0</ele><time>2026-04-11T12:27:53.452Z</time></trkpt><trkpt lat="45.072825" lon="7.7484883"><ele>294.0</ele><time>2026-04-11T12:27:55.452Z</time></trkpt><trkpt lat="45.072825" lon="7.74862"><ele>294.0</ele><time>2026-04-11T12:27:57.453Z</time></trkpt><trkpt lat="45.0728267" lon="7.7487633"><ele>294.0</ele><time>2026-04-11T12:27:59.452Z</time></trkpt><trkpt lat="45.0728283" lon="7.7489"><ele>292.0</ele><time>2026-04-11T12:28:01.452Z</time></trkpt><trkpt lat="45.0728217" lon="7.7490333"><ele>290.0</ele><time>2026-04-11T12:28:03.452Z</time></trkpt><trkpt lat="45.07281" lon="7.74916"><ele>288.0</ele><time>2026-04-11T12:28:05.452Z</time></trkpt><trkpt lat="45.0727933" lon="7.749295"><ele>286.0</ele><time>2026-04-11T12:28:07.452Z</time></trkpt><trkpt lat="45.0727683" lon="7.7494233"><ele>284.0</ele><time>2026-04-11T12:28:09.452Z</time></trkpt><trkpt lat="45.0727233" lon="7.7495417"><ele>283.5</ele><time>2026-04-11T12:28:11.452Z</time></trkpt><trkpt lat="45.0726817" lon="7.749645"><ele>283.0</ele><time>2026-04-11T12:28:13.452Z</time></trkpt><trkpt lat="45.07264" lon="7.749745"><ele>282.5</ele><time>2026-04-11T12:28:15.452Z</time></trkpt><trkpt lat="45.0725867" lon="7.7498517"><ele>282.0</ele><time>2026-04-11T12:28:17.452Z</time></trkpt><trkpt lat="45.0725333" lon="7.7499517"><ele>281.5</ele><time>2026-04-11T12:28:19.452Z</time></trkpt><trkpt lat="45.0724833" lon="7.75005"><ele>281.0</ele><time>2026-04-11T12:28:21.452Z</time></trkpt><trkpt lat="45.0724367" lon="7.7501533"><ele>283.6</ele><time>2026-04-11T12:28:23.452Z</time></trkpt><trkpt lat="45.0723917" lon="7.7502667"><ele>286.20000000000005</ele><time>2026-04-11T12:28:25.452Z</time></trkpt><trkpt lat="45.0723567" lon="7.75038"><ele>288.79999999999995</ele><time>2026-04-11T12:28:27.452Z</time></trkpt><trkpt lat="45.0723117" lon="7.7505"><ele>291.4</ele><time>2026-04-11T12:28:29.452Z</time></trkpt><trkpt lat="45.0722783" lon="7.75062"><ele>294.0</ele><time>2026-04-11T12:28:31.452Z</time></trkpt><trkpt lat="45.0722467" lon="7.7507333"><ele>294.0</ele><time>2026-04-11T12:28:33.452Z</time></trkpt><trkpt lat="45.072215" lon="7.7508617"><ele>294.0</ele><time>2026-04-11T12:28:35.452Z</time></trkpt><trkpt lat="45.0721883" lon="7.75099"><ele>294.0</ele><time>2026-04-11T12:28:37.452Z</time></trkpt><trkpt lat="45.0721533" lon="7.75112"><ele>294.0</ele><time>2026-04-11T12:28:39.452Z</time></trkpt><trkpt lat="45.0721283" lon="7.75124"><ele>294.0</ele><time>2026-04-11T12:28:41.453Z</time></trkpt><trkpt lat="45.0721017" lon="7.7513533"><ele>294.0</ele><time>2026-04-11T12:28:43.452Z</time></trkpt><trkpt lat="45.07207" lon="7.7514683"><ele>294.0</ele><time>2026-04-11T12:28:45.452Z</time></trkpt><trkpt lat="45.072045" lon="7.7515817"><ele>294.0</ele><time>2026-04-11T12:28:47.452Z</time></trkpt><trkpt lat="45.0720133" lon="7.7517017"><ele>294.0</ele><time>2026-04-11T12:28:49.452Z</time></trkpt><trkpt lat="45.0719683" lon="7.7518083"><ele>294.0</ele><time>2026-04-11T12:28:51.452Z</time></trkpt><trkpt lat="45.07192" lon="7.7519"><ele>294.0</ele><time>2026-04-11T12:28:53.452Z</time></trkpt><trkpt lat="45.0718633" lon="7.751975"><ele>294.0</ele><time>2026-04-11T12:28:55.452Z</time></trkpt><trkpt lat="45.0717817" lon="7.7520217"><ele>294.0</ele><time>2026-04-11T12:28:57.452Z</time></trkpt><trkpt lat="45.0716983" lon="7.75205"><ele>294.0</ele><time>2026-04-11T12:28:59.452Z</time></trkpt><trkpt lat="45.071635" lon="7.752075"><ele>294.0</ele><time>2026-04-11T12:29:01.452Z</time></trkpt><trkpt lat="45.071575" lon="7.7521067"><ele>294.0</ele><time>2026-04-11T12:29:03.452Z</time></trkpt><trkpt lat="45.0715133" lon="7.7521333"><ele>294.0</ele><time>2026-04-11T12:29:05.452Z</time></trkpt><trkpt lat="45.071435" lon="7.7521667"><ele>294.59999999999997</ele><time>2026-04-11T12:29:07.453Z</time></trkpt><trkpt lat="45.0713417" lon="7.7521917"><ele>295.2</ele><time>2026-04-11T12:29:09.452Z</time></trkpt><trkpt lat="45.0712417" lon="7.7522117"><ele>295.79999999999995</ele><time>2026-04-11T12:29:11.452Z</time></trkpt><trkpt lat="45.0711333" lon="7.7522267"><ele>296.4</ele><time>2026-04-11T12:29:13.452Z</time></trkpt><trkpt lat="45.0710267" lon="7.752225"><ele>297.0</ele><time>2026-04-11T12:29:15.452Z</time></trkpt><trkpt lat="45.0709267" lon="7.75222"><ele>297.0</ele><time>2026-04-11T12:29:17.452Z</time></trkpt><trkpt lat="45.0708383" lon="7.7522167"><ele>297.0</ele><time>2026-04-11T12:29:19.452Z</time></trkpt><trkpt lat="45.0707383" lon="7.7522167"><ele>297.0</ele><time>2026-04-11T12:29:21.452Z</time></trkpt><trkpt lat="45.07064" lon="7.7522367"><ele>297.0</ele><time>2026-04-11T12:29:23.452Z</time></trkpt><trkpt lat="45.0705483" lon="7.7522767"><ele>297.0</ele><time>2026-04-11T12:29:25.452Z</time></trkpt><trkpt lat="45.0704633" lon="7.7523367"><ele>297.6</ele><time>2026-04-11T12:29:27.452Z</time></trkpt><trkpt lat="45.0703917" lon="7.7524183"><ele>298.2</ele><time>2026-04-11T12:29:29.452Z</time></trkpt><trkpt lat="45.070325" lon="7.7525117"><ele>298.8</ele><time>2026-04-11T12:29:31.452Z</time></trkpt><trkpt lat="45.070255" lon="7.752605"><ele>299.4</ele><time>2026-04-11T12:29:33.453Z</time></trkpt><trkpt lat="45.070185" lon="7.752725"><ele>300.0</ele><time>2026-04-11T12:29:35.452Z</time></trkpt><trkpt lat="45.0701183" lon="7.7528517"><ele>300.0</ele><time>2026-04-11T12:29:37.452Z</time></trkpt><trkpt lat="45.070035" lon="7.75295"><ele>300.0</ele><time>2026-04-11T12:29:39.452Z</time></trkpt><trkpt lat="45.0699417" lon="7.7530267"><ele>300.0</ele><time>2026-04-11T12:29:41.452Z</time></trkpt><trkpt lat="45.0698483" lon="7.7530833"><ele>300.0</ele><time>2026-04-11T12:29:43.452Z</time></trkpt><trkpt lat="45.0697517" lon="7.7531367"><ele>300.0</ele><time>2026-04-11T12:29:45.452Z</time></trkpt><trkpt lat="45.06966" lon="7.753195"><ele>300.6</ele><time>2026-04-11T12:29:47.452Z</time></trkpt><trkpt lat="45.0695583" lon="7.7532433"><ele>301.2</ele><time>2026-04-11T12:29:49.452Z</time></trkpt><trkpt lat="45.0694667" lon="7.7532833"><ele>301.8</ele><time>2026-04-11T12:29:51.452Z</time></trkpt><trkpt lat="45.06938" lon="7.753325"><ele>302.4</ele><time>2026-04-11T12:29:53.452Z</time></trkpt><trkpt lat="45.0692833" lon="7.7533633"><ele>303.0</ele><time>2026-04-11T12:29:55.452Z</time></trkpt><trkpt lat="45.0691867" lon="7.7534083"><ele>307.0</ele><time>2026-04-11T12:29:57.452Z</time></trkpt><trkpt lat="45.0690933" lon="7.7534533"><ele>311.0</ele><time>2026-04-11T12:29:59.452Z</time></trkpt><trkpt lat="45.0689983" lon="7.7535183"><ele>315.0</ele><time>2026-04-11T12:30:01.452Z</time></trkpt><trkpt lat="45.06893" lon="7.75359"><ele>319.0</ele><time>2026-04-11T12:30:03.452Z</time></trkpt><trkpt lat="45.0688567" lon="7.7536767"><ele>323.0</ele><time>2026-04-11T12:30:05.452Z</time></trkpt><trkpt lat="45.0687867" lon="7.7537567"><ele>323.0</ele><time>2026-04-11T12:30:07.452Z</time></trkpt><trkpt lat="45.0687233" lon="7.75385"><ele>323.0</ele><time>2026-04-11T12:30:09.452Z</time></trkpt><trkpt lat="45.0686717" lon="7.75395"><ele>323.0</ele><time>2026-04-11T12:30:11.452Z</time></trkpt><trkpt lat="45.068635" lon="7.754035"><ele>323.0</ele><time>2026-04-11T12:30:13.452Z</time></trkpt><trkpt lat="45.0686083" lon="7.7541567"><ele>323.0</ele><time>2026-04-11T12:30:16.452Z</time></trkpt><trkpt lat="45.0686067" lon="7.754255"><ele>323.0</ele><time>2026-04-11T12:30:18.452Z</time></trkpt><trkpt lat="45.0686633" lon="7.7543283"><ele>320.83333333333337</ele><time>2026-04-11T12:30:20.452Z</time></trkpt><trkpt lat="45.068685" lon="7.754455"><ele>318.6666666666667</ele><time>2026-04-11T12:30:22.452Z</time></trkpt><trkpt lat="45.068675" lon="7.7545767"><ele>316.5</ele><time>2026-04-11T12:30:24.452Z</time></trkpt><trkpt lat="45.0686633" lon="7.75468"><ele>314.3333333333333</ele><time>2026-04-11T12:30:26.452Z</time></trkpt><trkpt lat="45.0686417" lon="7.7547917"><ele>312.16666666666663</ele><time>2026-04-11T12:30:28.452Z</time></trkpt><trkpt lat="45.06862" lon="7.7548967"><ele>310.0</ele><time>2026-04-11T12:30:30.452Z</time></trkpt><trkpt lat="45.0686083" lon="7.755005"><ele>310.0</ele><time>2026-04-11T12:30:32.452Z</time></trkpt><trkpt lat="45.0686" lon="7.7551083"><ele>310.0</ele><time>2026-04-11T12:30:34.452Z</time></trkpt><trkpt lat="45.068605" lon="7.755215"><ele>310.0</ele><time>2026-04-11T12:30:36.452Z</time></trkpt><trkpt lat="45.06862" lon="7.7553083"><ele>310.0</ele><time>2026-04-11T12:30:38.452Z</time></trkpt><trkpt lat="45.0686433" lon="7.7554033"><ele>310.0</ele><time>2026-04-11T12:30:40.452Z</time></trkpt><trkpt lat="45.06868" lon="7.755505"><ele>310.0</ele><time>2026-04-11T12:30:42.452Z</time></trkpt><trkpt lat="45.0687283" lon="7.755645"><ele>310.16666666666663</ele><time>2026-04-11T12:30:44.452Z</time></trkpt><trkpt lat="45.0687867" lon="7.7557267"><ele>310.3333333333333</ele><time>2026-04-11T12:30:46.452Z</time></trkpt><trkpt lat="45.0688367" lon="7.7557917"><ele>310.5</ele><time>2026-04-11T12:30:48.452Z</time></trkpt><trkpt lat="45.0688983" lon="7.7558767"><ele>310.6666666666667</ele><time>2026-04-11T12:30:50.452Z</time></trkpt><trkpt lat="45.06895" lon="7.7559633"><ele>310.83333333333337</ele><time>2026-04-11T12:30:52.452Z</time></trkpt><trkpt lat="45.0690067" lon="7.756065"><ele>311.0</ele><time>2026-04-11T12:30:54.452Z</time></trkpt><trkpt lat="45.0690533" lon="7.7561333"><ele>312.1666666666667</ele><time>2026-04-11T12:30:56.452Z</time></trkpt><trkpt lat="45.0690867" lon="7.7562483"><ele>313.33333333333337</ele><time>2026-04-11T12:30:59.452Z</time></trkpt><trkpt lat="45.0690817" lon="7.7563617"><ele>314.5</ele><time>2026-04-11T12:31:02.452Z</time></trkpt><trkpt lat="45.06907" lon="7.7564533"><ele>315.6666666666667</ele><time>2026-04-11T12:31:04.452Z</time></trkpt><trkpt lat="45.0690867" lon="7.7565517"><ele>316.8333333333333</ele><time>2026-04-11T12:31:06.452Z</time></trkpt><trkpt lat="45.0691083" lon="7.75664"><ele>318.0</ele><time>2026-04-11T12:31:08.452Z</time></trkpt><trkpt lat="45.0691383" lon="7.7567617"><ele>318.0</ele><time>2026-04-11T12:31:11.452Z</time></trkpt><trkpt lat="45.069175" lon="7.7568617"><ele>318.0</ele><time>2026-04-11T12:31:14.452Z</time></trkpt><trkpt lat="45.0692283" lon="7.7569567"><ele>318.0</ele><time>2026-04-11T12:31:17.452Z</time></trkpt><trkpt lat="45.06928" lon="7.75701"><ele>318.0</ele><time>2026-04-11T12:31:19.452Z</time></trkpt><trkpt lat="45.0693333" lon="7.7570867"><ele>318.0</ele><time>2026-04-11T12:31:21.452Z</time></trkpt><trkpt lat="45.0693967" lon="7.7571667"><ele>318.0</ele><time>2026-04-11T12:31:23.452Z</time></trkpt><trkpt lat="45.069435" lon="7.75725"><ele>320.57142857142856</ele><time>2026-04-11T12:31:25.452Z</time></trkpt><trkpt lat="45.0694583" lon="7.757345"><ele>323.14285714285717</ele><time>2026-04-11T12:31:27.452Z</time></trkpt><trkpt lat="45.0694783" lon="7.7574433"><ele>325.7142857142857</ele><time>2026-04-11T12:31:29.452Z</time></trkpt><trkpt lat="45.0694917" lon="7.7575467"><ele>328.2857142857143</ele><time>2026-04-11T12:31:31.452Z</time></trkpt><trkpt lat="45.0695" lon="7.757645"><ele>330.8571428571429</ele><time>2026-04-11T12:31:33.452Z</time></trkpt><trkpt lat="45.069515" lon="7.7577483"><ele>333.42857142857144</ele><time>2026-04-11T12:31:35.452Z</time></trkpt><trkpt lat="45.0695283" lon="7.7578483"><ele>336.0</ele><time>2026-04-11T12:31:37.453Z</time></trkpt><trkpt lat="45.0695467" lon="7.7579467"><ele>338.1666666666667</ele><time>2026-04-11T12:31:39.452Z</time></trkpt><trkpt lat="45.0695733" lon="7.7580383"><ele>340.3333333333333</ele><time>2026-04-11T12:31:41.452Z</time></trkpt><trkpt lat="45.0696033" lon="7.7581183"><ele>342.5</ele><time>2026-04-11T12:31:43.452Z</time></trkpt><trkpt lat="45.0696583" lon="7.75821"><ele>344.66666666666663</ele><time>2026-04-11T12:31:47.452Z</time></trkpt><trkpt lat="45.0697067" lon="7.7583333"><ele>346.8333333333333</ele><time>2026-04-11T12:31:50.452Z</time></trkpt><trkpt lat="45.0697383" lon="7.7584467"><ele>349.0</ele><time>2026-04-11T12:31:52.452Z</time></trkpt><trkpt lat="45.0697633" lon="7.7585417"><ele>352.0</ele><time>2026-04-11T12:31:54.452Z</time></trkpt><trkpt lat="45.0697783" lon="7.7586367"><ele>355.0</ele><time>2026-04-11T12:31:56.452Z</time></trkpt><trkpt lat="45.069815" lon="7.7587533"><ele>358.0</ele><time>2026-04-11T12:31:59.452Z</time></trkpt><trkpt lat="45.0698433" lon="7.7588867"><ele>361.0</ele><time>2026-04-11T12:32:02.452Z</time></trkpt><trkpt lat="45.0698433" lon="7.75898"><ele>364.0</ele><time>2026-04-11T12:32:04.452Z</time></trkpt><trkpt lat="45.0698533" lon="7.7590833"><ele>367.0</ele><time>2026-04-11T12:32:06.452Z</time></trkpt><trkpt lat="45.0698683" lon="7.7591833"><ele>367.0</ele><time>2026-04-11T12:32:08.452Z</time></trkpt><trkpt lat="45.069905" lon="7.7593083"><ele>367.0</ele><time>2026-04-11T12:32:11.452Z</time></trkpt><trkpt lat="45.0699483" lon="7.7594267"><ele>367.0</ele><time>2026-04-11T12:32:14.452Z</time></trkpt><trkpt lat="45.0699883" lon="7.7595017"><ele>367.0</ele><time>2026-04-11T12:32:16.452Z</time></trkpt><trkpt lat="45.0700333" lon="7.7595867"><ele>367.0</ele><time>2026-04-11T12:32:18.452Z</time></trkpt><trkpt lat="45.0700733" lon="7.7596767"><ele>367.0</ele><time>2026-04-11T12:32:20.452Z</time></trkpt><trkpt lat="45.0701067" lon="7.7597633"><ele>365.3333333333333</ele><time>2026-04-11T12:32:22.452Z</time></trkpt><trkpt lat="45.0701333" lon="7.75986"><ele>363.66666666666663</ele><time>2026-04-11T12:32:24.452Z</time></trkpt><trkpt lat="45.070165" lon="7.7599483"><ele>362.0</ele><time>2026-04-11T12:32:26.452Z</time></trkpt><trkpt lat="45.070195" lon="7.76007"><ele>360.3333333333333</ele><time>2026-04-11T12:32:29.452Z</time></trkpt><trkpt lat="45.0702317" lon="7.7601817"><ele>358.6666666666667</ele><time>2026-04-11T12:32:31.452Z</time></trkpt><trkpt lat="45.0702633" lon="7.7602733"><ele>357.0</ele><time>2026-04-11T12:32:33.452Z</time></trkpt><trkpt lat="45.0702917" lon="7.76036"><ele>357.0</ele><time>2026-04-11T12:32:35.452Z</time></trkpt><trkpt lat="45.0703083" lon="7.76046"><ele>357.0</ele><time>2026-04-11T12:32:37.452Z</time></trkpt><trkpt lat="45.0703267" lon="7.7605533"><ele>357.0</ele><time>2026-04-11T12:32:39.452Z</time></trkpt><trkpt lat="45.070345" lon="7.7606417"><ele>357.0</ele><time>2026-04-11T12:32:41.452Z</time></trkpt><trkpt lat="45.0703683" lon="7.7607417"><ele>357.0</ele><time>2026-04-11T12:32:43.452Z</time></trkpt><trkpt lat="45.0704" lon="7.7608567"><ele>357.0</ele><time>2026-04-11T12:32:46.452Z</time></trkpt><trkpt lat="45.0704333" lon="7.7609483"><ele>357.0</ele><time>2026-04-11T12:32:48.452Z</time></trkpt><trkpt lat="45.07047" lon="7.76104"><ele>359.14285714285717</ele><time>2026-04-11T12:32:50.452Z</time></trkpt><trkpt lat="45.07049" lon="7.761125"><ele>361.2857142857143</ele><time>2026-04-11T12:32:52.452Z</time></trkpt><trkpt lat="45.0705317" lon="7.76124"><ele>363.42857142857144</ele><time>2026-04-11T12:32:55.452Z</time></trkpt><trkpt lat="45.07057" lon="7.7613133"><ele>365.57142857142856</ele><time>2026-04-11T12:32:57.452Z</time></trkpt><trkpt lat="45.07063" lon="7.7613433"><ele>367.7142857142857</ele><time>2026-04-11T12:33:01.452Z</time></trkpt><trkpt lat="45.0706617" lon="7.761255"><ele>369.8571428571429</ele><time>2026-04-11T12:33:06.452Z</time></trkpt><trkpt lat="45.0706917" lon="7.7611517"><ele>372.0</ele><time>2026-04-11T12:33:10.452Z</time></trkpt><trkpt lat="45.0707067" lon="7.7610583"><ele>369.8571428571429</ele><time>2026-04-11T12:33:14.452Z</time></trkpt><trkpt lat="45.070715" lon="7.760965"><ele>367.7142857142857</ele><time>2026-04-11T12:33:18.451Z</time></trkpt><trkpt lat="45.0707233" lon="7.7608433"><ele>365.57142857142856</ele><time>2026-04-11T12:33:21.451Z</time></trkpt><trkpt lat="45.0707117" lon="7.7607517"><ele>363.42857142857144</ele><time>2026-04-11T12:33:23.451Z</time></trkpt><trkpt lat="45.070665" lon="7.7606917"><ele>361.2857142857143</ele><time>2026-04-11T12:33:27.452Z</time></trkpt><trkpt lat="45.070655" lon="7.7605833"><ele>359.14285714285717</ele><time>2026-04-11T12:33:29.451Z</time></trkpt><trkpt lat="45.0706667" lon="7.7604683"><ele>357.0</ele><time>2026-04-11T12:33:32.451Z</time></trkpt><trkpt lat="45.0707367" lon="7.7604633"><ele>356.8333333333333</ele><time>2026-04-11T12:33:40.451Z</time></trkpt><trkpt lat="45.0707933" lon="7.7605267"><ele>356.6666666666667</ele><time>2026-04-11T12:33:43.451Z</time></trkpt><trkpt lat="45.0708567" lon="7.7605917"><ele>356.5</ele><time>2026-04-11T12:33:46.451Z</time></trkpt><trkpt lat="45.0708983" lon="7.76066"><ele>356.33333333333337</ele><time>2026-04-11T12:33:49.451Z</time></trkpt><trkpt lat="45.0709083" lon="7.7607717"><ele>356.1666666666667</ele><time>2026-04-11T12:33:53.451Z</time></trkpt><trkpt lat="45.0709017" lon="7.76093"><ele>356.0</ele><time>2026-04-11T12:34:00.451Z</time></trkpt><trkpt lat="45.0709167" lon="7.761045"><ele>356.33333333333337</ele><time>2026-04-11T12:34:03.451Z</time></trkpt><trkpt lat="45.0709483" lon="7.7611233"><ele>356.6666666666667</ele><time>2026-04-11T12:34:05.451Z</time></trkpt><trkpt lat="45.070995" lon="7.7612283"><ele>357.0</ele><time>2026-04-11T12:34:08.451Z</time></trkpt><trkpt lat="45.071035" lon="7.7613383"><ele>357.3333333333333</ele><time>2026-04-11T12:34:11.451Z</time></trkpt><trkpt lat="45.0710633" lon="7.7614433"><ele>357.66666666666663</ele><time>2026-04-11T12:34:14.451Z</time></trkpt><trkpt lat="45.0710867" lon="7.7615533"><ele>358.0</ele><time>2026-04-11T12:34:17.451Z</time></trkpt><trkpt lat="45.07112" lon="7.7616817"><ele>358.00000000000006</ele><time>2026-04-11T12:34:20.451Z</time></trkpt><trkpt lat="45.071155" lon="7.7617733"><ele>358.0</ele><time>2026-04-11T12:34:22.451Z</time></trkpt><trkpt lat="45.0711933" lon="7.7618617"><ele>358.0</ele><time>2026-04-11T12:34:24.451Z</time></trkpt><trkpt lat="45.0712317" lon="7.761955"><ele>358.0</ele><time>2026-04-11T12:34:26.451Z</time></trkpt><trkpt lat="45.0712717" lon="7.7620517"><ele>358.0</ele><time>2026-04-11T12:34:28.451Z</time></trkpt><trkpt lat="45.0713183" lon="7.762135"><ele>358.00000000000006</ele><time>2026-04-11T12:34:30.451Z</time></trkpt><trkpt lat="45.0713683" lon="7.762205"><ele>358.0</ele><time>2026-04-11T12:34:32.451Z</time></trkpt><trkpt lat="45.071445" lon="7.7622133"><ele>358.00000000000006</ele><time>2026-04-11T12:34:35.451Z</time></trkpt><trkpt lat="45.0714867" lon="7.76211"><ele>358.0</ele><time>2026-04-11T12:34:38.451Z</time></trkpt><trkpt lat="45.07152" lon="7.7620267"><ele>358.0</ele><time>2026-04-11T12:34:41.451Z</time></trkpt><trkpt lat="45.071535" lon="7.7619317"><ele>358.0</ele><time>2026-04-11T12:34:44.451Z</time></trkpt><trkpt lat="45.0715517" lon="7.7618367"><ele>358.0</ele><time>2026-04-11T12:34:47.451Z</time></trkpt><trkpt lat="45.0715583" lon="7.7617467"><ele>358.00000000000006</ele><time>2026-04-11T12:34:49.451Z</time></trkpt><trkpt lat="45.0715433" lon="7.761635"><ele>358.0</ele><time>2026-04-11T12:34:52.451Z</time></trkpt><trkpt lat="45.0715383" lon="7.76153"><ele>358.0</ele><time>2026-04-11T12:34:55.451Z</time></trkpt><trkpt lat="45.0715417" lon="7.761425"><ele>358.0</ele><time>2026-04-11T12:34:58.451Z</time></trkpt><trkpt lat="45.0715583" lon="7.7613233"><ele>358.0</ele><time>2026-04-11T12:35:01.451Z</time></trkpt><trkpt lat="45.0715633" lon="7.7612117"><ele>358.0</ele><time>2026-04-11T12:35:04.451Z</time></trkpt><trkpt lat="45.071575" lon="7.7610983"><ele>358.0</ele><time>2026-04-11T12:35:07.451Z</time></trkpt><trkpt lat="45.07159" lon="7.76098"><ele>358.0</ele><time>2026-04-11T12:35:10.451Z</time></trkpt><trkpt lat="45.071615" lon="7.7608917"><ele>363.0</ele><time>2026-04-11T12:35:13.451Z</time></trkpt><trkpt lat="45.0716367" lon="7.76078"><ele>368.0</ele><time>2026-04-11T12:35:16.451Z</time></trkpt><trkpt lat="45.0716717" lon="7.7606633"><ele>373.0</ele><time>2026-04-11T12:35:19.451Z</time></trkpt><trkpt lat="45.0717183" lon="7.760575"><ele>378.0</ele><time>2026-04-11T12:35:22.451Z</time></trkpt><trkpt lat="45.0717717" lon="7.760495"><ele>383.00000000000006</ele><time>2026-04-11T12:35:25.451Z</time></trkpt><trkpt lat="45.0718383" lon="7.7604267"><ele>388.0</ele><time>2026-04-11T12:35:28.451Z</time></trkpt><trkpt lat="45.0718883" lon="7.76036"><ele>388.00000000000006</ele><time>2026-04-11T12:35:31.451Z</time></trkpt><trkpt lat="45.0719533" lon="7.7603083"><ele>388.0</ele><time>2026-04-11T12:35:34.451Z</time></trkpt><trkpt lat="45.07202" lon="7.7602533"><ele>388.0</ele><time>2026-04-11T12:35:37.451Z</time></trkpt><trkpt lat="45.0720967" lon="7.7601983"><ele>388.0</ele><time>2026-04-11T12:35:40.451Z</time></trkpt><trkpt lat="45.07218" lon="7.7602217"><ele>388.00000000000006</ele><time>2026-04-11T12:35:43.451Z</time></trkpt><trkpt lat="45.0721883" lon="7.7603233"><ele>388.0</ele><time>2026-04-11T12:35:47.451Z</time></trkpt><trkpt lat="45.0721567" lon="7.7604183"><ele>388.0</ele><time>2026-04-11T12:35:50.451Z</time></trkpt><trkpt lat="45.0721033" lon="7.7604933"><ele>388.0</ele><time>2026-04-11T12:35:53.451Z</time></trkpt><trkpt lat="45.0720767" lon="7.7606"><ele>388.0</ele><time>2026-04-11T12:35:56.451Z</time></trkpt><trkpt lat="45.072055" lon="7.7607033"><ele>388.0</ele><time>2026-04-11T12:35:59.451Z</time></trkpt><trkpt lat="45.072025" lon="7.7607867"><ele>388.0</ele><time>2026-04-11T12:36:02.451Z</time></trkpt><trkpt lat="45.0719983" lon="7.7608817"><ele>388.0</ele><time>2026-04-11T12:36:05.451Z</time></trkpt><trkpt lat="45.0719733" lon="7.7609767"><ele>388.0</ele><time>2026-04-11T12:36:08.451Z</time></trkpt><trkpt lat="45.072025" lon="7.7610317"><ele>388.0</ele><time>2026-04-11T12:36:12.452Z</time></trkpt><trkpt lat="45.0720783" lon="7.7609817"><ele>388.0</ele><time>2026-04-11T12:36:15.451Z</time></trkpt><trkpt lat="45.0721367" lon="7.7609183"><ele>388.0</ele><time>2026-04-11T12:36:18.451Z</time></trkpt><trkpt lat="45.0721817" lon="7.7608433"><ele>388.0</ele><time>2026-04-11T12:36:21.451Z</time></trkpt><trkpt lat="45.072225" lon="7.7607583"><ele>388.0</ele><time>2026-04-11T12:36:24.451Z</time></trkpt><trkpt lat="45.0722767" lon="7.7606683"><ele>388.0</ele><time>2026-04-11T12:36:27.451Z</time></trkpt><trkpt lat="45.0723467" lon="7.76061"><ele>388.0</ele><time>2026-04-11T12:36:30.451Z</time></trkpt><trkpt lat="45.0723333" lon="7.7607317"><ele>388.00000000000006</ele><time>2026-04-11T12:36:35.451Z</time></trkpt><trkpt lat="45.0723" lon="7.76083"><ele>388.0</ele><time>2026-04-11T12:36:38.451Z</time></trkpt><trkpt lat="45.0722767" lon="7.76094"><ele>388.0</ele><time>2026-04-11T12:36:41.451Z</time></trkpt><trkpt lat="45.0722617" lon="7.7610467"><ele>388.0</ele><time>2026-04-11T12:36:44.451Z</time></trkpt><trkpt lat="45.0722617" lon="7.7611417"><ele>388.00000000000006</ele><time>2026-04-11T12:36:46.451Z</time></trkpt><trkpt lat="45.072305" lon="7.761245"><ele>388.0</ele><time>2026-04-11T12:36:49.451Z</time></trkpt><trkpt lat="45.07238" lon="7.76129"><ele>392.1666666666667</ele><time>2026-04-11T12:36:52.451Z</time></trkpt><trkpt lat="45.0724517" lon="7.7612517"><ele>396.33333333333337</ele><time>2026-04-11T12:36:55.451Z</time></trkpt><trkpt lat="45.0724933" lon="7.761145"><ele>400.5</ele><time>2026-04-11T12:36:59.451Z</time></trkpt><trkpt lat="45.072525" lon="7.7610167"><ele>404.66666666666663</ele><time>2026-04-11T12:37:02.451Z</time></trkpt><trkpt lat="45.07257" lon="7.7609317"><ele>408.8333333333333</ele><time>2026-04-11T12:37:04.451Z</time></trkpt><trkpt lat="45.072605" lon="7.760845"><ele>413.0</ele><time>2026-04-11T12:37:06.451Z</time></trkpt><trkpt lat="45.07263" lon="7.760755"><ele>412.99999999999994</ele><time>2026-04-11T12:37:08.451Z</time></trkpt><trkpt lat="45.072645" lon="7.76065"><ele>413.0</ele><time>2026-04-11T12:37:10.451Z</time></trkpt><trkpt lat="45.07266" lon="7.760535"><ele>413.0</ele><time>2026-04-11T12:37:12.451Z</time></trkpt><trkpt lat="45.072685" lon="7.760405"><ele>413.0</ele><time>2026-04-11T12:37:14.451Z</time></trkpt><trkpt lat="45.0726983" lon="7.7602617"><ele>412.99999999999994</ele><time>2026-04-11T12:37:16.451Z</time></trkpt><trkpt lat="45.0727117" lon="7.7601383"><ele>413.0</ele><time>2026-04-11T12:37:18.451Z</time></trkpt><trkpt lat="45.072725" lon="7.7600333"><ele>412.49999999999994</ele><time>2026-04-11T12:37:20.451Z</time></trkpt><trkpt lat="45.072745" lon="7.7599283"><ele>412.0</ele><time>2026-04-11T12:37:22.451Z</time></trkpt><trkpt lat="45.0727583" lon="7.759815"><ele>411.5</ele><time>2026-04-11T12:37:24.451Z</time></trkpt><trkpt lat="45.0727583" lon="7.7596967"><ele>411.0</ele><time>2026-04-11T12:37:26.451Z</time></trkpt><trkpt lat="45.0727617" lon="7.7595717"><ele>410.49999999999994</ele><time>2026-04-11T12:37:28.451Z</time></trkpt><trkpt lat="45.0727867" lon="7.7594583"><ele>410.0</ele><time>2026-04-11T12:37:30.451Z</time></trkpt><trkpt lat="45.0728433" lon="7.7593967"><ele>410.0</ele><time>2026-04-11T12:37:32.451Z</time></trkpt><trkpt lat="45.0729417" lon="7.759375"><ele>410.0</ele><time>2026-04-11T12:37:34.451Z</time></trkpt><trkpt lat="45.07305" lon="7.7593817"><ele>410.0</ele><time>2026-04-11T12:37:36.451Z</time></trkpt><trkpt lat="45.0731617" lon="7.7594633"><ele>410.0</ele><time>2026-04-11T12:37:38.451Z</time></trkpt><trkpt lat="45.0732117" lon="7.75952"><ele>410.0</ele><time>2026-04-11T12:37:39.451Z</time></trkpt><trkpt lat="45.073265" lon="7.7595683"><ele>411.99999999999994</ele><time>2026-04-11T12:37:40.451Z</time></trkpt><trkpt lat="45.0733617" lon="7.7596567"><ele>414.0</ele><time>2026-04-11T12:37:42.451Z</time></trkpt><trkpt lat="45.073405" lon="7.75975"><ele>416.0</ele><time>2026-04-11T12:37:44.451Z</time></trkpt><trkpt lat="45.0734383" lon="7.75983"><ele>418.0</ele><time>2026-04-11T12:37:46.451Z</time></trkpt><trkpt lat="45.0734817" lon="7.759905"><ele>419.99999999999994</ele><time>2026-04-11T12:37:49.451Z</time></trkpt><trkpt lat="45.0735267" lon="7.7599867"><ele>422.0</ele><time>2026-04-11T12:37:53.451Z</time></trkpt><trkpt lat="45.073575" lon="7.76006"><ele>422.0</ele><time>2026-04-11T12:37:58.451Z</time></trkpt><trkpt lat="45.073615" lon="7.7601333"><ele>422.0</ele><time>2026-04-11T12:38:02.451Z</time></trkpt><trkpt lat="45.07367" lon="7.7602067"><ele>422.0</ele><time>2026-04-11T12:38:06.451Z</time></trkpt><trkpt lat="45.07371" lon="7.7602767"><ele>422.0</ele><time>2026-04-11T12:38:09.451Z</time></trkpt><trkpt lat="45.07376" lon="7.7603417"><ele>422.0</ele><time>2026-04-11T12:38:12.451Z</time></trkpt><trkpt lat="45.0738" lon="7.7604183"><ele>422.0</ele><time>2026-04-11T12:38:15.451Z</time></trkpt><trkpt lat="45.07385" lon="7.7604983"><ele>422.0</ele><time>2026-04-11T12:38:18.451Z</time></trkpt><trkpt lat="45.0738967" lon="7.7605683"><ele>423.16666666666663</ele><time>2026-04-11T12:38:22.451Z</time></trkpt><trkpt lat="45.0739883" lon="7.760685"><ele>424.3333333333333</ele><time>2026-04-11T12:38:30.451Z</time></trkpt><trkpt lat="45.0739567" lon="7.7607717"><ele>425.5</ele><time>2026-04-11T12:38:35.451Z</time></trkpt><trkpt lat="45.0738917" lon="7.7608233"><ele>426.66666666666663</ele><time>2026-04-11T12:38:38.451Z</time></trkpt><trkpt lat="45.0738367" lon="7.76087"><ele>427.8333333333333</ele><time>2026-04-11T12:38:41.451Z</time></trkpt><trkpt lat="45.073775" lon="7.760925"><ele>429.0</ele><time>2026-04-11T12:38:44.451Z</time></trkpt><trkpt lat="45.07376" lon="7.761065"><ele>429.0</ele><time>2026-04-11T12:38:47.451Z</time></trkpt><trkpt lat="45.0737733" lon="7.7611633"><ele>429.0</ele><time>2026-04-11T12:38:49.451Z</time></trkpt><trkpt lat="45.0738217" lon="7.7612617"><ele>429.0</ele><time>2026-04-11T12:38:52.451Z</time></trkpt><trkpt lat="45.0738583" lon="7.7613567"><ele>429.0</ele><time>2026-04-11T12:38:55.451Z</time></trkpt><trkpt lat="45.0738967" lon="7.7614483"><ele>429.0</ele><time>2026-04-11T12:38:58.451Z</time></trkpt><trkpt lat="45.0739783" lon="7.76156"><ele>429.0</ele><time>2026-04-11T12:39:04.451Z</time></trkpt><trkpt lat="45.0740267" lon="7.7616183"><ele>429.0</ele><time>2026-04-11T12:39:07.451Z</time></trkpt><trkpt lat="45.0740867" lon="7.76169"><ele>429.0</ele><time>2026-04-11T12:39:10.451Z</time></trkpt><trkpt lat="45.074145" lon="7.76176"><ele>429.0</ele><time>2026-04-11T12:39:13.452Z</time></trkpt><trkpt lat="45.074195" lon="7.7618417"><ele>429.0</ele><time>2026-04-11T12:39:16.451Z</time></trkpt><trkpt lat="45.0742233" lon="7.7619333"><ele>429.0</ele><time>2026-04-11T12:39:19.451Z</time></trkpt><trkpt lat="45.0742433" lon="7.762035"><ele>429.0</ele><time>2026-04-11T12:39:23.451Z</time></trkpt><trkpt lat="45.074265" lon="7.7621483"><ele>431.1666666666667</ele><time>2026-04-11T12:39:27.451Z</time></trkpt><trkpt lat="45.0742917" lon="7.762275"><ele>433.33333333333337</ele><time>2026-04-11T12:39:30.451Z</time></trkpt><trkpt lat="45.07432" lon="7.7623967"><ele>435.5</ele><time>2026-04-11T12:39:33.451Z</time></trkpt><trkpt lat="45.0743617" lon="7.7624917"><ele>437.6666666666667</ele><time>2026-04-11T12:39:36.451Z</time></trkpt><trkpt lat="45.0743967" lon="7.7626067"><ele>439.83333333333337</ele><time>2026-04-11T12:39:39.451Z</time></trkpt><trkpt lat="45.07441" lon="7.7627033"><ele>442.0</ele><time>2026-04-11T12:39:41.451Z</time></trkpt><trkpt lat="45.0744183" lon="7.7628067"><ele>442.00000000000006</ele><time>2026-04-11T12:39:43.451Z</time></trkpt><trkpt lat="45.0744383" lon="7.762915"><ele>442.0</ele><time>2026-04-11T12:39:45.451Z</time></trkpt><trkpt lat="45.0744667" lon="7.7630017"><ele>442.0</ele><time>2026-04-11T12:39:47.451Z</time></trkpt><trkpt lat="45.07452" lon="7.7630983"><ele>442.0</ele><time>2026-04-11T12:39:50.451Z</time></trkpt><trkpt lat="45.0745783" lon="7.7631367"><ele>442.00000000000006</ele><time>2026-04-11T12:39:53.451Z</time></trkpt><trkpt lat="45.07465" lon="7.7631983"><ele>442.0</ele><time>2026-04-11T12:39:57.451Z</time></trkpt><trkpt lat="45.0747333" lon="7.7632233"><ele>442.00000000000006</ele><time>2026-04-11T12:40:01.451Z</time></trkpt><trkpt lat="45.0748017" lon="7.7631967"><ele>442.0</ele><time>2026-04-11T12:40:05.451Z</time></trkpt><trkpt lat="45.0748567" lon="7.763145"><ele>442.0</ele><time>2026-04-11T12:40:10.451Z</time></trkpt><trkpt lat="45.0749083" lon="7.7630633"><ele>442.0</ele><time>2026-04-11T12:40:15.451Z</time></trkpt><trkpt lat="45.07495" lon="7.7629533"><ele>442.0</ele><time>2026-04-11T12:40:20.451Z</time></trkpt><trkpt lat="45.0749683" lon="7.76286"><ele>442.00000000000006</ele><time>2026-04-11T12:40:24.451Z</time></trkpt><trkpt lat="45.0749867" lon="7.762755"><ele>442.0</ele><time>2026-04-11T12:40:28.451Z</time></trkpt><trkpt lat="45.0750133" lon="7.7626167"><ele>447.0</ele><time>2026-04-11T12:40:33.451Z</time></trkpt><trkpt lat="45.0750383" lon="7.7625067"><ele>452.0</ele><time>2026-04-11T12:40:36.451Z</time></trkpt><trkpt lat="45.0750517" lon="7.7624167"><ele>457.0</ele><time>2026-04-11T12:40:39.451Z</time></trkpt><trkpt lat="45.075055" lon="7.7623183"><ele>462.0</ele><time>2026-04-11T12:40:42.451Z</time></trkpt><trkpt lat="45.07507" lon="7.7622233"><ele>466.99999999999994</ele><time>2026-04-11T12:40:45.451Z</time></trkpt><trkpt lat="45.0751017" lon="7.7621317"><ele>472.0</ele><time>2026-04-11T12:40:48.452Z</time></trkpt><trkpt lat="45.07514" lon="7.762045"><ele>477.0</ele><time>2026-04-11T12:40:51.451Z</time></trkpt><trkpt lat="45.075175" lon="7.7619667"><ele>477.0</ele><time>2026-04-11T12:40:54.452Z</time></trkpt><trkpt lat="45.07522" lon="7.7618667"><ele>476.99999999999994</ele><time>2026-04-11T12:40:58.451Z</time></trkpt><trkpt lat="45.0752567" lon="7.7617683"><ele>477.0</ele><time>2026-04-11T12:41:01.451Z</time></trkpt><trkpt lat="45.075285" lon="7.76168"><ele>477.0</ele><time>2026-04-11T12:41:04.451Z</time></trkpt><trkpt lat="45.0753" lon="7.761585"><ele>476.99999999999994</ele><time>2026-04-11T12:41:07.451Z</time></trkpt><trkpt lat="45.075325" lon="7.7614983"><ele>477.0</ele><time>2026-04-11T12:41:10.451Z</time></trkpt><trkpt lat="45.07536" lon="7.7614"><ele>477.0</ele><time>2026-04-11T12:41:14.451Z</time></trkpt><trkpt lat="45.0754067" lon="7.76134"><ele>477.1666666666667</ele><time>2026-04-11T12:41:17.451Z</time></trkpt><trkpt lat="45.07548" lon="7.7612817"><ele>477.33333333333337</ele><time>2026-04-11T12:41:20.451Z</time></trkpt><trkpt lat="45.075555" lon="7.76124"><ele>477.5</ele><time>2026-04-11T12:41:23.451Z</time></trkpt><trkpt lat="45.075635" lon="7.7612433"><ele>477.6666666666667</ele><time>2026-04-11T12:41:26.451Z</time></trkpt><trkpt lat="45.07571" lon="7.7612233"><ele>477.83333333333337</ele><time>2026-04-11T12:41:29.451Z</time></trkpt><trkpt lat="45.0757967" lon="7.76122"><ele>478.0</ele><time>2026-04-11T12:41:32.451Z</time></trkpt><trkpt lat="45.0758817" lon="7.7612183"><ele>481.8571428571429</ele><time>2026-04-11T12:41:35.451Z</time></trkpt><trkpt lat="45.075955" lon="7.7612167"><ele>485.7142857142857</ele><time>2026-04-11T12:41:37.451Z</time></trkpt><trkpt lat="45.0760183" lon="7.7612133"><ele>489.57142857142856</ele><time>2026-04-11T12:41:39.452Z</time></trkpt><trkpt lat="45.0760867" lon="7.7612133"><ele>493.42857142857144</ele><time>2026-04-11T12:41:41.451Z</time></trkpt><trkpt lat="45.0761567" lon="7.761215"><ele>497.2857142857142</ele><time>2026-04-11T12:41:43.451Z</time></trkpt><trkpt lat="45.0762283" lon="7.7611983"><ele>501.1428571428571</ele><time>2026-04-11T12:41:45.451Z</time></trkpt><trkpt lat="45.076295" lon="7.76118"><ele>505.0</ele><time>2026-04-11T12:41:47.451Z</time></trkpt><trkpt lat="45.07638" lon="7.7611283"><ele>505.00000000000006</ele><time>2026-04-11T12:41:50.451Z</time></trkpt><trkpt lat="45.0764317" lon="7.7610717"><ele>505.0</ele><time>2026-04-11T12:41:52.451Z</time></trkpt><trkpt lat="45.0764917" lon="7.7610083"><ele>505.0</ele><time>2026-04-11T12:41:54.451Z</time></trkpt><trkpt lat="45.076545" lon="7.7609267"><ele>505.0</ele><time>2026-04-11T12:41:56.451Z</time></trkpt><trkpt lat="45.0765933" lon="7.7607867"><ele>505.00000000000006</ele><time>2026-04-11T12:41:58.451Z</time></trkpt><trkpt lat="45.0766117" lon="7.7606267"><ele>505.0</ele><time>2026-04-11T12:42:00.451Z</time></trkpt><trkpt lat="45.07663" lon="7.7604617"><ele>503.8</ele><time>2026-04-11T12:42:02.451Z</time></trkpt><trkpt lat="45.076665" lon="7.7603317"><ele>502.6</ele><time>2026-04-11T12:42:04.451Z</time></trkpt><trkpt lat="45.0767183" lon="7.760255"><ele>501.4</ele><time>2026-04-11T12:42:06.451Z</time></trkpt><trkpt lat="45.0768083" lon="7.760195"><ele>500.2</ele><time>2026-04-11T12:42:09.452Z</time></trkpt><trkpt lat="45.0768917" lon="7.7601633"><ele>499.0</ele><time>2026-04-11T12:42:11.451Z</time></trkpt><trkpt lat="45.0769933" lon="7.7601583"><ele>499.0</ele><time>2026-04-11T12:42:13.451Z</time></trkpt><trkpt lat="45.0771133" lon="7.760195"><ele>499.0</ele><time>2026-04-11T12:42:15.451Z</time></trkpt><trkpt lat="45.077235" lon="7.7602017"><ele>499.0</ele><time>2026-04-11T12:42:17.451Z</time></trkpt><trkpt lat="45.0773383" lon="7.7601633"><ele>499.0</ele><time>2026-04-11T12:42:19.451Z</time></trkpt><trkpt lat="45.0774183" lon="7.7600767"><ele>498.4</ele><time>2026-04-11T12:42:21.451Z</time></trkpt><trkpt lat="45.0775083" lon="7.7600033"><ele>497.79999999999995</ele><time>2026-04-11T12:42:23.451Z</time></trkpt><trkpt lat="45.0776233" lon="7.7599567"><ele>497.20000000000005</ele><time>2026-04-11T12:42:25.451Z</time></trkpt><trkpt lat="45.077735" lon="7.759965"><ele>496.6</ele><time>2026-04-11T12:42:27.451Z</time></trkpt><trkpt lat="45.07784" lon="7.759975"><ele>496.0</ele><time>2026-04-11T12:42:29.451Z</time></trkpt><trkpt lat="45.077945" lon="7.759925"><ele>496.00000000000006</ele><time>2026-04-11T12:42:31.451Z</time></trkpt><trkpt lat="45.0780133" lon="7.7598167"><ele>496.0</ele><time>2026-04-11T12:42:33.451Z</time></trkpt><trkpt lat="45.0780583" lon="7.7597"><ele>496.0</ele><time>2026-04-11T12:42:35.451Z</time></trkpt><trkpt lat="45.0780917" lon="7.75959"><ele>496.0</ele><time>2026-04-11T12:42:37.451Z</time></trkpt><trkpt lat="45.078135" lon="7.7595"><ele>496.00000000000006</ele><time>2026-04-11T12:42:39.451Z</time></trkpt><trkpt lat="45.07818" lon="7.7594033"><ele>496.0</ele><time>2026-04-11T12:42:41.45Z</time></trkpt><trkpt lat="45.0782133" lon="7.7593083"><ele>496.7142857142857</ele><time>2026-04-11T12:42:43.45Z</time></trkpt><trkpt lat="45.07825" lon="7.7591917"><ele>497.42857142857144</ele><time>2026-04-11T12:42:46.45Z</time></trkpt><trkpt lat="45.0783067" lon="7.7591517"><ele>498.14285714285717</ele><time>2026-04-11T12:42:49.45Z</time></trkpt><trkpt lat="45.0783483" lon="7.75922"><ele>498.8571428571429</ele><time>2026-04-11T12:42:56.45Z</time></trkpt><trkpt lat="45.07835" lon="7.7593317"><ele>499.57142857142856</ele><time>2026-04-11T12:43:00.45Z</time></trkpt><trkpt lat="45.078345" lon="7.7594217"><ele>500.28571428571433</ele><time>2026-04-11T12:43:03.45Z</time></trkpt><trkpt lat="45.07835" lon="7.7595217"><ele>501.0</ele><time>2026-04-11T12:43:06.45Z</time></trkpt><trkpt lat="45.07836" lon="7.7596333"><ele>502.7142857142857</ele><time>2026-04-11T12:43:09.45Z</time></trkpt><trkpt lat="45.078365" lon="7.7597517"><ele>504.42857142857144</ele><time>2026-04-11T12:43:12.45Z</time></trkpt><trkpt lat="45.07837" lon="7.7598667"><ele>506.14285714285717</ele><time>2026-04-11T12:43:15.45Z</time></trkpt><trkpt lat="45.0783667" lon="7.75996"><ele>507.8571428571429</ele><time>2026-04-11T12:43:18.45Z</time></trkpt><trkpt lat="45.0783717" lon="7.7600533"><ele>509.57142857142856</ele><time>2026-04-11T12:43:21.45Z</time></trkpt><trkpt lat="45.0783633" lon="7.7601567"><ele>511.28571428571433</ele><time>2026-04-11T12:43:24.45Z</time></trkpt><trkpt lat="45.0783583" lon="7.760265"><ele>513.0</ele><time>2026-04-11T12:43:27.45Z</time></trkpt><trkpt lat="45.0783667" lon="7.7603733"><ele>513.1428571428572</ele><time>2026-04-11T12:43:30.45Z</time></trkpt><trkpt lat="45.07835" lon="7.7604733"><ele>513.2857142857143</ele><time>2026-04-11T12:43:33.45Z</time></trkpt><trkpt lat="45.07832" lon="7.7605583"><ele>513.4285714285714</ele><time>2026-04-11T12:43:36.45Z</time></trkpt><trkpt lat="45.0782683" lon="7.7606283"><ele>513.5714285714287</ele><time>2026-04-11T12:43:40.45Z</time></trkpt><trkpt lat="45.07822" lon="7.7606983"><ele>513.7142857142858</ele><time>2026-04-11T12:43:44.45Z</time></trkpt><trkpt lat="45.0781733" lon="7.7607817"><ele>513.8571428571429</ele><time>2026-04-11T12:43:47.45Z</time></trkpt><trkpt lat="45.0781267" lon="7.760855"><ele>514.0</ele><time>2026-04-11T12:43:50.45Z</time></trkpt><trkpt lat="45.07806" lon="7.760935"><ele>514.0</ele><time>2026-04-11T12:43:53.45Z</time></trkpt><trkpt lat="45.0780083" lon="7.7610033"><ele>514.0</ele><time>2026-04-11T12:43:56.45Z</time></trkpt><trkpt lat="45.0779567" lon="7.7610717"><ele>514.0</ele><time>2026-04-11T12:43:59.45Z</time></trkpt><trkpt lat="45.0779017" lon="7.7611317"><ele>514.0</ele><time>2026-04-11T12:44:02.45Z</time></trkpt><trkpt lat="45.077845" lon="7.7611833"><ele>514.0</ele><time>2026-04-11T12:44:05.45Z</time></trkpt><trkpt lat="45.0777833" lon="7.7612367"><ele>514.0</ele><time>2026-04-11T12:44:08.45Z</time></trkpt><trkpt lat="45.07772" lon="7.7612583"><ele>514.0</ele><time>2026-04-11T12:44:11.45Z</time></trkpt><trkpt lat="45.0776567" lon="7.761305"><ele>515.1666666666667</ele><time>2026-04-11T12:44:14.45Z</time></trkpt><trkpt lat="45.0775733" lon="7.7613433"><ele>516.3333333333334</ele><time>2026-04-11T12:44:17.45Z</time></trkpt><trkpt lat="45.0774917" lon="7.76139"><ele>517.5</ele><time>2026-04-11T12:44:20.45Z</time></trkpt><trkpt lat="45.07741" lon="7.7614533"><ele>518.6666666666666</ele><time>2026-04-11T12:44:23.45Z</time></trkpt><trkpt lat="45.0773383" lon="7.7615267"><ele>519.8333333333333</ele><time>2026-04-11T12:44:26.45Z</time></trkpt><trkpt lat="45.0772833" lon="7.7616083"><ele>521.0</ele><time>2026-04-11T12:44:29.45Z</time></trkpt><trkpt lat="45.0772483" lon="7.7616983"><ele>521.0</ele><time>2026-04-11T12:44:32.45Z</time></trkpt><trkpt lat="45.0771933" lon="7.76179"><ele>521.0</ele><time>2026-04-11T12:44:35.45Z</time></trkpt><trkpt lat="45.0771217" lon="7.7618617"><ele>521.0</ele><time>2026-04-11T12:44:38.45Z</time></trkpt><trkpt lat="45.0770517" lon="7.7619117"><ele>521.0</ele><time>2026-04-11T12:44:41.45Z</time></trkpt><trkpt lat="45.076995" lon="7.7619517"><ele>521.0</ele><time>2026-04-11T12:44:44.45Z</time></trkpt><trkpt lat="45.076935" lon="7.7620033"><ele>521.0</ele><time>2026-04-11T12:44:47.45Z</time></trkpt><trkpt lat="45.07688" lon="7.7620683"><ele>524.8333333333333</ele><time>2026-04-11T12:44:50.45Z</time></trkpt><trkpt lat="45.0768133" lon="7.7621583"><ele>528.6666666666666</ele><time>2026-04-11T12:44:53.45Z</time></trkpt><trkpt lat="45.076765" lon="7.7622383"><ele>532.5</ele><time>2026-04-11T12:44:56.45Z</time></trkpt><trkpt lat="45.0767217" lon="7.76231"><ele>536.3333333333334</ele><time>2026-04-11T12:44:59.45Z</time></trkpt><trkpt lat="45.0766733" lon="7.7623867"><ele>540.1666666666667</ele><time>2026-04-11T12:45:02.45Z</time></trkpt><trkpt lat="45.0766517" lon="7.7624983"><ele>544.0</ele><time>2026-04-11T12:45:05.45Z</time></trkpt><trkpt lat="45.0766167" lon="7.7626167"><ele>544.8333333333334</ele><time>2026-04-11T12:45:08.45Z</time></trkpt><trkpt lat="45.0766" lon="7.7627233"><ele>545.6666666666667</ele><time>2026-04-11T12:45:11.45Z</time></trkpt><trkpt lat="45.0766017" lon="7.76283"><ele>546.5</ele><time>2026-04-11T12:45:14.45Z</time></trkpt><trkpt lat="45.0766233" lon="7.7629233"><ele>547.3333333333334</ele><time>2026-04-11T12:45:16.45Z</time></trkpt><trkpt lat="45.0766633" lon="7.7630367"><ele>548.1666666666666</ele><time>2026-04-11T12:45:19.45Z</time></trkpt><trkpt lat="45.076705" lon="7.763135"><ele>549.0</ele><time>2026-04-11T12:45:22.45Z</time></trkpt><trkpt lat="45.07676" lon="7.7632183"><ele>549.0</ele><time>2026-04-11T12:45:25.45Z</time></trkpt><trkpt lat="45.0768117" lon="7.7632917"><ele>549.0</ele><time>2026-04-11T12:45:28.45Z</time></trkpt><trkpt lat="45.0768683" lon="7.7633633"><ele>549.0</ele><time>2026-04-11T12:45:31.45Z</time></trkpt><trkpt lat="45.0769117" lon="7.7634417"><ele>549.0</ele><time>2026-04-11T12:45:34.45Z</time></trkpt><trkpt lat="45.0769633" lon="7.7635233"><ele>549.0</ele><time>2026-04-11T12:45:37.451Z</time></trkpt><trkpt lat="45.077005" lon="7.763605"><ele>549.0</ele><time>2026-04-11T12:45:40.451Z</time></trkpt><trkpt lat="45.0770483" lon="7.7636867"><ele>549.0</ele><time>2026-04-11T12:45:43.45Z</time></trkpt><trkpt lat="45.0771" lon="7.76377"><ele>548.1666666666666</ele><time>2026-04-11T12:45:46.45Z</time></trkpt><trkpt lat="45.077155" lon="7.7638417"><ele>547.3333333333334</ele><time>2026-04-11T12:45:49.45Z</time></trkpt><trkpt lat="45.0772133" lon="7.7639317"><ele>546.5</ele><time>2026-04-11T12:45:53.45Z</time></trkpt><trkpt lat="45.0772717" lon="7.76401"><ele>545.6666666666667</ele><time>2026-04-11T12:45:56.45Z</time></trkpt><trkpt lat="45.07732" lon="7.7640833"><ele>544.8333333333334</ele><time>2026-04-11T12:45:59.45Z</time></trkpt><trkpt lat="45.0773633" lon="7.7641617"><ele>544.0</ele><time>2026-04-11T12:46:02.45Z</time></trkpt><trkpt lat="45.0774067" lon="7.7642383"><ele>549.3333333333334</ele><time>2026-04-11T12:46:05.45Z</time></trkpt><trkpt lat="45.0774533" lon="7.764325"><ele>554.6666666666667</ele><time>2026-04-11T12:46:08.45Z</time></trkpt><trkpt lat="45.07749" lon="7.7644233"><ele>560.0</ele><time>2026-04-11T12:46:11.45Z</time></trkpt><trkpt lat="45.0775133" lon="7.7645167"><ele>565.3333333333334</ele><time>2026-04-11T12:46:14.45Z</time></trkpt><trkpt lat="45.0775183" lon="7.7646267"><ele>570.6666666666666</ele><time>2026-04-11T12:46:17.45Z</time></trkpt><trkpt lat="45.0775333" lon="7.7647533"><ele>576.0</ele><time>2026-04-11T12:46:20.45Z</time></trkpt><trkpt lat="45.0775283" lon="7.7648767"><ele>576.0</ele><time>2026-04-11T12:46:23.45Z</time></trkpt><trkpt lat="45.077485" lon="7.764985"><ele>576.0</ele><time>2026-04-11T12:46:26.45Z</time></trkpt><trkpt lat="45.0774483" lon="7.7650933"><ele>576.0</ele><time>2026-04-11T12:46:29.45Z</time></trkpt><trkpt lat="45.0774017" lon="7.7652017"><ele>576.0</ele><time>2026-04-11T12:46:32.45Z</time></trkpt><trkpt lat="45.07737" lon="7.7653167"><ele>576.0</ele><time>2026-04-11T12:46:35.45Z</time></trkpt><trkpt lat="45.0773433" lon="7.765435"><ele>576.0</ele><time>2026-04-11T12:46:38.45Z</time></trkpt><trkpt lat="45.077325" lon="7.7655483"><ele>575.8333333333334</ele><time>2026-04-11T12:46:41.45Z</time></trkpt><trkpt lat="45.0773033" lon="7.7656583"><ele>575.6666666666666</ele><time>2026-04-11T12:46:44.45Z</time></trkpt><trkpt lat="45.0772833" lon="7.7657717"><ele>575.5</ele><time>2026-04-11T12:46:47.45Z</time></trkpt><trkpt lat="45.07726" lon="7.76588"><ele>575.3333333333333</ele><time>2026-04-11T12:46:50.45Z</time></trkpt><trkpt lat="45.0772317" lon="7.765985"><ele>575.1666666666666</ele><time>2026-04-11T12:46:53.45Z</time></trkpt><trkpt lat="45.0772117" lon="7.7660817"><ele>575.0</ele><time>2026-04-11T12:46:56.45Z</time></trkpt><trkpt lat="45.077175" lon="7.7661767"><ele>575.0</ele><time>2026-04-11T12:46:59.45Z</time></trkpt><trkpt lat="45.077145" lon="7.7662733"><ele>575.0</ele><time>2026-04-11T12:47:02.45Z</time></trkpt><trkpt lat="45.0771033" lon="7.7663567"><ele>575.0</ele><time>2026-04-11T12:47:05.45Z</time></trkpt><trkpt lat="45.0770683" lon="7.7664517"><ele>575.0</ele><time>2026-04-11T12:47:08.45Z</time></trkpt><trkpt lat="45.0770333" lon="7.7665383"><ele>575.0</ele><time>2026-04-11T12:47:11.45Z</time></trkpt><trkpt lat="45.07698" lon="7.7665933"><ele>575.0</ele><time>2026-04-11T12:47:14.45Z</time></trkpt><trkpt lat="45.07692" lon="7.766685"><ele>575.0</ele><time>2026-04-11T12:47:17.45Z</time></trkpt><trkpt lat="45.0769033" lon="7.7667833"><ele>577.0</ele><time>2026-04-11T12:47:19.45Z</time></trkpt><trkpt lat="45.07689" lon="7.7668733"><ele>579.0</ele><time>2026-04-11T12:47:21.45Z</time></trkpt><trkpt lat="45.0768833" lon="7.7669817"><ele>581.0</ele><time>2026-04-11T12:47:23.45Z</time></trkpt><trkpt lat="45.0768933" lon="7.7670817"><ele>583.0</ele><time>2026-04-11T12:47:25.45Z</time></trkpt><trkpt lat="45.0769033" lon="7.7671783"><ele>585.0</ele><time>2026-04-11T12:47:27.45Z</time></trkpt><trkpt lat="45.0768967" lon="7.7672817"><ele>587.0</ele><time>2026-04-11T12:47:29.45Z</time></trkpt><trkpt lat="45.076895" lon="7.767415"><ele>589.0</ele><time>2026-04-11T12:47:32.45Z</time></trkpt><trkpt lat="45.0768933" lon="7.7675083"><ele>589.0</ele><time>2026-04-11T12:47:34.45Z</time></trkpt><trkpt lat="45.0768817" lon="7.7676033"><ele>589.0</ele><time>2026-04-11T12:47:36.451Z</time></trkpt><trkpt lat="45.076865" lon="7.7677017"><ele>589.0</ele><time>2026-04-11T12:47:38.45Z</time></trkpt><trkpt lat="45.076845" lon="7.7678033"><ele>589.0</ele><time>2026-04-11T12:47:40.45Z</time></trkpt><trkpt lat="45.07683" lon="7.7679117"><ele>589.0</ele><time>2026-04-11T12:47:42.45Z</time></trkpt><trkpt lat="45.076815" lon="7.7680217"><ele>589.0</ele><time>2026-04-11T12:47:44.45Z</time></trkpt><trkpt lat="45.0768167" lon="7.7681417"><ele>589.1666666666667</ele><time>2026-04-11T12:47:46.45Z</time></trkpt><trkpt lat="45.07683" lon="7.768255"><ele>589.3333333333334</ele><time>2026-04-11T12:47:48.45Z</time></trkpt><trkpt lat="45.0768567" lon="7.7683683"><ele>589.5</ele><time>2026-04-11T12:47:50.45Z</time></trkpt><trkpt lat="45.0768983" lon="7.768485"><ele>589.6666666666666</ele><time>2026-04-11T12:47:52.451Z</time></trkpt><trkpt lat="45.0769417" lon="7.7685833"><ele>589.8333333333333</ele><time>2026-04-11T12:47:54.45Z</time></trkpt><trkpt lat="45.076985" lon="7.7686817"><ele>590.0</ele><time>2026-04-11T12:47:56.45Z</time></trkpt><trkpt lat="45.0770267" lon="7.7687783"><ele>588.3333333333333</ele><time>2026-04-11T12:47:58.451Z</time></trkpt><trkpt lat="45.0770833" lon="7.768885"><ele>586.6666666666666</ele><time>2026-04-11T12:48:00.45Z</time></trkpt><trkpt lat="45.0771333" lon="7.7689917"><ele>585.0</ele><time>2026-04-11T12:48:02.45Z</time></trkpt><trkpt lat="45.0771717" lon="7.7690867"><ele>583.3333333333334</ele><time>2026-04-11T12:48:04.45Z</time></trkpt><trkpt lat="45.0772033" lon="7.76919"><ele>581.6666666666667</ele><time>2026-04-11T12:48:06.45Z</time></trkpt><trkpt lat="45.07722" lon="7.769295"><ele>580.0</ele><time>2026-04-11T12:48:08.45Z</time></trkpt><trkpt lat="45.0772417" lon="7.7693917"><ele>579.1666666666667</ele><time>2026-04-11T12:48:10.45Z</time></trkpt><trkpt lat="45.0772667" lon="7.76948"><ele>578.3333333333334</ele><time>2026-04-11T12:48:12.45Z</time></trkpt><trkpt lat="45.0773017" lon="7.769555"><ele>577.5</ele><time>2026-04-11T12:48:14.45Z</time></trkpt><trkpt lat="45.07734" lon="7.7696717"><ele>576.6666666666666</ele><time>2026-04-11T12:48:17.45Z</time></trkpt><trkpt lat="45.07737" lon="7.7697583"><ele>575.8333333333333</ele><time>2026-04-11T12:48:19.45Z</time></trkpt><trkpt lat="45.0774017" lon="7.7698433"><ele>575.0</ele><time>2026-04-11T12:48:21.45Z</time></trkpt><trkpt lat="45.0774383" lon="7.7699633"><ele>580.5</ele><time>2026-04-11T12:48:24.45Z</time></trkpt><trkpt lat="45.0774717" lon="7.7700433"><ele>586.0</ele><time>2026-04-11T12:48:26.45Z</time></trkpt><trkpt lat="45.0775167" lon="7.7701567"><ele>591.5</ele><time>2026-04-11T12:48:29.45Z</time></trkpt><trkpt lat="45.0775533" lon="7.7702333"><ele>597.0</ele><time>2026-04-11T12:48:31.45Z</time></trkpt><trkpt lat="45.077605" lon="7.7703367"><ele>602.5</ele><time>2026-04-11T12:48:34.45Z</time></trkpt><trkpt lat="45.0776517" lon="7.7704467"><ele>608.0</ele><time>2026-04-11T12:48:37.45Z</time></trkpt><trkpt lat="45.0776933" lon="7.7705433"><ele>608.0</ele><time>2026-04-11T12:48:40.45Z</time></trkpt><trkpt lat="45.0777317" lon="7.7706367"><ele>608.0</ele><time>2026-04-11T12:48:43.45Z</time></trkpt><trkpt lat="45.0777783" lon="7.7707367"><ele>608.0</ele><time>2026-04-11T12:48:46.45Z</time></trkpt><trkpt lat="45.0778183" lon="7.7708267"><ele>608.0</ele><time>2026-04-11T12:48:48.45Z</time></trkpt><trkpt lat="45.0778567" lon="7.7709067"><ele>608.0</ele><time>2026-04-11T12:48:50.45Z</time></trkpt><trkpt lat="45.0779" lon="7.7710233"><ele>608.0</ele><time>2026-04-11T12:48:53.45Z</time></trkpt><trkpt lat="45.0779417" lon="7.77112"><ele>608.0</ele><time>2026-04-11T12:48:56.45Z</time></trkpt><trkpt lat="45.0779717" lon="7.7712"><ele>608.0</ele><time>2026-04-11T12:48:59.45Z</time></trkpt><trkpt lat="45.0780483" lon="7.7712717"><ele>608.0</ele><time>2026-04-11T12:56:12.449Z</time></trkpt><trkpt lat="45.0780967" lon="7.7711983"><ele>608.0</ele><time>2026-04-11T12:57:07.449Z</time></trkpt><trkpt lat="45.0780967" lon="7.7710933"><ele>608.0</ele><time>2026-04-11T12:57:10.45Z</time></trkpt><trkpt lat="45.0780867" lon="7.7709983"><ele>608.0</ele><time>2026-04-11T12:57:13.449Z</time></trkpt><trkpt lat="45.078065" lon="7.7709033"><ele>608.0</ele><time>2026-04-11T12:57:16.449Z</time></trkpt><trkpt lat="45.0780467" lon="7.7707833"><ele>608.0</ele><time>2026-04-11T12:57:19.449Z</time></trkpt><trkpt lat="45.0780367" lon="7.7706933"><ele>608.0</ele><time>2026-04-11T12:57:21.449Z</time></trkpt><trkpt lat="45.0780267" lon="7.7705983"><ele>608.0</ele><time>2026-04-11T12:57:23.449Z</time></trkpt><trkpt lat="45.078015" lon="7.77051"><ele>608.0</ele><time>2026-04-11T12:57:25.449Z</time></trkpt><trkpt lat="45.078015" lon="7.7703967"><ele>608.0</ele><time>2026-04-11T12:57:28.449Z</time></trkpt><trkpt lat="45.0780117" lon="7.7703017"><ele>608.0</ele><time>2026-04-11T12:57:31.449Z</time></trkpt><trkpt lat="45.0780067" lon="7.7701983"><ele>608.0</ele><time>2026-04-11T12:57:35.449Z</time></trkpt><trkpt lat="45.077995" lon="7.7701083"><ele>608.5714285714286</ele><time>2026-04-11T12:57:38.449Z</time></trkpt><trkpt lat="45.077975" lon="7.7700067"><ele>609.1428571428572</ele><time>2026-04-11T12:57:41.449Z</time></trkpt><trkpt lat="45.0779667" lon="7.7699167"><ele>609.7142857142858</ele><time>2026-04-11T12:57:44.449Z</time></trkpt><trkpt lat="45.0779533" lon="7.76981"><ele>610.2857142857142</ele><time>2026-04-11T12:57:47.449Z</time></trkpt><trkpt lat="45.0779533" lon="7.76972"><ele>610.8571428571429</ele><time>2026-04-11T12:57:49.448Z</time></trkpt><trkpt lat="45.07795" lon="7.769615"><ele>611.4285714285714</ele><time>2026-04-11T12:57:52.448Z</time></trkpt><trkpt lat="45.0779317" lon="7.7695133"><ele>612.0</ele><time>2026-04-11T12:57:55.448Z</time></trkpt><trkpt lat="45.07793" lon="7.76938"><ele>612.8333333333334</ele><time>2026-04-11T12:57:58.448Z</time></trkpt><trkpt lat="45.07793" lon="7.76929"><ele>613.6666666666666</ele><time>2026-04-11T12:58:00.448Z</time></trkpt><trkpt lat="45.077925" lon="7.769175"><ele>614.5</ele><time>2026-04-11T12:58:03.448Z</time></trkpt><trkpt lat="45.0779133" lon="7.7690683"><ele>615.3333333333333</ele><time>2026-04-11T12:58:06.449Z</time></trkpt><trkpt lat="45.077905" lon="7.76896"><ele>616.1666666666666</ele><time>2026-04-11T12:58:09.448Z</time></trkpt><trkpt lat="45.0779117" lon="7.7688433"><ele>617.0</ele><time>2026-04-11T12:58:12.448Z</time></trkpt><trkpt lat="45.077915" lon="7.768735"><ele>617.0</ele><time>2026-04-11T12:58:15.448Z</time></trkpt><trkpt lat="45.077925" lon="7.7686133"><ele>617.0</ele><time>2026-04-11T12:58:18.448Z</time></trkpt><trkpt lat="45.0779333" lon="7.768485"><ele>617.0</ele><time>2026-04-11T12:58:21.448Z</time></trkpt><trkpt lat="45.0779467" lon="7.7683667"><ele>617.0</ele><time>2026-04-11T12:58:24.448Z</time></trkpt><trkpt lat="45.0779733" lon="7.7682567"><ele>617.0</ele><time>2026-04-11T12:58:27.448Z</time></trkpt><trkpt lat="45.078" lon="7.7681517"><ele>617.0</ele><time>2026-04-11T12:58:30.448Z</time></trkpt><trkpt lat="45.0780267" lon="7.768065"><ele>617.1666666666666</ele><time>2026-04-11T12:58:32.448Z</time></trkpt><trkpt lat="45.078065" lon="7.7679867"><ele>617.3333333333333</ele><time>2026-04-11T12:58:34.448Z</time></trkpt><trkpt lat="45.078105" lon="7.7678867"><ele>617.5</ele><time>2026-04-11T12:58:37.448Z</time></trkpt><trkpt lat="45.0781483" lon="7.7678167"><ele>617.6666666666666</ele><time>2026-04-11T12:58:39.448Z</time></trkpt><trkpt lat="45.0782033" lon="7.767745"><ele>617.8333333333334</ele><time>2026-04-11T12:58:41.448Z</time></trkpt><trkpt lat="45.07826" lon="7.7676717"><ele>618.0</ele><time>2026-04-11T12:58:43.448Z</time></trkpt><trkpt lat="45.0783217" lon="7.7675683"><ele>622.8333333333334</ele><time>2026-04-11T12:58:46.448Z</time></trkpt><trkpt lat="45.07837" lon="7.7674967"><ele>627.6666666666666</ele><time>2026-04-11T12:58:48.448Z</time></trkpt><trkpt lat="45.0784383" lon="7.76744"><ele>632.5</ele><time>2026-04-11T12:58:50.448Z</time></trkpt><trkpt lat="45.0785" lon="7.7673817"><ele>637.3333333333333</ele><time>2026-04-11T12:58:52.449Z</time></trkpt><trkpt lat="45.078575" lon="7.767315"><ele>642.1666666666666</ele><time>2026-04-11T12:58:55.448Z</time></trkpt><trkpt lat="45.0786317" lon="7.76724"><ele>647.0</ele><time>2026-04-11T12:58:58.448Z</time></trkpt><trkpt lat="45.0786767" lon="7.767175"><ele>647.0</ele><time>2026-04-11T12:59:00.448Z</time></trkpt><trkpt lat="45.0787283" lon="7.7671183"><ele>647.0</ele><time>2026-04-11T12:59:02.448Z</time></trkpt><trkpt lat="45.0787883" lon="7.7670617"><ele>647.0</ele><time>2026-04-11T12:59:04.448Z</time></trkpt><trkpt lat="45.0788667" lon="7.7669783"><ele>647.0</ele><time>2026-04-11T12:59:07.448Z</time></trkpt><trkpt lat="45.0789167" lon="7.7669133"><ele>647.0</ele><time>2026-04-11T12:59:09.449Z</time></trkpt><trkpt lat="45.0789633" lon="7.7668533"><ele>647.0</ele><time>2026-04-11T12:59:11.448Z</time></trkpt><trkpt lat="45.07902" lon="7.7668133"><ele>647.0</ele><time>2026-04-11T12:59:13.448Z</time></trkpt><trkpt lat="45.0790883" lon="7.76676"><ele>648.2857142857142</ele><time>2026-04-11T12:59:16.448Z</time></trkpt><trkpt lat="45.0791483" lon="7.76672"><ele>649.5714285714286</ele><time>2026-04-11T12:59:18.448Z</time></trkpt><trkpt lat="45.07923" lon="7.7667017"><ele>650.8571428571429</ele><time>2026-04-11T12:59:20.448Z</time></trkpt><trkpt lat="45.0793117" lon="7.76667"><ele>652.1428571428571</ele><time>2026-04-11T12:59:22.448Z</time></trkpt><trkpt lat="45.0793833" lon="7.7666317"><ele>653.4285714285714</ele><time>2026-04-11T12:59:24.448Z</time></trkpt><trkpt lat="45.0794483" lon="7.7665967"><ele>654.7142857142857</ele><time>2026-04-11T12:59:26.448Z</time></trkpt><trkpt lat="45.07951" lon="7.76656"><ele>656.0</ele><time>2026-04-11T12:59:28.448Z</time></trkpt><trkpt lat="45.0795883" lon="7.7664917"><ele>656.0</ele><time>2026-04-11T12:59:31.448Z</time></trkpt><trkpt lat="45.0796683" lon="7.7664433"><ele>656.0</ele><time>2026-04-11T12:59:34.448Z</time></trkpt><trkpt lat="45.0797567" lon="7.7664633"><ele>656.0</ele><time>2026-04-11T12:59:37.448Z</time></trkpt><trkpt lat="45.0798233" lon="7.7665033"><ele>656.0</ele><time>2026-04-11T12:59:39.448Z</time></trkpt><trkpt lat="45.0798833" lon="7.76656"><ele>656.0</ele><time>2026-04-11T12:59:41.448Z</time></trkpt><trkpt lat="45.0799383" lon="7.76661"><ele>656.0</ele><time>2026-04-11T12:59:43.448Z</time></trkpt><trkpt lat="45.0800067" lon="7.76669"><ele>657.1428571428571</ele><time>2026-04-11T12:59:46.448Z</time></trkpt><trkpt lat="45.08006" lon="7.7667533"><ele>658.2857142857142</ele><time>2026-04-11T12:59:48.448Z</time></trkpt><trkpt lat="45.0801033" lon="7.7668183"><ele>659.4285714285713</ele><time>2026-04-11T12:59:50.448Z</time></trkpt><trkpt lat="45.080145" lon="7.76689"><ele>660.5714285714286</ele><time>2026-04-11T12:59:52.448Z</time></trkpt><trkpt lat="45.0801733" lon="7.7669933"><ele>661.7142857142858</ele><time>2026-04-11T12:59:56.448Z</time></trkpt><trkpt lat="45.0802317" lon="7.7670783"><ele>662.8571428571428</ele><time>2026-04-11T12:59:59.449Z</time></trkpt><trkpt lat="45.0803" lon="7.767085"><ele>664.0</ele><time>2026-04-11T13:00:01.448Z</time></trkpt><trkpt lat="45.0803817" lon="7.7670217"><ele>666.0</ele><time>2026-04-11T13:00:04.448Z</time></trkpt><trkpt lat="45.0804767" lon="7.7669883"><ele>668.0</ele><time>2026-04-11T13:00:06.448Z</time></trkpt><trkpt lat="45.0805633" lon="7.7669733"><ele>670.0</ele><time>2026-04-11T13:00:08.448Z</time></trkpt><trkpt lat="45.0806433" lon="7.7669633"><ele>672.0</ele><time>2026-04-11T13:00:10.448Z</time></trkpt><trkpt lat="45.0807167" lon="7.7669633"><ele>674.0</ele><time>2026-04-11T13:00:12.448Z</time></trkpt><trkpt lat="45.0807883" lon="7.7669383"><ele>676.0</ele><time>2026-04-11T13:00:15.448Z</time></trkpt><trkpt lat="45.0807883" lon="7.7670833"><ele>678.5</ele><time>2026-04-11T13:02:11.448Z</time></trkpt><trkpt lat="45.080785" lon="7.7669567"><ele>681.0</ele><time>2026-04-11T13:02:31.448Z</time></trkpt><trkpt lat="45.080855" lon="7.766865"><ele>683.5</ele><time>2026-04-11T13:03:27.448Z</time></trkpt><trkpt lat="45.0808717" lon="7.7669533"><ele>686.0</ele><time>2026-04-11T13:04:30.448Z</time></trkpt><trkpt lat="45.080935" lon="7.766995"><ele>688.5</ele><time>2026-04-11T13:04:33.447Z</time></trkpt><trkpt lat="45.0809867" lon="7.7670717"><ele>691.0</ele><time>2026-04-11T13:04:36.447Z</time></trkpt><trkpt lat="45.08102" lon="7.7671683"><ele>691.0</ele><time>2026-04-11T13:04:39.447Z</time></trkpt><trkpt lat="45.0810717" lon="7.7672617"><ele>691.0</ele><time>2026-04-11T13:04:42.447Z</time></trkpt><trkpt lat="45.0811083" lon="7.7673483"><ele>691.0</ele><time>2026-04-11T13:04:44.447Z</time></trkpt><trkpt lat="45.0811317" lon="7.7674367"><ele>691.0</ele><time>2026-04-11T13:04:46.447Z</time></trkpt><trkpt lat="45.0812133" lon="7.7675683"><ele>691.0</ele><time>2026-04-11T13:06:31.447Z</time></trkpt><trkpt lat="45.0812083" lon="7.7676633"><ele>691.0</ele><time>2026-04-11T13:06:49.447Z</time></trkpt><trkpt lat="45.08121" lon="7.7677617"><ele>689.6666666666667</ele><time>2026-04-11T13:06:52.447Z</time></trkpt><trkpt lat="45.0812017" lon="7.7678767"><ele>688.3333333333334</ele><time>2026-04-11T13:06:55.447Z</time></trkpt><trkpt lat="45.0812017" lon="7.76798"><ele>687.0</ele><time>2026-04-11T13:06:57.447Z</time></trkpt><trkpt lat="45.0812" lon="7.7681"><ele>685.6666666666666</ele><time>2026-04-11T13:06:59.447Z</time></trkpt><trkpt lat="45.081205" lon="7.768205"><ele>684.3333333333333</ele><time>2026-04-11T13:07:01.447Z</time></trkpt><trkpt lat="45.0812083" lon="7.7683233"><ele>683.0</ele><time>2026-04-11T13:07:03.447Z</time></trkpt><trkpt lat="45.0812317" lon="7.768435"><ele>679.3333333333333</ele><time>2026-04-11T13:07:05.447Z</time></trkpt><trkpt lat="45.0812717" lon="7.7685583"><ele>675.6666666666666</ele><time>2026-04-11T13:07:07.447Z</time></trkpt><trkpt lat="45.081325" lon="7.7686783"><ele>672.0</ele><time>2026-04-11T13:07:09.447Z</time></trkpt><trkpt lat="45.08139" lon="7.7687683"><ele>668.3333333333334</ele><time>2026-04-11T13:07:11.447Z</time></trkpt><trkpt lat="45.0814667" lon="7.768815"><ele>664.6666666666667</ele><time>2026-04-11T13:07:14.447Z</time></trkpt><trkpt lat="45.08154" lon="7.7688467"><ele>661.0</ele><time>2026-04-11T13:07:18.447Z</time></trkpt><trkpt lat="45.0815517" lon="7.7689483"><ele>661.0</ele><time>2026-04-11T13:07:27.447Z</time></trkpt><trkpt lat="45.08147" lon="7.7690167"><ele>661.0</ele><time>2026-04-11T13:07:31.447Z</time></trkpt><trkpt lat="45.08137" lon="7.7690517"><ele>661.0</ele><time>2026-04-11T13:07:33.448Z</time></trkpt><trkpt lat="45.0812767" lon="7.769075"><ele>661.0</ele><time>2026-04-11T13:07:35.447Z</time></trkpt><trkpt lat="45.0812" lon="7.7691183"><ele>661.0</ele><time>2026-04-11T13:07:37.447Z</time></trkpt><trkpt lat="45.0811317" lon="7.76915"><ele>661.0</ele><time>2026-04-11T13:07:39.447Z</time></trkpt><trkpt lat="45.08106" lon="7.7691683"><ele>661.0</ele><time>2026-04-11T13:07:43.447Z</time></trkpt><trkpt lat="45.080995" lon="7.7691783"><ele>661.0</ele><time>2026-04-11T13:09:05.448Z</time></trkpt><trkpt lat="45.0809183" lon="7.7691917"><ele>661.0</ele><time>2026-04-11T13:09:10.447Z</time></trkpt><trkpt lat="45.0808517" lon="7.76921"><ele>661.0</ele><time>2026-04-11T13:09:13.447Z</time></trkpt><trkpt lat="45.08079" lon="7.76918"><ele>661.0</ele><time>2026-04-11T13:09:15.447Z</time></trkpt><trkpt lat="45.080715" lon="7.76913"><ele>661.0</ele><time>2026-04-11T13:09:18.447Z</time></trkpt><trkpt lat="45.0806533" lon="7.76905"><ele>661.0</ele><time>2026-04-11T13:09:21.447Z</time></trkpt><trkpt lat="45.0806167" lon="7.768965"><ele>661.3333333333334</ele><time>2026-04-11T13:09:23.447Z</time></trkpt><trkpt lat="45.080575" lon="7.7688733"><ele>661.6666666666667</ele><time>2026-04-11T13:09:26.447Z</time></trkpt><trkpt lat="45.0805317" lon="7.7687917"><ele>662.0</ele><time>2026-04-11T13:09:30.447Z</time></trkpt><trkpt lat="45.0804917" lon="7.7687133"><ele>662.3333333333334</ele><time>2026-04-11T13:09:33.447Z</time></trkpt><trkpt lat="45.0804683" lon="7.768595"><ele>662.6666666666666</ele><time>2026-04-11T13:09:36.447Z</time></trkpt><trkpt lat="45.080455" lon="7.768485"><ele>663.0</ele><time>2026-04-11T13:09:39.447Z</time></trkpt><trkpt lat="45.0804533" lon="7.7683683"><ele>663.0</ele><time>2026-04-11T13:09:41.447Z</time></trkpt><trkpt lat="45.08044" lon="7.7682633"><ele>663.0</ele><time>2026-04-11T13:09:44.447Z</time></trkpt><trkpt lat="45.080415" lon="7.7681583"><ele>663.0</ele><time>2026-04-11T13:09:46.447Z</time></trkpt><trkpt lat="45.0803767" lon="7.7679817"><ele>663.0</ele><time>2026-04-11T13:10:20.448Z</time></trkpt><trkpt lat="45.08039" lon="7.7678433"><ele>663.0</ele><time>2026-04-11T13:10:31.447Z</time></trkpt><trkpt lat="45.0803945" lon="7.7677053"><ele>665.5999999999999</ele><time>2026-04-11T13:10:46.541Z</time></trkpt><trkpt lat="45.08035" lon="7.7676053"><ele>668.1999999999999</ele><time>2026-04-11T13:10:49.472Z</time></trkpt><trkpt lat="45.0802737" lon="7.7675537"><ele>670.8</ele><time>2026-04-11T13:10:52.508Z</time></trkpt><trkpt lat="45.0801867" lon="7.7674617"><ele>673.4</ele><time>2026-04-11T13:10:56.446Z</time></trkpt><trkpt lat="45.0801117" lon="7.7674083"><ele>676.0</ele><time>2026-04-11T13:10:59.446Z</time></trkpt><trkpt lat="45.0799417" lon="7.7674317"><ele>674.1666666666667</ele><time>2026-04-11T13:11:28.446Z</time></trkpt><trkpt lat="45.07988" lon="7.76745"><ele>672.3333333333334</ele><time>2026-04-11T13:11:30.446Z</time></trkpt><trkpt lat="45.0797917" lon="7.767485"><ele>670.5</ele><time>2026-04-11T13:11:32.446Z</time></trkpt><trkpt lat="45.0797117" lon="7.7675483"><ele>668.6666666666666</ele><time>2026-04-11T13:11:34.446Z</time></trkpt><trkpt lat="45.07963" lon="7.76762"><ele>666.8333333333333</ele><time>2026-04-11T13:11:36.446Z</time></trkpt><trkpt lat="45.0795783" lon="7.7676717"><ele>665.0</ele><time>2026-04-11T13:11:37.446Z</time></trkpt><trkpt lat="45.0795167" lon="7.7677133"><ele>663.8333333333333</ele><time>2026-04-11T13:11:38.446Z</time></trkpt><trkpt lat="45.07945" lon="7.7677583"><ele>662.6666666666666</ele><time>2026-04-11T13:11:39.446Z</time></trkpt><trkpt lat="45.0793833" lon="7.767815"><ele>661.5</ele><time>2026-04-11T13:11:40.446Z</time></trkpt><trkpt lat="45.0793133" lon="7.7678767"><ele>660.3333333333334</ele><time>2026-04-11T13:11:41.446Z</time></trkpt><trkpt lat="45.0792467" lon="7.7679367"><ele>659.1666666666667</ele><time>2026-04-11T13:11:42.446Z</time></trkpt><trkpt lat="45.0791783" lon="7.7680117"><ele>658.0</ele><time>2026-04-11T13:11:43.447Z</time></trkpt><trkpt lat="45.0791267" lon="7.768095"><ele>658.0</ele><time>2026-04-11T13:11:44.446Z</time></trkpt><trkpt lat="45.0790667" lon="7.7681883"><ele>658.0</ele><time>2026-04-11T13:11:45.446Z</time></trkpt><trkpt lat="45.0790233" lon="7.76829"><ele>658.0</ele><time>2026-04-11T13:11:46.446Z</time></trkpt><trkpt lat="45.0789767" lon="7.7683867"><ele>658.0</ele><time>2026-04-11T13:11:47.446Z</time></trkpt><trkpt lat="45.078935" lon="7.7684717"><ele>658.0</ele><time>2026-04-11T13:11:48.447Z</time></trkpt><trkpt lat="45.0788933" lon="7.7685583"><ele>658.0</ele><time>2026-04-11T13:11:49.446Z</time></trkpt><trkpt lat="45.0788583" lon="7.7686433"><ele>654.25</ele><time>2026-04-11T13:11:50.446Z</time></trkpt><trkpt lat="45.078805" lon="7.768795"><ele>650.5</ele><time>2026-04-11T13:11:52.446Z</time></trkpt><trkpt lat="45.07874" lon="7.7689333"><ele>646.75</ele><time>2026-04-11T13:11:54.446Z</time></trkpt><trkpt lat="45.0786733" lon="7.7690617"><ele>643.0</ele><time>2026-04-11T13:11:56.446Z</time></trkpt><trkpt lat="45.07862" lon="7.7691983"><ele>643.0</ele><time>2026-04-11T13:11:58.446Z</time></trkpt><trkpt lat="45.078605" lon="7.7693283"><ele>643.0</ele><time>2026-04-11T13:12:00.446Z</time></trkpt><trkpt lat="45.07858" lon="7.7694267"><ele>643.0</ele><time>2026-04-11T13:12:02.446Z</time></trkpt><trkpt lat="45.0785217" lon="7.7695283"><ele>643.0</ele><time>2026-04-11T13:12:05.446Z</time></trkpt><trkpt lat="45.0784583" lon="7.7696317"><ele>643.0</ele><time>2026-04-11T13:12:07.447Z</time></trkpt><trkpt lat="45.0783817" lon="7.7697267"><ele>640.6</ele><time>2026-04-11T13:12:09.446Z</time></trkpt><trkpt lat="45.0783217" lon="7.7698733"><ele>638.1999999999999</ele><time>2026-04-11T13:12:11.446Z</time></trkpt><trkpt lat="45.0782867" lon="7.7700333"><ele>635.8</ele><time>2026-04-11T13:12:13.446Z</time></trkpt><trkpt lat="45.0782717" lon="7.7701217"><ele>633.4</ele><time>2026-04-11T13:12:14.446Z</time></trkpt><trkpt lat="45.0782583" lon="7.7702133"><ele>631.0</ele><time>2026-04-11T13:12:15.446Z</time></trkpt><trkpt lat="45.0782233" lon="7.7703767"><ele>626.4</ele><time>2026-04-11T13:12:17.446Z</time></trkpt><trkpt lat="45.0781833" lon="7.7705467"><ele>621.8</ele><time>2026-04-11T13:12:19.446Z</time></trkpt><trkpt lat="45.0781417" lon="7.7706867"><ele>617.1999999999999</ele><time>2026-04-11T13:12:21.446Z</time></trkpt><trkpt lat="45.0781233" lon="7.7708167"><ele>612.6</ele><time>2026-04-11T13:12:23.446Z</time></trkpt><trkpt lat="45.0781383" lon="7.7709417"><ele>608.0</ele><time>2026-04-11T13:12:25.446Z</time></trkpt><trkpt lat="45.0781483" lon="7.7710567"><ele>607.8333333333333</ele><time>2026-04-11T13:12:27.446Z</time></trkpt><trkpt lat="45.078135" lon="7.77115"><ele>607.6666666666666</ele><time>2026-04-11T13:12:29.446Z</time></trkpt><trkpt lat="45.07815" lon="7.7712933"><ele>607.5</ele><time>2026-04-11T13:12:37.446Z</time></trkpt><trkpt lat="45.0781983" lon="7.7713583"><ele>607.3333333333334</ele><time>2026-04-11T13:12:39.446Z</time></trkpt><trkpt lat="45.078285" lon="7.771425"><ele>607.1666666666667</ele><time>2026-04-11T13:12:42.446Z</time></trkpt><trkpt lat="45.0783567" lon="7.7715217"><ele>607.0</ele><time>2026-04-11T13:12:44.446Z</time></trkpt><trkpt lat="45.0783617" lon="7.771705"><ele>608.3333333333334</ele><time>2026-04-11T13:12:46.446Z</time></trkpt><trkpt lat="45.0783417" lon="7.7718183"><ele>609.6666666666667</ele><time>2026-04-11T13:12:47.446Z</time></trkpt><trkpt lat="45.0783333" lon="7.771925"><ele>611.0</ele><time>2026-04-11T13:12:48.446Z</time></trkpt><trkpt lat="45.0783367" lon="7.7720367"><ele>612.3333333333334</ele><time>2026-04-11T13:12:49.446Z</time></trkpt><trkpt lat="45.0783417" lon="7.7721433"><ele>613.6666666666666</ele><time>2026-04-11T13:12:50.446Z</time></trkpt><trkpt lat="45.078345" lon="7.772245"><ele>615.0</ele><time>2026-04-11T13:12:51.446Z</time></trkpt><trkpt lat="45.0783433" lon="7.7723533"><ele>615.1666666666666</ele><time>2026-04-11T13:12:52.446Z</time></trkpt><trkpt lat="45.0783333" lon="7.7724567"><ele>615.3333333333334</ele><time>2026-04-11T13:12:53.447Z</time></trkpt><trkpt lat="45.078315" lon="7.772565"><ele>615.5</ele><time>2026-04-11T13:12:54.446Z</time></trkpt><trkpt lat="45.0782917" lon="7.772665"><ele>615.6666666666667</ele><time>2026-04-11T13:12:55.447Z</time></trkpt><trkpt lat="45.078265" lon="7.7727683"><ele>615.8333333333334</ele><time>2026-04-11T13:12:56.446Z</time></trkpt><trkpt lat="45.07824" lon="7.772865"><ele>616.0</ele><time>2026-04-11T13:12:57.446Z</time></trkpt><trkpt lat="45.078205" lon="7.7729583"><ele>616.6</ele><time>2026-04-11T13:12:58.446Z</time></trkpt><trkpt lat="45.0781617" lon="7.7730417"><ele>617.2</ele><time>2026-04-11T13:12:59.446Z</time></trkpt><trkpt lat="45.078115" lon="7.773115"><ele>617.8</ele><time>2026-04-11T13:13:00.447Z</time></trkpt><trkpt lat="45.0780267" lon="7.7732267"><ele>618.4</ele><time>2026-04-11T13:13:02.446Z</time></trkpt><trkpt lat="45.077925" lon="7.7733167"><ele>619.0</ele><time>2026-04-11T13:13:04.447Z</time></trkpt><trkpt lat="45.0778367" lon="7.7734083"><ele>619.0</ele><time>2026-04-11T13:13:06.446Z</time></trkpt><trkpt lat="45.0777683" lon="7.77349"><ele>619.0</ele><time>2026-04-11T13:13:08.446Z</time></trkpt><trkpt lat="45.0777167" lon="7.7735683"><ele>619.0</ele><time>2026-04-11T13:13:10.446Z</time></trkpt><trkpt lat="45.07765" lon="7.77364"><ele>619.0</ele><time>2026-04-11T13:13:13.447Z</time></trkpt><trkpt lat="45.0775967" lon="7.7737067"><ele>619.0</ele><time>2026-04-11T13:13:16.446Z</time></trkpt><trkpt lat="45.07755" lon="7.773785"><ele>619.0</ele><time>2026-04-11T13:13:19.446Z</time></trkpt><trkpt lat="45.0774933" lon="7.7738517"><ele>622.0</ele><time>2026-04-11T13:13:22.446Z</time></trkpt><trkpt lat="45.0774183" lon="7.7739217"><ele>625.0</ele><time>2026-04-11T13:13:25.446Z</time></trkpt><trkpt lat="45.07734" lon="7.77399"><ele>628.0</ele><time>2026-04-11T13:13:28.446Z</time></trkpt><trkpt lat="45.0772833" lon="7.7740367"><ele>631.0</ele><time>2026-04-11T13:13:30.446Z</time></trkpt><trkpt lat="45.0772033" lon="7.7740583"><ele>634.0</ele><time>2026-04-11T13:13:33.447Z</time></trkpt><trkpt lat="45.0771183" lon="7.774055"><ele>637.0</ele><time>2026-04-11T13:13:36.446Z</time></trkpt><trkpt lat="45.0770333" lon="7.7740683"><ele>637.0</ele><time>2026-04-11T13:13:39.446Z</time></trkpt><trkpt lat="45.076965" lon="7.7740683"><ele>637.0</ele><time>2026-04-11T13:13:42.446Z</time></trkpt><trkpt lat="45.076875" lon="7.7740583"><ele>637.0</ele><time>2026-04-11T13:13:45.446Z</time></trkpt><trkpt lat="45.0768" lon="7.77404"><ele>637.0</ele><time>2026-04-11T13:13:49.446Z</time></trkpt><trkpt lat="45.076715" lon="7.7740283"><ele>637.0</ele><time>2026-04-11T13:13:52.446Z</time></trkpt><trkpt lat="45.076625" lon="7.77403"><ele>637.0</ele><time>2026-04-11T13:13:55.446Z</time></trkpt><trkpt lat="45.076545" lon="7.77402"><ele>638.5</ele><time>2026-04-11T13:13:58.446Z</time></trkpt><trkpt lat="45.076455" lon="7.7740117"><ele>640.0</ele><time>2026-04-11T13:14:01.446Z</time></trkpt><trkpt lat="45.0763883" lon="7.7739983"><ele>641.5</ele><time>2026-04-11T13:14:03.446Z</time></trkpt><trkpt lat="45.0763" lon="7.773995"><ele>643.0</ele><time>2026-04-11T13:14:06.446Z</time></trkpt><trkpt lat="45.0762233" lon="7.77398"><ele>644.5</ele><time>2026-04-11T13:14:09.446Z</time></trkpt><trkpt lat="45.0761483" lon="7.77396"><ele>646.0</ele><time>2026-04-11T13:14:11.446Z</time></trkpt><trkpt lat="45.0760717" lon="7.7739433"><ele>646.0000000000001</ele><time>2026-04-11T13:14:13.447Z</time></trkpt><trkpt lat="45.075995" lon="7.7739217"><ele>646.0</ele><time>2026-04-11T13:14:15.446Z</time></trkpt><trkpt lat="45.0759283" lon="7.77391"><ele>646.0</ele><time>2026-04-11T13:14:17.447Z</time></trkpt><trkpt lat="45.0758433" lon="7.773895"><ele>646.0</ele><time>2026-04-11T13:14:20.446Z</time></trkpt><trkpt lat="45.07578" lon="7.7738767"><ele>646.0</ele><time>2026-04-11T13:14:22.446Z</time></trkpt><trkpt lat="45.0757083" lon="7.7738717"><ele>646.0000000000001</ele><time>2026-04-11T13:14:24.446Z</time></trkpt><trkpt lat="45.0756367" lon="7.7738783"><ele>646.0</ele><time>2026-04-11T13:14:26.446Z</time></trkpt><trkpt lat="45.075565" lon="7.7738967"><ele>644.5</ele><time>2026-04-11T13:14:28.446Z</time></trkpt><trkpt lat="45.0755033" lon="7.77396"><ele>643.0</ele><time>2026-04-11T13:14:30.446Z</time></trkpt><trkpt lat="45.07545" lon="7.7740333"><ele>641.5</ele><time>2026-04-11T13:14:32.446Z</time></trkpt><trkpt lat="45.0754067" lon="7.774145"><ele>640.0</ele><time>2026-04-11T13:14:34.446Z</time></trkpt><trkpt lat="45.0753967" lon="7.7742783"><ele>638.5</ele><time>2026-04-11T13:14:36.446Z</time></trkpt><trkpt lat="45.0753833" lon="7.7743867"><ele>637.0</ele><time>2026-04-11T13:14:38.446Z</time></trkpt><trkpt lat="45.0753633" lon="7.77451"><ele>637.0</ele><time>2026-04-11T13:14:40.446Z</time></trkpt><trkpt lat="45.0753433" lon="7.7746467"><ele>637.0</ele><time>2026-04-11T13:14:42.446Z</time></trkpt><trkpt lat="45.075335" lon="7.77478"><ele>637.0</ele><time>2026-04-11T13:14:44.446Z</time></trkpt><trkpt lat="45.075315" lon="7.7748933"><ele>637.0</ele><time>2026-04-11T13:14:46.447Z</time></trkpt><trkpt lat="45.0752867" lon="7.774995"><ele>637.0</ele><time>2026-04-11T13:14:48.446Z</time></trkpt><trkpt lat="45.0752467" lon="7.7750933"><ele>637.0</ele><time>2026-04-11T13:14:50.446Z</time></trkpt><trkpt lat="45.0752067" lon="7.775185"><ele>637.1428571428571</ele><time>2026-04-11T13:14:52.446Z</time></trkpt><trkpt lat="45.075165" lon="7.7752783"><ele>637.2857142857142</ele><time>2026-04-11T13:14:54.446Z</time></trkpt><trkpt lat="45.0751167" lon="7.77536"><ele>637.4285714285714</ele><time>2026-04-11T13:14:56.446Z</time></trkpt><trkpt lat="45.0750717" lon="7.77544"><ele>637.5714285714286</ele><time>2026-04-11T13:14:58.446Z</time></trkpt><trkpt lat="45.0750133" lon="7.7755017"><ele>637.7142857142857</ele><time>2026-04-11T13:15:00.446Z</time></trkpt><trkpt lat="45.074965" lon="7.7755783"><ele>637.8571428571429</ele><time>2026-04-11T13:15:02.447Z</time></trkpt><trkpt lat="45.0749133" lon="7.7756417"><ele>638.0</ele><time>2026-04-11T13:15:04.446Z</time></trkpt><trkpt lat="45.0748383" lon="7.7756983"><ele>638.0</ele><time>2026-04-11T13:15:06.446Z</time></trkpt><trkpt lat="45.074775" lon="7.77576"><ele>638.0</ele><time>2026-04-11T13:15:08.446Z</time></trkpt><trkpt lat="45.0747183" lon="7.7758183"><ele>638.0</ele><time>2026-04-11T13:15:10.446Z</time></trkpt><trkpt lat="45.0746583" lon="7.7758733"><ele>638.0</ele><time>2026-04-11T13:15:12.446Z</time></trkpt><trkpt lat="45.074595" lon="7.7759183"><ele>638.0</ele><time>2026-04-11T13:15:14.446Z</time></trkpt><trkpt lat="45.074525" lon="7.7759617"><ele>638.0</ele><time>2026-04-11T13:15:16.446Z</time></trkpt><trkpt lat="45.0744517" lon="7.776005"><ele>638.0</ele><time>2026-04-11T13:15:18.446Z</time></trkpt><trkpt lat="45.07439" lon="7.7760583"><ele>640.5</ele><time>2026-04-11T13:15:20.446Z</time></trkpt><trkpt lat="45.074305" lon="7.7761333"><ele>643.0</ele><time>2026-04-11T13:15:23.447Z</time></trkpt><trkpt lat="45.0742583" lon="7.7762167"><ele>645.5</ele><time>2026-04-11T13:15:25.446Z</time></trkpt><trkpt lat="45.07421" lon="7.7763033"><ele>648.0</ele><time>2026-04-11T13:15:27.446Z</time></trkpt><trkpt lat="45.0741733" lon="7.7764033"><ele>650.5</ele><time>2026-04-11T13:15:29.446Z</time></trkpt><trkpt lat="45.0741233" lon="7.77652"><ele>653.0</ele><time>2026-04-11T13:15:31.446Z</time></trkpt><trkpt lat="45.07409" lon="7.77663"><ele>648.6666666666666</ele><time>2026-04-11T13:15:33.446Z</time></trkpt><trkpt lat="45.074065" lon="7.7767367"><ele>644.3333333333333</ele><time>2026-04-11T13:15:35.446Z</time></trkpt><trkpt lat="45.07405" lon="7.7768583"><ele>640.0</ele><time>2026-04-11T13:15:37.446Z</time></trkpt><trkpt lat="45.0740417" lon="7.77698"><ele>635.6666666666666</ele><time>2026-04-11T13:15:39.446Z</time></trkpt><trkpt lat="45.0740183" lon="7.7770833"><ele>631.3333333333334</ele><time>2026-04-11T13:15:41.446Z</time></trkpt><trkpt lat="45.073995" lon="7.7771867"><ele>627.0</ele><time>2026-04-11T13:15:43.446Z</time></trkpt><trkpt lat="45.0739683" lon="7.7773183"><ele>627.0</ele><time>2026-04-11T13:15:46.446Z</time></trkpt><trkpt lat="45.0739483" lon="7.7774183"><ele>627.0</ele><time>2026-04-11T13:15:48.447Z</time></trkpt><trkpt lat="45.0739233" lon="7.7775233"><ele>627.0</ele><time>2026-04-11T13:15:50.446Z</time></trkpt><trkpt lat="45.0739017" lon="7.77763"><ele>627.0</ele><time>2026-04-11T13:15:52.446Z</time></trkpt><trkpt lat="45.0738817" lon="7.7777367"><ele>627.0</ele><time>2026-04-11T13:15:54.446Z</time></trkpt><trkpt lat="45.0738683" lon="7.77786"><ele>627.0</ele><time>2026-04-11T13:15:56.446Z</time></trkpt><trkpt lat="45.07385" lon="7.777985"><ele>627.8000000000001</ele><time>2026-04-11T13:15:58.446Z</time></trkpt><trkpt lat="45.0738583" lon="7.778125"><ele>628.6</ele><time>2026-04-11T13:16:00.446Z</time></trkpt><trkpt lat="45.0738783" lon="7.778265"><ele>629.4000000000001</ele><time>2026-04-11T13:16:02.446Z</time></trkpt><trkpt lat="45.07391" lon="7.7784067"><ele>630.2</ele><time>2026-04-11T13:16:04.446Z</time></trkpt><trkpt lat="45.0739483" lon="7.7785517"><ele>631.0</ele><time>2026-04-11T13:16:06.446Z</time></trkpt><trkpt lat="45.07398" lon="7.7787"><ele>631.0</ele><time>2026-04-11T13:16:08.446Z</time></trkpt><trkpt lat="45.0740117" lon="7.7788617"><ele>631.0</ele><time>2026-04-11T13:16:10.446Z</time></trkpt><trkpt lat="45.0740267" lon="7.7789483"><ele>631.0</ele><time>2026-04-11T13:16:11.446Z</time></trkpt><trkpt lat="45.07405" lon="7.7790317"><ele>631.0</ele><time>2026-04-11T13:16:12.446Z</time></trkpt><trkpt lat="45.0740933" lon="7.7791933"><ele>631.0</ele><time>2026-04-11T13:16:14.446Z</time></trkpt><trkpt lat="45.0741017" lon="7.77937"><ele>631.4285714285714</ele><time>2026-04-11T13:16:16.446Z</time></trkpt><trkpt lat="45.0740933" lon="7.779465"><ele>631.8571428571428</ele><time>2026-04-11T13:16:17.446Z</time></trkpt><trkpt lat="45.0740817" lon="7.7795583"><ele>632.2857142857142</ele><time>2026-04-11T13:16:18.446Z</time></trkpt><trkpt lat="45.0740767" lon="7.7796533"><ele>632.7142857142858</ele><time>2026-04-11T13:16:19.447Z</time></trkpt><trkpt lat="45.0740683" lon="7.7797467"><ele>633.1428571428571</ele><time>2026-04-11T13:16:20.446Z</time></trkpt><trkpt lat="45.074055" lon="7.7798417"><ele>633.5714285714286</ele><time>2026-04-11T13:16:21.447Z</time></trkpt><trkpt lat="45.0740433" lon="7.77994"><ele>634.0</ele><time>2026-04-11T13:16:22.446Z</time></trkpt><trkpt lat="45.074025" lon="7.7800383"><ele>634.0</ele><time>2026-04-11T13:16:23.446Z</time></trkpt><trkpt lat="45.0740117" lon="7.7801367"><ele>634.0</ele><time>2026-04-11T13:16:24.446Z</time></trkpt><trkpt lat="45.0739967" lon="7.7802383"><ele>634.0</ele><time>2026-04-11T13:16:25.446Z</time></trkpt><trkpt lat="45.0739733" lon="7.7803383"><ele>634.0</ele><time>2026-04-11T13:16:26.446Z</time></trkpt><trkpt lat="45.073955" lon="7.7804333"><ele>634.0</ele><time>2026-04-11T13:16:27.446Z</time></trkpt><trkpt lat="45.07394" lon="7.7805317"><ele>634.0</ele><time>2026-04-11T13:16:28.446Z</time></trkpt><trkpt lat="45.0739217" lon="7.7806233"><ele>634.0</ele><time>2026-04-11T13:16:29.447Z</time></trkpt><trkpt lat="45.0738967" lon="7.7807083"><ele>634.5714285714286</ele><time>2026-04-11T13:16:30.446Z</time></trkpt><trkpt lat="45.07387" lon="7.780795"><ele>635.1428571428571</ele><time>2026-04-11T13:16:31.446Z</time></trkpt><trkpt lat="45.0738517" lon="7.7808917"><ele>635.7142857142858</ele><time>2026-04-11T13:16:32.446Z</time></trkpt><trkpt lat="45.0738317" lon="7.7809817"><ele>636.2857142857142</ele><time>2026-04-11T13:16:33.446Z</time></trkpt><trkpt lat="45.07382" lon="7.7810833"><ele>636.8571428571428</ele><time>2026-04-11T13:16:34.446Z</time></trkpt><trkpt lat="45.0738133" lon="7.7811783"><ele>637.4285714285714</ele><time>2026-04-11T13:16:35.446Z</time></trkpt><trkpt lat="45.0738033" lon="7.781275"><ele>638.0</ele><time>2026-04-11T13:16:36.446Z</time></trkpt><trkpt lat="45.0737933" lon="7.781365"><ele>638.8</ele><time>2026-04-11T13:16:37.446Z</time></trkpt><trkpt lat="45.0737717" lon="7.7815417"><ele>639.5999999999999</ele><time>2026-04-11T13:16:39.446Z</time></trkpt><trkpt lat="45.073745" lon="7.7817017"><ele>640.4000000000001</ele><time>2026-04-11T13:16:41.446Z</time></trkpt><trkpt lat="45.0737317" lon="7.7818217"><ele>641.2</ele><time>2026-04-11T13:16:43.446Z</time></trkpt><trkpt lat="45.07375" lon="7.7819083"><ele>642.0</ele><time>2026-04-11T13:16:46.446Z</time></trkpt><trkpt lat="45.0738167" lon="7.7818717"><ele>643.4000000000001</ele><time>2026-04-11T13:16:49.446Z</time></trkpt><trkpt lat="45.0738767" lon="7.7819433"><ele>644.8000000000001</ele><time>2026-04-11T13:16:53.446Z</time></trkpt><trkpt lat="45.07392" lon="7.782065"><ele>646.2</ele><time>2026-04-11T13:16:56.446Z</time></trkpt><trkpt lat="45.0739617" lon="7.7821667"><ele>647.6</ele><time>2026-04-11T13:16:58.446Z</time></trkpt><trkpt lat="45.0740017" lon="7.7823183"><ele>649.0</ele><time>2026-04-11T13:17:00.446Z</time></trkpt><trkpt lat="45.0740183" lon="7.7824717"><ele>649.0</ele><time>2026-04-11T13:17:02.446Z</time></trkpt><trkpt lat="45.0740267" lon="7.78264"><ele>649.0</ele><time>2026-04-11T13:17:04.447Z</time></trkpt><trkpt lat="45.07402" lon="7.78273"><ele>649.0</ele><time>2026-04-11T13:17:05.446Z</time></trkpt><trkpt lat="45.074015" lon="7.78282"><ele>649.0</ele><time>2026-04-11T13:17:06.446Z</time></trkpt><trkpt lat="45.0740083" lon="7.782915"><ele>649.0</ele><time>2026-04-11T13:17:07.446Z</time></trkpt><trkpt lat="45.0740033" lon="7.783015"><ele>649.0</ele><time>2026-04-11T13:17:08.446Z</time></trkpt><trkpt lat="45.0740033" lon="7.783125"><ele>649.5714285714286</ele><time>2026-04-11T13:17:09.446Z</time></trkpt><trkpt lat="45.0740117" lon="7.78323"><ele>650.1428571428571</ele><time>2026-04-11T13:17:10.446Z</time></trkpt><trkpt lat="45.07402" lon="7.783345"><ele>650.7142857142858</ele><time>2026-04-11T13:17:11.446Z</time></trkpt><trkpt lat="45.0740267" lon="7.7834567"><ele>651.2857142857142</ele><time>2026-04-11T13:17:12.446Z</time></trkpt><trkpt lat="45.074035" lon="7.7835583"><ele>651.8571428571429</ele><time>2026-04-11T13:17:13.446Z</time></trkpt><trkpt lat="45.07405" lon="7.7836533"><ele>652.4285714285714</ele><time>2026-04-11T13:17:14.446Z</time></trkpt><trkpt lat="45.07406" lon="7.78375"><ele>653.0</ele><time>2026-04-11T13:17:15.446Z</time></trkpt><trkpt lat="45.0740933" lon="7.7839083"><ele>652.5999999999999</ele><time>2026-04-11T13:17:17.446Z</time></trkpt><trkpt lat="45.0741067" lon="7.7840683"><ele>652.1999999999999</ele><time>2026-04-11T13:17:19.446Z</time></trkpt><trkpt lat="45.0741033" lon="7.78423"><ele>651.8</ele><time>2026-04-11T13:17:21.446Z</time></trkpt><trkpt lat="45.0740783" lon="7.78434"><ele>651.4</ele><time>2026-04-11T13:17:23.446Z</time></trkpt><trkpt lat="45.074055" lon="7.78443"><ele>651.0</ele><time>2026-04-11T13:17:25.446Z</time></trkpt><trkpt lat="45.0740217" lon="7.784555"><ele>651.0</ele><time>2026-04-11T13:17:27.446Z</time></trkpt><trkpt lat="45.07398" lon="7.7847333"><ele>651.0</ele><time>2026-04-11T13:17:29.446Z</time></trkpt><trkpt lat="45.0739467" lon="7.7848283"><ele>651.0</ele><time>2026-04-11T13:17:30.446Z</time></trkpt><trkpt lat="45.07392" lon="7.7849367"><ele>651.0</ele><time>2026-04-11T13:17:31.446Z</time></trkpt><trkpt lat="45.0738933" lon="7.7850217"><ele>651.0</ele><time>2026-04-11T13:17:32.446Z</time></trkpt><trkpt lat="45.07383" lon="7.7851517"><ele>648.4285714285714</ele><time>2026-04-11T13:17:34.447Z</time></trkpt><trkpt lat="45.07378" lon="7.7852217"><ele>645.8571428571429</ele><time>2026-04-11T13:17:35.446Z</time></trkpt><trkpt lat="45.0737367" lon="7.7852917"><ele>643.2857142857142</ele><time>2026-04-11T13:17:36.446Z</time></trkpt><trkpt lat="45.073685" lon="7.785365"><ele>640.7142857142858</ele><time>2026-04-11T13:17:37.446Z</time></trkpt><trkpt lat="45.0736267" lon="7.785445"><ele>638.1428571428571</ele><time>2026-04-11T13:17:38.446Z</time></trkpt><trkpt lat="45.07357" lon="7.7855083"><ele>635.5714285714286</ele><time>2026-04-11T13:17:39.446Z</time></trkpt><trkpt lat="45.073515" lon="7.7855767"><ele>633.0</ele><time>2026-04-11T13:17:40.446Z</time></trkpt><trkpt lat="45.0734667" lon="7.7856533"><ele>633.0</ele><time>2026-04-11T13:17:41.446Z</time></trkpt><trkpt lat="45.073415" lon="7.7857267"><ele>633.0</ele><time>2026-04-11T13:17:42.446Z</time></trkpt><trkpt lat="45.0733617" lon="7.7858017"><ele>633.0</ele><time>2026-04-11T13:17:43.446Z</time></trkpt><trkpt lat="45.073315" lon="7.785865"><ele>633.0</ele><time>2026-04-11T13:17:44.446Z</time></trkpt><trkpt lat="45.0732617" lon="7.7859283"><ele>633.0</ele><time>2026-04-11T13:17:45.446Z</time></trkpt><trkpt lat="45.0732067" lon="7.785995"><ele>633.0</ele><time>2026-04-11T13:17:46.446Z</time></trkpt><trkpt lat="45.07315" lon="7.7860633"><ele>633.0</ele><time>2026-04-11T13:17:47.446Z</time></trkpt><trkpt lat="45.0731" lon="7.786135"><ele>630.8333333333334</ele><time>2026-04-11T13:17:48.446Z</time></trkpt><trkpt lat="45.0730533" lon="7.7862133"><ele>628.6666666666666</ele><time>2026-04-11T13:17:49.446Z</time></trkpt><trkpt lat="45.0730033" lon="7.786285"><ele>626.5</ele><time>2026-04-11T13:17:50.446Z</time></trkpt><trkpt lat="45.0729483" lon="7.786355"><ele>624.3333333333333</ele><time>2026-04-11T13:17:51.446Z</time></trkpt><trkpt lat="45.0728883" lon="7.78642"><ele>622.1666666666666</ele><time>2026-04-11T13:17:52.446Z</time></trkpt><trkpt lat="45.07283" lon="7.78649"><ele>620.0</ele><time>2026-04-11T13:17:53.446Z</time></trkpt><trkpt lat="45.07276" lon="7.7865583"><ele>620.0</ele><time>2026-04-11T13:17:54.446Z</time></trkpt><trkpt lat="45.0726967" lon="7.786625"><ele>620.0</ele><time>2026-04-11T13:17:55.446Z</time></trkpt><trkpt lat="45.072605" lon="7.786705"><ele>620.0</ele><time>2026-04-11T13:17:57.446Z</time></trkpt><trkpt lat="45.07253" lon="7.78672"><ele>620.0</ele><time>2026-04-11T13:18:00.446Z</time></trkpt><trkpt lat="45.072435" lon="7.7866867"><ele>620.0</ele><time>2026-04-11T13:18:03.446Z</time></trkpt><trkpt lat="45.0723467" lon="7.7866783"><ele>620.0</ele><time>2026-04-11T13:18:06.446Z</time></trkpt><trkpt lat="45.072265" lon="7.7867"><ele>616.5</ele><time>2026-04-11T13:18:08.445Z</time></trkpt><trkpt lat="45.0721533" lon="7.7867483"><ele>613.0</ele><time>2026-04-11T13:18:10.445Z</time></trkpt><trkpt lat="45.0720933" lon="7.7867883"><ele>609.5</ele><time>2026-04-11T13:18:11.445Z</time></trkpt><trkpt lat="45.0720283" lon="7.7868317"><ele>606.0</ele><time>2026-04-11T13:18:12.445Z</time></trkpt><trkpt lat="45.071955" lon="7.786885"><ele>602.5</ele><time>2026-04-11T13:18:13.445Z</time></trkpt><trkpt lat="45.07187" lon="7.7869617"><ele>599.0</ele><time>2026-04-11T13:18:14.445Z</time></trkpt><trkpt lat="45.071825" lon="7.7870517"><ele>598.1666666666666</ele><time>2026-04-11T13:18:15.445Z</time></trkpt><trkpt lat="45.07181" lon="7.7871533"><ele>597.3333333333333</ele><time>2026-04-11T13:18:16.445Z</time></trkpt><trkpt lat="45.0718133" lon="7.78727"><ele>596.5</ele><time>2026-04-11T13:18:17.445Z</time></trkpt><trkpt lat="45.0718283" lon="7.787385"><ele>595.6666666666666</ele><time>2026-04-11T13:18:18.445Z</time></trkpt><trkpt lat="45.071825" lon="7.7874917"><ele>594.8333333333334</ele><time>2026-04-11T13:18:19.445Z</time></trkpt><trkpt lat="45.0717983" lon="7.7875833"><ele>594.0</ele><time>2026-04-11T13:18:20.445Z</time></trkpt><trkpt lat="45.071745" lon="7.7876583"><ele>594.0</ele><time>2026-04-11T13:18:21.445Z</time></trkpt><trkpt lat="45.071675" lon="7.787725"><ele>594.0</ele><time>2026-04-11T13:18:22.446Z</time></trkpt><trkpt lat="45.07161" lon="7.7877967"><ele>594.0</ele><time>2026-04-11T13:18:23.445Z</time></trkpt><trkpt lat="45.0715483" lon="7.787905"><ele>594.0</ele><time>2026-04-11T13:18:24.445Z</time></trkpt><trkpt lat="45.0714983" lon="7.7880183"><ele>594.0</ele><time>2026-04-11T13:18:25.445Z</time></trkpt><trkpt lat="45.0714467" lon="7.7881417"><ele>590.4</ele><time>2026-04-11T13:18:26.445Z</time></trkpt><trkpt lat="45.0713933" lon="7.7882767"><ele>586.8</ele><time>2026-04-11T13:18:27.445Z</time></trkpt><trkpt lat="45.0713433" lon="7.7884133"><ele>583.2</ele><time>2026-04-11T13:18:28.445Z</time></trkpt><trkpt lat="45.0712967" lon="7.7885533"><ele>579.6</ele><time>2026-04-11T13:18:29.445Z</time></trkpt><trkpt lat="45.07124" lon="7.7886883"><ele>576.0</ele><time>2026-04-11T13:18:30.445Z</time></trkpt><trkpt lat="45.0711817" lon="7.7888267"><ele>576.0</ele><time>2026-04-11T13:18:31.445Z</time></trkpt><trkpt lat="45.0711267" lon="7.7889533"><ele>576.0</ele><time>2026-04-11T13:18:32.445Z</time></trkpt><trkpt lat="45.0710817" lon="7.7890633"><ele>576.0</ele><time>2026-04-11T13:18:33.445Z</time></trkpt><trkpt lat="45.071045" lon="7.789165"><ele>576.0</ele><time>2026-04-11T13:18:34.445Z</time></trkpt><trkpt lat="45.0710183" lon="7.7892633"><ele>576.0</ele><time>2026-04-11T13:18:35.445Z</time></trkpt><trkpt lat="45.07101" lon="7.7893617"><ele>576.0</ele><time>2026-04-11T13:18:36.445Z</time></trkpt><trkpt lat="45.0710317" lon="7.789455"><ele>575.5</ele><time>2026-04-11T13:18:37.445Z</time></trkpt><trkpt lat="45.0711133" lon="7.789595"><ele>575.0</ele><time>2026-04-11T13:18:39.445Z</time></trkpt><trkpt lat="45.0711583" lon="7.7896717"><ele>574.5</ele><time>2026-04-11T13:18:40.445Z</time></trkpt><trkpt lat="45.0711967" lon="7.7897567"><ele>574.0</ele><time>2026-04-11T13:18:41.445Z</time></trkpt><trkpt lat="45.0712267" lon="7.7898433"><ele>573.5</ele><time>2026-04-11T13:18:42.445Z</time></trkpt><trkpt lat="45.07124" lon="7.7899417"><ele>573.0</ele><time>2026-04-11T13:18:43.445Z</time></trkpt><trkpt lat="45.071235" lon="7.790035"><ele>573.0</ele><time>2026-04-11T13:18:44.445Z</time></trkpt><trkpt lat="45.07122" lon="7.7901317"><ele>573.0</ele><time>2026-04-11T13:18:45.446Z</time></trkpt><trkpt lat="45.0712" lon="7.790235"><ele>573.0</ele><time>2026-04-11T13:18:46.445Z</time></trkpt><trkpt lat="45.0711717" lon="7.7903433"><ele>573.0</ele><time>2026-04-11T13:18:47.446Z</time></trkpt><trkpt lat="45.0711417" lon="7.7904583"><ele>573.0</ele><time>2026-04-11T13:18:48.445Z</time></trkpt><trkpt lat="45.0711167" lon="7.7905817"><ele>573.0</ele><time>2026-04-11T13:18:49.445Z</time></trkpt><trkpt lat="45.0710883" lon="7.7907017"><ele>573.0</ele><time>2026-04-11T13:18:50.445Z</time></trkpt><trkpt lat="45.071045" lon="7.7908233"><ele>573.0</ele><time>2026-04-11T13:18:51.445Z</time></trkpt><trkpt lat="45.0710067" lon="7.7909267"><ele>573.0</ele><time>2026-04-11T13:18:52.445Z</time></trkpt><trkpt lat="45.0709533" lon="7.7910033"><ele>573.0</ele><time>2026-04-11T13:18:53.445Z</time></trkpt><trkpt lat="45.0709083" lon="7.7910833"><ele>573.0</ele><time>2026-04-11T13:18:54.445Z</time></trkpt><trkpt lat="45.070875" lon="7.791175"><ele>573.0</ele><time>2026-04-11T13:18:55.445Z</time></trkpt><trkpt lat="45.0708633" lon="7.791265"><ele>573.1999999999999</ele><time>2026-04-11T13:18:56.446Z</time></trkpt><trkpt lat="45.07092" lon="7.7913633"><ele>573.4</ele><time>2026-04-11T13:18:57.445Z</time></trkpt><trkpt lat="45.0709867" lon="7.7914333"><ele>573.5999999999999</ele><time>2026-04-11T13:18:58.445Z</time></trkpt><trkpt lat="45.0710667" lon="7.7914867"><ele>573.8</ele><time>2026-04-11T13:18:59.445Z</time></trkpt><trkpt lat="45.0711483" lon="7.79154"><ele>574.0</ele><time>2026-04-11T13:19:00.445Z</time></trkpt><trkpt lat="45.0712483" lon="7.7915833"><ele>574.0</ele><time>2026-04-11T13:19:01.445Z</time></trkpt><trkpt lat="45.0713517" lon="7.7916217"><ele>574.0</ele><time>2026-04-11T13:19:02.445Z</time></trkpt><trkpt lat="45.0714567" lon="7.7916533"><ele>574.0</ele><time>2026-04-11T13:19:03.445Z</time></trkpt><trkpt lat="45.0715633" lon="7.791695"><ele>574.0</ele><time>2026-04-11T13:19:04.445Z</time></trkpt><trkpt lat="45.0716567" lon="7.7917083"><ele>574.0</ele><time>2026-04-11T13:19:05.445Z</time></trkpt><trkpt lat="45.071755" lon="7.7916917"><ele>572.4</ele><time>2026-04-11T13:19:06.445Z</time></trkpt><trkpt lat="45.07184" lon="7.7916217"><ele>570.8</ele><time>2026-04-11T13:19:07.445Z</time></trkpt><trkpt lat="45.0719283" lon="7.791535"><ele>569.2</ele><time>2026-04-11T13:19:08.445Z</time></trkpt><trkpt lat="45.0720217" lon="7.79142"><ele>567.6</ele><time>2026-04-11T13:19:09.445Z</time></trkpt><trkpt lat="45.0721167" lon="7.7913167"><ele>566.0</ele><time>2026-04-11T13:19:10.445Z</time></trkpt><trkpt lat="45.0722283" lon="7.791235"><ele>566.0</ele><time>2026-04-11T13:19:11.445Z</time></trkpt><trkpt lat="45.0723517" lon="7.7911683"><ele>566.0</ele><time>2026-04-11T13:19:12.445Z</time></trkpt><trkpt lat="45.07248" lon="7.791135"><ele>566.0</ele><time>2026-04-11T13:19:13.445Z</time></trkpt><trkpt lat="45.0725967" lon="7.7911133"><ele>566.0</ele><time>2026-04-11T13:19:14.446Z</time></trkpt><trkpt lat="45.0727067" lon="7.7910983"><ele>563.4</ele><time>2026-04-11T13:19:15.445Z</time></trkpt><trkpt lat="45.0728067" lon="7.7911017"><ele>560.8</ele><time>2026-04-11T13:19:16.446Z</time></trkpt><trkpt lat="45.0728917" lon="7.7910933"><ele>558.1999999999999</ele><time>2026-04-11T13:19:17.445Z</time></trkpt><trkpt lat="45.0729617" lon="7.7910967"><ele>555.6</ele><time>2026-04-11T13:19:18.445Z</time></trkpt><trkpt lat="45.0730783" lon="7.7911083"><ele>553.0</ele><time>2026-04-11T13:19:20.445Z</time></trkpt><trkpt lat="45.0731917" lon="7.791115"><ele>553.0</ele><time>2026-04-11T13:19:22.445Z</time></trkpt><trkpt lat="45.073285" lon="7.7910983"><ele>553.0</ele><time>2026-04-11T13:19:24.445Z</time></trkpt><trkpt lat="45.07335" lon="7.791135"><ele>553.0</ele><time>2026-04-11T13:19:26.445Z</time></trkpt><trkpt lat="45.07339" lon="7.7912417"><ele>553.0</ele><time>2026-04-11T13:19:28.445Z</time></trkpt><trkpt lat="45.07342" lon="7.79139"><ele>553.0</ele><time>2026-04-11T13:19:30.445Z</time></trkpt><trkpt lat="45.0734517" lon="7.7915633"><ele>553.0</ele><time>2026-04-11T13:19:32.445Z</time></trkpt><trkpt lat="45.0734667" lon="7.7916567"><ele>553.0</ele><time>2026-04-11T13:19:33.445Z</time></trkpt><trkpt lat="45.07347" lon="7.7917567"><ele>553.0</ele><time>2026-04-11T13:19:34.446Z</time></trkpt><trkpt lat="45.0734733" lon="7.791865"><ele>553.0</ele><time>2026-04-11T13:19:35.445Z</time></trkpt><trkpt lat="45.0734817" lon="7.79199"><ele>553.0</ele><time>2026-04-11T13:19:36.445Z</time></trkpt><trkpt lat="45.0734867" lon="7.7921067"><ele>553.0</ele><time>2026-04-11T13:19:37.446Z</time></trkpt><trkpt lat="45.07348" lon="7.792225"><ele>552.8333333333334</ele><time>2026-04-11T13:19:38.445Z</time></trkpt><trkpt lat="45.07348" lon="7.792345"><ele>552.6666666666667</ele><time>2026-04-11T13:19:39.445Z</time></trkpt><trkpt lat="45.07348" lon="7.7924683"><ele>552.5</ele><time>2026-04-11T13:19:40.445Z</time></trkpt><trkpt lat="45.07348" lon="7.79259"><ele>552.3333333333334</ele><time>2026-04-11T13:19:41.445Z</time></trkpt><trkpt lat="45.073485" lon="7.7927167"><ele>552.1666666666666</ele><time>2026-04-11T13:19:42.445Z</time></trkpt><trkpt lat="45.0734917" lon="7.792845"><ele>552.0</ele><time>2026-04-11T13:19:43.445Z</time></trkpt><trkpt lat="45.0735" lon="7.7929733"><ele>552.0</ele><time>2026-04-11T13:19:44.445Z</time></trkpt><trkpt lat="45.0735017" lon="7.793085"><ele>552.0</ele><time>2026-04-11T13:19:45.445Z</time></trkpt><trkpt lat="45.07351" lon="7.79319"><ele>552.0</ele><time>2026-04-11T13:19:46.445Z</time></trkpt><trkpt lat="45.0735167" lon="7.7932917"><ele>552.0</ele><time>2026-04-11T13:19:47.445Z</time></trkpt><trkpt lat="45.0735217" lon="7.7933967"><ele>552.0</ele><time>2026-04-11T13:19:48.445Z</time></trkpt><trkpt lat="45.073535" lon="7.79349"><ele>552.0</ele><time>2026-04-11T13:19:49.445Z</time></trkpt><trkpt lat="45.0735533" lon="7.793585"><ele>552.0</ele><time>2026-04-11T13:19:50.445Z</time></trkpt><trkpt lat="45.0735783" lon="7.79368"><ele>552.8571428571429</ele><time>2026-04-11T13:19:51.445Z</time></trkpt><trkpt lat="45.073615" lon="7.7937617"><ele>553.7142857142858</ele><time>2026-04-11T13:19:52.445Z</time></trkpt><trkpt lat="45.07366" lon="7.7938467"><ele>554.5714285714286</ele><time>2026-04-11T13:19:53.445Z</time></trkpt><trkpt lat="45.0737033" lon="7.7939283"><ele>555.4285714285714</ele><time>2026-04-11T13:19:54.445Z</time></trkpt><trkpt lat="45.0737383" lon="7.79401"><ele>556.2857142857142</ele><time>2026-04-11T13:19:55.445Z</time></trkpt><trkpt lat="45.0737833" lon="7.794075"><ele>557.1428571428571</ele><time>2026-04-11T13:19:56.445Z</time></trkpt><trkpt lat="45.0738283" lon="7.7941433"><ele>558.0</ele><time>2026-04-11T13:19:57.445Z</time></trkpt><trkpt lat="45.0739033" lon="7.79426"><ele>558.8</ele><time>2026-04-11T13:19:59.445Z</time></trkpt><trkpt lat="45.0739833" lon="7.794375"><ele>559.5999999999999</ele><time>2026-04-11T13:20:01.445Z</time></trkpt><trkpt lat="45.0740767" lon="7.794485"><ele>560.4000000000001</ele><time>2026-04-11T13:20:03.445Z</time></trkpt><trkpt lat="45.0741283" lon="7.79455"><ele>561.2</ele><time>2026-04-11T13:20:04.445Z</time></trkpt><trkpt lat="45.074205" lon="7.794675"><ele>562.0</ele><time>2026-04-11T13:20:06.445Z</time></trkpt><trkpt lat="45.0742533" lon="7.7948"><ele>563.0</ele><time>2026-04-11T13:20:08.445Z</time></trkpt><trkpt lat="45.07429" lon="7.7949483"><ele>564.0</ele><time>2026-04-11T13:20:10.445Z</time></trkpt><trkpt lat="45.07431" lon="7.7951117"><ele>565.0</ele><time>2026-04-11T13:20:12.445Z</time></trkpt><trkpt lat="45.0743133" lon="7.79528"><ele>566.0</ele><time>2026-04-11T13:20:14.445Z</time></trkpt><trkpt lat="45.074305" lon="7.7954467"><ele>566.2</ele><time>2026-04-11T13:20:16.445Z</time></trkpt><trkpt lat="45.0743083" lon="7.7955983"><ele>566.4000000000001</ele><time>2026-04-11T13:20:18.445Z</time></trkpt><trkpt lat="45.0743067" lon="7.7957283"><ele>566.6</ele><time>2026-04-11T13:20:20.446Z</time></trkpt><trkpt lat="45.0743083" lon="7.795855"><ele>566.8000000000001</ele><time>2026-04-11T13:20:22.445Z</time></trkpt><trkpt lat="45.074325" lon="7.795975"><ele>567.0</ele><time>2026-04-11T13:20:24.445Z</time></trkpt><trkpt lat="45.074335" lon="7.796085"><ele>566.0</ele><time>2026-04-11T13:20:26.445Z</time></trkpt><trkpt lat="45.07439" lon="7.7961583"><ele>565.0</ele><time>2026-04-11T13:20:29.445Z</time></trkpt><trkpt lat="45.0744467" lon="7.7962033"><ele>564.0</ele><time>2026-04-11T13:20:31.445Z</time></trkpt><trkpt lat="45.0745067" lon="7.7962517"><ele>563.0</ele><time>2026-04-11T13:20:33.445Z</time></trkpt><trkpt lat="45.07457" lon="7.7962983"><ele>562.0</ele><time>2026-04-11T13:20:35.445Z</time></trkpt><trkpt lat="45.0746467" lon="7.7963533"><ele>561.0</ele><time>2026-04-11T13:20:37.445Z</time></trkpt><trkpt lat="45.074735" lon="7.7964183"><ele>561.0</ele><time>2026-04-11T13:20:39.445Z</time></trkpt><trkpt lat="45.0748083" lon="7.7964667"><ele>561.0</ele><time>2026-04-11T13:20:41.445Z</time></trkpt><trkpt lat="45.0748833" lon="7.796535"><ele>561.0</ele><time>2026-04-11T13:20:43.445Z</time></trkpt><trkpt lat="45.074955" lon="7.7965967"><ele>561.0</ele><time>2026-04-11T13:20:45.445Z</time></trkpt><trkpt lat="45.0750183" lon="7.7966483"><ele>561.0</ele><time>2026-04-11T13:20:47.445Z</time></trkpt><trkpt lat="45.0750883" lon="7.796735"><ele>561.0</ele><time>2026-04-11T13:20:49.445Z</time></trkpt><trkpt lat="45.0751467" lon="7.7968333"><ele>563.8</ele><time>2026-04-11T13:20:51.445Z</time></trkpt><trkpt lat="45.075195" lon="7.79693"><ele>566.6</ele><time>2026-04-11T13:20:53.445Z</time></trkpt><trkpt lat="45.0752467" lon="7.7970267"><ele>569.4</ele><time>2026-04-11T13:20:55.445Z</time></trkpt><trkpt lat="45.075285" lon="7.7971283"><ele>572.2</ele><time>2026-04-11T13:20:58.445Z</time></trkpt><trkpt lat="45.0753467" lon="7.7972333"><ele>575.0</ele><time>2026-04-11T13:21:00.445Z</time></trkpt><trkpt lat="45.0754317" lon="7.7973383"><ele>575.0</ele><time>2026-04-11T13:21:02.445Z</time></trkpt><trkpt lat="45.0755283" lon="7.7974283"><ele>575.0</ele><time>2026-04-11T13:21:04.445Z</time></trkpt><trkpt lat="45.0756167" lon="7.7974883"><ele>575.0</ele><time>2026-04-11T13:21:06.445Z</time></trkpt><trkpt lat="45.0757167" lon="7.7975483"><ele>575.0</ele><time>2026-04-11T13:21:08.445Z</time></trkpt><trkpt lat="45.0758267" lon="7.7975967"><ele>575.0</ele><time>2026-04-11T13:21:10.445Z</time></trkpt><trkpt lat="45.0759217" lon="7.79764"><ele>574.6666666666666</ele><time>2026-04-11T13:21:12.445Z</time></trkpt><trkpt lat="45.0760133" lon="7.7976767"><ele>574.3333333333333</ele><time>2026-04-11T13:21:14.445Z</time></trkpt><trkpt lat="45.0760883" lon="7.7977067"><ele>574.0</ele><time>2026-04-11T13:21:16.445Z</time></trkpt><trkpt lat="45.0761617" lon="7.7977317"><ele>573.6666666666666</ele><time>2026-04-11T13:21:18.445Z</time></trkpt><trkpt lat="45.0762383" lon="7.7977583"><ele>573.3333333333334</ele><time>2026-04-11T13:21:20.445Z</time></trkpt><trkpt lat="45.0763117" lon="7.7977883"><ele>573.0</ele><time>2026-04-11T13:21:22.445Z</time></trkpt><trkpt lat="45.07637" lon="7.7978267"><ele>573.0</ele><time>2026-04-11T13:21:24.445Z</time></trkpt><trkpt lat="45.0764333" lon="7.797895"><ele>573.0</ele><time>2026-04-11T13:21:27.445Z</time></trkpt><trkpt lat="45.0764917" lon="7.79798"><ele>573.0</ele><time>2026-04-11T13:21:30.445Z</time></trkpt><trkpt lat="45.07656" lon="7.798075"><ele>573.0</ele><time>2026-04-11T13:21:32.445Z</time></trkpt><trkpt lat="45.076655" lon="7.7981833"><ele>573.0</ele><time>2026-04-11T13:21:34.445Z</time></trkpt><trkpt lat="45.0767183" lon="7.7982267"><ele>572.3333333333334</ele><time>2026-04-11T13:21:35.445Z</time></trkpt><trkpt lat="45.07678" lon="7.7982583"><ele>571.6666666666666</ele><time>2026-04-11T13:21:36.445Z</time></trkpt><trkpt lat="45.076855" lon="7.798285"><ele>571.0</ele><time>2026-04-11T13:21:37.445Z</time></trkpt><trkpt lat="45.0769433" lon="7.7983017"><ele>570.3333333333333</ele><time>2026-04-11T13:21:38.445Z</time></trkpt><trkpt lat="45.0770417" lon="7.7983033"><ele>569.6666666666666</ele><time>2026-04-11T13:21:39.445Z</time></trkpt><trkpt lat="45.0771267" lon="7.7983033"><ele>569.0</ele><time>2026-04-11T13:21:40.445Z</time></trkpt><trkpt lat="45.0772117" lon="7.79831"><ele>569.0</ele><time>2026-04-11T13:21:41.445Z</time></trkpt><trkpt lat="45.0772833" lon="7.7983367"><ele>569.0</ele><time>2026-04-11T13:21:42.445Z</time></trkpt><trkpt lat="45.0773433" lon="7.7983717"><ele>569.0</ele><time>2026-04-11T13:21:43.445Z</time></trkpt><trkpt lat="45.077405" lon="7.7984367"><ele>569.0</ele><time>2026-04-11T13:21:44.445Z</time></trkpt><trkpt lat="45.0774717" lon="7.7985233"><ele>569.0</ele><time>2026-04-11T13:21:45.445Z</time></trkpt><trkpt lat="45.0775283" lon="7.7986083"><ele>569.0</ele><time>2026-04-11T13:21:46.445Z</time></trkpt><trkpt lat="45.0775883" lon="7.7986983"><ele>566.5</ele><time>2026-04-11T13:21:47.445Z</time></trkpt><trkpt lat="45.077645" lon="7.7987967"><ele>564.0</ele><time>2026-04-11T13:21:48.445Z</time></trkpt><trkpt lat="45.0777" lon="7.7988817"><ele>561.5</ele><time>2026-04-11T13:21:49.445Z</time></trkpt><trkpt lat="45.0777617" lon="7.79898"><ele>559.0</ele><time>2026-04-11T13:21:50.445Z</time></trkpt><trkpt lat="45.0778117" lon="7.7990767"><ele>556.5</ele><time>2026-04-11T13:21:51.445Z</time></trkpt><trkpt lat="45.077855" lon="7.7991733"><ele>554.0</ele><time>2026-04-11T13:21:52.445Z</time></trkpt><trkpt lat="45.0779017" lon="7.7992783"><ele>552.6666666666666</ele><time>2026-04-11T13:21:53.445Z</time></trkpt><trkpt lat="45.077945" lon="7.79936"><ele>551.3333333333333</ele><time>2026-04-11T13:21:54.445Z</time></trkpt><trkpt lat="45.0779733" lon="7.7994633"><ele>550.0</ele><time>2026-04-11T13:21:55.445Z</time></trkpt><trkpt lat="45.0779883" lon="7.79957"><ele>548.6666666666666</ele><time>2026-04-11T13:21:56.445Z</time></trkpt><trkpt lat="45.0780117" lon="7.799675"><ele>547.3333333333334</ele><time>2026-04-11T13:21:57.445Z</time></trkpt><trkpt lat="45.0780433" lon="7.7997667"><ele>546.0</ele><time>2026-04-11T13:21:58.445Z</time></trkpt><trkpt lat="45.0780833" lon="7.7998583"><ele>546.0</ele><time>2026-04-11T13:21:59.445Z</time></trkpt><trkpt lat="45.078125" lon="7.7999383"><ele>546.0</ele><time>2026-04-11T13:22:00.445Z</time></trkpt><trkpt lat="45.0781767" lon="7.800085"><ele>546.0</ele><time>2026-04-11T13:22:02.445Z</time></trkpt><trkpt lat="45.0782383" lon="7.8002117"><ele>546.0</ele><time>2026-04-11T13:22:04.445Z</time></trkpt><trkpt lat="45.07826" lon="7.8003417"><ele>546.0</ele><time>2026-04-11T13:22:06.445Z</time></trkpt><trkpt lat="45.0782717" lon="7.8004667"><ele>544.6666666666666</ele><time>2026-04-11T13:22:08.445Z</time></trkpt><trkpt lat="45.0782417" lon="7.8005783"><ele>543.3333333333334</ele><time>2026-04-11T13:22:10.445Z</time></trkpt><trkpt lat="45.07821" lon="7.800725"><ele>542.0</ele><time>2026-04-11T13:22:12.445Z</time></trkpt><trkpt lat="45.0782083" lon="7.80089"><ele>540.6666666666667</ele><time>2026-04-11T13:22:14.445Z</time></trkpt><trkpt lat="45.0782167" lon="7.800985"><ele>539.3333333333334</ele><time>2026-04-11T13:22:15.445Z</time></trkpt><trkpt lat="45.0782217" lon="7.80108"><ele>538.0</ele><time>2026-04-11T13:22:16.445Z</time></trkpt><trkpt lat="45.0782517" lon="7.8012467"><ele>537.0</ele><time>2026-04-11T13:22:18.445Z</time></trkpt><trkpt lat="45.0782583" lon="7.8014117"><ele>536.0</ele><time>2026-04-11T13:22:20.445Z</time></trkpt><trkpt lat="45.0782883" lon="7.8015583"><ele>535.0</ele><time>2026-04-11T13:22:22.445Z</time></trkpt><trkpt lat="45.078355" lon="7.8016983"><ele>534.0</ele><time>2026-04-11T13:22:24.445Z</time></trkpt><trkpt lat="45.0783917" lon="7.8017717"><ele>533.0</ele><time>2026-04-11T13:22:25.445Z</time></trkpt><trkpt lat="45.078435" lon="7.8018467"><ele>537.6666666666666</ele><time>2026-04-11T13:22:26.445Z</time></trkpt><trkpt lat="45.0784983" lon="7.8019783"><ele>542.3333333333333</ele><time>2026-04-11T13:22:28.445Z</time></trkpt><trkpt lat="45.078535" lon="7.8020733"><ele>547.0</ele><time>2026-04-11T13:22:30.445Z</time></trkpt><trkpt lat="45.078545" lon="7.8021633"><ele>551.6666666666666</ele><time>2026-04-11T13:22:32.445Z</time></trkpt><trkpt lat="45.078535" lon="7.8022533"><ele>556.3333333333334</ele><time>2026-04-11T13:22:34.445Z</time></trkpt><trkpt lat="45.0785" lon="7.8023333"><ele>561.0</ele><time>2026-04-11T13:22:36.445Z</time></trkpt><trkpt lat="45.07846" lon="7.80244"><ele>561.0</ele><time>2026-04-11T13:22:38.445Z</time></trkpt><trkpt lat="45.0784017" lon="7.802585"><ele>561.0</ele><time>2026-04-11T13:22:40.445Z</time></trkpt><trkpt lat="45.078345" lon="7.8027167"><ele>561.0</ele><time>2026-04-11T13:22:42.445Z</time></trkpt><trkpt lat="45.0783133" lon="7.8028833"><ele>561.0</ele><time>2026-04-11T13:22:44.445Z</time></trkpt><trkpt lat="45.0783267" lon="7.8029867"><ele>561.0</ele><time>2026-04-11T13:22:45.445Z</time></trkpt><trkpt lat="45.0783533" lon="7.8030783"><ele>559.8333333333334</ele><time>2026-04-11T13:22:46.445Z</time></trkpt><trkpt lat="45.0783917" lon="7.80316"><ele>558.6666666666666</ele><time>2026-04-11T13:22:47.445Z</time></trkpt><trkpt lat="45.0784517" lon="7.803235"><ele>557.5</ele><time>2026-04-11T13:22:48.446Z</time></trkpt><trkpt lat="45.0785167" lon="7.8032933"><ele>556.3333333333333</ele><time>2026-04-11T13:22:49.445Z</time></trkpt><trkpt lat="45.0786" lon="7.803355"><ele>555.1666666666666</ele><time>2026-04-11T13:22:50.445Z</time></trkpt><trkpt lat="45.0786667" lon="7.8034283"><ele>554.0</ele><time>2026-04-11T13:22:51.445Z</time></trkpt><trkpt lat="45.07871" lon="7.8034933"><ele>550.8</ele><time>2026-04-11T13:22:52.445Z</time></trkpt><trkpt lat="45.078715" lon="7.80364"><ele>547.5999999999999</ele><time>2026-04-11T13:22:54.445Z</time></trkpt><trkpt lat="45.0787317" lon="7.8037833"><ele>544.4</ele><time>2026-04-11T13:22:56.445Z</time></trkpt><trkpt lat="45.0787567" lon="7.8039333"><ele>541.1999999999999</ele><time>2026-04-11T13:22:58.445Z</time></trkpt><trkpt lat="45.078785" lon="7.8040267"><ele>538.0</ele><time>2026-04-11T13:22:59.445Z</time></trkpt><trkpt lat="45.0788183" lon="7.80413"><ele>538.0</ele><time>2026-04-11T13:23:00.445Z</time></trkpt><trkpt lat="45.078845" lon="7.8042333"><ele>538.0</ele><time>2026-04-11T13:23:01.445Z</time></trkpt><trkpt lat="45.0788783" lon="7.8043333"><ele>538.0</ele><time>2026-04-11T13:23:02.445Z</time></trkpt><trkpt lat="45.0789083" lon="7.8044317"><ele>538.0</ele><time>2026-04-11T13:23:03.445Z</time></trkpt><trkpt lat="45.0789183" lon="7.8045383"><ele>538.0</ele><time>2026-04-11T13:23:04.445Z</time></trkpt><trkpt lat="45.0789233" lon="7.8046433"><ele>538.0</ele><time>2026-04-11T13:23:05.445Z</time></trkpt><trkpt lat="45.07892" lon="7.804755"><ele>538.0</ele><time>2026-04-11T13:23:06.445Z</time></trkpt><trkpt lat="45.0789167" lon="7.80487"><ele>538.0</ele><time>2026-04-11T13:23:07.445Z</time></trkpt><trkpt lat="45.0789283" lon="7.8049883"><ele>538.0</ele><time>2026-04-11T13:23:08.445Z</time></trkpt><trkpt lat="45.0789267" lon="7.8050833"><ele>538.0</ele><time>2026-04-11T13:23:09.445Z</time></trkpt><trkpt lat="45.0789167" lon="7.8051733"><ele>538.0</ele><time>2026-04-11T13:23:10.445Z</time></trkpt><trkpt lat="45.07886" lon="7.805285"><ele>538.0</ele><time>2026-04-11T13:23:12.445Z</time></trkpt><trkpt lat="45.0787967" lon="7.8053333"><ele>540.0</ele><time>2026-04-11T13:23:14.445Z</time></trkpt><trkpt lat="45.0787017" lon="7.8053683"><ele>542.0</ele><time>2026-04-11T13:23:17.445Z</time></trkpt><trkpt lat="45.078615" lon="7.805395"><ele>544.0</ele><time>2026-04-11T13:23:19.445Z</time></trkpt><trkpt lat="45.078525" lon="7.80545"><ele>546.0</ele><time>2026-04-11T13:23:21.445Z</time></trkpt><trkpt lat="45.0784383" lon="7.8055267"><ele>548.0</ele><time>2026-04-11T13:23:23.445Z</time></trkpt><trkpt lat="45.078355" lon="7.8056017"><ele>548.0</ele><time>2026-04-11T13:23:25.445Z</time></trkpt><trkpt lat="45.0782783" lon="7.8057183"><ele>548.0</ele><time>2026-04-11T13:23:27.445Z</time></trkpt><trkpt lat="45.0782133" lon="7.8058317"><ele>548.0</ele><time>2026-04-11T13:23:29.445Z</time></trkpt><trkpt lat="45.07817" lon="7.8059233"><ele>548.0</ele><time>2026-04-11T13:23:31.445Z</time></trkpt><trkpt lat="45.0781467" lon="7.8060333"><ele>548.0</ele><time>2026-04-11T13:23:33.445Z</time></trkpt><trkpt lat="45.0781333" lon="7.8061333"><ele>548.0</ele><time>2026-04-11T13:23:35.445Z</time></trkpt><trkpt lat="45.0781183" lon="7.8062367"><ele>548.0</ele><time>2026-04-11T13:23:37.445Z</time></trkpt><trkpt lat="45.078125" lon="7.8063667"><ele>548.0</ele><time>2026-04-11T13:23:39.445Z</time></trkpt><trkpt lat="45.078185" lon="7.8065167"><ele>548.0</ele><time>2026-04-11T13:23:41.445Z</time></trkpt><trkpt lat="45.078215" lon="7.8066"><ele>548.0</ele><time>2026-04-11T13:23:42.445Z</time></trkpt><trkpt lat="45.078245" lon="7.8066933"><ele>548.0</ele><time>2026-04-11T13:23:43.446Z</time></trkpt><trkpt lat="45.078285" lon="7.8067833"><ele>548.0</ele><time>2026-04-11T13:23:44.445Z</time></trkpt><trkpt lat="45.0783317" lon="7.8068633"><ele>545.3333333333333</ele><time>2026-04-11T13:23:45.445Z</time></trkpt><trkpt lat="45.078385" lon="7.8069367"><ele>542.6666666666666</ele><time>2026-04-11T13:23:46.445Z</time></trkpt><trkpt lat="45.0784317" lon="7.8070317"><ele>540.0</ele><time>2026-04-11T13:23:47.445Z</time></trkpt><trkpt lat="45.0784867" lon="7.807135"><ele>537.3333333333334</ele><time>2026-04-11T13:23:48.445Z</time></trkpt><trkpt lat="45.0785467" lon="7.807195"><ele>534.6666666666667</ele><time>2026-04-11T13:23:49.445Z</time></trkpt><trkpt lat="45.0786317" lon="7.8072917"><ele>532.0</ele><time>2026-04-11T13:23:51.445Z</time></trkpt><trkpt lat="45.0786783" lon="7.8074233"><ele>532.0</ele><time>2026-04-11T13:23:53.445Z</time></trkpt><trkpt lat="45.0787133" lon="7.8075683"><ele>532.0</ele><time>2026-04-11T13:23:55.445Z</time></trkpt><trkpt lat="45.0787483" lon="7.80773"><ele>532.0</ele><time>2026-04-11T13:23:57.445Z</time></trkpt><trkpt lat="45.0787833" lon="7.8078933"><ele>532.0</ele><time>2026-04-11T13:23:59.445Z</time></trkpt><trkpt lat="45.0787583" lon="7.8080567"><ele>530.1428571428571</ele><time>2026-04-11T13:24:01.445Z</time></trkpt><trkpt lat="45.0787317" lon="7.8081383"><ele>528.2857142857142</ele><time>2026-04-11T13:24:02.445Z</time></trkpt><trkpt lat="45.07871" lon="7.808285"><ele>526.4285714285714</ele><time>2026-04-11T13:24:04.445Z</time></trkpt><trkpt lat="45.07871" lon="7.8083783"><ele>524.5714285714286</ele><time>2026-04-11T13:24:06.445Z</time></trkpt><trkpt lat="45.0787" lon="7.8084783"><ele>522.7142857142857</ele><time>2026-04-11T13:24:09.445Z</time></trkpt><trkpt lat="45.07869" lon="7.808575"><ele>520.8571428571429</ele><time>2026-04-11T13:24:11.445Z</time></trkpt><trkpt lat="45.07868" lon="7.808675"><ele>519.0</ele><time>2026-04-11T13:24:13.445Z</time></trkpt><trkpt lat="45.07868" lon="7.808775"><ele>517.8</ele><time>2026-04-11T13:24:15.446Z</time></trkpt><trkpt lat="45.0786967" lon="7.8088967"><ele>516.5999999999999</ele><time>2026-04-11T13:24:18.445Z</time></trkpt><trkpt lat="45.0786583" lon="7.809025"><ele>515.4</ele><time>2026-04-11T13:24:21.445Z</time></trkpt><trkpt lat="45.07861" lon="7.8091217"><ele>514.1999999999999</ele><time>2026-04-11T13:24:23.445Z</time></trkpt><trkpt lat="45.0785533" lon="7.8092417"><ele>513.0</ele><time>2026-04-11T13:24:25.445Z</time></trkpt><trkpt lat="45.0784967" lon="7.80936"><ele>513.0</ele><time>2026-04-11T13:24:27.445Z</time></trkpt><trkpt lat="45.0784517" lon="7.8094283"><ele>513.0</ele><time>2026-04-11T13:24:29.445Z</time></trkpt><trkpt lat="45.0783933" lon="7.8095117"><ele>513.0</ele><time>2026-04-11T13:24:32.446Z</time></trkpt><trkpt lat="45.0783583" lon="7.8096017"><ele>513.0</ele><time>2026-04-11T13:24:36.445Z</time></trkpt><trkpt lat="45.0783317" lon="7.80969"><ele>513.0</ele><time>2026-04-11T13:24:39.445Z</time></trkpt><trkpt lat="45.078275" lon="7.80978"><ele>513.0</ele><time>2026-04-11T13:24:42.445Z</time></trkpt><trkpt lat="45.07822" lon="7.809875"><ele>508.8333333333333</ele><time>2026-04-11T13:24:44.445Z</time></trkpt><trkpt lat="45.0782033" lon="7.8099967"><ele>504.66666666666663</ele><time>2026-04-11T13:24:46.445Z</time></trkpt><trkpt lat="45.078185" lon="7.8101383"><ele>500.5</ele><time>2026-04-11T13:24:48.445Z</time></trkpt><trkpt lat="45.078175" lon="7.8102717"><ele>496.3333333333333</ele><time>2026-04-11T13:24:50.445Z</time></trkpt><trkpt lat="45.0781867" lon="7.81037"><ele>492.16666666666663</ele><time>2026-04-11T13:24:52.445Z</time></trkpt><trkpt lat="45.0782083" lon="7.8104683"><ele>488.0</ele><time>2026-04-11T13:24:54.445Z</time></trkpt><trkpt lat="45.0782517" lon="7.8105533"><ele>490.66666666666663</ele><time>2026-04-11T13:24:56.445Z</time></trkpt><trkpt lat="45.0783183" lon="7.8105767"><ele>493.3333333333333</ele><time>2026-04-11T13:24:58.445Z</time></trkpt><trkpt lat="45.078395" lon="7.810575"><ele>496.0</ele><time>2026-04-11T13:25:00.445Z</time></trkpt><trkpt lat="45.0784767" lon="7.8105417"><ele>498.66666666666663</ele><time>2026-04-11T13:25:02.445Z</time></trkpt><trkpt lat="45.07855" lon="7.8104767"><ele>501.3333333333333</ele><time>2026-04-11T13:25:04.445Z</time></trkpt><trkpt lat="45.0786317" lon="7.8104467"><ele>504.0</ele><time>2026-04-11T13:25:06.445Z</time></trkpt><trkpt lat="45.0787133" lon="7.8104233"><ele>504.0</ele><time>2026-04-11T13:25:08.445Z</time></trkpt><trkpt lat="45.0788183" lon="7.8104017"><ele>504.0</ele><time>2026-04-11T13:25:10.445Z</time></trkpt><trkpt lat="45.0789067" lon="7.81042"><ele>504.0</ele><time>2026-04-11T13:25:12.445Z</time></trkpt><trkpt lat="45.0789867" lon="7.8104433"><ele>504.0</ele><time>2026-04-11T13:25:14.445Z</time></trkpt><trkpt lat="45.0790767" lon="7.8104617"><ele>504.0</ele><time>2026-04-11T13:25:17.445Z</time></trkpt><trkpt lat="45.0791533" lon="7.8104917"><ele>504.0</ele><time>2026-04-11T13:25:19.445Z</time></trkpt><trkpt lat="45.07923" lon="7.8105067"><ele>504.8333333333333</ele><time>2026-04-11T13:25:21.445Z</time></trkpt><trkpt lat="45.079305" lon="7.81051"><ele>505.66666666666663</ele><time>2026-04-11T13:25:23.445Z</time></trkpt><trkpt lat="45.0793683" lon="7.8105117"><ele>506.5</ele><time>2026-04-11T13:25:25.445Z</time></trkpt><trkpt lat="45.0794617" lon="7.8105133"><ele>507.3333333333333</ele><time>2026-04-11T13:25:28.445Z</time></trkpt><trkpt lat="45.0795383" lon="7.8105117"><ele>508.16666666666663</ele><time>2026-04-11T13:25:30.445Z</time></trkpt><trkpt lat="45.0796083" lon="7.8104783"><ele>509.0</ele><time>2026-04-11T13:25:32.446Z</time></trkpt><trkpt lat="45.07968" lon="7.8104617"><ele>508.99999999999994</ele><time>2026-04-11T13:25:34.445Z</time></trkpt><trkpt lat="45.079745" lon="7.8104433"><ele>509.0</ele><time>2026-04-11T13:25:36.445Z</time></trkpt><trkpt lat="45.07984" lon="7.810445"><ele>509.0</ele><time>2026-04-11T13:25:39.445Z</time></trkpt><trkpt lat="45.0799267" lon="7.8104483"><ele>509.0</ele><time>2026-04-11T13:25:42.445Z</time></trkpt><trkpt lat="45.0800017" lon="7.81042"><ele>508.99999999999994</ele><time>2026-04-11T13:25:45.445Z</time></trkpt><trkpt lat="45.080065" lon="7.8103683"><ele>509.0</ele><time>2026-04-11T13:25:47.445Z</time></trkpt><trkpt lat="45.0801367" lon="7.8103083"><ele>509.4</ele><time>2026-04-11T13:25:49.445Z</time></trkpt><trkpt lat="45.080225" lon="7.810285"><ele>509.79999999999995</ele><time>2026-04-11T13:25:51.445Z</time></trkpt><trkpt lat="45.0803217" lon="7.81031"><ele>510.20000000000005</ele><time>2026-04-11T13:25:53.445Z</time></trkpt><trkpt lat="45.0804333" lon="7.8103767"><ele>510.6</ele><time>2026-04-11T13:25:55.445Z</time></trkpt><trkpt lat="45.080535" lon="7.8104517"><ele>511.0</ele><time>2026-04-11T13:25:57.445Z</time></trkpt><trkpt lat="45.0806233" lon="7.8105383"><ele>511.0</ele><time>2026-04-11T13:25:59.445Z</time></trkpt><trkpt lat="45.0806917" lon="7.81063"><ele>511.0</ele><time>2026-04-11T13:26:01.445Z</time></trkpt><trkpt lat="45.0807467" lon="7.8107383"><ele>511.0</ele><time>2026-04-11T13:26:03.445Z</time></trkpt><trkpt lat="45.0808133" lon="7.8108817"><ele>511.0</ele><time>2026-04-11T13:26:05.445Z</time></trkpt><trkpt lat="45.0808633" lon="7.81096"><ele>511.0</ele><time>2026-04-11T13:26:06.445Z</time></trkpt><trkpt lat="45.080915" lon="7.8110233"><ele>507.8</ele><time>2026-04-11T13:26:07.445Z</time></trkpt><trkpt lat="45.0809983" lon="7.81113"><ele>504.6</ele><time>2026-04-11T13:26:09.445Z</time></trkpt><trkpt lat="45.0810617" lon="7.81122"><ele>501.4</ele><time>2026-04-11T13:26:11.445Z</time></trkpt><trkpt lat="45.081155" lon="7.81135"><ele>498.2</ele><time>2026-04-11T13:26:13.445Z</time></trkpt><trkpt lat="45.08121" lon="7.81142"><ele>495.0</ele><time>2026-04-11T13:26:14.445Z</time></trkpt><trkpt lat="45.08127" lon="7.8114967"><ele>495.0</ele><time>2026-04-11T13:26:15.445Z</time></trkpt><trkpt lat="45.081335" lon="7.81157"><ele>495.0</ele><time>2026-04-11T13:26:16.445Z</time></trkpt><trkpt lat="45.0814" lon="7.811645"><ele>495.0</ele><time>2026-04-11T13:26:17.445Z</time></trkpt><trkpt lat="45.0814633" lon="7.81172"><ele>495.0</ele><time>2026-04-11T13:26:18.445Z</time></trkpt><trkpt lat="45.0815167" lon="7.8117917"><ele>495.0</ele><time>2026-04-11T13:26:19.445Z</time></trkpt><trkpt lat="45.0815533" lon="7.8118733"><ele>495.0</ele><time>2026-04-11T13:26:20.445Z</time></trkpt><trkpt lat="45.0815933" lon="7.811975"><ele>495.1666666666667</ele><time>2026-04-11T13:26:21.445Z</time></trkpt><trkpt lat="45.081625" lon="7.81208"><ele>495.33333333333337</ele><time>2026-04-11T13:26:22.445Z</time></trkpt><trkpt lat="45.0816517" lon="7.8121717"><ele>495.5</ele><time>2026-04-11T13:26:23.445Z</time></trkpt><trkpt lat="45.08168" lon="7.8123283"><ele>495.6666666666667</ele><time>2026-04-11T13:26:25.445Z</time></trkpt><trkpt lat="45.0816883" lon="7.8124483"><ele>495.83333333333337</ele><time>2026-04-11T13:26:27.445Z</time></trkpt><trkpt lat="45.081665" lon="7.8125367"><ele>496.0</ele><time>2026-04-11T13:26:29.445Z</time></trkpt><trkpt lat="45.0815967" lon="7.8126067"><ele>494.50000000000006</ele><time>2026-04-11T13:26:31.445Z</time></trkpt><trkpt lat="45.08155" lon="7.8126867"><ele>493.0</ele><time>2026-04-11T13:26:33.445Z</time></trkpt><trkpt lat="45.0815" lon="7.8127933"><ele>491.5</ele><time>2026-04-11T13:26:36.445Z</time></trkpt><trkpt lat="45.0814717" lon="7.8129083"><ele>490.0</ele><time>2026-04-11T13:26:39.446Z</time></trkpt><trkpt lat="45.081445" lon="7.8129967"><ele>488.50000000000006</ele><time>2026-04-11T13:26:42.445Z</time></trkpt><trkpt lat="45.081395" lon="7.8131017"><ele>487.0</ele><time>2026-04-11T13:26:45.445Z</time></trkpt><trkpt lat="45.0813683" lon="7.8131983"><ele>487.0</ele><time>2026-04-11T13:26:48.445Z</time></trkpt><trkpt lat="45.0813783" lon="7.8133117"><ele>487.0</ele><time>2026-04-11T13:26:51.445Z</time></trkpt><trkpt lat="45.0814017" lon="7.8133983"><ele>487.0</ele><time>2026-04-11T13:26:53.445Z</time></trkpt><trkpt lat="45.081435" lon="7.8135017"><ele>487.0</ele><time>2026-04-11T13:26:56.445Z</time></trkpt><trkpt lat="45.081455" lon="7.8135883"><ele>487.0</ele><time>2026-04-11T13:26:59.445Z</time></trkpt><trkpt lat="45.0814783" lon="7.81369"><ele>487.0</ele><time>2026-04-11T13:27:02.445Z</time></trkpt><trkpt lat="45.081495" lon="7.813805"><ele>487.0</ele><time>2026-04-11T13:27:05.445Z</time></trkpt><trkpt lat="45.08149" lon="7.8139233"><ele>488.1666666666667</ele><time>2026-04-11T13:27:08.445Z</time></trkpt><trkpt lat="45.081475" lon="7.8140283"><ele>489.33333333333337</ele><time>2026-04-11T13:27:11.444Z</time></trkpt><trkpt lat="45.0814633" lon="7.814145"><ele>490.5</ele><time>2026-04-11T13:27:14.444Z</time></trkpt><trkpt lat="45.0814233" lon="7.8142467"><ele>491.66666666666663</ele><time>2026-04-11T13:27:17.444Z</time></trkpt><trkpt lat="45.0813967" lon="7.8143483"><ele>492.8333333333333</ele><time>2026-04-11T13:27:20.444Z</time></trkpt><trkpt lat="45.0813983" lon="7.81448"><ele>494.0</ele><time>2026-04-11T13:27:23.444Z</time></trkpt><trkpt lat="45.0814083" lon="7.8145933"><ele>494.16666666666663</ele><time>2026-04-11T13:27:26.444Z</time></trkpt><trkpt lat="45.081415" lon="7.814695"><ele>494.3333333333333</ele><time>2026-04-11T13:27:29.444Z</time></trkpt><trkpt lat="45.081425" lon="7.8147867"><ele>494.5</ele><time>2026-04-11T13:27:31.444Z</time></trkpt><trkpt lat="45.081435" lon="7.814885"><ele>494.66666666666663</ele><time>2026-04-11T13:27:33.444Z</time></trkpt><trkpt lat="45.0814267" lon="7.8150017"><ele>494.8333333333333</ele><time>2026-04-11T13:27:37.444Z</time></trkpt><trkpt lat="45.0814417" lon="7.8152067"><ele>495.0</ele><time>2026-04-11T13:27:58.444Z</time></trkpt><trkpt lat="45.0814" lon="7.8152767"><ele>495.8333333333333</ele><time>2026-04-11T13:28:09.444Z</time></trkpt><trkpt lat="45.0813567" lon="7.8153417"><ele>496.66666666666663</ele><time>2026-04-11T13:28:11.444Z</time></trkpt><trkpt lat="45.0813167" lon="7.8154117"><ele>497.5</ele><time>2026-04-11T13:28:13.444Z</time></trkpt><trkpt lat="45.0812667" lon="7.8155167"><ele>498.3333333333333</ele><time>2026-04-11T13:28:16.444Z</time></trkpt><trkpt lat="45.0812433" lon="7.8156283"><ele>499.16666666666663</ele><time>2026-04-11T13:28:19.444Z</time></trkpt><trkpt lat="45.08124" lon="7.8157733"><ele>500.0</ele><time>2026-04-11T13:28:21.444Z</time></trkpt><trkpt lat="45.0812333" lon="7.8158833"><ele>500.0</ele><time>2026-04-11T13:28:22.444Z</time></trkpt><trkpt lat="45.08124" lon="7.8159767"><ele>500.0</ele><time>2026-04-11T13:28:23.444Z</time></trkpt><trkpt lat="45.0812617" lon="7.8160667"><ele>500.0</ele><time>2026-04-11T13:28:24.444Z</time></trkpt><trkpt lat="45.08129" lon="7.8161583"><ele>500.0</ele><time>2026-04-11T13:28:25.444Z</time></trkpt><trkpt lat="45.08131" lon="7.816245"><ele>500.0</ele><time>2026-04-11T13:28:26.444Z</time></trkpt><trkpt lat="45.08134" lon="7.8163817"><ele>500.0</ele><time>2026-04-11T13:28:28.444Z</time></trkpt><trkpt lat="45.081355" lon="7.81648"><ele>500.0</ele><time>2026-04-11T13:28:31.444Z</time></trkpt><trkpt lat="45.0813517" lon="7.8165767"><ele>497.99999999999994</ele><time>2026-04-11T13:28:34.444Z</time></trkpt><trkpt lat="45.0813533" lon="7.8166783"><ele>496.0</ele><time>2026-04-11T13:28:37.444Z</time></trkpt><trkpt lat="45.081345" lon="7.816775"><ele>494.0</ele><time>2026-04-11T13:28:39.444Z</time></trkpt><trkpt lat="45.0813067" lon="7.816905"><ele>492.0</ele><time>2026-04-11T13:28:42.444Z</time></trkpt><trkpt lat="45.081275" lon="7.8170233"><ele>489.99999999999994</ele><time>2026-04-11T13:28:44.445Z</time></trkpt><trkpt lat="45.0812267" lon="7.817135"><ele>488.0</ele><time>2026-04-11T13:28:46.444Z</time></trkpt><trkpt lat="45.0811733" lon="7.8172167"><ele>487.59999999999997</ele><time>2026-04-11T13:28:48.444Z</time></trkpt><trkpt lat="45.0811033" lon="7.8172767"><ele>487.19999999999993</ele><time>2026-04-11T13:28:50.444Z</time></trkpt><trkpt lat="45.081025" lon="7.81732"><ele>486.8</ele><time>2026-04-11T13:28:52.444Z</time></trkpt><trkpt lat="45.080915" lon="7.8173733"><ele>486.4</ele><time>2026-04-11T13:28:54.444Z</time></trkpt><trkpt lat="45.0808233" lon="7.817435"><ele>486.0</ele><time>2026-04-11T13:28:56.445Z</time></trkpt><trkpt lat="45.0807133" lon="7.8174767"><ele>481.8333333333333</ele><time>2026-04-11T13:28:58.444Z</time></trkpt><trkpt lat="45.0806617" lon="7.8175333"><ele>477.66666666666663</ele><time>2026-04-11T13:28:59.444Z</time></trkpt><trkpt lat="45.0806183" lon="7.817605"><ele>473.5</ele><time>2026-04-11T13:29:00.444Z</time></trkpt><trkpt lat="45.08059" lon="7.817685"><ele>469.3333333333333</ele><time>2026-04-11T13:29:01.445Z</time></trkpt><trkpt lat="45.0805467" lon="7.81786"><ele>465.16666666666663</ele><time>2026-04-11T13:29:03.444Z</time></trkpt><trkpt lat="45.0805267" lon="7.81803"><ele>461.0</ele><time>2026-04-11T13:29:05.444Z</time></trkpt><trkpt lat="45.08052" lon="7.8181283"><ele>460.99999999999994</ele><time>2026-04-11T13:29:06.444Z</time></trkpt><trkpt lat="45.0805067" lon="7.8182233"><ele>461.0</ele><time>2026-04-11T13:29:07.444Z</time></trkpt><trkpt lat="45.0804733" lon="7.8183167"><ele>461.0</ele><time>2026-04-11T13:29:08.444Z</time></trkpt><trkpt lat="45.08043" lon="7.8183917"><ele>461.0</ele><time>2026-04-11T13:29:09.444Z</time></trkpt><trkpt lat="45.0803933" lon="7.8184733"><ele>460.99999999999994</ele><time>2026-04-11T13:29:10.444Z</time></trkpt><trkpt lat="45.0803483" lon="7.8186217"><ele>461.0</ele><time>2026-04-11T13:29:12.444Z</time></trkpt><trkpt lat="45.08031" lon="7.81874"><ele>463.4</ele><time>2026-04-11T13:29:14.444Z</time></trkpt><trkpt lat="45.08025" lon="7.818825"><ele>465.8</ele><time>2026-04-11T13:29:17.444Z</time></trkpt><trkpt lat="45.0801883" lon="7.818855"><ele>468.19999999999993</ele><time>2026-04-11T13:29:20.444Z</time></trkpt><trkpt lat="45.08013" lon="7.8188967"><ele>470.59999999999997</ele><time>2026-04-11T13:29:31.444Z</time></trkpt><trkpt lat="45.0802033" lon="7.8188867"><ele>473.0</ele><time>2026-04-11T13:29:33.444Z</time></trkpt><trkpt lat="45.07968" lon="7.8104617"><ele>478.99999999999994</ele><time>2026-04-11T13:25:34.445Z</time></trkpt><trkpt lat="45.079745" lon="7.8104433"><ele>485.0</ele><time>2026-04-11T13:25:36.445Z</time></trkpt><trkpt lat="45.07984" lon="7.810445"><ele>491.0</ele><time>2026-04-11T13:25:39.445Z</time></trkpt><trkpt lat="45.0799267" lon="7.8104483"><ele>497.0</ele><time>2026-04-11T13:25:42.445Z</time></trkpt><trkpt lat="45.0800017" lon="7.81042"><ele>502.99999999999994</ele><time>2026-04-11T13:25:45.445Z</time></trkpt><trkpt lat="45.080065" lon="7.8103683"><ele>509.0</ele><time>2026-04-11T13:25:47.445Z</time></trkpt><trkpt lat="45.0801367" lon="7.8103083"><ele>509.4</ele><time>2026-04-11T13:25:49.445Z</time></trkpt><trkpt lat="45.080225" lon="7.810285"><ele>509.79999999999995</ele><time>2026-04-11T13:25:51.445Z</time></trkpt><trkpt lat="45.0803217" lon="7.81031"><ele>510.20000000000005</ele><time>2026-04-11T13:25:53.445Z</time></trkpt><trkpt lat="45.0804333" lon="7.8103767"><ele>510.6</ele><time>2026-04-11T13:25:55.445Z</time></trkpt><trkpt lat="45.080535" lon="7.8104517"><ele>511.0</ele><time>2026-04-11T13:25:57.445Z</time></trkpt><trkpt lat="45.0806233" lon="7.8105383"><ele>511.0</ele><time>2026-04-11T13:25:59.445Z</time></trkpt><trkpt lat="45.0806917" lon="7.81063"><ele>511.0</ele><time>2026-04-11T13:26:01.445Z</time></trkpt><trkpt lat="45.0807467" lon="7.8107383"><ele>511.0</ele><time>2026-04-11T13:26:03.445Z</time></trkpt><trkpt lat="45.0808133" lon="7.8108817"><ele>511.0</ele><time>2026-04-11T13:26:05.445Z</time></trkpt><trkpt lat="45.0808633" lon="7.81096"><ele>511.0</ele><time>2026-04-11T13:26:06.445Z</time></trkpt><trkpt lat="45.080915" lon="7.8110233"><ele>507.8</ele><time>2026-04-11T13:26:07.445Z</time></trkpt><trkpt lat="45.0809983" lon="7.81113"><ele>504.6</ele><time>2026-04-11T13:26:09.445Z</time></trkpt><trkpt lat="45.0810617" lon="7.81122"><ele>501.4</ele><time>2026-04-11T13:26:11.445Z</time></trkpt><trkpt lat="45.081155" lon="7.81135"><ele>498.2</ele><time>2026-04-11T13:26:13.445Z</time></trkpt><trkpt lat="45.08121" lon="7.81142"><ele>495.0</ele><time>2026-04-11T13:26:14.445Z</time></trkpt><trkpt lat="45.08127" lon="7.8114967"><ele>495.0</ele><time>2026-04-11T13:26:15.445Z</time></trkpt><trkpt lat="45.081335" lon="7.81157"><ele>495.0</ele><time>2026-04-11T13:26:16.445Z</time></trkpt><trkpt lat="45.0814" lon="7.811645"><ele>495.0</ele><time>2026-04-11T13:26:17.445Z</time></trkpt><trkpt lat="45.0814633" lon="7.81172"><ele>495.0</ele><time>2026-04-11T13:26:18.445Z</time></trkpt><trkpt lat="45.0815167" lon="7.8117917"><ele>495.0</ele><time>2026-04-11T13:26:19.445Z</time></trkpt><trkpt lat="45.0815533" lon="7.8118733"><ele>495.0</ele><time>2026-04-11T13:26:20.445Z</time></trkpt><trkpt lat="45.0815933" lon="7.811975"><ele>495.1666666666667</ele><time>2026-04-11T13:26:21.445Z</time></trkpt><trkpt lat="45.081625" lon="7.81208"><ele>495.33333333333337</ele><time>2026-04-11T13:26:22.445Z</time></trkpt><trkpt lat="45.0816517" lon="7.8121717"><ele>495.5</ele><time>2026-04-11T13:26:23.445Z</time></trkpt><trkpt lat="45.08168" lon="7.8123283"><ele>495.6666666666667</ele><time>2026-04-11T13:26:25.445Z</time></trkpt><trkpt lat="45.0816883" lon="7.8124483"><ele>495.83333333333337</ele><time>2026-04-11T13:26:27.445Z</time></trkpt><trkpt lat="45.081665" lon="7.8125367"><ele>496.0</ele><time>2026-04-11T13:26:29.445Z</time></trkpt><trkpt lat="45.0815967" lon="7.8126067"><ele>494.50000000000006</ele><time>2026-04-11T13:26:31.445Z</time></trkpt><trkpt lat="45.08155" lon="7.8126867"><ele>493.0</ele><time>2026-04-11T13:26:33.445Z</time></trkpt><trkpt lat="45.0815" lon="7.8127933"><ele>491.5</ele><time>2026-04-11T13:26:36.445Z</time></trkpt><trkpt lat="45.0814717" lon="7.8129083"><ele>490.0</ele><time>2026-04-11T13:26:39.446Z</time></trkpt><trkpt lat="45.081445" lon="7.8129967"><ele>488.50000000000006</ele><time>2026-04-11T13:26:42.445Z</time></trkpt><trkpt lat="45.081395" lon="7.8131017"><ele>487.0</ele><time>2026-04-11T13:26:45.445Z</time></trkpt><trkpt lat="45.0813683" lon="7.8131983"><ele>487.0</ele><time>2026-04-11T13:26:48.445Z</time></trkpt><trkpt lat="45.0813783" lon="7.8133117"><ele>487.0</ele><time>2026-04-11T13:26:51.445Z</time></trkpt><trkpt lat="45.0814017" lon="7.8133983"><ele>487.0</ele><time>2026-04-11T13:26:53.445Z</time></trkpt><trkpt lat="45.081435" lon="7.8135017"><ele>487.0</ele><time>2026-04-11T13:26:56.445Z</time></trkpt><trkpt lat="45.081455" lon="7.8135883"><ele>487.0</ele><time>2026-04-11T13:26:59.445Z</time></trkpt><trkpt lat="45.0814783" lon="7.81369"><ele>487.0</ele><time>2026-04-11T13:27:02.445Z</time></trkpt><trkpt lat="45.081495" lon="7.813805"><ele>487.0</ele><time>2026-04-11T13:27:05.445Z</time></trkpt><trkpt lat="45.08149" lon="7.8139233"><ele>488.1666666666667</ele><time>2026-04-11T13:27:08.445Z</time></trkpt><trkpt lat="45.081475" lon="7.8140283"><ele>489.33333333333337</ele><time>2026-04-11T13:27:11.444Z</time></trkpt><trkpt lat="45.0814633" lon="7.814145"><ele>490.5</ele><time>2026-04-11T13:27:14.444Z</time></trkpt><trkpt lat="45.0814233" lon="7.8142467"><ele>491.66666666666663</ele><time>2026-04-11T13:27:17.444Z</time></trkpt><trkpt lat="45.0813967" lon="7.8143483"><ele>492.8333333333333</ele><time>2026-04-11T13:27:20.444Z</time></trkpt><trkpt lat="45.0813983" lon="7.81448"><ele>494.0</ele><time>2026-04-11T13:27:23.444Z</time></trkpt><trkpt lat="45.0814083" lon="7.8145933"><ele>494.16666666666663</ele><time>2026-04-11T13:27:26.444Z</time></trkpt><trkpt lat="45.081415" lon="7.814695"><ele>494.3333333333333</ele><time>2026-04-11T13:27:29.444Z</time></trkpt><trkpt lat="45.081425" lon="7.8147867"><ele>494.5</ele><time>2026-04-11T13:27:31.444Z</time></trkpt><trkpt lat="45.081435" lon="7.814885"><ele>494.66666666666663</ele><time>2026-04-11T13:27:33.444Z</time></trkpt><trkpt lat="45.0814267" lon="7.8150017"><ele>494.8333333333333</ele><time>2026-04-11T13:27:37.444Z</time></trkpt><trkpt lat="45.0814417" lon="7.8152067"><ele>495.0</ele><time>2026-04-11T13:27:58.444Z</time></trkpt><trkpt lat="45.0814" lon="7.8152767"><ele>495.8333333333333</ele><time>2026-04-11T13:28:09.444Z</time></trkpt><trkpt lat="45.0813567" lon="7.8153417"><ele>496.66666666666663</ele><time>2026-04-11T13:28:11.444Z</time></trkpt><trkpt lat="45.0813167" lon="7.8154117"><ele>497.5</ele><time>2026-04-11T13:28:13.444Z</time></trkpt><trkpt lat="45.0812667" lon="7.8155167"><ele>498.3333333333333</ele><time>2026-04-11T13:28:16.444Z</time></trkpt><trkpt lat="45.0812433" lon="7.8156283"><ele>499.16666666666663</ele><time>2026-04-11T13:28:19.444Z</time></trkpt><trkpt lat="45.08124" lon="7.8157733"><ele>500.0</ele><time>2026-04-11T13:28:21.444Z</time></trkpt><trkpt lat="45.0812333" lon="7.8158833"><ele>500.0</ele><time>2026-04-11T13:28:22.444Z</time></trkpt><trkpt lat="45.08124" lon="7.8159767"><ele>500.0</ele><time>2026-04-11T13:28:23.444Z</time></trkpt><trkpt lat="45.0812617" lon="7.8160667"><ele>500.0</ele><time>2026-04-11T13:28:24.444Z</time></trkpt><trkpt lat="45.08129" lon="7.8161583"><ele>500.0</ele><time>2026-04-11T13:28:25.444Z</time></trkpt><trkpt lat="45.08131" lon="7.816245"><ele>500.0</ele><time>2026-04-11T13:28:26.444Z</time></trkpt><trkpt lat="45.08134" lon="7.8163817"><ele>500.0</ele><time>2026-04-11T13:28:28.444Z</time></trkpt><trkpt lat="45.081355" lon="7.81648"><ele>500.0</ele><time>2026-04-11T13:28:31.444Z</time></trkpt><trkpt lat="45.0813517" lon="7.8165767"><ele>497.99999999999994</ele><time>2026-04-11T13:28:34.444Z</time></trkpt><trkpt lat="45.0813533" lon="7.8166783"><ele>496.0</ele><time>2026-04-11T13:28:37.444Z</time></trkpt><trkpt lat="45.081345" lon="7.816775"><ele>494.0</ele><time>2026-04-11T13:28:39.444Z</time></trkpt><trkpt lat="45.0813067" lon="7.816905"><ele>492.0</ele><time>2026-04-11T13:28:42.444Z</time></trkpt><trkpt lat="45.081275" lon="7.8170233"><ele>489.99999999999994</ele><time>2026-04-11T13:28:44.445Z</time></trkpt><trkpt lat="45.0812267" lon="7.817135"><ele>488.0</ele><time>2026-04-11T13:28:46.444Z</time></trkpt><trkpt lat="45.0811733" lon="7.8172167"><ele>487.59999999999997</ele><time>2026-04-11T13:28:48.444Z</time></trkpt><trkpt lat="45.0811033" lon="7.8172767"><ele>487.19999999999993</ele><time>2026-04-11T13:28:50.444Z</time></trkpt><trkpt lat="45.081025" lon="7.81732"><ele>486.8</ele><time>2026-04-11T13:28:52.444Z</time></trkpt><trkpt lat="45.080915" lon="7.8173733"><ele>486.4</ele><time>2026-04-11T13:28:54.444Z</time></trkpt><trkpt lat="45.0808233" lon="7.817435"><ele>486.0</ele><time>2026-04-11T13:28:56.445Z</time></trkpt><trkpt lat="45.0807133" lon="7.8174767"><ele>481.8333333333333</ele><time>2026-04-11T13:28:58.444Z</time></trkpt><trkpt lat="45.0806617" lon="7.8175333"><ele>477.66666666666663</ele><time>2026-04-11T13:28:59.444Z</time></trkpt><trkpt lat="45.0806183" lon="7.817605"><ele>473.5</ele><time>2026-04-11T13:29:00.444Z</time></trkpt><trkpt lat="45.08059" lon="7.817685"><ele>469.3333333333333</ele><time>2026-04-11T13:29:01.445Z</time></trkpt><trkpt lat="45.0805467" lon="7.81786"><ele>465.16666666666663</ele><time>2026-04-11T13:29:03.444Z</time></trkpt><trkpt lat="45.0805267" lon="7.81803"><ele>461.0</ele><time>2026-04-11T13:29:05.444Z</time></trkpt><trkpt lat="45.08052" lon="7.8181283"><ele>460.99999999999994</ele><time>2026-04-11T13:29:06.444Z</time></trkpt><trkpt lat="45.0805067" lon="7.8182233"><ele>461.0</ele><time>2026-04-11T13:29:07.444Z</time></trkpt><trkpt lat="45.0804733" lon="7.8183167"><ele>461.0</ele><time>2026-04-11T13:29:08.444Z</time></trkpt><trkpt lat="45.08043" lon="7.8183917"><ele>461.0</ele><time>2026-04-11T13:29:09.444Z</time></trkpt><trkpt lat="45.0803933" lon="7.8184733"><ele>460.99999999999994</ele><time>2026-04-11T13:29:10.444Z</time></trkpt><trkpt lat="45.0803483" lon="7.8186217"><ele>461.0</ele><time>2026-04-11T13:29:12.444Z</time></trkpt><trkpt lat="45.08031" lon="7.81874"><ele>462.7142857142857</ele><time>2026-04-11T13:29:14.444Z</time></trkpt><trkpt lat="45.08025" lon="7.818825"><ele>464.42857142857144</ele><time>2026-04-11T13:29:17.444Z</time></trkpt><trkpt lat="45.0801883" lon="7.818855"><ele>466.14285714285717</ele><time>2026-04-11T13:29:20.444Z</time></trkpt><trkpt lat="45.08013" lon="7.8188967"><ele>467.8571428571429</ele><time>2026-04-11T13:29:31.444Z</time></trkpt><trkpt lat="45.0802033" lon="7.8188867"><ele>469.57142857142856</ele><time>2026-04-11T13:29:33.444Z</time></trkpt><trkpt lat="45.0802533" lon="7.81897"><ele>471.28571428571433</ele><time>2026-04-11T13:29:38.444Z</time></trkpt><trkpt lat="45.0802517" lon="7.819075"><ele>473.0</ele><time>2026-04-11T13:29:40.444Z</time></trkpt><trkpt lat="45.0802717" lon="7.8192167"><ele>473.4</ele><time>2026-04-11T13:29:42.444Z</time></trkpt><trkpt lat="45.0803233" lon="7.8193533"><ele>473.79999999999995</ele><time>2026-04-11T13:29:44.444Z</time></trkpt><trkpt lat="45.0803767" lon="7.8194667"><ele>474.2</ele><time>2026-04-11T13:29:46.444Z</time></trkpt><trkpt lat="45.0803967" lon="7.8195667"><ele>474.6</ele><time>2026-04-11T13:29:48.444Z</time></trkpt><trkpt lat="45.080365" lon="7.8196717"><ele>475.0</ele><time>2026-04-11T13:29:50.444Z</time></trkpt><trkpt lat="45.0803233" lon="7.8197933"><ele>475.0</ele><time>2026-04-11T13:29:52.445Z</time></trkpt><trkpt lat="45.0802717" lon="7.8199483"><ele>475.0</ele><time>2026-04-11T13:29:54.444Z</time></trkpt><trkpt lat="45.080225" lon="7.82011"><ele>475.0</ele><time>2026-04-11T13:29:56.444Z</time></trkpt><trkpt lat="45.080175" lon="7.820275"><ele>475.0</ele><time>2026-04-11T13:29:58.444Z</time></trkpt><trkpt lat="45.0801317" lon="7.8204467"><ele>473.6</ele><time>2026-04-11T13:30:00.445Z</time></trkpt><trkpt lat="45.080115" lon="7.8206"><ele>472.2</ele><time>2026-04-11T13:30:02.444Z</time></trkpt><trkpt lat="45.0800767" lon="7.8207517"><ele>470.79999999999995</ele><time>2026-04-11T13:30:04.444Z</time></trkpt><trkpt lat="45.08004" lon="7.820895"><ele>469.4</ele><time>2026-04-11T13:30:06.444Z</time></trkpt><trkpt lat="45.0800167" lon="7.8210317"><ele>468.0</ele><time>2026-04-11T13:30:08.444Z</time></trkpt><trkpt lat="45.07999" lon="7.8211383"><ele>467.5</ele><time>2026-04-11T13:30:10.444Z</time></trkpt><trkpt lat="45.0799333" lon="7.8212333"><ele>467.0</ele><time>2026-04-11T13:30:13.444Z</time></trkpt><trkpt lat="45.079885" lon="7.8213067"><ele>466.5</ele><time>2026-04-11T13:30:15.444Z</time></trkpt><trkpt lat="45.07981" lon="7.8214017"><ele>466.0</ele><time>2026-04-11T13:30:17.444Z</time></trkpt><trkpt lat="45.0797383" lon="7.8214683"><ele>465.5</ele><time>2026-04-11T13:30:19.444Z</time></trkpt><trkpt lat="45.0796467" lon="7.8214967"><ele>465.0</ele><time>2026-04-11T13:30:21.444Z</time></trkpt><trkpt lat="45.0795533" lon="7.8215317"><ele>465.0</ele><time>2026-04-11T13:30:23.444Z</time></trkpt><trkpt lat="45.0794317" lon="7.821575"><ele>465.0</ele><time>2026-04-11T13:30:25.444Z</time></trkpt><trkpt lat="45.0793583" lon="7.821595"><ele>465.0</ele><time>2026-04-11T13:30:26.444Z</time></trkpt><trkpt lat="45.079285" lon="7.8216083"><ele>465.0</ele><time>2026-04-11T13:30:27.444Z</time></trkpt><trkpt lat="45.07922" lon="7.821625"><ele>465.0</ele><time>2026-04-11T13:30:28.444Z</time></trkpt><trkpt lat="45.079155" lon="7.8216283"><ele>465.0</ele><time>2026-04-11T13:30:29.444Z</time></trkpt><trkpt lat="45.0790883" lon="7.8216417"><ele>465.42857142857144</ele><time>2026-04-11T13:30:30.444Z</time></trkpt><trkpt lat="45.0790217" lon="7.8216533"><ele>465.8571428571429</ele><time>2026-04-11T13:30:31.444Z</time></trkpt><trkpt lat="45.07895" lon="7.8216783"><ele>466.28571428571433</ele><time>2026-04-11T13:30:32.444Z</time></trkpt><trkpt lat="45.0788783" lon="7.8217133"><ele>466.7142857142857</ele><time>2026-04-11T13:30:33.444Z</time></trkpt><trkpt lat="45.078815" lon="7.82176"><ele>467.1428571428572</ele><time>2026-04-11T13:30:34.444Z</time></trkpt><trkpt lat="45.0787567" lon="7.8218133"><ele>467.5714285714286</ele><time>2026-04-11T13:30:35.444Z</time></trkpt><trkpt lat="45.0787017" lon="7.8218833"><ele>468.0</ele><time>2026-04-11T13:30:36.444Z</time></trkpt><trkpt lat="45.0786517" lon="7.8219633"><ele>465.8333333333333</ele><time>2026-04-11T13:30:37.444Z</time></trkpt><trkpt lat="45.078605" lon="7.8220417"><ele>463.66666666666663</ele><time>2026-04-11T13:30:38.444Z</time></trkpt><trkpt lat="45.0785667" lon="7.822125"><ele>461.5</ele><time>2026-04-11T13:30:39.444Z</time></trkpt><trkpt lat="45.078535" lon="7.82221"><ele>459.3333333333333</ele><time>2026-04-11T13:30:40.444Z</time></trkpt><trkpt lat="45.0785067" lon="7.8222967"><ele>457.16666666666663</ele><time>2026-04-11T13:30:41.444Z</time></trkpt><trkpt lat="45.0784633" lon="7.822445"><ele>455.0</ele><time>2026-04-11T13:30:43.444Z</time></trkpt><trkpt lat="45.07842" lon="7.8225733"><ele>451.8</ele><time>2026-04-11T13:30:45.444Z</time></trkpt><trkpt lat="45.0783567" lon="7.8226817"><ele>448.6</ele><time>2026-04-11T13:30:47.444Z</time></trkpt><trkpt lat="45.0782667" lon="7.8227483"><ele>445.4</ele><time>2026-04-11T13:30:49.444Z</time></trkpt><trkpt lat="45.0781717" lon="7.82277"><ele>442.2</ele><time>2026-04-11T13:30:51.444Z</time></trkpt><trkpt lat="45.07807" lon="7.8227433"><ele>439.0</ele><time>2026-04-11T13:30:53.445Z</time></trkpt><trkpt lat="45.077955" lon="7.8227133"><ele>438.1428571428571</ele><time>2026-04-11T13:30:55.445Z</time></trkpt><trkpt lat="45.0778883" lon="7.8227017"><ele>437.2857142857143</ele><time>2026-04-11T13:30:56.444Z</time></trkpt><trkpt lat="45.077825" lon="7.822685"><ele>436.42857142857144</ele><time>2026-04-11T13:30:57.444Z</time></trkpt><trkpt lat="45.07776" lon="7.82267"><ele>435.57142857142856</ele><time>2026-04-11T13:30:58.444Z</time></trkpt><trkpt lat="45.077695" lon="7.8226567"><ele>434.7142857142857</ele><time>2026-04-11T13:30:59.444Z</time></trkpt><trkpt lat="45.0776317" lon="7.8226433"><ele>433.85714285714283</ele><time>2026-04-11T13:31:00.444Z</time></trkpt><trkpt lat="45.0775133" lon="7.82262"><ele>433.0</ele><time>2026-04-11T13:31:02.444Z</time></trkpt><trkpt lat="45.0774133" lon="7.822575"><ele>434.79999999999995</ele><time>2026-04-11T13:31:04.444Z</time></trkpt><trkpt lat="45.0773333" lon="7.8225367"><ele>436.59999999999997</ele><time>2026-04-11T13:31:06.444Z</time></trkpt><trkpt lat="45.0772433" lon="7.82255"><ele>438.40000000000003</ele><time>2026-04-11T13:31:08.444Z</time></trkpt><trkpt lat="45.0771483" lon="7.8226283"><ele>440.20000000000005</ele><time>2026-04-11T13:31:10.444Z</time></trkpt><trkpt lat="45.0770467" lon="7.8227083"><ele>442.0</ele><time>2026-04-11T13:31:12.444Z</time></trkpt><trkpt lat="45.076955" lon="7.8228"><ele>442.0</ele><time>2026-04-11T13:31:14.444Z</time></trkpt><trkpt lat="45.07684" lon="7.8228867"><ele>442.00000000000006</ele><time>2026-04-11T13:31:16.444Z</time></trkpt><trkpt lat="45.07677" lon="7.8229333"><ele>442.00000000000006</ele><time>2026-04-11T13:31:17.444Z</time></trkpt><trkpt lat="45.0766933" lon="7.8229867"><ele>442.0</ele><time>2026-04-11T13:31:18.444Z</time></trkpt><trkpt lat="45.0766183" lon="7.823045"><ele>442.0</ele><time>2026-04-11T13:31:19.444Z</time></trkpt><trkpt lat="45.076555" lon="7.8231"><ele>441.42857142857144</ele><time>2026-04-11T13:31:20.444Z</time></trkpt><trkpt lat="45.07649" lon="7.8231483"><ele>440.8571428571429</ele><time>2026-04-11T13:31:21.444Z</time></trkpt><trkpt lat="45.07643" lon="7.8231917"><ele>440.28571428571433</ele><time>2026-04-11T13:31:22.444Z</time></trkpt><trkpt lat="45.0763667" lon="7.8232283"><ele>439.7142857142857</ele><time>2026-04-11T13:31:23.444Z</time></trkpt><trkpt lat="45.0763" lon="7.82327"><ele>439.1428571428571</ele><time>2026-04-11T13:31:24.444Z</time></trkpt><trkpt lat="45.0762383" lon="7.8233133"><ele>438.5714285714286</ele><time>2026-04-11T13:31:25.444Z</time></trkpt><trkpt lat="45.0761733" lon="7.8233467"><ele>438.0</ele><time>2026-04-11T13:31:26.444Z</time></trkpt><trkpt lat="45.076105" lon="7.8233833"><ele>438.0</ele><time>2026-04-11T13:31:27.444Z</time></trkpt><trkpt lat="45.0760433" lon="7.823415"><ele>438.0</ele><time>2026-04-11T13:31:28.444Z</time></trkpt><trkpt lat="45.0759833" lon="7.8234533"><ele>438.0</ele><time>2026-04-11T13:31:29.444Z</time></trkpt><trkpt lat="45.0759217" lon="7.8235"><ele>438.0</ele><time>2026-04-11T13:31:30.444Z</time></trkpt><trkpt lat="45.0758683" lon="7.82356"><ele>438.0</ele><time>2026-04-11T13:31:31.444Z</time></trkpt><trkpt lat="45.0758167" lon="7.8236133"><ele>438.0</ele><time>2026-04-11T13:31:32.444Z</time></trkpt><trkpt lat="45.075765" lon="7.8236717"><ele>438.0</ele><time>2026-04-11T13:31:33.444Z</time></trkpt><trkpt lat="45.0756833" lon="7.823805"><ele>438.0</ele><time>2026-04-11T13:31:35.445Z</time></trkpt><trkpt lat="45.07561" lon="7.823935"><ele>438.0</ele><time>2026-04-11T13:31:37.444Z</time></trkpt><trkpt lat="45.0755733" lon="7.8240083"><ele>438.0</ele><time>2026-04-11T13:31:38.444Z</time></trkpt><trkpt lat="45.0755367" lon="7.8240967"><ele>438.0</ele><time>2026-04-11T13:31:39.444Z</time></trkpt><trkpt lat="45.0754933" lon="7.8241833"><ele>438.0</ele><time>2026-04-11T13:31:40.445Z</time></trkpt><trkpt lat="45.0754567" lon="7.8242633"><ele>438.0</ele><time>2026-04-11T13:31:41.444Z</time></trkpt><trkpt lat="45.0754183" lon="7.82434"><ele>438.0</ele><time>2026-04-11T13:31:42.444Z</time></trkpt><trkpt lat="45.0753733" lon="7.8244133"><ele>438.0</ele><time>2026-04-11T13:31:43.444Z</time></trkpt><trkpt lat="45.0753267" lon="7.8244833"><ele>438.0</ele><time>2026-04-11T13:31:44.444Z</time></trkpt><trkpt lat="45.0752767" lon="7.824545"><ele>438.0</ele><time>2026-04-11T13:31:45.444Z</time></trkpt><trkpt lat="45.075225" lon="7.8246033"><ele>438.0</ele><time>2026-04-11T13:31:46.444Z</time></trkpt><trkpt lat="45.0751683" lon="7.82466"><ele>438.0</ele><time>2026-04-11T13:31:47.444Z</time></trkpt><trkpt lat="45.0751083" lon="7.8247167"><ele>438.0</ele><time>2026-04-11T13:31:48.444Z</time></trkpt><trkpt lat="45.0750467" lon="7.82477"><ele>438.0</ele><time>2026-04-11T13:31:49.444Z</time></trkpt><trkpt lat="45.07498" lon="7.8248117"><ele>438.0</ele><time>2026-04-11T13:31:50.444Z</time></trkpt><trkpt lat="45.07491" lon="7.8248583"><ele>438.0</ele><time>2026-04-11T13:31:51.444Z</time></trkpt><trkpt lat="45.0748417" lon="7.8249"><ele>438.0</ele><time>2026-04-11T13:31:52.444Z</time></trkpt><trkpt lat="45.0747767" lon="7.8249417"><ele>438.0</ele><time>2026-04-11T13:31:53.444Z</time></trkpt><trkpt lat="45.0747083" lon="7.8249867"><ele>438.0</ele><time>2026-04-11T13:31:54.444Z</time></trkpt><trkpt lat="45.07464" lon="7.8250283"><ele>438.0</ele><time>2026-04-11T13:31:55.444Z</time></trkpt><trkpt lat="45.074575" lon="7.825065"><ele>437.7142857142857</ele><time>2026-04-11T13:31:56.444Z</time></trkpt><trkpt lat="45.074515" lon="7.8250967"><ele>437.4285714285714</ele><time>2026-04-11T13:31:57.444Z</time></trkpt><trkpt lat="45.07445" lon="7.8251267"><ele>437.1428571428571</ele><time>2026-04-11T13:31:58.444Z</time></trkpt><trkpt lat="45.07438" lon="7.8251517"><ele>436.8571428571429</ele><time>2026-04-11T13:31:59.444Z</time></trkpt><trkpt lat="45.0743033" lon="7.8251667"><ele>436.57142857142856</ele><time>2026-04-11T13:32:00.444Z</time></trkpt><trkpt lat="45.0742283" lon="7.82517"><ele>436.2857142857143</ele><time>2026-04-11T13:32:01.444Z</time></trkpt><trkpt lat="45.0741517" lon="7.825175"><ele>436.0</ele><time>2026-04-11T13:32:02.444Z</time></trkpt><trkpt lat="45.0740717" lon="7.82518"><ele>435.50000000000006</ele><time>2026-04-11T13:32:03.444Z</time></trkpt><trkpt lat="45.07399" lon="7.825185"><ele>435.0</ele><time>2026-04-11T13:32:04.444Z</time></trkpt><trkpt lat="45.0739083" lon="7.8251917"><ele>434.5</ele><time>2026-04-11T13:32:05.445Z</time></trkpt><trkpt lat="45.0738267" lon="7.8252"><ele>434.0</ele><time>2026-04-11T13:32:06.444Z</time></trkpt><trkpt lat="45.073745" lon="7.8252117"><ele>433.50000000000006</ele><time>2026-04-11T13:32:07.444Z</time></trkpt><trkpt lat="45.0736667" lon="7.8252267"><ele>433.0</ele><time>2026-04-11T13:32:08.444Z</time></trkpt><trkpt lat="45.0735867" lon="7.82524"><ele>433.00000000000006</ele><time>2026-04-11T13:32:09.444Z</time></trkpt><trkpt lat="45.0735083" lon="7.825245"><ele>433.0</ele><time>2026-04-11T13:32:10.445Z</time></trkpt><trkpt lat="45.0734233" lon="7.8252383"><ele>433.0</ele><time>2026-04-11T13:32:11.444Z</time></trkpt><trkpt lat="45.07334" lon="7.8252367"><ele>433.0</ele><time>2026-04-11T13:32:12.444Z</time></trkpt><trkpt lat="45.0732583" lon="7.825235"><ele>433.00000000000006</ele><time>2026-04-11T13:32:13.444Z</time></trkpt><trkpt lat="45.0731767" lon="7.8252333"><ele>433.0</ele><time>2026-04-11T13:32:14.444Z</time></trkpt><trkpt lat="45.073095" lon="7.82523"><ele>430.83333333333337</ele><time>2026-04-11T13:32:15.444Z</time></trkpt><trkpt lat="45.073015" lon="7.8252317"><ele>428.6666666666667</ele><time>2026-04-11T13:32:16.445Z</time></trkpt><trkpt lat="45.07293" lon="7.8252217"><ele>426.5</ele><time>2026-04-11T13:32:17.444Z</time></trkpt><trkpt lat="45.07285" lon="7.8252083"><ele>424.33333333333337</ele><time>2026-04-11T13:32:18.445Z</time></trkpt><trkpt lat="45.07277" lon="7.8252017"><ele>422.1666666666667</ele><time>2026-04-11T13:32:19.444Z</time></trkpt><trkpt lat="45.07269" lon="7.8251917"><ele>420.0</ele><time>2026-04-11T13:32:20.444Z</time></trkpt><trkpt lat="45.0726117" lon="7.8251883"><ele>420.0</ele><time>2026-04-11T13:32:21.444Z</time></trkpt><trkpt lat="45.0725317" lon="7.8251783"><ele>420.0</ele><time>2026-04-11T13:32:22.444Z</time></trkpt><trkpt lat="45.072455" lon="7.8251583"><ele>420.0</ele><time>2026-04-11T13:32:23.444Z</time></trkpt><trkpt lat="45.0723833" lon="7.82513"><ele>420.0</ele><time>2026-04-11T13:32:24.444Z</time></trkpt><trkpt lat="45.0723117" lon="7.825085"><ele>420.0</ele><time>2026-04-11T13:32:25.444Z</time></trkpt><trkpt lat="45.072245" lon="7.825035"><ele>420.0</ele><time>2026-04-11T13:32:26.444Z</time></trkpt><trkpt lat="45.0721783" lon="7.824975"><ele>421.3333333333333</ele><time>2026-04-11T13:32:27.444Z</time></trkpt><trkpt lat="45.072115" lon="7.8249117"><ele>422.66666666666663</ele><time>2026-04-11T13:32:28.444Z</time></trkpt><trkpt lat="45.072055" lon="7.8248417"><ele>424.0</ele><time>2026-04-11T13:32:29.444Z</time></trkpt><trkpt lat="45.07199" lon="7.8247683"><ele>425.3333333333333</ele><time>2026-04-11T13:32:30.444Z</time></trkpt><trkpt lat="45.0719233" lon="7.8246983"><ele>426.66666666666663</ele><time>2026-04-11T13:32:31.444Z</time></trkpt><trkpt lat="45.0718633" lon="7.8246317"><ele>428.0</ele><time>2026-04-11T13:32:32.444Z</time></trkpt><trkpt lat="45.0718067" lon="7.8245617"><ele>427.99999999999994</ele><time>2026-04-11T13:32:33.444Z</time></trkpt><trkpt lat="45.07175" lon="7.8244983"><ele>428.0</ele><time>2026-04-11T13:32:34.444Z</time></trkpt><trkpt lat="45.0716867" lon="7.82443"><ele>428.0</ele><time>2026-04-11T13:32:35.444Z</time></trkpt><trkpt lat="45.0716133" lon="7.8243583"><ele>428.0</ele><time>2026-04-11T13:32:36.444Z</time></trkpt><trkpt lat="45.0715333" lon="7.8242983"><ele>427.99999999999994</ele><time>2026-04-11T13:32:37.444Z</time></trkpt><trkpt lat="45.0714483" lon="7.8242617"><ele>428.0</ele><time>2026-04-11T13:32:38.444Z</time></trkpt><trkpt lat="45.0713667" lon="7.8242483"><ele>429.3333333333333</ele><time>2026-04-11T13:32:39.444Z</time></trkpt><trkpt lat="45.0712733" lon="7.824255"><ele>430.66666666666663</ele><time>2026-04-11T13:32:40.445Z</time></trkpt><trkpt lat="45.071185" lon="7.82427"><ele>432.0</ele><time>2026-04-11T13:32:41.444Z</time></trkpt><trkpt lat="45.0710983" lon="7.8242767"><ele>433.33333333333337</ele><time>2026-04-11T13:32:42.444Z</time></trkpt><trkpt lat="45.0710083" lon="7.82426"><ele>434.6666666666667</ele><time>2026-04-11T13:32:43.444Z</time></trkpt><trkpt lat="45.0709283" lon="7.824215"><ele>436.0</ele><time>2026-04-11T13:32:44.444Z</time></trkpt><trkpt lat="45.0708483" lon="7.8241617"><ele>435.6666666666667</ele><time>2026-04-11T13:32:45.444Z</time></trkpt><trkpt lat="45.07077" lon="7.8241083"><ele>435.33333333333337</ele><time>2026-04-11T13:32:46.444Z</time></trkpt><trkpt lat="45.0706967" lon="7.8240467"><ele>435.0</ele><time>2026-04-11T13:32:47.444Z</time></trkpt><trkpt lat="45.07063" lon="7.823975"><ele>434.66666666666663</ele><time>2026-04-11T13:32:48.444Z</time></trkpt><trkpt lat="45.0705683" lon="7.823885"><ele>434.3333333333333</ele><time>2026-04-11T13:32:49.444Z</time></trkpt><trkpt lat="45.0705" lon="7.8237917"><ele>434.0</ele><time>2026-04-11T13:32:50.444Z</time></trkpt><trkpt lat="45.0704383" lon="7.8237033"><ele>433.99999999999994</ele><time>2026-04-11T13:32:51.444Z</time></trkpt><trkpt lat="45.0703783" lon="7.8236133"><ele>434.0</ele><time>2026-04-11T13:32:52.445Z</time></trkpt><trkpt lat="45.0703117" lon="7.8235367"><ele>434.0</ele><time>2026-04-11T13:32:53.444Z</time></trkpt><trkpt lat="45.0702383" lon="7.8234683"><ele>434.0</ele><time>2026-04-11T13:32:54.444Z</time></trkpt><trkpt lat="45.0701633" lon="7.8234083"><ele>433.99999999999994</ele><time>2026-04-11T13:32:55.444Z</time></trkpt><trkpt lat="45.07009" lon="7.82336"><ele>434.0</ele><time>2026-04-11T13:32:56.444Z</time></trkpt><trkpt lat="45.070015" lon="7.8233267"><ele>432.2857142857143</ele><time>2026-04-11T13:32:57.444Z</time></trkpt><trkpt lat="45.0699383" lon="7.8233067"><ele>430.57142857142856</ele><time>2026-04-11T13:32:58.444Z</time></trkpt><trkpt lat="45.069865" lon="7.8232833"><ele>428.8571428571429</ele><time>2026-04-11T13:32:59.444Z</time></trkpt><trkpt lat="45.0697933" lon="7.8232633"><ele>427.1428571428571</ele><time>2026-04-11T13:33:00.444Z</time></trkpt><trkpt lat="45.069725" lon="7.8232367"><ele>425.42857142857144</ele><time>2026-04-11T13:33:01.444Z</time></trkpt><trkpt lat="45.069655" lon="7.823205"><ele>423.7142857142857</ele><time>2026-04-11T13:33:02.444Z</time></trkpt><trkpt lat="45.0695833" lon="7.8231783"><ele>422.0</ele><time>2026-04-11T13:33:03.444Z</time></trkpt><trkpt lat="45.069515" lon="7.82316"><ele>422.0</ele><time>2026-04-11T13:33:04.444Z</time></trkpt><trkpt lat="45.0694083" lon="7.82315"><ele>422.0</ele><time>2026-04-11T13:33:06.444Z</time></trkpt><trkpt lat="45.069315" lon="7.8231633"><ele>422.0</ele><time>2026-04-11T13:33:08.444Z</time></trkpt><trkpt lat="45.0692167" lon="7.823195"><ele>422.0</ele><time>2026-04-11T13:33:10.444Z</time></trkpt><trkpt lat="45.0690983" lon="7.8232683"><ele>422.0</ele><time>2026-04-11T13:33:12.445Z</time></trkpt><trkpt lat="45.069025" lon="7.8233333"><ele>420.0</ele><time>2026-04-11T13:33:13.444Z</time></trkpt><trkpt lat="45.06896" lon="7.823415"><ele>418.0</ele><time>2026-04-11T13:33:14.444Z</time></trkpt><trkpt lat="45.0688767" lon="7.8235"><ele>416.0</ele><time>2026-04-11T13:33:15.444Z</time></trkpt><trkpt lat="45.0687883" lon="7.8235683"><ele>414.0</ele><time>2026-04-11T13:33:16.444Z</time></trkpt><trkpt lat="45.068685" lon="7.823615"><ele>412.0</ele><time>2026-04-11T13:33:17.444Z</time></trkpt><trkpt lat="45.0685817" lon="7.8236483"><ele>411.0</ele><time>2026-04-11T13:33:18.444Z</time></trkpt><trkpt lat="45.068475" lon="7.8236833"><ele>410.0</ele><time>2026-04-11T13:33:19.444Z</time></trkpt><trkpt lat="45.0683783" lon="7.823715"><ele>409.0</ele><time>2026-04-11T13:33:20.444Z</time></trkpt><trkpt lat="45.0682883" lon="7.8237467"><ele>408.0</ele><time>2026-04-11T13:33:21.444Z</time></trkpt><trkpt lat="45.0682" lon="7.8237733"><ele>407.0</ele><time>2026-04-11T13:33:22.444Z</time></trkpt><trkpt lat="45.0681117" lon="7.823805"><ele>406.49999999999994</ele><time>2026-04-11T13:33:23.444Z</time></trkpt><trkpt lat="45.0680283" lon="7.8238383"><ele>406.0</ele><time>2026-04-11T13:33:24.444Z</time></trkpt><trkpt lat="45.0679567" lon="7.82387"><ele>405.5</ele><time>2026-04-11T13:33:25.444Z</time></trkpt><trkpt lat="45.0678883" lon="7.8239017"><ele>405.0</ele><time>2026-04-11T13:33:26.444Z</time></trkpt><trkpt lat="45.0678217" lon="7.8239367"><ele>404.49999999999994</ele><time>2026-04-11T13:33:27.444Z</time></trkpt><trkpt lat="45.0677483" lon="7.8239683"><ele>404.0</ele><time>2026-04-11T13:33:28.444Z</time></trkpt><trkpt lat="45.0676783" lon="7.824"><ele>404.0</ele><time>2026-04-11T13:33:29.444Z</time></trkpt><trkpt lat="45.06761" lon="7.8240233"><ele>404.0</ele><time>2026-04-11T13:33:30.444Z</time></trkpt><trkpt lat="45.0675367" lon="7.8240333"><ele>404.0</ele><time>2026-04-11T13:33:31.444Z</time></trkpt><trkpt lat="45.067465" lon="7.8240467"><ele>404.0</ele><time>2026-04-11T13:33:32.444Z</time></trkpt><trkpt lat="45.0673967" lon="7.82405"><ele>404.0</ele><time>2026-04-11T13:33:33.444Z</time></trkpt><trkpt lat="45.067325" lon="7.82405"><ele>404.0</ele><time>2026-04-11T13:33:34.444Z</time></trkpt><trkpt lat="45.0672417" lon="7.8240433"><ele>404.0</ele><time>2026-04-11T13:33:35.444Z</time></trkpt><trkpt lat="45.0671533" lon="7.8240417"><ele>403.16666666666663</ele><time>2026-04-11T13:33:36.444Z</time></trkpt><trkpt lat="45.0670717" lon="7.82405"><ele>402.3333333333333</ele><time>2026-04-11T13:33:37.444Z</time></trkpt><trkpt lat="45.06699" lon="7.8240483"><ele>401.5</ele><time>2026-04-11T13:33:38.444Z</time></trkpt><trkpt lat="45.0669083" lon="7.8240467"><ele>400.66666666666663</ele><time>2026-04-11T13:33:39.444Z</time></trkpt><trkpt lat="45.066845" lon="7.8240517"><ele>399.8333333333333</ele><time>2026-04-11T13:33:40.444Z</time></trkpt><trkpt lat="45.0667483" lon="7.82406"><ele>399.0</ele><time>2026-04-11T13:33:42.444Z</time></trkpt><trkpt lat="45.0666417" lon="7.8240617"><ele>397.0</ele><time>2026-04-11T13:33:44.444Z</time></trkpt><trkpt lat="45.0665733" lon="7.824065"><ele>395.0</ele><time>2026-04-11T13:33:45.444Z</time></trkpt><trkpt lat="45.0665" lon="7.8240733"><ele>393.0</ele><time>2026-04-11T13:33:46.444Z</time></trkpt><trkpt lat="45.06642" lon="7.8240783"><ele>391.0</ele><time>2026-04-11T13:33:47.444Z</time></trkpt><trkpt lat="45.0663267" lon="7.82408"><ele>389.0</ele><time>2026-04-11T13:33:48.444Z</time></trkpt><trkpt lat="45.0662283" lon="7.8240883"><ele>387.0</ele><time>2026-04-11T13:33:49.444Z</time></trkpt><trkpt lat="45.066135" lon="7.8241017"><ele>387.0</ele><time>2026-04-11T13:33:50.444Z</time></trkpt><trkpt lat="45.0660517" lon="7.8241217"><ele>387.0</ele><time>2026-04-11T13:33:51.444Z</time></trkpt><trkpt lat="45.0659783" lon="7.8241467"><ele>387.0</ele><time>2026-04-11T13:33:52.444Z</time></trkpt><trkpt lat="45.0659067" lon="7.8241883"><ele>387.0</ele><time>2026-04-11T13:33:53.444Z</time></trkpt><trkpt lat="45.06584" lon="7.8242517"><ele>387.0</ele><time>2026-04-11T13:33:54.445Z</time></trkpt><trkpt lat="45.06578" lon="7.8243267"><ele>387.0</ele><time>2026-04-11T13:33:55.444Z</time></trkpt><trkpt lat="45.0657233" lon="7.8244117"><ele>384.40000000000003</ele><time>2026-04-11T13:33:56.444Z</time></trkpt><trkpt lat="45.065655" lon="7.824495"><ele>381.8</ele><time>2026-04-11T13:33:57.444Z</time></trkpt><trkpt lat="45.0655783" lon="7.8245633"><ele>379.2</ele><time>2026-04-11T13:33:58.444Z</time></trkpt><trkpt lat="45.0654883" lon="7.8246017"><ele>376.6</ele><time>2026-04-11T13:33:59.444Z</time></trkpt><trkpt lat="45.0653883" lon="7.824625"><ele>374.0</ele><time>2026-04-11T13:34:00.444Z</time></trkpt><trkpt lat="45.0652867" lon="7.8246517"><ele>374.0</ele><time>2026-04-11T13:34:01.444Z</time></trkpt><trkpt lat="45.065195" lon="7.8246633"><ele>374.0</ele><time>2026-04-11T13:34:02.444Z</time></trkpt><trkpt lat="45.0651067" lon="7.8246683"><ele>374.0</ele><time>2026-04-11T13:34:03.444Z</time></trkpt><trkpt lat="45.0650167" lon="7.824685"><ele>374.0</ele><time>2026-04-11T13:34:04.444Z</time></trkpt><trkpt lat="45.064905" lon="7.8247183"><ele>374.0</ele><time>2026-04-11T13:34:05.444Z</time></trkpt><trkpt lat="45.0648317" lon="7.8247617"><ele>373.2</ele><time>2026-04-11T13:34:06.444Z</time></trkpt><trkpt lat="45.0647633" lon="7.8248133"><ele>372.4</ele><time>2026-04-11T13:34:07.444Z</time></trkpt><trkpt lat="45.0646633" lon="7.8249083"><ele>371.6</ele><time>2026-04-11T13:34:09.444Z</time></trkpt><trkpt lat="45.0645967" lon="7.824975"><ele>370.8</ele><time>2026-04-11T13:34:11.444Z</time></trkpt><trkpt lat="45.0645383" lon="7.8250717"><ele>370.0</ele><time>2026-04-11T13:34:14.444Z</time></trkpt><trkpt lat="45.064505" lon="7.825195"><ele>370.0</ele><time>2026-04-11T13:34:16.445Z</time></trkpt><trkpt lat="45.06447" lon="7.8253633"><ele>370.0</ele><time>2026-04-11T13:34:18.444Z</time></trkpt><trkpt lat="45.064435" lon="7.8254417"><ele>370.0</ele><time>2026-04-11T13:34:19.444Z</time></trkpt><trkpt lat="45.064375" lon="7.8255783"><ele>370.0</ele><time>2026-04-11T13:34:21.444Z</time></trkpt><trkpt lat="45.06434" lon="7.8256583"><ele>370.0</ele><time>2026-04-11T13:34:22.444Z</time></trkpt><trkpt lat="45.06425" lon="7.8257633"><ele>370.0</ele><time>2026-04-11T13:34:24.444Z</time></trkpt><trkpt lat="45.0641667" lon="7.8258783"><ele>370.0</ele><time>2026-04-11T13:34:26.444Z</time></trkpt><trkpt lat="45.0641617" lon="7.82601"><ele>370.0</ele><time>2026-04-11T13:34:28.444Z</time></trkpt><trkpt lat="45.0642033" lon="7.8261367"><ele>370.0</ele><time>2026-04-11T13:34:30.444Z</time></trkpt><trkpt lat="45.0642767" lon="7.826255"><ele>370.0</ele><time>2026-04-11T13:34:32.445Z</time></trkpt><trkpt lat="45.0643267" lon="7.8263217"><ele>371.4</ele><time>2026-04-11T13:34:33.444Z</time></trkpt><trkpt lat="45.0643933" lon="7.8263867"><ele>372.8</ele><time>2026-04-11T13:34:34.444Z</time></trkpt><trkpt lat="45.0644667" lon="7.8264467"><ele>374.20000000000005</ele><time>2026-04-11T13:34:35.444Z</time></trkpt><trkpt lat="45.0645467" lon="7.8265017"><ele>375.6</ele><time>2026-04-11T13:34:36.444Z</time></trkpt><trkpt lat="45.0646383" lon="7.8265533"><ele>377.0</ele><time>2026-04-11T13:34:37.444Z</time></trkpt><trkpt lat="45.0647333" lon="7.8265883"><ele>377.0</ele><time>2026-04-11T13:34:38.444Z</time></trkpt><trkpt lat="45.06484" lon="7.82661"><ele>377.0</ele><time>2026-04-11T13:34:39.444Z</time></trkpt><trkpt lat="45.0649583" lon="7.8266167"><ele>377.0</ele><time>2026-04-11T13:34:40.444Z</time></trkpt><trkpt lat="45.0650733" lon="7.82663"><ele>377.0</ele><time>2026-04-11T13:34:41.444Z</time></trkpt><trkpt lat="45.065185" lon="7.8266433"><ele>373.6</ele><time>2026-04-11T13:34:42.444Z</time></trkpt><trkpt lat="45.0652917" lon="7.8266217"><ele>370.20000000000005</ele><time>2026-04-11T13:34:43.444Z</time></trkpt><trkpt lat="45.0653833" lon="7.82659"><ele>366.8</ele><time>2026-04-11T13:34:44.444Z</time></trkpt><trkpt lat="45.0654733" lon="7.82655"><ele>363.4</ele><time>2026-04-11T13:34:45.444Z</time></trkpt><trkpt lat="45.065565" lon="7.82652"><ele>360.0</ele><time>2026-04-11T13:34:46.444Z</time></trkpt><trkpt lat="45.0656467" lon="7.8265233"><ele>360.0</ele><time>2026-04-11T13:34:47.444Z</time></trkpt><trkpt lat="45.065735" lon="7.8265633"><ele>360.0</ele><time>2026-04-11T13:34:48.444Z</time></trkpt><trkpt lat="45.0657867" lon="7.82665"><ele>360.0</ele><time>2026-04-11T13:34:49.444Z</time></trkpt><trkpt lat="45.0658217" lon="7.8267617"><ele>360.0</ele><time>2026-04-11T13:34:50.444Z</time></trkpt><trkpt lat="45.0658233" lon="7.82688"><ele>360.0</ele><time>2026-04-11T13:34:51.444Z</time></trkpt><trkpt lat="45.0657783" lon="7.826995"><ele>360.0</ele><time>2026-04-11T13:34:52.445Z</time></trkpt><trkpt lat="45.065705" lon="7.827105"><ele>360.4</ele><time>2026-04-11T13:34:53.444Z</time></trkpt><trkpt lat="45.0656083" lon="7.8271917"><ele>360.8</ele><time>2026-04-11T13:34:54.444Z</time></trkpt><trkpt lat="45.0655233" lon="7.82727"><ele>361.20000000000005</ele><time>2026-04-11T13:34:55.444Z</time></trkpt><trkpt lat="45.0654583" lon="7.8273817"><ele>361.6</ele><time>2026-04-11T13:34:56.444Z</time></trkpt><trkpt lat="45.0654283" lon="7.8275267"><ele>362.0</ele><time>2026-04-11T13:34:57.444Z</time></trkpt><trkpt lat="45.0654317" lon="7.827685"><ele>363.25</ele><time>2026-04-11T13:34:58.444Z</time></trkpt><trkpt lat="45.0654633" lon="7.8278417"><ele>364.5</ele><time>2026-04-11T13:34:59.444Z</time></trkpt><trkpt lat="45.0655083" lon="7.8279867"><ele>365.75</ele><time>2026-04-11T13:35:00.445Z</time></trkpt><trkpt lat="45.0655583" lon="7.828145"><ele>367.0</ele><time>2026-04-11T13:35:01.444Z</time></trkpt><trkpt lat="45.0656133" lon="7.8283033"><ele>367.0</ele><time>2026-04-11T13:35:02.444Z</time></trkpt><trkpt lat="45.065675" lon="7.828465"><ele>367.0</ele><time>2026-04-11T13:35:03.444Z</time></trkpt><trkpt lat="45.0657367" lon="7.8286317"><ele>367.0</ele><time>2026-04-11T13:35:04.444Z</time></trkpt><trkpt lat="45.0657983" lon="7.8287983"><ele>367.0</ele><time>2026-04-11T13:35:05.444Z</time></trkpt><trkpt lat="45.0658717" lon="7.828965"><ele>358.25</ele><time>2026-04-11T13:35:06.444Z</time></trkpt><trkpt lat="45.065945" lon="7.8291183"><ele>349.5</ele><time>2026-04-11T13:35:07.444Z</time></trkpt><trkpt lat="45.0660467" lon="7.8292617"><ele>340.75</ele><time>2026-04-11T13:35:08.444Z</time></trkpt><trkpt lat="45.0661483" lon="7.829415"><ele>332.0</ele><time>2026-04-11T13:35:09.444Z</time></trkpt><trkpt lat="45.0662433" lon="7.82958"><ele>331.6666666666667</ele><time>2026-04-11T13:35:10.444Z</time></trkpt><trkpt lat="45.066315" lon="7.8297833"><ele>331.3333333333333</ele><time>2026-04-11T13:35:11.444Z</time></trkpt><trkpt lat="45.0663533" lon="7.83001"><ele>331.0</ele><time>2026-04-11T13:35:12.444Z</time></trkpt><trkpt lat="45.0663617" lon="7.8302317"><ele>328.0</ele><time>2026-04-11T13:35:13.444Z</time></trkpt><trkpt lat="45.0663717" lon="7.8304383"><ele>325.0</ele><time>2026-04-11T13:35:14.444Z</time></trkpt><trkpt lat="45.0664033" lon="7.830645"><ele>322.0</ele><time>2026-04-11T13:35:15.444Z</time></trkpt><trkpt lat="45.0664717" lon="7.8308217"><ele>319.0</ele><time>2026-04-11T13:35:16.444Z</time></trkpt><trkpt lat="45.0665733" lon="7.8309467"><ele>315.5</ele><time>2026-04-11T13:35:17.444Z</time></trkpt><trkpt lat="45.0666933" lon="7.831035"><ele>312.0</ele><time>2026-04-11T13:35:18.444Z</time></trkpt><trkpt lat="45.0668167" lon="7.8310783"><ele>308.5</ele><time>2026-04-11T13:35:19.444Z</time></trkpt><trkpt lat="45.06694" lon="7.831105"><ele>305.0</ele><time>2026-04-11T13:35:20.444Z</time></trkpt><trkpt lat="45.067055" lon="7.8311517"><ele>305.0</ele><time>2026-04-11T13:35:21.444Z</time></trkpt><trkpt lat="45.0671517" lon="7.8312317"><ele>305.0</ele><time>2026-04-11T13:35:22.444Z</time></trkpt><trkpt lat="45.0672383" lon="7.831335"><ele>305.0</ele><time>2026-04-11T13:35:23.444Z</time></trkpt><trkpt lat="45.0673133" lon="7.8314583"><ele>305.0</ele><time>2026-04-11T13:35:24.444Z</time></trkpt><trkpt lat="45.0673667" lon="7.8315933"><ele>305.0</ele><time>2026-04-11T13:35:25.444Z</time></trkpt><trkpt lat="45.067405" lon="7.83174"><ele>305.8</ele><time>2026-04-11T13:35:26.445Z</time></trkpt><trkpt lat="45.0674267" lon="7.8318967"><ele>306.6</ele><time>2026-04-11T13:35:27.444Z</time></trkpt><trkpt lat="45.0674383" lon="7.83205"><ele>307.4</ele><time>2026-04-11T13:35:28.444Z</time></trkpt><trkpt lat="45.0674417" lon="7.8321967"><ele>308.2</ele><time>2026-04-11T13:35:29.444Z</time></trkpt><trkpt lat="45.06745" lon="7.8323383"><ele>309.0</ele><time>2026-04-11T13:35:30.444Z</time></trkpt><trkpt lat="45.0674483" lon="7.8324733"><ele>309.0</ele><time>2026-04-11T13:35:31.444Z</time></trkpt><trkpt lat="45.0674233" lon="7.832605"><ele>309.0</ele><time>2026-04-11T13:35:32.444Z</time></trkpt><trkpt lat="45.0673833" lon="7.832725"><ele>309.0</ele><time>2026-04-11T13:35:33.444Z</time></trkpt><trkpt lat="45.0673383" lon="7.83284"><ele>309.0</ele><time>2026-04-11T13:35:34.444Z</time></trkpt><trkpt lat="45.0673017" lon="7.8329533"><ele>309.0</ele><time>2026-04-11T13:35:35.444Z</time></trkpt><trkpt lat="45.0672733" lon="7.8330667"><ele>309.0</ele><time>2026-04-11T13:35:36.444Z</time></trkpt><trkpt lat="45.0672517" lon="7.8331833"><ele>309.0</ele><time>2026-04-11T13:35:37.444Z</time></trkpt><trkpt lat="45.067235" lon="7.8332967"><ele>309.0</ele><time>2026-04-11T13:35:38.444Z</time></trkpt><trkpt lat="45.0672283" lon="7.83341"><ele>309.0</ele><time>2026-04-11T13:35:39.444Z</time></trkpt><trkpt lat="45.0672233" lon="7.833515"><ele>309.0</ele><time>2026-04-11T13:35:40.444Z</time></trkpt><trkpt lat="45.0672167" lon="7.8336183"><ele>309.0</ele><time>2026-04-11T13:35:41.444Z</time></trkpt><trkpt lat="45.0672117" lon="7.8337217"><ele>309.4</ele><time>2026-04-11T13:35:42.444Z</time></trkpt><trkpt lat="45.0672083" lon="7.833825"><ele>309.79999999999995</ele><time>2026-04-11T13:35:43.444Z</time></trkpt><trkpt lat="45.067205" lon="7.8339967"><ele>310.20000000000005</ele><time>2026-04-11T13:35:45.445Z</time></trkpt><trkpt lat="45.067205" lon="7.834155"><ele>310.6</ele><time>2026-04-11T13:35:47.444Z</time></trkpt><trkpt lat="45.0672067" lon="7.8342967"><ele>311.0</ele><time>2026-04-11T13:35:49.444Z</time></trkpt><trkpt lat="45.0672117" lon="7.8343967"><ele>311.6666666666667</ele><time>2026-04-11T13:35:51.444Z</time></trkpt><trkpt lat="45.0672283" lon="7.834505"><ele>312.33333333333337</ele><time>2026-04-11T13:35:53.444Z</time></trkpt><trkpt lat="45.0672333" lon="7.8345967"><ele>313.0</ele><time>2026-04-11T13:35:55.445Z</time></trkpt><trkpt lat="45.0672183" lon="7.8347133"><ele>313.6666666666667</ele><time>2026-04-11T13:35:58.444Z</time></trkpt><trkpt lat="45.067185" lon="7.8348283"><ele>314.3333333333333</ele><time>2026-04-11T13:36:01.444Z</time></trkpt><trkpt lat="45.0671517" lon="7.8349317"><ele>315.0</ele><time>2026-04-11T13:36:04.444Z</time></trkpt><trkpt lat="45.0671367" lon="7.83502"><ele>315.0</ele><time>2026-04-11T13:36:06.444Z</time></trkpt><trkpt lat="45.067115" lon="7.835135"><ele>315.0</ele><time>2026-04-11T13:36:08.444Z</time></trkpt><trkpt lat="45.067105" lon="7.83525"><ele>315.0</ele><time>2026-04-11T13:36:10.444Z</time></trkpt><trkpt lat="45.0670833" lon="7.8353583"><ele>315.0</ele><time>2026-04-11T13:36:12.444Z</time></trkpt><trkpt lat="45.0670767" lon="7.835465"><ele>315.0</ele><time>2026-04-11T13:36:14.444Z</time></trkpt><trkpt lat="45.0670733" lon="7.8355967"><ele>315.0</ele><time>2026-04-11T13:36:17.444Z</time></trkpt><trkpt lat="45.0670333" lon="7.8357"><ele>317.0</ele><time>2026-04-11T13:36:20.444Z</time></trkpt><trkpt lat="45.0669617" lon="7.8358033"><ele>319.0</ele><time>2026-04-11T13:36:22.444Z</time></trkpt><trkpt lat="45.0669167" lon="7.835875"><ele>321.0</ele><time>2026-04-11T13:36:23.444Z</time></trkpt><trkpt lat="45.0668683" lon="7.83595"><ele>323.0</ele><time>2026-04-11T13:36:24.444Z</time></trkpt><trkpt lat="45.06681" lon="7.83603"><ele>325.0</ele><time>2026-04-11T13:36:25.444Z</time></trkpt><trkpt lat="45.066755" lon="7.8361217"><ele>327.0</ele><time>2026-04-11T13:36:26.444Z</time></trkpt><trkpt lat="45.0667067" lon="7.8362133"><ele>327.1666666666667</ele><time>2026-04-11T13:36:27.444Z</time></trkpt><trkpt lat="45.066655" lon="7.836305"><ele>327.3333333333333</ele><time>2026-04-11T13:36:28.444Z</time></trkpt><trkpt lat="45.0666067" lon="7.8363833"><ele>327.5</ele><time>2026-04-11T13:36:29.444Z</time></trkpt><trkpt lat="45.066525" lon="7.83649"><ele>327.66666666666663</ele><time>2026-04-11T13:36:31.444Z</time></trkpt><trkpt lat="45.0664583" lon="7.8365917"><ele>327.8333333333333</ele><time>2026-04-11T13:36:33.444Z</time></trkpt><trkpt lat="45.06642" lon="7.8366683"><ele>328.0</ele><time>2026-04-11T13:36:35.444Z</time></trkpt><trkpt lat="45.066365" lon="7.8367617"><ele>325.66666666666663</ele><time>2026-04-11T13:36:38.444Z</time></trkpt><trkpt lat="45.0663117" lon="7.8368817"><ele>323.3333333333333</ele><time>2026-04-11T13:36:41.444Z</time></trkpt><trkpt lat="45.0662417" lon="7.83701"><ele>321.0</ele><time>2026-04-11T13:36:43.444Z</time></trkpt><trkpt lat="45.0662033" lon="7.8370867"><ele>318.6666666666667</ele><time>2026-04-11T13:36:44.444Z</time></trkpt><trkpt lat="45.0661667" lon="7.83717"><ele>316.33333333333337</ele><time>2026-04-11T13:36:45.444Z</time></trkpt><trkpt lat="45.0661233" lon="7.8372533"><ele>314.0</ele><time>2026-04-11T13:36:46.444Z</time></trkpt><trkpt lat="45.0660767" lon="7.8373367"><ele>314.0</ele><time>2026-04-11T13:36:47.444Z</time></trkpt><trkpt lat="45.06603" lon="7.8374233"><ele>314.0</ele><time>2026-04-11T13:36:48.444Z</time></trkpt><trkpt lat="45.0659833" lon="7.8375117"><ele>314.0</ele><time>2026-04-11T13:36:49.444Z</time></trkpt><trkpt lat="45.0659267" lon="7.8375933"><ele>314.0</ele><time>2026-04-11T13:36:50.444Z</time></trkpt><trkpt lat="45.0658683" lon="7.837675"><ele>314.0</ele><time>2026-04-11T13:36:51.444Z</time></trkpt><trkpt lat="45.0658167" lon="7.83775"><ele>314.0</ele><time>2026-04-11T13:36:52.444Z</time></trkpt><trkpt lat="45.065775" lon="7.837825"><ele>314.1428571428571</ele><time>2026-04-11T13:36:53.444Z</time></trkpt><trkpt lat="45.0657433" lon="7.8379083"><ele>314.2857142857143</ele><time>2026-04-11T13:36:54.444Z</time></trkpt><trkpt lat="45.0657233" lon="7.838"><ele>314.42857142857144</ele><time>2026-04-11T13:36:55.444Z</time></trkpt><trkpt lat="45.0657117" lon="7.8381"><ele>314.57142857142856</ele><time>2026-04-11T13:36:56.444Z</time></trkpt><trkpt lat="45.0657167" lon="7.8381933"><ele>314.7142857142857</ele><time>2026-04-11T13:36:57.444Z</time></trkpt><trkpt lat="45.0657333" lon="7.83828"><ele>314.85714285714283</ele><time>2026-04-11T13:36:58.444Z</time></trkpt><trkpt lat="45.065755" lon="7.8383667"><ele>315.0</ele><time>2026-04-11T13:36:59.444Z</time></trkpt><trkpt lat="45.0657817" lon="7.838455"><ele>315.2</ele><time>2026-04-11T13:37:00.444Z</time></trkpt><trkpt lat="45.0658067" lon="7.83854"><ele>315.4</ele><time>2026-04-11T13:37:01.444Z</time></trkpt><trkpt lat="45.0658517" lon="7.838705"><ele>315.6</ele><time>2026-04-11T13:37:03.444Z</time></trkpt><trkpt lat="45.065895" lon="7.8388567"><ele>315.8</ele><time>2026-04-11T13:37:05.444Z</time></trkpt><trkpt lat="45.065935" lon="7.838995"><ele>316.0</ele><time>2026-04-11T13:37:07.444Z</time></trkpt><trkpt lat="45.065955" lon="7.8390833"><ele>316.0</ele><time>2026-04-11T13:37:08.444Z</time></trkpt><trkpt lat="45.0659517" lon="7.8392517"><ele>316.0</ele><time>2026-04-11T13:37:10.444Z</time></trkpt><trkpt lat="45.0659167" lon="7.839345"><ele>316.0</ele><time>2026-04-11T13:37:11.444Z</time></trkpt><trkpt lat="45.0658467" lon="7.8394333"><ele>316.0</ele><time>2026-04-11T13:37:12.444Z</time></trkpt><trkpt lat="45.0657533" lon="7.83951"><ele>316.0</ele><time>2026-04-11T13:37:13.445Z</time></trkpt><trkpt lat="45.0656517" lon="7.8395883"><ele>313.8</ele><time>2026-04-11T13:37:14.444Z</time></trkpt><trkpt lat="45.0655633" lon="7.839685"><ele>311.6</ele><time>2026-04-11T13:37:15.444Z</time></trkpt><trkpt lat="45.0654767" lon="7.83978"><ele>309.4</ele><time>2026-04-11T13:37:16.444Z</time></trkpt><trkpt lat="45.0653917" lon="7.8398733"><ele>307.2</ele><time>2026-04-11T13:37:17.444Z</time></trkpt><trkpt lat="45.0653183" lon="7.8399833"><ele>305.0</ele><time>2026-04-11T13:37:18.444Z</time></trkpt><trkpt lat="45.065275" lon="7.8401183"><ele>304.0</ele><time>2026-04-11T13:37:19.444Z</time></trkpt><trkpt lat="45.0652533" lon="7.8402717"><ele>303.0</ele><time>2026-04-11T13:37:20.444Z</time></trkpt><trkpt lat="45.06525" lon="7.84043"><ele>302.0</ele><time>2026-04-11T13:37:21.444Z</time></trkpt><trkpt lat="45.06526" lon="7.840595"><ele>301.0</ele><time>2026-04-11T13:37:22.444Z</time></trkpt><trkpt lat="45.0652767" lon="7.8407467"><ele>300.0</ele><time>2026-04-11T13:37:23.444Z</time></trkpt><trkpt lat="45.0653067" lon="7.84091"><ele>299.0</ele><time>2026-04-11T13:37:24.444Z</time></trkpt><trkpt lat="45.0653383" lon="7.8410617"><ele>298.0</ele><time>2026-04-11T13:37:25.444Z</time></trkpt><trkpt lat="45.065365" lon="7.8412017"><ele>297.0</ele><time>2026-04-11T13:37:26.444Z</time></trkpt><trkpt lat="45.0653883" lon="7.841345"><ele>296.0</ele><time>2026-04-11T13:37:27.444Z</time></trkpt><trkpt lat="45.0654233" lon="7.8414667"><ele>295.0</ele><time>2026-04-11T13:37:28.444Z</time></trkpt><trkpt lat="45.0654517" lon="7.8415717"><ele>295.00000000000006</ele><time>2026-04-11T13:37:29.444Z</time></trkpt><trkpt lat="45.0654667" lon="7.84166"><ele>295.0</ele><time>2026-04-11T13:37:30.444Z</time></trkpt><trkpt lat="45.0654683" lon="7.8417583"><ele>295.0</ele><time>2026-04-11T13:37:31.444Z</time></trkpt><trkpt lat="45.0654767" lon="7.8418517"><ele>295.0</ele><time>2026-04-11T13:37:32.444Z</time></trkpt><trkpt lat="45.0655017" lon="7.8419417"><ele>295.0</ele><time>2026-04-11T13:37:33.444Z</time></trkpt><trkpt lat="45.0655567" lon="7.842005"><ele>295.00000000000006</ele><time>2026-04-11T13:37:34.444Z</time></trkpt><trkpt lat="45.0656217" lon="7.8420233"><ele>295.0</ele><time>2026-04-11T13:37:35.444Z</time></trkpt><trkpt lat="45.0657367" lon="7.8419717"><ele>294.8571428571429</ele><time>2026-04-11T13:37:37.444Z</time></trkpt><trkpt lat="45.0657967" lon="7.841925"><ele>294.7142857142857</ele><time>2026-04-11T13:37:38.444Z</time></trkpt><trkpt lat="45.0658633" lon="7.841905"><ele>294.57142857142856</ele><time>2026-04-11T13:37:39.444Z</time></trkpt><trkpt lat="45.0659333" lon="7.8418917"><ele>294.42857142857144</ele><time>2026-04-11T13:37:40.444Z</time></trkpt><trkpt lat="45.0660033" lon="7.8418867"><ele>294.2857142857143</ele><time>2026-04-11T13:37:41.444Z</time></trkpt><trkpt lat="45.06607" lon="7.84188"><ele>294.14285714285717</ele><time>2026-04-11T13:37:42.444Z</time></trkpt><trkpt lat="45.0661333" lon="7.8418733"><ele>294.0</ele><time>2026-04-11T13:37:43.445Z</time></trkpt><trkpt lat="45.066255" lon="7.8418617"><ele>294.0</ele><time>2026-04-11T13:37:45.444Z</time></trkpt><trkpt lat="45.06636" lon="7.8418567"><ele>294.0</ele><time>2026-04-11T13:37:47.444Z</time></trkpt><trkpt lat="45.066465" lon="7.8418467"><ele>294.0</ele><time>2026-04-11T13:37:49.444Z</time></trkpt><trkpt lat="45.066565" lon="7.84184"><ele>294.0</ele><time>2026-04-11T13:37:51.444Z</time></trkpt><trkpt lat="45.066665" lon="7.8418417"><ele>294.0</ele><time>2026-04-11T13:37:53.443Z</time></trkpt><trkpt lat="45.0667733" lon="7.8418533"><ele>294.4</ele><time>2026-04-11T13:37:55.443Z</time></trkpt><trkpt lat="45.0668733" lon="7.8418567"><ele>294.79999999999995</ele><time>2026-04-11T13:37:57.443Z</time></trkpt><trkpt lat="45.06696" lon="7.8419033"><ele>295.20000000000005</ele><time>2026-04-11T13:37:59.443Z</time></trkpt><trkpt lat="45.067015" lon="7.8420167"><ele>295.6</ele><time>2026-04-11T13:38:01.443Z</time></trkpt><trkpt lat="45.0670117" lon="7.84219"><ele>296.0</ele><time>2026-04-11T13:38:03.443Z</time></trkpt><trkpt lat="45.0669967" lon="7.8423483"><ele>296.0</ele><time>2026-04-11T13:38:05.443Z</time></trkpt><trkpt lat="45.0669817" lon="7.8424983"><ele>296.0</ele><time>2026-04-11T13:38:07.443Z</time></trkpt><trkpt lat="45.06699" lon="7.8426383"><ele>296.0</ele><time>2026-04-11T13:38:09.443Z</time></trkpt><trkpt lat="45.0670033" lon="7.8427817"><ele>296.0</ele><time>2026-04-11T13:38:11.443Z</time></trkpt><trkpt lat="45.0670183" lon="7.8429367"><ele>296.0</ele><time>2026-04-11T13:38:13.443Z</time></trkpt><trkpt lat="45.067025" lon="7.8430783"><ele>296.40000000000003</ele><time>2026-04-11T13:38:15.443Z</time></trkpt><trkpt lat="45.0670333" lon="7.84322"><ele>296.8</ele><time>2026-04-11T13:38:17.443Z</time></trkpt><trkpt lat="45.06705" lon="7.8433583"><ele>297.20000000000005</ele><time>2026-04-11T13:38:19.443Z</time></trkpt><trkpt lat="45.0670633" lon="7.8434967"><ele>297.6</ele><time>2026-04-11T13:38:21.443Z</time></trkpt><trkpt lat="45.0670717" lon="7.8436283"><ele>298.0</ele><time>2026-04-11T13:38:23.443Z</time></trkpt><trkpt lat="45.0670767" lon="7.8437683"><ele>298.16666666666663</ele><time>2026-04-11T13:38:25.443Z</time></trkpt><trkpt lat="45.0670833" lon="7.8439083"><ele>298.3333333333333</ele><time>2026-04-11T13:38:27.443Z</time></trkpt><trkpt lat="45.0670933" lon="7.8440333"><ele>298.5</ele><time>2026-04-11T13:38:29.444Z</time></trkpt><trkpt lat="45.0670917" lon="7.8441283"><ele>298.6666666666667</ele><time>2026-04-11T13:38:31.443Z</time></trkpt><trkpt lat="45.0671" lon="7.8442367"><ele>298.83333333333337</ele><time>2026-04-11T13:38:34.443Z</time></trkpt><trkpt lat="45.0671033" lon="7.844365"><ele>299.0</ele><time>2026-04-11T13:38:37.443Z</time></trkpt><trkpt lat="45.0671167" lon="7.84448"><ele>300.6666666666667</ele><time>2026-04-11T13:38:40.443Z</time></trkpt><trkpt lat="45.0671483" lon="7.8446067"><ele>302.33333333333337</ele><time>2026-04-11T13:38:43.444Z</time></trkpt><trkpt lat="45.06712" lon="7.8447283"><ele>304.0</ele><time>2026-04-11T13:38:46.443Z</time></trkpt><trkpt lat="45.0670717" lon="7.8447967"><ele>305.6666666666667</ele><time>2026-04-11T13:38:48.443Z</time></trkpt><trkpt lat="45.0670033" lon="7.8448833"><ele>307.3333333333333</ele><time>2026-04-11T13:38:51.443Z</time></trkpt><trkpt lat="45.0669317" lon="7.8449617"><ele>309.0</ele><time>2026-04-11T13:38:54.443Z</time></trkpt><trkpt lat="45.0668683" lon="7.8450267"><ele>309.0</ele><time>2026-04-11T13:38:57.443Z</time></trkpt><trkpt lat="45.066795" lon="7.84509"><ele>309.0</ele><time>2026-04-11T13:39:00.443Z</time></trkpt><trkpt lat="45.0667367" lon="7.8451633"><ele>309.0</ele><time>2026-04-11T13:39:03.443Z</time></trkpt><trkpt lat="45.0666617" lon="7.8452467"><ele>309.0</ele><time>2026-04-11T13:39:06.443Z</time></trkpt><trkpt lat="45.0666033" lon="7.845295"><ele>309.0</ele><time>2026-04-11T13:39:08.443Z</time></trkpt><trkpt lat="45.0665317" lon="7.8453783"><ele>309.0</ele><time>2026-04-11T13:39:11.443Z</time></trkpt><trkpt lat="45.06648" lon="7.8454333"><ele>310.8333333333333</ele><time>2026-04-11T13:39:13.444Z</time></trkpt><trkpt lat="45.066405" lon="7.8455"><ele>312.6666666666667</ele><time>2026-04-11T13:39:16.443Z</time></trkpt><trkpt lat="45.06633" lon="7.8455717"><ele>314.5</ele><time>2026-04-11T13:39:19.443Z</time></trkpt><trkpt lat="45.0662767" lon="7.84562"><ele>316.33333333333337</ele><time>2026-04-11T13:39:21.444Z</time></trkpt><trkpt lat="45.0662033" lon="7.845695"><ele>318.1666666666667</ele><time>2026-04-11T13:39:24.443Z</time></trkpt><trkpt lat="45.0661317" lon="7.845765"><ele>320.0</ele><time>2026-04-11T13:39:27.443Z</time></trkpt><trkpt lat="45.066055" lon="7.8458383"><ele>320.0</ele><time>2026-04-11T13:39:30.443Z</time></trkpt><trkpt lat="45.0659783" lon="7.8459017"><ele>320.0</ele><time>2026-04-11T13:39:33.443Z</time></trkpt><trkpt lat="45.0659133" lon="7.8459683"><ele>320.0</ele><time>2026-04-11T13:39:36.443Z</time></trkpt><trkpt lat="45.0658417" lon="7.84604"><ele>320.0</ele><time>2026-04-11T13:39:39.443Z</time></trkpt><trkpt lat="45.0657667" lon="7.8461217"><ele>320.0</ele><time>2026-04-11T13:39:42.443Z</time></trkpt><trkpt lat="45.0657067" lon="7.8461683"><ele>320.0</ele><time>2026-04-11T13:39:44.443Z</time></trkpt><trkpt lat="45.0656433" lon="7.8462283"><ele>321.1666666666667</ele><time>2026-04-11T13:39:46.443Z</time></trkpt><trkpt lat="45.065585" lon="7.8462817"><ele>322.33333333333337</ele><time>2026-04-11T13:39:48.443Z</time></trkpt><trkpt lat="45.065525" lon="7.84634"><ele>323.5</ele><time>2026-04-11T13:39:50.443Z</time></trkpt><trkpt lat="45.06547" lon="7.8463883"><ele>324.6666666666667</ele><time>2026-04-11T13:39:52.443Z</time></trkpt><trkpt lat="45.0653933" lon="7.8464633"><ele>325.8333333333333</ele><time>2026-04-11T13:39:55.443Z</time></trkpt><trkpt lat="45.0653117" lon="7.8465483"><ele>327.0</ele><time>2026-04-11T13:39:58.443Z</time></trkpt><trkpt lat="45.0652517" lon="7.8465983"><ele>327.0</ele><time>2026-04-11T13:40:00.443Z</time></trkpt><trkpt lat="45.0651883" lon="7.8466567"><ele>327.0</ele><time>2026-04-11T13:40:02.443Z</time></trkpt><trkpt lat="45.0651283" lon="7.8467167"><ele>327.0</ele><time>2026-04-11T13:40:04.443Z</time></trkpt><trkpt lat="45.0650767" lon="7.8467717"><ele>327.0</ele><time>2026-04-11T13:40:06.443Z</time></trkpt><trkpt lat="45.0650233" lon="7.846825"><ele>327.0</ele><time>2026-04-11T13:40:08.443Z</time></trkpt><trkpt lat="45.0649417" lon="7.8469"><ele>327.0</ele><time>2026-04-11T13:40:11.443Z</time></trkpt><trkpt lat="45.0648933" lon="7.8469817"><ele>326.5</ele><time>2026-04-11T13:40:13.443Z</time></trkpt><trkpt lat="45.06485" lon="7.84706"><ele>326.0</ele><time>2026-04-11T13:40:15.443Z</time></trkpt><trkpt lat="45.06481" lon="7.847155"><ele>325.5</ele><time>2026-04-11T13:40:17.443Z</time></trkpt><trkpt lat="45.06478" lon="7.8472633"><ele>325.0</ele><time>2026-04-11T13:40:19.443Z</time></trkpt><trkpt lat="45.0647617" lon="7.8473817"><ele>324.5</ele><time>2026-04-11T13:40:21.443Z</time></trkpt><trkpt lat="45.064745" lon="7.8474967"><ele>324.0</ele><time>2026-04-11T13:40:23.443Z</time></trkpt><trkpt lat="45.06472" lon="7.8476083"><ele>326.3333333333333</ele><time>2026-04-11T13:40:25.443Z</time></trkpt><trkpt lat="45.06469" lon="7.8477217"><ele>328.6666666666667</ele><time>2026-04-11T13:40:27.443Z</time></trkpt><trkpt lat="45.0646633" lon="7.8478317"><ele>331.0</ele><time>2026-04-11T13:40:29.443Z</time></trkpt><trkpt lat="45.064625" lon="7.8479383"><ele>333.33333333333337</ele><time>2026-04-11T13:40:31.443Z</time></trkpt><trkpt lat="45.0645867" lon="7.8480317"><ele>335.6666666666667</ele><time>2026-04-11T13:40:33.443Z</time></trkpt><trkpt lat="45.0645417" lon="7.848125"><ele>338.0</ele><time>2026-04-11T13:40:35.443Z</time></trkpt><trkpt lat="45.0645017" lon="7.84822"><ele>338.0</ele><time>2026-04-11T13:40:37.443Z</time></trkpt><trkpt lat="45.06446" lon="7.84832"><ele>338.0</ele><time>2026-04-11T13:40:39.443Z</time></trkpt><trkpt lat="45.0643933" lon="7.8484717"><ele>338.0</ele><time>2026-04-11T13:40:42.443Z</time></trkpt><trkpt lat="45.06434" lon="7.8485767"><ele>338.0</ele><time>2026-04-11T13:40:44.443Z</time></trkpt><trkpt lat="45.0643017" lon="7.8486733"><ele>338.0</ele><time>2026-04-11T13:40:46.443Z</time></trkpt><trkpt lat="45.0642733" lon="7.8487833"><ele>340.1666666666667</ele><time>2026-04-11T13:40:48.443Z</time></trkpt><trkpt lat="45.06425" lon="7.8488867"><ele>342.33333333333337</ele><time>2026-04-11T13:40:50.443Z</time></trkpt><trkpt lat="45.0642283" lon="7.8489933"><ele>344.5</ele><time>2026-04-11T13:40:52.443Z</time></trkpt><trkpt lat="45.064215" lon="7.8491"><ele>346.6666666666667</ele><time>2026-04-11T13:40:54.443Z</time></trkpt><trkpt lat="45.0642117" lon="7.8492133"><ele>348.8333333333333</ele><time>2026-04-11T13:40:56.443Z</time></trkpt><trkpt lat="45.0641983" lon="7.84933"><ele>351.0</ele><time>2026-04-11T13:40:58.443Z</time></trkpt><trkpt lat="45.0642067" lon="7.84944"><ele>351.5714285714286</ele><time>2026-04-11T13:41:00.443Z</time></trkpt><trkpt lat="45.0642367" lon="7.849535"><ele>352.14285714285717</ele><time>2026-04-11T13:41:02.443Z</time></trkpt><trkpt lat="45.0642767" lon="7.8496167"><ele>352.7142857142857</ele><time>2026-04-11T13:41:04.443Z</time></trkpt><trkpt lat="45.06433" lon="7.8496933"><ele>353.28571428571433</ele><time>2026-04-11T13:41:06.443Z</time></trkpt><trkpt lat="45.0643867" lon="7.84976"><ele>353.8571428571429</ele><time>2026-04-11T13:41:08.443Z</time></trkpt><trkpt lat="45.0644183" lon="7.849845"><ele>354.42857142857144</ele><time>2026-04-11T13:41:12.443Z</time></trkpt><trkpt lat="45.064335" lon="7.8498367"><ele>355.0</ele><time>2026-04-11T13:41:21.443Z</time></trkpt><trkpt lat="45.06427" lon="7.8497883"><ele>355.0</ele><time>2026-04-11T13:41:26.443Z</time></trkpt><trkpt lat="45.0641867" lon="7.8497717"><ele>355.0</ele><time>2026-04-11T13:41:49.443Z</time></trkpt><trkpt lat="45.06411" lon="7.8497383"><ele>355.0</ele><time>2026-04-11T13:41:51.443Z</time></trkpt><trkpt lat="45.0640133" lon="7.8496967"><ele>355.0</ele><time>2026-04-11T13:41:53.443Z</time></trkpt><trkpt lat="45.0639167" lon="7.8496567"><ele>355.0</ele><time>2026-04-11T13:41:55.443Z</time></trkpt><trkpt lat="45.0638167" lon="7.8496583"><ele>356.3333333333333</ele><time>2026-04-11T13:41:57.443Z</time></trkpt><trkpt lat="45.063735" lon="7.849675"><ele>357.66666666666663</ele><time>2026-04-11T13:41:59.443Z</time></trkpt><trkpt lat="45.0636633" lon="7.8496917"><ele>359.0</ele><time>2026-04-11T13:42:01.443Z</time></trkpt><trkpt lat="45.0635717" lon="7.8497083"><ele>360.3333333333333</ele><time>2026-04-11T13:42:03.443Z</time></trkpt><trkpt lat="45.0634983" lon="7.849745"><ele>361.6666666666667</ele><time>2026-04-11T13:42:05.444Z</time></trkpt><trkpt lat="45.0634317" lon="7.8497817"><ele>363.0</ele><time>2026-04-11T13:42:07.443Z</time></trkpt><trkpt lat="45.0633733" lon="7.8498217"><ele>362.99999999999994</ele><time>2026-04-11T13:42:09.443Z</time></trkpt><trkpt lat="45.063315" lon="7.849865"><ele>363.0</ele><time>2026-04-11T13:42:11.443Z</time></trkpt><trkpt lat="45.0632467" lon="7.84995"><ele>363.0</ele><time>2026-04-11T13:42:14.443Z</time></trkpt><trkpt lat="45.0631917" lon="7.8500133"><ele>363.0</ele><time>2026-04-11T13:42:16.443Z</time></trkpt><trkpt lat="45.0631367" lon="7.85008"><ele>363.0</ele><time>2026-04-11T13:42:18.444Z</time></trkpt><trkpt lat="45.0630817" lon="7.8501517"><ele>362.99999999999994</ele><time>2026-04-11T13:42:20.443Z</time></trkpt><trkpt lat="45.063035" lon="7.85022"><ele>363.0</ele><time>2026-04-11T13:42:22.443Z</time></trkpt><trkpt lat="45.0629867" lon="7.8503017"><ele>363.1666666666667</ele><time>2026-04-11T13:42:24.443Z</time></trkpt><trkpt lat="45.0629317" lon="7.850375"><ele>363.3333333333333</ele><time>2026-04-11T13:42:26.443Z</time></trkpt><trkpt lat="45.0628733" lon="7.8504517"><ele>363.5</ele><time>2026-04-11T13:42:28.443Z</time></trkpt><trkpt lat="45.0628067" lon="7.850535"><ele>363.66666666666663</ele><time>2026-04-11T13:42:30.443Z</time></trkpt><trkpt lat="45.06274" lon="7.8506217"><ele>363.8333333333333</ele><time>2026-04-11T13:42:32.443Z</time></trkpt><trkpt lat="45.0626717" lon="7.85071"><ele>364.0</ele><time>2026-04-11T13:42:34.443Z</time></trkpt><trkpt lat="45.0625933" lon="7.85082"><ele>364.0</ele><time>2026-04-11T13:42:36.443Z</time></trkpt><trkpt lat="45.0625133" lon="7.8509367"><ele>364.0</ele><time>2026-04-11T13:42:38.443Z</time></trkpt><trkpt lat="45.062455" lon="7.8510367"><ele>364.0</ele><time>2026-04-11T13:42:40.443Z</time></trkpt><trkpt lat="45.0623883" lon="7.8511283"><ele>364.0</ele><time>2026-04-11T13:42:42.443Z</time></trkpt><trkpt lat="45.06233" lon="7.8512133"><ele>364.0</ele><time>2026-04-11T13:42:44.443Z</time></trkpt><trkpt lat="45.06228" lon="7.8512917"><ele>363.8333333333333</ele><time>2026-04-11T13:42:46.443Z</time></trkpt><trkpt lat="45.06223" lon="7.8513817"><ele>363.66666666666663</ele><time>2026-04-11T13:42:49.443Z</time></trkpt><trkpt lat="45.0621633" lon="7.8514767"><ele>363.5</ele><time>2026-04-11T13:42:52.443Z</time></trkpt><trkpt lat="45.0620983" lon="7.85154"><ele>363.3333333333333</ele><time>2026-04-11T13:42:54.443Z</time></trkpt><trkpt lat="45.0620317" lon="7.8516017"><ele>363.1666666666667</ele><time>2026-04-11T13:42:56.443Z</time></trkpt><trkpt lat="45.0619417" lon="7.8516967"><ele>363.0</ele><time>2026-04-11T13:42:58.443Z</time></trkpt><trkpt lat="45.0618617" lon="7.8517583"><ele>361.5</ele><time>2026-04-11T13:43:00.443Z</time></trkpt><trkpt lat="45.061795" lon="7.8518467"><ele>360.0</ele><time>2026-04-11T13:43:02.443Z</time></trkpt><trkpt lat="45.0616983" lon="7.8519683"><ele>358.5</ele><time>2026-04-11T13:43:04.443Z</time></trkpt><trkpt lat="45.0616417" lon="7.852025"><ele>357.0</ele><time>2026-04-11T13:43:05.443Z</time></trkpt><trkpt lat="45.0615867" lon="7.8520917"><ele>355.5</ele><time>2026-04-11T13:43:06.443Z</time></trkpt><trkpt lat="45.0615333" lon="7.8521567"><ele>354.0</ele><time>2026-04-11T13:43:07.443Z</time></trkpt><trkpt lat="45.061485" lon="7.8522183"><ele>354.0</ele><time>2026-04-11T13:43:08.443Z</time></trkpt><trkpt lat="45.0613883" lon="7.85233"><ele>354.0</ele><time>2026-04-11T13:43:10.443Z</time></trkpt><trkpt lat="45.061295" lon="7.852445"><ele>354.0</ele><time>2026-04-11T13:43:12.444Z</time></trkpt><trkpt lat="45.0612067" lon="7.8525517"><ele>354.0</ele><time>2026-04-11T13:43:14.443Z</time></trkpt><trkpt lat="45.0611133" lon="7.8526617"><ele>353.42857142857144</ele><time>2026-04-11T13:43:16.443Z</time></trkpt><trkpt lat="45.0610617" lon="7.85272"><ele>352.85714285714283</ele><time>2026-04-11T13:43:17.443Z</time></trkpt><trkpt lat="45.061005" lon="7.852785"><ele>352.2857142857143</ele><time>2026-04-11T13:43:18.443Z</time></trkpt><trkpt lat="45.0609483" lon="7.8528383"><ele>351.7142857142857</ele><time>2026-04-11T13:43:19.444Z</time></trkpt><trkpt lat="45.060895" lon="7.8528917"><ele>351.1428571428571</ele><time>2026-04-11T13:43:20.443Z</time></trkpt><trkpt lat="45.060845" lon="7.8529517"><ele>350.57142857142856</ele><time>2026-04-11T13:43:21.444Z</time></trkpt><trkpt lat="45.0607967" lon="7.8530117"><ele>350.0</ele><time>2026-04-11T13:43:22.443Z</time></trkpt><trkpt lat="45.060745" lon="7.8530633"><ele>349.83333333333337</ele><time>2026-04-11T13:43:23.443Z</time></trkpt><trkpt lat="45.060695" lon="7.8531217"><ele>349.6666666666667</ele><time>2026-04-11T13:43:24.443Z</time></trkpt><trkpt lat="45.060645" lon="7.85318"><ele>349.5</ele><time>2026-04-11T13:43:25.444Z</time></trkpt><trkpt lat="45.0605433" lon="7.8532867"><ele>349.3333333333333</ele><time>2026-04-11T13:43:27.443Z</time></trkpt><trkpt lat="45.060495" lon="7.8533467"><ele>349.16666666666663</ele><time>2026-04-11T13:43:28.443Z</time></trkpt><trkpt lat="45.060445" lon="7.8534017"><ele>349.0</ele><time>2026-04-11T13:43:29.443Z</time></trkpt><trkpt lat="45.0603717" lon="7.853485"><ele>348.79999999999995</ele><time>2026-04-11T13:43:31.443Z</time></trkpt><trkpt lat="45.0602733" lon="7.8535417"><ele>348.59999999999997</ele><time>2026-04-11T13:43:33.443Z</time></trkpt><trkpt lat="45.060145" lon="7.853585"><ele>348.4</ele><time>2026-04-11T13:43:35.443Z</time></trkpt><trkpt lat="45.0600683" lon="7.8536083"><ele>348.2</ele><time>2026-04-11T13:43:36.443Z</time></trkpt><trkpt lat="45.05998" lon="7.8536317"><ele>348.0</ele><time>2026-04-11T13:43:37.443Z</time></trkpt><trkpt lat="45.0598933" lon="7.8536667"><ele>348.0</ele><time>2026-04-11T13:43:38.443Z</time></trkpt><trkpt lat="45.0598017" lon="7.8537017"><ele>348.0</ele><time>2026-04-11T13:43:39.443Z</time></trkpt><trkpt lat="45.0597117" lon="7.8537417"><ele>348.0</ele><time>2026-04-11T13:43:40.443Z</time></trkpt><trkpt lat="45.0596283" lon="7.8537783"><ele>348.0</ele><time>2026-04-11T13:43:41.443Z</time></trkpt><trkpt lat="45.0595433" lon="7.853815"><ele>348.0</ele><time>2026-04-11T13:43:42.444Z</time></trkpt><trkpt lat="45.05946" lon="7.8538583"><ele>348.0</ele><time>2026-04-11T13:43:43.443Z</time></trkpt><trkpt lat="45.0593733" lon="7.8539083"><ele>348.0</ele><time>2026-04-11T13:43:44.443Z</time></trkpt><trkpt lat="45.0592867" lon="7.853965"><ele>348.0</ele><time>2026-04-11T13:43:45.443Z</time></trkpt><trkpt lat="45.05921" lon="7.854035"><ele>348.0</ele><time>2026-04-11T13:43:46.443Z</time></trkpt><trkpt lat="45.0591283" lon="7.8541117"><ele>348.0</ele><time>2026-04-11T13:43:47.443Z</time></trkpt><trkpt lat="45.059055" lon="7.8541833"><ele>346.0</ele><time>2026-04-11T13:43:48.444Z</time></trkpt><trkpt lat="45.0589783" lon="7.8542517"><ele>344.0</ele><time>2026-04-11T13:43:49.443Z</time></trkpt><trkpt lat="45.0589083" lon="7.85433"><ele>342.0</ele><time>2026-04-11T13:43:50.443Z</time></trkpt><trkpt lat="45.058835" lon="7.8544133"><ele>340.0</ele><time>2026-04-11T13:43:51.443Z</time></trkpt><trkpt lat="45.058755" lon="7.8545017"><ele>338.0</ele><time>2026-04-11T13:43:52.443Z</time></trkpt><trkpt lat="45.05868" lon="7.8546017"><ele>338.0</ele><time>2026-04-11T13:43:53.443Z</time></trkpt><trkpt lat="45.0586167" lon="7.8547117"><ele>338.0</ele><time>2026-04-11T13:43:54.443Z</time></trkpt><trkpt lat="45.05856" lon="7.854825"><ele>338.0</ele><time>2026-04-11T13:43:55.443Z</time></trkpt><trkpt lat="45.05852" lon="7.8549383"><ele>338.0</ele><time>2026-04-11T13:43:56.443Z</time></trkpt><trkpt lat="45.058495" lon="7.8550683"><ele>338.0</ele><time>2026-04-11T13:43:57.443Z</time></trkpt><trkpt lat="45.05847" lon="7.8551967"><ele>338.4</ele><time>2026-04-11T13:43:58.443Z</time></trkpt><trkpt lat="45.05844" lon="7.855325"><ele>338.79999999999995</ele><time>2026-04-11T13:43:59.444Z</time></trkpt><trkpt lat="45.0584183" lon="7.85545"><ele>339.2</ele><time>2026-04-11T13:44:00.443Z</time></trkpt><trkpt lat="45.0583933" lon="7.8555717"><ele>339.6</ele><time>2026-04-11T13:44:01.443Z</time></trkpt><trkpt lat="45.05836" lon="7.8556933"><ele>340.0</ele><time>2026-04-11T13:44:02.443Z</time></trkpt><trkpt lat="45.05831" lon="7.8557883"><ele>338.4</ele><time>2026-04-11T13:44:03.443Z</time></trkpt><trkpt lat="45.0582367" lon="7.8558717"><ele>336.8</ele><time>2026-04-11T13:44:04.443Z</time></trkpt><trkpt lat="45.0581567" lon="7.8559533"><ele>335.20000000000005</ele><time>2026-04-11T13:44:05.443Z</time></trkpt><trkpt lat="45.05807" lon="7.8560217"><ele>333.6</ele><time>2026-04-11T13:44:06.443Z</time></trkpt><trkpt lat="45.0579833" lon="7.85608"><ele>332.0</ele><time>2026-04-11T13:44:07.443Z</time></trkpt><trkpt lat="45.0579" lon="7.8561333"><ele>332.0</ele><time>2026-04-11T13:44:08.443Z</time></trkpt><trkpt lat="45.05781" lon="7.8561883"><ele>332.0</ele><time>2026-04-11T13:44:09.443Z</time></trkpt><trkpt lat="45.0577317" lon="7.8562333"><ele>332.0</ele><time>2026-04-11T13:44:10.444Z</time></trkpt><trkpt lat="45.0576467" lon="7.8562783"><ele>332.0</ele><time>2026-04-11T13:44:11.443Z</time></trkpt><trkpt lat="45.057565" lon="7.85632"><ele>332.0</ele><time>2026-04-11T13:44:12.443Z</time></trkpt><trkpt lat="45.0574883" lon="7.8563667"><ele>332.0</ele><time>2026-04-11T13:44:13.443Z</time></trkpt><trkpt lat="45.05741" lon="7.8564133"><ele>332.1666666666667</ele><time>2026-04-11T13:44:14.443Z</time></trkpt><trkpt lat="45.05733" lon="7.8564567"><ele>332.33333333333337</ele><time>2026-04-11T13:44:15.443Z</time></trkpt><trkpt lat="45.057255" lon="7.8565"><ele>332.5</ele><time>2026-04-11T13:44:16.443Z</time></trkpt><trkpt lat="45.05719" lon="7.8565417"><ele>332.6666666666667</ele><time>2026-04-11T13:44:17.443Z</time></trkpt><trkpt lat="45.0571267" lon="7.85658"><ele>332.8333333333333</ele><time>2026-04-11T13:44:18.443Z</time></trkpt><trkpt lat="45.0570583" lon="7.856625"><ele>333.0</ele><time>2026-04-11T13:44:19.443Z</time></trkpt><trkpt lat="45.0569917" lon="7.856665"><ele>333.0</ele><time>2026-04-11T13:44:20.443Z</time></trkpt><trkpt lat="45.0569183" lon="7.8567067"><ele>333.0</ele><time>2026-04-11T13:44:21.443Z</time></trkpt><trkpt lat="45.056845" lon="7.85675"><ele>333.0</ele><time>2026-04-11T13:44:22.443Z</time></trkpt><trkpt lat="45.0567717" lon="7.8567967"><ele>333.0</ele><time>2026-04-11T13:44:23.443Z</time></trkpt><trkpt lat="45.0567033" lon="7.8568417"><ele>333.0</ele><time>2026-04-11T13:44:24.443Z</time></trkpt><trkpt lat="45.0566333" lon="7.8568817"><ele>333.0</ele><time>2026-04-11T13:44:25.443Z</time></trkpt><trkpt lat="45.0565667" lon="7.856925"><ele>333.0</ele><time>2026-04-11T13:44:26.443Z</time></trkpt><trkpt lat="45.0565033" lon="7.85698"><ele>333.0</ele><time>2026-04-11T13:44:27.444Z</time></trkpt><trkpt lat="45.0564417" lon="7.8570433"><ele>333.0</ele><time>2026-04-11T13:44:28.443Z</time></trkpt><trkpt lat="45.0563833" lon="7.8571083"><ele>333.0</ele><time>2026-04-11T13:44:29.443Z</time></trkpt><trkpt lat="45.0563283" lon="7.8571767"><ele>333.0</ele><time>2026-04-11T13:44:30.443Z</time></trkpt><trkpt lat="45.0562683" lon="7.8572467"><ele>333.0</ele><time>2026-04-11T13:44:31.443Z</time></trkpt><trkpt lat="45.0562117" lon="7.8573233"><ele>333.0</ele><time>2026-04-11T13:44:32.443Z</time></trkpt><trkpt lat="45.0561483" lon="7.857395"><ele>333.0</ele><time>2026-04-11T13:44:33.443Z</time></trkpt><trkpt lat="45.056085" lon="7.8574567"><ele>333.0</ele><time>2026-04-11T13:44:34.443Z</time></trkpt><trkpt lat="45.0560217" lon="7.85751"><ele>333.0</ele><time>2026-04-11T13:44:35.443Z</time></trkpt><trkpt lat="45.05596" lon="7.8575533"><ele>333.0</ele><time>2026-04-11T13:44:36.443Z</time></trkpt><trkpt lat="45.0558983" lon="7.8575883"><ele>333.0</ele><time>2026-04-11T13:44:37.443Z</time></trkpt><trkpt lat="45.0558317" lon="7.8576267"><ele>333.0</ele><time>2026-04-11T13:44:38.443Z</time></trkpt><trkpt lat="45.055765" lon="7.8576667"><ele>334.0</ele><time>2026-04-11T13:44:39.443Z</time></trkpt><trkpt lat="45.0557" lon="7.8577117"><ele>335.0</ele><time>2026-04-11T13:44:40.443Z</time></trkpt><trkpt lat="45.0556367" lon="7.85776"><ele>336.0</ele><time>2026-04-11T13:44:41.443Z</time></trkpt><trkpt lat="45.0555733" lon="7.85781"><ele>337.0</ele><time>2026-04-11T13:44:42.443Z</time></trkpt><trkpt lat="45.0555067" lon="7.85785"><ele>338.0</ele><time>2026-04-11T13:44:43.443Z</time></trkpt><trkpt lat="45.055445" lon="7.8578933"><ele>339.0</ele><time>2026-04-11T13:44:44.443Z</time></trkpt><trkpt lat="45.0553833" lon="7.8579383"><ele>340.0</ele><time>2026-04-11T13:44:45.443Z</time></trkpt><trkpt lat="45.0553267" lon="7.85798"><ele>340.0</ele><time>2026-04-11T13:44:46.443Z</time></trkpt><trkpt lat="45.0552617" lon="7.8580233"><ele>340.0</ele><time>2026-04-11T13:44:47.443Z</time></trkpt><trkpt lat="45.0551433" lon="7.8580267"><ele>340.0</ele><time>2026-04-11T13:44:49.443Z</time></trkpt><trkpt lat="45.0550333" lon="7.8580083"><ele>340.0</ele><time>2026-04-11T13:44:51.443Z</time></trkpt><trkpt lat="45.0549167" lon="7.8579933"><ele>340.0</ele><time>2026-04-11T13:44:53.443Z</time></trkpt><trkpt lat="45.0548017" lon="7.857985"><ele>341.0</ele><time>2026-04-11T13:44:55.443Z</time></trkpt><trkpt lat="45.0547" lon="7.8580017"><ele>342.0</ele><time>2026-04-11T13:44:57.444Z</time></trkpt><trkpt lat="45.0546133" lon="7.8580717"><ele>343.0</ele><time>2026-04-11T13:44:59.443Z</time></trkpt><trkpt lat="45.0545733" lon="7.8582083"><ele>344.0</ele><time>2026-04-11T13:45:01.443Z</time></trkpt><trkpt lat="45.0545533" lon="7.8583483"><ele>345.0</ele><time>2026-04-11T13:45:03.444Z</time></trkpt><trkpt lat="45.0545383" lon="7.858495"><ele>345.0</ele><time>2026-04-11T13:45:05.443Z</time></trkpt><trkpt lat="45.0545117" lon="7.8586183"><ele>345.0</ele><time>2026-04-11T13:45:07.443Z</time></trkpt><trkpt lat="45.054455" lon="7.8587233"><ele>345.0</ele><time>2026-04-11T13:45:09.444Z</time></trkpt><trkpt lat="45.0543733" lon="7.8587917"><ele>345.0</ele><time>2026-04-11T13:45:11.443Z</time></trkpt><trkpt lat="45.0542767" lon="7.8588217"><ele>345.0</ele><time>2026-04-11T13:45:13.443Z</time></trkpt><trkpt lat="45.0541767" lon="7.8588483"><ele>346.3333333333333</ele><time>2026-04-11T13:45:15.444Z</time></trkpt><trkpt lat="45.054085" lon="7.85888"><ele>347.6666666666667</ele><time>2026-04-11T13:45:17.443Z</time></trkpt><trkpt lat="45.0540033" lon="7.8589083"><ele>349.0</ele><time>2026-04-11T13:45:19.443Z</time></trkpt><trkpt lat="45.0539267" lon="7.8589417"><ele>350.33333333333337</ele><time>2026-04-11T13:45:21.443Z</time></trkpt><trkpt lat="45.0538567" lon="7.858985"><ele>351.6666666666667</ele><time>2026-04-11T13:45:23.443Z</time></trkpt><trkpt lat="45.0537817" lon="7.8590317"><ele>353.0</ele><time>2026-04-11T13:45:25.443Z</time></trkpt><trkpt lat="45.0537133" lon="7.8591033"><ele>353.0</ele><time>2026-04-11T13:45:27.443Z</time></trkpt><trkpt lat="45.05364" lon="7.8591667"><ele>353.0</ele><time>2026-04-11T13:45:29.443Z</time></trkpt><trkpt lat="45.0535583" lon="7.8592433"><ele>353.0</ele><time>2026-04-11T13:45:31.444Z</time></trkpt><trkpt lat="45.0534683" lon="7.8593233"><ele>353.0</ele><time>2026-04-11T13:45:33.444Z</time></trkpt><trkpt lat="45.0533917" lon="7.8594217"><ele>353.0</ele><time>2026-04-11T13:45:35.444Z</time></trkpt><trkpt lat="45.0533083" lon="7.859525"><ele>353.0</ele><time>2026-04-11T13:45:37.443Z</time></trkpt><trkpt lat="45.053225" lon="7.85963"><ele>353.0</ele><time>2026-04-11T13:45:39.443Z</time></trkpt><trkpt lat="45.0531367" lon="7.8596917"><ele>353.0</ele><time>2026-04-11T13:45:41.443Z</time></trkpt><trkpt lat="45.05303" lon="7.859685"><ele>353.0</ele><time>2026-04-11T13:45:43.443Z</time></trkpt><trkpt lat="45.052925" lon="7.8596633"><ele>353.0</ele><time>2026-04-11T13:45:45.443Z</time></trkpt><trkpt lat="45.05284" lon="7.8596567"><ele>353.0</ele><time>2026-04-11T13:45:47.443Z</time></trkpt><trkpt lat="45.052765" lon="7.859655"><ele>353.0</ele><time>2026-04-11T13:45:49.443Z</time></trkpt><trkpt lat="45.0526917" lon="7.8596683"><ele>353.0</ele><time>2026-04-11T13:45:51.443Z</time></trkpt><trkpt lat="45.0526167" lon="7.85971"><ele>353.0</ele><time>2026-04-11T13:45:53.444Z</time></trkpt><trkpt lat="45.0525583" lon="7.85978"><ele>353.0</ele><time>2026-04-11T13:45:55.443Z</time></trkpt><trkpt lat="45.0525" lon="7.8598767"><ele>353.0</ele><time>2026-04-11T13:45:57.443Z</time></trkpt><trkpt lat="45.05244" lon="7.85999"><ele>354.25</ele><time>2026-04-11T13:45:59.443Z</time></trkpt><trkpt lat="45.0523767" lon="7.8601217"><ele>355.5</ele><time>2026-04-11T13:46:01.443Z</time></trkpt><trkpt lat="45.05232" lon="7.860265"><ele>356.75</ele><time>2026-04-11T13:46:03.443Z</time></trkpt><trkpt lat="45.05227" lon="7.8604117"><ele>358.0</ele><time>2026-04-11T13:46:05.443Z</time></trkpt><trkpt lat="45.0522233" lon="7.8605667"><ele>358.0</ele><time>2026-04-11T13:46:07.443Z</time></trkpt><trkpt lat="45.0521917" lon="7.8607333"><ele>358.0</ele><time>2026-04-11T13:46:09.443Z</time></trkpt><trkpt lat="45.052185" lon="7.8608267"><ele>358.0</ele><time>2026-04-11T13:46:10.443Z</time></trkpt><trkpt lat="45.052185" lon="7.860995"><ele>358.0</ele><time>2026-04-11T13:46:12.443Z</time></trkpt><trkpt lat="45.0521317" lon="7.8611483"><ele>358.0</ele><time>2026-04-11T13:46:14.443Z</time></trkpt><trkpt lat="45.0520617" lon="7.8612917"><ele>357.25</ele><time>2026-04-11T13:46:16.443Z</time></trkpt><trkpt lat="45.051985" lon="7.8614217"><ele>356.5</ele><time>2026-04-11T13:46:18.443Z</time></trkpt><trkpt lat="45.0519133" lon="7.86154"><ele>355.75</ele><time>2026-04-11T13:46:20.443Z</time></trkpt><trkpt lat="45.0518317" lon="7.861655"><ele>355.0</ele><time>2026-04-11T13:46:22.443Z</time></trkpt><trkpt lat="45.051725" lon="7.8616783"><ele>353.6</ele><time>2026-04-11T13:46:24.443Z</time></trkpt><trkpt lat="45.05162" lon="7.8616717"><ele>352.2</ele><time>2026-04-11T13:46:26.443Z</time></trkpt><trkpt lat="45.0514917" lon="7.8616833"><ele>350.79999999999995</ele><time>2026-04-11T13:46:28.443Z</time></trkpt><trkpt lat="45.05142" lon="7.8616867"><ele>349.4</ele><time>2026-04-11T13:46:29.443Z</time></trkpt><trkpt lat="45.05135" lon="7.8616867"><ele>348.0</ele><time>2026-04-11T13:46:30.443Z</time></trkpt><trkpt lat="45.0512717" lon="7.86168"><ele>348.0</ele><time>2026-04-11T13:46:31.443Z</time></trkpt><trkpt lat="45.0511833" lon="7.8616617"><ele>348.0</ele><time>2026-04-11T13:46:32.443Z</time></trkpt><trkpt lat="45.0510983" lon="7.8616367"><ele>348.0</ele><time>2026-04-11T13:46:33.443Z</time></trkpt><trkpt lat="45.051015" lon="7.8616117"><ele>348.0</ele><time>2026-04-11T13:46:34.443Z</time></trkpt><trkpt lat="45.05093" lon="7.861585"><ele>348.0</ele><time>2026-04-11T13:46:35.443Z</time></trkpt><trkpt lat="45.0508433" lon="7.86155"><ele>348.0</ele><time>2026-04-11T13:46:36.443Z</time></trkpt><trkpt lat="45.0507667" lon="7.8615183"><ele>346.79999999999995</ele><time>2026-04-11T13:46:37.443Z</time></trkpt><trkpt lat="45.0506817" lon="7.86147"><ele>345.6</ele><time>2026-04-11T13:46:38.443Z</time></trkpt><trkpt lat="45.050595" lon="7.86141"><ele>344.4</ele><time>2026-04-11T13:46:39.443Z</time></trkpt><trkpt lat="45.050505" lon="7.8613517"><ele>343.20000000000005</ele><time>2026-04-11T13:46:40.443Z</time></trkpt><trkpt lat="45.050415" lon="7.8612817"><ele>342.0</ele><time>2026-04-11T13:46:41.443Z</time></trkpt><trkpt lat="45.05033" lon="7.8612283"><ele>342.0</ele><time>2026-04-11T13:46:42.443Z</time></trkpt><trkpt lat="45.0502433" lon="7.8611967"><ele>342.0</ele><time>2026-04-11T13:46:43.443Z</time></trkpt><trkpt lat="45.0501467" lon="7.8611967"><ele>342.0</ele><time>2026-04-11T13:46:44.443Z</time></trkpt><trkpt lat="45.050055" lon="7.8612333"><ele>342.0</ele><time>2026-04-11T13:46:45.443Z</time></trkpt><trkpt lat="45.049975" lon="7.8612917"><ele>342.0</ele><time>2026-04-11T13:46:46.443Z</time></trkpt><trkpt lat="45.04989" lon="7.8613733"><ele>342.20000000000005</ele><time>2026-04-11T13:46:47.443Z</time></trkpt><trkpt lat="45.0498117" lon="7.8614633"><ele>342.4</ele><time>2026-04-11T13:46:48.443Z</time></trkpt><trkpt lat="45.0497367" lon="7.86154"><ele>342.6</ele><time>2026-04-11T13:46:49.443Z</time></trkpt><trkpt lat="45.0496683" lon="7.86161"><ele>342.79999999999995</ele><time>2026-04-11T13:46:50.443Z</time></trkpt><trkpt lat="45.04959" lon="7.8616667"><ele>343.0</ele><time>2026-04-11T13:46:51.443Z</time></trkpt><trkpt lat="45.0495117" lon="7.8617283"><ele>342.3333333333333</ele><time>2026-04-11T13:46:52.443Z</time></trkpt><trkpt lat="45.0494317" lon="7.861785"><ele>341.66666666666663</ele><time>2026-04-11T13:46:53.443Z</time></trkpt><trkpt lat="45.0493533" lon="7.8618467"><ele>341.0</ele><time>2026-04-11T13:46:54.443Z</time></trkpt><trkpt lat="45.0492783" lon="7.8619067"><ele>340.3333333333333</ele><time>2026-04-11T13:46:55.443Z</time></trkpt><trkpt lat="45.04921" lon="7.861965"><ele>339.6666666666667</ele><time>2026-04-11T13:46:56.443Z</time></trkpt><trkpt lat="45.049145" lon="7.86203"><ele>339.0</ele><time>2026-04-11T13:46:57.443Z</time></trkpt><trkpt lat="45.0490817" lon="7.8620917"><ele>339.0</ele><time>2026-04-11T13:46:58.443Z</time></trkpt><trkpt lat="45.04902" lon="7.8621567"><ele>339.0</ele><time>2026-04-11T13:46:59.443Z</time></trkpt><trkpt lat="45.0489617" lon="7.8622267"><ele>339.0</ele><time>2026-04-11T13:47:00.443Z</time></trkpt><trkpt lat="45.0489067" lon="7.8622933"><ele>339.0</ele><time>2026-04-11T13:47:01.443Z</time></trkpt><trkpt lat="45.048845" lon="7.862355"><ele>339.0</ele><time>2026-04-11T13:47:02.444Z</time></trkpt><trkpt lat="45.0487783" lon="7.8624167"><ele>339.0</ele><time>2026-04-11T13:47:03.443Z</time></trkpt><trkpt lat="45.0486933" lon="7.862465"><ele>339.0</ele><time>2026-04-11T13:47:04.443Z</time></trkpt><trkpt lat="45.0486033" lon="7.8625167"><ele>339.0</ele><time>2026-04-11T13:47:05.443Z</time></trkpt><trkpt lat="45.04851" lon="7.8625617"><ele>339.0</ele><time>2026-04-11T13:47:06.443Z</time></trkpt><trkpt lat="45.0484083" lon="7.8626133"><ele>339.0</ele><time>2026-04-11T13:47:07.443Z</time></trkpt><trkpt lat="45.0483117" lon="7.8626617"><ele>339.0</ele><time>2026-04-11T13:47:08.443Z</time></trkpt><trkpt lat="45.048215" lon="7.8627117"><ele>338.0</ele><time>2026-04-11T13:47:09.443Z</time></trkpt><trkpt lat="45.0481217" lon="7.8627667"><ele>337.0</ele><time>2026-04-11T13:47:10.443Z</time></trkpt><trkpt lat="45.0480267" lon="7.8628267"><ele>336.0</ele><time>2026-04-11T13:47:11.443Z</time></trkpt><trkpt lat="45.04793" lon="7.8628933"><ele>335.0</ele><time>2026-04-11T13:47:12.444Z</time></trkpt><trkpt lat="45.0478317" lon="7.8629567"><ele>334.0</ele><time>2026-04-11T13:47:13.443Z</time></trkpt><trkpt lat="45.0477333" lon="7.863015"><ele>334.0</ele><time>2026-04-11T13:47:14.443Z</time></trkpt><trkpt lat="45.04765" lon="7.8630867"><ele>334.0</ele><time>2026-04-11T13:47:15.443Z</time></trkpt><trkpt lat="45.0475767" lon="7.863165"><ele>334.0</ele><time>2026-04-11T13:47:16.443Z</time></trkpt><trkpt lat="45.0475067" lon="7.863245"><ele>334.0</ele><time>2026-04-11T13:47:17.443Z</time></trkpt><trkpt lat="45.0474367" lon="7.8633283"><ele>334.0</ele><time>2026-04-11T13:47:18.443Z</time></trkpt><trkpt lat="45.0473733" lon="7.863415"><ele>334.3333333333333</ele><time>2026-04-11T13:47:19.443Z</time></trkpt><trkpt lat="45.047325" lon="7.8635067"><ele>334.66666666666663</ele><time>2026-04-11T13:47:20.443Z</time></trkpt><trkpt lat="45.0472783" lon="7.863605"><ele>335.0</ele><time>2026-04-11T13:47:21.443Z</time></trkpt><trkpt lat="45.0472383" lon="7.8637133"><ele>335.3333333333333</ele><time>2026-04-11T13:47:22.443Z</time></trkpt><trkpt lat="45.0472033" lon="7.8638183"><ele>335.6666666666667</ele><time>2026-04-11T13:47:23.443Z</time></trkpt><trkpt lat="45.0471683" lon="7.8639217"><ele>336.0</ele><time>2026-04-11T13:47:24.443Z</time></trkpt><trkpt lat="45.047135" lon="7.8640267"><ele>336.0</ele><time>2026-04-11T13:47:25.443Z</time></trkpt><trkpt lat="45.0470933" lon="7.8641267"><ele>336.0</ele><time>2026-04-11T13:47:26.443Z</time></trkpt><trkpt lat="45.0470483" lon="7.86422"><ele>336.0</ele><time>2026-04-11T13:47:27.443Z</time></trkpt><trkpt lat="45.0470067" lon="7.864305"><ele>336.0</ele><time>2026-04-11T13:47:28.443Z</time></trkpt><trkpt lat="45.0469617" lon="7.864385"><ele>336.0</ele><time>2026-04-11T13:47:29.443Z</time></trkpt><trkpt lat="45.04692" lon="7.8644633"><ele>336.0</ele><time>2026-04-11T13:47:30.443Z</time></trkpt><trkpt lat="45.0468817" lon="7.8645367"><ele>336.0</ele><time>2026-04-11T13:47:31.443Z</time></trkpt><trkpt lat="45.0468083" lon="7.8646783"><ele>336.75</ele><time>2026-04-11T13:47:33.443Z</time></trkpt><trkpt lat="45.04674" lon="7.8648033"><ele>337.5</ele><time>2026-04-11T13:47:35.443Z</time></trkpt><trkpt lat="45.0466733" lon="7.8649167"><ele>338.25</ele><time>2026-04-11T13:47:37.443Z</time></trkpt><trkpt lat="45.0466017" lon="7.8650417"><ele>339.0</ele><time>2026-04-11T13:47:39.443Z</time></trkpt><trkpt lat="45.0465133" lon="7.8651617"><ele>339.6666666666667</ele><time>2026-04-11T13:47:41.443Z</time></trkpt><trkpt lat="45.0464667" lon="7.8652267"><ele>340.3333333333333</ele><time>2026-04-11T13:47:42.443Z</time></trkpt><trkpt lat="45.046375" lon="7.8653367"><ele>341.0</ele><time>2026-04-11T13:47:44.443Z</time></trkpt><trkpt lat="45.0462717" lon="7.8654217"><ele>341.66666666666663</ele><time>2026-04-11T13:47:46.443Z</time></trkpt><trkpt lat="45.0462183" lon="7.8654733"><ele>342.3333333333333</ele><time>2026-04-11T13:47:47.443Z</time></trkpt><trkpt lat="45.0461667" lon="7.86553"><ele>343.0</ele><time>2026-04-11T13:47:48.443Z</time></trkpt><trkpt lat="45.0461167" lon="7.8655883"><ele>343.0</ele><time>2026-04-11T13:47:49.443Z</time></trkpt><trkpt lat="45.0460683" lon="7.86565"><ele>343.0</ele><time>2026-04-11T13:47:50.443Z</time></trkpt><trkpt lat="45.0460217" lon="7.8657117"><ele>343.0</ele><time>2026-04-11T13:47:51.443Z</time></trkpt><trkpt lat="45.0459333" lon="7.8658383"><ele>343.0</ele><time>2026-04-11T13:47:53.443Z</time></trkpt><trkpt lat="45.0458433" lon="7.8659417"><ele>343.0</ele><time>2026-04-11T13:47:55.443Z</time></trkpt><trkpt lat="45.045745" lon="7.8660267"><ele>341.79999999999995</ele><time>2026-04-11T13:47:57.443Z</time></trkpt><trkpt lat="45.0456383" lon="7.866075"><ele>340.6</ele><time>2026-04-11T13:47:59.443Z</time></trkpt><trkpt lat="45.0455483" lon="7.8660917"><ele>339.4</ele><time>2026-04-11T13:48:01.443Z</time></trkpt><trkpt lat="45.04545" lon="7.8660767"><ele>338.20000000000005</ele><time>2026-04-11T13:48:03.443Z</time></trkpt><trkpt lat="45.0453683" lon="7.8660417"><ele>337.0</ele><time>2026-04-11T13:48:05.443Z</time></trkpt><trkpt lat="45.0452883" lon="7.8659867"><ele>336.0</ele><time>2026-04-11T13:48:07.443Z</time></trkpt><trkpt lat="45.0451933" lon="7.865895"><ele>335.0</ele><time>2026-04-11T13:48:09.443Z</time></trkpt><trkpt lat="45.0450817" lon="7.865805"><ele>334.0</ele><time>2026-04-11T13:48:11.442Z</time></trkpt><trkpt lat="45.04501" lon="7.8657633"><ele>333.0</ele><time>2026-04-11T13:48:12.442Z</time></trkpt><trkpt lat="45.044945" lon="7.8657483"><ele>332.0</ele><time>2026-04-11T13:48:13.442Z</time></trkpt><trkpt lat="45.0448733" lon="7.8657567"><ele>332.0</ele><time>2026-04-11T13:48:14.442Z</time></trkpt><trkpt lat="45.04479" lon="7.8657533"><ele>332.0</ele><time>2026-04-11T13:48:15.442Z</time></trkpt><trkpt lat="45.0446967" lon="7.8657267"><ele>332.0</ele><time>2026-04-11T13:48:16.442Z</time></trkpt><trkpt lat="45.0445967" lon="7.8656933"><ele>332.0</ele><time>2026-04-11T13:48:17.442Z</time></trkpt><trkpt lat="45.044495" lon="7.8656517"><ele>332.0</ele><time>2026-04-11T13:48:18.442Z</time></trkpt><trkpt lat="45.0443933" lon="7.8656117"><ele>332.0</ele><time>2026-04-11T13:48:19.442Z</time></trkpt><trkpt lat="45.0442867" lon="7.865575"><ele>332.0</ele><time>2026-04-11T13:48:20.442Z</time></trkpt><trkpt lat="45.0441917" lon="7.8655517"><ele>332.0</ele><time>2026-04-11T13:48:21.442Z</time></trkpt><trkpt lat="45.0440883" lon="7.865555"><ele>332.0</ele><time>2026-04-11T13:48:22.442Z</time></trkpt><trkpt lat="45.0439917" lon="7.8656017"><ele>332.0</ele><time>2026-04-11T13:48:23.442Z</time></trkpt><trkpt lat="45.043895" lon="7.8656683"><ele>330.20000000000005</ele><time>2026-04-11T13:48:24.442Z</time></trkpt><trkpt lat="45.04381" lon="7.8657567"><ele>328.4</ele><time>2026-04-11T13:48:25.443Z</time></trkpt><trkpt lat="45.0437367" lon="7.8658483"><ele>326.6</ele><time>2026-04-11T13:48:26.443Z</time></trkpt><trkpt lat="45.043665" lon="7.86594"><ele>324.79999999999995</ele><time>2026-04-11T13:48:27.442Z</time></trkpt><trkpt lat="45.04359" lon="7.8660317"><ele>323.0</ele><time>2026-04-11T13:48:28.442Z</time></trkpt><trkpt lat="45.04351" lon="7.8661167"><ele>322.75</ele><time>2026-04-11T13:48:29.442Z</time></trkpt><trkpt lat="45.0434183" lon="7.866195"><ele>322.5</ele><time>2026-04-11T13:48:30.442Z</time></trkpt><trkpt lat="45.0433183" lon="7.8662733"><ele>322.25</ele><time>2026-04-11T13:48:31.442Z</time></trkpt><trkpt lat="45.0432133" lon="7.8663417"><ele>322.0</ele><time>2026-04-11T13:48:32.442Z</time></trkpt><trkpt lat="45.043105" lon="7.866395"><ele>320.40000000000003</ele><time>2026-04-11T13:48:33.442Z</time></trkpt><trkpt lat="45.042995" lon="7.866445"><ele>318.8</ele><time>2026-04-11T13:48:34.442Z</time></trkpt><trkpt lat="45.042885" lon="7.86649"><ele>317.2</ele><time>2026-04-11T13:48:35.442Z</time></trkpt><trkpt lat="45.0427883" lon="7.8665367"><ele>315.6</ele><time>2026-04-11T13:48:36.442Z</time></trkpt><trkpt lat="45.0426833" lon="7.8665683"><ele>314.0</ele><time>2026-04-11T13:48:37.442Z</time></trkpt><trkpt lat="45.04259" lon="7.86656"><ele>314.0</ele><time>2026-04-11T13:48:38.442Z</time></trkpt><trkpt lat="45.0424983" lon="7.8665117"><ele>314.0</ele><time>2026-04-11T13:48:39.442Z</time></trkpt><trkpt lat="45.0424233" lon="7.86644"><ele>314.0</ele><time>2026-04-11T13:48:40.442Z</time></trkpt><trkpt lat="45.042355" lon="7.8663683"><ele>314.0</ele><time>2026-04-11T13:48:41.442Z</time></trkpt><trkpt lat="45.0422883" lon="7.8662967"><ele>314.0</ele><time>2026-04-11T13:48:42.442Z</time></trkpt><trkpt lat="45.0422233" lon="7.866225"><ele>314.0</ele><time>2026-04-11T13:48:43.443Z</time></trkpt><trkpt lat="45.0421617" lon="7.866155"><ele>313.85714285714283</ele><time>2026-04-11T13:48:44.442Z</time></trkpt><trkpt lat="45.0421" lon="7.86609"><ele>313.7142857142857</ele><time>2026-04-11T13:48:45.442Z</time></trkpt><trkpt lat="45.0420467" lon="7.8660267"><ele>313.57142857142856</ele><time>2026-04-11T13:48:46.442Z</time></trkpt><trkpt lat="45.041995" lon="7.8659617"><ele>313.42857142857144</ele><time>2026-04-11T13:48:47.442Z</time></trkpt><trkpt lat="45.0419383" lon="7.8658967"><ele>313.2857142857143</ele><time>2026-04-11T13:48:48.443Z</time></trkpt><trkpt lat="45.04188" lon="7.8658417"><ele>313.1428571428571</ele><time>2026-04-11T13:48:49.442Z</time></trkpt><trkpt lat="45.0418217" lon="7.865785"><ele>313.0</ele><time>2026-04-11T13:48:50.442Z</time></trkpt><trkpt lat="45.041765" lon="7.8657367"><ele>313.0</ele><time>2026-04-11T13:48:51.442Z</time></trkpt><trkpt lat="45.0417017" lon="7.8656983"><ele>313.0</ele><time>2026-04-11T13:48:52.442Z</time></trkpt><trkpt lat="45.0416233" lon="7.86566"><ele>313.0</ele><time>2026-04-11T13:48:53.442Z</time></trkpt><trkpt lat="45.04154" lon="7.86562"><ele>313.0</ele><time>2026-04-11T13:48:54.442Z</time></trkpt><trkpt lat="45.041455" lon="7.8656033"><ele>313.0</ele><time>2026-04-11T13:48:55.442Z</time></trkpt><trkpt lat="45.041375" lon="7.8655967"><ele>313.0</ele><time>2026-04-11T13:48:56.442Z</time></trkpt><trkpt lat="45.041295" lon="7.8655917"><ele>311.66666666666663</ele><time>2026-04-11T13:48:57.442Z</time></trkpt><trkpt lat="45.041215" lon="7.8655917"><ele>310.3333333333333</ele><time>2026-04-11T13:48:58.442Z</time></trkpt><trkpt lat="45.0411333" lon="7.8656017"><ele>309.0</ele><time>2026-04-11T13:48:59.442Z</time></trkpt><trkpt lat="45.0410567" lon="7.86562"><ele>307.6666666666667</ele><time>2026-04-11T13:49:00.442Z</time></trkpt><trkpt lat="45.0409817" lon="7.8656333"><ele>306.33333333333337</ele><time>2026-04-11T13:49:01.442Z</time></trkpt><trkpt lat="45.0409017" lon="7.8656483"><ele>305.0</ele><time>2026-04-11T13:49:02.442Z</time></trkpt><trkpt lat="45.040815" lon="7.86566"><ele>303.4</ele><time>2026-04-11T13:49:04.442Z</time></trkpt><trkpt lat="45.04074" lon="7.86568"><ele>301.8</ele><time>2026-04-11T13:49:06.442Z</time></trkpt><trkpt lat="45.0406667" lon="7.865735"><ele>300.2</ele><time>2026-04-11T13:49:08.442Z</time></trkpt><trkpt lat="45.0405717" lon="7.8658317"><ele>298.6</ele><time>2026-04-11T13:49:10.442Z</time></trkpt><trkpt lat="45.0404683" lon="7.8659217"><ele>297.0</ele><time>2026-04-11T13:49:12.442Z</time></trkpt><trkpt lat="45.0404033" lon="7.8659717"><ele>297.0</ele><time>2026-04-11T13:49:13.442Z</time></trkpt><trkpt lat="45.0403317" lon="7.8660317"><ele>297.0</ele><time>2026-04-11T13:49:14.442Z</time></trkpt><trkpt lat="45.04025" lon="7.866085"><ele>297.0</ele><time>2026-04-11T13:49:15.443Z</time></trkpt><trkpt lat="45.040185" lon="7.8661417"><ele>297.0</ele><time>2026-04-11T13:49:16.442Z</time></trkpt><trkpt lat="45.0401117" lon="7.866195"><ele>297.0</ele><time>2026-04-11T13:49:17.442Z</time></trkpt><trkpt lat="45.0400433" lon="7.8662617"><ele>297.0</ele><time>2026-04-11T13:49:18.442Z</time></trkpt><trkpt lat="45.03997" lon="7.8663283"><ele>296.5</ele><time>2026-04-11T13:49:19.442Z</time></trkpt><trkpt lat="45.0398933" lon="7.8664033"><ele>296.0</ele><time>2026-04-11T13:49:20.442Z</time></trkpt><trkpt lat="45.03983" lon="7.866465"><ele>295.5</ele><time>2026-04-11T13:49:21.442Z</time></trkpt><trkpt lat="45.0397633" lon="7.866525"><ele>295.0</ele><time>2026-04-11T13:49:22.442Z</time></trkpt><trkpt lat="45.0397067" lon="7.8666017"><ele>294.5</ele><time>2026-04-11T13:49:23.442Z</time></trkpt><trkpt lat="45.0396167" lon="7.8666683"><ele>294.0</ele><time>2026-04-11T13:49:25.442Z</time></trkpt><trkpt lat="45.03954" lon="7.8666483"><ele>294.0</ele><time>2026-04-11T13:49:27.442Z</time></trkpt><trkpt lat="45.0394833" lon="7.8665767"><ele>294.0</ele><time>2026-04-11T13:49:31.442Z</time></trkpt><trkpt lat="45.0394283" lon="7.86648"><ele>294.0</ele><time>2026-04-11T13:49:34.442Z</time></trkpt><trkpt lat="45.0394217" lon="7.8665783"><ele>294.0</ele><time>2026-04-11T13:49:51.442Z</time></trkpt><trkpt lat="45.039345" lon="7.8665967"><ele>294.0</ele><time>2026-04-11T13:49:54.442Z</time></trkpt><trkpt lat="45.039275" lon="7.86662"><ele>294.0</ele><time>2026-04-11T13:49:56.443Z</time></trkpt><trkpt lat="45.0391767" lon="7.8666617"><ele>295.0</ele><time>2026-04-11T13:49:58.442Z</time></trkpt><trkpt lat="45.039075" lon="7.8667017"><ele>296.0</ele><time>2026-04-11T13:50:00.442Z</time></trkpt><trkpt lat="45.0390033" lon="7.8667333"><ele>297.0</ele><time>2026-04-11T13:50:02.442Z</time></trkpt><trkpt lat="45.0389" lon="7.86675"><ele>298.0</ele><time>2026-04-11T13:50:04.442Z</time></trkpt><trkpt lat="45.038835" lon="7.86677"><ele>299.0</ele><time>2026-04-11T13:50:06.442Z</time></trkpt><trkpt lat="45.0387617" lon="7.8667983"><ele>300.0</ele><time>2026-04-11T13:50:09.443Z</time></trkpt><trkpt lat="45.038675" lon="7.8668017"><ele>300.0</ele><time>2026-04-11T13:50:13.442Z</time></trkpt><trkpt lat="45.0385933" lon="7.866775"><ele>300.0</ele><time>2026-04-11T13:50:16.442Z</time></trkpt><trkpt lat="45.03852" lon="7.8667433"><ele>300.0</ele><time>2026-04-11T13:50:18.442Z</time></trkpt><trkpt lat="45.038435" lon="7.866705"><ele>300.0</ele><time>2026-04-11T13:50:20.442Z</time></trkpt><trkpt lat="45.03835" lon="7.8666667"><ele>300.0</ele><time>2026-04-11T13:50:22.442Z</time></trkpt><trkpt lat="45.0382517" lon="7.8666"><ele>300.0</ele><time>2026-04-11T13:50:24.442Z</time></trkpt><trkpt lat="45.0381483" lon="7.8665717"><ele>300.5</ele><time>2026-04-11T13:50:26.442Z</time></trkpt><trkpt lat="45.03806" lon="7.8665667"><ele>301.0</ele><time>2026-04-11T13:50:28.442Z</time></trkpt><trkpt lat="45.03797" lon="7.8665383"><ele>301.5</ele><time>2026-04-11T13:50:30.442Z</time></trkpt><trkpt lat="45.0378767" lon="7.8665167"><ele>302.0</ele><time>2026-04-11T13:50:32.442Z</time></trkpt><trkpt lat="45.0377933" lon="7.8665183"><ele>302.5</ele><time>2026-04-11T13:50:34.442Z</time></trkpt><trkpt lat="45.0377083" lon="7.86651"><ele>303.0</ele><time>2026-04-11T13:50:36.442Z</time></trkpt><trkpt lat="45.0376183" lon="7.866485"><ele>303.0</ele><time>2026-04-11T13:50:38.442Z</time></trkpt><trkpt lat="45.0375167" lon="7.8664767"><ele>303.0</ele><time>2026-04-11T13:50:40.442Z</time></trkpt><trkpt lat="45.0374133" lon="7.866485"><ele>303.0</ele><time>2026-04-11T13:50:42.442Z</time></trkpt><trkpt lat="45.0372983" lon="7.866505"><ele>303.0</ele><time>2026-04-11T13:50:44.442Z</time></trkpt><trkpt lat="45.037205" lon="7.8665317"><ele>303.0</ele><time>2026-04-11T13:50:46.442Z</time></trkpt><trkpt lat="45.0371333" lon="7.866575"><ele>300.6666666666667</ele><time>2026-04-11T13:50:48.442Z</time></trkpt><trkpt lat="45.0370683" lon="7.8666583"><ele>298.3333333333333</ele><time>2026-04-11T13:50:50.442Z</time></trkpt><trkpt lat="45.037055" lon="7.8668183"><ele>296.0</ele><time>2026-04-11T13:50:52.442Z</time></trkpt><trkpt lat="45.0370633" lon="7.86691"><ele>293.66666666666663</ele><time>2026-04-11T13:50:53.442Z</time></trkpt><trkpt lat="45.0370767" lon="7.8670033"><ele>291.3333333333333</ele><time>2026-04-11T13:50:54.442Z</time></trkpt><trkpt lat="45.0370967" lon="7.867095"><ele>289.0</ele><time>2026-04-11T13:50:55.442Z</time></trkpt><trkpt lat="45.037125" lon="7.8671817"><ele>288.59999999999997</ele><time>2026-04-11T13:50:56.442Z</time></trkpt><trkpt lat="45.037155" lon="7.8672633"><ele>288.2</ele><time>2026-04-11T13:50:57.442Z</time></trkpt><trkpt lat="45.0371867" lon="7.8674317"><ele>287.79999999999995</ele><time>2026-04-11T13:50:59.442Z</time></trkpt><trkpt lat="45.0372233" lon="7.86758"><ele>287.4</ele><time>2026-04-11T13:51:01.442Z</time></trkpt><trkpt lat="45.0372483" lon="7.8677083"><ele>287.0</ele><time>2026-04-11T13:51:03.442Z</time></trkpt><trkpt lat="45.0372517" lon="7.8678583"><ele>286.2</ele><time>2026-04-11T13:51:12.442Z</time></trkpt><trkpt lat="45.03728" lon="7.8679633"><ele>285.4</ele><time>2026-04-11T13:51:16.443Z</time></trkpt><trkpt lat="45.03733" lon="7.8680367"><ele>284.6</ele><time>2026-04-11T13:51:31.442Z</time></trkpt><trkpt lat="45.037355" lon="7.8681317"><ele>283.8</ele><time>2026-04-11T13:51:33.442Z</time></trkpt><trkpt lat="45.037375" lon="7.8682917"><ele>283.0</ele><time>2026-04-11T13:51:35.442Z</time></trkpt><trkpt lat="45.0373817" lon="7.868465"><ele>282.6</ele><time>2026-04-11T13:51:37.442Z</time></trkpt><trkpt lat="45.037375" lon="7.8686033"><ele>282.20000000000005</ele><time>2026-04-11T13:51:39.442Z</time></trkpt><trkpt lat="45.0373733" lon="7.8687483"><ele>281.8</ele><time>2026-04-11T13:51:41.442Z</time></trkpt><trkpt lat="45.03735" lon="7.8688883"><ele>281.40000000000003</ele><time>2026-04-11T13:51:43.442Z</time></trkpt><trkpt lat="45.0373183" lon="7.8689933"><ele>281.0</ele><time>2026-04-11T13:51:45.442Z</time></trkpt><trkpt lat="45.03727" lon="7.8690783"><ele>281.0</ele><time>2026-04-11T13:51:48.443Z</time></trkpt><trkpt lat="45.037225" lon="7.8691433"><ele>281.0</ele><time>2026-04-11T13:51:51.442Z</time></trkpt><trkpt lat="45.0371417" lon="7.8692183"><ele>281.0</ele><time>2026-04-11T13:51:54.442Z</time></trkpt><trkpt lat="45.0370367" lon="7.8693217"><ele>281.0</ele><time>2026-04-11T13:51:56.442Z</time></trkpt><trkpt lat="45.0369767" lon="7.8693817"><ele>281.0</ele><time>2026-04-11T13:51:57.443Z</time></trkpt><trkpt lat="45.0369133" lon="7.8694417"><ele>281.0</ele><time>2026-04-11T13:51:58.442Z</time></trkpt><trkpt lat="45.0368483" lon="7.869505"><ele>281.0</ele><time>2026-04-11T13:51:59.442Z</time></trkpt><trkpt lat="45.03678" lon="7.8695633"><ele>281.0</ele><time>2026-04-11T13:52:00.442Z</time></trkpt><trkpt lat="45.0367183" lon="7.8696167"><ele>281.0</ele><time>2026-04-11T13:52:01.442Z</time></trkpt><trkpt lat="45.0366617" lon="7.8696683"><ele>281.0</ele><time>2026-04-11T13:52:02.443Z</time></trkpt><trkpt lat="45.0365517" lon="7.8697767"><ele>281.0</ele><time>2026-04-11T13:52:04.442Z</time></trkpt><trkpt lat="45.036505" lon="7.8698467"><ele>281.0</ele><time>2026-04-11T13:52:05.442Z</time></trkpt><trkpt lat="45.03645" lon="7.86994"><ele>281.1666666666667</ele><time>2026-04-11T13:52:07.442Z</time></trkpt><trkpt lat="45.0364" lon="7.8701183"><ele>281.33333333333337</ele><time>2026-04-11T13:52:42.442Z</time></trkpt><trkpt lat="45.03642" lon="7.870225"><ele>281.5</ele><time>2026-04-11T13:52:45.442Z</time></trkpt><trkpt lat="45.036465" lon="7.87029"><ele>281.6666666666667</ele><time>2026-04-11T13:52:47.443Z</time></trkpt><trkpt lat="45.0365233" lon="7.8703417"><ele>281.8333333333333</ele><time>2026-04-11T13:52:49.442Z</time></trkpt><trkpt lat="45.0365933" lon="7.8703917"><ele>282.0</ele><time>2026-04-11T13:52:52.442Z</time></trkpt><trkpt lat="45.0366733" lon="7.8702417"><ele>282.0</ele><time>2026-04-11T13:54:05.442Z</time></trkpt><trkpt lat="45.0367233" lon="7.87014"><ele>282.0</ele><time>2026-04-11T13:54:07.442Z</time></trkpt><trkpt lat="45.0366333" lon="7.8702967"><ele>282.0</ele><time>2026-04-11T13:54:28.442Z</time></trkpt><trkpt lat="45.0367067" lon="7.87025"><ele>282.0</ele><time>2026-04-11T13:56:30.442Z</time></trkpt><trkpt lat="45.03669" lon="7.8704183"><ele>282.0</ele><time>2026-04-11T13:56:41.442Z</time></trkpt><trkpt lat="45.036665" lon="7.87055"><ele>282.0</ele><time>2026-04-11T13:56:43.442Z</time></trkpt><trkpt lat="45.0366717" lon="7.8704017"><ele>282.0</ele><time>2026-04-11T13:57:14.442Z</time></trkpt><trkpt lat="45.03675" lon="7.870305"><ele>282.0</ele><time>2026-04-11T13:57:27.442Z</time></trkpt><trkpt lat="45.0366939" lon="7.8703631"><ele>282.0</ele><time>2026-04-11T13:58:33.449Z</time></trkpt><trkpt lat="45.0365788" lon="7.8703899"><ele>282.0</ele><time>2026-04-11T13:59:28.506Z</time></trkpt><trkpt lat="45.0365386" lon="7.8703199"><ele>282.8</ele><time>2026-04-11T13:59:47.557Z</time></trkpt><trkpt lat="45.03651" lon="7.8701367"><ele>283.6</ele><time>2026-04-11T14:04:19.441Z</time></trkpt><trkpt lat="45.0365717" lon="7.870245"><ele>284.40000000000003</ele><time>2026-04-11T14:09:45.44Z</time></trkpt><trkpt lat="45.0365529" lon="7.8703302"><ele>285.2</ele><time>2026-04-11T14:11:21.462Z</time></trkpt><trkpt lat="45.0365625" lon="7.8704309"><ele>286.0</ele><time>2026-04-11T14:11:52.479Z</time></trkpt><trkpt lat="45.0365767" lon="7.8707433"><ele>286.0</ele><time>2026-04-11T14:11:54.44Z</time></trkpt><trkpt lat="45.0366033" lon="7.8708617"><ele>286.0</ele><time>2026-04-11T14:11:56.44Z</time></trkpt><trkpt lat="45.0366317" lon="7.8709917"><ele>286.0</ele><time>2026-04-11T14:11:58.44Z</time></trkpt><trkpt lat="45.036665" lon="7.8711133"><ele>286.0</ele><time>2026-04-11T14:12:00.44Z</time></trkpt><trkpt lat="45.0366933" lon="7.8712317"><ele>286.0</ele><time>2026-04-11T14:12:02.44Z</time></trkpt><trkpt lat="45.0367283" lon="7.8713417"><ele>286.0</ele><time>2026-04-11T14:12:04.44Z</time></trkpt><trkpt lat="45.0367567" lon="7.8714617"><ele>286.0</ele><time>2026-04-11T14:12:06.44Z</time></trkpt><trkpt lat="45.0367833" lon="7.8715717"><ele>286.0</ele><time>2026-04-11T14:12:08.44Z</time></trkpt><trkpt lat="45.0368167" lon="7.8716667"><ele>286.0</ele><time>2026-04-11T14:12:10.44Z</time></trkpt><trkpt lat="45.0368467" lon="7.8717767"><ele>286.0</ele><time>2026-04-11T14:12:12.44Z</time></trkpt><trkpt lat="45.0368783" lon="7.87188"><ele>286.0</ele><time>2026-04-11T14:12:14.44Z</time></trkpt><trkpt lat="45.0369017" lon="7.871975"><ele>287.16666666666663</ele><time>2026-04-11T14:12:16.44Z</time></trkpt><trkpt lat="45.0369183" lon="7.8720667"><ele>288.3333333333333</ele><time>2026-04-11T14:12:18.441Z</time></trkpt><trkpt lat="45.0369417" lon="7.8721733"><ele>289.5</ele><time>2026-04-11T14:12:20.44Z</time></trkpt><trkpt lat="45.0369683" lon="7.872275"><ele>290.6666666666667</ele><time>2026-04-11T14:12:22.44Z</time></trkpt><trkpt lat="45.0369967" lon="7.8723767"><ele>291.83333333333337</ele><time>2026-04-11T14:12:24.44Z</time></trkpt><trkpt lat="45.03703" lon="7.8724717"><ele>293.0</ele><time>2026-04-11T14:12:26.44Z</time></trkpt><trkpt lat="45.0370633" lon="7.8725717"><ele>292.8</ele><time>2026-04-11T14:12:28.44Z</time></trkpt><trkpt lat="45.0370967" lon="7.872685"><ele>292.6</ele><time>2026-04-11T14:12:30.44Z</time></trkpt><trkpt lat="45.0371333" lon="7.87282"><ele>292.4</ele><time>2026-04-11T14:12:32.44Z</time></trkpt><trkpt lat="45.0371617" lon="7.8729767"><ele>292.2</ele><time>2026-04-11T14:12:34.44Z</time></trkpt><trkpt lat="45.0371667" lon="7.8730667"><ele>292.0</ele><time>2026-04-11T14:12:35.44Z</time></trkpt><trkpt lat="45.0371683" lon="7.8732333"><ele>292.0</ele><time>2026-04-11T14:12:37.44Z</time></trkpt><trkpt lat="45.0371483" lon="7.8733967"><ele>292.0</ele><time>2026-04-11T14:12:39.44Z</time></trkpt><trkpt lat="45.0371083" lon="7.873535"><ele>292.0</ele><time>2026-04-11T14:12:41.44Z</time></trkpt><trkpt lat="45.037085" lon="7.8736733"><ele>292.0</ele><time>2026-04-11T14:12:43.44Z</time></trkpt><trkpt lat="45.0371383" lon="7.87375"><ele>292.0</ele><time>2026-04-11T14:12:45.44Z</time></trkpt><trkpt lat="45.0372417" lon="7.8737733"><ele>291.0</ele><time>2026-04-11T14:12:47.44Z</time></trkpt><trkpt lat="45.0373583" lon="7.8738067"><ele>290.0</ele><time>2026-04-11T14:12:49.44Z</time></trkpt><trkpt lat="45.03747" lon="7.8738567"><ele>289.0</ele><time>2026-04-11T14:12:51.44Z</time></trkpt><trkpt lat="45.03758" lon="7.8739167"><ele>288.0</ele><time>2026-04-11T14:12:53.44Z</time></trkpt><trkpt lat="45.03764" lon="7.87395"><ele>287.0</ele><time>2026-04-11T14:12:54.44Z</time></trkpt><trkpt lat="45.037705" lon="7.8739867"><ele>286.85714285714283</ele><time>2026-04-11T14:12:55.44Z</time></trkpt><trkpt lat="45.0377717" lon="7.87402"><ele>286.7142857142857</ele><time>2026-04-11T14:12:56.44Z</time></trkpt><trkpt lat="45.0378383" lon="7.874055"><ele>286.57142857142856</ele><time>2026-04-11T14:12:57.44Z</time></trkpt><trkpt lat="45.037905" lon="7.8740917"><ele>286.42857142857144</ele><time>2026-04-11T14:12:58.44Z</time></trkpt><trkpt lat="45.0379683" lon="7.8741333"><ele>286.2857142857143</ele><time>2026-04-11T14:12:59.44Z</time></trkpt><trkpt lat="45.0380367" lon="7.8741717"><ele>286.1428571428571</ele><time>2026-04-11T14:13:00.44Z</time></trkpt><trkpt lat="45.038105" lon="7.8742017"><ele>286.0</ele><time>2026-04-11T14:13:01.44Z</time></trkpt><trkpt lat="45.0381683" lon="7.874235"><ele>285.66666666666663</ele><time>2026-04-11T14:13:02.441Z</time></trkpt><trkpt lat="45.0382333" lon="7.8742717"><ele>285.3333333333333</ele><time>2026-04-11T14:13:03.44Z</time></trkpt><trkpt lat="45.0382983" lon="7.8743067"><ele>285.0</ele><time>2026-04-11T14:13:04.44Z</time></trkpt><trkpt lat="45.03836" lon="7.87434"><ele>284.6666666666667</ele><time>2026-04-11T14:13:05.44Z</time></trkpt><trkpt lat="45.0384217" lon="7.8743717"><ele>284.33333333333337</ele><time>2026-04-11T14:13:06.44Z</time></trkpt><trkpt lat="45.0385383" lon="7.8744383"><ele>284.0</ele><time>2026-04-11T14:13:08.44Z</time></trkpt><trkpt lat="45.038655" lon="7.8744983"><ele>283.85714285714283</ele><time>2026-04-11T14:13:10.44Z</time></trkpt><trkpt lat="45.0387667" lon="7.8745467"><ele>283.71428571428567</ele><time>2026-04-11T14:13:12.44Z</time></trkpt><trkpt lat="45.0388267" lon="7.8745783"><ele>283.57142857142856</ele><time>2026-04-11T14:13:13.441Z</time></trkpt><trkpt lat="45.0388867" lon="7.8746117"><ele>283.42857142857144</ele><time>2026-04-11T14:13:14.44Z</time></trkpt><trkpt lat="45.0389483" lon="7.8746433"><ele>283.28571428571433</ele><time>2026-04-11T14:13:15.44Z</time></trkpt><trkpt lat="45.03901" lon="7.8746767"><ele>283.14285714285717</ele><time>2026-04-11T14:13:16.44Z</time></trkpt><trkpt lat="45.039075" lon="7.8747083"><ele>283.0</ele><time>2026-04-11T14:13:17.44Z</time></trkpt><trkpt lat="45.0391417" lon="7.8747383"><ele>283.0</ele><time>2026-04-11T14:13:18.44Z</time></trkpt><trkpt lat="45.0392017" lon="7.8747717"><ele>283.0</ele><time>2026-04-11T14:13:19.44Z</time></trkpt><trkpt lat="45.0392683" lon="7.874805"><ele>283.0</ele><time>2026-04-11T14:13:20.441Z</time></trkpt><trkpt lat="45.03933" lon="7.87484"><ele>283.0</ele><time>2026-04-11T14:13:21.44Z</time></trkpt><trkpt lat="45.0394483" lon="7.8749017"><ele>283.0</ele><time>2026-04-11T14:13:23.44Z</time></trkpt><trkpt lat="45.0395083" lon="7.8749317"><ele>283.0</ele><time>2026-04-11T14:13:24.439Z</time></trkpt><trkpt lat="45.039625" lon="7.8749933"><ele>283.0</ele><time>2026-04-11T14:13:26.439Z</time></trkpt><trkpt lat="45.039745" lon="7.8750517"><ele>283.0</ele><time>2026-04-11T14:13:28.439Z</time></trkpt><trkpt lat="45.0398017" lon="7.8750983"><ele>283.0</ele><time>2026-04-11T14:13:29.44Z</time></trkpt><trkpt lat="45.0398617" lon="7.8751333"><ele>283.0</ele><time>2026-04-11T14:13:30.439Z</time></trkpt><trkpt lat="45.0399783" lon="7.8751967"><ele>283.0</ele><time>2026-04-11T14:13:32.439Z</time></trkpt><trkpt lat="45.04009" lon="7.8752533"><ele>282.8333333333333</ele><time>2026-04-11T14:13:34.439Z</time></trkpt><trkpt lat="45.0402083" lon="7.8753133"><ele>282.66666666666663</ele><time>2026-04-11T14:13:36.439Z</time></trkpt><trkpt lat="45.04027" lon="7.8753433"><ele>282.5</ele><time>2026-04-11T14:13:37.44Z</time></trkpt><trkpt lat="45.0403867" lon="7.8754017"><ele>282.3333333333333</ele><time>2026-04-11T14:13:39.439Z</time></trkpt><trkpt lat="45.0404483" lon="7.87543"><ele>282.1666666666667</ele><time>2026-04-11T14:13:40.439Z</time></trkpt><trkpt lat="45.0405083" lon="7.8754583"><ele>282.0</ele><time>2026-04-11T14:13:41.439Z</time></trkpt><trkpt lat="45.0405667" lon="7.8754917"><ele>282.0</ele><time>2026-04-11T14:13:42.439Z</time></trkpt><trkpt lat="45.040675" lon="7.87556"><ele>282.0</ele><time>2026-04-11T14:13:44.439Z</time></trkpt><trkpt lat="45.0407833" lon="7.8756217"><ele>282.0</ele><time>2026-04-11T14:13:46.439Z</time></trkpt><trkpt lat="45.04089" lon="7.8756783"><ele>282.0</ele><time>2026-04-11T14:13:48.439Z</time></trkpt><trkpt lat="45.0409933" lon="7.8757317"><ele>282.8</ele><time>2026-04-11T14:13:50.439Z</time></trkpt><trkpt lat="45.0410867" lon="7.875785"><ele>283.6</ele><time>2026-04-11T14:13:52.439Z</time></trkpt><trkpt lat="45.04117" lon="7.8758217"><ele>284.40000000000003</ele><time>2026-04-11T14:13:54.439Z</time></trkpt><trkpt lat="45.0412917" lon="7.8758783"><ele>285.2</ele><time>2026-04-11T14:13:57.439Z</time></trkpt><trkpt lat="45.0413683" lon="7.8759117"><ele>286.0</ele><time>2026-04-11T14:13:59.439Z</time></trkpt><trkpt lat="45.04144" lon="7.8759583"><ele>287.4285714285714</ele><time>2026-04-11T14:14:01.439Z</time></trkpt><trkpt lat="45.0415183" lon="7.876005"><ele>288.85714285714283</ele><time>2026-04-11T14:14:03.439Z</time></trkpt><trkpt lat="45.0415917" lon="7.8760517"><ele>290.2857142857143</ele><time>2026-04-11T14:14:05.439Z</time></trkpt><trkpt lat="45.0416533" lon="7.87611"><ele>291.71428571428567</ele><time>2026-04-11T14:14:07.439Z</time></trkpt><trkpt lat="45.0417117" lon="7.8761667"><ele>293.1428571428571</ele><time>2026-04-11T14:14:09.439Z</time></trkpt><trkpt lat="45.0417683" lon="7.8762283"><ele>294.57142857142856</ele><time>2026-04-11T14:14:11.439Z</time></trkpt><trkpt lat="45.0418183" lon="7.87629"><ele>296.0</ele><time>2026-04-11T14:14:13.439Z</time></trkpt><trkpt lat="45.0418733" lon="7.8763617"><ele>296.6666666666667</ele><time>2026-04-11T14:14:16.439Z</time></trkpt><trkpt lat="45.04193" lon="7.8764033"><ele>297.33333333333337</ele><time>2026-04-11T14:14:19.439Z</time></trkpt><trkpt lat="45.0419833" lon="7.8764983"><ele>298.0</ele><time>2026-04-11T14:14:23.439Z</time></trkpt><trkpt lat="45.0420067" lon="7.8765933"><ele>298.6666666666667</ele><time>2026-04-11T14:14:25.44Z</time></trkpt><trkpt lat="45.0420367" lon="7.8766767"><ele>299.3333333333333</ele><time>2026-04-11T14:14:27.439Z</time></trkpt><trkpt lat="45.0421033" lon="7.8767733"><ele>300.0</ele><time>2026-04-11T14:14:30.439Z</time></trkpt><trkpt lat="45.0421583" lon="7.8768717"><ele>300.6666666666667</ele><time>2026-04-11T14:14:33.439Z</time></trkpt><trkpt lat="45.04221" lon="7.876965"><ele>301.3333333333333</ele><time>2026-04-11T14:14:36.439Z</time></trkpt><trkpt lat="45.04227" lon="7.87706"><ele>302.0</ele><time>2026-04-11T14:14:39.439Z</time></trkpt><trkpt lat="45.0423267" lon="7.8771417"><ele>302.66666666666663</ele><time>2026-04-11T14:14:42.439Z</time></trkpt><trkpt lat="45.042385" lon="7.87722"><ele>303.3333333333333</ele><time>2026-04-11T14:14:45.439Z</time></trkpt><trkpt lat="45.0424533" lon="7.8772933"><ele>304.0</ele><time>2026-04-11T14:14:48.44Z</time></trkpt><trkpt lat="45.04253" lon="7.8773583"><ele>304.3333333333333</ele><time>2026-04-11T14:14:51.439Z</time></trkpt><trkpt lat="45.042605" lon="7.8774083"><ele>304.66666666666663</ele><time>2026-04-11T14:14:54.439Z</time></trkpt><trkpt lat="45.0426833" lon="7.8774433"><ele>305.0</ele><time>2026-04-11T14:14:57.439Z</time></trkpt><trkpt lat="45.0427567" lon="7.8774767"><ele>305.3333333333333</ele><time>2026-04-11T14:15:00.439Z</time></trkpt><trkpt lat="45.0428333" lon="7.877495"><ele>305.6666666666667</ele><time>2026-04-11T14:15:03.439Z</time></trkpt><trkpt lat="45.0429183" lon="7.8775117"><ele>306.0</ele><time>2026-04-11T14:15:06.439Z</time></trkpt><trkpt lat="45.043" lon="7.8775283"><ele>306.0</ele><time>2026-04-11T14:15:09.439Z</time></trkpt><trkpt lat="45.0430817" lon="7.877545"><ele>306.0</ele><time>2026-04-11T14:15:12.439Z</time></trkpt><trkpt lat="45.0431633" lon="7.877565"><ele>306.0</ele><time>2026-04-11T14:15:15.439Z</time></trkpt><trkpt lat="45.04325" lon="7.87758"><ele>306.0</ele><time>2026-04-11T14:15:18.439Z</time></trkpt><trkpt lat="45.043325" lon="7.8775883"><ele>306.0</ele><time>2026-04-11T14:15:21.439Z</time></trkpt><trkpt lat="45.0434" lon="7.8776"><ele>306.0</ele><time>2026-04-11T14:15:24.439Z</time></trkpt><trkpt lat="45.0434817" lon="7.8776133"><ele>307.6666666666667</ele><time>2026-04-11T14:15:27.439Z</time></trkpt><trkpt lat="45.04356" lon="7.8776233"><ele>309.3333333333333</ele><time>2026-04-11T14:15:30.439Z</time></trkpt><trkpt lat="45.0436417" lon="7.8776417"><ele>311.0</ele><time>2026-04-11T14:15:33.439Z</time></trkpt><trkpt lat="45.0437167" lon="7.877655"><ele>312.66666666666663</ele><time>2026-04-11T14:15:36.439Z</time></trkpt><trkpt lat="45.04379" lon="7.8776717"><ele>314.3333333333333</ele><time>2026-04-11T14:15:39.439Z</time></trkpt><trkpt lat="45.04387" lon="7.8776783"><ele>316.0</ele><time>2026-04-11T14:15:42.439Z</time></trkpt><trkpt lat="45.04394" lon="7.8777117"><ele>316.0</ele><time>2026-04-11T14:15:45.439Z</time></trkpt><trkpt lat="45.044015" lon="7.8777283"><ele>316.0</ele><time>2026-04-11T14:15:48.439Z</time></trkpt><trkpt lat="45.0441" lon="7.8777367"><ele>316.0</ele><time>2026-04-11T14:15:51.439Z</time></trkpt><trkpt lat="45.0441867" lon="7.8777333"><ele>316.0</ele><time>2026-04-11T14:15:54.439Z</time></trkpt><trkpt lat="45.0442617" lon="7.87775"><ele>316.0</ele><time>2026-04-11T14:15:57.44Z</time></trkpt><trkpt lat="45.044345" lon="7.8777767"><ele>316.0</ele><time>2026-04-11T14:16:00.439Z</time></trkpt><trkpt lat="45.04442" lon="7.8777883"><ele>317.66666666666663</ele><time>2026-04-11T14:16:03.439Z</time></trkpt><trkpt lat="45.0444983" lon="7.8778"><ele>319.3333333333333</ele><time>2026-04-11T14:16:06.439Z</time></trkpt><trkpt lat="45.0445867" lon="7.87782"><ele>321.0</ele><time>2026-04-11T14:16:09.44Z</time></trkpt><trkpt lat="45.0446667" lon="7.8778367"><ele>322.6666666666667</ele><time>2026-04-11T14:16:12.439Z</time></trkpt><trkpt lat="45.044745" lon="7.87786"><ele>324.33333333333337</ele><time>2026-04-11T14:16:15.439Z</time></trkpt><trkpt lat="45.044825" lon="7.8778983"><ele>326.0</ele><time>2026-04-11T14:16:18.439Z</time></trkpt><trkpt lat="45.0449017" lon="7.877945"><ele>327.33333333333337</ele><time>2026-04-11T14:16:21.439Z</time></trkpt><trkpt lat="45.0449817" lon="7.877985"><ele>328.6666666666667</ele><time>2026-04-11T14:16:24.439Z</time></trkpt><trkpt lat="45.0450617" lon="7.8780417"><ele>330.0</ele><time>2026-04-11T14:16:27.439Z</time></trkpt><trkpt lat="45.0451433" lon="7.8780917"><ele>331.3333333333333</ele><time>2026-04-11T14:16:30.439Z</time></trkpt><trkpt lat="45.0452183" lon="7.8781533"><ele>332.66666666666663</ele><time>2026-04-11T14:16:33.439Z</time></trkpt><trkpt lat="45.0453033" lon="7.8781917"><ele>334.0</ele><time>2026-04-11T14:16:36.44Z</time></trkpt><trkpt lat="45.0453833" lon="7.878245"><ele>334.0</ele><time>2026-04-11T14:16:39.439Z</time></trkpt><trkpt lat="45.0454567" lon="7.8783"><ele>334.0</ele><time>2026-04-11T14:16:42.439Z</time></trkpt><trkpt lat="45.0455183" lon="7.8783517"><ele>334.0</ele><time>2026-04-11T14:16:45.439Z</time></trkpt><trkpt lat="45.0455767" lon="7.8784"><ele>334.0</ele><time>2026-04-11T14:16:48.439Z</time></trkpt><trkpt lat="45.0456367" lon="7.87844"><ele>334.0</ele><time>2026-04-11T14:16:50.439Z</time></trkpt><trkpt lat="45.0457033" lon="7.87847"><ele>334.0</ele><time>2026-04-11T14:16:52.439Z</time></trkpt><trkpt lat="45.0457733" lon="7.8784967"><ele>334.0</ele><time>2026-04-11T14:16:54.439Z</time></trkpt><trkpt lat="45.0458333" lon="7.8785317"><ele>336.16666666666663</ele><time>2026-04-11T14:16:56.439Z</time></trkpt><trkpt lat="45.0458983" lon="7.878575"><ele>338.3333333333333</ele><time>2026-04-11T14:16:58.439Z</time></trkpt><trkpt lat="45.0459917" lon="7.8786017"><ele>340.5</ele><time>2026-04-11T14:17:01.439Z</time></trkpt><trkpt lat="45.0460583" lon="7.87863"><ele>342.6666666666667</ele><time>2026-04-11T14:17:03.439Z</time></trkpt><trkpt lat="45.0461383" lon="7.878655"><ele>344.83333333333337</ele><time>2026-04-11T14:17:05.439Z</time></trkpt><trkpt lat="45.046205" lon="7.8786683"><ele>347.0</ele><time>2026-04-11T14:17:07.44Z</time></trkpt><trkpt lat="45.0462783" lon="7.8786817"><ele>347.0</ele><time>2026-04-11T14:17:09.439Z</time></trkpt><trkpt lat="45.0463533" lon="7.87871"><ele>347.0</ele><time>2026-04-11T14:17:11.439Z</time></trkpt><trkpt lat="45.0464267" lon="7.87872"><ele>347.0</ele><time>2026-04-11T14:17:13.439Z</time></trkpt><trkpt lat="45.046495" lon="7.8787417"><ele>347.0</ele><time>2026-04-11T14:17:15.439Z</time></trkpt><trkpt lat="45.04656" lon="7.8787567"><ele>347.0</ele><time>2026-04-11T14:17:17.44Z</time></trkpt><trkpt lat="45.0466267" lon="7.8787683"><ele>347.0</ele><time>2026-04-11T14:17:19.439Z</time></trkpt><trkpt lat="45.0466967" lon="7.8787883"><ele>347.0</ele><time>2026-04-11T14:17:21.439Z</time></trkpt><trkpt lat="45.0467667" lon="7.8788083"><ele>346.83333333333337</ele><time>2026-04-11T14:17:23.439Z</time></trkpt><trkpt lat="45.0468383" lon="7.8788217"><ele>346.6666666666667</ele><time>2026-04-11T14:17:25.439Z</time></trkpt><trkpt lat="45.0469117" lon="7.878835"><ele>346.5</ele><time>2026-04-11T14:17:27.439Z</time></trkpt><trkpt lat="45.0469867" lon="7.8788433"><ele>346.3333333333333</ele><time>2026-04-11T14:17:29.439Z</time></trkpt><trkpt lat="45.047065" lon="7.8788417"><ele>346.16666666666663</ele><time>2026-04-11T14:17:31.439Z</time></trkpt><trkpt lat="45.04716" lon="7.8788267"><ele>346.0</ele><time>2026-04-11T14:17:33.439Z</time></trkpt><trkpt lat="45.0472483" lon="7.8788167"><ele>346.0</ele><time>2026-04-11T14:17:35.439Z</time></trkpt><trkpt lat="45.04735" lon="7.878805"><ele>346.0</ele><time>2026-04-11T14:17:37.439Z</time></trkpt><trkpt lat="45.0474567" lon="7.8787883"><ele>346.0</ele><time>2026-04-11T14:17:39.439Z</time></trkpt><trkpt lat="45.0475583" lon="7.87877"><ele>346.0</ele><time>2026-04-11T14:17:41.439Z</time></trkpt><trkpt lat="45.0476617" lon="7.878755"><ele>346.0</ele><time>2026-04-11T14:17:43.439Z</time></trkpt><trkpt lat="45.0477833" lon="7.8787367"><ele>345.0</ele><time>2026-04-11T14:17:45.439Z</time></trkpt><trkpt lat="45.047915" lon="7.8787283"><ele>344.0</ele><time>2026-04-11T14:17:47.439Z</time></trkpt><trkpt lat="45.0480433" lon="7.878715"><ele>343.0</ele><time>2026-04-11T14:17:49.439Z</time></trkpt><trkpt lat="45.0481067" lon="7.878705"><ele>342.0</ele><time>2026-04-11T14:17:50.439Z</time></trkpt><trkpt lat="45.0481733" lon="7.8786983"><ele>341.0</ele><time>2026-04-11T14:17:51.439Z</time></trkpt><trkpt lat="45.0482783" lon="7.8786917"><ele>340.4</ele><time>2026-04-11T14:17:53.439Z</time></trkpt><trkpt lat="45.0483817" lon="7.8786933"><ele>339.8</ele><time>2026-04-11T14:17:55.439Z</time></trkpt><trkpt lat="45.0484717" lon="7.8787067"><ele>339.2</ele><time>2026-04-11T14:17:57.439Z</time></trkpt><trkpt lat="45.0485717" lon="7.8787133"><ele>338.59999999999997</ele><time>2026-04-11T14:17:59.439Z</time></trkpt><trkpt lat="45.0486867" lon="7.8787517"><ele>338.0</ele><time>2026-04-11T14:18:01.439Z</time></trkpt><trkpt lat="45.048745" lon="7.8787983"><ele>338.0</ele><time>2026-04-11T14:18:02.439Z</time></trkpt><trkpt lat="45.0487933" lon="7.8788683"><ele>338.0</ele><time>2026-04-11T14:18:03.439Z</time></trkpt><trkpt lat="45.04883" lon="7.8789617"><ele>338.0</ele><time>2026-04-11T14:18:04.439Z</time></trkpt><trkpt lat="45.0488583" lon="7.8790683"><ele>338.0</ele><time>2026-04-11T14:18:05.439Z</time></trkpt><trkpt lat="45.0488817" lon="7.8791817"><ele>338.0</ele><time>2026-04-11T14:18:06.439Z</time></trkpt><trkpt lat="45.0488983" lon="7.8792933"><ele>338.0</ele><time>2026-04-11T14:18:07.439Z</time></trkpt><trkpt lat="45.0489183" lon="7.8793967"><ele>336.6666666666667</ele><time>2026-04-11T14:18:08.439Z</time></trkpt><trkpt lat="45.0489533" lon="7.87955"><ele>335.33333333333337</ele><time>2026-04-11T14:18:10.439Z</time></trkpt><trkpt lat="45.0489817" lon="7.8796667"><ele>334.0</ele><time>2026-04-11T14:18:12.439Z</time></trkpt><trkpt lat="45.048995" lon="7.879765"><ele>332.6666666666667</ele><time>2026-04-11T14:18:15.439Z</time></trkpt><trkpt lat="45.04899" lon="7.87986"><ele>331.3333333333333</ele><time>2026-04-11T14:18:20.439Z</time></trkpt><trkpt lat="45.048975" lon="7.879965"><ele>330.0</ele><time>2026-04-11T14:18:29.439Z</time></trkpt><trkpt lat="45.04897" lon="7.8801483"><ele>329.3333333333333</ele><time>2026-04-11T14:19:33.439Z</time></trkpt><trkpt lat="45.048965" lon="7.8802717"><ele>328.6666666666667</ele><time>2026-04-11T14:19:35.439Z</time></trkpt><trkpt lat="45.04896" lon="7.8803633"><ele>328.0</ele><time>2026-04-11T14:19:36.439Z</time></trkpt><trkpt lat="45.048955" lon="7.8804633"><ele>327.33333333333337</ele><time>2026-04-11T14:19:37.439Z</time></trkpt><trkpt lat="45.048945" lon="7.8805717"><ele>326.6666666666667</ele><time>2026-04-11T14:19:38.439Z</time></trkpt><trkpt lat="45.0489183" lon="7.8806983"><ele>326.0</ele><time>2026-04-11T14:19:39.44Z</time></trkpt><trkpt lat="45.0488933" lon="7.8808233"><ele>324.8</ele><time>2026-04-11T14:19:40.439Z</time></trkpt><trkpt lat="45.0488683" lon="7.8809567"><ele>323.6</ele><time>2026-04-11T14:19:41.439Z</time></trkpt><trkpt lat="45.0488483" lon="7.8810967"><ele>322.4</ele><time>2026-04-11T14:19:42.439Z</time></trkpt><trkpt lat="45.048835" lon="7.8812383"><ele>321.2</ele><time>2026-04-11T14:19:43.439Z</time></trkpt><trkpt lat="45.048825" lon="7.8813867"><ele>320.0</ele><time>2026-04-11T14:19:44.439Z</time></trkpt><trkpt lat="45.0488133" lon="7.88153"><ele>320.0</ele><time>2026-04-11T14:19:45.439Z</time></trkpt><trkpt lat="45.0487933" lon="7.88167"><ele>320.0</ele><time>2026-04-11T14:19:46.439Z</time></trkpt><trkpt lat="45.0487767" lon="7.8818117"><ele>320.0</ele><time>2026-04-11T14:19:47.439Z</time></trkpt><trkpt lat="45.0487633" lon="7.8819517"><ele>320.0</ele><time>2026-04-11T14:19:48.439Z</time></trkpt><trkpt lat="45.0487517" lon="7.88209"><ele>320.0</ele><time>2026-04-11T14:19:49.439Z</time></trkpt><trkpt lat="45.0487433" lon="7.8822267"><ele>319.5</ele><time>2026-04-11T14:19:50.439Z</time></trkpt><trkpt lat="45.0487267" lon="7.8823567"><ele>319.0</ele><time>2026-04-11T14:19:51.439Z</time></trkpt><trkpt lat="45.0487083" lon="7.8824767"><ele>318.5</ele><time>2026-04-11T14:19:52.439Z</time></trkpt><trkpt lat="45.0486933" lon="7.882595"><ele>318.0</ele><time>2026-04-11T14:19:53.439Z</time></trkpt><trkpt lat="45.04868" lon="7.88271"><ele>317.5</ele><time>2026-04-11T14:19:54.439Z</time></trkpt><trkpt lat="45.0486733" lon="7.8828217"><ele>317.0</ele><time>2026-04-11T14:19:55.439Z</time></trkpt><trkpt lat="45.048675" lon="7.8829283"><ele>317.0</ele><time>2026-04-11T14:19:56.438Z</time></trkpt><trkpt lat="45.0486717" lon="7.8830333"><ele>317.0</ele><time>2026-04-11T14:19:57.438Z</time></trkpt><trkpt lat="45.0486633" lon="7.88314"><ele>317.0</ele><time>2026-04-11T14:19:58.438Z</time></trkpt><trkpt lat="45.048655" lon="7.8832483"><ele>317.0</ele><time>2026-04-11T14:19:59.438Z</time></trkpt><trkpt lat="45.04865" lon="7.8833633"><ele>317.0</ele><time>2026-04-11T14:20:00.438Z</time></trkpt><trkpt lat="45.048645" lon="7.8834733"><ele>317.0</ele><time>2026-04-11T14:20:01.438Z</time></trkpt><trkpt lat="45.0486433" lon="7.8835783"><ele>317.4</ele><time>2026-04-11T14:20:02.438Z</time></trkpt><trkpt lat="45.0486417" lon="7.88368"><ele>317.79999999999995</ele><time>2026-04-11T14:20:03.438Z</time></trkpt><trkpt lat="45.0486383" lon="7.8837733"><ele>318.2</ele><time>2026-04-11T14:20:04.438Z</time></trkpt><trkpt lat="45.0486267" lon="7.8839317"><ele>318.59999999999997</ele><time>2026-04-11T14:20:06.438Z</time></trkpt><trkpt lat="45.048625" lon="7.8840867"><ele>319.0</ele><time>2026-04-11T14:20:08.438Z</time></trkpt><trkpt lat="45.048645" lon="7.8842533"><ele>318.3333333333333</ele><time>2026-04-11T14:20:10.438Z</time></trkpt><trkpt lat="45.0486517" lon="7.884355"><ele>317.66666666666663</ele><time>2026-04-11T14:20:11.438Z</time></trkpt><trkpt lat="45.0486567" lon="7.884465"><ele>317.0</ele><time>2026-04-11T14:20:12.439Z</time></trkpt><trkpt lat="45.0486633" lon="7.8845767"><ele>316.3333333333333</ele><time>2026-04-11T14:20:13.438Z</time></trkpt><trkpt lat="45.048675" lon="7.884685"><ele>315.6666666666667</ele><time>2026-04-11T14:20:14.438Z</time></trkpt><trkpt lat="45.0486817" lon="7.884795"><ele>315.0</ele><time>2026-04-11T14:20:15.438Z</time></trkpt><trkpt lat="45.0486867" lon="7.8849067"><ele>315.0</ele><time>2026-04-11T14:20:16.438Z</time></trkpt><trkpt lat="45.0486867" lon="7.885025"><ele>315.0</ele><time>2026-04-11T14:20:17.438Z</time></trkpt><trkpt lat="45.048695" lon="7.88515"><ele>315.0</ele><time>2026-04-11T14:20:18.438Z</time></trkpt><trkpt lat="45.0486983" lon="7.8852817"><ele>315.0</ele><time>2026-04-11T14:20:19.438Z</time></trkpt><trkpt lat="45.0487017" lon="7.8854167"><ele>315.0</ele><time>2026-04-11T14:20:20.438Z</time></trkpt><trkpt lat="45.048705" lon="7.88555"><ele>314.1666666666667</ele><time>2026-04-11T14:20:21.438Z</time></trkpt><trkpt lat="45.0487033" lon="7.8856817"><ele>313.3333333333333</ele><time>2026-04-11T14:20:22.438Z</time></trkpt><trkpt lat="45.0487117" lon="7.8858017"><ele>312.5</ele><time>2026-04-11T14:20:23.438Z</time></trkpt><trkpt lat="45.0487133" lon="7.8859217"><ele>311.66666666666663</ele><time>2026-04-11T14:20:24.438Z</time></trkpt><trkpt lat="45.0487183" lon="7.8860117"><ele>310.8333333333333</ele><time>2026-04-11T14:20:25.438Z</time></trkpt><trkpt lat="45.04872" lon="7.8861083"><ele>310.0</ele><time>2026-04-11T14:20:26.438Z</time></trkpt><trkpt lat="45.0487233" lon="7.886205"><ele>308.5</ele><time>2026-04-11T14:20:27.438Z</time></trkpt><trkpt lat="45.0487217" lon="7.886325"><ele>307.0</ele><time>2026-04-11T14:20:28.438Z</time></trkpt><trkpt lat="45.048715" lon="7.88644"><ele>305.5</ele><time>2026-04-11T14:20:29.438Z</time></trkpt><trkpt lat="45.048715" lon="7.886555"><ele>304.0</ele><time>2026-04-11T14:20:30.438Z</time></trkpt><trkpt lat="45.0487133" lon="7.886675"><ele>302.5</ele><time>2026-04-11T14:20:31.439Z</time></trkpt><trkpt lat="45.048715" lon="7.8867867"><ele>301.0</ele><time>2026-04-11T14:20:32.438Z</time></trkpt><trkpt lat="45.0487217" lon="7.8868933"><ele>299.66666666666663</ele><time>2026-04-11T14:20:33.438Z</time></trkpt><trkpt lat="45.0487317" lon="7.8869883"><ele>298.3333333333333</ele><time>2026-04-11T14:20:34.438Z</time></trkpt><trkpt lat="45.048735" lon="7.8871283"><ele>297.0</ele><time>2026-04-11T14:20:36.438Z</time></trkpt><trkpt lat="45.0487067" lon="7.8872133"><ele>295.6666666666667</ele><time>2026-04-11T14:20:38.438Z</time></trkpt><trkpt lat="45.04862" lon="7.8872483"><ele>294.33333333333337</ele><time>2026-04-11T14:20:40.438Z</time></trkpt><trkpt lat="45.0485567" lon="7.8872583"><ele>293.0</ele><time>2026-04-11T14:20:41.438Z</time></trkpt><trkpt lat="45.04849" lon="7.8872683"><ele>293.0</ele><time>2026-04-11T14:20:42.439Z</time></trkpt><trkpt lat="45.048415" lon="7.887275"><ele>293.0</ele><time>2026-04-11T14:20:43.438Z</time></trkpt><trkpt lat="45.0483433" lon="7.8872867"><ele>293.0</ele><time>2026-04-11T14:20:44.438Z</time></trkpt><trkpt lat="45.0482667" lon="7.8873017"><ele>293.0</ele><time>2026-04-11T14:20:45.439Z</time></trkpt><trkpt lat="45.04819" lon="7.8873217"><ele>293.0</ele><time>2026-04-11T14:20:46.438Z</time></trkpt><trkpt lat="45.0481167" lon="7.88734"><ele>293.0</ele><time>2026-04-11T14:20:47.438Z</time></trkpt><trkpt lat="45.0480417" lon="7.8873517"><ele>292.5</ele><time>2026-04-11T14:20:48.439Z</time></trkpt><trkpt lat="45.04796" lon="7.8873633"><ele>292.0</ele><time>2026-04-11T14:20:49.438Z</time></trkpt><trkpt lat="45.0478817" lon="7.8873783"><ele>291.5</ele><time>2026-04-11T14:20:50.438Z</time></trkpt><trkpt lat="45.047805" lon="7.88739"><ele>291.0</ele><time>2026-04-11T14:20:51.438Z</time></trkpt><trkpt lat="45.0477283" lon="7.8873983"><ele>290.5</ele><time>2026-04-11T14:20:52.438Z</time></trkpt><trkpt lat="45.0476467" lon="7.8874033"><ele>290.0</ele><time>2026-04-11T14:20:53.438Z</time></trkpt><trkpt lat="45.0475617" lon="7.8874133"><ele>290.0</ele><time>2026-04-11T14:20:54.438Z</time></trkpt><trkpt lat="45.0474917" lon="7.887425"><ele>290.0</ele><time>2026-04-11T14:20:55.438Z</time></trkpt><trkpt lat="45.0474133" lon="7.887435"><ele>290.0</ele><time>2026-04-11T14:20:56.438Z</time></trkpt><trkpt lat="45.0473383" lon="7.8874417"><ele>290.0</ele><time>2026-04-11T14:20:57.438Z</time></trkpt><trkpt lat="45.047265" lon="7.88745"><ele>290.0</ele><time>2026-04-11T14:20:58.438Z</time></trkpt><trkpt lat="45.0471867" lon="7.8874517"><ele>290.0</ele><time>2026-04-11T14:20:59.438Z</time></trkpt><trkpt lat="45.0471083" lon="7.8874533"><ele>290.33333333333337</ele><time>2026-04-11T14:21:00.438Z</time></trkpt><trkpt lat="45.04703" lon="7.8874617"><ele>290.6666666666667</ele><time>2026-04-11T14:21:01.438Z</time></trkpt><trkpt lat="45.04695" lon="7.88748"><ele>291.0</ele><time>2026-04-11T14:21:02.438Z</time></trkpt><trkpt lat="45.0468683" lon="7.8874983"><ele>291.3333333333333</ele><time>2026-04-11T14:21:03.438Z</time></trkpt><trkpt lat="45.0467867" lon="7.8875117"><ele>291.66666666666663</ele><time>2026-04-11T14:21:04.438Z</time></trkpt><trkpt lat="45.0467133" lon="7.8875233"><ele>292.0</ele><time>2026-04-11T14:21:05.438Z</time></trkpt><trkpt lat="45.0466417" lon="7.8875417"><ele>291.66666666666663</ele><time>2026-04-11T14:21:06.438Z</time></trkpt><trkpt lat="45.0465667" lon="7.8875633"><ele>291.3333333333333</ele><time>2026-04-11T14:21:07.438Z</time></trkpt><trkpt lat="45.04649" lon="7.8875917"><ele>291.0</ele><time>2026-04-11T14:21:08.438Z</time></trkpt><trkpt lat="45.0464133" lon="7.8876167"><ele>290.6666666666667</ele><time>2026-04-11T14:21:09.438Z</time></trkpt><trkpt lat="45.0463383" lon="7.887645"><ele>290.33333333333337</ele><time>2026-04-11T14:21:10.438Z</time></trkpt><trkpt lat="45.04627" lon="7.8876733"><ele>290.0</ele><time>2026-04-11T14:21:11.438Z</time></trkpt><trkpt lat="45.0461983" lon="7.8877"><ele>290.0</ele><time>2026-04-11T14:21:12.439Z</time></trkpt><trkpt lat="45.0461267" lon="7.8877333"><ele>290.0</ele><time>2026-04-11T14:21:13.438Z</time></trkpt><trkpt lat="45.0460583" lon="7.8877567"><ele>290.0</ele><time>2026-04-11T14:21:14.438Z</time></trkpt><trkpt lat="45.0459867" lon="7.8877867"><ele>290.0</ele><time>2026-04-11T14:21:15.438Z</time></trkpt><trkpt lat="45.0459183" lon="7.8878117"><ele>290.0</ele><time>2026-04-11T14:21:16.438Z</time></trkpt><trkpt lat="45.045855" lon="7.88784"><ele>290.0</ele><time>2026-04-11T14:21:17.439Z</time></trkpt><trkpt lat="45.04579" lon="7.887865"><ele>290.0</ele><time>2026-04-11T14:21:18.438Z</time></trkpt><trkpt lat="45.0457133" lon="7.887895"><ele>290.42857142857144</ele><time>2026-04-11T14:21:19.438Z</time></trkpt><trkpt lat="45.045645" lon="7.8879217"><ele>290.8571428571429</ele><time>2026-04-11T14:21:20.438Z</time></trkpt><trkpt lat="45.0455817" lon="7.8879533"><ele>291.2857142857143</ele><time>2026-04-11T14:21:21.438Z</time></trkpt><trkpt lat="45.0455167" lon="7.887985"><ele>291.7142857142857</ele><time>2026-04-11T14:21:22.438Z</time></trkpt><trkpt lat="45.0454467" lon="7.8880133"><ele>292.1428571428571</ele><time>2026-04-11T14:21:23.438Z</time></trkpt><trkpt lat="45.0453783" lon="7.8880333"><ele>292.57142857142856</ele><time>2026-04-11T14:21:24.438Z</time></trkpt><trkpt lat="45.0453167" lon="7.8880583"><ele>293.0</ele><time>2026-04-11T14:21:25.438Z</time></trkpt><trkpt lat="45.0452483" lon="7.8880833"><ele>292.99999999999994</ele><time>2026-04-11T14:21:26.438Z</time></trkpt><trkpt lat="45.0451817" lon="7.888105"><ele>293.0</ele><time>2026-04-11T14:21:27.438Z</time></trkpt><trkpt lat="45.045115" lon="7.8881317"><ele>293.0</ele><time>2026-04-11T14:21:28.438Z</time></trkpt><trkpt lat="45.04505" lon="7.8881517"><ele>293.0</ele><time>2026-04-11T14:21:29.438Z</time></trkpt><trkpt lat="45.0449817" lon="7.8881717"><ele>293.0</ele><time>2026-04-11T14:21:30.438Z</time></trkpt><trkpt lat="45.0449167" lon="7.8881967"><ele>292.99999999999994</ele><time>2026-04-11T14:21:31.438Z</time></trkpt><trkpt lat="45.0448533" lon="7.88823"><ele>293.0</ele><time>2026-04-11T14:21:32.438Z</time></trkpt><trkpt lat="45.044785" lon="7.8882617"><ele>293.33333333333337</ele><time>2026-04-11T14:21:33.438Z</time></trkpt><trkpt lat="45.04472" lon="7.8882883"><ele>293.6666666666667</ele><time>2026-04-11T14:21:34.439Z</time></trkpt><trkpt lat="45.0446567" lon="7.8883167"><ele>294.0</ele><time>2026-04-11T14:21:35.438Z</time></trkpt><trkpt lat="45.0445933" lon="7.8883483"><ele>294.3333333333333</ele><time>2026-04-11T14:21:36.438Z</time></trkpt><trkpt lat="45.0445283" lon="7.8883717"><ele>294.66666666666663</ele><time>2026-04-11T14:21:37.439Z</time></trkpt><trkpt lat="45.044465" lon="7.8883933"><ele>295.0</ele><time>2026-04-11T14:21:38.438Z</time></trkpt><trkpt lat="45.0443517" lon="7.88843"><ele>293.3333333333333</ele><time>2026-04-11T14:21:40.439Z</time></trkpt><trkpt lat="45.04429" lon="7.88845"><ele>291.66666666666663</ele><time>2026-04-11T14:21:41.438Z</time></trkpt><trkpt lat="45.0441917" lon="7.888505"><ele>290.0</ele><time>2026-04-11T14:21:43.438Z</time></trkpt><trkpt lat="45.0441433" lon="7.8885933"><ele>288.3333333333333</ele><time>2026-04-11T14:21:45.438Z</time></trkpt><trkpt lat="45.0441467" lon="7.8886867"><ele>286.6666666666667</ele><time>2026-04-11T14:21:47.438Z</time></trkpt><trkpt lat="45.0441817" lon="7.888805"><ele>285.0</ele><time>2026-04-11T14:21:49.438Z</time></trkpt><trkpt lat="45.0442133" lon="7.888945"><ele>285.0</ele><time>2026-04-11T14:21:51.438Z</time></trkpt><trkpt lat="45.0442533" lon="7.8890967"><ele>285.0</ele><time>2026-04-11T14:21:53.438Z</time></trkpt><trkpt lat="45.0442917" lon="7.889255"><ele>285.0</ele><time>2026-04-11T14:21:55.438Z</time></trkpt><trkpt lat="45.044335" lon="7.8894083"><ele>285.0</ele><time>2026-04-11T14:21:57.438Z</time></trkpt><trkpt lat="45.0443733" lon="7.8895633"><ele>285.0</ele><time>2026-04-11T14:21:59.438Z</time></trkpt><trkpt lat="45.04439" lon="7.88965"><ele>285.0</ele><time>2026-04-11T14:22:00.439Z</time></trkpt><trkpt lat="45.0444317" lon="7.8898133"><ele>285.0</ele><time>2026-04-11T14:22:02.438Z</time></trkpt><trkpt lat="45.044455" lon="7.8899"><ele>285.0</ele><time>2026-04-11T14:22:03.439Z</time></trkpt><trkpt lat="45.0444767" lon="7.889985"><ele>285.0</ele><time>2026-04-11T14:22:04.438Z</time></trkpt><trkpt lat="45.044495" lon="7.8900717"><ele>285.0</ele><time>2026-04-11T14:22:05.438Z</time></trkpt><trkpt lat="45.0445167" lon="7.8901633"><ele>285.0</ele><time>2026-04-11T14:22:06.438Z</time></trkpt><trkpt lat="45.0445633" lon="7.8903383"><ele>285.0</ele><time>2026-04-11T14:22:08.438Z</time></trkpt><trkpt lat="45.04459" lon="7.8904267"><ele>285.0</ele><time>2026-04-11T14:22:09.438Z</time></trkpt><trkpt lat="45.0446117" lon="7.890515"><ele>285.0</ele><time>2026-04-11T14:22:10.438Z</time></trkpt><trkpt lat="45.0446317" lon="7.89061"><ele>285.0</ele><time>2026-04-11T14:22:11.438Z</time></trkpt><trkpt lat="45.0446517" lon="7.890695"><ele>285.0</ele><time>2026-04-11T14:22:12.438Z</time></trkpt><trkpt lat="45.04467" lon="7.890785"><ele>285.0</ele><time>2026-04-11T14:22:13.438Z</time></trkpt><trkpt lat="45.044695" lon="7.8908683"><ele>285.0</ele><time>2026-04-11T14:22:14.438Z</time></trkpt><trkpt lat="45.0447167" lon="7.8909533"><ele>285.0</ele><time>2026-04-11T14:22:15.438Z</time></trkpt><trkpt lat="45.0447383" lon="7.89104"><ele>285.0</ele><time>2026-04-11T14:22:16.438Z</time></trkpt><trkpt lat="45.04476" lon="7.89113"><ele>285.0</ele><time>2026-04-11T14:22:17.438Z</time></trkpt><trkpt lat="45.0448" lon="7.8912967"><ele>285.0</ele><time>2026-04-11T14:22:19.438Z</time></trkpt><trkpt lat="45.04482" lon="7.891385"><ele>285.0</ele><time>2026-04-11T14:22:20.438Z</time></trkpt><trkpt lat="45.0448417" lon="7.8914733"><ele>285.0</ele><time>2026-04-11T14:22:21.438Z</time></trkpt><trkpt lat="45.044885" lon="7.89164"><ele>284.8</ele><time>2026-04-11T14:22:23.438Z</time></trkpt><trkpt lat="45.04493" lon="7.8918067"><ele>284.6</ele><time>2026-04-11T14:22:25.438Z</time></trkpt><trkpt lat="45.0449533" lon="7.891895"><ele>284.4</ele><time>2026-04-11T14:22:26.438Z</time></trkpt><trkpt lat="45.0449767" lon="7.891985"><ele>284.2</ele><time>2026-04-11T14:22:27.438Z</time></trkpt><trkpt lat="45.04502" lon="7.89215"><ele>284.0</ele><time>2026-04-11T14:22:29.438Z</time></trkpt><trkpt lat="45.045045" lon="7.8922367"><ele>284.59999999999997</ele><time>2026-04-11T14:22:30.438Z</time></trkpt><trkpt lat="45.045085" lon="7.8924033"><ele>285.2</ele><time>2026-04-11T14:22:32.438Z</time></trkpt><trkpt lat="45.0451217" lon="7.89255"><ele>285.79999999999995</ele><time>2026-04-11T14:22:34.438Z</time></trkpt><trkpt lat="45.0451533" lon="7.8926867"><ele>286.4</ele><time>2026-04-11T14:22:36.438Z</time></trkpt><trkpt lat="45.04519" lon="7.8928183"><ele>287.0</ele><time>2026-04-11T14:22:38.438Z</time></trkpt><trkpt lat="45.0452217" lon="7.892945"><ele>287.5</ele><time>2026-04-11T14:22:40.439Z</time></trkpt><trkpt lat="45.045255" lon="7.89304"><ele>288.0</ele><time>2026-04-11T14:22:42.438Z</time></trkpt><trkpt lat="45.0452233" lon="7.893135"><ele>288.5</ele><time>2026-04-11T14:22:45.438Z</time></trkpt><trkpt lat="45.0451" lon="7.89316"><ele>289.0</ele><time>2026-04-11T14:22:47.438Z</time></trkpt><trkpt lat="45.0450233" lon="7.89316"><ele>289.5</ele><time>2026-04-11T14:22:48.438Z</time></trkpt><trkpt lat="45.044945" lon="7.8931617"><ele>290.0</ele><time>2026-04-11T14:22:49.438Z</time></trkpt><trkpt lat="45.0448683" lon="7.8931817"><ele>289.1666666666667</ele><time>2026-04-11T14:22:50.438Z</time></trkpt><trkpt lat="45.0447883" lon="7.89322"><ele>288.33333333333337</ele><time>2026-04-11T14:22:51.438Z</time></trkpt><trkpt lat="45.0447117" lon="7.8932733"><ele>287.5</ele><time>2026-04-11T14:22:52.438Z</time></trkpt><trkpt lat="45.044645" lon="7.8933383"><ele>286.6666666666667</ele><time>2026-04-11T14:22:53.438Z</time></trkpt><trkpt lat="45.0445833" lon="7.893405"><ele>285.8333333333333</ele><time>2026-04-11T14:22:54.438Z</time></trkpt><trkpt lat="45.044525" lon="7.893475"><ele>285.0</ele><time>2026-04-11T14:22:55.438Z</time></trkpt><trkpt lat="45.0444667" lon="7.893545"><ele>285.0</ele><time>2026-04-11T14:22:56.438Z</time></trkpt><trkpt lat="45.0444133" lon="7.8936217"><ele>285.0</ele><time>2026-04-11T14:22:57.438Z</time></trkpt><trkpt lat="45.0443633" lon="7.893705"><ele>285.0</ele><time>2026-04-11T14:22:58.438Z</time></trkpt><trkpt lat="45.04432" lon="7.8937917"><ele>285.0</ele><time>2026-04-11T14:22:59.438Z</time></trkpt><trkpt lat="45.04428" lon="7.893885"><ele>285.0</ele><time>2026-04-11T14:23:00.438Z</time></trkpt><trkpt lat="45.0442417" lon="7.893975"><ele>285.0</ele><time>2026-04-11T14:23:01.438Z</time></trkpt><trkpt lat="45.0442083" lon="7.89407"><ele>285.0</ele><time>2026-04-11T14:23:02.438Z</time></trkpt><trkpt lat="45.044175" lon="7.8941667"><ele>285.0</ele><time>2026-04-11T14:23:03.439Z</time></trkpt><trkpt lat="45.0441417" lon="7.89426"><ele>285.0</ele><time>2026-04-11T14:23:04.439Z</time></trkpt><trkpt lat="45.04411" lon="7.89436"><ele>285.0</ele><time>2026-04-11T14:23:05.439Z</time></trkpt><trkpt lat="45.0440817" lon="7.894455"><ele>285.0</ele><time>2026-04-11T14:23:06.438Z</time></trkpt><trkpt lat="45.0440533" lon="7.8945533"><ele>285.0</ele><time>2026-04-11T14:23:07.438Z</time></trkpt><trkpt lat="45.0440267" lon="7.8946467"><ele>285.0</ele><time>2026-04-11T14:23:08.438Z</time></trkpt><trkpt lat="45.0440017" lon="7.8947433"><ele>284.85714285714283</ele><time>2026-04-11T14:23:09.438Z</time></trkpt><trkpt lat="45.0439783" lon="7.8948367"><ele>284.7142857142857</ele><time>2026-04-11T14:23:10.438Z</time></trkpt><trkpt lat="45.0439517" lon="7.8949333"><ele>284.57142857142856</ele><time>2026-04-11T14:23:11.438Z</time></trkpt><trkpt lat="45.0439333" lon="7.8950333"><ele>284.42857142857144</ele><time>2026-04-11T14:23:12.438Z</time></trkpt><trkpt lat="45.0439133" lon="7.89513"><ele>284.2857142857143</ele><time>2026-04-11T14:23:13.438Z</time></trkpt><trkpt lat="45.0438967" lon="7.8952283"><ele>284.1428571428571</ele><time>2026-04-11T14:23:14.438Z</time></trkpt><trkpt lat="45.0438817" lon="7.8953217"><ele>284.0</ele><time>2026-04-11T14:23:15.438Z</time></trkpt><trkpt lat="45.0438667" lon="7.8954167"><ele>284.8</ele><time>2026-04-11T14:23:16.438Z</time></trkpt><trkpt lat="45.04385" lon="7.8955083"><ele>285.59999999999997</ele><time>2026-04-11T14:23:17.438Z</time></trkpt><trkpt lat="45.0437967" lon="7.8956717"><ele>286.4</ele><time>2026-04-11T14:23:19.438Z</time></trkpt><trkpt lat="45.043725" lon="7.8958183"><ele>287.2</ele><time>2026-04-11T14:23:21.438Z</time></trkpt><trkpt lat="45.04364" lon="7.8959467"><ele>288.0</ele><time>2026-04-11T14:23:23.438Z</time></trkpt><trkpt lat="45.0435867" lon="7.896"><ele>290.2</ele><time>2026-04-11T14:23:24.438Z</time></trkpt><trkpt lat="45.04349" lon="7.896095"><ele>292.4</ele><time>2026-04-11T14:23:26.438Z</time></trkpt><trkpt lat="45.04341" lon="7.8961867"><ele>294.59999999999997</ele><time>2026-04-11T14:23:28.438Z</time></trkpt><trkpt lat="45.0433283" lon="7.89628"><ele>296.8</ele><time>2026-04-11T14:23:30.438Z</time></trkpt><trkpt lat="45.043235" lon="7.89635"><ele>299.0</ele><time>2026-04-11T14:23:32.438Z</time></trkpt><trkpt lat="45.043155" lon="7.896415"><ele>299.42857142857144</ele><time>2026-04-11T14:23:34.438Z</time></trkpt><trkpt lat="45.0430933" lon="7.8964783"><ele>299.8571428571429</ele><time>2026-04-11T14:23:36.438Z</time></trkpt><trkpt lat="45.0430367" lon="7.8965433"><ele>300.28571428571433</ele><time>2026-04-11T14:23:38.438Z</time></trkpt><trkpt lat="45.0429967" lon="7.8966217"><ele>300.7142857142857</ele><time>2026-04-11T14:23:40.438Z</time></trkpt><trkpt lat="45.04295" lon="7.896715"><ele>301.14285714285717</ele><time>2026-04-11T14:23:42.438Z</time></trkpt><trkpt lat="45.0429067" lon="7.8968083"><ele>301.5714285714286</ele><time>2026-04-11T14:23:44.439Z</time></trkpt><trkpt lat="45.0428667" lon="7.896885"><ele>302.0</ele><time>2026-04-11T14:23:46.438Z</time></trkpt><trkpt lat="45.0428517" lon="7.896975"><ele>302.5</ele><time>2026-04-11T14:23:48.438Z</time></trkpt><trkpt lat="45.04282" lon="7.8970783"><ele>303.0</ele><time>2026-04-11T14:23:50.438Z</time></trkpt><trkpt lat="45.0427783" lon="7.897175"><ele>303.5</ele><time>2026-04-11T14:23:52.438Z</time></trkpt><trkpt lat="45.04273" lon="7.8972683"><ele>304.0</ele><time>2026-04-11T14:23:54.439Z</time></trkpt><trkpt lat="45.0426833" lon="7.8973383"><ele>304.5</ele><time>2026-04-11T14:23:56.438Z</time></trkpt><trkpt lat="45.0426083" lon="7.89742"><ele>305.0</ele><time>2026-04-11T14:23:59.438Z</time></trkpt><trkpt lat="45.0425383" lon="7.8974783"><ele>305.0</ele><time>2026-04-11T14:24:01.438Z</time></trkpt><trkpt lat="45.0424783" lon="7.8975267"><ele>305.0</ele><time>2026-04-11T14:24:03.438Z</time></trkpt><trkpt lat="45.042425" lon="7.89758"><ele>305.0</ele><time>2026-04-11T14:24:05.438Z</time></trkpt><trkpt lat="45.042365" lon="7.8976317"><ele>305.0</ele><time>2026-04-11T14:24:07.438Z</time></trkpt><trkpt lat="45.042295" lon="7.89769"><ele>305.0</ele><time>2026-04-11T14:24:09.438Z</time></trkpt><trkpt lat="45.04222" lon="7.8977667"><ele>305.0</ele><time>2026-04-11T14:24:11.438Z</time></trkpt><trkpt lat="45.0421367" lon="7.8978433"><ele>304.0</ele><time>2026-04-11T14:24:13.438Z</time></trkpt><trkpt lat="45.042055" lon="7.8979317"><ele>303.0</ele><time>2026-04-11T14:24:15.438Z</time></trkpt><trkpt lat="45.0419883" lon="7.8980483"><ele>302.0</ele><time>2026-04-11T14:24:17.438Z</time></trkpt><trkpt lat="45.0419317" lon="7.8981667"><ele>301.0</ele><time>2026-04-11T14:24:19.438Z</time></trkpt><trkpt lat="45.0418667" lon="7.8982817"><ele>300.0</ele><time>2026-04-11T14:24:21.438Z</time></trkpt><trkpt lat="45.0418067" lon="7.8984033"><ele>299.8</ele><time>2026-04-11T14:24:23.438Z</time></trkpt><trkpt lat="45.0417717" lon="7.89854"><ele>299.6</ele><time>2026-04-11T14:24:25.438Z</time></trkpt><trkpt lat="45.0417433" lon="7.89868"><ele>299.4</ele><time>2026-04-11T14:24:27.438Z</time></trkpt><trkpt lat="45.0417317" lon="7.8988233"><ele>299.2</ele><time>2026-04-11T14:24:29.438Z</time></trkpt><trkpt lat="45.0417183" lon="7.8989783"><ele>299.0</ele><time>2026-04-11T14:24:31.438Z</time></trkpt><trkpt lat="45.0417067" lon="7.8991267"><ele>299.0</ele><time>2026-04-11T14:24:33.438Z</time></trkpt><trkpt lat="45.0417017" lon="7.89925"><ele>299.0</ele><time>2026-04-11T14:24:35.438Z</time></trkpt><trkpt lat="45.0417217" lon="7.899375"><ele>299.0</ele><time>2026-04-11T14:24:37.438Z</time></trkpt><trkpt lat="45.0417967" lon="7.8994533"><ele>299.0</ele><time>2026-04-11T14:24:39.438Z</time></trkpt><trkpt lat="45.0418933" lon="7.89946"><ele>299.0</ele><time>2026-04-11T14:24:41.438Z</time></trkpt><trkpt lat="45.0419883" lon="7.8994667"><ele>299.59999999999997</ele><time>2026-04-11T14:24:43.438Z</time></trkpt><trkpt lat="45.04209" lon="7.899465"><ele>300.2</ele><time>2026-04-11T14:24:45.438Z</time></trkpt><trkpt lat="45.0421867" lon="7.8994633"><ele>300.79999999999995</ele><time>2026-04-11T14:24:47.438Z</time></trkpt><trkpt lat="45.0422717" lon="7.8994933"><ele>301.4</ele><time>2026-04-11T14:24:49.438Z</time></trkpt><trkpt lat="45.0423467" lon="7.8995767"><ele>302.0</ele><time>2026-04-11T14:24:51.438Z</time></trkpt><trkpt lat="45.0424067" lon="7.8996833"><ele>302.0</ele><time>2026-04-11T14:24:53.438Z</time></trkpt><trkpt lat="45.0424533" lon="7.8997867"><ele>302.0</ele><time>2026-04-11T14:24:55.438Z</time></trkpt><trkpt lat="45.04251" lon="7.8999017"><ele>302.0</ele><time>2026-04-11T14:24:57.438Z</time></trkpt><trkpt lat="45.04255" lon="7.9000133"><ele>302.0</ele><time>2026-04-11T14:24:59.438Z</time></trkpt><trkpt lat="45.0425883" lon="7.900125"><ele>302.0</ele><time>2026-04-11T14:25:01.438Z</time></trkpt><trkpt lat="45.0426267" lon="7.9002483"><ele>303.33333333333337</ele><time>2026-04-11T14:25:03.438Z</time></trkpt><trkpt lat="45.0426833" lon="7.9003383"><ele>304.6666666666667</ele><time>2026-04-11T14:25:05.438Z</time></trkpt><trkpt lat="45.0427367" lon="7.900415"><ele>306.0</ele><time>2026-04-11T14:25:07.438Z</time></trkpt><trkpt lat="45.0427967" lon="7.90049"><ele>307.3333333333333</ele><time>2026-04-11T14:25:09.438Z</time></trkpt><trkpt lat="45.0428517" lon="7.90056"><ele>308.66666666666663</ele><time>2026-04-11T14:25:11.438Z</time></trkpt><trkpt lat="45.0429" lon="7.9006183"><ele>310.0</ele><time>2026-04-11T14:25:13.438Z</time></trkpt><trkpt lat="45.0429783" lon="7.900695"><ele>310.0</ele><time>2026-04-11T14:25:16.438Z</time></trkpt><trkpt lat="45.0430333" lon="7.9007433"><ele>310.0</ele><time>2026-04-11T14:25:18.438Z</time></trkpt><trkpt lat="45.0431133" lon="7.9008217"><ele>310.0</ele><time>2026-04-11T14:25:21.438Z</time></trkpt><trkpt lat="45.0431783" lon="7.9008717"><ele>310.0</ele><time>2026-04-11T14:25:23.438Z</time></trkpt><trkpt lat="45.043245" lon="7.9009083"><ele>310.0</ele><time>2026-04-11T14:25:25.438Z</time></trkpt><trkpt lat="45.0433167" lon="7.9009533"><ele>310.0</ele><time>2026-04-11T14:25:28.438Z</time></trkpt><trkpt lat="45.0433933" lon="7.90097"><ele>311.3333333333333</ele><time>2026-04-11T14:25:31.438Z</time></trkpt><trkpt lat="45.0434667" lon="7.90098"><ele>312.66666666666663</ele><time>2026-04-11T14:25:34.438Z</time></trkpt><trkpt lat="45.0435783" lon="7.9010833"><ele>314.0</ele><time>2026-04-11T14:25:36.438Z</time></trkpt><trkpt lat="45.0436617" lon="7.90113"><ele>315.3333333333333</ele><time>2026-04-11T14:25:38.438Z</time></trkpt><trkpt lat="45.043735" lon="7.9011633"><ele>316.6666666666667</ele><time>2026-04-11T14:25:40.438Z</time></trkpt><trkpt lat="45.0437967" lon="7.901185"><ele>318.0</ele><time>2026-04-11T14:25:42.438Z</time></trkpt><trkpt lat="45.04386" lon="7.90121"><ele>318.0</ele><time>2026-04-11T14:25:44.438Z</time></trkpt><trkpt lat="45.043945" lon="7.9012667"><ele>318.0</ele><time>2026-04-11T14:25:46.438Z</time></trkpt><trkpt lat="45.0440233" lon="7.901335"><ele>318.0</ele><time>2026-04-11T14:25:48.438Z</time></trkpt><trkpt lat="45.0440917" lon="7.9014067"><ele>318.0</ele><time>2026-04-11T14:25:50.438Z</time></trkpt><trkpt lat="45.0441383" lon="7.90149"><ele>318.0</ele><time>2026-04-11T14:25:52.438Z</time></trkpt><trkpt lat="45.044175" lon="7.9015683"><ele>318.0</ele><time>2026-04-11T14:25:54.438Z</time></trkpt><trkpt lat="45.04421" lon="7.9016567"><ele>320.0</ele><time>2026-04-11T14:25:56.439Z</time></trkpt><trkpt lat="45.0442467" lon="7.90178"><ele>322.0</ele><time>2026-04-11T14:25:59.438Z</time></trkpt><trkpt lat="45.04426" lon="7.9018717"><ele>324.0</ele><time>2026-04-11T14:26:01.438Z</time></trkpt><trkpt lat="45.04429" lon="7.9019967"><ele>326.0</ele><time>2026-04-11T14:26:04.438Z</time></trkpt><trkpt lat="45.0443233" lon="7.9020933"><ele>328.0</ele><time>2026-04-11T14:26:07.438Z</time></trkpt><trkpt lat="45.0442967" lon="7.902175"><ele>330.0</ele><time>2026-04-11T14:26:11.438Z</time></trkpt><trkpt lat="45.04423" lon="7.9021867"><ele>330.0</ele><time>2026-04-11T14:26:16.438Z</time></trkpt><trkpt lat="45.0441617" lon="7.902215"><ele>330.0</ele><time>2026-04-11T14:26:20.438Z</time></trkpt><trkpt lat="45.0440833" lon="7.902215"><ele>330.0</ele><time>2026-04-11T14:26:24.438Z</time></trkpt><trkpt lat="45.044005" lon="7.9022483"><ele>330.0</ele><time>2026-04-11T14:26:29.438Z</time></trkpt><trkpt lat="45.043925" lon="7.9022767"><ele>330.0</ele><time>2026-04-11T14:26:31.437Z</time></trkpt><trkpt lat="45.0438183" lon="7.90229"><ele>330.0</ele><time>2026-04-11T14:26:33.437Z</time></trkpt><trkpt lat="45.0437283" lon="7.9023317"><ele>328.8333333333333</ele><time>2026-04-11T14:26:35.437Z</time></trkpt><trkpt lat="45.0436733" lon="7.9024167"><ele>327.6666666666667</ele><time>2026-04-11T14:26:37.437Z</time></trkpt><trkpt lat="45.0436433" lon="7.9025267"><ele>326.5</ele><time>2026-04-11T14:26:39.437Z</time></trkpt><trkpt lat="45.0436183" lon="7.9026267"><ele>325.33333333333337</ele><time>2026-04-11T14:26:41.437Z</time></trkpt><trkpt lat="45.0435817" lon="7.9027117"><ele>324.1666666666667</ele><time>2026-04-11T14:26:43.437Z</time></trkpt><trkpt lat="45.0435383" lon="7.902795"><ele>323.0</ele><time>2026-04-11T14:26:45.437Z</time></trkpt><trkpt lat="45.043445" lon="7.9028267"><ele>323.0</ele><time>2026-04-11T14:26:47.437Z</time></trkpt><trkpt lat="45.0433317" lon="7.902825"><ele>323.0</ele><time>2026-04-11T14:26:49.437Z</time></trkpt><trkpt lat="45.043235" lon="7.9028183"><ele>323.0</ele><time>2026-04-11T14:26:51.437Z</time></trkpt><trkpt lat="45.0431433" lon="7.9028533"><ele>323.0</ele><time>2026-04-11T14:26:53.437Z</time></trkpt><trkpt lat="45.0431133" lon="7.9029783"><ele>323.0</ele><time>2026-04-11T14:26:55.437Z</time></trkpt><trkpt lat="45.0431067" lon="7.90313"><ele>321.79999999999995</ele><time>2026-04-11T14:26:57.437Z</time></trkpt><trkpt lat="45.043075" lon="7.9032617"><ele>320.59999999999997</ele><time>2026-04-11T14:26:59.437Z</time></trkpt><trkpt lat="45.0429883" lon="7.9033167"><ele>319.4</ele><time>2026-04-11T14:27:01.438Z</time></trkpt><trkpt lat="45.0428667" lon="7.9033133"><ele>318.2</ele><time>2026-04-11T14:27:03.437Z</time></trkpt><trkpt lat="45.0428" lon="7.90332"><ele>317.0</ele><time>2026-04-11T14:27:04.437Z</time></trkpt><trkpt lat="45.0426783" lon="7.9033283"><ele>317.0</ele><time>2026-04-11T14:27:06.437Z</time></trkpt><trkpt lat="45.042615" lon="7.9033233"><ele>317.0</ele><time>2026-04-11T14:27:07.437Z</time></trkpt><trkpt lat="45.0425067" lon="7.9033183"><ele>317.0</ele><time>2026-04-11T14:27:09.437Z</time></trkpt><trkpt lat="45.0424033" lon="7.9033067"><ele>317.0</ele><time>2026-04-11T14:27:11.437Z</time></trkpt><trkpt lat="45.0423233" lon="7.9032883"><ele>317.0</ele><time>2026-04-11T14:27:13.437Z</time></trkpt><trkpt lat="45.0422433" lon="7.9032833"><ele>317.0</ele><time>2026-04-11T14:27:15.437Z</time></trkpt><trkpt lat="45.0421583" lon="7.903275"><ele>316.6</ele><time>2026-04-11T14:27:17.437Z</time></trkpt><trkpt lat="45.04205" lon="7.9032467"><ele>316.2</ele><time>2026-04-11T14:27:19.437Z</time></trkpt><trkpt lat="45.0419733" lon="7.9032"><ele>315.8</ele><time>2026-04-11T14:27:20.437Z</time></trkpt><trkpt lat="45.0418583" lon="7.9032033"><ele>315.4</ele><time>2026-04-11T14:27:22.437Z</time></trkpt><trkpt lat="45.0417533" lon="7.9032083"><ele>315.0</ele><time>2026-04-11T14:27:24.437Z</time></trkpt><trkpt lat="45.041645" lon="7.9032217"><ele>314.6</ele><time>2026-04-11T14:27:26.437Z</time></trkpt><trkpt lat="45.0415417" lon="7.9032317"><ele>314.2</ele><time>2026-04-11T14:27:28.438Z</time></trkpt><trkpt lat="45.0414417" lon="7.9032383"><ele>313.8</ele><time>2026-04-11T14:27:30.437Z</time></trkpt><trkpt lat="45.0413417" lon="7.903255"><ele>313.4</ele><time>2026-04-11T14:27:32.437Z</time></trkpt><trkpt lat="45.04124" lon="7.90328"><ele>313.0</ele><time>2026-04-11T14:27:34.437Z</time></trkpt><trkpt lat="45.0411383" lon="7.9033033"><ele>313.0</ele><time>2026-04-11T14:27:36.437Z</time></trkpt><trkpt lat="45.0410333" lon="7.9033367"><ele>313.0</ele><time>2026-04-11T14:27:38.437Z</time></trkpt><trkpt lat="45.0409717" lon="7.9033567"><ele>313.0</ele><time>2026-04-11T14:27:39.437Z</time></trkpt><trkpt lat="45.0408983" lon="7.9033767"><ele>313.0</ele><time>2026-04-11T14:27:40.437Z</time></trkpt><trkpt lat="45.0408117" lon="7.9033933"><ele>313.0</ele><time>2026-04-11T14:27:41.438Z</time></trkpt><trkpt lat="45.04072" lon="7.9034233"><ele>313.0</ele><time>2026-04-11T14:27:42.438Z</time></trkpt><trkpt lat="45.0406217" lon="7.9034467"><ele>311.6</ele><time>2026-04-11T14:27:43.437Z</time></trkpt><trkpt lat="45.0405283" lon="7.90347"><ele>310.20000000000005</ele><time>2026-04-11T14:27:44.437Z</time></trkpt><trkpt lat="45.0404367" lon="7.9034933"><ele>308.8</ele><time>2026-04-11T14:27:45.437Z</time></trkpt><trkpt lat="45.0403433" lon="7.903525"><ele>307.40000000000003</ele><time>2026-04-11T14:27:46.437Z</time></trkpt><trkpt lat="45.04024" lon="7.9035583"><ele>306.0</ele><time>2026-04-11T14:27:47.437Z</time></trkpt><trkpt lat="45.0401417" lon="7.903585"><ele>306.0</ele><time>2026-04-11T14:27:48.437Z</time></trkpt><trkpt lat="45.04004" lon="7.903605"><ele>306.0</ele><time>2026-04-11T14:27:49.437Z</time></trkpt><trkpt lat="45.0399333" lon="7.9036383"><ele>306.0</ele><time>2026-04-11T14:27:50.437Z</time></trkpt><trkpt lat="45.0398317" lon="7.9036667"><ele>306.0</ele><time>2026-04-11T14:27:51.437Z</time></trkpt><trkpt lat="45.0397333" lon="7.9037"><ele>306.0</ele><time>2026-04-11T14:27:52.437Z</time></trkpt><trkpt lat="45.0396233" lon="7.90373"><ele>304.5</ele><time>2026-04-11T14:27:53.437Z</time></trkpt><trkpt lat="45.0395383" lon="7.90376"><ele>303.0</ele><time>2026-04-11T14:27:54.437Z</time></trkpt><trkpt lat="45.0394617" lon="7.903785"><ele>301.5</ele><time>2026-04-11T14:27:55.437Z</time></trkpt><trkpt lat="45.0393833" lon="7.903805"><ele>300.0</ele><time>2026-04-11T14:27:56.438Z</time></trkpt><trkpt lat="45.0392967" lon="7.903825"><ele>298.5</ele><time>2026-04-11T14:27:57.437Z</time></trkpt><trkpt lat="45.0392133" lon="7.9038467"><ele>297.0</ele><time>2026-04-11T14:27:58.437Z</time></trkpt><trkpt lat="45.0391433" lon="7.903875"><ele>297.0</ele><time>2026-04-11T14:27:59.437Z</time></trkpt><trkpt lat="45.0390683" lon="7.9039017"><ele>297.0</ele><time>2026-04-11T14:28:00.437Z</time></trkpt><trkpt lat="45.0389883" lon="7.9039283"><ele>297.0</ele><time>2026-04-11T14:28:01.437Z</time></trkpt><trkpt lat="45.038905" lon="7.9039433"><ele>297.0</ele><time>2026-04-11T14:28:02.437Z</time></trkpt><trkpt lat="45.0388283" lon="7.9039567"><ele>297.0</ele><time>2026-04-11T14:28:03.437Z</time></trkpt><trkpt lat="45.0387533" lon="7.9039783"><ele>297.0</ele><time>2026-04-11T14:28:04.437Z</time></trkpt><trkpt lat="45.0386783" lon="7.9040017"><ele>297.0</ele><time>2026-04-11T14:28:05.437Z</time></trkpt><trkpt lat="45.0386033" lon="7.9040333"><ele>297.0</ele><time>2026-04-11T14:28:06.437Z</time></trkpt><trkpt lat="45.0385233" lon="7.904055"><ele>297.0</ele><time>2026-04-11T14:28:07.438Z</time></trkpt><trkpt lat="45.0384433" lon="7.9040783"><ele>297.0</ele><time>2026-04-11T14:28:08.437Z</time></trkpt><trkpt lat="45.03837" lon="7.9040983"><ele>297.0</ele><time>2026-04-11T14:28:09.437Z</time></trkpt><trkpt lat="45.038295" lon="7.9041167"><ele>297.0</ele><time>2026-04-11T14:28:10.437Z</time></trkpt><trkpt lat="45.03823" lon="7.90413"><ele>296.6666666666667</ele><time>2026-04-11T14:28:11.437Z</time></trkpt><trkpt lat="45.0381467" lon="7.904165"><ele>296.3333333333333</ele><time>2026-04-11T14:28:13.438Z</time></trkpt><trkpt lat="45.0380817" lon="7.904175"><ele>296.0</ele><time>2026-04-11T14:28:17.437Z</time></trkpt><trkpt lat="45.038025" lon="7.90422"><ele>295.66666666666663</ele><time>2026-04-11T14:28:21.437Z</time></trkpt><trkpt lat="45.037955" lon="7.9042917"><ele>295.3333333333333</ele><time>2026-04-11T14:28:24.437Z</time></trkpt><trkpt lat="45.037895" lon="7.90434"><ele>295.0</ele><time>2026-04-11T14:28:26.437Z</time></trkpt><trkpt lat="45.0378067" lon="7.9044083"><ele>294.8</ele><time>2026-04-11T14:28:28.437Z</time></trkpt><trkpt lat="45.0377217" lon="7.9044817"><ele>294.6</ele><time>2026-04-11T14:28:30.437Z</time></trkpt><trkpt lat="45.0376433" lon="7.9045517"><ele>294.4</ele><time>2026-04-11T14:28:32.437Z</time></trkpt><trkpt lat="45.0375517" lon="7.9046267"><ele>294.2</ele><time>2026-04-11T14:28:34.437Z</time></trkpt><trkpt lat="45.0374517" lon="7.9047017"><ele>294.0</ele><time>2026-04-11T14:28:36.437Z</time></trkpt><trkpt lat="45.037345" lon="7.9047483"><ele>294.0</ele><time>2026-04-11T14:28:38.438Z</time></trkpt><trkpt lat="45.037235" lon="7.9047583"><ele>294.0</ele><time>2026-04-11T14:28:40.437Z</time></trkpt><trkpt lat="45.037125" lon="7.9047483"><ele>294.0</ele><time>2026-04-11T14:28:42.437Z</time></trkpt><trkpt lat="45.0370317" lon="7.9047283"><ele>294.0</ele><time>2026-04-11T14:28:44.437Z</time></trkpt><trkpt lat="45.0369433" lon="7.9046817"><ele>294.0</ele><time>2026-04-11T14:28:46.438Z</time></trkpt><trkpt lat="45.0368333" lon="7.9046483"><ele>294.0</ele><time>2026-04-11T14:28:48.437Z</time></trkpt><trkpt lat="45.0367367" lon="7.9046183"><ele>294.0</ele><time>2026-04-11T14:28:50.437Z</time></trkpt><trkpt lat="45.03667" lon="7.9045917"><ele>294.0</ele><time>2026-04-11T14:28:51.437Z</time></trkpt><trkpt lat="45.03656" lon="7.90453"><ele>294.0</ele><time>2026-04-11T14:28:53.437Z</time></trkpt><trkpt lat="45.0364367" lon="7.9044967"><ele>294.0</ele><time>2026-04-11T14:28:55.437Z</time></trkpt><trkpt lat="45.0363733" lon="7.9044967"><ele>294.2857142857143</ele><time>2026-04-11T14:28:56.437Z</time></trkpt><trkpt lat="45.0363067" lon="7.9044933"><ele>294.57142857142856</ele><time>2026-04-11T14:28:57.437Z</time></trkpt><trkpt lat="45.0362367" lon="7.9045"><ele>294.8571428571429</ele><time>2026-04-11T14:28:58.437Z</time></trkpt><trkpt lat="45.0361733" lon="7.90451"><ele>295.1428571428571</ele><time>2026-04-11T14:28:59.437Z</time></trkpt><trkpt lat="45.0361017" lon="7.9045167"><ele>295.42857142857144</ele><time>2026-04-11T14:29:00.437Z</time></trkpt><trkpt lat="45.0360317" lon="7.90452"><ele>295.7142857142857</ele><time>2026-04-11T14:29:01.437Z</time></trkpt><trkpt lat="45.0359617" lon="7.9045233"><ele>296.0</ele><time>2026-04-11T14:29:02.437Z</time></trkpt><trkpt lat="45.0358917" lon="7.9045283"><ele>296.0</ele><time>2026-04-11T14:29:03.437Z</time></trkpt><trkpt lat="45.035825" lon="7.904535"><ele>296.0</ele><time>2026-04-11T14:29:04.437Z</time></trkpt><trkpt lat="45.0357567" lon="7.9045417"><ele>296.0</ele><time>2026-04-11T14:29:05.437Z</time></trkpt><trkpt lat="45.0356817" lon="7.9045483"><ele>296.0</ele><time>2026-04-11T14:29:06.437Z</time></trkpt><trkpt lat="45.0356083" lon="7.90454"><ele>296.0</ele><time>2026-04-11T14:29:07.438Z</time></trkpt><trkpt lat="45.035545" lon="7.9045233"><ele>296.0</ele><time>2026-04-11T14:29:08.437Z</time></trkpt><trkpt lat="45.035475" lon="7.904505"><ele>296.0</ele><time>2026-04-11T14:29:09.437Z</time></trkpt><trkpt lat="45.0354083" lon="7.9044767"><ele>295.57142857142856</ele><time>2026-04-11T14:29:10.437Z</time></trkpt><trkpt lat="45.0353417" lon="7.9044367"><ele>295.1428571428571</ele><time>2026-04-11T14:29:11.437Z</time></trkpt><trkpt lat="45.0352767" lon="7.9043917"><ele>294.71428571428567</ele><time>2026-04-11T14:29:12.437Z</time></trkpt><trkpt lat="45.03521" lon="7.904345"><ele>294.2857142857143</ele><time>2026-04-11T14:29:13.437Z</time></trkpt><trkpt lat="45.0351483" lon="7.9042933"><ele>293.85714285714283</ele><time>2026-04-11T14:29:14.437Z</time></trkpt><trkpt lat="45.035085" lon="7.9042417"><ele>293.4285714285714</ele><time>2026-04-11T14:29:15.437Z</time></trkpt><trkpt lat="45.0350217" lon="7.904185"><ele>293.0</ele><time>2026-04-11T14:29:16.437Z</time></trkpt><trkpt lat="45.03496" lon="7.90413"><ele>292.6666666666667</ele><time>2026-04-11T14:29:17.437Z</time></trkpt><trkpt lat="45.0349" lon="7.90408"><ele>292.33333333333337</ele><time>2026-04-11T14:29:18.437Z</time></trkpt><trkpt lat="45.034845" lon="7.904035"><ele>292.0</ele><time>2026-04-11T14:29:19.437Z</time></trkpt><trkpt lat="45.034785" lon="7.9039883"><ele>291.6666666666667</ele><time>2026-04-11T14:29:20.437Z</time></trkpt><trkpt lat="45.0347233" lon="7.903945"><ele>291.3333333333333</ele><time>2026-04-11T14:29:21.437Z</time></trkpt><trkpt lat="45.0346033" lon="7.9038733"><ele>291.0</ele><time>2026-04-11T14:29:23.437Z</time></trkpt><trkpt lat="45.0345417" lon="7.9038467"><ele>291.0</ele><time>2026-04-11T14:29:24.437Z</time></trkpt><trkpt lat="45.0344767" lon="7.9038117"><ele>291.0</ele><time>2026-04-11T14:29:25.437Z</time></trkpt><trkpt lat="45.03441" lon="7.9037867"><ele>291.0</ele><time>2026-04-11T14:29:26.437Z</time></trkpt><trkpt lat="45.0343417" lon="7.903765"><ele>291.0</ele><time>2026-04-11T14:29:27.437Z</time></trkpt><trkpt lat="45.0342783" lon="7.9037433"><ele>291.0</ele><time>2026-04-11T14:29:28.437Z</time></trkpt><trkpt lat="45.03416" lon="7.9037167"><ele>291.0</ele><time>2026-04-11T14:29:30.437Z</time></trkpt><trkpt lat="45.0340467" lon="7.9036933"><ele>292.0</ele><time>2026-04-11T14:29:32.437Z</time></trkpt><trkpt lat="45.0339283" lon="7.903695"><ele>293.0</ele><time>2026-04-11T14:29:34.437Z</time></trkpt><trkpt lat="45.033865" lon="7.90371"><ele>294.0</ele><time>2026-04-11T14:29:35.437Z</time></trkpt><trkpt lat="45.0338017" lon="7.903725"><ele>295.0</ele><time>2026-04-11T14:29:36.437Z</time></trkpt><trkpt lat="45.03369" lon="7.90377"><ele>296.0</ele><time>2026-04-11T14:29:38.437Z</time></trkpt><trkpt lat="45.033595" lon="7.9038383"><ele>296.0</ele><time>2026-04-11T14:29:40.437Z</time></trkpt><trkpt lat="45.0334933" lon="7.9039167"><ele>296.0</ele><time>2026-04-11T14:29:42.437Z</time></trkpt><trkpt lat="45.0333983" lon="7.904"><ele>296.0</ele><time>2026-04-11T14:29:44.437Z</time></trkpt><trkpt lat="45.0333083" lon="7.9040883"><ele>296.0</ele><time>2026-04-11T14:29:46.437Z</time></trkpt><trkpt lat="45.033225" lon="7.9041733"><ele>296.0</ele><time>2026-04-11T14:29:48.437Z</time></trkpt><trkpt lat="45.03314" lon="7.9042517"><ele>297.8</ele><time>2026-04-11T14:29:50.437Z</time></trkpt><trkpt lat="45.033065" lon="7.9043383"><ele>299.6</ele><time>2026-04-11T14:29:52.437Z</time></trkpt><trkpt lat="45.0329933" lon="7.9044117"><ele>301.4</ele><time>2026-04-11T14:29:54.437Z</time></trkpt><trkpt lat="45.0329167" lon="7.90448"><ele>303.2</ele><time>2026-04-11T14:29:56.437Z</time></trkpt><trkpt lat="45.0328417" lon="7.9045617"><ele>305.0</ele><time>2026-04-11T14:29:58.437Z</time></trkpt><trkpt lat="45.0327717" lon="7.9046517"><ele>305.0</ele><time>2026-04-11T14:30:00.437Z</time></trkpt><trkpt lat="45.032715" lon="7.9047383"><ele>305.0</ele><time>2026-04-11T14:30:02.438Z</time></trkpt><trkpt lat="45.0326417" lon="7.904835"><ele>305.0</ele><time>2026-04-11T14:30:04.437Z</time></trkpt><trkpt lat="45.0325717" lon="7.9049267"><ele>305.0</ele><time>2026-04-11T14:30:06.437Z</time></trkpt><trkpt lat="45.0325183" lon="7.9050217"><ele>305.0</ele><time>2026-04-11T14:30:08.437Z</time></trkpt><trkpt lat="45.0324683" lon="7.9051083"><ele>305.0</ele><time>2026-04-11T14:30:10.437Z</time></trkpt><trkpt lat="45.0324167" lon="7.90522"><ele>305.5714285714286</ele><time>2026-04-11T14:30:12.437Z</time></trkpt><trkpt lat="45.0323667" lon="7.9053217"><ele>306.1428571428571</ele><time>2026-04-11T14:30:14.437Z</time></trkpt><trkpt lat="45.0323283" lon="7.905395"><ele>306.7142857142857</ele><time>2026-04-11T14:30:16.437Z</time></trkpt><trkpt lat="45.0322733" lon="7.9054733"><ele>307.28571428571433</ele><time>2026-04-11T14:30:18.437Z</time></trkpt><trkpt lat="45.0322117" lon="7.9055383"><ele>307.8571428571429</ele><time>2026-04-11T14:30:20.437Z</time></trkpt><trkpt lat="45.03216" lon="7.9055933"><ele>308.42857142857144</ele><time>2026-04-11T14:30:22.437Z</time></trkpt><trkpt lat="45.03211" lon="7.9056533"><ele>309.0</ele><time>2026-04-11T14:30:24.437Z</time></trkpt><trkpt lat="45.032055" lon="7.90571"><ele>309.0</ele><time>2026-04-11T14:30:26.437Z</time></trkpt><trkpt lat="45.0319683" lon="7.9057717"><ele>309.0</ele><time>2026-04-11T14:30:29.437Z</time></trkpt><trkpt lat="45.0319" lon="7.9058"><ele>309.0</ele><time>2026-04-11T14:30:31.437Z</time></trkpt><trkpt lat="45.0318333" lon="7.9058267"><ele>309.0</ele><time>2026-04-11T14:30:33.437Z</time></trkpt><trkpt lat="45.0317583" lon="7.905845"><ele>309.0</ele><time>2026-04-11T14:30:35.437Z</time></trkpt><trkpt lat="45.0316917" lon="7.90586"><ele>309.0</ele><time>2026-04-11T14:30:37.437Z</time></trkpt><trkpt lat="45.0315917" lon="7.90587"><ele>308.6666666666667</ele><time>2026-04-11T14:30:40.437Z</time></trkpt><trkpt lat="45.0315133" lon="7.9058667"><ele>308.3333333333333</ele><time>2026-04-11T14:30:42.438Z</time></trkpt><trkpt lat="45.0314433" lon="7.9058583"><ele>308.0</ele><time>2026-04-11T14:30:44.437Z</time></trkpt><trkpt lat="45.0313717" lon="7.90584"><ele>307.66666666666663</ele><time>2026-04-11T14:30:46.437Z</time></trkpt><trkpt lat="45.0312933" lon="7.9058117"><ele>307.3333333333333</ele><time>2026-04-11T14:30:48.437Z</time></trkpt><trkpt lat="45.031215" lon="7.9057833"><ele>307.0</ele><time>2026-04-11T14:30:50.437Z</time></trkpt><trkpt lat="45.0311383" lon="7.90576"><ele>307.0</ele><time>2026-04-11T14:30:52.437Z</time></trkpt><trkpt lat="45.031065" lon="7.9057317"><ele>307.0</ele><time>2026-04-11T14:30:54.437Z</time></trkpt><trkpt lat="45.0309833" lon="7.9057033"><ele>307.0</ele><time>2026-04-11T14:30:56.437Z</time></trkpt><trkpt lat="45.0308967" lon="7.9056717"><ele>307.0</ele><time>2026-04-11T14:30:58.437Z</time></trkpt><trkpt lat="45.0308033" lon="7.9056483"><ele>307.0</ele><time>2026-04-11T14:31:00.437Z</time></trkpt><trkpt lat="45.0306983" lon="7.9056267"><ele>307.2</ele><time>2026-04-11T14:31:02.437Z</time></trkpt><trkpt lat="45.0305833" lon="7.9056033"><ele>307.4</ele><time>2026-04-11T14:31:04.437Z</time></trkpt><trkpt lat="45.0304617" lon="7.9055767"><ele>307.6</ele><time>2026-04-11T14:31:06.437Z</time></trkpt><trkpt lat="45.0303983" lon="7.9055717"><ele>307.8</ele><time>2026-04-11T14:31:07.437Z</time></trkpt><trkpt lat="45.030335" lon="7.90556"><ele>308.0</ele><time>2026-04-11T14:31:08.437Z</time></trkpt><trkpt lat="45.03022" lon="7.905535"><ele>308.0</ele><time>2026-04-11T14:31:10.437Z</time></trkpt><trkpt lat="45.0301133" lon="7.9055067"><ele>308.0</ele><time>2026-04-11T14:31:12.437Z</time></trkpt><trkpt lat="45.0300283" lon="7.9054833"><ele>308.0</ele><time>2026-04-11T14:31:14.437Z</time></trkpt><trkpt lat="45.0299517" lon="7.9055417"><ele>308.0</ele><time>2026-04-11T14:31:17.437Z</time></trkpt><trkpt lat="45.02991" lon="7.9056517"><ele>308.0</ele><time>2026-04-11T14:31:19.437Z</time></trkpt><trkpt lat="45.0298817" lon="7.9058167"><ele>306.33333333333337</ele><time>2026-04-11T14:31:21.437Z</time></trkpt><trkpt lat="45.0298583" lon="7.90592"><ele>304.6666666666667</ele><time>2026-04-11T14:31:22.437Z</time></trkpt><trkpt lat="45.02983" lon="7.906025"><ele>303.0</ele><time>2026-04-11T14:31:23.437Z</time></trkpt><trkpt lat="45.0297983" lon="7.906125"><ele>301.3333333333333</ele><time>2026-04-11T14:31:24.437Z</time></trkpt><trkpt lat="45.0297667" lon="7.90623"><ele>299.66666666666663</ele><time>2026-04-11T14:31:25.437Z</time></trkpt><trkpt lat="45.0297383" lon="7.9063467"><ele>298.0</ele><time>2026-04-11T14:31:26.437Z</time></trkpt><trkpt lat="45.0297083" lon="7.90647"><ele>298.0</ele><time>2026-04-11T14:31:27.437Z</time></trkpt><trkpt lat="45.0296783" lon="7.9065967"><ele>298.0</ele><time>2026-04-11T14:31:28.437Z</time></trkpt><trkpt lat="45.0296483" lon="7.906725"><ele>298.0</ele><time>2026-04-11T14:31:29.437Z</time></trkpt><trkpt lat="45.0296083" lon="7.9068567"><ele>298.0</ele><time>2026-04-11T14:31:30.437Z</time></trkpt><trkpt lat="45.0295567" lon="7.9069817"><ele>298.0</ele><time>2026-04-11T14:31:31.437Z</time></trkpt><trkpt lat="45.0294933" lon="7.9071017"><ele>297.8</ele><time>2026-04-11T14:31:32.437Z</time></trkpt><trkpt lat="45.0294267" lon="7.9071967"><ele>297.6</ele><time>2026-04-11T14:31:33.437Z</time></trkpt><trkpt lat="45.029345" lon="7.90727"><ele>297.4</ele><time>2026-04-11T14:31:34.438Z</time></trkpt><trkpt lat="45.029255" lon="7.9073267"><ele>297.2</ele><time>2026-04-11T14:31:35.437Z</time></trkpt><trkpt lat="45.0291667" lon="7.907365"><ele>297.0</ele><time>2026-04-11T14:31:36.437Z</time></trkpt><trkpt lat="45.02907" lon="7.9073883"><ele>296.4</ele><time>2026-04-11T14:31:37.437Z</time></trkpt><trkpt lat="45.02897" lon="7.9073917"><ele>295.79999999999995</ele><time>2026-04-11T14:31:38.438Z</time></trkpt><trkpt lat="45.028875" lon="7.90739"><ele>295.2</ele><time>2026-04-11T14:31:39.437Z</time></trkpt><trkpt lat="45.0287733" lon="7.9073967"><ele>294.59999999999997</ele><time>2026-04-11T14:31:40.437Z</time></trkpt><trkpt lat="45.028675" lon="7.9074217"><ele>294.0</ele><time>2026-04-11T14:31:41.437Z</time></trkpt><trkpt lat="45.0285883" lon="7.90746"><ele>294.0</ele><time>2026-04-11T14:31:42.437Z</time></trkpt><trkpt lat="45.028505" lon="7.9075017"><ele>294.0</ele><time>2026-04-11T14:31:43.437Z</time></trkpt><trkpt lat="45.02842" lon="7.9075483"><ele>294.0</ele><time>2026-04-11T14:31:44.437Z</time></trkpt><trkpt lat="45.0283383" lon="7.9075733"><ele>294.0</ele><time>2026-04-11T14:31:45.437Z</time></trkpt><trkpt lat="45.0282583" lon="7.9075983"><ele>294.0</ele><time>2026-04-11T14:31:46.437Z</time></trkpt><trkpt lat="45.02818" lon="7.9076367"><ele>294.0</ele><time>2026-04-11T14:31:47.437Z</time></trkpt><trkpt lat="45.028105" lon="7.90767"><ele>293.6666666666667</ele><time>2026-04-11T14:31:48.437Z</time></trkpt><trkpt lat="45.028025" lon="7.9076967"><ele>293.3333333333333</ele><time>2026-04-11T14:31:49.437Z</time></trkpt><trkpt lat="45.027945" lon="7.9077117"><ele>293.0</ele><time>2026-04-11T14:31:50.437Z</time></trkpt><trkpt lat="45.0278633" lon="7.9077183"><ele>292.66666666666663</ele><time>2026-04-11T14:31:51.437Z</time></trkpt><trkpt lat="45.0277783" lon="7.9077183"><ele>292.3333333333333</ele><time>2026-04-11T14:31:52.437Z</time></trkpt><trkpt lat="45.02769" lon="7.9077117"><ele>292.0</ele><time>2026-04-11T14:31:53.437Z</time></trkpt><trkpt lat="45.0276067" lon="7.9077017"><ele>292.0</ele><time>2026-04-11T14:31:54.437Z</time></trkpt><trkpt lat="45.02752" lon="7.907695"><ele>292.0</ele><time>2026-04-11T14:31:55.437Z</time></trkpt><trkpt lat="45.027435" lon="7.9076983"><ele>292.0</ele><time>2026-04-11T14:31:56.437Z</time></trkpt><trkpt lat="45.0273517" lon="7.9076967"><ele>292.0</ele><time>2026-04-11T14:31:57.437Z</time></trkpt><trkpt lat="45.0272667" lon="7.907695"><ele>292.0</ele><time>2026-04-11T14:31:58.437Z</time></trkpt><trkpt lat="45.0271833" lon="7.9076917"><ele>292.0</ele><time>2026-04-11T14:31:59.438Z</time></trkpt><trkpt lat="45.0271" lon="7.907685"><ele>291.8333333333333</ele><time>2026-04-11T14:32:00.437Z</time></trkpt><trkpt lat="45.0270117" lon="7.907675"><ele>291.66666666666663</ele><time>2026-04-11T14:32:01.437Z</time></trkpt><trkpt lat="45.0269217" lon="7.9076633"><ele>291.5</ele><time>2026-04-11T14:32:02.438Z</time></trkpt><trkpt lat="45.026835" lon="7.9076467"><ele>291.3333333333333</ele><time>2026-04-11T14:32:03.437Z</time></trkpt><trkpt lat="45.026745" lon="7.9076317"><ele>291.1666666666667</ele><time>2026-04-11T14:32:04.437Z</time></trkpt><trkpt lat="45.0266567" lon="7.9076083"><ele>291.0</ele><time>2026-04-11T14:32:05.437Z</time></trkpt><trkpt lat="45.02657" lon="7.9075767"><ele>290.6666666666667</ele><time>2026-04-11T14:32:06.437Z</time></trkpt><trkpt lat="45.026485" lon="7.907545"><ele>290.3333333333333</ele><time>2026-04-11T14:32:07.437Z</time></trkpt><trkpt lat="45.0264" lon="7.9075133"><ele>290.0</ele><time>2026-04-11T14:32:08.437Z</time></trkpt><trkpt lat="45.02632" lon="7.907485"><ele>289.66666666666663</ele><time>2026-04-11T14:32:09.437Z</time></trkpt><trkpt lat="45.0262417" lon="7.90746"><ele>289.3333333333333</ele><time>2026-04-11T14:32:10.437Z</time></trkpt><trkpt lat="45.0261617" lon="7.9074383"><ele>289.0</ele><time>2026-04-11T14:32:11.437Z</time></trkpt><trkpt lat="45.0260833" lon="7.907405"><ele>289.0</ele><time>2026-04-11T14:32:12.437Z</time></trkpt><trkpt lat="45.02601" lon="7.9073733"><ele>289.0</ele><time>2026-04-11T14:32:13.437Z</time></trkpt><trkpt lat="45.02593" lon="7.907345"><ele>289.0</ele><time>2026-04-11T14:32:14.437Z</time></trkpt><trkpt lat="45.02585" lon="7.9073133"><ele>289.0</ele><time>2026-04-11T14:32:15.437Z</time></trkpt><trkpt lat="45.02577" lon="7.90728"><ele>289.0</ele><time>2026-04-11T14:32:16.437Z</time></trkpt><trkpt lat="45.0256867" lon="7.90725"><ele>289.0</ele><time>2026-04-11T14:32:17.437Z</time></trkpt><trkpt lat="45.0256067" lon="7.90721"><ele>288.5</ele><time>2026-04-11T14:32:18.437Z</time></trkpt><trkpt lat="45.0255283" lon="7.9071733"><ele>288.0</ele><time>2026-04-11T14:32:19.437Z</time></trkpt><trkpt lat="45.0254483" lon="7.9071333"><ele>287.5</ele><time>2026-04-11T14:32:20.437Z</time></trkpt><trkpt lat="45.025365" lon="7.9071033"><ele>287.0</ele><time>2026-04-11T14:32:21.437Z</time></trkpt><trkpt lat="45.0252933" lon="7.9070867"><ele>286.5</ele><time>2026-04-11T14:32:22.437Z</time></trkpt><trkpt lat="45.0252183" lon="7.9070683"><ele>286.0</ele><time>2026-04-11T14:32:23.437Z</time></trkpt><trkpt lat="45.0251433" lon="7.9070483"><ele>286.0</ele><time>2026-04-11T14:32:24.438Z</time></trkpt><trkpt lat="45.0250717" lon="7.9070117"><ele>286.0</ele><time>2026-04-11T14:32:25.437Z</time></trkpt><trkpt lat="45.0249967" lon="7.9069867"><ele>286.0</ele><time>2026-04-11T14:32:26.437Z</time></trkpt><trkpt lat="45.0249217" lon="7.9069633"><ele>286.0</ele><time>2026-04-11T14:32:27.437Z</time></trkpt><trkpt lat="45.0248367" lon="7.9069333"><ele>286.0</ele><time>2026-04-11T14:32:28.437Z</time></trkpt><trkpt lat="45.02475" lon="7.90691"><ele>286.0</ele><time>2026-04-11T14:32:29.437Z</time></trkpt><trkpt lat="45.02467" lon="7.9068817"><ele>285.5</ele><time>2026-04-11T14:32:30.437Z</time></trkpt><trkpt lat="45.02459" lon="7.9068567"><ele>285.0</ele><time>2026-04-11T14:32:31.437Z</time></trkpt><trkpt lat="45.024505" lon="7.90684"><ele>284.5</ele><time>2026-04-11T14:32:32.437Z</time></trkpt><trkpt lat="45.0244183" lon="7.9068283"><ele>284.0</ele><time>2026-04-11T14:32:33.437Z</time></trkpt><trkpt lat="45.024335" lon="7.9068083"><ele>283.5</ele><time>2026-04-11T14:32:34.437Z</time></trkpt><trkpt lat="45.0242633" lon="7.9067883"><ele>283.0</ele><time>2026-04-11T14:32:35.437Z</time></trkpt><trkpt lat="45.0241783" lon="7.9067733"><ele>283.0</ele><time>2026-04-11T14:32:36.437Z</time></trkpt><trkpt lat="45.024095" lon="7.9067617"><ele>283.0</ele><time>2026-04-11T14:32:37.437Z</time></trkpt><trkpt lat="45.0240117" lon="7.9067483"><ele>283.0</ele><time>2026-04-11T14:32:38.437Z</time></trkpt><trkpt lat="45.023935" lon="7.906735"><ele>283.0</ele><time>2026-04-11T14:32:39.437Z</time></trkpt><trkpt lat="45.02386" lon="7.9067283"><ele>283.0</ele><time>2026-04-11T14:32:40.437Z</time></trkpt><trkpt lat="45.0237917" lon="7.90672"><ele>283.0</ele><time>2026-04-11T14:32:41.437Z</time></trkpt><trkpt lat="45.0237267" lon="7.906705"><ele>283.3333333333333</ele><time>2026-04-11T14:32:42.437Z</time></trkpt><trkpt lat="45.023655" lon="7.9066983"><ele>283.66666666666663</ele><time>2026-04-11T14:32:43.437Z</time></trkpt><trkpt lat="45.023585" lon="7.9066867"><ele>284.0</ele><time>2026-04-11T14:32:44.437Z</time></trkpt><trkpt lat="45.02352" lon="7.90667"><ele>284.3333333333333</ele><time>2026-04-11T14:32:45.437Z</time></trkpt><trkpt lat="45.0234567" lon="7.90666"><ele>284.6666666666667</ele><time>2026-04-11T14:32:46.437Z</time></trkpt><trkpt lat="45.0233383" lon="7.9066333"><ele>285.0</ele><time>2026-04-11T14:32:48.437Z</time></trkpt><trkpt lat="45.023275" lon="7.9066217"><ele>285.0</ele><time>2026-04-11T14:32:49.437Z</time></trkpt><trkpt lat="45.0232117" lon="7.9066067"><ele>285.0</ele><time>2026-04-11T14:32:50.437Z</time></trkpt><trkpt lat="45.0230917" lon="7.9065817"><ele>285.0</ele><time>2026-04-11T14:32:52.437Z</time></trkpt><trkpt lat="45.0230283" lon="7.9065817"><ele>285.0</ele><time>2026-04-11T14:32:53.437Z</time></trkpt><trkpt lat="45.0229617" lon="7.9065733"><ele>285.0</ele><time>2026-04-11T14:32:54.437Z</time></trkpt><trkpt lat="45.022845" lon="7.9065417"><ele>285.0</ele><time>2026-04-11T14:32:56.437Z</time></trkpt><trkpt lat="45.022725" lon="7.9065083"><ele>285.0</ele><time>2026-04-11T14:32:58.437Z</time></trkpt><trkpt lat="45.0226017" lon="7.906485"><ele>285.0</ele><time>2026-04-11T14:33:00.437Z</time></trkpt><trkpt lat="45.0225383" lon="7.9064683"><ele>285.0</ele><time>2026-04-11T14:33:01.437Z</time></trkpt><trkpt lat="45.02247" lon="7.906455"><ele>285.0</ele><time>2026-04-11T14:33:02.437Z</time></trkpt><trkpt lat="45.0224067" lon="7.9064433"><ele>285.0</ele><time>2026-04-11T14:33:03.437Z</time></trkpt><trkpt lat="45.0223383" lon="7.90643"><ele>285.0</ele><time>2026-04-11T14:33:04.437Z</time></trkpt><trkpt lat="45.0222317" lon="7.906405"><ele>284.6666666666667</ele><time>2026-04-11T14:33:06.438Z</time></trkpt><trkpt lat="45.02214" lon="7.906435"><ele>284.3333333333333</ele><time>2026-04-11T14:33:09.437Z</time></trkpt><trkpt lat="45.0221167" lon="7.9065417"><ele>284.0</ele><time>2026-04-11T14:33:11.437Z</time></trkpt><trkpt lat="45.0221167" lon="7.9067117"><ele>283.66666666666663</ele><time>2026-04-11T14:33:13.437Z</time></trkpt><trkpt lat="45.0221083" lon="7.9068167"><ele>283.3333333333333</ele><time>2026-04-11T14:33:14.437Z</time></trkpt><trkpt lat="45.0221" lon="7.90692"><ele>283.0</ele><time>2026-04-11T14:33:15.437Z</time></trkpt><trkpt lat="45.0220867" lon="7.9070283"><ele>282.5</ele><time>2026-04-11T14:33:16.437Z</time></trkpt><trkpt lat="45.0220717" lon="7.90714"><ele>282.0</ele><time>2026-04-11T14:33:17.437Z</time></trkpt><trkpt lat="45.022055" lon="7.9072583"><ele>281.5</ele><time>2026-04-11T14:33:18.437Z</time></trkpt><trkpt lat="45.022045" lon="7.9073767"><ele>281.0</ele><time>2026-04-11T14:33:19.437Z</time></trkpt><trkpt lat="45.0220333" lon="7.9074983"><ele>280.5</ele><time>2026-04-11T14:33:20.437Z</time></trkpt><trkpt lat="45.02202" lon="7.907625"><ele>280.0</ele><time>2026-04-11T14:33:21.437Z</time></trkpt><trkpt lat="45.0220083" lon="7.9077467"><ele>279.8333333333333</ele><time>2026-04-11T14:33:22.437Z</time></trkpt><trkpt lat="45.0219933" lon="7.907865"><ele>279.66666666666663</ele><time>2026-04-11T14:33:23.437Z</time></trkpt><trkpt lat="45.0219817" lon="7.9079817"><ele>279.5</ele><time>2026-04-11T14:33:24.437Z</time></trkpt><trkpt lat="45.0219717" lon="7.9081"><ele>279.3333333333333</ele><time>2026-04-11T14:33:25.437Z</time></trkpt><trkpt lat="45.02196" lon="7.9082167"><ele>279.1666666666667</ele><time>2026-04-11T14:33:26.437Z</time></trkpt><trkpt lat="45.02195" lon="7.9083317"><ele>279.0</ele><time>2026-04-11T14:33:27.437Z</time></trkpt><trkpt lat="45.0219433" lon="7.908445"><ele>278.8333333333333</ele><time>2026-04-11T14:33:28.437Z</time></trkpt><trkpt lat="45.0219283" lon="7.9085533"><ele>278.6666666666667</ele><time>2026-04-11T14:33:29.437Z</time></trkpt><trkpt lat="45.0219183" lon="7.9086617"><ele>278.5</ele><time>2026-04-11T14:33:30.437Z</time></trkpt><trkpt lat="45.0219117" lon="7.90876"><ele>278.33333333333337</ele><time>2026-04-11T14:33:31.437Z</time></trkpt><trkpt lat="45.0219067" lon="7.9088633"><ele>278.1666666666667</ele><time>2026-04-11T14:33:32.437Z</time></trkpt><trkpt lat="45.0218967" lon="7.9089783"><ele>278.0</ele><time>2026-04-11T14:33:33.437Z</time></trkpt><trkpt lat="45.021885" lon="7.90909"><ele>278.0</ele><time>2026-04-11T14:33:34.437Z</time></trkpt><trkpt lat="45.02187" lon="7.90921"><ele>278.0</ele><time>2026-04-11T14:33:35.437Z</time></trkpt><trkpt lat="45.0218567" lon="7.90932"><ele>278.0</ele><time>2026-04-11T14:33:36.437Z</time></trkpt><trkpt lat="45.0218167" lon="7.90943"><ele>278.0</ele><time>2026-04-11T14:33:37.437Z</time></trkpt><trkpt lat="45.021775" lon="7.9095367"><ele>278.0</ele><time>2026-04-11T14:33:38.437Z</time></trkpt><trkpt lat="45.021745" lon="7.9096533"><ele>278.0</ele><time>2026-04-11T14:33:39.437Z</time></trkpt><trkpt lat="45.0217183" lon="7.90978"><ele>278.0</ele><time>2026-04-11T14:33:40.437Z</time></trkpt><trkpt lat="45.0216883" lon="7.9099033"><ele>278.0</ele><time>2026-04-11T14:33:41.437Z</time></trkpt><trkpt lat="45.021655" lon="7.91001"><ele>278.0</ele><time>2026-04-11T14:33:42.437Z</time></trkpt><trkpt lat="45.021615" lon="7.9101233"><ele>278.0</ele><time>2026-04-11T14:33:43.437Z</time></trkpt><trkpt lat="45.0215833" lon="7.9102317"><ele>278.0</ele><time>2026-04-11T14:33:44.437Z</time></trkpt><trkpt lat="45.02155" lon="7.9103483"><ele>278.0</ele><time>2026-04-11T14:33:45.437Z</time></trkpt><trkpt lat="45.02151" lon="7.91046"><ele>277.83333333333337</ele><time>2026-04-11T14:33:46.437Z</time></trkpt><trkpt lat="45.0214717" lon="7.9105667"><ele>277.6666666666667</ele><time>2026-04-11T14:33:47.437Z</time></trkpt><trkpt lat="45.0214383" lon="7.9106767"><ele>277.5</ele><time>2026-04-11T14:33:48.437Z</time></trkpt><trkpt lat="45.0214267" lon="7.910785"><ele>277.3333333333333</ele><time>2026-04-11T14:33:49.438Z</time></trkpt><trkpt lat="45.021435" lon="7.910895"><ele>277.16666666666663</ele><time>2026-04-11T14:33:50.437Z</time></trkpt><trkpt lat="45.02145" lon="7.91101"><ele>277.0</ele><time>2026-04-11T14:33:51.437Z</time></trkpt><trkpt lat="45.0214617" lon="7.9111217"><ele>277.0</ele><time>2026-04-11T14:33:52.437Z</time></trkpt><trkpt lat="45.0214667" lon="7.911235"><ele>277.0</ele><time>2026-04-11T14:33:53.437Z</time></trkpt><trkpt lat="45.0214683" lon="7.9113483"><ele>277.0</ele><time>2026-04-11T14:33:54.437Z</time></trkpt><trkpt lat="45.021465" lon="7.911455"><ele>277.0</ele><time>2026-04-11T14:33:55.437Z</time></trkpt><trkpt lat="45.0214683" lon="7.9115617"><ele>277.0</ele><time>2026-04-11T14:33:56.437Z</time></trkpt><trkpt lat="45.02147" lon="7.9116683"><ele>277.0</ele><time>2026-04-11T14:33:57.436Z</time></trkpt><trkpt lat="45.0214767" lon="7.91178"><ele>277.85714285714283</ele><time>2026-04-11T14:33:58.437Z</time></trkpt><trkpt lat="45.021485" lon="7.9118783"><ele>278.71428571428567</ele><time>2026-04-11T14:33:59.436Z</time></trkpt><trkpt lat="45.0214867" lon="7.9119767"><ele>279.57142857142856</ele><time>2026-04-11T14:34:00.436Z</time></trkpt><trkpt lat="45.0214883" lon="7.9120783"><ele>280.42857142857144</ele><time>2026-04-11T14:34:01.436Z</time></trkpt><trkpt lat="45.021485" lon="7.912175"><ele>281.28571428571433</ele><time>2026-04-11T14:34:02.436Z</time></trkpt><trkpt lat="45.0214783" lon="7.912275"><ele>282.14285714285717</ele><time>2026-04-11T14:34:03.436Z</time></trkpt><trkpt lat="45.021465" lon="7.9123633"><ele>283.0</ele><time>2026-04-11T14:34:04.436Z</time></trkpt><trkpt lat="45.02144" lon="7.9124517"><ele>282.75</ele><time>2026-04-11T14:34:05.436Z</time></trkpt><trkpt lat="45.0213967" lon="7.9126083"><ele>282.5</ele><time>2026-04-11T14:34:07.436Z</time></trkpt><trkpt lat="45.0213467" lon="7.912765"><ele>282.25</ele><time>2026-04-11T14:34:09.437Z</time></trkpt><trkpt lat="45.0213283" lon="7.9129217"><ele>282.0</ele><time>2026-04-11T14:34:11.436Z</time></trkpt><trkpt lat="45.021325" lon="7.9130817"><ele>282.0</ele><time>2026-04-11T14:34:13.436Z</time></trkpt><trkpt lat="45.0213183" lon="7.9132533"><ele>282.0</ele><time>2026-04-11T14:34:15.436Z</time></trkpt><trkpt lat="45.0212917" lon="7.9134183"><ele>282.0</ele><time>2026-04-11T14:34:17.436Z</time></trkpt><trkpt lat="45.0212483" lon="7.9135767"><ele>282.0</ele><time>2026-04-11T14:34:19.436Z</time></trkpt><trkpt lat="45.0211967" lon="7.9137333"><ele>282.0</ele><time>2026-04-11T14:34:21.436Z</time></trkpt><trkpt lat="45.0211683" lon="7.9138133"><ele>282.0</ele><time>2026-04-11T14:34:22.436Z</time></trkpt><trkpt lat="45.0211283" lon="7.913955"><ele>282.0</ele><time>2026-04-11T14:34:24.436Z</time></trkpt><trkpt lat="45.0210983" lon="7.91411"><ele>282.0</ele><time>2026-04-11T14:34:26.436Z</time></trkpt><trkpt lat="45.02108" lon="7.9142783"><ele>282.0</ele><time>2026-04-11T14:34:28.436Z</time></trkpt><trkpt lat="45.02106" lon="7.9144217"><ele>282.0</ele><time>2026-04-11T14:34:30.436Z</time></trkpt><trkpt lat="45.0210583" lon="7.9145617"><ele>282.0</ele><time>2026-04-11T14:34:32.436Z</time></trkpt><trkpt lat="45.0210683" lon="7.914685"><ele>282.0</ele><time>2026-04-11T14:34:34.436Z</time></trkpt><trkpt lat="45.021065" lon="7.9148333"><ele>282.0</ele><time>2026-04-11T14:34:36.436Z</time></trkpt><trkpt lat="45.0210617" lon="7.91498"><ele>282.0</ele><time>2026-04-11T14:34:38.436Z</time></trkpt><trkpt lat="45.0210767" lon="7.9151317"><ele>282.0</ele><time>2026-04-11T14:34:40.436Z</time></trkpt><trkpt lat="45.021085" lon="7.9152683"><ele>282.0</ele><time>2026-04-11T14:34:42.436Z</time></trkpt><trkpt lat="45.02108" lon="7.9154033"><ele>282.0</ele><time>2026-04-11T14:34:44.436Z</time></trkpt><trkpt lat="45.0210883" lon="7.9155467"><ele>282.0</ele><time>2026-04-11T14:34:46.436Z</time></trkpt><trkpt lat="45.0210967" lon="7.9157017"><ele>282.0</ele><time>2026-04-11T14:34:48.437Z</time></trkpt><trkpt lat="45.0211033" lon="7.9158567"><ele>283.4</ele><time>2026-04-11T14:34:50.436Z</time></trkpt><trkpt lat="45.0211183" lon="7.9160133"><ele>284.79999999999995</ele><time>2026-04-11T14:34:52.436Z</time></trkpt><trkpt lat="45.02112" lon="7.9161683"><ele>286.2</ele><time>2026-04-11T14:34:54.436Z</time></trkpt><trkpt lat="45.0211183" lon="7.9163167"><ele>287.59999999999997</ele><time>2026-04-11T14:34:56.436Z</time></trkpt><trkpt lat="45.0211117" lon="7.9164467"><ele>289.0</ele><time>2026-04-11T14:34:58.436Z</time></trkpt><trkpt lat="45.0211017" lon="7.9165667"><ele>289.0</ele><time>2026-04-11T14:35:00.436Z</time></trkpt><trkpt lat="45.02109" lon="7.91667"><ele>289.0</ele><time>2026-04-11T14:35:02.436Z</time></trkpt><trkpt lat="45.0210667" lon="7.91677"><ele>289.0</ele><time>2026-04-11T14:35:04.436Z</time></trkpt><trkpt lat="45.0210383" lon="7.9168883"><ele>289.0</ele><time>2026-04-11T14:35:06.436Z</time></trkpt><trkpt lat="45.021015" lon="7.916995"><ele>289.0</ele><time>2026-04-11T14:35:08.436Z</time></trkpt><trkpt lat="45.020985" lon="7.9170867"><ele>289.0</ele><time>2026-04-11T14:35:10.436Z</time></trkpt><trkpt lat="45.020985" lon="7.9171983"><ele>288.59999999999997</ele><time>2026-04-11T14:35:13.436Z</time></trkpt><trkpt lat="45.0209" lon="7.9172767"><ele>288.2</ele><time>2026-04-11T14:35:17.436Z</time></trkpt><trkpt lat="45.0208183" lon="7.9173117"><ele>287.79999999999995</ele><time>2026-04-11T14:35:19.436Z</time></trkpt><trkpt lat="45.02074" lon="7.9173267"><ele>287.4</ele><time>2026-04-11T14:35:21.436Z</time></trkpt><trkpt lat="45.0206617" lon="7.9173833"><ele>287.0</ele><time>2026-04-11T14:35:23.436Z</time></trkpt><trkpt lat="45.0205833" lon="7.917475"><ele>287.0</ele><time>2026-04-11T14:35:25.436Z</time></trkpt><trkpt lat="45.0205317" lon="7.9176133"><ele>287.0</ele><time>2026-04-11T14:35:27.436Z</time></trkpt><trkpt lat="45.0205183" lon="7.917785"><ele>287.0</ele><time>2026-04-11T14:35:29.436Z</time></trkpt><trkpt lat="45.0205167" lon="7.9178767"><ele>287.0</ele><time>2026-04-11T14:35:30.436Z</time></trkpt><trkpt lat="45.020515" lon="7.9179683"><ele>287.0</ele><time>2026-04-11T14:35:31.436Z</time></trkpt><trkpt lat="45.0205117" lon="7.9180633"><ele>287.0</ele><time>2026-04-11T14:35:32.436Z</time></trkpt><trkpt lat="45.020505" lon="7.91816"><ele>287.0</ele><time>2026-04-11T14:35:33.436Z</time></trkpt><trkpt lat="45.0204983" lon="7.91825"><ele>287.0</ele><time>2026-04-11T14:35:34.437Z</time></trkpt><trkpt lat="45.0204883" lon="7.9183483"><ele>287.0</ele><time>2026-04-11T14:35:35.436Z</time></trkpt><trkpt lat="45.02048" lon="7.9184467"><ele>287.0</ele><time>2026-04-11T14:35:36.436Z</time></trkpt><trkpt lat="45.0204717" lon="7.9185383"><ele>287.0</ele><time>2026-04-11T14:35:37.436Z</time></trkpt><trkpt lat="45.0204617" lon="7.9186333"><ele>287.0</ele><time>2026-04-11T14:35:38.437Z</time></trkpt><trkpt lat="45.0204517" lon="7.9188117"><ele>286.5</ele><time>2026-04-11T14:35:40.436Z</time></trkpt><trkpt lat="45.020445" lon="7.9189067"><ele>286.0</ele><time>2026-04-11T14:35:41.436Z</time></trkpt><trkpt lat="45.0204367" lon="7.9190033"><ele>285.5</ele><time>2026-04-11T14:35:42.436Z</time></trkpt><trkpt lat="45.0204267" lon="7.919095"><ele>285.0</ele><time>2026-04-11T14:35:43.436Z</time></trkpt><trkpt lat="45.0204133" lon="7.91919"><ele>284.5</ele><time>2026-04-11T14:35:44.436Z</time></trkpt><trkpt lat="45.0203917" lon="7.91935"><ele>284.0</ele><time>2026-04-11T14:35:46.436Z</time></trkpt><trkpt lat="45.0203767" lon="7.9195083"><ele>284.0</ele><time>2026-04-11T14:35:48.436Z</time></trkpt><trkpt lat="45.020375" lon="7.9196633"><ele>284.0</ele><time>2026-04-11T14:35:50.436Z</time></trkpt><trkpt lat="45.0203783" lon="7.919755"><ele>284.0</ele><time>2026-04-11T14:35:51.436Z</time></trkpt><trkpt lat="45.02037" lon="7.9199233"><ele>284.0</ele><time>2026-04-11T14:35:53.436Z</time></trkpt><trkpt lat="45.020365" lon="7.9200817"><ele>284.0</ele><time>2026-04-11T14:35:55.436Z</time></trkpt><trkpt lat="45.0203567" lon="7.9202483"><ele>284.0</ele><time>2026-04-11T14:35:57.436Z</time></trkpt><trkpt lat="45.0203633" lon="7.9204117"><ele>284.0</ele><time>2026-04-11T14:35:59.436Z</time></trkpt><trkpt lat="45.0203717" lon="7.920575"><ele>284.0</ele><time>2026-04-11T14:36:01.436Z</time></trkpt><trkpt lat="45.0203717" lon="7.920725"><ele>284.0</ele><time>2026-04-11T14:36:03.436Z</time></trkpt><trkpt lat="45.0203733" lon="7.92087"><ele>284.0</ele><time>2026-04-11T14:36:05.436Z</time></trkpt><trkpt lat="45.02037" lon="7.9210167"><ele>285.0</ele><time>2026-04-11T14:36:07.436Z</time></trkpt><trkpt lat="45.020365" lon="7.9211567"><ele>286.0</ele><time>2026-04-11T14:36:09.436Z</time></trkpt><trkpt lat="45.0203633" lon="7.9212817"><ele>287.0</ele><time>2026-04-11T14:36:11.437Z</time></trkpt><trkpt lat="45.0203583" lon="7.9213983"><ele>288.0</ele><time>2026-04-11T14:36:13.436Z</time></trkpt><trkpt lat="45.020355" lon="7.921515"><ele>289.0</ele><time>2026-04-11T14:36:15.436Z</time></trkpt><trkpt lat="45.0203517" lon="7.9216317"><ele>290.0</ele><time>2026-04-11T14:36:17.436Z</time></trkpt><trkpt lat="45.02035" lon="7.9217367"><ele>290.14285714285717</ele><time>2026-04-11T14:36:19.436Z</time></trkpt><trkpt lat="45.0203483" lon="7.9218467"><ele>290.28571428571433</ele><time>2026-04-11T14:36:21.436Z</time></trkpt><trkpt lat="45.02034" lon="7.9219483"><ele>290.42857142857144</ele><time>2026-04-11T14:36:23.436Z</time></trkpt><trkpt lat="45.0203283" lon="7.9220533"><ele>290.57142857142856</ele><time>2026-04-11T14:36:25.436Z</time></trkpt><trkpt lat="45.020315" lon="7.9221517"><ele>290.71428571428567</ele><time>2026-04-11T14:36:27.436Z</time></trkpt><trkpt lat="45.0202983" lon="7.922255"><ele>290.85714285714283</ele><time>2026-04-11T14:36:29.436Z</time></trkpt><trkpt lat="45.0202767" lon="7.92236"><ele>291.0</ele><time>2026-04-11T14:36:31.436Z</time></trkpt><trkpt lat="45.02026" lon="7.922455"><ele>291.0</ele><time>2026-04-11T14:36:33.436Z</time></trkpt><trkpt lat="45.0202467" lon="7.9225533"><ele>291.0</ele><time>2026-04-11T14:36:35.436Z</time></trkpt><trkpt lat="45.0202317" lon="7.9226467"><ele>291.0</ele><time>2026-04-11T14:36:37.436Z</time></trkpt><trkpt lat="45.0202183" lon="7.92276"><ele>291.0</ele><time>2026-04-11T14:36:39.436Z</time></trkpt><trkpt lat="45.0202" lon="7.9228867"><ele>291.0</ele><time>2026-04-11T14:36:41.436Z</time></trkpt><trkpt lat="45.02019" lon="7.9230133"><ele>291.0</ele><time>2026-04-11T14:36:43.436Z</time></trkpt><trkpt lat="45.02018" lon="7.9231367"><ele>291.0</ele><time>2026-04-11T14:36:45.436Z</time></trkpt><trkpt lat="45.0201783" lon="7.9232617"><ele>291.0</ele><time>2026-04-11T14:36:47.436Z</time></trkpt><trkpt lat="45.020185" lon="7.9234083"><ele>291.0</ele><time>2026-04-11T14:36:49.436Z</time></trkpt><trkpt lat="45.0201933" lon="7.923565"><ele>291.0</ele><time>2026-04-11T14:36:51.436Z</time></trkpt><trkpt lat="45.0201967" lon="7.9237417"><ele>291.0</ele><time>2026-04-11T14:36:53.436Z</time></trkpt><trkpt lat="45.0202033" lon="7.9239017"><ele>290.75</ele><time>2026-04-11T14:36:55.436Z</time></trkpt><trkpt lat="45.020225" lon="7.924075"><ele>290.5</ele><time>2026-04-11T14:36:57.436Z</time></trkpt><trkpt lat="45.0202633" lon="7.9242467"><ele>290.25</ele><time>2026-04-11T14:36:59.436Z</time></trkpt><trkpt lat="45.0203033" lon="7.9244067"><ele>290.0</ele><time>2026-04-11T14:37:01.436Z</time></trkpt><trkpt lat="45.020335" lon="7.9245783"><ele>289.6</ele><time>2026-04-11T14:37:03.436Z</time></trkpt><trkpt lat="45.020335" lon="7.9247483"><ele>289.2</ele><time>2026-04-11T14:37:05.436Z</time></trkpt><trkpt lat="45.02032" lon="7.9249133"><ele>288.8</ele><time>2026-04-11T14:37:07.436Z</time></trkpt><trkpt lat="45.020315" lon="7.9250083"><ele>288.4</ele><time>2026-04-11T14:37:08.436Z</time></trkpt><trkpt lat="45.0202983" lon="7.925195"><ele>288.0</ele><time>2026-04-11T14:37:10.436Z</time></trkpt><trkpt lat="45.0202917" lon="7.9252933"><ele>287.8571428571429</ele><time>2026-04-11T14:37:11.436Z</time></trkpt><trkpt lat="45.0202833" lon="7.9253883"><ele>287.7142857142857</ele><time>2026-04-11T14:37:12.436Z</time></trkpt><trkpt lat="45.0202717" lon="7.925485"><ele>287.57142857142856</ele><time>2026-04-11T14:37:13.436Z</time></trkpt><trkpt lat="45.0202583" lon="7.9255867"><ele>287.42857142857144</ele><time>2026-04-11T14:37:14.436Z</time></trkpt><trkpt lat="45.0202467" lon="7.9256833"><ele>287.2857142857143</ele><time>2026-04-11T14:37:15.436Z</time></trkpt><trkpt lat="45.0202317" lon="7.9257767"><ele>287.14285714285717</ele><time>2026-04-11T14:37:16.436Z</time></trkpt><trkpt lat="45.0202133" lon="7.92587"><ele>287.0</ele><time>2026-04-11T14:37:17.437Z</time></trkpt><trkpt lat="45.02019" lon="7.9259567"><ele>286.8</ele><time>2026-04-11T14:37:18.436Z</time></trkpt><trkpt lat="45.02016" lon="7.92604"><ele>286.6</ele><time>2026-04-11T14:37:19.436Z</time></trkpt><trkpt lat="45.0201333" lon="7.926125"><ele>286.40000000000003</ele><time>2026-04-11T14:37:20.436Z</time></trkpt><trkpt lat="45.0200833" lon="7.92628"><ele>286.2</ele><time>2026-04-11T14:37:22.436Z</time></trkpt><trkpt lat="45.02005" lon="7.9264383"><ele>286.0</ele><time>2026-04-11T14:37:24.436Z</time></trkpt><trkpt lat="45.020025" lon="7.92659"><ele>285.75</ele><time>2026-04-11T14:37:26.436Z</time></trkpt><trkpt lat="45.02001" lon="7.9267567"><ele>285.5</ele><time>2026-04-11T14:37:28.436Z</time></trkpt><trkpt lat="45.019985" lon="7.92692"><ele>285.25</ele><time>2026-04-11T14:37:30.436Z</time></trkpt><trkpt lat="45.019965" lon="7.9270817"><ele>285.0</ele><time>2026-04-11T14:37:32.436Z</time></trkpt><trkpt lat="45.0199467" lon="7.9272383"><ele>284.85714285714283</ele><time>2026-04-11T14:37:34.436Z</time></trkpt><trkpt lat="45.0199417" lon="7.92733"><ele>284.7142857142857</ele><time>2026-04-11T14:37:35.436Z</time></trkpt><trkpt lat="45.0199383" lon="7.9274217"><ele>284.57142857142856</ele><time>2026-04-11T14:37:36.436Z</time></trkpt><trkpt lat="45.01993" lon="7.927515"><ele>284.42857142857144</ele><time>2026-04-11T14:37:37.436Z</time></trkpt><trkpt lat="45.0199217" lon="7.9276033"><ele>284.2857142857143</ele><time>2026-04-11T14:37:38.436Z</time></trkpt><trkpt lat="45.019915" lon="7.9276967"><ele>284.1428571428571</ele><time>2026-04-11T14:37:39.436Z</time></trkpt><trkpt lat="45.0198983" lon="7.92787"><ele>284.0</ele><time>2026-04-11T14:37:41.436Z</time></trkpt><trkpt lat="45.0198983" lon="7.9279617"><ele>283.83333333333337</ele><time>2026-04-11T14:37:42.436Z</time></trkpt><trkpt lat="45.0198983" lon="7.9280533"><ele>283.6666666666667</ele><time>2026-04-11T14:37:43.437Z</time></trkpt><trkpt lat="45.0198983" lon="7.9282417"><ele>283.5</ele><time>2026-04-11T14:37:45.436Z</time></trkpt><trkpt lat="45.019895" lon="7.9283383"><ele>283.3333333333333</ele><time>2026-04-11T14:37:46.436Z</time></trkpt><trkpt lat="45.0198933" lon="7.92843"><ele>283.16666666666663</ele><time>2026-04-11T14:37:47.436Z</time></trkpt><trkpt lat="45.01989" lon="7.928525"><ele>283.0</ele><time>2026-04-11T14:37:48.436Z</time></trkpt><trkpt lat="45.0198883" lon="7.928625"><ele>283.0</ele><time>2026-04-11T14:37:49.436Z</time></trkpt><trkpt lat="45.0198883" lon="7.9287283"><ele>283.0</ele><time>2026-04-11T14:37:50.436Z</time></trkpt><trkpt lat="45.019895" lon="7.9288283"><ele>283.0</ele><time>2026-04-11T14:37:51.436Z</time></trkpt><trkpt lat="45.0198983" lon="7.9289217"><ele>283.0</ele><time>2026-04-11T14:37:52.436Z</time></trkpt><trkpt lat="45.019905" lon="7.9290217"><ele>283.0</ele><time>2026-04-11T14:37:53.436Z</time></trkpt><trkpt lat="45.0199183" lon="7.9291217"><ele>283.0</ele><time>2026-04-11T14:37:54.436Z</time></trkpt><trkpt lat="45.0199383" lon="7.9292183"><ele>283.0</ele><time>2026-04-11T14:37:55.436Z</time></trkpt><trkpt lat="45.01996" lon="7.9293183"><ele>283.0</ele><time>2026-04-11T14:37:56.436Z</time></trkpt><trkpt lat="45.01998" lon="7.9294133"><ele>283.0</ele><time>2026-04-11T14:37:57.436Z</time></trkpt><trkpt lat="45.020005" lon="7.9295083"><ele>283.0</ele><time>2026-04-11T14:37:58.436Z</time></trkpt><trkpt lat="45.020025" lon="7.9296067"><ele>283.0</ele><time>2026-04-11T14:37:59.436Z</time></trkpt><trkpt lat="45.0200517" lon="7.9297"><ele>283.0</ele><time>2026-04-11T14:38:00.437Z</time></trkpt><trkpt lat="45.020075" lon="7.9297917"><ele>283.0</ele><time>2026-04-11T14:38:01.437Z</time></trkpt><trkpt lat="45.0201017" lon="7.9298867"><ele>283.0</ele><time>2026-04-11T14:38:02.436Z</time></trkpt><trkpt lat="45.020125" lon="7.9299783"><ele>283.16666666666663</ele><time>2026-04-11T14:38:03.436Z</time></trkpt><trkpt lat="45.02014" lon="7.93007"><ele>283.3333333333333</ele><time>2026-04-11T14:38:04.436Z</time></trkpt><trkpt lat="45.02015" lon="7.9301683"><ele>283.5</ele><time>2026-04-11T14:38:05.436Z</time></trkpt><trkpt lat="45.0201567" lon="7.93026"><ele>283.6666666666667</ele><time>2026-04-11T14:38:06.436Z</time></trkpt><trkpt lat="45.0201667" lon="7.9304333"><ele>283.83333333333337</ele><time>2026-04-11T14:38:08.436Z</time></trkpt><trkpt lat="45.0201683" lon="7.930605"><ele>284.0</ele><time>2026-04-11T14:38:10.436Z</time></trkpt><trkpt lat="45.02017" lon="7.930695"><ele>284.0</ele><time>2026-04-11T14:38:11.436Z</time></trkpt><trkpt lat="45.0201633" lon="7.93086"><ele>284.0</ele><time>2026-04-11T14:38:13.436Z</time></trkpt><trkpt lat="45.0201617" lon="7.9310283"><ele>284.0</ele><time>2026-04-11T14:38:15.436Z</time></trkpt><trkpt lat="45.020155" lon="7.9311833"><ele>284.0</ele><time>2026-04-11T14:38:17.436Z</time></trkpt><trkpt lat="45.020145" lon="7.9313467"><ele>283.8</ele><time>2026-04-11T14:38:19.436Z</time></trkpt><trkpt lat="45.0201333" lon="7.9314983"><ele>283.59999999999997</ele><time>2026-04-11T14:38:21.436Z</time></trkpt><trkpt lat="45.0201183" lon="7.9316417"><ele>283.4</ele><time>2026-04-11T14:38:23.436Z</time></trkpt><trkpt lat="45.0201133" lon="7.9317733"><ele>283.2</ele><time>2026-04-11T14:38:25.436Z</time></trkpt><trkpt lat="45.0201067" lon="7.9318933"><ele>283.0</ele><time>2026-04-11T14:38:27.436Z</time></trkpt><trkpt lat="45.0200983" lon="7.9319933"><ele>283.2857142857143</ele><time>2026-04-11T14:38:29.436Z</time></trkpt><trkpt lat="45.02009" lon="7.932085"><ele>283.5714285714286</ele><time>2026-04-11T14:38:31.436Z</time></trkpt><trkpt lat="45.0200767" lon="7.9321933"><ele>283.8571428571429</ele><time>2026-04-11T14:38:35.436Z</time></trkpt><trkpt lat="45.0200517" lon="7.9323017"><ele>284.14285714285717</ele><time>2026-04-11T14:38:41.436Z</time></trkpt><trkpt lat="45.0200517" lon="7.9324217"><ele>284.42857142857144</ele><time>2026-04-11T14:38:44.436Z</time></trkpt><trkpt lat="45.020045" lon="7.93252"><ele>284.7142857142857</ele><time>2026-04-11T14:38:46.436Z</time></trkpt><trkpt lat="45.02004" lon="7.9326183"><ele>285.0</ele><time>2026-04-11T14:38:48.436Z</time></trkpt><trkpt lat="45.0200333" lon="7.93272"><ele>285.1666666666667</ele><time>2026-04-11T14:38:50.437Z</time></trkpt><trkpt lat="45.02002" lon="7.9328217"><ele>285.3333333333333</ele><time>2026-04-11T14:38:52.436Z</time></trkpt><trkpt lat="45.0200067" lon="7.9329417"><ele>285.5</ele><time>2026-04-11T14:38:54.436Z</time></trkpt><trkpt lat="45.0200017" lon="7.93308"><ele>285.66666666666663</ele><time>2026-04-11T14:38:56.436Z</time></trkpt><trkpt lat="45.0199883" lon="7.9332067"><ele>285.8333333333333</ele><time>2026-04-11T14:38:58.436Z</time></trkpt><trkpt lat="45.0199717" lon="7.93333"><ele>286.0</ele><time>2026-04-11T14:39:00.436Z</time></trkpt><trkpt lat="45.0199617" lon="7.9334617"><ele>286.2</ele><time>2026-04-11T14:39:02.436Z</time></trkpt><trkpt lat="45.01995" lon="7.9335967"><ele>286.40000000000003</ele><time>2026-04-11T14:39:04.436Z</time></trkpt><trkpt lat="45.01994" lon="7.9337267"><ele>286.6</ele><time>2026-04-11T14:39:06.436Z</time></trkpt><trkpt lat="45.01994" lon="7.9338633"><ele>286.8</ele><time>2026-04-11T14:39:08.436Z</time></trkpt><trkpt lat="45.0199383" lon="7.933995"><ele>287.0</ele><time>2026-04-11T14:39:10.436Z</time></trkpt><trkpt lat="45.0199317" lon="7.93414"><ele>286.6</ele><time>2026-04-11T14:39:12.436Z</time></trkpt><trkpt lat="45.0199183" lon="7.9342817"><ele>286.2</ele><time>2026-04-11T14:39:14.436Z</time></trkpt><trkpt lat="45.0199067" lon="7.9344367"><ele>285.8</ele><time>2026-04-11T14:39:16.436Z</time></trkpt><trkpt lat="45.0198933" lon="7.9345967"><ele>285.4</ele><time>2026-04-11T14:39:18.436Z</time></trkpt><trkpt lat="45.0198733" lon="7.9347567"><ele>285.0</ele><time>2026-04-11T14:39:20.436Z</time></trkpt><trkpt lat="45.0198533" lon="7.9349067"><ele>285.0</ele><time>2026-04-11T14:39:22.436Z</time></trkpt><trkpt lat="45.0198283" lon="7.93503"><ele>285.0</ele><time>2026-04-11T14:39:24.436Z</time></trkpt><trkpt lat="45.0197517" lon="7.9351067"><ele>285.0</ele><time>2026-04-11T14:39:26.436Z</time></trkpt><trkpt lat="45.0197083" lon="7.9352033"><ele>285.0</ele><time>2026-04-11T14:39:28.436Z</time></trkpt><trkpt lat="45.0197333" lon="7.9353017"><ele>285.0</ele><time>2026-04-11T14:39:30.436Z</time></trkpt><trkpt lat="45.0197817" lon="7.935395"><ele>285.0</ele><time>2026-04-11T14:39:33.436Z</time></trkpt><trkpt lat="45.01978" lon="7.9355117"><ele>284.8333333333333</ele><time>2026-04-11T14:39:48.436Z</time></trkpt><trkpt lat="45.0197633" lon="7.935615"><ele>284.6666666666667</ele><time>2026-04-11T14:39:50.436Z</time></trkpt><trkpt lat="45.019735" lon="7.9357783"><ele>284.5</ele><time>2026-04-11T14:39:52.436Z</time></trkpt><trkpt lat="45.0197233" lon="7.9358733"><ele>284.33333333333337</ele><time>2026-04-11T14:39:53.436Z</time></trkpt><trkpt lat="45.0197117" lon="7.9359717"><ele>284.1666666666667</ele><time>2026-04-11T14:39:54.436Z</time></trkpt><trkpt lat="45.0197" lon="7.9360917"><ele>284.0</ele><time>2026-04-11T14:39:55.436Z</time></trkpt><trkpt lat="45.0196917" lon="7.9362017"><ele>284.0</ele><time>2026-04-11T14:39:56.436Z</time></trkpt><trkpt lat="45.0196833" lon="7.9363083"><ele>284.0</ele><time>2026-04-11T14:39:57.436Z</time></trkpt><trkpt lat="45.0196783" lon="7.936415"><ele>284.0</ele><time>2026-04-11T14:39:58.436Z</time></trkpt><trkpt lat="45.0196717" lon="7.9365267"><ele>284.0</ele><time>2026-04-11T14:39:59.436Z</time></trkpt><trkpt lat="45.0196617" lon="7.9366333"><ele>284.0</ele><time>2026-04-11T14:40:00.436Z</time></trkpt><trkpt lat="45.0196533" lon="7.9367383"><ele>284.0</ele><time>2026-04-11T14:40:01.436Z</time></trkpt><trkpt lat="45.0196517" lon="7.9368433"><ele>284.0</ele><time>2026-04-11T14:40:02.436Z</time></trkpt><trkpt lat="45.0196433" lon="7.936945"><ele>284.0</ele><time>2026-04-11T14:40:03.436Z</time></trkpt><trkpt lat="45.01963" lon="7.9370417"><ele>284.0</ele><time>2026-04-11T14:40:04.436Z</time></trkpt><trkpt lat="45.0196183" lon="7.9371383"><ele>284.0</ele><time>2026-04-11T14:40:05.436Z</time></trkpt><trkpt lat="45.0196067" lon="7.93723"><ele>284.0</ele><time>2026-04-11T14:40:06.436Z</time></trkpt><trkpt lat="45.01958" lon="7.9374017"><ele>284.0</ele><time>2026-04-11T14:40:08.436Z</time></trkpt><trkpt lat="45.0195717" lon="7.9375017"><ele>284.2857142857143</ele><time>2026-04-11T14:40:09.436Z</time></trkpt><trkpt lat="45.0195667" lon="7.9376083"><ele>284.57142857142856</ele><time>2026-04-11T14:40:10.436Z</time></trkpt><trkpt lat="45.01956" lon="7.937715"><ele>284.85714285714283</ele><time>2026-04-11T14:40:11.436Z</time></trkpt><trkpt lat="45.0195533" lon="7.93782"><ele>285.1428571428571</ele><time>2026-04-11T14:40:12.436Z</time></trkpt><trkpt lat="45.0195433" lon="7.9379183"><ele>285.42857142857144</ele><time>2026-04-11T14:40:13.436Z</time></trkpt><trkpt lat="45.0195283" lon="7.9380183"><ele>285.71428571428567</ele><time>2026-04-11T14:40:14.436Z</time></trkpt><trkpt lat="45.0195067" lon="7.93811"><ele>286.0</ele><time>2026-04-11T14:40:15.436Z</time></trkpt><trkpt lat="45.0194967" lon="7.938205"><ele>285.99999999999994</ele><time>2026-04-11T14:40:16.436Z</time></trkpt><trkpt lat="45.0194883" lon="7.9383033"><ele>286.0</ele><time>2026-04-11T14:40:17.436Z</time></trkpt><trkpt lat="45.0194833" lon="7.9384067"><ele>286.0</ele><time>2026-04-11T14:40:18.436Z</time></trkpt><trkpt lat="45.01948" lon="7.9385033"><ele>286.0</ele><time>2026-04-11T14:40:19.436Z</time></trkpt><trkpt lat="45.0194733" lon="7.9386017"><ele>286.0</ele><time>2026-04-11T14:40:20.436Z</time></trkpt><trkpt lat="45.01947" lon="7.938705"><ele>285.99999999999994</ele><time>2026-04-11T14:40:21.436Z</time></trkpt><trkpt lat="45.0194617" lon="7.938805"><ele>286.0</ele><time>2026-04-11T14:40:22.436Z</time></trkpt><trkpt lat="45.0194567" lon="7.9389017"><ele>286.16666666666663</ele><time>2026-04-11T14:40:23.436Z</time></trkpt><trkpt lat="45.0194533" lon="7.9390033"><ele>286.3333333333333</ele><time>2026-04-11T14:40:24.436Z</time></trkpt><trkpt lat="45.01945" lon="7.9391033"><ele>286.5</ele><time>2026-04-11T14:40:25.436Z</time></trkpt><trkpt lat="45.0194533" lon="7.9391983"><ele>286.6666666666667</ele><time>2026-04-11T14:40:26.436Z</time></trkpt><trkpt lat="45.01946" lon="7.9392933"><ele>286.83333333333337</ele><time>2026-04-11T14:40:27.436Z</time></trkpt><trkpt lat="45.0194583" lon="7.9393867"><ele>287.0</ele><time>2026-04-11T14:40:28.436Z</time></trkpt><trkpt lat="45.019465" lon="7.9395633"><ele>287.0</ele><time>2026-04-11T14:40:30.436Z</time></trkpt><trkpt lat="45.019475" lon="7.939655"><ele>287.0</ele><time>2026-04-11T14:40:31.436Z</time></trkpt><trkpt lat="45.0194833" lon="7.9397483"><ele>287.0</ele><time>2026-04-11T14:40:32.436Z</time></trkpt><trkpt lat="45.0194917" lon="7.9399217"><ele>287.0</ele><time>2026-04-11T14:40:34.436Z</time></trkpt><trkpt lat="45.0194933" lon="7.9400133"><ele>287.0</ele><time>2026-04-11T14:40:35.436Z</time></trkpt><trkpt lat="45.019505" lon="7.9401917"><ele>287.0</ele><time>2026-04-11T14:40:37.437Z</time></trkpt><trkpt lat="45.0195167" lon="7.94036"><ele>287.0</ele><time>2026-04-11T14:40:39.436Z</time></trkpt><trkpt lat="45.019525" lon="7.94045"><ele>287.0</ele><time>2026-04-11T14:40:40.436Z</time></trkpt><trkpt lat="45.01953" lon="7.940545"><ele>287.0</ele><time>2026-04-11T14:40:41.436Z</time></trkpt><trkpt lat="45.019535" lon="7.9406467"><ele>287.0</ele><time>2026-04-11T14:40:42.436Z</time></trkpt><trkpt lat="45.019535" lon="7.94075"><ele>287.0</ele><time>2026-04-11T14:40:43.436Z</time></trkpt><trkpt lat="45.0195317" lon="7.9408517"><ele>287.0</ele><time>2026-04-11T14:40:44.436Z</time></trkpt><trkpt lat="45.01953" lon="7.9409483"><ele>287.0</ele><time>2026-04-11T14:40:45.436Z</time></trkpt><trkpt lat="45.0195267" lon="7.94104"><ele>286.5</ele><time>2026-04-11T14:40:46.436Z</time></trkpt><trkpt lat="45.0195217" lon="7.9411417"><ele>286.0</ele><time>2026-04-11T14:40:47.436Z</time></trkpt><trkpt lat="45.01951" lon="7.941245"><ele>285.5</ele><time>2026-04-11T14:40:48.436Z</time></trkpt><trkpt lat="45.0194983" lon="7.9413517"><ele>285.0</ele><time>2026-04-11T14:40:49.436Z</time></trkpt><trkpt lat="45.0194883" lon="7.94146"><ele>284.5</ele><time>2026-04-11T14:40:50.436Z</time></trkpt><trkpt lat="45.01948" lon="7.94157"><ele>284.0</ele><time>2026-04-11T14:40:51.436Z</time></trkpt><trkpt lat="45.0194717" lon="7.9416833"><ele>284.0</ele><time>2026-04-11T14:40:52.436Z</time></trkpt><trkpt lat="45.0194633" lon="7.9417967"><ele>284.0</ele><time>2026-04-11T14:40:53.436Z</time></trkpt><trkpt lat="45.019455" lon="7.941905"><ele>284.0</ele><time>2026-04-11T14:40:54.436Z</time></trkpt><trkpt lat="45.0194467" lon="7.9420133"><ele>284.0</ele><time>2026-04-11T14:40:55.436Z</time></trkpt><trkpt lat="45.0194317" lon="7.9421183"><ele>284.0</ele><time>2026-04-11T14:40:56.436Z</time></trkpt><trkpt lat="45.0194167" lon="7.9422233"><ele>284.0</ele><time>2026-04-11T14:40:57.436Z</time></trkpt><trkpt lat="45.0194033" lon="7.94232"><ele>284.0</ele><time>2026-04-11T14:40:58.436Z</time></trkpt><trkpt lat="45.0193917" lon="7.94242"><ele>284.0</ele><time>2026-04-11T14:40:59.436Z</time></trkpt><trkpt lat="45.019375" lon="7.9425217"><ele>284.0</ele><time>2026-04-11T14:41:00.436Z</time></trkpt><trkpt lat="45.0193617" lon="7.9426317"><ele>284.0</ele><time>2026-04-11T14:41:01.436Z</time></trkpt><trkpt lat="45.0193433" lon="7.9427433"><ele>284.0</ele><time>2026-04-11T14:41:02.436Z</time></trkpt><trkpt lat="45.0193267" lon="7.9428467"><ele>284.0</ele><time>2026-04-11T14:41:03.436Z</time></trkpt><trkpt lat="45.0193033" lon="7.94294"><ele>283.85714285714283</ele><time>2026-04-11T14:41:04.436Z</time></trkpt><trkpt lat="45.019285" lon="7.9430417"><ele>283.71428571428567</ele><time>2026-04-11T14:41:05.436Z</time></trkpt><trkpt lat="45.0192683" lon="7.94314"><ele>283.57142857142856</ele><time>2026-04-11T14:41:06.436Z</time></trkpt><trkpt lat="45.01925" lon="7.9432433"><ele>283.42857142857144</ele><time>2026-04-11T14:41:07.436Z</time></trkpt><trkpt lat="45.0192317" lon="7.9433417"><ele>283.28571428571433</ele><time>2026-04-11T14:41:08.436Z</time></trkpt><trkpt lat="45.019205" lon="7.9434367"><ele>283.14285714285717</ele><time>2026-04-11T14:41:09.436Z</time></trkpt><trkpt lat="45.0191783" lon="7.9435383"><ele>283.0</ele><time>2026-04-11T14:41:10.436Z</time></trkpt><trkpt lat="45.019155" lon="7.9436417"><ele>283.14285714285717</ele><time>2026-04-11T14:41:11.436Z</time></trkpt><trkpt lat="45.019135" lon="7.9437383"><ele>283.28571428571433</ele><time>2026-04-11T14:41:12.436Z</time></trkpt><trkpt lat="45.0191217" lon="7.9438433"><ele>283.42857142857144</ele><time>2026-04-11T14:41:13.436Z</time></trkpt><trkpt lat="45.0191167" lon="7.9439417"><ele>283.57142857142856</ele><time>2026-04-11T14:41:14.436Z</time></trkpt><trkpt lat="45.019115" lon="7.944045"><ele>283.71428571428567</ele><time>2026-04-11T14:41:15.436Z</time></trkpt><trkpt lat="45.0191333" lon="7.9441467"><ele>283.85714285714283</ele><time>2026-04-11T14:41:16.436Z</time></trkpt><trkpt lat="45.0191633" lon="7.94424"><ele>284.0</ele><time>2026-04-11T14:41:17.436Z</time></trkpt><trkpt lat="45.0192067" lon="7.9443233"><ele>283.7142857142857</ele><time>2026-04-11T14:41:18.436Z</time></trkpt><trkpt lat="45.019255" lon="7.9444017"><ele>283.4285714285714</ele><time>2026-04-11T14:41:19.436Z</time></trkpt><trkpt lat="45.0192983" lon="7.9444767"><ele>283.1428571428571</ele><time>2026-04-11T14:41:20.436Z</time></trkpt><trkpt lat="45.0193433" lon="7.9445517"><ele>282.85714285714283</ele><time>2026-04-11T14:41:21.436Z</time></trkpt><trkpt lat="45.0193883" lon="7.9446283"><ele>282.57142857142856</ele><time>2026-04-11T14:41:22.436Z</time></trkpt><trkpt lat="45.019435" lon="7.9447033"><ele>282.2857142857143</ele><time>2026-04-11T14:41:23.436Z</time></trkpt><trkpt lat="45.01948" lon="7.9447883"><ele>282.0</ele><time>2026-04-11T14:41:24.436Z</time></trkpt><trkpt lat="45.019525" lon="7.9448633"><ele>282.0</ele><time>2026-04-11T14:41:25.436Z</time></trkpt><trkpt lat="45.0195683" lon="7.9449417"><ele>282.0</ele><time>2026-04-11T14:41:26.436Z</time></trkpt><trkpt lat="45.01961" lon="7.94503"><ele>282.0</ele><time>2026-04-11T14:41:27.436Z</time></trkpt><trkpt lat="45.0196517" lon="7.9451117"><ele>282.0</ele><time>2026-04-11T14:41:28.436Z</time></trkpt><trkpt lat="45.0197" lon="7.9451967"><ele>282.0</ele><time>2026-04-11T14:41:29.436Z</time></trkpt><trkpt lat="45.0197383" lon="7.9452767"><ele>282.0</ele><time>2026-04-11T14:41:30.436Z</time></trkpt><trkpt lat="45.0197767" lon="7.9453633"><ele>282.0</ele><time>2026-04-11T14:41:31.436Z</time></trkpt><trkpt lat="45.0198117" lon="7.9454483"><ele>281.8571428571429</ele><time>2026-04-11T14:41:32.436Z</time></trkpt><trkpt lat="45.0198483" lon="7.9455283"><ele>281.7142857142857</ele><time>2026-04-11T14:41:33.436Z</time></trkpt><trkpt lat="45.019885" lon="7.945605"><ele>281.57142857142856</ele><time>2026-04-11T14:41:34.436Z</time></trkpt><trkpt lat="45.0199233" lon="7.94568"><ele>281.42857142857144</ele><time>2026-04-11T14:41:35.436Z</time></trkpt><trkpt lat="45.0199583" lon="7.9457633"><ele>281.2857142857143</ele><time>2026-04-11T14:41:36.436Z</time></trkpt><trkpt lat="45.0199933" lon="7.9458433"><ele>281.14285714285717</ele><time>2026-04-11T14:41:37.436Z</time></trkpt><trkpt lat="45.02003" lon="7.9459167"><ele>281.0</ele><time>2026-04-11T14:41:38.436Z</time></trkpt><trkpt lat="45.0200983" lon="7.9460533"><ele>282.2</ele><time>2026-04-11T14:41:40.436Z</time></trkpt><trkpt lat="45.0201533" lon="7.94618"><ele>283.40000000000003</ele><time>2026-04-11T14:41:42.436Z</time></trkpt><trkpt lat="45.0202117" lon="7.9463"><ele>284.6</ele><time>2026-04-11T14:41:44.437Z</time></trkpt><trkpt lat="45.0202783" lon="7.9464267"><ele>285.8</ele><time>2026-04-11T14:41:46.436Z</time></trkpt><trkpt lat="45.020355" lon="7.9465617"><ele>287.0</ele><time>2026-04-11T14:41:48.436Z</time></trkpt><trkpt lat="45.0204" lon="7.9466283"><ele>287.0</ele><time>2026-04-11T14:41:49.436Z</time></trkpt><trkpt lat="45.0204483" lon="7.9466933"><ele>287.0</ele><time>2026-04-11T14:41:50.436Z</time></trkpt><trkpt lat="45.0205183" lon="7.94682"><ele>287.0</ele><time>2026-04-11T14:41:52.436Z</time></trkpt><trkpt lat="45.0206033" lon="7.9469467"><ele>287.0</ele><time>2026-04-11T14:41:54.436Z</time></trkpt><trkpt lat="45.02068" lon="7.9470717"><ele>287.0</ele><time>2026-04-11T14:41:56.436Z</time></trkpt><trkpt lat="45.0207583" lon="7.9471883"><ele>287.4</ele><time>2026-04-11T14:41:58.437Z</time></trkpt><trkpt lat="45.020835" lon="7.9472933"><ele>287.79999999999995</ele><time>2026-04-11T14:42:00.436Z</time></trkpt><trkpt lat="45.0209117" lon="7.947405"><ele>288.2</ele><time>2026-04-11T14:42:02.436Z</time></trkpt><trkpt lat="45.0210067" lon="7.9475217"><ele>288.59999999999997</ele><time>2026-04-11T14:42:04.436Z</time></trkpt><trkpt lat="45.0210533" lon="7.947585"><ele>289.0</ele><time>2026-04-11T14:42:05.436Z</time></trkpt><trkpt lat="45.0211367" lon="7.9476983"><ele>289.25</ele><time>2026-04-11T14:42:07.436Z</time></trkpt><trkpt lat="45.0212183" lon="7.94783"><ele>289.5</ele><time>2026-04-11T14:42:09.436Z</time></trkpt><trkpt lat="45.0212983" lon="7.9479383"><ele>289.75</ele><time>2026-04-11T14:42:11.436Z</time></trkpt><trkpt lat="45.021385" lon="7.948045"><ele>290.0</ele><time>2026-04-11T14:42:13.436Z</time></trkpt><trkpt lat="45.02148" lon="7.9481367"><ele>290.0</ele><time>2026-04-11T14:42:15.436Z</time></trkpt><trkpt lat="45.0215483" lon="7.9482483"><ele>290.0</ele><time>2026-04-11T14:42:17.436Z</time></trkpt><trkpt lat="45.0215817" lon="7.94835"><ele>290.0</ele><time>2026-04-11T14:42:19.436Z</time></trkpt><trkpt lat="45.0216267" lon="7.9484417"><ele>290.0</ele><time>2026-04-11T14:42:24.436Z</time></trkpt><trkpt lat="45.0216883" lon="7.9485633"><ele>290.0</ele><time>2026-04-11T14:42:27.436Z</time></trkpt><trkpt lat="45.0217033" lon="7.948695"><ele>289.8</ele><time>2026-04-11T14:42:29.436Z</time></trkpt><trkpt lat="45.0216933" lon="7.9488533"><ele>289.6</ele><time>2026-04-11T14:42:31.436Z</time></trkpt><trkpt lat="45.0216567" lon="7.9490133"><ele>289.4</ele><time>2026-04-11T14:42:33.436Z</time></trkpt><trkpt lat="45.0216233" lon="7.94918"><ele>289.2</ele><time>2026-04-11T14:42:35.436Z</time></trkpt><trkpt lat="45.021605" lon="7.949275"><ele>289.0</ele><time>2026-04-11T14:42:36.436Z</time></trkpt><trkpt lat="45.0215783" lon="7.9494333"><ele>289.4</ele><time>2026-04-11T14:42:38.436Z</time></trkpt><trkpt lat="45.021535" lon="7.949605"><ele>289.79999999999995</ele><time>2026-04-11T14:42:40.436Z</time></trkpt><trkpt lat="45.02151" lon="7.9496917"><ele>290.20000000000005</ele><time>2026-04-11T14:42:41.435Z</time></trkpt><trkpt lat="45.02146" lon="7.949855"><ele>290.6</ele><time>2026-04-11T14:42:43.435Z</time></trkpt><trkpt lat="45.021415" lon="7.949995"><ele>291.0</ele><time>2026-04-11T14:42:45.435Z</time></trkpt><trkpt lat="45.0213817" lon="7.950085"><ele>291.1666666666667</ele><time>2026-04-11T14:42:47.435Z</time></trkpt><trkpt lat="45.02137" lon="7.9501933"><ele>291.3333333333333</ele><time>2026-04-11T14:42:51.435Z</time></trkpt><trkpt lat="45.0214383" lon="7.950275"><ele>291.5</ele><time>2026-04-11T14:42:54.435Z</time></trkpt><trkpt lat="45.0215317" lon="7.950315"><ele>291.66666666666663</ele><time>2026-04-11T14:42:57.435Z</time></trkpt><trkpt lat="45.021605" lon="7.9503967"><ele>291.8333333333333</ele><time>2026-04-11T14:42:59.435Z</time></trkpt><trkpt lat="45.0216917" lon="7.9504267"><ele>292.0</ele><time>2026-04-11T14:43:01.435Z</time></trkpt><trkpt lat="45.02179" lon="7.9504883"><ele>292.66666666666663</ele><time>2026-04-11T14:43:03.435Z</time></trkpt><trkpt lat="45.0218717" lon="7.950525"><ele>293.3333333333333</ele><time>2026-04-11T14:43:05.435Z</time></trkpt><trkpt lat="45.0219467" lon="7.9505633"><ele>294.0</ele><time>2026-04-11T14:43:07.435Z</time></trkpt><trkpt lat="45.0220283" lon="7.9506367"><ele>294.6666666666667</ele><time>2026-04-11T14:43:09.435Z</time></trkpt><trkpt lat="45.0221017" lon="7.950685"><ele>295.33333333333337</ele><time>2026-04-11T14:43:11.435Z</time></trkpt><trkpt lat="45.0221783" lon="7.9507417"><ele>296.0</ele><time>2026-04-11T14:43:14.435Z</time></trkpt><trkpt lat="45.0222483" lon="7.95075"><ele>296.0</ele><time>2026-04-11T14:43:18.435Z</time></trkpt><trkpt lat="45.0223117" lon="7.950675"><ele>296.0</ele><time>2026-04-11T14:43:22.435Z</time></trkpt><trkpt lat="45.0223417" lon="7.95058"><ele>296.0</ele><time>2026-04-11T14:43:24.435Z</time></trkpt><trkpt lat="45.02236" lon="7.95044"><ele>296.0</ele><time>2026-04-11T14:43:26.436Z</time></trkpt><trkpt lat="45.0224017" lon="7.950325"><ele>296.0</ele><time>2026-04-11T14:43:28.435Z</time></trkpt><trkpt lat="45.02245" lon="7.9502233"><ele>296.0</ele><time>2026-04-11T14:43:30.435Z</time></trkpt><trkpt lat="45.0224883" lon="7.9501383"><ele>296.40000000000003</ele><time>2026-04-11T14:43:32.435Z</time></trkpt><trkpt lat="45.0225233" lon="7.95003"><ele>296.8</ele><time>2026-04-11T14:43:34.435Z</time></trkpt><trkpt lat="45.0225567" lon="7.94993"><ele>297.20000000000005</ele><time>2026-04-11T14:43:36.435Z</time></trkpt><trkpt lat="45.022605" lon="7.9497883"><ele>297.6</ele><time>2026-04-11T14:43:38.435Z</time></trkpt><trkpt lat="45.0226367" lon="7.9496683"><ele>298.0</ele><time>2026-04-11T14:43:40.435Z</time></trkpt><trkpt lat="45.02266" lon="7.9495433"><ele>298.0</ele><time>2026-04-11T14:43:42.435Z</time></trkpt><trkpt lat="45.022695" lon="7.94944"><ele>298.0</ele><time>2026-04-11T14:43:44.435Z</time></trkpt><trkpt lat="45.0227483" lon="7.9492783"><ele>298.0</ele><time>2026-04-11T14:43:47.435Z</time></trkpt><trkpt lat="45.0227883" lon="7.9491717"><ele>298.0</ele><time>2026-04-11T14:43:49.435Z</time></trkpt><trkpt lat="45.0228117" lon="7.9490433"><ele>298.0</ele><time>2026-04-11T14:43:51.435Z</time></trkpt><trkpt lat="45.0228217" lon="7.9489433"><ele>297.2</ele><time>2026-04-11T14:43:53.435Z</time></trkpt><trkpt lat="45.0228733" lon="7.9488567"><ele>296.4</ele><time>2026-04-11T14:43:56.435Z</time></trkpt><trkpt lat="45.02296" lon="7.9488133"><ele>295.59999999999997</ele><time>2026-04-11T14:43:58.435Z</time></trkpt><trkpt lat="45.0230783" lon="7.9487883"><ele>294.8</ele><time>2026-04-11T14:44:00.435Z</time></trkpt><trkpt lat="45.0232083" lon="7.9487817"><ele>294.0</ele><time>2026-04-11T14:44:02.435Z</time></trkpt><trkpt lat="45.023275" lon="7.948785"><ele>294.2</ele><time>2026-04-11T14:44:03.435Z</time></trkpt><trkpt lat="45.0233817" lon="7.948765"><ele>294.4</ele><time>2026-04-11T14:44:05.435Z</time></trkpt><trkpt lat="45.0235067" lon="7.9487633"><ele>294.6</ele><time>2026-04-11T14:44:07.435Z</time></trkpt><trkpt lat="45.02357" lon="7.9487567"><ele>294.8</ele><time>2026-04-11T14:44:08.435Z</time></trkpt><trkpt lat="45.023685" lon="7.948725"><ele>295.0</ele><time>2026-04-11T14:44:10.435Z</time></trkpt><trkpt lat="45.0238" lon="7.9487017"><ele>295.0</ele><time>2026-04-11T14:44:12.435Z</time></trkpt><trkpt lat="45.0238633" lon="7.94868"><ele>295.0</ele><time>2026-04-11T14:44:13.435Z</time></trkpt><trkpt lat="45.023925" lon="7.9486483"><ele>295.0</ele><time>2026-04-11T14:44:14.435Z</time></trkpt><trkpt lat="45.0240417" lon="7.9485917"><ele>295.0</ele><time>2026-04-11T14:44:16.436Z</time></trkpt><trkpt lat="45.0240983" lon="7.948545"><ele>295.0</ele><time>2026-04-11T14:44:17.435Z</time></trkpt><trkpt lat="45.0242083" lon="7.9484717"><ele>295.0</ele><time>2026-04-11T14:44:19.435Z</time></trkpt><trkpt lat="45.0242783" lon="7.9484267"><ele>294.8</ele><time>2026-04-11T14:44:20.435Z</time></trkpt><trkpt lat="45.024375" lon="7.9483167"><ele>294.6</ele><time>2026-04-11T14:44:22.435Z</time></trkpt><trkpt lat="45.0244267" lon="7.9482617"><ele>294.4</ele><time>2026-04-11T14:44:23.435Z</time></trkpt><trkpt lat="45.0244767" lon="7.9482017"><ele>294.2</ele><time>2026-04-11T14:44:24.435Z</time></trkpt><trkpt lat="45.02457" lon="7.94808"><ele>294.0</ele><time>2026-04-11T14:44:26.435Z</time></trkpt><trkpt lat="45.02467" lon="7.9479767"><ele>294.0</ele><time>2026-04-11T14:44:28.435Z</time></trkpt><trkpt lat="45.0247217" lon="7.947925"><ele>294.0</ele><time>2026-04-11T14:44:29.435Z</time></trkpt><trkpt lat="45.02477" lon="7.9478667"><ele>294.0</ele><time>2026-04-11T14:44:30.435Z</time></trkpt><trkpt lat="45.02482" lon="7.9478117"><ele>294.0</ele><time>2026-04-11T14:44:31.435Z</time></trkpt><trkpt lat="45.0248733" lon="7.9477617"><ele>294.0</ele><time>2026-04-11T14:44:32.435Z</time></trkpt><trkpt lat="45.024965" lon="7.9476567"><ele>294.0</ele><time>2026-04-11T14:44:34.435Z</time></trkpt><trkpt lat="45.02507" lon="7.9475583"><ele>294.0</ele><time>2026-04-11T14:44:36.435Z</time></trkpt><trkpt lat="45.0251683" lon="7.9474533"><ele>294.0</ele><time>2026-04-11T14:44:38.435Z</time></trkpt><trkpt lat="45.02522" lon="7.947395"><ele>294.0</ele><time>2026-04-11T14:44:39.435Z</time></trkpt><trkpt lat="45.025325" lon="7.94729"><ele>294.0</ele><time>2026-04-11T14:44:41.435Z</time></trkpt><trkpt lat="45.0253767" lon="7.94723"><ele>294.0</ele><time>2026-04-11T14:44:42.435Z</time></trkpt><trkpt lat="45.0254217" lon="7.947165"><ele>294.0</ele><time>2026-04-11T14:44:43.436Z</time></trkpt><trkpt lat="45.0254717" lon="7.9471083"><ele>294.0</ele><time>2026-04-11T14:44:44.435Z</time></trkpt><trkpt lat="45.0255733" lon="7.9469933"><ele>294.0</ele><time>2026-04-11T14:44:46.436Z</time></trkpt><trkpt lat="45.02562" lon="7.9469333"><ele>294.0</ele><time>2026-04-11T14:44:47.435Z</time></trkpt><trkpt lat="45.0256683" lon="7.94687"><ele>294.0</ele><time>2026-04-11T14:44:48.435Z</time></trkpt><trkpt lat="45.0257183" lon="7.9468083"><ele>294.0</ele><time>2026-04-11T14:44:49.436Z</time></trkpt><trkpt lat="45.0257717" lon="7.9467517"><ele>294.0</ele><time>2026-04-11T14:44:50.435Z</time></trkpt><trkpt lat="45.0258283" lon="7.9466917"><ele>293.57142857142856</ele><time>2026-04-11T14:44:51.435Z</time></trkpt><trkpt lat="45.0258783" lon="7.9466317"><ele>293.1428571428571</ele><time>2026-04-11T14:44:52.435Z</time></trkpt><trkpt lat="45.0259317" lon="7.9465733"><ele>292.7142857142857</ele><time>2026-04-11T14:44:53.435Z</time></trkpt><trkpt lat="45.0259883" lon="7.9465083"><ele>292.2857142857143</ele><time>2026-04-11T14:44:54.435Z</time></trkpt><trkpt lat="45.0260367" lon="7.94645"><ele>291.85714285714283</ele><time>2026-04-11T14:44:55.435Z</time></trkpt><trkpt lat="45.02609" lon="7.9463917"><ele>291.42857142857144</ele><time>2026-04-11T14:44:56.435Z</time></trkpt><trkpt lat="45.0261433" lon="7.94633"><ele>291.0</ele><time>2026-04-11T14:44:57.435Z</time></trkpt><trkpt lat="45.026195" lon="7.9462667"><ele>291.0</ele><time>2026-04-11T14:44:58.435Z</time></trkpt><trkpt lat="45.0262467" lon="7.9462067"><ele>291.0</ele><time>2026-04-11T14:44:59.435Z</time></trkpt><trkpt lat="45.0262983" lon="7.9461533"><ele>291.0</ele><time>2026-04-11T14:45:00.435Z</time></trkpt><trkpt lat="45.0264017" lon="7.946035"><ele>291.0</ele><time>2026-04-11T14:45:02.435Z</time></trkpt><trkpt lat="45.0264517" lon="7.9459667"><ele>291.0</ele><time>2026-04-11T14:45:03.435Z</time></trkpt><trkpt lat="45.026505" lon="7.9458983"><ele>291.0</ele><time>2026-04-11T14:45:04.435Z</time></trkpt><trkpt lat="45.0265583" lon="7.945835"><ele>290.7142857142857</ele><time>2026-04-11T14:45:05.435Z</time></trkpt><trkpt lat="45.02661" lon="7.9457783"><ele>290.4285714285714</ele><time>2026-04-11T14:45:06.435Z</time></trkpt><trkpt lat="45.0266633" lon="7.94573"><ele>290.1428571428571</ele><time>2026-04-11T14:45:07.435Z</time></trkpt><trkpt lat="45.026715" lon="7.94567"><ele>289.85714285714283</ele><time>2026-04-11T14:45:08.435Z</time></trkpt><trkpt lat="45.0267667" lon="7.9456033"><ele>289.57142857142856</ele><time>2026-04-11T14:45:09.435Z</time></trkpt><trkpt lat="45.0268183" lon="7.945545"><ele>289.2857142857143</ele><time>2026-04-11T14:45:10.435Z</time></trkpt><trkpt lat="45.0268683" lon="7.9454833"><ele>289.0</ele><time>2026-04-11T14:45:11.435Z</time></trkpt><trkpt lat="45.0269633" lon="7.94537"><ele>289.0</ele><time>2026-04-11T14:45:13.435Z</time></trkpt><trkpt lat="45.0270167" lon="7.9453133"><ele>289.0</ele><time>2026-04-11T14:45:14.435Z</time></trkpt><trkpt lat="45.02707" lon="7.9452617"><ele>289.0</ele><time>2026-04-11T14:45:15.435Z</time></trkpt><trkpt lat="45.027125" lon="7.9452083"><ele>289.0</ele><time>2026-04-11T14:45:16.435Z</time></trkpt><trkpt lat="45.0272233" lon="7.9451033"><ele>289.0</ele><time>2026-04-11T14:45:18.435Z</time></trkpt><trkpt lat="45.027315" lon="7.9450067"><ele>289.0</ele><time>2026-04-11T14:45:20.435Z</time></trkpt><trkpt lat="45.0274033" lon="7.944905"><ele>289.2</ele><time>2026-04-11T14:45:22.435Z</time></trkpt><trkpt lat="45.027485" lon="7.9448117"><ele>289.4</ele><time>2026-04-11T14:45:24.435Z</time></trkpt><trkpt lat="45.0275733" lon="7.944735"><ele>289.6</ele><time>2026-04-11T14:45:26.435Z</time></trkpt><trkpt lat="45.0276733" lon="7.9447083"><ele>289.8</ele><time>2026-04-11T14:45:28.435Z</time></trkpt><trkpt lat="45.0277883" lon="7.9447033"><ele>290.0</ele><time>2026-04-11T14:45:30.435Z</time></trkpt><trkpt lat="45.0279017" lon="7.944695"><ele>290.0</ele><time>2026-04-11T14:45:32.435Z</time></trkpt><trkpt lat="45.02801" lon="7.9446967"><ele>290.0</ele><time>2026-04-11T14:45:34.435Z</time></trkpt><trkpt lat="45.0281283" lon="7.9446833"><ele>290.0</ele><time>2026-04-11T14:45:36.435Z</time></trkpt><trkpt lat="45.0282467" lon="7.9446683"><ele>290.0</ele><time>2026-04-11T14:45:38.435Z</time></trkpt><trkpt lat="45.0283533" lon="7.9446683"><ele>290.2</ele><time>2026-04-11T14:45:40.436Z</time></trkpt><trkpt lat="45.02846" lon="7.944655"><ele>290.4</ele><time>2026-04-11T14:45:42.435Z</time></trkpt><trkpt lat="45.0285517" lon="7.94465"><ele>290.6</ele><time>2026-04-11T14:45:44.435Z</time></trkpt><trkpt lat="45.0286383" lon="7.9446483"><ele>290.8</ele><time>2026-04-11T14:45:46.435Z</time></trkpt><trkpt lat="45.02872" lon="7.944635"><ele>291.0</ele><time>2026-04-11T14:45:48.435Z</time></trkpt><trkpt lat="45.0288033" lon="7.9446167"><ele>291.0</ele><time>2026-04-11T14:45:50.435Z</time></trkpt><trkpt lat="45.028895" lon="7.944585"><ele>291.0</ele><time>2026-04-11T14:45:52.436Z</time></trkpt><trkpt lat="45.02899" lon="7.9445533"><ele>291.0</ele><time>2026-04-11T14:45:54.435Z</time></trkpt><trkpt lat="45.0290833" lon="7.9445283"><ele>291.0</ele><time>2026-04-11T14:45:56.435Z</time></trkpt><trkpt lat="45.029175" lon="7.9445117"><ele>291.0</ele><time>2026-04-11T14:45:58.435Z</time></trkpt><trkpt lat="45.0292733" lon="7.9444967"><ele>291.40000000000003</ele><time>2026-04-11T14:46:00.435Z</time></trkpt><trkpt lat="45.0293733" lon="7.944475"><ele>291.8</ele><time>2026-04-11T14:46:02.435Z</time></trkpt><trkpt lat="45.0294783" lon="7.9444617"><ele>292.20000000000005</ele><time>2026-04-11T14:46:04.435Z</time></trkpt><trkpt lat="45.0295783" lon="7.94446"><ele>292.6</ele><time>2026-04-11T14:46:06.435Z</time></trkpt><trkpt lat="45.0296717" lon="7.9444533"><ele>293.0</ele><time>2026-04-11T14:46:08.435Z</time></trkpt><trkpt lat="45.0297617" lon="7.9444517"><ele>293.0</ele><time>2026-04-11T14:46:10.436Z</time></trkpt><trkpt lat="45.0298583" lon="7.9444533"><ele>293.0</ele><time>2026-04-11T14:46:12.435Z</time></trkpt><trkpt lat="45.0299567" lon="7.9444583"><ele>293.0</ele><time>2026-04-11T14:46:14.435Z</time></trkpt><trkpt lat="45.030055" lon="7.9444733"><ele>293.0</ele><time>2026-04-11T14:46:16.435Z</time></trkpt><trkpt lat="45.0301467" lon="7.944495"><ele>293.0</ele><time>2026-04-11T14:46:18.435Z</time></trkpt><trkpt lat="45.0302417" lon="7.944515"><ele>294.1666666666667</ele><time>2026-04-11T14:46:20.435Z</time></trkpt><trkpt lat="45.0303267" lon="7.9445317"><ele>295.33333333333337</ele><time>2026-04-11T14:46:22.435Z</time></trkpt><trkpt lat="45.0304033" lon="7.944555"><ele>296.5</ele><time>2026-04-11T14:46:24.435Z</time></trkpt><trkpt lat="45.0304917" lon="7.9445717"><ele>297.6666666666667</ele><time>2026-04-11T14:46:26.435Z</time></trkpt><trkpt lat="45.03057" lon="7.9445833"><ele>298.8333333333333</ele><time>2026-04-11T14:46:28.435Z</time></trkpt><trkpt lat="45.0306533" lon="7.9445917"><ele>300.0</ele><time>2026-04-11T14:46:30.435Z</time></trkpt><trkpt lat="45.0307317" lon="7.9445867"><ele>301.0</ele><time>2026-04-11T14:46:32.435Z</time></trkpt><trkpt lat="45.030815" lon="7.9445933"><ele>302.0</ele><time>2026-04-11T14:46:34.435Z</time></trkpt><trkpt lat="45.0308983" lon="7.9446"><ele>303.0</ele><time>2026-04-11T14:46:36.435Z</time></trkpt><trkpt lat="45.0309817" lon="7.9446167"><ele>304.0</ele><time>2026-04-11T14:46:38.435Z</time></trkpt><trkpt lat="45.0310633" lon="7.944645"><ele>305.0</ele><time>2026-04-11T14:46:40.435Z</time></trkpt><trkpt lat="45.0311367" lon="7.9446667"><ele>306.0</ele><time>2026-04-11T14:46:42.435Z</time></trkpt><trkpt lat="45.0312133" lon="7.944685"><ele>306.0</ele><time>2026-04-11T14:46:44.435Z</time></trkpt><trkpt lat="45.031285" lon="7.9447033"><ele>306.0</ele><time>2026-04-11T14:46:46.435Z</time></trkpt><trkpt lat="45.0313583" lon="7.94472"><ele>306.0</ele><time>2026-04-11T14:46:48.435Z</time></trkpt><trkpt lat="45.0314317" lon="7.94474"><ele>306.0</ele><time>2026-04-11T14:46:50.435Z</time></trkpt><trkpt lat="45.031505" lon="7.944755"><ele>306.0</ele><time>2026-04-11T14:46:52.435Z</time></trkpt><trkpt lat="45.0315767" lon="7.9447733"><ele>306.0</ele><time>2026-04-11T14:46:54.435Z</time></trkpt><trkpt lat="45.0316467" lon="7.9447933"><ele>306.0</ele><time>2026-04-11T14:46:56.435Z</time></trkpt><trkpt lat="45.0317183" lon="7.9448267"><ele>306.8</ele><time>2026-04-11T14:46:58.435Z</time></trkpt><trkpt lat="45.0318067" lon="7.9448617"><ele>307.6</ele><time>2026-04-11T14:47:00.435Z</time></trkpt><trkpt lat="45.0318983" lon="7.9449033"><ele>308.4</ele><time>2026-04-11T14:47:02.435Z</time></trkpt><trkpt lat="45.031995" lon="7.94494"><ele>309.2</ele><time>2026-04-11T14:47:04.435Z</time></trkpt><trkpt lat="45.0321" lon="7.9449617"><ele>310.0</ele><time>2026-04-11T14:47:06.435Z</time></trkpt><trkpt lat="45.0322017" lon="7.9449667"><ele>310.0</ele><time>2026-04-11T14:47:08.436Z</time></trkpt><trkpt lat="45.0323017" lon="7.944975"><ele>310.0</ele><time>2026-04-11T14:47:10.435Z</time></trkpt><trkpt lat="45.0324017" lon="7.9449917"><ele>310.0</ele><time>2026-04-11T14:47:12.435Z</time></trkpt><trkpt lat="45.0324967" lon="7.94501"><ele>310.0</ele><time>2026-04-11T14:47:14.435Z</time></trkpt><trkpt lat="45.0325967" lon="7.9450367"><ele>310.0</ele><time>2026-04-11T14:47:16.436Z</time></trkpt><trkpt lat="45.032695" lon="7.9450633"><ele>310.4</ele><time>2026-04-11T14:47:18.435Z</time></trkpt><trkpt lat="45.0327817" lon="7.9450967"><ele>310.8</ele><time>2026-04-11T14:47:20.435Z</time></trkpt><trkpt lat="45.0328667" lon="7.9451267"><ele>311.2</ele><time>2026-04-11T14:47:22.436Z</time></trkpt><trkpt lat="45.0329517" lon="7.94517"><ele>311.6</ele><time>2026-04-11T14:47:24.435Z</time></trkpt><trkpt lat="45.03302" lon="7.9452367"><ele>312.0</ele><time>2026-04-11T14:47:26.435Z</time></trkpt><trkpt lat="45.0331" lon="7.9453233"><ele>312.0</ele><time>2026-04-11T14:47:28.435Z</time></trkpt><trkpt lat="45.0331917" lon="7.94542"><ele>312.0</ele><time>2026-04-11T14:47:30.435Z</time></trkpt><trkpt lat="45.03329" lon="7.945495"><ele>312.0</ele><time>2026-04-11T14:47:32.435Z</time></trkpt><trkpt lat="45.0334" lon="7.9455517"><ele>312.0</ele><time>2026-04-11T14:47:34.435Z</time></trkpt><trkpt lat="45.0335167" lon="7.9455683"><ele>311.75</ele><time>2026-04-11T14:47:36.435Z</time></trkpt><trkpt lat="45.033635" lon="7.9455683"><ele>311.5</ele><time>2026-04-11T14:47:38.435Z</time></trkpt><trkpt lat="45.0337567" lon="7.9455533"><ele>311.25</ele><time>2026-04-11T14:47:40.435Z</time></trkpt><trkpt lat="45.0338667" lon="7.945535"><ele>311.0</ele><time>2026-04-11T14:47:42.435Z</time></trkpt><trkpt lat="45.03397" lon="7.945515"><ele>311.0</ele><time>2026-04-11T14:47:44.435Z</time></trkpt><trkpt lat="45.03408" lon="7.9454917"><ele>311.0</ele><time>2026-04-11T14:47:46.435Z</time></trkpt><trkpt lat="45.0341867" lon="7.9454667"><ele>311.0</ele><time>2026-04-11T14:47:48.435Z</time></trkpt><trkpt lat="45.034295" lon="7.94545"><ele>311.0</ele><time>2026-04-11T14:47:50.435Z</time></trkpt><trkpt lat="45.0344033" lon="7.94543"><ele>311.0</ele><time>2026-04-11T14:47:52.435Z</time></trkpt><trkpt lat="45.0345183" lon="7.9454133"><ele>310.8</ele><time>2026-04-11T14:47:54.435Z</time></trkpt><trkpt lat="45.0346267" lon="7.9454033"><ele>310.6</ele><time>2026-04-11T14:47:56.435Z</time></trkpt><trkpt lat="45.034725" lon="7.9453917"><ele>310.4</ele><time>2026-04-11T14:47:58.435Z</time></trkpt><trkpt lat="45.0348183" lon="7.945375"><ele>310.2</ele><time>2026-04-11T14:48:00.435Z</time></trkpt><trkpt lat="45.0349183" lon="7.945355"><ele>310.0</ele><time>2026-04-11T14:48:02.435Z</time></trkpt><trkpt lat="45.0350417" lon="7.9453383"><ele>310.0</ele><time>2026-04-11T14:48:04.435Z</time></trkpt><trkpt lat="45.0351067" lon="7.9453367"><ele>310.0</ele><time>2026-04-11T14:48:05.435Z</time></trkpt><trkpt lat="45.0351733" lon="7.945345"><ele>310.0</ele><time>2026-04-11T14:48:06.435Z</time></trkpt><trkpt lat="45.0352433" lon="7.9453767"><ele>310.0</ele><time>2026-04-11T14:48:07.435Z</time></trkpt><trkpt lat="45.0353183" lon="7.9454167"><ele>310.0</ele><time>2026-04-11T14:48:08.435Z</time></trkpt><trkpt lat="45.035375" lon="7.9454733"><ele>310.0</ele><time>2026-04-11T14:48:09.435Z</time></trkpt><trkpt lat="45.03544" lon="7.9455433"><ele>310.0</ele><time>2026-04-11T14:48:10.435Z</time></trkpt><trkpt lat="45.0355083" lon="7.9456133"><ele>310.0</ele><time>2026-04-11T14:48:11.435Z</time></trkpt><trkpt lat="45.035575" lon="7.9456833"><ele>310.0</ele><time>2026-04-11T14:48:12.435Z</time></trkpt><trkpt lat="45.03564" lon="7.9457483"><ele>310.0</ele><time>2026-04-11T14:48:13.435Z</time></trkpt><trkpt lat="45.0357033" lon="7.9458133"><ele>310.0</ele><time>2026-04-11T14:48:14.435Z</time></trkpt><trkpt lat="45.0357617" lon="7.9458817"><ele>310.0</ele><time>2026-04-11T14:48:15.435Z</time></trkpt><trkpt lat="45.0358117" lon="7.9459567"><ele>310.0</ele><time>2026-04-11T14:48:16.435Z</time></trkpt><trkpt lat="45.0358617" lon="7.9460233"><ele>309.8571428571429</ele><time>2026-04-11T14:48:17.435Z</time></trkpt><trkpt lat="45.03591" lon="7.946095"><ele>309.7142857142857</ele><time>2026-04-11T14:48:18.435Z</time></trkpt><trkpt lat="45.0359633" lon="7.94617"><ele>309.57142857142856</ele><time>2026-04-11T14:48:19.436Z</time></trkpt><trkpt lat="45.0360133" lon="7.9462433"><ele>309.42857142857144</ele><time>2026-04-11T14:48:20.435Z</time></trkpt><trkpt lat="45.03607" lon="7.9463133"><ele>309.2857142857143</ele><time>2026-04-11T14:48:21.435Z</time></trkpt><trkpt lat="45.0361233" lon="7.9463717"><ele>309.14285714285717</ele><time>2026-04-11T14:48:22.435Z</time></trkpt><trkpt lat="45.0361783" lon="7.9464333"><ele>309.0</ele><time>2026-04-11T14:48:23.435Z</time></trkpt><trkpt lat="45.0362283" lon="7.9464933"><ele>309.0</ele><time>2026-04-11T14:48:24.435Z</time></trkpt><trkpt lat="45.036285" lon="7.9465433"><ele>309.0</ele><time>2026-04-11T14:48:25.435Z</time></trkpt><trkpt lat="45.0363883" lon="7.9466467"><ele>309.0</ele><time>2026-04-11T14:48:27.435Z</time></trkpt><trkpt lat="45.0364833" lon="7.9467483"><ele>309.0</ele><time>2026-04-11T14:48:29.435Z</time></trkpt><trkpt lat="45.0365917" lon="7.946815"><ele>309.0</ele><time>2026-04-11T14:48:31.435Z</time></trkpt><trkpt lat="45.0367083" lon="7.9468383"><ele>309.0</ele><time>2026-04-11T14:48:33.435Z</time></trkpt><trkpt lat="45.0368217" lon="7.94684"><ele>309.0</ele><time>2026-04-11T14:48:35.435Z</time></trkpt><trkpt lat="45.0369333" lon="7.946845"><ele>309.0</ele><time>2026-04-11T14:48:37.435Z</time></trkpt><trkpt lat="45.037045" lon="7.9468483"><ele>309.0</ele><time>2026-04-11T14:48:39.435Z</time></trkpt><trkpt lat="45.037155" lon="7.9468633"><ele>309.0</ele><time>2026-04-11T14:48:41.435Z</time></trkpt><trkpt lat="45.0372633" lon="7.9468633"><ele>309.0</ele><time>2026-04-11T14:48:43.435Z</time></trkpt><trkpt lat="45.037375" lon="7.9468483"><ele>309.0</ele><time>2026-04-11T14:48:45.435Z</time></trkpt><trkpt lat="45.0374833" lon="7.946815"><ele>309.0</ele><time>2026-04-11T14:48:47.435Z</time></trkpt><trkpt lat="45.0375833" lon="7.94676"><ele>309.0</ele><time>2026-04-11T14:48:49.435Z</time></trkpt><trkpt lat="45.0376833" lon="7.9467067"><ele>309.0</ele><time>2026-04-11T14:48:51.435Z</time></trkpt><trkpt lat="45.03777" lon="7.9466483"><ele>310.5</ele><time>2026-04-11T14:48:53.435Z</time></trkpt><trkpt lat="45.03783" lon="7.9465667"><ele>312.0</ele><time>2026-04-11T14:48:55.435Z</time></trkpt><trkpt lat="45.03786" lon="7.94647"><ele>313.5</ele><time>2026-04-11T14:48:57.435Z</time></trkpt><trkpt lat="45.0378883" lon="7.94634"><ele>315.0</ele><time>2026-04-11T14:48:59.435Z</time></trkpt><trkpt lat="45.0379067" lon="7.9461933"><ele>316.5</ele><time>2026-04-11T14:49:01.435Z</time></trkpt><trkpt lat="45.0379117" lon="7.9460683"><ele>318.0</ele><time>2026-04-11T14:49:03.436Z</time></trkpt><trkpt lat="45.0379317" lon="7.9459833"><ele>318.0</ele><time>2026-04-11T14:49:05.435Z</time></trkpt><trkpt lat="45.038005" lon="7.9459517"><ele>318.0</ele><time>2026-04-11T14:49:10.435Z</time></trkpt><trkpt lat="45.0380983" lon="7.94596"><ele>318.0</ele><time>2026-04-11T14:49:13.435Z</time></trkpt><trkpt lat="45.038195" lon="7.9459817"><ele>318.0</ele><time>2026-04-11T14:49:16.435Z</time></trkpt><trkpt lat="45.0382567" lon="7.9460083"><ele>318.0</ele><time>2026-04-11T14:49:18.435Z</time></trkpt><trkpt lat="45.0383183" lon="7.9459717"><ele>318.0</ele><time>2026-04-11T14:49:20.435Z</time></trkpt><trkpt lat="45.0383533" lon="7.945895"><ele>319.8333333333333</ele><time>2026-04-11T14:49:22.435Z</time></trkpt><trkpt lat="45.0384067" lon="7.945775"><ele>321.6666666666667</ele><time>2026-04-11T14:49:24.435Z</time></trkpt><trkpt lat="45.0384517" lon="7.9456783"><ele>323.5</ele><time>2026-04-11T14:49:26.435Z</time></trkpt><trkpt lat="45.03851" lon="7.94564"><ele>325.33333333333337</ele><time>2026-04-11T14:49:28.435Z</time></trkpt><trkpt lat="45.0385867" lon="7.9455967"><ele>327.1666666666667</ele><time>2026-04-11T14:49:30.435Z</time></trkpt><trkpt lat="45.038665" lon="7.9455333"><ele>329.0</ele><time>2026-04-11T14:49:32.435Z</time></trkpt><trkpt lat="45.0387583" lon="7.9455383"><ele>329.0</ele><time>2026-04-11T14:49:34.436Z</time></trkpt><trkpt lat="45.0388817" lon="7.9455933"><ele>329.0</ele><time>2026-04-11T14:49:36.435Z</time></trkpt><trkpt lat="45.0389383" lon="7.9456383"><ele>329.0</ele><time>2026-04-11T14:49:37.435Z</time></trkpt><trkpt lat="45.0390233" lon="7.945735"><ele>329.0</ele><time>2026-04-11T14:49:39.435Z</time></trkpt><trkpt lat="45.0391133" lon="7.9457517"><ele>329.0</ele><time>2026-04-11T14:49:41.435Z</time></trkpt><trkpt lat="45.039185" lon="7.945685"><ele>328.0</ele><time>2026-04-11T14:49:43.435Z</time></trkpt><trkpt lat="45.039215" lon="7.9455883"><ele>327.0</ele><time>2026-04-11T14:49:45.436Z</time></trkpt><trkpt lat="45.039225" lon="7.9454633"><ele>326.0</ele><time>2026-04-11T14:49:47.435Z</time></trkpt><trkpt lat="45.0392317" lon="7.9453117"><ele>325.0</ele><time>2026-04-11T14:49:49.436Z</time></trkpt><trkpt lat="45.0392667" lon="7.9451817"><ele>324.0</ele><time>2026-04-11T14:49:51.435Z</time></trkpt><trkpt lat="45.039285" lon="7.9450167"><ele>323.7142857142857</ele><time>2026-04-11T14:49:53.435Z</time></trkpt><trkpt lat="45.0392917" lon="7.9449233"><ele>323.42857142857144</ele><time>2026-04-11T14:49:54.435Z</time></trkpt><trkpt lat="45.0392983" lon="7.9448283"><ele>323.1428571428571</ele><time>2026-04-11T14:49:55.435Z</time></trkpt><trkpt lat="45.0393" lon="7.9447283"><ele>322.8571428571429</ele><time>2026-04-11T14:49:56.435Z</time></trkpt><trkpt lat="45.0393017" lon="7.9446317"><ele>322.57142857142856</ele><time>2026-04-11T14:49:57.435Z</time></trkpt><trkpt lat="45.0393067" lon="7.9445417"><ele>322.2857142857143</ele><time>2026-04-11T14:49:58.435Z</time></trkpt><trkpt lat="45.03931" lon="7.944385"><ele>322.0</ele><time>2026-04-11T14:50:00.435Z</time></trkpt><trkpt lat="45.0393083" lon="7.9442617"><ele>322.0</ele><time>2026-04-11T14:50:02.435Z</time></trkpt><trkpt lat="45.0393467" lon="7.9441817"><ele>322.0</ele><time>2026-04-11T14:50:05.435Z</time></trkpt><trkpt lat="45.0394133" lon="7.9442317"><ele>322.0</ele><time>2026-04-11T14:50:07.435Z</time></trkpt><trkpt lat="45.039495" lon="7.944275"><ele>322.0</ele><time>2026-04-11T14:50:09.435Z</time></trkpt><trkpt lat="45.03961" lon="7.9443533"><ele>322.0</ele><time>2026-04-11T14:50:11.435Z</time></trkpt><trkpt lat="45.0396667" lon="7.9444067"><ele>322.0</ele><time>2026-04-11T14:50:12.435Z</time></trkpt><trkpt lat="45.0397283" lon="7.944465"><ele>322.0</ele><time>2026-04-11T14:50:13.435Z</time></trkpt><trkpt lat="45.0397967" lon="7.944535"><ele>322.0</ele><time>2026-04-11T14:50:14.435Z</time></trkpt><trkpt lat="45.0398583" lon="7.9446133"><ele>322.0</ele><time>2026-04-11T14:50:15.435Z</time></trkpt><trkpt lat="45.0399017" lon="7.94472"><ele>322.0</ele><time>2026-04-11T14:50:16.435Z</time></trkpt><trkpt lat="45.0399333" lon="7.9448433"><ele>322.0</ele><time>2026-04-11T14:50:17.435Z</time></trkpt><trkpt lat="45.039945" lon="7.94498"><ele>322.0</ele><time>2026-04-11T14:50:18.435Z</time></trkpt><trkpt lat="45.0399367" lon="7.94513"><ele>322.40000000000003</ele><time>2026-04-11T14:50:19.435Z</time></trkpt><trkpt lat="45.039925" lon="7.9452867"><ele>322.8</ele><time>2026-04-11T14:50:20.435Z</time></trkpt><trkpt lat="45.0399133" lon="7.945435"><ele>323.2</ele><time>2026-04-11T14:50:21.435Z</time></trkpt><trkpt lat="45.0399117" lon="7.945585"><ele>323.6</ele><time>2026-04-11T14:50:22.435Z</time></trkpt><trkpt lat="45.03993" lon="7.9457383"><ele>324.0</ele><time>2026-04-11T14:50:23.435Z</time></trkpt><trkpt lat="45.0399633" lon="7.9458833"><ele>321.4</ele><time>2026-04-11T14:50:24.435Z</time></trkpt><trkpt lat="45.03998" lon="7.946025"><ele>318.79999999999995</ele><time>2026-04-11T14:50:25.435Z</time></trkpt><trkpt lat="45.03998" lon="7.946165"><ele>316.20000000000005</ele><time>2026-04-11T14:50:26.435Z</time></trkpt><trkpt lat="45.039945" lon="7.9462883"><ele>313.6</ele><time>2026-04-11T14:50:27.435Z</time></trkpt><trkpt lat="45.039875" lon="7.94639"><ele>311.0</ele><time>2026-04-11T14:50:28.435Z</time></trkpt><trkpt lat="45.0397833" lon="7.94645"><ele>311.0</ele><time>2026-04-11T14:50:29.435Z</time></trkpt><trkpt lat="45.0396767" lon="7.9464733"><ele>311.0</ele><time>2026-04-11T14:50:30.435Z</time></trkpt><trkpt lat="45.0395633" lon="7.946495"><ele>311.0</ele><time>2026-04-11T14:50:31.435Z</time></trkpt><trkpt lat="45.03946" lon="7.94655"><ele>311.0</ele><time>2026-04-11T14:50:32.435Z</time></trkpt><trkpt lat="45.0393767" lon="7.946645"><ele>311.0</ele><time>2026-04-11T14:50:33.435Z</time></trkpt><trkpt lat="45.0393233" lon="7.9467733"><ele>307.6</ele><time>2026-04-11T14:50:34.435Z</time></trkpt><trkpt lat="45.0392833" lon="7.9469067"><ele>304.20000000000005</ele><time>2026-04-11T14:50:35.436Z</time></trkpt><trkpt lat="45.0392633" lon="7.9470533"><ele>300.79999999999995</ele><time>2026-04-11T14:50:36.435Z</time></trkpt><trkpt lat="45.0392517" lon="7.9472"><ele>297.4</ele><time>2026-04-11T14:50:37.435Z</time></trkpt><trkpt lat="45.0392483" lon="7.9473433"><ele>294.0</ele><time>2026-04-11T14:50:38.436Z</time></trkpt><trkpt lat="45.039235" lon="7.9474883"><ele>290.0</ele><time>2026-04-11T14:50:39.435Z</time></trkpt><trkpt lat="45.0392167" lon="7.94764"><ele>286.0</ele><time>2026-04-11T14:50:40.435Z</time></trkpt><trkpt lat="45.0391817" lon="7.9478"><ele>282.0</ele><time>2026-04-11T14:50:41.435Z</time></trkpt><trkpt lat="45.0391417" lon="7.9479483"><ele>278.0</ele><time>2026-04-11T14:50:42.435Z</time></trkpt><trkpt lat="45.0391033" lon="7.9481"><ele>277.75</ele><time>2026-04-11T14:50:43.435Z</time></trkpt><trkpt lat="45.0390867" lon="7.9482633"><ele>277.5</ele><time>2026-04-11T14:50:44.435Z</time></trkpt><trkpt lat="45.0390967" lon="7.9484317"><ele>277.25</ele><time>2026-04-11T14:50:45.435Z</time></trkpt><trkpt lat="45.03912" lon="7.9486067"><ele>277.0</ele><time>2026-04-11T14:50:46.435Z</time></trkpt><trkpt lat="45.03915" lon="7.9487783"><ele>275.0</ele><time>2026-04-11T14:50:47.435Z</time></trkpt><trkpt lat="45.03918" lon="7.948955"><ele>273.0</ele><time>2026-04-11T14:50:48.435Z</time></trkpt><trkpt lat="45.0392117" lon="7.9491333"><ele>271.0</ele><time>2026-04-11T14:50:49.435Z</time></trkpt><trkpt lat="45.0392367" lon="7.9493183"><ele>269.0</ele><time>2026-04-11T14:50:50.435Z</time></trkpt><trkpt lat="45.0392667" lon="7.9494967"><ele>268.25</ele><time>2026-04-11T14:50:51.435Z</time></trkpt><trkpt lat="45.0392883" lon="7.9496867"><ele>267.5</ele><time>2026-04-11T14:50:52.435Z</time></trkpt><trkpt lat="45.0393" lon="7.9498883"><ele>266.75</ele><time>2026-04-11T14:50:53.435Z</time></trkpt><trkpt lat="45.0393017" lon="7.9500783"><ele>266.0</ele><time>2026-04-11T14:50:54.435Z</time></trkpt><trkpt lat="45.039275" lon="7.9502733"><ele>265.6666666666667</ele><time>2026-04-11T14:50:55.435Z</time></trkpt><trkpt lat="45.03922" lon="7.9504717"><ele>265.3333333333333</ele><time>2026-04-11T14:50:56.435Z</time></trkpt><trkpt lat="45.0391467" lon="7.950665"><ele>265.0</ele><time>2026-04-11T14:50:57.435Z</time></trkpt><trkpt lat="45.0390617" lon="7.9508517"><ele>261.3333333333333</ele><time>2026-04-11T14:50:58.435Z</time></trkpt><trkpt lat="45.03898" lon="7.9510317"><ele>257.6666666666667</ele><time>2026-04-11T14:50:59.435Z</time></trkpt><trkpt lat="45.038905" lon="7.9512133"><ele>254.0</ele><time>2026-04-11T14:51:00.435Z</time></trkpt><trkpt lat="45.0388217" lon="7.9514"><ele>254.0</ele><time>2026-04-11T14:51:01.436Z</time></trkpt><trkpt lat="45.03874" lon="7.9515833"><ele>254.0</ele><time>2026-04-11T14:51:02.435Z</time></trkpt><trkpt lat="45.0386633" lon="7.951775"><ele>254.0</ele><time>2026-04-11T14:51:03.435Z</time></trkpt><trkpt lat="45.038605" lon="7.9519767"><ele>252.0</ele><time>2026-04-11T14:51:04.435Z</time></trkpt><trkpt lat="45.0385633" lon="7.95218"><ele>250.0</ele><time>2026-04-11T14:51:05.435Z</time></trkpt><trkpt lat="45.03855" lon="7.9523933"><ele>248.0</ele><time>2026-04-11T14:51:06.435Z</time></trkpt><trkpt lat="45.0385517" lon="7.9526067"><ele>247.0</ele><time>2026-04-11T14:51:07.436Z</time></trkpt><trkpt lat="45.0385783" lon="7.95281"><ele>246.0</ele><time>2026-04-11T14:51:08.436Z</time></trkpt><trkpt lat="45.038625" lon="7.9530083"><ele>245.0</ele><time>2026-04-11T14:51:09.436Z</time></trkpt><trkpt lat="45.0386817" lon="7.9532017"><ele>244.0</ele><time>2026-04-11T14:51:10.435Z</time></trkpt><trkpt lat="45.0387333" lon="7.953385"><ele>243.75</ele><time>2026-04-11T14:51:11.435Z</time></trkpt><trkpt lat="45.0387817" lon="7.9535717"><ele>243.5</ele><time>2026-04-11T14:51:12.436Z</time></trkpt><trkpt lat="45.0388233" lon="7.9537467"><ele>243.25</ele><time>2026-04-11T14:51:13.435Z</time></trkpt><trkpt lat="45.0388567" lon="7.9539"><ele>243.0</ele><time>2026-04-11T14:51:14.435Z</time></trkpt><trkpt lat="45.038885" lon="7.9540267"><ele>243.0</ele><time>2026-04-11T14:51:15.434Z</time></trkpt><trkpt lat="45.0389067" lon="7.95413"><ele>243.0</ele><time>2026-04-11T14:51:16.434Z</time></trkpt><trkpt lat="45.038915" lon="7.9542667"><ele>243.0</ele><time>2026-04-11T14:51:18.434Z</time></trkpt><trkpt lat="45.0388783" lon="7.954345"><ele>243.0</ele><time>2026-04-11T14:51:20.434Z</time></trkpt><trkpt lat="45.038775" lon="7.9544633"><ele>243.0</ele><time>2026-04-11T14:51:22.434Z</time></trkpt><trkpt lat="45.0387117" lon="7.9545433"><ele>242.83333333333334</ele><time>2026-04-11T14:51:23.434Z</time></trkpt><trkpt lat="45.0386583" lon="7.954635"><ele>242.66666666666669</ele><time>2026-04-11T14:51:24.434Z</time></trkpt><trkpt lat="45.0386117" lon="7.9547167"><ele>242.5</ele><time>2026-04-11T14:51:25.434Z</time></trkpt><trkpt lat="45.038545" lon="7.9548"><ele>242.33333333333334</ele><time>2026-04-11T14:51:26.434Z</time></trkpt><trkpt lat="45.0384767" lon="7.9548817"><ele>242.16666666666669</ele><time>2026-04-11T14:51:27.434Z</time></trkpt><trkpt lat="45.038405" lon="7.95497"><ele>242.0</ele><time>2026-04-11T14:51:28.434Z</time></trkpt><trkpt lat="45.0383333" lon="7.9550583"><ele>242.0</ele><time>2026-04-11T14:51:29.434Z</time></trkpt><trkpt lat="45.038265" lon="7.9551517"><ele>242.0</ele><time>2026-04-11T14:51:30.434Z</time></trkpt><trkpt lat="45.0381967" lon="7.955245"><ele>242.0</ele><time>2026-04-11T14:51:31.434Z</time></trkpt><trkpt lat="45.0381333" lon="7.9553467"><ele>242.0</ele><time>2026-04-11T14:51:32.434Z</time></trkpt><trkpt lat="45.03807" lon="7.95545"><ele>242.0</ele><time>2026-04-11T14:51:33.434Z</time></trkpt><trkpt lat="45.038015" lon="7.9555517"><ele>242.00000000000003</ele><time>2026-04-11T14:51:34.434Z</time></trkpt><trkpt lat="45.0379683" lon="7.95566"><ele>242.0</ele><time>2026-04-11T14:51:35.434Z</time></trkpt><trkpt lat="45.0379217" lon="7.95576"><ele>242.0</ele><time>2026-04-11T14:51:36.434Z</time></trkpt><trkpt lat="45.0378833" lon="7.9558633"><ele>242.0</ele><time>2026-04-11T14:51:37.434Z</time></trkpt><trkpt lat="45.03785" lon="7.9559633"><ele>242.00000000000003</ele><time>2026-04-11T14:51:38.434Z</time></trkpt><trkpt lat="45.0378183" lon="7.9560717"><ele>242.0</ele><time>2026-04-11T14:51:39.434Z</time></trkpt><trkpt lat="45.0377783" lon="7.9561833"><ele>242.33333333333334</ele><time>2026-04-11T14:51:40.434Z</time></trkpt><trkpt lat="45.0377467" lon="7.956295"><ele>242.66666666666669</ele><time>2026-04-11T14:51:41.434Z</time></trkpt><trkpt lat="45.0377067" lon="7.9564033"><ele>243.0</ele><time>2026-04-11T14:51:42.434Z</time></trkpt><trkpt lat="45.0376683" lon="7.9565"><ele>243.33333333333331</ele><time>2026-04-11T14:51:43.434Z</time></trkpt><trkpt lat="45.0376117" lon="7.9565833"><ele>243.66666666666666</ele><time>2026-04-11T14:51:44.434Z</time></trkpt><trkpt lat="45.03755" lon="7.9566517"><ele>244.0</ele><time>2026-04-11T14:51:45.434Z</time></trkpt><trkpt lat="45.0374867" lon="7.9567167"><ele>244.16666666666666</ele><time>2026-04-11T14:51:46.434Z</time></trkpt><trkpt lat="45.037425" lon="7.956775"><ele>244.33333333333331</ele><time>2026-04-11T14:51:47.434Z</time></trkpt><trkpt lat="45.0373567" lon="7.9568333"><ele>244.5</ele><time>2026-04-11T14:51:48.435Z</time></trkpt><trkpt lat="45.037285" lon="7.9568867"><ele>244.66666666666669</ele><time>2026-04-11T14:51:49.434Z</time></trkpt><trkpt lat="45.0372133" lon="7.956945"><ele>244.83333333333334</ele><time>2026-04-11T14:51:50.434Z</time></trkpt><trkpt lat="45.03714" lon="7.9569933"><ele>245.0</ele><time>2026-04-11T14:51:51.434Z</time></trkpt><trkpt lat="45.03707" lon="7.9570367"><ele>245.0</ele><time>2026-04-11T14:51:52.434Z</time></trkpt><trkpt lat="45.0370067" lon="7.9570867"><ele>245.0</ele><time>2026-04-11T14:51:53.434Z</time></trkpt><trkpt lat="45.0369467" lon="7.95714"><ele>245.0</ele><time>2026-04-11T14:51:54.434Z</time></trkpt><trkpt lat="45.0368817" lon="7.9571933"><ele>245.0</ele><time>2026-04-11T14:51:55.434Z</time></trkpt><trkpt lat="45.0368167" lon="7.9572417"><ele>245.0</ele><time>2026-04-11T14:51:56.434Z</time></trkpt><trkpt lat="45.0367467" lon="7.9572883"><ele>245.0</ele><time>2026-04-11T14:51:57.434Z</time></trkpt><trkpt lat="45.036675" lon="7.9573333"><ele>245.0</ele><time>2026-04-11T14:51:58.434Z</time></trkpt><trkpt lat="45.0366017" lon="7.9573833"><ele>244.33333333333334</ele><time>2026-04-11T14:51:59.434Z</time></trkpt><trkpt lat="45.0365283" lon="7.9574317"><ele>243.66666666666669</ele><time>2026-04-11T14:52:00.434Z</time></trkpt><trkpt lat="45.0364533" lon="7.95748"><ele>243.0</ele><time>2026-04-11T14:52:01.434Z</time></trkpt><trkpt lat="45.0363767" lon="7.95752"><ele>242.33333333333331</ele><time>2026-04-11T14:52:02.434Z</time></trkpt><trkpt lat="45.0363" lon="7.95756"><ele>241.66666666666666</ele><time>2026-04-11T14:52:03.434Z</time></trkpt><trkpt lat="45.0362283" lon="7.9576083"><ele>241.0</ele><time>2026-04-11T14:52:04.434Z</time></trkpt><trkpt lat="45.0361583" lon="7.9576533"><ele>241.16666666666666</ele><time>2026-04-11T14:52:05.434Z</time></trkpt><trkpt lat="45.0360883" lon="7.9577"><ele>241.33333333333331</ele><time>2026-04-11T14:52:06.434Z</time></trkpt><trkpt lat="45.0360217" lon="7.9577533"><ele>241.5</ele><time>2026-04-11T14:52:07.434Z</time></trkpt><trkpt lat="45.0359533" lon="7.957815"><ele>241.66666666666669</ele><time>2026-04-11T14:52:08.434Z</time></trkpt><trkpt lat="45.0358883" lon="7.9578767"><ele>241.83333333333334</ele><time>2026-04-11T14:52:09.434Z</time></trkpt><trkpt lat="45.0358267" lon="7.957935"><ele>242.0</ele><time>2026-04-11T14:52:10.434Z</time></trkpt><trkpt lat="45.0357617" lon="7.9579933"><ele>242.00000000000003</ele><time>2026-04-11T14:52:11.434Z</time></trkpt><trkpt lat="45.0356983" lon="7.95806"><ele>242.0</ele><time>2026-04-11T14:52:12.434Z</time></trkpt><trkpt lat="45.0356333" lon="7.9581117"><ele>242.0</ele><time>2026-04-11T14:52:13.434Z</time></trkpt><trkpt lat="45.0355567" lon="7.958155"><ele>242.0</ele><time>2026-04-11T14:52:14.434Z</time></trkpt><trkpt lat="45.03549" lon="7.9581983"><ele>242.00000000000003</ele><time>2026-04-11T14:52:15.434Z</time></trkpt><trkpt lat="45.03542" lon="7.95825"><ele>242.0</ele><time>2026-04-11T14:52:16.434Z</time></trkpt><trkpt lat="45.0353633" lon="7.95832"><ele>241.83333333333334</ele><time>2026-04-11T14:52:17.434Z</time></trkpt><trkpt lat="45.0353133" lon="7.9584033"><ele>241.66666666666669</ele><time>2026-04-11T14:52:18.434Z</time></trkpt><trkpt lat="45.0352683" lon="7.9585067"><ele>241.5</ele><time>2026-04-11T14:52:19.434Z</time></trkpt><trkpt lat="45.0352217" lon="7.9586083"><ele>241.33333333333331</ele><time>2026-04-11T14:52:20.434Z</time></trkpt><trkpt lat="45.0351767" lon="7.958705"><ele>241.16666666666666</ele><time>2026-04-11T14:52:21.434Z</time></trkpt><trkpt lat="45.0351283" lon="7.9588083"><ele>241.0</ele><time>2026-04-11T14:52:22.434Z</time></trkpt><trkpt lat="45.0350917" lon="7.9589017"><ele>241.0</ele><time>2026-04-11T14:52:23.434Z</time></trkpt><trkpt lat="45.0350517" lon="7.9589883"><ele>241.00000000000003</ele><time>2026-04-11T14:52:24.434Z</time></trkpt><trkpt lat="45.03501" lon="7.9590633"><ele>241.0</ele><time>2026-04-11T14:52:25.434Z</time></trkpt><trkpt lat="45.0349633" lon="7.95913"><ele>241.0</ele><time>2026-04-11T14:52:26.434Z</time></trkpt><trkpt lat="45.0349133" lon="7.9591983"><ele>241.00000000000003</ele><time>2026-04-11T14:52:27.434Z</time></trkpt><trkpt lat="45.0348617" lon="7.9592817"><ele>241.0</ele><time>2026-04-11T14:52:28.434Z</time></trkpt><trkpt lat="45.0348117" lon="7.95937"><ele>241.0</ele><time>2026-04-11T14:52:29.434Z</time></trkpt><trkpt lat="45.0347633" lon="7.9594617"><ele>240.33333333333331</ele><time>2026-04-11T14:52:30.434Z</time></trkpt><trkpt lat="45.0347233" lon="7.95956"><ele>239.66666666666666</ele><time>2026-04-11T14:52:31.434Z</time></trkpt><trkpt lat="45.03469" lon="7.9596683"><ele>239.0</ele><time>2026-04-11T14:52:32.434Z</time></trkpt><trkpt lat="45.0346583" lon="7.95977"><ele>238.33333333333331</ele><time>2026-04-11T14:52:33.434Z</time></trkpt><trkpt lat="45.03463" lon="7.959875"><ele>237.66666666666666</ele><time>2026-04-11T14:52:34.434Z</time></trkpt><trkpt lat="45.03461" lon="7.9599767"><ele>237.0</ele><time>2026-04-11T14:52:35.434Z</time></trkpt><trkpt lat="45.0346017" lon="7.9600867"><ele>236.83333333333334</ele><time>2026-04-11T14:52:36.434Z</time></trkpt><trkpt lat="45.0345967" lon="7.9601833"><ele>236.66666666666669</ele><time>2026-04-11T14:52:37.434Z</time></trkpt><trkpt lat="45.0345783" lon="7.9603667"><ele>236.5</ele><time>2026-04-11T14:52:39.434Z</time></trkpt><trkpt lat="45.0345717" lon="7.9604633"><ele>236.33333333333334</ele><time>2026-04-11T14:52:40.434Z</time></trkpt><trkpt lat="45.0345667" lon="7.9605533"><ele>236.16666666666669</ele><time>2026-04-11T14:52:41.434Z</time></trkpt><trkpt lat="45.0345783" lon="7.9606533"><ele>236.0</ele><time>2026-04-11T14:52:42.434Z</time></trkpt><trkpt lat="45.0346033" lon="7.9607533"><ele>236.00000000000003</ele><time>2026-04-11T14:52:43.434Z</time></trkpt><trkpt lat="45.0346467" lon="7.9608483"><ele>236.0</ele><time>2026-04-11T14:52:44.434Z</time></trkpt><trkpt lat="45.0346883" lon="7.9609417"><ele>236.0</ele><time>2026-04-11T14:52:45.434Z</time></trkpt><trkpt lat="45.0347333" lon="7.96103"><ele>236.0</ele><time>2026-04-11T14:52:46.434Z</time></trkpt><trkpt lat="45.0347783" lon="7.9611233"><ele>236.00000000000003</ele><time>2026-04-11T14:52:47.434Z</time></trkpt><trkpt lat="45.0348283" lon="7.9612133"><ele>236.0</ele><time>2026-04-11T14:52:48.434Z</time></trkpt><trkpt lat="45.0348817" lon="7.9613"><ele>235.85714285714283</ele><time>2026-04-11T14:52:49.434Z</time></trkpt><trkpt lat="45.0349367" lon="7.96138"><ele>235.71428571428572</ele><time>2026-04-11T14:52:50.434Z</time></trkpt><trkpt lat="45.0349817" lon="7.96146"><ele>235.57142857142856</ele><time>2026-04-11T14:52:51.434Z</time></trkpt><trkpt lat="45.035025" lon="7.9615417"><ele>235.42857142857142</ele><time>2026-04-11T14:52:52.434Z</time></trkpt><trkpt lat="45.0350683" lon="7.9616283"><ele>235.28571428571428</ele><time>2026-04-11T14:52:53.434Z</time></trkpt><trkpt lat="45.0351117" lon="7.9617033"><ele>235.14285714285714</ele><time>2026-04-11T14:52:54.434Z</time></trkpt><trkpt lat="45.0351517" lon="7.96178"><ele>235.0</ele><time>2026-04-11T14:52:55.434Z</time></trkpt><trkpt lat="45.0351867" lon="7.9618667"><ele>234.7142857142857</ele><time>2026-04-11T14:52:56.434Z</time></trkpt><trkpt lat="45.0352217" lon="7.9619533"><ele>234.4285714285714</ele><time>2026-04-11T14:52:57.434Z</time></trkpt><trkpt lat="45.0352617" lon="7.9620383"><ele>234.14285714285714</ele><time>2026-04-11T14:52:58.434Z</time></trkpt><trkpt lat="45.0353033" lon="7.962125"><ele>233.85714285714283</ele><time>2026-04-11T14:52:59.434Z</time></trkpt><trkpt lat="45.0353467" lon="7.9622183"><ele>233.57142857142856</ele><time>2026-04-11T14:53:00.434Z</time></trkpt><trkpt lat="45.0353883" lon="7.9623033"><ele>233.28571428571428</ele><time>2026-04-11T14:53:01.434Z</time></trkpt><trkpt lat="45.035445" lon="7.9623783"><ele>233.0</ele><time>2026-04-11T14:53:02.434Z</time></trkpt><trkpt lat="45.0355" lon="7.962445"><ele>233.0</ele><time>2026-04-11T14:53:03.434Z</time></trkpt><trkpt lat="45.0355467" lon="7.96252"><ele>233.0</ele><time>2026-04-11T14:53:04.434Z</time></trkpt><trkpt lat="45.03559" lon="7.9626017"><ele>233.0</ele><time>2026-04-11T14:53:05.434Z</time></trkpt><trkpt lat="45.0356267" lon="7.962685"><ele>233.0</ele><time>2026-04-11T14:53:06.434Z</time></trkpt><trkpt lat="45.0356783" lon="7.9627683"><ele>233.0</ele><time>2026-04-11T14:53:07.434Z</time></trkpt><trkpt lat="45.0357383" lon="7.9628183"><ele>233.0</ele><time>2026-04-11T14:53:08.434Z</time></trkpt><trkpt lat="45.0358033" lon="7.962835"><ele>233.0</ele><time>2026-04-11T14:53:09.434Z</time></trkpt><trkpt lat="45.03588" lon="7.9628233"><ele>232.85714285714286</ele><time>2026-04-11T14:53:10.434Z</time></trkpt><trkpt lat="45.0359583" lon="7.9628117"><ele>232.71428571428572</ele><time>2026-04-11T14:53:11.434Z</time></trkpt><trkpt lat="45.036035" lon="7.962805"><ele>232.57142857142858</ele><time>2026-04-11T14:53:12.434Z</time></trkpt><trkpt lat="45.036105" lon="7.9628017"><ele>232.42857142857144</ele><time>2026-04-11T14:53:13.434Z</time></trkpt><trkpt lat="45.0361767" lon="7.9627983"><ele>232.28571428571428</ele><time>2026-04-11T14:53:14.434Z</time></trkpt><trkpt lat="45.036245" lon="7.962795"><ele>232.14285714285717</ele><time>2026-04-11T14:53:15.435Z</time></trkpt><trkpt lat="45.0363133" lon="7.962795"><ele>232.00000000000003</ele><time>2026-04-11T14:53:16.434Z</time></trkpt><trkpt lat="45.0363817" lon="7.9627817"><ele>232.00000000000003</ele><time>2026-04-11T14:53:17.434Z</time></trkpt><trkpt lat="45.0364517" lon="7.9627617"><ele>232.0</ele><time>2026-04-11T14:53:18.434Z</time></trkpt><trkpt lat="45.0365217" lon="7.96274"><ele>232.00000000000003</ele><time>2026-04-11T14:53:19.434Z</time></trkpt><trkpt lat="45.0365883" lon="7.9627167"><ele>232.00000000000003</ele><time>2026-04-11T14:53:20.434Z</time></trkpt><trkpt lat="45.0366517" lon="7.962695"><ele>232.0</ele><time>2026-04-11T14:53:21.435Z</time></trkpt><trkpt lat="45.0367133" lon="7.962675"><ele>232.00000000000003</ele><time>2026-04-11T14:53:22.434Z</time></trkpt><trkpt lat="45.036775" lon="7.9626467"><ele>232.00000000000003</ele><time>2026-04-11T14:53:23.435Z</time></trkpt><trkpt lat="45.03684" lon="7.9626117"><ele>231.8571428571429</ele><time>2026-04-11T14:53:24.434Z</time></trkpt><trkpt lat="45.0369" lon="7.9625783"><ele>231.71428571428572</ele><time>2026-04-11T14:53:25.434Z</time></trkpt><trkpt lat="45.03696" lon="7.9625417"><ele>231.57142857142858</ele><time>2026-04-11T14:53:26.434Z</time></trkpt><trkpt lat="45.0370217" lon="7.962505"><ele>231.42857142857144</ele><time>2026-04-11T14:53:27.434Z</time></trkpt><trkpt lat="45.0370817" lon="7.962475"><ele>231.28571428571428</ele><time>2026-04-11T14:53:28.434Z</time></trkpt><trkpt lat="45.03714" lon="7.96244"><ele>231.14285714285714</ele><time>2026-04-11T14:53:29.434Z</time></trkpt><trkpt lat="45.0371983" lon="7.9624033"><ele>231.0</ele><time>2026-04-11T14:53:30.434Z</time></trkpt><trkpt lat="45.03726" lon="7.96236"><ele>232.20000000000002</ele><time>2026-04-11T14:53:31.434Z</time></trkpt><trkpt lat="45.0373717" lon="7.96229"><ele>233.40000000000003</ele><time>2026-04-11T14:53:33.434Z</time></trkpt><trkpt lat="45.0374833" lon="7.9622183"><ele>234.6</ele><time>2026-04-11T14:53:35.434Z</time></trkpt><trkpt lat="45.0375417" lon="7.9621817"><ele>235.8</ele><time>2026-04-11T14:53:36.434Z</time></trkpt><trkpt lat="45.037655" lon="7.9620967"><ele>237.0</ele><time>2026-04-11T14:53:38.434Z</time></trkpt><trkpt lat="45.0377183" lon="7.96204"><ele>237.0</ele><time>2026-04-11T14:53:39.434Z</time></trkpt><trkpt lat="45.0377733" lon="7.96198"><ele>237.0</ele><time>2026-04-11T14:53:40.434Z</time></trkpt><trkpt lat="45.0378267" lon="7.9619217"><ele>237.0</ele><time>2026-04-11T14:53:41.434Z</time></trkpt><trkpt lat="45.0378767" lon="7.9618667"><ele>237.0</ele><time>2026-04-11T14:53:42.434Z</time></trkpt><trkpt lat="45.03793" lon="7.9618033"><ele>237.0</ele><time>2026-04-11T14:53:43.434Z</time></trkpt><trkpt lat="45.03803" lon="7.9616983"><ele>237.0</ele><time>2026-04-11T14:53:45.434Z</time></trkpt><trkpt lat="45.038135" lon="7.9616067"><ele>237.2</ele><time>2026-04-11T14:53:47.434Z</time></trkpt><trkpt lat="45.03823" lon="7.9615217"><ele>237.39999999999998</ele><time>2026-04-11T14:53:49.434Z</time></trkpt><trkpt lat="45.038335" lon="7.9614667"><ele>237.60000000000002</ele><time>2026-04-11T14:53:51.435Z</time></trkpt><trkpt lat="45.0384333" lon="7.961425"><ele>237.8</ele><time>2026-04-11T14:53:53.434Z</time></trkpt><trkpt lat="45.0385083" lon="7.9613967"><ele>238.0</ele><time>2026-04-11T14:53:55.434Z</time></trkpt><trkpt lat="45.0385833" lon="7.96145"><ele>238.0</ele><time>2026-04-11T14:53:58.434Z</time></trkpt><trkpt lat="45.0385933" lon="7.96158"><ele>238.0</ele><time>2026-04-11T14:54:00.434Z</time></trkpt><trkpt lat="45.0385933" lon="7.96167"><ele>238.0</ele><time>2026-04-11T14:54:01.434Z</time></trkpt><trkpt lat="45.038605" lon="7.96176"><ele>238.0</ele><time>2026-04-11T14:54:02.434Z</time></trkpt><trkpt lat="45.0386117" lon="7.9618533"><ele>238.0</ele><time>2026-04-11T14:54:03.434Z</time></trkpt><trkpt lat="45.038615" lon="7.9619483"><ele>238.0</ele><time>2026-04-11T14:54:04.434Z</time></trkpt><trkpt lat="45.03862" lon="7.9620433"><ele>238.0</ele><time>2026-04-11T14:54:05.434Z</time></trkpt><trkpt lat="45.03863" lon="7.962135"><ele>237.85714285714286</ele><time>2026-04-11T14:54:06.434Z</time></trkpt><trkpt lat="45.0386417" lon="7.9622267"><ele>237.71428571428572</ele><time>2026-04-11T14:54:07.434Z</time></trkpt><trkpt lat="45.0386483" lon="7.9623183"><ele>237.57142857142856</ele><time>2026-04-11T14:54:08.434Z</time></trkpt><trkpt lat="45.0386533" lon="7.962415"><ele>237.42857142857142</ele><time>2026-04-11T14:54:09.434Z</time></trkpt><trkpt lat="45.0386567" lon="7.9625133"><ele>237.28571428571428</ele><time>2026-04-11T14:54:10.434Z</time></trkpt><trkpt lat="45.0386567" lon="7.9626033"><ele>237.1428571428571</ele><time>2026-04-11T14:54:11.435Z</time></trkpt><trkpt lat="45.0386567" lon="7.9627"><ele>236.99999999999997</ele><time>2026-04-11T14:54:12.435Z</time></trkpt><trkpt lat="45.0386633" lon="7.962795"><ele>236.85714285714283</ele><time>2026-04-11T14:54:13.434Z</time></trkpt><trkpt lat="45.0386667" lon="7.9628983"><ele>236.71428571428572</ele><time>2026-04-11T14:54:14.434Z</time></trkpt><trkpt lat="45.038665" lon="7.9630017"><ele>236.57142857142856</ele><time>2026-04-11T14:54:15.434Z</time></trkpt><trkpt lat="45.0386717" lon="7.963105"><ele>236.42857142857142</ele><time>2026-04-11T14:54:16.434Z</time></trkpt><trkpt lat="45.038675" lon="7.9632117"><ele>236.28571428571428</ele><time>2026-04-11T14:54:17.434Z</time></trkpt><trkpt lat="45.0386767" lon="7.9633133"><ele>236.14285714285714</ele><time>2026-04-11T14:54:18.434Z</time></trkpt><trkpt lat="45.038675" lon="7.9634167"><ele>236.0</ele><time>2026-04-11T14:54:19.434Z</time></trkpt><trkpt lat="45.0386783" lon="7.96351"><ele>235.83333333333334</ele><time>2026-04-11T14:54:20.434Z</time></trkpt><trkpt lat="45.038685" lon="7.9636133"><ele>235.66666666666669</ele><time>2026-04-11T14:54:21.434Z</time></trkpt><trkpt lat="45.0386883" lon="7.9637133"><ele>235.5</ele><time>2026-04-11T14:54:22.434Z</time></trkpt><trkpt lat="45.0386967" lon="7.9638233"><ele>235.33333333333331</ele><time>2026-04-11T14:54:23.434Z</time></trkpt><trkpt lat="45.038715" lon="7.9639333"><ele>235.16666666666666</ele><time>2026-04-11T14:54:24.434Z</time></trkpt><trkpt lat="45.03874" lon="7.9640383"><ele>235.0</ele><time>2026-04-11T14:54:25.434Z</time></trkpt><trkpt lat="45.0387733" lon="7.964135"><ele>235.16666666666666</ele><time>2026-04-11T14:54:26.434Z</time></trkpt><trkpt lat="45.0388167" lon="7.9642267"><ele>235.33333333333331</ele><time>2026-04-11T14:54:27.434Z</time></trkpt><trkpt lat="45.0388667" lon="7.9643033"><ele>235.5</ele><time>2026-04-11T14:54:28.434Z</time></trkpt><trkpt lat="45.0389267" lon="7.9643717"><ele>235.66666666666669</ele><time>2026-04-11T14:54:29.434Z</time></trkpt><trkpt lat="45.0389933" lon="7.9644433"><ele>235.83333333333334</ele><time>2026-04-11T14:54:30.434Z</time></trkpt><trkpt lat="45.0390567" lon="7.9645083"><ele>236.0</ele><time>2026-04-11T14:54:31.434Z</time></trkpt><trkpt lat="45.03912" lon="7.9645733"><ele>236.14285714285714</ele><time>2026-04-11T14:54:32.434Z</time></trkpt><trkpt lat="45.03918" lon="7.9646333"><ele>236.28571428571428</ele><time>2026-04-11T14:54:33.434Z</time></trkpt><trkpt lat="45.0392383" lon="7.9646933"><ele>236.42857142857142</ele><time>2026-04-11T14:54:34.434Z</time></trkpt><trkpt lat="45.0392967" lon="7.9647567"><ele>236.57142857142856</ele><time>2026-04-11T14:54:35.434Z</time></trkpt><trkpt lat="45.03936" lon="7.9648117"><ele>236.71428571428572</ele><time>2026-04-11T14:54:36.434Z</time></trkpt><trkpt lat="45.0394167" lon="7.9648733"><ele>236.85714285714283</ele><time>2026-04-11T14:54:37.434Z</time></trkpt><trkpt lat="45.039475" lon="7.96494"><ele>236.99999999999997</ele><time>2026-04-11T14:54:38.434Z</time></trkpt><trkpt lat="45.039525" lon="7.9650117"><ele>237.1428571428571</ele><time>2026-04-11T14:54:39.434Z</time></trkpt><trkpt lat="45.039575" lon="7.965085"><ele>237.28571428571428</ele><time>2026-04-11T14:54:40.434Z</time></trkpt><trkpt lat="45.0396283" lon="7.965155"><ele>237.42857142857142</ele><time>2026-04-11T14:54:41.434Z</time></trkpt><trkpt lat="45.03968" lon="7.96523"><ele>237.57142857142856</ele><time>2026-04-11T14:54:42.434Z</time></trkpt><trkpt lat="45.039735" lon="7.9653"><ele>237.71428571428572</ele><time>2026-04-11T14:54:43.434Z</time></trkpt><trkpt lat="45.039785" lon="7.9653667"><ele>237.85714285714286</ele><time>2026-04-11T14:54:44.434Z</time></trkpt><trkpt lat="45.0398317" lon="7.9654333"><ele>238.0</ele><time>2026-04-11T14:54:45.434Z</time></trkpt><trkpt lat="45.0398817" lon="7.9654933"><ele>237.99999999999997</ele><time>2026-04-11T14:54:46.434Z</time></trkpt><trkpt lat="45.0399567" lon="7.9656183"><ele>238.0</ele><time>2026-04-11T14:54:48.434Z</time></trkpt><trkpt lat="45.0399667" lon="7.9657117"><ele>238.0</ele><time>2026-04-11T14:54:49.434Z</time></trkpt><trkpt lat="45.0399567" lon="7.9658017"><ele>238.0</ele><time>2026-04-11T14:54:50.434Z</time></trkpt><trkpt lat="45.03993" lon="7.9658917"><ele>237.99999999999997</ele><time>2026-04-11T14:54:51.434Z</time></trkpt><trkpt lat="45.039885" lon="7.965985"><ele>238.0</ele><time>2026-04-11T14:54:52.434Z</time></trkpt><trkpt lat="45.0398333" lon="7.9660667"><ele>238.0</ele><time>2026-04-11T14:54:53.434Z</time></trkpt><trkpt lat="45.039785" lon="7.9661317"><ele>238.0</ele><time>2026-04-11T14:54:54.434Z</time></trkpt><trkpt lat="45.03974" lon="7.9662033"><ele>238.0</ele><time>2026-04-11T14:54:55.434Z</time></trkpt><trkpt lat="45.039695" lon="7.9662767"><ele>238.0</ele><time>2026-04-11T14:54:56.434Z</time></trkpt><trkpt lat="45.03965" lon="7.9663483"><ele>238.0</ele><time>2026-04-11T14:54:57.434Z</time></trkpt><trkpt lat="45.0396117" lon="7.9664233"><ele>238.0</ele><time>2026-04-11T14:54:58.434Z</time></trkpt><trkpt lat="45.03957" lon="7.9664933"><ele>238.0</ele><time>2026-04-11T14:54:59.434Z</time></trkpt><trkpt lat="45.0395367" lon="7.96657"><ele>238.16666666666666</ele><time>2026-04-11T14:55:00.434Z</time></trkpt><trkpt lat="45.0395133" lon="7.9667483"><ele>238.33333333333331</ele><time>2026-04-11T14:55:02.434Z</time></trkpt><trkpt lat="45.03952" lon="7.966845"><ele>238.5</ele><time>2026-04-11T14:55:03.434Z</time></trkpt><trkpt lat="45.0395417" lon="7.96694"><ele>238.66666666666669</ele><time>2026-04-11T14:55:04.434Z</time></trkpt><trkpt lat="45.039555" lon="7.9670333"><ele>238.83333333333334</ele><time>2026-04-11T14:55:05.434Z</time></trkpt><trkpt lat="45.0395717" lon="7.9671233"><ele>239.0</ele><time>2026-04-11T14:55:06.434Z</time></trkpt><trkpt lat="45.0395867" lon="7.96721"><ele>239.0</ele><time>2026-04-11T14:55:07.434Z</time></trkpt><trkpt lat="45.0396183" lon="7.9673783"><ele>239.0</ele><time>2026-04-11T14:55:09.434Z</time></trkpt><trkpt lat="45.039645" lon="7.967545"><ele>239.0</ele><time>2026-04-11T14:55:11.434Z</time></trkpt><trkpt lat="45.03966" lon="7.9677133"><ele>239.0</ele><time>2026-04-11T14:55:13.434Z</time></trkpt><trkpt lat="45.0396933" lon="7.96787"><ele>239.5</ele><time>2026-04-11T14:55:15.434Z</time></trkpt><trkpt lat="45.0397317" lon="7.96802"><ele>240.0</ele><time>2026-04-11T14:55:17.434Z</time></trkpt><trkpt lat="45.0397717" lon="7.9681817"><ele>240.5</ele><time>2026-04-11T14:55:19.434Z</time></trkpt><trkpt lat="45.0398" lon="7.9683417"><ele>241.0</ele><time>2026-04-11T14:55:21.434Z</time></trkpt><trkpt lat="45.0398233" lon="7.968495"><ele>241.8</ele><time>2026-04-11T14:55:23.434Z</time></trkpt><trkpt lat="45.0398483" lon="7.9686417"><ele>242.60000000000002</ele><time>2026-04-11T14:55:25.434Z</time></trkpt><trkpt lat="45.0398817" lon="7.9687833"><ele>243.4</ele><time>2026-04-11T14:55:27.434Z</time></trkpt><trkpt lat="45.0399083" lon="7.9689217"><ele>244.2</ele><time>2026-04-11T14:55:29.434Z</time></trkpt><trkpt lat="45.0399383" lon="7.9690533"><ele>245.0</ele><time>2026-04-11T14:55:31.434Z</time></trkpt><trkpt lat="45.0399717" lon="7.969205"><ele>245.6</ele><time>2026-04-11T14:55:33.434Z</time></trkpt><trkpt lat="45.039995" lon="7.9693717"><ele>246.2</ele><time>2026-04-11T14:55:35.434Z</time></trkpt><trkpt lat="45.040015" lon="7.96953"><ele>246.8</ele><time>2026-04-11T14:55:37.434Z</time></trkpt><trkpt lat="45.0400283" lon="7.96962"><ele>247.4</ele><time>2026-04-11T14:55:38.434Z</time></trkpt><trkpt lat="45.040055" lon="7.969785"><ele>248.0</ele><time>2026-04-11T14:55:40.434Z</time></trkpt><trkpt lat="45.040085" lon="7.9699483"><ele>250.8</ele><time>2026-04-11T14:55:42.434Z</time></trkpt><trkpt lat="45.0401067" lon="7.97008"><ele>253.60000000000002</ele><time>2026-04-11T14:55:44.434Z</time></trkpt><trkpt lat="45.0401367" lon="7.9702167"><ele>256.4</ele><time>2026-04-11T14:55:46.434Z</time></trkpt><trkpt lat="45.04016" lon="7.9703467"><ele>259.2</ele><time>2026-04-11T14:55:48.435Z</time></trkpt><trkpt lat="45.0401833" lon="7.9704833"><ele>262.0</ele><time>2026-04-11T14:55:50.434Z</time></trkpt><trkpt lat="45.040205" lon="7.9706133"><ele>262.0</ele><time>2026-04-11T14:55:52.434Z</time></trkpt><trkpt lat="45.0402283" lon="7.970745"><ele>262.0</ele><time>2026-04-11T14:55:54.434Z</time></trkpt><trkpt lat="45.0402617" lon="7.9708833"><ele>262.0</ele><time>2026-04-11T14:55:56.434Z</time></trkpt><trkpt lat="45.0402833" lon="7.97102"><ele>262.0</ele><time>2026-04-11T14:55:58.434Z</time></trkpt><trkpt lat="45.0403167" lon="7.9711567"><ele>262.0</ele><time>2026-04-11T14:56:00.434Z</time></trkpt><trkpt lat="45.040345" lon="7.97129"><ele>261.0</ele><time>2026-04-11T14:56:02.434Z</time></trkpt><trkpt lat="45.0403583" lon="7.9714317"><ele>260.0</ele><time>2026-04-11T14:56:04.434Z</time></trkpt><trkpt lat="45.0403717" lon="7.971575"><ele>259.0</ele><time>2026-04-11T14:56:06.434Z</time></trkpt><trkpt lat="45.0403967" lon="7.971705"><ele>258.0</ele><time>2026-04-11T14:56:08.434Z</time></trkpt><trkpt lat="45.0404183" lon="7.971855"><ele>257.0</ele><time>2026-04-11T14:56:10.434Z</time></trkpt><trkpt lat="45.0404367" lon="7.9719917"><ele>257.0</ele><time>2026-04-11T14:56:12.434Z</time></trkpt><trkpt lat="45.0404567" lon="7.9721233"><ele>257.0</ele><time>2026-04-11T14:56:14.434Z</time></trkpt><trkpt lat="45.0404717" lon="7.9722633"><ele>257.0</ele><time>2026-04-11T14:56:16.434Z</time></trkpt><trkpt lat="45.04048" lon="7.9724033"><ele>257.0</ele><time>2026-04-11T14:56:18.434Z</time></trkpt><trkpt lat="45.040495" lon="7.9725433"><ele>257.0</ele><time>2026-04-11T14:56:20.434Z</time></trkpt><trkpt lat="45.040515" lon="7.9726883"><ele>256.0</ele><time>2026-04-11T14:56:22.434Z</time></trkpt><trkpt lat="45.0405317" lon="7.9728333"><ele>255.0</ele><time>2026-04-11T14:56:24.434Z</time></trkpt><trkpt lat="45.04055" lon="7.9729717"><ele>254.0</ele><time>2026-04-11T14:56:26.435Z</time></trkpt><trkpt lat="45.040565" lon="7.97311"><ele>253.0</ele><time>2026-04-11T14:56:28.434Z</time></trkpt><trkpt lat="45.04058" lon="7.9732517"><ele>252.0</ele><time>2026-04-11T14:56:30.434Z</time></trkpt><trkpt lat="45.0405883" lon="7.97338"><ele>254.8</ele><time>2026-04-11T14:56:32.434Z</time></trkpt><trkpt lat="45.040605" lon="7.97351"><ele>257.6</ele><time>2026-04-11T14:56:34.434Z</time></trkpt><trkpt lat="45.040625" lon="7.973645"><ele>260.40000000000003</ele><time>2026-04-11T14:56:36.434Z</time></trkpt><trkpt lat="45.0406417" lon="7.9737733"><ele>263.2</ele><time>2026-04-11T14:56:38.434Z</time></trkpt><trkpt lat="45.04066" lon="7.9739067"><ele>266.0</ele><time>2026-04-11T14:56:40.434Z</time></trkpt><trkpt lat="45.040665" lon="7.9740433"><ele>266.0</ele><time>2026-04-11T14:56:42.434Z</time></trkpt><trkpt lat="45.04068" lon="7.97417"><ele>266.0</ele><time>2026-04-11T14:56:44.434Z</time></trkpt><trkpt lat="45.0406917" lon="7.9742817"><ele>266.0</ele><time>2026-04-11T14:56:46.434Z</time></trkpt><trkpt lat="45.040705" lon="7.9743883"><ele>266.0</ele><time>2026-04-11T14:56:48.434Z</time></trkpt><trkpt lat="45.04071" lon="7.97451"><ele>266.0</ele><time>2026-04-11T14:56:50.434Z</time></trkpt><trkpt lat="45.04073" lon="7.97465"><ele>266.0</ele><time>2026-04-11T14:56:52.434Z</time></trkpt><trkpt lat="45.0407517" lon="7.9747783"><ele>268.40000000000003</ele><time>2026-04-11T14:56:54.434Z</time></trkpt><trkpt lat="45.0407683" lon="7.97489"><ele>270.8</ele><time>2026-04-11T14:56:56.434Z</time></trkpt><trkpt lat="45.04078" lon="7.975015"><ele>273.20000000000005</ele><time>2026-04-11T14:56:58.435Z</time></trkpt><trkpt lat="45.04079" lon="7.97515"><ele>275.6</ele><time>2026-04-11T14:57:00.434Z</time></trkpt><trkpt lat="45.0408" lon="7.9752967"><ele>278.0</ele><time>2026-04-11T14:57:02.434Z</time></trkpt><trkpt lat="45.04093" lon="7.976365"><ele>278.0</ele><time>2026-04-11T14:57:13.456Z</time></trkpt><trkpt lat="45.0409583" lon="7.976475"><ele>278.0</ele><time>2026-04-11T14:57:14.456Z</time></trkpt><trkpt lat="45.040965" lon="7.976595"><ele>278.0</ele><time>2026-04-11T14:57:15.456Z</time></trkpt><trkpt lat="45.0409783" lon="7.9767133"><ele>278.0</ele><time>2026-04-11T14:57:16.456Z</time></trkpt><trkpt lat="45.040995" lon="7.9768317"><ele>278.0</ele><time>2026-04-11T14:57:17.456Z</time></trkpt><trkpt lat="45.04102" lon="7.97694"><ele>278.0</ele><time>2026-04-11T14:57:18.456Z</time></trkpt><trkpt lat="45.0410333" lon="7.97706"><ele>274.83333333333337</ele><time>2026-04-11T14:57:19.456Z</time></trkpt><trkpt lat="45.0410483" lon="7.9771783"><ele>271.6666666666667</ele><time>2026-04-11T14:57:20.456Z</time></trkpt><trkpt lat="45.0410667" lon="7.9773"><ele>268.5</ele><time>2026-04-11T14:57:21.456Z</time></trkpt><trkpt lat="45.0410817" lon="7.9774217"><ele>265.3333333333333</ele><time>2026-04-11T14:57:22.456Z</time></trkpt><trkpt lat="45.041095" lon="7.9775433"><ele>262.16666666666663</ele><time>2026-04-11T14:57:23.456Z</time></trkpt><trkpt lat="45.0411083" lon="7.977675"><ele>259.0</ele><time>2026-04-11T14:57:24.456Z</time></trkpt><trkpt lat="45.0411267" lon="7.9777967"><ele>259.3333333333333</ele><time>2026-04-11T14:57:25.456Z</time></trkpt><trkpt lat="45.0411367" lon="7.97792"><ele>259.66666666666663</ele><time>2026-04-11T14:57:26.456Z</time></trkpt><trkpt lat="45.0411433" lon="7.9780367"><ele>260.0</ele><time>2026-04-11T14:57:27.457Z</time></trkpt><trkpt lat="45.0411417" lon="7.9781583"><ele>260.3333333333333</ele><time>2026-04-11T14:57:28.456Z</time></trkpt><trkpt lat="45.0411283" lon="7.9782767"><ele>260.6666666666667</ele><time>2026-04-11T14:57:29.456Z</time></trkpt><trkpt lat="45.0411033" lon="7.9783867"><ele>261.0</ele><time>2026-04-11T14:57:30.456Z</time></trkpt><trkpt lat="45.04108" lon="7.978495"><ele>261.0</ele><time>2026-04-11T14:57:31.456Z</time></trkpt><trkpt lat="45.0410667" lon="7.97861"><ele>261.0</ele><time>2026-04-11T14:57:32.457Z</time></trkpt><trkpt lat="45.041085" lon="7.9787217"><ele>261.0</ele><time>2026-04-11T14:57:33.456Z</time></trkpt><trkpt lat="45.0411267" lon="7.97882"><ele>261.0</ele><time>2026-04-11T14:57:34.456Z</time></trkpt><trkpt lat="45.0411783" lon="7.9789017"><ele>261.0</ele><time>2026-04-11T14:57:35.456Z</time></trkpt><trkpt lat="45.0412233" lon="7.9789883"><ele>261.0</ele><time>2026-04-11T14:57:36.457Z</time></trkpt><trkpt lat="45.0412583" lon="7.9790833"><ele>261.0</ele><time>2026-04-11T14:57:37.456Z</time></trkpt><trkpt lat="45.0412717" lon="7.97918"><ele>261.0</ele><time>2026-04-11T14:57:38.456Z</time></trkpt><trkpt lat="45.0412783" lon="7.9792767"><ele>261.0</ele><time>2026-04-11T14:57:39.456Z</time></trkpt><trkpt lat="45.04127" lon="7.9793667"><ele>261.0</ele><time>2026-04-11T14:57:40.456Z</time></trkpt><trkpt lat="45.041215" lon="7.9795267"><ele>261.0</ele><time>2026-04-11T14:57:42.456Z</time></trkpt><trkpt lat="45.041185" lon="7.979685"><ele>261.0</ele><time>2026-04-11T14:57:44.456Z</time></trkpt><trkpt lat="45.0411817" lon="7.9798083"><ele>262.8333333333333</ele><time>2026-04-11T14:57:46.456Z</time></trkpt><trkpt lat="45.0411883" lon="7.97991"><ele>264.6666666666667</ele><time>2026-04-11T14:57:48.456Z</time></trkpt><trkpt lat="45.041195" lon="7.980035"><ele>266.5</ele><time>2026-04-11T14:57:51.456Z</time></trkpt><trkpt lat="45.0412067" lon="7.9801517"><ele>268.33333333333337</ele><time>2026-04-11T14:57:54.456Z</time></trkpt><trkpt lat="45.0412267" lon="7.9802417"><ele>270.1666666666667</ele><time>2026-04-11T14:57:56.456Z</time></trkpt><trkpt lat="45.0412467" lon="7.98033"><ele>272.0</ele><time>2026-04-11T14:57:58.456Z</time></trkpt><trkpt lat="45.0412617" lon="7.98044"><ele>274.1666666666667</ele><time>2026-04-11T14:58:01.456Z</time></trkpt><trkpt lat="45.0412783" lon="7.9805433"><ele>276.33333333333337</ele><time>2026-04-11T14:58:04.456Z</time></trkpt><trkpt lat="45.0412967" lon="7.980665"><ele>278.5</ele><time>2026-04-11T14:58:07.456Z</time></trkpt><trkpt lat="45.041325" lon="7.980775"><ele>280.6666666666667</ele><time>2026-04-11T14:58:10.456Z</time></trkpt><trkpt lat="45.0413433" lon="7.980865"><ele>282.8333333333333</ele><time>2026-04-11T14:58:12.456Z</time></trkpt><trkpt lat="45.0413767" lon="7.9809917"><ele>285.0</ele><time>2026-04-11T14:58:15.456Z</time></trkpt><trkpt lat="45.0414033" lon="7.98108"><ele>286.6666666666667</ele><time>2026-04-11T14:58:17.456Z</time></trkpt><trkpt lat="45.0414383" lon="7.9811933"><ele>288.3333333333333</ele><time>2026-04-11T14:58:20.456Z</time></trkpt><trkpt lat="45.0414683" lon="7.9812733"><ele>290.0</ele><time>2026-04-11T14:58:22.456Z</time></trkpt><trkpt lat="45.0415117" lon="7.9813833"><ele>291.66666666666663</ele><time>2026-04-11T14:58:25.456Z</time></trkpt><trkpt lat="45.0415317" lon="7.9815"><ele>293.3333333333333</ele><time>2026-04-11T14:58:28.456Z</time></trkpt><trkpt lat="45.0415533" lon="7.9816217"><ele>295.0</ele><time>2026-04-11T14:58:31.456Z</time></trkpt><trkpt lat="45.0415583" lon="7.98173"><ele>295.16666666666663</ele><time>2026-04-11T14:58:34.457Z</time></trkpt><trkpt lat="45.04154" lon="7.9818533"><ele>295.3333333333333</ele><time>2026-04-11T14:58:37.456Z</time></trkpt><trkpt lat="45.0415167" lon="7.98197"><ele>295.5</ele><time>2026-04-11T14:58:40.456Z</time></trkpt><trkpt lat="45.0414833" lon="7.9820617"><ele>295.6666666666667</ele><time>2026-04-11T14:58:43.456Z</time></trkpt><trkpt lat="45.0414517" lon="7.9821667"><ele>295.83333333333337</ele><time>2026-04-11T14:58:46.456Z</time></trkpt><trkpt lat="45.041415" lon="7.98228"><ele>296.0</ele><time>2026-04-11T14:58:49.457Z</time></trkpt><trkpt lat="45.0413817" lon="7.9823583"><ele>296.0</ele><time>2026-04-11T14:58:51.456Z</time></trkpt><trkpt lat="45.04135" lon="7.98244"><ele>296.0</ele><time>2026-04-11T14:58:53.456Z</time></trkpt><trkpt lat="45.04131" lon="7.9825433"><ele>296.0</ele><time>2026-04-11T14:58:56.456Z</time></trkpt><trkpt lat="45.04127" lon="7.9826417"><ele>296.0</ele><time>2026-04-11T14:58:59.456Z</time></trkpt><trkpt lat="45.0412167" lon="7.9827317"><ele>296.0</ele><time>2026-04-11T14:59:02.457Z</time></trkpt><trkpt lat="45.041165" lon="7.982825"><ele>296.0</ele><time>2026-04-11T14:59:05.456Z</time></trkpt><trkpt lat="45.0411017" lon="7.9829083"><ele>295.5</ele><time>2026-04-11T14:59:08.456Z</time></trkpt><trkpt lat="45.0410417" lon="7.9829783"><ele>295.0</ele><time>2026-04-11T14:59:11.456Z</time></trkpt><trkpt lat="45.04096" lon="7.9830383"><ele>294.5</ele><time>2026-04-11T14:59:14.456Z</time></trkpt><trkpt lat="45.0408983" lon="7.98308"><ele>294.0</ele><time>2026-04-11T14:59:16.456Z</time></trkpt><trkpt lat="45.0408317" lon="7.98311"><ele>293.5</ele><time>2026-04-11T14:59:18.456Z</time></trkpt><trkpt lat="45.0407433" lon="7.9831567"><ele>293.0</ele><time>2026-04-11T14:59:21.456Z</time></trkpt><trkpt lat="45.04065" lon="7.9831617"><ele>293.2857142857143</ele><time>2026-04-11T14:59:24.456Z</time></trkpt><trkpt lat="45.0405833" lon="7.9831967"><ele>293.57142857142856</ele><time>2026-04-11T14:59:26.456Z</time></trkpt><trkpt lat="45.0405183" lon="7.98323"><ele>293.8571428571429</ele><time>2026-04-11T14:59:28.456Z</time></trkpt><trkpt lat="45.0404367" lon="7.983285"><ele>294.1428571428571</ele><time>2026-04-11T14:59:31.456Z</time></trkpt><trkpt lat="45.04038" lon="7.983325"><ele>294.42857142857144</ele><time>2026-04-11T14:59:33.456Z</time></trkpt><trkpt lat="45.040305" lon="7.9833817"><ele>294.7142857142857</ele><time>2026-04-11T14:59:36.456Z</time></trkpt><trkpt lat="45.04025" lon="7.9834283"><ele>295.0</ele><time>2026-04-11T14:59:38.456Z</time></trkpt><trkpt lat="45.0401867" lon="7.98347"><ele>295.00000000000006</ele><time>2026-04-11T14:59:40.456Z</time></trkpt><trkpt lat="45.0401233" lon="7.9835183"><ele>295.0</ele><time>2026-04-11T14:59:42.456Z</time></trkpt><trkpt lat="45.0400683" lon="7.9835633"><ele>295.0</ele><time>2026-04-11T14:59:44.456Z</time></trkpt><trkpt lat="45.0400067" lon="7.9836"><ele>295.0</ele><time>2026-04-11T14:59:46.456Z</time></trkpt><trkpt lat="45.0399433" lon="7.9836583"><ele>295.0</ele><time>2026-04-11T14:59:48.457Z</time></trkpt><trkpt lat="45.0398833" lon="7.9837167"><ele>295.00000000000006</ele><time>2026-04-11T14:59:50.456Z</time></trkpt><trkpt lat="45.0398183" lon="7.9837683"><ele>295.0</ele><time>2026-04-11T14:59:52.456Z</time></trkpt><trkpt lat="45.039745" lon="7.98383"><ele>295.0</ele><time>2026-04-11T14:59:54.456Z</time></trkpt><trkpt lat="45.039675" lon="7.98389"><ele>295.0</ele><time>2026-04-11T14:59:56.456Z</time></trkpt><trkpt lat="45.0396" lon="7.9839467"><ele>295.0</ele><time>2026-04-11T14:59:58.456Z</time></trkpt><trkpt lat="45.0395317" lon="7.9839917"><ele>295.0</ele><time>2026-04-11T15:00:00.457Z</time></trkpt><trkpt lat="45.0394683" lon="7.9840383"><ele>295.0</ele><time>2026-04-11T15:00:29.456Z</time></trkpt><trkpt lat="45.0393967" lon="7.9840967"><ele>295.0</ele><time>2026-04-11T15:00:31.456Z</time></trkpt><trkpt lat="45.0393033" lon="7.9841783"><ele>293.8</ele><time>2026-04-11T15:00:33.456Z</time></trkpt><trkpt lat="45.0392067" lon="7.9842567"><ele>292.6</ele><time>2026-04-11T15:00:35.456Z</time></trkpt><trkpt lat="45.03911" lon="7.9843333"><ele>291.4</ele><time>2026-04-11T15:00:37.456Z</time></trkpt><trkpt lat="45.0390233" lon="7.984405"><ele>290.2</ele><time>2026-04-11T15:00:39.456Z</time></trkpt><trkpt lat="45.038945" lon="7.9844617"><ele>289.0</ele><time>2026-04-11T15:00:41.456Z</time></trkpt><trkpt lat="45.0388517" lon="7.98452"><ele>289.0</ele><time>2026-04-11T15:00:43.456Z</time></trkpt><trkpt lat="45.038755" lon="7.98459"><ele>289.0</ele><time>2026-04-11T15:00:45.456Z</time></trkpt><trkpt lat="45.038695" lon="7.98463"><ele>289.0</ele><time>2026-04-11T15:00:46.456Z</time></trkpt><trkpt lat="45.03864" lon="7.984675"><ele>289.0</ele><time>2026-04-11T15:00:47.456Z</time></trkpt><trkpt lat="45.03859" lon="7.9847317"><ele>289.0</ele><time>2026-04-11T15:00:48.456Z</time></trkpt><trkpt lat="45.0385383" lon="7.984785"><ele>289.0</ele><time>2026-04-11T15:00:49.456Z</time></trkpt><trkpt lat="45.0384833" lon="7.9848433"><ele>289.0</ele><time>2026-04-11T15:00:50.456Z</time></trkpt><trkpt lat="45.038425" lon="7.9849"><ele>289.0</ele><time>2026-04-11T15:00:51.456Z</time></trkpt><trkpt lat="45.038365" lon="7.9849533"><ele>289.0</ele><time>2026-04-11T15:00:52.456Z</time></trkpt><trkpt lat="45.038295" lon="7.984995"><ele>289.0</ele><time>2026-04-11T15:00:53.456Z</time></trkpt><trkpt lat="45.0382283" lon="7.9850367"><ele>289.0</ele><time>2026-04-11T15:00:54.456Z</time></trkpt><trkpt lat="45.0381567" lon="7.9850683"><ele>289.0</ele><time>2026-04-11T15:00:55.456Z</time></trkpt><trkpt lat="45.038075" lon="7.9850867"><ele>289.0</ele><time>2026-04-11T15:00:56.456Z</time></trkpt><trkpt lat="45.0379967" lon="7.9850967"><ele>290.14285714285717</ele><time>2026-04-11T15:00:57.456Z</time></trkpt><trkpt lat="45.0379217" lon="7.9851"><ele>291.2857142857143</ele><time>2026-04-11T15:00:58.456Z</time></trkpt><trkpt lat="45.037845" lon="7.9850983"><ele>292.42857142857144</ele><time>2026-04-11T15:00:59.456Z</time></trkpt><trkpt lat="45.0377717" lon="7.9851017"><ele>293.57142857142856</ele><time>2026-04-11T15:01:00.456Z</time></trkpt><trkpt lat="45.0377017" lon="7.98511"><ele>294.7142857142857</ele><time>2026-04-11T15:01:01.456Z</time></trkpt><trkpt lat="45.03763" lon="7.9851333"><ele>295.8571428571429</ele><time>2026-04-11T15:01:02.456Z</time></trkpt><trkpt lat="45.0375683" lon="7.9851633"><ele>297.0</ele><time>2026-04-11T15:01:03.456Z</time></trkpt><trkpt lat="45.0375083" lon="7.9851983"><ele>296.2857142857143</ele><time>2026-04-11T15:01:04.456Z</time></trkpt><trkpt lat="45.03745" lon="7.9852367"><ele>295.5714285714286</ele><time>2026-04-11T15:01:05.456Z</time></trkpt><trkpt lat="45.037395" lon="7.9852817"><ele>294.8571428571429</ele><time>2026-04-11T15:01:06.456Z</time></trkpt><trkpt lat="45.0373367" lon="7.9853317"><ele>294.14285714285717</ele><time>2026-04-11T15:01:07.456Z</time></trkpt><trkpt lat="45.0372833" lon="7.9853833"><ele>293.42857142857144</ele><time>2026-04-11T15:01:08.456Z</time></trkpt><trkpt lat="45.03723" lon="7.985435"><ele>292.7142857142857</ele><time>2026-04-11T15:01:09.456Z</time></trkpt><trkpt lat="45.0371733" lon="7.9854917"><ele>292.0</ele><time>2026-04-11T15:01:10.456Z</time></trkpt><trkpt lat="45.03712" lon="7.9855483"><ele>292.0</ele><time>2026-04-11T15:01:11.456Z</time></trkpt><trkpt lat="45.0370617" lon="7.9855983"><ele>292.0</ele><time>2026-04-11T15:01:12.456Z</time></trkpt><trkpt lat="45.0369983" lon="7.98564"><ele>292.0</ele><time>2026-04-11T15:01:13.456Z</time></trkpt><trkpt lat="45.0369267" lon="7.9856683"><ele>292.0</ele><time>2026-04-11T15:01:14.456Z</time></trkpt><trkpt lat="45.0368517" lon="7.9856867"><ele>292.0</ele><time>2026-04-11T15:01:15.456Z</time></trkpt><trkpt lat="45.036775" lon="7.9856933"><ele>292.0</ele><time>2026-04-11T15:01:16.456Z</time></trkpt><trkpt lat="45.036705" lon="7.9856967"><ele>292.0</ele><time>2026-04-11T15:01:17.456Z</time></trkpt><trkpt lat="45.0366317" lon="7.9857"><ele>291.1428571428571</ele><time>2026-04-11T15:01:18.456Z</time></trkpt><trkpt lat="45.0365583" lon="7.9857033"><ele>290.2857142857143</ele><time>2026-04-11T15:01:19.457Z</time></trkpt><trkpt lat="45.036485" lon="7.9857083"><ele>289.42857142857144</ele><time>2026-04-11T15:01:20.456Z</time></trkpt><trkpt lat="45.0364133" lon="7.9857117"><ele>288.57142857142856</ele><time>2026-04-11T15:01:21.456Z</time></trkpt><trkpt lat="45.036345" lon="7.9857117"><ele>287.7142857142857</ele><time>2026-04-11T15:01:22.457Z</time></trkpt><trkpt lat="45.0362717" lon="7.9857183"><ele>286.85714285714283</ele><time>2026-04-11T15:01:23.456Z</time></trkpt><trkpt lat="45.0362017" lon="7.98572"><ele>286.0</ele><time>2026-04-11T15:01:24.457Z</time></trkpt><trkpt lat="45.03613" lon="7.9857133"><ele>285.99999999999994</ele><time>2026-04-11T15:01:25.456Z</time></trkpt><trkpt lat="45.0360583" lon="7.985695"><ele>286.0</ele><time>2026-04-11T15:01:26.457Z</time></trkpt><trkpt lat="45.0359933" lon="7.9856683"><ele>286.0</ele><time>2026-04-11T15:01:27.456Z</time></trkpt><trkpt lat="45.0359267" lon="7.98563"><ele>286.0</ele><time>2026-04-11T15:01:28.456Z</time></trkpt><trkpt lat="45.0358617" lon="7.98558"><ele>286.0</ele><time>2026-04-11T15:01:29.456Z</time></trkpt><trkpt lat="45.0357983" lon="7.9855233"><ele>285.99999999999994</ele><time>2026-04-11T15:01:30.456Z</time></trkpt><trkpt lat="45.03574" lon="7.985455"><ele>286.0</ele><time>2026-04-11T15:01:31.457Z</time></trkpt><trkpt lat="45.0356883" lon="7.9853783"><ele>285.16666666666663</ele><time>2026-04-11T15:01:32.457Z</time></trkpt><trkpt lat="45.035645" lon="7.9853"><ele>284.3333333333333</ele><time>2026-04-11T15:01:33.456Z</time></trkpt><trkpt lat="45.0355967" lon="7.985215"><ele>283.5</ele><time>2026-04-11T15:01:34.456Z</time></trkpt><trkpt lat="45.035545" lon="7.9851333"><ele>282.6666666666667</ele><time>2026-04-11T15:01:35.456Z</time></trkpt><trkpt lat="45.0354833" lon="7.985065"><ele>281.83333333333337</ele><time>2026-04-11T15:01:36.456Z</time></trkpt><trkpt lat="45.035405" lon="7.9850183"><ele>281.0</ele><time>2026-04-11T15:01:37.456Z</time></trkpt><trkpt lat="45.0353233" lon="7.98498"><ele>281.0</ele><time>2026-04-11T15:01:38.456Z</time></trkpt><trkpt lat="45.0352417" lon="7.9849467"><ele>281.0</ele><time>2026-04-11T15:01:39.456Z</time></trkpt><trkpt lat="45.0351617" lon="7.9849117"><ele>281.0</ele><time>2026-04-11T15:01:40.456Z</time></trkpt><trkpt lat="45.0350833" lon="7.9848817"><ele>281.0</ele><time>2026-04-11T15:01:41.456Z</time></trkpt><trkpt lat="45.0350067" lon="7.9848533"><ele>281.0</ele><time>2026-04-11T15:01:42.456Z</time></trkpt><trkpt lat="45.0349317" lon="7.9848317"><ele>281.0</ele><time>2026-04-11T15:01:43.456Z</time></trkpt><trkpt lat="45.034855" lon="7.9848217"><ele>281.14285714285717</ele><time>2026-04-11T15:01:44.456Z</time></trkpt><trkpt lat="45.0347783" lon="7.9848233"><ele>281.2857142857143</ele><time>2026-04-11T15:01:45.456Z</time></trkpt><trkpt lat="45.0347033" lon="7.9848433"><ele>281.42857142857144</ele><time>2026-04-11T15:01:46.456Z</time></trkpt><trkpt lat="45.0346333" lon="7.9848717"><ele>281.57142857142856</ele><time>2026-04-11T15:01:47.456Z</time></trkpt><trkpt lat="45.0345617" lon="7.9849083"><ele>281.7142857142857</ele><time>2026-04-11T15:01:48.456Z</time></trkpt><trkpt lat="45.034495" lon="7.98495"><ele>281.8571428571429</ele><time>2026-04-11T15:01:49.456Z</time></trkpt><trkpt lat="45.0344317" lon="7.9849917"><ele>282.0</ele><time>2026-04-11T15:01:50.456Z</time></trkpt><trkpt lat="45.0343683" lon="7.98503"><ele>282.0</ele><time>2026-04-11T15:01:51.456Z</time></trkpt><trkpt lat="45.034305" lon="7.9850633"><ele>282.0</ele><time>2026-04-11T15:01:52.456Z</time></trkpt><trkpt lat="45.0342417" lon="7.9850917"><ele>282.0</ele><time>2026-04-11T15:01:53.456Z</time></trkpt><trkpt lat="45.034175" lon="7.9851183"><ele>282.0</ele><time>2026-04-11T15:01:54.456Z</time></trkpt><trkpt lat="45.03411" lon="7.9851383"><ele>282.0</ele><time>2026-04-11T15:01:55.456Z</time></trkpt><trkpt lat="45.0340417" lon="7.9851517"><ele>282.0</ele><time>2026-04-11T15:01:56.456Z</time></trkpt><trkpt lat="45.0339617" lon="7.9851583"><ele>282.0</ele><time>2026-04-11T15:01:57.456Z</time></trkpt><trkpt lat="45.03388" lon="7.985155"><ele>281.8</ele><time>2026-04-11T15:01:58.456Z</time></trkpt><trkpt lat="45.0337917" lon="7.985145"><ele>281.6</ele><time>2026-04-11T15:01:59.456Z</time></trkpt><trkpt lat="45.033705" lon="7.985115"><ele>281.40000000000003</ele><time>2026-04-11T15:02:00.455Z</time></trkpt><trkpt lat="45.0336067" lon="7.9850717"><ele>281.2</ele><time>2026-04-11T15:02:01.455Z</time></trkpt><trkpt lat="45.033515" lon="7.98502"><ele>281.0</ele><time>2026-04-11T15:02:02.455Z</time></trkpt><trkpt lat="45.0334233" lon="7.9849633"><ele>281.0</ele><time>2026-04-11T15:02:03.455Z</time></trkpt><trkpt lat="45.0333417" lon="7.9849067"><ele>281.0</ele><time>2026-04-11T15:02:04.455Z</time></trkpt><trkpt lat="45.0332633" lon="7.9848367"><ele>281.0</ele><time>2026-04-11T15:02:05.455Z</time></trkpt><trkpt lat="45.0331833" lon="7.98476"><ele>281.0</ele><time>2026-04-11T15:02:06.455Z</time></trkpt><trkpt lat="45.0331" lon="7.9846933"><ele>281.0</ele><time>2026-04-11T15:02:07.455Z</time></trkpt><trkpt lat="45.0330183" lon="7.9846317"><ele>279.2</ele><time>2026-04-11T15:02:08.455Z</time></trkpt><trkpt lat="45.0329367" lon="7.9845667"><ele>277.40000000000003</ele><time>2026-04-11T15:02:09.455Z</time></trkpt><trkpt lat="45.0328517" lon="7.9845333"><ele>275.6</ele><time>2026-04-11T15:02:10.455Z</time></trkpt><trkpt lat="45.03276" lon="7.9845083"><ele>273.8</ele><time>2026-04-11T15:02:11.455Z</time></trkpt><trkpt lat="45.03267" lon="7.9845083"><ele>272.0</ele><time>2026-04-11T15:02:12.455Z</time></trkpt><trkpt lat="45.0325833" lon="7.9845233"><ele>272.0</ele><time>2026-04-11T15:02:13.455Z</time></trkpt><trkpt lat="45.0324917" lon="7.984535"><ele>272.0</ele><time>2026-04-11T15:02:14.455Z</time></trkpt><trkpt lat="45.0324017" lon="7.9845483"><ele>272.0</ele><time>2026-04-11T15:02:15.455Z</time></trkpt><trkpt lat="45.0323067" lon="7.9845633"><ele>272.0</ele><time>2026-04-11T15:02:16.455Z</time></trkpt><trkpt lat="45.03222" lon="7.9845817"><ele>272.0</ele><time>2026-04-11T15:02:17.455Z</time></trkpt><trkpt lat="45.0321317" lon="7.98462"><ele>272.0</ele><time>2026-04-11T15:02:18.455Z</time></trkpt><trkpt lat="45.0320483" lon="7.9846733"><ele>272.0</ele><time>2026-04-11T15:02:19.455Z</time></trkpt><trkpt lat="45.0319683" lon="7.9847383"><ele>272.0</ele><time>2026-04-11T15:02:20.455Z</time></trkpt><trkpt lat="45.0318967" lon="7.9848083"><ele>272.0</ele><time>2026-04-11T15:02:21.455Z</time></trkpt><trkpt lat="45.0318167" lon="7.9848783"><ele>272.0</ele><time>2026-04-11T15:02:22.455Z</time></trkpt><trkpt lat="45.0317417" lon="7.98495"><ele>271.8</ele><time>2026-04-11T15:02:23.455Z</time></trkpt><trkpt lat="45.0316633" lon="7.9850217"><ele>271.6</ele><time>2026-04-11T15:02:24.455Z</time></trkpt><trkpt lat="45.03158" lon="7.9850933"><ele>271.40000000000003</ele><time>2026-04-11T15:02:25.455Z</time></trkpt><trkpt lat="45.0314967" lon="7.9851683"><ele>271.2</ele><time>2026-04-11T15:02:26.455Z</time></trkpt><trkpt lat="45.0314167" lon="7.9852517"><ele>271.0</ele><time>2026-04-11T15:02:27.455Z</time></trkpt><trkpt lat="45.0313367" lon="7.9853183"><ele>271.0</ele><time>2026-04-11T15:02:28.455Z</time></trkpt><trkpt lat="45.0312583" lon="7.9853933"><ele>271.0</ele><time>2026-04-11T15:02:29.455Z</time></trkpt><trkpt lat="45.0311717" lon="7.9854683"><ele>271.0</ele><time>2026-04-11T15:02:30.455Z</time></trkpt><trkpt lat="45.0310867" lon="7.9855417"><ele>271.0</ele><time>2026-04-11T15:02:31.455Z</time></trkpt><trkpt lat="45.031005" lon="7.9856233"><ele>271.0</ele><time>2026-04-11T15:02:32.455Z</time></trkpt><trkpt lat="45.0309317" lon="7.9857"><ele>271.0</ele><time>2026-04-11T15:02:33.455Z</time></trkpt><trkpt lat="45.030865" lon="7.9857833"><ele>271.0</ele><time>2026-04-11T15:02:34.455Z</time></trkpt><trkpt lat="45.0308033" lon="7.9858667"><ele>271.0</ele><time>2026-04-11T15:02:35.455Z</time></trkpt><trkpt lat="45.03075" lon="7.985955"><ele>271.0</ele><time>2026-04-11T15:02:36.456Z</time></trkpt><trkpt lat="45.0306983" lon="7.9860383"><ele>271.0</ele><time>2026-04-11T15:02:37.455Z</time></trkpt><trkpt lat="45.030655" lon="7.9861167"><ele>271.0</ele><time>2026-04-11T15:02:38.455Z</time></trkpt><trkpt lat="45.030575" lon="7.986255"><ele>271.6</ele><time>2026-04-11T15:02:40.455Z</time></trkpt><trkpt lat="45.0305233" lon="7.9863167"><ele>272.20000000000005</ele><time>2026-04-11T15:02:41.455Z</time></trkpt><trkpt lat="45.0304717" lon="7.9863767"><ele>272.79999999999995</ele><time>2026-04-11T15:02:42.455Z</time></trkpt><trkpt lat="45.0303733" lon="7.9864817"><ele>273.4</ele><time>2026-04-11T15:02:44.456Z</time></trkpt><trkpt lat="45.0302567" lon="7.9865633"><ele>274.0</ele><time>2026-04-11T15:02:46.455Z</time></trkpt><trkpt lat="45.0301917" lon="7.9866017"><ele>274.00000000000006</ele><time>2026-04-11T15:02:47.455Z</time></trkpt><trkpt lat="45.0301267" lon="7.9866417"><ele>274.0</ele><time>2026-04-11T15:02:48.455Z</time></trkpt><trkpt lat="45.0300617" lon="7.9866717"><ele>274.0</ele><time>2026-04-11T15:02:49.455Z</time></trkpt><trkpt lat="45.0299967" lon="7.9867117"><ele>274.0</ele><time>2026-04-11T15:02:50.455Z</time></trkpt><trkpt lat="45.0299317" lon="7.9867533"><ele>274.0</ele><time>2026-04-11T15:02:51.455Z</time></trkpt><trkpt lat="45.0298717" lon="7.9867933"><ele>274.00000000000006</ele><time>2026-04-11T15:02:52.455Z</time></trkpt><trkpt lat="45.0298017" lon="7.9868367"><ele>274.0</ele><time>2026-04-11T15:02:53.455Z</time></trkpt><trkpt lat="45.0297383" lon="7.9868817"><ele>273.42857142857144</ele><time>2026-04-11T15:02:54.455Z</time></trkpt><trkpt lat="45.02967" lon="7.986935"><ele>272.8571428571429</ele><time>2026-04-11T15:02:55.455Z</time></trkpt><trkpt lat="45.0296067" lon="7.98697"><ele>272.2857142857143</ele><time>2026-04-11T15:02:56.456Z</time></trkpt><trkpt lat="45.0295383" lon="7.98701"><ele>271.7142857142857</ele><time>2026-04-11T15:02:57.455Z</time></trkpt><trkpt lat="45.0294683" lon="7.9870533"><ele>271.1428571428571</ele><time>2026-04-11T15:02:58.455Z</time></trkpt><trkpt lat="45.029395" lon="7.9870967"><ele>270.57142857142856</ele><time>2026-04-11T15:02:59.455Z</time></trkpt><trkpt lat="45.0293267" lon="7.9871333"><ele>270.0</ele><time>2026-04-11T15:03:00.455Z</time></trkpt><trkpt lat="45.029255" lon="7.9871633"><ele>270.0</ele><time>2026-04-11T15:03:01.455Z</time></trkpt><trkpt lat="45.0291767" lon="7.9871883"><ele>270.0</ele><time>2026-04-11T15:03:02.455Z</time></trkpt><trkpt lat="45.0291017" lon="7.9872033"><ele>270.0</ele><time>2026-04-11T15:03:03.455Z</time></trkpt><trkpt lat="45.0290233" lon="7.98722"><ele>270.0</ele><time>2026-04-11T15:03:04.455Z</time></trkpt><trkpt lat="45.0289483" lon="7.9872283"><ele>270.0</ele><time>2026-04-11T15:03:05.455Z</time></trkpt><trkpt lat="45.028875" lon="7.98725"><ele>270.0</ele><time>2026-04-11T15:03:06.455Z</time></trkpt><trkpt lat="45.0288" lon="7.987265"><ele>270.1666666666667</ele><time>2026-04-11T15:03:07.455Z</time></trkpt><trkpt lat="45.0287233" lon="7.987275"><ele>270.3333333333333</ele><time>2026-04-11T15:03:08.455Z</time></trkpt><trkpt lat="45.0286483" lon="7.987285"><ele>270.5</ele><time>2026-04-11T15:03:09.455Z</time></trkpt><trkpt lat="45.0285683" lon="7.987295"><ele>270.66666666666663</ele><time>2026-04-11T15:03:10.455Z</time></trkpt><trkpt lat="45.0284917" lon="7.9872917"><ele>270.8333333333333</ele><time>2026-04-11T15:03:11.455Z</time></trkpt><trkpt lat="45.0284133" lon="7.9872817"><ele>271.0</ele><time>2026-04-11T15:03:12.455Z</time></trkpt><trkpt lat="45.028335" lon="7.9872633"><ele>270.0</ele><time>2026-04-11T15:03:13.455Z</time></trkpt><trkpt lat="45.028255" lon="7.9872483"><ele>269.0</ele><time>2026-04-11T15:03:14.455Z</time></trkpt><trkpt lat="45.0281717" lon="7.9872217"><ele>268.0</ele><time>2026-04-11T15:03:15.455Z</time></trkpt><trkpt lat="45.0280933" lon="7.987195"><ele>267.0</ele><time>2026-04-11T15:03:16.455Z</time></trkpt><trkpt lat="45.0280117" lon="7.9871617"><ele>266.0</ele><time>2026-04-11T15:03:17.455Z</time></trkpt><trkpt lat="45.0279283" lon="7.9871283"><ele>265.0</ele><time>2026-04-11T15:03:18.455Z</time></trkpt><trkpt lat="45.02784" lon="7.98709"><ele>265.0</ele><time>2026-04-11T15:03:19.455Z</time></trkpt><trkpt lat="45.0277517" lon="7.9870533"><ele>265.0</ele><time>2026-04-11T15:03:20.456Z</time></trkpt><trkpt lat="45.02767" lon="7.98702"><ele>265.0</ele><time>2026-04-11T15:03:21.455Z</time></trkpt><trkpt lat="45.027585" lon="7.9869883"><ele>265.0</ele><time>2026-04-11T15:03:22.455Z</time></trkpt><trkpt lat="45.0275017" lon="7.98696"><ele>265.0</ele><time>2026-04-11T15:03:23.455Z</time></trkpt><trkpt lat="45.027415" lon="7.9869317"><ele>265.0</ele><time>2026-04-11T15:03:24.455Z</time></trkpt><trkpt lat="45.0273233" lon="7.9869067"><ele>265.0</ele><time>2026-04-11T15:03:25.455Z</time></trkpt><trkpt lat="45.0272417" lon="7.9868817"><ele>265.0</ele><time>2026-04-11T15:03:26.455Z</time></trkpt><trkpt lat="45.027155" lon="7.9868783"><ele>265.0</ele><time>2026-04-11T15:03:27.455Z</time></trkpt><trkpt lat="45.02707" lon="7.9868933"><ele>265.0</ele><time>2026-04-11T15:03:28.455Z</time></trkpt><trkpt lat="45.0269867" lon="7.9869117"><ele>265.0</ele><time>2026-04-11T15:03:29.455Z</time></trkpt><trkpt lat="45.0269067" lon="7.9869367"><ele>265.0</ele><time>2026-04-11T15:03:30.455Z</time></trkpt><trkpt lat="45.0268217" lon="7.986975"><ele>265.0</ele><time>2026-04-11T15:03:31.456Z</time></trkpt><trkpt lat="45.02674" lon="7.9870183"><ele>265.0</ele><time>2026-04-11T15:03:32.455Z</time></trkpt><trkpt lat="45.0266617" lon="7.9870533"><ele>265.0</ele><time>2026-04-11T15:03:33.455Z</time></trkpt><trkpt lat="45.0265817" lon="7.9870967"><ele>265.0</ele><time>2026-04-11T15:03:34.455Z</time></trkpt><trkpt lat="45.0265067" lon="7.9871417"><ele>265.0</ele><time>2026-04-11T15:03:35.455Z</time></trkpt><trkpt lat="45.0264283" lon="7.987185"><ele>265.0</ele><time>2026-04-11T15:03:36.455Z</time></trkpt><trkpt lat="45.026355" lon="7.9872233"><ele>265.0</ele><time>2026-04-11T15:03:37.455Z</time></trkpt><trkpt lat="45.026275" lon="7.9872683"><ele>265.0</ele><time>2026-04-11T15:03:38.455Z</time></trkpt><trkpt lat="45.0261933" lon="7.9873167"><ele>265.0</ele><time>2026-04-11T15:03:39.455Z</time></trkpt><trkpt lat="45.0261217" lon="7.987375"><ele>265.0</ele><time>2026-04-11T15:03:40.455Z</time></trkpt><trkpt lat="45.0260517" lon="7.9874383"><ele>265.0</ele><time>2026-04-11T15:03:41.455Z</time></trkpt><trkpt lat="45.0259867" lon="7.9874983"><ele>265.0</ele><time>2026-04-11T15:03:42.455Z</time></trkpt><trkpt lat="45.02592" lon="7.9875633"><ele>265.0</ele><time>2026-04-11T15:03:43.455Z</time></trkpt><trkpt lat="45.02586" lon="7.98764"><ele>265.0</ele><time>2026-04-11T15:03:44.455Z</time></trkpt><trkpt lat="45.0257983" lon="7.9877267"><ele>265.0</ele><time>2026-04-11T15:03:45.455Z</time></trkpt><trkpt lat="45.0257467" lon="7.9878117"><ele>265.0</ele><time>2026-04-11T15:03:46.455Z</time></trkpt><trkpt lat="45.025695" lon="7.9879033"><ele>265.0</ele><time>2026-04-11T15:03:47.456Z</time></trkpt><trkpt lat="45.0256467" lon="7.988"><ele>265.0</ele><time>2026-04-11T15:03:48.455Z</time></trkpt><trkpt lat="45.0255933" lon="7.988095"><ele>265.8333333333333</ele><time>2026-04-11T15:03:49.455Z</time></trkpt><trkpt lat="45.0255367" lon="7.9881883"><ele>266.66666666666663</ele><time>2026-04-11T15:03:50.455Z</time></trkpt><trkpt lat="45.0254817" lon="7.9882783"><ele>267.5</ele><time>2026-04-11T15:03:51.455Z</time></trkpt><trkpt lat="45.0254317" lon="7.9883717"><ele>268.3333333333333</ele><time>2026-04-11T15:03:52.455Z</time></trkpt><trkpt lat="45.025375" lon="7.9884633"><ele>269.1666666666667</ele><time>2026-04-11T15:03:53.455Z</time></trkpt><trkpt lat="45.0253217" lon="7.9885433"><ele>270.0</ele><time>2026-04-11T15:03:54.455Z</time></trkpt><trkpt lat="45.0252667" lon="7.9886167"><ele>270.0</ele><time>2026-04-11T15:03:55.455Z</time></trkpt><trkpt lat="45.0252117" lon="7.9886833"><ele>270.0</ele><time>2026-04-11T15:03:56.455Z</time></trkpt><trkpt lat="45.025155" lon="7.98875"><ele>270.0</ele><time>2026-04-11T15:03:57.455Z</time></trkpt><trkpt lat="45.02509" lon="7.988815"><ele>270.0</ele><time>2026-04-11T15:03:58.455Z</time></trkpt><trkpt lat="45.0250183" lon="7.9888817"><ele>270.0</ele><time>2026-04-11T15:03:59.455Z</time></trkpt><trkpt lat="45.0249483" lon="7.98894"><ele>270.0</ele><time>2026-04-11T15:04:00.455Z</time></trkpt><trkpt lat="45.0248717" lon="7.9889967"><ele>269.3333333333333</ele><time>2026-04-11T15:04:01.455Z</time></trkpt><trkpt lat="45.0247983" lon="7.9890483"><ele>268.6666666666667</ele><time>2026-04-11T15:04:02.455Z</time></trkpt><trkpt lat="45.0247267" lon="7.9890983"><ele>268.0</ele><time>2026-04-11T15:04:03.455Z</time></trkpt><trkpt lat="45.0246533" lon="7.989145"><ele>267.33333333333337</ele><time>2026-04-11T15:04:04.455Z</time></trkpt><trkpt lat="45.024575" lon="7.9891867"><ele>266.6666666666667</ele><time>2026-04-11T15:04:05.455Z</time></trkpt><trkpt lat="45.0244933" lon="7.9892117"><ele>266.0</ele><time>2026-04-11T15:04:06.455Z</time></trkpt><trkpt lat="45.0244067" lon="7.9892017"><ele>266.0</ele><time>2026-04-11T15:04:07.455Z</time></trkpt><trkpt lat="45.02432" lon="7.9891717"><ele>266.0</ele><time>2026-04-11T15:04:08.455Z</time></trkpt><trkpt lat="45.0242333" lon="7.9891017"><ele>266.0</ele><time>2026-04-11T15:04:09.455Z</time></trkpt><trkpt lat="45.0241517" lon="7.9890067"><ele>266.0</ele><time>2026-04-11T15:04:10.455Z</time></trkpt><trkpt lat="45.0240733" lon="7.9889267"><ele>266.0</ele><time>2026-04-11T15:04:11.455Z</time></trkpt><trkpt lat="45.0239933" lon="7.9888633"><ele>262.8</ele><time>2026-04-11T15:04:12.455Z</time></trkpt><trkpt lat="45.0239083" lon="7.9888"><ele>259.6</ele><time>2026-04-11T15:04:13.455Z</time></trkpt><trkpt lat="45.0238217" lon="7.9887367"><ele>256.4</ele><time>2026-04-11T15:04:14.455Z</time></trkpt><trkpt lat="45.0237267" lon="7.988675"><ele>253.2</ele><time>2026-04-11T15:04:15.455Z</time></trkpt><trkpt lat="45.0236317" lon="7.9886167"><ele>250.0</ele><time>2026-04-11T15:04:16.456Z</time></trkpt><trkpt lat="45.02354" lon="7.98856"><ele>250.0</ele><time>2026-04-11T15:04:17.455Z</time></trkpt><trkpt lat="45.0234417" lon="7.9885033"><ele>250.0</ele><time>2026-04-11T15:04:18.455Z</time></trkpt><trkpt lat="45.0233467" lon="7.9884483"><ele>250.0</ele><time>2026-04-11T15:04:19.455Z</time></trkpt><trkpt lat="45.02325" lon="7.988395"><ele>250.0</ele><time>2026-04-11T15:04:20.455Z</time></trkpt><trkpt lat="45.0231467" lon="7.988335"><ele>250.0</ele><time>2026-04-11T15:04:21.455Z</time></trkpt><trkpt lat="45.023045" lon="7.9882717"><ele>251.8</ele><time>2026-04-11T15:04:22.455Z</time></trkpt><trkpt lat="45.0229417" lon="7.9882083"><ele>253.6</ele><time>2026-04-11T15:04:23.455Z</time></trkpt><trkpt lat="45.022845" lon="7.9881433"><ele>255.39999999999998</ele><time>2026-04-11T15:04:24.456Z</time></trkpt><trkpt lat="45.0227533" lon="7.9880833"><ele>257.2</ele><time>2026-04-11T15:04:25.455Z</time></trkpt><trkpt lat="45.0226683" lon="7.9880333"><ele>259.0</ele><time>2026-04-11T15:04:26.455Z</time></trkpt><trkpt lat="45.0225867" lon="7.987985"><ele>259.0</ele><time>2026-04-11T15:04:27.455Z</time></trkpt><trkpt lat="45.0225067" lon="7.9879433"><ele>259.0</ele><time>2026-04-11T15:04:28.455Z</time></trkpt><trkpt lat="45.0224333" lon="7.987895"><ele>259.0</ele><time>2026-04-11T15:04:29.455Z</time></trkpt><trkpt lat="45.022365" lon="7.9878533"><ele>259.0</ele><time>2026-04-11T15:04:30.455Z</time></trkpt><trkpt lat="45.022305" lon="7.9878183"><ele>259.0</ele><time>2026-04-11T15:04:31.455Z</time></trkpt><trkpt lat="45.022235" lon="7.98779"><ele>259.0</ele><time>2026-04-11T15:04:32.455Z</time></trkpt><trkpt lat="45.0221733" lon="7.9877717"><ele>259.0</ele><time>2026-04-11T15:04:33.455Z</time></trkpt><trkpt lat="45.0220533" lon="7.9877767"><ele>260.16666666666663</ele><time>2026-04-11T15:04:35.455Z</time></trkpt><trkpt lat="45.0219267" lon="7.987805"><ele>261.3333333333333</ele><time>2026-04-11T15:04:37.455Z</time></trkpt><trkpt lat="45.021865" lon="7.9878317"><ele>262.5</ele><time>2026-04-11T15:04:38.455Z</time></trkpt><trkpt lat="45.0218033" lon="7.9878583"><ele>263.6666666666667</ele><time>2026-04-11T15:04:39.455Z</time></trkpt><trkpt lat="45.0217433" lon="7.98789"><ele>264.83333333333337</ele><time>2026-04-11T15:04:40.455Z</time></trkpt><trkpt lat="45.0216317" lon="7.98794"><ele>266.0</ele><time>2026-04-11T15:04:42.455Z</time></trkpt><trkpt lat="45.0215683" lon="7.9879667"><ele>267.6</ele><time>2026-04-11T15:04:43.455Z</time></trkpt><trkpt lat="45.0215067" lon="7.9879967"><ele>269.20000000000005</ele><time>2026-04-11T15:04:44.455Z</time></trkpt><trkpt lat="45.021445" lon="7.9880217"><ele>270.79999999999995</ele><time>2026-04-11T15:04:45.455Z</time></trkpt><trkpt lat="45.0213317" lon="7.9880633"><ele>272.4</ele><time>2026-04-11T15:04:47.455Z</time></trkpt><trkpt lat="45.0212233" lon="7.988095"><ele>274.0</ele><time>2026-04-11T15:04:49.455Z</time></trkpt><trkpt lat="45.02113" lon="7.9881183"><ele>274.0</ele><time>2026-04-11T15:04:51.455Z</time></trkpt><trkpt lat="45.0210417" lon="7.9881283"><ele>274.0</ele><time>2026-04-11T15:04:53.456Z</time></trkpt><trkpt lat="45.0209583" lon="7.988125"><ele>274.0</ele><time>2026-04-11T15:04:55.455Z</time></trkpt><trkpt lat="45.0208767" lon="7.9880967"><ele>274.0</ele><time>2026-04-11T15:04:57.455Z</time></trkpt><trkpt lat="45.0207867" lon="7.9880667"><ele>274.0</ele><time>2026-04-11T15:04:59.455Z</time></trkpt><trkpt lat="45.0207017" lon="7.98804"><ele>274.0</ele><time>2026-04-11T15:05:01.455Z</time></trkpt><trkpt lat="45.0206133" lon="7.9880033"><ele>274.2</ele><time>2026-04-11T15:05:03.455Z</time></trkpt><trkpt lat="45.0205333" lon="7.9879583"><ele>274.4</ele><time>2026-04-11T15:05:05.455Z</time></trkpt><trkpt lat="45.0204483" lon="7.9879267"><ele>274.6</ele><time>2026-04-11T15:05:07.455Z</time></trkpt><trkpt lat="45.0203583" lon="7.9878917"><ele>274.8</ele><time>2026-04-11T15:05:09.455Z</time></trkpt><trkpt lat="45.0202667" lon="7.9878483"><ele>275.0</ele><time>2026-04-11T15:05:11.455Z</time></trkpt><trkpt lat="45.0201733" lon="7.9878133"><ele>275.0</ele><time>2026-04-11T15:05:13.455Z</time></trkpt><trkpt lat="45.0200933" lon="7.9877667"><ele>275.0</ele><time>2026-04-11T15:05:15.455Z</time></trkpt><trkpt lat="45.0199983" lon="7.9877233"><ele>275.0</ele><time>2026-04-11T15:05:17.455Z</time></trkpt><trkpt lat="45.0199067" lon="7.9876817"><ele>275.0</ele><time>2026-04-11T15:05:19.455Z</time></trkpt><trkpt lat="45.0198033" lon="7.9876533"><ele>275.0</ele><time>2026-04-11T15:05:21.455Z</time></trkpt><trkpt lat="45.0196967" lon="7.987665"><ele>274.8</ele><time>2026-04-11T15:05:23.455Z</time></trkpt><trkpt lat="45.0196333" lon="7.9876783"><ele>274.6</ele><time>2026-04-11T15:05:24.455Z</time></trkpt><trkpt lat="45.0195133" lon="7.9877183"><ele>274.4</ele><time>2026-04-11T15:05:26.455Z</time></trkpt><trkpt lat="45.0193883" lon="7.9877717"><ele>274.2</ele><time>2026-04-11T15:05:28.455Z</time></trkpt><trkpt lat="45.0193233" lon="7.98782"><ele>274.0</ele><time>2026-04-11T15:05:29.455Z</time></trkpt><trkpt lat="45.01926" lon="7.987875"><ele>274.00000000000006</ele><time>2026-04-11T15:05:30.455Z</time></trkpt><trkpt lat="45.0191967" lon="7.98794"><ele>274.0</ele><time>2026-04-11T15:05:31.455Z</time></trkpt><trkpt lat="45.01914" lon="7.9879983"><ele>274.0</ele><time>2026-04-11T15:05:32.456Z</time></trkpt><trkpt lat="45.0190833" lon="7.98806"><ele>274.0</ele><time>2026-04-11T15:05:33.455Z</time></trkpt><trkpt lat="45.0190233" lon="7.9881233"><ele>274.0</ele><time>2026-04-11T15:05:34.455Z</time></trkpt><trkpt lat="45.01897" lon="7.9881933"><ele>274.00000000000006</ele><time>2026-04-11T15:05:35.455Z</time></trkpt><trkpt lat="45.018925" lon="7.9882683"><ele>274.0</ele><time>2026-04-11T15:05:36.455Z</time></trkpt><trkpt lat="45.018885" lon="7.988345"><ele>274.14285714285717</ele><time>2026-04-11T15:05:37.455Z</time></trkpt><trkpt lat="45.0188467" lon="7.988425"><ele>274.2857142857143</ele><time>2026-04-11T15:05:38.455Z</time></trkpt><trkpt lat="45.0188133" lon="7.9885067"><ele>274.42857142857144</ele><time>2026-04-11T15:05:39.455Z</time></trkpt><trkpt lat="45.01878" lon="7.9885917"><ele>274.57142857142856</ele><time>2026-04-11T15:05:40.455Z</time></trkpt><trkpt lat="45.0187483" lon="7.9886817"><ele>274.7142857142857</ele><time>2026-04-11T15:05:41.455Z</time></trkpt><trkpt lat="45.0187133" lon="7.9887717"><ele>274.8571428571429</ele><time>2026-04-11T15:05:42.455Z</time></trkpt><trkpt lat="45.0186767" lon="7.9888617"><ele>275.0</ele><time>2026-04-11T15:05:43.455Z</time></trkpt><trkpt lat="45.0186433" lon="7.9889533"><ele>275.0</ele><time>2026-04-11T15:05:44.456Z</time></trkpt><trkpt lat="45.0186083" lon="7.9890467"><ele>275.0</ele><time>2026-04-11T15:05:45.455Z</time></trkpt><trkpt lat="45.018575" lon="7.9891333"><ele>275.0</ele><time>2026-04-11T15:05:46.455Z</time></trkpt><trkpt lat="45.018545" lon="7.989225"><ele>275.0</ele><time>2026-04-11T15:05:47.455Z</time></trkpt><trkpt lat="45.0185117" lon="7.9893167"><ele>275.0</ele><time>2026-04-11T15:05:48.455Z</time></trkpt><trkpt lat="45.0184767" lon="7.9894083"><ele>275.0</ele><time>2026-04-11T15:05:49.456Z</time></trkpt><trkpt lat="45.018445" lon="7.9894983"><ele>275.0</ele><time>2026-04-11T15:05:50.456Z</time></trkpt><trkpt lat="45.0184133" lon="7.9895867"><ele>274.2857142857143</ele><time>2026-04-11T15:05:51.455Z</time></trkpt><trkpt lat="45.0183817" lon="7.9896783"><ele>273.57142857142856</ele><time>2026-04-11T15:05:52.455Z</time></trkpt><trkpt lat="45.0183417" lon="7.98977"><ele>272.85714285714283</ele><time>2026-04-11T15:05:53.455Z</time></trkpt><trkpt lat="45.01831" lon="7.98986"><ele>272.1428571428571</ele><time>2026-04-11T15:05:54.455Z</time></trkpt><trkpt lat="45.0182833" lon="7.989955"><ele>271.4285714285714</ele><time>2026-04-11T15:05:55.455Z</time></trkpt><trkpt lat="45.018255" lon="7.9900433"><ele>270.7142857142857</ele><time>2026-04-11T15:05:56.455Z</time></trkpt><trkpt lat="45.0182267" lon="7.9901367"><ele>270.0</ele><time>2026-04-11T15:05:57.455Z</time></trkpt><trkpt lat="45.0181967" lon="7.9902283"><ele>269.42857142857144</ele><time>2026-04-11T15:05:58.455Z</time></trkpt><trkpt lat="45.01817" lon="7.9903183"><ele>268.85714285714283</ele><time>2026-04-11T15:05:59.455Z</time></trkpt><trkpt lat="45.0181417" lon="7.99041"><ele>268.2857142857143</ele><time>2026-04-11T15:06:00.455Z</time></trkpt><trkpt lat="45.018105" lon="7.9905017"><ele>267.7142857142857</ele><time>2026-04-11T15:06:01.455Z</time></trkpt><trkpt lat="45.0180717" lon="7.99059"><ele>267.1428571428571</ele><time>2026-04-11T15:06:02.455Z</time></trkpt><trkpt lat="45.018035" lon="7.990685"><ele>266.57142857142856</ele><time>2026-04-11T15:06:03.455Z</time></trkpt><trkpt lat="45.0179917" lon="7.9907817"><ele>266.0</ele><time>2026-04-11T15:06:04.455Z</time></trkpt><trkpt lat="45.0179517" lon="7.9908783"><ele>266.0</ele><time>2026-04-11T15:06:05.455Z</time></trkpt><trkpt lat="45.01791" lon="7.990975"><ele>266.0</ele><time>2026-04-11T15:06:06.455Z</time></trkpt><trkpt lat="45.0178633" lon="7.9910733"><ele>266.0</ele><time>2026-04-11T15:06:07.455Z</time></trkpt><trkpt lat="45.01782" lon="7.9911583"><ele>266.0</ele><time>2026-04-11T15:06:08.455Z</time></trkpt><trkpt lat="45.01778" lon="7.99124"><ele>266.0</ele><time>2026-04-11T15:06:09.455Z</time></trkpt><trkpt lat="45.0177383" lon="7.9913233"><ele>266.0</ele><time>2026-04-11T15:06:10.455Z</time></trkpt><trkpt lat="45.01769" lon="7.991405"><ele>266.0</ele><time>2026-04-11T15:06:11.455Z</time></trkpt><trkpt lat="45.0176333" lon="7.991485"><ele>266.0</ele><time>2026-04-11T15:06:12.455Z</time></trkpt><trkpt lat="45.0175767" lon="7.99156"><ele>266.0</ele><time>2026-04-11T15:06:13.455Z</time></trkpt><trkpt lat="45.0175233" lon="7.991625"><ele>266.0</ele><time>2026-04-11T15:06:14.455Z</time></trkpt><trkpt lat="45.01747" lon="7.991685"><ele>266.0</ele><time>2026-04-11T15:06:15.455Z</time></trkpt><trkpt lat="45.0174117" lon="7.9917517"><ele>266.0</ele><time>2026-04-11T15:06:16.455Z</time></trkpt><trkpt lat="45.017355" lon="7.9918117"><ele>266.0</ele><time>2026-04-11T15:06:17.455Z</time></trkpt><trkpt lat="45.0173" lon="7.9918667"><ele>266.57142857142856</ele><time>2026-04-11T15:06:18.455Z</time></trkpt><trkpt lat="45.0172433" lon="7.991925"><ele>267.1428571428571</ele><time>2026-04-11T15:06:19.455Z</time></trkpt><trkpt lat="45.017185" lon="7.9919767"><ele>267.7142857142857</ele><time>2026-04-11T15:06:20.455Z</time></trkpt><trkpt lat="45.01713" lon="7.99203"><ele>268.2857142857143</ele><time>2026-04-11T15:06:21.455Z</time></trkpt><trkpt lat="45.0170667" lon="7.9920817"><ele>268.85714285714283</ele><time>2026-04-11T15:06:22.456Z</time></trkpt><trkpt lat="45.0170033" lon="7.9921317"><ele>269.42857142857144</ele><time>2026-04-11T15:06:23.455Z</time></trkpt><trkpt lat="45.0169417" lon="7.9921817"><ele>270.0</ele><time>2026-04-11T15:06:24.455Z</time></trkpt><trkpt lat="45.016885" lon="7.99223"><ele>270.0</ele><time>2026-04-11T15:06:25.455Z</time></trkpt><trkpt lat="45.016825" lon="7.9922733"><ele>270.0</ele><time>2026-04-11T15:06:26.455Z</time></trkpt><trkpt lat="45.016765" lon="7.9923183"><ele>270.0</ele><time>2026-04-11T15:06:27.455Z</time></trkpt><trkpt lat="45.016705" lon="7.9923683"><ele>270.0</ele><time>2026-04-11T15:06:28.455Z</time></trkpt><trkpt lat="45.0166433" lon="7.992415"><ele>270.0</ele><time>2026-04-11T15:06:29.455Z</time></trkpt><trkpt lat="45.0165817" lon="7.9924533"><ele>270.0</ele><time>2026-04-11T15:06:30.455Z</time></trkpt><trkpt lat="45.0165233" lon="7.9924883"><ele>270.0</ele><time>2026-04-11T15:06:31.455Z</time></trkpt><trkpt lat="45.01646" lon="7.9925233"><ele>270.0</ele><time>2026-04-11T15:06:32.455Z</time></trkpt><trkpt lat="45.0164017" lon="7.9925667"><ele>270.0</ele><time>2026-04-11T15:06:33.455Z</time></trkpt><trkpt lat="45.0163417" lon="7.9926033"><ele>270.0</ele><time>2026-04-11T15:06:34.455Z</time></trkpt><trkpt lat="45.0162767" lon="7.99263"><ele>270.0</ele><time>2026-04-11T15:06:35.455Z</time></trkpt><trkpt lat="45.0162133" lon="7.992655"><ele>270.0</ele><time>2026-04-11T15:06:36.455Z</time></trkpt><trkpt lat="45.01615" lon="7.9926717"><ele>270.0</ele><time>2026-04-11T15:06:37.456Z</time></trkpt><trkpt lat="45.01603" lon="7.9927033"><ele>270.0</ele><time>2026-04-11T15:06:39.455Z</time></trkpt><trkpt lat="45.0159617" lon="7.9927217"><ele>270.0</ele><time>2026-04-11T15:06:40.455Z</time></trkpt><trkpt lat="45.015895" lon="7.9927417"><ele>270.0</ele><time>2026-04-11T15:06:41.455Z</time></trkpt><trkpt lat="45.0158283" lon="7.99275"><ele>270.0</ele><time>2026-04-11T15:06:42.455Z</time></trkpt><trkpt lat="45.015765" lon="7.9927617"><ele>270.0</ele><time>2026-04-11T15:06:43.455Z</time></trkpt><trkpt lat="45.0157017" lon="7.99276"><ele>270.0</ele><time>2026-04-11T15:06:44.455Z</time></trkpt><trkpt lat="45.0156383" lon="7.9927617"><ele>270.0</ele><time>2026-04-11T15:06:45.455Z</time></trkpt><trkpt lat="45.0155667" lon="7.9927617"><ele>269.42857142857144</ele><time>2026-04-11T15:06:46.455Z</time></trkpt><trkpt lat="45.0154967" lon="7.992755"><ele>268.85714285714283</ele><time>2026-04-11T15:06:47.455Z</time></trkpt><trkpt lat="45.0154233" lon="7.9927483"><ele>268.2857142857143</ele><time>2026-04-11T15:06:48.455Z</time></trkpt><trkpt lat="45.0153517" lon="7.99274"><ele>267.7142857142857</ele><time>2026-04-11T15:06:49.455Z</time></trkpt><trkpt lat="45.0152833" lon="7.992725"><ele>267.1428571428571</ele><time>2026-04-11T15:06:50.455Z</time></trkpt><trkpt lat="45.015215" lon="7.9927067"><ele>266.57142857142856</ele><time>2026-04-11T15:06:51.456Z</time></trkpt><trkpt lat="45.0151467" lon="7.9926917"><ele>266.0</ele><time>2026-04-11T15:06:52.455Z</time></trkpt><trkpt lat="45.0150733" lon="7.992675"><ele>265.1666666666667</ele><time>2026-04-11T15:06:53.455Z</time></trkpt><trkpt lat="45.0149867" lon="7.99265"><ele>264.33333333333337</ele><time>2026-04-11T15:06:54.455Z</time></trkpt><trkpt lat="45.0149033" lon="7.9926183"><ele>263.5</ele><time>2026-04-11T15:06:55.456Z</time></trkpt><trkpt lat="45.01482" lon="7.99259"><ele>262.6666666666667</ele><time>2026-04-11T15:06:56.455Z</time></trkpt><trkpt lat="45.0147433" lon="7.992565"><ele>261.8333333333333</ele><time>2026-04-11T15:06:57.455Z</time></trkpt><trkpt lat="45.01467" lon="7.99254"><ele>261.0</ele><time>2026-04-11T15:06:58.455Z</time></trkpt><trkpt lat="45.0145933" lon="7.9925117"><ele>261.1666666666667</ele><time>2026-04-11T15:06:59.455Z</time></trkpt><trkpt lat="45.014515" lon="7.9924867"><ele>261.3333333333333</ele><time>2026-04-11T15:07:00.455Z</time></trkpt><trkpt lat="45.0144433" lon="7.992455"><ele>261.5</ele><time>2026-04-11T15:07:01.455Z</time></trkpt><trkpt lat="45.0143683" lon="7.99243"><ele>261.66666666666663</ele><time>2026-04-11T15:07:02.455Z</time></trkpt><trkpt lat="45.0142917" lon="7.9924083"><ele>261.8333333333333</ele><time>2026-04-11T15:07:03.455Z</time></trkpt><trkpt lat="45.0142167" lon="7.99239"><ele>262.0</ele><time>2026-04-11T15:07:04.455Z</time></trkpt><trkpt lat="45.0141367" lon="7.9923667"><ele>262.0</ele><time>2026-04-11T15:07:05.455Z</time></trkpt><trkpt lat="45.0140567" lon="7.9923417"><ele>262.0</ele><time>2026-04-11T15:07:06.455Z</time></trkpt><trkpt lat="45.013975" lon="7.99232"><ele>262.0</ele><time>2026-04-11T15:07:07.455Z</time></trkpt><trkpt lat="45.0138983" lon="7.9923017"><ele>262.0</ele><time>2026-04-11T15:07:08.455Z</time></trkpt><trkpt lat="45.01382" lon="7.9922783"><ele>262.0</ele><time>2026-04-11T15:07:09.455Z</time></trkpt><trkpt lat="45.01374" lon="7.9922483"><ele>262.0</ele><time>2026-04-11T15:07:10.455Z</time></trkpt><trkpt lat="45.0136633" lon="7.992215"><ele>262.0</ele><time>2026-04-11T15:07:11.455Z</time></trkpt><trkpt lat="45.0135883" lon="7.9921717"><ele>262.0</ele><time>2026-04-11T15:07:12.455Z</time></trkpt><trkpt lat="45.0135133" lon="7.9921283"><ele>262.0</ele><time>2026-04-11T15:07:13.455Z</time></trkpt><trkpt lat="45.0134367" lon="7.9920733"><ele>262.0</ele><time>2026-04-11T15:07:14.455Z</time></trkpt><trkpt lat="45.01336" lon="7.9920083"><ele>262.0</ele><time>2026-04-11T15:07:15.455Z</time></trkpt><trkpt lat="45.013285" lon="7.99194"><ele>262.0</ele><time>2026-04-11T15:07:16.455Z</time></trkpt><trkpt lat="45.0132167" lon="7.99186"><ele>262.3333333333333</ele><time>2026-04-11T15:07:17.455Z</time></trkpt><trkpt lat="45.0131533" lon="7.9917733"><ele>262.66666666666663</ele><time>2026-04-11T15:07:18.455Z</time></trkpt><trkpt lat="45.0130967" lon="7.99168"><ele>263.0</ele><time>2026-04-11T15:07:19.456Z</time></trkpt><trkpt lat="45.0130417" lon="7.9915767"><ele>263.3333333333333</ele><time>2026-04-11T15:07:20.455Z</time></trkpt><trkpt lat="45.01299" lon="7.9914717"><ele>263.6666666666667</ele><time>2026-04-11T15:07:21.455Z</time></trkpt><trkpt lat="45.0129433" lon="7.9913617"><ele>264.0</ele><time>2026-04-11T15:07:22.455Z</time></trkpt><trkpt lat="45.012895" lon="7.991255"><ele>264.0</ele><time>2026-04-11T15:07:23.455Z</time></trkpt><trkpt lat="45.012845" lon="7.9911467"><ele>264.0</ele><time>2026-04-11T15:07:24.455Z</time></trkpt><trkpt lat="45.0127967" lon="7.9910383"><ele>264.0</ele><time>2026-04-11T15:07:25.455Z</time></trkpt><trkpt lat="45.0127467" lon="7.9909283"><ele>264.0</ele><time>2026-04-11T15:07:26.455Z</time></trkpt><trkpt lat="45.012695" lon="7.99082"><ele>264.0</ele><time>2026-04-11T15:07:27.455Z</time></trkpt><trkpt lat="45.012635" lon="7.9907183"><ele>262.8</ele><time>2026-04-11T15:07:28.455Z</time></trkpt><trkpt lat="45.0125733" lon="7.9906217"><ele>261.59999999999997</ele><time>2026-04-11T15:07:29.455Z</time></trkpt><trkpt lat="45.012505" lon="7.9905283"><ele>260.4</ele><time>2026-04-11T15:07:30.455Z</time></trkpt><trkpt lat="45.0124317" lon="7.9904467"><ele>259.2</ele><time>2026-04-11T15:07:31.455Z</time></trkpt><trkpt lat="45.012355" lon="7.9903817"><ele>258.0</ele><time>2026-04-11T15:07:32.455Z</time></trkpt><trkpt lat="45.012275" lon="7.9903267"><ele>257.6</ele><time>2026-04-11T15:07:33.455Z</time></trkpt><trkpt lat="45.012185" lon="7.9902833"><ele>257.20000000000005</ele><time>2026-04-11T15:07:34.455Z</time></trkpt><trkpt lat="45.0120883" lon="7.9902433"><ele>256.8</ele><time>2026-04-11T15:07:35.455Z</time></trkpt><trkpt lat="45.0119917" lon="7.9902033"><ele>256.40000000000003</ele><time>2026-04-11T15:07:36.455Z</time></trkpt><trkpt lat="45.011895" lon="7.99017"><ele>256.0</ele><time>2026-04-11T15:07:37.455Z</time></trkpt><trkpt lat="45.0118033" lon="7.9901367"><ele>255.99999999999997</ele><time>2026-04-11T15:07:38.455Z</time></trkpt><trkpt lat="45.0117183" lon="7.9901067"><ele>256.0</ele><time>2026-04-11T15:07:39.455Z</time></trkpt><trkpt lat="45.0116317" lon="7.9901"><ele>256.0</ele><time>2026-04-11T15:07:40.456Z</time></trkpt><trkpt lat="45.0115517" lon="7.9901183"><ele>256.0</ele><time>2026-04-11T15:07:41.455Z</time></trkpt><trkpt lat="45.0114767" lon="7.9901567"><ele>255.99999999999997</ele><time>2026-04-11T15:07:42.455Z</time></trkpt><trkpt lat="45.0114017" lon="7.990215"><ele>256.0</ele><time>2026-04-11T15:07:43.455Z</time></trkpt><trkpt lat="45.0113333" lon="7.990275"><ele>255.33333333333331</ele><time>2026-04-11T15:07:44.455Z</time></trkpt><trkpt lat="45.0112633" lon="7.9903367"><ele>254.66666666666666</ele><time>2026-04-11T15:07:45.456Z</time></trkpt><trkpt lat="45.0111917" lon="7.990395"><ele>254.0</ele><time>2026-04-11T15:07:46.456Z</time></trkpt><trkpt lat="45.0111267" lon="7.9904483"><ele>253.33333333333331</ele><time>2026-04-11T15:07:47.455Z</time></trkpt><trkpt lat="45.0110617" lon="7.9905017"><ele>252.66666666666666</ele><time>2026-04-11T15:07:48.456Z</time></trkpt><trkpt lat="45.01099" lon="7.990535"><ele>252.0</ele><time>2026-04-11T15:07:49.455Z</time></trkpt><trkpt lat="45.0109167" lon="7.9905633"><ele>252.0</ele><time>2026-04-11T15:07:50.455Z</time></trkpt><trkpt lat="45.010845" lon="7.9905883"><ele>252.0</ele><time>2026-04-11T15:07:51.456Z</time></trkpt><trkpt lat="45.0107733" lon="7.9906083"><ele>252.0</ele><time>2026-04-11T15:07:52.455Z</time></trkpt><trkpt lat="45.0107" lon="7.990625"><ele>252.0</ele><time>2026-04-11T15:07:53.455Z</time></trkpt><trkpt lat="45.0106267" lon="7.9906517"><ele>252.0</ele><time>2026-04-11T15:07:54.455Z</time></trkpt><trkpt lat="45.0105583" lon="7.9906667"><ele>252.0</ele><time>2026-04-11T15:07:55.455Z</time></trkpt><trkpt lat="45.0104567" lon="7.9906933"><ele>252.0</ele><time>2026-04-11T15:07:57.455Z</time></trkpt><trkpt lat="45.010375" lon="7.9907183"><ele>252.0</ele><time>2026-04-11T15:08:00.456Z</time></trkpt><trkpt lat="45.0102917" lon="7.9907467"><ele>252.0</ele><time>2026-04-11T15:08:04.455Z</time></trkpt><trkpt lat="45.0102267" lon="7.9907533"><ele>252.0</ele><time>2026-04-11T15:08:06.455Z</time></trkpt><trkpt lat="45.010135" lon="7.990765"><ele>252.0</ele><time>2026-04-11T15:08:09.455Z</time></trkpt><trkpt lat="45.0100717" lon="7.9907717"><ele>252.0</ele><time>2026-04-11T15:08:12.455Z</time></trkpt><trkpt lat="45.010005" lon="7.990815"><ele>251.71428571428572</ele><time>2026-04-11T15:08:14.455Z</time></trkpt><trkpt lat="45.0099333" lon="7.9908017"><ele>251.42857142857144</ele><time>2026-04-11T15:08:18.455Z</time></trkpt><trkpt lat="45.009865" lon="7.9908067"><ele>251.14285714285714</ele><time>2026-04-11T15:08:22.455Z</time></trkpt><trkpt lat="45.0097967" lon="7.9907667"><ele>250.85714285714286</ele><time>2026-04-11T15:08:26.455Z</time></trkpt><trkpt lat="45.0097333" lon="7.9907067"><ele>250.57142857142858</ele><time>2026-04-11T15:08:30.455Z</time></trkpt><trkpt lat="45.0096883" lon="7.9906217"><ele>250.28571428571428</ele><time>2026-04-11T15:08:33.455Z</time></trkpt><trkpt lat="45.0096417" lon="7.9905483"><ele>250.0</ele><time>2026-04-11T15:08:35.455Z</time></trkpt><trkpt lat="45.0095783" lon="7.990465"><ele>249.99999999999997</ele><time>2026-04-11T15:08:38.455Z</time></trkpt><trkpt lat="45.00953" lon="7.9903867"><ele>250.0</ele><time>2026-04-11T15:08:42.455Z</time></trkpt><trkpt lat="45.0095317" lon="7.99048"><ele>250.0</ele><time>2026-04-11T15:08:55.455Z</time></trkpt><trkpt lat="45.0095933" lon="7.990545"><ele>250.0</ele><time>2026-04-11T15:08:59.455Z</time></trkpt><trkpt lat="45.0096533" lon="7.9906333"><ele>249.99999999999997</ele><time>2026-04-11T15:09:03.455Z</time></trkpt><trkpt lat="45.009715" lon="7.9907367"><ele>250.0</ele><time>2026-04-11T15:09:06.455Z</time></trkpt><trkpt lat="45.0097617" lon="7.9908067"><ele>250.4</ele><time>2026-04-11T15:09:08.455Z</time></trkpt><trkpt lat="45.009815" lon="7.9908617"><ele>250.8</ele><time>2026-04-11T15:09:10.455Z</time></trkpt><trkpt lat="45.0099083" lon="7.990935"><ele>251.2</ele><time>2026-04-11T15:09:13.455Z</time></trkpt><trkpt lat="45.0100117" lon="7.990905"><ele>251.6</ele><time>2026-04-11T15:09:15.455Z</time></trkpt><trkpt lat="45.0100917" lon="7.990875"><ele>252.0</ele><time>2026-04-11T15:09:17.455Z</time></trkpt><trkpt lat="45.0102017" lon="7.9908383"><ele>252.0</ele><time>2026-04-11T15:09:20.455Z</time></trkpt><trkpt lat="45.0102933" lon="7.9907883"><ele>252.0</ele><time>2026-04-11T15:09:22.455Z</time></trkpt><trkpt lat="45.0103633" lon="7.9908183"><ele>252.0</ele><time>2026-04-11T15:09:25.455Z</time></trkpt><trkpt lat="45.010395" lon="7.9909367"><ele>252.0</ele><time>2026-04-11T15:09:28.455Z</time></trkpt><trkpt lat="45.0103417" lon="7.991035"><ele>252.0</ele><time>2026-04-11T15:09:32.455Z</time></trkpt><trkpt lat="45.0102383" lon="7.9910717"><ele>250.16666666666666</ele><time>2026-04-11T15:09:34.455Z</time></trkpt><trkpt lat="45.0101733" lon="7.991095"><ele>248.33333333333331</ele><time>2026-04-11T15:09:35.455Z</time></trkpt><trkpt lat="45.010105" lon="7.991125"><ele>246.5</ele><time>2026-04-11T15:09:36.455Z</time></trkpt><trkpt lat="45.0100433" lon="7.9911433"><ele>244.66666666666666</ele><time>2026-04-11T15:09:37.455Z</time></trkpt><trkpt lat="45.00992" lon="7.9911833"><ele>242.83333333333331</ele><time>2026-04-11T15:09:39.455Z</time></trkpt><trkpt lat="45.0098167" lon="7.9912317"><ele>241.0</ele><time>2026-04-11T15:09:41.455Z</time></trkpt><trkpt lat="45.009705" lon="7.9912617"><ele>240.16666666666666</ele><time>2026-04-11T15:09:43.455Z</time></trkpt><trkpt lat="45.009635" lon="7.9912683"><ele>239.33333333333331</ele><time>2026-04-11T15:09:44.455Z</time></trkpt><trkpt lat="45.0095617" lon="7.99126"><ele>238.5</ele><time>2026-04-11T15:09:45.455Z</time></trkpt><trkpt lat="45.0094767" lon="7.99124"><ele>237.66666666666669</ele><time>2026-04-11T15:09:46.455Z</time></trkpt><trkpt lat="45.00939" lon="7.9912067"><ele>236.83333333333334</ele><time>2026-04-11T15:09:47.455Z</time></trkpt><trkpt lat="45.0093083" lon="7.9911733"><ele>236.0</ele><time>2026-04-11T15:09:48.455Z</time></trkpt><trkpt lat="45.0092267" lon="7.9911433"><ele>234.16666666666669</ele><time>2026-04-11T15:09:49.455Z</time></trkpt><trkpt lat="45.00914" lon="7.991105"><ele>232.33333333333334</ele><time>2026-04-11T15:09:50.455Z</time></trkpt><trkpt lat="45.00906" lon="7.9910717"><ele>230.5</ele><time>2026-04-11T15:09:51.455Z</time></trkpt><trkpt lat="45.0089833" lon="7.9910367"><ele>228.66666666666669</ele><time>2026-04-11T15:09:52.455Z</time></trkpt><trkpt lat="45.0089117" lon="7.991005"><ele>226.83333333333334</ele><time>2026-04-11T15:09:53.455Z</time></trkpt><trkpt lat="45.0088367" lon="7.99098"><ele>225.0</ele><time>2026-04-11T15:09:54.455Z</time></trkpt><trkpt lat="45.00877" lon="7.9909583"><ele>225.0</ele><time>2026-04-11T15:09:55.455Z</time></trkpt><trkpt lat="45.008705" lon="7.990935"><ele>225.0</ele><time>2026-04-11T15:09:56.455Z</time></trkpt><trkpt lat="45.0085917" lon="7.9908883"><ele>225.0</ele><time>2026-04-11T15:09:58.456Z</time></trkpt><trkpt lat="45.008475" lon="7.9908383"><ele>225.0</ele><time>2026-04-11T15:10:00.455Z</time></trkpt><trkpt lat="45.0083567" lon="7.9908017"><ele>225.0</ele><time>2026-04-11T15:10:02.455Z</time></trkpt><trkpt lat="45.0082417" lon="7.99075"><ele>225.4</ele><time>2026-04-11T15:10:04.455Z</time></trkpt><trkpt lat="45.0081417" lon="7.990695"><ele>225.8</ele><time>2026-04-11T15:10:06.455Z</time></trkpt><trkpt lat="45.0080467" lon="7.9906467"><ele>226.2</ele><time>2026-04-11T15:10:08.455Z</time></trkpt><trkpt lat="45.00796" lon="7.9905567"><ele>226.6</ele><time>2026-04-11T15:10:10.455Z</time></trkpt><trkpt lat="45.0078983" lon="7.990435"><ele>227.0</ele><time>2026-04-11T15:10:12.455Z</time></trkpt><trkpt lat="45.007835" lon="7.9903167"><ele>227.0</ele><time>2026-04-11T15:10:14.455Z</time></trkpt><trkpt lat="45.0077533" lon="7.990205"><ele>227.0</ele><time>2026-04-11T15:10:16.455Z</time></trkpt><trkpt lat="45.0076767" lon="7.990105"><ele>227.0</ele><time>2026-04-11T15:10:18.455Z</time></trkpt><trkpt lat="45.007595" lon="7.9900333"><ele>227.0</ele><time>2026-04-11T15:10:20.455Z</time></trkpt><trkpt lat="45.0075217" lon="7.9899733"><ele>227.0</ele><time>2026-04-11T15:10:22.455Z</time></trkpt><trkpt lat="45.0074433" lon="7.9898983"><ele>225.8</ele><time>2026-04-11T15:10:24.455Z</time></trkpt><trkpt lat="45.0073633" lon="7.9898167"><ele>224.6</ele><time>2026-04-11T15:10:26.455Z</time></trkpt><trkpt lat="45.0072833" lon="7.9897367"><ele>223.40000000000003</ele><time>2026-04-11T15:10:28.455Z</time></trkpt><trkpt lat="45.0071983" lon="7.989645"><ele>222.20000000000002</ele><time>2026-04-11T15:10:30.455Z</time></trkpt><trkpt lat="45.0071067" lon="7.989545"><ele>221.0</ele><time>2026-04-11T15:10:32.455Z</time></trkpt><trkpt lat="45.0070583" lon="7.9894833"><ele>221.0</ele><time>2026-04-11T15:10:33.455Z</time></trkpt><trkpt lat="45.0069617" lon="7.98937"><ele>221.00000000000003</ele><time>2026-04-11T15:10:35.455Z</time></trkpt><trkpt lat="45.0069083" lon="7.9893067"><ele>221.00000000000003</ele><time>2026-04-11T15:10:36.455Z</time></trkpt><trkpt lat="45.00681" lon="7.9892117"><ele>221.0</ele><time>2026-04-11T15:10:38.455Z</time></trkpt><trkpt lat="45.006735" lon="7.9891067"><ele>221.0</ele><time>2026-04-11T15:10:40.455Z</time></trkpt><trkpt lat="45.0066533" lon="7.9890167"><ele>221.50000000000003</ele><time>2026-04-11T15:10:42.455Z</time></trkpt><trkpt lat="45.0065617" lon="7.9889333"><ele>222.0</ele><time>2026-04-11T15:10:44.455Z</time></trkpt><trkpt lat="45.0064483" lon="7.9888717"><ele>222.5</ele><time>2026-04-11T15:10:46.455Z</time></trkpt><trkpt lat="45.006385" lon="7.9888483"><ele>223.0</ele><time>2026-04-11T15:10:47.455Z</time></trkpt><trkpt lat="45.0063117" lon="7.9888367"><ele>223.50000000000003</ele><time>2026-04-11T15:10:48.455Z</time></trkpt><trkpt lat="45.0062333" lon="7.9888283"><ele>224.0</ele><time>2026-04-11T15:10:49.456Z</time></trkpt><trkpt lat="45.0061467" lon="7.988805"><ele>224.0</ele><time>2026-04-11T15:10:50.455Z</time></trkpt><trkpt lat="45.0060517" lon="7.98878"><ele>223.99999999999997</ele><time>2026-04-11T15:10:51.455Z</time></trkpt><trkpt lat="45.005955" lon="7.988745"><ele>223.99999999999997</ele><time>2026-04-11T15:10:52.455Z</time></trkpt><trkpt lat="45.0058667" lon="7.9887133"><ele>224.0</ele><time>2026-04-11T15:10:53.455Z</time></trkpt><trkpt lat="45.0057867" lon="7.988685"><ele>224.0</ele><time>2026-04-11T15:10:54.455Z</time></trkpt><trkpt lat="45.00568" lon="7.98864"><ele>222.16666666666669</ele><time>2026-04-11T15:10:56.455Z</time></trkpt><trkpt lat="45.0055983" lon="7.9886067"><ele>220.33333333333334</ele><time>2026-04-11T15:10:58.455Z</time></trkpt><trkpt lat="45.005525" lon="7.9885983"><ele>218.5</ele><time>2026-04-11T15:11:00.455Z</time></trkpt><trkpt lat="45.00551" lon="7.9886867"><ele>216.66666666666669</ele><time>2026-04-11T15:11:02.455Z</time></trkpt><trkpt lat="45.0055883" lon="7.9887917"><ele>214.83333333333334</ele><time>2026-04-11T15:11:04.455Z</time></trkpt><trkpt lat="45.0056417" lon="7.9888483"><ele>213.0</ele><time>2026-04-11T15:11:05.455Z</time></trkpt><trkpt lat="45.0056933" lon="7.9889183"><ele>213.0</ele><time>2026-04-11T15:11:06.455Z</time></trkpt><trkpt lat="45.0057967" lon="7.9890133"><ele>213.0</ele><time>2026-04-11T15:11:08.455Z</time></trkpt><trkpt lat="45.005875" lon="7.98907"><ele>213.0</ele><time>2026-04-11T15:11:10.455Z</time></trkpt><trkpt lat="45.00592" lon="7.98915"><ele>213.0</ele><time>2026-04-11T15:11:12.455Z</time></trkpt><trkpt lat="45.00586" lon="7.9892067"><ele>213.0</ele><time>2026-04-11T15:11:16.455Z</time></trkpt><trkpt lat="45.00578" lon="7.9891517"><ele>213.0</ele><time>2026-04-11T15:11:18.455Z</time></trkpt><trkpt lat="45.005685" lon="7.98908"><ele>213.0</ele><time>2026-04-11T15:11:20.455Z</time></trkpt><trkpt lat="45.0055867" lon="7.989005"><ele>213.0</ele><time>2026-04-11T15:11:22.455Z</time></trkpt><trkpt lat="45.0054933" lon="7.9889383"><ele>213.0</ele><time>2026-04-11T15:11:24.455Z</time></trkpt><trkpt lat="45.0054067" lon="7.988865"><ele>213.0</ele><time>2026-04-11T15:11:26.455Z</time></trkpt><trkpt lat="45.0053267" lon="7.9887783"><ele>213.0</ele><time>2026-04-11T15:11:28.455Z</time></trkpt><trkpt lat="45.0052333" lon="7.9886667"><ele>213.0</ele><time>2026-04-11T15:11:30.455Z</time></trkpt><trkpt lat="45.0051767" lon="7.9886167"><ele>213.0</ele><time>2026-04-11T15:11:31.455Z</time></trkpt><trkpt lat="45.0051167" lon="7.9885567"><ele>213.0</ele><time>2026-04-11T15:11:32.455Z</time></trkpt><trkpt lat="45.0050617" lon="7.9884983"><ele>213.0</ele><time>2026-04-11T15:11:33.455Z</time></trkpt><trkpt lat="45.0049667" lon="7.988395"><ele>213.0</ele><time>2026-04-11T15:11:35.455Z</time></trkpt><trkpt lat="45.0048817" lon="7.9883083"><ele>213.0</ele><time>2026-04-11T15:11:37.455Z</time></trkpt><trkpt lat="45.0048017" lon="7.9882267"><ele>213.33333333333334</ele><time>2026-04-11T15:11:39.455Z</time></trkpt><trkpt lat="45.00471" lon="7.9881717"><ele>213.66666666666669</ele><time>2026-04-11T15:11:41.455Z</time></trkpt><trkpt lat="45.004645" lon="7.9881567"><ele>214.0</ele><time>2026-04-11T15:11:43.455Z</time></trkpt><trkpt lat="45.0045767" lon="7.9881833"><ele>214.33333333333334</ele><time>2026-04-11T15:11:45.455Z</time></trkpt><trkpt lat="45.00452" lon="7.9882883"><ele>214.66666666666669</ele><time>2026-04-11T15:11:47.455Z</time></trkpt><trkpt lat="45.00447" lon="7.98842"><ele>215.0</ele><time>2026-04-11T15:11:49.455Z</time></trkpt><trkpt lat="45.0044083" lon="7.9885483"><ele>215.0</ele><time>2026-04-11T15:11:51.455Z</time></trkpt><trkpt lat="45.00435" lon="7.9886917"><ele>215.0</ele><time>2026-04-11T15:11:53.456Z</time></trkpt><trkpt lat="45.0042933" lon="7.98882"><ele>215.0</ele><time>2026-04-11T15:11:55.455Z</time></trkpt><trkpt lat="45.00424" lon="7.9889567"><ele>215.0</ele><time>2026-04-11T15:11:57.455Z</time></trkpt><trkpt lat="45.0041867" lon="7.9890883"><ele>215.0</ele><time>2026-04-11T15:11:59.455Z</time></trkpt><trkpt lat="45.0041317" lon="7.9892233"><ele>215.00000000000003</ele><time>2026-04-11T15:12:01.455Z</time></trkpt><trkpt lat="45.004085" lon="7.9893433"><ele>215.0</ele><time>2026-04-11T15:12:03.455Z</time></trkpt><trkpt lat="45.0040367" lon="7.98946"><ele>215.0</ele><time>2026-04-11T15:12:05.455Z</time></trkpt><trkpt lat="45.0039833" lon="7.9895683"><ele>215.0</ele><time>2026-04-11T15:12:07.455Z</time></trkpt><trkpt lat="45.0039467" lon="7.98966"><ele>215.00000000000003</ele><time>2026-04-11T15:12:09.455Z</time></trkpt><trkpt lat="45.0038983" lon="7.9897483"><ele>215.0</ele><time>2026-04-11T15:12:11.456Z</time></trkpt><trkpt lat="45.003845" lon="7.98984"><ele>215.00000000000003</ele><time>2026-04-11T15:12:13.456Z</time></trkpt><trkpt lat="45.0038" lon="7.9899333"><ele>215.0</ele><time>2026-04-11T15:12:15.455Z</time></trkpt><trkpt lat="45.0037633" lon="7.990035"><ele>215.0</ele><time>2026-04-11T15:12:17.455Z</time></trkpt><trkpt lat="45.0037317" lon="7.9901383"><ele>215.0</ele><time>2026-04-11T15:12:19.455Z</time></trkpt><trkpt lat="45.0036967" lon="7.99024"><ele>215.00000000000003</ele><time>2026-04-11T15:12:21.455Z</time></trkpt><trkpt lat="45.0036733" lon="7.9903617"><ele>215.0</ele><time>2026-04-11T15:12:23.455Z</time></trkpt><trkpt lat="45.0036617" lon="7.990475"><ele>215.85714285714286</ele><time>2026-04-11T15:12:25.455Z</time></trkpt><trkpt lat="45.0036567" lon="7.9905867"><ele>216.71428571428572</ele><time>2026-04-11T15:12:27.455Z</time></trkpt><trkpt lat="45.003655" lon="7.9906917"><ele>217.57142857142858</ele><time>2026-04-11T15:12:29.455Z</time></trkpt><trkpt lat="45.0036517" lon="7.9908"><ele>218.42857142857144</ele><time>2026-04-11T15:12:31.455Z</time></trkpt><trkpt lat="45.0036483" lon="7.9909"><ele>219.28571428571428</ele><time>2026-04-11T15:12:33.456Z</time></trkpt><trkpt lat="45.00365" lon="7.9909967"><ele>220.14285714285717</ele><time>2026-04-11T15:12:35.455Z</time></trkpt><trkpt lat="45.0036517" lon="7.991095"><ele>221.0</ele><time>2026-04-11T15:12:37.455Z</time></trkpt><trkpt lat="45.00365" lon="7.9912267"><ele>221.33333333333334</ele><time>2026-04-11T15:12:40.455Z</time></trkpt><trkpt lat="45.00365" lon="7.9913183"><ele>221.66666666666669</ele><time>2026-04-11T15:12:42.455Z</time></trkpt><trkpt lat="45.00363" lon="7.991455"><ele>222.0</ele><time>2026-04-11T15:12:45.454Z</time></trkpt><trkpt lat="45.0036283" lon="7.9915467"><ele>222.33333333333331</ele><time>2026-04-11T15:12:47.454Z</time></trkpt><trkpt lat="45.0036383" lon="7.9916717"><ele>222.66666666666666</ele><time>2026-04-11T15:12:50.454Z</time></trkpt><trkpt lat="45.00365" lon="7.9917767"><ele>223.0</ele><time>2026-04-11T15:12:52.454Z</time></trkpt><trkpt lat="45.003665" lon="7.9918733"><ele>223.0</ele><time>2026-04-11T15:12:54.454Z</time></trkpt><trkpt lat="45.0037" lon="7.9919583"><ele>223.0</ele><time>2026-04-11T15:12:56.454Z</time></trkpt><trkpt lat="45.003745" lon="7.9920217"><ele>223.0</ele><time>2026-04-11T15:12:58.454Z</time></trkpt><trkpt lat="45.0038233" lon="7.99208"><ele>223.0</ele><time>2026-04-11T15:13:01.454Z</time></trkpt><trkpt lat="45.0038867" lon="7.992125"><ele>223.0</ele><time>2026-04-11T15:13:03.454Z</time></trkpt><trkpt lat="45.003945" lon="7.9921833"><ele>223.0</ele><time>2026-04-11T15:13:05.454Z</time></trkpt><trkpt lat="45.0040033" lon="7.9922233"><ele>223.0</ele><time>2026-04-11T15:13:07.454Z</time></trkpt><trkpt lat="45.0040617" lon="7.99228"><ele>222.99999999999997</ele><time>2026-04-11T15:13:09.454Z</time></trkpt><trkpt lat="45.004125" lon="7.99232"><ele>223.0</ele><time>2026-04-11T15:13:11.454Z</time></trkpt><trkpt lat="45.0041767" lon="7.9924133"><ele>223.0</ele><time>2026-04-11T15:13:14.454Z</time></trkpt><trkpt lat="45.0041617" lon="7.9925317"><ele>223.0</ele><time>2026-04-11T15:13:17.454Z</time></trkpt><trkpt lat="45.004135" lon="7.9926567"><ele>222.99999999999997</ele><time>2026-04-11T15:13:20.454Z</time></trkpt><trkpt lat="45.004135" lon="7.992765"><ele>223.0</ele><time>2026-04-11T15:13:22.454Z</time></trkpt><trkpt lat="45.0041483" lon="7.992865"><ele>224.99999999999997</ele><time>2026-04-11T15:13:24.454Z</time></trkpt><trkpt lat="45.00418" lon="7.992955"><ele>227.0</ele><time>2026-04-11T15:13:26.454Z</time></trkpt><trkpt lat="45.0042283" lon="7.9930483"><ele>229.0</ele><time>2026-04-11T15:13:28.454Z</time></trkpt><trkpt lat="45.00428" lon="7.993145"><ele>231.0</ele><time>2026-04-11T15:13:30.454Z</time></trkpt><trkpt lat="45.004315" lon="7.993235"><ele>232.99999999999997</ele><time>2026-04-11T15:13:32.454Z</time></trkpt><trkpt lat="45.004365" lon="7.993305"><ele>235.0</ele><time>2026-04-11T15:13:34.455Z</time></trkpt><trkpt lat="45.00442" lon="7.993395"><ele>235.83333333333331</ele><time>2026-04-11T15:13:36.455Z</time></trkpt><trkpt lat="45.004465" lon="7.993475"><ele>236.66666666666666</ele><time>2026-04-11T15:13:38.454Z</time></trkpt><trkpt lat="45.0044917" lon="7.9935583"><ele>237.5</ele><time>2026-04-11T15:13:40.454Z</time></trkpt><trkpt lat="45.0045183" lon="7.9936883"><ele>238.33333333333331</ele><time>2026-04-11T15:13:43.454Z</time></trkpt><trkpt lat="45.0045233" lon="7.9937783"><ele>239.16666666666666</ele><time>2026-04-11T15:13:45.454Z</time></trkpt><trkpt lat="45.00451" lon="7.9939"><ele>240.0</ele><time>2026-04-11T15:13:48.454Z</time></trkpt><trkpt lat="45.0045017" lon="7.993995"><ele>240.0</ele><time>2026-04-11T15:13:50.454Z</time></trkpt><trkpt lat="45.00449" lon="7.9940983"><ele>240.0</ele><time>2026-04-11T15:13:52.454Z</time></trkpt><trkpt lat="45.0044917" lon="7.9941933"><ele>240.0</ele><time>2026-04-11T15:13:54.454Z</time></trkpt><trkpt lat="45.0044867" lon="7.9942883"><ele>240.0</ele><time>2026-04-11T15:13:56.454Z</time></trkpt><trkpt lat="45.0044867" lon="7.9943867"><ele>240.0</ele><time>2026-04-11T15:13:58.454Z</time></trkpt><trkpt lat="45.0044767" lon="7.9944867"><ele>240.0</ele><time>2026-04-11T15:14:00.454Z</time></trkpt><trkpt lat="45.00447" lon="7.9945933"><ele>240.0</ele><time>2026-04-11T15:14:02.454Z</time></trkpt><trkpt lat="45.004475" lon="7.9946967"><ele>241.16666666666666</ele><time>2026-04-11T15:14:04.455Z</time></trkpt><trkpt lat="45.0044767" lon="7.9947933"><ele>242.33333333333331</ele><time>2026-04-11T15:14:06.454Z</time></trkpt><trkpt lat="45.0044717" lon="7.9948917"><ele>243.5</ele><time>2026-04-11T15:14:08.454Z</time></trkpt><trkpt lat="45.0044683" lon="7.995005"><ele>244.66666666666666</ele><time>2026-04-11T15:14:10.454Z</time></trkpt><trkpt lat="45.0044533" lon="7.9951167"><ele>245.83333333333331</ele><time>2026-04-11T15:14:12.454Z</time></trkpt><trkpt lat="45.0044217" lon="7.99522"><ele>247.0</ele><time>2026-04-11T15:14:14.454Z</time></trkpt><trkpt lat="45.0043733" lon="7.9953083"><ele>247.28571428571428</ele><time>2026-04-11T15:14:16.454Z</time></trkpt><trkpt lat="45.0043217" lon="7.99537"><ele>247.57142857142856</ele><time>2026-04-11T15:14:18.454Z</time></trkpt><trkpt lat="45.0042533" lon="7.995415"><ele>247.85714285714283</ele><time>2026-04-11T15:14:20.454Z</time></trkpt><trkpt lat="45.0041867" lon="7.99544"><ele>248.14285714285714</ele><time>2026-04-11T15:14:22.454Z</time></trkpt><trkpt lat="45.0041217" lon="7.9954583"><ele>248.4285714285714</ele><time>2026-04-11T15:14:24.454Z</time></trkpt><trkpt lat="45.00405" lon="7.9954733"><ele>248.7142857142857</ele><time>2026-04-11T15:14:26.454Z</time></trkpt><trkpt lat="45.00398" lon="7.9954817"><ele>249.0</ele><time>2026-04-11T15:14:28.454Z</time></trkpt><trkpt lat="45.0038933" lon="7.9954867"><ele>249.0</ele><time>2026-04-11T15:14:30.454Z</time></trkpt><trkpt lat="45.003805" lon="7.9955283"><ele>248.99999999999997</ele><time>2026-04-11T15:14:32.454Z</time></trkpt><trkpt lat="45.0037167" lon="7.9955767"><ele>248.99999999999997</ele><time>2026-04-11T15:14:34.454Z</time></trkpt><trkpt lat="45.003645" lon="7.9956533"><ele>249.0</ele><time>2026-04-11T15:14:36.454Z</time></trkpt><trkpt lat="45.0035817" lon="7.99574"><ele>249.0</ele><time>2026-04-11T15:14:38.454Z</time></trkpt><trkpt lat="45.0035233" lon="7.9958383"><ele>250.5</ele><time>2026-04-11T15:14:40.454Z</time></trkpt><trkpt lat="45.00347" lon="7.995945"><ele>252.0</ele><time>2026-04-11T15:14:42.454Z</time></trkpt><trkpt lat="45.0034167" lon="7.9960467"><ele>253.5</ele><time>2026-04-11T15:14:44.454Z</time></trkpt><trkpt lat="45.003365" lon="7.9961517"><ele>255.0</ele><time>2026-04-11T15:14:46.454Z</time></trkpt><trkpt lat="45.0033133" lon="7.9962517"><ele>256.5</ele><time>2026-04-11T15:14:48.454Z</time></trkpt><trkpt lat="45.00326" lon="7.9963467"><ele>258.0</ele><time>2026-04-11T15:14:50.454Z</time></trkpt><trkpt lat="45.0032167" lon="7.9964333"><ele>258.5</ele><time>2026-04-11T15:14:52.454Z</time></trkpt><trkpt lat="45.0031733" lon="7.99653"><ele>259.0</ele><time>2026-04-11T15:14:54.454Z</time></trkpt><trkpt lat="45.003145" lon="7.9966433"><ele>259.5</ele><time>2026-04-11T15:14:56.454Z</time></trkpt><trkpt lat="45.0031767" lon="7.9967517"><ele>260.0</ele><time>2026-04-11T15:14:58.454Z</time></trkpt><trkpt lat="45.003245" lon="7.99684"><ele>260.5</ele><time>2026-04-11T15:15:00.455Z</time></trkpt><trkpt lat="45.0033267" lon="7.9969217"><ele>261.0</ele><time>2026-04-11T15:15:02.454Z</time></trkpt><trkpt lat="45.0034217" lon="7.99699"><ele>258.8</ele><time>2026-04-11T15:15:04.454Z</time></trkpt><trkpt lat="45.0035117" lon="7.9970633"><ele>256.6</ele><time>2026-04-11T15:15:06.454Z</time></trkpt><trkpt lat="45.0035883" lon="7.9971533"><ele>254.4</ele><time>2026-04-11T15:15:08.454Z</time></trkpt><trkpt lat="45.0036733" lon="7.9972517"><ele>252.2</ele><time>2026-04-11T15:15:10.454Z</time></trkpt><trkpt lat="45.003745" lon="7.9973517"><ele>250.0</ele><time>2026-04-11T15:15:12.454Z</time></trkpt><trkpt lat="45.0038067" lon="7.99746"><ele>247.8</ele><time>2026-04-11T15:15:14.454Z</time></trkpt><trkpt lat="45.0038817" lon="7.9975633"><ele>245.6</ele><time>2026-04-11T15:15:16.454Z</time></trkpt><trkpt lat="45.00396" lon="7.9976633"><ele>243.39999999999998</ele><time>2026-04-11T15:15:18.454Z</time></trkpt><trkpt lat="45.004025" lon="7.9977683"><ele>241.2</ele><time>2026-04-11T15:15:20.454Z</time></trkpt><trkpt lat="45.0040867" lon="7.9979067"><ele>239.0</ele><time>2026-04-11T15:15:22.454Z</time></trkpt><trkpt lat="45.0041133" lon="7.9979933"><ele>239.00000000000003</ele><time>2026-04-11T15:15:23.454Z</time></trkpt><trkpt lat="45.0041333" lon="7.9980867"><ele>239.0</ele><time>2026-04-11T15:15:24.454Z</time></trkpt><trkpt lat="45.0041433" lon="7.9981883"><ele>239.0</ele><time>2026-04-11T15:15:25.454Z</time></trkpt><trkpt lat="45.0041467" lon="7.9983033"><ele>239.0</ele><time>2026-04-11T15:15:26.454Z</time></trkpt><trkpt lat="45.0041367" lon="7.9984217"><ele>239.00000000000003</ele><time>2026-04-11T15:15:27.454Z</time></trkpt><trkpt lat="45.0041117" lon="7.998535"><ele>239.0</ele><time>2026-04-11T15:15:28.455Z</time></trkpt><trkpt lat="45.0040867" lon="7.99865"><ele>239.00000000000003</ele><time>2026-04-11T15:15:29.454Z</time></trkpt><trkpt lat="45.0040567" lon="7.9987617"><ele>239.0</ele><time>2026-04-11T15:15:30.454Z</time></trkpt><trkpt lat="45.0040333" lon="7.9988767"><ele>239.0</ele><time>2026-04-11T15:15:31.454Z</time></trkpt><trkpt lat="45.004005" lon="7.9989967"><ele>239.0</ele><time>2026-04-11T15:15:32.454Z</time></trkpt><trkpt lat="45.00398" lon="7.9991217"><ele>239.00000000000003</ele><time>2026-04-11T15:15:33.454Z</time></trkpt><trkpt lat="45.003955" lon="7.99924"><ele>239.0</ele><time>2026-04-11T15:15:34.454Z</time></trkpt><trkpt lat="45.0039383" lon="7.9993617"><ele>239.2</ele><time>2026-04-11T15:15:35.454Z</time></trkpt><trkpt lat="45.0039167" lon="7.9994833"><ele>239.39999999999998</ele><time>2026-04-11T15:15:36.454Z</time></trkpt><trkpt lat="45.0038933" lon="7.999605"><ele>239.6</ele><time>2026-04-11T15:15:37.454Z</time></trkpt><trkpt lat="45.0038683" lon="7.999735"><ele>239.8</ele><time>2026-04-11T15:15:38.455Z</time></trkpt><trkpt lat="45.00382" lon="7.9998667"><ele>240.0</ele><time>2026-04-11T15:15:39.454Z</time></trkpt><trkpt lat="45.003775" lon="7.9999967"><ele>240.0</ele><time>2026-04-11T15:15:40.454Z</time></trkpt><trkpt lat="45.0037333" lon="8.00012"><ele>240.0</ele><time>2026-04-11T15:15:41.454Z</time></trkpt><trkpt lat="45.003695" lon="8.00024"><ele>240.0</ele><time>2026-04-11T15:15:42.454Z</time></trkpt><trkpt lat="45.0036417" lon="8.0003617"><ele>240.0</ele><time>2026-04-11T15:15:43.454Z</time></trkpt><trkpt lat="45.0035783" lon="8.000485"><ele>240.0</ele><time>2026-04-11T15:15:44.454Z</time></trkpt><trkpt lat="45.0035117" lon="8.00061"><ele>240.0</ele><time>2026-04-11T15:15:45.454Z</time></trkpt><trkpt lat="45.0034367" lon="8.000735"><ele>240.0</ele><time>2026-04-11T15:15:46.454Z</time></trkpt><trkpt lat="45.0033617" lon="8.00085"><ele>240.0</ele><time>2026-04-11T15:15:47.454Z</time></trkpt><trkpt lat="45.0032733" lon="8.0009367"><ele>240.0</ele><time>2026-04-11T15:15:48.454Z</time></trkpt><trkpt lat="45.003205" lon="8.0010233"><ele>240.0</ele><time>2026-04-11T15:15:49.454Z</time></trkpt><trkpt lat="45.0031383" lon="8.001075"><ele>237.16666666666666</ele><time>2026-04-11T15:15:50.454Z</time></trkpt><trkpt lat="45.0030733" lon="8.00109"><ele>234.33333333333331</ele><time>2026-04-11T15:15:51.454Z</time></trkpt><trkpt lat="45.002985" lon="8.000975"><ele>231.5</ele><time>2026-04-11T15:15:53.454Z</time></trkpt><trkpt lat="45.0029933" lon="8.0008617"><ele>228.66666666666666</ele><time>2026-04-11T15:15:54.454Z</time></trkpt><trkpt lat="45.0030283" lon="8.000755"><ele>225.83333333333331</ele><time>2026-04-11T15:15:55.454Z</time></trkpt><trkpt lat="45.0030733" lon="8.0006483"><ele>223.0</ele><time>2026-04-11T15:15:56.454Z</time></trkpt><trkpt lat="45.00312" lon="8.0005367"><ele>222.4</ele><time>2026-04-11T15:15:57.455Z</time></trkpt><trkpt lat="45.0031433" lon="8.000415"><ele>221.8</ele><time>2026-04-11T15:15:58.454Z</time></trkpt><trkpt lat="45.0031367" lon="8.0002767"><ele>221.2</ele><time>2026-04-11T15:15:59.454Z</time></trkpt><trkpt lat="45.0030917" lon="8.0001467"><ele>220.6</ele><time>2026-04-11T15:16:00.454Z</time></trkpt><trkpt lat="45.0030117" lon="8.0000417"><ele>220.0</ele><time>2026-04-11T15:16:01.454Z</time></trkpt><trkpt lat="45.0029083" lon="7.9999833"><ele>220.0</ele><time>2026-04-11T15:16:02.454Z</time></trkpt><trkpt lat="45.00279" lon="7.9999683"><ele>220.0</ele><time>2026-04-11T15:16:03.454Z</time></trkpt><trkpt lat="45.00267" lon="7.999995"><ele>220.0</ele><time>2026-04-11T15:16:04.454Z</time></trkpt><trkpt lat="45.0025617" lon="8.0000717"><ele>220.0</ele><time>2026-04-11T15:16:05.454Z</time></trkpt><trkpt lat="45.002465" lon="8.0001983"><ele>218.5</ele><time>2026-04-11T15:16:06.454Z</time></trkpt><trkpt lat="45.0023867" lon="8.000345"><ele>217.0</ele><time>2026-04-11T15:16:07.454Z</time></trkpt><trkpt lat="45.0023117" lon="8.0005133"><ele>215.5</ele><time>2026-04-11T15:16:08.454Z</time></trkpt><trkpt lat="45.0022333" lon="8.000675"><ele>214.0</ele><time>2026-04-11T15:16:09.454Z</time></trkpt><trkpt lat="45.00215" lon="8.000835"><ele>214.0</ele><time>2026-04-11T15:16:10.454Z</time></trkpt><trkpt lat="45.002075" lon="8.0009917"><ele>214.0</ele><time>2026-04-11T15:16:11.454Z</time></trkpt><trkpt lat="45.0020083" lon="8.0011333"><ele>214.0</ele><time>2026-04-11T15:16:12.454Z</time></trkpt><trkpt lat="45.0019683" lon="8.0012933"><ele>214.0</ele><time>2026-04-11T15:16:13.454Z</time></trkpt><trkpt lat="45.0019633" lon="8.0014617"><ele>214.0</ele><time>2026-04-11T15:16:14.454Z</time></trkpt><trkpt lat="45.001985" lon="8.001635"><ele>214.0</ele><time>2026-04-11T15:16:15.454Z</time></trkpt><trkpt lat="45.0020233" lon="8.0018083"><ele>214.0</ele><time>2026-04-11T15:16:16.454Z</time></trkpt><trkpt lat="45.0020733" lon="8.0019867"><ele>214.0</ele><time>2026-04-11T15:16:17.454Z</time></trkpt><trkpt lat="45.00212" lon="8.0021683"><ele>214.0</ele><time>2026-04-11T15:16:18.454Z</time></trkpt><trkpt lat="45.002165" lon="8.0023517"><ele>214.0</ele><time>2026-04-11T15:16:19.454Z</time></trkpt><trkpt lat="45.0022017" lon="8.0025433"><ele>214.0</ele><time>2026-04-11T15:16:20.454Z</time></trkpt><trkpt lat="45.0022383" lon="8.0027283"><ele>214.0</ele><time>2026-04-11T15:16:21.454Z</time></trkpt><trkpt lat="45.00228" lon="8.0029133"><ele>214.0</ele><time>2026-04-11T15:16:22.454Z</time></trkpt><trkpt lat="45.0023233" lon="8.0030867"><ele>214.0</ele><time>2026-04-11T15:16:23.454Z</time></trkpt><trkpt lat="45.002365" lon="8.00326"><ele>214.0</ele><time>2026-04-11T15:16:24.454Z</time></trkpt><trkpt lat="45.0024117" lon="8.0034233"><ele>214.0</ele><time>2026-04-11T15:16:25.454Z</time></trkpt><trkpt lat="45.002455" lon="8.0035833"><ele>214.75</ele><time>2026-04-11T15:16:26.454Z</time></trkpt><trkpt lat="45.0024967" lon="8.0037417"><ele>215.5</ele><time>2026-04-11T15:16:27.454Z</time></trkpt><trkpt lat="45.0025383" lon="8.0039"><ele>216.25</ele><time>2026-04-11T15:16:28.454Z</time></trkpt><trkpt lat="45.0025717" lon="8.004055"><ele>217.0</ele><time>2026-04-11T15:16:29.454Z</time></trkpt><trkpt lat="45.0026133" lon="8.0042117"><ele>213.6</ele><time>2026-04-11T15:16:30.454Z</time></trkpt><trkpt lat="45.0026617" lon="8.0043633"><ele>210.2</ele><time>2026-04-11T15:16:31.454Z</time></trkpt><trkpt lat="45.0027017" lon="8.0045117"><ele>206.8</ele><time>2026-04-11T15:16:32.454Z</time></trkpt><trkpt lat="45.00274" lon="8.0046583"><ele>203.4</ele><time>2026-04-11T15:16:33.454Z</time></trkpt><trkpt lat="45.0027783" lon="8.0048017"><ele>200.0</ele><time>2026-04-11T15:16:34.454Z</time></trkpt><trkpt lat="45.002815" lon="8.0049417"><ele>198.8</ele><time>2026-04-11T15:16:35.454Z</time></trkpt><trkpt lat="45.002855" lon="8.00508"><ele>197.6</ele><time>2026-04-11T15:16:36.454Z</time></trkpt><trkpt lat="45.0028917" lon="8.0052183"><ele>196.39999999999998</ele><time>2026-04-11T15:16:37.454Z</time></trkpt><trkpt lat="45.0029267" lon="8.0053517"><ele>195.2</ele><time>2026-04-11T15:16:38.454Z</time></trkpt><trkpt lat="45.0029617" lon="8.00549"><ele>194.0</ele><time>2026-04-11T15:16:39.454Z</time></trkpt><trkpt lat="45.0029917" lon="8.0056167"><ele>194.00000000000003</ele><time>2026-04-11T15:16:40.454Z</time></trkpt><trkpt lat="45.0030233" lon="8.0057417"><ele>194.0</ele><time>2026-04-11T15:16:41.454Z</time></trkpt><trkpt lat="45.0030533" lon="8.0058617"><ele>194.0</ele><time>2026-04-11T15:16:42.454Z</time></trkpt><trkpt lat="45.00307" lon="8.0059833"><ele>194.0</ele><time>2026-04-11T15:16:43.455Z</time></trkpt><trkpt lat="45.0030683" lon="8.006105"><ele>194.00000000000003</ele><time>2026-04-11T15:16:44.454Z</time></trkpt><trkpt lat="45.0030483" lon="8.006215"><ele>194.0</ele><time>2026-04-11T15:16:45.454Z</time></trkpt><trkpt lat="45.0030017" lon="8.0063183"><ele>193.83333333333334</ele><time>2026-04-11T15:16:46.454Z</time></trkpt><trkpt lat="45.0029483" lon="8.006395"><ele>193.66666666666669</ele><time>2026-04-11T15:16:47.454Z</time></trkpt><trkpt lat="45.00287" lon="8.0064433"><ele>193.5</ele><time>2026-04-11T15:16:48.454Z</time></trkpt><trkpt lat="45.0027833" lon="8.0064917"><ele>193.33333333333331</ele><time>2026-04-11T15:16:49.454Z</time></trkpt><trkpt lat="45.0026967" lon="8.00655"><ele>193.16666666666666</ele><time>2026-04-11T15:16:50.454Z</time></trkpt><trkpt lat="45.0026133" lon="8.006605"><ele>193.0</ele><time>2026-04-11T15:16:51.454Z</time></trkpt><trkpt lat="45.002535" lon="8.00667"><ele>193.0</ele><time>2026-04-11T15:16:52.454Z</time></trkpt><trkpt lat="45.002455" lon="8.006735"><ele>193.0</ele><time>2026-04-11T15:16:53.454Z</time></trkpt><trkpt lat="45.002375" lon="8.0067983"><ele>193.0</ele><time>2026-04-11T15:16:54.454Z</time></trkpt><trkpt lat="45.0022917" lon="8.0068617"><ele>193.0</ele><time>2026-04-11T15:16:55.454Z</time></trkpt><trkpt lat="45.0022133" lon="8.0069217"><ele>193.0</ele><time>2026-04-11T15:16:56.454Z</time></trkpt><trkpt lat="45.002135" lon="8.0069833"><ele>192.99999999999997</ele><time>2026-04-11T15:16:57.454Z</time></trkpt><trkpt lat="45.00206" lon="8.0070417"><ele>193.0</ele><time>2026-04-11T15:16:58.454Z</time></trkpt><trkpt lat="45.00199" lon="8.007095"><ele>193.0</ele><time>2026-04-11T15:16:59.454Z</time></trkpt><trkpt lat="45.0019183" lon="8.007145"><ele>193.0</ele><time>2026-04-11T15:17:00.454Z</time></trkpt><trkpt lat="45.00185" lon="8.0072"><ele>192.99999999999997</ele><time>2026-04-11T15:17:01.454Z</time></trkpt><trkpt lat="45.0017783" lon="8.0072567"><ele>193.0</ele><time>2026-04-11T15:17:02.454Z</time></trkpt><trkpt lat="45.001705" lon="8.0073117"><ele>192.83333333333331</ele><time>2026-04-11T15:17:03.454Z</time></trkpt><trkpt lat="45.00163" lon="8.0073767"><ele>192.66666666666666</ele><time>2026-04-11T15:17:04.454Z</time></trkpt><trkpt lat="45.001555" lon="8.00744"><ele>192.5</ele><time>2026-04-11T15:17:05.454Z</time></trkpt><trkpt lat="45.001485" lon="8.0075067"><ele>192.33333333333331</ele><time>2026-04-11T15:17:06.454Z</time></trkpt><trkpt lat="45.0014183" lon="8.0075717"><ele>192.16666666666666</ele><time>2026-04-11T15:17:07.454Z</time></trkpt><trkpt lat="45.001355" lon="8.0076333"><ele>192.0</ele><time>2026-04-11T15:17:08.454Z</time></trkpt><trkpt lat="45.0012967" lon="8.007685"><ele>192.99999999999997</ele><time>2026-04-11T15:17:09.454Z</time></trkpt><trkpt lat="45.0012367" lon="8.0077433"><ele>194.0</ele><time>2026-04-11T15:17:10.454Z</time></trkpt><trkpt lat="45.0011767" lon="8.0077983"><ele>195.0</ele><time>2026-04-11T15:17:11.454Z</time></trkpt><trkpt lat="45.0011183" lon="8.00785"><ele>196.0</ele><time>2026-04-11T15:17:12.454Z</time></trkpt><trkpt lat="45.00106" lon="8.007905"><ele>197.0</ele><time>2026-04-11T15:17:13.454Z</time></trkpt><trkpt lat="45.0009983" lon="8.0079617"><ele>197.99999999999997</ele><time>2026-04-11T15:17:14.454Z</time></trkpt><trkpt lat="45.0009367" lon="8.00802"><ele>199.0</ele><time>2026-04-11T15:17:15.454Z</time></trkpt><trkpt lat="45.0008717" lon="8.0080667"><ele>198.0</ele><time>2026-04-11T15:17:16.455Z</time></trkpt><trkpt lat="45.0007567" lon="8.0081367"><ele>197.0</ele><time>2026-04-11T15:17:18.454Z</time></trkpt><trkpt lat="45.00063" lon="8.008175"><ele>196.0</ele><time>2026-04-11T15:17:20.454Z</time></trkpt><trkpt lat="45.0005667" lon="8.0081833"><ele>195.0</ele><time>2026-04-11T15:17:21.454Z</time></trkpt><trkpt lat="45.0004533" lon="8.0082083"><ele>194.0</ele><time>2026-04-11T15:17:23.454Z</time></trkpt><trkpt lat="45.0003383" lon="8.0082117"><ele>194.00000000000003</ele><time>2026-04-11T15:17:25.454Z</time></trkpt><trkpt lat="45.0002233" lon="8.00823"><ele>194.0</ele><time>2026-04-11T15:17:27.454Z</time></trkpt><trkpt lat="45.0001667" lon="8.0082783"><ele>194.0</ele><time>2026-04-11T15:17:28.455Z</time></trkpt><trkpt lat="45.0001183" lon="8.0083367"><ele>194.0</ele><time>2026-04-11T15:17:29.454Z</time></trkpt><trkpt lat="45.0000633" lon="8.0084"><ele>194.00000000000003</ele><time>2026-04-11T15:17:30.454Z</time></trkpt><trkpt lat="45.0000133" lon="8.0084717"><ele>194.0</ele><time>2026-04-11T15:17:31.454Z</time></trkpt><trkpt lat="44.999965" lon="8.008545"><ele>194.28571428571428</ele><time>2026-04-11T15:17:32.454Z</time></trkpt><trkpt lat="44.99992" lon="8.00862"><ele>194.57142857142858</ele><time>2026-04-11T15:17:33.454Z</time></trkpt><trkpt lat="44.99987" lon="8.008695"><ele>194.85714285714286</ele><time>2026-04-11T15:17:34.454Z</time></trkpt><trkpt lat="44.9998217" lon="8.0087767"><ele>195.14285714285714</ele><time>2026-04-11T15:17:35.454Z</time></trkpt><trkpt lat="44.9997783" lon="8.0088517"><ele>195.42857142857144</ele><time>2026-04-11T15:17:36.454Z</time></trkpt><trkpt lat="44.9997383" lon="8.0089283"><ele>195.71428571428572</ele><time>2026-04-11T15:17:37.454Z</time></trkpt><trkpt lat="44.9996967" lon="8.0090017"><ele>196.0</ele><time>2026-04-11T15:17:38.455Z</time></trkpt><trkpt lat="44.9996517" lon="8.00908"><ele>196.0</ele><time>2026-04-11T15:17:39.454Z</time></trkpt><trkpt lat="44.9996167" lon="8.0091583"><ele>196.0</ele><time>2026-04-11T15:17:40.454Z</time></trkpt><trkpt lat="44.9995767" lon="8.0092367"><ele>196.0</ele><time>2026-04-11T15:17:41.454Z</time></trkpt><trkpt lat="44.99954" lon="8.0093183"><ele>196.0</ele><time>2026-04-11T15:17:42.454Z</time></trkpt><trkpt lat="44.9995083" lon="8.0094"><ele>196.0</ele><time>2026-04-11T15:17:43.454Z</time></trkpt><trkpt lat="44.999475" lon="8.0094817"><ele>196.0</ele><time>2026-04-11T15:17:44.454Z</time></trkpt><trkpt lat="44.99944" lon="8.0095633"><ele>196.0</ele><time>2026-04-11T15:17:45.454Z</time></trkpt><trkpt lat="44.9993783" lon="8.009715"><ele>196.33333333333331</ele><time>2026-04-11T15:17:47.454Z</time></trkpt><trkpt lat="44.9993467" lon="8.0097933"><ele>196.66666666666666</ele><time>2026-04-11T15:17:48.454Z</time></trkpt><trkpt lat="44.9993133" lon="8.00988"><ele>197.0</ele><time>2026-04-11T15:17:49.454Z</time></trkpt><trkpt lat="44.999285" lon="8.009965"><ele>197.33333333333331</ele><time>2026-04-11T15:17:50.454Z</time></trkpt><trkpt lat="44.9992333" lon="8.010125"><ele>197.66666666666666</ele><time>2026-04-11T15:17:52.454Z</time></trkpt><trkpt lat="44.9991867" lon="8.0102867"><ele>198.0</ele><time>2026-04-11T15:17:54.454Z</time></trkpt><trkpt lat="44.99917" lon="8.0103783"><ele>198.4</ele><time>2026-04-11T15:17:55.454Z</time></trkpt><trkpt lat="44.9991633" lon="8.0104767"><ele>198.8</ele><time>2026-04-11T15:17:56.454Z</time></trkpt><trkpt lat="44.99916" lon="8.01057"><ele>199.2</ele><time>2026-04-11T15:17:57.454Z</time></trkpt><trkpt lat="44.99916" lon="8.0107483"><ele>199.6</ele><time>2026-04-11T15:17:59.454Z</time></trkpt><trkpt lat="44.9991767" lon="8.01093"><ele>200.0</ele><time>2026-04-11T15:18:01.454Z</time></trkpt><trkpt lat="44.9991867" lon="8.0110217"><ele>200.00000000000003</ele><time>2026-04-11T15:18:02.454Z</time></trkpt><trkpt lat="44.9992" lon="8.01111"><ele>200.0</ele><time>2026-04-11T15:18:03.454Z</time></trkpt><trkpt lat="44.999215" lon="8.0111983"><ele>200.0</ele><time>2026-04-11T15:18:04.454Z</time></trkpt><trkpt lat="44.99924" lon="8.01137"><ele>200.0</ele><time>2026-04-11T15:18:06.454Z</time></trkpt><trkpt lat="44.9992567" lon="8.0114617"><ele>200.00000000000003</ele><time>2026-04-11T15:18:07.454Z</time></trkpt><trkpt lat="44.99927" lon="8.01155"><ele>200.0</ele><time>2026-04-11T15:18:08.454Z</time></trkpt><trkpt lat="44.999285" lon="8.011725"><ele>201.00000000000003</ele><time>2026-04-11T15:18:10.454Z</time></trkpt><trkpt lat="44.9992867" lon="8.01182"><ele>202.0</ele><time>2026-04-11T15:18:11.454Z</time></trkpt><trkpt lat="44.9992867" lon="8.01191"><ele>203.0</ele><time>2026-04-11T15:18:12.454Z</time></trkpt><trkpt lat="44.99929" lon="8.0120017"><ele>204.0</ele><time>2026-04-11T15:18:13.454Z</time></trkpt><trkpt lat="44.9992883" lon="8.01218"><ele>205.00000000000003</ele><time>2026-04-11T15:18:15.454Z</time></trkpt><trkpt lat="44.9992867" lon="8.0123483"><ele>206.0</ele><time>2026-04-11T15:18:17.454Z</time></trkpt><trkpt lat="44.9993033" lon="8.01252"><ele>209.0</ele><time>2026-04-11T15:18:19.454Z</time></trkpt><trkpt lat="44.9993133" lon="8.0126867"><ele>212.0</ele><time>2026-04-11T15:18:21.454Z</time></trkpt><trkpt lat="44.9993233" lon="8.01285"><ele>215.0</ele><time>2026-04-11T15:18:23.454Z</time></trkpt><trkpt lat="44.9993333" lon="8.0130217"><ele>218.0</ele><time>2026-04-11T15:18:25.454Z</time></trkpt><trkpt lat="44.9993383" lon="8.0131783"><ele>218.60000000000002</ele><time>2026-04-11T15:18:27.454Z</time></trkpt><trkpt lat="44.9993433" lon="8.013335"><ele>219.20000000000002</ele><time>2026-04-11T15:18:29.454Z</time></trkpt><trkpt lat="44.999345" lon="8.0134883"><ele>219.8</ele><time>2026-04-11T15:18:31.454Z</time></trkpt><trkpt lat="44.9993167" lon="8.0136317"><ele>220.4</ele><time>2026-04-11T15:18:33.454Z</time></trkpt><trkpt lat="44.9992533" lon="8.0137383"><ele>221.0</ele><time>2026-04-11T15:18:35.454Z</time></trkpt><trkpt lat="44.9991817" lon="8.0138"><ele>217.8</ele><time>2026-04-11T15:18:37.454Z</time></trkpt><trkpt lat="44.9991217" lon="8.01387"><ele>214.60000000000002</ele><time>2026-04-11T15:18:39.454Z</time></trkpt><trkpt lat="44.9990683" lon="8.0139683"><ele>211.4</ele><time>2026-04-11T15:18:41.454Z</time></trkpt><trkpt lat="44.9990133" lon="8.014095"><ele>208.2</ele><time>2026-04-11T15:18:43.454Z</time></trkpt><trkpt lat="44.9989717" lon="8.0142617"><ele>205.0</ele><time>2026-04-11T15:18:45.454Z</time></trkpt><trkpt lat="44.998945" lon="8.0143617"><ele>204.99999999999997</ele><time>2026-04-11T15:18:46.454Z</time></trkpt><trkpt lat="44.9989133" lon="8.0144567"><ele>205.0</ele><time>2026-04-11T15:18:47.454Z</time></trkpt><trkpt lat="44.9988833" lon="8.0145583"><ele>205.0</ele><time>2026-04-11T15:18:48.454Z</time></trkpt><trkpt lat="44.99885" lon="8.01467"><ele>205.0</ele><time>2026-04-11T15:18:49.454Z</time></trkpt><trkpt lat="44.9988183" lon="8.0147883"><ele>204.99999999999997</ele><time>2026-04-11T15:18:50.455Z</time></trkpt><trkpt lat="44.99879" lon="8.0149083"><ele>205.0</ele><time>2026-04-11T15:18:51.455Z</time></trkpt><trkpt lat="44.998765" lon="8.0150333"><ele>204.16666666666666</ele><time>2026-04-11T15:18:52.454Z</time></trkpt><trkpt lat="44.9987367" lon="8.015145"><ele>203.33333333333331</ele><time>2026-04-11T15:18:53.454Z</time></trkpt><trkpt lat="44.998715" lon="8.0152467"><ele>202.5</ele><time>2026-04-11T15:18:54.454Z</time></trkpt><trkpt lat="44.9987083" lon="8.0153667"><ele>201.66666666666669</ele><time>2026-04-11T15:18:55.454Z</time></trkpt><trkpt lat="44.9987" lon="8.0154917"><ele>200.83333333333334</ele><time>2026-04-11T15:18:56.454Z</time></trkpt><trkpt lat="44.998695" lon="8.01561"><ele>200.0</ele><time>2026-04-11T15:18:57.454Z</time></trkpt><trkpt lat="44.99868" lon="8.015735"><ele>198.66666666666669</ele><time>2026-04-11T15:18:58.454Z</time></trkpt><trkpt lat="44.998665" lon="8.0158617"><ele>197.33333333333334</ele><time>2026-04-11T15:18:59.454Z</time></trkpt><trkpt lat="44.998655" lon="8.01599"><ele>196.0</ele><time>2026-04-11T15:19:00.454Z</time></trkpt><trkpt lat="44.9986533" lon="8.0161133"><ele>194.66666666666669</ele><time>2026-04-11T15:19:01.455Z</time></trkpt><trkpt lat="44.9986567" lon="8.0162367"><ele>193.33333333333334</ele><time>2026-04-11T15:19:02.454Z</time></trkpt><trkpt lat="44.9986567" lon="8.0163517"><ele>192.0</ele><time>2026-04-11T15:19:03.454Z</time></trkpt><trkpt lat="44.9986517" lon="8.01648"><ele>192.0</ele><time>2026-04-11T15:19:04.454Z</time></trkpt><trkpt lat="44.998645" lon="8.0166033"><ele>192.0</ele><time>2026-04-11T15:19:05.454Z</time></trkpt><trkpt lat="44.9986433" lon="8.0167183"><ele>192.0</ele><time>2026-04-11T15:19:06.454Z</time></trkpt><trkpt lat="44.998645" lon="8.01684"><ele>192.0</ele><time>2026-04-11T15:19:07.454Z</time></trkpt><trkpt lat="44.9986433" lon="8.016955"><ele>192.0</ele><time>2026-04-11T15:19:08.454Z</time></trkpt><trkpt lat="44.998645" lon="8.01707"><ele>192.0</ele><time>2026-04-11T15:19:09.454Z</time></trkpt><trkpt lat="44.9986383" lon="8.0171917"><ele>191.5</ele><time>2026-04-11T15:19:10.454Z</time></trkpt><trkpt lat="44.9986317" lon="8.0173017"><ele>191.0</ele><time>2026-04-11T15:19:11.454Z</time></trkpt><trkpt lat="44.9986283" lon="8.01741"><ele>190.5</ele><time>2026-04-11T15:19:12.454Z</time></trkpt><trkpt lat="44.9986217" lon="8.0175217"><ele>190.0</ele><time>2026-04-11T15:19:13.454Z</time></trkpt><trkpt lat="44.998615" lon="8.01764"><ele>189.5</ele><time>2026-04-11T15:19:14.454Z</time></trkpt><trkpt lat="44.9986117" lon="8.0177617"><ele>189.0</ele><time>2026-04-11T15:19:15.454Z</time></trkpt><trkpt lat="44.9986133" lon="8.0178767"><ele>188.66666666666666</ele><time>2026-04-11T15:19:16.454Z</time></trkpt><trkpt lat="44.9986083" lon="8.01799"><ele>188.33333333333334</ele><time>2026-04-11T15:19:17.454Z</time></trkpt><trkpt lat="44.9986" lon="8.0181067"><ele>188.0</ele><time>2026-04-11T15:19:18.454Z</time></trkpt><trkpt lat="44.9985933" lon="8.01822"><ele>187.66666666666669</ele><time>2026-04-11T15:19:19.454Z</time></trkpt><trkpt lat="44.9985817" lon="8.0183283"><ele>187.33333333333334</ele><time>2026-04-11T15:19:20.454Z</time></trkpt><trkpt lat="44.9985667" lon="8.01844"><ele>187.0</ele><time>2026-04-11T15:19:21.454Z</time></trkpt><trkpt lat="44.998555" lon="8.0185467"><ele>187.0</ele><time>2026-04-11T15:19:22.454Z</time></trkpt><trkpt lat="44.9985367" lon="8.0186567"><ele>187.0</ele><time>2026-04-11T15:19:23.454Z</time></trkpt><trkpt lat="44.998525" lon="8.0187667"><ele>187.0</ele><time>2026-04-11T15:19:24.454Z</time></trkpt><trkpt lat="44.9985083" lon="8.018875"><ele>187.0</ele><time>2026-04-11T15:19:25.454Z</time></trkpt><trkpt lat="44.998495" lon="8.018975"><ele>187.0</ele><time>2026-04-11T15:19:26.454Z</time></trkpt><trkpt lat="44.9984867" lon="8.0190833"><ele>187.0</ele><time>2026-04-11T15:19:27.454Z</time></trkpt><trkpt lat="44.9984817" lon="8.0191917"><ele>187.0</ele><time>2026-04-11T15:19:28.454Z</time></trkpt><trkpt lat="44.9984867" lon="8.0193067"><ele>187.0</ele><time>2026-04-11T15:19:29.454Z</time></trkpt><trkpt lat="44.9984967" lon="8.0194083"><ele>187.0</ele><time>2026-04-11T15:19:30.454Z</time></trkpt><trkpt lat="44.99851" lon="8.0195083"><ele>187.0</ele><time>2026-04-11T15:19:31.454Z</time></trkpt><trkpt lat="44.998525" lon="8.0196067"><ele>187.0</ele><time>2026-04-11T15:19:32.454Z</time></trkpt><trkpt lat="44.9985333" lon="8.0197033"><ele>187.0</ele><time>2026-04-11T15:19:33.454Z</time></trkpt><trkpt lat="44.9985433" lon="8.0198017"><ele>187.0</ele><time>2026-04-11T15:19:34.454Z</time></trkpt><trkpt lat="44.9985567" lon="8.0199017"><ele>187.0</ele><time>2026-04-11T15:19:35.454Z</time></trkpt><trkpt lat="44.9985633" lon="8.0199933"><ele>187.0</ele><time>2026-04-11T15:19:36.454Z</time></trkpt><trkpt lat="44.9985617" lon="8.0200917"><ele>187.0</ele><time>2026-04-11T15:19:37.454Z</time></trkpt><trkpt lat="44.9985583" lon="8.0201833"><ele>187.0</ele><time>2026-04-11T15:19:38.454Z</time></trkpt><trkpt lat="44.99855" lon="8.020285"><ele>187.0</ele><time>2026-04-11T15:19:39.454Z</time></trkpt><trkpt lat="44.9985317" lon="8.020375"><ele>187.0</ele><time>2026-04-11T15:19:40.454Z</time></trkpt><trkpt lat="44.998515" lon="8.020465"><ele>187.0</ele><time>2026-04-11T15:19:41.454Z</time></trkpt><trkpt lat="44.9984817" lon="8.0206283"><ele>187.0</ele><time>2026-04-11T15:19:43.454Z</time></trkpt><trkpt lat="44.9984567" lon="8.0207983"><ele>187.0</ele><time>2026-04-11T15:19:45.454Z</time></trkpt><trkpt lat="44.9984267" lon="8.0209283"><ele>187.0</ele><time>2026-04-11T15:19:47.454Z</time></trkpt><trkpt lat="44.998405" lon="8.0210417"><ele>187.0</ele><time>2026-04-11T15:19:49.454Z</time></trkpt><trkpt lat="44.99835" lon="8.0211133"><ele>187.0</ele><time>2026-04-11T15:19:52.455Z</time></trkpt><trkpt lat="44.9982817" lon="8.021095"><ele>187.0</ele><time>2026-04-11T15:19:54.454Z</time></trkpt><trkpt lat="44.998195" lon="8.021065"><ele>187.0</ele><time>2026-04-11T15:19:56.454Z</time></trkpt><trkpt lat="44.9981117" lon="8.0210433"><ele>187.0</ele><time>2026-04-11T15:19:58.454Z</time></trkpt><trkpt lat="44.9980317" lon="8.0210333"><ele>187.0</ele><time>2026-04-11T15:20:00.454Z</time></trkpt><trkpt lat="44.99794" lon="8.02102"><ele>187.0</ele><time>2026-04-11T15:20:02.454Z</time></trkpt><trkpt lat="44.997845" lon="8.021"><ele>187.0</ele><time>2026-04-11T15:20:04.454Z</time></trkpt><trkpt lat="44.9977367" lon="8.0209933"><ele>187.0</ele><time>2026-04-11T15:20:06.454Z</time></trkpt><trkpt lat="44.997615" lon="8.0209933"><ele>187.0</ele><time>2026-04-11T15:20:08.454Z</time></trkpt><trkpt lat="44.99755" lon="8.020995"><ele>187.0</ele><time>2026-04-11T15:20:09.454Z</time></trkpt><trkpt lat="44.9974317" lon="8.020995"><ele>187.0</ele><time>2026-04-11T15:20:11.454Z</time></trkpt><trkpt lat="44.99731" lon="8.0209983"><ele>187.0</ele><time>2026-04-11T15:20:13.454Z</time></trkpt><trkpt lat="44.9972467" lon="8.0210017"><ele>188.39999999999998</ele><time>2026-04-11T15:20:14.454Z</time></trkpt><trkpt lat="44.9971217" lon="8.0210117"><ele>189.79999999999998</ele><time>2026-04-11T15:20:16.454Z</time></trkpt><trkpt lat="44.9969983" lon="8.0210217"><ele>191.2</ele><time>2026-04-11T15:20:18.454Z</time></trkpt><trkpt lat="44.996935" lon="8.021025"><ele>192.6</ele><time>2026-04-11T15:20:19.454Z</time></trkpt><trkpt lat="44.996815" lon="8.0210367"><ele>194.0</ele><time>2026-04-11T15:20:21.454Z</time></trkpt><trkpt lat="44.9967483" lon="8.0210417"><ele>194.0</ele><time>2026-04-11T15:20:22.454Z</time></trkpt><trkpt lat="44.9966767" lon="8.0210467"><ele>194.0</ele><time>2026-04-11T15:20:23.454Z</time></trkpt><trkpt lat="44.996605" lon="8.0210467"><ele>194.0</ele><time>2026-04-11T15:20:24.454Z</time></trkpt><trkpt lat="44.9965383" lon="8.0210533"><ele>194.0</ele><time>2026-04-11T15:20:25.455Z</time></trkpt><trkpt lat="44.9964733" lon="8.0210617"><ele>194.0</ele><time>2026-04-11T15:20:26.454Z</time></trkpt><trkpt lat="44.9964083" lon="8.021065"><ele>194.0</ele><time>2026-04-11T15:20:27.455Z</time></trkpt><trkpt lat="44.9963383" lon="8.0210617"><ele>194.0</ele><time>2026-04-11T15:20:28.454Z</time></trkpt><trkpt lat="44.996265" lon="8.0210583"><ele>193.42857142857142</ele><time>2026-04-11T15:20:29.454Z</time></trkpt><trkpt lat="44.9961917" lon="8.02106"><ele>192.85714285714286</ele><time>2026-04-11T15:20:30.454Z</time></trkpt><trkpt lat="44.9961167" lon="8.021065"><ele>192.28571428571428</ele><time>2026-04-11T15:20:31.454Z</time></trkpt><trkpt lat="44.9960417" lon="8.0210667"><ele>191.71428571428572</ele><time>2026-04-11T15:20:32.454Z</time></trkpt><trkpt lat="44.99597" lon="8.0210733"><ele>191.14285714285717</ele><time>2026-04-11T15:20:33.454Z</time></trkpt><trkpt lat="44.9959" lon="8.0210767"><ele>190.57142857142858</ele><time>2026-04-11T15:20:34.454Z</time></trkpt><trkpt lat="44.995825" lon="8.0210867"><ele>190.0</ele><time>2026-04-11T15:20:35.454Z</time></trkpt><trkpt lat="44.9957467" lon="8.021095"><ele>190.0</ele><time>2026-04-11T15:20:36.454Z</time></trkpt><trkpt lat="44.99567" lon="8.021095"><ele>190.0</ele><time>2026-04-11T15:20:37.454Z</time></trkpt><trkpt lat="44.9955967" lon="8.0210983"><ele>190.0</ele><time>2026-04-11T15:20:38.454Z</time></trkpt><trkpt lat="44.9955267" lon="8.0211017"><ele>190.0</ele><time>2026-04-11T15:20:39.454Z</time></trkpt><trkpt lat="44.9954617" lon="8.0211033"><ele>190.0</ele><time>2026-04-11T15:20:40.454Z</time></trkpt><trkpt lat="44.9953967" lon="8.0211083"><ele>190.0</ele><time>2026-04-11T15:20:41.454Z</time></trkpt><trkpt lat="44.99533" lon="8.02111"><ele>190.0</ele><time>2026-04-11T15:20:42.454Z</time></trkpt><trkpt lat="44.995265" lon="8.02111"><ele>190.0</ele><time>2026-04-11T15:20:43.454Z</time></trkpt><trkpt lat="44.9951467" lon="8.0211117"><ele>190.0</ele><time>2026-04-11T15:20:45.454Z</time></trkpt><trkpt lat="44.9950517" lon="8.0211333"><ele>190.0</ele><time>2026-04-11T15:20:47.454Z</time></trkpt><trkpt lat="44.9949883" lon="8.0211933"><ele>190.0</ele><time>2026-04-11T15:20:49.454Z</time></trkpt><trkpt lat="44.994955" lon="8.02131"><ele>190.0</ele><time>2026-04-11T15:20:51.454Z</time></trkpt><trkpt lat="44.9949067" lon="8.0214417"><ele>189.8</ele><time>2026-04-11T15:20:53.454Z</time></trkpt><trkpt lat="44.99486" lon="8.0215567"><ele>189.6</ele><time>2026-04-11T15:20:55.454Z</time></trkpt><trkpt lat="44.9948183" lon="8.0216783"><ele>189.39999999999998</ele><time>2026-04-11T15:20:57.454Z</time></trkpt><trkpt lat="44.9947717" lon="8.0218083"><ele>189.2</ele><time>2026-04-11T15:20:59.454Z</time></trkpt><trkpt lat="44.9947217" lon="8.0219333"><ele>189.0</ele><time>2026-04-11T15:21:01.454Z</time></trkpt><trkpt lat="44.99467" lon="8.02207"><ele>189.0</ele><time>2026-04-11T15:21:03.454Z</time></trkpt><trkpt lat="44.9946217" lon="8.0222"><ele>189.0</ele><time>2026-04-11T15:21:05.454Z</time></trkpt><trkpt lat="44.9945667" lon="8.022335"><ele>189.0</ele><time>2026-04-11T15:21:07.454Z</time></trkpt><trkpt lat="44.9945133" lon="8.02247"><ele>189.0</ele><time>2026-04-11T15:21:09.454Z</time></trkpt><trkpt lat="44.9944633" lon="8.0226"><ele>189.0</ele><time>2026-04-11T15:21:11.454Z</time></trkpt><trkpt lat="44.99442" lon="8.0227267"><ele>190.6</ele><time>2026-04-11T15:21:13.454Z</time></trkpt><trkpt lat="44.99437" lon="8.0228517"><ele>192.2</ele><time>2026-04-11T15:21:15.454Z</time></trkpt><trkpt lat="44.9943183" lon="8.022975"><ele>193.79999999999998</ele><time>2026-04-11T15:21:17.454Z</time></trkpt><trkpt lat="44.994285" lon="8.0231133"><ele>195.39999999999998</ele><time>2026-04-11T15:21:19.454Z</time></trkpt><trkpt lat="44.994255" lon="8.0232517"><ele>197.0</ele><time>2026-04-11T15:21:21.454Z</time></trkpt><trkpt lat="44.9942217" lon="8.023385"><ele>196.0</ele><time>2026-04-11T15:21:23.454Z</time></trkpt><trkpt lat="44.99418" lon="8.0235317"><ele>195.0</ele><time>2026-04-11T15:21:25.454Z</time></trkpt><trkpt lat="44.9941633" lon="8.0236233"><ele>194.0</ele><time>2026-04-11T15:21:26.454Z</time></trkpt><trkpt lat="44.99413" lon="8.0237767"><ele>193.0</ele><time>2026-04-11T15:21:28.454Z</time></trkpt><trkpt lat="44.9940917" lon="8.0239083"><ele>192.0</ele><time>2026-04-11T15:21:30.454Z</time></trkpt><trkpt lat="44.9940517" lon="8.024045"><ele>192.39999999999998</ele><time>2026-04-11T15:21:32.454Z</time></trkpt><trkpt lat="44.994025" lon="8.02419"><ele>192.79999999999998</ele><time>2026-04-11T15:21:34.454Z</time></trkpt><trkpt lat="44.994005" lon="8.0243467"><ele>193.2</ele><time>2026-04-11T15:21:36.454Z</time></trkpt><trkpt lat="44.9939917" lon="8.024485"><ele>193.6</ele><time>2026-04-11T15:21:38.454Z</time></trkpt><trkpt lat="44.993975" lon="8.0246483"><ele>194.0</ele><time>2026-04-11T15:21:40.454Z</time></trkpt><trkpt lat="44.993955" lon="8.024815"><ele>193.5</ele><time>2026-04-11T15:21:42.454Z</time></trkpt><trkpt lat="44.9939567" lon="8.02498"><ele>193.0</ele><time>2026-04-11T15:21:44.454Z</time></trkpt><trkpt lat="44.9939783" lon="8.0251483"><ele>192.5</ele><time>2026-04-11T15:21:46.454Z</time></trkpt><trkpt lat="44.9940067" lon="8.0253133"><ele>192.0</ele><time>2026-04-11T15:21:48.454Z</time></trkpt><trkpt lat="44.99404" lon="8.0254567"><ele>192.0</ele><time>2026-04-11T15:21:50.454Z</time></trkpt><trkpt lat="44.9940783" lon="8.0255867"><ele>192.0</ele><time>2026-04-11T15:21:52.454Z</time></trkpt><trkpt lat="44.994125" lon="8.025725"><ele>192.0</ele><time>2026-04-11T15:21:54.454Z</time></trkpt><trkpt lat="44.9941717" lon="8.0258667"><ele>192.0</ele><time>2026-04-11T15:21:56.454Z</time></trkpt><trkpt lat="44.9942317" lon="8.0260017"><ele>192.0</ele><time>2026-04-11T15:21:58.454Z</time></trkpt><trkpt lat="44.9942783" lon="8.0261267"><ele>194.8</ele><time>2026-04-11T15:22:00.454Z</time></trkpt><trkpt lat="44.9943233" lon="8.02626"><ele>197.6</ele><time>2026-04-11T15:22:02.454Z</time></trkpt><trkpt lat="44.9943467" lon="8.02639"><ele>200.4</ele><time>2026-04-11T15:22:04.454Z</time></trkpt><trkpt lat="44.994355" lon="8.0265317"><ele>203.20000000000002</ele><time>2026-04-11T15:22:06.454Z</time></trkpt><trkpt lat="44.99435" lon="8.0266633"><ele>206.0</ele><time>2026-04-11T15:22:08.454Z</time></trkpt><trkpt lat="44.9943333" lon="8.0267917"><ele>206.0</ele><time>2026-04-11T15:22:10.454Z</time></trkpt><trkpt lat="44.9943433" lon="8.026955"><ele>206.0</ele><time>2026-04-11T15:22:12.454Z</time></trkpt><trkpt lat="44.9943767" lon="8.0271333"><ele>206.0</ele><time>2026-04-11T15:22:14.454Z</time></trkpt><trkpt lat="44.9944267" lon="8.0272883"><ele>206.0</ele><time>2026-04-11T15:22:16.454Z</time></trkpt><trkpt lat="44.9944817" lon="8.027435"><ele>205.5</ele><time>2026-04-11T15:22:18.454Z</time></trkpt><trkpt lat="44.9945417" lon="8.0275817"><ele>205.0</ele><time>2026-04-11T15:22:20.454Z</time></trkpt><trkpt lat="44.9945867" lon="8.0277283"><ele>204.5</ele><time>2026-04-11T15:22:22.454Z</time></trkpt><trkpt lat="44.9946433" lon="8.0278783"><ele>204.0</ele><time>2026-04-11T15:22:24.454Z</time></trkpt><trkpt lat="44.9946883" lon="8.0280333"><ele>204.0</ele><time>2026-04-11T15:22:26.454Z</time></trkpt><trkpt lat="44.9947233" lon="8.02819"><ele>204.0</ele><time>2026-04-11T15:22:28.454Z</time></trkpt><trkpt lat="44.994765" lon="8.0283317"><ele>204.0</ele><time>2026-04-11T15:22:30.454Z</time></trkpt><trkpt lat="44.99479" lon="8.0284183"><ele>204.0</ele><time>2026-04-11T15:22:31.454Z</time></trkpt><trkpt lat="44.9948233" lon="8.028585"><ele>204.0</ele><time>2026-04-11T15:22:33.454Z</time></trkpt><trkpt lat="44.9948383" lon="8.0286767"><ele>203.25</ele><time>2026-04-11T15:22:34.454Z</time></trkpt><trkpt lat="44.9948667" lon="8.028845"><ele>202.5</ele><time>2026-04-11T15:22:36.454Z</time></trkpt><trkpt lat="44.9948933" lon="8.0290017"><ele>201.75</ele><time>2026-04-11T15:22:38.454Z</time></trkpt><trkpt lat="44.994915" lon="8.0291617"><ele>201.0</ele><time>2026-04-11T15:22:40.454Z</time></trkpt><trkpt lat="44.99494" lon="8.0293117"><ele>201.0</ele><time>2026-04-11T15:22:42.454Z</time></trkpt><trkpt lat="44.9949683" lon="8.0294617"><ele>201.0</ele><time>2026-04-11T15:22:44.454Z</time></trkpt><trkpt lat="44.99499" lon="8.0296217"><ele>201.0</ele><time>2026-04-11T15:22:46.454Z</time></trkpt><trkpt lat="44.9950183" lon="8.02977"><ele>201.0</ele><time>2026-04-11T15:22:48.454Z</time></trkpt><trkpt lat="44.9950567" lon="8.0299117"><ele>201.0</ele><time>2026-04-11T15:22:50.454Z</time></trkpt><trkpt lat="44.99512" lon="8.0300267"><ele>201.0</ele><time>2026-04-11T15:22:52.453Z</time></trkpt><trkpt lat="44.9952067" lon="8.03011"><ele>201.0</ele><time>2026-04-11T15:22:54.453Z</time></trkpt><trkpt lat="44.9953033" lon="8.03016"><ele>201.0</ele><time>2026-04-11T15:22:56.453Z</time></trkpt><trkpt lat="44.9954083" lon="8.0301983"><ele>201.0</ele><time>2026-04-11T15:22:58.453Z</time></trkpt><trkpt lat="44.9955217" lon="8.0302333"><ele>201.0</ele><time>2026-04-11T15:23:00.453Z</time></trkpt><trkpt lat="44.9956367" lon="8.0302783"><ele>201.0</ele><time>2026-04-11T15:23:02.453Z</time></trkpt><trkpt lat="44.9957317" lon="8.03032"><ele>201.0</ele><time>2026-04-11T15:23:04.453Z</time></trkpt><trkpt lat="44.99582" lon="8.0303467"><ele>201.0</ele><time>2026-04-11T15:23:06.453Z</time></trkpt><trkpt lat="44.995905" lon="8.03037"><ele>201.0</ele><time>2026-04-11T15:23:08.453Z</time></trkpt><trkpt lat="44.995995" lon="8.0304"><ele>201.0</ele><time>2026-04-11T15:23:10.453Z</time></trkpt><trkpt lat="44.9960883" lon="8.0304217"><ele>202.0</ele><time>2026-04-11T15:23:12.453Z</time></trkpt><trkpt lat="44.9961917" lon="8.0304333"><ele>203.0</ele><time>2026-04-11T15:23:14.453Z</time></trkpt><trkpt lat="44.9962917" lon="8.03044"><ele>204.0</ele><time>2026-04-11T15:23:16.453Z</time></trkpt><trkpt lat="44.99639" lon="8.0304383"><ele>205.0</ele><time>2026-04-11T15:23:18.453Z</time></trkpt><trkpt lat="44.9964833" lon="8.0304367"><ele>206.0</ele><time>2026-04-11T15:23:20.453Z</time></trkpt><trkpt lat="44.996565" lon="8.0304583"><ele>206.00000000000003</ele><time>2026-04-11T15:23:22.453Z</time></trkpt><trkpt lat="44.9966183" lon="8.03053"><ele>206.0</ele><time>2026-04-11T15:23:25.453Z</time></trkpt><trkpt lat="44.9966167" lon="8.030625"><ele>206.0</ele><time>2026-04-11T15:23:27.453Z</time></trkpt><trkpt lat="44.996615" lon="8.0307283"><ele>206.0</ele><time>2026-04-11T15:23:29.453Z</time></trkpt><trkpt lat="44.9966167" lon="8.0308433"><ele>206.00000000000003</ele><time>2026-04-11T15:23:31.453Z</time></trkpt><trkpt lat="44.996625" lon="8.0309467"><ele>206.0</ele><time>2026-04-11T15:23:33.453Z</time></trkpt><trkpt lat="44.9966183" lon="8.0310633"><ele>206.42857142857142</ele><time>2026-04-11T15:23:35.453Z</time></trkpt><trkpt lat="44.996615" lon="8.0311667"><ele>206.85714285714286</ele><time>2026-04-11T15:23:37.453Z</time></trkpt><trkpt lat="44.99662" lon="8.0312733"><ele>207.28571428571428</ele><time>2026-04-11T15:23:39.453Z</time></trkpt><trkpt lat="44.99662" lon="8.03138"><ele>207.71428571428572</ele><time>2026-04-11T15:23:41.453Z</time></trkpt><trkpt lat="44.9966283" lon="8.0314817"><ele>208.14285714285714</ele><time>2026-04-11T15:23:43.453Z</time></trkpt><trkpt lat="44.99663" lon="8.0315817"><ele>208.57142857142856</ele><time>2026-04-11T15:23:45.453Z</time></trkpt><trkpt lat="44.996635" lon="8.0316783"><ele>209.0</ele><time>2026-04-11T15:23:47.453Z</time></trkpt><trkpt lat="44.9966467" lon="8.0317667"><ele>210.50000000000003</ele><time>2026-04-11T15:23:49.453Z</time></trkpt><trkpt lat="44.996655" lon="8.0318917"><ele>212.0</ele><time>2026-04-11T15:23:52.453Z</time></trkpt><trkpt lat="44.996665" lon="8.03201"><ele>213.5</ele><time>2026-04-11T15:23:55.453Z</time></trkpt><trkpt lat="44.99668" lon="8.0320983"><ele>215.0</ele><time>2026-04-11T15:23:57.453Z</time></trkpt><trkpt lat="44.9966883" lon="8.0321917"><ele>216.50000000000003</ele><time>2026-04-11T15:23:59.453Z</time></trkpt><trkpt lat="44.9967117" lon="8.0323183"><ele>218.0</ele><time>2026-04-11T15:24:02.453Z</time></trkpt><trkpt lat="44.9967383" lon="8.0324417"><ele>222.16666666666669</ele><time>2026-04-11T15:24:05.453Z</time></trkpt><trkpt lat="44.996765" lon="8.0325517"><ele>226.33333333333334</ele><time>2026-04-11T15:24:08.453Z</time></trkpt><trkpt lat="44.9968067" lon="8.0326417"><ele>230.5</ele><time>2026-04-11T15:24:11.453Z</time></trkpt><trkpt lat="44.9968567" lon="8.0327433"><ele>234.66666666666669</ele><time>2026-04-11T15:24:14.453Z</time></trkpt><trkpt lat="44.9969" lon="8.03281"><ele>238.83333333333334</ele><time>2026-04-11T15:24:16.453Z</time></trkpt><trkpt lat="44.99696" lon="8.0328983"><ele>243.0</ele><time>2026-04-11T15:24:19.453Z</time></trkpt><trkpt lat="44.997015" lon="8.0329817"><ele>243.0</ele><time>2026-04-11T15:24:22.453Z</time></trkpt><trkpt lat="44.9970683" lon="8.033065"><ele>243.0</ele><time>2026-04-11T15:24:25.453Z</time></trkpt><trkpt lat="44.9971333" lon="8.0331533"><ele>243.0</ele><time>2026-04-11T15:24:28.453Z</time></trkpt><trkpt lat="44.9971967" lon="8.0332317"><ele>243.0</ele><time>2026-04-11T15:24:31.453Z</time></trkpt><trkpt lat="44.9972617" lon="8.033305"><ele>243.0</ele><time>2026-04-11T15:24:34.453Z</time></trkpt><trkpt lat="44.997325" lon="8.0333717"><ele>243.0</ele><time>2026-04-11T15:24:37.453Z</time></trkpt><trkpt lat="44.9973867" lon="8.033445"><ele>242.66666666666666</ele><time>2026-04-11T15:24:40.453Z</time></trkpt><trkpt lat="44.997455" lon="8.0335083"><ele>242.33333333333331</ele><time>2026-04-11T15:24:43.453Z</time></trkpt><trkpt lat="44.9975267" lon="8.03358"><ele>242.0</ele><time>2026-04-11T15:24:46.453Z</time></trkpt><trkpt lat="44.9975917" lon="8.0336583"><ele>241.66666666666666</ele><time>2026-04-11T15:24:49.453Z</time></trkpt><trkpt lat="44.9976583" lon="8.0337283"><ele>241.33333333333331</ele><time>2026-04-11T15:24:52.453Z</time></trkpt><trkpt lat="44.9977217" lon="8.033785"><ele>241.0</ele><time>2026-04-11T15:24:55.453Z</time></trkpt><trkpt lat="44.9977783" lon="8.0338617"><ele>241.16666666666666</ele><time>2026-04-11T15:24:58.454Z</time></trkpt><trkpt lat="44.997795" lon="8.033955"><ele>241.33333333333331</ele><time>2026-04-11T15:25:01.453Z</time></trkpt><trkpt lat="44.9977317" lon="8.0340383"><ele>241.5</ele><time>2026-04-11T15:25:04.453Z</time></trkpt><trkpt lat="44.99765" lon="8.0340783"><ele>241.66666666666669</ele><time>2026-04-11T15:25:07.453Z</time></trkpt><trkpt lat="44.997575" lon="8.0341"><ele>241.83333333333334</ele><time>2026-04-11T15:25:10.453Z</time></trkpt><trkpt lat="44.997515" lon="8.0341317"><ele>242.0</ele><time>2026-04-11T15:25:12.453Z</time></trkpt><trkpt lat="44.99746" lon="8.0342067"><ele>242.00000000000003</ele><time>2026-04-11T15:25:15.453Z</time></trkpt><trkpt lat="44.9974767" lon="8.03432"><ele>242.0</ele><time>2026-04-11T15:25:18.453Z</time></trkpt><trkpt lat="44.9975283" lon="8.034415"><ele>242.0</ele><time>2026-04-11T15:25:21.454Z</time></trkpt><trkpt lat="44.997585" lon="8.0344933"><ele>242.0</ele><time>2026-04-11T15:25:24.453Z</time></trkpt><trkpt lat="44.9976367" lon="8.0345483"><ele>242.00000000000003</ele><time>2026-04-11T15:25:26.453Z</time></trkpt><trkpt lat="44.99771" lon="8.0346183"><ele>242.0</ele><time>2026-04-11T15:25:29.453Z</time></trkpt><trkpt lat="44.9977767" lon="8.03468"><ele>244.0</ele><time>2026-04-11T15:25:32.453Z</time></trkpt><trkpt lat="44.9978283" lon="8.03474"><ele>245.99999999999997</ele><time>2026-04-11T15:25:35.453Z</time></trkpt><trkpt lat="44.9978733" lon="8.0348083"><ele>248.0</ele><time>2026-04-11T15:25:38.453Z</time></trkpt><trkpt lat="44.9978467" lon="8.0349067"><ele>250.0</ele><time>2026-04-11T15:25:44.453Z</time></trkpt><trkpt lat="44.9977833" lon="8.034885"><ele>251.99999999999997</ele><time>2026-04-11T15:25:48.453Z</time></trkpt><trkpt lat="44.9977283" lon="8.03483"><ele>254.0</ele><time>2026-04-11T15:25:51.454Z</time></trkpt><trkpt lat="44.99765" lon="8.0347733"><ele>256.0</ele><time>2026-04-11T15:25:54.453Z</time></trkpt><trkpt lat="44.9975667" lon="8.03472"><ele>254.0</ele><time>2026-04-11T15:25:57.453Z</time></trkpt><trkpt lat="44.9974983" lon="8.0346717"><ele>251.99999999999997</ele><time>2026-04-11T15:26:00.453Z</time></trkpt><trkpt lat="44.9974333" lon="8.034625"><ele>250.0</ele><time>2026-04-11T15:26:03.453Z</time></trkpt><trkpt lat="44.9973683" lon="8.034565"><ele>248.0</ele><time>2026-04-11T15:26:06.453Z</time></trkpt><trkpt lat="44.9973117" lon="8.0345033"><ele>245.99999999999997</ele><time>2026-04-11T15:26:09.453Z</time></trkpt><trkpt lat="44.99724" lon="8.0344517"><ele>244.0</ele><time>2026-04-11T15:26:12.453Z</time></trkpt><trkpt lat="44.9971817" lon="8.03441"><ele>242.0</ele><time>2026-04-11T15:26:14.453Z</time></trkpt><trkpt lat="44.9971033" lon="8.03435"><ele>242.00000000000003</ele><time>2026-04-11T15:26:17.453Z</time></trkpt><trkpt lat="44.997015" lon="8.034325"><ele>242.0</ele><time>2026-04-11T15:26:20.453Z</time></trkpt><trkpt lat="44.9969517" lon="8.0343133"><ele>242.0</ele><time>2026-04-11T15:26:22.453Z</time></trkpt><trkpt lat="44.9968883" lon="8.0343183"><ele>242.0</ele><time>2026-04-11T15:26:24.453Z</time></trkpt><trkpt lat="44.9968133" lon="8.03435"><ele>242.00000000000003</ele><time>2026-04-11T15:26:27.453Z</time></trkpt><trkpt lat="44.9967367" lon="8.0343917"><ele>242.0</ele><time>2026-04-11T15:26:30.453Z</time></trkpt><trkpt lat="44.9966667" lon="8.0344467"><ele>244.00000000000003</ele><time>2026-04-11T15:26:33.453Z</time></trkpt><trkpt lat="44.9966" lon="8.0345283"><ele>246.0</ele><time>2026-04-11T15:26:36.453Z</time></trkpt><trkpt lat="44.9965467" lon="8.03462"><ele>248.0</ele><time>2026-04-11T15:26:39.453Z</time></trkpt><trkpt lat="44.9965" lon="8.0347283"><ele>250.0</ele><time>2026-04-11T15:26:42.453Z</time></trkpt><trkpt lat="44.996455" lon="8.034835"><ele>252.00000000000003</ele><time>2026-04-11T15:26:45.453Z</time></trkpt><trkpt lat="44.9964183" lon="8.0349233"><ele>254.0</ele><time>2026-04-11T15:26:47.453Z</time></trkpt><trkpt lat="44.9963817" lon="8.0350033"><ele>255.66666666666669</ele><time>2026-04-11T15:26:49.453Z</time></trkpt><trkpt lat="44.996345" lon="8.035095"><ele>257.33333333333337</ele><time>2026-04-11T15:26:51.453Z</time></trkpt><trkpt lat="44.9963117" lon="8.0351833"><ele>259.0</ele><time>2026-04-11T15:26:53.453Z</time></trkpt><trkpt lat="44.9962683" lon="8.0352717"><ele>260.6666666666667</ele><time>2026-04-11T15:26:55.453Z</time></trkpt><trkpt lat="44.9962233" lon="8.0353683"><ele>262.3333333333333</ele><time>2026-04-11T15:26:57.453Z</time></trkpt><trkpt lat="44.9961667" lon="8.035475"><ele>264.0</ele><time>2026-04-11T15:26:59.453Z</time></trkpt><trkpt lat="44.9961117" lon="8.0355767"><ele>264.0</ele><time>2026-04-11T15:27:01.453Z</time></trkpt><trkpt lat="44.9960633" lon="8.0356767"><ele>264.0</ele><time>2026-04-11T15:27:03.453Z</time></trkpt><trkpt lat="44.9960083" lon="8.035765"><ele>264.0</ele><time>2026-04-11T15:27:05.453Z</time></trkpt><trkpt lat="44.9959517" lon="8.0358567"><ele>264.0</ele><time>2026-04-11T15:27:07.454Z</time></trkpt><trkpt lat="44.9959" lon="8.035945"><ele>264.0</ele><time>2026-04-11T15:27:09.453Z</time></trkpt><trkpt lat="44.9958583" lon="8.0360217"><ele>264.0</ele><time>2026-04-11T15:27:11.453Z</time></trkpt><trkpt lat="44.9958317" lon="8.036125"><ele>263.3333333333333</ele><time>2026-04-11T15:27:28.453Z</time></trkpt><trkpt lat="44.9957717" lon="8.0362283"><ele>262.6666666666667</ele><time>2026-04-11T15:27:31.453Z</time></trkpt><trkpt lat="44.9957217" lon="8.036315"><ele>262.0</ele><time>2026-04-11T15:27:33.453Z</time></trkpt><trkpt lat="44.995665" lon="8.0363983"><ele>261.33333333333337</ele><time>2026-04-11T15:27:35.453Z</time></trkpt><trkpt lat="44.995615" lon="8.0364683"><ele>260.6666666666667</ele><time>2026-04-11T15:27:37.453Z</time></trkpt><trkpt lat="44.995545" lon="8.0365267"><ele>260.0</ele><time>2026-04-11T15:27:40.453Z</time></trkpt><trkpt lat="44.995475" lon="8.0365883"><ele>260.0</ele><time>2026-04-11T15:27:43.453Z</time></trkpt><trkpt lat="44.995405" lon="8.0366233"><ele>260.0</ele><time>2026-04-11T15:27:45.453Z</time></trkpt><trkpt lat="44.99531" lon="8.0366717"><ele>260.0</ele><time>2026-04-11T15:27:47.453Z</time></trkpt><trkpt lat="44.995225" lon="8.0367433"><ele>260.0</ele><time>2026-04-11T15:27:49.453Z</time></trkpt><trkpt lat="44.995125" lon="8.0368017"><ele>260.0</ele><time>2026-04-11T15:27:51.453Z</time></trkpt><trkpt lat="44.995025" lon="8.0368733"><ele>259.4</ele><time>2026-04-11T15:27:53.453Z</time></trkpt><trkpt lat="44.99491" lon="8.036935"><ele>258.8</ele><time>2026-04-11T15:27:55.453Z</time></trkpt><trkpt lat="44.9947817" lon="8.0369783"><ele>258.2</ele><time>2026-04-11T15:27:57.453Z</time></trkpt><trkpt lat="44.994715" lon="8.037"><ele>257.6</ele><time>2026-04-11T15:27:58.453Z</time></trkpt><trkpt lat="44.9946433" lon="8.0370183"><ele>257.0</ele><time>2026-04-11T15:27:59.453Z</time></trkpt><trkpt lat="44.99458" lon="8.0370367"><ele>257.0</ele><time>2026-04-11T15:28:00.453Z</time></trkpt><trkpt lat="44.9944717" lon="8.0370767"><ele>257.0</ele><time>2026-04-11T15:28:02.453Z</time></trkpt><trkpt lat="44.994385" lon="8.037145"><ele>257.0</ele><time>2026-04-11T15:28:04.453Z</time></trkpt><trkpt lat="44.9943167" lon="8.037245"><ele>257.0</ele><time>2026-04-11T15:28:06.453Z</time></trkpt><trkpt lat="44.994265" lon="8.0373667"><ele>257.0</ele><time>2026-04-11T15:28:08.454Z</time></trkpt><trkpt lat="44.9942133" lon="8.0374317"><ele>256.6666666666667</ele><time>2026-04-11T15:28:10.453Z</time></trkpt><trkpt lat="44.9941" lon="8.0374733"><ele>256.33333333333337</ele><time>2026-04-11T15:28:12.453Z</time></trkpt><trkpt lat="44.9940283" lon="8.03749"><ele>256.0</ele><time>2026-04-11T15:28:13.453Z</time></trkpt><trkpt lat="44.9939533" lon="8.0375117"><ele>255.66666666666669</ele><time>2026-04-11T15:28:14.453Z</time></trkpt><trkpt lat="44.993875" lon="8.03753"><ele>255.33333333333334</ele><time>2026-04-11T15:28:15.453Z</time></trkpt><trkpt lat="44.9938033" lon="8.037575"><ele>255.0</ele><time>2026-04-11T15:28:16.453Z</time></trkpt><trkpt lat="44.9937417" lon="8.0376367"><ele>255.0</ele><time>2026-04-11T15:28:17.453Z</time></trkpt><trkpt lat="44.993685" lon="8.0377117"><ele>255.0</ele><time>2026-04-11T15:28:18.453Z</time></trkpt><trkpt lat="44.9936383" lon="8.0377817"><ele>255.0</ele><time>2026-04-11T15:28:19.453Z</time></trkpt><trkpt lat="44.9935667" lon="8.0379317"><ele>255.0</ele><time>2026-04-11T15:28:21.453Z</time></trkpt><trkpt lat="44.9935117" lon="8.0380817"><ele>255.0</ele><time>2026-04-11T15:28:23.453Z</time></trkpt><trkpt lat="44.9934783" lon="8.0382383"><ele>252.4</ele><time>2026-04-11T15:28:25.453Z</time></trkpt><trkpt lat="44.993465" lon="8.0383283"><ele>249.8</ele><time>2026-04-11T15:28:26.453Z</time></trkpt><trkpt lat="44.993445" lon="8.0384967"><ele>247.2</ele><time>2026-04-11T15:28:28.453Z</time></trkpt><trkpt lat="44.9934317" lon="8.0386383"><ele>244.6</ele><time>2026-04-11T15:28:30.453Z</time></trkpt><trkpt lat="44.9934267" lon="8.0387567"><ele>242.0</ele><time>2026-04-11T15:28:32.453Z</time></trkpt><trkpt lat="44.99339" lon="8.038885"><ele>242.00000000000003</ele><time>2026-04-11T15:28:34.453Z</time></trkpt><trkpt lat="44.9933433" lon="8.03903"><ele>242.0</ele><time>2026-04-11T15:28:36.453Z</time></trkpt><trkpt lat="44.9933183" lon="8.039115"><ele>242.0</ele><time>2026-04-11T15:28:37.453Z</time></trkpt><trkpt lat="44.9932883" lon="8.0391983"><ele>242.0</ele><time>2026-04-11T15:28:38.453Z</time></trkpt><trkpt lat="44.9932517" lon="8.0392767"><ele>242.00000000000003</ele><time>2026-04-11T15:28:39.453Z</time></trkpt><trkpt lat="44.993215" lon="8.0393517"><ele>242.0</ele><time>2026-04-11T15:28:40.453Z</time></trkpt><trkpt lat="44.9931283" lon="8.0394783"><ele>243.39999999999998</ele><time>2026-04-11T15:28:42.453Z</time></trkpt><trkpt lat="44.993055" lon="8.0395867"><ele>244.79999999999998</ele><time>2026-04-11T15:28:44.453Z</time></trkpt><trkpt lat="44.9930033" lon="8.0397283"><ele>246.2</ele><time>2026-04-11T15:28:46.453Z</time></trkpt><trkpt lat="44.9929867" lon="8.039835"><ele>247.6</ele><time>2026-04-11T15:28:47.453Z</time></trkpt><trkpt lat="44.99297" lon="8.0399633"><ele>249.0</ele><time>2026-04-11T15:28:48.453Z</time></trkpt><trkpt lat="44.9929533" lon="8.0401033"><ele>249.0</ele><time>2026-04-11T15:28:49.453Z</time></trkpt><trkpt lat="44.9929433" lon="8.0402317"><ele>249.0</ele><time>2026-04-11T15:28:50.453Z</time></trkpt><trkpt lat="44.9929217" lon="8.0403433"><ele>249.0</ele><time>2026-04-11T15:28:51.453Z</time></trkpt><trkpt lat="44.9928883" lon="8.0404633"><ele>249.0</ele><time>2026-04-11T15:28:52.453Z</time></trkpt><trkpt lat="44.9928483" lon="8.0405817"><ele>249.0</ele><time>2026-04-11T15:28:53.453Z</time></trkpt><trkpt lat="44.99281" lon="8.0406983"><ele>249.0</ele><time>2026-04-11T15:28:54.453Z</time></trkpt><trkpt lat="44.9927767" lon="8.04081"><ele>246.66666666666666</ele><time>2026-04-11T15:28:55.453Z</time></trkpt><trkpt lat="44.9927433" lon="8.04093"><ele>244.33333333333331</ele><time>2026-04-11T15:28:56.453Z</time></trkpt><trkpt lat="44.9927083" lon="8.041045"><ele>242.0</ele><time>2026-04-11T15:28:57.453Z</time></trkpt><trkpt lat="44.9926717" lon="8.0411533"><ele>239.66666666666666</ele><time>2026-04-11T15:28:58.453Z</time></trkpt><trkpt lat="44.9926417" lon="8.041265"><ele>237.33333333333331</ele><time>2026-04-11T15:28:59.454Z</time></trkpt><trkpt lat="44.9926067" lon="8.0413683"><ele>235.0</ele><time>2026-04-11T15:29:00.453Z</time></trkpt><trkpt lat="44.992565" lon="8.0414633"><ele>235.0</ele><time>2026-04-11T15:29:01.453Z</time></trkpt><trkpt lat="44.99252" lon="8.04155"><ele>234.99999999999997</ele><time>2026-04-11T15:29:02.454Z</time></trkpt><trkpt lat="44.992475" lon="8.04164"><ele>235.0</ele><time>2026-04-11T15:29:03.453Z</time></trkpt><trkpt lat="44.99242" lon="8.04172"><ele>235.0</ele><time>2026-04-11T15:29:04.453Z</time></trkpt><trkpt lat="44.9923683" lon="8.0417783"><ele>234.99999999999997</ele><time>2026-04-11T15:29:05.453Z</time></trkpt><trkpt lat="44.9923033" lon="8.0418367"><ele>235.0</ele><time>2026-04-11T15:29:06.453Z</time></trkpt><trkpt lat="44.9922433" lon="8.0418717"><ele>235.0</ele><time>2026-04-11T15:29:07.453Z</time></trkpt><trkpt lat="44.9921717" lon="8.0419217"><ele>234.85714285714283</ele><time>2026-04-11T15:29:08.453Z</time></trkpt><trkpt lat="44.9921133" lon="8.0419883"><ele>234.7142857142857</ele><time>2026-04-11T15:29:09.454Z</time></trkpt><trkpt lat="44.9920683" lon="8.042065"><ele>234.57142857142856</ele><time>2026-04-11T15:29:10.453Z</time></trkpt><trkpt lat="44.992035" lon="8.0421467"><ele>234.42857142857144</ele><time>2026-04-11T15:29:11.454Z</time></trkpt><trkpt lat="44.992" lon="8.042235"><ele>234.2857142857143</ele><time>2026-04-11T15:29:12.453Z</time></trkpt><trkpt lat="44.9919633" lon="8.04232"><ele>234.14285714285717</ele><time>2026-04-11T15:29:13.453Z</time></trkpt><trkpt lat="44.99192" lon="8.0424067"><ele>234.0</ele><time>2026-04-11T15:29:14.453Z</time></trkpt><trkpt lat="44.9918717" lon="8.0424967"><ele>234.0</ele><time>2026-04-11T15:29:15.453Z</time></trkpt><trkpt lat="44.9918317" lon="8.0425817"><ele>234.00000000000003</ele><time>2026-04-11T15:29:16.453Z</time></trkpt><trkpt lat="44.9917867" lon="8.04268"><ele>234.0</ele><time>2026-04-11T15:29:17.453Z</time></trkpt><trkpt lat="44.99174" lon="8.0427717"><ele>234.0</ele><time>2026-04-11T15:29:18.454Z</time></trkpt><trkpt lat="44.9917017" lon="8.0428583"><ele>234.00000000000003</ele><time>2026-04-11T15:29:19.453Z</time></trkpt><trkpt lat="44.99167" lon="8.0429483"><ele>234.0</ele><time>2026-04-11T15:29:20.453Z</time></trkpt><trkpt lat="44.9916383" lon="8.043035"><ele>234.0</ele><time>2026-04-11T15:29:21.453Z</time></trkpt><trkpt lat="44.9916067" lon="8.0431217"><ele>235.6</ele><time>2026-04-11T15:29:22.453Z</time></trkpt><trkpt lat="44.99157" lon="8.0432133"><ele>237.2</ele><time>2026-04-11T15:29:23.453Z</time></trkpt><trkpt lat="44.9915317" lon="8.0432917"><ele>238.79999999999998</ele><time>2026-04-11T15:29:24.453Z</time></trkpt><trkpt lat="44.9914617" lon="8.0434383"><ele>240.39999999999998</ele><time>2026-04-11T15:29:26.453Z</time></trkpt><trkpt lat="44.9913967" lon="8.0435583"><ele>242.0</ele><time>2026-04-11T15:29:28.453Z</time></trkpt><trkpt lat="44.9913333" lon="8.0436617"><ele>242.00000000000003</ele><time>2026-04-11T15:29:30.453Z</time></trkpt><trkpt lat="44.9912767" lon="8.0437417"><ele>242.0</ele><time>2026-04-11T15:29:32.453Z</time></trkpt><trkpt lat="44.99121" lon="8.0437933"><ele>242.0</ele><time>2026-04-11T15:29:34.453Z</time></trkpt><trkpt lat="44.99114" lon="8.0438417"><ele>242.0</ele><time>2026-04-11T15:29:36.453Z</time></trkpt><trkpt lat="44.9910748" lon="8.0438925"><ele>242.00000000000003</ele><time>2026-04-11T15:29:39.421Z</time></trkpt><trkpt lat="44.9910373" lon="8.0439928"><ele>242.0</ele><time>2026-04-11T15:29:41.514Z</time></trkpt><trkpt lat="44.9909276" lon="8.0440074"><ele>242.00000000000003</ele><time>2026-04-11T15:29:43.503Z</time></trkpt><trkpt lat="44.9908542" lon="8.0440258"><ele>242.0</ele><time>2026-04-11T15:29:44.416Z</time></trkpt><trkpt lat="44.9907616" lon="8.044054"><ele>242.0</ele><time>2026-04-11T15:29:46.539Z</time></trkpt><trkpt lat="44.990692" lon="8.0441154"><ele>242.0</ele><time>2026-04-11T15:29:48.387Z</time></trkpt><trkpt lat="44.9906183" lon="8.044195"><ele>242.00000000000003</ele><time>2026-04-11T15:29:50.453Z</time></trkpt><trkpt lat="44.990545" lon="8.0442933"><ele>242.0</ele><time>2026-04-11T15:29:52.453Z</time></trkpt><trkpt lat="44.990505" lon="8.0444367"><ele>243.00000000000003</ele><time>2026-04-11T15:29:54.453Z</time></trkpt><trkpt lat="44.9904767" lon="8.0446017"><ele>244.0</ele><time>2026-04-11T15:29:56.453Z</time></trkpt><trkpt lat="44.9904633" lon="8.0446933"><ele>245.0</ele><time>2026-04-11T15:29:57.453Z</time></trkpt><trkpt lat="44.9904417" lon="8.0448633"><ele>246.0</ele><time>2026-04-11T15:29:59.453Z</time></trkpt><trkpt lat="44.9904133" lon="8.04495"><ele>247.00000000000003</ele><time>2026-04-11T15:30:00.453Z</time></trkpt><trkpt lat="44.9903717" lon="8.0450217"><ele>248.0</ele><time>2026-04-11T15:30:01.453Z</time></trkpt><trkpt lat="44.99031" lon="8.045085"><ele>246.83333333333334</ele><time>2026-04-11T15:30:02.453Z</time></trkpt><trkpt lat="44.9902383" lon="8.0451317"><ele>245.66666666666669</ele><time>2026-04-11T15:30:03.453Z</time></trkpt><trkpt lat="44.9901633" lon="8.0452017"><ele>244.5</ele><time>2026-04-11T15:30:04.453Z</time></trkpt><trkpt lat="44.990095" lon="8.04528"><ele>243.33333333333331</ele><time>2026-04-11T15:30:05.453Z</time></trkpt><trkpt lat="44.9900333" lon="8.0453533"><ele>242.16666666666666</ele><time>2026-04-11T15:30:06.453Z</time></trkpt><trkpt lat="44.9899833" lon="8.0454217"><ele>241.0</ele><time>2026-04-11T15:30:07.453Z</time></trkpt><trkpt lat="44.9899333" lon="8.0454917"><ele>240.99999999999997</ele><time>2026-04-11T15:30:08.453Z</time></trkpt><trkpt lat="44.9898883" lon="8.045565"><ele>241.0</ele><time>2026-04-11T15:30:09.453Z</time></trkpt><trkpt lat="44.9898433" lon="8.0456367"><ele>241.0</ele><time>2026-04-11T15:30:10.453Z</time></trkpt><trkpt lat="44.9897967" lon="8.045705"><ele>241.0</ele><time>2026-04-11T15:30:11.453Z</time></trkpt><trkpt lat="44.9897483" lon="8.0457683"><ele>240.99999999999997</ele><time>2026-04-11T15:30:12.453Z</time></trkpt><trkpt lat="44.9896617" lon="8.0458733"><ele>241.0</ele><time>2026-04-11T15:30:14.453Z</time></trkpt><trkpt lat="44.989595" lon="8.0459533"><ele>240.14285714285717</ele><time>2026-04-11T15:30:16.453Z</time></trkpt><trkpt lat="44.9895433" lon="8.0460267"><ele>239.2857142857143</ele><time>2026-04-11T15:30:18.454Z</time></trkpt><trkpt lat="44.9894983" lon="8.046095"><ele>238.42857142857144</ele><time>2026-04-11T15:30:20.453Z</time></trkpt><trkpt lat="44.9894433" lon="8.0461683"><ele>237.57142857142856</ele><time>2026-04-11T15:30:22.453Z</time></trkpt><trkpt lat="44.9893833" lon="8.0462383"><ele>236.7142857142857</ele><time>2026-04-11T15:30:24.453Z</time></trkpt><trkpt lat="44.9893183" lon="8.0463"><ele>235.85714285714283</ele><time>2026-04-11T15:30:26.453Z</time></trkpt><trkpt lat="44.9892617" lon="8.04637"><ele>235.0</ele><time>2026-04-11T15:30:28.453Z</time></trkpt><trkpt lat="44.9892167" lon="8.04644"><ele>235.33333333333331</ele><time>2026-04-11T15:30:30.453Z</time></trkpt><trkpt lat="44.9891617" lon="8.0465333"><ele>235.66666666666666</ele><time>2026-04-11T15:30:33.453Z</time></trkpt><trkpt lat="44.9891133" lon="8.04662"><ele>236.0</ele><time>2026-04-11T15:30:36.453Z</time></trkpt><trkpt lat="44.989055" lon="8.0467383"><ele>236.33333333333331</ele><time>2026-04-11T15:30:39.453Z</time></trkpt><trkpt lat="44.989" lon="8.0468267"><ele>236.66666666666666</ele><time>2026-04-11T15:30:41.453Z</time></trkpt><trkpt lat="44.9889533" lon="8.0469017"><ele>237.0</ele><time>2026-04-11T15:30:43.453Z</time></trkpt><trkpt lat="44.9889033" lon="8.0469783"><ele>237.6</ele><time>2026-04-11T15:30:45.453Z</time></trkpt><trkpt lat="44.98883" lon="8.04705"><ele>238.2</ele><time>2026-04-11T15:30:47.453Z</time></trkpt><trkpt lat="44.9887233" lon="8.0471217"><ele>238.8</ele><time>2026-04-11T15:30:49.453Z</time></trkpt><trkpt lat="44.988605" lon="8.0472133"><ele>239.4</ele><time>2026-04-11T15:30:51.453Z</time></trkpt><trkpt lat="44.9885433" lon="8.0472617"><ele>240.0</ele><time>2026-04-11T15:30:52.453Z</time></trkpt><trkpt lat="44.9884733" lon="8.04731"><ele>240.0</ele><time>2026-04-11T15:30:53.453Z</time></trkpt><trkpt lat="44.9884017" lon="8.04736"><ele>240.0</ele><time>2026-04-11T15:30:54.453Z</time></trkpt><trkpt lat="44.9883333" lon="8.04741"><ele>240.0</ele><time>2026-04-11T15:30:55.453Z</time></trkpt><trkpt lat="44.9882633" lon="8.047455"><ele>240.0</ele><time>2026-04-11T15:30:56.453Z</time></trkpt><trkpt lat="44.9882" lon="8.0475083"><ele>240.0</ele><time>2026-04-11T15:30:57.453Z</time></trkpt><trkpt lat="44.9881283" lon="8.0475433"><ele>240.0</ele><time>2026-04-11T15:30:58.453Z</time></trkpt><trkpt lat="44.9880567" lon="8.0475767"><ele>239.5</ele><time>2026-04-11T15:30:59.453Z</time></trkpt><trkpt lat="44.9879917" lon="8.04762"><ele>239.0</ele><time>2026-04-11T15:31:00.453Z</time></trkpt><trkpt lat="44.9879267" lon="8.0476633"><ele>238.5</ele><time>2026-04-11T15:31:01.453Z</time></trkpt><trkpt lat="44.98786" lon="8.0477083"><ele>238.0</ele><time>2026-04-11T15:31:02.453Z</time></trkpt><trkpt lat="44.9877883" lon="8.047755"><ele>237.5</ele><time>2026-04-11T15:31:03.453Z</time></trkpt><trkpt lat="44.9877133" lon="8.0478083"><ele>237.0</ele><time>2026-04-11T15:31:04.453Z</time></trkpt><trkpt lat="44.9876333" lon="8.0478683"><ele>237.0</ele><time>2026-04-11T15:31:05.453Z</time></trkpt><trkpt lat="44.9875533" lon="8.047925"><ele>237.0</ele><time>2026-04-11T15:31:06.453Z</time></trkpt><trkpt lat="44.9874717" lon="8.04798"><ele>237.0</ele><time>2026-04-11T15:31:07.453Z</time></trkpt><trkpt lat="44.98739" lon="8.048035"><ele>237.0</ele><time>2026-04-11T15:31:08.453Z</time></trkpt><trkpt lat="44.9873067" lon="8.0480867"><ele>237.0</ele><time>2026-04-11T15:31:09.453Z</time></trkpt><trkpt lat="44.9872267" lon="8.0481417"><ele>237.0</ele><time>2026-04-11T15:31:10.453Z</time></trkpt><trkpt lat="44.98714" lon="8.0482017"><ele>237.0</ele><time>2026-04-11T15:31:11.453Z</time></trkpt><trkpt lat="44.9870533" lon="8.0482633"><ele>237.0</ele><time>2026-04-11T15:31:12.453Z</time></trkpt><trkpt lat="44.98697" lon="8.0483283"><ele>237.0</ele><time>2026-04-11T15:31:13.453Z</time></trkpt><trkpt lat="44.986885" lon="8.0483933"><ele>237.0</ele><time>2026-04-11T15:31:14.453Z</time></trkpt><trkpt lat="44.9867967" lon="8.0484617"><ele>237.0</ele><time>2026-04-11T15:31:15.453Z</time></trkpt><trkpt lat="44.98672" lon="8.04853"><ele>237.0</ele><time>2026-04-11T15:31:16.453Z</time></trkpt><trkpt lat="44.9866383" lon="8.0486083"><ele>237.0</ele><time>2026-04-11T15:31:17.453Z</time></trkpt><trkpt lat="44.9865583" lon="8.0486983"><ele>237.0</ele><time>2026-04-11T15:31:18.453Z</time></trkpt><trkpt lat="44.9864783" lon="8.0487917"><ele>237.0</ele><time>2026-04-11T15:31:19.453Z</time></trkpt><trkpt lat="44.98639" lon="8.04888"><ele>234.25</ele><time>2026-04-11T15:31:20.453Z</time></trkpt><trkpt lat="44.9862983" lon="8.0489817"><ele>231.5</ele><time>2026-04-11T15:31:21.453Z</time></trkpt><trkpt lat="44.98621" lon="8.0490883"><ele>228.75</ele><time>2026-04-11T15:31:22.453Z</time></trkpt><trkpt lat="44.98613" lon="8.049205"><ele>226.0</ele><time>2026-04-11T15:31:23.453Z</time></trkpt><trkpt lat="44.9860517" lon="8.0493233"><ele>226.0</ele><time>2026-04-11T15:31:24.453Z</time></trkpt><trkpt lat="44.985975" lon="8.0494433"><ele>226.00000000000003</ele><time>2026-04-11T15:31:25.453Z</time></trkpt><trkpt lat="44.9858933" lon="8.04955"><ele>226.00000000000003</ele><time>2026-04-11T15:31:26.453Z</time></trkpt><trkpt lat="44.9858083" lon="8.04965"><ele>226.0</ele><time>2026-04-11T15:31:27.453Z</time></trkpt><trkpt lat="44.9857267" lon="8.0497483"><ele>226.0</ele><time>2026-04-11T15:31:28.453Z</time></trkpt><trkpt lat="44.985645" lon="8.049845"><ele>223.4</ele><time>2026-04-11T15:31:29.453Z</time></trkpt><trkpt lat="44.9855717" lon="8.049945"><ele>220.8</ele><time>2026-04-11T15:31:30.453Z</time></trkpt><trkpt lat="44.9854983" lon="8.0500367"><ele>218.20000000000002</ele><time>2026-04-11T15:31:31.453Z</time></trkpt><trkpt lat="44.98542" lon="8.0501333"><ele>215.60000000000002</ele><time>2026-04-11T15:31:32.453Z</time></trkpt><trkpt lat="44.9853433" lon="8.0502217"><ele>213.0</ele><time>2026-04-11T15:31:33.453Z</time></trkpt><trkpt lat="44.9852767" lon="8.05031"><ele>213.0</ele><time>2026-04-11T15:31:34.453Z</time></trkpt><trkpt lat="44.9852133" lon="8.0504017"><ele>213.0</ele><time>2026-04-11T15:31:35.453Z</time></trkpt><trkpt lat="44.985155" lon="8.0504967"><ele>213.0</ele><time>2026-04-11T15:31:36.453Z</time></trkpt><trkpt lat="44.985105" lon="8.0505933"><ele>213.0</ele><time>2026-04-11T15:31:37.453Z</time></trkpt><trkpt lat="44.9850617" lon="8.0506933"><ele>213.0</ele><time>2026-04-11T15:31:38.453Z</time></trkpt><trkpt lat="44.9850317" lon="8.050795"><ele>213.0</ele><time>2026-04-11T15:31:39.453Z</time></trkpt><trkpt lat="44.9850017" lon="8.0509017"><ele>213.14285714285714</ele><time>2026-04-11T15:31:40.453Z</time></trkpt><trkpt lat="44.9849767" lon="8.0510067"><ele>213.28571428571428</ele><time>2026-04-11T15:31:41.453Z</time></trkpt><trkpt lat="44.984955" lon="8.051095"><ele>213.42857142857144</ele><time>2026-04-11T15:31:42.453Z</time></trkpt><trkpt lat="44.984935" lon="8.0511817"><ele>213.57142857142856</ele><time>2026-04-11T15:31:43.453Z</time></trkpt><trkpt lat="44.984915" lon="8.0512667"><ele>213.71428571428572</ele><time>2026-04-11T15:31:44.453Z</time></trkpt><trkpt lat="44.9848867" lon="8.0513533"><ele>213.85714285714286</ele><time>2026-04-11T15:31:45.453Z</time></trkpt><trkpt lat="44.9848583" lon="8.0514333"><ele>214.0</ele><time>2026-04-11T15:31:46.453Z</time></trkpt><trkpt lat="44.9848283" lon="8.0515117"><ele>216.6</ele><time>2026-04-11T15:31:47.453Z</time></trkpt><trkpt lat="44.9847883" lon="8.0516567"><ele>219.2</ele><time>2026-04-11T15:31:49.453Z</time></trkpt><trkpt lat="44.9847417" lon="8.0517983"><ele>221.79999999999998</ele><time>2026-04-11T15:31:51.453Z</time></trkpt><trkpt lat="44.9846933" lon="8.05193"><ele>224.39999999999998</ele><time>2026-04-11T15:31:53.453Z</time></trkpt><trkpt lat="44.98465" lon="8.052055"><ele>227.0</ele><time>2026-04-11T15:31:55.453Z</time></trkpt><trkpt lat="44.9846083" lon="8.052175"><ele>227.00000000000003</ele><time>2026-04-11T15:31:57.453Z</time></trkpt><trkpt lat="44.9845767" lon="8.0522667"><ele>227.0</ele><time>2026-04-11T15:31:59.453Z</time></trkpt><trkpt lat="44.9845583" lon="8.0523667"><ele>227.0</ele><time>2026-04-11T15:32:01.453Z</time></trkpt><trkpt lat="44.9845517" lon="8.052485"><ele>227.0</ele><time>2026-04-11T15:32:03.453Z</time></trkpt><trkpt lat="44.98454" lon="8.052655"><ele>227.00000000000003</ele><time>2026-04-11T15:32:05.453Z</time></trkpt><trkpt lat="44.9845283" lon="8.0527583"><ele>227.0</ele><time>2026-04-11T15:32:06.453Z</time></trkpt><trkpt lat="44.9845117" lon="8.0528633"><ele>228.2</ele><time>2026-04-11T15:32:07.453Z</time></trkpt><trkpt lat="44.9844933" lon="8.0529833"><ele>229.39999999999998</ele><time>2026-04-11T15:32:08.453Z</time></trkpt><trkpt lat="44.9844767" lon="8.0531067"><ele>230.60000000000002</ele><time>2026-04-11T15:32:09.453Z</time></trkpt><trkpt lat="44.9844667" lon="8.0532367"><ele>231.8</ele><time>2026-04-11T15:32:10.453Z</time></trkpt><trkpt lat="44.9844383" lon="8.0533717"><ele>233.0</ele><time>2026-04-11T15:32:11.453Z</time></trkpt><trkpt lat="44.984405" lon="8.0534967"><ele>231.16666666666669</ele><time>2026-04-11T15:32:12.453Z</time></trkpt><trkpt lat="44.9843583" lon="8.0536067"><ele>229.33333333333334</ele><time>2026-04-11T15:32:13.453Z</time></trkpt><trkpt lat="44.9843033" lon="8.0536983"><ele>227.5</ele><time>2026-04-11T15:32:14.453Z</time></trkpt><trkpt lat="44.9842417" lon="8.053765"><ele>225.66666666666669</ele><time>2026-04-11T15:32:15.453Z</time></trkpt><trkpt lat="44.9841733" lon="8.0538217"><ele>223.83333333333334</ele><time>2026-04-11T15:32:16.452Z</time></trkpt><trkpt lat="44.9840983" lon="8.0538517"><ele>222.0</ele><time>2026-04-11T15:32:17.452Z</time></trkpt><trkpt lat="44.9840267" lon="8.0538617"><ele>222.0</ele><time>2026-04-11T15:32:18.452Z</time></trkpt><trkpt lat="44.98396" lon="8.0538633"><ele>222.0</ele><time>2026-04-11T15:32:19.452Z</time></trkpt><trkpt lat="44.9838617" lon="8.0538617"><ele>222.0</ele><time>2026-04-11T15:32:21.452Z</time></trkpt><trkpt lat="44.983775" lon="8.0538617"><ele>222.0</ele><time>2026-04-11T15:32:23.452Z</time></trkpt><trkpt lat="44.983695" lon="8.053925"><ele>222.0</ele><time>2026-04-11T15:32:25.452Z</time></trkpt><trkpt lat="44.9836483" lon="8.0540633"><ele>220.66666666666666</ele><time>2026-04-11T15:32:27.452Z</time></trkpt><trkpt lat="44.98363" lon="8.0542217"><ele>219.33333333333331</ele><time>2026-04-11T15:32:29.452Z</time></trkpt><trkpt lat="44.9836217" lon="8.0543133"><ele>218.0</ele><time>2026-04-11T15:32:30.452Z</time></trkpt><trkpt lat="44.98361" lon="8.05443"><ele>216.66666666666666</ele><time>2026-04-11T15:32:31.452Z</time></trkpt><trkpt lat="44.9836067" lon="8.0545567"><ele>215.33333333333331</ele><time>2026-04-11T15:32:32.452Z</time></trkpt><trkpt lat="44.9836183" lon="8.0546833"><ele>214.0</ele><time>2026-04-11T15:32:33.452Z</time></trkpt><trkpt lat="44.983645" lon="8.0548167"><ele>211.79999999999998</ele><time>2026-04-11T15:32:34.452Z</time></trkpt><trkpt lat="44.983685" lon="8.054955"><ele>209.59999999999997</ele><time>2026-04-11T15:32:35.452Z</time></trkpt><trkpt lat="44.983745" lon="8.0551033"><ele>207.4</ele><time>2026-04-11T15:32:36.452Z</time></trkpt><trkpt lat="44.9838083" lon="8.055245"><ele>205.2</ele><time>2026-04-11T15:32:37.452Z</time></trkpt><trkpt lat="44.9838617" lon="8.0553667"><ele>203.0</ele><time>2026-04-11T15:32:38.452Z</time></trkpt><trkpt lat="44.9839117" lon="8.0554767"><ele>203.00000000000003</ele><time>2026-04-11T15:32:39.452Z</time></trkpt><trkpt lat="44.9839583" lon="8.05558"><ele>203.0</ele><time>2026-04-11T15:32:40.452Z</time></trkpt><trkpt lat="44.983995" lon="8.05568"><ele>203.0</ele><time>2026-04-11T15:32:41.452Z</time></trkpt><trkpt lat="44.9840317" lon="8.0557683"><ele>203.0</ele><time>2026-04-11T15:32:42.452Z</time></trkpt><trkpt lat="44.984065" lon="8.0558467"><ele>203.00000000000003</ele><time>2026-04-11T15:32:43.453Z</time></trkpt><trkpt lat="44.9841017" lon="8.0559433"><ele>203.0</ele><time>2026-04-11T15:32:44.452Z</time></trkpt><trkpt lat="44.9841367" lon="8.0560467"><ele>201.0</ele><time>2026-04-11T15:32:45.452Z</time></trkpt><trkpt lat="44.98416" lon="8.0561633"><ele>199.0</ele><time>2026-04-11T15:32:46.452Z</time></trkpt><trkpt lat="44.9841983" lon="8.0562917"><ele>197.0</ele><time>2026-04-11T15:32:47.452Z</time></trkpt><trkpt lat="44.9842333" lon="8.0564183"><ele>195.0</ele><time>2026-04-11T15:32:48.452Z</time></trkpt><trkpt lat="44.9842583" lon="8.05654"><ele>193.0</ele><time>2026-04-11T15:32:49.452Z</time></trkpt><trkpt lat="44.9842867" lon="8.056655"><ele>191.83333333333331</ele><time>2026-04-11T15:32:50.452Z</time></trkpt><trkpt lat="44.9843083" lon="8.0567533"><ele>190.66666666666666</ele><time>2026-04-11T15:32:51.452Z</time></trkpt><trkpt lat="44.9843317" lon="8.05689"><ele>189.5</ele><time>2026-04-11T15:32:53.452Z</time></trkpt><trkpt lat="44.9843167" lon="8.05698"><ele>188.33333333333331</ele><time>2026-04-11T15:32:55.452Z</time></trkpt><trkpt lat="44.984225" lon="8.0570417"><ele>187.16666666666666</ele><time>2026-04-11T15:32:57.452Z</time></trkpt><trkpt lat="44.9841567" lon="8.0570633"><ele>186.0</ele><time>2026-04-11T15:32:58.453Z</time></trkpt><trkpt lat="44.9840883" lon="8.057085"><ele>186.0</ele><time>2026-04-11T15:32:59.452Z</time></trkpt><trkpt lat="44.9840217" lon="8.05712"><ele>186.0</ele><time>2026-04-11T15:33:00.452Z</time></trkpt><trkpt lat="44.98396" lon="8.0571567"><ele>186.0</ele><time>2026-04-11T15:33:01.452Z</time></trkpt><trkpt lat="44.9838933" lon="8.0571883"><ele>186.0</ele><time>2026-04-11T15:33:02.452Z</time></trkpt><trkpt lat="44.9838317" lon="8.05722"><ele>186.0</ele><time>2026-04-11T15:33:03.452Z</time></trkpt><trkpt lat="44.9837233" lon="8.0572833"><ele>186.0</ele><time>2026-04-11T15:33:05.452Z</time></trkpt><trkpt lat="44.98361" lon="8.0573283"><ele>186.0</ele><time>2026-04-11T15:33:07.452Z</time></trkpt><trkpt lat="44.9835033" lon="8.057375"><ele>186.0</ele><time>2026-04-11T15:33:09.452Z</time></trkpt><trkpt lat="44.983395" lon="8.057415"><ele>186.0</ele><time>2026-04-11T15:33:11.452Z</time></trkpt><trkpt lat="44.9832817" lon="8.0574483"><ele>186.0</ele><time>2026-04-11T15:33:13.452Z</time></trkpt><trkpt lat="44.9831683" lon="8.0574783"><ele>186.25</ele><time>2026-04-11T15:33:15.452Z</time></trkpt><trkpt lat="44.98305" lon="8.05749"><ele>186.5</ele><time>2026-04-11T15:33:17.452Z</time></trkpt><trkpt lat="44.982935" lon="8.0574767"><ele>186.75</ele><time>2026-04-11T15:33:19.452Z</time></trkpt><trkpt lat="44.98283" lon="8.057455"><ele>187.0</ele><time>2026-04-11T15:33:21.452Z</time></trkpt><trkpt lat="44.98272" lon="8.05744"><ele>187.0</ele><time>2026-04-11T15:33:23.452Z</time></trkpt><trkpt lat="44.9826067" lon="8.0574117"><ele>187.0</ele><time>2026-04-11T15:33:25.452Z</time></trkpt><trkpt lat="44.9825433" lon="8.0573917"><ele>187.0</ele><time>2026-04-11T15:33:26.452Z</time></trkpt><trkpt lat="44.9824783" lon="8.0573717"><ele>187.0</ele><time>2026-04-11T15:33:27.452Z</time></trkpt><trkpt lat="44.98236" lon="8.0573183"><ele>187.0</ele><time>2026-04-11T15:33:29.452Z</time></trkpt><trkpt lat="44.982245" lon="8.0572783"><ele>187.39999999999998</ele><time>2026-04-11T15:33:31.452Z</time></trkpt><trkpt lat="44.9821417" lon="8.05724"><ele>187.79999999999998</ele><time>2026-04-11T15:33:33.452Z</time></trkpt><trkpt lat="44.9820283" lon="8.0572017"><ele>188.2</ele><time>2026-04-11T15:33:35.453Z</time></trkpt><trkpt lat="44.9819183" lon="8.0571617"><ele>188.6</ele><time>2026-04-11T15:33:37.452Z</time></trkpt><trkpt lat="44.9818217" lon="8.057125"><ele>189.0</ele><time>2026-04-11T15:33:39.453Z</time></trkpt><trkpt lat="44.98173" lon="8.0570867"><ele>187.79999999999998</ele><time>2026-04-11T15:33:41.452Z</time></trkpt><trkpt lat="44.9816433" lon="8.0570517"><ele>186.6</ele><time>2026-04-11T15:33:43.452Z</time></trkpt><trkpt lat="44.9815583" lon="8.0570233"><ele>185.4</ele><time>2026-04-11T15:33:45.452Z</time></trkpt><trkpt lat="44.9814683" lon="8.0570183"><ele>184.2</ele><time>2026-04-11T15:33:47.452Z</time></trkpt><trkpt lat="44.981385" lon="8.0570483"><ele>183.0</ele><time>2026-04-11T15:33:49.452Z</time></trkpt><trkpt lat="44.98133" lon="8.0571633"><ele>183.0</ele><time>2026-04-11T15:33:51.452Z</time></trkpt><trkpt lat="44.98128" lon="8.057315"><ele>183.0</ele><time>2026-04-11T15:33:53.452Z</time></trkpt><trkpt lat="44.98123" lon="8.0574633"><ele>183.0</ele><time>2026-04-11T15:33:55.452Z</time></trkpt><trkpt lat="44.9811767" lon="8.0576033"><ele>183.0</ele><time>2026-04-11T15:33:57.452Z</time></trkpt><trkpt lat="44.9811267" lon="8.05773"><ele>182.8</ele><time>2026-04-11T15:33:59.452Z</time></trkpt><trkpt lat="44.9810867" lon="8.057855"><ele>182.60000000000002</ele><time>2026-04-11T15:34:01.452Z</time></trkpt><trkpt lat="44.9810383" lon="8.0579833"><ele>182.39999999999998</ele><time>2026-04-11T15:34:03.452Z</time></trkpt><trkpt lat="44.9809967" lon="8.058105"><ele>182.2</ele><time>2026-04-11T15:34:05.452Z</time></trkpt><trkpt lat="44.980955" lon="8.0582217"><ele>182.0</ele><time>2026-04-11T15:34:07.452Z</time></trkpt><trkpt lat="44.9809133" lon="8.0583383"><ele>182.0</ele><time>2026-04-11T15:34:09.452Z</time></trkpt><trkpt lat="44.9808733" lon="8.0584667"><ele>182.0</ele><time>2026-04-11T15:34:11.452Z</time></trkpt><trkpt lat="44.9808367" lon="8.0585883"><ele>182.0</ele><time>2026-04-11T15:34:13.452Z</time></trkpt><trkpt lat="44.980795" lon="8.0587117"><ele>182.0</ele><time>2026-04-11T15:34:15.452Z</time></trkpt><trkpt lat="44.98074" lon="8.0588367"><ele>182.0</ele><time>2026-04-11T15:34:17.452Z</time></trkpt><trkpt lat="44.9807083" lon="8.0589567"><ele>182.0</ele><time>2026-04-11T15:34:19.452Z</time></trkpt><trkpt lat="44.980675" lon="8.0590833"><ele>182.0</ele><time>2026-04-11T15:34:21.452Z</time></trkpt><trkpt lat="44.980635" lon="8.059215"><ele>182.0</ele><time>2026-04-11T15:34:23.452Z</time></trkpt><trkpt lat="44.9805833" lon="8.059325"><ele>182.0</ele><time>2026-04-11T15:34:25.452Z</time></trkpt><trkpt lat="44.98053" lon="8.059435"><ele>182.0</ele><time>2026-04-11T15:34:27.452Z</time></trkpt><trkpt lat="44.980475" lon="8.05954"><ele>182.33333333333331</ele><time>2026-04-11T15:34:29.452Z</time></trkpt><trkpt lat="44.9804133" lon="8.0596167"><ele>182.66666666666666</ele><time>2026-04-11T15:34:31.452Z</time></trkpt><trkpt lat="44.9803433" lon="8.0596817"><ele>183.0</ele><time>2026-04-11T15:34:33.452Z</time></trkpt><trkpt lat="44.9802717" lon="8.0597233"><ele>183.33333333333334</ele><time>2026-04-11T15:34:35.452Z</time></trkpt><trkpt lat="44.9802017" lon="8.0597667"><ele>183.66666666666669</ele><time>2026-04-11T15:34:37.452Z</time></trkpt><trkpt lat="44.9801333" lon="8.0598"><ele>184.0</ele><time>2026-04-11T15:34:39.452Z</time></trkpt><trkpt lat="44.9800733" lon="8.0598317"><ele>183.85714285714286</ele><time>2026-04-11T15:34:41.452Z</time></trkpt><trkpt lat="44.9800067" lon="8.0598633"><ele>183.7142857142857</ele><time>2026-04-11T15:34:43.452Z</time></trkpt><trkpt lat="44.9799367" lon="8.0598933"><ele>183.57142857142856</ele><time>2026-04-11T15:34:45.452Z</time></trkpt><trkpt lat="44.9798483" lon="8.059935"><ele>183.42857142857144</ele><time>2026-04-11T15:34:48.452Z</time></trkpt><trkpt lat="44.97979" lon="8.05997"><ele>183.28571428571428</ele><time>2026-04-11T15:34:50.452Z</time></trkpt><trkpt lat="44.9797317" lon="8.0600133"><ele>183.14285714285714</ele><time>2026-04-11T15:34:52.452Z</time></trkpt><trkpt lat="44.979675" lon="8.060065"><ele>183.0</ele><time>2026-04-11T15:34:54.452Z</time></trkpt><trkpt lat="44.9795933" lon="8.0601383"><ele>184.57142857142858</ele><time>2026-04-11T15:34:57.452Z</time></trkpt><trkpt lat="44.97954" lon="8.0601917"><ele>186.14285714285717</ele><time>2026-04-11T15:34:59.452Z</time></trkpt><trkpt lat="44.9794883" lon="8.0602467"><ele>187.71428571428572</ele><time>2026-04-11T15:35:01.452Z</time></trkpt><trkpt lat="44.9794333" lon="8.0603467"><ele>189.28571428571428</ele><time>2026-04-11T15:35:04.452Z</time></trkpt><trkpt lat="44.9793833" lon="8.0604033"><ele>190.85714285714286</ele><time>2026-04-11T15:35:06.452Z</time></trkpt><trkpt lat="44.9793367" lon="8.0604683"><ele>192.42857142857142</ele><time>2026-04-11T15:35:08.452Z</time></trkpt><trkpt lat="44.9792767" lon="8.0605633"><ele>194.0</ele><time>2026-04-11T15:35:11.452Z</time></trkpt><trkpt lat="44.97923" lon="8.06067"><ele>194.00000000000003</ele><time>2026-04-11T15:35:14.452Z</time></trkpt><trkpt lat="44.9791867" lon="8.0607817"><ele>194.0</ele><time>2026-04-11T15:35:17.452Z</time></trkpt><trkpt lat="44.97914" lon="8.0608867"><ele>194.0</ele><time>2026-04-11T15:35:20.452Z</time></trkpt><trkpt lat="44.9790867" lon="8.0609783"><ele>194.0</ele><time>2026-04-11T15:35:23.452Z</time></trkpt><trkpt lat="44.9790583" lon="8.0610583"><ele>194.00000000000003</ele><time>2026-04-11T15:35:25.452Z</time></trkpt><trkpt lat="44.9790183" lon="8.0611783"><ele>194.0</ele><time>2026-04-11T15:35:28.452Z</time></trkpt><trkpt lat="44.97897" lon="8.0612933"><ele>195.16666666666669</ele><time>2026-04-11T15:35:31.452Z</time></trkpt><trkpt lat="44.9789367" lon="8.0613717"><ele>196.33333333333334</ele><time>2026-04-11T15:35:33.452Z</time></trkpt><trkpt lat="44.9789" lon="8.061445"><ele>197.5</ele><time>2026-04-11T15:35:36.452Z</time></trkpt><trkpt lat="44.9788417" lon="8.0615167"><ele>198.66666666666669</ele><time>2026-04-11T15:35:45.452Z</time></trkpt><trkpt lat="44.9787683" lon="8.061585"><ele>199.83333333333334</ele><time>2026-04-11T15:35:47.452Z</time></trkpt><trkpt lat="44.978665" lon="8.0616567"><ele>201.0</ele><time>2026-04-11T15:35:49.452Z</time></trkpt><trkpt lat="44.9786033" lon="8.061695"><ele>200.5</ele><time>2026-04-11T15:35:50.452Z</time></trkpt><trkpt lat="44.978535" lon="8.0617333"><ele>200.0</ele><time>2026-04-11T15:35:51.452Z</time></trkpt><trkpt lat="44.9784667" lon="8.061755"><ele>199.5</ele><time>2026-04-11T15:35:52.452Z</time></trkpt><trkpt lat="44.9784017" lon="8.06178"><ele>199.0</ele><time>2026-04-11T15:35:53.452Z</time></trkpt><trkpt lat="44.9783383" lon="8.061795"><ele>198.5</ele><time>2026-04-11T15:35:54.452Z</time></trkpt><trkpt lat="44.9782233" lon="8.0618317"><ele>198.0</ele><time>2026-04-11T15:35:56.452Z</time></trkpt><trkpt lat="44.978125" lon="8.061855"><ele>198.0</ele><time>2026-04-11T15:35:58.452Z</time></trkpt><trkpt lat="44.9780533" lon="8.061865"><ele>198.0</ele><time>2026-04-11T15:36:00.452Z</time></trkpt><trkpt lat="44.9779667" lon="8.0618617"><ele>198.0</ele><time>2026-04-11T15:36:03.452Z</time></trkpt><trkpt lat="44.97778" lon="8.0618333"><ele>198.0</ele><time>2026-04-11T15:36:19.452Z</time></trkpt><trkpt lat="44.97768" lon="8.06183"><ele>198.0</ele><time>2026-04-11T15:36:21.452Z</time></trkpt><trkpt lat="44.9775817" lon="8.0618217"><ele>196.33333333333334</ele><time>2026-04-11T15:36:23.452Z</time></trkpt><trkpt lat="44.9774733" lon="8.0618083"><ele>194.66666666666666</ele><time>2026-04-11T15:36:25.453Z</time></trkpt><trkpt lat="44.9774067" lon="8.0618133"><ele>193.0</ele><time>2026-04-11T15:36:27.452Z</time></trkpt><trkpt lat="44.9773767" lon="8.0617033"><ele>191.33333333333331</ele><time>2026-04-11T15:36:40.452Z</time></trkpt><trkpt lat="44.9774" lon="8.0616183"><ele>189.66666666666666</ele><time>2026-04-11T15:37:29.452Z</time></trkpt><trkpt lat="44.9774283" lon="8.0615383"><ele>188.0</ele><time>2026-04-11T15:38:58.452Z</time></trkpt><trkpt lat="44.9774016" lon="8.0611151"><ele>178.0</ele><time>2026-04-11T16:08:47.449Z</time></trkpt><trkpt lat="44.9773898" lon="8.0612035"><ele>178.0</ele><time>2026-04-11T16:09:13.495Z</time></trkpt><trkpt lat="44.9774407" lon="8.0613048"><ele>178.0</ele><time>2026-04-11T16:09:34.535Z</time></trkpt><trkpt lat="44.9774858" lon="8.0614204"><ele>178.0</ele><time>2026-04-11T16:10:32.525Z</time></trkpt></trkseg><trkseg><trkpt lat="44.9774482" lon="8.061532"><ele>177.99999999999997</ele><time>2026-04-11T17:47:36.538Z</time></trkpt><trkpt lat="44.9774371" lon="8.0614118"><ele>178.0</ele><time>2026-04-11T17:51:07.561Z</time></trkpt><trkpt lat="44.9774102" lon="8.0613009"><ele>178.0</ele><time>2026-04-11T17:51:11.504Z</time></trkpt><trkpt lat="44.9774558" lon="8.0612181"><ele>178.0</ele><time>2026-04-11T17:51:27.465Z</time></trkpt><trkpt lat="44.9775096" lon="8.0611523"><ele>178.0</ele><time>2026-04-11T17:51:34.562Z</time></trkpt><trkpt lat="44.9775597" lon="8.0610965"><ele>177.99999999999997</ele><time>2026-04-11T17:51:40.528Z</time></trkpt><trkpt lat="44.9776228" lon="8.0610591"><ele>178.0</ele><time>2026-04-11T17:51:46.495Z</time></trkpt><trkpt lat="44.9776941" lon="8.0610329"><ele>178.28571428571428</ele><time>2026-04-11T17:51:53.508Z</time></trkpt><trkpt lat="44.9777509" lon="8.0609822"><ele>178.57142857142856</ele><time>2026-04-11T17:51:59.474Z</time></trkpt><trkpt lat="44.9778193" lon="8.0609541"><ele>178.85714285714283</ele><time>2026-04-11T17:52:05.545Z</time></trkpt><trkpt lat="44.9778775" lon="8.0608863"><ele>179.14285714285714</ele><time>2026-04-11T17:52:11.565Z</time></trkpt><trkpt lat="44.9779193" lon="8.06081"><ele>179.42857142857144</ele><time>2026-04-11T17:52:19.466Z</time></trkpt><trkpt lat="44.9779818" lon="8.0607855"><ele>179.7142857142857</ele><time>2026-04-11T17:52:23.548Z</time></trkpt><trkpt lat="44.9780334" lon="8.0607205"><ele>180.0</ele><time>2026-04-11T17:52:29.515Z</time></trkpt><trkpt lat="44.9780898" lon="8.0606507"><ele>180.0</ele><time>2026-04-11T17:52:36.527Z</time></trkpt><trkpt lat="44.9781365" lon="8.0605868"><ele>180.0</ele><time>2026-04-11T17:52:41.552Z</time></trkpt><trkpt lat="44.9781989" lon="8.0605158"><ele>180.0</ele><time>2026-04-11T17:52:48.46Z</time></trkpt><trkpt lat="44.9782533" lon="8.0604599"><ele>180.0</ele><time>2026-04-11T17:52:54.404Z</time></trkpt><trkpt lat="44.9783047" lon="8.0603991"><ele>180.0</ele><time>2026-04-11T17:53:03.532Z</time></trkpt><trkpt lat="44.9783687" lon="8.0603613"><ele>180.0</ele><time>2026-04-11T17:53:09.498Z</time></trkpt><trkpt lat="44.9784309" lon="8.0603263"><ele>180.0</ele><time>2026-04-11T17:53:13.476Z</time></trkpt><trkpt lat="44.9784924" lon="8.0602722"><ele>180.33333333333334</ele><time>2026-04-11T17:53:20.488Z</time></trkpt><trkpt lat="44.9785453" lon="8.0602205"><ele>180.66666666666666</ele><time>2026-04-11T17:53:26.455Z</time></trkpt><trkpt lat="44.9786033" lon="8.0601647"><ele>181.0</ele><time>2026-04-11T17:53:32.525Z</time></trkpt><trkpt lat="44.9786531" lon="8.0600841"><ele>181.33333333333331</ele><time>2026-04-11T17:53:39.538Z</time></trkpt><trkpt lat="44.9787034" lon="8.0600281"><ele>181.66666666666666</ele><time>2026-04-11T17:53:43.515Z</time></trkpt><trkpt lat="44.9787697" lon="8.0600112"><ele>182.0</ele><time>2026-04-11T17:53:49.52Z</time></trkpt><trkpt lat="44.9788613" lon="8.0599114"><ele>182.0</ele><time>2026-04-11T17:54:06.463Z</time></trkpt><trkpt lat="44.9789157" lon="8.0598492"><ele>182.0</ele><time>2026-04-11T17:54:11.431Z</time></trkpt><trkpt lat="44.9789734" lon="8.0597909"><ele>182.0</ele><time>2026-04-11T17:54:15.521Z</time></trkpt><trkpt lat="44.9790275" lon="8.0597219"><ele>182.0</ele><time>2026-04-11T17:54:20.484Z</time></trkpt><trkpt lat="44.9790919" lon="8.0597014"><ele>182.0</ele><time>2026-04-11T17:54:30.511Z</time></trkpt><trkpt lat="44.9791705" lon="8.0596564"><ele>182.0</ele><time>2026-04-11T17:54:38.522Z</time></trkpt><trkpt lat="44.9792271" lon="8.0596088"><ele>182.0</ele><time>2026-04-11T17:54:43.49Z</time></trkpt><trkpt lat="44.979283" lon="8.0595433"><ele>182.14285714285714</ele><time>2026-04-11T17:54:46.525Z</time></trkpt><trkpt lat="44.9793275" lon="8.0594783"><ele>182.28571428571428</ele><time>2026-04-11T17:54:55.526Z</time></trkpt><trkpt lat="44.979385" lon="8.059411"><ele>182.42857142857144</ele><time>2026-04-11T17:55:02.583Z</time></trkpt><trkpt lat="44.97944" lon="8.0593553"><ele>182.57142857142856</ele><time>2026-04-11T17:55:07.324Z</time></trkpt><trkpt lat="44.9794614" lon="8.0592672"><ele>182.71428571428572</ele><time>2026-04-11T17:55:18.448Z</time></trkpt><trkpt lat="44.9794547" lon="8.0591772"><ele>182.85714285714286</ele><time>2026-04-11T17:55:32.473Z</time></trkpt><trkpt lat="44.9794395" lon="8.0590876"><ele>183.0</ele><time>2026-04-11T17:55:48.483Z</time></trkpt><trkpt lat="44.9794565" lon="8.0590019"><ele>183.0</ele><time>2026-04-11T17:56:05.543Z</time></trkpt><trkpt lat="44.9795444" lon="8.0590321"><ele>183.0</ele><time>2026-04-11T17:57:15.457Z</time></trkpt><trkpt lat="44.9795335" lon="8.0591288"><ele>183.0</ele><time>2026-04-11T19:14:37.533Z</time></trkpt><trkpt lat="44.9795312" lon="8.0592234"><ele>183.0</ele><time>2026-04-11T19:14:45.489Z</time></trkpt><trkpt lat="44.9795293" lon="8.059318"><ele>183.0</ele><time>2026-04-11T19:14:55.539Z</time></trkpt><trkpt lat="44.9795263" lon="8.0594234"><ele>183.0</ele><time>2026-04-11T19:15:06.531Z</time></trkpt><trkpt lat="44.9794716" lon="8.0595132"><ele>183.0</ele><time>2026-04-11T19:15:13.44Z</time></trkpt><trkpt lat="44.9794086" lon="8.0595434"><ele>183.0</ele><time>2026-04-11T19:15:19.418Z</time></trkpt><trkpt lat="44.9793447" lon="8.0595722"><ele>183.0</ele><time>2026-04-11T19:15:31.55Z</time></trkpt><trkpt lat="44.979258" lon="8.0596261"><ele>183.0</ele><time>2026-04-11T19:15:46.58Z</time></trkpt><trkpt lat="44.9791945" lon="8.0596538"><ele>183.0</ele><time>2026-04-11T19:15:53.534Z</time></trkpt><trkpt lat="44.9791407" lon="8.0597192"><ele>183.0</ele><time>2026-04-11T19:16:02.536Z</time></trkpt><trkpt lat="44.9790258" lon="8.0598045"><ele>182.8</ele><time>2026-04-11T19:16:11.539Z</time></trkpt><trkpt lat="44.9789554" lon="8.0598903"><ele>182.60000000000002</ele><time>2026-04-11T19:16:22.573Z</time></trkpt><trkpt lat="44.9788949" lon="8.0599525"><ele>182.39999999999998</ele><time>2026-04-11T19:16:31.533Z</time></trkpt><trkpt lat="44.9787919" lon="8.0599997"><ele>182.2</ele><time>2026-04-11T19:16:39.489Z</time></trkpt><trkpt lat="44.9786726" lon="8.0600736"><ele>182.0</ele><time>2026-04-11T19:16:54.576Z</time></trkpt><trkpt lat="44.9786156" lon="8.0601432"><ele>181.66666666666666</ele><time>2026-04-11T19:17:01.471Z</time></trkpt><trkpt lat="44.9785543" lon="8.0601803"><ele>181.33333333333331</ele><time>2026-04-11T19:17:06.072Z</time></trkpt><trkpt lat="44.978505" lon="8.0602373"><ele>181.0</ele><time>2026-04-11T19:17:19.476Z</time></trkpt><trkpt lat="44.9784406" lon="8.0603294"><ele>180.66666666666666</ele><time>2026-04-11T19:17:24.501Z</time></trkpt><trkpt lat="44.9783843" lon="8.06039"><ele>180.33333333333334</ele><time>2026-04-11T19:17:33.398Z</time></trkpt><trkpt lat="44.9782656" lon="8.0604764"><ele>180.0</ele><time>2026-04-11T19:17:45.541Z</time></trkpt><trkpt lat="44.9781737" lon="8.0605522"><ele>180.0</ele><time>2026-04-11T19:17:56.532Z</time></trkpt><trkpt lat="44.9780713" lon="8.0606517"><ele>180.0</ele><time>2026-04-11T19:18:10.455Z</time></trkpt><trkpt lat="44.978023" lon="8.0607124"><ele>180.0</ele><time>2026-04-11T19:18:19.555Z</time></trkpt><trkpt lat="44.9779291" lon="8.0608196"><ele>180.0</ele><time>2026-04-11T19:18:26.471Z</time></trkpt><trkpt lat="44.9778734" lon="8.0608805"><ele>180.0</ele><time>2026-04-11T19:18:33.483Z</time></trkpt><trkpt lat="44.9777605" lon="8.0609927"><ele>179.6</ele><time>2026-04-11T19:18:47.456Z</time></trkpt><trkpt lat="44.9776381" lon="8.0611045"><ele>179.2</ele><time>2026-04-11T19:19:02.478Z</time></trkpt><trkpt lat="44.9775346" lon="8.0612126"><ele>178.8</ele><time>2026-04-11T19:19:17.457Z</time></trkpt><trkpt lat="44.9774783" lon="8.0612594"><ele>178.4</ele><time>2026-04-11T19:19:23.518Z</time></trkpt><trkpt lat="44.9774241" lon="8.0613126"><ele>178.0</ele><time>2026-04-11T19:19:29.484Z</time></trkpt><trkpt lat="44.9774181" lon="8.0614051"><ele>178.0</ele><time>2026-04-11T19:19:43.51Z</time></trkpt><trkpt lat="44.9774351" lon="8.0615182"><ele>178.0</ele><time>2026-04-11T19:20:17.529Z</time></trkpt><trkpt lat="44.9775" lon="8.0615456"><ele>178.0</ele><time>2026-04-11T19:22:05.442Z</time></trkpt><trkpt lat="44.9774093" lon="8.0615957"><ele>178.0</ele><time>2026-04-11T19:26:59.472Z</time></trkpt><trkpt lat="44.9773933" lon="8.0617081"><ele>178.0</ele><time>2026-04-11T19:35:23.51Z</time></trkpt><trkpt lat="44.9774475" lon="8.0616615"><ele>178.0</ele><time>2026-04-11T19:36:02.452Z</time></trkpt><trkpt lat="44.9773471" lon="8.0615176"><ele>178.0</ele><time>2026-04-11T19:36:22.551Z</time></trkpt><trkpt lat="44.9772879" lon="8.0614817"><ele>178.0</ele><time>2026-04-11T19:37:13.532Z</time></trkpt><trkpt lat="44.977271" lon="8.0616431"><ele>178.0</ele><time>2026-04-11T19:37:45.46Z</time></trkpt><trkpt lat="44.9773237" lon="8.061594"><ele>178.0</ele><time>2026-04-11T19:38:09.432Z</time></trkpt><trkpt lat="44.9774333" lon="8.0615583"><ele>178.0</ele><time>2026-04-11T19:39:13.417Z</time></trkpt><trkpt lat="44.9774667" lon="8.0614383"><ele>178.0</ele><time>2026-04-11T19:44:43.417Z</time></trkpt><trkpt lat="44.9775117" lon="8.06156"><ele>178.0</ele><time>2026-04-11T19:47:30.416Z</time></trkpt><trkpt lat="44.977505" lon="8.0614417"><ele>178.0</ele><time>2026-04-11T20:26:28.167Z</time></trkpt><trkpt lat="44.9775911" lon="8.0612815"><ele>184.0</ele><time>2026-04-11T20:44:55.469Z</time></trkpt><trkpt lat="44.9775749" lon="8.0613687"><ele>184.0</ele><time>2026-04-11T20:45:42.474Z</time></trkpt><trkpt lat="44.9775081" lon="8.0614511"><ele>178.0</ele><time>2026-04-11T20:49:38.536Z</time></trkpt><trkpt lat="44.9775081" lon="8.0614511"><ele>178.0</ele><time>2026-04-11T20:49:38.536Z</time></trkpt><trkpt lat="44.9775081" lon="8.0614511"><ele>178.0</ele><time>2026-04-11T20:49:38.536Z</time></trkpt></trkseg><trkseg><trkpt lat="44.97741" lon="8.06129"><ele>178.0</ele><time>2026-04-12T05:39:39.445Z</time></trkpt><trkpt lat="44.9774683" lon="8.0612167"><ele>178.0</ele><time>2026-04-12T05:40:02.445Z</time></trkpt><trkpt lat="44.9775367" lon="8.0611767"><ele>178.0</ele><time>2026-04-12T05:40:06.445Z</time></trkpt><trkpt lat="44.9775967" lon="8.0611283"><ele>178.0</ele><time>2026-04-12T05:40:09.445Z</time></trkpt><trkpt lat="44.97767" lon="8.061065"><ele>178.0</ele><time>2026-04-12T05:40:12.445Z</time></trkpt><trkpt lat="44.9777333" lon="8.0610033"><ele>178.0</ele><time>2026-04-12T05:40:15.445Z</time></trkpt><trkpt lat="44.977805" lon="8.060925"><ele>178.33333333333334</ele><time>2026-04-12T05:40:18.445Z</time></trkpt><trkpt lat="44.9778567" lon="8.06087"><ele>178.66666666666669</ele><time>2026-04-12T05:40:20.445Z</time></trkpt><trkpt lat="44.9779333" lon="8.0607817"><ele>179.0</ele><time>2026-04-12T05:40:23.445Z</time></trkpt><trkpt lat="44.9779967" lon="8.0607167"><ele>179.33333333333334</ele><time>2026-04-12T05:40:25.445Z</time></trkpt><trkpt lat="44.9780733" lon="8.0606483"><ele>179.66666666666666</ele><time>2026-04-12T05:40:27.445Z</time></trkpt><trkpt lat="44.978145" lon="8.0605717"><ele>180.0</ele><time>2026-04-12T05:40:29.445Z</time></trkpt><trkpt lat="44.978215" lon="8.0605017"><ele>180.0</ele><time>2026-04-12T05:40:31.445Z</time></trkpt><trkpt lat="44.9782967" lon="8.060425"><ele>180.0</ele><time>2026-04-12T05:40:33.445Z</time></trkpt><trkpt lat="44.9783717" lon="8.06036"><ele>180.0</ele><time>2026-04-12T05:40:35.445Z</time></trkpt><trkpt lat="44.978445" lon="8.060295"><ele>180.0</ele><time>2026-04-12T05:40:37.445Z</time></trkpt><trkpt lat="44.97852" lon="8.0602167"><ele>180.0</ele><time>2026-04-12T05:40:39.445Z</time></trkpt><trkpt lat="44.9785967" lon="8.0601467"><ele>180.4</ele><time>2026-04-12T05:40:41.445Z</time></trkpt><trkpt lat="44.9786717" lon="8.06008"><ele>180.8</ele><time>2026-04-12T05:40:43.445Z</time></trkpt><trkpt lat="44.9787533" lon="8.0600033"><ele>181.2</ele><time>2026-04-12T05:40:45.445Z</time></trkpt><trkpt lat="44.9788383" lon="8.0599267"><ele>181.6</ele><time>2026-04-12T05:40:47.445Z</time></trkpt><trkpt lat="44.9789183" lon="8.059855"><ele>182.0</ele><time>2026-04-12T05:40:49.445Z</time></trkpt><trkpt lat="44.9790017" lon="8.0597917"><ele>182.0</ele><time>2026-04-12T05:40:51.445Z</time></trkpt><trkpt lat="44.9790867" lon="8.0597267"><ele>182.0</ele><time>2026-04-12T05:40:53.445Z</time></trkpt><trkpt lat="44.9791683" lon="8.0596683"><ele>182.0</ele><time>2026-04-12T05:40:55.445Z</time></trkpt><trkpt lat="44.9792517" lon="8.0596217"><ele>182.0</ele><time>2026-04-12T05:40:57.445Z</time></trkpt><trkpt lat="44.9793383" lon="8.059575"><ele>182.0</ele><time>2026-04-12T05:40:59.445Z</time></trkpt><trkpt lat="44.9794283" lon="8.0595283"><ele>182.16666666666666</ele><time>2026-04-12T05:41:01.445Z</time></trkpt><trkpt lat="44.9795117" lon="8.0594867"><ele>182.33333333333331</ele><time>2026-04-12T05:41:03.445Z</time></trkpt><trkpt lat="44.97958" lon="8.0594433"><ele>182.5</ele><time>2026-04-12T05:41:05.445Z</time></trkpt><trkpt lat="44.9796583" lon="8.059395"><ele>182.66666666666666</ele><time>2026-04-12T05:41:07.445Z</time></trkpt><trkpt lat="44.9797383" lon="8.0593467"><ele>182.83333333333334</ele><time>2026-04-12T05:41:09.445Z</time></trkpt><trkpt lat="44.979825" lon="8.0593017"><ele>183.0</ele><time>2026-04-12T05:41:11.445Z</time></trkpt><trkpt lat="44.9799167" lon="8.059255"><ele>183.0</ele><time>2026-04-12T05:41:13.446Z</time></trkpt><trkpt lat="44.980015" lon="8.0592033"><ele>183.0</ele><time>2026-04-12T05:41:15.445Z</time></trkpt><trkpt lat="44.9801033" lon="8.0591567"><ele>183.0</ele><time>2026-04-12T05:41:17.445Z</time></trkpt><trkpt lat="44.9801983" lon="8.0591"><ele>183.0</ele><time>2026-04-12T05:41:19.445Z</time></trkpt><trkpt lat="44.980305" lon="8.0590467"><ele>183.0</ele><time>2026-04-12T05:41:21.445Z</time></trkpt><trkpt lat="44.9804017" lon="8.0590017"><ele>182.8</ele><time>2026-04-12T05:41:23.445Z</time></trkpt><trkpt lat="44.98051" lon="8.0589467"><ele>182.60000000000002</ele><time>2026-04-12T05:41:25.445Z</time></trkpt><trkpt lat="44.980605" lon="8.05891"><ele>182.39999999999998</ele><time>2026-04-12T05:41:27.445Z</time></trkpt><trkpt lat="44.9806833" lon="8.0588983"><ele>182.2</ele><time>2026-04-12T05:41:29.445Z</time></trkpt><trkpt lat="44.98075" lon="8.0588683"><ele>182.0</ele><time>2026-04-12T05:41:32.445Z</time></trkpt><trkpt lat="44.9808083" lon="8.0587683"><ele>182.0</ele><time>2026-04-12T05:41:35.445Z</time></trkpt><trkpt lat="44.9808417" lon="8.058685"><ele>182.0</ele><time>2026-04-12T05:41:37.445Z</time></trkpt><trkpt lat="44.980875" lon="8.0585817"><ele>182.0</ele><time>2026-04-12T05:41:39.445Z</time></trkpt><trkpt lat="44.98092" lon="8.058455"><ele>182.0</ele><time>2026-04-12T05:41:41.445Z</time></trkpt><trkpt lat="44.9809717" lon="8.05832"><ele>182.0</ele><time>2026-04-12T05:41:43.445Z</time></trkpt><trkpt lat="44.98102" lon="8.0581783"><ele>182.0</ele><time>2026-04-12T05:41:45.445Z</time></trkpt><trkpt lat="44.9810717" lon="8.05804"><ele>182.0</ele><time>2026-04-12T05:41:47.445Z</time></trkpt><trkpt lat="44.9811233" lon="8.0579"><ele>182.0</ele><time>2026-04-12T05:41:49.445Z</time></trkpt><trkpt lat="44.9811733" lon="8.0577667"><ele>182.0</ele><time>2026-04-12T05:41:51.445Z</time></trkpt><trkpt lat="44.9812217" lon="8.0576367"><ele>182.0</ele><time>2026-04-12T05:41:53.445Z</time></trkpt><trkpt lat="44.9812683" lon="8.0575"><ele>182.2</ele><time>2026-04-12T05:41:55.445Z</time></trkpt><trkpt lat="44.98132" lon="8.057365"><ele>182.39999999999998</ele><time>2026-04-12T05:41:57.445Z</time></trkpt><trkpt lat="44.9813733" lon="8.0572367"><ele>182.60000000000002</ele><time>2026-04-12T05:41:59.446Z</time></trkpt><trkpt lat="44.98143" lon="8.0571217"><ele>182.8</ele><time>2026-04-12T05:42:01.445Z</time></trkpt><trkpt lat="44.9815133" lon="8.0570433"><ele>183.0</ele><time>2026-04-12T05:42:03.446Z</time></trkpt><trkpt lat="44.9816183" lon="8.0570467"><ele>184.5</ele><time>2026-04-12T05:42:05.445Z</time></trkpt><trkpt lat="44.98173" lon="8.0570867"><ele>186.0</ele><time>2026-04-12T05:42:07.445Z</time></trkpt><trkpt lat="44.98184" lon="8.0571333"><ele>187.5</ele><time>2026-04-12T05:42:09.445Z</time></trkpt><trkpt lat="44.981955" lon="8.057175"><ele>189.0</ele><time>2026-04-12T05:42:11.445Z</time></trkpt><trkpt lat="44.9820683" lon="8.0572217"><ele>189.0</ele><time>2026-04-12T05:42:13.446Z</time></trkpt><trkpt lat="44.9821717" lon="8.0572667"><ele>189.0</ele><time>2026-04-12T05:42:15.445Z</time></trkpt><trkpt lat="44.98228" lon="8.0573117"><ele>189.0</ele><time>2026-04-12T05:42:17.445Z</time></trkpt><trkpt lat="44.9823967" lon="8.0573567"><ele>189.0</ele><time>2026-04-12T05:42:19.445Z</time></trkpt><trkpt lat="44.9825167" lon="8.057405"><ele>188.6</ele><time>2026-04-12T05:42:21.445Z</time></trkpt><trkpt lat="44.9826417" lon="8.0574417"><ele>188.2</ele><time>2026-04-12T05:42:23.445Z</time></trkpt><trkpt lat="44.9827067" lon="8.0574583"><ele>187.79999999999998</ele><time>2026-04-12T05:42:24.445Z</time></trkpt><trkpt lat="44.9828317" lon="8.0574817"><ele>187.39999999999998</ele><time>2026-04-12T05:42:26.445Z</time></trkpt><trkpt lat="44.9828967" lon="8.057495"><ele>187.0</ele><time>2026-04-12T05:42:27.445Z</time></trkpt><trkpt lat="44.9829617" lon="8.0575"><ele>187.0</ele><time>2026-04-12T05:42:28.445Z</time></trkpt><trkpt lat="44.983085" lon="8.0574883"><ele>187.0</ele><time>2026-04-12T05:42:30.445Z</time></trkpt><trkpt lat="44.9832017" lon="8.0574783"><ele>187.0</ele><time>2026-04-12T05:42:32.445Z</time></trkpt><trkpt lat="44.9833233" lon="8.0574467"><ele>187.0</ele><time>2026-04-12T05:42:34.445Z</time></trkpt><trkpt lat="44.98344" lon="8.0574033"><ele>186.8</ele><time>2026-04-12T05:42:36.445Z</time></trkpt><trkpt lat="44.9835033" lon="8.0573767"><ele>186.6</ele><time>2026-04-12T05:42:37.445Z</time></trkpt><trkpt lat="44.9836233" lon="8.0573267"><ele>186.4</ele><time>2026-04-12T05:42:39.445Z</time></trkpt><trkpt lat="44.9836833" lon="8.0572983"><ele>186.20000000000002</ele><time>2026-04-12T05:42:40.445Z</time></trkpt><trkpt lat="44.9837983" lon="8.0572433"><ele>186.0</ele><time>2026-04-12T05:42:42.445Z</time></trkpt><trkpt lat="44.9839083" lon="8.0571933"><ele>186.0</ele><time>2026-04-12T05:42:44.445Z</time></trkpt><trkpt lat="44.9840083" lon="8.0571467"><ele>186.0</ele><time>2026-04-12T05:42:46.446Z</time></trkpt><trkpt lat="44.984115" lon="8.0571033"><ele>186.0</ele><time>2026-04-12T05:42:48.445Z</time></trkpt><trkpt lat="44.9842233" lon="8.0570483"><ele>186.0</ele><time>2026-04-12T05:42:50.445Z</time></trkpt><trkpt lat="44.9843333" lon="8.0570033"><ele>186.0</ele><time>2026-04-12T05:42:52.445Z</time></trkpt><trkpt lat="44.9844467" lon="8.0569467"><ele>185.5</ele><time>2026-04-12T05:42:54.445Z</time></trkpt><trkpt lat="44.98456" lon="8.0568967"><ele>185.0</ele><time>2026-04-12T05:42:56.445Z</time></trkpt><trkpt lat="44.9846767" lon="8.05684"><ele>184.5</ele><time>2026-04-12T05:42:58.445Z</time></trkpt><trkpt lat="44.98474" lon="8.0568083"><ele>184.0</ele><time>2026-04-12T05:42:59.445Z</time></trkpt><trkpt lat="44.9848017" lon="8.05678"><ele>183.5</ele><time>2026-04-12T05:43:00.445Z</time></trkpt><trkpt lat="44.984865" lon="8.0567483"><ele>183.0</ele><time>2026-04-12T05:43:01.445Z</time></trkpt><trkpt lat="44.9849833" lon="8.0567017"><ele>182.75</ele><time>2026-04-12T05:43:03.445Z</time></trkpt><trkpt lat="44.9850983" lon="8.05665"><ele>182.5</ele><time>2026-04-12T05:43:05.445Z</time></trkpt><trkpt lat="44.9852117" lon="8.0565967"><ele>182.25</ele><time>2026-04-12T05:43:07.445Z</time></trkpt><trkpt lat="44.9853317" lon="8.05655"><ele>182.0</ele><time>2026-04-12T05:43:09.445Z</time></trkpt><trkpt lat="44.9854483" lon="8.0565083"><ele>182.2</ele><time>2026-04-12T05:43:11.445Z</time></trkpt><trkpt lat="44.9855133" lon="8.0564867"><ele>182.39999999999998</ele><time>2026-04-12T05:43:12.445Z</time></trkpt><trkpt lat="44.985635" lon="8.0564533"><ele>182.60000000000002</ele><time>2026-04-12T05:43:14.445Z</time></trkpt><trkpt lat="44.9857617" lon="8.0564383"><ele>182.8</ele><time>2026-04-12T05:43:16.445Z</time></trkpt><trkpt lat="44.9858817" lon="8.056445"><ele>183.0</ele><time>2026-04-12T05:43:18.445Z</time></trkpt><trkpt lat="44.9860017" lon="8.0564817"><ele>183.0</ele><time>2026-04-12T05:43:20.445Z</time></trkpt><trkpt lat="44.9861167" lon="8.05654"><ele>183.0</ele><time>2026-04-12T05:43:22.445Z</time></trkpt><trkpt lat="44.9862233" lon="8.056625"><ele>183.0</ele><time>2026-04-12T05:43:24.445Z</time></trkpt><trkpt lat="44.9863117" lon="8.05673"><ele>183.0</ele><time>2026-04-12T05:43:26.445Z</time></trkpt><trkpt lat="44.9864017" lon="8.0568517"><ele>183.14285714285714</ele><time>2026-04-12T05:43:28.445Z</time></trkpt><trkpt lat="44.9864467" lon="8.0569217"><ele>183.28571428571428</ele><time>2026-04-12T05:43:29.446Z</time></trkpt><trkpt lat="44.9864917" lon="8.0569933"><ele>183.42857142857144</ele><time>2026-04-12T05:43:30.445Z</time></trkpt><trkpt lat="44.986535" lon="8.0570633"><ele>183.57142857142856</ele><time>2026-04-12T05:43:31.445Z</time></trkpt><trkpt lat="44.9865817" lon="8.0571333"><ele>183.7142857142857</ele><time>2026-04-12T05:43:32.445Z</time></trkpt><trkpt lat="44.9866267" lon="8.0572067"><ele>183.85714285714286</ele><time>2026-04-12T05:43:33.445Z</time></trkpt><trkpt lat="44.9866717" lon="8.05728"><ele>184.0</ele><time>2026-04-12T05:43:34.445Z</time></trkpt><trkpt lat="44.98672" lon="8.0573517"><ele>185.71428571428572</ele><time>2026-04-12T05:43:35.445Z</time></trkpt><trkpt lat="44.986765" lon="8.057425"><ele>187.42857142857142</ele><time>2026-04-12T05:43:36.445Z</time></trkpt><trkpt lat="44.98681" lon="8.0574983"><ele>189.14285714285714</ele><time>2026-04-12T05:43:37.445Z</time></trkpt><trkpt lat="44.98686" lon="8.05757"><ele>190.85714285714286</ele><time>2026-04-12T05:43:38.445Z</time></trkpt><trkpt lat="44.9869083" lon="8.0576433"><ele>192.57142857142856</ele><time>2026-04-12T05:43:39.445Z</time></trkpt><trkpt lat="44.9869583" lon="8.0577167"><ele>194.28571428571428</ele><time>2026-04-12T05:43:40.445Z</time></trkpt><trkpt lat="44.9870033" lon="8.05779"><ele>196.0</ele><time>2026-04-12T05:43:41.445Z</time></trkpt><trkpt lat="44.987045" lon="8.0578617"><ele>196.0</ele><time>2026-04-12T05:43:42.445Z</time></trkpt><trkpt lat="44.9870867" lon="8.0579317"><ele>196.0</ele><time>2026-04-12T05:43:43.445Z</time></trkpt><trkpt lat="44.9871317" lon="8.0580017"><ele>196.0</ele><time>2026-04-12T05:43:44.445Z</time></trkpt><trkpt lat="44.987175" lon="8.0580717"><ele>196.0</ele><time>2026-04-12T05:43:45.445Z</time></trkpt><trkpt lat="44.98722" lon="8.0581417"><ele>196.0</ele><time>2026-04-12T05:43:46.445Z</time></trkpt><trkpt lat="44.9872633" lon="8.0582117"><ele>196.0</ele><time>2026-04-12T05:43:47.445Z</time></trkpt><trkpt lat="44.987305" lon="8.05828"><ele>196.0</ele><time>2026-04-12T05:43:48.445Z</time></trkpt><trkpt lat="44.9873517" lon="8.0583483"><ele>196.28571428571428</ele><time>2026-04-12T05:43:49.445Z</time></trkpt><trkpt lat="44.9873967" lon="8.05842"><ele>196.57142857142856</ele><time>2026-04-12T05:43:50.445Z</time></trkpt><trkpt lat="44.9874417" lon="8.05849"><ele>196.85714285714286</ele><time>2026-04-12T05:43:51.445Z</time></trkpt><trkpt lat="44.987485" lon="8.05856"><ele>197.14285714285714</ele><time>2026-04-12T05:43:52.445Z</time></trkpt><trkpt lat="44.9875283" lon="8.0586283"><ele>197.42857142857142</ele><time>2026-04-12T05:43:53.445Z</time></trkpt><trkpt lat="44.987575" lon="8.0586983"><ele>197.71428571428572</ele><time>2026-04-12T05:43:54.445Z</time></trkpt><trkpt lat="44.98762" lon="8.058765"><ele>198.0</ele><time>2026-04-12T05:43:55.445Z</time></trkpt><trkpt lat="44.9876633" lon="8.05883"><ele>198.0</ele><time>2026-04-12T05:43:56.445Z</time></trkpt><trkpt lat="44.987705" lon="8.0588983"><ele>198.0</ele><time>2026-04-12T05:43:57.445Z</time></trkpt><trkpt lat="44.9877467" lon="8.0589667"><ele>198.0</ele><time>2026-04-12T05:43:58.445Z</time></trkpt><trkpt lat="44.98783" lon="8.0590933"><ele>198.0</ele><time>2026-04-12T05:44:00.445Z</time></trkpt><trkpt lat="44.9879183" lon="8.0592233"><ele>198.0</ele><time>2026-04-12T05:44:02.445Z</time></trkpt><trkpt lat="44.9879617" lon="8.05929"><ele>198.0</ele><time>2026-04-12T05:44:03.445Z</time></trkpt><trkpt lat="44.988005" lon="8.059355"><ele>195.66666666666666</ele><time>2026-04-12T05:44:04.445Z</time></trkpt><trkpt lat="44.9880833" lon="8.0594867"><ele>193.33333333333334</ele><time>2026-04-12T05:44:06.445Z</time></trkpt><trkpt lat="44.98816" lon="8.0596183"><ele>191.0</ele><time>2026-04-12T05:44:08.445Z</time></trkpt><trkpt lat="44.9882017" lon="8.0596883"><ele>188.66666666666669</ele><time>2026-04-12T05:44:09.446Z</time></trkpt><trkpt lat="44.9882467" lon="8.059755"><ele>186.33333333333334</ele><time>2026-04-12T05:44:10.445Z</time></trkpt><trkpt lat="44.9882883" lon="8.0598233"><ele>184.0</ele><time>2026-04-12T05:44:11.445Z</time></trkpt><trkpt lat="44.9883333" lon="8.0598917"><ele>184.66666666666669</ele><time>2026-04-12T05:44:12.445Z</time></trkpt><trkpt lat="44.9883767" lon="8.0599633"><ele>185.33333333333334</ele><time>2026-04-12T05:44:13.445Z</time></trkpt><trkpt lat="44.9884617" lon="8.0600983"><ele>186.0</ele><time>2026-04-12T05:44:15.445Z</time></trkpt><trkpt lat="44.9885033" lon="8.0601683"><ele>186.66666666666666</ele><time>2026-04-12T05:44:16.445Z</time></trkpt><trkpt lat="44.9885483" lon="8.0602417"><ele>187.33333333333331</ele><time>2026-04-12T05:44:17.445Z</time></trkpt><trkpt lat="44.9885933" lon="8.06031"><ele>188.0</ele><time>2026-04-12T05:44:18.445Z</time></trkpt><trkpt lat="44.988635" lon="8.0603767"><ele>188.0</ele><time>2026-04-12T05:44:19.445Z</time></trkpt><trkpt lat="44.98872" lon="8.0605"><ele>188.0</ele><time>2026-04-12T05:44:21.445Z</time></trkpt><trkpt lat="44.988765" lon="8.0605667"><ele>188.0</ele><time>2026-04-12T05:44:22.446Z</time></trkpt><trkpt lat="44.9888067" lon="8.060635"><ele>188.0</ele><time>2026-04-12T05:44:23.445Z</time></trkpt><trkpt lat="44.9888467" lon="8.060705"><ele>188.0</ele><time>2026-04-12T05:44:24.445Z</time></trkpt><trkpt lat="44.9888917" lon="8.0607717"><ele>188.0</ele><time>2026-04-12T05:44:25.445Z</time></trkpt><trkpt lat="44.9889867" lon="8.0608933"><ele>188.0</ele><time>2026-04-12T05:44:27.445Z</time></trkpt><trkpt lat="44.9890383" lon="8.0609533"><ele>188.0</ele><time>2026-04-12T05:44:28.445Z</time></trkpt><trkpt lat="44.9890917" lon="8.061015"><ele>188.0</ele><time>2026-04-12T05:44:29.445Z</time></trkpt><trkpt lat="44.9891467" lon="8.0610667"><ele>188.0</ele><time>2026-04-12T05:44:30.445Z</time></trkpt><trkpt lat="44.989205" lon="8.0611133"><ele>188.0</ele><time>2026-04-12T05:44:31.445Z</time></trkpt><trkpt lat="44.9893183" lon="8.0611933"><ele>188.0</ele><time>2026-04-12T05:44:33.445Z</time></trkpt><trkpt lat="44.9893767" lon="8.0612267"><ele>188.0</ele><time>2026-04-12T05:44:34.445Z</time></trkpt><trkpt lat="44.9895017" lon="8.061275"><ele>188.0</ele><time>2026-04-12T05:44:36.445Z</time></trkpt><trkpt lat="44.9895667" lon="8.0612917"><ele>188.0</ele><time>2026-04-12T05:44:37.445Z</time></trkpt><trkpt lat="44.989635" lon="8.061305"><ele>188.0</ele><time>2026-04-12T05:44:38.445Z</time></trkpt><trkpt lat="44.9897033" lon="8.0613083"><ele>188.0</ele><time>2026-04-12T05:44:39.445Z</time></trkpt><trkpt lat="44.9897717" lon="8.0613083"><ele>188.0</ele><time>2026-04-12T05:44:40.445Z</time></trkpt><trkpt lat="44.9898367" lon="8.0613033"><ele>188.0</ele><time>2026-04-12T05:44:41.445Z</time></trkpt><trkpt lat="44.9899017" lon="8.0612983"><ele>188.0</ele><time>2026-04-12T05:44:42.445Z</time></trkpt><trkpt lat="44.989965" lon="8.06129"><ele>188.0</ele><time>2026-04-12T05:44:43.445Z</time></trkpt><trkpt lat="44.9900883" lon="8.061265"><ele>188.0</ele><time>2026-04-12T05:44:45.445Z</time></trkpt><trkpt lat="44.9901517" lon="8.061255"><ele>188.0</ele><time>2026-04-12T05:44:46.445Z</time></trkpt><trkpt lat="44.990215" lon="8.0612467"><ele>188.0</ele><time>2026-04-12T05:44:47.445Z</time></trkpt><trkpt lat="44.99028" lon="8.061235"><ele>188.0</ele><time>2026-04-12T05:44:48.445Z</time></trkpt><trkpt lat="44.990405" lon="8.0612117"><ele>187.71428571428572</ele><time>2026-04-12T05:44:50.445Z</time></trkpt><trkpt lat="44.9904683" lon="8.0612033"><ele>187.42857142857142</ele><time>2026-04-12T05:44:51.445Z</time></trkpt><trkpt lat="44.9905933" lon="8.0611867"><ele>187.14285714285717</ele><time>2026-04-12T05:44:53.445Z</time></trkpt><trkpt lat="44.9906567" lon="8.061175"><ele>186.85714285714286</ele><time>2026-04-12T05:44:54.445Z</time></trkpt><trkpt lat="44.99072" lon="8.0611633"><ele>186.57142857142858</ele><time>2026-04-12T05:44:55.445Z</time></trkpt><trkpt lat="44.9907833" lon="8.06115"><ele>186.2857142857143</ele><time>2026-04-12T05:44:56.445Z</time></trkpt><trkpt lat="44.9908483" lon="8.06114"><ele>186.0</ele><time>2026-04-12T05:44:57.445Z</time></trkpt><trkpt lat="44.9909117" lon="8.0611283"><ele>187.0</ele><time>2026-04-12T05:44:58.445Z</time></trkpt><trkpt lat="44.990975" lon="8.06112"><ele>188.0</ele><time>2026-04-12T05:44:59.445Z</time></trkpt><trkpt lat="44.9910983" lon="8.0610933"><ele>189.0</ele><time>2026-04-12T05:45:01.445Z</time></trkpt><trkpt lat="44.9911617" lon="8.061085"><ele>190.0</ele><time>2026-04-12T05:45:02.445Z</time></trkpt><trkpt lat="44.9912267" lon="8.0610717"><ele>191.0</ele><time>2026-04-12T05:45:03.445Z</time></trkpt><trkpt lat="44.99135" lon="8.0610517"><ele>192.0</ele><time>2026-04-12T05:45:05.445Z</time></trkpt><trkpt lat="44.9914133" lon="8.0610383"><ele>192.0</ele><time>2026-04-12T05:45:06.445Z</time></trkpt><trkpt lat="44.9914783" lon="8.06103"><ele>192.0</ele><time>2026-04-12T05:45:07.445Z</time></trkpt><trkpt lat="44.9915417" lon="8.06102"><ele>192.0</ele><time>2026-04-12T05:45:08.445Z</time></trkpt><trkpt lat="44.9916067" lon="8.0610133"><ele>192.0</ele><time>2026-04-12T05:45:09.445Z</time></trkpt><trkpt lat="44.99167" lon="8.0610033"><ele>192.0</ele><time>2026-04-12T05:45:10.445Z</time></trkpt><trkpt lat="44.991735" lon="8.0609917"><ele>192.0</ele><time>2026-04-12T05:45:11.445Z</time></trkpt><trkpt lat="44.9918617" lon="8.0609683"><ele>190.83333333333334</ele><time>2026-04-12T05:45:13.445Z</time></trkpt><trkpt lat="44.99199" lon="8.060945"><ele>189.66666666666666</ele><time>2026-04-12T05:45:15.445Z</time></trkpt><trkpt lat="44.9920533" lon="8.060935"><ele>188.5</ele><time>2026-04-12T05:45:16.445Z</time></trkpt><trkpt lat="44.9921183" lon="8.060925"><ele>187.33333333333331</ele><time>2026-04-12T05:45:17.445Z</time></trkpt><trkpt lat="44.992185" lon="8.0609167"><ele>186.16666666666666</ele><time>2026-04-12T05:45:18.445Z</time></trkpt><trkpt lat="44.992305" lon="8.0608967"><ele>185.0</ele><time>2026-04-12T05:45:20.445Z</time></trkpt><trkpt lat="44.99243" lon="8.0608767"><ele>184.99999999999997</ele><time>2026-04-12T05:45:22.445Z</time></trkpt><trkpt lat="44.9924933" lon="8.0608633"><ele>185.0</ele><time>2026-04-12T05:45:23.445Z</time></trkpt><trkpt lat="44.9925583" lon="8.0608533"><ele>185.0</ele><time>2026-04-12T05:45:24.445Z</time></trkpt><trkpt lat="44.9926233" lon="8.0608467"><ele>185.0</ele><time>2026-04-12T05:45:25.445Z</time></trkpt><trkpt lat="44.99269" lon="8.060835"><ele>185.0</ele><time>2026-04-12T05:45:26.445Z</time></trkpt><trkpt lat="44.99276" lon="8.0608217"><ele>184.99999999999997</ele><time>2026-04-12T05:45:27.445Z</time></trkpt><trkpt lat="44.9928267" lon="8.0608083"><ele>185.0</ele><time>2026-04-12T05:45:28.445Z</time></trkpt><trkpt lat="44.9928917" lon="8.0608"><ele>185.66666666666666</ele><time>2026-04-12T05:45:29.445Z</time></trkpt><trkpt lat="44.9930167" lon="8.06078"><ele>186.33333333333331</ele><time>2026-04-12T05:45:31.445Z</time></trkpt><trkpt lat="44.9930817" lon="8.0607733"><ele>187.0</ele><time>2026-04-12T05:45:32.445Z</time></trkpt><trkpt lat="44.9931483" lon="8.0607633"><ele>187.66666666666666</ele><time>2026-04-12T05:45:33.445Z</time></trkpt><trkpt lat="44.993215" lon="8.0607533"><ele>188.33333333333334</ele><time>2026-04-12T05:45:34.445Z</time></trkpt><trkpt lat="44.9932817" lon="8.0607433"><ele>189.0</ele><time>2026-04-12T05:45:35.445Z</time></trkpt><trkpt lat="44.99335" lon="8.0607333"><ele>189.0</ele><time>2026-04-12T05:45:36.445Z</time></trkpt><trkpt lat="44.9934167" lon="8.0607167"><ele>189.0</ele><time>2026-04-12T05:45:37.445Z</time></trkpt><trkpt lat="44.9934817" lon="8.060705"><ele>189.0</ele><time>2026-04-12T05:45:38.445Z</time></trkpt><trkpt lat="44.9935467" lon="8.0606967"><ele>189.0</ele><time>2026-04-12T05:45:39.445Z</time></trkpt><trkpt lat="44.9936117" lon="8.060685"><ele>189.0</ele><time>2026-04-12T05:45:40.446Z</time></trkpt><trkpt lat="44.993675" lon="8.060675"><ele>189.0</ele><time>2026-04-12T05:45:41.445Z</time></trkpt><trkpt lat="44.9937417" lon="8.0606617"><ele>189.0</ele><time>2026-04-12T05:45:42.445Z</time></trkpt><trkpt lat="44.99381" lon="8.0606467"><ele>189.0</ele><time>2026-04-12T05:45:43.445Z</time></trkpt><trkpt lat="44.9938733" lon="8.0606317"><ele>189.0</ele><time>2026-04-12T05:45:44.445Z</time></trkpt><trkpt lat="44.9939417" lon="8.0606183"><ele>189.0</ele><time>2026-04-12T05:45:45.445Z</time></trkpt><trkpt lat="44.9940083" lon="8.06061"><ele>189.0</ele><time>2026-04-12T05:45:46.445Z</time></trkpt><trkpt lat="44.9940767" lon="8.0606017"><ele>189.0</ele><time>2026-04-12T05:45:47.446Z</time></trkpt><trkpt lat="44.9941433" lon="8.0605933"><ele>189.0</ele><time>2026-04-12T05:45:48.446Z</time></trkpt><trkpt lat="44.9942083" lon="8.0605783"><ele>189.0</ele><time>2026-04-12T05:45:49.446Z</time></trkpt><trkpt lat="44.994275" lon="8.0605667"><ele>189.57142857142858</ele><time>2026-04-12T05:45:50.445Z</time></trkpt><trkpt lat="44.994345" lon="8.060555"><ele>190.14285714285714</ele><time>2026-04-12T05:45:51.445Z</time></trkpt><trkpt lat="44.9944117" lon="8.060545"><ele>190.71428571428572</ele><time>2026-04-12T05:45:52.445Z</time></trkpt><trkpt lat="44.99448" lon="8.0605367"><ele>191.28571428571428</ele><time>2026-04-12T05:45:53.445Z</time></trkpt><trkpt lat="44.9945483" lon="8.0605283"><ele>191.85714285714286</ele><time>2026-04-12T05:45:54.445Z</time></trkpt><trkpt lat="44.9946183" lon="8.0605183"><ele>192.42857142857144</ele><time>2026-04-12T05:45:55.445Z</time></trkpt><trkpt lat="44.994685" lon="8.0605067"><ele>193.0</ele><time>2026-04-12T05:45:56.445Z</time></trkpt><trkpt lat="44.9947533" lon="8.060495"><ele>193.00000000000003</ele><time>2026-04-12T05:45:57.445Z</time></trkpt><trkpt lat="44.99482" lon="8.0604817"><ele>193.0</ele><time>2026-04-12T05:45:58.445Z</time></trkpt><trkpt lat="44.99489" lon="8.0604717"><ele>193.0</ele><time>2026-04-12T05:45:59.445Z</time></trkpt><trkpt lat="44.9949583" lon="8.06046"><ele>193.0</ele><time>2026-04-12T05:46:00.445Z</time></trkpt><trkpt lat="44.995025" lon="8.0604533"><ele>193.0</ele><time>2026-04-12T05:46:01.445Z</time></trkpt><trkpt lat="44.9950917" lon="8.0604367"><ele>193.00000000000003</ele><time>2026-04-12T05:46:02.445Z</time></trkpt><trkpt lat="44.9951583" lon="8.0604233"><ele>193.0</ele><time>2026-04-12T05:46:03.445Z</time></trkpt><trkpt lat="44.9952267" lon="8.0604133"><ele>192.57142857142858</ele><time>2026-04-12T05:46:04.445Z</time></trkpt><trkpt lat="44.995295" lon="8.0604033"><ele>192.14285714285714</ele><time>2026-04-12T05:46:05.445Z</time></trkpt><trkpt lat="44.995365" lon="8.0603917"><ele>191.71428571428572</ele><time>2026-04-12T05:46:06.445Z</time></trkpt><trkpt lat="44.9954333" lon="8.0603817"><ele>191.28571428571428</ele><time>2026-04-12T05:46:07.445Z</time></trkpt><trkpt lat="44.9955017" lon="8.0603733"><ele>190.85714285714286</ele><time>2026-04-12T05:46:08.445Z</time></trkpt><trkpt lat="44.995565" lon="8.0603633"><ele>190.42857142857144</ele><time>2026-04-12T05:46:09.445Z</time></trkpt><trkpt lat="44.9956333" lon="8.060355"><ele>190.0</ele><time>2026-04-12T05:46:10.445Z</time></trkpt><trkpt lat="44.9956983" lon="8.0603467"><ele>190.0</ele><time>2026-04-12T05:46:11.445Z</time></trkpt><trkpt lat="44.9957633" lon="8.0603333"><ele>190.0</ele><time>2026-04-12T05:46:12.445Z</time></trkpt><trkpt lat="44.9958333" lon="8.06032"><ele>190.0</ele><time>2026-04-12T05:46:13.445Z</time></trkpt><trkpt lat="44.9959033" lon="8.0603067"><ele>190.0</ele><time>2026-04-12T05:46:14.445Z</time></trkpt><trkpt lat="44.9959717" lon="8.060295"><ele>190.0</ele><time>2026-04-12T05:46:15.446Z</time></trkpt><trkpt lat="44.9960433" lon="8.0602817"><ele>190.0</ele><time>2026-04-12T05:46:16.445Z</time></trkpt><trkpt lat="44.9961117" lon="8.0602733"><ele>190.0</ele><time>2026-04-12T05:46:17.445Z</time></trkpt><trkpt lat="44.9961783" lon="8.0602633"><ele>190.0</ele><time>2026-04-12T05:46:18.445Z</time></trkpt><trkpt lat="44.9962517" lon="8.0602517"><ele>190.0</ele><time>2026-04-12T05:46:19.445Z</time></trkpt><trkpt lat="44.9963233" lon="8.0602417"><ele>190.0</ele><time>2026-04-12T05:46:20.445Z</time></trkpt><trkpt lat="44.9963933" lon="8.0602317"><ele>190.0</ele><time>2026-04-12T05:46:21.445Z</time></trkpt><trkpt lat="44.9964633" lon="8.0602217"><ele>190.0</ele><time>2026-04-12T05:46:22.445Z</time></trkpt><trkpt lat="44.9965333" lon="8.06021"><ele>190.0</ele><time>2026-04-12T05:46:23.445Z</time></trkpt><trkpt lat="44.9966017" lon="8.0602"><ele>190.0</ele><time>2026-04-12T05:46:24.445Z</time></trkpt><trkpt lat="44.99667" lon="8.0601883"><ele>190.0</ele><time>2026-04-12T05:46:25.445Z</time></trkpt><trkpt lat="44.9967383" lon="8.0601767"><ele>190.0</ele><time>2026-04-12T05:46:26.445Z</time></trkpt><trkpt lat="44.9968067" lon="8.060165"><ele>190.0</ele><time>2026-04-12T05:46:27.445Z</time></trkpt><trkpt lat="44.996875" lon="8.060155"><ele>190.0</ele><time>2026-04-12T05:46:28.445Z</time></trkpt><trkpt lat="44.996945" lon="8.0601433"><ele>190.0</ele><time>2026-04-12T05:46:29.445Z</time></trkpt><trkpt lat="44.9970117" lon="8.0601333"><ele>190.0</ele><time>2026-04-12T05:46:30.445Z</time></trkpt><trkpt lat="44.99708" lon="8.06012"><ele>190.0</ele><time>2026-04-12T05:46:31.445Z</time></trkpt><trkpt lat="44.99715" lon="8.060105"><ele>190.0</ele><time>2026-04-12T05:46:32.445Z</time></trkpt><trkpt lat="44.9972167" lon="8.0600917"><ele>190.0</ele><time>2026-04-12T05:46:33.445Z</time></trkpt><trkpt lat="44.9972833" lon="8.0600817"><ele>190.0</ele><time>2026-04-12T05:46:34.445Z</time></trkpt><trkpt lat="44.9973517" lon="8.06007"><ele>190.0</ele><time>2026-04-12T05:46:35.446Z</time></trkpt><trkpt lat="44.99742" lon="8.0600617"><ele>190.0</ele><time>2026-04-12T05:46:36.445Z</time></trkpt><trkpt lat="44.9974867" lon="8.06005"><ele>190.0</ele><time>2026-04-12T05:46:37.445Z</time></trkpt><trkpt lat="44.9975517" lon="8.0600367"><ele>190.0</ele><time>2026-04-12T05:46:38.445Z</time></trkpt><trkpt lat="44.9976183" lon="8.0600267"><ele>190.14285714285714</ele><time>2026-04-12T05:46:39.445Z</time></trkpt><trkpt lat="44.997685" lon="8.060015"><ele>190.28571428571428</ele><time>2026-04-12T05:46:40.445Z</time></trkpt><trkpt lat="44.9977517" lon="8.0599967"><ele>190.42857142857144</ele><time>2026-04-12T05:46:41.445Z</time></trkpt><trkpt lat="44.9978167" lon="8.059985"><ele>190.57142857142856</ele><time>2026-04-12T05:46:42.445Z</time></trkpt><trkpt lat="44.9978817" lon="8.0599783"><ele>190.7142857142857</ele><time>2026-04-12T05:46:43.445Z</time></trkpt><trkpt lat="44.997945" lon="8.0599633"><ele>190.85714285714286</ele><time>2026-04-12T05:46:44.445Z</time></trkpt><trkpt lat="44.9980133" lon="8.05995"><ele>191.0</ele><time>2026-04-12T05:46:45.445Z</time></trkpt><trkpt lat="44.9980783" lon="8.0599367"><ele>191.16666666666666</ele><time>2026-04-12T05:46:46.445Z</time></trkpt><trkpt lat="44.9981433" lon="8.0599317"><ele>191.33333333333331</ele><time>2026-04-12T05:46:47.445Z</time></trkpt><trkpt lat="44.9982117" lon="8.0599233"><ele>191.5</ele><time>2026-04-12T05:46:48.445Z</time></trkpt><trkpt lat="44.99828" lon="8.059915"><ele>191.66666666666666</ele><time>2026-04-12T05:46:49.445Z</time></trkpt><trkpt lat="44.9983433" lon="8.0599067"><ele>191.83333333333334</ele><time>2026-04-12T05:46:50.445Z</time></trkpt><trkpt lat="44.9984083" lon="8.0598983"><ele>192.0</ele><time>2026-04-12T05:46:51.445Z</time></trkpt><trkpt lat="44.9985333" lon="8.059875"><ele>193.0</ele><time>2026-04-12T05:46:53.445Z</time></trkpt><trkpt lat="44.9986583" lon="8.0598533"><ele>194.0</ele><time>2026-04-12T05:46:55.445Z</time></trkpt><trkpt lat="44.9987217" lon="8.0598383"><ele>195.0</ele><time>2026-04-12T05:46:56.445Z</time></trkpt><trkpt lat="44.99879" lon="8.05982"><ele>196.0</ele><time>2026-04-12T05:46:57.445Z</time></trkpt><trkpt lat="44.998855" lon="8.059805"><ele>197.0</ele><time>2026-04-12T05:46:58.445Z</time></trkpt><trkpt lat="44.9989783" lon="8.0597917"><ele>198.0</ele><time>2026-04-12T05:47:00.445Z</time></trkpt><trkpt lat="44.9990933" lon="8.0597733"><ele>199.5</ele><time>2026-04-12T05:47:02.445Z</time></trkpt><trkpt lat="44.99921" lon="8.059745"><ele>201.0</ele><time>2026-04-12T05:47:04.445Z</time></trkpt><trkpt lat="44.9993317" lon="8.0597217"><ele>202.5</ele><time>2026-04-12T05:47:06.445Z</time></trkpt><trkpt lat="44.9994467" lon="8.0596983"><ele>204.0</ele><time>2026-04-12T05:47:08.445Z</time></trkpt><trkpt lat="44.9995633" lon="8.0596783"><ele>204.0</ele><time>2026-04-12T05:47:10.445Z</time></trkpt><trkpt lat="44.9996917" lon="8.0596583"><ele>204.0</ele><time>2026-04-12T05:47:12.445Z</time></trkpt><trkpt lat="44.9998117" lon="8.0596433"><ele>204.0</ele><time>2026-04-12T05:47:14.445Z</time></trkpt><trkpt lat="44.9999383" lon="8.0596183"><ele>204.0</ele><time>2026-04-12T05:47:16.445Z</time></trkpt><trkpt lat="45.000005" lon="8.0596133"><ele>204.0</ele><time>2026-04-12T05:47:17.445Z</time></trkpt><trkpt lat="45.0000717" lon="8.0596083"><ele>204.0</ele><time>2026-04-12T05:47:18.445Z</time></trkpt><trkpt lat="45.00014" lon="8.0596067"><ele>204.0</ele><time>2026-04-12T05:47:19.445Z</time></trkpt><trkpt lat="45.0002067" lon="8.0596033"><ele>204.0</ele><time>2026-04-12T05:47:20.445Z</time></trkpt><trkpt lat="45.0002767" lon="8.0596"><ele>204.0</ele><time>2026-04-12T05:47:21.445Z</time></trkpt><trkpt lat="45.0003467" lon="8.0596033"><ele>204.0</ele><time>2026-04-12T05:47:22.445Z</time></trkpt><trkpt lat="45.0004183" lon="8.059605"><ele>204.0</ele><time>2026-04-12T05:47:23.445Z</time></trkpt><trkpt lat="45.0004867" lon="8.0596067"><ele>204.0</ele><time>2026-04-12T05:47:24.445Z</time></trkpt><trkpt lat="45.0005583" lon="8.0596083"><ele>204.0</ele><time>2026-04-12T05:47:25.445Z</time></trkpt><trkpt lat="45.00063" lon="8.0596167"><ele>204.0</ele><time>2026-04-12T05:47:26.445Z</time></trkpt><trkpt lat="45.0007083" lon="8.0596267"><ele>204.0</ele><time>2026-04-12T05:47:27.445Z</time></trkpt><trkpt lat="45.0007817" lon="8.0596433"><ele>204.0</ele><time>2026-04-12T05:47:28.445Z</time></trkpt><trkpt lat="45.0008517" lon="8.0596617"><ele>204.0</ele><time>2026-04-12T05:47:29.445Z</time></trkpt><trkpt lat="45.00092" lon="8.05969"><ele>204.0</ele><time>2026-04-12T05:47:30.445Z</time></trkpt><trkpt lat="45.000985" lon="8.059715"><ele>204.0</ele><time>2026-04-12T05:47:31.445Z</time></trkpt><trkpt lat="45.00105" lon="8.0597467"><ele>202.85714285714286</ele><time>2026-04-12T05:47:32.445Z</time></trkpt><trkpt lat="45.0011167" lon="8.0597783"><ele>201.71428571428572</ele><time>2026-04-12T05:47:33.445Z</time></trkpt><trkpt lat="45.0011817" lon="8.0598083"><ele>200.57142857142856</ele><time>2026-04-12T05:47:34.445Z</time></trkpt><trkpt lat="45.001245" lon="8.0598433"><ele>199.42857142857144</ele><time>2026-04-12T05:47:35.445Z</time></trkpt><trkpt lat="45.0013117" lon="8.0598783"><ele>198.28571428571428</ele><time>2026-04-12T05:47:36.445Z</time></trkpt><trkpt lat="45.0013767" lon="8.059915"><ele>197.14285714285714</ele><time>2026-04-12T05:47:37.445Z</time></trkpt><trkpt lat="45.00144" lon="8.05995"><ele>196.0</ele><time>2026-04-12T05:47:38.445Z</time></trkpt><trkpt lat="45.001505" lon="8.059985"><ele>195.85714285714286</ele><time>2026-04-12T05:47:39.445Z</time></trkpt><trkpt lat="45.0015717" lon="8.0600183"><ele>195.71428571428572</ele><time>2026-04-12T05:47:40.445Z</time></trkpt><trkpt lat="45.0016367" lon="8.0600517"><ele>195.57142857142856</ele><time>2026-04-12T05:47:41.445Z</time></trkpt><trkpt lat="45.0017017" lon="8.0600883"><ele>195.42857142857144</ele><time>2026-04-12T05:47:42.445Z</time></trkpt><trkpt lat="45.0017683" lon="8.0601217"><ele>195.28571428571428</ele><time>2026-04-12T05:47:43.445Z</time></trkpt><trkpt lat="45.0018317" lon="8.0601583"><ele>195.14285714285714</ele><time>2026-04-12T05:47:44.445Z</time></trkpt><trkpt lat="45.001895" lon="8.0601933"><ele>195.0</ele><time>2026-04-12T05:47:45.445Z</time></trkpt><trkpt lat="45.00196" lon="8.0602267"><ele>194.85714285714286</ele><time>2026-04-12T05:47:46.445Z</time></trkpt><trkpt lat="45.0020267" lon="8.0602567"><ele>194.71428571428572</ele><time>2026-04-12T05:47:47.445Z</time></trkpt><trkpt lat="45.0020917" lon="8.06029"><ele>194.57142857142856</ele><time>2026-04-12T05:47:48.445Z</time></trkpt><trkpt lat="45.002155" lon="8.060325"><ele>194.42857142857144</ele><time>2026-04-12T05:47:49.445Z</time></trkpt><trkpt lat="45.0022183" lon="8.0603583"><ele>194.2857142857143</ele><time>2026-04-12T05:47:50.445Z</time></trkpt><trkpt lat="45.0022817" lon="8.060395"><ele>194.14285714285714</ele><time>2026-04-12T05:47:51.445Z</time></trkpt><trkpt lat="45.0023467" lon="8.06043"><ele>194.0</ele><time>2026-04-12T05:47:52.445Z</time></trkpt><trkpt lat="45.0024133" lon="8.060465"><ele>194.0</ele><time>2026-04-12T05:47:53.445Z</time></trkpt><trkpt lat="45.00248" lon="8.0605"><ele>194.0</ele><time>2026-04-12T05:47:54.445Z</time></trkpt><trkpt lat="45.0025467" lon="8.06053"><ele>194.0</ele><time>2026-04-12T05:47:55.445Z</time></trkpt><trkpt lat="45.0026133" lon="8.060565"><ele>194.0</ele><time>2026-04-12T05:47:56.445Z</time></trkpt><trkpt lat="45.0026783" lon="8.0605967"><ele>194.0</ele><time>2026-04-12T05:47:57.445Z</time></trkpt><trkpt lat="45.0027417" lon="8.06063"><ele>194.0</ele><time>2026-04-12T05:47:58.445Z</time></trkpt><trkpt lat="45.0028083" lon="8.0606633"><ele>194.0</ele><time>2026-04-12T05:47:59.445Z</time></trkpt><trkpt lat="45.0028683" lon="8.0607017"><ele>194.42857142857142</ele><time>2026-04-12T05:48:00.445Z</time></trkpt><trkpt lat="45.00293" lon="8.0607333"><ele>194.85714285714286</ele><time>2026-04-12T05:48:01.445Z</time></trkpt><trkpt lat="45.0029933" lon="8.0607683"><ele>195.28571428571428</ele><time>2026-04-12T05:48:02.445Z</time></trkpt><trkpt lat="45.0030583" lon="8.0608017"><ele>195.71428571428572</ele><time>2026-04-12T05:48:03.445Z</time></trkpt><trkpt lat="45.0031217" lon="8.060835"><ele>196.14285714285717</ele><time>2026-04-12T05:48:04.445Z</time></trkpt><trkpt lat="45.00319" lon="8.06087"><ele>196.57142857142858</ele><time>2026-04-12T05:48:05.445Z</time></trkpt><trkpt lat="45.0032567" lon="8.060905"><ele>197.0</ele><time>2026-04-12T05:48:06.445Z</time></trkpt><trkpt lat="45.003325" lon="8.0609367"><ele>197.14285714285714</ele><time>2026-04-12T05:48:07.445Z</time></trkpt><trkpt lat="45.00339" lon="8.06097"><ele>197.28571428571428</ele><time>2026-04-12T05:48:08.445Z</time></trkpt><trkpt lat="45.0034567" lon="8.061"><ele>197.42857142857144</ele><time>2026-04-12T05:48:09.445Z</time></trkpt><trkpt lat="45.0035217" lon="8.0610317"><ele>197.57142857142856</ele><time>2026-04-12T05:48:10.445Z</time></trkpt><trkpt lat="45.00359" lon="8.0610633"><ele>197.7142857142857</ele><time>2026-04-12T05:48:11.445Z</time></trkpt><trkpt lat="45.0036567" lon="8.061095"><ele>197.85714285714286</ele><time>2026-04-12T05:48:12.445Z</time></trkpt><trkpt lat="45.003725" lon="8.0611317"><ele>198.0</ele><time>2026-04-12T05:48:13.445Z</time></trkpt><trkpt lat="45.00379" lon="8.0611567"><ele>198.0</ele><time>2026-04-12T05:48:14.445Z</time></trkpt><trkpt lat="45.003855" lon="8.0611883"><ele>198.0</ele><time>2026-04-12T05:48:15.445Z</time></trkpt><trkpt lat="45.00392" lon="8.0612167"><ele>198.0</ele><time>2026-04-12T05:48:16.445Z</time></trkpt><trkpt lat="45.0039883" lon="8.0612417"><ele>198.0</ele><time>2026-04-12T05:48:17.445Z</time></trkpt><trkpt lat="45.0040567" lon="8.0612667"><ele>198.0</ele><time>2026-04-12T05:48:18.445Z</time></trkpt><trkpt lat="45.0041233" lon="8.06129"><ele>198.0</ele><time>2026-04-12T05:48:19.445Z</time></trkpt><trkpt lat="45.0041867" lon="8.0613133"><ele>198.0</ele><time>2026-04-12T05:48:20.445Z</time></trkpt><trkpt lat="45.0042483" lon="8.06134"><ele>198.0</ele><time>2026-04-12T05:48:21.445Z</time></trkpt><trkpt lat="45.004365" lon="8.0613767"><ele>198.0</ele><time>2026-04-12T05:48:23.445Z</time></trkpt><trkpt lat="45.0044833" lon="8.0613917"><ele>198.0</ele><time>2026-04-12T05:48:25.445Z</time></trkpt><trkpt lat="45.0045817" lon="8.0614283"><ele>198.0</ele><time>2026-04-12T05:48:27.445Z</time></trkpt><trkpt lat="45.0046" lon="8.061555"><ele>198.0</ele><time>2026-04-12T05:48:29.445Z</time></trkpt><trkpt lat="45.004565" lon="8.06172"><ele>197.42857142857144</ele><time>2026-04-12T05:48:31.445Z</time></trkpt><trkpt lat="45.0045533" lon="8.06181"><ele>196.85714285714283</ele><time>2026-04-12T05:48:32.445Z</time></trkpt><trkpt lat="45.0045433" lon="8.061905"><ele>196.28571428571428</ele><time>2026-04-12T05:48:33.445Z</time></trkpt><trkpt lat="45.0045317" lon="8.0620017"><ele>195.71428571428572</ele><time>2026-04-12T05:48:34.445Z</time></trkpt><trkpt lat="45.004515" lon="8.0620983"><ele>195.14285714285717</ele><time>2026-04-12T05:48:35.445Z</time></trkpt><trkpt lat="45.0045" lon="8.062205"><ele>194.57142857142856</ele><time>2026-04-12T05:48:36.445Z</time></trkpt><trkpt lat="45.004485" lon="8.0623183"><ele>194.0</ele><time>2026-04-12T05:48:37.445Z</time></trkpt><trkpt lat="45.0044717" lon="8.0624333"><ele>193.16666666666669</ele><time>2026-04-12T05:48:38.445Z</time></trkpt><trkpt lat="45.0044617" lon="8.06255"><ele>192.33333333333334</ele><time>2026-04-12T05:48:39.445Z</time></trkpt><trkpt lat="45.0044533" lon="8.0626617"><ele>191.5</ele><time>2026-04-12T05:48:40.445Z</time></trkpt><trkpt lat="45.0044567" lon="8.0627683"><ele>190.66666666666669</ele><time>2026-04-12T05:48:41.445Z</time></trkpt><trkpt lat="45.00446" lon="8.0628767"><ele>189.83333333333334</ele><time>2026-04-12T05:48:42.445Z</time></trkpt><trkpt lat="45.0044633" lon="8.0629817"><ele>189.0</ele><time>2026-04-12T05:48:43.445Z</time></trkpt><trkpt lat="45.0044717" lon="8.0630783"><ele>189.0</ele><time>2026-04-12T05:48:44.445Z</time></trkpt><trkpt lat="45.0044767" lon="8.063175"><ele>189.0</ele><time>2026-04-12T05:48:45.445Z</time></trkpt><trkpt lat="45.004485" lon="8.0632683"><ele>189.0</ele><time>2026-04-12T05:48:46.445Z</time></trkpt><trkpt lat="45.0044933" lon="8.0633633"><ele>189.0</ele><time>2026-04-12T05:48:47.445Z</time></trkpt><trkpt lat="45.0045017" lon="8.0634567"><ele>189.0</ele><time>2026-04-12T05:48:48.445Z</time></trkpt><trkpt lat="45.0045083" lon="8.06355"><ele>189.0</ele><time>2026-04-12T05:48:49.445Z</time></trkpt><trkpt lat="45.0045217" lon="8.0637167"><ele>189.66666666666666</ele><time>2026-04-12T05:48:51.445Z</time></trkpt><trkpt lat="45.0045333" lon="8.0638617"><ele>190.33333333333331</ele><time>2026-04-12T05:48:53.445Z</time></trkpt><trkpt lat="45.0045367" lon="8.0639817"><ele>191.0</ele><time>2026-04-12T05:48:55.446Z</time></trkpt><trkpt lat="45.00458" lon="8.064075"><ele>191.66666666666666</ele><time>2026-04-12T05:48:58.446Z</time></trkpt><trkpt lat="45.0046333" lon="8.0640267"><ele>192.33333333333331</ele><time>2026-04-12T05:49:00.445Z</time></trkpt><trkpt lat="45.0046683" lon="8.0639033"><ele>193.0</ele><time>2026-04-12T05:49:02.445Z</time></trkpt><trkpt lat="45.0047117" lon="8.0637533"><ele>193.0</ele><time>2026-04-12T05:49:04.445Z</time></trkpt><trkpt lat="45.0047817" lon="8.0636217"><ele>193.0</ele><time>2026-04-12T05:49:06.445Z</time></trkpt><trkpt lat="45.0048667" lon="8.0635133"><ele>193.0</ele><time>2026-04-12T05:49:08.445Z</time></trkpt><trkpt lat="45.0049583" lon="8.0634317"><ele>193.0</ele><time>2026-04-12T05:49:10.445Z</time></trkpt><trkpt lat="45.0050667" lon="8.0633733"><ele>193.2</ele><time>2026-04-12T05:49:12.445Z</time></trkpt><trkpt lat="45.005175" lon="8.0633483"><ele>193.4</ele><time>2026-04-12T05:49:14.445Z</time></trkpt><trkpt lat="45.0052733" lon="8.0633517"><ele>193.6</ele><time>2026-04-12T05:49:16.445Z</time></trkpt><trkpt lat="45.0053583" lon="8.063375"><ele>193.79999999999998</ele><time>2026-04-12T05:49:18.445Z</time></trkpt><trkpt lat="45.00545" lon="8.063415"><ele>194.0</ele><time>2026-04-12T05:49:20.445Z</time></trkpt><trkpt lat="45.0055367" lon="8.0634633"><ele>194.0</ele><time>2026-04-12T05:49:22.446Z</time></trkpt><trkpt lat="45.0056283" lon="8.0634833"><ele>194.0</ele><time>2026-04-12T05:49:24.445Z</time></trkpt><trkpt lat="45.0057233" lon="8.0634767"><ele>194.0</ele><time>2026-04-12T05:49:26.445Z</time></trkpt><trkpt lat="45.0058183" lon="8.0634733"><ele>194.0</ele><time>2026-04-12T05:49:28.445Z</time></trkpt><trkpt lat="45.0059167" lon="8.0634683"><ele>194.0</ele><time>2026-04-12T05:49:30.445Z</time></trkpt><trkpt lat="45.0060267" lon="8.0634533"><ele>194.75</ele><time>2026-04-12T05:49:32.445Z</time></trkpt><trkpt lat="45.0061417" lon="8.0634517"><ele>195.5</ele><time>2026-04-12T05:49:34.445Z</time></trkpt><trkpt lat="45.0062633" lon="8.0634533"><ele>196.25</ele><time>2026-04-12T05:49:36.445Z</time></trkpt><trkpt lat="45.00638" lon="8.0634783"><ele>197.0</ele><time>2026-04-12T05:49:38.445Z</time></trkpt><trkpt lat="45.00648" lon="8.063525"><ele>197.0</ele><time>2026-04-12T05:49:40.445Z</time></trkpt><trkpt lat="45.0065817" lon="8.0635667"><ele>197.0</ele><time>2026-04-12T05:49:42.445Z</time></trkpt><trkpt lat="45.0066817" lon="8.0636083"><ele>197.0</ele><time>2026-04-12T05:49:44.445Z</time></trkpt><trkpt lat="45.0067933" lon="8.0636383"><ele>197.0</ele><time>2026-04-12T05:49:46.445Z</time></trkpt><trkpt lat="45.0069033" lon="8.06367"><ele>197.0</ele><time>2026-04-12T05:49:48.445Z</time></trkpt><trkpt lat="45.007015" lon="8.0637033"><ele>197.0</ele><time>2026-04-12T05:49:50.445Z</time></trkpt><trkpt lat="45.0071217" lon="8.0637417"><ele>197.0</ele><time>2026-04-12T05:49:52.445Z</time></trkpt><trkpt lat="45.00722" lon="8.0637867"><ele>197.0</ele><time>2026-04-12T05:49:54.445Z</time></trkpt><trkpt lat="45.0073167" lon="8.063825"><ele>197.0</ele><time>2026-04-12T05:49:56.445Z</time></trkpt><trkpt lat="45.007415" lon="8.0638617"><ele>197.0</ele><time>2026-04-12T05:49:58.445Z</time></trkpt><trkpt lat="45.0075083" lon="8.0639083"><ele>195.8</ele><time>2026-04-12T05:50:00.445Z</time></trkpt><trkpt lat="45.0076033" lon="8.0639283"><ele>194.6</ele><time>2026-04-12T05:50:02.445Z</time></trkpt><trkpt lat="45.0077017" lon="8.06397"><ele>193.4</ele><time>2026-04-12T05:50:04.445Z</time></trkpt><trkpt lat="45.0077967" lon="8.0640083"><ele>192.20000000000002</ele><time>2026-04-12T05:50:06.445Z</time></trkpt><trkpt lat="45.0079" lon="8.0640067"><ele>191.0</ele><time>2026-04-12T05:50:08.445Z</time></trkpt><trkpt lat="45.0079983" lon="8.0639633"><ele>191.0</ele><time>2026-04-12T05:50:10.445Z</time></trkpt><trkpt lat="45.0080983" lon="8.0639567"><ele>191.0</ele><time>2026-04-12T05:50:12.445Z</time></trkpt><trkpt lat="45.0081867" lon="8.0639733"><ele>191.0</ele><time>2026-04-12T05:50:14.445Z</time></trkpt><trkpt lat="45.008265" lon="8.0639933"><ele>191.0</ele><time>2026-04-12T05:50:16.445Z</time></trkpt><trkpt lat="45.00834" lon="8.06401"><ele>191.0</ele><time>2026-04-12T05:50:18.445Z</time></trkpt><trkpt lat="45.0084083" lon="8.064025"><ele>191.0</ele><time>2026-04-12T05:50:20.445Z</time></trkpt><trkpt lat="45.0084767" lon="8.06403"><ele>191.0</ele><time>2026-04-12T05:50:22.445Z</time></trkpt><trkpt lat="45.0085583" lon="8.064055"><ele>191.0</ele><time>2026-04-12T05:50:24.445Z</time></trkpt><trkpt lat="45.00865" lon="8.0640767"><ele>191.0</ele><time>2026-04-12T05:50:26.445Z</time></trkpt><trkpt lat="45.0087467" lon="8.0641"><ele>191.0</ele><time>2026-04-12T05:50:28.445Z</time></trkpt><trkpt lat="45.0088433" lon="8.064125"><ele>191.0</ele><time>2026-04-12T05:50:30.445Z</time></trkpt><trkpt lat="45.0089383" lon="8.0641617"><ele>191.0</ele><time>2026-04-12T05:50:32.445Z</time></trkpt><trkpt lat="45.0090317" lon="8.0641917"><ele>191.0</ele><time>2026-04-12T05:50:34.445Z</time></trkpt><trkpt lat="45.0091117" lon="8.0641983"><ele>191.0</ele><time>2026-04-12T05:50:36.446Z</time></trkpt><trkpt lat="45.00919" lon="8.0642217"><ele>191.0</ele><time>2026-04-12T05:50:38.445Z</time></trkpt><trkpt lat="45.009285" lon="8.0642433"><ele>191.0</ele><time>2026-04-12T05:50:40.445Z</time></trkpt><trkpt lat="45.0093883" lon="8.0642567"><ele>191.4</ele><time>2026-04-12T05:50:42.445Z</time></trkpt><trkpt lat="45.0094867" lon="8.064265"><ele>191.8</ele><time>2026-04-12T05:50:44.445Z</time></trkpt><trkpt lat="45.0095883" lon="8.0642783"><ele>192.20000000000002</ele><time>2026-04-12T05:50:46.445Z</time></trkpt><trkpt lat="45.0096883" lon="8.0642967"><ele>192.60000000000002</ele><time>2026-04-12T05:50:48.445Z</time></trkpt><trkpt lat="45.00979" lon="8.0643183"><ele>193.0</ele><time>2026-04-12T05:50:50.445Z</time></trkpt><trkpt lat="45.0099033" lon="8.0643433"><ele>193.00000000000003</ele><time>2026-04-12T05:50:52.445Z</time></trkpt><trkpt lat="45.0099667" lon="8.0643617"><ele>193.0</ele><time>2026-04-12T05:50:53.445Z</time></trkpt><trkpt lat="45.0100317" lon="8.0643783"><ele>193.0</ele><time>2026-04-12T05:50:54.445Z</time></trkpt><trkpt lat="45.0100967" lon="8.0644"><ele>193.0</ele><time>2026-04-12T05:50:55.445Z</time></trkpt><trkpt lat="45.01016" lon="8.06442"><ele>193.0</ele><time>2026-04-12T05:50:56.445Z</time></trkpt><trkpt lat="45.0102217" lon="8.0644433"><ele>193.00000000000003</ele><time>2026-04-12T05:50:57.445Z</time></trkpt><trkpt lat="45.0102833" lon="8.0644667"><ele>193.0</ele><time>2026-04-12T05:50:58.445Z</time></trkpt><trkpt lat="45.010345" lon="8.0644917"><ele>193.25</ele><time>2026-04-12T05:50:59.445Z</time></trkpt><trkpt lat="45.0104617" lon="8.06453"><ele>193.5</ele><time>2026-04-12T05:51:01.445Z</time></trkpt><trkpt lat="45.0105733" lon="8.06457"><ele>193.75</ele><time>2026-04-12T05:51:03.445Z</time></trkpt><trkpt lat="45.0106867" lon="8.0646167"><ele>194.0</ele><time>2026-04-12T05:51:05.445Z</time></trkpt><trkpt lat="45.0107967" lon="8.06466"><ele>194.2</ele><time>2026-04-12T05:51:07.445Z</time></trkpt><trkpt lat="45.0109117" lon="8.0647067"><ele>194.39999999999998</ele><time>2026-04-12T05:51:09.445Z</time></trkpt><trkpt lat="45.01103" lon="8.0647467"><ele>194.6</ele><time>2026-04-12T05:51:11.445Z</time></trkpt><trkpt lat="45.0111483" lon="8.06479"><ele>194.8</ele><time>2026-04-12T05:51:13.445Z</time></trkpt><trkpt lat="45.01121" lon="8.0648083"><ele>195.0</ele><time>2026-04-12T05:51:14.446Z</time></trkpt><trkpt lat="45.0112733" lon="8.0648317"><ele>195.0</ele><time>2026-04-12T05:51:15.445Z</time></trkpt><trkpt lat="45.0113383" lon="8.0648583"><ele>195.0</ele><time>2026-04-12T05:51:16.446Z</time></trkpt><trkpt lat="45.011455" lon="8.06489"><ele>195.0</ele><time>2026-04-12T05:51:18.445Z</time></trkpt><trkpt lat="45.0115733" lon="8.0649317"><ele>195.0</ele><time>2026-04-12T05:51:20.445Z</time></trkpt><trkpt lat="45.01169" lon="8.06497"><ele>195.0</ele><time>2026-04-12T05:51:22.445Z</time></trkpt><trkpt lat="45.0117917" lon="8.0650067"><ele>195.0</ele><time>2026-04-12T05:51:24.445Z</time></trkpt><trkpt lat="45.01188" lon="8.0650367"><ele>195.0</ele><time>2026-04-12T05:51:26.445Z</time></trkpt><trkpt lat="45.011965" lon="8.0650733"><ele>195.0</ele><time>2026-04-12T05:51:28.445Z</time></trkpt><trkpt lat="45.0120367" lon="8.0651017"><ele>195.0</ele><time>2026-04-12T05:51:30.445Z</time></trkpt><trkpt lat="45.012125" lon="8.0651317"><ele>195.0</ele><time>2026-04-12T05:51:32.445Z</time></trkpt><trkpt lat="45.0122233" lon="8.065185"><ele>195.0</ele><time>2026-04-12T05:51:34.445Z</time></trkpt><trkpt lat="45.0123317" lon="8.06525"><ele>195.0</ele><time>2026-04-12T05:51:36.445Z</time></trkpt><trkpt lat="45.0124367" lon="8.065325"><ele>195.0</ele><time>2026-04-12T05:51:38.445Z</time></trkpt><trkpt lat="45.0125383" lon="8.0654"><ele>195.0</ele><time>2026-04-12T05:51:40.445Z</time></trkpt><trkpt lat="45.01263" lon="8.065465"><ele>195.4</ele><time>2026-04-12T05:51:42.445Z</time></trkpt><trkpt lat="45.0127233" lon="8.0655383"><ele>195.8</ele><time>2026-04-12T05:51:44.445Z</time></trkpt><trkpt lat="45.0128117" lon="8.06561"><ele>196.2</ele><time>2026-04-12T05:51:46.445Z</time></trkpt><trkpt lat="45.0129083" lon="8.0656767"><ele>196.6</ele><time>2026-04-12T05:51:48.445Z</time></trkpt><trkpt lat="45.0130083" lon="8.0657483"><ele>197.0</ele><time>2026-04-12T05:51:50.445Z</time></trkpt><trkpt lat="45.0131133" lon="8.0658167"><ele>197.75</ele><time>2026-04-12T05:51:52.445Z</time></trkpt><trkpt lat="45.0132183" lon="8.065885"><ele>198.5</ele><time>2026-04-12T05:51:54.445Z</time></trkpt><trkpt lat="45.013325" lon="8.06596"><ele>199.25</ele><time>2026-04-12T05:51:56.445Z</time></trkpt><trkpt lat="45.01344" lon="8.0660217"><ele>200.0</ele><time>2026-04-12T05:51:58.445Z</time></trkpt><trkpt lat="45.0135517" lon="8.0660833"><ele>200.0</ele><time>2026-04-12T05:52:00.445Z</time></trkpt><trkpt lat="45.0136633" lon="8.0661567"><ele>200.0</ele><time>2026-04-12T05:52:02.445Z</time></trkpt><trkpt lat="45.0137783" lon="8.0662333"><ele>200.0</ele><time>2026-04-12T05:52:04.445Z</time></trkpt><trkpt lat="45.01389" lon="8.066295"><ele>200.0</ele><time>2026-04-12T05:52:06.445Z</time></trkpt><trkpt lat="45.01395" lon="8.0663283"><ele>200.0</ele><time>2026-04-12T05:52:07.445Z</time></trkpt><trkpt lat="45.0140633" lon="8.066395"><ele>200.0</ele><time>2026-04-12T05:52:09.445Z</time></trkpt><trkpt lat="45.0141233" lon="8.0664283"><ele>200.0</ele><time>2026-04-12T05:52:10.445Z</time></trkpt><trkpt lat="45.01424" lon="8.0664883"><ele>200.0</ele><time>2026-04-12T05:52:12.445Z</time></trkpt><trkpt lat="45.0143567" lon="8.0665383"><ele>200.0</ele><time>2026-04-12T05:52:14.445Z</time></trkpt><trkpt lat="45.0144783" lon="8.066585"><ele>200.0</ele><time>2026-04-12T05:52:16.445Z</time></trkpt><trkpt lat="45.0145983" lon="8.0666317"><ele>199.66666666666669</ele><time>2026-04-12T05:52:18.445Z</time></trkpt><trkpt lat="45.0147167" lon="8.0666733"><ele>199.33333333333334</ele><time>2026-04-12T05:52:20.445Z</time></trkpt><trkpt lat="45.0147783" lon="8.0666917"><ele>199.0</ele><time>2026-04-12T05:52:21.445Z</time></trkpt><trkpt lat="45.01484" lon="8.0667117"><ele>198.66666666666669</ele><time>2026-04-12T05:52:22.445Z</time></trkpt><trkpt lat="45.01496" lon="8.06675"><ele>198.33333333333334</ele><time>2026-04-12T05:52:24.445Z</time></trkpt><trkpt lat="45.0150217" lon="8.0667717"><ele>198.0</ele><time>2026-04-12T05:52:25.445Z</time></trkpt><trkpt lat="45.0150833" lon="8.0667933"><ele>197.8</ele><time>2026-04-12T05:52:26.445Z</time></trkpt><trkpt lat="45.015145" lon="8.0668117"><ele>197.60000000000002</ele><time>2026-04-12T05:52:27.445Z</time></trkpt><trkpt lat="45.0152633" lon="8.0668583"><ele>197.39999999999998</ele><time>2026-04-12T05:52:29.445Z</time></trkpt><trkpt lat="45.015385" lon="8.0669"><ele>197.2</ele><time>2026-04-12T05:52:31.445Z</time></trkpt><trkpt lat="45.015505" lon="8.0669417"><ele>197.0</ele><time>2026-04-12T05:52:33.445Z</time></trkpt><trkpt lat="45.0155867" lon="8.06698"><ele>197.0</ele><time>2026-04-12T05:52:35.445Z</time></trkpt><trkpt lat="45.0156167" lon="8.06708"><ele>197.0</ele><time>2026-04-12T05:52:38.445Z</time></trkpt><trkpt lat="45.0156033" lon="8.0671983"><ele>197.0</ele><time>2026-04-12T05:52:40.445Z</time></trkpt><trkpt lat="45.0155883" lon="8.06734"><ele>197.0</ele><time>2026-04-12T05:52:42.445Z</time></trkpt><trkpt lat="45.0155783" lon="8.0674917"><ele>197.0</ele><time>2026-04-12T05:52:44.445Z</time></trkpt><trkpt lat="45.01558" lon="8.06765"><ele>197.25</ele><time>2026-04-12T05:52:46.446Z</time></trkpt><trkpt lat="45.0155767" lon="8.0678067"><ele>197.5</ele><time>2026-04-12T05:52:48.445Z</time></trkpt><trkpt lat="45.0155717" lon="8.0679733"><ele>197.75</ele><time>2026-04-12T05:52:50.445Z</time></trkpt><trkpt lat="45.0155667" lon="8.0681267"><ele>198.0</ele><time>2026-04-12T05:52:52.445Z</time></trkpt><trkpt lat="45.01556" lon="8.0682867"><ele>198.25</ele><time>2026-04-12T05:52:54.445Z</time></trkpt><trkpt lat="45.0155483" lon="8.0684533"><ele>198.5</ele><time>2026-04-12T05:52:56.445Z</time></trkpt><trkpt lat="45.0155467" lon="8.0686233"><ele>198.75</ele><time>2026-04-12T05:52:58.445Z</time></trkpt><trkpt lat="45.0155433" lon="8.0687967"><ele>199.0</ele><time>2026-04-12T05:53:00.445Z</time></trkpt><trkpt lat="45.0155417" lon="8.068965"><ele>199.0</ele><time>2026-04-12T05:53:02.445Z</time></trkpt><trkpt lat="45.01554" lon="8.06913"><ele>199.0</ele><time>2026-04-12T05:53:04.445Z</time></trkpt><trkpt lat="45.015545" lon="8.0692883"><ele>199.0</ele><time>2026-04-12T05:53:06.445Z</time></trkpt><trkpt lat="45.01555" lon="8.0694517"><ele>199.0</ele><time>2026-04-12T05:53:08.445Z</time></trkpt><trkpt lat="45.0155567" lon="8.0695417"><ele>199.0</ele><time>2026-04-12T05:53:09.445Z</time></trkpt><trkpt lat="45.0155617" lon="8.069635"><ele>199.0</ele><time>2026-04-12T05:53:10.445Z</time></trkpt><trkpt lat="45.015575" lon="8.0698083"><ele>199.0</ele><time>2026-04-12T05:53:12.445Z</time></trkpt><trkpt lat="45.0155867" lon="8.069975"><ele>199.0</ele><time>2026-04-12T05:53:14.446Z</time></trkpt><trkpt lat="45.0156" lon="8.0701383"><ele>199.0</ele><time>2026-04-12T05:53:16.445Z</time></trkpt><trkpt lat="45.015625" lon="8.070305"><ele>199.0</ele><time>2026-04-12T05:53:18.445Z</time></trkpt><trkpt lat="45.015655" lon="8.0704717"><ele>199.0</ele><time>2026-04-12T05:53:20.445Z</time></trkpt><trkpt lat="45.015695" lon="8.070635"><ele>199.0</ele><time>2026-04-12T05:53:22.445Z</time></trkpt><trkpt lat="45.0157317" lon="8.0707967"><ele>199.0</ele><time>2026-04-12T05:53:24.445Z</time></trkpt><trkpt lat="45.0157717" lon="8.0709633"><ele>199.5</ele><time>2026-04-12T05:53:26.445Z</time></trkpt><trkpt lat="45.015795" lon="8.0711283"><ele>200.0</ele><time>2026-04-12T05:53:28.445Z</time></trkpt><trkpt lat="45.0157933" lon="8.0712967"><ele>200.5</ele><time>2026-04-12T05:53:30.445Z</time></trkpt><trkpt lat="45.015785" lon="8.0714617"><ele>201.0</ele><time>2026-04-12T05:53:32.445Z</time></trkpt><trkpt lat="45.0157667" lon="8.0716133"><ele>201.0</ele><time>2026-04-12T05:53:34.445Z</time></trkpt><trkpt lat="45.0157333" lon="8.0717617"><ele>201.0</ele><time>2026-04-12T05:53:36.445Z</time></trkpt><trkpt lat="45.0156933" lon="8.07191"><ele>201.0</ele><time>2026-04-12T05:53:38.445Z</time></trkpt><trkpt lat="45.0156633" lon="8.0720583"><ele>201.0</ele><time>2026-04-12T05:53:40.445Z</time></trkpt><trkpt lat="45.0156283" lon="8.0722083"><ele>201.0</ele><time>2026-04-12T05:53:42.445Z</time></trkpt><trkpt lat="45.0155967" lon="8.0723417"><ele>201.20000000000002</ele><time>2026-04-12T05:53:44.445Z</time></trkpt><trkpt lat="45.0155633" lon="8.0724783"><ele>201.4</ele><time>2026-04-12T05:53:46.445Z</time></trkpt><trkpt lat="45.0155133" lon="8.07261"><ele>201.6</ele><time>2026-04-12T05:53:48.445Z</time></trkpt><trkpt lat="45.01546" lon="8.0727283"><ele>201.8</ele><time>2026-04-12T05:53:50.445Z</time></trkpt><trkpt lat="45.0153967" lon="8.0728483"><ele>202.0</ele><time>2026-04-12T05:53:52.445Z</time></trkpt><trkpt lat="45.0153283" lon="8.0729733"><ele>202.0</ele><time>2026-04-12T05:53:54.445Z</time></trkpt><trkpt lat="45.0152633" lon="8.0731"><ele>202.0</ele><time>2026-04-12T05:53:56.445Z</time></trkpt><trkpt lat="45.0152033" lon="8.0732317"><ele>202.0</ele><time>2026-04-12T05:53:58.445Z</time></trkpt><trkpt lat="45.0151333" lon="8.0733567"><ele>202.0</ele><time>2026-04-12T05:54:00.445Z</time></trkpt><trkpt lat="45.0150767" lon="8.07347"><ele>202.0</ele><time>2026-04-12T05:54:02.445Z</time></trkpt><trkpt lat="45.0150267" lon="8.0735933"><ele>202.39999999999998</ele><time>2026-04-12T05:54:04.445Z</time></trkpt><trkpt lat="45.014975" lon="8.0737183"><ele>202.79999999999998</ele><time>2026-04-12T05:54:06.445Z</time></trkpt><trkpt lat="45.01492" lon="8.07386"><ele>203.2</ele><time>2026-04-12T05:54:08.445Z</time></trkpt><trkpt lat="45.0148767" lon="8.0739867"><ele>203.6</ele><time>2026-04-12T05:54:10.445Z</time></trkpt><trkpt lat="45.0148217" lon="8.0741233"><ele>204.0</ele><time>2026-04-12T05:54:12.445Z</time></trkpt><trkpt lat="45.0147667" lon="8.0742583"><ele>204.2</ele><time>2026-04-12T05:54:14.445Z</time></trkpt><trkpt lat="45.014715" lon="8.074395"><ele>204.39999999999998</ele><time>2026-04-12T05:54:16.445Z</time></trkpt><trkpt lat="45.0146633" lon="8.07452"><ele>204.6</ele><time>2026-04-12T05:54:18.445Z</time></trkpt><trkpt lat="45.0146117" lon="8.07465"><ele>204.8</ele><time>2026-04-12T05:54:20.445Z</time></trkpt><trkpt lat="45.01456" lon="8.074785"><ele>205.0</ele><time>2026-04-12T05:54:22.445Z</time></trkpt><trkpt lat="45.0145167" lon="8.0749083"><ele>205.2</ele><time>2026-04-12T05:54:24.445Z</time></trkpt><trkpt lat="45.0144717" lon="8.07504"><ele>205.4</ele><time>2026-04-12T05:54:26.445Z</time></trkpt><trkpt lat="45.014425" lon="8.0751683"><ele>205.60000000000002</ele><time>2026-04-12T05:54:28.445Z</time></trkpt><trkpt lat="45.014375" lon="8.0753017"><ele>205.8</ele><time>2026-04-12T05:54:30.445Z</time></trkpt><trkpt lat="45.01433" lon="8.0754333"><ele>206.0</ele><time>2026-04-12T05:54:32.446Z</time></trkpt><trkpt lat="45.014285" lon="8.0755783"><ele>206.0</ele><time>2026-04-12T05:54:34.445Z</time></trkpt><trkpt lat="45.0142367" lon="8.0757183"><ele>206.0</ele><time>2026-04-12T05:54:36.445Z</time></trkpt><trkpt lat="45.0141917" lon="8.0758517"><ele>206.0</ele><time>2026-04-12T05:54:38.445Z</time></trkpt><trkpt lat="45.0141533" lon="8.0759933"><ele>206.0</ele><time>2026-04-12T05:54:40.445Z</time></trkpt><trkpt lat="45.014115" lon="8.0761283"><ele>206.0</ele><time>2026-04-12T05:54:42.445Z</time></trkpt><trkpt lat="45.0140783" lon="8.0762633"><ele>206.0</ele><time>2026-04-12T05:54:44.445Z</time></trkpt><trkpt lat="45.0140567" lon="8.0763983"><ele>206.0</ele><time>2026-04-12T05:54:46.445Z</time></trkpt><trkpt lat="45.0140417" lon="8.0765367"><ele>206.0</ele><time>2026-04-12T05:54:48.445Z</time></trkpt><trkpt lat="45.0140317" lon="8.0766867"><ele>206.0</ele><time>2026-04-12T05:54:50.445Z</time></trkpt><trkpt lat="45.0140333" lon="8.0768333"><ele>206.0</ele><time>2026-04-12T05:54:52.445Z</time></trkpt><trkpt lat="45.0140333" lon="8.0769767"><ele>206.33333333333334</ele><time>2026-04-12T05:54:54.445Z</time></trkpt><trkpt lat="45.014045" lon="8.0771067"><ele>206.66666666666669</ele><time>2026-04-12T05:54:56.445Z</time></trkpt><trkpt lat="45.0140517" lon="8.0772167"><ele>207.0</ele><time>2026-04-12T05:54:58.445Z</time></trkpt><trkpt lat="45.0140483" lon="8.0773317"><ele>207.33333333333331</ele><time>2026-04-12T05:55:00.445Z</time></trkpt><trkpt lat="45.0140283" lon="8.07744"><ele>207.66666666666666</ele><time>2026-04-12T05:55:02.445Z</time></trkpt><trkpt lat="45.013985" lon="8.0775283"><ele>208.0</ele><time>2026-04-12T05:55:04.445Z</time></trkpt><trkpt lat="45.0139317" lon="8.0776"><ele>207.99999999999997</ele><time>2026-04-12T05:55:06.445Z</time></trkpt><trkpt lat="45.013875" lon="8.0776667"><ele>208.0</ele><time>2026-04-12T05:55:08.445Z</time></trkpt><trkpt lat="45.0138083" lon="8.0777483"><ele>208.0</ele><time>2026-04-12T05:55:10.445Z</time></trkpt><trkpt lat="45.01374" lon="8.0778283"><ele>208.0</ele><time>2026-04-12T05:55:12.445Z</time></trkpt><trkpt lat="45.01367" lon="8.0778983"><ele>207.99999999999997</ele><time>2026-04-12T05:55:14.445Z</time></trkpt><trkpt lat="45.0135933" lon="8.0779817"><ele>208.0</ele><time>2026-04-12T05:55:16.445Z</time></trkpt><trkpt lat="45.01352" lon="8.07807"><ele>208.0</ele><time>2026-04-12T05:55:18.445Z</time></trkpt><trkpt lat="45.0134567" lon="8.0781617"><ele>208.0</ele><time>2026-04-12T05:55:20.445Z</time></trkpt><trkpt lat="45.013385" lon="8.07826"><ele>208.0</ele><time>2026-04-12T05:55:22.445Z</time></trkpt><trkpt lat="45.0133117" lon="8.07836"><ele>208.0</ele><time>2026-04-12T05:55:24.445Z</time></trkpt><trkpt lat="45.0132383" lon="8.0784633"><ele>208.0</ele><time>2026-04-12T05:55:26.445Z</time></trkpt><trkpt lat="45.013165" lon="8.0785567"><ele>208.8</ele><time>2026-04-12T05:55:28.445Z</time></trkpt><trkpt lat="45.0131033" lon="8.0786383"><ele>209.60000000000002</ele><time>2026-04-12T05:55:30.445Z</time></trkpt><trkpt lat="45.0130417" lon="8.07872"><ele>210.39999999999998</ele><time>2026-04-12T05:55:32.445Z</time></trkpt><trkpt lat="45.01297" lon="8.0788083"><ele>211.2</ele><time>2026-04-12T05:55:34.445Z</time></trkpt><trkpt lat="45.012895" lon="8.0789033"><ele>212.0</ele><time>2026-04-12T05:55:36.445Z</time></trkpt><trkpt lat="45.01282" lon="8.0789867"><ele>212.00000000000003</ele><time>2026-04-12T05:55:38.445Z</time></trkpt><trkpt lat="45.01275" lon="8.079065"><ele>212.0</ele><time>2026-04-12T05:55:40.445Z</time></trkpt><trkpt lat="45.01268" lon="8.0791333"><ele>212.0</ele><time>2026-04-12T05:55:42.446Z</time></trkpt><trkpt lat="45.0126033" lon="8.0791983"><ele>212.0</ele><time>2026-04-12T05:55:44.445Z</time></trkpt><trkpt lat="45.0125317" lon="8.079255"><ele>212.00000000000003</ele><time>2026-04-12T05:55:46.446Z</time></trkpt><trkpt lat="45.01246" lon="8.0793083"><ele>212.0</ele><time>2026-04-12T05:55:48.445Z</time></trkpt><trkpt lat="45.01238" lon="8.079365"><ele>212.66666666666669</ele><time>2026-04-12T05:55:50.445Z</time></trkpt><trkpt lat="45.0122983" lon="8.079425"><ele>213.33333333333334</ele><time>2026-04-12T05:55:52.445Z</time></trkpt><trkpt lat="45.0122167" lon="8.079485"><ele>214.0</ele><time>2026-04-12T05:55:54.445Z</time></trkpt><trkpt lat="45.0121417" lon="8.0795483"><ele>214.66666666666669</ele><time>2026-04-12T05:55:56.445Z</time></trkpt><trkpt lat="45.01207" lon="8.07963"><ele>215.33333333333334</ele><time>2026-04-12T05:55:58.445Z</time></trkpt><trkpt lat="45.0120033" lon="8.0797017"><ele>216.0</ele><time>2026-04-12T05:56:00.445Z</time></trkpt><trkpt lat="45.0119417" lon="8.0797617"><ele>216.0</ele><time>2026-04-12T05:56:02.445Z</time></trkpt><trkpt lat="45.0118733" lon="8.0798317"><ele>216.0</ele><time>2026-04-12T05:56:04.445Z</time></trkpt><trkpt lat="45.0118133" lon="8.0798883"><ele>216.0</ele><time>2026-04-12T05:56:06.445Z</time></trkpt><trkpt lat="45.0117467" lon="8.0799417"><ele>216.0</ele><time>2026-04-12T05:56:08.445Z</time></trkpt><trkpt lat="45.0116867" lon="8.0799933"><ele>216.0</ele><time>2026-04-12T05:56:10.446Z</time></trkpt><trkpt lat="45.0116283" lon="8.0800367"><ele>216.0</ele><time>2026-04-12T05:56:12.445Z</time></trkpt><trkpt lat="45.011545" lon="8.0801033"><ele>216.71428571428572</ele><time>2026-04-12T05:56:15.445Z</time></trkpt><trkpt lat="45.01149" lon="8.080155"><ele>217.42857142857142</ele><time>2026-04-12T05:56:17.446Z</time></trkpt><trkpt lat="45.0114417" lon="8.08022"><ele>218.14285714285717</ele><time>2026-04-12T05:56:19.445Z</time></trkpt><trkpt lat="45.0113833" lon="8.080285"><ele>218.85714285714286</ele><time>2026-04-12T05:56:21.445Z</time></trkpt><trkpt lat="45.0113183" lon="8.0803467"><ele>219.57142857142858</ele><time>2026-04-12T05:56:23.445Z</time></trkpt><trkpt lat="45.0112583" lon="8.0804"><ele>220.2857142857143</ele><time>2026-04-12T05:56:25.446Z</time></trkpt><trkpt lat="45.0112017" lon="8.080455"><ele>221.0</ele><time>2026-04-12T05:56:27.445Z</time></trkpt><trkpt lat="45.011145" lon="8.0805067"><ele>221.00000000000003</ele><time>2026-04-12T05:56:29.445Z</time></trkpt><trkpt lat="45.01109" lon="8.0805633"><ele>221.0</ele><time>2026-04-12T05:56:31.445Z</time></trkpt><trkpt lat="45.01104" lon="8.0806233"><ele>221.0</ele><time>2026-04-12T05:56:33.445Z</time></trkpt><trkpt lat="45.0109917" lon="8.0807017"><ele>221.0</ele><time>2026-04-12T05:56:35.445Z</time></trkpt><trkpt lat="45.0109533" lon="8.0807933"><ele>221.0</ele><time>2026-04-12T05:56:37.445Z</time></trkpt><trkpt lat="45.010915" lon="8.080915"><ele>221.00000000000003</ele><time>2026-04-12T05:56:40.445Z</time></trkpt><trkpt lat="45.0108817" lon="8.081005"><ele>221.0</ele><time>2026-04-12T05:56:42.446Z</time></trkpt><trkpt lat="45.01085" lon="8.0810933"><ele>222.00000000000003</ele><time>2026-04-12T05:56:44.445Z</time></trkpt><trkpt lat="45.0108183" lon="8.0811733"><ele>223.0</ele><time>2026-04-12T05:56:46.445Z</time></trkpt><trkpt lat="45.0107717" lon="8.0812817"><ele>224.0</ele><time>2026-04-12T05:56:49.445Z</time></trkpt><trkpt lat="45.01073" lon="8.08139"><ele>225.0</ele><time>2026-04-12T05:56:52.445Z</time></trkpt><trkpt lat="45.0106867" lon="8.08151"><ele>226.00000000000003</ele><time>2026-04-12T05:56:55.445Z</time></trkpt><trkpt lat="45.0106433" lon="8.0816183"><ele>227.0</ele><time>2026-04-12T05:56:58.445Z</time></trkpt><trkpt lat="45.0105967" lon="8.0817217"><ele>228.50000000000003</ele><time>2026-04-12T05:57:01.445Z</time></trkpt><trkpt lat="45.0105417" lon="8.0818183"><ele>230.0</ele><time>2026-04-12T05:57:04.445Z</time></trkpt><trkpt lat="45.0104917" lon="8.08192"><ele>231.5</ele><time>2026-04-12T05:57:07.445Z</time></trkpt><trkpt lat="45.0104317" lon="8.0820033"><ele>233.0</ele><time>2026-04-12T05:57:10.445Z</time></trkpt><trkpt lat="45.0103683" lon="8.08209"><ele>234.50000000000003</ele><time>2026-04-12T05:57:13.445Z</time></trkpt><trkpt lat="45.0103067" lon="8.08216"><ele>236.0</ele><time>2026-04-12T05:57:16.445Z</time></trkpt><trkpt lat="45.0102433" lon="8.0822333"><ele>236.00000000000003</ele><time>2026-04-12T05:57:19.445Z</time></trkpt><trkpt lat="45.0101733" lon="8.0823067"><ele>236.0</ele><time>2026-04-12T05:57:22.445Z</time></trkpt><trkpt lat="45.0101133" lon="8.08239"><ele>236.0</ele><time>2026-04-12T05:57:25.445Z</time></trkpt><trkpt lat="45.0100533" lon="8.082495"><ele>236.0</ele><time>2026-04-12T05:57:28.445Z</time></trkpt><trkpt lat="45.010015" lon="8.0825683"><ele>236.00000000000003</ele><time>2026-04-12T05:57:30.445Z</time></trkpt><trkpt lat="45.0099767" lon="8.0826417"><ele>236.0</ele><time>2026-04-12T05:57:32.445Z</time></trkpt><trkpt lat="45.0099133" lon="8.0827283"><ele>236.16666666666669</ele><time>2026-04-12T05:57:35.445Z</time></trkpt><trkpt lat="45.0098733" lon="8.0828"><ele>236.33333333333334</ele><time>2026-04-12T05:57:37.445Z</time></trkpt><trkpt lat="45.0098183" lon="8.0828967"><ele>236.5</ele><time>2026-04-12T05:57:40.445Z</time></trkpt><trkpt lat="45.0097567" lon="8.0829983"><ele>236.66666666666669</ele><time>2026-04-12T05:57:43.445Z</time></trkpt><trkpt lat="45.009715" lon="8.0830683"><ele>236.83333333333334</ele><time>2026-04-12T05:57:45.445Z</time></trkpt><trkpt lat="45.009665" lon="8.0831717"><ele>237.0</ele><time>2026-04-12T05:57:48.445Z</time></trkpt><trkpt lat="45.00963" lon="8.0832467"><ele>238.0</ele><time>2026-04-12T05:57:50.445Z</time></trkpt><trkpt lat="45.009605" lon="8.0833333"><ele>239.0</ele><time>2026-04-12T05:57:52.445Z</time></trkpt><trkpt lat="45.0095933" lon="8.083465"><ele>240.0</ele><time>2026-04-12T05:57:55.445Z</time></trkpt><trkpt lat="45.0095983" lon="8.0835567"><ele>241.0</ele><time>2026-04-12T05:57:57.445Z</time></trkpt><trkpt lat="45.0096083" lon="8.083675"><ele>242.0</ele><time>2026-04-12T05:58:00.445Z</time></trkpt><trkpt lat="45.009605" lon="8.083795"><ele>243.0</ele><time>2026-04-12T05:58:03.445Z</time></trkpt><trkpt lat="45.0095867" lon="8.0839183"><ele>243.0</ele><time>2026-04-12T05:58:06.445Z</time></trkpt><trkpt lat="45.0095633" lon="8.0840433"><ele>243.0</ele><time>2026-04-12T05:58:09.445Z</time></trkpt><trkpt lat="45.0095333" lon="8.084155"><ele>243.0</ele><time>2026-04-12T05:58:12.445Z</time></trkpt><trkpt lat="45.0095033" lon="8.084255"><ele>243.0</ele><time>2026-04-12T05:58:15.445Z</time></trkpt><trkpt lat="45.0094783" lon="8.08436"><ele>243.0</ele><time>2026-04-12T05:58:18.445Z</time></trkpt><trkpt lat="45.009465" lon="8.084455"><ele>243.0</ele><time>2026-04-12T05:58:21.445Z</time></trkpt><trkpt lat="45.009455" lon="8.0845567"><ele>244.66666666666666</ele><time>2026-04-12T05:58:24.445Z</time></trkpt><trkpt lat="45.009435" lon="8.0846567"><ele>246.33333333333331</ele><time>2026-04-12T05:58:27.445Z</time></trkpt><trkpt lat="45.0094033" lon="8.084745"><ele>248.0</ele><time>2026-04-12T05:58:30.445Z</time></trkpt><trkpt lat="45.0093517" lon="8.0848233"><ele>249.66666666666666</ele><time>2026-04-12T05:58:33.445Z</time></trkpt><trkpt lat="45.0093083" lon="8.0849117"><ele>251.33333333333331</ele><time>2026-04-12T05:58:36.445Z</time></trkpt><trkpt lat="45.0092867" lon="8.085025"><ele>253.0</ele><time>2026-04-12T05:58:39.445Z</time></trkpt><trkpt lat="45.00931" lon="8.0851367"><ele>256.6</ele><time>2026-04-12T05:58:42.445Z</time></trkpt><trkpt lat="45.0093583" lon="8.0852283"><ele>260.20000000000005</ele><time>2026-04-12T05:58:45.445Z</time></trkpt><trkpt lat="45.0093983" lon="8.08531"><ele>263.8</ele><time>2026-04-12T05:58:49.445Z</time></trkpt><trkpt lat="45.009425" lon="8.0854067"><ele>267.40000000000003</ele><time>2026-04-12T05:58:54.445Z</time></trkpt><trkpt lat="45.0095217" lon="8.0855483"><ele>271.0</ele><time>2026-04-12T05:59:56.445Z</time></trkpt><trkpt lat="45.00954" lon="8.0856783"><ele>273.2</ele><time>2026-04-12T06:00:00.445Z</time></trkpt><trkpt lat="45.0095733" lon="8.0858033"><ele>275.40000000000003</ele><time>2026-04-12T06:00:02.445Z</time></trkpt><trkpt lat="45.0096167" lon="8.08594"><ele>277.6</ele><time>2026-04-12T06:00:04.445Z</time></trkpt><trkpt lat="45.009685" lon="8.0860583"><ele>279.8</ele><time>2026-04-12T06:00:06.445Z</time></trkpt><trkpt lat="45.0097867" lon="8.08615"><ele>282.0</ele><time>2026-04-12T06:00:08.445Z</time></trkpt><trkpt lat="45.00985" lon="8.0861733"><ele>282.0</ele><time>2026-04-12T06:00:09.445Z</time></trkpt><trkpt lat="45.009915" lon="8.0861883"><ele>282.0</ele><time>2026-04-12T06:00:10.445Z</time></trkpt><trkpt lat="45.0099867" lon="8.08619"><ele>282.0</ele><time>2026-04-12T06:00:11.445Z</time></trkpt><trkpt lat="45.0100567" lon="8.0861817"><ele>282.0</ele><time>2026-04-12T06:00:12.445Z</time></trkpt><trkpt lat="45.0101233" lon="8.086175"><ele>282.0</ele><time>2026-04-12T06:00:13.445Z</time></trkpt><trkpt lat="45.0101883" lon="8.0861683"><ele>282.0</ele><time>2026-04-12T06:00:14.446Z</time></trkpt><trkpt lat="45.0102533" lon="8.0861617"><ele>282.0</ele><time>2026-04-12T06:00:15.445Z</time></trkpt><trkpt lat="45.0103167" lon="8.0861567"><ele>280.5</ele><time>2026-04-12T06:00:16.445Z</time></trkpt><trkpt lat="45.01038" lon="8.0861483"><ele>279.0</ele><time>2026-04-12T06:00:17.445Z</time></trkpt><trkpt lat="45.0104433" lon="8.086135"><ele>277.5</ele><time>2026-04-12T06:00:18.445Z</time></trkpt><trkpt lat="45.0105433" lon="8.08613"><ele>276.0</ele><time>2026-04-12T06:00:20.445Z</time></trkpt><trkpt lat="45.01047" lon="8.0860983"><ele>274.5</ele><time>2026-04-12T06:00:32.445Z</time></trkpt><trkpt lat="45.0103583" lon="8.0861267"><ele>273.0</ele><time>2026-04-12T06:00:34.445Z</time></trkpt><trkpt lat="45.0102383" lon="8.08614"><ele>273.0</ele><time>2026-04-12T06:00:36.446Z</time></trkpt><trkpt lat="45.0101733" lon="8.08614"><ele>273.0</ele><time>2026-04-12T06:00:37.445Z</time></trkpt><trkpt lat="45.0101017" lon="8.0861417"><ele>273.0</ele><time>2026-04-12T06:00:38.445Z</time></trkpt><trkpt lat="45.0100317" lon="8.0861417"><ele>273.0</ele><time>2026-04-12T06:00:39.445Z</time></trkpt><trkpt lat="45.0099617" lon="8.0861367"><ele>273.0</ele><time>2026-04-12T06:00:40.445Z</time></trkpt><trkpt lat="45.0098483" lon="8.0861067"><ele>273.0</ele><time>2026-04-12T06:00:42.445Z</time></trkpt><trkpt lat="45.0097533" lon="8.0860767"><ele>273.0</ele><time>2026-04-12T06:00:44.445Z</time></trkpt><trkpt lat="45.009755" lon="8.0861683"><ele>273.0</ele><time>2026-04-12T06:00:47.445Z</time></trkpt><trkpt lat="45.0098383" lon="8.0862483"><ele>273.0</ele><time>2026-04-12T06:00:49.445Z</time></trkpt><trkpt lat="45.0099033" lon="8.0862767"><ele>273.0</ele><time>2026-04-12T06:00:50.445Z</time></trkpt><trkpt lat="45.0099767" lon="8.0862933"><ele>273.0</ele><time>2026-04-12T06:00:51.445Z</time></trkpt><trkpt lat="45.0100567" lon="8.0862983"><ele>273.0</ele><time>2026-04-12T06:00:52.445Z</time></trkpt><trkpt lat="45.0101383" lon="8.0862917"><ele>273.0</ele><time>2026-04-12T06:00:53.445Z</time></trkpt><trkpt lat="45.0102167" lon="8.0862833"><ele>273.0</ele><time>2026-04-12T06:00:54.445Z</time></trkpt><trkpt lat="45.0102967" lon="8.086285"><ele>273.0</ele><time>2026-04-12T06:00:55.445Z</time></trkpt><trkpt lat="45.010375" lon="8.086305"><ele>273.0</ele><time>2026-04-12T06:00:56.445Z</time></trkpt><trkpt lat="45.0104567" lon="8.0863283"><ele>273.0</ele><time>2026-04-12T06:00:57.445Z</time></trkpt><trkpt lat="45.01052" lon="8.0863617"><ele>273.0</ele><time>2026-04-12T06:00:58.445Z</time></trkpt><trkpt lat="45.010605" lon="8.0864267"><ele>273.0</ele><time>2026-04-12T06:01:00.445Z</time></trkpt><trkpt lat="45.0106783" lon="8.0864633"><ele>273.0</ele><time>2026-04-12T06:01:03.445Z</time></trkpt><trkpt lat="45.0107417" lon="8.0864683"><ele>273.0</ele><time>2026-04-12T06:01:05.445Z</time></trkpt><trkpt lat="45.0108233" lon="8.086495"><ele>273.0</ele><time>2026-04-12T06:01:07.445Z</time></trkpt><trkpt lat="45.01089" lon="8.0865517"><ele>273.0</ele><time>2026-04-12T06:01:09.445Z</time></trkpt><trkpt lat="45.0109367" lon="8.0866317"><ele>273.0</ele><time>2026-04-12T06:01:11.445Z</time></trkpt><trkpt lat="45.010965" lon="8.0867733"><ele>269.8333333333333</ele><time>2026-04-12T06:01:13.445Z</time></trkpt><trkpt lat="45.010995" lon="8.0868883"><ele>266.6666666666667</ele><time>2026-04-12T06:01:15.445Z</time></trkpt><trkpt lat="45.011" lon="8.0869817"><ele>263.5</ele><time>2026-04-12T06:01:18.446Z</time></trkpt><trkpt lat="45.0109283" lon="8.0869933"><ele>260.33333333333337</ele><time>2026-04-12T06:01:21.446Z</time></trkpt><trkpt lat="45.01086" lon="8.0869917"><ele>257.1666666666667</ele><time>2026-04-12T06:01:23.446Z</time></trkpt><trkpt lat="45.0107633" lon="8.086975"><ele>254.0</ele><time>2026-04-12T06:01:25.446Z</time></trkpt><trkpt lat="45.010655" lon="8.08695"><ele>254.00000000000003</ele><time>2026-04-12T06:01:27.446Z</time></trkpt><trkpt lat="45.0105933" lon="8.0869267"><ele>254.0</ele><time>2026-04-12T06:01:28.446Z</time></trkpt><trkpt lat="45.0104733" lon="8.0868633"><ele>254.0</ele><time>2026-04-12T06:01:30.446Z</time></trkpt><trkpt lat="45.0104117" lon="8.08682"><ele>254.0</ele><time>2026-04-12T06:01:31.446Z</time></trkpt><trkpt lat="45.0103467" lon="8.0867783"><ele>254.00000000000003</ele><time>2026-04-12T06:01:32.446Z</time></trkpt><trkpt lat="45.0102817" lon="8.0867367"><ele>254.0</ele><time>2026-04-12T06:01:33.447Z</time></trkpt><trkpt lat="45.0102133" lon="8.0867083"><ele>254.0</ele><time>2026-04-12T06:01:34.446Z</time></trkpt><trkpt lat="45.01015" lon="8.08669"><ele>254.0</ele><time>2026-04-12T06:01:35.446Z</time></trkpt><trkpt lat="45.010085" lon="8.0866733"><ele>254.0</ele><time>2026-04-12T06:01:36.446Z</time></trkpt><trkpt lat="45.0100167" lon="8.0866717"><ele>254.0</ele><time>2026-04-12T06:01:37.446Z</time></trkpt><trkpt lat="45.0099483" lon="8.0866683"><ele>254.0</ele><time>2026-04-12T06:01:38.446Z</time></trkpt><trkpt lat="45.009885" lon="8.0866717"><ele>254.0</ele><time>2026-04-12T06:01:39.447Z</time></trkpt><trkpt lat="45.00977" lon="8.0866917"><ele>254.0</ele><time>2026-04-12T06:01:41.446Z</time></trkpt><trkpt lat="45.00966" lon="8.0867367"><ele>257.5</ele><time>2026-04-12T06:01:43.446Z</time></trkpt><trkpt lat="45.0095583" lon="8.0867883"><ele>261.0</ele><time>2026-04-12T06:01:45.446Z</time></trkpt><trkpt lat="45.0094533" lon="8.0868517"><ele>264.5</ele><time>2026-04-12T06:01:47.446Z</time></trkpt><trkpt lat="45.009355" lon="8.0869267"><ele>268.0</ele><time>2026-04-12T06:01:49.446Z</time></trkpt><trkpt lat="45.0092433" lon="8.087015"><ele>268.0</ele><time>2026-04-12T06:01:51.446Z</time></trkpt><trkpt lat="45.0091883" lon="8.0870667"><ele>268.0</ele><time>2026-04-12T06:01:52.446Z</time></trkpt><trkpt lat="45.00913" lon="8.0871217"><ele>268.0</ele><time>2026-04-12T06:01:53.446Z</time></trkpt><trkpt lat="45.009075" lon="8.0871767"><ele>268.0</ele><time>2026-04-12T06:01:54.446Z</time></trkpt><trkpt lat="45.009015" lon="8.087235"><ele>268.0</ele><time>2026-04-12T06:01:55.446Z</time></trkpt><trkpt lat="45.00895" lon="8.0873017"><ele>268.0</ele><time>2026-04-12T06:01:56.446Z</time></trkpt><trkpt lat="45.008885" lon="8.0873683"><ele>268.0</ele><time>2026-04-12T06:01:57.446Z</time></trkpt><trkpt lat="45.0088183" lon="8.0874383"><ele>269.5</ele><time>2026-04-12T06:01:58.446Z</time></trkpt><trkpt lat="45.00875" lon="8.0875017"><ele>271.0</ele><time>2026-04-12T06:01:59.446Z</time></trkpt><trkpt lat="45.0086833" lon="8.08758"><ele>272.5</ele><time>2026-04-12T06:02:00.446Z</time></trkpt><trkpt lat="45.0086183" lon="8.087655"><ele>274.0</ele><time>2026-04-12T06:02:01.446Z</time></trkpt><trkpt lat="45.00857" lon="8.087735"><ele>275.5</ele><time>2026-04-12T06:02:02.446Z</time></trkpt><trkpt lat="45.008515" lon="8.0878067"><ele>277.0</ele><time>2026-04-12T06:02:03.446Z</time></trkpt><trkpt lat="45.0084633" lon="8.0878617"><ele>277.0</ele><time>2026-04-12T06:02:04.446Z</time></trkpt><trkpt lat="45.0084083" lon="8.087925"><ele>277.0</ele><time>2026-04-12T06:02:05.446Z</time></trkpt><trkpt lat="45.0083517" lon="8.0879817"><ele>277.0</ele><time>2026-04-12T06:02:06.446Z</time></trkpt><trkpt lat="45.0082617" lon="8.0880233"><ele>277.0</ele><time>2026-04-12T06:02:07.446Z</time></trkpt><trkpt lat="45.0081883" lon="8.0880583"><ele>277.0</ele><time>2026-04-12T06:02:08.447Z</time></trkpt><trkpt lat="45.0081233" lon="8.08809"><ele>277.0</ele><time>2026-04-12T06:02:09.446Z</time></trkpt><trkpt lat="45.0080233" lon="8.088125"><ele>279.0</ele><time>2026-04-12T06:02:11.446Z</time></trkpt><trkpt lat="45.007915" lon="8.0881433"><ele>281.0</ele><time>2026-04-12T06:02:13.446Z</time></trkpt><trkpt lat="45.0078" lon="8.08816"><ele>283.0</ele><time>2026-04-12T06:02:15.446Z</time></trkpt><trkpt lat="45.00768" lon="8.0881567"><ele>285.0</ele><time>2026-04-12T06:02:17.446Z</time></trkpt><trkpt lat="45.007565" lon="8.08816"><ele>283.2</ele><time>2026-04-12T06:02:19.446Z</time></trkpt><trkpt lat="45.00746" lon="8.0881533"><ele>281.4</ele><time>2026-04-12T06:02:21.446Z</time></trkpt><trkpt lat="45.0073517" lon="8.0881733"><ele>279.6</ele><time>2026-04-12T06:02:23.446Z</time></trkpt><trkpt lat="45.0072533" lon="8.0882133"><ele>277.8</ele><time>2026-04-12T06:02:25.446Z</time></trkpt><trkpt lat="45.0071483" lon="8.088255"><ele>276.0</ele><time>2026-04-12T06:02:27.446Z</time></trkpt><trkpt lat="45.0070383" lon="8.0882983"><ele>276.2</ele><time>2026-04-12T06:02:29.446Z</time></trkpt><trkpt lat="45.0069317" lon="8.0883483"><ele>276.40000000000003</ele><time>2026-04-12T06:02:31.446Z</time></trkpt><trkpt lat="45.006825" lon="8.088415"><ele>276.6</ele><time>2026-04-12T06:02:33.447Z</time></trkpt><trkpt lat="45.00674" lon="8.0884833"><ele>276.8</ele><time>2026-04-12T06:02:35.446Z</time></trkpt><trkpt lat="45.00666" lon="8.08856"><ele>277.0</ele><time>2026-04-12T06:02:37.446Z</time></trkpt><trkpt lat="45.0065733" lon="8.088625"><ele>277.0</ele><time>2026-04-12T06:02:39.446Z</time></trkpt><trkpt lat="45.0064833" lon="8.0886817"><ele>277.0</ele><time>2026-04-12T06:02:41.446Z</time></trkpt><trkpt lat="45.0064067" lon="8.0887567"><ele>277.0</ele><time>2026-04-12T06:02:43.446Z</time></trkpt><trkpt lat="45.0063167" lon="8.0888367"><ele>277.0</ele><time>2026-04-12T06:02:45.446Z</time></trkpt><trkpt lat="45.0062267" lon="8.088885"><ele>277.0</ele><time>2026-04-12T06:02:47.446Z</time></trkpt><trkpt lat="45.0061333" lon="8.088855"><ele>277.0</ele><time>2026-04-12T06:02:49.446Z</time></trkpt><trkpt lat="45.00606" lon="8.088795"><ele>277.0</ele><time>2026-04-12T06:02:51.446Z</time></trkpt><trkpt lat="45.0060083" lon="8.0887317"><ele>277.0</ele><time>2026-04-12T06:02:53.446Z</time></trkpt><trkpt lat="45.0059433" lon="8.0886617"><ele>277.0</ele><time>2026-04-12T06:02:56.446Z</time></trkpt><trkpt lat="45.0058867" lon="8.0885667"><ele>277.0</ele><time>2026-04-12T06:02:59.446Z</time></trkpt><trkpt lat="45.0058267" lon="8.08849"><ele>277.0</ele><time>2026-04-12T06:03:01.446Z</time></trkpt><trkpt lat="45.00575" lon="8.0884133"><ele>276.0</ele><time>2026-04-12T06:03:03.446Z</time></trkpt><trkpt lat="45.005675" lon="8.088345"><ele>275.0</ele><time>2026-04-12T06:03:05.446Z</time></trkpt><trkpt lat="45.0055817" lon="8.0882667"><ele>274.0</ele><time>2026-04-12T06:03:07.446Z</time></trkpt><trkpt lat="45.0054833" lon="8.0882017"><ele>273.0</ele><time>2026-04-12T06:03:09.446Z</time></trkpt><trkpt lat="45.00539" lon="8.0881733"><ele>272.0</ele><time>2026-04-12T06:03:11.446Z</time></trkpt><trkpt lat="45.00531" lon="8.0881383"><ele>272.0</ele><time>2026-04-12T06:03:13.446Z</time></trkpt><trkpt lat="45.00523" lon="8.0881117"><ele>272.0</ele><time>2026-04-12T06:03:15.446Z</time></trkpt><trkpt lat="45.00515" lon="8.0880633"><ele>272.0</ele><time>2026-04-12T06:03:17.446Z</time></trkpt><trkpt lat="45.0050733" lon="8.0880117"><ele>272.0</ele><time>2026-04-12T06:03:19.446Z</time></trkpt><trkpt lat="45.0049983" lon="8.087935"><ele>272.0</ele><time>2026-04-12T06:03:22.446Z</time></trkpt><trkpt lat="45.004935" lon="8.0878333"><ele>272.0</ele><time>2026-04-12T06:03:25.447Z</time></trkpt><trkpt lat="45.00488" lon="8.087765"><ele>272.85714285714283</ele><time>2026-04-12T06:03:27.446Z</time></trkpt><trkpt lat="45.004845" lon="8.0876883"><ele>273.7142857142857</ele><time>2026-04-12T06:03:29.446Z</time></trkpt><trkpt lat="45.0048067" lon="8.0875917"><ele>274.57142857142856</ele><time>2026-04-12T06:03:31.446Z</time></trkpt><trkpt lat="45.0047767" lon="8.0875"><ele>275.42857142857144</ele><time>2026-04-12T06:03:33.446Z</time></trkpt><trkpt lat="45.00475" lon="8.0874033"><ele>276.2857142857143</ele><time>2026-04-12T06:03:35.446Z</time></trkpt><trkpt lat="45.0047233" lon="8.0873017"><ele>277.1428571428571</ele><time>2026-04-12T06:03:37.446Z</time></trkpt><trkpt lat="45.00466" lon="8.0872267"><ele>278.0</ele><time>2026-04-12T06:03:39.446Z</time></trkpt><trkpt lat="45.0045717" lon="8.0871683"><ele>278.0</ele><time>2026-04-12T06:03:41.446Z</time></trkpt><trkpt lat="45.0044783" lon="8.0871317"><ele>278.0</ele><time>2026-04-12T06:03:43.446Z</time></trkpt><trkpt lat="45.0043733" lon="8.0871083"><ele>278.0</ele><time>2026-04-12T06:03:45.446Z</time></trkpt><trkpt lat="45.0042867" lon="8.087105"><ele>278.0</ele><time>2026-04-12T06:03:47.446Z</time></trkpt><trkpt lat="45.004205" lon="8.0871083"><ele>278.0</ele><time>2026-04-12T06:03:49.446Z</time></trkpt><trkpt lat="45.0041067" lon="8.08708"><ele>279.57142857142856</ele><time>2026-04-12T06:03:51.446Z</time></trkpt><trkpt lat="45.004025" lon="8.08705"><ele>281.14285714285717</ele><time>2026-04-12T06:03:53.446Z</time></trkpt><trkpt lat="45.0039517" lon="8.0870217"><ele>282.7142857142857</ele><time>2026-04-12T06:03:55.446Z</time></trkpt><trkpt lat="45.00388" lon="8.0870033"><ele>284.2857142857143</ele><time>2026-04-12T06:03:57.446Z</time></trkpt><trkpt lat="45.0037983" lon="8.0869917"><ele>285.85714285714283</ele><time>2026-04-12T06:03:59.446Z</time></trkpt><trkpt lat="45.0037333" lon="8.0869967"><ele>287.42857142857144</ele><time>2026-04-12T06:04:01.446Z</time></trkpt><trkpt lat="45.003665" lon="8.087005"><ele>289.0</ele><time>2026-04-12T06:04:03.446Z</time></trkpt><trkpt lat="45.00358" lon="8.0870333"><ele>289.0</ele><time>2026-04-12T06:04:06.446Z</time></trkpt><trkpt lat="45.0035033" lon="8.087095"><ele>289.0</ele><time>2026-04-12T06:04:09.446Z</time></trkpt><trkpt lat="45.0034333" lon="8.0871433"><ele>289.0</ele><time>2026-04-12T06:04:11.446Z</time></trkpt><trkpt lat="45.003375" lon="8.0871917"><ele>289.0</ele><time>2026-04-12T06:04:13.446Z</time></trkpt><trkpt lat="45.0033183" lon="8.0872833"><ele>289.0</ele><time>2026-04-12T06:04:16.446Z</time></trkpt><trkpt lat="45.0032733" lon="8.08738"><ele>289.0</ele><time>2026-04-12T06:04:20.446Z</time></trkpt><trkpt lat="45.0032883" lon="8.0874667"><ele>288.8333333333333</ele><time>2026-04-12T06:04:22.446Z</time></trkpt><trkpt lat="45.0033267" lon="8.0875717"><ele>288.66666666666663</ele><time>2026-04-12T06:04:24.446Z</time></trkpt><trkpt lat="45.0033633" lon="8.087665"><ele>288.5</ele><time>2026-04-12T06:04:26.446Z</time></trkpt><trkpt lat="45.0033967" lon="8.087755"><ele>288.3333333333333</ele><time>2026-04-12T06:04:28.446Z</time></trkpt><trkpt lat="45.0034467" lon="8.0878333"><ele>288.1666666666667</ele><time>2026-04-12T06:04:30.446Z</time></trkpt><trkpt lat="45.003505" lon="8.0879133"><ele>288.0</ele><time>2026-04-12T06:04:33.446Z</time></trkpt><trkpt lat="45.0035517" lon="8.08801"><ele>288.0</ele><time>2026-04-12T06:04:36.446Z</time></trkpt><trkpt lat="45.0036017" lon="8.0881117"><ele>288.0</ele><time>2026-04-12T06:04:39.446Z</time></trkpt><trkpt lat="45.0036483" lon="8.088225"><ele>288.0</ele><time>2026-04-12T06:04:42.446Z</time></trkpt><trkpt lat="45.0036767" lon="8.0883267"><ele>288.0</ele><time>2026-04-12T06:04:45.446Z</time></trkpt><trkpt lat="45.0036983" lon="8.0884217"><ele>288.0</ele><time>2026-04-12T06:04:47.446Z</time></trkpt><trkpt lat="45.00371" lon="8.0885267"><ele>288.0</ele><time>2026-04-12T06:04:49.446Z</time></trkpt><trkpt lat="45.0037133" lon="8.0886333"><ele>287.5714285714286</ele><time>2026-04-12T06:04:51.446Z</time></trkpt><trkpt lat="45.0036983" lon="8.0887417"><ele>287.14285714285717</ele><time>2026-04-12T06:04:53.446Z</time></trkpt><trkpt lat="45.003665" lon="8.0888283"><ele>286.7142857142857</ele><time>2026-04-12T06:04:55.446Z</time></trkpt><trkpt lat="45.0036117" lon="8.0889183"><ele>286.28571428571433</ele><time>2026-04-12T06:04:58.446Z</time></trkpt><trkpt lat="45.0035533" lon="8.0889683"><ele>285.8571428571429</ele><time>2026-04-12T06:05:00.446Z</time></trkpt><trkpt lat="45.0034833" lon="8.0890167"><ele>285.42857142857144</ele><time>2026-04-12T06:05:02.446Z</time></trkpt><trkpt lat="45.00342" lon="8.0890567"><ele>285.0</ele><time>2026-04-12T06:05:04.446Z</time></trkpt><trkpt lat="45.0033617" lon="8.0890983"><ele>285.7142857142857</ele><time>2026-04-12T06:05:06.446Z</time></trkpt><trkpt lat="45.0033033" lon="8.08915"><ele>286.42857142857144</ele><time>2026-04-12T06:05:08.446Z</time></trkpt><trkpt lat="45.0032283" lon="8.089195"><ele>287.14285714285717</ele><time>2026-04-12T06:05:11.446Z</time></trkpt><trkpt lat="45.0031633" lon="8.0892583"><ele>287.8571428571429</ele><time>2026-04-12T06:05:14.446Z</time></trkpt><trkpt lat="45.00311" lon="8.0893083"><ele>288.5714285714286</ele><time>2026-04-12T06:05:16.446Z</time></trkpt><trkpt lat="45.0030617" lon="8.0893683"><ele>289.2857142857143</ele><time>2026-04-12T06:05:18.446Z</time></trkpt><trkpt lat="45.00302" lon="8.0894483"><ele>290.0</ele><time>2026-04-12T06:05:20.447Z</time></trkpt><trkpt lat="45.002985" lon="8.0895433"><ele>290.0</ele><time>2026-04-12T06:05:22.446Z</time></trkpt><trkpt lat="45.0029617" lon="8.0896383"><ele>290.0</ele><time>2026-04-12T06:05:24.446Z</time></trkpt><trkpt lat="45.00295" lon="8.0897383"><ele>290.0</ele><time>2026-04-12T06:05:26.446Z</time></trkpt><trkpt lat="45.002955" lon="8.0898517"><ele>290.0</ele><time>2026-04-12T06:05:28.446Z</time></trkpt><trkpt lat="45.0029783" lon="8.0899583"><ele>290.0</ele><time>2026-04-12T06:05:30.446Z</time></trkpt><trkpt lat="45.0029983" lon="8.09007"><ele>290.0</ele><time>2026-04-12T06:05:32.446Z</time></trkpt><trkpt lat="45.0030133" lon="8.0901833"><ele>289.0</ele><time>2026-04-12T06:05:34.446Z</time></trkpt><trkpt lat="45.003015" lon="8.0903117"><ele>288.0</ele><time>2026-04-12T06:05:36.446Z</time></trkpt><trkpt lat="45.0030083" lon="8.0904467"><ele>287.0</ele><time>2026-04-12T06:05:38.446Z</time></trkpt><trkpt lat="45.0029867" lon="8.0905967"><ele>286.0</ele><time>2026-04-12T06:05:40.446Z</time></trkpt><trkpt lat="45.0029433" lon="8.0907417"><ele>285.0</ele><time>2026-04-12T06:05:42.446Z</time></trkpt><trkpt lat="45.0028717" lon="8.090885"><ele>284.6666666666667</ele><time>2026-04-12T06:05:44.446Z</time></trkpt><trkpt lat="45.0028317" lon="8.0909583"><ele>284.3333333333333</ele><time>2026-04-12T06:05:45.446Z</time></trkpt><trkpt lat="45.0027483" lon="8.0911017"><ele>284.0</ele><time>2026-04-12T06:05:47.446Z</time></trkpt><trkpt lat="45.0027017" lon="8.0911683"><ele>283.66666666666663</ele><time>2026-04-12T06:05:48.446Z</time></trkpt><trkpt lat="45.0026483" lon="8.0912317"><ele>283.3333333333333</ele><time>2026-04-12T06:05:49.446Z</time></trkpt><trkpt lat="45.002595" lon="8.0913017"><ele>283.0</ele><time>2026-04-12T06:05:50.447Z</time></trkpt><trkpt lat="45.0025367" lon="8.09136"><ele>281.14285714285717</ele><time>2026-04-12T06:05:51.446Z</time></trkpt><trkpt lat="45.0024833" lon="8.0914083"><ele>279.28571428571433</ele><time>2026-04-12T06:05:52.446Z</time></trkpt><trkpt lat="45.002425" lon="8.0914483"><ele>277.42857142857144</ele><time>2026-04-12T06:05:53.446Z</time></trkpt><trkpt lat="45.0023567" lon="8.0914817"><ele>275.57142857142856</ele><time>2026-04-12T06:05:54.446Z</time></trkpt><trkpt lat="45.0022867" lon="8.0914983"><ele>273.71428571428567</ele><time>2026-04-12T06:05:55.446Z</time></trkpt><trkpt lat="45.0022117" lon="8.091515"><ele>271.85714285714283</ele><time>2026-04-12T06:05:56.446Z</time></trkpt><trkpt lat="45.0021367" lon="8.091525"><ele>270.0</ele><time>2026-04-12T06:05:57.446Z</time></trkpt><trkpt lat="45.0020667" lon="8.091535"><ele>270.0</ele><time>2026-04-12T06:05:58.447Z</time></trkpt><trkpt lat="45.0019967" lon="8.0915417"><ele>270.0</ele><time>2026-04-12T06:05:59.446Z</time></trkpt><trkpt lat="45.0019267" lon="8.0915433"><ele>270.0</ele><time>2026-04-12T06:06:00.447Z</time></trkpt><trkpt lat="45.00185" lon="8.091545"><ele>270.0</ele><time>2026-04-12T06:06:01.446Z</time></trkpt><trkpt lat="45.0017717" lon="8.0915533"><ele>270.0</ele><time>2026-04-12T06:06:02.446Z</time></trkpt><trkpt lat="45.001695" lon="8.0915533"><ele>270.0</ele><time>2026-04-12T06:06:03.446Z</time></trkpt><trkpt lat="45.001615" lon="8.09156"><ele>269.1666666666667</ele><time>2026-04-12T06:06:04.446Z</time></trkpt><trkpt lat="45.0015333" lon="8.091565"><ele>268.3333333333333</ele><time>2026-04-12T06:06:05.446Z</time></trkpt><trkpt lat="45.0014517" lon="8.0915783"><ele>267.5</ele><time>2026-04-12T06:06:06.446Z</time></trkpt><trkpt lat="45.00137" lon="8.0915967"><ele>266.66666666666663</ele><time>2026-04-12T06:06:07.446Z</time></trkpt><trkpt lat="45.0012917" lon="8.0916233"><ele>265.8333333333333</ele><time>2026-04-12T06:06:08.446Z</time></trkpt><trkpt lat="45.0012167" lon="8.0916583"><ele>265.0</ele><time>2026-04-12T06:06:09.446Z</time></trkpt><trkpt lat="45.00114" lon="8.091695"><ele>269.0</ele><time>2026-04-12T06:06:10.446Z</time></trkpt><trkpt lat="45.00107" lon="8.0917317"><ele>273.0</ele><time>2026-04-12T06:06:11.446Z</time></trkpt><trkpt lat="45.0009967" lon="8.0917683"><ele>277.0</ele><time>2026-04-12T06:06:12.446Z</time></trkpt><trkpt lat="45.0009217" lon="8.0918083"><ele>281.0</ele><time>2026-04-12T06:06:13.446Z</time></trkpt><trkpt lat="45.00085" lon="8.0918483"><ele>285.0</ele><time>2026-04-12T06:06:14.446Z</time></trkpt><trkpt lat="45.0007783" lon="8.09189"><ele>289.0</ele><time>2026-04-12T06:06:15.446Z</time></trkpt><trkpt lat="45.0007017" lon="8.0919283"><ele>289.16666666666663</ele><time>2026-04-12T06:06:16.446Z</time></trkpt><trkpt lat="45.0006267" lon="8.0919767"><ele>289.3333333333333</ele><time>2026-04-12T06:06:17.446Z</time></trkpt><trkpt lat="45.0005483" lon="8.0920233"><ele>289.5</ele><time>2026-04-12T06:06:18.446Z</time></trkpt><trkpt lat="45.0004767" lon="8.0920667"><ele>289.6666666666667</ele><time>2026-04-12T06:06:19.446Z</time></trkpt><trkpt lat="45.0004033" lon="8.0921083"><ele>289.83333333333337</ele><time>2026-04-12T06:06:20.446Z</time></trkpt><trkpt lat="45.0003333" lon="8.0921533"><ele>290.0</ele><time>2026-04-12T06:06:21.446Z</time></trkpt><trkpt lat="45.000265" lon="8.0921967"><ele>290.0</ele><time>2026-04-12T06:06:22.446Z</time></trkpt><trkpt lat="45.0002033" lon="8.09226"><ele>290.0</ele><time>2026-04-12T06:06:23.446Z</time></trkpt><trkpt lat="45.0001417" lon="8.09233"><ele>290.0</ele><time>2026-04-12T06:06:24.446Z</time></trkpt><trkpt lat="45.00008" lon="8.092405"><ele>290.0</ele><time>2026-04-12T06:06:25.446Z</time></trkpt><trkpt lat="45.00002" lon="8.0924833"><ele>290.0</ele><time>2026-04-12T06:06:26.446Z</time></trkpt><trkpt lat="44.9999667" lon="8.092565"><ele>290.0</ele><time>2026-04-12T06:06:27.446Z</time></trkpt><trkpt lat="44.9999167" lon="8.09263"><ele>290.0</ele><time>2026-04-12T06:06:28.446Z</time></trkpt><trkpt lat="44.99987" lon="8.0926967"><ele>290.0</ele><time>2026-04-12T06:06:29.446Z</time></trkpt><trkpt lat="44.9997833" lon="8.0927917"><ele>290.0</ele><time>2026-04-12T06:06:31.446Z</time></trkpt><trkpt lat="44.999665" lon="8.0928467"><ele>290.0</ele><time>2026-04-12T06:06:33.446Z</time></trkpt><trkpt lat="44.9995967" lon="8.0928467"><ele>290.0</ele><time>2026-04-12T06:06:34.446Z</time></trkpt><trkpt lat="44.9995283" lon="8.0928283"><ele>290.0</ele><time>2026-04-12T06:06:35.446Z</time></trkpt><trkpt lat="44.9994667" lon="8.0928083"><ele>290.0</ele><time>2026-04-12T06:06:36.446Z</time></trkpt><trkpt lat="44.999405" lon="8.0927783"><ele>290.0</ele><time>2026-04-12T06:06:37.446Z</time></trkpt><trkpt lat="44.9993" lon="8.0927483"><ele>290.0</ele><time>2026-04-12T06:06:39.446Z</time></trkpt><trkpt lat="44.999195" lon="8.09273"><ele>290.0</ele><time>2026-04-12T06:06:41.446Z</time></trkpt><trkpt lat="44.9990967" lon="8.0927083"><ele>290.0</ele><time>2026-04-12T06:06:43.446Z</time></trkpt><trkpt lat="44.999005" lon="8.0926917"><ele>290.83333333333337</ele><time>2026-04-12T06:06:45.446Z</time></trkpt><trkpt lat="44.99892" lon="8.0926817"><ele>291.6666666666667</ele><time>2026-04-12T06:06:47.446Z</time></trkpt><trkpt lat="44.998835" lon="8.0926883"><ele>292.5</ele><time>2026-04-12T06:06:49.446Z</time></trkpt><trkpt lat="44.9987467" lon="8.0927267"><ele>293.3333333333333</ele><time>2026-04-12T06:06:51.446Z</time></trkpt><trkpt lat="44.9986667" lon="8.0927883"><ele>294.16666666666663</ele><time>2026-04-12T06:06:53.446Z</time></trkpt><trkpt lat="44.99859" lon="8.092855"><ele>295.0</ele><time>2026-04-12T06:06:55.446Z</time></trkpt><trkpt lat="44.9985217" lon="8.09294"><ele>295.0</ele><time>2026-04-12T06:06:57.446Z</time></trkpt><trkpt lat="44.9984583" lon="8.0930183"><ele>295.0</ele><time>2026-04-12T06:06:59.446Z</time></trkpt><trkpt lat="44.9983883" lon="8.0930933"><ele>295.0</ele><time>2026-04-12T06:07:01.446Z</time></trkpt><trkpt lat="44.99831" lon="8.093145"><ele>295.0</ele><time>2026-04-12T06:07:03.446Z</time></trkpt><trkpt lat="44.9982267" lon="8.0931683"><ele>295.0</ele><time>2026-04-12T06:07:05.446Z</time></trkpt><trkpt lat="44.9981517" lon="8.093165"><ele>295.0</ele><time>2026-04-12T06:07:07.446Z</time></trkpt><trkpt lat="44.9980867" lon="8.093125"><ele>295.7142857142857</ele><time>2026-04-12T06:07:09.446Z</time></trkpt><trkpt lat="44.9980183" lon="8.0930633"><ele>296.42857142857144</ele><time>2026-04-12T06:07:11.446Z</time></trkpt><trkpt lat="44.9979583" lon="8.093005"><ele>297.1428571428571</ele><time>2026-04-12T06:07:13.446Z</time></trkpt><trkpt lat="44.9979017" lon="8.0929433"><ele>297.8571428571429</ele><time>2026-04-12T06:07:15.446Z</time></trkpt><trkpt lat="44.9978467" lon="8.09288"><ele>298.57142857142856</ele><time>2026-04-12T06:07:17.446Z</time></trkpt><trkpt lat="44.9977867" lon="8.09282"><ele>299.2857142857143</ele><time>2026-04-12T06:07:19.446Z</time></trkpt><trkpt lat="44.9977367" lon="8.09276"><ele>300.0</ele><time>2026-04-12T06:07:21.446Z</time></trkpt><trkpt lat="44.99766" lon="8.0926817"><ele>299.99999999999994</ele><time>2026-04-12T06:07:24.446Z</time></trkpt><trkpt lat="44.9976067" lon="8.0926183"><ele>300.0</ele><time>2026-04-12T06:07:26.446Z</time></trkpt><trkpt lat="44.997555" lon="8.0925533"><ele>300.0</ele><time>2026-04-12T06:07:28.446Z</time></trkpt><trkpt lat="44.9975067" lon="8.0924817"><ele>300.0</ele><time>2026-04-12T06:07:30.446Z</time></trkpt><trkpt lat="44.9974533" lon="8.0924317"><ele>300.0</ele><time>2026-04-12T06:07:32.446Z</time></trkpt><trkpt lat="44.997385" lon="8.09237"><ele>299.99999999999994</ele><time>2026-04-12T06:07:35.446Z</time></trkpt><trkpt lat="44.9973317" lon="8.092315"><ele>300.0</ele><time>2026-04-12T06:07:38.446Z</time></trkpt><trkpt lat="44.9972833" lon="8.0922383"><ele>299.57142857142856</ele><time>2026-04-12T06:07:41.446Z</time></trkpt><trkpt lat="44.9972267" lon="8.09219"><ele>299.1428571428571</ele><time>2026-04-12T06:07:43.446Z</time></trkpt><trkpt lat="44.9971717" lon="8.0921183"><ele>298.7142857142857</ele><time>2026-04-12T06:07:45.446Z</time></trkpt><trkpt lat="44.99712" lon="8.0920517"><ele>298.2857142857143</ele><time>2026-04-12T06:07:47.446Z</time></trkpt><trkpt lat="44.9970733" lon="8.09198"><ele>297.8571428571429</ele><time>2026-04-12T06:07:49.446Z</time></trkpt><trkpt lat="44.9970267" lon="8.0919017"><ele>297.42857142857144</ele><time>2026-04-12T06:07:51.446Z</time></trkpt><trkpt lat="44.9969817" lon="8.0918233"><ele>297.0</ele><time>2026-04-12T06:07:53.446Z</time></trkpt><trkpt lat="44.9969383" lon="8.0917433"><ele>297.0</ele><time>2026-04-12T06:07:55.446Z</time></trkpt><trkpt lat="44.9968967" lon="8.0916517"><ele>297.0</ele><time>2026-04-12T06:07:57.446Z</time></trkpt><trkpt lat="44.9968633" lon="8.0915617"><ele>297.0</ele><time>2026-04-12T06:07:59.446Z</time></trkpt><trkpt lat="44.99683" lon="8.0914667"><ele>297.0</ele><time>2026-04-12T06:08:01.446Z</time></trkpt><trkpt lat="44.9967917" lon="8.091365"><ele>297.0</ele><time>2026-04-12T06:08:03.447Z</time></trkpt><trkpt lat="44.9967567" lon="8.0912733"><ele>297.0</ele><time>2026-04-12T06:08:05.446Z</time></trkpt><trkpt lat="44.9967133" lon="8.0911733"><ele>297.2</ele><time>2026-04-12T06:08:07.446Z</time></trkpt><trkpt lat="44.9966633" lon="8.0910767"><ele>297.4</ele><time>2026-04-12T06:08:09.446Z</time></trkpt><trkpt lat="44.9965933" lon="8.0909983"><ele>297.6</ele><time>2026-04-12T06:08:11.446Z</time></trkpt><trkpt lat="44.9965067" lon="8.09094"><ele>297.8</ele><time>2026-04-12T06:08:13.446Z</time></trkpt><trkpt lat="44.9964183" lon="8.0909033"><ele>298.0</ele><time>2026-04-12T06:08:15.446Z</time></trkpt><trkpt lat="44.9963267" lon="8.0908917"><ele>298.0</ele><time>2026-04-12T06:08:17.446Z</time></trkpt><trkpt lat="44.9962267" lon="8.0908967"><ele>298.0</ele><time>2026-04-12T06:08:19.446Z</time></trkpt><trkpt lat="44.9961283" lon="8.0909133"><ele>298.0</ele><time>2026-04-12T06:08:21.446Z</time></trkpt><trkpt lat="44.99603" lon="8.0909283"><ele>298.0</ele><time>2026-04-12T06:08:23.446Z</time></trkpt><trkpt lat="44.9959267" lon="8.0909567"><ele>298.0</ele><time>2026-04-12T06:08:25.446Z</time></trkpt><trkpt lat="44.995825" lon="8.0909817"><ele>298.0</ele><time>2026-04-12T06:08:27.446Z</time></trkpt><trkpt lat="44.9957217" lon="8.091"><ele>298.0</ele><time>2026-04-12T06:08:29.446Z</time></trkpt><trkpt lat="44.995625" lon="8.091025"><ele>298.0</ele><time>2026-04-12T06:08:31.447Z</time></trkpt><trkpt lat="44.9955217" lon="8.09104"><ele>298.0</ele><time>2026-04-12T06:08:33.446Z</time></trkpt><trkpt lat="44.995415" lon="8.09104"><ele>298.0</ele><time>2026-04-12T06:08:35.446Z</time></trkpt><trkpt lat="44.9953167" lon="8.0910317"><ele>298.0</ele><time>2026-04-12T06:08:37.446Z</time></trkpt><trkpt lat="44.99522" lon="8.0910083"><ele>298.0</ele><time>2026-04-12T06:08:39.446Z</time></trkpt><trkpt lat="44.995115" lon="8.0909983"><ele>298.0</ele><time>2026-04-12T06:08:41.447Z</time></trkpt><trkpt lat="44.9950083" lon="8.0909667"><ele>298.0</ele><time>2026-04-12T06:08:43.446Z</time></trkpt><trkpt lat="44.9948917" lon="8.0909233"><ele>298.0</ele><time>2026-04-12T06:08:45.446Z</time></trkpt><trkpt lat="44.9947783" lon="8.090895"><ele>299.25</ele><time>2026-04-12T06:08:47.446Z</time></trkpt><trkpt lat="44.9946683" lon="8.090865"><ele>300.5</ele><time>2026-04-12T06:08:49.446Z</time></trkpt><trkpt lat="44.9945533" lon="8.09084"><ele>301.75</ele><time>2026-04-12T06:08:51.446Z</time></trkpt><trkpt lat="44.9944317" lon="8.0908317"><ele>303.0</ele><time>2026-04-12T06:08:53.446Z</time></trkpt><trkpt lat="44.99431" lon="8.0908267"><ele>303.0</ele><time>2026-04-12T06:08:55.446Z</time></trkpt><trkpt lat="44.9941933" lon="8.0908433"><ele>303.0</ele><time>2026-04-12T06:08:57.446Z</time></trkpt><trkpt lat="44.99413" lon="8.09085"><ele>303.0</ele><time>2026-04-12T06:08:58.446Z</time></trkpt><trkpt lat="44.994065" lon="8.09085"><ele>303.0</ele><time>2026-04-12T06:08:59.446Z</time></trkpt><trkpt lat="44.9939983" lon="8.0908533"><ele>303.0</ele><time>2026-04-12T06:09:00.446Z</time></trkpt><trkpt lat="44.993925" lon="8.0908517"><ele>303.0</ele><time>2026-04-12T06:09:01.446Z</time></trkpt><trkpt lat="44.9938517" lon="8.09086"><ele>303.14285714285717</ele><time>2026-04-12T06:09:02.446Z</time></trkpt><trkpt lat="44.9937833" lon="8.0908617"><ele>303.2857142857143</ele><time>2026-04-12T06:09:03.446Z</time></trkpt><trkpt lat="44.9937117" lon="8.0908717"><ele>303.42857142857144</ele><time>2026-04-12T06:09:04.446Z</time></trkpt><trkpt lat="44.99364" lon="8.09088"><ele>303.57142857142856</ele><time>2026-04-12T06:09:05.446Z</time></trkpt><trkpt lat="44.9935667" lon="8.0908883"><ele>303.7142857142857</ele><time>2026-04-12T06:09:06.446Z</time></trkpt><trkpt lat="44.993485" lon="8.0908917"><ele>303.85714285714283</ele><time>2026-04-12T06:09:07.446Z</time></trkpt><trkpt lat="44.9934083" lon="8.0909033"><ele>304.0</ele><time>2026-04-12T06:09:08.446Z</time></trkpt><trkpt lat="44.9933317" lon="8.09091"><ele>303.16666666666663</ele><time>2026-04-12T06:09:09.446Z</time></trkpt><trkpt lat="44.9932583" lon="8.0909167"><ele>302.3333333333333</ele><time>2026-04-12T06:09:10.446Z</time></trkpt><trkpt lat="44.9931867" lon="8.0909133"><ele>301.5</ele><time>2026-04-12T06:09:11.446Z</time></trkpt><trkpt lat="44.9931133" lon="8.09092"><ele>300.6666666666667</ele><time>2026-04-12T06:09:12.446Z</time></trkpt><trkpt lat="44.993035" lon="8.09092"><ele>299.83333333333337</ele><time>2026-04-12T06:09:13.446Z</time></trkpt><trkpt lat="44.99295" lon="8.09093"><ele>299.0</ele><time>2026-04-12T06:09:14.446Z</time></trkpt><trkpt lat="44.9928733" lon="8.0909317"><ele>299.0</ele><time>2026-04-12T06:09:15.447Z</time></trkpt><trkpt lat="44.9927967" lon="8.090935"><ele>299.0</ele><time>2026-04-12T06:09:16.446Z</time></trkpt><trkpt lat="44.9927083" lon="8.0909383"><ele>299.0</ele><time>2026-04-12T06:09:17.446Z</time></trkpt><trkpt lat="44.99262" lon="8.0909517"><ele>299.0</ele><time>2026-04-12T06:09:18.446Z</time></trkpt><trkpt lat="44.9925267" lon="8.0909683"><ele>299.0</ele><time>2026-04-12T06:09:19.446Z</time></trkpt><trkpt lat="44.9924367" lon="8.0909767"><ele>299.0</ele><time>2026-04-12T06:09:20.446Z</time></trkpt><trkpt lat="44.9923533" lon="8.090985"><ele>298.5</ele><time>2026-04-12T06:09:21.446Z</time></trkpt><trkpt lat="44.9922667" lon="8.0909767"><ele>298.0</ele><time>2026-04-12T06:09:22.446Z</time></trkpt><trkpt lat="44.9921817" lon="8.0909717"><ele>297.5</ele><time>2026-04-12T06:09:23.446Z</time></trkpt><trkpt lat="44.9921033" lon="8.09098"><ele>297.0</ele><time>2026-04-12T06:09:24.446Z</time></trkpt><trkpt lat="44.99203" lon="8.0909883"><ele>296.5</ele><time>2026-04-12T06:09:25.446Z</time></trkpt><trkpt lat="44.991955" lon="8.090995"><ele>296.0</ele><time>2026-04-12T06:09:26.446Z</time></trkpt><trkpt lat="44.99188" lon="8.0909917"><ele>296.0</ele><time>2026-04-12T06:09:27.446Z</time></trkpt><trkpt lat="44.9918117" lon="8.0909933"><ele>296.0</ele><time>2026-04-12T06:09:28.446Z</time></trkpt><trkpt lat="44.9917367" lon="8.0909917"><ele>296.0</ele><time>2026-04-12T06:09:29.446Z</time></trkpt><trkpt lat="44.9916633" lon="8.0909733"><ele>296.0</ele><time>2026-04-12T06:09:30.446Z</time></trkpt><trkpt lat="44.9915933" lon="8.0909433"><ele>296.0</ele><time>2026-04-12T06:09:31.446Z</time></trkpt><trkpt lat="44.99153" lon="8.0909133"><ele>296.0</ele><time>2026-04-12T06:09:32.446Z</time></trkpt><trkpt lat="44.9914667" lon="8.0908717"><ele>296.0</ele><time>2026-04-12T06:09:33.446Z</time></trkpt><trkpt lat="44.991405" lon="8.0908233"><ele>296.2</ele><time>2026-04-12T06:09:34.446Z</time></trkpt><trkpt lat="44.99135" lon="8.0907767"><ele>296.40000000000003</ele><time>2026-04-12T06:09:35.446Z</time></trkpt><trkpt lat="44.99125" lon="8.090675"><ele>296.6</ele><time>2026-04-12T06:09:37.446Z</time></trkpt><trkpt lat="44.9911483" lon="8.0905833"><ele>296.8</ele><time>2026-04-12T06:09:39.446Z</time></trkpt><trkpt lat="44.991055" lon="8.090495"><ele>297.0</ele><time>2026-04-12T06:09:41.447Z</time></trkpt><trkpt lat="44.9909683" lon="8.0904133"><ele>296.6666666666667</ele><time>2026-04-12T06:09:43.446Z</time></trkpt><trkpt lat="44.990855" lon="8.0903867"><ele>296.3333333333333</ele><time>2026-04-12T06:09:45.446Z</time></trkpt><trkpt lat="44.9907917" lon="8.0904133"><ele>296.0</ele><time>2026-04-12T06:09:46.446Z</time></trkpt><trkpt lat="44.9907183" lon="8.0904617"><ele>295.66666666666663</ele><time>2026-04-12T06:09:47.446Z</time></trkpt><trkpt lat="44.9906533" lon="8.0905267"><ele>295.3333333333333</ele><time>2026-04-12T06:09:48.446Z</time></trkpt><trkpt lat="44.990595" lon="8.090605"><ele>295.0</ele><time>2026-04-12T06:09:49.446Z</time></trkpt><trkpt lat="44.9905217" lon="8.0906833"><ele>295.0</ele><time>2026-04-12T06:09:50.446Z</time></trkpt><trkpt lat="44.99044" lon="8.0907517"><ele>295.0</ele><time>2026-04-12T06:09:51.446Z</time></trkpt><trkpt lat="44.9903617" lon="8.0908133"><ele>295.0</ele><time>2026-04-12T06:09:52.446Z</time></trkpt><trkpt lat="44.9902733" lon="8.0908767"><ele>295.0</ele><time>2026-04-12T06:09:53.446Z</time></trkpt><trkpt lat="44.9901933" lon="8.090945"><ele>295.0</ele><time>2026-04-12T06:09:54.446Z</time></trkpt><trkpt lat="44.9901117" lon="8.0910033"><ele>294.8333333333333</ele><time>2026-04-12T06:09:55.446Z</time></trkpt><trkpt lat="44.99003" lon="8.0910417"><ele>294.66666666666663</ele><time>2026-04-12T06:09:56.446Z</time></trkpt><trkpt lat="44.9899433" lon="8.091085"><ele>294.5</ele><time>2026-04-12T06:09:57.446Z</time></trkpt><trkpt lat="44.9898617" lon="8.0911283"><ele>294.3333333333333</ele><time>2026-04-12T06:09:58.446Z</time></trkpt><trkpt lat="44.9897833" lon="8.0911733"><ele>294.1666666666667</ele><time>2026-04-12T06:09:59.446Z</time></trkpt><trkpt lat="44.9897067" lon="8.0912183"><ele>294.0</ele><time>2026-04-12T06:10:00.446Z</time></trkpt><trkpt lat="44.9896283" lon="8.0912383"><ele>294.0</ele><time>2026-04-12T06:10:01.446Z</time></trkpt><trkpt lat="44.9895567" lon="8.0912367"><ele>294.0</ele><time>2026-04-12T06:10:02.447Z</time></trkpt><trkpt lat="44.989475" lon="8.09123"><ele>294.0</ele><time>2026-04-12T06:10:03.446Z</time></trkpt><trkpt lat="44.9893917" lon="8.0912067"><ele>294.0</ele><time>2026-04-12T06:10:04.446Z</time></trkpt><trkpt lat="44.9893133" lon="8.09118"><ele>294.0</ele><time>2026-04-12T06:10:05.446Z</time></trkpt><trkpt lat="44.9892383" lon="8.091155"><ele>294.0</ele><time>2026-04-12T06:10:06.446Z</time></trkpt><trkpt lat="44.9891633" lon="8.0911483"><ele>293.59999999999997</ele><time>2026-04-12T06:10:07.446Z</time></trkpt><trkpt lat="44.9890833" lon="8.0911333"><ele>293.2</ele><time>2026-04-12T06:10:08.446Z</time></trkpt><trkpt lat="44.98901" lon="8.091115"><ele>292.79999999999995</ele><time>2026-04-12T06:10:09.446Z</time></trkpt><trkpt lat="44.988945" lon="8.0910983"><ele>292.4</ele><time>2026-04-12T06:10:10.446Z</time></trkpt><trkpt lat="44.9888283" lon="8.0910483"><ele>292.0</ele><time>2026-04-12T06:10:12.446Z</time></trkpt><trkpt lat="44.9887217" lon="8.091015"><ele>292.0</ele><time>2026-04-12T06:10:14.446Z</time></trkpt><trkpt lat="44.9886083" lon="8.09096"><ele>292.0</ele><time>2026-04-12T06:10:16.446Z</time></trkpt><trkpt lat="44.9884917" lon="8.09092"><ele>292.0</ele><time>2026-04-12T06:10:18.446Z</time></trkpt><trkpt lat="44.9883783" lon="8.0908883"><ele>292.0</ele><time>2026-04-12T06:10:20.446Z</time></trkpt><trkpt lat="44.9882733" lon="8.0908567"><ele>293.0</ele><time>2026-04-12T06:10:22.446Z</time></trkpt><trkpt lat="44.9881767" lon="8.090825"><ele>294.0</ele><time>2026-04-12T06:10:24.446Z</time></trkpt><trkpt lat="44.9880483" lon="8.0907967"><ele>295.0</ele><time>2026-04-12T06:10:26.446Z</time></trkpt><trkpt lat="44.9879717" lon="8.09078"><ele>296.0</ele><time>2026-04-12T06:10:27.446Z</time></trkpt><trkpt lat="44.9878933" lon="8.090755"><ele>297.0</ele><time>2026-04-12T06:10:28.446Z</time></trkpt><trkpt lat="44.987805" lon="8.0907267"><ele>295.8</ele><time>2026-04-12T06:10:29.447Z</time></trkpt><trkpt lat="44.98771" lon="8.09068"><ele>294.6</ele><time>2026-04-12T06:10:30.446Z</time></trkpt><trkpt lat="44.98762" lon="8.09062"><ele>293.40000000000003</ele><time>2026-04-12T06:10:31.446Z</time></trkpt><trkpt lat="44.9875283" lon="8.0905533"><ele>292.2</ele><time>2026-04-12T06:10:32.446Z</time></trkpt><trkpt lat="44.9874383" lon="8.090475"><ele>291.0</ele><time>2026-04-12T06:10:33.446Z</time></trkpt><trkpt lat="44.9873517" lon="8.0903917"><ele>291.0</ele><time>2026-04-12T06:10:34.446Z</time></trkpt><trkpt lat="44.9872667" lon="8.0903067"><ele>291.0</ele><time>2026-04-12T06:10:35.446Z</time></trkpt><trkpt lat="44.987185" lon="8.09021"><ele>291.0</ele><time>2026-04-12T06:10:36.446Z</time></trkpt><trkpt lat="44.98711" lon="8.0900917"><ele>291.0</ele><time>2026-04-12T06:10:37.446Z</time></trkpt><trkpt lat="44.9870417" lon="8.0899783"><ele>291.0</ele><time>2026-04-12T06:10:38.446Z</time></trkpt><trkpt lat="44.986975" lon="8.0898517"><ele>289.0</ele><time>2026-04-12T06:10:39.446Z</time></trkpt><trkpt lat="44.9869083" lon="8.0897383"><ele>287.0</ele><time>2026-04-12T06:10:40.446Z</time></trkpt><trkpt lat="44.9868433" lon="8.0896333"><ele>285.0</ele><time>2026-04-12T06:10:41.446Z</time></trkpt><trkpt lat="44.9867833" lon="8.08953"><ele>283.0</ele><time>2026-04-12T06:10:42.446Z</time></trkpt><trkpt lat="44.9867217" lon="8.0894183"><ele>281.0</ele><time>2026-04-12T06:10:43.446Z</time></trkpt><trkpt lat="44.9866667" lon="8.089315"><ele>281.0</ele><time>2026-04-12T06:10:44.446Z</time></trkpt><trkpt lat="44.98659" lon="8.0892417"><ele>281.0</ele><time>2026-04-12T06:10:45.446Z</time></trkpt><trkpt lat="44.9865017" lon="8.0891983"><ele>281.0</ele><time>2026-04-12T06:10:46.446Z</time></trkpt><trkpt lat="44.9864083" lon="8.089165"><ele>281.0</ele><time>2026-04-12T06:10:47.446Z</time></trkpt><trkpt lat="44.9863117" lon="8.0891433"><ele>281.0</ele><time>2026-04-12T06:10:48.446Z</time></trkpt><trkpt lat="44.9862133" lon="8.08913"><ele>281.0</ele><time>2026-04-12T06:10:49.446Z</time></trkpt><trkpt lat="44.98611" lon="8.0891133"><ele>281.0</ele><time>2026-04-12T06:10:50.446Z</time></trkpt><trkpt lat="44.986005" lon="8.0890917"><ele>281.0</ele><time>2026-04-12T06:10:51.446Z</time></trkpt><trkpt lat="44.9858983" lon="8.08906"><ele>281.0</ele><time>2026-04-12T06:10:52.446Z</time></trkpt><trkpt lat="44.9857933" lon="8.0890067"><ele>281.0</ele><time>2026-04-12T06:10:53.446Z</time></trkpt><trkpt lat="44.985685" lon="8.0889517"><ele>282.75</ele><time>2026-04-12T06:10:54.447Z</time></trkpt><trkpt lat="44.9855767" lon="8.0888917"><ele>284.5</ele><time>2026-04-12T06:10:55.446Z</time></trkpt><trkpt lat="44.9854767" lon="8.088815"><ele>286.25</ele><time>2026-04-12T06:10:56.446Z</time></trkpt><trkpt lat="44.9853733" lon="8.0887217"><ele>288.0</ele><time>2026-04-12T06:10:57.446Z</time></trkpt><trkpt lat="44.98527" lon="8.0886317"><ele>288.0</ele><time>2026-04-12T06:10:58.446Z</time></trkpt><trkpt lat="44.98517" lon="8.0885367"><ele>288.0</ele><time>2026-04-12T06:10:59.446Z</time></trkpt><trkpt lat="44.98507" lon="8.0884417"><ele>288.0</ele><time>2026-04-12T06:11:00.446Z</time></trkpt><trkpt lat="44.9849717" lon="8.0883383"><ele>288.0</ele><time>2026-04-12T06:11:01.446Z</time></trkpt><trkpt lat="44.9848733" lon="8.088225"><ele>285.5</ele><time>2026-04-12T06:11:02.446Z</time></trkpt><trkpt lat="44.9847767" lon="8.0881083"><ele>283.0</ele><time>2026-04-12T06:11:03.446Z</time></trkpt><trkpt lat="44.984685" lon="8.0879883"><ele>280.5</ele><time>2026-04-12T06:11:04.447Z</time></trkpt><trkpt lat="44.98458" lon="8.0878783"><ele>278.0</ele><time>2026-04-12T06:11:05.446Z</time></trkpt><trkpt lat="44.9844683" lon="8.0877917"><ele>278.0</ele><time>2026-04-12T06:11:06.446Z</time></trkpt><trkpt lat="44.9843583" lon="8.0877317"><ele>278.0</ele><time>2026-04-12T06:11:07.446Z</time></trkpt><trkpt lat="44.9842533" lon="8.0876867"><ele>278.0</ele><time>2026-04-12T06:11:08.446Z</time></trkpt><trkpt lat="44.9841317" lon="8.0876883"><ele>278.0</ele><time>2026-04-12T06:11:09.446Z</time></trkpt><trkpt lat="44.984015" lon="8.0876883"><ele>274.8</ele><time>2026-04-12T06:11:10.446Z</time></trkpt><trkpt lat="44.9838983" lon="8.0877083"><ele>271.6</ele><time>2026-04-12T06:11:11.446Z</time></trkpt><trkpt lat="44.9837867" lon="8.0877367"><ele>268.4</ele><time>2026-04-12T06:11:12.446Z</time></trkpt><trkpt lat="44.9836933" lon="8.0877683"><ele>265.2</ele><time>2026-04-12T06:11:13.446Z</time></trkpt><trkpt lat="44.9836017" lon="8.0877917"><ele>262.0</ele><time>2026-04-12T06:11:14.446Z</time></trkpt><trkpt lat="44.9835167" lon="8.087815"><ele>262.0</ele><time>2026-04-12T06:11:15.446Z</time></trkpt><trkpt lat="44.9834383" lon="8.08784"><ele>262.0</ele><time>2026-04-12T06:11:16.446Z</time></trkpt><trkpt lat="44.9833617" lon="8.0878683"><ele>262.0</ele><time>2026-04-12T06:11:17.446Z</time></trkpt><trkpt lat="44.98329" lon="8.08789"><ele>262.0</ele><time>2026-04-12T06:11:18.446Z</time></trkpt><trkpt lat="44.9832217" lon="8.0879117"><ele>262.0</ele><time>2026-04-12T06:11:19.446Z</time></trkpt><trkpt lat="44.983095" lon="8.0879283"><ele>262.0</ele><time>2026-04-12T06:11:21.446Z</time></trkpt><trkpt lat="44.98303" lon="8.0879383"><ele>263.0</ele><time>2026-04-12T06:11:22.446Z</time></trkpt><trkpt lat="44.9829633" lon="8.0879383"><ele>264.0</ele><time>2026-04-12T06:11:23.446Z</time></trkpt><trkpt lat="44.9829" lon="8.087935"><ele>265.0</ele><time>2026-04-12T06:11:24.446Z</time></trkpt><trkpt lat="44.9828367" lon="8.0879317"><ele>266.0</ele><time>2026-04-12T06:11:25.446Z</time></trkpt><trkpt lat="44.982715" lon="8.0878967"><ele>267.0</ele><time>2026-04-12T06:11:27.446Z</time></trkpt><trkpt lat="44.9826533" lon="8.0878717"><ele>268.0</ele><time>2026-04-12T06:11:28.446Z</time></trkpt><trkpt lat="44.9825517" lon="8.0878283"><ele>269.0</ele><time>2026-04-12T06:11:30.446Z</time></trkpt><trkpt lat="44.9824367" lon="8.0877533"><ele>270.0</ele><time>2026-04-12T06:11:32.446Z</time></trkpt><trkpt lat="44.9823267" lon="8.0876733"><ele>271.0</ele><time>2026-04-12T06:11:34.446Z</time></trkpt><trkpt lat="44.9822167" lon="8.0876133"><ele>272.0</ele><time>2026-04-12T06:11:36.446Z</time></trkpt><trkpt lat="44.9821033" lon="8.087565"><ele>272.0</ele><time>2026-04-12T06:11:38.446Z</time></trkpt><trkpt lat="44.981995" lon="8.0875117"><ele>272.0</ele><time>2026-04-12T06:11:40.446Z</time></trkpt><trkpt lat="44.981885" lon="8.0874633"><ele>272.0</ele><time>2026-04-12T06:11:42.446Z</time></trkpt><trkpt lat="44.981775" lon="8.0874217"><ele>272.0</ele><time>2026-04-12T06:11:44.446Z</time></trkpt><trkpt lat="44.98168" lon="8.08739"><ele>272.0</ele><time>2026-04-12T06:11:46.446Z</time></trkpt><trkpt lat="44.98158" lon="8.0873467"><ele>268.8</ele><time>2026-04-12T06:11:48.446Z</time></trkpt><trkpt lat="44.9814833" lon="8.0873017"><ele>265.6</ele><time>2026-04-12T06:11:50.446Z</time></trkpt><trkpt lat="44.98138" lon="8.0872533"><ele>262.40000000000003</ele><time>2026-04-12T06:11:52.446Z</time></trkpt><trkpt lat="44.981285" lon="8.08722"><ele>259.2</ele><time>2026-04-12T06:11:54.446Z</time></trkpt><trkpt lat="44.9811883" lon="8.0871783"><ele>256.0</ele><time>2026-04-12T06:11:56.446Z</time></trkpt><trkpt lat="44.98109" lon="8.0871433"><ele>256.0</ele><time>2026-04-12T06:11:58.446Z</time></trkpt><trkpt lat="44.981" lon="8.0871117"><ele>256.0</ele><time>2026-04-12T06:12:00.446Z</time></trkpt><trkpt lat="44.9809083" lon="8.087075"><ele>256.0</ele><time>2026-04-12T06:12:02.446Z</time></trkpt><trkpt lat="44.9808383" lon="8.0870183"><ele>256.0</ele><time>2026-04-12T06:12:04.446Z</time></trkpt><trkpt lat="44.98077" lon="8.0869283"><ele>256.0</ele><time>2026-04-12T06:12:06.446Z</time></trkpt><trkpt lat="44.98071" lon="8.0868283"><ele>258.8</ele><time>2026-04-12T06:12:08.446Z</time></trkpt><trkpt lat="44.9806517" lon="8.0867333"><ele>261.6</ele><time>2026-04-12T06:12:10.446Z</time></trkpt><trkpt lat="44.98061" lon="8.0866217"><ele>264.4</ele><time>2026-04-12T06:12:12.446Z</time></trkpt><trkpt lat="44.980595" lon="8.0864783"><ele>267.2</ele><time>2026-04-12T06:12:14.446Z</time></trkpt><trkpt lat="44.980575" lon="8.0863433"><ele>270.0</ele><time>2026-04-12T06:12:16.446Z</time></trkpt><trkpt lat="44.9805633" lon="8.0862"><ele>270.0</ele><time>2026-04-12T06:12:18.446Z</time></trkpt><trkpt lat="44.9805683" lon="8.0860517"><ele>270.0</ele><time>2026-04-12T06:12:20.446Z</time></trkpt><trkpt lat="44.9805717" lon="8.0858883"><ele>270.0</ele><time>2026-04-12T06:12:22.446Z</time></trkpt><trkpt lat="44.9805733" lon="8.0857117"><ele>270.0</ele><time>2026-04-12T06:12:24.446Z</time></trkpt><trkpt lat="44.9805767" lon="8.0856217"><ele>270.0</ele><time>2026-04-12T06:12:25.446Z</time></trkpt><trkpt lat="44.9805783" lon="8.0854417"><ele>269.3333333333333</ele><time>2026-04-12T06:12:27.446Z</time></trkpt><trkpt lat="44.9805817" lon="8.0853467"><ele>268.6666666666667</ele><time>2026-04-12T06:12:28.446Z</time></trkpt><trkpt lat="44.98058" lon="8.0852567"><ele>268.0</ele><time>2026-04-12T06:12:29.446Z</time></trkpt><trkpt lat="44.98057" lon="8.0851667"><ele>267.33333333333337</ele><time>2026-04-12T06:12:30.446Z</time></trkpt><trkpt lat="44.9805517" lon="8.0850733"><ele>266.6666666666667</ele><time>2026-04-12T06:12:31.446Z</time></trkpt><trkpt lat="44.980515" lon="8.08491"><ele>266.0</ele><time>2026-04-12T06:12:33.446Z</time></trkpt><trkpt lat="44.9804583" lon="8.0847533"><ele>266.0</ele><time>2026-04-12T06:12:35.446Z</time></trkpt><trkpt lat="44.980385" lon="8.0846133"><ele>266.0</ele><time>2026-04-12T06:12:37.446Z</time></trkpt><trkpt lat="44.9803117" lon="8.0844783"><ele>266.0</ele><time>2026-04-12T06:12:39.446Z</time></trkpt><trkpt lat="44.980235" lon="8.0843633"><ele>266.0</ele><time>2026-04-12T06:12:41.446Z</time></trkpt><trkpt lat="44.9801617" lon="8.084245"><ele>266.0</ele><time>2026-04-12T06:12:43.446Z</time></trkpt><trkpt lat="44.98009" lon="8.0841333"><ele>266.0</ele><time>2026-04-12T06:12:45.447Z</time></trkpt><trkpt lat="44.9800217" lon="8.083995"><ele>266.0</ele><time>2026-04-12T06:12:47.446Z</time></trkpt><trkpt lat="44.9799517" lon="8.08386"><ele>266.0</ele><time>2026-04-12T06:12:49.446Z</time></trkpt><trkpt lat="44.9798717" lon="8.0837217"><ele>265.0</ele><time>2026-04-12T06:12:51.446Z</time></trkpt><trkpt lat="44.9797883" lon="8.0836"><ele>264.0</ele><time>2026-04-12T06:12:53.446Z</time></trkpt><trkpt lat="44.9797417" lon="8.0835317"><ele>263.0</ele><time>2026-04-12T06:12:54.446Z</time></trkpt><trkpt lat="44.9796917" lon="8.0834717"><ele>262.0</ele><time>2026-04-12T06:12:55.446Z</time></trkpt><trkpt lat="44.9796417" lon="8.083415"><ele>261.0</ele><time>2026-04-12T06:12:56.447Z</time></trkpt><trkpt lat="44.9795883" lon="8.0833617"><ele>260.0</ele><time>2026-04-12T06:12:57.447Z</time></trkpt><trkpt lat="44.9794867" lon="8.0832633"><ele>260.0</ele><time>2026-04-12T06:12:59.446Z</time></trkpt><trkpt lat="44.9793883" lon="8.0831783"><ele>260.0</ele><time>2026-04-12T06:13:01.446Z</time></trkpt><trkpt lat="44.9792983" lon="8.0831"><ele>260.0</ele><time>2026-04-12T06:13:03.446Z</time></trkpt><trkpt lat="44.9792133" lon="8.0830217"><ele>260.0</ele><time>2026-04-12T06:13:05.446Z</time></trkpt><trkpt lat="44.9791083" lon="8.0829333"><ele>260.0</ele><time>2026-04-12T06:13:07.446Z</time></trkpt><trkpt lat="44.9790467" lon="8.08289"><ele>261.1666666666667</ele><time>2026-04-12T06:13:08.446Z</time></trkpt><trkpt lat="44.9789883" lon="8.0828367"><ele>262.33333333333337</ele><time>2026-04-12T06:13:09.446Z</time></trkpt><trkpt lat="44.97892" lon="8.0827783"><ele>263.5</ele><time>2026-04-12T06:13:10.446Z</time></trkpt><trkpt lat="44.978855" lon="8.0827233"><ele>264.6666666666667</ele><time>2026-04-12T06:13:11.446Z</time></trkpt><trkpt lat="44.9787917" lon="8.0826567"><ele>265.8333333333333</ele><time>2026-04-12T06:13:12.446Z</time></trkpt><trkpt lat="44.9787167" lon="8.0825783"><ele>267.0</ele><time>2026-04-12T06:13:13.446Z</time></trkpt><trkpt lat="44.97864" lon="8.0825067"><ele>265.0</ele><time>2026-04-12T06:13:14.446Z</time></trkpt><trkpt lat="44.97856" lon="8.08243"><ele>263.0</ele><time>2026-04-12T06:13:15.446Z</time></trkpt><trkpt lat="44.9784833" lon="8.082355"><ele>261.0</ele><time>2026-04-12T06:13:16.446Z</time></trkpt><trkpt lat="44.978405" lon="8.0822883"><ele>259.0</ele><time>2026-04-12T06:13:17.446Z</time></trkpt><trkpt lat="44.9783283" lon="8.08222"><ele>257.0</ele><time>2026-04-12T06:13:18.446Z</time></trkpt><trkpt lat="44.97825" lon="8.0821617"><ele>257.0</ele><time>2026-04-12T06:13:19.446Z</time></trkpt><trkpt lat="44.9781767" lon="8.0820967"><ele>257.0</ele><time>2026-04-12T06:13:20.446Z</time></trkpt><trkpt lat="44.9781083" lon="8.082035"><ele>257.0</ele><time>2026-04-12T06:13:21.446Z</time></trkpt><trkpt lat="44.978045" lon="8.081975"><ele>257.0</ele><time>2026-04-12T06:13:22.446Z</time></trkpt><trkpt lat="44.9779883" lon="8.0819183"><ele>257.0</ele><time>2026-04-12T06:13:23.446Z</time></trkpt><trkpt lat="44.9779283" lon="8.081865"><ele>257.0</ele><time>2026-04-12T06:13:24.446Z</time></trkpt><trkpt lat="44.97787" lon="8.0818133"><ele>257.0</ele><time>2026-04-12T06:13:25.446Z</time></trkpt><trkpt lat="44.9778083" lon="8.0817717"><ele>257.0</ele><time>2026-04-12T06:13:26.446Z</time></trkpt><trkpt lat="44.9777483" lon="8.08173"><ele>257.0</ele><time>2026-04-12T06:13:27.446Z</time></trkpt><trkpt lat="44.9776917" lon="8.0816867"><ele>257.0</ele><time>2026-04-12T06:13:28.446Z</time></trkpt><trkpt lat="44.97759" lon="8.081605"><ele>257.0</ele><time>2026-04-12T06:13:30.446Z</time></trkpt><trkpt lat="44.9775083" lon="8.0815283"><ele>257.0</ele><time>2026-04-12T06:13:32.446Z</time></trkpt><trkpt lat="44.9774267" lon="8.0814583"><ele>258.2</ele><time>2026-04-12T06:13:34.446Z</time></trkpt><trkpt lat="44.9773517" lon="8.08138"><ele>259.4</ele><time>2026-04-12T06:13:36.446Z</time></trkpt><trkpt lat="44.9772783" lon="8.0813233"><ele>260.6</ele><time>2026-04-12T06:13:38.446Z</time></trkpt><trkpt lat="44.9771933" lon="8.0812833"><ele>261.8</ele><time>2026-04-12T06:13:40.446Z</time></trkpt><trkpt lat="44.9770983" lon="8.0812833"><ele>263.0</ele><time>2026-04-12T06:13:42.446Z</time></trkpt><trkpt lat="44.977" lon="8.0813133"><ele>263.0</ele><time>2026-04-12T06:13:44.446Z</time></trkpt><trkpt lat="44.976915" lon="8.0813733"><ele>263.0</ele><time>2026-04-12T06:13:46.447Z</time></trkpt><trkpt lat="44.9768233" lon="8.0814517"><ele>263.0</ele><time>2026-04-12T06:13:48.446Z</time></trkpt><trkpt lat="44.97672" lon="8.0815333"><ele>263.0</ele><time>2026-04-12T06:13:50.446Z</time></trkpt><trkpt lat="44.9766117" lon="8.0816233"><ele>263.0</ele><time>2026-04-12T06:13:52.447Z</time></trkpt><trkpt lat="44.9765567" lon="8.0816767"><ele>264.5</ele><time>2026-04-12T06:13:53.446Z</time></trkpt><trkpt lat="44.9764967" lon="8.0817467"><ele>266.0</ele><time>2026-04-12T06:13:54.446Z</time></trkpt><trkpt lat="44.9764383" lon="8.0818133"><ele>267.5</ele><time>2026-04-12T06:13:55.446Z</time></trkpt><trkpt lat="44.97637" lon="8.0818683"><ele>269.0</ele><time>2026-04-12T06:13:56.446Z</time></trkpt><trkpt lat="44.9762967" lon="8.0819217"><ele>270.5</ele><time>2026-04-12T06:13:57.446Z</time></trkpt><trkpt lat="44.9762167" lon="8.08197"><ele>272.0</ele><time>2026-04-12T06:13:58.446Z</time></trkpt><trkpt lat="44.97614" lon="8.0820133"><ele>272.0</ele><time>2026-04-12T06:13:59.446Z</time></trkpt><trkpt lat="44.9760617" lon="8.082045"><ele>272.0</ele><time>2026-04-12T06:14:00.446Z</time></trkpt><trkpt lat="44.975985" lon="8.0820683"><ele>272.0</ele><time>2026-04-12T06:14:01.446Z</time></trkpt><trkpt lat="44.9759117" lon="8.0820833"><ele>272.0</ele><time>2026-04-12T06:14:02.446Z</time></trkpt><trkpt lat="44.9758433" lon="8.0820883"><ele>272.0</ele><time>2026-04-12T06:14:03.446Z</time></trkpt><trkpt lat="44.9757783" lon="8.0820967"><ele>272.0</ele><time>2026-04-12T06:14:04.446Z</time></trkpt><trkpt lat="44.9756717" lon="8.0821233"><ele>269.33333333333337</ele><time>2026-04-12T06:14:06.446Z</time></trkpt><trkpt lat="44.9755583" lon="8.0821117"><ele>266.6666666666667</ele><time>2026-04-12T06:14:08.447Z</time></trkpt><trkpt lat="44.9754933" lon="8.0820917"><ele>264.0</ele><time>2026-04-12T06:14:09.446Z</time></trkpt><trkpt lat="44.975425" lon="8.08207"><ele>261.3333333333333</ele><time>2026-04-12T06:14:10.446Z</time></trkpt><trkpt lat="44.97536" lon="8.0820533"><ele>258.66666666666663</ele><time>2026-04-12T06:14:11.446Z</time></trkpt><trkpt lat="44.9752933" lon="8.0820317"><ele>256.0</ele><time>2026-04-12T06:14:12.446Z</time></trkpt><trkpt lat="44.9752267" lon="8.0820167"><ele>255.99999999999997</ele><time>2026-04-12T06:14:13.446Z</time></trkpt><trkpt lat="44.97516" lon="8.082"><ele>256.0</ele><time>2026-04-12T06:14:14.446Z</time></trkpt><trkpt lat="44.975045" lon="8.0819633"><ele>256.0</ele><time>2026-04-12T06:14:16.446Z</time></trkpt><trkpt lat="44.97493" lon="8.0819183"><ele>256.0</ele><time>2026-04-12T06:14:18.446Z</time></trkpt><trkpt lat="44.9748667" lon="8.0818883"><ele>255.99999999999997</ele><time>2026-04-12T06:14:19.446Z</time></trkpt><trkpt lat="44.97481" lon="8.0818383"><ele>256.0</ele><time>2026-04-12T06:14:20.446Z</time></trkpt><trkpt lat="44.97475" lon="8.08178"><ele>256.8</ele><time>2026-04-12T06:14:21.446Z</time></trkpt><trkpt lat="44.9747033" lon="8.08172"><ele>257.6</ele><time>2026-04-12T06:14:22.446Z</time></trkpt><trkpt lat="44.974655" lon="8.081645"><ele>258.4</ele><time>2026-04-12T06:14:23.446Z</time></trkpt><trkpt lat="44.9745967" lon="8.08155"><ele>259.2</ele><time>2026-04-12T06:14:24.446Z</time></trkpt><trkpt lat="44.97451" lon="8.0814333"><ele>260.0</ele><time>2026-04-12T06:14:26.446Z</time></trkpt><trkpt lat="44.9743917" lon="8.0813917"><ele>259.8</ele><time>2026-04-12T06:14:28.446Z</time></trkpt><trkpt lat="44.97433" lon="8.0814233"><ele>259.6</ele><time>2026-04-12T06:14:29.446Z</time></trkpt><trkpt lat="44.9742717" lon="8.0814733"><ele>259.4</ele><time>2026-04-12T06:14:30.446Z</time></trkpt><trkpt lat="44.974185" lon="8.081595"><ele>259.2</ele><time>2026-04-12T06:14:32.446Z</time></trkpt><trkpt lat="44.9741117" lon="8.0817217"><ele>259.0</ele><time>2026-04-12T06:14:34.446Z</time></trkpt><trkpt lat="44.9740267" lon="8.0818417"><ele>259.0</ele><time>2026-04-12T06:14:36.446Z</time></trkpt><trkpt lat="44.973925" lon="8.08195"><ele>259.0</ele><time>2026-04-12T06:14:38.447Z</time></trkpt><trkpt lat="44.9738183" lon="8.0820367"><ele>259.0</ele><time>2026-04-12T06:14:40.446Z</time></trkpt><trkpt lat="44.973695" lon="8.0820683"><ele>259.0</ele><time>2026-04-12T06:14:42.446Z</time></trkpt><trkpt lat="44.9736317" lon="8.082075"><ele>259.0</ele><time>2026-04-12T06:14:43.446Z</time></trkpt><trkpt lat="44.973565" lon="8.0820733"><ele>259.0</ele><time>2026-04-12T06:14:44.446Z</time></trkpt><trkpt lat="44.9734933" lon="8.08207"><ele>259.0</ele><time>2026-04-12T06:14:45.446Z</time></trkpt><trkpt lat="44.973425" lon="8.0820733"><ele>259.0</ele><time>2026-04-12T06:14:46.446Z</time></trkpt><trkpt lat="44.9733567" lon="8.082085"><ele>259.0</ele><time>2026-04-12T06:14:47.446Z</time></trkpt><trkpt lat="44.9732867" lon="8.0820983"><ele>259.0</ele><time>2026-04-12T06:14:48.446Z</time></trkpt><trkpt lat="44.97321" lon="8.0821217"><ele>259.0</ele><time>2026-04-12T06:14:49.446Z</time></trkpt><trkpt lat="44.9731417" lon="8.082155"><ele>259.0</ele><time>2026-04-12T06:14:50.446Z</time></trkpt><trkpt lat="44.9730283" lon="8.0821933"><ele>255.0</ele><time>2026-04-12T06:14:52.446Z</time></trkpt><trkpt lat="44.9729267" lon="8.0821633"><ele>251.0</ele><time>2026-04-12T06:14:54.446Z</time></trkpt><trkpt lat="44.9728133" lon="8.0821083"><ele>247.0</ele><time>2026-04-12T06:14:56.446Z</time></trkpt><trkpt lat="44.9726933" lon="8.082085"><ele>243.0</ele><time>2026-04-12T06:14:58.446Z</time></trkpt><trkpt lat="44.9725783" lon="8.082065"><ele>244.8</ele><time>2026-04-12T06:15:00.446Z</time></trkpt><trkpt lat="44.9724567" lon="8.0820517"><ele>246.60000000000002</ele><time>2026-04-12T06:15:02.446Z</time></trkpt><trkpt lat="44.9723517" lon="8.08208"><ele>248.39999999999998</ele><time>2026-04-12T06:15:04.446Z</time></trkpt><trkpt lat="44.97227" lon="8.08216"><ele>250.2</ele><time>2026-04-12T06:15:06.446Z</time></trkpt><trkpt lat="44.9721933" lon="8.0822283"><ele>252.0</ele><time>2026-04-12T06:15:08.446Z</time></trkpt><trkpt lat="44.9721167" lon="8.0822667"><ele>252.0</ele><time>2026-04-12T06:15:10.446Z</time></trkpt><trkpt lat="44.9720433" lon="8.0823117"><ele>252.0</ele><time>2026-04-12T06:15:12.446Z</time></trkpt><trkpt lat="44.9719733" lon="8.0823417"><ele>252.0</ele><time>2026-04-12T06:15:14.446Z</time></trkpt><trkpt lat="44.9718633" lon="8.082365"><ele>252.0</ele><time>2026-04-12T06:15:16.446Z</time></trkpt><trkpt lat="44.9717467" lon="8.08239"><ele>252.0</ele><time>2026-04-12T06:15:18.446Z</time></trkpt><trkpt lat="44.971645" lon="8.0823933"><ele>251.6</ele><time>2026-04-12T06:15:20.446Z</time></trkpt><trkpt lat="44.97154" lon="8.08239"><ele>251.2</ele><time>2026-04-12T06:15:22.446Z</time></trkpt><trkpt lat="44.9714433" lon="8.0823817"><ele>250.8</ele><time>2026-04-12T06:15:24.446Z</time></trkpt><trkpt lat="44.9713333" lon="8.08238"><ele>250.4</ele><time>2026-04-12T06:15:26.446Z</time></trkpt><trkpt lat="44.9712383" lon="8.0823783"><ele>250.0</ele><time>2026-04-12T06:15:28.446Z</time></trkpt><trkpt lat="44.9711283" lon="8.0823767"><ele>249.99999999999997</ele><time>2026-04-12T06:15:30.447Z</time></trkpt><trkpt lat="44.97104" lon="8.0823917"><ele>250.0</ele><time>2026-04-12T06:15:32.446Z</time></trkpt><trkpt lat="44.9709467" lon="8.0823833"><ele>250.0</ele><time>2026-04-12T06:15:34.446Z</time></trkpt><trkpt lat="44.970865" lon="8.082385"><ele>250.0</ele><time>2026-04-12T06:15:36.446Z</time></trkpt><trkpt lat="44.9707967" lon="8.0823883"><ele>249.99999999999997</ele><time>2026-04-12T06:15:38.446Z</time></trkpt><trkpt lat="44.9707133" lon="8.0823833"><ele>250.0</ele><time>2026-04-12T06:15:40.446Z</time></trkpt><trkpt lat="44.970645" lon="8.0823717"><ele>249.2</ele><time>2026-04-12T06:15:42.446Z</time></trkpt><trkpt lat="44.9705367" lon="8.0823617"><ele>248.4</ele><time>2026-04-12T06:15:44.446Z</time></trkpt><trkpt lat="44.970455" lon="8.0823583"><ele>247.60000000000002</ele><time>2026-04-12T06:15:46.446Z</time></trkpt><trkpt lat="44.9703783" lon="8.082335"><ele>246.8</ele><time>2026-04-12T06:15:48.446Z</time></trkpt><trkpt lat="44.9702983" lon="8.0823467"><ele>246.0</ele><time>2026-04-12T06:15:50.446Z</time></trkpt><trkpt lat="44.9701767" lon="8.0823583"><ele>246.0</ele><time>2026-04-12T06:15:52.446Z</time></trkpt><trkpt lat="44.9700867" lon="8.08236"><ele>246.00000000000003</ele><time>2026-04-12T06:15:53.446Z</time></trkpt><trkpt lat="44.9700033" lon="8.08238"><ele>246.00000000000003</ele><time>2026-04-12T06:15:54.446Z</time></trkpt><trkpt lat="44.9699067" lon="8.08242"><ele>246.0</ele><time>2026-04-12T06:15:55.446Z</time></trkpt><trkpt lat="44.969805" lon="8.0824883"><ele>246.0</ele><time>2026-04-12T06:15:56.446Z</time></trkpt><trkpt lat="44.969705" lon="8.08257"><ele>246.8</ele><time>2026-04-12T06:15:57.446Z</time></trkpt><trkpt lat="44.9696" lon="8.0826333"><ele>247.60000000000002</ele><time>2026-04-12T06:15:58.446Z</time></trkpt><trkpt lat="44.9694983" lon="8.0826817"><ele>248.4</ele><time>2026-04-12T06:15:59.446Z</time></trkpt><trkpt lat="44.9694117" lon="8.0827267"><ele>249.2</ele><time>2026-04-12T06:16:00.446Z</time></trkpt><trkpt lat="44.969325" lon="8.0827633"><ele>250.0</ele><time>2026-04-12T06:16:01.446Z</time></trkpt><trkpt lat="44.9692417" lon="8.0828017"><ele>249.33333333333331</ele><time>2026-04-12T06:16:02.447Z</time></trkpt><trkpt lat="44.969165" lon="8.08284"><ele>248.66666666666666</ele><time>2026-04-12T06:16:03.446Z</time></trkpt><trkpt lat="44.9691017" lon="8.08289"><ele>248.0</ele><time>2026-04-12T06:16:04.446Z</time></trkpt><trkpt lat="44.9690317" lon="8.082935"><ele>247.33333333333331</ele><time>2026-04-12T06:16:05.446Z</time></trkpt><trkpt lat="44.968965" lon="8.082975"><ele>246.66666666666666</ele><time>2026-04-12T06:16:06.446Z</time></trkpt><trkpt lat="44.9688917" lon="8.08301"><ele>246.0</ele><time>2026-04-12T06:16:07.446Z</time></trkpt><trkpt lat="44.9688217" lon="8.0830417"><ele>246.00000000000003</ele><time>2026-04-12T06:16:08.446Z</time></trkpt><trkpt lat="44.9687467" lon="8.08306"><ele>246.0</ele><time>2026-04-12T06:16:09.446Z</time></trkpt><trkpt lat="44.9686717" lon="8.083075"><ele>246.00000000000003</ele><time>2026-04-12T06:16:10.446Z</time></trkpt><trkpt lat="44.968605" lon="8.08308"><ele>246.00000000000003</ele><time>2026-04-12T06:16:11.446Z</time></trkpt><trkpt lat="44.968535" lon="8.08307"><ele>246.0</ele><time>2026-04-12T06:16:12.446Z</time></trkpt><trkpt lat="44.9684583" lon="8.08305"><ele>246.00000000000003</ele><time>2026-04-12T06:16:13.446Z</time></trkpt><trkpt lat="44.9683783" lon="8.0830417"><ele>246.00000000000003</ele><time>2026-04-12T06:16:14.446Z</time></trkpt><trkpt lat="44.9683017" lon="8.0830317"><ele>245.5714285714286</ele><time>2026-04-12T06:16:15.446Z</time></trkpt><trkpt lat="44.9682167" lon="8.0830283"><ele>245.14285714285717</ele><time>2026-04-12T06:16:16.446Z</time></trkpt><trkpt lat="44.9681433" lon="8.08304"><ele>244.71428571428572</ele><time>2026-04-12T06:16:17.446Z</time></trkpt><trkpt lat="44.96808" lon="8.083065"><ele>244.2857142857143</ele><time>2026-04-12T06:16:18.446Z</time></trkpt><trkpt lat="44.96801" lon="8.083095"><ele>243.8571428571429</ele><time>2026-04-12T06:16:19.446Z</time></trkpt><trkpt lat="44.96794" lon="8.0831267"><ele>243.42857142857142</ele><time>2026-04-12T06:16:20.446Z</time></trkpt><trkpt lat="44.967865" lon="8.0831567"><ele>243.0</ele><time>2026-04-12T06:16:21.446Z</time></trkpt><trkpt lat="44.967795" lon="8.08319"><ele>243.0</ele><time>2026-04-12T06:16:22.447Z</time></trkpt><trkpt lat="44.96773" lon="8.08323"><ele>243.0</ele><time>2026-04-12T06:16:23.446Z</time></trkpt><trkpt lat="44.967655" lon="8.0832783"><ele>243.0</ele><time>2026-04-12T06:16:24.446Z</time></trkpt><trkpt lat="44.9675783" lon="8.0833367"><ele>243.0</ele><time>2026-04-12T06:16:25.446Z</time></trkpt><trkpt lat="44.9675" lon="8.083395"><ele>243.0</ele><time>2026-04-12T06:16:26.446Z</time></trkpt><trkpt lat="44.9674283" lon="8.08346"><ele>243.0</ele><time>2026-04-12T06:16:27.446Z</time></trkpt><trkpt lat="44.9673433" lon="8.0835217"><ele>244.0</ele><time>2026-04-12T06:16:28.446Z</time></trkpt><trkpt lat="44.96727" lon="8.0835933"><ele>245.0</ele><time>2026-04-12T06:16:29.446Z</time></trkpt><trkpt lat="44.9672033" lon="8.0836617"><ele>246.0</ele><time>2026-04-12T06:16:30.446Z</time></trkpt><trkpt lat="44.9671283" lon="8.0837433"><ele>247.0</ele><time>2026-04-12T06:16:31.446Z</time></trkpt><trkpt lat="44.9670517" lon="8.083825"><ele>248.0</ele><time>2026-04-12T06:16:32.446Z</time></trkpt><trkpt lat="44.9669783" lon="8.0839017"><ele>248.00000000000003</ele><time>2026-04-12T06:16:33.446Z</time></trkpt><trkpt lat="44.9669083" lon="8.083965"><ele>248.0</ele><time>2026-04-12T06:16:34.446Z</time></trkpt><trkpt lat="44.9668367" lon="8.0840317"><ele>248.0</ele><time>2026-04-12T06:16:35.446Z</time></trkpt><trkpt lat="44.9667633" lon="8.084085"><ele>248.0</ele><time>2026-04-12T06:16:36.446Z</time></trkpt><trkpt lat="44.9666933" lon="8.0841367"><ele>248.00000000000003</ele><time>2026-04-12T06:16:37.446Z</time></trkpt><trkpt lat="44.96661" lon="8.0841767"><ele>248.0</ele><time>2026-04-12T06:16:38.446Z</time></trkpt><trkpt lat="44.9665267" lon="8.0842083"><ele>247.16666666666669</ele><time>2026-04-12T06:16:39.446Z</time></trkpt><trkpt lat="44.9664467" lon="8.0842333"><ele>246.33333333333334</ele><time>2026-04-12T06:16:40.446Z</time></trkpt><trkpt lat="44.9663683" lon="8.0842533"><ele>245.5</ele><time>2026-04-12T06:16:41.446Z</time></trkpt><trkpt lat="44.9662883" lon="8.0842667"><ele>244.66666666666669</ele><time>2026-04-12T06:16:42.446Z</time></trkpt><trkpt lat="44.966215" lon="8.0842733"><ele>243.83333333333334</ele><time>2026-04-12T06:16:43.446Z</time></trkpt><trkpt lat="44.9661167" lon="8.0842817"><ele>243.0</ele><time>2026-04-12T06:16:45.446Z</time></trkpt><trkpt lat="44.9660417" lon="8.08428"><ele>243.0</ele><time>2026-04-12T06:16:48.446Z</time></trkpt><trkpt lat="44.9659833" lon="8.0843683"><ele>243.0</ele><time>2026-04-12T06:17:08.446Z</time></trkpt><trkpt lat="44.96589" lon="8.0844067"><ele>243.0</ele><time>2026-04-12T06:17:10.446Z</time></trkpt><trkpt lat="44.9657767" lon="8.084445"><ele>243.0</ele><time>2026-04-12T06:17:12.446Z</time></trkpt><trkpt lat="44.965705" lon="8.08446"><ele>243.0</ele><time>2026-04-12T06:17:13.446Z</time></trkpt><trkpt lat="44.9656333" lon="8.084465"><ele>243.0</ele><time>2026-04-12T06:17:14.446Z</time></trkpt><trkpt lat="44.96556" lon="8.0844633"><ele>243.5</ele><time>2026-04-12T06:17:15.446Z</time></trkpt><trkpt lat="44.9654767" lon="8.0844417"><ele>244.0</ele><time>2026-04-12T06:17:16.447Z</time></trkpt><trkpt lat="44.9653867" lon="8.084415"><ele>244.5</ele><time>2026-04-12T06:17:17.447Z</time></trkpt><trkpt lat="44.96531" lon="8.084385"><ele>245.0</ele><time>2026-04-12T06:17:18.446Z</time></trkpt><trkpt lat="44.9652267" lon="8.0843683"><ele>245.5</ele><time>2026-04-12T06:17:19.446Z</time></trkpt><trkpt lat="44.9651383" lon="8.0843617"><ele>246.0</ele><time>2026-04-12T06:17:20.446Z</time></trkpt><trkpt lat="44.9650633" lon="8.084365"><ele>245.5714285714286</ele><time>2026-04-12T06:17:21.446Z</time></trkpt><trkpt lat="44.9649983" lon="8.0843767"><ele>245.14285714285717</ele><time>2026-04-12T06:17:22.446Z</time></trkpt><trkpt lat="44.9649333" lon="8.0843967"><ele>244.71428571428572</ele><time>2026-04-12T06:17:23.446Z</time></trkpt><trkpt lat="44.9648733" lon="8.084435"><ele>244.2857142857143</ele><time>2026-04-12T06:17:24.446Z</time></trkpt><trkpt lat="44.964805" lon="8.0844833"><ele>243.8571428571429</ele><time>2026-04-12T06:17:25.446Z</time></trkpt><trkpt lat="44.96474" lon="8.08454"><ele>243.42857142857142</ele><time>2026-04-12T06:17:26.446Z</time></trkpt><trkpt lat="44.9646833" lon="8.084605"><ele>243.0</ele><time>2026-04-12T06:17:27.446Z</time></trkpt><trkpt lat="44.96463" lon="8.0846767"><ele>243.0</ele><time>2026-04-12T06:17:28.446Z</time></trkpt><trkpt lat="44.9645667" lon="8.0847533"><ele>243.0</ele><time>2026-04-12T06:17:29.446Z</time></trkpt><trkpt lat="44.9645" lon="8.084845"><ele>243.0</ele><time>2026-04-12T06:17:30.446Z</time></trkpt><trkpt lat="44.9644333" lon="8.0849333"><ele>243.0</ele><time>2026-04-12T06:17:31.446Z</time></trkpt><trkpt lat="44.9643683" lon="8.08501"><ele>243.0</ele><time>2026-04-12T06:17:32.446Z</time></trkpt><trkpt lat="44.9642967" lon="8.085075"><ele>243.0</ele><time>2026-04-12T06:17:33.446Z</time></trkpt><trkpt lat="44.96423" lon="8.0851283"><ele>242.66666666666666</ele><time>2026-04-12T06:17:34.446Z</time></trkpt><trkpt lat="44.964155" lon="8.08517"><ele>242.33333333333331</ele><time>2026-04-12T06:17:35.446Z</time></trkpt><trkpt lat="44.9640717" lon="8.0851833"><ele>242.0</ele><time>2026-04-12T06:17:36.446Z</time></trkpt><trkpt lat="44.963985" lon="8.0851767"><ele>241.66666666666666</ele><time>2026-04-12T06:17:37.446Z</time></trkpt><trkpt lat="44.9639017" lon="8.0851617"><ele>241.33333333333331</ele><time>2026-04-12T06:17:38.446Z</time></trkpt><trkpt lat="44.963825" lon="8.0851367"><ele>241.0</ele><time>2026-04-12T06:17:39.446Z</time></trkpt><trkpt lat="44.9637567" lon="8.0851033"><ele>241.0</ele><time>2026-04-12T06:17:40.446Z</time></trkpt><trkpt lat="44.9636867" lon="8.08507"><ele>241.00000000000003</ele><time>2026-04-12T06:17:41.446Z</time></trkpt><trkpt lat="44.9636183" lon="8.0850233"><ele>241.0</ele><time>2026-04-12T06:17:42.446Z</time></trkpt><trkpt lat="44.963555" lon="8.08497"><ele>241.0</ele><time>2026-04-12T06:17:43.446Z</time></trkpt><trkpt lat="44.9634967" lon="8.084915"><ele>241.00000000000003</ele><time>2026-04-12T06:17:44.446Z</time></trkpt><trkpt lat="44.9634383" lon="8.0848583"><ele>241.0</ele><time>2026-04-12T06:17:45.446Z</time></trkpt><trkpt lat="44.9633783" lon="8.0848033"><ele>241.0</ele><time>2026-04-12T06:17:46.446Z</time></trkpt><trkpt lat="44.9633233" lon="8.08475"><ele>241.0</ele><time>2026-04-12T06:17:47.446Z</time></trkpt><trkpt lat="44.9632633" lon="8.0847"><ele>241.00000000000003</ele><time>2026-04-12T06:17:48.446Z</time></trkpt><trkpt lat="44.9632033" lon="8.0846467"><ele>241.00000000000003</ele><time>2026-04-12T06:17:49.446Z</time></trkpt><trkpt lat="44.9631" lon="8.0845467"><ele>241.0</ele><time>2026-04-12T06:17:51.446Z</time></trkpt><trkpt lat="44.9630117" lon="8.0844267"><ele>241.0</ele><time>2026-04-12T06:17:53.446Z</time></trkpt><trkpt lat="44.9629617" lon="8.08436"><ele>240.99999999999997</ele><time>2026-04-12T06:17:54.446Z</time></trkpt><trkpt lat="44.9628917" lon="8.0842283"><ele>241.0</ele><time>2026-04-12T06:17:56.446Z</time></trkpt><trkpt lat="44.9628367" lon="8.0840817"><ele>241.0</ele><time>2026-04-12T06:17:58.446Z</time></trkpt><trkpt lat="44.9628117" lon="8.083995"><ele>241.0</ele><time>2026-04-12T06:17:59.446Z</time></trkpt><trkpt lat="44.962785" lon="8.0839033"><ele>240.99999999999997</ele><time>2026-04-12T06:18:00.446Z</time></trkpt><trkpt lat="44.9627517" lon="8.0838117"><ele>241.0</ele><time>2026-04-12T06:18:01.446Z</time></trkpt><trkpt lat="44.9627133" lon="8.0837333"><ele>239.83333333333331</ele><time>2026-04-12T06:18:02.446Z</time></trkpt><trkpt lat="44.9626617" lon="8.0836767"><ele>238.66666666666666</ele><time>2026-04-12T06:18:03.446Z</time></trkpt><trkpt lat="44.9626033" lon="8.0836433"><ele>237.5</ele><time>2026-04-12T06:18:04.446Z</time></trkpt><trkpt lat="44.9624783" lon="8.0836033"><ele>236.33333333333331</ele><time>2026-04-12T06:18:06.446Z</time></trkpt><trkpt lat="44.962415" lon="8.0835817"><ele>235.16666666666666</ele><time>2026-04-12T06:18:07.446Z</time></trkpt><trkpt lat="44.962345" lon="8.0835667"><ele>234.0</ele><time>2026-04-12T06:18:08.446Z</time></trkpt><trkpt lat="44.9622733" lon="8.0835433"><ele>233.57142857142858</ele><time>2026-04-12T06:18:09.446Z</time></trkpt><trkpt lat="44.9622" lon="8.0835167"><ele>233.14285714285717</ele><time>2026-04-12T06:18:10.447Z</time></trkpt><trkpt lat="44.9621333" lon="8.0834783"><ele>232.71428571428572</ele><time>2026-04-12T06:18:11.446Z</time></trkpt><trkpt lat="44.9620733" lon="8.083435"><ele>232.28571428571428</ele><time>2026-04-12T06:18:12.446Z</time></trkpt><trkpt lat="44.9620133" lon="8.08339"><ele>231.85714285714286</ele><time>2026-04-12T06:18:13.446Z</time></trkpt><trkpt lat="44.9619467" lon="8.0833517"><ele>231.42857142857144</ele><time>2026-04-12T06:18:14.446Z</time></trkpt><trkpt lat="44.9618783" lon="8.083295"><ele>231.0</ele><time>2026-04-12T06:18:15.446Z</time></trkpt><trkpt lat="44.9618117" lon="8.083245"><ele>230.71428571428572</ele><time>2026-04-12T06:18:16.446Z</time></trkpt><trkpt lat="44.961755" lon="8.0831883"><ele>230.42857142857144</ele><time>2026-04-12T06:18:17.446Z</time></trkpt><trkpt lat="44.9617" lon="8.08314"><ele>230.14285714285714</ele><time>2026-04-12T06:18:18.446Z</time></trkpt><trkpt lat="44.9616467" lon="8.0830817"><ele>229.85714285714286</ele><time>2026-04-12T06:18:19.446Z</time></trkpt><trkpt lat="44.9615933" lon="8.083025"><ele>229.57142857142858</ele><time>2026-04-12T06:18:20.446Z</time></trkpt><trkpt lat="44.96154" lon="8.08297"><ele>229.28571428571428</ele><time>2026-04-12T06:18:21.446Z</time></trkpt><trkpt lat="44.9614933" lon="8.08291"><ele>229.0</ele><time>2026-04-12T06:18:22.446Z</time></trkpt><trkpt lat="44.9614283" lon="8.0827733"><ele>229.0</ele><time>2026-04-12T06:18:24.446Z</time></trkpt><trkpt lat="44.9614367" lon="8.082625"><ele>229.0</ele><time>2026-04-12T06:18:26.446Z</time></trkpt><trkpt lat="44.96147" lon="8.08246"><ele>229.0</ele><time>2026-04-12T06:18:28.446Z</time></trkpt><trkpt lat="44.9614683" lon="8.082295"><ele>229.0</ele><time>2026-04-12T06:18:30.446Z</time></trkpt><trkpt lat="44.961425" lon="8.0821433"><ele>228.5</ele><time>2026-04-12T06:18:32.446Z</time></trkpt><trkpt lat="44.96137" lon="8.082"><ele>228.0</ele><time>2026-04-12T06:18:34.446Z</time></trkpt><trkpt lat="44.9613" lon="8.081885"><ele>227.5</ele><time>2026-04-12T06:18:36.446Z</time></trkpt><trkpt lat="44.9611933" lon="8.0818"><ele>227.0</ele><time>2026-04-12T06:18:38.446Z</time></trkpt><trkpt lat="44.9610867" lon="8.0817283"><ele>227.0</ele><time>2026-04-12T06:18:40.446Z</time></trkpt><trkpt lat="44.9609817" lon="8.081655"><ele>227.0</ele><time>2026-04-12T06:18:42.446Z</time></trkpt><trkpt lat="44.9609117" lon="8.081595"><ele>227.0</ele><time>2026-04-12T06:18:44.446Z</time></trkpt><trkpt lat="44.96085" lon="8.0816183"><ele>227.0</ele><time>2026-04-12T06:18:46.446Z</time></trkpt><trkpt lat="44.9608317" lon="8.0817217"><ele>227.0</ele><time>2026-04-12T06:18:48.446Z</time></trkpt><trkpt lat="44.9608733" lon="8.0818867"><ele>227.00000000000003</ele><time>2026-04-12T06:18:50.446Z</time></trkpt><trkpt lat="44.9609033" lon="8.08197"><ele>227.0</ele><time>2026-04-12T06:18:51.446Z</time></trkpt><trkpt lat="44.9609333" lon="8.0821083"><ele>227.0</ele><time>2026-04-12T06:18:53.446Z</time></trkpt><trkpt lat="44.9609533" lon="8.082245"><ele>227.0</ele><time>2026-04-12T06:18:55.446Z</time></trkpt><trkpt lat="44.9609567" lon="8.0823733"><ele>227.00000000000003</ele><time>2026-04-12T06:18:57.446Z</time></trkpt><trkpt lat="44.9609583" lon="8.0824983"><ele>227.0</ele><time>2026-04-12T06:18:59.447Z</time></trkpt><trkpt lat="44.9609333" lon="8.0826033"><ele>224.66666666666669</ele><time>2026-04-12T06:19:01.446Z</time></trkpt><trkpt lat="44.960865" lon="8.08264"><ele>222.33333333333334</ele><time>2026-04-12T06:19:04.446Z</time></trkpt><trkpt lat="44.9608017" lon="8.082585"><ele>220.0</ele><time>2026-04-12T06:19:06.447Z</time></trkpt><trkpt lat="44.9607367" lon="8.0824917"><ele>217.66666666666669</ele><time>2026-04-12T06:19:08.446Z</time></trkpt><trkpt lat="44.960685" lon="8.0823917"><ele>215.33333333333334</ele><time>2026-04-12T06:19:10.446Z</time></trkpt><trkpt lat="44.9606183" lon="8.082405"><ele>213.0</ele><time>2026-04-12T06:19:25.446Z</time></trkpt><trkpt lat="44.96065" lon="8.082515"><ele>212.0</ele><time>2026-04-12T06:19:28.446Z</time></trkpt><trkpt lat="44.960685" lon="8.0826033"><ele>211.0</ele><time>2026-04-12T06:19:30.446Z</time></trkpt><trkpt lat="44.9607283" lon="8.08271"><ele>210.0</ele><time>2026-04-12T06:19:32.446Z</time></trkpt><trkpt lat="44.960765" lon="8.0828267"><ele>209.0</ele><time>2026-04-12T06:19:34.446Z</time></trkpt><trkpt lat="44.96081" lon="8.0829467"><ele>208.0</ele><time>2026-04-12T06:19:36.446Z</time></trkpt><trkpt lat="44.960855" lon="8.0830517"><ele>207.0</ele><time>2026-04-12T06:19:38.446Z</time></trkpt><trkpt lat="44.9609033" lon="8.0831567"><ele>210.0</ele><time>2026-04-12T06:19:40.446Z</time></trkpt><trkpt lat="44.96096" lon="8.08328"><ele>213.0</ele><time>2026-04-12T06:19:42.446Z</time></trkpt><trkpt lat="44.9610367" lon="8.0833967"><ele>216.0</ele><time>2026-04-12T06:19:44.446Z</time></trkpt><trkpt lat="44.9611033" lon="8.0835017"><ele>219.0</ele><time>2026-04-12T06:19:46.446Z</time></trkpt><trkpt lat="44.9611633" lon="8.0836033"><ele>222.0</ele><time>2026-04-12T06:19:48.446Z</time></trkpt><trkpt lat="44.961235" lon="8.0837033"><ele>222.0</ele><time>2026-04-12T06:19:50.446Z</time></trkpt><trkpt lat="44.96131" lon="8.083795"><ele>222.0</ele><time>2026-04-12T06:19:52.446Z</time></trkpt><trkpt lat="44.9613867" lon="8.0838867"><ele>222.0</ele><time>2026-04-12T06:19:54.446Z</time></trkpt><trkpt lat="44.961465" lon="8.08398"><ele>222.0</ele><time>2026-04-12T06:19:56.446Z</time></trkpt><trkpt lat="44.9615383" lon="8.0840683"><ele>222.0</ele><time>2026-04-12T06:19:58.446Z</time></trkpt><trkpt lat="44.961595" lon="8.0841583"><ele>222.8</ele><time>2026-04-12T06:20:00.446Z</time></trkpt><trkpt lat="44.961665" lon="8.0842517"><ele>223.6</ele><time>2026-04-12T06:20:02.446Z</time></trkpt><trkpt lat="44.9617483" lon="8.084355"><ele>224.40000000000003</ele><time>2026-04-12T06:20:04.446Z</time></trkpt><trkpt lat="44.9618267" lon="8.084465"><ele>225.20000000000002</ele><time>2026-04-12T06:20:06.446Z</time></trkpt><trkpt lat="44.9618933" lon="8.0845683"><ele>226.0</ele><time>2026-04-12T06:20:08.446Z</time></trkpt><trkpt lat="44.961965" lon="8.0846667"><ele>226.0</ele><time>2026-04-12T06:20:10.446Z</time></trkpt><trkpt lat="44.9620433" lon="8.08476"><ele>226.00000000000003</ele><time>2026-04-12T06:20:12.446Z</time></trkpt><trkpt lat="44.96211" lon="8.084855"><ele>226.00000000000003</ele><time>2026-04-12T06:20:14.446Z</time></trkpt><trkpt lat="44.96217" lon="8.0849517"><ele>226.0</ele><time>2026-04-12T06:20:16.446Z</time></trkpt><trkpt lat="44.96223" lon="8.085045"><ele>226.0</ele><time>2026-04-12T06:20:18.446Z</time></trkpt><trkpt lat="44.96229" lon="8.08514"><ele>224.49999999999997</ele><time>2026-04-12T06:20:20.446Z</time></trkpt><trkpt lat="44.962345" lon="8.0852317"><ele>223.0</ele><time>2026-04-12T06:20:22.446Z</time></trkpt><trkpt lat="44.9624017" lon="8.0853283"><ele>221.5</ele><time>2026-04-12T06:20:24.447Z</time></trkpt><trkpt lat="44.9624483" lon="8.0854217"><ele>220.0</ele><time>2026-04-12T06:20:26.447Z</time></trkpt><trkpt lat="44.9624883" lon="8.085525"><ele>218.49999999999997</ele><time>2026-04-12T06:20:28.447Z</time></trkpt><trkpt lat="44.9625217" lon="8.0856483"><ele>217.0</ele><time>2026-04-12T06:20:30.447Z</time></trkpt><trkpt lat="44.9625283" lon="8.0857683"><ele>217.0</ele><time>2026-04-12T06:20:32.447Z</time></trkpt><trkpt lat="44.9625283" lon="8.085875"><ele>217.0</ele><time>2026-04-12T06:20:34.447Z</time></trkpt><trkpt lat="44.9625083" lon="8.0859667"><ele>217.0</ele><time>2026-04-12T06:20:36.447Z</time></trkpt><trkpt lat="44.962485" lon="8.08605"><ele>217.0</ele><time>2026-04-12T06:20:38.447Z</time></trkpt><trkpt lat="44.9624483" lon="8.0861367"><ele>217.0</ele><time>2026-04-12T06:20:40.447Z</time></trkpt><trkpt lat="44.9624267" lon="8.0862267"><ele>217.0</ele><time>2026-04-12T06:20:42.447Z</time></trkpt><trkpt lat="44.9624167" lon="8.08633"><ele>217.0</ele><time>2026-04-12T06:20:44.447Z</time></trkpt><trkpt lat="44.9624017" lon="8.08643"><ele>216.99999999999997</ele><time>2026-04-12T06:20:46.447Z</time></trkpt><trkpt lat="44.9623767" lon="8.0865517"><ele>217.0</ele><time>2026-04-12T06:20:49.447Z</time></trkpt><trkpt lat="44.9623567" lon="8.08665"><ele>217.0</ele><time>2026-04-12T06:20:52.447Z</time></trkpt><trkpt lat="44.96233" lon="8.08677"><ele>217.0</ele><time>2026-04-12T06:20:55.447Z</time></trkpt><trkpt lat="44.96231" lon="8.086885"><ele>216.99999999999997</ele><time>2026-04-12T06:20:58.447Z</time></trkpt><trkpt lat="44.9622967" lon="8.0870017"><ele>217.0</ele><time>2026-04-12T06:21:01.447Z</time></trkpt><trkpt lat="44.96228" lon="8.0871167"><ele>218.83333333333331</ele><time>2026-04-12T06:21:04.447Z</time></trkpt><trkpt lat="44.9622567" lon="8.08723"><ele>220.66666666666666</ele><time>2026-04-12T06:21:07.447Z</time></trkpt><trkpt lat="44.9622533" lon="8.087355"><ele>222.5</ele><time>2026-04-12T06:21:10.447Z</time></trkpt><trkpt lat="44.9622567" lon="8.0874767"><ele>224.33333333333331</ele><time>2026-04-12T06:21:13.447Z</time></trkpt><trkpt lat="44.9622517" lon="8.087585"><ele>226.16666666666666</ele><time>2026-04-12T06:21:16.447Z</time></trkpt><trkpt lat="44.9622383" lon="8.08769"><ele>228.0</ele><time>2026-04-12T06:21:19.447Z</time></trkpt><trkpt lat="44.9622267" lon="8.0877983"><ele>229.66666666666666</ele><time>2026-04-12T06:21:22.447Z</time></trkpt><trkpt lat="44.9622183" lon="8.0879183"><ele>231.33333333333331</ele><time>2026-04-12T06:21:25.447Z</time></trkpt><trkpt lat="44.9622083" lon="8.0880367"><ele>233.0</ele><time>2026-04-12T06:21:28.447Z</time></trkpt><trkpt lat="44.9622" lon="8.088145"><ele>234.66666666666666</ele><time>2026-04-12T06:21:31.447Z</time></trkpt><trkpt lat="44.9621917" lon="8.0882433"><ele>236.33333333333331</ele><time>2026-04-12T06:21:34.447Z</time></trkpt><trkpt lat="44.9621867" lon="8.088355"><ele>238.0</ele><time>2026-04-12T06:21:37.447Z</time></trkpt><trkpt lat="44.9622133" lon="8.088485"><ele>238.8</ele><time>2026-04-12T06:21:40.447Z</time></trkpt><trkpt lat="44.9622517" lon="8.08859"><ele>239.60000000000002</ele><time>2026-04-12T06:21:42.448Z</time></trkpt><trkpt lat="44.9623067" lon="8.08871"><ele>240.39999999999998</ele><time>2026-04-12T06:21:44.447Z</time></trkpt><trkpt lat="44.96237" lon="8.08887"><ele>241.2</ele><time>2026-04-12T06:21:46.447Z</time></trkpt><trkpt lat="44.962405" lon="8.088965"><ele>242.0</ele><time>2026-04-12T06:21:47.447Z</time></trkpt><trkpt lat="44.9624283" lon="8.089075"><ele>239.8</ele><time>2026-04-12T06:21:48.447Z</time></trkpt><trkpt lat="44.9624317" lon="8.0892033"><ele>237.6</ele><time>2026-04-12T06:21:49.447Z</time></trkpt><trkpt lat="44.9624183" lon="8.08934"><ele>235.40000000000003</ele><time>2026-04-12T06:21:50.447Z</time></trkpt><trkpt lat="44.962385" lon="8.0894833"><ele>233.20000000000002</ele><time>2026-04-12T06:21:51.447Z</time></trkpt><trkpt lat="44.9623383" lon="8.0896233"><ele>231.0</ele><time>2026-04-12T06:21:52.447Z</time></trkpt><trkpt lat="44.9622933" lon="8.0897667"><ele>231.0</ele><time>2026-04-12T06:21:53.447Z</time></trkpt><trkpt lat="44.9622517" lon="8.0899083"><ele>231.00000000000003</ele><time>2026-04-12T06:21:54.447Z</time></trkpt><trkpt lat="44.9622233" lon="8.0900567"><ele>231.00000000000003</ele><time>2026-04-12T06:21:55.447Z</time></trkpt><trkpt lat="44.9622167" lon="8.0902083"><ele>231.0</ele><time>2026-04-12T06:21:56.447Z</time></trkpt><trkpt lat="44.9622383" lon="8.090355"><ele>231.0</ele><time>2026-04-12T06:21:57.447Z</time></trkpt><trkpt lat="44.9622717" lon="8.0904983"><ele>228.60000000000002</ele><time>2026-04-12T06:21:58.447Z</time></trkpt><trkpt lat="44.9623167" lon="8.0906233"><ele>226.20000000000002</ele><time>2026-04-12T06:21:59.447Z</time></trkpt><trkpt lat="44.9623817" lon="8.0907517"><ele>223.79999999999998</ele><time>2026-04-12T06:22:00.447Z</time></trkpt><trkpt lat="44.96244" lon="8.0908733"><ele>221.39999999999998</ele><time>2026-04-12T06:22:01.447Z</time></trkpt><trkpt lat="44.9624967" lon="8.0909733"><ele>219.0</ele><time>2026-04-12T06:22:02.447Z</time></trkpt><trkpt lat="44.9625517" lon="8.091065"><ele>219.5</ele><time>2026-04-12T06:22:03.447Z</time></trkpt><trkpt lat="44.962605" lon="8.091155"><ele>220.0</ele><time>2026-04-12T06:22:04.447Z</time></trkpt><trkpt lat="44.9626567" lon="8.0912367"><ele>220.5</ele><time>2026-04-12T06:22:05.447Z</time></trkpt><trkpt lat="44.9627083" lon="8.0913133"><ele>221.0</ele><time>2026-04-12T06:22:06.447Z</time></trkpt><trkpt lat="44.962755" lon="8.0913867"><ele>221.5</ele><time>2026-04-12T06:22:07.447Z</time></trkpt><trkpt lat="44.9627917" lon="8.091535"><ele>222.0</ele><time>2026-04-12T06:22:09.447Z</time></trkpt><trkpt lat="44.962725" lon="8.0916433"><ele>222.0</ele><time>2026-04-12T06:22:11.447Z</time></trkpt><trkpt lat="44.9626367" lon="8.09176"><ele>222.0</ele><time>2026-04-12T06:22:13.447Z</time></trkpt><trkpt lat="44.9625517" lon="8.09188"><ele>222.0</ele><time>2026-04-12T06:22:15.447Z</time></trkpt><trkpt lat="44.9624733" lon="8.0920067"><ele>222.0</ele><time>2026-04-12T06:22:17.447Z</time></trkpt><trkpt lat="44.9623917" lon="8.0921183"><ele>220.66666666666666</ele><time>2026-04-12T06:22:19.447Z</time></trkpt><trkpt lat="44.9623117" lon="8.0922133"><ele>219.33333333333331</ele><time>2026-04-12T06:22:21.447Z</time></trkpt><trkpt lat="44.9622417" lon="8.0923033"><ele>218.0</ele><time>2026-04-12T06:22:23.447Z</time></trkpt><trkpt lat="44.962195" lon="8.0923883"><ele>216.66666666666666</ele><time>2026-04-12T06:22:25.447Z</time></trkpt><trkpt lat="44.9621433" lon="8.0924567"><ele>215.33333333333331</ele><time>2026-04-12T06:22:27.448Z</time></trkpt><trkpt lat="44.9620817" lon="8.0925417"><ele>214.0</ele><time>2026-04-12T06:22:29.447Z</time></trkpt><trkpt lat="44.9620333" lon="8.092645"><ele>213.99999999999997</ele><time>2026-04-12T06:22:31.447Z</time></trkpt><trkpt lat="44.9619967" lon="8.0927217"><ele>214.0</ele><time>2026-04-12T06:22:32.447Z</time></trkpt><trkpt lat="44.9619567" lon="8.0927933"><ele>214.0</ele><time>2026-04-12T06:22:33.447Z</time></trkpt><trkpt lat="44.96189" lon="8.0929"><ele>214.0</ele><time>2026-04-12T06:22:35.447Z</time></trkpt><trkpt lat="44.9618183" lon="8.0930033"><ele>213.99999999999997</ele><time>2026-04-12T06:22:37.447Z</time></trkpt><trkpt lat="44.961745" lon="8.09312"><ele>214.0</ele><time>2026-04-12T06:22:39.447Z</time></trkpt><trkpt lat="44.9616983" lon="8.0931833"><ele>213.42857142857144</ele><time>2026-04-12T06:22:40.447Z</time></trkpt><trkpt lat="44.9616483" lon="8.09325"><ele>212.85714285714286</ele><time>2026-04-12T06:22:41.447Z</time></trkpt><trkpt lat="44.961585" lon="8.0933133"><ele>212.28571428571428</ele><time>2026-04-12T06:22:42.448Z</time></trkpt><trkpt lat="44.9615283" lon="8.09337"><ele>211.71428571428572</ele><time>2026-04-12T06:22:43.447Z</time></trkpt><trkpt lat="44.9614783" lon="8.0934333"><ele>211.14285714285714</ele><time>2026-04-12T06:22:44.447Z</time></trkpt><trkpt lat="44.9614267" lon="8.0934967"><ele>210.57142857142858</ele><time>2026-04-12T06:22:45.447Z</time></trkpt><trkpt lat="44.9613783" lon="8.0935617"><ele>210.0</ele><time>2026-04-12T06:22:46.447Z</time></trkpt><trkpt lat="44.96133" lon="8.0936233"><ele>209.71428571428572</ele><time>2026-04-12T06:22:47.447Z</time></trkpt><trkpt lat="44.9612817" lon="8.0936833"><ele>209.42857142857144</ele><time>2026-04-12T06:22:48.447Z</time></trkpt><trkpt lat="44.9612367" lon="8.093755"><ele>209.14285714285714</ele><time>2026-04-12T06:22:49.447Z</time></trkpt><trkpt lat="44.96119" lon="8.0938167"><ele>208.85714285714286</ele><time>2026-04-12T06:22:50.447Z</time></trkpt><trkpt lat="44.9611417" lon="8.09389"><ele>208.57142857142858</ele><time>2026-04-12T06:22:51.447Z</time></trkpt><trkpt lat="44.9610967" lon="8.0939683"><ele>208.28571428571428</ele><time>2026-04-12T06:22:52.447Z</time></trkpt><trkpt lat="44.9610517" lon="8.09405"><ele>208.0</ele><time>2026-04-12T06:22:53.447Z</time></trkpt><trkpt lat="44.9610117" lon="8.0941233"><ele>208.66666666666666</ele><time>2026-04-12T06:22:54.447Z</time></trkpt><trkpt lat="44.9609683" lon="8.0941933"><ele>209.33333333333331</ele><time>2026-04-12T06:22:55.447Z</time></trkpt><trkpt lat="44.9609267" lon="8.0942617"><ele>210.0</ele><time>2026-04-12T06:22:56.447Z</time></trkpt><trkpt lat="44.9608833" lon="8.09433"><ele>210.66666666666669</ele><time>2026-04-12T06:22:57.447Z</time></trkpt><trkpt lat="44.9608067" lon="8.094465"><ele>211.33333333333334</ele><time>2026-04-12T06:22:59.448Z</time></trkpt><trkpt lat="44.960715" lon="8.0945883"><ele>212.0</ele><time>2026-04-12T06:23:01.447Z</time></trkpt><trkpt lat="44.9606233" lon="8.0946983"><ele>212.0</ele><time>2026-04-12T06:23:03.447Z</time></trkpt><trkpt lat="44.9605733" lon="8.0947617"><ele>212.0</ele><time>2026-04-12T06:23:04.447Z</time></trkpt><trkpt lat="44.96053" lon="8.0948383"><ele>212.0</ele><time>2026-04-12T06:23:05.447Z</time></trkpt><trkpt lat="44.960495" lon="8.0949133"><ele>212.0</ele><time>2026-04-12T06:23:06.447Z</time></trkpt><trkpt lat="44.9604617" lon="8.0949917"><ele>212.0</ele><time>2026-04-12T06:23:07.447Z</time></trkpt><trkpt lat="44.960435" lon="8.095075"><ele>212.0</ele><time>2026-04-12T06:23:08.447Z</time></trkpt><trkpt lat="44.9604067" lon="8.0951633"><ele>212.0</ele><time>2026-04-12T06:23:09.447Z</time></trkpt><trkpt lat="44.9603767" lon="8.095255"><ele>212.0</ele><time>2026-04-12T06:23:10.447Z</time></trkpt><trkpt lat="44.9603383" lon="8.09535"><ele>212.0</ele><time>2026-04-12T06:23:11.447Z</time></trkpt><trkpt lat="44.9603067" lon="8.0954433"><ele>212.0</ele><time>2026-04-12T06:23:12.447Z</time></trkpt><trkpt lat="44.9602717" lon="8.0955267"><ele>212.0</ele><time>2026-04-12T06:23:13.447Z</time></trkpt><trkpt lat="44.9602317" lon="8.0956067"><ele>212.0</ele><time>2026-04-12T06:23:14.447Z</time></trkpt><trkpt lat="44.960195" lon="8.09569"><ele>212.0</ele><time>2026-04-12T06:23:15.447Z</time></trkpt><trkpt lat="44.9601583" lon="8.0957783"><ele>212.0</ele><time>2026-04-12T06:23:16.447Z</time></trkpt><trkpt lat="44.96012" lon="8.09586"><ele>212.0</ele><time>2026-04-12T06:23:17.447Z</time></trkpt><trkpt lat="44.9600733" lon="8.0959683"><ele>212.0</ele><time>2026-04-12T06:23:19.447Z</time></trkpt><trkpt lat="44.9600533" lon="8.095825"><ele>212.0</ele><time>2026-04-12T06:23:31.447Z</time></trkpt><trkpt lat="44.9601267" lon="8.0956517"><ele>212.0</ele><time>2026-04-12T06:23:33.447Z</time></trkpt><trkpt lat="44.96016" lon="8.095755"><ele>212.0</ele><time>2026-04-12T06:23:38.447Z</time></trkpt><trkpt lat="44.960095" lon="8.0958467"><ele>211.6</ele><time>2026-04-12T06:26:03.447Z</time></trkpt><trkpt lat="44.9600383" lon="8.09593"><ele>211.2</ele><time>2026-04-12T06:26:05.447Z</time></trkpt><trkpt lat="44.9599883" lon="8.0960483"><ele>210.8</ele><time>2026-04-12T06:26:07.448Z</time></trkpt><trkpt lat="44.959935" lon="8.0961533"><ele>210.4</ele><time>2026-04-12T06:26:09.447Z</time></trkpt><trkpt lat="44.959895" lon="8.0962517"><ele>210.0</ele><time>2026-04-12T06:26:11.447Z</time></trkpt><trkpt lat="44.9598633" lon="8.096445"><ele>210.0</ele><time>2026-04-12T06:26:35.447Z</time></trkpt><trkpt lat="44.9598" lon="8.0965217"><ele>210.0</ele><time>2026-04-12T06:26:38.448Z</time></trkpt><trkpt lat="44.9597517" lon="8.0965883"><ele>210.0</ele><time>2026-04-12T06:26:40.447Z</time></trkpt><trkpt lat="44.959695" lon="8.0966583"><ele>210.0</ele><time>2026-04-12T06:26:42.447Z</time></trkpt><trkpt lat="44.9596317" lon="8.0967467"><ele>210.0</ele><time>2026-04-12T06:26:44.447Z</time></trkpt><trkpt lat="44.95955" lon="8.096835"><ele>210.0</ele><time>2026-04-12T06:26:46.447Z</time></trkpt><trkpt lat="44.95947" lon="8.09693"><ele>210.0</ele><time>2026-04-12T06:26:48.447Z</time></trkpt><trkpt lat="44.95939" lon="8.0970283"><ele>210.0</ele><time>2026-04-12T06:26:50.447Z</time></trkpt><trkpt lat="44.95931" lon="8.0971433"><ele>210.0</ele><time>2026-04-12T06:26:52.447Z</time></trkpt><trkpt lat="44.959265" lon="8.0972167"><ele>210.0</ele><time>2026-04-12T06:26:53.447Z</time></trkpt><trkpt lat="44.9592233" lon="8.097295"><ele>210.0</ele><time>2026-04-12T06:26:54.447Z</time></trkpt><trkpt lat="44.9591867" lon="8.0973733"><ele>210.0</ele><time>2026-04-12T06:26:55.447Z</time></trkpt><trkpt lat="44.95915" lon="8.0974517"><ele>210.0</ele><time>2026-04-12T06:26:56.448Z</time></trkpt><trkpt lat="44.9591133" lon="8.09753"><ele>210.0</ele><time>2026-04-12T06:26:57.447Z</time></trkpt><trkpt lat="44.9590767" lon="8.0976067"><ele>210.0</ele><time>2026-04-12T06:26:58.447Z</time></trkpt><trkpt lat="44.9590367" lon="8.0976817"><ele>210.0</ele><time>2026-04-12T06:26:59.447Z</time></trkpt><trkpt lat="44.9589967" lon="8.0977533"><ele>210.0</ele><time>2026-04-12T06:27:00.447Z</time></trkpt><trkpt lat="44.9589583" lon="8.0978283"><ele>210.0</ele><time>2026-04-12T06:27:01.447Z</time></trkpt><trkpt lat="44.95892" lon="8.0979067"><ele>210.0</ele><time>2026-04-12T06:27:02.447Z</time></trkpt><trkpt lat="44.95888" lon="8.0979817"><ele>210.0</ele><time>2026-04-12T06:27:03.447Z</time></trkpt><trkpt lat="44.9588417" lon="8.0980583"><ele>210.0</ele><time>2026-04-12T06:27:04.447Z</time></trkpt><trkpt lat="44.9588033" lon="8.0981333"><ele>210.0</ele><time>2026-04-12T06:27:05.447Z</time></trkpt><trkpt lat="44.958765" lon="8.098205"><ele>210.0</ele><time>2026-04-12T06:27:06.447Z</time></trkpt><trkpt lat="44.9598" lon="8.0965217"><ele>210.16666666666666</ele><time>2026-04-12T06:26:38.448Z</time></trkpt><trkpt lat="44.9597517" lon="8.0965883"><ele>210.33333333333331</ele><time>2026-04-12T06:26:40.447Z</time></trkpt><trkpt lat="44.959695" lon="8.0966583"><ele>210.5</ele><time>2026-04-12T06:26:42.447Z</time></trkpt><trkpt lat="44.9596317" lon="8.0967467"><ele>210.66666666666666</ele><time>2026-04-12T06:26:44.447Z</time></trkpt><trkpt lat="44.95955" lon="8.096835"><ele>210.83333333333331</ele><time>2026-04-12T06:26:46.447Z</time></trkpt><trkpt lat="44.95947" lon="8.09693"><ele>211.0</ele><time>2026-04-12T06:26:48.447Z</time></trkpt><trkpt lat="44.95939" lon="8.0970283"><ele>210.99999999999997</ele><time>2026-04-12T06:26:50.447Z</time></trkpt><trkpt lat="44.95931" lon="8.0971433"><ele>211.0</ele><time>2026-04-12T06:26:52.447Z</time></trkpt><trkpt lat="44.959265" lon="8.0972167"><ele>211.0</ele><time>2026-04-12T06:26:53.447Z</time></trkpt><trkpt lat="44.9592233" lon="8.097295"><ele>211.0</ele><time>2026-04-12T06:26:54.447Z</time></trkpt><trkpt lat="44.9591867" lon="8.0973733"><ele>210.99999999999997</ele><time>2026-04-12T06:26:55.447Z</time></trkpt><trkpt lat="44.95915" lon="8.0974517"><ele>211.0</ele><time>2026-04-12T06:26:56.448Z</time></trkpt><trkpt lat="44.9591133" lon="8.09753"><ele>210.85714285714286</ele><time>2026-04-12T06:26:57.447Z</time></trkpt><trkpt lat="44.9590767" lon="8.0976067"><ele>210.71428571428572</ele><time>2026-04-12T06:26:58.447Z</time></trkpt><trkpt lat="44.9590367" lon="8.0976817"><ele>210.57142857142856</ele><time>2026-04-12T06:26:59.447Z</time></trkpt><trkpt lat="44.9589967" lon="8.0977533"><ele>210.42857142857144</ele><time>2026-04-12T06:27:00.447Z</time></trkpt><trkpt lat="44.9589583" lon="8.0978283"><ele>210.28571428571428</ele><time>2026-04-12T06:27:01.447Z</time></trkpt><trkpt lat="44.95892" lon="8.0979067"><ele>210.14285714285714</ele><time>2026-04-12T06:27:02.447Z</time></trkpt><trkpt lat="44.95888" lon="8.0979817"><ele>210.0</ele><time>2026-04-12T06:27:03.447Z</time></trkpt><trkpt lat="44.9588417" lon="8.0980583"><ele>210.0</ele><time>2026-04-12T06:27:04.447Z</time></trkpt><trkpt lat="44.9588033" lon="8.0981333"><ele>210.0</ele><time>2026-04-12T06:27:05.447Z</time></trkpt><trkpt lat="44.958765" lon="8.098205"><ele>210.0</ele><time>2026-04-12T06:27:06.447Z</time></trkpt><trkpt lat="44.95869" lon="8.0983433"><ele>210.0</ele><time>2026-04-12T06:27:08.447Z</time></trkpt><trkpt lat="44.9586533" lon="8.0984167"><ele>210.0</ele><time>2026-04-12T06:27:09.447Z</time></trkpt><trkpt lat="44.95859" lon="8.0985733"><ele>210.0</ele><time>2026-04-12T06:27:11.448Z</time></trkpt><trkpt lat="44.95856" lon="8.0986533"><ele>210.2</ele><time>2026-04-12T06:27:12.447Z</time></trkpt><trkpt lat="44.95851" lon="8.0987933"><ele>210.4</ele><time>2026-04-12T06:27:14.447Z</time></trkpt><trkpt lat="44.958465" lon="8.0989433"><ele>210.60000000000002</ele><time>2026-04-12T06:27:16.447Z</time></trkpt><trkpt lat="44.9584383" lon="8.099025"><ele>210.8</ele><time>2026-04-12T06:27:17.448Z</time></trkpt><trkpt lat="44.9583967" lon="8.099175"><ele>211.0</ele><time>2026-04-12T06:27:19.447Z</time></trkpt><trkpt lat="44.9583517" lon="8.0993317"><ele>210.33333333333331</ele><time>2026-04-12T06:27:21.447Z</time></trkpt><trkpt lat="44.958335" lon="8.0994217"><ele>209.66666666666666</ele><time>2026-04-12T06:27:22.447Z</time></trkpt><trkpt lat="44.9583217" lon="8.0995133"><ele>209.0</ele><time>2026-04-12T06:27:23.447Z</time></trkpt><trkpt lat="44.958305" lon="8.099605"><ele>208.33333333333331</ele><time>2026-04-12T06:27:24.448Z</time></trkpt><trkpt lat="44.958285" lon="8.09969"><ele>207.66666666666666</ele><time>2026-04-12T06:27:25.447Z</time></trkpt><trkpt lat="44.95824" lon="8.0998517"><ele>207.0</ele><time>2026-04-12T06:27:27.447Z</time></trkpt><trkpt lat="44.9581767" lon="8.099995"><ele>207.0</ele><time>2026-04-12T06:27:29.447Z</time></trkpt><trkpt lat="44.9581183" lon="8.100145"><ele>207.0</ele><time>2026-04-12T06:27:31.447Z</time></trkpt><trkpt lat="44.9580783" lon="8.10029"><ele>207.0</ele><time>2026-04-12T06:27:33.448Z</time></trkpt><trkpt lat="44.9580667" lon="8.100455"><ele>207.0</ele><time>2026-04-12T06:27:35.447Z</time></trkpt><trkpt lat="44.9580667" lon="8.1005483"><ele>207.0</ele><time>2026-04-12T06:27:36.447Z</time></trkpt><trkpt lat="44.9580683" lon="8.100645"><ele>207.00000000000003</ele><time>2026-04-12T06:27:37.447Z</time></trkpt><trkpt lat="44.9580683" lon="8.1007417"><ele>207.0</ele><time>2026-04-12T06:27:38.447Z</time></trkpt><trkpt lat="44.95807" lon="8.100845"><ele>207.0</ele><time>2026-04-12T06:27:39.447Z</time></trkpt><trkpt lat="44.95807" lon="8.1009433"><ele>207.0</ele><time>2026-04-12T06:27:40.447Z</time></trkpt><trkpt lat="44.9580583" lon="8.1010367"><ele>207.0</ele><time>2026-04-12T06:27:41.447Z</time></trkpt><trkpt lat="44.95804" lon="8.10113"><ele>207.00000000000003</ele><time>2026-04-12T06:27:42.447Z</time></trkpt><trkpt lat="44.9580267" lon="8.1012233"><ele>207.0</ele><time>2026-04-12T06:27:43.447Z</time></trkpt><trkpt lat="44.957985" lon="8.1013867"><ele>207.2857142857143</ele><time>2026-04-12T06:27:45.447Z</time></trkpt><trkpt lat="44.9579633" lon="8.101475"><ele>207.57142857142858</ele><time>2026-04-12T06:27:46.447Z</time></trkpt><trkpt lat="44.9579517" lon="8.1015733"><ele>207.85714285714286</ele><time>2026-04-12T06:27:47.447Z</time></trkpt><trkpt lat="44.9579467" lon="8.1016733"><ele>208.14285714285717</ele><time>2026-04-12T06:27:48.447Z</time></trkpt><trkpt lat="44.9579467" lon="8.10177"><ele>208.42857142857142</ele><time>2026-04-12T06:27:49.447Z</time></trkpt><trkpt lat="44.957935" lon="8.1018667"><ele>208.71428571428572</ele><time>2026-04-12T06:27:50.447Z</time></trkpt><trkpt lat="44.9579117" lon="8.10196"><ele>209.0</ele><time>2026-04-12T06:27:51.447Z</time></trkpt><trkpt lat="44.9578867" lon="8.10205"><ele>209.0</ele><time>2026-04-12T06:27:52.447Z</time></trkpt><trkpt lat="44.95786" lon="8.1021383"><ele>209.0</ele><time>2026-04-12T06:27:53.447Z</time></trkpt><trkpt lat="44.957835" lon="8.10223"><ele>209.0</ele><time>2026-04-12T06:27:54.447Z</time></trkpt><trkpt lat="44.95781" lon="8.10232"><ele>209.0</ele><time>2026-04-12T06:27:55.447Z</time></trkpt><trkpt lat="44.9577833" lon="8.10241"><ele>209.0</ele><time>2026-04-12T06:27:56.447Z</time></trkpt><trkpt lat="44.9577533" lon="8.102495"><ele>209.0</ele><time>2026-04-12T06:27:57.447Z</time></trkpt><trkpt lat="44.9577233" lon="8.102585"><ele>209.0</ele><time>2026-04-12T06:27:58.447Z</time></trkpt><trkpt lat="44.9576983" lon="8.1026717"><ele>208.0</ele><time>2026-04-12T06:27:59.448Z</time></trkpt><trkpt lat="44.9576633" lon="8.1027533"><ele>207.0</ele><time>2026-04-12T06:28:00.447Z</time></trkpt><trkpt lat="44.9576383" lon="8.10284"><ele>206.0</ele><time>2026-04-12T06:28:01.447Z</time></trkpt><trkpt lat="44.9575833" lon="8.1029967"><ele>205.0</ele><time>2026-04-12T06:28:03.447Z</time></trkpt><trkpt lat="44.9575283" lon="8.10314"><ele>204.0</ele><time>2026-04-12T06:28:05.447Z</time></trkpt><trkpt lat="44.957475" lon="8.1033"><ele>203.79999999999998</ele><time>2026-04-12T06:28:07.447Z</time></trkpt><trkpt lat="44.9574033" lon="8.1034367"><ele>203.6</ele><time>2026-04-12T06:28:09.447Z</time></trkpt><trkpt lat="44.9573217" lon="8.10357"><ele>203.4</ele><time>2026-04-12T06:28:11.447Z</time></trkpt><trkpt lat="44.9572283" lon="8.103695"><ele>203.2</ele><time>2026-04-12T06:28:13.447Z</time></trkpt><trkpt lat="44.9571783" lon="8.1037583"><ele>203.0</ele><time>2026-04-12T06:28:14.447Z</time></trkpt><trkpt lat="44.9571283" lon="8.1038217"><ele>203.0</ele><time>2026-04-12T06:28:15.447Z</time></trkpt><trkpt lat="44.9570767" lon="8.1038783"><ele>203.0</ele><time>2026-04-12T06:28:16.447Z</time></trkpt><trkpt lat="44.9570267" lon="8.1039383"><ele>203.0</ele><time>2026-04-12T06:28:17.447Z</time></trkpt><trkpt lat="44.9569733" lon="8.104"><ele>203.0</ele><time>2026-04-12T06:28:18.447Z</time></trkpt><trkpt lat="44.9569183" lon="8.1040617"><ele>203.0</ele><time>2026-04-12T06:28:19.447Z</time></trkpt><trkpt lat="44.9568667" lon="8.10413"><ele>203.0</ele><time>2026-04-12T06:28:20.447Z</time></trkpt><trkpt lat="44.9568133" lon="8.1041967"><ele>203.0</ele><time>2026-04-12T06:28:21.447Z</time></trkpt><trkpt lat="44.9567167" lon="8.1043283"><ele>202.57142857142858</ele><time>2026-04-12T06:28:23.447Z</time></trkpt><trkpt lat="44.956665" lon="8.10439"><ele>202.14285714285714</ele><time>2026-04-12T06:28:24.447Z</time></trkpt><trkpt lat="44.9566117" lon="8.1044533"><ele>201.71428571428572</ele><time>2026-04-12T06:28:25.447Z</time></trkpt><trkpt lat="44.9565583" lon="8.1045217"><ele>201.28571428571428</ele><time>2026-04-12T06:28:26.447Z</time></trkpt><trkpt lat="44.9565017" lon="8.1045933"><ele>200.85714285714286</ele><time>2026-04-12T06:28:27.447Z</time></trkpt><trkpt lat="44.9564483" lon="8.104655"><ele>200.42857142857144</ele><time>2026-04-12T06:28:28.447Z</time></trkpt><trkpt lat="44.95639" lon="8.10472"><ele>200.0</ele><time>2026-04-12T06:28:29.447Z</time></trkpt><trkpt lat="44.95633" lon="8.1047933"><ele>200.00000000000003</ele><time>2026-04-12T06:28:30.447Z</time></trkpt><trkpt lat="44.9562783" lon="8.1048683"><ele>200.0</ele><time>2026-04-12T06:28:31.447Z</time></trkpt><trkpt lat="44.9562317" lon="8.1049367"><ele>200.0</ele><time>2026-04-12T06:28:32.447Z</time></trkpt><trkpt lat="44.9561883" lon="8.1050067"><ele>200.0</ele><time>2026-04-12T06:28:33.447Z</time></trkpt><trkpt lat="44.9561167" lon="8.1051567"><ele>200.00000000000003</ele><time>2026-04-12T06:28:35.447Z</time></trkpt><trkpt lat="44.95608" lon="8.1052417"><ele>200.0</ele><time>2026-04-12T06:28:36.448Z</time></trkpt><trkpt lat="44.9560467" lon="8.1053283"><ele>199.6</ele><time>2026-04-12T06:28:37.448Z</time></trkpt><trkpt lat="44.95601" lon="8.1054217"><ele>199.2</ele><time>2026-04-12T06:28:38.447Z</time></trkpt><trkpt lat="44.9559583" lon="8.1055833"><ele>198.8</ele><time>2026-04-12T06:28:40.447Z</time></trkpt><trkpt lat="44.955915" lon="8.1057417"><ele>198.4</ele><time>2026-04-12T06:28:42.447Z</time></trkpt><trkpt lat="44.9558767" lon="8.1058967"><ele>198.0</ele><time>2026-04-12T06:28:44.447Z</time></trkpt><trkpt lat="44.955835" lon="8.106055"><ele>198.0</ele><time>2026-04-12T06:28:46.447Z</time></trkpt><trkpt lat="44.955825" lon="8.1061467"><ele>198.0</ele><time>2026-04-12T06:28:47.447Z</time></trkpt><trkpt lat="44.9558133" lon="8.10631"><ele>198.0</ele><time>2026-04-12T06:28:49.447Z</time></trkpt><trkpt lat="44.9557933" lon="8.10646"><ele>198.0</ele><time>2026-04-12T06:28:51.447Z</time></trkpt><trkpt lat="44.9557967" lon="8.1066133"><ele>198.0</ele><time>2026-04-12T06:28:53.447Z</time></trkpt><trkpt lat="44.955815" lon="8.10675"><ele>198.0</ele><time>2026-04-12T06:28:55.447Z</time></trkpt><trkpt lat="44.9558533" lon="8.1068533"><ele>198.0</ele><time>2026-04-12T06:28:57.447Z</time></trkpt><trkpt lat="44.9558967" lon="8.106935"><ele>198.0</ele><time>2026-04-12T06:28:59.447Z</time></trkpt><trkpt lat="44.9559367" lon="8.107005"><ele>198.0</ele><time>2026-04-12T06:29:01.447Z</time></trkpt><trkpt lat="44.95598" lon="8.107105"><ele>198.0</ele><time>2026-04-12T06:29:04.447Z</time></trkpt><trkpt lat="44.9559833" lon="8.1072117"><ele>198.0</ele><time>2026-04-12T06:29:07.448Z</time></trkpt><trkpt lat="44.9559217" lon="8.107285"><ele>198.0</ele><time>2026-04-12T06:29:09.447Z</time></trkpt><trkpt lat="44.9558367" lon="8.107345"><ele>198.0</ele><time>2026-04-12T06:29:11.447Z</time></trkpt><trkpt lat="44.9557533" lon="8.107405"><ele>198.0</ele><time>2026-04-12T06:29:13.447Z</time></trkpt><trkpt lat="44.9556733" lon="8.1074633"><ele>198.0</ele><time>2026-04-12T06:29:15.447Z</time></trkpt><trkpt lat="44.9555967" lon="8.1075283"><ele>198.0</ele><time>2026-04-12T06:29:17.447Z</time></trkpt><trkpt lat="44.955525" lon="8.1075967"><ele>198.8</ele><time>2026-04-12T06:29:19.447Z</time></trkpt><trkpt lat="44.9554433" lon="8.1076633"><ele>199.60000000000002</ele><time>2026-04-12T06:29:21.447Z</time></trkpt><trkpt lat="44.9553583" lon="8.107715"><ele>200.39999999999998</ele><time>2026-04-12T06:29:23.447Z</time></trkpt><trkpt lat="44.9552633" lon="8.1077467"><ele>201.2</ele><time>2026-04-12T06:29:25.447Z</time></trkpt><trkpt lat="44.9551683" lon="8.1077983"><ele>202.0</ele><time>2026-04-12T06:29:27.447Z</time></trkpt><trkpt lat="44.95507" lon="8.1078583"><ele>201.33333333333331</ele><time>2026-04-12T06:29:29.447Z</time></trkpt><trkpt lat="44.9549683" lon="8.1079183"><ele>200.66666666666666</ele><time>2026-04-12T06:29:31.447Z</time></trkpt><trkpt lat="44.9549067" lon="8.1079583"><ele>200.0</ele><time>2026-04-12T06:29:32.448Z</time></trkpt><trkpt lat="44.9548433" lon="8.1080033"><ele>199.33333333333331</ele><time>2026-04-12T06:29:33.448Z</time></trkpt><trkpt lat="44.9547833" lon="8.1080517"><ele>198.66666666666666</ele><time>2026-04-12T06:29:34.447Z</time></trkpt><trkpt lat="44.95472" lon="8.1081"><ele>198.0</ele><time>2026-04-12T06:29:35.447Z</time></trkpt><trkpt lat="44.9546583" lon="8.10815"><ele>198.0</ele><time>2026-04-12T06:29:36.447Z</time></trkpt><trkpt lat="44.954585" lon="8.1082017"><ele>198.0</ele><time>2026-04-12T06:29:37.447Z</time></trkpt><trkpt lat="44.9545117" lon="8.10825"><ele>198.0</ele><time>2026-04-12T06:29:38.447Z</time></trkpt><trkpt lat="44.95444" lon="8.1082883"><ele>198.0</ele><time>2026-04-12T06:29:39.447Z</time></trkpt><trkpt lat="44.9543667" lon="8.10832"><ele>198.0</ele><time>2026-04-12T06:29:40.447Z</time></trkpt><trkpt lat="44.9543017" lon="8.1083617"><ele>198.0</ele><time>2026-04-12T06:29:41.447Z</time></trkpt><trkpt lat="44.954205" lon="8.1084217"><ele>198.25</ele><time>2026-04-12T06:29:43.447Z</time></trkpt><trkpt lat="44.9541133" lon="8.10855"><ele>198.5</ele><time>2026-04-12T06:29:45.447Z</time></trkpt><trkpt lat="44.954035" lon="8.1086667"><ele>198.75</ele><time>2026-04-12T06:29:47.447Z</time></trkpt><trkpt lat="44.9539667" lon="8.1087817"><ele>199.0</ele><time>2026-04-12T06:29:49.447Z</time></trkpt><trkpt lat="44.9538867" lon="8.1089033"><ele>198.99999999999997</ele><time>2026-04-12T06:29:51.447Z</time></trkpt><trkpt lat="44.9537833" lon="8.1090183"><ele>199.0</ele><time>2026-04-12T06:29:53.447Z</time></trkpt><trkpt lat="44.95372" lon="8.10908"><ele>199.0</ele><time>2026-04-12T06:29:54.447Z</time></trkpt><trkpt lat="44.9536533" lon="8.1091383"><ele>199.0</ele><time>2026-04-12T06:29:55.447Z</time></trkpt><trkpt lat="44.9535867" lon="8.109195"><ele>198.99999999999997</ele><time>2026-04-12T06:29:56.447Z</time></trkpt><trkpt lat="44.9535233" lon="8.10925"><ele>199.0</ele><time>2026-04-12T06:29:57.447Z</time></trkpt><trkpt lat="44.9534567" lon="8.1093033"><ele>198.85714285714283</ele><time>2026-04-12T06:29:58.447Z</time></trkpt><trkpt lat="44.9533933" lon="8.1093467"><ele>198.71428571428572</ele><time>2026-04-12T06:29:59.447Z</time></trkpt><trkpt lat="44.953325" lon="8.1093883"><ele>198.57142857142856</ele><time>2026-04-12T06:30:00.447Z</time></trkpt><trkpt lat="44.9532583" lon="8.1094367"><ele>198.42857142857142</ele><time>2026-04-12T06:30:01.447Z</time></trkpt><trkpt lat="44.95319" lon="8.1094817"><ele>198.28571428571428</ele><time>2026-04-12T06:30:02.447Z</time></trkpt><trkpt lat="44.9531283" lon="8.109525"><ele>198.14285714285714</ele><time>2026-04-12T06:30:03.447Z</time></trkpt><trkpt lat="44.9530667" lon="8.1095683"><ele>198.0</ele><time>2026-04-12T06:30:04.447Z</time></trkpt><trkpt lat="44.953005" lon="8.1096083"><ele>198.0</ele><time>2026-04-12T06:30:05.447Z</time></trkpt><trkpt lat="44.95289" lon="8.1096833"><ele>198.0</ele><time>2026-04-12T06:30:07.447Z</time></trkpt><trkpt lat="44.9528283" lon="8.1097167"><ele>198.0</ele><time>2026-04-12T06:30:08.447Z</time></trkpt><trkpt lat="44.952765" lon="8.1097467"><ele>198.0</ele><time>2026-04-12T06:30:09.447Z</time></trkpt><trkpt lat="44.9527" lon="8.1097717"><ele>198.0</ele><time>2026-04-12T06:30:10.447Z</time></trkpt><trkpt lat="44.9526317" lon="8.10979"><ele>198.0</ele><time>2026-04-12T06:30:11.447Z</time></trkpt><trkpt lat="44.952565" lon="8.1098117"><ele>197.42857142857144</ele><time>2026-04-12T06:30:12.448Z</time></trkpt><trkpt lat="44.9524967" lon="8.1098233"><ele>196.85714285714283</ele><time>2026-04-12T06:30:13.447Z</time></trkpt><trkpt lat="44.9524267" lon="8.109845"><ele>196.28571428571428</ele><time>2026-04-12T06:30:14.447Z</time></trkpt><trkpt lat="44.9523567" lon="8.1098517"><ele>195.71428571428572</ele><time>2026-04-12T06:30:15.447Z</time></trkpt><trkpt lat="44.9522867" lon="8.1098667"><ele>195.14285714285717</ele><time>2026-04-12T06:30:16.447Z</time></trkpt><trkpt lat="44.9522167" lon="8.1098833"><ele>194.57142857142856</ele><time>2026-04-12T06:30:17.447Z</time></trkpt><trkpt lat="44.952145" lon="8.1099"><ele>194.0</ele><time>2026-04-12T06:30:18.447Z</time></trkpt><trkpt lat="44.9520817" lon="8.1099117"><ele>194.50000000000003</ele><time>2026-04-12T06:30:19.447Z</time></trkpt><trkpt lat="44.95202" lon="8.109935"><ele>195.0</ele><time>2026-04-12T06:30:20.447Z</time></trkpt><trkpt lat="44.9519583" lon="8.1099683"><ele>195.5</ele><time>2026-04-12T06:30:21.447Z</time></trkpt><trkpt lat="44.9519" lon="8.11002"><ele>196.0</ele><time>2026-04-12T06:30:22.447Z</time></trkpt><trkpt lat="44.9518467" lon="8.1100767"><ele>196.50000000000003</ele><time>2026-04-12T06:30:23.447Z</time></trkpt><trkpt lat="44.9517533" lon="8.1101833"><ele>197.0</ele><time>2026-04-12T06:30:25.447Z</time></trkpt><trkpt lat="44.9516983" lon="8.110235"><ele>197.0</ele><time>2026-04-12T06:30:26.447Z</time></trkpt><trkpt lat="44.951645" lon="8.1102883"><ele>197.0</ele><time>2026-04-12T06:30:27.447Z</time></trkpt><trkpt lat="44.95159" lon="8.110345"><ele>197.0</ele><time>2026-04-12T06:30:28.447Z</time></trkpt><trkpt lat="44.9515317" lon="8.1104017"><ele>197.0</ele><time>2026-04-12T06:30:29.447Z</time></trkpt><trkpt lat="44.951475" lon="8.1104617"><ele>197.0</ele><time>2026-04-12T06:30:30.447Z</time></trkpt><trkpt lat="44.951415" lon="8.1105167"><ele>197.0</ele><time>2026-04-12T06:30:31.447Z</time></trkpt><trkpt lat="44.9513533" lon="8.1105733"><ele>197.0</ele><time>2026-04-12T06:30:32.447Z</time></trkpt><trkpt lat="44.9512917" lon="8.110635"><ele>197.0</ele><time>2026-04-12T06:30:33.447Z</time></trkpt><trkpt lat="44.9512333" lon="8.1106933"><ele>197.0</ele><time>2026-04-12T06:30:34.447Z</time></trkpt><trkpt lat="44.9511783" lon="8.110745"><ele>197.0</ele><time>2026-04-12T06:30:35.447Z</time></trkpt><trkpt lat="44.9510783" lon="8.11083"><ele>197.0</ele><time>2026-04-12T06:30:37.447Z</time></trkpt><trkpt lat="44.9509833" lon="8.1109217"><ele>197.0</ele><time>2026-04-12T06:30:39.447Z</time></trkpt><trkpt lat="44.950895" lon="8.1110083"><ele>196.66666666666669</ele><time>2026-04-12T06:30:41.447Z</time></trkpt><trkpt lat="44.9508383" lon="8.11107"><ele>196.33333333333334</ele><time>2026-04-12T06:30:43.447Z</time></trkpt><trkpt lat="44.95084" lon="8.111175"><ele>196.0</ele><time>2026-04-12T06:30:46.447Z</time></trkpt><trkpt lat="44.950885" lon="8.1112817"><ele>195.66666666666669</ele><time>2026-04-12T06:30:48.447Z</time></trkpt><trkpt lat="44.9509283" lon="8.111395"><ele>195.33333333333334</ele><time>2026-04-12T06:30:50.448Z</time></trkpt><trkpt lat="44.950985" lon="8.111505"><ele>195.0</ele><time>2026-04-12T06:30:52.447Z</time></trkpt><trkpt lat="44.9510483" lon="8.1116133"><ele>197.6</ele><time>2026-04-12T06:30:54.447Z</time></trkpt><trkpt lat="44.95111" lon="8.111715"><ele>200.2</ele><time>2026-04-12T06:30:56.447Z</time></trkpt><trkpt lat="44.9511617" lon="8.111815"><ele>202.8</ele><time>2026-04-12T06:30:58.447Z</time></trkpt><trkpt lat="44.9512167" lon="8.1119183"><ele>205.4</ele><time>2026-04-12T06:31:00.447Z</time></trkpt><trkpt lat="44.951275" lon="8.112015"><ele>208.0</ele><time>2026-04-12T06:31:02.447Z</time></trkpt><trkpt lat="44.9513333" lon="8.11212"><ele>208.0</ele><time>2026-04-12T06:31:04.447Z</time></trkpt><trkpt lat="44.95138" lon="8.11224"><ele>208.0</ele><time>2026-04-12T06:31:06.447Z</time></trkpt><trkpt lat="44.95144" lon="8.1123633"><ele>208.0</ele><time>2026-04-12T06:31:08.447Z</time></trkpt><trkpt lat="44.9514983" lon="8.112485"><ele>208.0</ele><time>2026-04-12T06:31:10.447Z</time></trkpt><trkpt lat="44.95156" lon="8.1126183"><ele>208.0</ele><time>2026-04-12T06:31:12.447Z</time></trkpt><trkpt lat="44.9516217" lon="8.112755"><ele>206.8</ele><time>2026-04-12T06:31:14.447Z</time></trkpt><trkpt lat="44.9516833" lon="8.1128867"><ele>205.60000000000002</ele><time>2026-04-12T06:31:16.447Z</time></trkpt><trkpt lat="44.9517367" lon="8.113005"><ele>204.39999999999998</ele><time>2026-04-12T06:31:18.447Z</time></trkpt><trkpt lat="44.9517967" lon="8.1131167"><ele>203.2</ele><time>2026-04-12T06:31:20.447Z</time></trkpt><trkpt lat="44.9518567" lon="8.1132467"><ele>202.0</ele><time>2026-04-12T06:31:22.447Z</time></trkpt><trkpt lat="44.9519317" lon="8.1133833"><ele>205.5</ele><time>2026-04-12T06:31:24.447Z</time></trkpt><trkpt lat="44.9520133" lon="8.1135117"><ele>209.0</ele><time>2026-04-12T06:31:26.447Z</time></trkpt><trkpt lat="44.952085" lon="8.1136333"><ele>212.5</ele><time>2026-04-12T06:31:28.447Z</time></trkpt><trkpt lat="44.9521583" lon="8.1137483"><ele>216.0</ele><time>2026-04-12T06:31:30.447Z</time></trkpt><trkpt lat="44.9522333" lon="8.1138717"><ele>216.0</ele><time>2026-04-12T06:31:32.447Z</time></trkpt><trkpt lat="44.9523017" lon="8.11397"><ele>216.00000000000003</ele><time>2026-04-12T06:31:34.447Z</time></trkpt><trkpt lat="44.952375" lon="8.1140817"><ele>216.00000000000003</ele><time>2026-04-12T06:31:36.447Z</time></trkpt><trkpt lat="44.9524417" lon="8.11421"><ele>216.0</ele><time>2026-04-12T06:31:38.447Z</time></trkpt><trkpt lat="44.952475" lon="8.1142867"><ele>216.0</ele><time>2026-04-12T06:31:39.447Z</time></trkpt><trkpt lat="44.9525283" lon="8.1144267"><ele>217.0</ele><time>2026-04-12T06:31:41.447Z</time></trkpt><trkpt lat="44.95258" lon="8.114555"><ele>218.00000000000003</ele><time>2026-04-12T06:31:43.447Z</time></trkpt><trkpt lat="44.9526283" lon="8.11469"><ele>219.00000000000003</ele><time>2026-04-12T06:31:45.447Z</time></trkpt><trkpt lat="44.95269" lon="8.11483"><ele>220.0</ele><time>2026-04-12T06:31:47.447Z</time></trkpt><trkpt lat="44.9527333" lon="8.1149767"><ele>221.0</ele><time>2026-04-12T06:31:49.447Z</time></trkpt><trkpt lat="44.952775" lon="8.1151183"><ele>218.8</ele><time>2026-04-12T06:31:51.447Z</time></trkpt><trkpt lat="44.95281" lon="8.1152667"><ele>216.60000000000002</ele><time>2026-04-12T06:31:53.447Z</time></trkpt><trkpt lat="44.9528217" lon="8.1154117"><ele>214.4</ele><time>2026-04-12T06:31:55.447Z</time></trkpt><trkpt lat="44.9528133" lon="8.115565"><ele>212.2</ele><time>2026-04-12T06:31:57.447Z</time></trkpt><trkpt lat="44.9528017" lon="8.1157017"><ele>210.0</ele><time>2026-04-12T06:31:59.447Z</time></trkpt><trkpt lat="44.9527967" lon="8.11583"><ele>209.8</ele><time>2026-04-12T06:32:01.447Z</time></trkpt><trkpt lat="44.9527967" lon="8.11597"><ele>209.6</ele><time>2026-04-12T06:32:03.447Z</time></trkpt><trkpt lat="44.9528033" lon="8.11612"><ele>209.39999999999998</ele><time>2026-04-12T06:32:05.447Z</time></trkpt><trkpt lat="44.95282" lon="8.1162483"><ele>209.2</ele><time>2026-04-12T06:32:07.447Z</time></trkpt><trkpt lat="44.9528417" lon="8.1163683"><ele>209.0</ele><time>2026-04-12T06:32:09.447Z</time></trkpt><trkpt lat="44.9528617" lon="8.1165117"><ele>212.0</ele><time>2026-04-12T06:32:11.447Z</time></trkpt><trkpt lat="44.952875" lon="8.1166383"><ele>215.0</ele><time>2026-04-12T06:32:13.447Z</time></trkpt><trkpt lat="44.95287" lon="8.1167633"><ele>217.99999999999997</ele><time>2026-04-12T06:32:15.447Z</time></trkpt><trkpt lat="44.9528483" lon="8.1168933"><ele>221.0</ele><time>2026-04-12T06:32:17.447Z</time></trkpt><trkpt lat="44.9528383" lon="8.1170333"><ele>224.0</ele><time>2026-04-12T06:32:19.447Z</time></trkpt><trkpt lat="44.95282" lon="8.117165"><ele>224.00000000000003</ele><time>2026-04-12T06:32:21.447Z</time></trkpt><trkpt lat="44.952805" lon="8.1172983"><ele>224.0</ele><time>2026-04-12T06:32:23.447Z</time></trkpt><trkpt lat="44.9527967" lon="8.1174267"><ele>224.0</ele><time>2026-04-12T06:32:25.447Z</time></trkpt><trkpt lat="44.9527933" lon="8.117555"><ele>224.0</ele><time>2026-04-12T06:32:27.447Z</time></trkpt><trkpt lat="44.9528" lon="8.117675"><ele>224.00000000000003</ele><time>2026-04-12T06:32:29.447Z</time></trkpt><trkpt lat="44.95282" lon="8.1177883"><ele>224.0</ele><time>2026-04-12T06:32:31.447Z</time></trkpt><trkpt lat="44.9528483" lon="8.1179"><ele>224.66666666666669</ele><time>2026-04-12T06:32:33.447Z</time></trkpt><trkpt lat="44.9528767" lon="8.1180167"><ele>225.33333333333334</ele><time>2026-04-12T06:32:35.447Z</time></trkpt><trkpt lat="44.9529017" lon="8.1181333"><ele>226.0</ele><time>2026-04-12T06:32:37.447Z</time></trkpt><trkpt lat="44.9529267" lon="8.1182533"><ele>226.66666666666669</ele><time>2026-04-12T06:32:39.447Z</time></trkpt><trkpt lat="44.952955" lon="8.1183517"><ele>227.33333333333334</ele><time>2026-04-12T06:32:41.447Z</time></trkpt><trkpt lat="44.953" lon="8.1184333"><ele>228.0</ele><time>2026-04-12T06:32:43.447Z</time></trkpt><trkpt lat="44.9530517" lon="8.11852"><ele>228.0</ele><time>2026-04-12T06:32:45.447Z</time></trkpt><trkpt lat="44.953095" lon="8.1186233"><ele>228.0</ele><time>2026-04-12T06:32:47.447Z</time></trkpt><trkpt lat="44.9531367" lon="8.1187233"><ele>228.0</ele><time>2026-04-12T06:32:49.447Z</time></trkpt><trkpt lat="44.953175" lon="8.1188267"><ele>228.0</ele><time>2026-04-12T06:32:51.447Z</time></trkpt><trkpt lat="44.9532067" lon="8.1189133"><ele>228.0</ele><time>2026-04-12T06:32:53.447Z</time></trkpt><trkpt lat="44.95324" lon="8.1189933"><ele>228.0</ele><time>2026-04-12T06:32:55.447Z</time></trkpt><trkpt lat="44.9532783" lon="8.1190733"><ele>228.0</ele><time>2026-04-12T06:32:57.447Z</time></trkpt><trkpt lat="44.95332" lon="8.119155"><ele>228.0</ele><time>2026-04-12T06:32:59.447Z</time></trkpt><trkpt lat="44.9533633" lon="8.1192317"><ele>228.0</ele><time>2026-04-12T06:33:01.447Z</time></trkpt><trkpt lat="44.95341" lon="8.1193117"><ele>228.0</ele><time>2026-04-12T06:33:03.447Z</time></trkpt><trkpt lat="44.9534767" lon="8.1193883"><ele>228.0</ele><time>2026-04-12T06:33:05.448Z</time></trkpt><trkpt lat="44.953545" lon="8.11944"><ele>228.0</ele><time>2026-04-12T06:33:07.447Z</time></trkpt><trkpt lat="44.953625" lon="8.1194417"><ele>228.0</ele><time>2026-04-12T06:33:09.447Z</time></trkpt><trkpt lat="44.953695" lon="8.119455"><ele>227.99999999999997</ele><time>2026-04-12T06:33:11.447Z</time></trkpt><trkpt lat="44.953765" lon="8.11947"><ele>228.0</ele><time>2026-04-12T06:33:13.447Z</time></trkpt><trkpt lat="44.9537517" lon="8.1195583"><ele>228.0</ele><time>2026-04-12T06:33:18.447Z</time></trkpt><trkpt lat="44.9536933" lon="8.1196033"><ele>227.99999999999997</ele><time>2026-04-12T06:33:20.447Z</time></trkpt><trkpt lat="44.9536233" lon="8.1196733"><ele>228.0</ele><time>2026-04-12T06:33:23.447Z</time></trkpt><trkpt lat="44.9535667" lon="8.119725"><ele>228.0</ele><time>2026-04-12T06:33:25.447Z</time></trkpt><trkpt lat="44.9535117" lon="8.11978"><ele>228.0</ele><time>2026-04-12T06:33:27.447Z</time></trkpt><trkpt lat="44.9534467" lon="8.1198283"><ele>227.99999999999997</ele><time>2026-04-12T06:33:29.447Z</time></trkpt><trkpt lat="44.9533767" lon="8.1198583"><ele>228.0</ele><time>2026-04-12T06:33:31.447Z</time></trkpt><trkpt lat="44.9533083" lon="8.1198567"><ele>228.0</ele><time>2026-04-12T06:33:33.447Z</time></trkpt><trkpt lat="44.953225" lon="8.1198483"><ele>227.99999999999997</ele><time>2026-04-12T06:33:36.447Z</time></trkpt><trkpt lat="44.9531533" lon="8.11984"><ele>228.0</ele><time>2026-04-12T06:33:38.447Z</time></trkpt><trkpt lat="44.9530767" lon="8.119825"><ele>228.0</ele><time>2026-04-12T06:33:40.447Z</time></trkpt><trkpt lat="44.9530133" lon="8.119795"><ele>228.0</ele><time>2026-04-12T06:33:42.447Z</time></trkpt><trkpt lat="44.95294" lon="8.119755"><ele>227.99999999999997</ele><time>2026-04-12T06:33:44.447Z</time></trkpt><trkpt lat="44.95288" lon="8.11971"><ele>228.0</ele><time>2026-04-12T06:33:46.447Z</time></trkpt><trkpt lat="44.9528083" lon="8.11962"><ele>228.0</ele><time>2026-04-12T06:33:49.447Z</time></trkpt><trkpt lat="44.9527583" lon="8.119565"><ele>227.99999999999997</ele><time>2026-04-12T06:33:51.447Z</time></trkpt><trkpt lat="44.9527017" lon="8.119505"><ele>228.0</ele><time>2026-04-12T06:33:54.448Z</time></trkpt><trkpt lat="44.9526383" lon="8.119455"><ele>228.0</ele><time>2026-04-12T06:33:57.447Z</time></trkpt><trkpt lat="44.9525567" lon="8.1194483"><ele>228.83333333333334</ele><time>2026-04-12T06:34:00.447Z</time></trkpt><trkpt lat="44.9524833" lon="8.119485"><ele>229.66666666666669</ele><time>2026-04-12T06:34:02.447Z</time></trkpt><trkpt lat="44.9524033" lon="8.11954"><ele>230.5</ele><time>2026-04-12T06:34:05.447Z</time></trkpt><trkpt lat="44.9523417" lon="8.1195867"><ele>231.33333333333334</ele><time>2026-04-12T06:34:08.447Z</time></trkpt><trkpt lat="44.9522917" lon="8.1196483"><ele>232.16666666666669</ele><time>2026-04-12T06:34:11.447Z</time></trkpt><trkpt lat="44.9522467" lon="8.119715"><ele>233.0</ele><time>2026-04-12T06:34:14.447Z</time></trkpt><trkpt lat="44.9522117" lon="8.11982"><ele>234.50000000000003</ele><time>2026-04-12T06:34:18.448Z</time></trkpt><trkpt lat="44.9521833" lon="8.1199383"><ele>236.0</ele><time>2026-04-12T06:34:21.447Z</time></trkpt><trkpt lat="44.95216" lon="8.1200367"><ele>237.5</ele><time>2026-04-12T06:34:23.448Z</time></trkpt><trkpt lat="44.9521483" lon="8.120125"><ele>239.0</ele><time>2026-04-12T06:34:25.447Z</time></trkpt><trkpt lat="44.95214" lon="8.1202283"><ele>240.50000000000003</ele><time>2026-04-12T06:34:27.447Z</time></trkpt><trkpt lat="44.952155" lon="8.12036"><ele>242.0</ele><time>2026-04-12T06:34:30.447Z</time></trkpt><trkpt lat="44.9521517" lon="8.1204517"><ele>242.00000000000003</ele><time>2026-04-12T06:34:32.447Z</time></trkpt><trkpt lat="44.95215" lon="8.1205417"><ele>242.0</ele><time>2026-04-12T06:34:34.447Z</time></trkpt><trkpt lat="44.9521367" lon="8.1206683"><ele>242.0</ele><time>2026-04-12T06:34:37.447Z</time></trkpt><trkpt lat="44.9521117" lon="8.120785"><ele>242.0</ele><time>2026-04-12T06:34:40.447Z</time></trkpt><trkpt lat="44.95209" lon="8.1208867"><ele>242.00000000000003</ele><time>2026-04-12T06:34:43.447Z</time></trkpt><trkpt lat="44.9520333" lon="8.1209833"><ele>242.0</ele><time>2026-04-12T06:34:46.447Z</time></trkpt><trkpt lat="44.951985" lon="8.1210983"><ele>242.16666666666669</ele><time>2026-04-12T06:34:49.447Z</time></trkpt><trkpt lat="44.9519467" lon="8.1211817"><ele>242.33333333333334</ele><time>2026-04-12T06:34:51.447Z</time></trkpt><trkpt lat="44.9519017" lon="8.1212933"><ele>242.5</ele><time>2026-04-12T06:34:54.447Z</time></trkpt><trkpt lat="44.9518617" lon="8.121375"><ele>242.66666666666669</ele><time>2026-04-12T06:34:56.447Z</time></trkpt><trkpt lat="44.951805" lon="8.1214583"><ele>242.83333333333334</ele><time>2026-04-12T06:34:58.447Z</time></trkpt><trkpt lat="44.9517467" lon="8.1215533"><ele>243.0</ele><time>2026-04-12T06:35:00.447Z</time></trkpt><trkpt lat="44.95168" lon="8.1216467"><ele>243.0</ele><time>2026-04-12T06:35:02.447Z</time></trkpt><trkpt lat="44.9516317" lon="8.121755"><ele>243.0</ele><time>2026-04-12T06:35:04.447Z</time></trkpt><trkpt lat="44.95157" lon="8.1218333"><ele>243.0</ele><time>2026-04-12T06:35:06.447Z</time></trkpt><trkpt lat="44.9514917" lon="8.1218867"><ele>243.0</ele><time>2026-04-12T06:35:08.447Z</time></trkpt><trkpt lat="44.9514117" lon="8.1218917"><ele>243.0</ele><time>2026-04-12T06:35:10.447Z</time></trkpt><trkpt lat="44.9513117" lon="8.1219017"><ele>243.0</ele><time>2026-04-12T06:35:12.447Z</time></trkpt><trkpt lat="44.9512117" lon="8.121885"><ele>243.0</ele><time>2026-04-12T06:35:14.447Z</time></trkpt><trkpt lat="44.9511233" lon="8.1218517"><ele>243.0</ele><time>2026-04-12T06:35:16.447Z</time></trkpt><trkpt lat="44.9510567" lon="8.1217633"><ele>243.0</ele><time>2026-04-12T06:35:18.448Z</time></trkpt><trkpt lat="44.9510117" lon="8.1216783"><ele>243.0</ele><time>2026-04-12T06:35:20.447Z</time></trkpt><trkpt lat="44.950965" lon="8.1216017"><ele>243.0</ele><time>2026-04-12T06:35:22.447Z</time></trkpt><trkpt lat="44.9508917" lon="8.121555"><ele>243.0</ele><time>2026-04-12T06:35:25.447Z</time></trkpt><trkpt lat="44.9508483" lon="8.121475"><ele>244.83333333333334</ele><time>2026-04-12T06:35:28.447Z</time></trkpt><trkpt lat="44.95083" lon="8.12137"><ele>246.66666666666669</ele><time>2026-04-12T06:35:30.447Z</time></trkpt><trkpt lat="44.950795" lon="8.1212617"><ele>248.5</ele><time>2026-04-12T06:35:32.447Z</time></trkpt><trkpt lat="44.9507717" lon="8.1211617"><ele>250.33333333333334</ele><time>2026-04-12T06:35:34.447Z</time></trkpt><trkpt lat="44.9507683" lon="8.121055"><ele>252.16666666666669</ele><time>2026-04-12T06:35:36.447Z</time></trkpt><trkpt lat="44.950795" lon="8.1209267"><ele>254.0</ele><time>2026-04-12T06:35:39.447Z</time></trkpt><trkpt lat="44.9508067" lon="8.1208283"><ele>251.79999999999998</ele><time>2026-04-12T06:35:41.447Z</time></trkpt><trkpt lat="44.950785" lon="8.1207033"><ele>249.59999999999997</ele><time>2026-04-12T06:35:43.447Z</time></trkpt><trkpt lat="44.950745" lon="8.1205783"><ele>247.4</ele><time>2026-04-12T06:35:45.447Z</time></trkpt><trkpt lat="44.9506833" lon="8.12047"><ele>245.2</ele><time>2026-04-12T06:35:47.447Z</time></trkpt><trkpt lat="44.9505867" lon="8.1203783"><ele>243.0</ele><time>2026-04-12T06:35:49.447Z</time></trkpt><trkpt lat="44.9504983" lon="8.1203217"><ele>243.0</ele><time>2026-04-12T06:35:51.447Z</time></trkpt><trkpt lat="44.9503883" lon="8.12031"><ele>243.0</ele><time>2026-04-12T06:35:53.447Z</time></trkpt><trkpt lat="44.9502933" lon="8.1202867"><ele>243.0</ele><time>2026-04-12T06:35:55.447Z</time></trkpt><trkpt lat="44.9502283" lon="8.1201933"><ele>243.0</ele><time>2026-04-12T06:35:57.447Z</time></trkpt><trkpt lat="44.9501733" lon="8.1200817"><ele>243.0</ele><time>2026-04-12T06:35:59.447Z</time></trkpt><trkpt lat="44.95013" lon="8.1199817"><ele>241.71428571428572</ele><time>2026-04-12T06:36:01.447Z</time></trkpt><trkpt lat="44.9500867" lon="8.1198967"><ele>240.42857142857144</ele><time>2026-04-12T06:36:05.447Z</time></trkpt><trkpt lat="44.950005" lon="8.1199233"><ele>239.14285714285717</ele><time>2026-04-12T06:36:08.447Z</time></trkpt><trkpt lat="44.949955" lon="8.1199917"><ele>237.85714285714286</ele><time>2026-04-12T06:36:11.447Z</time></trkpt><trkpt lat="44.94991" lon="8.120085"><ele>236.5714285714286</ele><time>2026-04-12T06:36:14.448Z</time></trkpt><trkpt lat="44.949895" lon="8.1201733"><ele>235.2857142857143</ele><time>2026-04-12T06:36:16.447Z</time></trkpt><trkpt lat="44.9498883" lon="8.1202683"><ele>234.0</ele><time>2026-04-12T06:36:18.447Z</time></trkpt><trkpt lat="44.949875" lon="8.12039"><ele>238.6</ele><time>2026-04-12T06:36:21.447Z</time></trkpt><trkpt lat="44.9498433" lon="8.120515"><ele>243.2</ele><time>2026-04-12T06:36:24.447Z</time></trkpt><trkpt lat="44.9497833" lon="8.1206133"><ele>247.79999999999998</ele><time>2026-04-12T06:36:27.447Z</time></trkpt><trkpt lat="44.9497233" lon="8.1206983"><ele>252.39999999999998</ele><time>2026-04-12T06:36:29.447Z</time></trkpt><trkpt lat="44.9496367" lon="8.1207967"><ele>257.0</ele><time>2026-04-12T06:36:31.447Z</time></trkpt><trkpt lat="44.9495433" lon="8.1208867"><ele>256.5</ele><time>2026-04-12T06:36:33.447Z</time></trkpt><trkpt lat="44.9494483" lon="8.1209983"><ele>256.0</ele><time>2026-04-12T06:36:35.447Z</time></trkpt><trkpt lat="44.9493517" lon="8.1211067"><ele>255.5</ele><time>2026-04-12T06:36:37.447Z</time></trkpt><trkpt lat="44.9492733" lon="8.1212233"><ele>255.0</ele><time>2026-04-12T06:36:39.448Z</time></trkpt><trkpt lat="44.9491933" lon="8.1213417"><ele>255.0</ele><time>2026-04-12T06:36:41.447Z</time></trkpt><trkpt lat="44.9490983" lon="8.12145"><ele>255.0</ele><time>2026-04-12T06:36:43.447Z</time></trkpt><trkpt lat="44.949045" lon="8.121515"><ele>255.0</ele><time>2026-04-12T06:36:44.447Z</time></trkpt><trkpt lat="44.9489867" lon="8.1215683"><ele>255.0</ele><time>2026-04-12T06:36:45.447Z</time></trkpt><trkpt lat="44.94892" lon="8.1216283"><ele>255.0</ele><time>2026-04-12T06:36:46.447Z</time></trkpt><trkpt lat="44.9488583" lon="8.1216867"><ele>255.0</ele><time>2026-04-12T06:36:47.447Z</time></trkpt><trkpt lat="44.9487867" lon="8.1217417"><ele>256.3333333333333</ele><time>2026-04-12T06:36:48.447Z</time></trkpt><trkpt lat="44.9487233" lon="8.12179"><ele>257.6666666666667</ele><time>2026-04-12T06:36:49.447Z</time></trkpt><trkpt lat="44.948655" lon="8.12184"><ele>259.0</ele><time>2026-04-12T06:36:50.447Z</time></trkpt><trkpt lat="44.94858" lon="8.121895"><ele>260.33333333333337</ele><time>2026-04-12T06:36:51.447Z</time></trkpt><trkpt lat="44.948505" lon="8.1219683"><ele>261.6666666666667</ele><time>2026-04-12T06:36:52.447Z</time></trkpt><trkpt lat="44.948445" lon="8.12204"><ele>263.0</ele><time>2026-04-12T06:36:53.447Z</time></trkpt><trkpt lat="44.9483817" lon="8.1221133"><ele>262.57142857142856</ele><time>2026-04-12T06:36:54.447Z</time></trkpt><trkpt lat="44.9483167" lon="8.1221783"><ele>262.1428571428571</ele><time>2026-04-12T06:36:55.447Z</time></trkpt><trkpt lat="44.94826" lon="8.1222433"><ele>261.7142857142857</ele><time>2026-04-12T06:36:56.447Z</time></trkpt><trkpt lat="44.948185" lon="8.1223067"><ele>261.2857142857143</ele><time>2026-04-12T06:36:57.447Z</time></trkpt><trkpt lat="44.9481233" lon="8.12237"><ele>260.8571428571429</ele><time>2026-04-12T06:36:58.447Z</time></trkpt><trkpt lat="44.94807" lon="8.1224233"><ele>260.42857142857144</ele><time>2026-04-12T06:36:59.447Z</time></trkpt><trkpt lat="44.94801" lon="8.1224533"><ele>260.0</ele><time>2026-04-12T06:37:00.447Z</time></trkpt><trkpt lat="44.9479417" lon="8.1224533"><ele>260.0</ele><time>2026-04-12T06:37:01.447Z</time></trkpt><trkpt lat="44.9478317" lon="8.1224483"><ele>260.0</ele><time>2026-04-12T06:37:03.447Z</time></trkpt><trkpt lat="44.9477117" lon="8.1224533"><ele>260.0</ele><time>2026-04-12T06:37:05.447Z</time></trkpt><trkpt lat="44.9476" lon="8.1224833"><ele>260.0</ele><time>2026-04-12T06:37:07.447Z</time></trkpt><trkpt lat="44.9474867" lon="8.1225133"><ele>259.42857142857144</ele><time>2026-04-12T06:37:09.447Z</time></trkpt><trkpt lat="44.9473983" lon="8.1225567"><ele>258.8571428571429</ele><time>2026-04-12T06:37:11.447Z</time></trkpt><trkpt lat="44.9473183" lon="8.1226033"><ele>258.2857142857143</ele><time>2026-04-12T06:37:13.447Z</time></trkpt><trkpt lat="44.947255" lon="8.1226133"><ele>257.7142857142857</ele><time>2026-04-12T06:37:14.447Z</time></trkpt><trkpt lat="44.9471867" lon="8.1226267"><ele>257.1428571428571</ele><time>2026-04-12T06:37:15.447Z</time></trkpt><trkpt lat="44.9471217" lon="8.122635"><ele>256.57142857142856</ele><time>2026-04-12T06:37:16.447Z</time></trkpt><trkpt lat="44.947055" lon="8.1226367"><ele>256.0</ele><time>2026-04-12T06:37:17.447Z</time></trkpt><trkpt lat="44.94698" lon="8.122625"><ele>256.0</ele><time>2026-04-12T06:37:18.447Z</time></trkpt><trkpt lat="44.9469033" lon="8.1226117"><ele>255.99999999999997</ele><time>2026-04-12T06:37:19.447Z</time></trkpt><trkpt lat="44.94683" lon="8.122595"><ele>256.0</ele><time>2026-04-12T06:37:20.447Z</time></trkpt><trkpt lat="44.9467533" lon="8.1225917"><ele>256.0</ele><time>2026-04-12T06:37:21.447Z</time></trkpt><trkpt lat="44.94668" lon="8.1225933"><ele>255.99999999999997</ele><time>2026-04-12T06:37:22.447Z</time></trkpt><trkpt lat="44.94661" lon="8.1225883"><ele>256.0</ele><time>2026-04-12T06:37:23.447Z</time></trkpt><trkpt lat="44.94654" lon="8.1225867"><ele>256.0</ele><time>2026-04-12T06:37:24.447Z</time></trkpt><trkpt lat="44.9464717" lon="8.12257"><ele>255.49999999999997</ele><time>2026-04-12T06:37:25.447Z</time></trkpt><trkpt lat="44.9463983" lon="8.122545"><ele>255.0</ele><time>2026-04-12T06:37:26.447Z</time></trkpt><trkpt lat="44.946335" lon="8.1225283"><ele>254.5</ele><time>2026-04-12T06:37:27.447Z</time></trkpt><trkpt lat="44.9462333" lon="8.122585"><ele>254.0</ele><time>2026-04-12T06:37:29.447Z</time></trkpt><trkpt lat="44.94616" lon="8.1226583"><ele>253.49999999999997</ele><time>2026-04-12T06:37:31.447Z</time></trkpt><trkpt lat="44.9460933" lon="8.1227667"><ele>253.0</ele><time>2026-04-12T06:37:33.447Z</time></trkpt><trkpt lat="44.946065" lon="8.1228867"><ele>253.0</ele><time>2026-04-12T06:37:35.447Z</time></trkpt><trkpt lat="44.9460283" lon="8.12302"><ele>253.0</ele><time>2026-04-12T06:37:37.447Z</time></trkpt><trkpt lat="44.9459867" lon="8.123175"><ele>253.0</ele><time>2026-04-12T06:37:39.447Z</time></trkpt><trkpt lat="44.94594" lon="8.1233133"><ele>253.0</ele><time>2026-04-12T06:37:41.447Z</time></trkpt><trkpt lat="44.9458583" lon="8.1234367"><ele>253.0</ele><time>2026-04-12T06:37:43.447Z</time></trkpt><trkpt lat="44.945805" lon="8.12349"><ele>252.99999999999997</ele><time>2026-04-12T06:37:44.447Z</time></trkpt><trkpt lat="44.9457533" lon="8.123545"><ele>253.0</ele><time>2026-04-12T06:37:45.447Z</time></trkpt><trkpt lat="44.9456483" lon="8.1236417"><ele>253.0</ele><time>2026-04-12T06:37:47.447Z</time></trkpt><trkpt lat="44.9455867" lon="8.1236683"><ele>253.0</ele><time>2026-04-12T06:37:48.447Z</time></trkpt><trkpt lat="44.94552" lon="8.123685"><ele>252.99999999999997</ele><time>2026-04-12T06:37:49.447Z</time></trkpt><trkpt lat="44.945415" lon="8.1236467"><ele>253.0</ele><time>2026-04-12T06:37:51.447Z</time></trkpt><trkpt lat="44.9453317" lon="8.1235867"><ele>252.99999999999997</ele><time>2026-04-12T06:37:53.447Z</time></trkpt><trkpt lat="44.945255" lon="8.123565"><ele>253.0</ele><time>2026-04-12T06:37:55.447Z</time></trkpt><trkpt lat="44.94516" lon="8.1235833"><ele>253.0</ele><time>2026-04-12T06:37:57.447Z</time></trkpt><trkpt lat="44.9450717" lon="8.1236017"><ele>253.0</ele><time>2026-04-12T06:37:59.447Z</time></trkpt><trkpt lat="44.944995" lon="8.1236383"><ele>252.99999999999997</ele><time>2026-04-12T06:38:01.447Z</time></trkpt><trkpt lat="44.9449017" lon="8.1236967"><ele>253.0</ele><time>2026-04-12T06:38:03.447Z</time></trkpt><trkpt lat="44.9448183" lon="8.123745"><ele>252.0</ele><time>2026-04-12T06:38:05.447Z</time></trkpt><trkpt lat="44.9447" lon="8.1238017"><ele>251.0</ele><time>2026-04-12T06:38:07.447Z</time></trkpt><trkpt lat="44.944595" lon="8.123835"><ele>250.0</ele><time>2026-04-12T06:38:09.447Z</time></trkpt><trkpt lat="44.9444833" lon="8.1238583"><ele>249.0</ele><time>2026-04-12T06:38:11.447Z</time></trkpt><trkpt lat="44.9443717" lon="8.1238733"><ele>249.0</ele><time>2026-04-12T06:38:13.447Z</time></trkpt><trkpt lat="44.9442617" lon="8.1238933"><ele>248.99999999999997</ele><time>2026-04-12T06:38:15.447Z</time></trkpt><trkpt lat="44.9441567" lon="8.123915"><ele>248.99999999999997</ele><time>2026-04-12T06:38:17.447Z</time></trkpt><trkpt lat="44.9440633" lon="8.1239367"><ele>249.0</ele><time>2026-04-12T06:38:19.447Z</time></trkpt><trkpt lat="44.943985" lon="8.123955"><ele>249.0</ele><time>2026-04-12T06:38:21.447Z</time></trkpt><trkpt lat="44.9439017" lon="8.12397"><ele>249.16666666666666</ele><time>2026-04-12T06:38:23.447Z</time></trkpt><trkpt lat="44.943825" lon="8.123995"><ele>249.33333333333331</ele><time>2026-04-12T06:38:25.447Z</time></trkpt><trkpt lat="44.94376" lon="8.1240283"><ele>249.5</ele><time>2026-04-12T06:38:27.447Z</time></trkpt><trkpt lat="44.9436783" lon="8.1240667"><ele>249.66666666666666</ele><time>2026-04-12T06:38:29.447Z</time></trkpt><trkpt lat="44.943585" lon="8.1241017"><ele>249.83333333333331</ele><time>2026-04-12T06:38:31.448Z</time></trkpt><trkpt lat="44.943515" lon="8.12414"><ele>250.0</ele><time>2026-04-12T06:38:33.447Z</time></trkpt><trkpt lat="44.943455" lon="8.1241683"><ele>249.33333333333331</ele><time>2026-04-12T06:38:35.447Z</time></trkpt><trkpt lat="44.943385" lon="8.1242133"><ele>248.66666666666666</ele><time>2026-04-12T06:38:37.447Z</time></trkpt><trkpt lat="44.943315" lon="8.1242783"><ele>248.0</ele><time>2026-04-12T06:38:39.447Z</time></trkpt><trkpt lat="44.943245" lon="8.1243467"><ele>247.33333333333331</ele><time>2026-04-12T06:38:41.447Z</time></trkpt><trkpt lat="44.9431683" lon="8.124405"><ele>246.66666666666666</ele><time>2026-04-12T06:38:43.447Z</time></trkpt><trkpt lat="44.9430967" lon="8.1244583"><ele>246.0</ele><time>2026-04-12T06:38:45.447Z</time></trkpt><trkpt lat="44.9430283" lon="8.1245133"><ele>247.5</ele><time>2026-04-12T06:38:47.447Z</time></trkpt><trkpt lat="44.9429433" lon="8.1245617"><ele>249.0</ele><time>2026-04-12T06:38:50.447Z</time></trkpt><trkpt lat="44.9428683" lon="8.124605"><ele>250.5</ele><time>2026-04-12T06:38:53.447Z</time></trkpt><trkpt lat="44.9427833" lon="8.1246633"><ele>252.0</ele><time>2026-04-12T06:38:57.447Z</time></trkpt><trkpt lat="44.9427283" lon="8.1247183"><ele>253.5</ele><time>2026-04-12T06:38:59.447Z</time></trkpt><trkpt lat="44.9426683" lon="8.12479"><ele>255.0</ele><time>2026-04-12T06:39:01.447Z</time></trkpt><trkpt lat="44.9426" lon="8.1248867"><ele>254.5</ele><time>2026-04-12T06:39:03.447Z</time></trkpt><trkpt lat="44.94253" lon="8.1250017"><ele>254.0</ele><time>2026-04-12T06:39:05.447Z</time></trkpt><trkpt lat="44.9424533" lon="8.125125"><ele>253.5</ele><time>2026-04-12T06:39:07.447Z</time></trkpt><trkpt lat="44.94241" lon="8.1251933"><ele>253.0</ele><time>2026-04-12T06:39:08.447Z</time></trkpt><trkpt lat="44.9423633" lon="8.1252617"><ele>252.5</ele><time>2026-04-12T06:39:09.447Z</time></trkpt><trkpt lat="44.9423083" lon="8.125325"><ele>252.0</ele><time>2026-04-12T06:39:10.447Z</time></trkpt><trkpt lat="44.94225" lon="8.125385"><ele>252.0</ele><time>2026-04-12T06:39:11.447Z</time></trkpt><trkpt lat="44.9421933" lon="8.125435"><ele>252.0</ele><time>2026-04-12T06:39:12.447Z</time></trkpt><trkpt lat="44.9421383" lon="8.12549"><ele>252.0</ele><time>2026-04-12T06:39:13.447Z</time></trkpt><trkpt lat="44.9420817" lon="8.1255433"><ele>252.0</ele><time>2026-04-12T06:39:14.448Z</time></trkpt><trkpt lat="44.9420283" lon="8.1256"><ele>252.0</ele><time>2026-04-12T06:39:15.447Z</time></trkpt><trkpt lat="44.9419717" lon="8.125645"><ele>252.0</ele><time>2026-04-12T06:39:16.447Z</time></trkpt><trkpt lat="44.9419033" lon="8.1256967"><ele>252.0</ele><time>2026-04-12T06:39:17.447Z</time></trkpt><trkpt lat="44.941835" lon="8.12574"><ele>251.83333333333334</ele><time>2026-04-12T06:39:18.447Z</time></trkpt><trkpt lat="44.9417717" lon="8.1257733"><ele>251.66666666666669</ele><time>2026-04-12T06:39:19.447Z</time></trkpt><trkpt lat="44.9417067" lon="8.12581"><ele>251.5</ele><time>2026-04-12T06:39:20.447Z</time></trkpt><trkpt lat="44.9416433" lon="8.1258417"><ele>251.33333333333334</ele><time>2026-04-12T06:39:21.447Z</time></trkpt><trkpt lat="44.941575" lon="8.125865"><ele>251.16666666666669</ele><time>2026-04-12T06:39:22.447Z</time></trkpt><trkpt lat="44.94151" lon="8.12589"><ele>251.0</ele><time>2026-04-12T06:39:23.447Z</time></trkpt><trkpt lat="44.9413933" lon="8.1259367"><ele>251.5</ele><time>2026-04-12T06:39:25.447Z</time></trkpt><trkpt lat="44.9412867" lon="8.1259867"><ele>252.0</ele><time>2026-04-12T06:39:27.447Z</time></trkpt><trkpt lat="44.9411783" lon="8.1260317"><ele>252.5</ele><time>2026-04-12T06:39:29.447Z</time></trkpt><trkpt lat="44.9410583" lon="8.1260733"><ele>253.0</ele><time>2026-04-12T06:39:31.447Z</time></trkpt><trkpt lat="44.9409483" lon="8.12612"><ele>253.2</ele><time>2026-04-12T06:39:33.447Z</time></trkpt><trkpt lat="44.940845" lon="8.12616"><ele>253.4</ele><time>2026-04-12T06:39:35.447Z</time></trkpt><trkpt lat="44.9407667" lon="8.1262133"><ele>253.59999999999997</ele><time>2026-04-12T06:39:37.447Z</time></trkpt><trkpt lat="44.9406867" lon="8.1262683"><ele>253.79999999999998</ele><time>2026-04-12T06:39:39.447Z</time></trkpt><trkpt lat="44.940575" lon="8.12635"><ele>254.0</ele><time>2026-04-12T06:39:41.447Z</time></trkpt><trkpt lat="44.9404867" lon="8.12643"><ele>254.00000000000003</ele><time>2026-04-12T06:39:43.447Z</time></trkpt><trkpt lat="44.9404083" lon="8.1265283"><ele>254.0</ele><time>2026-04-12T06:39:45.448Z</time></trkpt><trkpt lat="44.9403433" lon="8.12667"><ele>254.0</ele><time>2026-04-12T06:39:47.447Z</time></trkpt><trkpt lat="44.94031" lon="8.1267617"><ele>254.0</ele><time>2026-04-12T06:39:48.447Z</time></trkpt><trkpt lat="44.9402883" lon="8.126855"><ele>254.00000000000003</ele><time>2026-04-12T06:39:49.447Z</time></trkpt><trkpt lat="44.9402733" lon="8.1269483"><ele>254.0</ele><time>2026-04-12T06:39:50.447Z</time></trkpt><trkpt lat="44.9402167" lon="8.12711"><ele>253.66666666666669</ele><time>2026-04-12T06:39:52.447Z</time></trkpt><trkpt lat="44.940175" lon="8.1271917"><ele>253.33333333333334</ele><time>2026-04-12T06:39:53.447Z</time></trkpt><trkpt lat="44.940145" lon="8.12728"><ele>253.0</ele><time>2026-04-12T06:39:54.447Z</time></trkpt><trkpt lat="44.9401167" lon="8.12736"><ele>252.66666666666669</ele><time>2026-04-12T06:39:55.447Z</time></trkpt><trkpt lat="44.9400667" lon="8.12751"><ele>252.33333333333334</ele><time>2026-04-12T06:39:57.447Z</time></trkpt><trkpt lat="44.9400217" lon="8.1276283"><ele>252.0</ele><time>2026-04-12T06:39:59.447Z</time></trkpt><trkpt lat="44.9399583" lon="8.1277483"><ele>252.0</ele><time>2026-04-12T06:40:01.448Z</time></trkpt><trkpt lat="44.9398883" lon="8.1278617"><ele>252.0</ele><time>2026-04-12T06:40:03.447Z</time></trkpt><trkpt lat="44.93982" lon="8.1279433"><ele>252.0</ele><time>2026-04-12T06:40:05.447Z</time></trkpt><trkpt lat="44.9397433" lon="8.1280167"><ele>252.0</ele><time>2026-04-12T06:40:07.447Z</time></trkpt><trkpt lat="44.939665" lon="8.1280917"><ele>252.0</ele><time>2026-04-12T06:40:09.447Z</time></trkpt><trkpt lat="44.9395917" lon="8.12818"><ele>252.16666666666666</ele><time>2026-04-12T06:40:11.447Z</time></trkpt><trkpt lat="44.9395183" lon="8.1283067"><ele>252.33333333333331</ele><time>2026-04-12T06:40:13.447Z</time></trkpt><trkpt lat="44.9394767" lon="8.128375"><ele>252.5</ele><time>2026-04-12T06:40:14.447Z</time></trkpt><trkpt lat="44.939445" lon="8.128455"><ele>252.66666666666666</ele><time>2026-04-12T06:40:15.447Z</time></trkpt><trkpt lat="44.93942" lon="8.12854"><ele>252.83333333333331</ele><time>2026-04-12T06:40:16.447Z</time></trkpt><trkpt lat="44.93937" lon="8.1287033"><ele>253.0</ele><time>2026-04-12T06:40:18.447Z</time></trkpt><trkpt lat="44.939285" lon="8.1288283"><ele>252.99999999999997</ele><time>2026-04-12T06:40:20.447Z</time></trkpt><trkpt lat="44.93923" lon="8.1288817"><ele>253.0</ele><time>2026-04-12T06:40:21.447Z</time></trkpt><trkpt lat="44.93918" lon="8.1289467"><ele>253.0</ele><time>2026-04-12T06:40:22.447Z</time></trkpt><trkpt lat="44.939075" lon="8.1290433"><ele>253.0</ele><time>2026-04-12T06:40:24.447Z</time></trkpt><trkpt lat="44.93902" lon="8.1290983"><ele>252.99999999999997</ele><time>2026-04-12T06:40:25.447Z</time></trkpt><trkpt lat="44.938965" lon="8.1291467"><ele>253.0</ele><time>2026-04-12T06:40:26.447Z</time></trkpt><trkpt lat="44.9389067" lon="8.1292083"><ele>252.71428571428575</ele><time>2026-04-12T06:40:27.447Z</time></trkpt><trkpt lat="44.93885" lon="8.1292733"><ele>252.42857142857144</ele><time>2026-04-12T06:40:28.448Z</time></trkpt><trkpt lat="44.93879" lon="8.12933"><ele>252.14285714285714</ele><time>2026-04-12T06:40:29.447Z</time></trkpt><trkpt lat="44.9387333" lon="8.1293867"><ele>251.85714285714286</ele><time>2026-04-12T06:40:30.447Z</time></trkpt><trkpt lat="44.9386783" lon="8.1294533"><ele>251.57142857142856</ele><time>2026-04-12T06:40:31.447Z</time></trkpt><trkpt lat="44.9386283" lon="8.1295267"><ele>251.28571428571425</ele><time>2026-04-12T06:40:32.447Z</time></trkpt><trkpt lat="44.9385783" lon="8.1296067"><ele>250.99999999999997</ele><time>2026-04-12T06:40:33.447Z</time></trkpt><trkpt lat="44.9385333" lon="8.12969"><ele>250.99999999999997</ele><time>2026-04-12T06:40:34.447Z</time></trkpt><trkpt lat="44.9385017" lon="8.1297817"><ele>251.0</ele><time>2026-04-12T06:40:35.447Z</time></trkpt><trkpt lat="44.938475" lon="8.12988"><ele>250.99999999999997</ele><time>2026-04-12T06:40:36.448Z</time></trkpt><trkpt lat="44.9384483" lon="8.1299717"><ele>250.99999999999997</ele><time>2026-04-12T06:40:37.447Z</time></trkpt><trkpt lat="44.9384217" lon="8.1300667"><ele>251.0</ele><time>2026-04-12T06:40:38.447Z</time></trkpt><trkpt lat="44.9383967" lon="8.1301583"><ele>250.99999999999997</ele><time>2026-04-12T06:40:39.447Z</time></trkpt><trkpt lat="44.93837" lon="8.13025"><ele>250.99999999999997</ele><time>2026-04-12T06:40:40.447Z</time></trkpt><trkpt lat="44.9383467" lon="8.130335"><ele>251.5</ele><time>2026-04-12T06:40:41.447Z</time></trkpt><trkpt lat="44.938295" lon="8.13048"><ele>252.0</ele><time>2026-04-12T06:40:43.447Z</time></trkpt><trkpt lat="44.93823" lon="8.1306083"><ele>252.5</ele><time>2026-04-12T06:40:45.447Z</time></trkpt><trkpt lat="44.9381467" lon="8.130715"><ele>253.0</ele><time>2026-04-12T06:40:47.447Z</time></trkpt><trkpt lat="44.9380617" lon="8.1308517"><ele>253.16666666666666</ele><time>2026-04-12T06:40:49.447Z</time></trkpt><trkpt lat="44.9380267" lon="8.1309433"><ele>253.33333333333331</ele><time>2026-04-12T06:40:50.447Z</time></trkpt><trkpt lat="44.93799" lon="8.131045"><ele>253.5</ele><time>2026-04-12T06:40:51.447Z</time></trkpt><trkpt lat="44.9379583" lon="8.1311483"><ele>253.66666666666669</ele><time>2026-04-12T06:40:52.447Z</time></trkpt><trkpt lat="44.93793" lon="8.131255"><ele>253.83333333333334</ele><time>2026-04-12T06:40:53.447Z</time></trkpt><trkpt lat="44.937875" lon="8.131355"><ele>254.0</ele><time>2026-04-12T06:40:54.447Z</time></trkpt><trkpt lat="44.9378367" lon="8.1314533"><ele>254.00000000000003</ele><time>2026-04-12T06:40:55.447Z</time></trkpt><trkpt lat="44.9378133" lon="8.1315467"><ele>254.0</ele><time>2026-04-12T06:40:56.447Z</time></trkpt><trkpt lat="44.9377967" lon="8.131635"><ele>254.0</ele><time>2026-04-12T06:40:57.447Z</time></trkpt><trkpt lat="44.937775" lon="8.13173"><ele>254.0</ele><time>2026-04-12T06:40:58.447Z</time></trkpt><trkpt lat="44.9377383" lon="8.1318917"><ele>254.00000000000003</ele><time>2026-04-12T06:41:00.447Z</time></trkpt><trkpt lat="44.9376933" lon="8.1320467"><ele>254.0</ele><time>2026-04-12T06:41:02.447Z</time></trkpt><trkpt lat="44.937645" lon="8.1321917"><ele>252.50000000000003</ele><time>2026-04-12T06:41:04.447Z</time></trkpt><trkpt lat="44.93761" lon="8.1322733"><ele>251.0</ele><time>2026-04-12T06:41:05.447Z</time></trkpt><trkpt lat="44.937575" lon="8.13235"><ele>249.5</ele><time>2026-04-12T06:41:06.447Z</time></trkpt><trkpt lat="44.93753" lon="8.1324333"><ele>248.0</ele><time>2026-04-12T06:41:07.448Z</time></trkpt><trkpt lat="44.937475" lon="8.1325217"><ele>246.50000000000003</ele><time>2026-04-12T06:41:08.447Z</time></trkpt><trkpt lat="44.9374167" lon="8.1326167"><ele>245.0</ele><time>2026-04-12T06:41:09.447Z</time></trkpt><trkpt lat="44.93738" lon="8.1327317"><ele>244.83333333333334</ele><time>2026-04-12T06:41:10.447Z</time></trkpt><trkpt lat="44.9373533" lon="8.1328683"><ele>244.66666666666669</ele><time>2026-04-12T06:41:11.447Z</time></trkpt><trkpt lat="44.93734" lon="8.1329917"><ele>244.5</ele><time>2026-04-12T06:41:12.447Z</time></trkpt><trkpt lat="44.93733" lon="8.1331067"><ele>244.33333333333331</ele><time>2026-04-12T06:41:13.447Z</time></trkpt><trkpt lat="44.9373133" lon="8.1332067"><ele>244.16666666666666</ele><time>2026-04-12T06:41:14.447Z</time></trkpt><trkpt lat="44.93728" lon="8.13329"><ele>244.0</ele><time>2026-04-12T06:41:15.447Z</time></trkpt><trkpt lat="44.9372317" lon="8.1333667"><ele>242.2</ele><time>2026-04-12T06:41:16.447Z</time></trkpt><trkpt lat="44.93718" lon="8.1334383"><ele>240.39999999999998</ele><time>2026-04-12T06:41:17.447Z</time></trkpt><trkpt lat="44.937115" lon="8.1335183"><ele>238.6</ele><time>2026-04-12T06:41:18.447Z</time></trkpt><trkpt lat="44.9370283" lon="8.1335883"><ele>236.8</ele><time>2026-04-12T06:41:19.447Z</time></trkpt><trkpt lat="44.9369317" lon="8.1336567"><ele>235.0</ele><time>2026-04-12T06:41:20.447Z</time></trkpt><trkpt lat="44.9368333" lon="8.133725"><ele>235.0</ele><time>2026-04-12T06:41:21.447Z</time></trkpt><trkpt lat="44.9367433" lon="8.1337917"><ele>235.0</ele><time>2026-04-12T06:41:22.447Z</time></trkpt><trkpt lat="44.9366433" lon="8.1338467"><ele>235.0</ele><time>2026-04-12T06:41:23.447Z</time></trkpt><trkpt lat="44.9365433" lon="8.13389"><ele>235.0</ele><time>2026-04-12T06:41:24.447Z</time></trkpt><trkpt lat="44.936435" lon="8.1339283"><ele>235.0</ele><time>2026-04-12T06:41:25.447Z</time></trkpt><trkpt lat="44.9363283" lon="8.1339683"><ele>234.2</ele><time>2026-04-12T06:41:26.447Z</time></trkpt><trkpt lat="44.9362167" lon="8.1340167"><ele>233.4</ele><time>2026-04-12T06:41:27.447Z</time></trkpt><trkpt lat="44.9361133" lon="8.1340783"><ele>232.60000000000002</ele><time>2026-04-12T06:41:28.447Z</time></trkpt><trkpt lat="44.936015" lon="8.1341533"><ele>231.8</ele><time>2026-04-12T06:41:29.447Z</time></trkpt><trkpt lat="44.9359183" lon="8.134215"><ele>231.0</ele><time>2026-04-12T06:41:30.447Z</time></trkpt><trkpt lat="44.93583" lon="8.1342783"><ele>230.83333333333334</ele><time>2026-04-12T06:41:31.447Z</time></trkpt><trkpt lat="44.9357417" lon="8.1343317"><ele>230.66666666666669</ele><time>2026-04-12T06:41:32.447Z</time></trkpt><trkpt lat="44.9356533" lon="8.1343683"><ele>230.5</ele><time>2026-04-12T06:41:33.447Z</time></trkpt><trkpt lat="44.9355733" lon="8.134395"><ele>230.33333333333334</ele><time>2026-04-12T06:41:34.447Z</time></trkpt><trkpt lat="44.9354917" lon="8.134425"><ele>230.16666666666669</ele><time>2026-04-12T06:41:35.447Z</time></trkpt><trkpt lat="44.935415" lon="8.13445"><ele>230.0</ele><time>2026-04-12T06:41:36.447Z</time></trkpt><trkpt lat="44.93534" lon="8.1344683"><ele>230.00000000000003</ele><time>2026-04-12T06:41:37.447Z</time></trkpt><trkpt lat="44.93526" lon="8.134485"><ele>230.0</ele><time>2026-04-12T06:41:38.447Z</time></trkpt><trkpt lat="44.93518" lon="8.1344817"><ele>230.0</ele><time>2026-04-12T06:41:39.447Z</time></trkpt><trkpt lat="44.9350983" lon="8.1344617"><ele>230.0</ele><time>2026-04-12T06:41:40.447Z</time></trkpt><trkpt lat="44.935025" lon="8.13442"><ele>230.00000000000003</ele><time>2026-04-12T06:41:41.447Z</time></trkpt><trkpt lat="44.93495" lon="8.1343817"><ele>230.0</ele><time>2026-04-12T06:41:42.447Z</time></trkpt><trkpt lat="44.934875" lon="8.134345"><ele>230.4285714285714</ele><time>2026-04-12T06:41:43.447Z</time></trkpt><trkpt lat="44.934805" lon="8.134315"><ele>230.85714285714283</ele><time>2026-04-12T06:41:44.447Z</time></trkpt><trkpt lat="44.9347333" lon="8.1343083"><ele>231.28571428571428</ele><time>2026-04-12T06:41:45.447Z</time></trkpt><trkpt lat="44.934665" lon="8.1343267"><ele>231.7142857142857</ele><time>2026-04-12T06:41:46.447Z</time></trkpt><trkpt lat="44.9345983" lon="8.1343683"><ele>232.1428571428571</ele><time>2026-04-12T06:41:47.447Z</time></trkpt><trkpt lat="44.93454" lon="8.1344267"><ele>232.57142857142858</ele><time>2026-04-12T06:41:48.447Z</time></trkpt><trkpt lat="44.93448" lon="8.1344917"><ele>233.0</ele><time>2026-04-12T06:41:49.447Z</time></trkpt><trkpt lat="44.9344033" lon="8.1345967"><ele>233.0</ele><time>2026-04-12T06:41:51.447Z</time></trkpt><trkpt lat="44.9343267" lon="8.1346983"><ele>233.0</ele><time>2026-04-12T06:41:53.447Z</time></trkpt><trkpt lat="44.9342583" lon="8.1347917"><ele>233.0</ele><time>2026-04-12T06:41:55.447Z</time></trkpt><trkpt lat="44.9341917" lon="8.1348717"><ele>233.0</ele><time>2026-04-12T06:41:57.447Z</time></trkpt><trkpt lat="44.9341133" lon="8.1349583"><ele>233.0</ele><time>2026-04-12T06:41:59.448Z</time></trkpt><trkpt lat="44.9340283" lon="8.135065"><ele>232.60000000000002</ele><time>2026-04-12T06:42:01.447Z</time></trkpt><trkpt lat="44.9339567" lon="8.135185"><ele>232.20000000000002</ele><time>2026-04-12T06:42:03.447Z</time></trkpt><trkpt lat="44.9339083" lon="8.1353183"><ele>231.8</ele><time>2026-04-12T06:42:05.447Z</time></trkpt><trkpt lat="44.933895" lon="8.1354717"><ele>231.4</ele><time>2026-04-12T06:42:07.447Z</time></trkpt><trkpt lat="44.9338733" lon="8.1356233"><ele>231.0</ele><time>2026-04-12T06:42:09.447Z</time></trkpt><trkpt lat="44.9338183" lon="8.1357583"><ele>231.0</ele><time>2026-04-12T06:42:11.447Z</time></trkpt><trkpt lat="44.93379" lon="8.135905"><ele>231.0</ele><time>2026-04-12T06:42:13.447Z</time></trkpt><trkpt lat="44.9337683" lon="8.13606"><ele>231.0</ele><time>2026-04-12T06:42:15.447Z</time></trkpt><trkpt lat="44.933755" lon="8.1362217"><ele>231.0</ele><time>2026-04-12T06:42:17.447Z</time></trkpt><trkpt lat="44.93377" lon="8.136395"><ele>231.0</ele><time>2026-04-12T06:42:19.447Z</time></trkpt><trkpt lat="44.9337967" lon="8.13648"><ele>231.0</ele><time>2026-04-12T06:42:20.447Z</time></trkpt><trkpt lat="44.9338317" lon="8.1365583"><ele>231.0</ele><time>2026-04-12T06:42:21.447Z</time></trkpt><trkpt lat="44.93387" lon="8.136635"><ele>231.0</ele><time>2026-04-12T06:42:22.447Z</time></trkpt><trkpt lat="44.933905" lon="8.1367133"><ele>231.0</ele><time>2026-04-12T06:42:23.447Z</time></trkpt><trkpt lat="44.93393" lon="8.1368"><ele>231.0</ele><time>2026-04-12T06:42:24.447Z</time></trkpt><trkpt lat="44.9339567" lon="8.1369533"><ele>231.0</ele><time>2026-04-12T06:42:26.447Z</time></trkpt><trkpt lat="44.9339733" lon="8.1371217"><ele>230.83333333333334</ele><time>2026-04-12T06:42:28.447Z</time></trkpt><trkpt lat="44.9339967" lon="8.1372117"><ele>230.66666666666669</ele><time>2026-04-12T06:42:29.447Z</time></trkpt><trkpt lat="44.9340383" lon="8.1372883"><ele>230.5</ele><time>2026-04-12T06:42:30.447Z</time></trkpt><trkpt lat="44.934125" lon="8.1374117"><ele>230.33333333333334</ele><time>2026-04-12T06:42:32.447Z</time></trkpt><trkpt lat="44.9341767" lon="8.1374717"><ele>230.16666666666669</ele><time>2026-04-12T06:42:33.447Z</time></trkpt><trkpt lat="44.9342383" lon="8.1375317"><ele>230.0</ele><time>2026-04-12T06:42:34.447Z</time></trkpt><trkpt lat="44.93429" lon="8.1375917"><ele>228.33333333333334</ele><time>2026-04-12T06:42:35.447Z</time></trkpt><trkpt lat="44.934345" lon="8.137665"><ele>226.66666666666669</ele><time>2026-04-12T06:42:36.447Z</time></trkpt><trkpt lat="44.9343967" lon="8.1377483"><ele>225.0</ele><time>2026-04-12T06:42:37.447Z</time></trkpt><trkpt lat="44.9344317" lon="8.1378517"><ele>223.33333333333331</ele><time>2026-04-12T06:42:38.447Z</time></trkpt><trkpt lat="44.9344583" lon="8.137965"><ele>221.66666666666666</ele><time>2026-04-12T06:42:39.447Z</time></trkpt><trkpt lat="44.934465" lon="8.1381083"><ele>220.0</ele><time>2026-04-12T06:42:40.447Z</time></trkpt><trkpt lat="44.9344617" lon="8.1382517"><ele>220.0</ele><time>2026-04-12T06:42:41.447Z</time></trkpt><trkpt lat="44.934455" lon="8.1384133"><ele>220.0</ele><time>2026-04-12T06:42:42.447Z</time></trkpt><trkpt lat="44.9344567" lon="8.1385817"><ele>220.0</ele><time>2026-04-12T06:42:43.447Z</time></trkpt><trkpt lat="44.9344733" lon="8.138745"><ele>220.0</ele><time>2026-04-12T06:42:44.447Z</time></trkpt><trkpt lat="44.9344933" lon="8.1388917"><ele>220.0</ele><time>2026-04-12T06:42:45.447Z</time></trkpt><trkpt lat="44.9345167" lon="8.13903"><ele>220.0</ele><time>2026-04-12T06:42:46.447Z</time></trkpt><trkpt lat="44.934535" lon="8.1391667"><ele>220.0</ele><time>2026-04-12T06:42:47.447Z</time></trkpt><trkpt lat="44.9345583" lon="8.1392917"><ele>220.0</ele><time>2026-04-12T06:42:48.447Z</time></trkpt><trkpt lat="44.9345833" lon="8.139405"><ele>220.0</ele><time>2026-04-12T06:42:49.447Z</time></trkpt><trkpt lat="44.9346017" lon="8.1395183"><ele>220.66666666666666</ele><time>2026-04-12T06:42:50.447Z</time></trkpt><trkpt lat="44.934605" lon="8.1396283"><ele>221.33333333333331</ele><time>2026-04-12T06:42:51.447Z</time></trkpt><trkpt lat="44.9346133" lon="8.13974"><ele>222.0</ele><time>2026-04-12T06:42:52.447Z</time></trkpt><trkpt lat="44.9346167" lon="8.13984"><ele>222.66666666666669</ele><time>2026-04-12T06:42:53.447Z</time></trkpt><trkpt lat="44.9346167" lon="8.1399383"><ele>223.33333333333334</ele><time>2026-04-12T06:42:54.447Z</time></trkpt><trkpt lat="44.9346067" lon="8.1400267"><ele>224.0</ele><time>2026-04-12T06:42:55.447Z</time></trkpt><trkpt lat="44.9345767" lon="8.1401833"><ele>224.2</ele><time>2026-04-12T06:42:57.447Z</time></trkpt><trkpt lat="44.9345417" lon="8.1403117"><ele>224.39999999999998</ele><time>2026-04-12T06:42:59.447Z</time></trkpt><trkpt lat="44.9344983" lon="8.1404417"><ele>224.6</ele><time>2026-04-12T06:43:01.448Z</time></trkpt><trkpt lat="44.9344267" lon="8.140595"><ele>224.8</ele><time>2026-04-12T06:43:03.447Z</time></trkpt><trkpt lat="44.9343817" lon="8.1406833"><ele>225.0</ele><time>2026-04-12T06:43:04.447Z</time></trkpt><trkpt lat="44.9343283" lon="8.14077"><ele>225.5</ele><time>2026-04-12T06:43:05.447Z</time></trkpt><trkpt lat="44.9342733" lon="8.1408617"><ele>226.0</ele><time>2026-04-12T06:43:06.447Z</time></trkpt><trkpt lat="44.9342117" lon="8.140945"><ele>226.5</ele><time>2026-04-12T06:43:07.447Z</time></trkpt><trkpt lat="44.9341417" lon="8.1410267"><ele>227.0</ele><time>2026-04-12T06:43:08.447Z</time></trkpt><trkpt lat="44.9340683" lon="8.1411117"><ele>227.5</ele><time>2026-04-12T06:43:09.447Z</time></trkpt><trkpt lat="44.9339983" lon="8.1411883"><ele>228.0</ele><time>2026-04-12T06:43:10.447Z</time></trkpt><trkpt lat="44.9339183" lon="8.14127"><ele>228.0</ele><time>2026-04-12T06:43:11.447Z</time></trkpt><trkpt lat="44.9338467" lon="8.1413483"><ele>228.0</ele><time>2026-04-12T06:43:12.447Z</time></trkpt><trkpt lat="44.9337717" lon="8.1414433"><ele>228.0</ele><time>2026-04-12T06:43:13.447Z</time></trkpt><trkpt lat="44.933695" lon="8.14153"><ele>228.0</ele><time>2026-04-12T06:43:14.447Z</time></trkpt><trkpt lat="44.9336183" lon="8.1416233"><ele>228.0</ele><time>2026-04-12T06:43:15.447Z</time></trkpt><trkpt lat="44.9335467" lon="8.14173"><ele>226.60000000000002</ele><time>2026-04-12T06:43:16.447Z</time></trkpt><trkpt lat="44.9334767" lon="8.141835"><ele>225.20000000000002</ele><time>2026-04-12T06:43:17.447Z</time></trkpt><trkpt lat="44.9334067" lon="8.14194"><ele>223.8</ele><time>2026-04-12T06:43:18.447Z</time></trkpt><trkpt lat="44.933355" lon="8.1420567"><ele>222.4</ele><time>2026-04-12T06:43:19.447Z</time></trkpt><trkpt lat="44.9333167" lon="8.142195"><ele>221.0</ele><time>2026-04-12T06:43:20.447Z</time></trkpt><trkpt lat="44.933275" lon="8.1423367"><ele>220.20000000000002</ele><time>2026-04-12T06:43:21.447Z</time></trkpt><trkpt lat="44.93324" lon="8.14246"><ele>219.40000000000003</ele><time>2026-04-12T06:43:22.447Z</time></trkpt><trkpt lat="44.9331967" lon="8.1425767"><ele>218.6</ele><time>2026-04-12T06:43:23.447Z</time></trkpt><trkpt lat="44.9331583" lon="8.142695"><ele>217.8</ele><time>2026-04-12T06:43:24.447Z</time></trkpt><trkpt lat="44.933105" lon="8.142785"><ele>217.0</ele><time>2026-04-12T06:43:25.447Z</time></trkpt><trkpt lat="44.9330517" lon="8.1428833"><ele>217.0</ele><time>2026-04-12T06:43:26.447Z</time></trkpt><trkpt lat="44.932985" lon="8.1429867"><ele>217.0</ele><time>2026-04-12T06:43:27.447Z</time></trkpt><trkpt lat="44.9329217" lon="8.1430933"><ele>217.0</ele><time>2026-04-12T06:43:28.447Z</time></trkpt><trkpt lat="44.9328767" lon="8.1432183"><ele>217.0</ele><time>2026-04-12T06:43:29.447Z</time></trkpt><trkpt lat="44.9328467" lon="8.1433417"><ele>217.0</ele><time>2026-04-12T06:43:30.447Z</time></trkpt><trkpt lat="44.9328183" lon="8.1434683"><ele>216.83333333333331</ele><time>2026-04-12T06:43:31.447Z</time></trkpt><trkpt lat="44.9327933" lon="8.14359"><ele>216.66666666666666</ele><time>2026-04-12T06:43:32.447Z</time></trkpt><trkpt lat="44.932755" lon="8.1437017"><ele>216.5</ele><time>2026-04-12T06:43:33.447Z</time></trkpt><trkpt lat="44.9327117" lon="8.1438017"><ele>216.33333333333331</ele><time>2026-04-12T06:43:34.447Z</time></trkpt><trkpt lat="44.932655" lon="8.1439033"><ele>216.16666666666666</ele><time>2026-04-12T06:43:35.447Z</time></trkpt><trkpt lat="44.93259" lon="8.1439967"><ele>216.0</ele><time>2026-04-12T06:43:36.447Z</time></trkpt><trkpt lat="44.9325117" lon="8.1440767"><ele>216.0</ele><time>2026-04-12T06:43:37.447Z</time></trkpt><trkpt lat="44.93243" lon="8.1441533"><ele>216.0</ele><time>2026-04-12T06:43:38.447Z</time></trkpt><trkpt lat="44.932355" lon="8.1442233"><ele>216.0</ele><time>2026-04-12T06:43:39.447Z</time></trkpt><trkpt lat="44.9322833" lon="8.1442867"><ele>216.0</ele><time>2026-04-12T06:43:40.447Z</time></trkpt><trkpt lat="44.9322183" lon="8.144355"><ele>216.0</ele><time>2026-04-12T06:43:41.447Z</time></trkpt><trkpt lat="44.9321533" lon="8.1444217"><ele>216.0</ele><time>2026-04-12T06:43:42.447Z</time></trkpt><trkpt lat="44.93209" lon="8.1444933"><ele>216.0</ele><time>2026-04-12T06:43:43.447Z</time></trkpt><trkpt lat="44.9320417" lon="8.1445633"><ele>216.0</ele><time>2026-04-12T06:43:44.447Z</time></trkpt><trkpt lat="44.9320033" lon="8.1446483"><ele>216.0</ele><time>2026-04-12T06:43:45.447Z</time></trkpt><trkpt lat="44.9319717" lon="8.1447333"><ele>216.0</ele><time>2026-04-12T06:43:46.448Z</time></trkpt><trkpt lat="44.9319433" lon="8.1448233"><ele>216.0</ele><time>2026-04-12T06:43:47.447Z</time></trkpt><trkpt lat="44.9319233" lon="8.144915"><ele>216.0</ele><time>2026-04-12T06:43:48.447Z</time></trkpt><trkpt lat="44.931895" lon="8.1450833"><ele>214.83333333333334</ele><time>2026-04-12T06:43:50.447Z</time></trkpt><trkpt lat="44.93188" lon="8.1451767"><ele>213.66666666666669</ele><time>2026-04-12T06:43:51.447Z</time></trkpt><trkpt lat="44.9318633" lon="8.1452717"><ele>212.5</ele><time>2026-04-12T06:43:52.448Z</time></trkpt><trkpt lat="44.9318483" lon="8.1453733"><ele>211.33333333333334</ele><time>2026-04-12T06:43:53.447Z</time></trkpt><trkpt lat="44.9318333" lon="8.14548"><ele>210.16666666666669</ele><time>2026-04-12T06:43:54.447Z</time></trkpt><trkpt lat="44.9318217" lon="8.1455883"><ele>209.0</ele><time>2026-04-12T06:43:55.447Z</time></trkpt><trkpt lat="44.93182" lon="8.14571"><ele>209.2</ele><time>2026-04-12T06:43:56.447Z</time></trkpt><trkpt lat="44.9318217" lon="8.145835"><ele>209.39999999999998</ele><time>2026-04-12T06:43:57.447Z</time></trkpt><trkpt lat="44.9318317" lon="8.1459717"><ele>209.6</ele><time>2026-04-12T06:43:58.447Z</time></trkpt><trkpt lat="44.931845" lon="8.1461167"><ele>209.8</ele><time>2026-04-12T06:43:59.447Z</time></trkpt><trkpt lat="44.93186" lon="8.1462733"><ele>210.0</ele><time>2026-04-12T06:44:00.447Z</time></trkpt><trkpt lat="44.93188" lon="8.1464467"><ele>207.75</ele><time>2026-04-12T06:44:01.447Z</time></trkpt><trkpt lat="44.931905" lon="8.1466367"><ele>205.5</ele><time>2026-04-12T06:44:02.447Z</time></trkpt><trkpt lat="44.9319267" lon="8.1468317"><ele>203.25</ele><time>2026-04-12T06:44:03.447Z</time></trkpt><trkpt lat="44.9319433" lon="8.1470283"><ele>201.0</ele><time>2026-04-12T06:44:04.447Z</time></trkpt><trkpt lat="44.9319483" lon="8.14721"><ele>199.20000000000002</ele><time>2026-04-12T06:44:05.447Z</time></trkpt><trkpt lat="44.9319367" lon="8.14738"><ele>197.4</ele><time>2026-04-12T06:44:06.447Z</time></trkpt><trkpt lat="44.9319017" lon="8.1475383"><ele>195.6</ele><time>2026-04-12T06:44:07.447Z</time></trkpt><trkpt lat="44.9318583" lon="8.1476717"><ele>193.8</ele><time>2026-04-12T06:44:08.448Z</time></trkpt><trkpt lat="44.931805" lon="8.1477817"><ele>192.0</ele><time>2026-04-12T06:44:09.447Z</time></trkpt><trkpt lat="44.931755" lon="8.14788"><ele>194.16666666666666</ele><time>2026-04-12T06:44:10.447Z</time></trkpt><trkpt lat="44.93171" lon="8.14797"><ele>196.33333333333331</ele><time>2026-04-12T06:44:11.447Z</time></trkpt><trkpt lat="44.93166" lon="8.1480633"><ele>198.5</ele><time>2026-04-12T06:44:12.447Z</time></trkpt><trkpt lat="44.9316117" lon="8.14816"><ele>200.66666666666666</ele><time>2026-04-12T06:44:13.447Z</time></trkpt><trkpt lat="44.9315617" lon="8.14824"><ele>202.83333333333331</ele><time>2026-04-12T06:44:14.447Z</time></trkpt><trkpt lat="44.93151" lon="8.1483167"><ele>205.0</ele><time>2026-04-12T06:44:15.447Z</time></trkpt><trkpt lat="44.9314583" lon="8.1484033"><ele>205.99999999999997</ele><time>2026-04-12T06:44:16.447Z</time></trkpt><trkpt lat="44.9314017" lon="8.1484983"><ele>207.0</ele><time>2026-04-12T06:44:17.447Z</time></trkpt><trkpt lat="44.9313433" lon="8.1485917"><ele>208.0</ele><time>2026-04-12T06:44:18.447Z</time></trkpt><trkpt lat="44.931295" lon="8.1486883"><ele>209.0</ele><time>2026-04-12T06:44:19.447Z</time></trkpt><trkpt lat="44.931245" lon="8.1487867"><ele>209.99999999999997</ele><time>2026-04-12T06:44:20.447Z</time></trkpt><trkpt lat="44.9312067" lon="8.1489067"><ele>211.0</ele><time>2026-04-12T06:44:21.447Z</time></trkpt><trkpt lat="44.931165" lon="8.149025"><ele>209.16666666666666</ele><time>2026-04-12T06:44:22.447Z</time></trkpt><trkpt lat="44.93113" lon="8.14914"><ele>207.33333333333331</ele><time>2026-04-12T06:44:23.447Z</time></trkpt><trkpt lat="44.931105" lon="8.1492483"><ele>205.5</ele><time>2026-04-12T06:44:24.447Z</time></trkpt><trkpt lat="44.9310867" lon="8.1493567"><ele>203.66666666666669</ele><time>2026-04-12T06:44:25.447Z</time></trkpt><trkpt lat="44.9310667" lon="8.1494683"><ele>201.83333333333334</ele><time>2026-04-12T06:44:26.447Z</time></trkpt><trkpt lat="44.9310533" lon="8.1495833"><ele>200.0</ele><time>2026-04-12T06:44:27.447Z</time></trkpt><trkpt lat="44.9310417" lon="8.1497"><ele>200.00000000000003</ele><time>2026-04-12T06:44:28.447Z</time></trkpt><trkpt lat="44.9310217" lon="8.1498083"><ele>200.0</ele><time>2026-04-12T06:44:29.447Z</time></trkpt><trkpt lat="44.9310083" lon="8.1499217"><ele>200.0</ele><time>2026-04-12T06:44:30.447Z</time></trkpt><trkpt lat="44.9309967" lon="8.1500317"><ele>200.0</ele><time>2026-04-12T06:44:31.447Z</time></trkpt><trkpt lat="44.93099" lon="8.1501433"><ele>200.00000000000003</ele><time>2026-04-12T06:44:32.447Z</time></trkpt><trkpt lat="44.930985" lon="8.15025"><ele>200.0</ele><time>2026-04-12T06:44:33.447Z</time></trkpt><trkpt lat="44.9309817" lon="8.1503617"><ele>199.85714285714286</ele><time>2026-04-12T06:44:34.448Z</time></trkpt><trkpt lat="44.930965" lon="8.1504617"><ele>199.71428571428572</ele><time>2026-04-12T06:44:35.447Z</time></trkpt><trkpt lat="44.9309483" lon="8.15056"><ele>199.57142857142856</ele><time>2026-04-12T06:44:36.447Z</time></trkpt><trkpt lat="44.9309283" lon="8.15066"><ele>199.42857142857144</ele><time>2026-04-12T06:44:37.447Z</time></trkpt><trkpt lat="44.9309067" lon="8.1507517"><ele>199.28571428571428</ele><time>2026-04-12T06:44:38.447Z</time></trkpt><trkpt lat="44.9308833" lon="8.150845"><ele>199.14285714285714</ele><time>2026-04-12T06:44:39.447Z</time></trkpt><trkpt lat="44.9308583" lon="8.1509383"><ele>199.0</ele><time>2026-04-12T06:44:40.447Z</time></trkpt><trkpt lat="44.9308383" lon="8.15103"><ele>200.85714285714283</ele><time>2026-04-12T06:44:41.447Z</time></trkpt><trkpt lat="44.9308183" lon="8.1511233"><ele>202.71428571428572</ele><time>2026-04-12T06:44:42.447Z</time></trkpt><trkpt lat="44.9308033" lon="8.151225"><ele>204.57142857142856</ele><time>2026-04-12T06:44:43.447Z</time></trkpt><trkpt lat="44.9307967" lon="8.151325"><ele>206.42857142857142</ele><time>2026-04-12T06:44:44.447Z</time></trkpt><trkpt lat="44.9307867" lon="8.1514167"><ele>208.28571428571428</ele><time>2026-04-12T06:44:45.447Z</time></trkpt><trkpt lat="44.9307767" lon="8.1515117"><ele>210.14285714285714</ele><time>2026-04-12T06:44:46.447Z</time></trkpt><trkpt lat="44.9307683" lon="8.1516017"><ele>212.0</ele><time>2026-04-12T06:44:47.447Z</time></trkpt><trkpt lat="44.93076" lon="8.151785"><ele>212.39999999999998</ele><time>2026-04-12T06:44:49.447Z</time></trkpt><trkpt lat="44.9307583" lon="8.1518817"><ele>212.79999999999998</ele><time>2026-04-12T06:44:50.447Z</time></trkpt><trkpt lat="44.930765" lon="8.1519783"><ele>213.2</ele><time>2026-04-12T06:44:51.447Z</time></trkpt><trkpt lat="44.930785" lon="8.15215"><ele>213.6</ele><time>2026-04-12T06:44:53.447Z</time></trkpt><trkpt lat="44.93083" lon="8.1522967"><ele>214.0</ele><time>2026-04-12T06:44:55.447Z</time></trkpt><trkpt lat="44.9309" lon="8.1524217"><ele>213.2</ele><time>2026-04-12T06:44:57.447Z</time></trkpt><trkpt lat="44.9309783" lon="8.15254"><ele>212.39999999999998</ele><time>2026-04-12T06:44:59.448Z</time></trkpt><trkpt lat="44.9310583" lon="8.1526517"><ele>211.6</ele><time>2026-04-12T06:45:01.447Z</time></trkpt><trkpt lat="44.931135" lon="8.1527533"><ele>210.8</ele><time>2026-04-12T06:45:03.447Z</time></trkpt><trkpt lat="44.9311883" lon="8.152885"><ele>210.0</ele><time>2026-04-12T06:45:05.447Z</time></trkpt><trkpt lat="44.9311917" lon="8.1530467"><ele>209.4</ele><time>2026-04-12T06:45:07.448Z</time></trkpt><trkpt lat="44.9311683" lon="8.1532117"><ele>208.8</ele><time>2026-04-12T06:45:09.447Z</time></trkpt><trkpt lat="44.93113" lon="8.153355"><ele>208.2</ele><time>2026-04-12T06:45:11.447Z</time></trkpt><trkpt lat="44.9311017" lon="8.1534967"><ele>207.6</ele><time>2026-04-12T06:45:13.447Z</time></trkpt><trkpt lat="44.9310817" lon="8.1536433"><ele>207.0</ele><time>2026-04-12T06:45:15.448Z</time></trkpt><trkpt lat="44.931045" lon="8.15381"><ele>207.00000000000003</ele><time>2026-04-12T06:45:17.447Z</time></trkpt><trkpt lat="44.9310267" lon="8.1538983"><ele>207.0</ele><time>2026-04-12T06:45:18.447Z</time></trkpt><trkpt lat="44.9310033" lon="8.153985"><ele>207.0</ele><time>2026-04-12T06:45:19.447Z</time></trkpt><trkpt lat="44.9309833" lon="8.1540717"><ele>207.0</ele><time>2026-04-12T06:45:20.447Z</time></trkpt><trkpt lat="44.93096" lon="8.15416"><ele>207.0</ele><time>2026-04-12T06:45:21.447Z</time></trkpt><trkpt lat="44.9309367" lon="8.1542533"><ele>207.00000000000003</ele><time>2026-04-12T06:45:22.447Z</time></trkpt><trkpt lat="44.9309183" lon="8.1543567"><ele>207.0</ele><time>2026-04-12T06:45:23.447Z</time></trkpt><trkpt lat="44.9308917" lon="8.154465"><ele>207.66666666666666</ele><time>2026-04-12T06:45:24.447Z</time></trkpt><trkpt lat="44.93086" lon="8.1545717"><ele>208.33333333333331</ele><time>2026-04-12T06:45:25.447Z</time></trkpt><trkpt lat="44.930825" lon="8.1546667"><ele>209.0</ele><time>2026-04-12T06:45:26.447Z</time></trkpt><trkpt lat="44.930775" lon="8.1547667"><ele>209.66666666666666</ele><time>2026-04-12T06:45:27.447Z</time></trkpt><trkpt lat="44.930715" lon="8.1548733"><ele>210.33333333333331</ele><time>2026-04-12T06:45:28.447Z</time></trkpt><trkpt lat="44.930655" lon="8.1549783"><ele>211.0</ele><time>2026-04-12T06:45:29.447Z</time></trkpt><trkpt lat="44.930605" lon="8.1550933"><ele>211.0</ele><time>2026-04-12T06:45:30.448Z</time></trkpt><trkpt lat="44.9305617" lon="8.1552117"><ele>211.0</ele><time>2026-04-12T06:45:31.447Z</time></trkpt><trkpt lat="44.93052" lon="8.1553433"><ele>211.0</ele><time>2026-04-12T06:45:32.447Z</time></trkpt><trkpt lat="44.9304833" lon="8.1554667"><ele>211.0</ele><time>2026-04-12T06:45:33.447Z</time></trkpt><trkpt lat="44.9304533" lon="8.155595"><ele>211.0</ele><time>2026-04-12T06:45:34.447Z</time></trkpt><trkpt lat="44.9304217" lon="8.155725"><ele>209.83333333333331</ele><time>2026-04-12T06:45:35.447Z</time></trkpt><trkpt lat="44.9303917" lon="8.155845"><ele>208.66666666666666</ele><time>2026-04-12T06:45:36.447Z</time></trkpt><trkpt lat="44.9303783" lon="8.1559683"><ele>207.5</ele><time>2026-04-12T06:45:37.447Z</time></trkpt><trkpt lat="44.9303833" lon="8.1560917"><ele>206.33333333333331</ele><time>2026-04-12T06:45:38.447Z</time></trkpt><trkpt lat="44.9303967" lon="8.156205"><ele>205.16666666666666</ele><time>2026-04-12T06:45:39.447Z</time></trkpt><trkpt lat="44.93042" lon="8.1563117"><ele>204.0</ele><time>2026-04-12T06:45:40.447Z</time></trkpt><trkpt lat="44.9304467" lon="8.1564083"><ele>204.0</ele><time>2026-04-12T06:45:41.447Z</time></trkpt><trkpt lat="44.9304717" lon="8.1565017"><ele>204.0</ele><time>2026-04-12T06:45:42.447Z</time></trkpt><trkpt lat="44.93049" lon="8.156595"><ele>204.0</ele><time>2026-04-12T06:45:43.447Z</time></trkpt><trkpt lat="44.9305083" lon="8.15676"><ele>204.0</ele><time>2026-04-12T06:45:45.447Z</time></trkpt><trkpt lat="44.93051" lon="8.1569433"><ele>204.0</ele><time>2026-04-12T06:45:47.447Z</time></trkpt><trkpt lat="44.9305083" lon="8.1570417"><ele>204.28571428571428</ele><time>2026-04-12T06:45:48.447Z</time></trkpt><trkpt lat="44.930495" lon="8.1571317"><ele>204.57142857142858</ele><time>2026-04-12T06:45:49.447Z</time></trkpt><trkpt lat="44.9304667" lon="8.1572133"><ele>204.85714285714283</ele><time>2026-04-12T06:45:50.447Z</time></trkpt><trkpt lat="44.9304333" lon="8.1572983"><ele>205.14285714285714</ele><time>2026-04-12T06:45:51.447Z</time></trkpt><trkpt lat="44.9303867" lon="8.15738"><ele>205.42857142857142</ele><time>2026-04-12T06:45:52.447Z</time></trkpt><trkpt lat="44.9303333" lon="8.157445"><ele>205.7142857142857</ele><time>2026-04-12T06:45:53.447Z</time></trkpt><trkpt lat="44.93027" lon="8.1575283"><ele>206.0</ele><time>2026-04-12T06:45:54.447Z</time></trkpt><trkpt lat="44.9302" lon="8.1576117"><ele>206.00000000000003</ele><time>2026-04-12T06:45:55.447Z</time></trkpt><trkpt lat="44.93014" lon="8.1577133"><ele>206.0</ele><time>2026-04-12T06:45:56.447Z</time></trkpt><trkpt lat="44.9300883" lon="8.1578017"><ele>206.0</ele><time>2026-04-12T06:45:57.447Z</time></trkpt><trkpt lat="44.9300267" lon="8.1578933"><ele>206.0</ele><time>2026-04-12T06:45:58.447Z</time></trkpt><trkpt lat="44.9299633" lon="8.1579733"><ele>206.00000000000003</ele><time>2026-04-12T06:45:59.447Z</time></trkpt><trkpt lat="44.9298917" lon="8.1580517"><ele>206.0</ele><time>2026-04-12T06:46:00.447Z</time></trkpt><trkpt lat="44.9298267" lon="8.1581233"><ele>205.83333333333334</ele><time>2026-04-12T06:46:01.447Z</time></trkpt><trkpt lat="44.9297617" lon="8.1582"><ele>205.66666666666669</ele><time>2026-04-12T06:46:02.447Z</time></trkpt><trkpt lat="44.9296883" lon="8.1582833"><ele>205.5</ele><time>2026-04-12T06:46:03.447Z</time></trkpt><trkpt lat="44.9296367" lon="8.158365"><ele>205.33333333333331</ele><time>2026-04-12T06:46:04.447Z</time></trkpt><trkpt lat="44.9295867" lon="8.1584317"><ele>205.16666666666666</ele><time>2026-04-12T06:46:05.448Z</time></trkpt><trkpt lat="44.9295233" lon="8.1585"><ele>205.0</ele><time>2026-04-12T06:46:06.447Z</time></trkpt><trkpt lat="44.92945" lon="8.1585467"><ele>204.99999999999997</ele><time>2026-04-12T06:46:07.447Z</time></trkpt><trkpt lat="44.9293617" lon="8.1585983"><ele>205.0</ele><time>2026-04-12T06:46:08.447Z</time></trkpt><trkpt lat="44.9292833" lon="8.1586417"><ele>205.0</ele><time>2026-04-12T06:46:09.447Z</time></trkpt><trkpt lat="44.9292117" lon="8.1587017"><ele>205.0</ele><time>2026-04-12T06:46:10.447Z</time></trkpt><trkpt lat="44.92914" lon="8.1587483"><ele>204.99999999999997</ele><time>2026-04-12T06:46:11.447Z</time></trkpt><trkpt lat="44.9290683" lon="8.1588033"><ele>205.0</ele><time>2026-04-12T06:46:12.447Z</time></trkpt><trkpt lat="44.9290067" lon="8.15888"><ele>204.99999999999997</ele><time>2026-04-12T06:46:13.447Z</time></trkpt><trkpt lat="44.9289533" lon="8.1589567"><ele>205.0</ele><time>2026-04-12T06:46:14.447Z</time></trkpt><trkpt lat="44.9288983" lon="8.159045"><ele>205.0</ele><time>2026-04-12T06:46:15.447Z</time></trkpt><trkpt lat="44.928865" lon="8.1591483"><ele>205.0</ele><time>2026-04-12T06:46:16.447Z</time></trkpt><trkpt lat="44.928835" lon="8.1592367"><ele>204.99999999999997</ele><time>2026-04-12T06:46:17.447Z</time></trkpt><trkpt lat="44.9287933" lon="8.159325"><ele>205.0</ele><time>2026-04-12T06:46:18.447Z</time></trkpt><trkpt lat="44.9287533" lon="8.1594067"><ele>204.25</ele><time>2026-04-12T06:46:19.447Z</time></trkpt><trkpt lat="44.9286817" lon="8.1595567"><ele>203.5</ele><time>2026-04-12T06:46:21.447Z</time></trkpt><trkpt lat="44.92862" lon="8.1597017"><ele>202.75</ele><time>2026-04-12T06:46:23.447Z</time></trkpt><trkpt lat="44.9285417" lon="8.15984"><ele>202.0</ele><time>2026-04-12T06:46:25.447Z</time></trkpt><trkpt lat="44.9284517" lon="8.1599533"><ele>202.99999999999997</ele><time>2026-04-12T06:46:27.447Z</time></trkpt><trkpt lat="44.928415" lon="8.16003"><ele>204.0</ele><time>2026-04-12T06:46:28.447Z</time></trkpt><trkpt lat="44.9283867" lon="8.1601167"><ele>205.0</ele><time>2026-04-12T06:46:29.447Z</time></trkpt><trkpt lat="44.9283067" lon="8.160205"><ele>206.0</ele><time>2026-04-12T06:46:31.447Z</time></trkpt><trkpt lat="44.9282267" lon="8.1602083"><ele>206.99999999999997</ele><time>2026-04-12T06:46:32.447Z</time></trkpt><trkpt lat="44.928145" lon="8.160195"><ele>208.0</ele><time>2026-04-12T06:46:33.447Z</time></trkpt><trkpt lat="44.9280667" lon="8.16017"><ele>207.99999999999997</ele><time>2026-04-12T06:46:34.447Z</time></trkpt><trkpt lat="44.92799" lon="8.1601567"><ele>208.0</ele><time>2026-04-12T06:46:35.447Z</time></trkpt><trkpt lat="44.9279183" lon="8.1601617"><ele>208.0</ele><time>2026-04-12T06:46:36.448Z</time></trkpt><trkpt lat="44.9278033" lon="8.1602417"><ele>208.0</ele><time>2026-04-12T06:46:38.447Z</time></trkpt><trkpt lat="44.9277583" lon="8.160325"><ele>207.99999999999997</ele><time>2026-04-12T06:46:39.447Z</time></trkpt><trkpt lat="44.9277267" lon="8.1604067"><ele>208.0</ele><time>2026-04-12T06:46:40.447Z</time></trkpt><trkpt lat="44.9276917" lon="8.1605517"><ele>207.99999999999997</ele><time>2026-04-12T06:46:42.447Z</time></trkpt><trkpt lat="44.9276483" lon="8.1606867"><ele>208.0</ele><time>2026-04-12T06:46:44.447Z</time></trkpt><trkpt lat="44.927595" lon="8.160795"><ele>208.0</ele><time>2026-04-12T06:46:46.447Z</time></trkpt><trkpt lat="44.9275367" lon="8.16087"><ele>208.0</ele><time>2026-04-12T06:46:48.447Z</time></trkpt><trkpt lat="44.9274817" lon="8.1609167"><ele>207.99999999999997</ele><time>2026-04-12T06:46:50.447Z</time></trkpt><trkpt lat="44.92741" lon="8.1609967"><ele>208.0</ele><time>2026-04-12T06:46:53.447Z</time></trkpt><trkpt lat="44.9273467" lon="8.1610683"><ele>207.2</ele><time>2026-04-12T06:46:55.447Z</time></trkpt><trkpt lat="44.927295" lon="8.1611867"><ele>206.4</ele><time>2026-04-12T06:46:57.447Z</time></trkpt><trkpt lat="44.92727" lon="8.1613533"><ele>205.6</ele><time>2026-04-12T06:46:59.447Z</time></trkpt><trkpt lat="44.9272717" lon="8.1614667"><ele>204.79999999999998</ele><time>2026-04-12T06:47:00.447Z</time></trkpt><trkpt lat="44.9272783" lon="8.16159"><ele>204.0</ele><time>2026-04-12T06:47:01.447Z</time></trkpt><trkpt lat="44.9272933" lon="8.1617233"><ele>204.0</ele><time>2026-04-12T06:47:02.447Z</time></trkpt><trkpt lat="44.927305" lon="8.161865"><ele>204.0</ele><time>2026-04-12T06:47:03.447Z</time></trkpt><trkpt lat="44.9273117" lon="8.162015"><ele>204.0</ele><time>2026-04-12T06:47:04.447Z</time></trkpt><trkpt lat="44.9273167" lon="8.1621633"><ele>204.0</ele><time>2026-04-12T06:47:05.447Z</time></trkpt><trkpt lat="44.9273233" lon="8.1622983"><ele>204.0</ele><time>2026-04-12T06:47:06.447Z</time></trkpt><trkpt lat="44.9273267" lon="8.162415"><ele>202.0</ele><time>2026-04-12T06:47:07.448Z</time></trkpt><trkpt lat="44.92733" lon="8.16252"><ele>200.0</ele><time>2026-04-12T06:47:08.447Z</time></trkpt><trkpt lat="44.9273283" lon="8.1626217"><ele>198.0</ele><time>2026-04-12T06:47:09.447Z</time></trkpt><trkpt lat="44.9273283" lon="8.16273"><ele>196.0</ele><time>2026-04-12T06:47:10.447Z</time></trkpt><trkpt lat="44.9273333" lon="8.1628317"><ele>194.0</ele><time>2026-04-12T06:47:11.447Z</time></trkpt><trkpt lat="44.9273283" lon="8.16293"><ele>192.0</ele><time>2026-04-12T06:47:12.447Z</time></trkpt><trkpt lat="44.927265" lon="8.1630917"><ele>192.0</ele><time>2026-04-12T06:47:14.447Z</time></trkpt><trkpt lat="44.9271967" lon="8.1631517"><ele>192.0</ele><time>2026-04-12T06:47:15.447Z</time></trkpt><trkpt lat="44.9271183" lon="8.1632"><ele>192.0</ele><time>2026-04-12T06:47:16.447Z</time></trkpt><trkpt lat="44.9270283" lon="8.163235"><ele>192.0</ele><time>2026-04-12T06:47:17.448Z</time></trkpt><trkpt lat="44.926935" lon="8.1632717"><ele>192.0</ele><time>2026-04-12T06:47:18.447Z</time></trkpt><trkpt lat="44.9268433" lon="8.1633317"><ele>189.6</ele><time>2026-04-12T06:47:19.447Z</time></trkpt><trkpt lat="44.9267583" lon="8.1634067"><ele>187.2</ele><time>2026-04-12T06:47:20.447Z</time></trkpt><trkpt lat="44.9266883" lon="8.1634917"><ele>184.8</ele><time>2026-04-12T06:47:21.447Z</time></trkpt><trkpt lat="44.9266133" lon="8.1635783"><ele>182.4</ele><time>2026-04-12T06:47:22.447Z</time></trkpt><trkpt lat="44.9265267" lon="8.1636833"><ele>180.0</ele><time>2026-04-12T06:47:23.447Z</time></trkpt><trkpt lat="44.9264417" lon="8.163785"><ele>180.0</ele><time>2026-04-12T06:47:24.447Z</time></trkpt><trkpt lat="44.9263483" lon="8.1638633"><ele>180.0</ele><time>2026-04-12T06:47:25.448Z</time></trkpt><trkpt lat="44.9262483" lon="8.1639467"><ele>180.0</ele><time>2026-04-12T06:47:26.447Z</time></trkpt><trkpt lat="44.9261367" lon="8.1640383"><ele>180.0</ele><time>2026-04-12T06:47:27.447Z</time></trkpt><trkpt lat="44.926035" lon="8.1641317"><ele>178.25</ele><time>2026-04-12T06:47:28.447Z</time></trkpt><trkpt lat="44.9259333" lon="8.1642233"><ele>176.5</ele><time>2026-04-12T06:47:29.447Z</time></trkpt><trkpt lat="44.9258283" lon="8.1643183"><ele>174.75</ele><time>2026-04-12T06:47:30.447Z</time></trkpt><trkpt lat="44.9257267" lon="8.1643983"><ele>173.0</ele><time>2026-04-12T06:47:31.447Z</time></trkpt><trkpt lat="44.92562" lon="8.164475"><ele>173.0</ele><time>2026-04-12T06:47:32.447Z</time></trkpt><trkpt lat="44.9255117" lon="8.16455"><ele>173.0</ele><time>2026-04-12T06:47:33.447Z</time></trkpt><trkpt lat="44.9254083" lon="8.164625"><ele>173.0</ele><time>2026-04-12T06:47:34.447Z</time></trkpt><trkpt lat="44.925305" lon="8.1646983"><ele>173.0</ele><time>2026-04-12T06:47:35.447Z</time></trkpt><trkpt lat="44.92521" lon="8.1647933"><ele>171.83333333333331</ele><time>2026-04-12T06:47:36.447Z</time></trkpt><trkpt lat="44.9251367" lon="8.1648667"><ele>170.66666666666666</ele><time>2026-04-12T06:47:37.447Z</time></trkpt><trkpt lat="44.92508" lon="8.1649567"><ele>169.5</ele><time>2026-04-12T06:47:38.447Z</time></trkpt><trkpt lat="44.9250433" lon="8.1650633"><ele>168.33333333333334</ele><time>2026-04-12T06:47:39.447Z</time></trkpt><trkpt lat="44.9250433" lon="8.1651717"><ele>167.16666666666669</ele><time>2026-04-12T06:47:40.447Z</time></trkpt><trkpt lat="44.9250783" lon="8.1652683"><ele>166.0</ele><time>2026-04-12T06:47:41.447Z</time></trkpt><trkpt lat="44.9251417" lon="8.1653433"><ele>165.8</ele><time>2026-04-12T06:47:42.448Z</time></trkpt><trkpt lat="44.92522" lon="8.1653683"><ele>165.60000000000002</ele><time>2026-04-12T06:47:43.447Z</time></trkpt><trkpt lat="44.925305" lon="8.16535"><ele>165.4</ele><time>2026-04-12T06:47:44.447Z</time></trkpt><trkpt lat="44.9253867" lon="8.1652867"><ele>165.2</ele><time>2026-04-12T06:47:45.447Z</time></trkpt><trkpt lat="44.9254633" lon="8.1651983"><ele>165.0</ele><time>2026-04-12T06:47:46.447Z</time></trkpt><trkpt lat="44.925535" lon="8.1651117"><ele>165.0</ele><time>2026-04-12T06:47:47.447Z</time></trkpt><trkpt lat="44.9256133" lon="8.1650367"><ele>165.0</ele><time>2026-04-12T06:47:48.447Z</time></trkpt><trkpt lat="44.925705" lon="8.164985"><ele>165.0</ele><time>2026-04-12T06:47:49.447Z</time></trkpt><trkpt lat="44.9257967" lon="8.1649583"><ele>165.0</ele><time>2026-04-12T06:47:50.447Z</time></trkpt><trkpt lat="44.9258917" lon="8.16496"><ele>165.0</ele><time>2026-04-12T06:47:51.447Z</time></trkpt><trkpt lat="44.9259867" lon="8.1649867"><ele>164.8</ele><time>2026-04-12T06:47:52.447Z</time></trkpt><trkpt lat="44.9260933" lon="8.1650133"><ele>164.6</ele><time>2026-04-12T06:47:53.447Z</time></trkpt><trkpt lat="44.9261967" lon="8.1650667"><ele>164.39999999999998</ele><time>2026-04-12T06:47:54.447Z</time></trkpt><trkpt lat="44.9262983" lon="8.1651333"><ele>164.2</ele><time>2026-04-12T06:47:55.447Z</time></trkpt><trkpt lat="44.926385" lon="8.165225"><ele>164.0</ele><time>2026-04-12T06:47:56.447Z</time></trkpt><trkpt lat="44.9264633" lon="8.1653333"><ele>164.0</ele><time>2026-04-12T06:47:57.447Z</time></trkpt><trkpt lat="44.9265233" lon="8.1654717"><ele>164.0</ele><time>2026-04-12T06:47:58.447Z</time></trkpt><trkpt lat="44.9265517" lon="8.16563"><ele>164.0</ele><time>2026-04-12T06:47:59.448Z</time></trkpt><trkpt lat="44.926555" lon="8.1657983"><ele>164.0</ele><time>2026-04-12T06:48:00.447Z</time></trkpt><trkpt lat="44.9265317" lon="8.165955"><ele>161.25</ele><time>2026-04-12T06:48:01.448Z</time></trkpt><trkpt lat="44.9264933" lon="8.1661133"><ele>158.5</ele><time>2026-04-12T06:48:02.447Z</time></trkpt><trkpt lat="44.9264483" lon="8.1662683"><ele>155.75</ele><time>2026-04-12T06:48:03.447Z</time></trkpt><trkpt lat="44.9263967" lon="8.1664333"><ele>153.0</ele><time>2026-04-12T06:48:04.447Z</time></trkpt><trkpt lat="44.9263433" lon="8.1665967"><ele>151.25</ele><time>2026-04-12T06:48:05.447Z</time></trkpt><trkpt lat="44.9263" lon="8.1667583"><ele>149.5</ele><time>2026-04-12T06:48:06.447Z</time></trkpt><trkpt lat="44.9262517" lon="8.16691"><ele>147.75</ele><time>2026-04-12T06:48:07.447Z</time></trkpt><trkpt lat="44.9262083" lon="8.1670733"><ele>146.0</ele><time>2026-04-12T06:48:08.447Z</time></trkpt><trkpt lat="44.9261867" lon="8.167245"><ele>145.0</ele><time>2026-04-12T06:48:09.447Z</time></trkpt><trkpt lat="44.926185" lon="8.1674167"><ele>144.0</ele><time>2026-04-12T06:48:10.447Z</time></trkpt><trkpt lat="44.9261983" lon="8.167585"><ele>143.0</ele><time>2026-04-12T06:48:11.447Z</time></trkpt><trkpt lat="44.9262217" lon="8.1677433"><ele>142.0</ele><time>2026-04-12T06:48:12.447Z</time></trkpt><trkpt lat="44.92625" lon="8.1678833"><ele>142.0</ele><time>2026-04-12T06:48:13.447Z</time></trkpt><trkpt lat="44.9262817" lon="8.1680017"><ele>142.0</ele><time>2026-04-12T06:48:14.447Z</time></trkpt><trkpt lat="44.9263067" lon="8.1681183"><ele>142.0</ele><time>2026-04-12T06:48:15.447Z</time></trkpt><trkpt lat="44.9263283" lon="8.1682217"><ele>142.0</ele><time>2026-04-12T06:48:16.447Z</time></trkpt><trkpt lat="44.9263583" lon="8.168365"><ele>142.0</ele><time>2026-04-12T06:48:18.447Z</time></trkpt><trkpt lat="44.9264033" lon="8.1684433"><ele>142.0</ele><time>2026-04-12T06:48:20.447Z</time></trkpt><trkpt lat="44.9264933" lon="8.1684367"><ele>141.83333333333334</ele><time>2026-04-12T06:48:22.447Z</time></trkpt><trkpt lat="44.9265983" lon="8.1683617"><ele>141.66666666666669</ele><time>2026-04-12T06:48:24.447Z</time></trkpt><trkpt lat="44.9266533" lon="8.1683083"><ele>141.5</ele><time>2026-04-12T06:48:25.447Z</time></trkpt><trkpt lat="44.9267067" lon="8.16826"><ele>141.33333333333334</ele><time>2026-04-12T06:48:26.447Z</time></trkpt><trkpt lat="44.9267667" lon="8.16821"><ele>141.16666666666666</ele><time>2026-04-12T06:48:27.447Z</time></trkpt><trkpt lat="44.9268283" lon="8.1681567"><ele>141.0</ele><time>2026-04-12T06:48:28.447Z</time></trkpt><trkpt lat="44.9268883" lon="8.1681"><ele>141.0</ele><time>2026-04-12T06:48:29.447Z</time></trkpt><trkpt lat="44.9269483" lon="8.1680483"><ele>141.0</ele><time>2026-04-12T06:48:30.447Z</time></trkpt><trkpt lat="44.9270067" lon="8.1680017"><ele>141.0</ele><time>2026-04-12T06:48:31.447Z</time></trkpt><trkpt lat="44.9270683" lon="8.1679483"><ele>141.0</ele><time>2026-04-12T06:48:32.447Z</time></trkpt><trkpt lat="44.9271233" lon="8.1679017"><ele>141.0</ele><time>2026-04-12T06:48:33.447Z</time></trkpt><trkpt lat="44.92718" lon="8.16785"><ele>141.0</ele><time>2026-04-12T06:48:34.447Z</time></trkpt><trkpt lat="44.9272317" lon="8.1677967"><ele>141.0</ele><time>2026-04-12T06:48:35.447Z</time></trkpt><trkpt lat="44.9272867" lon="8.1677417"><ele>141.0</ele><time>2026-04-12T06:48:36.447Z</time></trkpt><trkpt lat="44.9273417" lon="8.1676933"><ele>141.0</ele><time>2026-04-12T06:48:37.447Z</time></trkpt><trkpt lat="44.9274567" lon="8.1676"><ele>141.0</ele><time>2026-04-12T06:48:39.447Z</time></trkpt><trkpt lat="44.92751" lon="8.1675517"><ele>141.0</ele><time>2026-04-12T06:48:40.447Z</time></trkpt><trkpt lat="44.9276133" lon="8.16746"><ele>141.0</ele><time>2026-04-12T06:48:42.447Z</time></trkpt><trkpt lat="44.9277233" lon="8.1674567"><ele>140.66666666666666</ele><time>2026-04-12T06:48:44.447Z</time></trkpt><trkpt lat="44.927815" lon="8.1675867"><ele>140.33333333333334</ele><time>2026-04-12T06:48:46.447Z</time></trkpt><trkpt lat="44.9278483" lon="8.167665"><ele>140.0</ele><time>2026-04-12T06:48:47.447Z</time></trkpt><trkpt lat="44.927885" lon="8.1677433"><ele>139.66666666666669</ele><time>2026-04-12T06:48:48.447Z</time></trkpt><trkpt lat="44.927925" lon="8.16782"><ele>139.33333333333334</ele><time>2026-04-12T06:48:49.447Z</time></trkpt><trkpt lat="44.9279583" lon="8.1679"><ele>139.0</ele><time>2026-04-12T06:48:50.447Z</time></trkpt><trkpt lat="44.9280067" lon="8.1679867"><ele>139.0</ele><time>2026-04-12T06:48:51.447Z</time></trkpt><trkpt lat="44.9280617" lon="8.1680767"><ele>139.0</ele><time>2026-04-12T06:48:52.447Z</time></trkpt><trkpt lat="44.928115" lon="8.168165"><ele>139.0</ele><time>2026-04-12T06:48:53.447Z</time></trkpt><trkpt lat="44.9281683" lon="8.1682567"><ele>139.0</ele><time>2026-04-12T06:48:54.447Z</time></trkpt><trkpt lat="44.9282233" lon="8.16835"><ele>139.0</ele><time>2026-04-12T06:48:55.447Z</time></trkpt><trkpt lat="44.9282733" lon="8.1684433"><ele>139.0</ele><time>2026-04-12T06:48:56.447Z</time></trkpt><trkpt lat="44.9283217" lon="8.168535"><ele>138.66666666666669</ele><time>2026-04-12T06:48:57.447Z</time></trkpt><trkpt lat="44.92837" lon="8.1686217"><ele>138.33333333333334</ele><time>2026-04-12T06:48:58.447Z</time></trkpt><trkpt lat="44.9284167" lon="8.1687133"><ele>138.0</ele><time>2026-04-12T06:48:59.447Z</time></trkpt><trkpt lat="44.92847" lon="8.1687983"><ele>137.66666666666666</ele><time>2026-04-12T06:49:00.447Z</time></trkpt><trkpt lat="44.9285167" lon="8.1688817"><ele>137.33333333333331</ele><time>2026-04-12T06:49:01.447Z</time></trkpt><trkpt lat="44.9285617" lon="8.168965"><ele>137.0</ele><time>2026-04-12T06:49:02.447Z</time></trkpt><trkpt lat="44.9286067" lon="8.16905"><ele>137.00000000000003</ele><time>2026-04-12T06:49:03.447Z</time></trkpt><trkpt lat="44.9286533" lon="8.1691317"><ele>137.0</ele><time>2026-04-12T06:49:04.447Z</time></trkpt><trkpt lat="44.9287017" lon="8.16921"><ele>137.0</ele><time>2026-04-12T06:49:05.447Z</time></trkpt><trkpt lat="44.92875" lon="8.1692833"><ele>137.0</ele><time>2026-04-12T06:49:06.447Z</time></trkpt><trkpt lat="44.9287933" lon="8.16935"><ele>137.0</ele><time>2026-04-12T06:49:07.447Z</time></trkpt><trkpt lat="44.9288333" lon="8.1694233"><ele>137.00000000000003</ele><time>2026-04-12T06:49:08.447Z</time></trkpt><trkpt lat="44.928875" lon="8.1695117"><ele>137.0</ele><time>2026-04-12T06:49:09.447Z</time></trkpt><trkpt lat="44.9289133" lon="8.169595"><ele>137.00000000000003</ele><time>2026-04-12T06:49:10.447Z</time></trkpt><trkpt lat="44.928955" lon="8.1696783"><ele>137.0</ele><time>2026-04-12T06:49:11.447Z</time></trkpt><trkpt lat="44.928995" lon="8.16976"><ele>137.0</ele><time>2026-04-12T06:49:12.447Z</time></trkpt><trkpt lat="44.9290383" lon="8.169835"><ele>137.0</ele><time>2026-04-12T06:49:13.447Z</time></trkpt><trkpt lat="44.92908" lon="8.1699167"><ele>137.0</ele><time>2026-04-12T06:49:14.448Z</time></trkpt><trkpt lat="44.929115" lon="8.1700083"><ele>137.00000000000003</ele><time>2026-04-12T06:49:15.447Z</time></trkpt><trkpt lat="44.929115" lon="8.1701017"><ele>137.0</ele><time>2026-04-12T06:49:16.447Z</time></trkpt><trkpt lat="44.9290967" lon="8.1701933"><ele>136.5</ele><time>2026-04-12T06:49:17.447Z</time></trkpt><trkpt lat="44.9290567" lon="8.1702917"><ele>136.0</ele><time>2026-04-12T06:49:18.447Z</time></trkpt><trkpt lat="44.9290167" lon="8.1703783"><ele>135.5</ele><time>2026-04-12T06:49:19.447Z</time></trkpt><trkpt lat="44.92898" lon="8.170475"><ele>135.0</ele><time>2026-04-12T06:49:20.447Z</time></trkpt><trkpt lat="44.92894" lon="8.1705733"><ele>134.5</ele><time>2026-04-12T06:49:21.447Z</time></trkpt><trkpt lat="44.9289033" lon="8.1706767"><ele>134.0</ele><time>2026-04-12T06:49:22.447Z</time></trkpt><trkpt lat="44.9288617" lon="8.1707767"><ele>134.0</ele><time>2026-04-12T06:49:23.448Z</time></trkpt><trkpt lat="44.928825" lon="8.1708767"><ele>134.0</ele><time>2026-04-12T06:49:24.447Z</time></trkpt><trkpt lat="44.9287883" lon="8.1709717"><ele>134.0</ele><time>2026-04-12T06:49:25.447Z</time></trkpt><trkpt lat="44.928755" lon="8.171065"><ele>134.0</ele><time>2026-04-12T06:49:26.447Z</time></trkpt><trkpt lat="44.9287183" lon="8.17116"><ele>134.0</ele><time>2026-04-12T06:49:27.447Z</time></trkpt><trkpt lat="44.92868" lon="8.1712633"><ele>134.0</ele><time>2026-04-12T06:49:28.448Z</time></trkpt><trkpt lat="44.9286483" lon="8.1713617"><ele>134.0</ele><time>2026-04-12T06:49:29.447Z</time></trkpt><trkpt lat="44.9286117" lon="8.1714583"><ele>134.0</ele><time>2026-04-12T06:49:30.447Z</time></trkpt><trkpt lat="44.9285783" lon="8.17155"><ele>134.0</ele><time>2026-04-12T06:49:31.447Z</time></trkpt><trkpt lat="44.9285467" lon="8.1716417"><ele>134.0</ele><time>2026-04-12T06:49:32.448Z</time></trkpt><trkpt lat="44.9285117" lon="8.1717317"><ele>134.0</ele><time>2026-04-12T06:49:33.448Z</time></trkpt><trkpt lat="44.9284783" lon="8.1718217"><ele>134.0</ele><time>2026-04-12T06:49:34.447Z</time></trkpt><trkpt lat="44.9284417" lon="8.17191"><ele>134.0</ele><time>2026-04-12T06:49:35.447Z</time></trkpt><trkpt lat="44.92841" lon="8.172"><ele>134.0</ele><time>2026-04-12T06:49:36.447Z</time></trkpt><trkpt lat="44.9283767" lon="8.172085"><ele>134.0</ele><time>2026-04-12T06:49:37.447Z</time></trkpt><trkpt lat="44.9283417" lon="8.1721633"><ele>134.0</ele><time>2026-04-12T06:49:38.447Z</time></trkpt><trkpt lat="44.928315" lon="8.17225"><ele>134.0</ele><time>2026-04-12T06:49:39.447Z</time></trkpt><trkpt lat="44.9282867" lon="8.172335"><ele>134.0</ele><time>2026-04-12T06:49:40.447Z</time></trkpt><trkpt lat="44.9282517" lon="8.1724217"><ele>134.0</ele><time>2026-04-12T06:49:41.447Z</time></trkpt><trkpt lat="44.928215" lon="8.1725017"><ele>134.0</ele><time>2026-04-12T06:49:42.447Z</time></trkpt><trkpt lat="44.9281783" lon="8.1725767"><ele>134.5</ele><time>2026-04-12T06:49:43.447Z</time></trkpt><trkpt lat="44.92814" lon="8.1726583"><ele>135.0</ele><time>2026-04-12T06:49:44.447Z</time></trkpt><trkpt lat="44.9281033" lon="8.172735"><ele>135.5</ele><time>2026-04-12T06:49:45.447Z</time></trkpt><trkpt lat="44.92804" lon="8.1728817"><ele>136.0</ele><time>2026-04-12T06:49:47.447Z</time></trkpt><trkpt lat="44.928005" lon="8.1729567"><ele>136.5</ele><time>2026-04-12T06:49:48.447Z</time></trkpt><trkpt lat="44.9279633" lon="8.173025"><ele>137.0</ele><time>2026-04-12T06:49:49.447Z</time></trkpt><trkpt lat="44.92791" lon="8.1730817"><ele>137.00000000000003</ele><time>2026-04-12T06:49:50.447Z</time></trkpt><trkpt lat="44.92785" lon="8.17313"><ele>137.0</ele><time>2026-04-12T06:49:51.447Z</time></trkpt><trkpt lat="44.9277883" lon="8.1731583"><ele>137.0</ele><time>2026-04-12T06:49:52.448Z</time></trkpt><trkpt lat="44.927725" lon="8.1731683"><ele>137.0</ele><time>2026-04-12T06:49:53.447Z</time></trkpt><trkpt lat="44.92766" lon="8.1731567"><ele>137.0</ele><time>2026-04-12T06:49:54.447Z</time></trkpt><trkpt lat="44.927595" lon="8.1731233"><ele>137.00000000000003</ele><time>2026-04-12T06:49:55.447Z</time></trkpt><trkpt lat="44.9275317" lon="8.17309"><ele>137.0</ele><time>2026-04-12T06:49:56.447Z</time></trkpt><trkpt lat="44.9274717" lon="8.1730417"><ele>136.66666666666666</ele><time>2026-04-12T06:49:57.448Z</time></trkpt><trkpt lat="44.9274183" lon="8.1729833"><ele>136.33333333333331</ele><time>2026-04-12T06:49:58.447Z</time></trkpt><trkpt lat="44.9273667" lon="8.1729283"><ele>136.0</ele><time>2026-04-12T06:49:59.447Z</time></trkpt><trkpt lat="44.9272517" lon="8.17286"><ele>135.66666666666666</ele><time>2026-04-12T06:50:01.447Z</time></trkpt><trkpt lat="44.927185" lon="8.1728583"><ele>135.33333333333334</ele><time>2026-04-12T06:50:02.447Z</time></trkpt><trkpt lat="44.927115" lon="8.17289"><ele>135.0</ele><time>2026-04-12T06:50:03.447Z</time></trkpt><trkpt lat="44.927055" lon="8.17295"><ele>135.0</ele><time>2026-04-12T06:50:04.447Z</time></trkpt><trkpt lat="44.9269983" lon="8.1730233"><ele>135.0</ele><time>2026-04-12T06:50:05.447Z</time></trkpt><trkpt lat="44.9269433" lon="8.1731067"><ele>135.0</ele><time>2026-04-12T06:50:06.447Z</time></trkpt><trkpt lat="44.92689" lon="8.1731867"><ele>135.0</ele><time>2026-04-12T06:50:07.447Z</time></trkpt><trkpt lat="44.9268417" lon="8.17327"><ele>135.0</ele><time>2026-04-12T06:50:08.447Z</time></trkpt><trkpt lat="44.9267917" lon="8.1733483"><ele>135.0</ele><time>2026-04-12T06:50:09.447Z</time></trkpt><trkpt lat="44.9267417" lon="8.173425"><ele>135.0</ele><time>2026-04-12T06:50:10.447Z</time></trkpt><trkpt lat="44.9266933" lon="8.1734967"><ele>135.0</ele><time>2026-04-12T06:50:11.447Z</time></trkpt><trkpt lat="44.9266467" lon="8.1735717"><ele>135.0</ele><time>2026-04-12T06:50:12.447Z</time></trkpt><trkpt lat="44.9265983" lon="8.173655"><ele>135.0</ele><time>2026-04-12T06:50:13.447Z</time></trkpt><trkpt lat="44.92655" lon="8.1737283"><ele>135.0</ele><time>2026-04-12T06:50:14.447Z</time></trkpt><trkpt lat="44.926505" lon="8.1738067"><ele>135.0</ele><time>2026-04-12T06:50:15.447Z</time></trkpt><trkpt lat="44.9264567" lon="8.1738867"><ele>135.0</ele><time>2026-04-12T06:50:16.447Z</time></trkpt><trkpt lat="44.9264033" lon="8.1739567"><ele>135.14285714285714</ele><time>2026-04-12T06:50:17.447Z</time></trkpt><trkpt lat="44.9263467" lon="8.1740233"><ele>135.28571428571428</ele><time>2026-04-12T06:50:18.447Z</time></trkpt><trkpt lat="44.9262867" lon="8.1740867"><ele>135.42857142857142</ele><time>2026-04-12T06:50:19.447Z</time></trkpt><trkpt lat="44.9262233" lon="8.1741433"><ele>135.57142857142856</ele><time>2026-04-12T06:50:20.447Z</time></trkpt><trkpt lat="44.92616" lon="8.1741967"><ele>135.71428571428572</ele><time>2026-04-12T06:50:21.447Z</time></trkpt><trkpt lat="44.9260933" lon="8.174245"><ele>135.85714285714283</ele><time>2026-04-12T06:50:22.447Z</time></trkpt><trkpt lat="44.9260283" lon="8.1742883"><ele>136.0</ele><time>2026-04-12T06:50:23.447Z</time></trkpt><trkpt lat="44.92596" lon="8.174335"><ele>135.66666666666669</ele><time>2026-04-12T06:50:24.447Z</time></trkpt><trkpt lat="44.925895" lon="8.1743833"><ele>135.33333333333334</ele><time>2026-04-12T06:50:25.447Z</time></trkpt><trkpt lat="44.92583" lon="8.1744433"><ele>135.0</ele><time>2026-04-12T06:50:26.447Z</time></trkpt><trkpt lat="44.92577" lon="8.1745017"><ele>134.66666666666666</ele><time>2026-04-12T06:50:27.447Z</time></trkpt><trkpt lat="44.9257117" lon="8.17457"><ele>134.33333333333331</ele><time>2026-04-12T06:50:28.447Z</time></trkpt><trkpt lat="44.9256583" lon="8.1746467"><ele>134.0</ele><time>2026-04-12T06:50:29.447Z</time></trkpt><trkpt lat="44.9256083" lon="8.1747233"><ele>134.0</ele><time>2026-04-12T06:50:30.447Z</time></trkpt><trkpt lat="44.9255583" lon="8.1748033"><ele>134.0</ele><time>2026-04-12T06:50:31.447Z</time></trkpt><trkpt lat="44.9255183" lon="8.17489"><ele>134.0</ele><time>2026-04-12T06:50:32.447Z</time></trkpt><trkpt lat="44.9254833" lon="8.1749883"><ele>134.0</ele><time>2026-04-12T06:50:33.447Z</time></trkpt><trkpt lat="44.9254533" lon="8.1750833"><ele>134.0</ele><time>2026-04-12T06:50:34.447Z</time></trkpt><trkpt lat="44.9254217" lon="8.1751783"><ele>134.0</ele><time>2026-04-12T06:50:35.447Z</time></trkpt><trkpt lat="44.925395" lon="8.175275"><ele>134.0</ele><time>2026-04-12T06:50:36.447Z</time></trkpt><trkpt lat="44.9253733" lon="8.1753767"><ele>134.0</ele><time>2026-04-12T06:50:37.447Z</time></trkpt><trkpt lat="44.9253567" lon="8.1754783"><ele>134.0</ele><time>2026-04-12T06:50:38.447Z</time></trkpt><trkpt lat="44.9253433" lon="8.175585"><ele>134.0</ele><time>2026-04-12T06:50:39.447Z</time></trkpt><trkpt lat="44.92533" lon="8.1756867"><ele>134.0</ele><time>2026-04-12T06:50:40.447Z</time></trkpt><trkpt lat="44.925315" lon="8.1757917"><ele>134.0</ele><time>2026-04-12T06:50:41.447Z</time></trkpt><trkpt lat="44.925295" lon="8.17589"><ele>134.0</ele><time>2026-04-12T06:50:42.447Z</time></trkpt><trkpt lat="44.9252717" lon="8.175995"><ele>134.16666666666666</ele><time>2026-04-12T06:50:43.447Z</time></trkpt><trkpt lat="44.9252517" lon="8.176105"><ele>134.33333333333331</ele><time>2026-04-12T06:50:44.447Z</time></trkpt><trkpt lat="44.9252217" lon="8.1762017"><ele>134.5</ele><time>2026-04-12T06:50:45.447Z</time></trkpt><trkpt lat="44.9251817" lon="8.1762983"><ele>134.66666666666666</ele><time>2026-04-12T06:50:46.447Z</time></trkpt><trkpt lat="44.92514" lon="8.176395"><ele>134.83333333333334</ele><time>2026-04-12T06:50:47.447Z</time></trkpt><trkpt lat="44.9251" lon="8.176485"><ele>135.0</ele><time>2026-04-12T06:50:48.447Z</time></trkpt><trkpt lat="44.9250583" lon="8.17657"><ele>134.5</ele><time>2026-04-12T06:50:49.447Z</time></trkpt><trkpt lat="44.9250167" lon="8.176655"><ele>134.0</ele><time>2026-04-12T06:50:50.447Z</time></trkpt><trkpt lat="44.9249717" lon="8.1767433"><ele>133.5</ele><time>2026-04-12T06:50:51.447Z</time></trkpt><trkpt lat="44.9249267" lon="8.1768333"><ele>133.0</ele><time>2026-04-12T06:50:52.447Z</time></trkpt><trkpt lat="44.9248783" lon="8.1769167"><ele>132.5</ele><time>2026-04-12T06:50:53.447Z</time></trkpt><trkpt lat="44.92483" lon="8.1769933"><ele>132.0</ele><time>2026-04-12T06:50:54.447Z</time></trkpt><trkpt lat="44.9247717" lon="8.17706"><ele>132.0</ele><time>2026-04-12T06:50:55.447Z</time></trkpt><trkpt lat="44.924715" lon="8.177125"><ele>132.0</ele><time>2026-04-12T06:50:56.447Z</time></trkpt><trkpt lat="44.92466" lon="8.177185"><ele>132.0</ele><time>2026-04-12T06:50:57.447Z</time></trkpt><trkpt lat="44.9245983" lon="8.1772517"><ele>132.0</ele><time>2026-04-12T06:50:58.447Z</time></trkpt><trkpt lat="44.9245317" lon="8.1773217"><ele>132.0</ele><time>2026-04-12T06:50:59.447Z</time></trkpt><trkpt lat="44.92447" lon="8.1773933"><ele>132.0</ele><time>2026-04-12T06:51:00.447Z</time></trkpt><trkpt lat="44.9244083" lon="8.1774617"><ele>131.83333333333334</ele><time>2026-04-12T06:51:01.447Z</time></trkpt><trkpt lat="44.92435" lon="8.1775317"><ele>131.66666666666666</ele><time>2026-04-12T06:51:02.447Z</time></trkpt><trkpt lat="44.9242917" lon="8.1776017"><ele>131.5</ele><time>2026-04-12T06:51:03.447Z</time></trkpt><trkpt lat="44.92423" lon="8.1776667"><ele>131.33333333333331</ele><time>2026-04-12T06:51:04.447Z</time></trkpt><trkpt lat="44.9241683" lon="8.1777383"><ele>131.16666666666666</ele><time>2026-04-12T06:51:05.447Z</time></trkpt><trkpt lat="44.9241117" lon="8.177815"><ele>131.0</ele><time>2026-04-12T06:51:06.447Z</time></trkpt><trkpt lat="44.924055" lon="8.1778883"><ele>131.0</ele><time>2026-04-12T06:51:07.447Z</time></trkpt><trkpt lat="44.9239933" lon="8.1779567"><ele>131.0</ele><time>2026-04-12T06:51:08.447Z</time></trkpt><trkpt lat="44.9239317" lon="8.178025"><ele>131.0</ele><time>2026-04-12T06:51:09.447Z</time></trkpt><trkpt lat="44.9238683" lon="8.1780883"><ele>131.0</ele><time>2026-04-12T06:51:10.447Z</time></trkpt><trkpt lat="44.9238017" lon="8.1781567"><ele>131.0</ele><time>2026-04-12T06:51:11.448Z</time></trkpt><trkpt lat="44.9237367" lon="8.1782267"><ele>131.0</ele><time>2026-04-12T06:51:12.447Z</time></trkpt><trkpt lat="44.9236633" lon="8.17829"><ele>131.5</ele><time>2026-04-12T06:51:13.447Z</time></trkpt><trkpt lat="44.9235967" lon="8.1783433"><ele>132.0</ele><time>2026-04-12T06:51:14.447Z</time></trkpt><trkpt lat="44.923525" lon="8.1783767"><ele>132.5</ele><time>2026-04-12T06:51:15.447Z</time></trkpt><trkpt lat="44.9234567" lon="8.1784083"><ele>133.0</ele><time>2026-04-12T06:51:16.447Z</time></trkpt><trkpt lat="44.9233817" lon="8.1784483"><ele>133.5</ele><time>2026-04-12T06:51:17.447Z</time></trkpt><trkpt lat="44.9233117" lon="8.1784817"><ele>134.0</ele><time>2026-04-12T06:51:18.447Z</time></trkpt><trkpt lat="44.9232383" lon="8.1785167"><ele>134.0</ele><time>2026-04-12T06:51:19.447Z</time></trkpt><trkpt lat="44.923165" lon="8.1785567"><ele>134.0</ele><time>2026-04-12T06:51:20.448Z</time></trkpt><trkpt lat="44.9230917" lon="8.178595"><ele>134.0</ele><time>2026-04-12T06:51:21.447Z</time></trkpt><trkpt lat="44.9230217" lon="8.1786317"><ele>134.0</ele><time>2026-04-12T06:51:22.447Z</time></trkpt><trkpt lat="44.92295" lon="8.1786733"><ele>134.0</ele><time>2026-04-12T06:51:23.447Z</time></trkpt><trkpt lat="44.9228817" lon="8.17871"><ele>134.0</ele><time>2026-04-12T06:51:24.447Z</time></trkpt><trkpt lat="44.92281" lon="8.1787383"><ele>134.0</ele><time>2026-04-12T06:51:25.447Z</time></trkpt><trkpt lat="44.9227383" lon="8.17876"><ele>134.0</ele><time>2026-04-12T06:51:26.447Z</time></trkpt><trkpt lat="44.9226617" lon="8.1787883"><ele>134.0</ele><time>2026-04-12T06:51:27.447Z</time></trkpt><trkpt lat="44.922585" lon="8.1788133"><ele>134.0</ele><time>2026-04-12T06:51:28.447Z</time></trkpt><trkpt lat="44.92251" lon="8.178835"><ele>134.0</ele><time>2026-04-12T06:51:29.447Z</time></trkpt><trkpt lat="44.9224383" lon="8.178865"><ele>134.0</ele><time>2026-04-12T06:51:30.447Z</time></trkpt><trkpt lat="44.9223617" lon="8.1788867"><ele>133.33333333333331</ele><time>2026-04-12T06:51:31.447Z</time></trkpt><trkpt lat="44.9222883" lon="8.1789083"><ele>132.66666666666666</ele><time>2026-04-12T06:51:32.447Z</time></trkpt><trkpt lat="44.922215" lon="8.17894"><ele>132.0</ele><time>2026-04-12T06:51:33.447Z</time></trkpt><trkpt lat="44.9221383" lon="8.1789733"><ele>131.33333333333334</ele><time>2026-04-12T06:51:34.447Z</time></trkpt><trkpt lat="44.9220633" lon="8.179015"><ele>130.66666666666669</ele><time>2026-04-12T06:51:35.447Z</time></trkpt><trkpt lat="44.9219883" lon="8.1790583"><ele>130.0</ele><time>2026-04-12T06:51:36.447Z</time></trkpt><trkpt lat="44.9219117" lon="8.179105"><ele>130.16666666666669</ele><time>2026-04-12T06:51:37.447Z</time></trkpt><trkpt lat="44.921835" lon="8.17915"><ele>130.33333333333334</ele><time>2026-04-12T06:51:38.447Z</time></trkpt><trkpt lat="44.9217567" lon="8.1791883"><ele>130.5</ele><time>2026-04-12T06:51:39.447Z</time></trkpt><trkpt lat="44.9216733" lon="8.1792217"><ele>130.66666666666666</ele><time>2026-04-12T06:51:40.447Z</time></trkpt><trkpt lat="44.9215917" lon="8.179255"><ele>130.83333333333331</ele><time>2026-04-12T06:51:41.447Z</time></trkpt><trkpt lat="44.92151" lon="8.1792783"><ele>131.0</ele><time>2026-04-12T06:51:42.447Z</time></trkpt><trkpt lat="44.9214233" lon="8.1793067"><ele>131.0</ele><time>2026-04-12T06:51:43.447Z</time></trkpt><trkpt lat="44.9213417" lon="8.179345"><ele>131.0</ele><time>2026-04-12T06:51:44.447Z</time></trkpt><trkpt lat="44.9212617" lon="8.179385"><ele>131.0</ele><time>2026-04-12T06:51:45.447Z</time></trkpt><trkpt lat="44.92118" lon="8.179425"><ele>131.0</ele><time>2026-04-12T06:51:46.448Z</time></trkpt><trkpt lat="44.9211" lon="8.1794667"><ele>131.0</ele><time>2026-04-12T06:51:47.447Z</time></trkpt><trkpt lat="44.9210167" lon="8.1794967"><ele>131.0</ele><time>2026-04-12T06:51:48.447Z</time></trkpt><trkpt lat="44.9209317" lon="8.179535"><ele>130.66666666666666</ele><time>2026-04-12T06:51:49.447Z</time></trkpt><trkpt lat="44.9208483" lon="8.1795817"><ele>130.33333333333331</ele><time>2026-04-12T06:51:50.447Z</time></trkpt><trkpt lat="44.92077" lon="8.179625"><ele>130.0</ele><time>2026-04-12T06:51:51.447Z</time></trkpt><trkpt lat="44.920685" lon="8.1796617"><ele>129.66666666666666</ele><time>2026-04-12T06:51:52.447Z</time></trkpt><trkpt lat="44.9205967" lon="8.1796983"><ele>129.33333333333334</ele><time>2026-04-12T06:51:53.447Z</time></trkpt><trkpt lat="44.9205117" lon="8.17974"><ele>129.0</ele><time>2026-04-12T06:51:54.447Z</time></trkpt><trkpt lat="44.9204317" lon="8.1797717"><ele>129.0</ele><time>2026-04-12T06:51:55.447Z</time></trkpt><trkpt lat="44.920345" lon="8.1798067"><ele>129.0</ele><time>2026-04-12T06:51:56.447Z</time></trkpt><trkpt lat="44.9202633" lon="8.1798433"><ele>129.0</ele><time>2026-04-12T06:51:57.447Z</time></trkpt><trkpt lat="44.9201867" lon="8.179875"><ele>129.0</ele><time>2026-04-12T06:51:58.447Z</time></trkpt><trkpt lat="44.9201067" lon="8.1799117"><ele>129.0</ele><time>2026-04-12T06:51:59.447Z</time></trkpt><trkpt lat="44.920025" lon="8.17995"><ele>129.0</ele><time>2026-04-12T06:52:00.447Z</time></trkpt><trkpt lat="44.9199433" lon="8.1799817"><ele>129.5</ele><time>2026-04-12T06:52:01.447Z</time></trkpt><trkpt lat="44.9198617" lon="8.1800167"><ele>130.0</ele><time>2026-04-12T06:52:02.447Z</time></trkpt><trkpt lat="44.9197817" lon="8.1800517"><ele>130.5</ele><time>2026-04-12T06:52:03.447Z</time></trkpt><trkpt lat="44.9197017" lon="8.18009"><ele>131.0</ele><time>2026-04-12T06:52:04.447Z</time></trkpt><trkpt lat="44.9196217" lon="8.1801333"><ele>131.5</ele><time>2026-04-12T06:52:05.447Z</time></trkpt><trkpt lat="44.9195433" lon="8.180175"><ele>132.0</ele><time>2026-04-12T06:52:06.447Z</time></trkpt><trkpt lat="44.9194617" lon="8.1802217"><ele>132.0</ele><time>2026-04-12T06:52:07.447Z</time></trkpt><trkpt lat="44.9193817" lon="8.1802617"><ele>132.0</ele><time>2026-04-12T06:52:08.447Z</time></trkpt><trkpt lat="44.9192983" lon="8.180305"><ele>132.0</ele><time>2026-04-12T06:52:09.447Z</time></trkpt><trkpt lat="44.9192133" lon="8.1803483"><ele>132.0</ele><time>2026-04-12T06:52:10.447Z</time></trkpt><trkpt lat="44.9191317" lon="8.18039"><ele>132.0</ele><time>2026-04-12T06:52:11.447Z</time></trkpt><trkpt lat="44.9190483" lon="8.1804283"><ele>132.0</ele><time>2026-04-12T06:52:12.447Z</time></trkpt><trkpt lat="44.918965" lon="8.18047"><ele>132.0</ele><time>2026-04-12T06:52:13.447Z</time></trkpt><trkpt lat="44.9188883" lon="8.180515"><ele>132.0</ele><time>2026-04-12T06:52:14.447Z</time></trkpt><trkpt lat="44.9188117" lon="8.18056"><ele>132.0</ele><time>2026-04-12T06:52:15.447Z</time></trkpt><trkpt lat="44.9187333" lon="8.1806067"><ele>132.0</ele><time>2026-04-12T06:52:16.447Z</time></trkpt><trkpt lat="44.9186517" lon="8.180655"><ele>132.0</ele><time>2026-04-12T06:52:17.447Z</time></trkpt><trkpt lat="44.91857" lon="8.1807017"><ele>132.0</ele><time>2026-04-12T06:52:18.447Z</time></trkpt><trkpt lat="44.9184883" lon="8.1807567"><ele>132.0</ele><time>2026-04-12T06:52:19.447Z</time></trkpt><trkpt lat="44.9184067" lon="8.180805"><ele>132.0</ele><time>2026-04-12T06:52:20.447Z</time></trkpt><trkpt lat="44.91833" lon="8.18085"><ele>132.0</ele><time>2026-04-12T06:52:21.447Z</time></trkpt><trkpt lat="44.91824" lon="8.1808933"><ele>132.0</ele><time>2026-04-12T06:52:22.447Z</time></trkpt><trkpt lat="44.91816" lon="8.18093"><ele>132.0</ele><time>2026-04-12T06:52:23.447Z</time></trkpt><trkpt lat="44.9180783" lon="8.18097"><ele>132.0</ele><time>2026-04-12T06:52:24.447Z</time></trkpt><trkpt lat="44.91801" lon="8.1809983"><ele>131.83333333333334</ele><time>2026-04-12T06:52:25.447Z</time></trkpt><trkpt lat="44.9179267" lon="8.1810383"><ele>131.66666666666666</ele><time>2026-04-12T06:52:26.447Z</time></trkpt><trkpt lat="44.9178367" lon="8.1810883"><ele>131.5</ele><time>2026-04-12T06:52:27.447Z</time></trkpt><trkpt lat="44.9177567" lon="8.1811417"><ele>131.33333333333331</ele><time>2026-04-12T06:52:28.447Z</time></trkpt><trkpt lat="44.91768" lon="8.1811933"><ele>131.16666666666666</ele><time>2026-04-12T06:52:29.447Z</time></trkpt><trkpt lat="44.9176033" lon="8.181235"><ele>131.0</ele><time>2026-04-12T06:52:30.447Z</time></trkpt><trkpt lat="44.9175217" lon="8.1812833"><ele>131.0</ele><time>2026-04-12T06:52:31.447Z</time></trkpt><trkpt lat="44.9174367" lon="8.18134"><ele>131.0</ele><time>2026-04-12T06:52:32.447Z</time></trkpt><trkpt lat="44.9173583" lon="8.1813867"><ele>131.0</ele><time>2026-04-12T06:52:33.447Z</time></trkpt><trkpt lat="44.9172833" lon="8.1814333"><ele>131.0</ele><time>2026-04-12T06:52:34.447Z</time></trkpt><trkpt lat="44.9172017" lon="8.1814767"><ele>131.0</ele><time>2026-04-12T06:52:35.447Z</time></trkpt><trkpt lat="44.9171283" lon="8.1815167"><ele>131.0</ele><time>2026-04-12T06:52:36.447Z</time></trkpt><trkpt lat="44.9170417" lon="8.1815517"><ele>130.83333333333331</ele><time>2026-04-12T06:52:37.447Z</time></trkpt><trkpt lat="44.9169517" lon="8.181595"><ele>130.66666666666666</ele><time>2026-04-12T06:52:38.447Z</time></trkpt><trkpt lat="44.91687" lon="8.1816417"><ele>130.5</ele><time>2026-04-12T06:52:39.447Z</time></trkpt><trkpt lat="44.9167933" lon="8.1816833"><ele>130.33333333333334</ele><time>2026-04-12T06:52:40.447Z</time></trkpt><trkpt lat="44.916715" lon="8.1817183"><ele>130.16666666666669</ele><time>2026-04-12T06:52:41.447Z</time></trkpt><trkpt lat="44.9166367" lon="8.181755"><ele>130.0</ele><time>2026-04-12T06:52:42.447Z</time></trkpt><trkpt lat="44.91656" lon="8.1817983"><ele>130.0</ele><time>2026-04-12T06:52:43.447Z</time></trkpt><trkpt lat="44.9164833" lon="8.1818267"><ele>130.0</ele><time>2026-04-12T06:52:44.447Z</time></trkpt><trkpt lat="44.916405" lon="8.1818567"><ele>130.0</ele><time>2026-04-12T06:52:45.447Z</time></trkpt><trkpt lat="44.9163183" lon="8.1818883"><ele>130.0</ele><time>2026-04-12T06:52:46.447Z</time></trkpt><trkpt lat="44.9162383" lon="8.1819317"><ele>130.0</ele><time>2026-04-12T06:52:47.447Z</time></trkpt><trkpt lat="44.9161583" lon="8.1819733"><ele>130.0</ele><time>2026-04-12T06:52:48.447Z</time></trkpt><trkpt lat="44.91607" lon="8.1820117"><ele>130.0</ele><time>2026-04-12T06:52:49.448Z</time></trkpt><trkpt lat="44.9159867" lon="8.18205"><ele>130.0</ele><time>2026-04-12T06:52:50.448Z</time></trkpt><trkpt lat="44.9159" lon="8.1820933"><ele>130.0</ele><time>2026-04-12T06:52:51.448Z</time></trkpt><trkpt lat="44.9158133" lon="8.1821283"><ele>130.0</ele><time>2026-04-12T06:52:52.448Z</time></trkpt><trkpt lat="44.9157233" lon="8.182165"><ele>130.0</ele><time>2026-04-12T06:52:53.449Z</time></trkpt><trkpt lat="44.915635" lon="8.1821967"><ele>129.8</ele><time>2026-04-12T06:52:54.448Z</time></trkpt><trkpt lat="44.9155433" lon="8.1822283"><ele>129.6</ele><time>2026-04-12T06:52:55.448Z</time></trkpt><trkpt lat="44.9154467" lon="8.1822633"><ele>129.4</ele><time>2026-04-12T06:52:56.448Z</time></trkpt><trkpt lat="44.9153517" lon="8.1822933"><ele>129.2</ele><time>2026-04-12T06:52:57.448Z</time></trkpt><trkpt lat="44.9152617" lon="8.182315"><ele>129.0</ele><time>2026-04-12T06:52:58.448Z</time></trkpt><trkpt lat="44.91517" lon="8.18233"><ele>129.0</ele><time>2026-04-12T06:52:59.448Z</time></trkpt><trkpt lat="44.9150767" lon="8.18234"><ele>129.0</ele><time>2026-04-12T06:53:00.448Z</time></trkpt><trkpt lat="44.914985" lon="8.1823483"><ele>129.0</ele><time>2026-04-12T06:53:01.448Z</time></trkpt><trkpt lat="44.914895" lon="8.1823583"><ele>129.0</ele><time>2026-04-12T06:53:02.448Z</time></trkpt><trkpt lat="44.9148083" lon="8.182365"><ele>129.0</ele><time>2026-04-12T06:53:03.448Z</time></trkpt><trkpt lat="44.9147267" lon="8.182375"><ele>129.0</ele><time>2026-04-12T06:53:04.448Z</time></trkpt><trkpt lat="44.9146383" lon="8.1823833"><ele>128.8</ele><time>2026-04-12T06:53:05.448Z</time></trkpt><trkpt lat="44.9145467" lon="8.1823867"><ele>128.60000000000002</ele><time>2026-04-12T06:53:06.448Z</time></trkpt><trkpt lat="44.91445" lon="8.18238"><ele>128.4</ele><time>2026-04-12T06:53:07.449Z</time></trkpt><trkpt lat="44.9143617" lon="8.1823783"><ele>128.20000000000002</ele><time>2026-04-12T06:53:08.448Z</time></trkpt><trkpt lat="44.9142733" lon="8.182365"><ele>128.0</ele><time>2026-04-12T06:53:09.448Z</time></trkpt><trkpt lat="44.9141883" lon="8.1823467"><ele>127.99999999999999</ele><time>2026-04-12T06:53:10.448Z</time></trkpt><trkpt lat="44.9141017" lon="8.1823267"><ele>128.0</ele><time>2026-04-12T06:53:11.448Z</time></trkpt><trkpt lat="44.91402" lon="8.182305"><ele>128.0</ele><time>2026-04-12T06:53:12.448Z</time></trkpt><trkpt lat="44.91394" lon="8.182285"><ele>128.0</ele><time>2026-04-12T06:53:13.448Z</time></trkpt><trkpt lat="44.91385" lon="8.1822633"><ele>127.99999999999999</ele><time>2026-04-12T06:53:14.448Z</time></trkpt><trkpt lat="44.9137667" lon="8.1822383"><ele>128.0</ele><time>2026-04-12T06:53:15.448Z</time></trkpt><trkpt lat="44.91368" lon="8.1822117"><ele>127.99999999999999</ele><time>2026-04-12T06:53:16.448Z</time></trkpt><trkpt lat="44.9135917" lon="8.1821867"><ele>128.0</ele><time>2026-04-12T06:53:17.448Z</time></trkpt><trkpt lat="44.913505" lon="8.1821633"><ele>128.0</ele><time>2026-04-12T06:53:18.448Z</time></trkpt><trkpt lat="44.9134183" lon="8.1821417"><ele>128.0</ele><time>2026-04-12T06:53:19.448Z</time></trkpt><trkpt lat="44.91333" lon="8.1821233"><ele>127.99999999999999</ele><time>2026-04-12T06:53:20.448Z</time></trkpt><trkpt lat="44.9132433" lon="8.1820967"><ele>128.0</ele><time>2026-04-12T06:53:21.448Z</time></trkpt><trkpt lat="44.9131567" lon="8.1820733"><ele>128.16666666666666</ele><time>2026-04-12T06:53:22.448Z</time></trkpt><trkpt lat="44.9130767" lon="8.1820467"><ele>128.33333333333331</ele><time>2026-04-12T06:53:23.448Z</time></trkpt><trkpt lat="44.9129917" lon="8.1820217"><ele>128.5</ele><time>2026-04-12T06:53:24.448Z</time></trkpt><trkpt lat="44.9129117" lon="8.1820033"><ele>128.66666666666666</ele><time>2026-04-12T06:53:25.448Z</time></trkpt><trkpt lat="44.9128267" lon="8.1819767"><ele>128.83333333333334</ele><time>2026-04-12T06:53:26.448Z</time></trkpt><trkpt lat="44.9127417" lon="8.18195"><ele>129.0</ele><time>2026-04-12T06:53:27.448Z</time></trkpt><trkpt lat="44.9126617" lon="8.181925"><ele>129.0</ele><time>2026-04-12T06:53:28.448Z</time></trkpt><trkpt lat="44.9125767" lon="8.1818983"><ele>129.0</ele><time>2026-04-12T06:53:29.448Z</time></trkpt><trkpt lat="44.9124933" lon="8.181875"><ele>129.0</ele><time>2026-04-12T06:53:30.448Z</time></trkpt><trkpt lat="44.9124083" lon="8.1818467"><ele>129.0</ele><time>2026-04-12T06:53:31.449Z</time></trkpt><trkpt lat="44.9123233" lon="8.1818267"><ele>129.0</ele><time>2026-04-12T06:53:32.448Z</time></trkpt><trkpt lat="44.9122383" lon="8.18181"><ele>129.0</ele><time>2026-04-12T06:53:33.448Z</time></trkpt><trkpt lat="44.9121467" lon="8.1818117"><ele>129.0</ele><time>2026-04-12T06:53:34.448Z</time></trkpt><trkpt lat="44.91206" lon="8.1818183"><ele>129.0</ele><time>2026-04-12T06:53:35.448Z</time></trkpt><trkpt lat="44.9119733" lon="8.1818217"><ele>129.0</ele><time>2026-04-12T06:53:36.448Z</time></trkpt><trkpt lat="44.911885" lon="8.1818283"><ele>129.0</ele><time>2026-04-12T06:53:37.448Z</time></trkpt><trkpt lat="44.9118" lon="8.181845"><ele>129.0</ele><time>2026-04-12T06:53:38.448Z</time></trkpt><trkpt lat="44.9117167" lon="8.1818667"><ele>129.0</ele><time>2026-04-12T06:53:39.449Z</time></trkpt><trkpt lat="44.91163" lon="8.181895"><ele>129.5</ele><time>2026-04-12T06:53:40.448Z</time></trkpt><trkpt lat="44.9115383" lon="8.181915"><ele>130.0</ele><time>2026-04-12T06:53:41.448Z</time></trkpt><trkpt lat="44.91145" lon="8.1819433"><ele>130.5</ele><time>2026-04-12T06:53:42.448Z</time></trkpt><trkpt lat="44.9113683" lon="8.181975"><ele>131.0</ele><time>2026-04-12T06:53:43.448Z</time></trkpt><trkpt lat="44.9113" lon="8.1820033"><ele>131.5</ele><time>2026-04-12T06:53:44.448Z</time></trkpt><trkpt lat="44.911225" lon="8.18205"><ele>132.0</ele><time>2026-04-12T06:53:45.448Z</time></trkpt><trkpt lat="44.9111533" lon="8.1821017"><ele>132.0</ele><time>2026-04-12T06:53:46.449Z</time></trkpt><trkpt lat="44.9110833" lon="8.1821533"><ele>132.0</ele><time>2026-04-12T06:53:47.448Z</time></trkpt><trkpt lat="44.9110167" lon="8.1822067"><ele>132.0</ele><time>2026-04-12T06:53:48.448Z</time></trkpt><trkpt lat="44.9109483" lon="8.18226"><ele>132.0</ele><time>2026-04-12T06:53:49.448Z</time></trkpt><trkpt lat="44.91088" lon="8.182305"><ele>132.0</ele><time>2026-04-12T06:53:50.448Z</time></trkpt><trkpt lat="44.9108117" lon="8.1823467"><ele>132.0</ele><time>2026-04-12T06:53:51.449Z</time></trkpt><trkpt lat="44.9107367" lon="8.1823867"><ele>131.83333333333334</ele><time>2026-04-12T06:53:52.448Z</time></trkpt><trkpt lat="44.910665" lon="8.18243"><ele>131.66666666666666</ele><time>2026-04-12T06:53:53.448Z</time></trkpt><trkpt lat="44.9105933" lon="8.18247"><ele>131.5</ele><time>2026-04-12T06:53:54.448Z</time></trkpt><trkpt lat="44.91052" lon="8.182505"><ele>131.33333333333331</ele><time>2026-04-12T06:53:55.448Z</time></trkpt><trkpt lat="44.9104483" lon="8.1825433"><ele>131.16666666666666</ele><time>2026-04-12T06:53:56.448Z</time></trkpt><trkpt lat="44.91038" lon="8.1825783"><ele>131.0</ele><time>2026-04-12T06:53:57.448Z</time></trkpt><trkpt lat="44.9103083" lon="8.1826117"><ele>131.0</ele><time>2026-04-12T06:53:58.448Z</time></trkpt><trkpt lat="44.91024" lon="8.182645"><ele>131.0</ele><time>2026-04-12T06:53:59.448Z</time></trkpt><trkpt lat="44.9101667" lon="8.1826817"><ele>131.0</ele><time>2026-04-12T06:54:00.448Z</time></trkpt><trkpt lat="44.910095" lon="8.1827167"><ele>131.0</ele><time>2026-04-12T06:54:01.448Z</time></trkpt><trkpt lat="44.9100233" lon="8.1827483"><ele>131.0</ele><time>2026-04-12T06:54:02.448Z</time></trkpt><trkpt lat="44.909955" lon="8.1827733"><ele>131.0</ele><time>2026-04-12T06:54:03.448Z</time></trkpt><trkpt lat="44.909885" lon="8.1827983"><ele>131.0</ele><time>2026-04-12T06:54:04.448Z</time></trkpt><trkpt lat="44.9098133" lon="8.18282"><ele>130.85714285714286</ele><time>2026-04-12T06:54:05.448Z</time></trkpt><trkpt lat="44.9097433" lon="8.1828433"><ele>130.71428571428572</ele><time>2026-04-12T06:54:06.449Z</time></trkpt><trkpt lat="44.9096717" lon="8.182865"><ele>130.57142857142858</ele><time>2026-04-12T06:54:07.448Z</time></trkpt><trkpt lat="44.9096" lon="8.1828933"><ele>130.42857142857144</ele><time>2026-04-12T06:54:08.448Z</time></trkpt><trkpt lat="44.9095267" lon="8.182925"><ele>130.28571428571428</ele><time>2026-04-12T06:54:09.448Z</time></trkpt><trkpt lat="44.9094567" lon="8.182955"><ele>130.14285714285717</ele><time>2026-04-12T06:54:10.448Z</time></trkpt><trkpt lat="44.909385" lon="8.1829917"><ele>130.0</ele><time>2026-04-12T06:54:11.448Z</time></trkpt><trkpt lat="44.9093183" lon="8.1830267"><ele>130.0</ele><time>2026-04-12T06:54:12.448Z</time></trkpt><trkpt lat="44.9092517" lon="8.1830567"><ele>130.0</ele><time>2026-04-12T06:54:13.448Z</time></trkpt><trkpt lat="44.9091333" lon="8.183105"><ele>130.0</ele><time>2026-04-12T06:54:15.448Z</time></trkpt><trkpt lat="44.9090283" lon="8.1831467"><ele>130.0</ele><time>2026-04-12T06:54:17.448Z</time></trkpt><trkpt lat="44.9089583" lon="8.183175"><ele>130.0</ele><time>2026-04-12T06:54:19.448Z</time></trkpt><trkpt lat="44.90889" lon="8.1831817"><ele>130.0</ele><time>2026-04-12T06:54:21.448Z</time></trkpt><trkpt lat="44.90882" lon="8.183235"><ele>129.83333333333334</ele><time>2026-04-12T06:54:23.448Z</time></trkpt><trkpt lat="44.908825" lon="8.1833567"><ele>129.66666666666669</ele><time>2026-04-12T06:54:25.448Z</time></trkpt><trkpt lat="44.90886" lon="8.1834767"><ele>129.5</ele><time>2026-04-12T06:54:27.448Z</time></trkpt><trkpt lat="44.9088917" lon="8.1835683"><ele>129.33333333333334</ele><time>2026-04-12T06:54:29.448Z</time></trkpt><trkpt lat="44.908925" lon="8.1836567"><ele>129.16666666666666</ele><time>2026-04-12T06:54:31.449Z</time></trkpt><trkpt lat="44.908945" lon="8.1837717"><ele>129.0</ele><time>2026-04-12T06:54:34.449Z</time></trkpt><trkpt lat="44.9089717" lon="8.183885"><ele>129.5</ele><time>2026-04-12T06:54:36.448Z</time></trkpt><trkpt lat="44.909025" lon="8.18402"><ele>130.0</ele><time>2026-04-12T06:54:38.448Z</time></trkpt><trkpt lat="44.909075" lon="8.184175"><ele>130.5</ele><time>2026-04-12T06:54:40.448Z</time></trkpt><trkpt lat="44.9091317" lon="8.1843167"><ele>131.0</ele><time>2026-04-12T06:54:42.448Z</time></trkpt><trkpt lat="44.9091833" lon="8.1844483"><ele>131.0</ele><time>2026-04-12T06:54:44.448Z</time></trkpt><trkpt lat="44.909225" lon="8.184575"><ele>131.0</ele><time>2026-04-12T06:54:46.449Z</time></trkpt><trkpt lat="44.909255" lon="8.18467"><ele>131.0</ele><time>2026-04-12T06:54:48.449Z</time></trkpt><trkpt lat="44.9092117" lon="8.1847367"><ele>131.0</ele><time>2026-04-12T06:54:51.448Z</time></trkpt><trkpt lat="44.9091367" lon="8.18477"><ele>131.0</ele><time>2026-04-12T06:54:53.448Z</time></trkpt><trkpt lat="44.9090767" lon="8.1848483"><ele>131.0</ele><time>2026-04-12T06:54:55.448Z</time></trkpt><trkpt lat="44.9090217" lon="8.18497"><ele>131.8</ele><time>2026-04-12T06:54:57.448Z</time></trkpt><trkpt lat="44.908945" lon="8.185085"><ele>132.6</ele><time>2026-04-12T06:54:59.448Z</time></trkpt><trkpt lat="44.9088633" lon="8.1851917"><ele>133.4</ele><time>2026-04-12T06:55:01.448Z</time></trkpt><trkpt lat="44.9087867" lon="8.1852817"><ele>134.2</ele><time>2026-04-12T06:55:03.448Z</time></trkpt><trkpt lat="44.9087083" lon="8.1853767"><ele>135.0</ele><time>2026-04-12T06:55:05.448Z</time></trkpt><trkpt lat="44.9086317" lon="8.1854717"><ele>135.0</ele><time>2026-04-12T06:55:07.448Z</time></trkpt><trkpt lat="44.9085583" lon="8.1855667"><ele>135.0</ele><time>2026-04-12T06:55:09.448Z</time></trkpt><trkpt lat="44.9084917" lon="8.1856367"><ele>135.0</ele><time>2026-04-12T06:55:11.448Z</time></trkpt><trkpt lat="44.9084283" lon="8.18572"><ele>135.0</ele><time>2026-04-12T06:55:13.448Z</time></trkpt><trkpt lat="44.9083717" lon="8.185795"><ele>135.0</ele><time>2026-04-12T06:55:15.448Z</time></trkpt><trkpt lat="44.9082967" lon="8.1858533"><ele>135.0</ele><time>2026-04-12T06:55:17.448Z</time></trkpt><trkpt lat="44.908215" lon="8.1859083"><ele>134.8</ele><time>2026-04-12T06:55:19.448Z</time></trkpt><trkpt lat="44.9081533" lon="8.1859833"><ele>134.6</ele><time>2026-04-12T06:55:22.448Z</time></trkpt><trkpt lat="44.908145" lon="8.1861083"><ele>134.4</ele><time>2026-04-12T06:55:24.448Z</time></trkpt><trkpt lat="44.9081433" lon="8.186215"><ele>134.2</ele><time>2026-04-12T06:55:25.448Z</time></trkpt><trkpt lat="44.9081367" lon="8.1863917"><ele>134.0</ele><time>2026-04-12T06:55:27.448Z</time></trkpt><trkpt lat="44.9081267" lon="8.1865517"><ele>134.4</ele><time>2026-04-12T06:55:29.448Z</time></trkpt><trkpt lat="44.90812" lon="8.18671"><ele>134.8</ele><time>2026-04-12T06:55:31.448Z</time></trkpt><trkpt lat="44.9081317" lon="8.18688"><ele>135.2</ele><time>2026-04-12T06:55:33.448Z</time></trkpt><trkpt lat="44.9081483" lon="8.1869667"><ele>135.6</ele><time>2026-04-12T06:55:34.448Z</time></trkpt><trkpt lat="44.9081733" lon="8.1871283"><ele>136.0</ele><time>2026-04-12T06:55:36.448Z</time></trkpt><trkpt lat="44.9082017" lon="8.1873083"><ele>135.6</ele><time>2026-04-12T06:55:38.448Z</time></trkpt><trkpt lat="44.9082417" lon="8.1874667"><ele>135.2</ele><time>2026-04-12T06:55:40.448Z</time></trkpt><trkpt lat="44.90826" lon="8.1875617"><ele>134.8</ele><time>2026-04-12T06:55:41.448Z</time></trkpt><trkpt lat="44.9082733" lon="8.1876517"><ele>134.4</ele><time>2026-04-12T06:55:42.448Z</time></trkpt><trkpt lat="44.90829" lon="8.1878167"><ele>134.0</ele><time>2026-04-12T06:55:44.448Z</time></trkpt><trkpt lat="44.908295" lon="8.188"><ele>134.0</ele><time>2026-04-12T06:55:46.448Z</time></trkpt><trkpt lat="44.9082983" lon="8.1881033"><ele>134.0</ele><time>2026-04-12T06:55:47.448Z</time></trkpt><trkpt lat="44.9082717" lon="8.18819"><ele>134.0</ele><time>2026-04-12T06:55:48.449Z</time></trkpt><trkpt lat="44.908275" lon="8.1882983"><ele>134.0</ele><time>2026-04-12T06:55:49.448Z</time></trkpt><trkpt lat="44.9082233" lon="8.1884433"><ele>134.0</ele><time>2026-04-12T06:55:51.448Z</time></trkpt><trkpt lat="44.9081183" lon="8.18851"><ele>134.0</ele><time>2026-04-12T06:55:53.448Z</time></trkpt><trkpt lat="44.9080533" lon="8.188535"><ele>133.5</ele><time>2026-04-12T06:55:54.448Z</time></trkpt><trkpt lat="44.90799" lon="8.1885533"><ele>133.0</ele><time>2026-04-12T06:55:55.448Z</time></trkpt><trkpt lat="44.9079267" lon="8.18857"><ele>132.5</ele><time>2026-04-12T06:55:56.448Z</time></trkpt><trkpt lat="44.9078217" lon="8.1886233"><ele>132.0</ele><time>2026-04-12T06:55:58.448Z</time></trkpt><trkpt lat="44.90771" lon="8.18869"><ele>131.5</ele><time>2026-04-12T06:56:00.448Z</time></trkpt><trkpt lat="44.907655" lon="8.188745"><ele>131.0</ele><time>2026-04-12T06:56:01.448Z</time></trkpt><trkpt lat="44.9076033" lon="8.1888033"><ele>131.16666666666666</ele><time>2026-04-12T06:56:02.448Z</time></trkpt><trkpt lat="44.9075333" lon="8.188935"><ele>131.33333333333331</ele><time>2026-04-12T06:56:04.448Z</time></trkpt><trkpt lat="44.9075033" lon="8.18902"><ele>131.5</ele><time>2026-04-12T06:56:05.448Z</time></trkpt><trkpt lat="44.9074867" lon="8.1891117"><ele>131.66666666666666</ele><time>2026-04-12T06:56:06.448Z</time></trkpt><trkpt lat="44.9074833" lon="8.1892117"><ele>131.83333333333334</ele><time>2026-04-12T06:56:07.448Z</time></trkpt><trkpt lat="44.90749" lon="8.1893167"><ele>132.0</ele><time>2026-04-12T06:56:08.448Z</time></trkpt><trkpt lat="44.9075017" lon="8.1894167"><ele>132.0</ele><time>2026-04-12T06:56:09.448Z</time></trkpt><trkpt lat="44.907515" lon="8.18951"><ele>132.0</ele><time>2026-04-12T06:56:10.448Z</time></trkpt><trkpt lat="44.9075267" lon="8.1896"><ele>132.0</ele><time>2026-04-12T06:56:11.448Z</time></trkpt><trkpt lat="44.9075417" lon="8.1897717"><ele>132.0</ele><time>2026-04-12T06:56:13.448Z</time></trkpt><trkpt lat="44.9075467" lon="8.1898717"><ele>132.0</ele><time>2026-04-12T06:56:14.448Z</time></trkpt><trkpt lat="44.90755" lon="8.1899767"><ele>132.0</ele><time>2026-04-12T06:56:15.448Z</time></trkpt><trkpt lat="44.9075517" lon="8.1900783"><ele>132.0</ele><time>2026-04-12T06:56:16.448Z</time></trkpt><trkpt lat="44.907545" lon="8.1901733"><ele>132.0</ele><time>2026-04-12T06:56:17.448Z</time></trkpt><trkpt lat="44.9075317" lon="8.19027"><ele>132.0</ele><time>2026-04-12T06:56:18.448Z</time></trkpt><trkpt lat="44.9075183" lon="8.190365"><ele>132.0</ele><time>2026-04-12T06:56:19.448Z</time></trkpt><trkpt lat="44.9075017" lon="8.1904567"><ele>132.0</ele><time>2026-04-12T06:56:20.448Z</time></trkpt><trkpt lat="44.90748" lon="8.1905417"><ele>132.0</ele><time>2026-04-12T06:56:21.448Z</time></trkpt><trkpt lat="44.9074433" lon="8.1906283"><ele>132.0</ele><time>2026-04-12T06:56:22.448Z</time></trkpt><trkpt lat="44.9073933" lon="8.1906967"><ele>131.85714285714286</ele><time>2026-04-12T06:56:23.448Z</time></trkpt><trkpt lat="44.9073367" lon="8.1907583"><ele>131.71428571428572</ele><time>2026-04-12T06:56:24.448Z</time></trkpt><trkpt lat="44.9072817" lon="8.190825"><ele>131.57142857142858</ele><time>2026-04-12T06:56:25.448Z</time></trkpt><trkpt lat="44.907245" lon="8.1909083"><ele>131.42857142857144</ele><time>2026-04-12T06:56:26.448Z</time></trkpt><trkpt lat="44.9072267" lon="8.1910033"><ele>131.2857142857143</ele><time>2026-04-12T06:56:27.448Z</time></trkpt><trkpt lat="44.907215" lon="8.1911033"><ele>131.14285714285714</ele><time>2026-04-12T06:56:28.448Z</time></trkpt><trkpt lat="44.907205" lon="8.1912083"><ele>131.0</ele><time>2026-04-12T06:56:29.448Z</time></trkpt><trkpt lat="44.9071583" lon="8.191375"><ele>131.0</ele><time>2026-04-12T06:56:31.448Z</time></trkpt><trkpt lat="44.9071117" lon="8.1914567"><ele>131.0</ele><time>2026-04-12T06:56:32.448Z</time></trkpt><trkpt lat="44.9070733" lon="8.191535"><ele>131.0</ele><time>2026-04-12T06:56:33.448Z</time></trkpt><trkpt lat="44.9070233" lon="8.1916217"><ele>131.0</ele><time>2026-04-12T06:56:34.448Z</time></trkpt><trkpt lat="44.9069833" lon="8.1917033"><ele>131.0</ele><time>2026-04-12T06:56:35.448Z</time></trkpt><trkpt lat="44.9069483" lon="8.19178"><ele>131.0</ele><time>2026-04-12T06:56:36.448Z</time></trkpt><trkpt lat="44.90691" lon="8.191865"><ele>131.0</ele><time>2026-04-12T06:56:37.448Z</time></trkpt><trkpt lat="44.9068733" lon="8.1919517"><ele>131.0</ele><time>2026-04-12T06:56:38.448Z</time></trkpt><trkpt lat="44.9068433" lon="8.1920383"><ele>131.0</ele><time>2026-04-12T06:56:39.448Z</time></trkpt><trkpt lat="44.9068083" lon="8.1921233"><ele>131.0</ele><time>2026-04-12T06:56:40.449Z</time></trkpt><trkpt lat="44.9067783" lon="8.1922067"><ele>131.0</ele><time>2026-04-12T06:56:41.448Z</time></trkpt><trkpt lat="44.9067383" lon="8.192285"><ele>131.0</ele><time>2026-04-12T06:56:42.448Z</time></trkpt><trkpt lat="44.9067017" lon="8.1923633"><ele>131.0</ele><time>2026-04-12T06:56:43.448Z</time></trkpt><trkpt lat="44.9066617" lon="8.1924433"><ele>131.0</ele><time>2026-04-12T06:56:44.448Z</time></trkpt><trkpt lat="44.9066333" lon="8.1925367"><ele>131.0</ele><time>2026-04-12T06:56:45.448Z</time></trkpt><trkpt lat="44.9065917" lon="8.1926267"><ele>131.0</ele><time>2026-04-12T06:56:46.448Z</time></trkpt><trkpt lat="44.906555" lon="8.192715"><ele>131.0</ele><time>2026-04-12T06:56:47.448Z</time></trkpt><trkpt lat="44.9065167" lon="8.1928"><ele>131.0</ele><time>2026-04-12T06:56:48.448Z</time></trkpt><trkpt lat="44.9064867" lon="8.1928983"><ele>131.0</ele><time>2026-04-12T06:56:49.448Z</time></trkpt><trkpt lat="44.9064517" lon="8.1929933"><ele>131.0</ele><time>2026-04-12T06:56:50.448Z</time></trkpt><trkpt lat="44.9064117" lon="8.19308"><ele>131.0</ele><time>2026-04-12T06:56:51.448Z</time></trkpt><trkpt lat="44.9063783" lon="8.1931617"><ele>131.66666666666666</ele><time>2026-04-12T06:56:52.448Z</time></trkpt><trkpt lat="44.90633" lon="8.1932517"><ele>132.33333333333331</ele><time>2026-04-12T06:56:53.448Z</time></trkpt><trkpt lat="44.9062917" lon="8.1933383"><ele>133.0</ele><time>2026-04-12T06:56:54.449Z</time></trkpt><trkpt lat="44.9062567" lon="8.193425"><ele>133.66666666666666</ele><time>2026-04-12T06:56:55.448Z</time></trkpt><trkpt lat="44.90622" lon="8.1935117"><ele>134.33333333333334</ele><time>2026-04-12T06:56:56.448Z</time></trkpt><trkpt lat="44.9061833" lon="8.19359"><ele>135.0</ele><time>2026-04-12T06:56:57.448Z</time></trkpt><trkpt lat="44.9061267" lon="8.1937367"><ele>135.0</ele><time>2026-04-12T06:56:59.448Z</time></trkpt><trkpt lat="44.9060867" lon="8.1938817"><ele>135.0</ele><time>2026-04-12T06:57:01.449Z</time></trkpt><trkpt lat="44.9060183" lon="8.1940033"><ele>135.0</ele><time>2026-04-12T06:57:03.448Z</time></trkpt><trkpt lat="44.9059533" lon="8.19413"><ele>135.0</ele><time>2026-04-12T06:57:05.448Z</time></trkpt><trkpt lat="44.9058817" lon="8.19426"><ele>135.0</ele><time>2026-04-12T06:57:07.448Z</time></trkpt><trkpt lat="44.9058183" lon="8.194395"><ele>136.0</ele><time>2026-04-12T06:57:09.448Z</time></trkpt><trkpt lat="44.9057633" lon="8.1945333"><ele>137.0</ele><time>2026-04-12T06:57:11.448Z</time></trkpt><trkpt lat="44.9057133" lon="8.1946617"><ele>138.0</ele><time>2026-04-12T06:57:13.448Z</time></trkpt><trkpt lat="44.90566" lon="8.194775"><ele>139.0</ele><time>2026-04-12T06:57:15.448Z</time></trkpt><trkpt lat="44.9055933" lon="8.1948917"><ele>140.0</ele><time>2026-04-12T06:57:17.448Z</time></trkpt><trkpt lat="44.9055417" lon="8.1950083"><ele>140.6</ele><time>2026-04-12T06:57:19.448Z</time></trkpt><trkpt lat="44.905515" lon="8.1951233"><ele>141.2</ele><time>2026-04-12T06:57:21.448Z</time></trkpt><trkpt lat="44.9054667" lon="8.1952217"><ele>141.8</ele><time>2026-04-12T06:57:23.448Z</time></trkpt><trkpt lat="44.9054167" lon="8.19534"><ele>142.4</ele><time>2026-04-12T06:57:25.448Z</time></trkpt><trkpt lat="44.90538" lon="8.19546"><ele>143.0</ele><time>2026-04-12T06:57:27.448Z</time></trkpt><trkpt lat="44.90532" lon="8.1955683"><ele>143.6</ele><time>2026-04-12T06:57:29.448Z</time></trkpt><trkpt lat="44.90527" lon="8.19568"><ele>144.20000000000002</ele><time>2026-04-12T06:57:31.448Z</time></trkpt><trkpt lat="44.905225" lon="8.19579"><ele>144.8</ele><time>2026-04-12T06:57:33.449Z</time></trkpt><trkpt lat="44.9051783" lon="8.195925"><ele>145.4</ele><time>2026-04-12T06:57:35.448Z</time></trkpt><trkpt lat="44.9051367" lon="8.1960517"><ele>146.0</ele><time>2026-04-12T06:57:37.448Z</time></trkpt><trkpt lat="44.9051" lon="8.1961717"><ele>146.0</ele><time>2026-04-12T06:57:39.448Z</time></trkpt><trkpt lat="44.9050717" lon="8.19628"><ele>146.0</ele><time>2026-04-12T06:57:41.448Z</time></trkpt><trkpt lat="44.905025" lon="8.19638"><ele>146.0</ele><time>2026-04-12T06:57:43.448Z</time></trkpt><trkpt lat="44.9049833" lon="8.1964983"><ele>146.0</ele><time>2026-04-12T06:57:45.448Z</time></trkpt><trkpt lat="44.9049567" lon="8.1966383"><ele>146.0</ele><time>2026-04-12T06:57:47.448Z</time></trkpt><trkpt lat="44.904935" lon="8.1967717"><ele>146.0</ele><time>2026-04-12T06:57:49.448Z</time></trkpt><trkpt lat="44.9049067" lon="8.1969067"><ele>146.0</ele><time>2026-04-12T06:57:51.448Z</time></trkpt><trkpt lat="44.9048783" lon="8.1970367"><ele>146.0</ele><time>2026-04-12T06:57:53.448Z</time></trkpt><trkpt lat="44.9048367" lon="8.19716"><ele>146.0</ele><time>2026-04-12T06:57:55.448Z</time></trkpt><trkpt lat="44.9047883" lon="8.197275"><ele>146.0</ele><time>2026-04-12T06:57:57.448Z</time></trkpt><trkpt lat="44.904745" lon="8.197385"><ele>146.2</ele><time>2026-04-12T06:57:59.448Z</time></trkpt><trkpt lat="44.9047067" lon="8.197505"><ele>146.39999999999998</ele><time>2026-04-12T06:58:01.448Z</time></trkpt><trkpt lat="44.9046717" lon="8.1976217"><ele>146.6</ele><time>2026-04-12T06:58:03.448Z</time></trkpt><trkpt lat="44.90466" lon="8.1977567"><ele>146.79999999999998</ele><time>2026-04-12T06:58:05.449Z</time></trkpt><trkpt lat="44.904645" lon="8.1978717"><ele>147.0</ele><time>2026-04-12T06:58:07.448Z</time></trkpt><trkpt lat="44.9046217" lon="8.1980133"><ele>147.0</ele><time>2026-04-12T06:58:09.448Z</time></trkpt><trkpt lat="44.904575" lon="8.19813"><ele>147.0</ele><time>2026-04-12T06:58:11.448Z</time></trkpt><trkpt lat="44.904535" lon="8.19824"><ele>147.0</ele><time>2026-04-12T06:58:13.448Z</time></trkpt><trkpt lat="44.9044967" lon="8.1983383"><ele>147.0</ele><time>2026-04-12T06:58:15.448Z</time></trkpt><trkpt lat="44.9044417" lon="8.1984417"><ele>147.0</ele><time>2026-04-12T06:58:17.448Z</time></trkpt><trkpt lat="44.9043733" lon="8.1985367"><ele>147.0</ele><time>2026-04-12T06:58:19.448Z</time></trkpt><trkpt lat="44.9043183" lon="8.198625"><ele>147.6</ele><time>2026-04-12T06:58:21.449Z</time></trkpt><trkpt lat="44.9042417" lon="8.1987133"><ele>148.2</ele><time>2026-04-12T06:58:23.448Z</time></trkpt><trkpt lat="44.9041617" lon="8.1988167"><ele>148.8</ele><time>2026-04-12T06:58:25.449Z</time></trkpt><trkpt lat="44.904085" lon="8.1989217"><ele>149.4</ele><time>2026-04-12T06:58:27.448Z</time></trkpt><trkpt lat="44.9039983" lon="8.199005"><ele>150.0</ele><time>2026-04-12T06:58:29.448Z</time></trkpt><trkpt lat="44.9038933" lon="8.199085"><ele>149.99999999999997</ele><time>2026-04-12T06:58:31.448Z</time></trkpt><trkpt lat="44.9038433" lon="8.19914"><ele>150.0</ele><time>2026-04-12T06:58:32.448Z</time></trkpt><trkpt lat="44.90378" lon="8.1992033"><ele>150.0</ele><time>2026-04-12T06:58:33.448Z</time></trkpt><trkpt lat="44.9037183" lon="8.1992583"><ele>150.0</ele><time>2026-04-12T06:58:34.448Z</time></trkpt><trkpt lat="44.9036567" lon="8.1993017"><ele>150.0</ele><time>2026-04-12T06:58:35.448Z</time></trkpt><trkpt lat="44.9035933" lon="8.1993517"><ele>149.99999999999997</ele><time>2026-04-12T06:58:36.448Z</time></trkpt><trkpt lat="44.90352" lon="8.199405"><ele>150.0</ele><time>2026-04-12T06:58:37.448Z</time></trkpt><trkpt lat="44.9034483" lon="8.1994533"><ele>150.0</ele><time>2026-04-12T06:58:38.448Z</time></trkpt><trkpt lat="44.9033733" lon="8.1995017"><ele>150.0</ele><time>2026-04-12T06:58:39.448Z</time></trkpt><trkpt lat="44.9032983" lon="8.19955"><ele>150.0</ele><time>2026-04-12T06:58:40.448Z</time></trkpt><trkpt lat="44.9032117" lon="8.1995967"><ele>150.0</ele><time>2026-04-12T06:58:41.448Z</time></trkpt><trkpt lat="44.9031283" lon="8.19965"><ele>150.0</ele><time>2026-04-12T06:58:42.448Z</time></trkpt><trkpt lat="44.90305" lon="8.1996983"><ele>150.0</ele><time>2026-04-12T06:58:43.448Z</time></trkpt><trkpt lat="44.9029767" lon="8.199755"><ele>150.0</ele><time>2026-04-12T06:58:44.448Z</time></trkpt><trkpt lat="44.9029" lon="8.1997967"><ele>150.0</ele><time>2026-04-12T06:58:45.448Z</time></trkpt><trkpt lat="44.902805" lon="8.1998217"><ele>150.0</ele><time>2026-04-12T06:58:46.448Z</time></trkpt><trkpt lat="44.902705" lon="8.1998533"><ele>150.0</ele><time>2026-04-12T06:58:47.448Z</time></trkpt><trkpt lat="44.9026" lon="8.1998917"><ele>150.0</ele><time>2026-04-12T06:58:48.448Z</time></trkpt><trkpt lat="44.9024967" lon="8.19993"><ele>147.75</ele><time>2026-04-12T06:58:49.448Z</time></trkpt><trkpt lat="44.9023833" lon="8.1999783"><ele>145.5</ele><time>2026-04-12T06:58:50.449Z</time></trkpt><trkpt lat="44.902255" lon="8.2000117"><ele>143.25</ele><time>2026-04-12T06:58:51.448Z</time></trkpt><trkpt lat="44.9021467" lon="8.2000233"><ele>141.0</ele><time>2026-04-12T06:58:52.448Z</time></trkpt><trkpt lat="44.9020533" lon="8.2000467"><ele>141.0</ele><time>2026-04-12T06:58:53.448Z</time></trkpt><trkpt lat="44.90198" lon="8.2000567"><ele>141.0</ele><time>2026-04-12T06:58:54.448Z</time></trkpt><trkpt lat="44.9019067" lon="8.2000733"><ele>141.0</ele><time>2026-04-12T06:58:55.448Z</time></trkpt><trkpt lat="44.9018233" lon="8.2000717"><ele>141.0</ele><time>2026-04-12T06:58:56.448Z</time></trkpt><trkpt lat="44.9017583" lon="8.2000733"><ele>141.0</ele><time>2026-04-12T06:58:57.448Z</time></trkpt><trkpt lat="44.901645" lon="8.20004"><ele>141.0</ele><time>2026-04-12T06:58:59.448Z</time></trkpt><trkpt lat="44.9015833" lon="8.1999183"><ele>140.5</ele><time>2026-04-12T06:59:01.448Z</time></trkpt><trkpt lat="44.9015717" lon="8.19976"><ele>140.0</ele><time>2026-04-12T06:59:03.448Z</time></trkpt><trkpt lat="44.9015583" lon="8.1996717"><ele>139.5</ele><time>2026-04-12T06:59:04.448Z</time></trkpt><trkpt lat="44.9015317" lon="8.1995633"><ele>139.0</ele><time>2026-04-12T06:59:05.448Z</time></trkpt><trkpt lat="44.90152" lon="8.19944"><ele>138.5</ele><time>2026-04-12T06:59:06.448Z</time></trkpt><trkpt lat="44.9015117" lon="8.19934"><ele>138.0</ele><time>2026-04-12T06:59:07.448Z</time></trkpt><trkpt lat="44.901495" lon="8.1992533"><ele>138.0</ele><time>2026-04-12T06:59:08.448Z</time></trkpt><trkpt lat="44.9014717" lon="8.1991667"><ele>138.0</ele><time>2026-04-12T06:59:09.448Z</time></trkpt><trkpt lat="44.9014333" lon="8.199005"><ele>138.0</ele><time>2026-04-12T06:59:11.448Z</time></trkpt><trkpt lat="44.90141" lon="8.1988567"><ele>138.0</ele><time>2026-04-12T06:59:13.448Z</time></trkpt><trkpt lat="44.9013933" lon="8.198715"><ele>138.0</ele><time>2026-04-12T06:59:15.448Z</time></trkpt><trkpt lat="44.9013867" lon="8.1985867"><ele>138.33333333333334</ele><time>2026-04-12T06:59:17.448Z</time></trkpt><trkpt lat="44.9013817" lon="8.1984733"><ele>138.66666666666666</ele><time>2026-04-12T06:59:19.449Z</time></trkpt><trkpt lat="44.9013767" lon="8.1983583"><ele>139.0</ele><time>2026-04-12T06:59:21.448Z</time></trkpt><trkpt lat="44.9013533" lon="8.1982417"><ele>139.33333333333331</ele><time>2026-04-12T06:59:23.448Z</time></trkpt><trkpt lat="44.9013317" lon="8.1981267"><ele>139.66666666666666</ele><time>2026-04-12T06:59:25.448Z</time></trkpt><trkpt lat="44.9013117" lon="8.1980217"><ele>140.0</ele><time>2026-04-12T06:59:27.448Z</time></trkpt><trkpt lat="44.9013017" lon="8.197905"><ele>140.33333333333331</ele><time>2026-04-12T06:59:29.448Z</time></trkpt><trkpt lat="44.9012867" lon="8.1977933"><ele>140.66666666666666</ele><time>2026-04-12T06:59:31.448Z</time></trkpt><trkpt lat="44.9012767" lon="8.1976783"><ele>141.0</ele><time>2026-04-12T06:59:33.448Z</time></trkpt><trkpt lat="44.9012617" lon="8.1975783"><ele>141.33333333333334</ele><time>2026-04-12T06:59:35.448Z</time></trkpt><trkpt lat="44.901245" lon="8.1974633"><ele>141.66666666666669</ele><time>2026-04-12T06:59:37.448Z</time></trkpt><trkpt lat="44.9012367" lon="8.1973333"><ele>142.0</ele><time>2026-04-12T06:59:39.448Z</time></trkpt><trkpt lat="44.9012167" lon="8.197215"><ele>142.16666666666669</ele><time>2026-04-12T06:59:41.448Z</time></trkpt><trkpt lat="44.9011817" lon="8.1970967"><ele>142.33333333333334</ele><time>2026-04-12T06:59:43.448Z</time></trkpt><trkpt lat="44.9011517" lon="8.1969967"><ele>142.5</ele><time>2026-04-12T06:59:45.448Z</time></trkpt><trkpt lat="44.90109" lon="8.1969033"><ele>142.66666666666666</ele><time>2026-04-12T06:59:48.448Z</time></trkpt><trkpt lat="44.9009933" lon="8.19693"><ele>142.83333333333331</ele><time>2026-04-12T06:59:51.448Z</time></trkpt><trkpt lat="44.90092" lon="8.19699"><ele>143.0</ele><time>2026-04-12T06:59:53.448Z</time></trkpt><trkpt lat="44.90085" lon="8.1970517"><ele>142.6</ele><time>2026-04-12T06:59:55.448Z</time></trkpt><trkpt lat="44.9007633" lon="8.1971117"><ele>142.20000000000002</ele><time>2026-04-12T06:59:57.448Z</time></trkpt><trkpt lat="44.9006717" lon="8.19717"><ele>141.8</ele><time>2026-04-12T06:59:59.448Z</time></trkpt><trkpt lat="44.90059" lon="8.1972067"><ele>141.4</ele><time>2026-04-12T07:00:01.448Z</time></trkpt><trkpt lat="44.900495" lon="8.1972517"><ele>141.0</ele><time>2026-04-12T07:00:03.448Z</time></trkpt><trkpt lat="44.900405" lon="8.19731"><ele>141.0</ele><time>2026-04-12T07:00:05.448Z</time></trkpt><trkpt lat="44.9003283" lon="8.19737"><ele>141.0</ele><time>2026-04-12T07:00:07.448Z</time></trkpt><trkpt lat="44.9002783" lon="8.1974517"><ele>141.0</ele><time>2026-04-12T07:00:09.448Z</time></trkpt><trkpt lat="44.9002767" lon="8.1975417"><ele>141.0</ele><time>2026-04-12T07:00:12.448Z</time></trkpt><trkpt lat="44.9002717" lon="8.1976417"><ele>141.0</ele><time>2026-04-12T07:00:16.448Z</time></trkpt><trkpt lat="44.9002667" lon="8.1977433"><ele>141.0</ele><time>2026-04-12T07:00:19.448Z</time></trkpt><trkpt lat="44.90031" lon="8.1978417"><ele>141.0</ele><time>2026-04-12T07:00:22.448Z</time></trkpt><trkpt lat="44.9003517" lon="8.1979167"><ele>141.0</ele><time>2026-04-12T07:00:32.448Z</time></trkpt><trkpt lat="44.900395" lon="8.1980083"><ele>141.0</ele><time>2026-04-12T07:00:35.448Z</time></trkpt><trkpt lat="44.900425" lon="8.19814"><ele>141.0</ele><time>2026-04-12T07:00:38.449Z</time></trkpt><trkpt lat="44.9004233" lon="8.1982483"><ele>141.0</ele><time>2026-04-12T07:00:40.448Z</time></trkpt><trkpt lat="44.9004333" lon="8.1983483"><ele>141.0</ele><time>2026-04-12T07:00:43.448Z</time></trkpt><trkpt lat="44.9004717" lon="8.1984283"><ele>140.66666666666666</ele><time>2026-04-12T07:00:45.448Z</time></trkpt><trkpt lat="44.9005333" lon="8.1985"><ele>140.33333333333334</ele><time>2026-04-12T07:00:47.449Z</time></trkpt><trkpt lat="44.9005883" lon="8.1985517"><ele>140.0</ele><time>2026-04-12T07:00:49.448Z</time></trkpt><trkpt lat="44.9006633" lon="8.19858"><ele>139.66666666666669</ele><time>2026-04-12T07:00:52.448Z</time></trkpt><trkpt lat="44.9007167" lon="8.1986667"><ele>139.33333333333334</ele><time>2026-04-12T07:00:56.448Z</time></trkpt><trkpt lat="44.9007483" lon="8.1987617"><ele>139.0</ele><time>2026-04-12T07:00:58.449Z</time></trkpt><trkpt lat="44.9007683" lon="8.1988967"><ele>139.0</ele><time>2026-04-12T07:01:00.448Z</time></trkpt><trkpt lat="44.9007833" lon="8.1989883"><ele>139.0</ele><time>2026-04-12T07:01:02.448Z</time></trkpt><trkpt lat="44.9007983" lon="8.1990783"><ele>139.0</ele><time>2026-04-12T07:01:04.448Z</time></trkpt><trkpt lat="44.9008133" lon="8.1991733"><ele>139.0</ele><time>2026-04-12T07:01:06.448Z</time></trkpt><trkpt lat="44.900735" lon="8.1992433"><ele>139.0</ele><time>2026-04-12T07:01:10.448Z</time></trkpt><trkpt lat="44.90063" lon="8.199305"><ele>139.0</ele><time>2026-04-12T07:01:12.448Z</time></trkpt><trkpt lat="44.9005233" lon="8.1993417"><ele>138.8</ele><time>2026-04-12T07:01:14.448Z</time></trkpt><trkpt lat="44.900415" lon="8.19937"><ele>138.60000000000002</ele><time>2026-04-12T07:01:16.448Z</time></trkpt><trkpt lat="44.9003217" lon="8.19942"><ele>138.4</ele><time>2026-04-12T07:01:18.448Z</time></trkpt><trkpt lat="44.900235" lon="8.1994633"><ele>138.20000000000002</ele><time>2026-04-12T07:01:20.448Z</time></trkpt><trkpt lat="44.9001517" lon="8.19949"><ele>138.0</ele><time>2026-04-12T07:01:22.448Z</time></trkpt><trkpt lat="44.9000883" lon="8.1995"><ele>138.0</ele><time>2026-04-12T07:01:24.448Z</time></trkpt><trkpt lat="44.90003" lon="8.19961"><ele>138.0</ele><time>2026-04-12T07:01:28.448Z</time></trkpt><trkpt lat="44.9000367" lon="8.19977"><ele>138.0</ele><time>2026-04-12T07:01:30.448Z</time></trkpt><trkpt lat="44.9000683" lon="8.1999317"><ele>138.0</ele><time>2026-04-12T07:01:32.448Z</time></trkpt><trkpt lat="44.900095" lon="8.200065"><ele>138.0</ele><time>2026-04-12T07:01:34.448Z</time></trkpt><trkpt lat="44.900095" lon="8.20018"><ele>138.0</ele><time>2026-04-12T07:01:36.448Z</time></trkpt><trkpt lat="44.9001067" lon="8.2002717"><ele>138.0</ele><time>2026-04-12T07:01:38.448Z</time></trkpt><trkpt lat="44.900115" lon="8.2003717"><ele>138.0</ele><time>2026-04-12T07:01:40.448Z</time></trkpt><trkpt lat="44.9001317" lon="8.2004617"><ele>138.0</ele><time>2026-04-12T07:01:42.448Z</time></trkpt><trkpt lat="44.9001517" lon="8.2005517"><ele>138.0</ele><time>2026-04-12T07:01:44.448Z</time></trkpt><trkpt lat="44.9001833" lon="8.2006617"><ele>138.0</ele><time>2026-04-12T07:01:46.449Z</time></trkpt><trkpt lat="44.9002333" lon="8.2009033"><ele>138.33333333333334</ele><time>2026-04-12T07:01:48.448Z</time></trkpt><trkpt lat="44.9002533" lon="8.2010217"><ele>138.66666666666666</ele><time>2026-04-12T07:01:49.448Z</time></trkpt><trkpt lat="44.9002667" lon="8.20113"><ele>139.0</ele><time>2026-04-12T07:01:51.448Z</time></trkpt><trkpt lat="44.9002633" lon="8.2012333"><ele>139.33333333333331</ele><time>2026-04-12T07:01:53.448Z</time></trkpt><trkpt lat="44.9003083" lon="8.2013367"><ele>139.66666666666666</ele><time>2026-04-12T07:01:55.448Z</time></trkpt><trkpt lat="44.9002983" lon="8.201475"><ele>140.0</ele><time>2026-04-12T07:01:57.448Z</time></trkpt><trkpt lat="44.9003433" lon="8.201615"><ele>139.2</ele><time>2026-04-12T07:01:59.448Z</time></trkpt><trkpt lat="44.9003617" lon="8.201775"><ele>138.4</ele><time>2026-04-12T07:02:01.448Z</time></trkpt><trkpt lat="44.9003767" lon="8.201915"><ele>137.6</ele><time>2026-04-12T07:02:03.448Z</time></trkpt><trkpt lat="44.9004017" lon="8.202055"><ele>136.8</ele><time>2026-04-12T07:02:05.448Z</time></trkpt><trkpt lat="44.9004333" lon="8.2022033"><ele>136.0</ele><time>2026-04-12T07:02:07.448Z</time></trkpt><trkpt lat="44.9004767" lon="8.2023517"><ele>135.4</ele><time>2026-04-12T07:02:09.448Z</time></trkpt><trkpt lat="44.90054" lon="8.20249"><ele>134.8</ele><time>2026-04-12T07:02:11.448Z</time></trkpt><trkpt lat="44.900595" lon="8.2026367"><ele>134.20000000000002</ele><time>2026-04-12T07:02:13.449Z</time></trkpt><trkpt lat="44.900615" lon="8.2027783"><ele>133.6</ele><time>2026-04-12T07:02:15.448Z</time></trkpt><trkpt lat="44.9006117" lon="8.2028917"><ele>133.0</ele><time>2026-04-12T07:02:16.449Z</time></trkpt><trkpt lat="44.9006167" lon="8.203055"><ele>133.0</ele><time>2026-04-12T07:02:18.448Z</time></trkpt><trkpt lat="44.9006433" lon="8.20317"><ele>133.0</ele><time>2026-04-12T07:02:20.448Z</time></trkpt><trkpt lat="44.9006883" lon="8.2032433"><ele>133.0</ele><time>2026-04-12T07:02:22.448Z</time></trkpt><trkpt lat="44.9007483" lon="8.20331"><ele>133.0</ele><time>2026-04-12T07:02:24.448Z</time></trkpt><trkpt lat="44.9008117" lon="8.203325"><ele>133.0</ele><time>2026-04-12T07:02:26.448Z</time></trkpt><trkpt lat="44.900865" lon="8.20326"><ele>133.0</ele><time>2026-04-12T07:02:28.448Z</time></trkpt><trkpt lat="44.9009017" lon="8.203145"><ele>133.6</ele><time>2026-04-12T07:02:30.448Z</time></trkpt><trkpt lat="44.9009433" lon="8.2029917"><ele>134.20000000000002</ele><time>2026-04-12T07:02:32.448Z</time></trkpt><trkpt lat="44.9009867" lon="8.2028667"><ele>134.8</ele><time>2026-04-12T07:02:34.448Z</time></trkpt><trkpt lat="44.901015" lon="8.2027417"><ele>135.4</ele><time>2026-04-12T07:02:36.448Z</time></trkpt><trkpt lat="44.9010583" lon="8.202665"><ele>136.0</ele><time>2026-04-12T07:02:39.448Z</time></trkpt><trkpt lat="44.9011283" lon="8.2027317"><ele>136.0</ele><time>2026-04-12T07:02:42.448Z</time></trkpt><trkpt lat="44.9012033" lon="8.2027717"><ele>136.0</ele><time>2026-04-12T07:02:44.448Z</time></trkpt><trkpt lat="44.901305" lon="8.2028317"><ele>136.0</ele><time>2026-04-12T07:02:46.448Z</time></trkpt><trkpt lat="44.9013933" lon="8.2029017"><ele>136.0</ele><time>2026-04-12T07:02:48.448Z</time></trkpt><trkpt lat="44.9014617" lon="8.2029467"><ele>136.0</ele><time>2026-04-12T07:02:50.448Z</time></trkpt><trkpt lat="44.90152" lon="8.2029883"><ele>136.0</ele><time>2026-04-12T07:02:52.448Z</time></trkpt><trkpt lat="44.9015683" lon="8.2030517"><ele>136.0</ele><time>2026-04-12T07:02:55.448Z</time></trkpt><trkpt lat="44.9015967" lon="8.2031367"><ele>136.0</ele><time>2026-04-12T07:02:58.448Z</time></trkpt><trkpt lat="44.90158" lon="8.2032317"><ele>136.0</ele><time>2026-04-12T07:03:01.448Z</time></trkpt><trkpt lat="44.90153" lon="8.2033133"><ele>136.0</ele><time>2026-04-12T07:03:03.448Z</time></trkpt><trkpt lat="44.9014667" lon="8.203405"><ele>136.0</ele><time>2026-04-12T07:03:05.448Z</time></trkpt><trkpt lat="44.9014" lon="8.2035117"><ele>136.0</ele><time>2026-04-12T07:03:07.448Z</time></trkpt><trkpt lat="44.9013167" lon="8.203635"><ele>136.0</ele><time>2026-04-12T07:03:09.448Z</time></trkpt><trkpt lat="44.9012283" lon="8.2037433"><ele>136.0</ele><time>2026-04-12T07:03:11.448Z</time></trkpt><trkpt lat="44.9011317" lon="8.2038417"><ele>136.0</ele><time>2026-04-12T07:03:13.448Z</time></trkpt><trkpt lat="44.9010767" lon="8.2038883"><ele>136.0</ele><time>2026-04-12T07:03:14.448Z</time></trkpt><trkpt lat="44.900995" lon="8.2039833"><ele>136.0</ele><time>2026-04-12T07:03:16.448Z</time></trkpt><trkpt lat="44.90094" lon="8.2041017"><ele>135.4</ele><time>2026-04-12T07:03:18.448Z</time></trkpt><trkpt lat="44.9009117" lon="8.20421"><ele>134.8</ele><time>2026-04-12T07:03:19.448Z</time></trkpt><trkpt lat="44.9008267" lon="8.204295"><ele>134.20000000000002</ele><time>2026-04-12T07:03:21.448Z</time></trkpt><trkpt lat="44.9007417" lon="8.20436"><ele>133.6</ele><time>2026-04-12T07:03:23.448Z</time></trkpt><trkpt lat="44.90064" lon="8.204405"><ele>133.0</ele><time>2026-04-12T07:03:25.449Z</time></trkpt><trkpt lat="44.900545" lon="8.2044233"><ele>133.0</ele><time>2026-04-12T07:03:27.448Z</time></trkpt><trkpt lat="44.9004633" lon="8.2044283"><ele>133.0</ele><time>2026-04-12T07:03:29.448Z</time></trkpt><trkpt lat="44.9003983" lon="8.2044333"><ele>133.0</ele><time>2026-04-12T07:03:31.449Z</time></trkpt><trkpt lat="44.90033" lon="8.2044533"><ele>133.0</ele><time>2026-04-12T07:03:34.448Z</time></trkpt><trkpt lat="44.9002517" lon="8.2045017"><ele>133.0</ele><time>2026-04-12T07:03:37.448Z</time></trkpt><trkpt lat="44.90019" lon="8.2045367"><ele>133.0</ele><time>2026-04-12T07:03:39.448Z</time></trkpt><trkpt lat="44.9001217" lon="8.2045467"><ele>133.0</ele><time>2026-04-12T07:03:41.448Z</time></trkpt><trkpt lat="44.9000683" lon="8.2044817"><ele>132.8</ele><time>2026-04-12T07:03:43.449Z</time></trkpt><trkpt lat="44.9000383" lon="8.204385"><ele>132.60000000000002</ele><time>2026-04-12T07:03:44.448Z</time></trkpt><trkpt lat="44.900015" lon="8.2042883"><ele>132.39999999999998</ele><time>2026-04-12T07:03:45.448Z</time></trkpt><trkpt lat="44.8999767" lon="8.2041183"><ele>132.2</ele><time>2026-04-12T07:03:47.449Z</time></trkpt><trkpt lat="44.89996" lon="8.2039617"><ele>132.0</ele><time>2026-04-12T07:03:49.448Z</time></trkpt><trkpt lat="44.8999583" lon="8.2038183"><ele>132.16666666666666</ele><time>2026-04-12T07:03:51.448Z</time></trkpt><trkpt lat="44.8999717" lon="8.2036883"><ele>132.33333333333334</ele><time>2026-04-12T07:03:53.448Z</time></trkpt><trkpt lat="44.89996" lon="8.203565"><ele>132.5</ele><time>2026-04-12T07:03:55.448Z</time></trkpt><trkpt lat="44.899935" lon="8.2034467"><ele>132.66666666666669</ele><time>2026-04-12T07:03:57.448Z</time></trkpt><trkpt lat="44.8999067" lon="8.2033467"><ele>132.83333333333334</ele><time>2026-04-12T07:03:59.448Z</time></trkpt><trkpt lat="44.8998817" lon="8.2032533"><ele>133.0</ele><time>2026-04-12T07:04:01.448Z</time></trkpt><trkpt lat="44.8998667" lon="8.2031483"><ele>133.0</ele><time>2026-04-12T07:04:03.448Z</time></trkpt><trkpt lat="44.8998433" lon="8.2030433"><ele>133.0</ele><time>2026-04-12T07:04:05.448Z</time></trkpt><trkpt lat="44.8998183" lon="8.2029133"><ele>133.0</ele><time>2026-04-12T07:04:07.449Z</time></trkpt><trkpt lat="44.8997967" lon="8.202775"><ele>133.0</ele><time>2026-04-12T07:04:09.448Z</time></trkpt><trkpt lat="44.89979" lon="8.2026467"><ele>133.0</ele><time>2026-04-12T07:04:11.448Z</time></trkpt><trkpt lat="44.8998" lon="8.202535"><ele>133.0</ele><time>2026-04-12T07:04:13.448Z</time></trkpt><trkpt lat="44.8997833" lon="8.2024133"><ele>133.6</ele><time>2026-04-12T07:04:15.448Z</time></trkpt><trkpt lat="44.899755" lon="8.2022783"><ele>134.20000000000002</ele><time>2026-04-12T07:04:17.448Z</time></trkpt><trkpt lat="44.8997367" lon="8.2021433"><ele>134.8</ele><time>2026-04-12T07:04:19.448Z</time></trkpt><trkpt lat="44.8997067" lon="8.2020133"><ele>135.4</ele><time>2026-04-12T07:04:21.448Z</time></trkpt><trkpt lat="44.89966" lon="8.20188"><ele>136.0</ele><time>2026-04-12T07:04:23.448Z</time></trkpt><trkpt lat="44.8996233" lon="8.20176"><ele>136.0</ele><time>2026-04-12T07:04:25.448Z</time></trkpt><trkpt lat="44.89959" lon="8.20166"><ele>136.0</ele><time>2026-04-12T07:04:27.448Z</time></trkpt><trkpt lat="44.8995667" lon="8.20155"><ele>136.0</ele><time>2026-04-12T07:04:29.448Z</time></trkpt><trkpt lat="44.89954" lon="8.20143"><ele>136.0</ele><time>2026-04-12T07:04:31.448Z</time></trkpt><trkpt lat="44.8995217" lon="8.2013083"><ele>136.0</ele><time>2026-04-12T07:04:33.448Z</time></trkpt><trkpt lat="44.8995017" lon="8.2012033"><ele>136.0</ele><time>2026-04-12T07:04:35.448Z</time></trkpt><trkpt lat="44.8994767" lon="8.2010983"><ele>136.6</ele><time>2026-04-12T07:04:37.448Z</time></trkpt><trkpt lat="44.89946" lon="8.200975"><ele>137.2</ele><time>2026-04-12T07:04:39.448Z</time></trkpt><trkpt lat="44.899445" lon="8.200845"><ele>137.8</ele><time>2026-04-12T07:04:41.448Z</time></trkpt><trkpt lat="44.8994367" lon="8.2007317"><ele>138.4</ele><time>2026-04-12T07:04:43.448Z</time></trkpt><trkpt lat="44.89942" lon="8.2006083"><ele>139.0</ele><time>2026-04-12T07:04:45.448Z</time></trkpt><trkpt lat="44.8994" lon="8.2004633"><ele>139.0</ele><time>2026-04-12T07:04:47.448Z</time></trkpt><trkpt lat="44.899375" lon="8.2003017"><ele>139.0</ele><time>2026-04-12T07:04:49.448Z</time></trkpt><trkpt lat="44.89936" lon="8.2001483"><ele>139.0</ele><time>2026-04-12T07:04:51.448Z</time></trkpt><trkpt lat="44.8993517" lon="8.2000167"><ele>139.0</ele><time>2026-04-12T07:04:53.448Z</time></trkpt><trkpt lat="44.8993333" lon="8.1998767"><ele>139.0</ele><time>2026-04-12T07:04:55.448Z</time></trkpt><trkpt lat="44.899305" lon="8.199755"><ele>139.2</ele><time>2026-04-12T07:04:57.448Z</time></trkpt><trkpt lat="44.8992717" lon="8.199615"><ele>139.4</ele><time>2026-04-12T07:04:59.448Z</time></trkpt><trkpt lat="44.8992683" lon="8.199495"><ele>139.6</ele><time>2026-04-12T07:05:01.448Z</time></trkpt><trkpt lat="44.8992017" lon="8.1995883"><ele>139.8</ele><time>2026-04-12T07:05:10.448Z</time></trkpt><trkpt lat="44.8991433" lon="8.19969"><ele>140.0</ele><time>2026-04-12T07:05:12.448Z</time></trkpt><trkpt lat="44.8990533" lon="8.1998083"><ele>140.0</ele><time>2026-04-12T07:05:14.448Z</time></trkpt><trkpt lat="44.898935" lon="8.1998567"><ele>140.0</ele><time>2026-04-12T07:05:16.448Z</time></trkpt><trkpt lat="44.898865" lon="8.19987"><ele>140.0</ele><time>2026-04-12T07:05:17.448Z</time></trkpt><trkpt lat="44.8987417" lon="8.1998833"><ele>140.0</ele><time>2026-04-12T07:05:19.448Z</time></trkpt><trkpt lat="44.8986583" lon="8.199905"><ele>140.0</ele><time>2026-04-12T07:05:20.448Z</time></trkpt><trkpt lat="44.8985517" lon="8.1999133"><ele>140.0</ele><time>2026-04-12T07:05:21.448Z</time></trkpt><trkpt lat="44.89849" lon="8.1999583"><ele>140.0</ele><time>2026-04-12T07:05:23.448Z</time></trkpt><trkpt lat="44.8984817" lon="8.2000883"><ele>140.0</ele><time>2026-04-12T07:05:25.448Z</time></trkpt><trkpt lat="44.8984883" lon="8.2002417"><ele>140.0</ele><time>2026-04-12T07:05:27.449Z</time></trkpt><trkpt lat="44.8985117" lon="8.2003883"><ele>140.0</ele><time>2026-04-12T07:05:29.448Z</time></trkpt><trkpt lat="44.89855" lon="8.2005483"><ele>139.6</ele><time>2026-04-12T07:05:31.448Z</time></trkpt><trkpt lat="44.89859" lon="8.200705"><ele>139.2</ele><time>2026-04-12T07:05:33.448Z</time></trkpt><trkpt lat="44.8986383" lon="8.2008533"><ele>138.8</ele><time>2026-04-12T07:05:35.449Z</time></trkpt><trkpt lat="44.8986667" lon="8.2009583"><ele>138.4</ele><time>2026-04-12T07:05:36.448Z</time></trkpt><trkpt lat="44.89869" lon="8.2010517"><ele>138.0</ele><time>2026-04-12T07:05:37.448Z</time></trkpt><trkpt lat="44.8987267" lon="8.20117"><ele>138.0</ele><time>2026-04-12T07:05:38.448Z</time></trkpt><trkpt lat="44.8987533" lon="8.2012767"><ele>138.0</ele><time>2026-04-12T07:05:39.448Z</time></trkpt><trkpt lat="44.898775" lon="8.2013917"><ele>138.0</ele><time>2026-04-12T07:05:40.448Z</time></trkpt><trkpt lat="44.8988" lon="8.2014883"><ele>138.0</ele><time>2026-04-12T07:05:41.448Z</time></trkpt><trkpt lat="44.8988167" lon="8.2016583"><ele>138.0</ele><time>2026-04-12T07:05:43.448Z</time></trkpt><trkpt lat="44.89884" lon="8.201815"><ele>137.5</ele><time>2026-04-12T07:05:45.448Z</time></trkpt><trkpt lat="44.8988683" lon="8.2019167"><ele>137.0</ele><time>2026-04-12T07:05:47.448Z</time></trkpt><trkpt lat="44.8988367" lon="8.2020033"><ele>136.5</ele><time>2026-04-12T07:05:51.448Z</time></trkpt><trkpt lat="44.8987717" lon="8.2020217"><ele>136.0</ele><time>2026-04-12T07:05:54.448Z</time></trkpt><trkpt lat="44.898705" lon="8.2020583"><ele>135.5</ele><time>2026-04-12T07:05:58.448Z</time></trkpt><trkpt lat="44.898615" lon="8.2021117"><ele>135.0</ele><time>2026-04-12T07:06:00.448Z</time></trkpt><trkpt lat="44.8985283" lon="8.2022033"><ele>135.0</ele><time>2026-04-12T07:06:02.448Z</time></trkpt><trkpt lat="44.8984383" lon="8.2022567"><ele>135.0</ele><time>2026-04-12T07:06:04.448Z</time></trkpt><trkpt lat="44.89836" lon="8.2022933"><ele>135.0</ele><time>2026-04-12T07:06:06.448Z</time></trkpt><trkpt lat="44.898295" lon="8.2022967"><ele>135.0</ele><time>2026-04-12T07:06:07.448Z</time></trkpt><trkpt lat="44.8981983" lon="8.2023267"><ele>135.0</ele><time>2026-04-12T07:06:09.448Z</time></trkpt><trkpt lat="44.8980817" lon="8.2023817"><ele>134.33333333333334</ele><time>2026-04-12T07:06:11.448Z</time></trkpt><trkpt lat="44.898005" lon="8.2023933"><ele>133.66666666666666</ele><time>2026-04-12T07:06:12.448Z</time></trkpt><trkpt lat="44.89794" lon="8.20241"><ele>133.0</ele><time>2026-04-12T07:06:13.448Z</time></trkpt><trkpt lat="44.8978583" lon="8.2024333"><ele>132.33333333333331</ele><time>2026-04-12T07:06:14.448Z</time></trkpt><trkpt lat="44.8977933" lon="8.2024517"><ele>131.66666666666666</ele><time>2026-04-12T07:06:15.449Z</time></trkpt><trkpt lat="44.8977233" lon="8.2024883"><ele>131.0</ele><time>2026-04-12T07:06:16.448Z</time></trkpt><trkpt lat="44.8976133" lon="8.2024983"><ele>131.0</ele><time>2026-04-12T07:06:18.448Z</time></trkpt><trkpt lat="44.8975317" lon="8.2025133"><ele>131.0</ele><time>2026-04-12T07:06:20.448Z</time></trkpt><trkpt lat="44.89745" lon="8.2025217"><ele>131.0</ele><time>2026-04-12T07:06:22.448Z</time></trkpt><trkpt lat="44.897485" lon="8.20268"><ele>131.0</ele><time>2026-04-12T07:06:25.448Z</time></trkpt><trkpt lat="44.89756" lon="8.2028067"><ele>131.0</ele><time>2026-04-12T07:06:27.448Z</time></trkpt><trkpt lat="44.897635" lon="8.2029333"><ele>131.0</ele><time>2026-04-12T07:06:29.448Z</time></trkpt><trkpt lat="44.89769" lon="8.2030017"><ele>131.0</ele><time>2026-04-12T07:06:30.448Z</time></trkpt><trkpt lat="44.897765" lon="8.2030883"><ele>131.0</ele><time>2026-04-12T07:06:32.448Z</time></trkpt><trkpt lat="44.8978183" lon="8.20315"><ele>131.0</ele><time>2026-04-12T07:06:34.448Z</time></trkpt><trkpt lat="44.8978583" lon="8.20324"><ele>131.0</ele><time>2026-04-12T07:06:36.448Z</time></trkpt><trkpt lat="44.897905" lon="8.2033033"><ele>131.0</ele><time>2026-04-12T07:06:38.448Z</time></trkpt><trkpt lat="44.8979583" lon="8.20337"><ele>131.0</ele><time>2026-04-12T07:06:40.448Z</time></trkpt><trkpt lat="44.8980517" lon="8.2033783"><ele>131.0</ele><time>2026-04-12T07:06:42.448Z</time></trkpt><trkpt lat="44.898095" lon="8.2034483"><ele>131.0</ele><time>2026-04-12T07:06:43.448Z</time></trkpt><trkpt lat="44.8981783" lon="8.2035"><ele>131.0</ele><time>2026-04-12T07:06:45.448Z</time></trkpt><trkpt lat="44.8982433" lon="8.2034983"><ele>131.0</ele><time>2026-04-12T07:06:47.448Z</time></trkpt><trkpt lat="44.8983183" lon="8.2037133"><ele>131.0</ele><time>2026-04-12T07:06:50.448Z</time></trkpt><trkpt lat="44.89834" lon="8.2037983"><ele>131.0</ele><time>2026-04-12T07:06:51.448Z</time></trkpt><trkpt lat="44.8983533" lon="8.2039033"><ele>131.0</ele><time>2026-04-12T07:06:54.448Z</time></trkpt><trkpt lat="44.898305" lon="8.204005"><ele>131.0</ele><time>2026-04-12T07:06:57.448Z</time></trkpt><trkpt lat="44.898265" lon="8.20408"><ele>131.0</ele><time>2026-04-12T07:07:00.448Z</time></trkpt><trkpt lat="44.898255" lon="8.20419"><ele>131.0</ele><time>2026-04-12T07:07:04.448Z</time></trkpt><trkpt lat="44.898265" lon="8.20428"><ele>131.0</ele><time>2026-04-12T07:07:06.448Z</time></trkpt><trkpt lat="44.8982783" lon="8.204375"><ele>130.66666666666666</ele><time>2026-04-12T07:07:08.448Z</time></trkpt><trkpt lat="44.89827" lon="8.2044933"><ele>130.33333333333331</ele><time>2026-04-12T07:07:11.448Z</time></trkpt><trkpt lat="44.898215" lon="8.2045833"><ele>130.0</ele><time>2026-04-12T07:07:13.448Z</time></trkpt><trkpt lat="44.8981367" lon="8.204645"><ele>129.66666666666666</ele><time>2026-04-12T07:07:15.448Z</time></trkpt><trkpt lat="44.8980733" lon="8.2046917"><ele>129.33333333333334</ele><time>2026-04-12T07:07:17.448Z</time></trkpt><trkpt lat="44.8979933" lon="8.2047283"><ele>129.0</ele><time>2026-04-12T07:07:20.448Z</time></trkpt><trkpt lat="44.8979517" lon="8.2048033"><ele>129.0</ele><time>2026-04-12T07:07:23.448Z</time></trkpt><trkpt lat="44.8980267" lon="8.2047517"><ele>129.0</ele><time>2026-04-12T07:07:36.448Z</time></trkpt><trkpt lat="44.8980883" lon="8.2046767"><ele>129.0</ele><time>2026-04-12T07:07:39.448Z</time></trkpt><trkpt lat="44.898165" lon="8.2046933"><ele>129.0</ele><time>2026-04-12T07:07:44.448Z</time></trkpt><trkpt lat="44.8982317" lon="8.2047067"><ele>129.0</ele><time>2026-04-12T07:07:47.448Z</time></trkpt><trkpt lat="44.8982967" lon="8.2048167"><ele>129.0</ele><time>2026-04-12T07:07:54.448Z</time></trkpt><trkpt lat="44.8983217" lon="8.2049667"><ele>128.2</ele><time>2026-04-12T07:07:56.448Z</time></trkpt><trkpt lat="44.8983417" lon="8.205165"><ele>127.4</ele><time>2026-04-12T07:07:58.448Z</time></trkpt><trkpt lat="44.8983517" lon="8.205255"><ele>126.6</ele><time>2026-04-12T07:07:59.448Z</time></trkpt><trkpt lat="44.8983533" lon="8.2053717"><ele>125.8</ele><time>2026-04-12T07:08:01.448Z</time></trkpt><trkpt lat="44.8983633" lon="8.205475"><ele>125.0</ele><time>2026-04-12T07:08:03.448Z</time></trkpt><trkpt lat="44.8983933" lon="8.2055917"><ele>124.83333333333333</ele><time>2026-04-12T07:08:05.448Z</time></trkpt><trkpt lat="44.8984167" lon="8.20572"><ele>124.66666666666666</ele><time>2026-04-12T07:08:07.448Z</time></trkpt><trkpt lat="44.89842" lon="8.2058233"><ele>124.5</ele><time>2026-04-12T07:08:09.448Z</time></trkpt><trkpt lat="44.898425" lon="8.2059283"><ele>124.33333333333334</ele><time>2026-04-12T07:08:12.448Z</time></trkpt><trkpt lat="44.8983633" lon="8.2060517"><ele>124.16666666666667</ele><time>2026-04-12T07:08:15.449Z</time></trkpt><trkpt lat="44.898285" lon="8.206135"><ele>124.0</ele><time>2026-04-12T07:08:17.448Z</time></trkpt><trkpt lat="44.8982167" lon="8.2062133"><ele>124.0</ele><time>2026-04-12T07:08:19.448Z</time></trkpt><trkpt lat="44.8981483" lon="8.2062733"><ele>124.0</ele><time>2026-04-12T07:08:21.449Z</time></trkpt><trkpt lat="44.8980933" lon="8.20637"><ele>124.0</ele><time>2026-04-12T07:08:23.448Z</time></trkpt><trkpt lat="44.8981083" lon="8.2064817"><ele>124.0</ele><time>2026-04-12T07:08:25.448Z</time></trkpt><trkpt lat="44.8981617" lon="8.2066117"><ele>124.0</ele><time>2026-04-12T07:08:27.448Z</time></trkpt><trkpt lat="44.8982117" lon="8.20675"><ele>123.80000000000001</ele><time>2026-04-12T07:08:29.448Z</time></trkpt><trkpt lat="44.8982617" lon="8.2068917"><ele>123.60000000000001</ele><time>2026-04-12T07:08:31.448Z</time></trkpt><trkpt lat="44.8983183" lon="8.20704"><ele>123.4</ele><time>2026-04-12T07:08:33.448Z</time></trkpt><trkpt lat="44.8983717" lon="8.20717"><ele>123.2</ele><time>2026-04-12T07:08:35.448Z</time></trkpt><trkpt lat="44.898415" lon="8.2072683"><ele>123.0</ele><time>2026-04-12T07:08:37.448Z</time></trkpt><trkpt lat="44.8984617" lon="8.2073533"><ele>123.0</ele><time>2026-04-12T07:08:39.448Z</time></trkpt><trkpt lat="44.898515" lon="8.2074433"><ele>123.00000000000001</ele><time>2026-04-12T07:08:41.448Z</time></trkpt><trkpt lat="44.8985683" lon="8.2075583"><ele>123.00000000000001</ele><time>2026-04-12T07:08:43.448Z</time></trkpt><trkpt lat="44.89859" lon="8.2076883"><ele>123.0</ele><time>2026-04-12T07:08:45.448Z</time></trkpt><trkpt lat="44.8985783" lon="8.2078067"><ele>123.0</ele><time>2026-04-12T07:08:47.448Z</time></trkpt><trkpt lat="44.898515" lon="8.2078967"><ele>123.0</ele><time>2026-04-12T07:08:50.448Z</time></trkpt><trkpt lat="44.8984217" lon="8.2078883"><ele>123.0</ele><time>2026-04-12T07:08:52.448Z</time></trkpt><trkpt lat="44.8983517" lon="8.2078117"><ele>123.0</ele><time>2026-04-12T07:08:54.448Z</time></trkpt><trkpt lat="44.8982933" lon="8.2077133"><ele>123.0</ele><time>2026-04-12T07:08:56.448Z</time></trkpt><trkpt lat="44.89825" lon="8.2076283"><ele>123.0</ele><time>2026-04-12T07:08:58.448Z</time></trkpt><trkpt lat="44.8982067" lon="8.2075367"><ele>123.0</ele><time>2026-04-12T07:09:00.448Z</time></trkpt><trkpt lat="44.8981583" lon="8.2074767"><ele>123.0</ele><time>2026-04-12T07:09:03.448Z</time></trkpt><trkpt lat="44.8981367" lon="8.2073833"><ele>123.00000000000001</ele><time>2026-04-12T07:09:05.448Z</time></trkpt><trkpt lat="44.8980733" lon="8.207255"><ele>123.00000000000001</ele><time>2026-04-12T07:09:11.448Z</time></trkpt><trkpt lat="44.8979883" lon="8.20718"><ele>123.0</ele><time>2026-04-12T07:09:15.448Z</time></trkpt><trkpt lat="44.89792" lon="8.2070767"><ele>123.0</ele><time>2026-04-12T07:09:17.448Z</time></trkpt><trkpt lat="44.8978417" lon="8.2069567"><ele>123.0</ele><time>2026-04-12T07:09:19.448Z</time></trkpt><trkpt lat="44.8977883" lon="8.20685"><ele>123.0</ele><time>2026-04-12T07:09:21.448Z</time></trkpt><trkpt lat="44.8977383" lon="8.2067883"><ele>123.0</ele><time>2026-04-12T07:09:23.448Z</time></trkpt><trkpt lat="44.8976583" lon="8.2068267"><ele>123.0</ele><time>2026-04-12T07:09:26.448Z</time></trkpt><trkpt lat="44.89759" lon="8.206895"><ele>123.0</ele><time>2026-04-12T07:09:28.448Z</time></trkpt><trkpt lat="44.897485" lon="8.2069667"><ele>123.0</ele><time>2026-04-12T07:09:30.448Z</time></trkpt><trkpt lat="44.897365" lon="8.207045"><ele>122.71428571428572</ele><time>2026-04-12T07:09:32.449Z</time></trkpt><trkpt lat="44.897305" lon="8.207085"><ele>122.42857142857143</ele><time>2026-04-12T07:09:33.449Z</time></trkpt><trkpt lat="44.8972483" lon="8.2071283"><ele>122.14285714285714</ele><time>2026-04-12T07:09:34.449Z</time></trkpt><trkpt lat="44.897185" lon="8.2071667"><ele>121.85714285714286</ele><time>2026-04-12T07:09:35.449Z</time></trkpt><trkpt lat="44.89712" lon="8.2072133"><ele>121.57142857142856</ele><time>2026-04-12T07:09:36.449Z</time></trkpt><trkpt lat="44.897055" lon="8.2072683"><ele>121.28571428571428</ele><time>2026-04-12T07:09:37.449Z</time></trkpt><trkpt lat="44.8969933" lon="8.20732"><ele>121.0</ele><time>2026-04-12T07:09:38.449Z</time></trkpt><trkpt lat="44.8968917" lon="8.2073933"><ele>121.0</ele><time>2026-04-12T07:09:40.449Z</time></trkpt><trkpt lat="44.8967783" lon="8.2074717"><ele>121.0</ele><time>2026-04-12T07:09:42.449Z</time></trkpt><trkpt lat="44.8967133" lon="8.207505"><ele>121.0</ele><time>2026-04-12T07:09:43.449Z</time></trkpt><trkpt lat="44.8966433" lon="8.2075517"><ele>121.0</ele><time>2026-04-12T07:09:44.449Z</time></trkpt><trkpt lat="44.8965733" lon="8.2075733"><ele>121.0</ele><time>2026-04-12T07:09:45.45Z</time></trkpt><trkpt lat="44.8964317" lon="8.2075433"><ele>121.00000000000001</ele><time>2026-04-12T07:09:46.449Z</time></trkpt><trkpt lat="44.8963233" lon="8.2075917"><ele>121.0</ele><time>2026-04-12T07:09:48.449Z</time></trkpt><trkpt lat="44.89625" lon="8.2077417"><ele>121.0</ele><time>2026-04-12T07:09:50.449Z</time></trkpt><trkpt lat="44.8962433" lon="8.2078317"><ele>121.0</ele><time>2026-04-12T07:09:51.449Z</time></trkpt><trkpt lat="44.896245" lon="8.2079267"><ele>121.00000000000001</ele><time>2026-04-12T07:09:52.449Z</time></trkpt><trkpt lat="44.8962533" lon="8.2080217"><ele>121.0</ele><time>2026-04-12T07:09:53.45Z</time></trkpt><trkpt lat="44.8962683" lon="8.2081083"><ele>120.19999999999999</ele><time>2026-04-12T07:09:54.449Z</time></trkpt><trkpt lat="44.896285" lon="8.208195"><ele>119.39999999999999</ele><time>2026-04-12T07:09:55.449Z</time></trkpt><trkpt lat="44.8962983" lon="8.208285"><ele>118.6</ele><time>2026-04-12T07:09:56.449Z</time></trkpt><trkpt lat="44.8963267" lon="8.2084517"><ele>117.8</ele><time>2026-04-12T07:09:58.449Z</time></trkpt><trkpt lat="44.8963433" lon="8.20862"><ele>117.0</ele><time>2026-04-12T07:10:00.449Z</time></trkpt><trkpt lat="44.89636" lon="8.2087833"><ele>117.0</ele><time>2026-04-12T07:10:02.449Z</time></trkpt><trkpt lat="44.8963717" lon="8.20894"><ele>116.99999999999999</ele><time>2026-04-12T07:10:04.449Z</time></trkpt><trkpt lat="44.896395" lon="8.2090967"><ele>116.99999999999999</ele><time>2026-04-12T07:10:06.449Z</time></trkpt><trkpt lat="44.8963983" lon="8.209235"><ele>117.0</ele><time>2026-04-12T07:10:08.449Z</time></trkpt><trkpt lat="44.89635" lon="8.2093333"><ele>117.0</ele><time>2026-04-12T07:10:10.449Z</time></trkpt><trkpt lat="44.896235" lon="8.2093833"><ele>117.0</ele><time>2026-04-12T07:10:13.449Z</time></trkpt><trkpt lat="44.8961533" lon="8.2094183"><ele>116.99999999999999</ele><time>2026-04-12T07:10:16.449Z</time></trkpt><trkpt lat="44.896075" lon="8.2094433"><ele>116.99999999999999</ele><time>2026-04-12T07:10:18.449Z</time></trkpt><trkpt lat="44.89598" lon="8.2094717"><ele>117.0</ele><time>2026-04-12T07:10:20.449Z</time></trkpt><trkpt lat="44.8958867" lon="8.2095083"><ele>117.0</ele><time>2026-04-12T07:10:22.449Z</time></trkpt><trkpt lat="44.8957983" lon="8.209545"><ele>117.6</ele><time>2026-04-12T07:10:24.449Z</time></trkpt><trkpt lat="44.8956967" lon="8.2095683"><ele>118.19999999999999</ele><time>2026-04-12T07:10:26.449Z</time></trkpt><trkpt lat="44.8955767" lon="8.2095933"><ele>118.8</ele><time>2026-04-12T07:10:28.449Z</time></trkpt><trkpt lat="44.8954667" lon="8.209615"><ele>119.4</ele><time>2026-04-12T07:10:30.449Z</time></trkpt><trkpt lat="44.8953533" lon="8.2096317"><ele>120.0</ele><time>2026-04-12T07:10:32.449Z</time></trkpt><trkpt lat="44.89524" lon="8.2096617"><ele>120.0</ele><time>2026-04-12T07:10:34.449Z</time></trkpt><trkpt lat="44.8951283" lon="8.2096817"><ele>120.0</ele><time>2026-04-12T07:10:36.449Z</time></trkpt><trkpt lat="44.8950167" lon="8.2097083"><ele>120.0</ele><time>2026-04-12T07:10:38.449Z</time></trkpt><trkpt lat="44.89489" lon="8.2097417"><ele>120.0</ele><time>2026-04-12T07:10:40.449Z</time></trkpt><trkpt lat="44.8948217" lon="8.2097617"><ele>120.0</ele><time>2026-04-12T07:10:41.449Z</time></trkpt><trkpt lat="44.894755" lon="8.20978"><ele>119.85714285714286</ele><time>2026-04-12T07:10:42.449Z</time></trkpt><trkpt lat="44.8946883" lon="8.20979"><ele>119.71428571428571</ele><time>2026-04-12T07:10:43.449Z</time></trkpt><trkpt lat="44.8946133" lon="8.20981"><ele>119.57142857142857</ele><time>2026-04-12T07:10:44.449Z</time></trkpt><trkpt lat="44.89454" lon="8.2098317"><ele>119.42857142857143</ele><time>2026-04-12T07:10:45.449Z</time></trkpt><trkpt lat="44.8944667" lon="8.20984"><ele>119.28571428571428</ele><time>2026-04-12T07:10:46.449Z</time></trkpt><trkpt lat="44.8943867" lon="8.2098583"><ele>119.14285714285714</ele><time>2026-04-12T07:10:47.449Z</time></trkpt><trkpt lat="44.894315" lon="8.2098833"><ele>119.0</ele><time>2026-04-12T07:10:48.449Z</time></trkpt><trkpt lat="44.89424" lon="8.2099067"><ele>119.0</ele><time>2026-04-12T07:10:49.449Z</time></trkpt><trkpt lat="44.894165" lon="8.2099233"><ele>119.0</ele><time>2026-04-12T07:10:50.449Z</time></trkpt><trkpt lat="44.894095" lon="8.2099367"><ele>119.0</ele><time>2026-04-12T07:10:51.45Z</time></trkpt><trkpt lat="44.8940167" lon="8.209955"><ele>119.0</ele><time>2026-04-12T07:10:52.449Z</time></trkpt><trkpt lat="44.89395" lon="8.209975"><ele>119.0</ele><time>2026-04-12T07:10:53.449Z</time></trkpt><trkpt lat="44.8938817" lon="8.2099967"><ele>119.0</ele><time>2026-04-12T07:10:54.449Z</time></trkpt><trkpt lat="44.8938083" lon="8.210025"><ele>119.0</ele><time>2026-04-12T07:10:55.449Z</time></trkpt><trkpt lat="44.8937383" lon="8.2100517"><ele>118.99999999999999</ele><time>2026-04-12T07:10:56.449Z</time></trkpt><trkpt lat="44.8936633" lon="8.21008"><ele>119.0</ele><time>2026-04-12T07:10:57.449Z</time></trkpt><trkpt lat="44.89359" lon="8.210105"><ele>119.0</ele><time>2026-04-12T07:10:58.449Z</time></trkpt><trkpt lat="44.8935083" lon="8.2101217"><ele>119.0</ele><time>2026-04-12T07:10:59.449Z</time></trkpt><trkpt lat="44.8934367" lon="8.2101433"><ele>118.99999999999999</ele><time>2026-04-12T07:11:00.449Z</time></trkpt><trkpt lat="44.8933617" lon="8.2101317"><ele>119.0</ele><time>2026-04-12T07:11:01.449Z</time></trkpt><trkpt lat="44.89329" lon="8.21016"><ele>119.16666666666666</ele><time>2026-04-12T07:11:02.449Z</time></trkpt><trkpt lat="44.893225" lon="8.2101733"><ele>119.33333333333333</ele><time>2026-04-12T07:11:03.449Z</time></trkpt><trkpt lat="44.893145" lon="8.2101917"><ele>119.5</ele><time>2026-04-12T07:11:04.449Z</time></trkpt><trkpt lat="44.8930667" lon="8.21021"><ele>119.66666666666666</ele><time>2026-04-12T07:11:05.449Z</time></trkpt><trkpt lat="44.8929967" lon="8.2102267"><ele>119.83333333333333</ele><time>2026-04-12T07:11:06.449Z</time></trkpt><trkpt lat="44.8928867" lon="8.2102717"><ele>120.0</ele><time>2026-04-12T07:11:08.449Z</time></trkpt><trkpt lat="44.8928217" lon="8.210295"><ele>120.0</ele><time>2026-04-12T07:11:09.449Z</time></trkpt><trkpt lat="44.8927517" lon="8.2103133"><ele>120.0</ele><time>2026-04-12T07:11:10.449Z</time></trkpt><trkpt lat="44.8926733" lon="8.2103317"><ele>120.0</ele><time>2026-04-12T07:11:11.449Z</time></trkpt><trkpt lat="44.8926033" lon="8.2103483"><ele>120.0</ele><time>2026-04-12T07:11:12.449Z</time></trkpt><trkpt lat="44.892525" lon="8.210375"><ele>120.0</ele><time>2026-04-12T07:11:13.45Z</time></trkpt><trkpt lat="44.89244" lon="8.2103767"><ele>120.0</ele><time>2026-04-12T07:11:14.449Z</time></trkpt><trkpt lat="44.8923683" lon="8.2103917"><ele>119.83333333333333</ele><time>2026-04-12T07:11:15.449Z</time></trkpt><trkpt lat="44.8923" lon="8.2103917"><ele>119.66666666666666</ele><time>2026-04-12T07:11:16.449Z</time></trkpt><trkpt lat="44.892225" lon="8.2103667"><ele>119.5</ele><time>2026-04-12T07:11:17.45Z</time></trkpt><trkpt lat="44.8921033" lon="8.2104033"><ele>119.33333333333333</ele><time>2026-04-12T07:11:19.45Z</time></trkpt><trkpt lat="44.89204" lon="8.2104383"><ele>119.16666666666666</ele><time>2026-04-12T07:11:20.449Z</time></trkpt><trkpt lat="44.891975" lon="8.21047"><ele>119.0</ele><time>2026-04-12T07:11:21.449Z</time></trkpt><trkpt lat="44.891855" lon="8.2105167"><ele>118.66666666666666</ele><time>2026-04-12T07:11:23.449Z</time></trkpt><trkpt lat="44.891725" lon="8.2105483"><ele>118.33333333333333</ele><time>2026-04-12T07:11:25.449Z</time></trkpt><trkpt lat="44.8916517" lon="8.21055"><ele>118.0</ele><time>2026-04-12T07:11:26.449Z</time></trkpt><trkpt lat="44.8915833" lon="8.2105667"><ele>117.66666666666666</ele><time>2026-04-12T07:11:27.449Z</time></trkpt><trkpt lat="44.8915133" lon="8.2105867"><ele>117.33333333333333</ele><time>2026-04-12T07:11:28.449Z</time></trkpt><trkpt lat="44.8914367" lon="8.2106083"><ele>117.0</ele><time>2026-04-12T07:11:29.449Z</time></trkpt><trkpt lat="44.8913633" lon="8.21063"><ele>117.0</ele><time>2026-04-12T07:11:30.449Z</time></trkpt><trkpt lat="44.891295" lon="8.210645"><ele>116.99999999999999</ele><time>2026-04-12T07:11:31.449Z</time></trkpt><trkpt lat="44.8912217" lon="8.21066"><ele>116.99999999999999</ele><time>2026-04-12T07:11:32.449Z</time></trkpt><trkpt lat="44.89115" lon="8.2106783"><ele>117.0</ele><time>2026-04-12T07:11:33.449Z</time></trkpt><trkpt lat="44.891035" lon="8.2107167"><ele>117.0</ele><time>2026-04-12T07:11:35.449Z</time></trkpt><trkpt lat="44.8908967" lon="8.2107483"><ele>117.39999999999999</ele><time>2026-04-12T07:11:37.449Z</time></trkpt><trkpt lat="44.8907867" lon="8.2107517"><ele>117.79999999999998</ele><time>2026-04-12T07:11:38.449Z</time></trkpt><trkpt lat="44.89069" lon="8.2107617"><ele>118.2</ele><time>2026-04-12T07:11:39.449Z</time></trkpt><trkpt lat="44.890615" lon="8.2107833"><ele>118.6</ele><time>2026-04-12T07:11:40.449Z</time></trkpt><trkpt lat="44.8904983" lon="8.2108367"><ele>119.0</ele><time>2026-04-12T07:11:42.449Z</time></trkpt><trkpt lat="44.89043" lon="8.210855"><ele>119.0</ele><time>2026-04-12T07:11:43.449Z</time></trkpt><trkpt lat="44.890365" lon="8.2108733"><ele>119.0</ele><time>2026-04-12T07:11:44.449Z</time></trkpt><trkpt lat="44.8902883" lon="8.2108883"><ele>119.0</ele><time>2026-04-12T07:11:45.449Z</time></trkpt><trkpt lat="44.8902183" lon="8.2109067"><ele>119.0</ele><time>2026-04-12T07:11:46.449Z</time></trkpt><trkpt lat="44.8901483" lon="8.2109317"><ele>119.0</ele><time>2026-04-12T07:11:47.449Z</time></trkpt><trkpt lat="44.8900767" lon="8.21095"><ele>119.0</ele><time>2026-04-12T07:11:48.449Z</time></trkpt><trkpt lat="44.889995" lon="8.2109683"><ele>119.0</ele><time>2026-04-12T07:11:49.449Z</time></trkpt><trkpt lat="44.88992" lon="8.2109917"><ele>118.66666666666666</ele><time>2026-04-12T07:11:50.449Z</time></trkpt><trkpt lat="44.8898283" lon="8.2110017"><ele>118.33333333333333</ele><time>2026-04-12T07:11:51.449Z</time></trkpt><trkpt lat="44.88976" lon="8.211025"><ele>118.0</ele><time>2026-04-12T07:11:52.449Z</time></trkpt><trkpt lat="44.8896933" lon="8.211055"><ele>117.66666666666666</ele><time>2026-04-12T07:11:53.449Z</time></trkpt><trkpt lat="44.88957" lon="8.2110933"><ele>117.33333333333333</ele><time>2026-04-12T07:11:55.449Z</time></trkpt><trkpt lat="44.8895" lon="8.211105"><ele>117.0</ele><time>2026-04-12T07:11:56.449Z</time></trkpt><trkpt lat="44.8894217" lon="8.2111233"><ele>117.0</ele><time>2026-04-12T07:11:57.449Z</time></trkpt><trkpt lat="44.8893533" lon="8.2111483"><ele>117.0</ele><time>2026-04-12T07:11:58.449Z</time></trkpt><trkpt lat="44.8892867" lon="8.2111667"><ele>117.0</ele><time>2026-04-12T07:11:59.449Z</time></trkpt><trkpt lat="44.8891567" lon="8.2112033"><ele>117.0</ele><time>2026-04-12T07:12:01.449Z</time></trkpt><trkpt lat="44.8890883" lon="8.21122"><ele>117.0</ele><time>2026-04-12T07:12:02.449Z</time></trkpt><trkpt lat="44.8890217" lon="8.2112367"><ele>117.0</ele><time>2026-04-12T07:12:03.449Z</time></trkpt><trkpt lat="44.888955" lon="8.2112533"><ele>117.0</ele><time>2026-04-12T07:12:04.45Z</time></trkpt><trkpt lat="44.888885" lon="8.2112617"><ele>117.0</ele><time>2026-04-12T07:12:05.449Z</time></trkpt><trkpt lat="44.888815" lon="8.2112683"><ele>117.0</ele><time>2026-04-12T07:12:06.449Z</time></trkpt><trkpt lat="44.8887383" lon="8.2112817"><ele>117.0</ele><time>2026-04-12T07:12:07.449Z</time></trkpt><trkpt lat="44.8886633" lon="8.2112983"><ele>117.0</ele><time>2026-04-12T07:12:08.449Z</time></trkpt><trkpt lat="44.8885917" lon="8.2113117"><ele>117.0</ele><time>2026-04-12T07:12:09.45Z</time></trkpt><trkpt lat="44.88846" lon="8.2113417"><ele>117.33333333333333</ele><time>2026-04-12T07:12:11.449Z</time></trkpt><trkpt lat="44.8883933" lon="8.2113483"><ele>117.66666666666666</ele><time>2026-04-12T07:12:12.449Z</time></trkpt><trkpt lat="44.8882617" lon="8.2113833"><ele>118.0</ele><time>2026-04-12T07:12:14.449Z</time></trkpt><trkpt lat="44.8881967" lon="8.2114083"><ele>118.33333333333333</ele><time>2026-04-12T07:12:15.449Z</time></trkpt><trkpt lat="44.8881283" lon="8.211425"><ele>118.66666666666666</ele><time>2026-04-12T07:12:16.449Z</time></trkpt><trkpt lat="44.8880517" lon="8.2114467"><ele>119.0</ele><time>2026-04-12T07:12:17.449Z</time></trkpt><trkpt lat="44.88799" lon="8.21147"><ele>119.0</ele><time>2026-04-12T07:12:18.449Z</time></trkpt><trkpt lat="44.8878683" lon="8.2115067"><ele>119.0</ele><time>2026-04-12T07:12:20.449Z</time></trkpt><trkpt lat="44.887725" lon="8.2115217"><ele>119.0</ele><time>2026-04-12T07:12:22.449Z</time></trkpt><trkpt lat="44.887615" lon="8.2115333"><ele>119.0</ele><time>2026-04-12T07:12:23.449Z</time></trkpt><trkpt lat="44.88754" lon="8.211545"><ele>118.33333333333333</ele><time>2026-04-12T07:12:24.449Z</time></trkpt><trkpt lat="44.8874183" lon="8.2115717"><ele>117.66666666666666</ele><time>2026-04-12T07:12:26.449Z</time></trkpt><trkpt lat="44.887345" lon="8.2115883"><ele>117.0</ele><time>2026-04-12T07:12:27.449Z</time></trkpt><trkpt lat="44.88728" lon="8.211605"><ele>116.33333333333334</ele><time>2026-04-12T07:12:28.449Z</time></trkpt><trkpt lat="44.8872133" lon="8.2116183"><ele>115.66666666666667</ele><time>2026-04-12T07:12:29.449Z</time></trkpt><trkpt lat="44.8871033" lon="8.2116483"><ele>115.0</ele><time>2026-04-12T07:12:31.449Z</time></trkpt><trkpt lat="44.88701" lon="8.2116217"><ele>115.0</ele><time>2026-04-12T07:12:33.449Z</time></trkpt><trkpt lat="44.8869217" lon="8.21154"><ele>115.0</ele><time>2026-04-12T07:12:35.449Z</time></trkpt><trkpt lat="44.886815" lon="8.211545"><ele>115.0</ele><time>2026-04-12T07:12:37.449Z</time></trkpt><trkpt lat="44.8867333" lon="8.211655"><ele>115.0</ele><time>2026-04-12T07:12:39.449Z</time></trkpt><trkpt lat="44.8866267" lon="8.2117517"><ele>114.99999999999999</ele><time>2026-04-12T07:12:41.45Z</time></trkpt><trkpt lat="44.8865617" lon="8.2117783"><ele>115.0</ele><time>2026-04-12T07:12:42.449Z</time></trkpt><trkpt lat="44.8864967" lon="8.2117983"><ele>114.99999999999999</ele><time>2026-04-12T07:12:43.449Z</time></trkpt><trkpt lat="44.8864283" lon="8.2118117"><ele>114.99999999999999</ele><time>2026-04-12T07:12:44.449Z</time></trkpt><trkpt lat="44.8863617" lon="8.2118233"><ele>115.0</ele><time>2026-04-12T07:12:45.449Z</time></trkpt><trkpt lat="44.8862967" lon="8.2118433"><ele>114.99999999999999</ele><time>2026-04-12T07:12:46.45Z</time></trkpt><trkpt lat="44.88623" lon="8.2118567"><ele>114.99999999999999</ele><time>2026-04-12T07:12:47.449Z</time></trkpt><trkpt lat="44.886165" lon="8.211875"><ele>114.99999999999999</ele><time>2026-04-12T07:12:48.449Z</time></trkpt><trkpt lat="44.8861" lon="8.2118967"><ele>115.0</ele><time>2026-04-12T07:12:49.449Z</time></trkpt><trkpt lat="44.8860383" lon="8.2119233"><ele>114.99999999999999</ele><time>2026-04-12T07:12:50.449Z</time></trkpt><trkpt lat="44.8859767" lon="8.2119417"><ele>114.99999999999999</ele><time>2026-04-12T07:12:51.449Z</time></trkpt><trkpt lat="44.885915" lon="8.2119667"><ele>115.0</ele><time>2026-04-12T07:12:52.449Z</time></trkpt><trkpt lat="44.88585" lon="8.2119883"><ele>114.99999999999999</ele><time>2026-04-12T07:12:53.449Z</time></trkpt><trkpt lat="44.885785" lon="8.2120083"><ele>114.99999999999999</ele><time>2026-04-12T07:12:54.449Z</time></trkpt><trkpt lat="44.88572" lon="8.2120183"><ele>114.7142857142857</ele><time>2026-04-12T07:12:55.449Z</time></trkpt><trkpt lat="44.8856567" lon="8.2120233"><ele>114.42857142857142</ele><time>2026-04-12T07:12:56.449Z</time></trkpt><trkpt lat="44.8855917" lon="8.2120333"><ele>114.14285714285714</ele><time>2026-04-12T07:12:57.449Z</time></trkpt><trkpt lat="44.8855283" lon="8.21204"><ele>113.85714285714285</ele><time>2026-04-12T07:12:58.449Z</time></trkpt><trkpt lat="44.8854617" lon="8.2120517"><ele>113.57142857142856</ele><time>2026-04-12T07:12:59.449Z</time></trkpt><trkpt lat="44.8853967" lon="8.2120617"><ele>113.28571428571429</ele><time>2026-04-12T07:13:00.449Z</time></trkpt><trkpt lat="44.885325" lon="8.2120783"><ele>113.0</ele><time>2026-04-12T07:13:01.449Z</time></trkpt><trkpt lat="44.885255" lon="8.2120967"><ele>113.0</ele><time>2026-04-12T07:13:02.449Z</time></trkpt><trkpt lat="44.8851817" lon="8.212115"><ele>113.0</ele><time>2026-04-12T07:13:03.449Z</time></trkpt><trkpt lat="44.88511" lon="8.21213"><ele>113.0</ele><time>2026-04-12T07:13:04.449Z</time></trkpt><trkpt lat="44.88504" lon="8.2121483"><ele>113.0</ele><time>2026-04-12T07:13:05.449Z</time></trkpt><trkpt lat="44.8849717" lon="8.2121617"><ele>113.0</ele><time>2026-04-12T07:13:06.449Z</time></trkpt><trkpt lat="44.8849067" lon="8.2121783"><ele>113.0</ele><time>2026-04-12T07:13:07.449Z</time></trkpt><trkpt lat="44.8848383" lon="8.2121967"><ele>113.0</ele><time>2026-04-12T07:13:08.449Z</time></trkpt><trkpt lat="44.88477" lon="8.21221"><ele>112.42857142857143</ele><time>2026-04-12T07:13:09.449Z</time></trkpt><trkpt lat="44.8847" lon="8.212225"><ele>111.85714285714285</ele><time>2026-04-12T07:13:10.449Z</time></trkpt><trkpt lat="44.8846333" lon="8.2122483"><ele>111.28571428571428</ele><time>2026-04-12T07:13:11.449Z</time></trkpt><trkpt lat="44.8845667" lon="8.2122683"><ele>110.71428571428572</ele><time>2026-04-12T07:13:12.45Z</time></trkpt><trkpt lat="44.884505" lon="8.2122867"><ele>110.14285714285714</ele><time>2026-04-12T07:13:13.449Z</time></trkpt><trkpt lat="44.8844367" lon="8.212305"><ele>109.57142857142857</ele><time>2026-04-12T07:13:14.449Z</time></trkpt><trkpt lat="44.8843667" lon="8.2123167"><ele>109.0</ele><time>2026-04-12T07:13:15.449Z</time></trkpt><trkpt lat="44.8842983" lon="8.2123317"><ele>109.66666666666667</ele><time>2026-04-12T07:13:16.449Z</time></trkpt><trkpt lat="44.884235" lon="8.212355"><ele>110.33333333333334</ele><time>2026-04-12T07:13:17.45Z</time></trkpt><trkpt lat="44.8841083" lon="8.2124083"><ele>111.0</ele><time>2026-04-12T07:13:19.449Z</time></trkpt><trkpt lat="44.8840417" lon="8.21243"><ele>111.66666666666666</ele><time>2026-04-12T07:13:20.449Z</time></trkpt><trkpt lat="44.8839783" lon="8.2124433"><ele>112.33333333333333</ele><time>2026-04-12T07:13:21.449Z</time></trkpt><trkpt lat="44.8839067" lon="8.2124617"><ele>113.0</ele><time>2026-04-12T07:13:22.449Z</time></trkpt><trkpt lat="44.8838367" lon="8.2124767"><ele>113.0</ele><time>2026-04-12T07:13:23.449Z</time></trkpt><trkpt lat="44.8837717" lon="8.2124967"><ele>113.0</ele><time>2026-04-12T07:13:24.45Z</time></trkpt><trkpt lat="44.8836983" lon="8.2125233"><ele>113.0</ele><time>2026-04-12T07:13:25.449Z</time></trkpt><trkpt lat="44.8836333" lon="8.212555"><ele>113.0</ele><time>2026-04-12T07:13:26.449Z</time></trkpt><trkpt lat="44.88358" lon="8.2126167"><ele>113.0</ele><time>2026-04-12T07:13:27.449Z</time></trkpt><trkpt lat="44.8835417" lon="8.2126983"><ele>113.0</ele><time>2026-04-12T07:13:28.449Z</time></trkpt><trkpt lat="44.8835183" lon="8.2128033"><ele>113.0</ele><time>2026-04-12T07:13:29.449Z</time></trkpt><trkpt lat="44.8835083" lon="8.2129283"><ele>112.99999999999999</ele><time>2026-04-12T07:13:30.449Z</time></trkpt><trkpt lat="44.8835217" lon="8.213055"><ele>113.0</ele><time>2026-04-12T07:13:31.449Z</time></trkpt><trkpt lat="44.8835367" lon="8.2131717"><ele>113.0</ele><time>2026-04-12T07:13:32.449Z</time></trkpt><trkpt lat="44.8835483" lon="8.21329"><ele>113.0</ele><time>2026-04-12T07:13:33.449Z</time></trkpt><trkpt lat="44.8835517" lon="8.21341"><ele>112.99999999999999</ele><time>2026-04-12T07:13:34.449Z</time></trkpt><trkpt lat="44.8835317" lon="8.2135333"><ele>113.0</ele><time>2026-04-12T07:13:35.449Z</time></trkpt><trkpt lat="44.8835117" lon="8.2136517"><ele>113.16666666666666</ele><time>2026-04-12T07:13:36.449Z</time></trkpt><trkpt lat="44.8835" lon="8.21378"><ele>113.33333333333333</ele><time>2026-04-12T07:13:37.449Z</time></trkpt><trkpt lat="44.883485" lon="8.213905"><ele>113.5</ele><time>2026-04-12T07:13:38.449Z</time></trkpt><trkpt lat="44.883475" lon="8.214035"><ele>113.66666666666666</ele><time>2026-04-12T07:13:39.449Z</time></trkpt><trkpt lat="44.883475" lon="8.2141567"><ele>113.83333333333333</ele><time>2026-04-12T07:13:40.45Z</time></trkpt><trkpt lat="44.8834817" lon="8.2142767"><ele>114.0</ele><time>2026-04-12T07:13:41.449Z</time></trkpt><trkpt lat="44.88349" lon="8.21439"><ele>114.0</ele><time>2026-04-12T07:13:42.449Z</time></trkpt><trkpt lat="44.8835" lon="8.214505"><ele>114.0</ele><time>2026-04-12T07:13:43.449Z</time></trkpt><trkpt lat="44.8835133" lon="8.214615"><ele>114.0</ele><time>2026-04-12T07:13:44.449Z</time></trkpt><trkpt lat="44.8835267" lon="8.21473"><ele>114.0</ele><time>2026-04-12T07:13:45.449Z</time></trkpt><trkpt lat="44.883535" lon="8.214845"><ele>114.0</ele><time>2026-04-12T07:13:46.449Z</time></trkpt><trkpt lat="44.8835483" lon="8.21495"><ele>114.0</ele><time>2026-04-12T07:13:47.449Z</time></trkpt><trkpt lat="44.883555" lon="8.215065"><ele>113.83333333333333</ele><time>2026-04-12T07:13:48.449Z</time></trkpt><trkpt lat="44.88355" lon="8.21518"><ele>113.66666666666666</ele><time>2026-04-12T07:13:49.449Z</time></trkpt><trkpt lat="44.8835417" lon="8.21529"><ele>113.5</ele><time>2026-04-12T07:13:50.449Z</time></trkpt><trkpt lat="44.8835283" lon="8.2153967"><ele>113.33333333333333</ele><time>2026-04-12T07:13:51.449Z</time></trkpt><trkpt lat="44.8835117" lon="8.2155017"><ele>113.16666666666666</ele><time>2026-04-12T07:13:52.449Z</time></trkpt><trkpt lat="44.8834917" lon="8.2156167"><ele>113.0</ele><time>2026-04-12T07:13:53.449Z</time></trkpt><trkpt lat="44.8834733" lon="8.2157233"><ele>112.99999999999999</ele><time>2026-04-12T07:13:54.45Z</time></trkpt><trkpt lat="44.8834617" lon="8.2158267"><ele>113.0</ele><time>2026-04-12T07:13:55.449Z</time></trkpt><trkpt lat="44.8834533" lon="8.215925"><ele>113.0</ele><time>2026-04-12T07:13:56.449Z</time></trkpt><trkpt lat="44.883445" lon="8.2160267"><ele>113.0</ele><time>2026-04-12T07:13:57.449Z</time></trkpt><trkpt lat="44.8834367" lon="8.216135"><ele>112.99999999999999</ele><time>2026-04-12T07:13:58.449Z</time></trkpt><trkpt lat="44.8834317" lon="8.21625"><ele>113.0</ele><time>2026-04-12T07:13:59.45Z</time></trkpt><trkpt lat="44.8834283" lon="8.2163567"><ele>113.33333333333333</ele><time>2026-04-12T07:14:00.449Z</time></trkpt><trkpt lat="44.883415" lon="8.2164617"><ele>113.66666666666666</ele><time>2026-04-12T07:14:01.449Z</time></trkpt><trkpt lat="44.8834" lon="8.21657"><ele>114.0</ele><time>2026-04-12T07:14:02.449Z</time></trkpt><trkpt lat="44.8833867" lon="8.2166767"><ele>114.33333333333334</ele><time>2026-04-12T07:14:03.449Z</time></trkpt><trkpt lat="44.8833633" lon="8.2167833"><ele>114.66666666666667</ele><time>2026-04-12T07:14:04.449Z</time></trkpt><trkpt lat="44.8833317" lon="8.216885"><ele>115.0</ele><time>2026-04-12T07:14:05.449Z</time></trkpt><trkpt lat="44.8833033" lon="8.21699"><ele>115.00000000000001</ele><time>2026-04-12T07:14:06.449Z</time></trkpt><trkpt lat="44.88327" lon="8.2170883"><ele>115.0</ele><time>2026-04-12T07:14:07.45Z</time></trkpt><trkpt lat="44.8832333" lon="8.2171883"><ele>115.0</ele><time>2026-04-12T07:14:08.449Z</time></trkpt><trkpt lat="44.883195" lon="8.2172817"><ele>115.0</ele><time>2026-04-12T07:14:09.449Z</time></trkpt><trkpt lat="44.88316" lon="8.217375"><ele>115.00000000000001</ele><time>2026-04-12T07:14:10.449Z</time></trkpt><trkpt lat="44.8831233" lon="8.21747"><ele>115.0</ele><time>2026-04-12T07:14:11.449Z</time></trkpt><trkpt lat="44.8830883" lon="8.217565"><ele>115.00000000000001</ele><time>2026-04-12T07:14:12.449Z</time></trkpt><trkpt lat="44.8830517" lon="8.2176617"><ele>115.0</ele><time>2026-04-12T07:14:13.449Z</time></trkpt><trkpt lat="44.88302" lon="8.2177667"><ele>115.0</ele><time>2026-04-12T07:14:14.449Z</time></trkpt><trkpt lat="44.8829867" lon="8.2178717"><ele>115.0</ele><time>2026-04-12T07:14:15.449Z</time></trkpt><trkpt lat="44.882955" lon="8.2179717"><ele>115.00000000000001</ele><time>2026-04-12T07:14:16.449Z</time></trkpt><trkpt lat="44.8829267" lon="8.2180767"><ele>115.0</ele><time>2026-04-12T07:14:17.449Z</time></trkpt><trkpt lat="44.8828983" lon="8.21818"><ele>115.00000000000001</ele><time>2026-04-12T07:14:18.449Z</time></trkpt><trkpt lat="44.88287" lon="8.2182817"><ele>115.0</ele><time>2026-04-12T07:14:19.449Z</time></trkpt><trkpt lat="44.88284" lon="8.2183833"><ele>115.0</ele><time>2026-04-12T07:14:20.449Z</time></trkpt><trkpt lat="44.8828117" lon="8.21848"><ele>115.0</ele><time>2026-04-12T07:14:21.449Z</time></trkpt><trkpt lat="44.8827817" lon="8.218585"><ele>115.00000000000001</ele><time>2026-04-12T07:14:22.449Z</time></trkpt><trkpt lat="44.88276" lon="8.21869"><ele>115.0</ele><time>2026-04-12T07:14:23.449Z</time></trkpt><trkpt lat="44.8827333" lon="8.2187983"><ele>115.00000000000001</ele><time>2026-04-12T07:14:24.449Z</time></trkpt><trkpt lat="44.882705" lon="8.2188983"><ele>115.0</ele><time>2026-04-12T07:14:25.449Z</time></trkpt><trkpt lat="44.8826733" lon="8.218995"><ele>115.0</ele><time>2026-04-12T07:14:26.449Z</time></trkpt><trkpt lat="44.8826467" lon="8.219095"><ele>115.0</ele><time>2026-04-12T07:14:27.449Z</time></trkpt><trkpt lat="44.8826217" lon="8.219195"><ele>115.00000000000001</ele><time>2026-04-12T07:14:28.449Z</time></trkpt><trkpt lat="44.8825933" lon="8.2192967"><ele>115.0</ele><time>2026-04-12T07:14:29.449Z</time></trkpt><trkpt lat="44.8825583" lon="8.219395"><ele>115.50000000000001</ele><time>2026-04-12T07:14:30.449Z</time></trkpt><trkpt lat="44.882525" lon="8.2194967"><ele>116.0</ele><time>2026-04-12T07:14:31.449Z</time></trkpt><trkpt lat="44.88249" lon="8.2195983"><ele>116.5</ele><time>2026-04-12T07:14:32.449Z</time></trkpt><trkpt lat="44.8824583" lon="8.2196983"><ele>117.0</ele><time>2026-04-12T07:14:33.449Z</time></trkpt><trkpt lat="44.8824283" lon="8.2198083"><ele>117.50000000000001</ele><time>2026-04-12T07:14:34.449Z</time></trkpt><trkpt lat="44.8823967" lon="8.21992"><ele>118.0</ele><time>2026-04-12T07:14:35.449Z</time></trkpt><trkpt lat="44.882365" lon="8.2200267"><ele>118.00000000000001</ele><time>2026-04-12T07:14:36.449Z</time></trkpt><trkpt lat="44.88234" lon="8.220135"><ele>118.0</ele><time>2026-04-12T07:14:37.449Z</time></trkpt><trkpt lat="44.8823267" lon="8.220245"><ele>118.0</ele><time>2026-04-12T07:14:38.449Z</time></trkpt><trkpt lat="44.882325" lon="8.2203533"><ele>118.0</ele><time>2026-04-12T07:14:39.449Z</time></trkpt><trkpt lat="44.8823233" lon="8.2204683"><ele>118.00000000000001</ele><time>2026-04-12T07:14:40.449Z</time></trkpt><trkpt lat="44.8823183" lon="8.2205817"><ele>118.0</ele><time>2026-04-12T07:14:41.449Z</time></trkpt><trkpt lat="44.8823183" lon="8.2206917"><ele>118.00000000000001</ele><time>2026-04-12T07:14:42.449Z</time></trkpt><trkpt lat="44.8823117" lon="8.2208"><ele>118.0</ele><time>2026-04-12T07:14:43.449Z</time></trkpt><trkpt lat="44.8823033" lon="8.2209117"><ele>118.0</ele><time>2026-04-12T07:14:44.449Z</time></trkpt><trkpt lat="44.8822967" lon="8.2210233"><ele>118.0</ele><time>2026-04-12T07:14:45.449Z</time></trkpt><trkpt lat="44.88229" lon="8.2211333"><ele>118.00000000000001</ele><time>2026-04-12T07:14:46.449Z</time></trkpt><trkpt lat="44.8822867" lon="8.2212417"><ele>118.0</ele><time>2026-04-12T07:14:47.449Z</time></trkpt><trkpt lat="44.8822867" lon="8.2213533"><ele>118.00000000000001</ele><time>2026-04-12T07:14:48.449Z</time></trkpt><trkpt lat="44.8822883" lon="8.22146"><ele>118.0</ele><time>2026-04-12T07:14:49.449Z</time></trkpt><trkpt lat="44.8822817" lon="8.2215717"><ele>118.0</ele><time>2026-04-12T07:14:50.449Z</time></trkpt><trkpt lat="44.88228" lon="8.2216817"><ele>118.0</ele><time>2026-04-12T07:14:51.449Z</time></trkpt><trkpt lat="44.8822717" lon="8.2217933"><ele>118.00000000000001</ele><time>2026-04-12T07:14:52.449Z</time></trkpt><trkpt lat="44.8822667" lon="8.2219"><ele>118.0</ele><time>2026-04-12T07:14:53.449Z</time></trkpt><trkpt lat="44.8822617" lon="8.2220067"><ele>117.83333333333334</ele><time>2026-04-12T07:14:54.449Z</time></trkpt><trkpt lat="44.88225" lon="8.2221"><ele>117.66666666666667</ele><time>2026-04-12T07:14:55.449Z</time></trkpt><trkpt lat="44.88224" lon="8.2221983"><ele>117.5</ele><time>2026-04-12T07:14:56.449Z</time></trkpt><trkpt lat="44.8822333" lon="8.2222967"><ele>117.33333333333334</ele><time>2026-04-12T07:14:57.449Z</time></trkpt><trkpt lat="44.8822317" lon="8.2223917"><ele>117.16666666666667</ele><time>2026-04-12T07:14:58.449Z</time></trkpt><trkpt lat="44.8822567" lon="8.2225567"><ele>117.0</ele><time>2026-04-12T07:15:00.449Z</time></trkpt><trkpt lat="44.8823567" lon="8.2226433"><ele>116.8</ele><time>2026-04-12T07:15:02.449Z</time></trkpt><trkpt lat="44.8824783" lon="8.2226517"><ele>116.6</ele><time>2026-04-12T07:15:04.449Z</time></trkpt><trkpt lat="44.8825683" lon="8.22275"><ele>116.39999999999999</ele><time>2026-04-12T07:15:06.449Z</time></trkpt><trkpt lat="44.88258" lon="8.22291"><ele>116.19999999999999</ele><time>2026-04-12T07:15:08.449Z</time></trkpt><trkpt lat="44.882565" lon="8.2230017"><ele>116.0</ele><time>2026-04-12T07:15:09.449Z</time></trkpt><trkpt lat="44.8825517" lon="8.2230967"><ele>116.00000000000001</ele><time>2026-04-12T07:15:10.449Z</time></trkpt><trkpt lat="44.88254" lon="8.2231983"><ele>116.0</ele><time>2026-04-12T07:15:11.449Z</time></trkpt><trkpt lat="44.8825267" lon="8.2233"><ele>116.00000000000001</ele><time>2026-04-12T07:15:12.449Z</time></trkpt><trkpt lat="44.8825167" lon="8.2234067"><ele>116.00000000000001</ele><time>2026-04-12T07:15:13.449Z</time></trkpt><trkpt lat="44.8825017" lon="8.2235"><ele>116.0</ele><time>2026-04-12T07:15:14.449Z</time></trkpt><trkpt lat="44.8824917" lon="8.2235967"><ele>116.00000000000001</ele><time>2026-04-12T07:15:15.449Z</time></trkpt><trkpt lat="44.8824783" lon="8.2236967"><ele>116.00000000000001</ele><time>2026-04-12T07:15:16.449Z</time></trkpt><trkpt lat="44.8824583" lon="8.223795"><ele>116.0</ele><time>2026-04-12T07:15:17.449Z</time></trkpt><trkpt lat="44.8824333" lon="8.2238817"><ele>116.0</ele><time>2026-04-12T07:15:18.449Z</time></trkpt><trkpt lat="44.8824033" lon="8.223975"><ele>116.0</ele><time>2026-04-12T07:15:19.449Z</time></trkpt><trkpt lat="44.8823767" lon="8.2240617"><ele>116.0</ele><time>2026-04-12T07:15:20.449Z</time></trkpt><trkpt lat="44.8823133" lon="8.22422"><ele>116.0</ele><time>2026-04-12T07:15:22.449Z</time></trkpt><trkpt lat="44.88223" lon="8.2243383"><ele>116.0</ele><time>2026-04-12T07:15:24.45Z</time></trkpt><trkpt lat="44.8821533" lon="8.2244683"><ele>116.0</ele><time>2026-04-12T07:15:26.449Z</time></trkpt><trkpt lat="44.8820933" lon="8.22461"><ele>116.0</ele><time>2026-04-12T07:15:28.449Z</time></trkpt><trkpt lat="44.8820283" lon="8.2247517"><ele>116.0</ele><time>2026-04-12T07:15:30.449Z</time></trkpt><trkpt lat="44.88196" lon="8.2248817"><ele>116.19999999999999</ele><time>2026-04-12T07:15:32.45Z</time></trkpt><trkpt lat="44.88188" lon="8.2250233"><ele>116.39999999999999</ele><time>2026-04-12T07:15:34.449Z</time></trkpt><trkpt lat="44.8818017" lon="8.2251583"><ele>116.6</ele><time>2026-04-12T07:15:36.449Z</time></trkpt><trkpt lat="44.881725" lon="8.2253"><ele>116.8</ele><time>2026-04-12T07:15:38.449Z</time></trkpt><trkpt lat="44.8816833" lon="8.2253717"><ele>117.0</ele><time>2026-04-12T07:15:39.449Z</time></trkpt><trkpt lat="44.8816" lon="8.22551"><ele>117.0</ele><time>2026-04-12T07:15:41.449Z</time></trkpt><trkpt lat="44.8815567" lon="8.2255817"><ele>117.0</ele><time>2026-04-12T07:15:42.45Z</time></trkpt><trkpt lat="44.881475" lon="8.2257217"><ele>117.0</ele><time>2026-04-12T07:15:44.449Z</time></trkpt><trkpt lat="44.8814333" lon="8.2257917"><ele>117.0</ele><time>2026-04-12T07:15:45.449Z</time></trkpt><trkpt lat="44.88139" lon="8.2258667"><ele>117.0</ele><time>2026-04-12T07:15:46.449Z</time></trkpt><trkpt lat="44.88135" lon="8.2259483"><ele>117.0</ele><time>2026-04-12T07:15:47.449Z</time></trkpt><trkpt lat="44.8813133" lon="8.2260267"><ele>117.0</ele><time>2026-04-12T07:15:48.449Z</time></trkpt><trkpt lat="44.88126" lon="8.2261983"><ele>117.0</ele><time>2026-04-12T07:15:50.449Z</time></trkpt><trkpt lat="44.8812367" lon="8.2262967"><ele>117.0</ele><time>2026-04-12T07:15:51.449Z</time></trkpt><trkpt lat="44.8812267" lon="8.2263917"><ele>117.0</ele><time>2026-04-12T07:15:52.449Z</time></trkpt><trkpt lat="44.88122" lon="8.2264867"><ele>117.0</ele><time>2026-04-12T07:15:53.449Z</time></trkpt><trkpt lat="44.8812133" lon="8.2265817"><ele>117.0</ele><time>2026-04-12T07:15:54.449Z</time></trkpt><trkpt lat="44.881205" lon="8.2266817"><ele>117.0</ele><time>2026-04-12T07:15:55.449Z</time></trkpt><trkpt lat="44.8811967" lon="8.22678"><ele>117.00000000000001</ele><time>2026-04-12T07:15:56.449Z</time></trkpt><trkpt lat="44.8811917" lon="8.22688"><ele>117.0</ele><time>2026-04-12T07:15:57.449Z</time></trkpt><trkpt lat="44.8811867" lon="8.22698"><ele>117.0</ele><time>2026-04-12T07:15:58.449Z</time></trkpt><trkpt lat="44.8811783" lon="8.2270767"><ele>117.00000000000001</ele><time>2026-04-12T07:15:59.449Z</time></trkpt><trkpt lat="44.8811767" lon="8.227175"><ele>117.0</ele><time>2026-04-12T07:16:00.449Z</time></trkpt><trkpt lat="44.88117" lon="8.2272817"><ele>117.0</ele><time>2026-04-12T07:16:01.45Z</time></trkpt><trkpt lat="44.8811667" lon="8.2273867"><ele>117.0</ele><time>2026-04-12T07:16:02.449Z</time></trkpt><trkpt lat="44.8811617" lon="8.2274917"><ele>117.00000000000001</ele><time>2026-04-12T07:16:03.45Z</time></trkpt><trkpt lat="44.8811567" lon="8.2276"><ele>117.0</ele><time>2026-04-12T07:16:04.449Z</time></trkpt><trkpt lat="44.8811517" lon="8.2277117"><ele>117.0</ele><time>2026-04-12T07:16:05.449Z</time></trkpt><trkpt lat="44.881145" lon="8.22782"><ele>117.00000000000001</ele><time>2026-04-12T07:16:06.449Z</time></trkpt><trkpt lat="44.8811417" lon="8.22792"><ele>117.0</ele><time>2026-04-12T07:16:07.449Z</time></trkpt><trkpt lat="44.881135" lon="8.228015"><ele>117.0</ele><time>2026-04-12T07:16:08.449Z</time></trkpt><trkpt lat="44.8811317" lon="8.2281133"><ele>117.0</ele><time>2026-04-12T07:16:09.449Z</time></trkpt><trkpt lat="44.8811217" lon="8.228205"><ele>117.0</ele><time>2026-04-12T07:16:10.449Z</time></trkpt><trkpt lat="44.8811333" lon="8.2283867"><ele>117.0</ele><time>2026-04-12T07:16:12.449Z</time></trkpt><trkpt lat="44.881145" lon="8.2284783"><ele>117.0</ele><time>2026-04-12T07:16:13.449Z</time></trkpt><trkpt lat="44.8811667" lon="8.2285667"><ele>117.0</ele><time>2026-04-12T07:16:14.449Z</time></trkpt><trkpt lat="44.881195" lon="8.2286483"><ele>117.0</ele><time>2026-04-12T07:16:15.449Z</time></trkpt><trkpt lat="44.8812167" lon="8.2287367"><ele>117.0</ele><time>2026-04-12T07:16:16.449Z</time></trkpt><trkpt lat="44.881235" lon="8.2289083"><ele>116.99999999999999</ele><time>2026-04-12T07:16:18.449Z</time></trkpt><trkpt lat="44.8812083" lon="8.2290533"><ele>116.99999999999999</ele><time>2026-04-12T07:16:20.45Z</time></trkpt><trkpt lat="44.88117" lon="8.2291367"><ele>117.0</ele><time>2026-04-12T07:16:22.449Z</time></trkpt><trkpt lat="44.881105" lon="8.2291833"><ele>117.0</ele><time>2026-04-12T07:16:24.449Z</time></trkpt><trkpt lat="44.8810083" lon="8.2292317"><ele>117.39999999999999</ele><time>2026-04-12T07:16:26.449Z</time></trkpt><trkpt lat="44.8809317" lon="8.2292367"><ele>117.79999999999998</ele><time>2026-04-12T07:16:27.449Z</time></trkpt><trkpt lat="44.8808667" lon="8.22925"><ele>118.2</ele><time>2026-04-12T07:16:28.45Z</time></trkpt><trkpt lat="44.8807267" lon="8.2292567"><ele>118.6</ele><time>2026-04-12T07:16:30.449Z</time></trkpt><trkpt lat="44.88065" lon="8.2292717"><ele>119.0</ele><time>2026-04-12T07:16:31.449Z</time></trkpt><trkpt lat="44.8805283" lon="8.22929"><ele>119.0</ele><time>2026-04-12T07:16:33.449Z</time></trkpt><trkpt lat="44.8804033" lon="8.2293067"><ele>119.0</ele><time>2026-04-12T07:16:35.449Z</time></trkpt><trkpt lat="44.8802767" lon="8.2293183"><ele>119.0</ele><time>2026-04-12T07:16:37.449Z</time></trkpt><trkpt lat="44.8802067" lon="8.229325"><ele>119.0</ele><time>2026-04-12T07:16:38.449Z</time></trkpt><trkpt lat="44.880135" lon="8.22933"><ele>119.0</ele><time>2026-04-12T07:16:39.449Z</time></trkpt><trkpt lat="44.880065" lon="8.2293367"><ele>118.85714285714286</ele><time>2026-04-12T07:16:40.449Z</time></trkpt><trkpt lat="44.8799933" lon="8.2293417"><ele>118.71428571428572</ele><time>2026-04-12T07:16:41.449Z</time></trkpt><trkpt lat="44.8799217" lon="8.2293433"><ele>118.57142857142857</ele><time>2026-04-12T07:16:42.449Z</time></trkpt><trkpt lat="44.879845" lon="8.2293417"><ele>118.42857142857143</ele><time>2026-04-12T07:16:43.449Z</time></trkpt><trkpt lat="44.87977" lon="8.2293383"><ele>118.28571428571429</ele><time>2026-04-12T07:16:44.449Z</time></trkpt><trkpt lat="44.8796967" lon="8.22935"><ele>118.14285714285714</ele><time>2026-04-12T07:16:45.449Z</time></trkpt><trkpt lat="44.8796267" lon="8.2293567"><ele>118.0</ele><time>2026-04-12T07:16:46.449Z</time></trkpt><trkpt lat="44.8795583" lon="8.22936"><ele>118.00000000000001</ele><time>2026-04-12T07:16:47.45Z</time></trkpt><trkpt lat="44.879485" lon="8.229365"><ele>118.0</ele><time>2026-04-12T07:16:48.45Z</time></trkpt><trkpt lat="44.87941" lon="8.2293633"><ele>118.0</ele><time>2026-04-12T07:16:49.449Z</time></trkpt><trkpt lat="44.879335" lon="8.2293733"><ele>118.0</ele><time>2026-04-12T07:16:50.449Z</time></trkpt><trkpt lat="44.8792583" lon="8.2293817"><ele>118.00000000000001</ele><time>2026-04-12T07:16:51.449Z</time></trkpt><trkpt lat="44.8791833" lon="8.2293883"><ele>118.0</ele><time>2026-04-12T07:16:52.449Z</time></trkpt><trkpt lat="44.8791067" lon="8.2293983"><ele>118.28571428571428</ele><time>2026-04-12T07:16:53.449Z</time></trkpt><trkpt lat="44.879035" lon="8.2294067"><ele>118.57142857142858</ele><time>2026-04-12T07:16:54.449Z</time></trkpt><trkpt lat="44.8789633" lon="8.2294133"><ele>118.85714285714286</ele><time>2026-04-12T07:16:55.449Z</time></trkpt><trkpt lat="44.87889" lon="8.22942"><ele>119.14285714285714</ele><time>2026-04-12T07:16:56.449Z</time></trkpt><trkpt lat="44.8788167" lon="8.2294283"><ele>119.42857142857142</ele><time>2026-04-12T07:16:57.449Z</time></trkpt><trkpt lat="44.8787417" lon="8.2294417"><ele>119.71428571428572</ele><time>2026-04-12T07:16:58.449Z</time></trkpt><trkpt lat="44.8786633" lon="8.2294517"><ele>120.0</ele><time>2026-04-12T07:16:59.449Z</time></trkpt><trkpt lat="44.87859" lon="8.22946"><ele>120.0</ele><time>2026-04-12T07:17:00.449Z</time></trkpt><trkpt lat="44.8785167" lon="8.2294633"><ele>120.0</ele><time>2026-04-12T07:17:01.449Z</time></trkpt><trkpt lat="44.8784483" lon="8.229465"><ele>120.0</ele><time>2026-04-12T07:17:02.449Z</time></trkpt><trkpt lat="44.87838" lon="8.22947"><ele>120.0</ele><time>2026-04-12T07:17:03.449Z</time></trkpt><trkpt lat="44.8783083" lon="8.22948"><ele>120.0</ele><time>2026-04-12T07:17:04.449Z</time></trkpt><trkpt lat="44.878235" lon="8.2294917"><ele>120.0</ele><time>2026-04-12T07:17:05.449Z</time></trkpt><trkpt lat="44.8781617" lon="8.2294967"><ele>120.0</ele><time>2026-04-12T07:17:06.449Z</time></trkpt><trkpt lat="44.8780917" lon="8.2295033"><ele>120.16666666666667</ele><time>2026-04-12T07:17:07.449Z</time></trkpt><trkpt lat="44.8780283" lon="8.22951"><ele>120.33333333333334</ele><time>2026-04-12T07:17:08.449Z</time></trkpt><trkpt lat="44.8779633" lon="8.2295183"><ele>120.5</ele><time>2026-04-12T07:17:09.449Z</time></trkpt><trkpt lat="44.8779" lon="8.2295283"><ele>120.66666666666667</ele><time>2026-04-12T07:17:10.449Z</time></trkpt><trkpt lat="44.8778367" lon="8.2295433"><ele>120.83333333333334</ele><time>2026-04-12T07:17:11.449Z</time></trkpt><trkpt lat="44.8777283" lon="8.229555"><ele>121.0</ele><time>2026-04-12T07:17:13.449Z</time></trkpt><trkpt lat="44.8776417" lon="8.2295683"><ele>121.50000000000001</ele><time>2026-04-12T07:17:15.449Z</time></trkpt><trkpt lat="44.8775667" lon="8.2296"><ele>122.0</ele><time>2026-04-12T07:17:17.449Z</time></trkpt><trkpt lat="44.87753" lon="8.229685"><ele>122.5</ele><time>2026-04-12T07:17:19.449Z</time></trkpt><trkpt lat="44.8774917" lon="8.2297833"><ele>123.0</ele><time>2026-04-12T07:17:21.449Z</time></trkpt><trkpt lat="44.8774283" lon="8.2298583"><ele>123.50000000000001</ele><time>2026-04-12T07:17:23.449Z</time></trkpt><trkpt lat="44.8773583" lon="8.229945"><ele>124.0</ele><time>2026-04-12T07:17:25.449Z</time></trkpt><trkpt lat="44.877295" lon="8.2300533"><ele>124.00000000000001</ele><time>2026-04-12T07:17:27.449Z</time></trkpt><trkpt lat="44.87723" lon="8.2301683"><ele>124.0</ele><time>2026-04-12T07:17:29.449Z</time></trkpt><trkpt lat="44.8771767" lon="8.2302683"><ele>124.0</ele><time>2026-04-12T07:17:31.449Z</time></trkpt><trkpt lat="44.8771117" lon="8.2303267"><ele>124.0</ele><time>2026-04-12T07:17:33.449Z</time></trkpt><trkpt lat="44.8770667" lon="8.23045"><ele>124.00000000000001</ele><time>2026-04-12T07:17:49.449Z</time></trkpt><trkpt lat="44.8770267" lon="8.23054"><ele>124.0</ele><time>2026-04-12T07:17:51.449Z</time></trkpt><trkpt lat="44.8770067" lon="8.230675"><ele>124.33333333333334</ele><time>2026-04-12T07:17:53.449Z</time></trkpt><trkpt lat="44.8769783" lon="8.2308333"><ele>124.66666666666667</ele><time>2026-04-12T07:17:55.449Z</time></trkpt><trkpt lat="44.87693" lon="8.2309917"><ele>125.0</ele><time>2026-04-12T07:17:57.449Z</time></trkpt><trkpt lat="44.8769067" lon="8.23108"><ele>125.33333333333334</ele><time>2026-04-12T07:17:58.449Z</time></trkpt><trkpt lat="44.876875" lon="8.2311617"><ele>125.66666666666667</ele><time>2026-04-12T07:17:59.449Z</time></trkpt><trkpt lat="44.876835" lon="8.2312417"><ele>126.0</ele><time>2026-04-12T07:18:00.449Z</time></trkpt><trkpt lat="44.8767983" lon="8.2313233"><ele>126.0</ele><time>2026-04-12T07:18:01.449Z</time></trkpt><trkpt lat="44.876765" lon="8.231405"><ele>126.0</ele><time>2026-04-12T07:18:02.449Z</time></trkpt><trkpt lat="44.8767367" lon="8.231485"><ele>126.0</ele><time>2026-04-12T07:18:03.449Z</time></trkpt><trkpt lat="44.876705" lon="8.231565"><ele>126.0</ele><time>2026-04-12T07:18:04.449Z</time></trkpt><trkpt lat="44.8766333" lon="8.2316883"><ele>126.0</ele><time>2026-04-12T07:18:06.449Z</time></trkpt><trkpt lat="44.8765917" lon="8.2318167"><ele>126.0</ele><time>2026-04-12T07:18:08.449Z</time></trkpt><trkpt lat="44.8765217" lon="8.23192"><ele>126.0</ele><time>2026-04-12T07:18:10.449Z</time></trkpt><trkpt lat="44.8764117" lon="8.23194"><ele>126.0</ele><time>2026-04-12T07:18:12.449Z</time></trkpt><trkpt lat="44.8763433" lon="8.231935"><ele>126.0</ele><time>2026-04-12T07:18:13.449Z</time></trkpt><trkpt lat="44.8762717" lon="8.23193"><ele>126.0</ele><time>2026-04-12T07:18:14.449Z</time></trkpt><trkpt lat="44.8761967" lon="8.2319233"><ele>126.0</ele><time>2026-04-12T07:18:15.449Z</time></trkpt><trkpt lat="44.87613" lon="8.231925"><ele>126.0</ele><time>2026-04-12T07:18:16.449Z</time></trkpt><trkpt lat="44.8760617" lon="8.2319167"><ele>126.0</ele><time>2026-04-12T07:18:17.449Z</time></trkpt><trkpt lat="44.8759917" lon="8.2319117"><ele>126.0</ele><time>2026-04-12T07:18:18.449Z</time></trkpt><trkpt lat="44.8759167" lon="8.23191"><ele>126.0</ele><time>2026-04-12T07:18:19.449Z</time></trkpt><trkpt lat="44.8758433" lon="8.231905"><ele>126.0</ele><time>2026-04-12T07:18:20.449Z</time></trkpt><trkpt lat="44.8757767" lon="8.2319"><ele>126.0</ele><time>2026-04-12T07:18:21.449Z</time></trkpt><trkpt lat="44.8757067" lon="8.2318967"><ele>126.0</ele><time>2026-04-12T07:18:22.449Z</time></trkpt><trkpt lat="44.8756383" lon="8.2318933"><ele>126.0</ele><time>2026-04-12T07:18:23.449Z</time></trkpt><trkpt lat="44.87557" lon="8.231885"><ele>126.0</ele><time>2026-04-12T07:18:24.449Z</time></trkpt><trkpt lat="44.8754967" lon="8.231885"><ele>126.0</ele><time>2026-04-12T07:18:25.449Z</time></trkpt><trkpt lat="44.87542" lon="8.2318867"><ele>126.0</ele><time>2026-04-12T07:18:26.449Z</time></trkpt><trkpt lat="44.8753517" lon="8.2318917"><ele>126.0</ele><time>2026-04-12T07:18:27.449Z</time></trkpt><trkpt lat="44.8752817" lon="8.2318917"><ele>126.0</ele><time>2026-04-12T07:18:28.449Z</time></trkpt><trkpt lat="44.875215" lon="8.2318933"><ele>126.0</ele><time>2026-04-12T07:18:29.449Z</time></trkpt><trkpt lat="44.8751433" lon="8.2318983"><ele>126.0</ele><time>2026-04-12T07:18:30.449Z</time></trkpt><trkpt lat="44.875075" lon="8.2318983"><ele>126.6</ele><time>2026-04-12T07:18:31.449Z</time></trkpt><trkpt lat="44.8750067" lon="8.2319033"><ele>127.19999999999999</ele><time>2026-04-12T07:18:32.449Z</time></trkpt><trkpt lat="44.8749383" lon="8.2318967"><ele>127.80000000000001</ele><time>2026-04-12T07:18:33.449Z</time></trkpt><trkpt lat="44.8748183" lon="8.231895"><ele>128.4</ele><time>2026-04-12T07:18:35.449Z</time></trkpt><trkpt lat="44.8746983" lon="8.2319"><ele>129.0</ele><time>2026-04-12T07:18:37.449Z</time></trkpt><trkpt lat="44.8745783" lon="8.231895"><ele>129.0</ele><time>2026-04-12T07:18:39.449Z</time></trkpt><trkpt lat="44.874455" lon="8.2319"><ele>129.0</ele><time>2026-04-12T07:18:41.449Z</time></trkpt><trkpt lat="44.87433" lon="8.2319083"><ele>129.0</ele><time>2026-04-12T07:18:43.449Z</time></trkpt><trkpt lat="44.8742667" lon="8.23191"><ele>129.0</ele><time>2026-04-12T07:18:44.449Z</time></trkpt><trkpt lat="44.8741467" lon="8.2318917"><ele>129.0</ele><time>2026-04-12T07:18:46.449Z</time></trkpt><trkpt lat="44.8740417" lon="8.2318733"><ele>128.5</ele><time>2026-04-12T07:18:48.449Z</time></trkpt><trkpt lat="44.8739317" lon="8.23186"><ele>128.0</ele><time>2026-04-12T07:18:50.449Z</time></trkpt><trkpt lat="44.873815" lon="8.2318417"><ele>127.5</ele><time>2026-04-12T07:18:52.449Z</time></trkpt><trkpt lat="44.873695" lon="8.2318183"><ele>127.0</ele><time>2026-04-12T07:18:54.449Z</time></trkpt><trkpt lat="44.8735767" lon="8.2318"><ele>127.00000000000001</ele><time>2026-04-12T07:18:56.449Z</time></trkpt><trkpt lat="44.8734583" lon="8.231785"><ele>127.0</ele><time>2026-04-12T07:18:58.449Z</time></trkpt><trkpt lat="44.8733933" lon="8.2317767"><ele>127.0</ele><time>2026-04-12T07:18:59.449Z</time></trkpt><trkpt lat="44.873325" lon="8.2317683"><ele>127.0</ele><time>2026-04-12T07:19:00.449Z</time></trkpt><trkpt lat="44.87326" lon="8.23176"><ele>127.00000000000001</ele><time>2026-04-12T07:19:01.449Z</time></trkpt><trkpt lat="44.8731383" lon="8.2317367"><ele>127.0</ele><time>2026-04-12T07:19:03.449Z</time></trkpt><trkpt lat="44.8730117" lon="8.231715"><ele>127.25</ele><time>2026-04-12T07:19:05.449Z</time></trkpt><trkpt lat="44.8728933" lon="8.23169"><ele>127.5</ele><time>2026-04-12T07:19:07.449Z</time></trkpt><trkpt lat="44.872775" lon="8.2316783"><ele>127.75</ele><time>2026-04-12T07:19:09.449Z</time></trkpt><trkpt lat="44.8726533" lon="8.2316617"><ele>128.0</ele><time>2026-04-12T07:19:11.449Z</time></trkpt><trkpt lat="44.87253" lon="8.2316367"><ele>127.99999999999999</ele><time>2026-04-12T07:19:13.449Z</time></trkpt><trkpt lat="44.8724067" lon="8.2316217"><ele>128.0</ele><time>2026-04-12T07:19:15.45Z</time></trkpt><trkpt lat="44.87229" lon="8.2316"><ele>128.0</ele><time>2026-04-12T07:19:17.449Z</time></trkpt><trkpt lat="44.8722267" lon="8.23159"><ele>128.0</ele><time>2026-04-12T07:19:18.449Z</time></trkpt><trkpt lat="44.87216" lon="8.2315867"><ele>127.99999999999999</ele><time>2026-04-12T07:19:19.449Z</time></trkpt><trkpt lat="44.872095" lon="8.2315783"><ele>128.0</ele><time>2026-04-12T07:19:20.449Z</time></trkpt><trkpt lat="44.8719767" lon="8.2315617"><ele>128.0</ele><time>2026-04-12T07:19:22.449Z</time></trkpt><trkpt lat="44.871865" lon="8.231535"><ele>128.0</ele><time>2026-04-12T07:19:24.449Z</time></trkpt><trkpt lat="44.8717433" lon="8.2315083"><ele>128.0</ele><time>2026-04-12T07:19:26.449Z</time></trkpt><trkpt lat="44.8716267" lon="8.23149"><ele>128.0</ele><time>2026-04-12T07:19:28.449Z</time></trkpt><trkpt lat="44.8715083" lon="8.2314767"><ele>130.0</ele><time>2026-04-12T07:19:30.449Z</time></trkpt><trkpt lat="44.871395" lon="8.2314583"><ele>132.0</ele><time>2026-04-12T07:19:32.449Z</time></trkpt><trkpt lat="44.8712767" lon="8.2314317"><ele>134.0</ele><time>2026-04-12T07:19:34.449Z</time></trkpt><trkpt lat="44.871155" lon="8.2314083"><ele>136.0</ele><time>2026-04-12T07:19:36.449Z</time></trkpt><trkpt lat="44.87109" lon="8.231395"><ele>138.0</ele><time>2026-04-12T07:19:37.449Z</time></trkpt><trkpt lat="44.8710267" lon="8.2313883"><ele>138.0</ele><time>2026-04-12T07:19:38.449Z</time></trkpt><trkpt lat="44.8709617" lon="8.23138"><ele>138.0</ele><time>2026-04-12T07:19:39.449Z</time></trkpt><trkpt lat="44.8708983" lon="8.2313717"><ele>138.0</ele><time>2026-04-12T07:19:40.449Z</time></trkpt><trkpt lat="44.870775" lon="8.231355"><ele>138.0</ele><time>2026-04-12T07:19:42.449Z</time></trkpt><trkpt lat="44.8706533" lon="8.2313333"><ele>138.0</ele><time>2026-04-12T07:19:44.449Z</time></trkpt><trkpt lat="44.8705333" lon="8.2313033"><ele>138.20000000000002</ele><time>2026-04-12T07:19:46.449Z</time></trkpt><trkpt lat="44.8704117" lon="8.2312783"><ele>138.4</ele><time>2026-04-12T07:19:48.449Z</time></trkpt><trkpt lat="44.8703483" lon="8.2312683"><ele>138.60000000000002</ele><time>2026-04-12T07:19:49.449Z</time></trkpt><trkpt lat="44.8702267" lon="8.2312467"><ele>138.8</ele><time>2026-04-12T07:19:51.449Z</time></trkpt><trkpt lat="44.8701633" lon="8.2312367"><ele>139.0</ele><time>2026-04-12T07:19:52.449Z</time></trkpt><trkpt lat="44.87004" lon="8.2312133"><ele>137.75</ele><time>2026-04-12T07:19:54.449Z</time></trkpt><trkpt lat="44.8699167" lon="8.2312017"><ele>136.5</ele><time>2026-04-12T07:19:56.449Z</time></trkpt><trkpt lat="44.8697967" lon="8.231175"><ele>135.25</ele><time>2026-04-12T07:19:58.449Z</time></trkpt><trkpt lat="44.8696733" lon="8.2311617"><ele>134.0</ele><time>2026-04-12T07:20:00.449Z</time></trkpt><trkpt lat="44.86955" lon="8.2311383"><ele>134.0</ele><time>2026-04-12T07:20:02.449Z</time></trkpt><trkpt lat="44.8694817" lon="8.23112"><ele>134.0</ele><time>2026-04-12T07:20:03.449Z</time></trkpt><trkpt lat="44.8694183" lon="8.2311117"><ele>134.0</ele><time>2026-04-12T07:20:04.449Z</time></trkpt><trkpt lat="44.8693033" lon="8.2310967"><ele>134.0</ele><time>2026-04-12T07:20:06.449Z</time></trkpt><trkpt lat="44.8691867" lon="8.2310817"><ele>134.0</ele><time>2026-04-12T07:20:08.449Z</time></trkpt><trkpt lat="44.8690667" lon="8.231085"><ele>134.0</ele><time>2026-04-12T07:20:10.449Z</time></trkpt><trkpt lat="44.8689467" lon="8.231095"><ele>134.0</ele><time>2026-04-12T07:20:12.449Z</time></trkpt><trkpt lat="44.868825" lon="8.2311217"><ele>134.0</ele><time>2026-04-12T07:20:14.45Z</time></trkpt><trkpt lat="44.8687" lon="8.2311517"><ele>134.0</ele><time>2026-04-12T07:20:16.449Z</time></trkpt><trkpt lat="44.86858" lon="8.2311967"><ele>134.0</ele><time>2026-04-12T07:20:18.449Z</time></trkpt><trkpt lat="44.8684583" lon="8.231225"><ele>134.0</ele><time>2026-04-12T07:20:20.449Z</time></trkpt><trkpt lat="44.8683383" lon="8.2312467"><ele>134.0</ele><time>2026-04-12T07:20:22.449Z</time></trkpt><trkpt lat="44.8682233" lon="8.23124"><ele>134.0</ele><time>2026-04-12T07:20:24.449Z</time></trkpt><trkpt lat="44.8681083" lon="8.2312167"><ele>134.0</ele><time>2026-04-12T07:20:26.449Z</time></trkpt><trkpt lat="44.8679883" lon="8.23117"><ele>134.0</ele><time>2026-04-12T07:20:28.449Z</time></trkpt><trkpt lat="44.86793" lon="8.2311333"><ele>134.0</ele><time>2026-04-12T07:20:29.449Z</time></trkpt><trkpt lat="44.8678717" lon="8.231095"><ele>134.0</ele><time>2026-04-12T07:20:30.449Z</time></trkpt><trkpt lat="44.8678133" lon="8.2310517"><ele>134.0</ele><time>2026-04-12T07:20:31.449Z</time></trkpt><trkpt lat="44.86771" lon="8.23096"><ele>134.0</ele><time>2026-04-12T07:20:33.449Z</time></trkpt><trkpt lat="44.86761" lon="8.2308617"><ele>133.6</ele><time>2026-04-12T07:20:35.449Z</time></trkpt><trkpt lat="44.8675133" lon="8.2307617"><ele>133.2</ele><time>2026-04-12T07:20:37.449Z</time></trkpt><trkpt lat="44.8674133" lon="8.2306667"><ele>132.79999999999998</ele><time>2026-04-12T07:20:39.449Z</time></trkpt><trkpt lat="44.8673583" lon="8.2306183"><ele>132.4</ele><time>2026-04-12T07:20:40.449Z</time></trkpt><trkpt lat="44.8673033" lon="8.230575"><ele>132.0</ele><time>2026-04-12T07:20:41.449Z</time></trkpt><trkpt lat="44.8671967" lon="8.2304867"><ele>132.5</ele><time>2026-04-12T07:20:43.449Z</time></trkpt><trkpt lat="44.8670917" lon="8.2304283"><ele>133.0</ele><time>2026-04-12T07:20:45.449Z</time></trkpt><trkpt lat="44.86698" lon="8.2303933"><ele>133.5</ele><time>2026-04-12T07:20:47.449Z</time></trkpt><trkpt lat="44.8668617" lon="8.2303717"><ele>134.0</ele><time>2026-04-12T07:20:49.449Z</time></trkpt><trkpt lat="44.8667467" lon="8.23031"><ele>134.0</ele><time>2026-04-12T07:20:51.45Z</time></trkpt><trkpt lat="44.8666717" lon="8.2301883"><ele>134.0</ele><time>2026-04-12T07:20:53.449Z</time></trkpt><trkpt lat="44.8666117" lon="8.23004"><ele>134.0</ele><time>2026-04-12T07:20:55.449Z</time></trkpt><trkpt lat="44.86658" lon="8.2299617"><ele>134.0</ele><time>2026-04-12T07:20:56.45Z</time></trkpt><trkpt lat="44.86655" lon="8.2298817"><ele>134.0</ele><time>2026-04-12T07:20:57.449Z</time></trkpt><trkpt lat="44.86652" lon="8.2298033"><ele>134.0</ele><time>2026-04-12T07:20:58.449Z</time></trkpt><trkpt lat="44.8664883" lon="8.2297233"><ele>135.25</ele><time>2026-04-12T07:20:59.449Z</time></trkpt><trkpt lat="44.8664267" lon="8.229585"><ele>136.5</ele><time>2026-04-12T07:21:01.449Z</time></trkpt><trkpt lat="44.86636" lon="8.2294433"><ele>137.75</ele><time>2026-04-12T07:21:03.449Z</time></trkpt><trkpt lat="44.866295" lon="8.22931"><ele>139.0</ele><time>2026-04-12T07:21:05.449Z</time></trkpt><trkpt lat="44.866235" lon="8.2291833"><ele>139.0</ele><time>2026-04-12T07:21:07.449Z</time></trkpt><trkpt lat="44.8661817" lon="8.2290633"><ele>139.0</ele><time>2026-04-12T07:21:09.449Z</time></trkpt><trkpt lat="44.8661267" lon="8.2289383"><ele>139.0</ele><time>2026-04-12T07:21:11.449Z</time></trkpt><trkpt lat="44.8660767" lon="8.2288133"><ele>139.0</ele><time>2026-04-12T07:21:13.449Z</time></trkpt><trkpt lat="44.8660217" lon="8.2286867"><ele>139.0</ele><time>2026-04-12T07:21:15.45Z</time></trkpt><trkpt lat="44.8659617" lon="8.228555"><ele>138.25</ele><time>2026-04-12T07:21:17.449Z</time></trkpt><trkpt lat="44.8659033" lon="8.2284083"><ele>137.5</ele><time>2026-04-12T07:21:19.45Z</time></trkpt><trkpt lat="44.86584" lon="8.2282617"><ele>136.75</ele><time>2026-04-12T07:21:21.449Z</time></trkpt><trkpt lat="44.8657783" lon="8.228115"><ele>136.0</ele><time>2026-04-12T07:21:23.45Z</time></trkpt><trkpt lat="44.8657183" lon="8.2279817"><ele>137.5</ele><time>2026-04-12T07:21:25.449Z</time></trkpt><trkpt lat="44.86566" lon="8.227845"><ele>139.0</ele><time>2026-04-12T07:21:27.449Z</time></trkpt><trkpt lat="44.8655967" lon="8.227705"><ele>140.5</ele><time>2026-04-12T07:21:29.449Z</time></trkpt><trkpt lat="44.8655433" lon="8.2275617"><ele>142.0</ele><time>2026-04-12T07:21:31.449Z</time></trkpt><trkpt lat="44.86549" lon="8.2274267"><ele>144.4</ele><time>2026-04-12T07:21:33.45Z</time></trkpt><trkpt lat="44.8654367" lon="8.227285"><ele>146.79999999999998</ele><time>2026-04-12T07:21:35.449Z</time></trkpt><trkpt lat="44.8653733" lon="8.227155"><ele>149.2</ele><time>2026-04-12T07:21:37.449Z</time></trkpt><trkpt lat="44.8653167" lon="8.22703"><ele>151.6</ele><time>2026-04-12T07:21:39.449Z</time></trkpt><trkpt lat="44.86525" lon="8.2269017"><ele>154.0</ele><time>2026-04-12T07:21:41.449Z</time></trkpt><trkpt lat="44.8651883" lon="8.2267617"><ele>151.5</ele><time>2026-04-12T07:21:43.449Z</time></trkpt><trkpt lat="44.8651117" lon="8.2266233"><ele>149.0</ele><time>2026-04-12T07:21:45.449Z</time></trkpt><trkpt lat="44.8650417" lon="8.2264883"><ele>146.5</ele><time>2026-04-12T07:21:47.449Z</time></trkpt><trkpt lat="44.8649617" lon="8.2263517"><ele>144.0</ele><time>2026-04-12T07:21:49.449Z</time></trkpt><trkpt lat="44.8648917" lon="8.226225"><ele>144.0</ele><time>2026-04-12T07:21:51.449Z</time></trkpt><trkpt lat="44.8648217" lon="8.2261033"><ele>144.0</ele><time>2026-04-12T07:21:53.449Z</time></trkpt><trkpt lat="44.8647467" lon="8.2259783"><ele>144.0</ele><time>2026-04-12T07:21:55.449Z</time></trkpt><trkpt lat="44.8646767" lon="8.225845"><ele>144.0</ele><time>2026-04-12T07:21:57.449Z</time></trkpt><trkpt lat="44.864595" lon="8.22572"><ele>145.5</ele><time>2026-04-12T07:21:59.45Z</time></trkpt><trkpt lat="44.8645133" lon="8.225595"><ele>147.0</ele><time>2026-04-12T07:22:01.449Z</time></trkpt><trkpt lat="44.8644433" lon="8.225455"><ele>148.5</ele><time>2026-04-12T07:22:03.449Z</time></trkpt><trkpt lat="44.864365" lon="8.2253267"><ele>150.0</ele><time>2026-04-12T07:22:05.449Z</time></trkpt><trkpt lat="44.8642833" lon="8.2252017"><ele>148.5</ele><time>2026-04-12T07:22:07.449Z</time></trkpt><trkpt lat="44.8642033" lon="8.22508"><ele>147.0</ele><time>2026-04-12T07:22:09.449Z</time></trkpt><trkpt lat="44.8641267" lon="8.2249467"><ele>145.5</ele><time>2026-04-12T07:22:11.449Z</time></trkpt><trkpt lat="44.8640383" lon="8.2248133"><ele>144.0</ele><time>2026-04-12T07:22:13.449Z</time></trkpt><trkpt lat="44.8639533" lon="8.2246867"><ele>144.00000000000003</ele><time>2026-04-12T07:22:15.449Z</time></trkpt><trkpt lat="44.8639083" lon="8.224615"><ele>144.0</ele><time>2026-04-12T07:22:16.449Z</time></trkpt><trkpt lat="44.8638633" lon="8.2245433"><ele>144.0</ele><time>2026-04-12T07:22:17.449Z</time></trkpt><trkpt lat="44.863815" lon="8.2244683"><ele>144.0</ele><time>2026-04-12T07:22:18.449Z</time></trkpt><trkpt lat="44.8637767" lon="8.22439"><ele>144.0</ele><time>2026-04-12T07:22:19.449Z</time></trkpt><trkpt lat="44.8637367" lon="8.22432"><ele>144.00000000000003</ele><time>2026-04-12T07:22:20.449Z</time></trkpt><trkpt lat="44.8636933" lon="8.2242483"><ele>144.0</ele><time>2026-04-12T07:22:21.449Z</time></trkpt><trkpt lat="44.86365" lon="8.2241817"><ele>144.00000000000003</ele><time>2026-04-12T07:22:22.449Z</time></trkpt><trkpt lat="44.863605" lon="8.2241117"><ele>144.0</ele><time>2026-04-12T07:22:23.449Z</time></trkpt><trkpt lat="44.8635583" lon="8.2240367"><ele>144.0</ele><time>2026-04-12T07:22:24.449Z</time></trkpt><trkpt lat="44.86352" lon="8.2239533"><ele>144.0</ele><time>2026-04-12T07:22:25.449Z</time></trkpt><trkpt lat="44.8634733" lon="8.2238833"><ele>144.0</ele><time>2026-04-12T07:22:26.449Z</time></trkpt><trkpt lat="44.8634217" lon="8.22381"><ele>144.00000000000003</ele><time>2026-04-12T07:22:27.449Z</time></trkpt><trkpt lat="44.8633733" lon="8.2237367"><ele>144.0</ele><time>2026-04-12T07:22:28.449Z</time></trkpt><trkpt lat="44.8633283" lon="8.2236583"><ele>143.2857142857143</ele><time>2026-04-12T07:22:29.449Z</time></trkpt><trkpt lat="44.8632833" lon="8.2235933"><ele>142.57142857142858</ele><time>2026-04-12T07:22:30.449Z</time></trkpt><trkpt lat="44.863235" lon="8.2235217"><ele>141.85714285714286</ele><time>2026-04-12T07:22:31.449Z</time></trkpt><trkpt lat="44.86319" lon="8.2234517"><ele>141.14285714285717</ele><time>2026-04-12T07:22:32.449Z</time></trkpt><trkpt lat="44.8631467" lon="8.2233783"><ele>140.42857142857144</ele><time>2026-04-12T07:22:33.449Z</time></trkpt><trkpt lat="44.8631" lon="8.223305"><ele>139.71428571428572</ele><time>2026-04-12T07:22:34.449Z</time></trkpt><trkpt lat="44.863055" lon="8.22323"><ele>139.0</ele><time>2026-04-12T07:22:35.45Z</time></trkpt><trkpt lat="44.8630033" lon="8.223155"><ele>140.33333333333334</ele><time>2026-04-12T07:22:36.449Z</time></trkpt><trkpt lat="44.8629567" lon="8.22308"><ele>141.66666666666669</ele><time>2026-04-12T07:22:37.449Z</time></trkpt><trkpt lat="44.8629183" lon="8.2230033"><ele>143.0</ele><time>2026-04-12T07:22:38.449Z</time></trkpt><trkpt lat="44.8628383" lon="8.2228683"><ele>144.33333333333334</ele><time>2026-04-12T07:22:40.449Z</time></trkpt><trkpt lat="44.862795" lon="8.2227917"><ele>145.66666666666666</ele><time>2026-04-12T07:22:41.449Z</time></trkpt><trkpt lat="44.8627483" lon="8.2227183"><ele>147.0</ele><time>2026-04-12T07:22:42.449Z</time></trkpt><trkpt lat="44.8626983" lon="8.2226517"><ele>147.0</ele><time>2026-04-12T07:22:43.449Z</time></trkpt><trkpt lat="44.8626467" lon="8.2225867"><ele>147.0</ele><time>2026-04-12T07:22:44.449Z</time></trkpt><trkpt lat="44.8626033" lon="8.2225133"><ele>147.0</ele><time>2026-04-12T07:22:45.449Z</time></trkpt><trkpt lat="44.86256" lon="8.2224467"><ele>147.0</ele><time>2026-04-12T07:22:46.449Z</time></trkpt><trkpt lat="44.862515" lon="8.2223767"><ele>147.0</ele><time>2026-04-12T07:22:47.449Z</time></trkpt><trkpt lat="44.8624333" lon="8.2222533"><ele>147.0</ele><time>2026-04-12T07:22:49.449Z</time></trkpt><trkpt lat="44.862355" lon="8.2221267"><ele>146.2</ele><time>2026-04-12T07:22:51.449Z</time></trkpt><trkpt lat="44.8622767" lon="8.2220067"><ele>145.39999999999998</ele><time>2026-04-12T07:22:53.449Z</time></trkpt><trkpt lat="44.8621883" lon="8.2218817"><ele>144.60000000000002</ele><time>2026-04-12T07:22:55.449Z</time></trkpt><trkpt lat="44.8621" lon="8.2217533"><ele>143.8</ele><time>2026-04-12T07:22:57.449Z</time></trkpt><trkpt lat="44.8620583" lon="8.221685"><ele>143.0</ele><time>2026-04-12T07:22:58.449Z</time></trkpt><trkpt lat="44.86202" lon="8.2216133"><ele>143.0</ele><time>2026-04-12T07:22:59.449Z</time></trkpt><trkpt lat="44.8619667" lon="8.2214833"><ele>143.0</ele><time>2026-04-12T07:23:01.449Z</time></trkpt><trkpt lat="44.8620083" lon="8.2214117"><ele>143.0</ele><time>2026-04-12T07:23:06.449Z</time></trkpt><trkpt lat="44.8620717" lon="8.2213333"><ele>143.0</ele><time>2026-04-12T07:23:08.449Z</time></trkpt><trkpt lat="44.86207" lon="8.2212033"><ele>143.0</ele><time>2026-04-12T07:23:10.449Z</time></trkpt><trkpt lat="44.862025" lon="8.2210967"><ele>143.0</ele><time>2026-04-12T07:23:12.449Z</time></trkpt><trkpt lat="44.86196" lon="8.2210183"><ele>143.20000000000002</ele><time>2026-04-12T07:23:14.449Z</time></trkpt><trkpt lat="44.8619033" lon="8.2209367"><ele>143.4</ele><time>2026-04-12T07:23:16.449Z</time></trkpt><trkpt lat="44.861845" lon="8.2208533"><ele>143.60000000000002</ele><time>2026-04-12T07:23:18.449Z</time></trkpt><trkpt lat="44.86178" lon="8.2207517"><ele>143.8</ele><time>2026-04-12T07:23:20.449Z</time></trkpt><trkpt lat="44.86171" lon="8.2206383"><ele>144.0</ele><time>2026-04-12T07:23:22.449Z</time></trkpt><trkpt lat="44.8616317" lon="8.220515"><ele>144.0</ele><time>2026-04-12T07:23:24.449Z</time></trkpt><trkpt lat="44.8615633" lon="8.22041"><ele>144.0</ele><time>2026-04-12T07:23:26.449Z</time></trkpt><trkpt lat="44.8614933" lon="8.2203033"><ele>144.0</ele><time>2026-04-12T07:23:28.449Z</time></trkpt><trkpt lat="44.8614217" lon="8.2201933"><ele>144.0</ele><time>2026-04-12T07:23:30.449Z</time></trkpt><trkpt lat="44.8613533" lon="8.220085"><ele>144.0</ele><time>2026-04-12T07:23:32.449Z</time></trkpt><trkpt lat="44.8612883" lon="8.2199783"><ele>144.0</ele><time>2026-04-12T07:23:34.449Z</time></trkpt><trkpt lat="44.8612267" lon="8.2198767"><ele>144.0</ele><time>2026-04-12T07:23:36.449Z</time></trkpt><trkpt lat="44.86116" lon="8.2197717"><ele>144.0</ele><time>2026-04-12T07:23:38.449Z</time></trkpt><trkpt lat="44.86109" lon="8.219665"><ele>144.0</ele><time>2026-04-12T07:23:40.45Z</time></trkpt><trkpt lat="44.8610317" lon="8.2195517"><ele>144.0</ele><time>2026-04-12T07:23:42.449Z</time></trkpt><trkpt lat="44.8609767" lon="8.2194433"><ele>144.4</ele><time>2026-04-12T07:23:44.449Z</time></trkpt><trkpt lat="44.8609217" lon="8.21933"><ele>144.8</ele><time>2026-04-12T07:23:46.449Z</time></trkpt><trkpt lat="44.8608683" lon="8.2191883"><ele>145.2</ele><time>2026-04-12T07:23:48.45Z</time></trkpt><trkpt lat="44.8608017" lon="8.2190667"><ele>145.6</ele><time>2026-04-12T07:23:50.449Z</time></trkpt><trkpt lat="44.8607367" lon="8.218935"><ele>146.0</ele><time>2026-04-12T07:23:52.449Z</time></trkpt><trkpt lat="44.8606817" lon="8.21881"><ele>146.0</ele><time>2026-04-12T07:23:54.449Z</time></trkpt><trkpt lat="44.8606333" lon="8.2186867"><ele>146.0</ele><time>2026-04-12T07:23:56.449Z</time></trkpt><trkpt lat="44.8605833" lon="8.21855"><ele>146.0</ele><time>2026-04-12T07:23:58.449Z</time></trkpt><trkpt lat="44.860535" lon="8.2184083"><ele>146.0</ele><time>2026-04-12T07:24:00.449Z</time></trkpt><trkpt lat="44.8604817" lon="8.2182667"><ele>146.0</ele><time>2026-04-12T07:24:02.449Z</time></trkpt><trkpt lat="44.860435" lon="8.2181183"><ele>148.0</ele><time>2026-04-12T07:24:04.449Z</time></trkpt><trkpt lat="44.8603967" lon="8.2179683"><ele>150.0</ele><time>2026-04-12T07:24:06.449Z</time></trkpt><trkpt lat="44.8603567" lon="8.21782"><ele>152.0</ele><time>2026-04-12T07:24:08.449Z</time></trkpt><trkpt lat="44.8603233" lon="8.2176683"><ele>154.0</ele><time>2026-04-12T07:24:10.449Z</time></trkpt><trkpt lat="44.860285" lon="8.2175167"><ele>154.0</ele><time>2026-04-12T07:24:12.449Z</time></trkpt><trkpt lat="44.860245" lon="8.217375"><ele>154.0</ele><time>2026-04-12T07:24:14.449Z</time></trkpt><trkpt lat="44.8602" lon="8.21723"><ele>154.0</ele><time>2026-04-12T07:24:16.449Z</time></trkpt><trkpt lat="44.860155" lon="8.21708"><ele>154.0</ele><time>2026-04-12T07:24:18.449Z</time></trkpt><trkpt lat="44.86011" lon="8.216945"><ele>154.0</ele><time>2026-04-12T07:24:20.449Z</time></trkpt><trkpt lat="44.8600717" lon="8.2168083"><ele>153.2</ele><time>2026-04-12T07:24:22.449Z</time></trkpt><trkpt lat="44.8600433" lon="8.2166567"><ele>152.4</ele><time>2026-04-12T07:24:24.45Z</time></trkpt><trkpt lat="44.860005" lon="8.2165267"><ele>151.6</ele><time>2026-04-12T07:24:26.449Z</time></trkpt><trkpt lat="44.8599683" lon="8.2163833"><ele>150.8</ele><time>2026-04-12T07:24:28.449Z</time></trkpt><trkpt lat="44.8599217" lon="8.2162383"><ele>150.0</ele><time>2026-04-12T07:24:30.449Z</time></trkpt><trkpt lat="44.859875" lon="8.2160833"><ele>150.0</ele><time>2026-04-12T07:24:32.449Z</time></trkpt><trkpt lat="44.8598317" lon="8.2159367"><ele>150.0</ele><time>2026-04-12T07:24:34.449Z</time></trkpt><trkpt lat="44.8598083" lon="8.21579"><ele>150.0</ele><time>2026-04-12T07:24:36.449Z</time></trkpt><trkpt lat="44.8597783" lon="8.2156133"><ele>150.0</ele><time>2026-04-12T07:24:38.449Z</time></trkpt><trkpt lat="44.8597617" lon="8.215515"><ele>150.0</ele><time>2026-04-12T07:24:39.449Z</time></trkpt><trkpt lat="44.8597433" lon="8.21542"><ele>150.33333333333334</ele><time>2026-04-12T07:24:40.449Z</time></trkpt><trkpt lat="44.8597217" lon="8.2153183"><ele>150.66666666666666</ele><time>2026-04-12T07:24:41.449Z</time></trkpt><trkpt lat="44.8597" lon="8.2152267"><ele>151.0</ele><time>2026-04-12T07:24:42.449Z</time></trkpt><trkpt lat="44.8596783" lon="8.2151367"><ele>151.33333333333331</ele><time>2026-04-12T07:24:43.449Z</time></trkpt><trkpt lat="44.8596483" lon="8.2150583"><ele>151.66666666666666</ele><time>2026-04-12T07:24:44.449Z</time></trkpt><trkpt lat="44.8595917" lon="8.2148983"><ele>152.0</ele><time>2026-04-12T07:24:46.449Z</time></trkpt><trkpt lat="44.8595683" lon="8.214815"><ele>153.8</ele><time>2026-04-12T07:24:47.449Z</time></trkpt><trkpt lat="44.8595333" lon="8.2147367"><ele>155.6</ele><time>2026-04-12T07:24:48.449Z</time></trkpt><trkpt lat="44.8594683" lon="8.214605"><ele>157.4</ele><time>2026-04-12T07:24:50.449Z</time></trkpt><trkpt lat="44.8594083" lon="8.2144767"><ele>159.20000000000002</ele><time>2026-04-12T07:24:52.45Z</time></trkpt><trkpt lat="44.8593483" lon="8.2143517"><ele>161.0</ele><time>2026-04-12T07:24:54.449Z</time></trkpt><trkpt lat="44.859295" lon="8.2142167"><ele>158.8</ele><time>2026-04-12T07:24:56.449Z</time></trkpt><trkpt lat="44.8592417" lon="8.2140883"><ele>156.60000000000002</ele><time>2026-04-12T07:24:58.45Z</time></trkpt><trkpt lat="44.85918" lon="8.2139583"><ele>154.4</ele><time>2026-04-12T07:25:00.449Z</time></trkpt><trkpt lat="44.8591167" lon="8.2138283"><ele>152.2</ele><time>2026-04-12T07:25:02.449Z</time></trkpt><trkpt lat="44.859055" lon="8.2137"><ele>150.0</ele><time>2026-04-12T07:25:04.449Z</time></trkpt><trkpt lat="44.859" lon="8.213575"><ele>150.0</ele><time>2026-04-12T07:25:06.449Z</time></trkpt><trkpt lat="44.8589367" lon="8.2134483"><ele>150.0</ele><time>2026-04-12T07:25:08.449Z</time></trkpt><trkpt lat="44.8588767" lon="8.213315"><ele>150.0</ele><time>2026-04-12T07:25:10.449Z</time></trkpt><trkpt lat="44.8588333" lon="8.2131667"><ele>150.0</ele><time>2026-04-12T07:25:12.449Z</time></trkpt><trkpt lat="44.8588217" lon="8.213"><ele>150.0</ele><time>2026-04-12T07:25:14.449Z</time></trkpt><trkpt lat="44.858815" lon="8.2128383"><ele>150.0</ele><time>2026-04-12T07:25:16.449Z</time></trkpt><trkpt lat="44.8588067" lon="8.2126817"><ele>150.0</ele><time>2026-04-12T07:25:18.449Z</time></trkpt><trkpt lat="44.858795" lon="8.212525"><ele>150.0</ele><time>2026-04-12T07:25:20.449Z</time></trkpt><trkpt lat="44.8587783" lon="8.2123683"><ele>149.8</ele><time>2026-04-12T07:25:22.449Z</time></trkpt><trkpt lat="44.858755" lon="8.212205"><ele>149.6</ele><time>2026-04-12T07:25:24.449Z</time></trkpt><trkpt lat="44.85873" lon="8.2120483"><ele>149.4</ele><time>2026-04-12T07:25:26.45Z</time></trkpt><trkpt lat="44.8587067" lon="8.211905"><ele>149.2</ele><time>2026-04-12T07:25:28.449Z</time></trkpt><trkpt lat="44.8586983" lon="8.2117583"><ele>149.0</ele><time>2026-04-12T07:25:30.449Z</time></trkpt><trkpt lat="44.8587167" lon="8.2116133"><ele>149.0</ele><time>2026-04-12T07:25:32.449Z</time></trkpt><trkpt lat="44.85874" lon="8.2114967"><ele>149.0</ele><time>2026-04-12T07:25:34.45Z</time></trkpt><trkpt lat="44.8587383" lon="8.211405"><ele>149.0</ele><time>2026-04-12T07:25:36.449Z</time></trkpt><trkpt lat="44.85868" lon="8.21137"><ele>149.0</ele><time>2026-04-12T07:25:38.449Z</time></trkpt><trkpt lat="44.8585933" lon="8.2113967"><ele>149.0</ele><time>2026-04-12T07:25:40.449Z</time></trkpt><trkpt lat="44.8585033" lon="8.21141"><ele>149.0</ele><time>2026-04-12T07:25:42.449Z</time></trkpt><trkpt lat="44.8583933" lon="8.211405"><ele>151.75</ele><time>2026-04-12T07:25:44.449Z</time></trkpt><trkpt lat="44.8582817" lon="8.211395"><ele>154.5</ele><time>2026-04-12T07:25:46.449Z</time></trkpt><trkpt lat="44.8581583" lon="8.2113833"><ele>157.25</ele><time>2026-04-12T07:25:48.449Z</time></trkpt><trkpt lat="44.8580367" lon="8.2113417"><ele>160.0</ele><time>2026-04-12T07:25:50.449Z</time></trkpt><trkpt lat="44.857915" lon="8.2113183"><ele>160.0</ele><time>2026-04-12T07:25:52.449Z</time></trkpt><trkpt lat="44.8578" lon="8.2112733"><ele>160.0</ele><time>2026-04-12T07:25:54.449Z</time></trkpt><trkpt lat="44.8577417" lon="8.2112333"><ele>160.0</ele><time>2026-04-12T07:25:55.449Z</time></trkpt><trkpt lat="44.8576783" lon="8.2111967"><ele>160.0</ele><time>2026-04-12T07:25:56.449Z</time></trkpt><trkpt lat="44.8576167" lon="8.2111717"><ele>160.0</ele><time>2026-04-12T07:25:57.449Z</time></trkpt><trkpt lat="44.8575033" lon="8.2111283"><ele>160.0</ele><time>2026-04-12T07:25:59.449Z</time></trkpt><trkpt lat="44.8573917" lon="8.2110667"><ele>159.14285714285714</ele><time>2026-04-12T07:26:01.449Z</time></trkpt><trkpt lat="44.85733" lon="8.211025"><ele>158.28571428571428</ele><time>2026-04-12T07:26:02.449Z</time></trkpt><trkpt lat="44.85727" lon="8.2109767"><ele>157.42857142857144</ele><time>2026-04-12T07:26:03.449Z</time></trkpt><trkpt lat="44.8572067" lon="8.2109283"><ele>156.57142857142856</ele><time>2026-04-12T07:26:04.449Z</time></trkpt><trkpt lat="44.8571433" lon="8.2108867"><ele>155.71428571428572</ele><time>2026-04-12T07:26:05.449Z</time></trkpt><trkpt lat="44.8570783" lon="8.2108483"><ele>154.85714285714286</ele><time>2026-04-12T07:26:06.449Z</time></trkpt><trkpt lat="44.8570117" lon="8.21082"><ele>154.0</ele><time>2026-04-12T07:26:07.449Z</time></trkpt><trkpt lat="44.8569467" lon="8.2107867"><ele>154.0</ele><time>2026-04-12T07:26:08.449Z</time></trkpt><trkpt lat="44.85688" lon="8.210755"><ele>154.0</ele><time>2026-04-12T07:26:09.449Z</time></trkpt><trkpt lat="44.8568117" lon="8.2107333"><ele>154.0</ele><time>2026-04-12T07:26:10.449Z</time></trkpt><trkpt lat="44.85675" lon="8.2107117"><ele>154.0</ele><time>2026-04-12T07:26:11.449Z</time></trkpt><trkpt lat="44.85669" lon="8.2106717"><ele>154.0</ele><time>2026-04-12T07:26:12.449Z</time></trkpt><trkpt lat="44.8566333" lon="8.210615"><ele>154.0</ele><time>2026-04-12T07:26:13.449Z</time></trkpt><trkpt lat="44.85658" lon="8.21055"><ele>154.0</ele><time>2026-04-12T07:26:14.449Z</time></trkpt><trkpt lat="44.8565333" lon="8.2104817"><ele>153.71428571428572</ele><time>2026-04-12T07:26:15.449Z</time></trkpt><trkpt lat="44.856485" lon="8.210415"><ele>153.42857142857144</ele><time>2026-04-12T07:26:16.449Z</time></trkpt><trkpt lat="44.8564383" lon="8.2103417"><ele>153.14285714285714</ele><time>2026-04-12T07:26:17.449Z</time></trkpt><trkpt lat="44.8563967" lon="8.210255"><ele>152.85714285714286</ele><time>2026-04-12T07:26:18.449Z</time></trkpt><trkpt lat="44.856355" lon="8.2101817"><ele>152.57142857142858</ele><time>2026-04-12T07:26:19.449Z</time></trkpt><trkpt lat="44.85631" lon="8.210115"><ele>152.28571428571428</ele><time>2026-04-12T07:26:20.449Z</time></trkpt><trkpt lat="44.85626" lon="8.21005"><ele>152.0</ele><time>2026-04-12T07:26:21.449Z</time></trkpt><trkpt lat="44.85621" lon="8.20999"><ele>152.0</ele><time>2026-04-12T07:26:22.45Z</time></trkpt><trkpt lat="44.856155" lon="8.2099317"><ele>152.0</ele><time>2026-04-12T07:26:23.449Z</time></trkpt><trkpt lat="44.8561" lon="8.2098717"><ele>152.0</ele><time>2026-04-12T07:26:24.449Z</time></trkpt><trkpt lat="44.8560467" lon="8.2098183"><ele>152.0</ele><time>2026-04-12T07:26:25.449Z</time></trkpt><trkpt lat="44.8559933" lon="8.209765"><ele>152.0</ele><time>2026-04-12T07:26:26.449Z</time></trkpt><trkpt lat="44.855935" lon="8.209715"><ele>152.0</ele><time>2026-04-12T07:26:27.449Z</time></trkpt><trkpt lat="44.8558767" lon="8.2096583"><ele>152.0</ele><time>2026-04-12T07:26:28.449Z</time></trkpt><trkpt lat="44.85582" lon="8.2095983"><ele>152.0</ele><time>2026-04-12T07:26:29.449Z</time></trkpt><trkpt lat="44.8557183" lon="8.2094767"><ele>152.0</ele><time>2026-04-12T07:26:31.449Z</time></trkpt><trkpt lat="44.8556733" lon="8.2094117"><ele>152.0</ele><time>2026-04-12T07:26:32.449Z</time></trkpt><trkpt lat="44.8556233" lon="8.209355"><ele>152.0</ele><time>2026-04-12T07:26:33.449Z</time></trkpt><trkpt lat="44.8555683" lon="8.209305"><ele>152.0</ele><time>2026-04-12T07:26:34.449Z</time></trkpt><trkpt lat="44.8555067" lon="8.2092633"><ele>152.0</ele><time>2026-04-12T07:26:35.45Z</time></trkpt><trkpt lat="44.8553883" lon="8.2092"><ele>152.0</ele><time>2026-04-12T07:26:37.449Z</time></trkpt><trkpt lat="44.8552683" lon="8.2091467"><ele>152.0</ele><time>2026-04-12T07:26:39.449Z</time></trkpt><trkpt lat="44.8552067" lon="8.2091167"><ele>152.0</ele><time>2026-04-12T07:26:40.449Z</time></trkpt><trkpt lat="44.855145" lon="8.20909"><ele>152.0</ele><time>2026-04-12T07:26:41.449Z</time></trkpt><trkpt lat="44.85508" lon="8.209065"><ele>152.0</ele><time>2026-04-12T07:26:42.449Z</time></trkpt><trkpt lat="44.8549633" lon="8.209005"><ele>152.0</ele><time>2026-04-12T07:26:44.449Z</time></trkpt><trkpt lat="44.8548533" lon="8.208915"><ele>154.0</ele><time>2026-04-12T07:26:46.449Z</time></trkpt><trkpt lat="44.8547933" lon="8.2088783"><ele>156.0</ele><time>2026-04-12T07:26:47.449Z</time></trkpt><trkpt lat="44.85469" lon="8.2087867"><ele>158.0</ele><time>2026-04-12T07:26:49.449Z</time></trkpt><trkpt lat="44.854645" lon="8.20872"><ele>160.0</ele><time>2026-04-12T07:26:50.449Z</time></trkpt><trkpt lat="44.85459" lon="8.20865"><ele>162.0</ele><time>2026-04-12T07:26:51.45Z</time></trkpt><trkpt lat="44.8545333" lon="8.2085917"><ele>164.0</ele><time>2026-04-12T07:26:52.449Z</time></trkpt><trkpt lat="44.8544817" lon="8.2085367"><ele>164.0</ele><time>2026-04-12T07:26:53.449Z</time></trkpt><trkpt lat="44.854375" lon="8.2084467"><ele>164.0</ele><time>2026-04-12T07:26:55.449Z</time></trkpt><trkpt lat="44.85428" lon="8.2083367"><ele>164.0</ele><time>2026-04-12T07:26:57.449Z</time></trkpt><trkpt lat="44.8541833" lon="8.2082283"><ele>164.0</ele><time>2026-04-12T07:26:59.449Z</time></trkpt><trkpt lat="44.8541317" lon="8.2081733"><ele>164.0</ele><time>2026-04-12T07:27:00.449Z</time></trkpt><trkpt lat="44.8540767" lon="8.2081167"><ele>164.16666666666666</ele><time>2026-04-12T07:27:01.449Z</time></trkpt><trkpt lat="44.8540217" lon="8.20807"><ele>164.33333333333331</ele><time>2026-04-12T07:27:02.449Z</time></trkpt><trkpt lat="44.853915" lon="8.2079667"><ele>164.5</ele><time>2026-04-12T07:27:04.449Z</time></trkpt><trkpt lat="44.8538583" lon="8.2079183"><ele>164.66666666666666</ele><time>2026-04-12T07:27:05.449Z</time></trkpt><trkpt lat="44.8538033" lon="8.2078733"><ele>164.83333333333334</ele><time>2026-04-12T07:27:06.449Z</time></trkpt><trkpt lat="44.8536967" lon="8.2077833"><ele>165.0</ele><time>2026-04-12T07:27:08.449Z</time></trkpt><trkpt lat="44.8536433" lon="8.2077333"><ele>165.0</ele><time>2026-04-12T07:27:09.449Z</time></trkpt><trkpt lat="44.8535517" lon="8.2076533"><ele>165.0</ele><time>2026-04-12T07:27:11.449Z</time></trkpt><trkpt lat="44.8534567" lon="8.2075583"><ele>165.0</ele><time>2026-04-12T07:27:13.449Z</time></trkpt><trkpt lat="44.8533583" lon="8.20746"><ele>165.0</ele><time>2026-04-12T07:27:15.449Z</time></trkpt><trkpt lat="44.8532667" lon="8.2073383"><ele>164.2</ele><time>2026-04-12T07:27:17.449Z</time></trkpt><trkpt lat="44.8531833" lon="8.2072017"><ele>163.4</ele><time>2026-04-12T07:27:19.449Z</time></trkpt><trkpt lat="44.853105" lon="8.2070667"><ele>162.60000000000002</ele><time>2026-04-12T07:27:21.449Z</time></trkpt><trkpt lat="44.8530317" lon="8.2069283"><ele>161.8</ele><time>2026-04-12T07:27:23.449Z</time></trkpt><trkpt lat="44.8529933" lon="8.2068567"><ele>161.0</ele><time>2026-04-12T07:27:24.449Z</time></trkpt><trkpt lat="44.8529217" lon="8.2067233"><ele>161.0</ele><time>2026-04-12T07:27:26.449Z</time></trkpt><trkpt lat="44.8528317" lon="8.20661"><ele>161.0</ele><time>2026-04-12T07:27:28.45Z</time></trkpt><trkpt lat="44.8527217" lon="8.206525"><ele>161.0</ele><time>2026-04-12T07:27:30.449Z</time></trkpt><trkpt lat="44.85266" lon="8.2064817"><ele>161.0</ele><time>2026-04-12T07:27:31.45Z</time></trkpt><trkpt lat="44.8525967" lon="8.20644"><ele>161.0</ele><time>2026-04-12T07:27:32.449Z</time></trkpt><trkpt lat="44.8525367" lon="8.2064117"><ele>161.0</ele><time>2026-04-12T07:27:33.449Z</time></trkpt><trkpt lat="44.852425" lon="8.2063483"><ele>161.0</ele><time>2026-04-12T07:27:35.449Z</time></trkpt><trkpt lat="44.8523183" lon="8.20627"><ele>161.0</ele><time>2026-04-12T07:27:37.45Z</time></trkpt><trkpt lat="44.8522267" lon="8.206165"><ele>161.0</ele><time>2026-04-12T07:27:39.449Z</time></trkpt><trkpt lat="44.85213" lon="8.20607"><ele>161.0</ele><time>2026-04-12T07:27:41.449Z</time></trkpt><trkpt lat="44.8520283" lon="8.205975"><ele>161.0</ele><time>2026-04-12T07:27:43.449Z</time></trkpt><trkpt lat="44.8519767" lon="8.2059133"><ele>161.0</ele><time>2026-04-12T07:27:44.449Z</time></trkpt><trkpt lat="44.8519317" lon="8.205845"><ele>161.0</ele><time>2026-04-12T07:27:45.449Z</time></trkpt><trkpt lat="44.85185" lon="8.20572"><ele>161.0</ele><time>2026-04-12T07:27:47.449Z</time></trkpt><trkpt lat="44.851765" lon="8.205595"><ele>161.0</ele><time>2026-04-12T07:27:49.449Z</time></trkpt><trkpt lat="44.8516867" lon="8.2054617"><ele>161.4</ele><time>2026-04-12T07:27:51.449Z</time></trkpt><trkpt lat="44.85165" lon="8.2053867"><ele>161.8</ele><time>2026-04-12T07:27:52.449Z</time></trkpt><trkpt lat="44.8515817" lon="8.205245"><ele>162.20000000000002</ele><time>2026-04-12T07:27:54.449Z</time></trkpt><trkpt lat="44.85152" lon="8.2050967"><ele>162.60000000000002</ele><time>2026-04-12T07:27:56.449Z</time></trkpt><trkpt lat="44.8514633" lon="8.20494"><ele>163.0</ele><time>2026-04-12T07:27:58.449Z</time></trkpt><trkpt lat="44.8514117" lon="8.2047783"><ele>164.0</ele><time>2026-04-12T07:28:00.449Z</time></trkpt><trkpt lat="44.85138" lon="8.204695"><ele>165.0</ele><time>2026-04-12T07:28:01.449Z</time></trkpt><trkpt lat="44.85135" lon="8.2046167"><ele>166.0</ele><time>2026-04-12T07:28:02.449Z</time></trkpt><trkpt lat="44.85132" lon="8.204535"><ele>167.0</ele><time>2026-04-12T07:28:03.449Z</time></trkpt><trkpt lat="44.8512883" lon="8.2044517"><ele>168.0</ele><time>2026-04-12T07:28:04.449Z</time></trkpt><trkpt lat="44.8512533" lon="8.2043717"><ele>169.0</ele><time>2026-04-12T07:28:05.449Z</time></trkpt><trkpt lat="44.8512183" lon="8.2042933"><ele>170.0</ele><time>2026-04-12T07:28:06.449Z</time></trkpt><trkpt lat="44.8511883" lon="8.2042083"><ele>170.0</ele><time>2026-04-12T07:28:07.449Z</time></trkpt><trkpt lat="44.8511533" lon="8.2041333"><ele>170.0</ele><time>2026-04-12T07:28:08.449Z</time></trkpt><trkpt lat="44.8510667" lon="8.2040083"><ele>170.0</ele><time>2026-04-12T07:28:10.449Z</time></trkpt><trkpt lat="44.850945" lon="8.2039417"><ele>170.0</ele><time>2026-04-12T07:28:12.449Z</time></trkpt><trkpt lat="44.85088" lon="8.2039317"><ele>170.0</ele><time>2026-04-12T07:28:13.449Z</time></trkpt><trkpt lat="44.8508167" lon="8.2039383"><ele>170.0</ele><time>2026-04-12T07:28:14.449Z</time></trkpt><trkpt lat="44.850705" lon="8.2039833"><ele>168.2</ele><time>2026-04-12T07:28:16.449Z</time></trkpt><trkpt lat="44.8506167" lon="8.2040233"><ele>166.4</ele><time>2026-04-12T07:28:18.449Z</time></trkpt><trkpt lat="44.8505467" lon="8.2040533"><ele>164.60000000000002</ele><time>2026-04-12T07:28:20.449Z</time></trkpt><trkpt lat="44.8504733" lon="8.2041217"><ele>162.8</ele><time>2026-04-12T07:28:22.449Z</time></trkpt><trkpt lat="44.8503767" lon="8.2042"><ele>161.0</ele><time>2026-04-12T07:28:24.449Z</time></trkpt><trkpt lat="44.8502617" lon="8.2042617"><ele>161.0</ele><time>2026-04-12T07:28:26.449Z</time></trkpt><trkpt lat="44.850195" lon="8.2042867"><ele>161.0</ele><time>2026-04-12T07:28:27.449Z</time></trkpt><trkpt lat="44.8501283" lon="8.20431"><ele>161.0</ele><time>2026-04-12T07:28:28.449Z</time></trkpt><trkpt lat="44.8500617" lon="8.20433"><ele>161.0</ele><time>2026-04-12T07:28:29.449Z</time></trkpt><trkpt lat="44.849995" lon="8.204345"><ele>161.0</ele><time>2026-04-12T07:28:30.45Z</time></trkpt><trkpt lat="44.849875" lon="8.204335"><ele>161.0</ele><time>2026-04-12T07:28:32.449Z</time></trkpt><trkpt lat="44.8497567" lon="8.2042967"><ele>161.16666666666666</ele><time>2026-04-12T07:28:34.45Z</time></trkpt><trkpt lat="44.84964" lon="8.20424"><ele>161.33333333333331</ele><time>2026-04-12T07:28:36.449Z</time></trkpt><trkpt lat="44.8495767" lon="8.2042083"><ele>161.5</ele><time>2026-04-12T07:28:37.449Z</time></trkpt><trkpt lat="44.849515" lon="8.20417"><ele>161.66666666666666</ele><time>2026-04-12T07:28:38.449Z</time></trkpt><trkpt lat="44.8494567" lon="8.2041233"><ele>161.83333333333334</ele><time>2026-04-12T07:28:39.449Z</time></trkpt><trkpt lat="44.8494" lon="8.2040717"><ele>162.0</ele><time>2026-04-12T07:28:40.45Z</time></trkpt><trkpt lat="44.8493067" lon="8.2039717"><ele>162.75</ele><time>2026-04-12T07:28:42.449Z</time></trkpt><trkpt lat="44.849225" lon="8.2038583"><ele>163.5</ele><time>2026-04-12T07:28:44.449Z</time></trkpt><trkpt lat="44.8491467" lon="8.2037483"><ele>164.25</ele><time>2026-04-12T07:28:46.449Z</time></trkpt><trkpt lat="44.849065" lon="8.203635"><ele>165.0</ele><time>2026-04-12T07:28:48.449Z</time></trkpt><trkpt lat="44.8489767" lon="8.2035283"><ele>165.0</ele><time>2026-04-12T07:28:50.449Z</time></trkpt><trkpt lat="44.84889" lon="8.20342"><ele>165.0</ele><time>2026-04-12T07:28:52.449Z</time></trkpt><trkpt lat="44.8488067" lon="8.20331"><ele>165.0</ele><time>2026-04-12T07:28:54.449Z</time></trkpt><trkpt lat="44.8487267" lon="8.2031833"><ele>165.0</ele><time>2026-04-12T07:28:56.449Z</time></trkpt><trkpt lat="44.848685" lon="8.203115"><ele>165.0</ele><time>2026-04-12T07:28:57.449Z</time></trkpt><trkpt lat="44.848605" lon="8.2029867"><ele>164.0</ele><time>2026-04-12T07:28:59.449Z</time></trkpt><trkpt lat="44.8485617" lon="8.2029217"><ele>163.0</ele><time>2026-04-12T07:29:00.449Z</time></trkpt><trkpt lat="44.8484817" lon="8.2027783"><ele>162.0</ele><time>2026-04-12T07:29:02.449Z</time></trkpt><trkpt lat="44.8484467" lon="8.2026967"><ele>161.0</ele><time>2026-04-12T07:29:03.449Z</time></trkpt><trkpt lat="44.8484083" lon="8.2026183"><ele>160.0</ele><time>2026-04-12T07:29:04.449Z</time></trkpt><trkpt lat="44.84837" lon="8.2025467"><ele>159.0</ele><time>2026-04-12T07:29:05.449Z</time></trkpt><trkpt lat="44.8483383" lon="8.202465"><ele>159.0</ele><time>2026-04-12T07:29:06.449Z</time></trkpt><trkpt lat="44.848305" lon="8.20238"><ele>159.0</ele><time>2026-04-12T07:29:07.449Z</time></trkpt><trkpt lat="44.8482733" lon="8.2022867"><ele>159.0</ele><time>2026-04-12T07:29:08.449Z</time></trkpt><trkpt lat="44.8482367" lon="8.2021983"><ele>159.0</ele><time>2026-04-12T07:29:09.449Z</time></trkpt><trkpt lat="44.8482017" lon="8.2021083"><ele>159.0</ele><time>2026-04-12T07:29:10.449Z</time></trkpt><trkpt lat="44.8481667" lon="8.2020133"><ele>159.0</ele><time>2026-04-12T07:29:11.449Z</time></trkpt><trkpt lat="44.8481267" lon="8.2019233"><ele>159.0</ele><time>2026-04-12T07:29:12.449Z</time></trkpt><trkpt lat="44.8480883" lon="8.2018383"><ele>160.0</ele><time>2026-04-12T07:29:13.449Z</time></trkpt><trkpt lat="44.84805" lon="8.2017633"><ele>161.0</ele><time>2026-04-12T07:29:14.449Z</time></trkpt><trkpt lat="44.8480067" lon="8.2016867"><ele>162.0</ele><time>2026-04-12T07:29:15.449Z</time></trkpt><trkpt lat="44.8479633" lon="8.2016117"><ele>163.0</ele><time>2026-04-12T07:29:16.449Z</time></trkpt><trkpt lat="44.8479167" lon="8.2015367"><ele>164.0</ele><time>2026-04-12T07:29:17.449Z</time></trkpt><trkpt lat="44.8478633" lon="8.201465"><ele>165.0</ele><time>2026-04-12T07:29:18.449Z</time></trkpt><trkpt lat="44.8478117" lon="8.2013967"><ele>166.0</ele><time>2026-04-12T07:29:19.449Z</time></trkpt><trkpt lat="44.8477583" lon="8.2013317"><ele>165.7142857142857</ele><time>2026-04-12T07:29:20.449Z</time></trkpt><trkpt lat="44.8477033" lon="8.2012667"><ele>165.42857142857144</ele><time>2026-04-12T07:29:21.449Z</time></trkpt><trkpt lat="44.8476517" lon="8.2011933"><ele>165.14285714285714</ele><time>2026-04-12T07:29:22.449Z</time></trkpt><trkpt lat="44.847605" lon="8.20112"><ele>164.85714285714283</ele><time>2026-04-12T07:29:23.449Z</time></trkpt><trkpt lat="44.8475583" lon="8.201045"><ele>164.57142857142856</ele><time>2026-04-12T07:29:24.449Z</time></trkpt><trkpt lat="44.847515" lon="8.2009717"><ele>164.28571428571428</ele><time>2026-04-12T07:29:25.449Z</time></trkpt><trkpt lat="44.847475" lon="8.2008867"><ele>164.0</ele><time>2026-04-12T07:29:26.449Z</time></trkpt><trkpt lat="44.847435" lon="8.200805"><ele>163.99999999999997</ele><time>2026-04-12T07:29:27.449Z</time></trkpt><trkpt lat="44.8474033" lon="8.2007183"><ele>164.0</ele><time>2026-04-12T07:29:28.449Z</time></trkpt><trkpt lat="44.8473733" lon="8.2006283"><ele>164.0</ele><time>2026-04-12T07:29:29.449Z</time></trkpt><trkpt lat="44.84735" lon="8.2005367"><ele>164.0</ele><time>2026-04-12T07:29:30.449Z</time></trkpt><trkpt lat="44.84733" lon="8.2004417"><ele>164.0</ele><time>2026-04-12T07:29:31.449Z</time></trkpt><trkpt lat="44.8473083" lon="8.2003467"><ele>163.99999999999997</ele><time>2026-04-12T07:29:32.449Z</time></trkpt><trkpt lat="44.8472783" lon="8.2002617"><ele>164.0</ele><time>2026-04-12T07:29:33.449Z</time></trkpt><trkpt lat="44.8472467" lon="8.20018"><ele>163.83333333333331</ele><time>2026-04-12T07:29:34.449Z</time></trkpt><trkpt lat="44.8472183" lon="8.2000933"><ele>163.66666666666666</ele><time>2026-04-12T07:29:35.449Z</time></trkpt><trkpt lat="44.84719" lon="8.200005"><ele>163.5</ele><time>2026-04-12T07:29:36.449Z</time></trkpt><trkpt lat="44.8471667" lon="8.1999083"><ele>163.33333333333334</ele><time>2026-04-12T07:29:37.449Z</time></trkpt><trkpt lat="44.8471417" lon="8.199825"><ele>163.16666666666669</ele><time>2026-04-12T07:29:38.449Z</time></trkpt><trkpt lat="44.84711" lon="8.1996617"><ele>163.0</ele><time>2026-04-12T07:29:40.449Z</time></trkpt><trkpt lat="44.847065" lon="8.1995183"><ele>161.20000000000002</ele><time>2026-04-12T07:29:42.449Z</time></trkpt><trkpt lat="44.8470217" lon="8.1993783"><ele>159.4</ele><time>2026-04-12T07:29:44.449Z</time></trkpt><trkpt lat="44.8469517" lon="8.19925"><ele>157.60000000000002</ele><time>2026-04-12T07:29:46.449Z</time></trkpt><trkpt lat="44.8469067" lon="8.199185"><ele>155.8</ele><time>2026-04-12T07:29:47.449Z</time></trkpt><trkpt lat="44.8468167" lon="8.1990733"><ele>154.0</ele><time>2026-04-12T07:29:49.449Z</time></trkpt><trkpt lat="44.8467283" lon="8.1989767"><ele>153.0</ele><time>2026-04-12T07:29:51.449Z</time></trkpt><trkpt lat="44.84664" lon="8.1988883"><ele>152.0</ele><time>2026-04-12T07:29:53.449Z</time></trkpt><trkpt lat="44.8465383" lon="8.1988083"><ele>151.0</ele><time>2026-04-12T07:29:55.449Z</time></trkpt><trkpt lat="44.8464317" lon="8.19873"><ele>150.0</ele><time>2026-04-12T07:29:57.449Z</time></trkpt><trkpt lat="44.8463233" lon="8.198695"><ele>150.0</ele><time>2026-04-12T07:29:59.449Z</time></trkpt><trkpt lat="44.8462367" lon="8.198715"><ele>150.0</ele><time>2026-04-12T07:30:01.449Z</time></trkpt><trkpt lat="44.8461633" lon="8.1987833"><ele>150.0</ele><time>2026-04-12T07:30:03.449Z</time></trkpt><trkpt lat="44.8461017" lon="8.1988683"><ele>150.0</ele><time>2026-04-12T07:30:05.449Z</time></trkpt><trkpt lat="44.8460317" lon="8.1989533"><ele>150.0</ele><time>2026-04-12T07:30:07.449Z</time></trkpt><trkpt lat="44.8459483" lon="8.1990217"><ele>152.4</ele><time>2026-04-12T07:30:09.449Z</time></trkpt><trkpt lat="44.8458583" lon="8.19911"><ele>154.8</ele><time>2026-04-12T07:30:11.449Z</time></trkpt><trkpt lat="44.8457633" lon="8.199185"><ele>157.2</ele><time>2026-04-12T07:30:13.449Z</time></trkpt><trkpt lat="44.84568" lon="8.1992417"><ele>159.6</ele><time>2026-04-12T07:30:15.449Z</time></trkpt><trkpt lat="44.8455967" lon="8.19929"><ele>162.0</ele><time>2026-04-12T07:30:17.449Z</time></trkpt><trkpt lat="44.845515" lon="8.1993367"><ele>162.0</ele><time>2026-04-12T07:30:19.449Z</time></trkpt><trkpt lat="44.8454267" lon="8.1993983"><ele>162.0</ele><time>2026-04-12T07:30:21.449Z</time></trkpt><trkpt lat="44.845335" lon="8.1994567"><ele>162.0</ele><time>2026-04-12T07:30:23.449Z</time></trkpt><trkpt lat="44.8452383" lon="8.1995117"><ele>162.0</ele><time>2026-04-12T07:30:25.449Z</time></trkpt><trkpt lat="44.8451533" lon="8.1995683"><ele>162.0</ele><time>2026-04-12T07:30:27.449Z</time></trkpt><trkpt lat="44.84507" lon="8.199625"><ele>161.66666666666666</ele><time>2026-04-12T07:30:29.449Z</time></trkpt><trkpt lat="44.8449933" lon="8.19969"><ele>161.33333333333334</ele><time>2026-04-12T07:30:31.449Z</time></trkpt><trkpt lat="44.84492" lon="8.199765"><ele>161.0</ele><time>2026-04-12T07:30:33.449Z</time></trkpt><trkpt lat="44.8448517" lon="8.1998433"><ele>160.66666666666669</ele><time>2026-04-12T07:30:35.449Z</time></trkpt><trkpt lat="44.8447817" lon="8.1999183"><ele>160.33333333333334</ele><time>2026-04-12T07:30:37.449Z</time></trkpt><trkpt lat="44.8447083" lon="8.1999983"><ele>160.0</ele><time>2026-04-12T07:30:39.449Z</time></trkpt><trkpt lat="44.8446433" lon="8.2000783"><ele>160.66666666666669</ele><time>2026-04-12T07:30:41.449Z</time></trkpt><trkpt lat="44.84458" lon="8.2001583"><ele>161.33333333333334</ele><time>2026-04-12T07:30:43.449Z</time></trkpt><trkpt lat="44.84452" lon="8.2002333"><ele>162.0</ele><time>2026-04-12T07:30:45.449Z</time></trkpt><trkpt lat="44.84446" lon="8.20031"><ele>162.66666666666666</ele><time>2026-04-12T07:30:47.449Z</time></trkpt><trkpt lat="44.8443983" lon="8.20039"><ele>163.33333333333331</ele><time>2026-04-12T07:30:49.449Z</time></trkpt><trkpt lat="44.844335" lon="8.2004717"><ele>164.0</ele><time>2026-04-12T07:30:51.449Z</time></trkpt><trkpt lat="44.8442833" lon="8.2005533"><ele>164.42857142857142</ele><time>2026-04-12T07:30:53.449Z</time></trkpt><trkpt lat="44.8442283" lon="8.2006317"><ele>164.85714285714286</ele><time>2026-04-12T07:30:55.45Z</time></trkpt><trkpt lat="44.84418" lon="8.20072"><ele>165.28571428571428</ele><time>2026-04-12T07:30:57.449Z</time></trkpt><trkpt lat="44.8441417" lon="8.2008033"><ele>165.71428571428572</ele><time>2026-04-12T07:30:59.449Z</time></trkpt><trkpt lat="44.8441017" lon="8.2008867"><ele>166.14285714285714</ele><time>2026-04-12T07:31:01.449Z</time></trkpt><trkpt lat="44.8440533" lon="8.2009617"><ele>166.57142857142856</ele><time>2026-04-12T07:31:03.449Z</time></trkpt><trkpt lat="44.844015" lon="8.20105"><ele>167.0</ele><time>2026-04-12T07:31:05.449Z</time></trkpt><trkpt lat="44.8439767" lon="8.201145"><ele>167.5</ele><time>2026-04-12T07:31:07.449Z</time></trkpt><trkpt lat="44.8439383" lon="8.20123"><ele>168.0</ele><time>2026-04-12T07:31:09.449Z</time></trkpt><trkpt lat="44.8439133" lon="8.20133"><ele>168.5</ele><time>2026-04-12T07:31:11.449Z</time></trkpt><trkpt lat="44.8438883" lon="8.2014217"><ele>169.0</ele><time>2026-04-12T07:31:13.449Z</time></trkpt><trkpt lat="44.8438517" lon="8.2015433"><ele>169.5</ele><time>2026-04-12T07:31:16.449Z</time></trkpt><trkpt lat="44.84381" lon="8.2016383"><ele>170.0</ele><time>2026-04-12T07:31:18.449Z</time></trkpt><trkpt lat="44.8437683" lon="8.2017233"><ele>170.57142857142858</ele><time>2026-04-12T07:31:20.449Z</time></trkpt><trkpt lat="44.8437167" lon="8.2017867"><ele>171.14285714285714</ele><time>2026-04-12T07:31:22.449Z</time></trkpt><trkpt lat="44.8436583" lon="8.201845"><ele>171.71428571428572</ele><time>2026-04-12T07:31:24.449Z</time></trkpt><trkpt lat="44.843605" lon="8.2019"><ele>172.28571428571428</ele><time>2026-04-12T07:31:26.449Z</time></trkpt><trkpt lat="44.843545" lon="8.2019433"><ele>172.85714285714286</ele><time>2026-04-12T07:31:28.45Z</time></trkpt><trkpt lat="44.8434767" lon="8.20198"><ele>173.42857142857142</ele><time>2026-04-12T07:31:30.449Z</time></trkpt><trkpt lat="44.843405" lon="8.2020217"><ele>174.0</ele><time>2026-04-12T07:31:32.449Z</time></trkpt><trkpt lat="44.8433383" lon="8.20206"><ele>174.0</ele><time>2026-04-12T07:31:34.449Z</time></trkpt><trkpt lat="44.8432717" lon="8.2021067"><ele>174.0</ele><time>2026-04-12T07:31:36.449Z</time></trkpt><trkpt lat="44.84321" lon="8.2021483"><ele>174.0</ele><time>2026-04-12T07:31:38.449Z</time></trkpt><trkpt lat="44.8431483" lon="8.2021833"><ele>174.0</ele><time>2026-04-12T07:31:40.449Z</time></trkpt><trkpt lat="44.843085" lon="8.20221"><ele>174.0</ele><time>2026-04-12T07:31:42.449Z</time></trkpt><trkpt lat="44.843015" lon="8.20223"><ele>174.0</ele><time>2026-04-12T07:31:44.449Z</time></trkpt><trkpt lat="44.84295" lon="8.2022433"><ele>174.0</ele><time>2026-04-12T07:31:46.449Z</time></trkpt><trkpt lat="44.8428833" lon="8.20226"><ele>174.0</ele><time>2026-04-12T07:31:48.45Z</time></trkpt><trkpt lat="44.8428133" lon="8.202285"><ele>174.0</ele><time>2026-04-12T07:31:50.449Z</time></trkpt><trkpt lat="44.8427517" lon="8.2023233"><ele>174.0</ele><time>2026-04-12T07:31:52.449Z</time></trkpt><trkpt lat="44.8426917" lon="8.202415"><ele>174.0</ele><time>2026-04-12T07:31:55.449Z</time></trkpt><trkpt lat="44.8426833" lon="8.2025383"><ele>174.0</ele><time>2026-04-12T07:31:58.449Z</time></trkpt><trkpt lat="44.84271" lon="8.2026217"><ele>174.0</ele><time>2026-04-12T07:32:00.449Z</time></trkpt><trkpt lat="44.842785" lon="8.2026767"><ele>175.57142857142856</ele><time>2026-04-12T07:32:03.449Z</time></trkpt><trkpt lat="44.8428533" lon="8.2026683"><ele>177.14285714285714</ele><time>2026-04-12T07:32:05.449Z</time></trkpt><trkpt lat="44.8429367" lon="8.20266"><ele>178.71428571428572</ele><time>2026-04-12T07:32:07.449Z</time></trkpt><trkpt lat="44.8430117" lon="8.2026783"><ele>180.28571428571428</ele><time>2026-04-12T07:32:09.449Z</time></trkpt><trkpt lat="44.8430817" lon="8.2027083"><ele>181.85714285714286</ele><time>2026-04-12T07:32:11.449Z</time></trkpt><trkpt lat="44.84315" lon="8.2027383"><ele>183.42857142857142</ele><time>2026-04-12T07:32:13.45Z</time></trkpt><trkpt lat="44.8432083" lon="8.20279"><ele>185.0</ele><time>2026-04-12T07:32:15.449Z</time></trkpt><trkpt lat="44.8432767" lon="8.20288"><ele>185.0</ele><time>2026-04-12T07:32:18.449Z</time></trkpt><trkpt lat="44.8433367" lon="8.2029783"><ele>185.0</ele><time>2026-04-12T07:32:21.449Z</time></trkpt><trkpt lat="44.8433733" lon="8.2030533"><ele>185.0</ele><time>2026-04-12T07:32:23.449Z</time></trkpt><trkpt lat="44.8434167" lon="8.203175"><ele>185.0</ele><time>2026-04-12T07:32:26.449Z</time></trkpt><trkpt lat="44.8434217" lon="8.2032667"><ele>185.0</ele><time>2026-04-12T07:32:28.45Z</time></trkpt><trkpt lat="44.8433983" lon="8.2033733"><ele>185.0</ele><time>2026-04-12T07:32:31.449Z</time></trkpt><trkpt lat="44.8433333" lon="8.203455"><ele>185.99999999999997</ele><time>2026-04-12T07:32:34.449Z</time></trkpt><trkpt lat="44.8432833" lon="8.2035317"><ele>187.0</ele><time>2026-04-12T07:32:36.449Z</time></trkpt><trkpt lat="44.8432317" lon="8.203615"><ele>188.0</ele><time>2026-04-12T07:32:38.449Z</time></trkpt><trkpt lat="44.84319" lon="8.2037"><ele>189.0</ele><time>2026-04-12T07:32:40.449Z</time></trkpt><trkpt lat="44.8431433" lon="8.2037783"><ele>190.0</ele><time>2026-04-12T07:32:42.449Z</time></trkpt><trkpt lat="44.843115" lon="8.2038633"><ele>190.99999999999997</ele><time>2026-04-12T07:32:44.449Z</time></trkpt><trkpt lat="44.84305" lon="8.20394"><ele>192.0</ele><time>2026-04-12T07:32:47.449Z</time></trkpt><trkpt lat="44.843005" lon="8.2040117"><ele>192.0</ele><time>2026-04-12T07:32:49.449Z</time></trkpt><trkpt lat="44.8429583" lon="8.204085"><ele>192.0</ele><time>2026-04-12T07:32:51.449Z</time></trkpt><trkpt lat="44.84291" lon="8.2041683"><ele>192.0</ele><time>2026-04-12T07:32:53.449Z</time></trkpt><trkpt lat="44.8428433" lon="8.204245"><ele>192.0</ele><time>2026-04-12T07:32:55.449Z</time></trkpt><trkpt lat="44.8427817" lon="8.2043233"><ele>192.0</ele><time>2026-04-12T07:32:57.449Z</time></trkpt><trkpt lat="44.8427183" lon="8.2043983"><ele>192.0</ele><time>2026-04-12T07:32:59.449Z</time></trkpt><trkpt lat="44.8426633" lon="8.2044833"><ele>192.66666666666666</ele><time>2026-04-12T07:33:01.449Z</time></trkpt><trkpt lat="44.8425983" lon="8.2045583"><ele>193.33333333333331</ele><time>2026-04-12T07:33:03.449Z</time></trkpt><trkpt lat="44.8425283" lon="8.2046517"><ele>194.0</ele><time>2026-04-12T07:33:05.449Z</time></trkpt><trkpt lat="44.842465" lon="8.2047467"><ele>194.66666666666666</ele><time>2026-04-12T07:33:07.449Z</time></trkpt><trkpt lat="44.842395" lon="8.2048283"><ele>195.33333333333331</ele><time>2026-04-12T07:33:09.449Z</time></trkpt><trkpt lat="44.8423317" lon="8.2048917"><ele>196.0</ele><time>2026-04-12T07:33:11.45Z</time></trkpt><trkpt lat="44.8422767" lon="8.2049467"><ele>195.99999999999997</ele><time>2026-04-12T07:33:13.449Z</time></trkpt><trkpt lat="44.84222" lon="8.204995"><ele>196.0</ele><time>2026-04-12T07:33:15.449Z</time></trkpt><trkpt lat="44.842155" lon="8.2050683"><ele>196.0</ele><time>2026-04-12T07:33:17.449Z</time></trkpt><trkpt lat="44.84209" lon="8.2051367"><ele>196.0</ele><time>2026-04-12T07:33:19.45Z</time></trkpt><trkpt lat="44.842015" lon="8.2052117"><ele>195.99999999999997</ele><time>2026-04-12T07:33:21.449Z</time></trkpt><trkpt lat="44.8419217" lon="8.2053067"><ele>196.0</ele><time>2026-04-12T07:33:23.449Z</time></trkpt><trkpt lat="44.8418167" lon="8.2053967"><ele>195.60000000000002</ele><time>2026-04-12T07:33:25.449Z</time></trkpt><trkpt lat="44.84176" lon="8.2054367"><ele>195.2</ele><time>2026-04-12T07:33:26.449Z</time></trkpt><trkpt lat="44.8416483" lon="8.2054833"><ele>194.8</ele><time>2026-04-12T07:33:28.45Z</time></trkpt><trkpt lat="44.8415433" lon="8.20555"><ele>194.39999999999998</ele><time>2026-04-12T07:33:30.449Z</time></trkpt><trkpt lat="44.841455" lon="8.20562"><ele>194.0</ele><time>2026-04-12T07:33:32.449Z</time></trkpt><trkpt lat="44.84138" lon="8.2057033"><ele>194.0</ele><time>2026-04-12T07:33:34.449Z</time></trkpt><trkpt lat="44.8413133" lon="8.2058117"><ele>194.0</ele><time>2026-04-12T07:33:36.449Z</time></trkpt><trkpt lat="44.8412367" lon="8.2059133"><ele>194.0</ele><time>2026-04-12T07:33:38.449Z</time></trkpt><trkpt lat="44.8411683" lon="8.2060167"><ele>194.0</ele><time>2026-04-12T07:33:40.449Z</time></trkpt><trkpt lat="44.8410833" lon="8.206115"><ele>194.0</ele><time>2026-04-12T07:33:42.449Z</time></trkpt><trkpt lat="44.841" lon="8.2062083"><ele>195.66666666666669</ele><time>2026-04-12T07:33:44.449Z</time></trkpt><trkpt lat="44.84092" lon="8.2062883"><ele>197.33333333333334</ele><time>2026-04-12T07:33:46.449Z</time></trkpt><trkpt lat="44.8408283" lon="8.2063583"><ele>199.0</ele><time>2026-04-12T07:33:48.449Z</time></trkpt><trkpt lat="44.8407433" lon="8.2064117"><ele>200.66666666666669</ele><time>2026-04-12T07:33:50.449Z</time></trkpt><trkpt lat="44.84067" lon="8.206445"><ele>202.33333333333334</ele><time>2026-04-12T07:33:52.449Z</time></trkpt><trkpt lat="44.8406017" lon="8.20647"><ele>204.0</ele><time>2026-04-12T07:33:54.449Z</time></trkpt><trkpt lat="44.840535" lon="8.2064917"><ele>202.66666666666666</ele><time>2026-04-12T07:33:56.449Z</time></trkpt><trkpt lat="44.8404483" lon="8.2065033"><ele>201.33333333333331</ele><time>2026-04-12T07:33:59.449Z</time></trkpt><trkpt lat="44.840375" lon="8.206525"><ele>200.0</ele><time>2026-04-12T07:34:02.449Z</time></trkpt><trkpt lat="44.8403" lon="8.2065233"><ele>198.66666666666666</ele><time>2026-04-12T07:34:05.449Z</time></trkpt><trkpt lat="44.8402183" lon="8.2065117"><ele>197.33333333333331</ele><time>2026-04-12T07:34:08.449Z</time></trkpt><trkpt lat="44.84014" lon="8.2065117"><ele>196.0</ele><time>2026-04-12T07:34:11.449Z</time></trkpt><trkpt lat="44.8400667" lon="8.2064917"><ele>199.71428571428572</ele><time>2026-04-12T07:34:14.449Z</time></trkpt><trkpt lat="44.8399983" lon="8.2064817"><ele>203.42857142857144</ele><time>2026-04-12T07:34:17.449Z</time></trkpt><trkpt lat="44.8399183" lon="8.2064667"><ele>207.14285714285714</ele><time>2026-04-12T07:34:20.45Z</time></trkpt><trkpt lat="44.8398383" lon="8.2064567"><ele>210.85714285714286</ele><time>2026-04-12T07:34:23.449Z</time></trkpt><trkpt lat="44.8397633" lon="8.2064283"><ele>214.57142857142858</ele><time>2026-04-12T07:34:26.449Z</time></trkpt><trkpt lat="44.8396967" lon="8.206385"><ele>218.28571428571428</ele><time>2026-04-12T07:34:29.449Z</time></trkpt><trkpt lat="44.839635" lon="8.2063617"><ele>222.0</ele><time>2026-04-12T07:34:31.449Z</time></trkpt><trkpt lat="44.8395533" lon="8.2063283"><ele>222.0</ele><time>2026-04-12T07:34:34.449Z</time></trkpt><trkpt lat="44.8394733" lon="8.206305"><ele>222.0</ele><time>2026-04-12T07:34:37.449Z</time></trkpt><trkpt lat="44.8393917" lon="8.2062967"><ele>222.0</ele><time>2026-04-12T07:34:40.449Z</time></trkpt><trkpt lat="44.8393033" lon="8.2062683"><ele>222.0</ele><time>2026-04-12T07:34:43.449Z</time></trkpt><trkpt lat="44.83922" lon="8.206245"><ele>222.0</ele><time>2026-04-12T07:34:46.449Z</time></trkpt><trkpt lat="44.83912" lon="8.2062283"><ele>222.0</ele><time>2026-04-12T07:34:50.449Z</time></trkpt><trkpt lat="44.83904" lon="8.20622"><ele>222.83333333333334</ele><time>2026-04-12T07:34:53.449Z</time></trkpt><trkpt lat="44.838955" lon="8.2062117"><ele>223.66666666666669</ele><time>2026-04-12T07:34:56.449Z</time></trkpt><trkpt lat="44.83888" lon="8.206205"><ele>224.5</ele><time>2026-04-12T07:34:59.449Z</time></trkpt><trkpt lat="44.8387967" lon="8.2062117"><ele>225.33333333333334</ele><time>2026-04-12T07:35:02.449Z</time></trkpt><trkpt lat="44.83871" lon="8.2062117"><ele>226.16666666666669</ele><time>2026-04-12T07:35:05.449Z</time></trkpt><trkpt lat="44.8386217" lon="8.2062233"><ele>227.0</ele><time>2026-04-12T07:35:08.449Z</time></trkpt><trkpt lat="44.8385367" lon="8.2062317"><ele>228.00000000000003</ele><time>2026-04-12T07:35:11.449Z</time></trkpt><trkpt lat="44.838455" lon="8.2062333"><ele>229.0</ele><time>2026-04-12T07:35:14.449Z</time></trkpt><trkpt lat="44.83836" lon="8.2062367"><ele>230.0</ele><time>2026-04-12T07:35:17.449Z</time></trkpt><trkpt lat="44.8382717" lon="8.2062383"><ele>231.0</ele><time>2026-04-12T07:35:20.449Z</time></trkpt><trkpt lat="44.83819" lon="8.20625"><ele>232.00000000000003</ele><time>2026-04-12T07:35:23.449Z</time></trkpt><trkpt lat="44.838115" lon="8.2062517"><ele>233.0</ele><time>2026-04-12T07:35:26.449Z</time></trkpt><trkpt lat="44.83802" lon="8.206265"><ele>233.00000000000003</ele><time>2026-04-12T07:35:29.449Z</time></trkpt><trkpt lat="44.837945" lon="8.206255"><ele>233.0</ele><time>2026-04-12T07:35:31.449Z</time></trkpt><trkpt lat="44.8378583" lon="8.206265"><ele>233.0</ele><time>2026-04-12T07:35:33.449Z</time></trkpt><trkpt lat="44.8377833" lon="8.2062583"><ele>233.0</ele><time>2026-04-12T07:35:35.449Z</time></trkpt><trkpt lat="44.8377067" lon="8.2062583"><ele>233.00000000000003</ele><time>2026-04-12T07:35:37.449Z</time></trkpt><trkpt lat="44.8376217" lon="8.2062567"><ele>233.0</ele><time>2026-04-12T07:35:40.449Z</time></trkpt><trkpt lat="44.8375367" lon="8.2062483"><ele>233.16666666666669</ele><time>2026-04-12T07:35:43.449Z</time></trkpt><trkpt lat="44.8374583" lon="8.206245"><ele>233.33333333333334</ele><time>2026-04-12T07:35:46.45Z</time></trkpt><trkpt lat="44.837395" lon="8.206255"><ele>233.5</ele><time>2026-04-12T07:35:49.449Z</time></trkpt><trkpt lat="44.8373367" lon="8.206315"><ele>233.66666666666669</ele><time>2026-04-12T07:35:52.449Z</time></trkpt><trkpt lat="44.8372967" lon="8.2064417"><ele>233.83333333333334</ele><time>2026-04-12T07:35:55.449Z</time></trkpt><trkpt lat="44.8372933" lon="8.2065433"><ele>234.0</ele><time>2026-04-12T07:35:57.449Z</time></trkpt><trkpt lat="44.83731" lon="8.20664"><ele>232.33333333333334</ele><time>2026-04-12T07:35:59.449Z</time></trkpt><trkpt lat="44.83733" lon="8.2067283"><ele>230.66666666666669</ele><time>2026-04-12T07:36:01.449Z</time></trkpt><trkpt lat="44.83734" lon="8.2068317"><ele>229.0</ele><time>2026-04-12T07:36:03.449Z</time></trkpt><trkpt lat="44.83734" lon="8.2069317"><ele>227.33333333333334</ele><time>2026-04-12T07:36:05.449Z</time></trkpt><trkpt lat="44.8373617" lon="8.2070867"><ele>225.66666666666669</ele><time>2026-04-12T07:36:07.449Z</time></trkpt><trkpt lat="44.8373767" lon="8.2072583"><ele>224.0</ele><time>2026-04-12T07:36:09.449Z</time></trkpt><trkpt lat="44.837375" lon="8.2074117"><ele>224.0</ele><time>2026-04-12T07:36:11.449Z</time></trkpt><trkpt lat="44.8373033" lon="8.207505"><ele>224.0</ele><time>2026-04-12T07:36:13.449Z</time></trkpt><trkpt lat="44.83719" lon="8.207525"><ele>224.0</ele><time>2026-04-12T07:36:15.449Z</time></trkpt><trkpt lat="44.8370717" lon="8.20748"><ele>224.0</ele><time>2026-04-12T07:36:17.449Z</time></trkpt><trkpt lat="44.836965" lon="8.2074183"><ele>224.0</ele><time>2026-04-12T07:36:19.449Z</time></trkpt><trkpt lat="44.8368567" lon="8.2073767"><ele>223.99999999999997</ele><time>2026-04-12T07:36:21.449Z</time></trkpt><trkpt lat="44.83677" lon="8.2073417"><ele>223.99999999999997</ele><time>2026-04-12T07:36:23.449Z</time></trkpt><trkpt lat="44.8366867" lon="8.2073083"><ele>224.0</ele><time>2026-04-12T07:36:25.449Z</time></trkpt><trkpt lat="44.836595" lon="8.2072767"><ele>224.0</ele><time>2026-04-12T07:36:27.449Z</time></trkpt><trkpt lat="44.8365117" lon="8.2072483"><ele>225.66666666666669</ele><time>2026-04-12T07:36:29.449Z</time></trkpt><trkpt lat="44.83643" lon="8.20721"><ele>227.33333333333334</ele><time>2026-04-12T07:36:31.449Z</time></trkpt><trkpt lat="44.836345" lon="8.20717"><ele>229.0</ele><time>2026-04-12T07:36:33.449Z</time></trkpt><trkpt lat="44.8362617" lon="8.207125"><ele>230.66666666666669</ele><time>2026-04-12T07:36:35.45Z</time></trkpt><trkpt lat="44.8361867" lon="8.207085"><ele>232.33333333333334</ele><time>2026-04-12T07:36:37.449Z</time></trkpt><trkpt lat="44.8361083" lon="8.2070467"><ele>234.0</ele><time>2026-04-12T07:36:39.449Z</time></trkpt><trkpt lat="44.836035" lon="8.2070033"><ele>233.33333333333334</ele><time>2026-04-12T07:36:41.449Z</time></trkpt><trkpt lat="44.8359533" lon="8.2069533"><ele>232.66666666666669</ele><time>2026-04-12T07:36:43.449Z</time></trkpt><trkpt lat="44.8358867" lon="8.2069133"><ele>232.0</ele><time>2026-04-12T07:36:45.449Z</time></trkpt><trkpt lat="44.83581" lon="8.206865"><ele>231.33333333333334</ele><time>2026-04-12T07:36:47.449Z</time></trkpt><trkpt lat="44.8357367" lon="8.2068183"><ele>230.66666666666669</ele><time>2026-04-12T07:36:49.449Z</time></trkpt><trkpt lat="44.8356733" lon="8.2067667"><ele>230.0</ele><time>2026-04-12T07:36:51.449Z</time></trkpt><trkpt lat="44.8356" lon="8.2067117"><ele>230.0</ele><time>2026-04-12T07:36:53.449Z</time></trkpt><trkpt lat="44.83551" lon="8.2066433"><ele>230.0</ele><time>2026-04-12T07:36:55.45Z</time></trkpt><trkpt lat="44.8354117" lon="8.2065567"><ele>230.0</ele><time>2026-04-12T07:36:57.449Z</time></trkpt><trkpt lat="44.8353133" lon="8.2064667"><ele>230.0</ele><time>2026-04-12T07:36:59.449Z</time></trkpt><trkpt lat="44.8352217" lon="8.2063633"><ele>230.8</ele><time>2026-04-12T07:37:01.449Z</time></trkpt><trkpt lat="44.8351283" lon="8.2062833"><ele>231.6</ele><time>2026-04-12T07:37:03.449Z</time></trkpt><trkpt lat="44.835035" lon="8.2061967"><ele>232.39999999999998</ele><time>2026-04-12T07:37:05.449Z</time></trkpt><trkpt lat="44.8349367" lon="8.20612"><ele>233.2</ele><time>2026-04-12T07:37:07.449Z</time></trkpt><trkpt lat="44.8348317" lon="8.2060517"><ele>234.0</ele><time>2026-04-12T07:37:09.449Z</time></trkpt><trkpt lat="44.8347133" lon="8.205985"><ele>234.0</ele><time>2026-04-12T07:37:11.449Z</time></trkpt><trkpt lat="44.8345983" lon="8.205935"><ele>234.0</ele><time>2026-04-12T07:37:13.449Z</time></trkpt><trkpt lat="44.83448" lon="8.205885"><ele>234.0</ele><time>2026-04-12T07:37:15.449Z</time></trkpt><trkpt lat="44.8343633" lon="8.2058317"><ele>234.0</ele><time>2026-04-12T07:37:17.449Z</time></trkpt><trkpt lat="44.8342517" lon="8.2057683"><ele>232.39999999999998</ele><time>2026-04-12T07:37:19.449Z</time></trkpt><trkpt lat="44.8341483" lon="8.2057133"><ele>230.79999999999998</ele><time>2026-04-12T07:37:21.449Z</time></trkpt><trkpt lat="44.8340533" lon="8.2056683"><ele>229.20000000000002</ele><time>2026-04-12T07:37:23.449Z</time></trkpt><trkpt lat="44.83396" lon="8.205615"><ele>227.60000000000002</ele><time>2026-04-12T07:37:25.449Z</time></trkpt><trkpt lat="44.8338667" lon="8.2055617"><ele>226.0</ele><time>2026-04-12T07:37:27.449Z</time></trkpt><trkpt lat="44.8338017" lon="8.2055033"><ele>226.0</ele><time>2026-04-12T07:37:29.449Z</time></trkpt><trkpt lat="44.8337817" lon="8.2054033"><ele>226.00000000000003</ele><time>2026-04-12T07:37:31.449Z</time></trkpt><trkpt lat="44.8338" lon="8.2052717"><ele>226.00000000000003</ele><time>2026-04-12T07:37:33.449Z</time></trkpt><trkpt lat="44.8338633" lon="8.2051533"><ele>226.0</ele><time>2026-04-12T07:37:35.449Z</time></trkpt><trkpt lat="44.8339517" lon="8.2050467"><ele>226.0</ele><time>2026-04-12T07:37:37.449Z</time></trkpt><trkpt lat="44.8340067" lon="8.2049983"><ele>226.0</ele><time>2026-04-12T07:37:38.449Z</time></trkpt><trkpt lat="44.8340633" lon="8.204945"><ele>226.0</ele><time>2026-04-12T07:37:39.449Z</time></trkpt><trkpt lat="44.83412" lon="8.204885"><ele>226.0</ele><time>2026-04-12T07:37:40.449Z</time></trkpt><trkpt lat="44.834175" lon="8.2048317"><ele>226.0</ele><time>2026-04-12T07:37:41.449Z</time></trkpt><trkpt lat="44.8342317" lon="8.2047733"><ele>226.0</ele><time>2026-04-12T07:37:42.449Z</time></trkpt><trkpt lat="44.83429" lon="8.204715"><ele>226.0</ele><time>2026-04-12T07:37:43.449Z</time></trkpt><trkpt lat="44.8343467" lon="8.2046567"><ele>226.0</ele><time>2026-04-12T07:37:44.449Z</time></trkpt><trkpt lat="44.8344033" lon="8.2046033"><ele>226.0</ele><time>2026-04-12T07:37:45.449Z</time></trkpt><trkpt lat="44.8344633" lon="8.2045467"><ele>226.0</ele><time>2026-04-12T07:37:46.449Z</time></trkpt><trkpt lat="44.8345183" lon="8.2044917"><ele>226.0</ele><time>2026-04-12T07:37:47.449Z</time></trkpt><trkpt lat="44.834575" lon="8.204435"><ele>226.0</ele><time>2026-04-12T07:37:48.449Z</time></trkpt><trkpt lat="44.834635" lon="8.2043767"><ele>226.0</ele><time>2026-04-12T07:37:49.449Z</time></trkpt><trkpt lat="44.8346967" lon="8.2043183"><ele>226.0</ele><time>2026-04-12T07:37:50.449Z</time></trkpt><trkpt lat="44.83476" lon="8.2042567"><ele>226.0</ele><time>2026-04-12T07:37:51.449Z</time></trkpt><trkpt lat="44.83482" lon="8.20419"><ele>225.99999999999997</ele><time>2026-04-12T07:37:52.449Z</time></trkpt><trkpt lat="44.8348783" lon="8.2041267"><ele>226.0</ele><time>2026-04-12T07:37:53.449Z</time></trkpt><trkpt lat="44.8349367" lon="8.2040583"><ele>226.0</ele><time>2026-04-12T07:37:54.449Z</time></trkpt><trkpt lat="44.8350017" lon="8.2039833"><ele>226.0</ele><time>2026-04-12T07:37:55.45Z</time></trkpt><trkpt lat="44.8350667" lon="8.20391"><ele>225.99999999999997</ele><time>2026-04-12T07:37:56.449Z</time></trkpt><trkpt lat="44.8351317" lon="8.2038383"><ele>226.0</ele><time>2026-04-12T07:37:57.449Z</time></trkpt><trkpt lat="44.8351967" lon="8.20377"><ele>226.33333333333331</ele><time>2026-04-12T07:37:58.449Z</time></trkpt><trkpt lat="44.8352617" lon="8.2036917"><ele>226.66666666666666</ele><time>2026-04-12T07:37:59.45Z</time></trkpt><trkpt lat="44.8353283" lon="8.203605"><ele>227.0</ele><time>2026-04-12T07:38:00.45Z</time></trkpt><trkpt lat="44.83539" lon="8.2035133"><ele>227.33333333333331</ele><time>2026-04-12T07:38:01.45Z</time></trkpt><trkpt lat="44.8354417" lon="8.2034167"><ele>227.66666666666666</ele><time>2026-04-12T07:38:02.45Z</time></trkpt><trkpt lat="44.835485" lon="8.203305"><ele>228.0</ele><time>2026-04-12T07:38:03.45Z</time></trkpt><trkpt lat="44.835515" lon="8.20319"><ele>227.83333333333334</ele><time>2026-04-12T07:38:04.45Z</time></trkpt><trkpt lat="44.8355417" lon="8.2030783"><ele>227.66666666666669</ele><time>2026-04-12T07:38:05.45Z</time></trkpt><trkpt lat="44.8355617" lon="8.202965"><ele>227.5</ele><time>2026-04-12T07:38:06.45Z</time></trkpt><trkpt lat="44.8355817" lon="8.2028567"><ele>227.33333333333334</ele><time>2026-04-12T07:38:07.45Z</time></trkpt><trkpt lat="44.8355967" lon="8.2027433"><ele>227.16666666666669</ele><time>2026-04-12T07:38:08.45Z</time></trkpt><trkpt lat="44.8356067" lon="8.202635"><ele>227.0</ele><time>2026-04-12T07:38:09.45Z</time></trkpt><trkpt lat="44.83561" lon="8.20252"><ele>227.00000000000003</ele><time>2026-04-12T07:38:10.45Z</time></trkpt><trkpt lat="44.835615" lon="8.20241"><ele>227.0</ele><time>2026-04-12T07:38:11.45Z</time></trkpt><trkpt lat="44.8356167" lon="8.2023017"><ele>227.0</ele><time>2026-04-12T07:38:12.45Z</time></trkpt><trkpt lat="44.8356183" lon="8.2021967"><ele>227.0</ele><time>2026-04-12T07:38:13.45Z</time></trkpt><trkpt lat="44.8356167" lon="8.20209"><ele>227.00000000000003</ele><time>2026-04-12T07:38:14.45Z</time></trkpt><trkpt lat="44.83561" lon="8.2019833"><ele>227.0</ele><time>2026-04-12T07:38:15.45Z</time></trkpt><trkpt lat="44.835595" lon="8.2018883"><ele>227.0</ele><time>2026-04-12T07:38:16.45Z</time></trkpt><trkpt lat="44.8355817" lon="8.2017867"><ele>227.00000000000003</ele><time>2026-04-12T07:38:17.45Z</time></trkpt><trkpt lat="44.8355717" lon="8.201685"><ele>227.0</ele><time>2026-04-12T07:38:18.45Z</time></trkpt><trkpt lat="44.8355633" lon="8.2015867"><ele>227.0</ele><time>2026-04-12T07:38:19.45Z</time></trkpt><trkpt lat="44.8355533" lon="8.2014833"><ele>227.00000000000003</ele><time>2026-04-12T07:38:20.45Z</time></trkpt><trkpt lat="44.8355433" lon="8.2013783"><ele>227.0</ele><time>2026-04-12T07:38:21.45Z</time></trkpt><trkpt lat="44.835535" lon="8.2012817"><ele>227.0</ele><time>2026-04-12T07:38:22.45Z</time></trkpt><trkpt lat="44.8355233" lon="8.2011867"><ele>227.00000000000003</ele><time>2026-04-12T07:38:23.45Z</time></trkpt><trkpt lat="44.83551" lon="8.2010883"><ele>227.0</ele><time>2026-04-12T07:38:24.45Z</time></trkpt><trkpt lat="44.8354967" lon="8.2009917"><ele>227.0</ele><time>2026-04-12T07:38:25.45Z</time></trkpt><trkpt lat="44.8354883" lon="8.2009033"><ele>227.0</ele><time>2026-04-12T07:38:26.45Z</time></trkpt><trkpt lat="44.8354867" lon="8.2008083"><ele>227.00000000000003</ele><time>2026-04-12T07:38:27.451Z</time></trkpt><trkpt lat="44.835485" lon="8.2007183"><ele>227.0</ele><time>2026-04-12T07:38:28.451Z</time></trkpt><trkpt lat="44.835485" lon="8.2005567"><ele>226.0</ele><time>2026-04-12T07:38:30.45Z</time></trkpt><trkpt lat="44.8355" lon="8.2004017"><ele>225.0</ele><time>2026-04-12T07:38:32.45Z</time></trkpt><trkpt lat="44.8355183" lon="8.2002733"><ele>224.0</ele><time>2026-04-12T07:38:34.45Z</time></trkpt><trkpt lat="44.8355517" lon="8.200145"><ele>223.0</ele><time>2026-04-12T07:38:36.45Z</time></trkpt><trkpt lat="44.8355417" lon="8.1999983"><ele>222.0</ele><time>2026-04-12T07:38:38.45Z</time></trkpt><trkpt lat="44.8355" lon="8.1998417"><ele>221.28571428571428</ele><time>2026-04-12T07:38:40.45Z</time></trkpt><trkpt lat="44.835475" lon="8.1997567"><ele>220.57142857142858</ele><time>2026-04-12T07:38:41.45Z</time></trkpt><trkpt lat="44.8354467" lon="8.1996667"><ele>219.85714285714286</ele><time>2026-04-12T07:38:42.45Z</time></trkpt><trkpt lat="44.8354233" lon="8.19957"><ele>219.14285714285714</ele><time>2026-04-12T07:38:43.45Z</time></trkpt><trkpt lat="44.835405" lon="8.1994733"><ele>218.42857142857144</ele><time>2026-04-12T07:38:44.45Z</time></trkpt><trkpt lat="44.83539" lon="8.1993733"><ele>217.71428571428572</ele><time>2026-04-12T07:38:45.45Z</time></trkpt><trkpt lat="44.8353767" lon="8.19928"><ele>217.0</ele><time>2026-04-12T07:38:46.45Z</time></trkpt><trkpt lat="44.835365" lon="8.1991783"><ele>216.99999999999997</ele><time>2026-04-12T07:38:47.45Z</time></trkpt><trkpt lat="44.8353533" lon="8.19908"><ele>217.0</ele><time>2026-04-12T07:38:48.45Z</time></trkpt><trkpt lat="44.8353433" lon="8.198985"><ele>217.0</ele><time>2026-04-12T07:38:49.45Z</time></trkpt><trkpt lat="44.8353267" lon="8.198895"><ele>217.0</ele><time>2026-04-12T07:38:50.45Z</time></trkpt><trkpt lat="44.835285" lon="8.1987317"><ele>216.99999999999997</ele><time>2026-04-12T07:38:52.45Z</time></trkpt><trkpt lat="44.8352717" lon="8.1986367"><ele>217.0</ele><time>2026-04-12T07:38:53.45Z</time></trkpt><trkpt lat="44.835255" lon="8.1985333"><ele>216.0</ele><time>2026-04-12T07:38:54.45Z</time></trkpt><trkpt lat="44.8352367" lon="8.19843"><ele>215.0</ele><time>2026-04-12T07:38:55.45Z</time></trkpt><trkpt lat="44.83521" lon="8.19833"><ele>214.0</ele><time>2026-04-12T07:38:56.45Z</time></trkpt><trkpt lat="44.8351933" lon="8.1982267"><ele>213.0</ele><time>2026-04-12T07:38:57.45Z</time></trkpt><trkpt lat="44.83518" lon="8.1981217"><ele>212.0</ele><time>2026-04-12T07:38:58.45Z</time></trkpt><trkpt lat="44.8351617" lon="8.1980233"><ele>211.0</ele><time>2026-04-12T07:38:59.45Z</time></trkpt><trkpt lat="44.8351467" lon="8.1979267"><ele>210.0</ele><time>2026-04-12T07:39:00.45Z</time></trkpt><trkpt lat="44.835135" lon="8.1978283"><ele>212.0</ele><time>2026-04-12T07:39:01.45Z</time></trkpt><trkpt lat="44.8351217" lon="8.1977333"><ele>214.0</ele><time>2026-04-12T07:39:02.45Z</time></trkpt><trkpt lat="44.835085" lon="8.1975783"><ele>216.0</ele><time>2026-04-12T07:39:04.45Z</time></trkpt><trkpt lat="44.8350517" lon="8.197445"><ele>218.0</ele><time>2026-04-12T07:39:06.45Z</time></trkpt><trkpt lat="44.8350217" lon="8.1973583"><ele>220.0</ele><time>2026-04-12T07:39:08.45Z</time></trkpt><trkpt lat="44.8349983" lon="8.1972733"><ele>222.0</ele><time>2026-04-12T07:39:10.45Z</time></trkpt><trkpt lat="44.83498" lon="8.1971833"><ele>222.0</ele><time>2026-04-12T07:39:12.45Z</time></trkpt><trkpt lat="44.8349583" lon="8.1970867"><ele>222.0</ele><time>2026-04-12T07:39:15.45Z</time></trkpt><trkpt lat="44.8349283" lon="8.19699"><ele>222.0</ele><time>2026-04-12T07:39:18.45Z</time></trkpt><trkpt lat="44.8349" lon="8.196875"><ele>222.0</ele><time>2026-04-12T07:39:21.45Z</time></trkpt><trkpt lat="44.834855" lon="8.1967583"><ele>222.0</ele><time>2026-04-12T07:39:24.45Z</time></trkpt><trkpt lat="44.8348117" lon="8.1966717"><ele>222.0</ele><time>2026-04-12T07:39:26.45Z</time></trkpt><trkpt lat="44.83477" lon="8.19658"><ele>221.16666666666666</ele><time>2026-04-12T07:39:28.45Z</time></trkpt><trkpt lat="44.8347383" lon="8.196485"><ele>220.33333333333331</ele><time>2026-04-12T07:39:30.45Z</time></trkpt><trkpt lat="44.8347017" lon="8.1963933"><ele>219.5</ele><time>2026-04-12T07:39:32.45Z</time></trkpt><trkpt lat="44.8346633" lon="8.1962917"><ele>218.66666666666666</ele><time>2026-04-12T07:39:34.45Z</time></trkpt><trkpt lat="44.8346167" lon="8.1961883"><ele>217.83333333333331</ele><time>2026-04-12T07:39:36.45Z</time></trkpt><trkpt lat="44.8345717" lon="8.1960917"><ele>217.0</ele><time>2026-04-12T07:39:38.45Z</time></trkpt><trkpt lat="44.834525" lon="8.1959933"><ele>216.99999999999997</ele><time>2026-04-12T07:39:40.45Z</time></trkpt><trkpt lat="44.8344633" lon="8.1959083"><ele>217.0</ele><time>2026-04-12T07:39:42.45Z</time></trkpt><trkpt lat="44.8344067" lon="8.1958133"><ele>217.0</ele><time>2026-04-12T07:39:44.45Z</time></trkpt><trkpt lat="44.83434" lon="8.1957267"><ele>217.0</ele><time>2026-04-12T07:39:46.45Z</time></trkpt><trkpt lat="44.834275" lon="8.195645"><ele>216.99999999999997</ele><time>2026-04-12T07:39:48.45Z</time></trkpt><trkpt lat="44.8342117" lon="8.19556"><ele>217.0</ele><time>2026-04-12T07:39:50.45Z</time></trkpt><trkpt lat="44.8341417" lon="8.19549"><ele>218.66666666666666</ele><time>2026-04-12T07:39:52.45Z</time></trkpt><trkpt lat="44.834075" lon="8.1954133"><ele>220.33333333333331</ele><time>2026-04-12T07:39:54.45Z</time></trkpt><trkpt lat="44.834005" lon="8.1953433"><ele>222.0</ele><time>2026-04-12T07:39:56.45Z</time></trkpt><trkpt lat="44.8339483" lon="8.1952817"><ele>223.66666666666669</ele><time>2026-04-12T07:39:58.45Z</time></trkpt><trkpt lat="44.833895" lon="8.1951967"><ele>225.33333333333334</ele><time>2026-04-12T07:40:00.45Z</time></trkpt><trkpt lat="44.8338567" lon="8.1951"><ele>227.0</ele><time>2026-04-12T07:40:02.45Z</time></trkpt><trkpt lat="44.8338283" lon="8.194985"><ele>227.0</ele><time>2026-04-12T07:40:04.45Z</time></trkpt><trkpt lat="44.8337817" lon="8.1948683"><ele>227.0</ele><time>2026-04-12T07:40:06.45Z</time></trkpt><trkpt lat="44.8337333" lon="8.1947467"><ele>227.0</ele><time>2026-04-12T07:40:08.45Z</time></trkpt><trkpt lat="44.8336717" lon="8.1946183"><ele>227.0</ele><time>2026-04-12T07:40:10.45Z</time></trkpt><trkpt lat="44.8336117" lon="8.1944867"><ele>227.0</ele><time>2026-04-12T07:40:12.45Z</time></trkpt><trkpt lat="44.8335817" lon="8.1944083"><ele>226.66666666666669</ele><time>2026-04-12T07:40:13.45Z</time></trkpt><trkpt lat="44.8335517" lon="8.19433"><ele>226.33333333333334</ele><time>2026-04-12T07:40:14.45Z</time></trkpt><trkpt lat="44.8335" lon="8.1941733"><ele>226.0</ele><time>2026-04-12T07:40:16.45Z</time></trkpt><trkpt lat="44.8334817" lon="8.1940883"><ele>225.66666666666669</ele><time>2026-04-12T07:40:17.45Z</time></trkpt><trkpt lat="44.83346" lon="8.1939883"><ele>225.33333333333334</ele><time>2026-04-12T07:40:18.45Z</time></trkpt><trkpt lat="44.833435" lon="8.1938967"><ele>225.0</ele><time>2026-04-12T07:40:19.451Z</time></trkpt><trkpt lat="44.8334133" lon="8.1938017"><ele>225.0</ele><time>2026-04-12T07:40:20.45Z</time></trkpt><trkpt lat="44.83339" lon="8.1937017"><ele>225.0</ele><time>2026-04-12T07:40:21.45Z</time></trkpt><trkpt lat="44.8333617" lon="8.1936017"><ele>225.0</ele><time>2026-04-12T07:40:22.45Z</time></trkpt><trkpt lat="44.8333417" lon="8.1934983"><ele>225.0</ele><time>2026-04-12T07:40:23.45Z</time></trkpt><trkpt lat="44.8333217" lon="8.1933833"><ele>225.0</ele><time>2026-04-12T07:40:24.45Z</time></trkpt><trkpt lat="44.833305" lon="8.1932733"><ele>225.0</ele><time>2026-04-12T07:40:25.45Z</time></trkpt><trkpt lat="44.8332933" lon="8.19316"><ele>225.5714285714286</ele><time>2026-04-12T07:40:26.45Z</time></trkpt><trkpt lat="44.83326" lon="8.1930483"><ele>226.14285714285717</ele><time>2026-04-12T07:40:27.45Z</time></trkpt><trkpt lat="44.833245" lon="8.192945"><ele>226.71428571428572</ele><time>2026-04-12T07:40:28.45Z</time></trkpt><trkpt lat="44.8332383" lon="8.1928433"><ele>227.2857142857143</ele><time>2026-04-12T07:40:29.45Z</time></trkpt><trkpt lat="44.8332383" lon="8.1927417"><ele>227.8571428571429</ele><time>2026-04-12T07:40:30.45Z</time></trkpt><trkpt lat="44.8332483" lon="8.19265"><ele>228.42857142857142</ele><time>2026-04-12T07:40:31.45Z</time></trkpt><trkpt lat="44.8332433" lon="8.19255"><ele>229.0</ele><time>2026-04-12T07:40:32.45Z</time></trkpt><trkpt lat="44.8332433" lon="8.19246"><ele>230.2</ele><time>2026-04-12T07:40:33.45Z</time></trkpt><trkpt lat="44.8332367" lon="8.192335"><ele>231.39999999999998</ele><time>2026-04-12T07:40:35.45Z</time></trkpt><trkpt lat="44.8332617" lon="8.1922133"><ele>232.6</ele><time>2026-04-12T07:40:37.45Z</time></trkpt><trkpt lat="44.833295" lon="8.19209"><ele>233.8</ele><time>2026-04-12T07:40:39.45Z</time></trkpt><trkpt lat="44.833345" lon="8.19194"><ele>235.0</ele><time>2026-04-12T07:40:41.45Z</time></trkpt><trkpt lat="44.8333983" lon="8.1918"><ele>235.0</ele><time>2026-04-12T07:40:43.45Z</time></trkpt><trkpt lat="44.8334583" lon="8.19168"><ele>235.0</ele><time>2026-04-12T07:40:45.45Z</time></trkpt><trkpt lat="44.8335017" lon="8.1915467"><ele>235.0</ele><time>2026-04-12T07:40:47.45Z</time></trkpt><trkpt lat="44.8335483" lon="8.19141"><ele>235.0</ele><time>2026-04-12T07:40:49.45Z</time></trkpt><trkpt lat="44.8336017" lon="8.1912633"><ele>235.0</ele><time>2026-04-12T07:40:51.45Z</time></trkpt><trkpt lat="44.8336467" lon="8.1911117"><ele>234.0</ele><time>2026-04-12T07:40:53.451Z</time></trkpt><trkpt lat="44.8336967" lon="8.19096"><ele>233.0</ele><time>2026-04-12T07:40:55.45Z</time></trkpt><trkpt lat="44.83373" lon="8.1908"><ele>232.0</ele><time>2026-04-12T07:40:57.45Z</time></trkpt><trkpt lat="44.8337617" lon="8.1906483"><ele>231.0</ele><time>2026-04-12T07:40:59.45Z</time></trkpt><trkpt lat="44.83379" lon="8.1904833"><ele>231.0</ele><time>2026-04-12T07:41:01.45Z</time></trkpt><trkpt lat="44.8338117" lon="8.1903217"><ele>231.0</ele><time>2026-04-12T07:41:03.451Z</time></trkpt><trkpt lat="44.8338367" lon="8.1901717"><ele>231.0</ele><time>2026-04-12T07:41:05.45Z</time></trkpt><trkpt lat="44.83386" lon="8.1900217"><ele>231.0</ele><time>2026-04-12T07:41:07.45Z</time></trkpt><trkpt lat="44.8339033" lon="8.18987"><ele>231.20000000000002</ele><time>2026-04-12T07:41:09.45Z</time></trkpt><trkpt lat="44.83392" lon="8.18971"><ele>231.40000000000003</ele><time>2026-04-12T07:41:11.45Z</time></trkpt><trkpt lat="44.8339367" lon="8.1895583"><ele>231.6</ele><time>2026-04-12T07:41:13.45Z</time></trkpt><trkpt lat="44.8339667" lon="8.189395"><ele>231.8</ele><time>2026-04-12T07:41:15.45Z</time></trkpt><trkpt lat="44.8339917" lon="8.1892567"><ele>232.0</ele><time>2026-04-12T07:41:17.45Z</time></trkpt><trkpt lat="44.8339967" lon="8.1890983"><ele>232.6</ele><time>2026-04-12T07:41:19.45Z</time></trkpt><trkpt lat="44.83398" lon="8.188935"><ele>233.2</ele><time>2026-04-12T07:41:21.45Z</time></trkpt><trkpt lat="44.8339567" lon="8.188805"><ele>233.8</ele><time>2026-04-12T07:41:23.45Z</time></trkpt><trkpt lat="44.8339367" lon="8.1886567"><ele>234.4</ele><time>2026-04-12T07:41:25.45Z</time></trkpt><trkpt lat="44.83389" lon="8.1885117"><ele>235.0</ele><time>2026-04-12T07:41:27.45Z</time></trkpt><trkpt lat="44.8338367" lon="8.1884067"><ele>234.99999999999997</ele><time>2026-04-12T07:41:29.451Z</time></trkpt><trkpt lat="44.833795" lon="8.18834"><ele>235.0</ele><time>2026-04-12T07:41:31.45Z</time></trkpt><trkpt lat="44.83372" lon="8.1882617"><ele>235.0</ele><time>2026-04-12T07:41:34.451Z</time></trkpt><trkpt lat="44.8336483" lon="8.1881883"><ele>235.0</ele><time>2026-04-12T07:41:37.45Z</time></trkpt><trkpt lat="44.8335883" lon="8.18813"><ele>234.99999999999997</ele><time>2026-04-12T07:41:39.45Z</time></trkpt><trkpt lat="44.83353" lon="8.1880667"><ele>235.0</ele><time>2026-04-12T07:41:41.45Z</time></trkpt><trkpt lat="44.8334833" lon="8.1880067"><ele>235.7142857142857</ele><time>2026-04-12T07:41:43.45Z</time></trkpt><trkpt lat="44.833425" lon="8.1879367"><ele>236.4285714285714</ele><time>2026-04-12T07:41:45.45Z</time></trkpt><trkpt lat="44.8333767" lon="8.1878433"><ele>237.14285714285714</ele><time>2026-04-12T07:41:48.45Z</time></trkpt><trkpt lat="44.8333783" lon="8.1877433"><ele>237.85714285714283</ele><time>2026-04-12T07:41:51.45Z</time></trkpt><trkpt lat="44.8334067" lon="8.1876633"><ele>238.57142857142856</ele><time>2026-04-12T07:41:53.45Z</time></trkpt><trkpt lat="44.8334517" lon="8.18758"><ele>239.28571428571428</ele><time>2026-04-12T07:41:56.45Z</time></trkpt><trkpt lat="44.833495" lon="8.18751"><ele>240.0</ele><time>2026-04-12T07:41:58.45Z</time></trkpt><trkpt lat="44.8335317" lon="8.1874267"><ele>239.83333333333334</ele><time>2026-04-12T07:42:00.45Z</time></trkpt><trkpt lat="44.83357" lon="8.18734"><ele>239.66666666666669</ele><time>2026-04-12T07:42:02.45Z</time></trkpt><trkpt lat="44.833595" lon="8.1872233"><ele>239.5</ele><time>2026-04-12T07:42:05.45Z</time></trkpt><trkpt lat="44.833585" lon="8.187095"><ele>239.33333333333334</ele><time>2026-04-12T07:42:08.45Z</time></trkpt><trkpt lat="44.8335583" lon="8.1869883"><ele>239.16666666666669</ele><time>2026-04-12T07:42:11.45Z</time></trkpt><trkpt lat="44.833535" lon="8.18689"><ele>239.0</ele><time>2026-04-12T07:42:15.45Z</time></trkpt><trkpt lat="44.83347" lon="8.1868"><ele>239.50000000000003</ele><time>2026-04-12T07:42:18.45Z</time></trkpt><trkpt lat="44.8334283" lon="8.1866933"><ele>240.0</ele><time>2026-04-12T07:42:20.45Z</time></trkpt><trkpt lat="44.8333667" lon="8.18654"><ele>240.5</ele><time>2026-04-12T07:42:22.45Z</time></trkpt><trkpt lat="44.8333333" lon="8.1864533"><ele>241.0</ele><time>2026-04-12T07:42:23.45Z</time></trkpt><trkpt lat="44.8333" lon="8.186355"><ele>241.50000000000003</ele><time>2026-04-12T07:42:24.45Z</time></trkpt><trkpt lat="44.8332617" lon="8.1862583"><ele>242.0</ele><time>2026-04-12T07:42:25.45Z</time></trkpt><trkpt lat="44.83323" lon="8.18616"><ele>241.00000000000003</ele><time>2026-04-12T07:42:26.45Z</time></trkpt><trkpt lat="44.83321" lon="8.1860483"><ele>240.0</ele><time>2026-04-12T07:42:27.45Z</time></trkpt><trkpt lat="44.833195" lon="8.185945"><ele>239.0</ele><time>2026-04-12T07:42:28.45Z</time></trkpt><trkpt lat="44.8331767" lon="8.18585"><ele>238.0</ele><time>2026-04-12T07:42:29.45Z</time></trkpt><trkpt lat="44.833145" lon="8.1857667"><ele>237.00000000000003</ele><time>2026-04-12T07:42:30.45Z</time></trkpt><trkpt lat="44.83306" lon="8.185655"><ele>236.0</ele><time>2026-04-12T07:42:32.45Z</time></trkpt><trkpt lat="44.8329583" lon="8.1856667"><ele>236.00000000000003</ele><time>2026-04-12T07:42:34.45Z</time></trkpt><trkpt lat="44.83291" lon="8.1857367"><ele>236.0</ele><time>2026-04-12T07:42:35.45Z</time></trkpt><trkpt lat="44.8328717" lon="8.1858267"><ele>236.0</ele><time>2026-04-12T07:42:36.45Z</time></trkpt><trkpt lat="44.8328483" lon="8.1859333"><ele>236.0</ele><time>2026-04-12T07:42:37.45Z</time></trkpt><trkpt lat="44.8328217" lon="8.1860483"><ele>236.00000000000003</ele><time>2026-04-12T07:42:38.45Z</time></trkpt><trkpt lat="44.8327867" lon="8.1861633"><ele>236.0</ele><time>2026-04-12T07:42:39.45Z</time></trkpt><trkpt lat="44.8327433" lon="8.186275"><ele>236.00000000000003</ele><time>2026-04-12T07:42:40.45Z</time></trkpt><trkpt lat="44.832705" lon="8.186385"><ele>236.0</ele><time>2026-04-12T07:42:41.45Z</time></trkpt><trkpt lat="44.8326917" lon="8.186495"><ele>236.0</ele><time>2026-04-12T07:42:42.45Z</time></trkpt><trkpt lat="44.832705" lon="8.18661"><ele>236.0</ele><time>2026-04-12T07:42:43.45Z</time></trkpt><trkpt lat="44.8327233" lon="8.1866967"><ele>236.00000000000003</ele><time>2026-04-12T07:42:44.45Z</time></trkpt><trkpt lat="44.832725" lon="8.1867983"><ele>236.0</ele><time>2026-04-12T07:42:46.45Z</time></trkpt><trkpt lat="44.83264" lon="8.1867433"><ele>233.66666666666669</ele><time>2026-04-12T07:42:49.45Z</time></trkpt><trkpt lat="44.832595" lon="8.1866517"><ele>231.33333333333334</ele><time>2026-04-12T07:42:50.45Z</time></trkpt><trkpt lat="44.8325583" lon="8.18655"><ele>229.0</ele><time>2026-04-12T07:42:51.45Z</time></trkpt><trkpt lat="44.8325233" lon="8.1864367"><ele>226.66666666666669</ele><time>2026-04-12T07:42:52.45Z</time></trkpt><trkpt lat="44.832495" lon="8.1863167"><ele>224.33333333333334</ele><time>2026-04-12T07:42:53.45Z</time></trkpt><trkpt lat="44.832475" lon="8.1861933"><ele>222.0</ele><time>2026-04-12T07:42:54.45Z</time></trkpt><trkpt lat="44.8324533" lon="8.1860717"><ele>221.6</ele><time>2026-04-12T07:42:55.45Z</time></trkpt><trkpt lat="44.8324433" lon="8.1859483"><ele>221.2</ele><time>2026-04-12T07:42:56.45Z</time></trkpt><trkpt lat="44.8324367" lon="8.1858133"><ele>220.8</ele><time>2026-04-12T07:42:57.45Z</time></trkpt><trkpt lat="44.8324383" lon="8.1856733"><ele>220.4</ele><time>2026-04-12T07:42:58.45Z</time></trkpt><trkpt lat="44.8324467" lon="8.185525"><ele>220.0</ele><time>2026-04-12T07:42:59.45Z</time></trkpt><trkpt lat="44.8324633" lon="8.1853717"><ele>218.4</ele><time>2026-04-12T07:43:00.45Z</time></trkpt><trkpt lat="44.8324833" lon="8.1852117"><ele>216.8</ele><time>2026-04-12T07:43:01.45Z</time></trkpt><trkpt lat="44.8325017" lon="8.185065"><ele>215.2</ele><time>2026-04-12T07:43:02.45Z</time></trkpt><trkpt lat="44.8325217" lon="8.1849383"><ele>213.6</ele><time>2026-04-12T07:43:03.45Z</time></trkpt><trkpt lat="44.8325417" lon="8.1848317"><ele>212.0</ele><time>2026-04-12T07:43:04.45Z</time></trkpt><trkpt lat="44.83256" lon="8.184665"><ele>212.0</ele><time>2026-04-12T07:43:06.45Z</time></trkpt><trkpt lat="44.832495" lon="8.184575"><ele>212.0</ele><time>2026-04-12T07:43:08.45Z</time></trkpt><trkpt lat="44.832395" lon="8.1846733"><ele>212.0</ele><time>2026-04-12T07:43:10.45Z</time></trkpt><trkpt lat="44.8323767" lon="8.1847667"><ele>212.0</ele><time>2026-04-12T07:43:11.45Z</time></trkpt><trkpt lat="44.8323317" lon="8.1848767"><ele>212.0</ele><time>2026-04-12T07:43:13.45Z</time></trkpt><trkpt lat="44.832255" lon="8.18479"><ele>209.50000000000003</ele><time>2026-04-12T07:43:15.45Z</time></trkpt><trkpt lat="44.8322483" lon="8.1846933"><ele>207.0</ele><time>2026-04-12T07:43:16.45Z</time></trkpt><trkpt lat="44.8322633" lon="8.1845867"><ele>204.5</ele><time>2026-04-12T07:43:17.45Z</time></trkpt><trkpt lat="44.8322933" lon="8.1844733"><ele>202.0</ele><time>2026-04-12T07:43:18.45Z</time></trkpt><trkpt lat="44.8323217" lon="8.1843633"><ele>199.50000000000003</ele><time>2026-04-12T07:43:19.45Z</time></trkpt><trkpt lat="44.8323383" lon="8.184255"><ele>197.0</ele><time>2026-04-12T07:43:20.45Z</time></trkpt><trkpt lat="44.8323333" lon="8.1841633"><ele>197.00000000000003</ele><time>2026-04-12T07:43:21.45Z</time></trkpt><trkpt lat="44.8322817" lon="8.1840967"><ele>197.0</ele><time>2026-04-12T07:43:22.45Z</time></trkpt><trkpt lat="44.832205" lon="8.1840667"><ele>197.0</ele><time>2026-04-12T07:43:23.45Z</time></trkpt><trkpt lat="44.832125" lon="8.1840883"><ele>197.0</ele><time>2026-04-12T07:43:24.45Z</time></trkpt><trkpt lat="44.8320467" lon="8.1841333"><ele>197.00000000000003</ele><time>2026-04-12T07:43:25.45Z</time></trkpt><trkpt lat="44.831965" lon="8.1841483"><ele>197.0</ele><time>2026-04-12T07:43:26.45Z</time></trkpt><trkpt lat="44.8318817" lon="8.1841233"><ele>197.33333333333334</ele><time>2026-04-12T07:43:27.45Z</time></trkpt><trkpt lat="44.831805" lon="8.1840783"><ele>197.66666666666669</ele><time>2026-04-12T07:43:28.45Z</time></trkpt><trkpt lat="44.831725" lon="8.1840033"><ele>198.0</ele><time>2026-04-12T07:43:29.45Z</time></trkpt><trkpt lat="44.83166" lon="8.183905"><ele>198.33333333333331</ele><time>2026-04-12T07:43:30.45Z</time></trkpt><trkpt lat="44.8315883" lon="8.183825"><ele>198.66666666666666</ele><time>2026-04-12T07:43:31.451Z</time></trkpt><trkpt lat="44.83151" lon="8.18379"><ele>199.0</ele><time>2026-04-12T07:43:32.45Z</time></trkpt><trkpt lat="44.8314233" lon="8.1838083"><ele>199.0</ele><time>2026-04-12T07:43:33.45Z</time></trkpt><trkpt lat="44.8313417" lon="8.1838583"><ele>199.0</ele><time>2026-04-12T07:43:34.45Z</time></trkpt><trkpt lat="44.831255" lon="8.183935"><ele>199.0</ele><time>2026-04-12T07:43:35.451Z</time></trkpt><trkpt lat="44.83117" lon="8.1840233"><ele>199.0</ele><time>2026-04-12T07:43:36.45Z</time></trkpt><trkpt lat="44.8310917" lon="8.18412"><ele>199.0</ele><time>2026-04-12T07:43:37.45Z</time></trkpt><trkpt lat="44.83101" lon="8.18421"><ele>198.39999999999998</ele><time>2026-04-12T07:43:38.45Z</time></trkpt><trkpt lat="44.8309283" lon="8.1842983"><ele>197.8</ele><time>2026-04-12T07:43:39.45Z</time></trkpt><trkpt lat="44.8308383" lon="8.1843867"><ele>197.2</ele><time>2026-04-12T07:43:40.45Z</time></trkpt><trkpt lat="44.8307533" lon="8.1844817"><ele>196.60000000000002</ele><time>2026-04-12T07:43:41.45Z</time></trkpt><trkpt lat="44.8306633" lon="8.1845733"><ele>196.0</ele><time>2026-04-12T07:43:42.45Z</time></trkpt><trkpt lat="44.8305817" lon="8.1846583"><ele>196.0</ele><time>2026-04-12T07:43:43.45Z</time></trkpt><trkpt lat="44.8304983" lon="8.1847367"><ele>196.0</ele><time>2026-04-12T07:43:44.45Z</time></trkpt><trkpt lat="44.83041" lon="8.1848117"><ele>196.0</ele><time>2026-04-12T07:43:45.45Z</time></trkpt><trkpt lat="44.83031" lon="8.184875"><ele>196.0</ele><time>2026-04-12T07:43:46.45Z</time></trkpt><trkpt lat="44.8302017" lon="8.1849267"><ele>196.0</ele><time>2026-04-12T07:43:47.45Z</time></trkpt><trkpt lat="44.8300917" lon="8.1849517"><ele>193.4</ele><time>2026-04-12T07:43:48.45Z</time></trkpt><trkpt lat="44.829975" lon="8.184965"><ele>190.8</ele><time>2026-04-12T07:43:49.45Z</time></trkpt><trkpt lat="44.829865" lon="8.1849767"><ele>188.20000000000002</ele><time>2026-04-12T07:43:50.45Z</time></trkpt><trkpt lat="44.8297633" lon="8.1849783"><ele>185.60000000000002</ele><time>2026-04-12T07:43:51.45Z</time></trkpt><trkpt lat="44.8296633" lon="8.184985"><ele>183.0</ele><time>2026-04-12T07:43:52.45Z</time></trkpt><trkpt lat="44.8295633" lon="8.1849917"><ele>183.0</ele><time>2026-04-12T07:43:53.45Z</time></trkpt><trkpt lat="44.8294633" lon="8.1849967"><ele>183.0</ele><time>2026-04-12T07:43:54.45Z</time></trkpt><trkpt lat="44.8293567" lon="8.1850133"><ele>183.0</ele><time>2026-04-12T07:43:55.45Z</time></trkpt><trkpt lat="44.82925" lon="8.185045"><ele>183.0</ele><time>2026-04-12T07:43:56.45Z</time></trkpt><trkpt lat="44.829145" lon="8.185105"><ele>183.0</ele><time>2026-04-12T07:43:57.45Z</time></trkpt><trkpt lat="44.8290433" lon="8.1851783"><ele>181.8</ele><time>2026-04-12T07:43:58.45Z</time></trkpt><trkpt lat="44.82895" lon="8.1852583"><ele>180.60000000000002</ele><time>2026-04-12T07:43:59.45Z</time></trkpt><trkpt lat="44.8288567" lon="8.18534"><ele>179.39999999999998</ele><time>2026-04-12T07:44:00.45Z</time></trkpt><trkpt lat="44.828775" lon="8.185395"><ele>178.2</ele><time>2026-04-12T07:44:01.45Z</time></trkpt><trkpt lat="44.8286867" lon="8.185435"><ele>177.0</ele><time>2026-04-12T07:44:02.45Z</time></trkpt><trkpt lat="44.8285967" lon="8.1854283"><ele>177.0</ele><time>2026-04-12T07:44:03.45Z</time></trkpt><trkpt lat="44.8285017" lon="8.1854233"><ele>177.0</ele><time>2026-04-12T07:44:04.45Z</time></trkpt><trkpt lat="44.8284217" lon="8.1854117"><ele>177.0</ele><time>2026-04-12T07:44:05.451Z</time></trkpt><trkpt lat="44.82835" lon="8.185395"><ele>177.0</ele><time>2026-04-12T07:44:06.45Z</time></trkpt><trkpt lat="44.828285" lon="8.18539"><ele>177.0</ele><time>2026-04-12T07:44:07.45Z</time></trkpt><trkpt lat="44.8281867" lon="8.1853467"><ele>177.0</ele><time>2026-04-12T07:44:09.45Z</time></trkpt><trkpt lat="44.8281433" lon="8.1852433"><ele>176.2</ele><time>2026-04-12T07:44:11.451Z</time></trkpt><trkpt lat="44.828175" lon="8.1851067"><ele>175.39999999999998</ele><time>2026-04-12T07:44:13.45Z</time></trkpt><trkpt lat="44.8282117" lon="8.1849417"><ele>174.60000000000002</ele><time>2026-04-12T07:44:15.45Z</time></trkpt><trkpt lat="44.828245" lon="8.1847683"><ele>173.8</ele><time>2026-04-12T07:44:17.45Z</time></trkpt><trkpt lat="44.82826" lon="8.1846767"><ele>173.0</ele><time>2026-04-12T07:44:18.45Z</time></trkpt><trkpt lat="44.8282783" lon="8.184505"><ele>173.0</ele><time>2026-04-12T07:44:20.45Z</time></trkpt><trkpt lat="44.8282717" lon="8.1843383"><ele>173.0</ele><time>2026-04-12T07:44:22.451Z</time></trkpt><trkpt lat="44.8282883" lon="8.1841867"><ele>173.0</ele><time>2026-04-12T07:44:24.45Z</time></trkpt><trkpt lat="44.8282933" lon="8.1840067"><ele>173.0</ele><time>2026-04-12T07:44:26.45Z</time></trkpt><trkpt lat="44.82829" lon="8.1839133"><ele>173.0</ele><time>2026-04-12T07:44:27.45Z</time></trkpt><trkpt lat="44.828305" lon="8.183745"><ele>173.0</ele><time>2026-04-12T07:44:29.45Z</time></trkpt><trkpt lat="44.8283133" lon="8.1836567"><ele>173.0</ele><time>2026-04-12T07:44:30.45Z</time></trkpt><trkpt lat="44.8283183" lon="8.1835617"><ele>173.0</ele><time>2026-04-12T07:44:31.45Z</time></trkpt><trkpt lat="44.8283133" lon="8.183465"><ele>173.0</ele><time>2026-04-12T07:44:32.45Z</time></trkpt><trkpt lat="44.8283167" lon="8.1833733"><ele>173.0</ele><time>2026-04-12T07:44:33.451Z</time></trkpt><trkpt lat="44.828315" lon="8.1832817"><ele>173.0</ele><time>2026-04-12T07:44:34.45Z</time></trkpt><trkpt lat="44.82831" lon="8.1831033"><ele>172.5</ele><time>2026-04-12T07:44:36.45Z</time></trkpt><trkpt lat="44.828315" lon="8.1829217"><ele>172.0</ele><time>2026-04-12T07:44:38.45Z</time></trkpt><trkpt lat="44.8283167" lon="8.1828267"><ele>171.5</ele><time>2026-04-12T07:44:39.45Z</time></trkpt><trkpt lat="44.82832" lon="8.1827333"><ele>171.0</ele><time>2026-04-12T07:44:40.45Z</time></trkpt><trkpt lat="44.8283233" lon="8.1826383"><ele>170.5</ele><time>2026-04-12T07:44:41.45Z</time></trkpt><trkpt lat="44.82833" lon="8.1825383"><ele>170.0</ele><time>2026-04-12T07:44:42.45Z</time></trkpt><trkpt lat="44.8283367" lon="8.18244"><ele>170.0</ele><time>2026-04-12T07:44:43.45Z</time></trkpt><trkpt lat="44.82834" lon="8.18234"><ele>170.0</ele><time>2026-04-12T07:44:44.45Z</time></trkpt><trkpt lat="44.8283467" lon="8.1822467"><ele>170.0</ele><time>2026-04-12T07:44:45.45Z</time></trkpt><trkpt lat="44.8283633" lon="8.1821533"><ele>170.0</ele><time>2026-04-12T07:44:46.45Z</time></trkpt><trkpt lat="44.8283767" lon="8.1820567"><ele>170.0</ele><time>2026-04-12T07:44:47.451Z</time></trkpt><trkpt lat="44.82839" lon="8.1819617"><ele>170.0</ele><time>2026-04-12T07:44:48.45Z</time></trkpt><trkpt lat="44.8284067" lon="8.1818617"><ele>170.0</ele><time>2026-04-12T07:44:49.45Z</time></trkpt><trkpt lat="44.8284183" lon="8.181765"><ele>170.0</ele><time>2026-04-12T07:44:50.45Z</time></trkpt><trkpt lat="44.828435" lon="8.1816633"><ele>170.0</ele><time>2026-04-12T07:44:51.45Z</time></trkpt><trkpt lat="44.828455" lon="8.18156"><ele>170.0</ele><time>2026-04-12T07:44:52.45Z</time></trkpt><trkpt lat="44.828475" lon="8.1814567"><ele>170.0</ele><time>2026-04-12T07:44:53.45Z</time></trkpt><trkpt lat="44.8285" lon="8.18135"><ele>170.0</ele><time>2026-04-12T07:44:54.45Z</time></trkpt><trkpt lat="44.828515" lon="8.181255"><ele>170.0</ele><time>2026-04-12T07:44:55.45Z</time></trkpt><trkpt lat="44.82853" lon="8.181155"><ele>170.0</ele><time>2026-04-12T07:44:56.45Z</time></trkpt><trkpt lat="44.8285483" lon="8.1810517"><ele>169.83333333333331</ele><time>2026-04-12T07:44:57.45Z</time></trkpt><trkpt lat="44.8285667" lon="8.180945"><ele>169.66666666666666</ele><time>2026-04-12T07:44:58.45Z</time></trkpt><trkpt lat="44.8285833" lon="8.1808417"><ele>169.5</ele><time>2026-04-12T07:44:59.45Z</time></trkpt><trkpt lat="44.828605" lon="8.1807283"><ele>169.33333333333334</ele><time>2026-04-12T07:45:00.45Z</time></trkpt><trkpt lat="44.8286317" lon="8.180605"><ele>169.16666666666669</ele><time>2026-04-12T07:45:01.45Z</time></trkpt><trkpt lat="44.8286533" lon="8.18048"><ele>169.0</ele><time>2026-04-12T07:45:02.45Z</time></trkpt><trkpt lat="44.828675" lon="8.180355"><ele>169.0</ele><time>2026-04-12T07:45:03.45Z</time></trkpt><trkpt lat="44.8286967" lon="8.1802267"><ele>169.0</ele><time>2026-04-12T07:45:04.45Z</time></trkpt><trkpt lat="44.828715" lon="8.180095"><ele>169.0</ele><time>2026-04-12T07:45:05.45Z</time></trkpt><trkpt lat="44.8287383" lon="8.1799583"><ele>169.0</ele><time>2026-04-12T07:45:06.45Z</time></trkpt><trkpt lat="44.82877" lon="8.1798267"><ele>169.0</ele><time>2026-04-12T07:45:07.45Z</time></trkpt><trkpt lat="44.8287883" lon="8.17969"><ele>166.79999999999998</ele><time>2026-04-12T07:45:08.45Z</time></trkpt><trkpt lat="44.8288" lon="8.1795467"><ele>164.6</ele><time>2026-04-12T07:45:09.45Z</time></trkpt><trkpt lat="44.8288017" lon="8.1794067"><ele>162.4</ele><time>2026-04-12T07:45:10.45Z</time></trkpt><trkpt lat="44.828795" lon="8.17927"><ele>160.2</ele><time>2026-04-12T07:45:11.45Z</time></trkpt><trkpt lat="44.82877" lon="8.17912"><ele>158.0</ele><time>2026-04-12T07:45:12.45Z</time></trkpt><trkpt lat="44.82874" lon="8.1789817"><ele>157.6</ele><time>2026-04-12T07:45:13.45Z</time></trkpt><trkpt lat="44.8286967" lon="8.1788533"><ele>157.20000000000002</ele><time>2026-04-12T07:45:14.45Z</time></trkpt><trkpt lat="44.8286417" lon="8.1787317"><ele>156.8</ele><time>2026-04-12T07:45:15.45Z</time></trkpt><trkpt lat="44.8285733" lon="8.17861"><ele>156.4</ele><time>2026-04-12T07:45:16.45Z</time></trkpt><trkpt lat="44.82849" lon="8.1785067"><ele>156.0</ele><time>2026-04-12T07:45:17.45Z</time></trkpt><trkpt lat="44.8284" lon="8.17842"><ele>156.0</ele><time>2026-04-12T07:45:18.451Z</time></trkpt><trkpt lat="44.8283083" lon="8.1783317"><ele>156.0</ele><time>2026-04-12T07:45:19.45Z</time></trkpt><trkpt lat="44.8282183" lon="8.178245"><ele>156.0</ele><time>2026-04-12T07:45:20.45Z</time></trkpt><trkpt lat="44.8281217" lon="8.1781783"><ele>156.0</ele><time>2026-04-12T07:45:21.45Z</time></trkpt><trkpt lat="44.8280333" lon="8.1781067"><ele>156.0</ele><time>2026-04-12T07:45:22.45Z</time></trkpt><trkpt lat="44.8279467" lon="8.1780383"><ele>155.5</ele><time>2026-04-12T07:45:23.45Z</time></trkpt><trkpt lat="44.82787" lon="8.1779683"><ele>155.0</ele><time>2026-04-12T07:45:24.45Z</time></trkpt><trkpt lat="44.8278033" lon="8.1779067"><ele>154.5</ele><time>2026-04-12T07:45:25.45Z</time></trkpt><trkpt lat="44.82774" lon="8.1778267"><ele>154.0</ele><time>2026-04-12T07:45:26.45Z</time></trkpt><trkpt lat="44.82768" lon="8.177735"><ele>153.5</ele><time>2026-04-12T07:45:27.45Z</time></trkpt><trkpt lat="44.827635" lon="8.1776483"><ele>153.0</ele><time>2026-04-12T07:45:28.451Z</time></trkpt><trkpt lat="44.8276083" lon="8.1775633"><ele>153.0</ele><time>2026-04-12T07:45:29.45Z</time></trkpt><trkpt lat="44.82761" lon="8.1774733"><ele>153.0</ele><time>2026-04-12T07:45:30.45Z</time></trkpt><trkpt lat="44.8276583" lon="8.1773233"><ele>153.0</ele><time>2026-04-12T07:45:32.45Z</time></trkpt><trkpt lat="44.8277367" lon="8.1773"><ele>153.0</ele><time>2026-04-12T07:45:33.45Z</time></trkpt><trkpt lat="44.82783" lon="8.177295"><ele>153.0</ele><time>2026-04-12T07:45:34.45Z</time></trkpt><trkpt lat="44.8279233" lon="8.177285"><ele>153.0</ele><time>2026-04-12T07:45:35.45Z</time></trkpt><trkpt lat="44.8280017" lon="8.177295"><ele>152.0</ele><time>2026-04-12T07:45:36.451Z</time></trkpt><trkpt lat="44.8280767" lon="8.1772967"><ele>151.0</ele><time>2026-04-12T07:45:37.45Z</time></trkpt><trkpt lat="44.8281533" lon="8.17731"><ele>150.0</ele><time>2026-04-12T07:45:38.45Z</time></trkpt><trkpt lat="44.8282317" lon="8.1773217"><ele>149.0</ele><time>2026-04-12T07:45:39.45Z</time></trkpt><trkpt lat="44.8283067" lon="8.1773433"><ele>148.0</ele><time>2026-04-12T07:45:40.45Z</time></trkpt><trkpt lat="44.8283717" lon="8.1773667"><ele>147.0</ele><time>2026-04-12T07:45:41.45Z</time></trkpt><trkpt lat="44.82847" lon="8.1774167"><ele>146.16666666666666</ele><time>2026-04-12T07:45:43.45Z</time></trkpt><trkpt lat="44.82854" lon="8.1774383"><ele>145.33333333333334</ele><time>2026-04-12T07:45:45.45Z</time></trkpt><trkpt lat="44.828515" lon="8.1773517"><ele>144.5</ele><time>2026-04-12T07:45:54.45Z</time></trkpt><trkpt lat="44.828445" lon="8.177275"><ele>143.66666666666669</ele><time>2026-04-12T07:45:57.45Z</time></trkpt><trkpt lat="44.82841" lon="8.1771433"><ele>142.83333333333334</ele><time>2026-04-12T07:45:59.45Z</time></trkpt><trkpt lat="44.8284" lon="8.1770517"><ele>142.0</ele><time>2026-04-12T07:46:00.45Z</time></trkpt><trkpt lat="44.8283883" lon="8.176955"><ele>141.5</ele><time>2026-04-12T07:46:01.45Z</time></trkpt><trkpt lat="44.8283683" lon="8.1768667"><ele>141.0</ele><time>2026-04-12T07:46:02.45Z</time></trkpt><trkpt lat="44.828335" lon="8.17677"><ele>140.5</ele><time>2026-04-12T07:46:03.45Z</time></trkpt><trkpt lat="44.8282933" lon="8.1766583"><ele>140.0</ele><time>2026-04-12T07:46:04.45Z</time></trkpt><trkpt lat="44.8282383" lon="8.176535"><ele>139.5</ele><time>2026-04-12T07:46:05.45Z</time></trkpt><trkpt lat="44.8281883" lon="8.1764067"><ele>139.0</ele><time>2026-04-12T07:46:06.45Z</time></trkpt><trkpt lat="44.82815" lon="8.1762933"><ele>138.16666666666669</ele><time>2026-04-12T07:46:07.45Z</time></trkpt><trkpt lat="44.8281183" lon="8.1761883"><ele>137.33333333333334</ele><time>2026-04-12T07:46:08.45Z</time></trkpt><trkpt lat="44.8280933" lon="8.1760883"><ele>136.5</ele><time>2026-04-12T07:46:09.45Z</time></trkpt><trkpt lat="44.82807" lon="8.1760033"><ele>135.66666666666666</ele><time>2026-04-12T07:46:10.45Z</time></trkpt><trkpt lat="44.8280333" lon="8.17588"><ele>134.83333333333331</ele><time>2026-04-12T07:46:12.45Z</time></trkpt><trkpt lat="44.8279883" lon="8.1757683"><ele>134.0</ele><time>2026-04-12T07:46:14.45Z</time></trkpt><trkpt lat="44.8279183" lon="8.1756617"><ele>133.8</ele><time>2026-04-12T07:46:16.45Z</time></trkpt><trkpt lat="44.8278617" lon="8.17562"><ele>133.60000000000002</ele><time>2026-04-12T07:46:17.45Z</time></trkpt><trkpt lat="44.82775" lon="8.1755467"><ele>133.4</ele><time>2026-04-12T07:46:19.45Z</time></trkpt><trkpt lat="44.82764" lon="8.1754817"><ele>133.20000000000002</ele><time>2026-04-12T07:46:21.45Z</time></trkpt><trkpt lat="44.8275533" lon="8.1753717"><ele>133.0</ele><time>2026-04-12T07:46:23.45Z</time></trkpt><trkpt lat="44.8275083" lon="8.175195"><ele>133.0</ele><time>2026-04-12T07:46:25.45Z</time></trkpt><trkpt lat="44.8274983" lon="8.17509"><ele>133.0</ele><time>2026-04-12T07:46:26.45Z</time></trkpt><trkpt lat="44.827495" lon="8.1749833"><ele>133.0</ele><time>2026-04-12T07:46:27.45Z</time></trkpt><trkpt lat="44.8275083" lon="8.1748767"><ele>133.0</ele><time>2026-04-12T07:46:28.45Z</time></trkpt><trkpt lat="44.8275267" lon="8.1747683"><ele>133.0</ele><time>2026-04-12T07:46:29.45Z</time></trkpt><trkpt lat="44.8275367" lon="8.1746633"><ele>133.0</ele><time>2026-04-12T07:46:30.45Z</time></trkpt><trkpt lat="44.82755" lon="8.1745567"><ele>132.16666666666669</ele><time>2026-04-12T07:46:31.45Z</time></trkpt><trkpt lat="44.8275633" lon="8.174455"><ele>131.33333333333334</ele><time>2026-04-12T07:46:32.45Z</time></trkpt><trkpt lat="44.8275783" lon="8.1743517"><ele>130.5</ele><time>2026-04-12T07:46:33.45Z</time></trkpt><trkpt lat="44.827595" lon="8.1742517"><ele>129.66666666666666</ele><time>2026-04-12T07:46:34.45Z</time></trkpt><trkpt lat="44.8276133" lon="8.174145"><ele>128.83333333333331</ele><time>2026-04-12T07:46:35.45Z</time></trkpt><trkpt lat="44.82763" lon="8.1740367"><ele>128.0</ele><time>2026-04-12T07:46:36.45Z</time></trkpt><trkpt lat="44.8276467" lon="8.1739317"><ele>127.57142857142857</ele><time>2026-04-12T07:46:37.451Z</time></trkpt><trkpt lat="44.827665" lon="8.1738383"><ele>127.14285714285714</ele><time>2026-04-12T07:46:38.45Z</time></trkpt><trkpt lat="44.8276867" lon="8.17375"><ele>126.71428571428571</ele><time>2026-04-12T07:46:39.45Z</time></trkpt><trkpt lat="44.82771" lon="8.1736617"><ele>126.28571428571428</ele><time>2026-04-12T07:46:40.45Z</time></trkpt><trkpt lat="44.82774" lon="8.1735683"><ele>125.85714285714286</ele><time>2026-04-12T07:46:41.45Z</time></trkpt><trkpt lat="44.8277717" lon="8.1734717"><ele>125.42857142857142</ele><time>2026-04-12T07:46:42.45Z</time></trkpt><trkpt lat="44.8277967" lon="8.1733717"><ele>125.0</ele><time>2026-04-12T07:46:43.45Z</time></trkpt><trkpt lat="44.827825" lon="8.173265"><ele>125.33333333333333</ele><time>2026-04-12T07:46:44.45Z</time></trkpt><trkpt lat="44.8278517" lon="8.1731617"><ele>125.66666666666666</ele><time>2026-04-12T07:46:45.45Z</time></trkpt><trkpt lat="44.8278833" lon="8.1730667"><ele>126.0</ele><time>2026-04-12T07:46:46.45Z</time></trkpt><trkpt lat="44.827915" lon="8.1729633"><ele>126.33333333333334</ele><time>2026-04-12T07:46:47.45Z</time></trkpt><trkpt lat="44.8279533" lon="8.1728583"><ele>126.66666666666667</ele><time>2026-04-12T07:46:48.45Z</time></trkpt><trkpt lat="44.8279883" lon="8.17276"><ele>127.0</ele><time>2026-04-12T07:46:49.45Z</time></trkpt><trkpt lat="44.828025" lon="8.172665"><ele>127.0</ele><time>2026-04-12T07:46:50.451Z</time></trkpt><trkpt lat="44.82806" lon="8.1725733"><ele>127.0</ele><time>2026-04-12T07:46:51.45Z</time></trkpt><trkpt lat="44.8280933" lon="8.1724867"><ele>127.0</ele><time>2026-04-12T07:46:52.45Z</time></trkpt><trkpt lat="44.828125" lon="8.1724017"><ele>127.0</ele><time>2026-04-12T07:46:53.45Z</time></trkpt><trkpt lat="44.8281517" lon="8.1723117"><ele>127.0</ele><time>2026-04-12T07:46:54.45Z</time></trkpt><trkpt lat="44.8281767" lon="8.1722283"><ele>127.0</ele><time>2026-04-12T07:46:55.45Z</time></trkpt><trkpt lat="44.8282017" lon="8.172145"><ele>127.0</ele><time>2026-04-12T07:46:56.45Z</time></trkpt><trkpt lat="44.8282467" lon="8.172025"><ele>127.0</ele><time>2026-04-12T07:46:58.45Z</time></trkpt><trkpt lat="44.828315" lon="8.1719433"><ele>126.99999999999999</ele><time>2026-04-12T07:47:15.45Z</time></trkpt><trkpt lat="44.8283533" lon="8.171825"><ele>126.99999999999999</ele><time>2026-04-12T07:47:18.451Z</time></trkpt><trkpt lat="44.8284" lon="8.1716867"><ele>127.0</ele><time>2026-04-12T07:47:20.45Z</time></trkpt><trkpt lat="44.828445" lon="8.17155"><ele>127.0</ele><time>2026-04-12T07:47:22.451Z</time></trkpt><trkpt lat="44.8284867" lon="8.171425"><ele>127.5</ele><time>2026-04-12T07:47:24.45Z</time></trkpt><trkpt lat="44.82853" lon="8.1712667"><ele>128.0</ele><time>2026-04-12T07:47:26.45Z</time></trkpt><trkpt lat="44.8285633" lon="8.1711017"><ele>128.5</ele><time>2026-04-12T07:47:28.45Z</time></trkpt><trkpt lat="44.82859" lon="8.1709383"><ele>129.0</ele><time>2026-04-12T07:47:30.45Z</time></trkpt><trkpt lat="44.828615" lon="8.1707783"><ele>128.66666666666666</ele><time>2026-04-12T07:47:32.45Z</time></trkpt><trkpt lat="44.8286317" lon="8.1706067"><ele>128.33333333333334</ele><time>2026-04-12T07:47:34.45Z</time></trkpt><trkpt lat="44.82864" lon="8.1705183"><ele>128.0</ele><time>2026-04-12T07:47:35.45Z</time></trkpt><trkpt lat="44.8286483" lon="8.1704267"><ele>127.66666666666667</ele><time>2026-04-12T07:47:36.45Z</time></trkpt><trkpt lat="44.8286567" lon="8.1703333"><ele>127.33333333333334</ele><time>2026-04-12T07:47:37.45Z</time></trkpt><trkpt lat="44.828665" lon="8.1702367"><ele>127.0</ele><time>2026-04-12T07:47:38.45Z</time></trkpt><trkpt lat="44.8286717" lon="8.1701383"><ele>127.0</ele><time>2026-04-12T07:47:39.45Z</time></trkpt><trkpt lat="44.8286767" lon="8.1700417"><ele>126.99999999999999</ele><time>2026-04-12T07:47:40.45Z</time></trkpt><trkpt lat="44.8286817" lon="8.1699433"><ele>126.99999999999999</ele><time>2026-04-12T07:47:41.45Z</time></trkpt><trkpt lat="44.828685" lon="8.1698533"><ele>127.0</ele><time>2026-04-12T07:47:42.45Z</time></trkpt><trkpt lat="44.8287017" lon="8.1696817"><ele>127.0</ele><time>2026-04-12T07:47:44.45Z</time></trkpt><trkpt lat="44.8286983" lon="8.1695067"><ele>127.0</ele><time>2026-04-12T07:47:46.45Z</time></trkpt><trkpt lat="44.82868" lon="8.16942"><ele>127.0</ele><time>2026-04-12T07:47:47.45Z</time></trkpt><trkpt lat="44.828655" lon="8.1693383"><ele>127.0</ele><time>2026-04-12T07:47:48.45Z</time></trkpt><trkpt lat="44.8286267" lon="8.1692533"><ele>127.0</ele><time>2026-04-12T07:47:49.45Z</time></trkpt><trkpt lat="44.828595" lon="8.1691683"><ele>127.0</ele><time>2026-04-12T07:47:50.45Z</time></trkpt><trkpt lat="44.8285633" lon="8.169085"><ele>127.0</ele><time>2026-04-12T07:47:51.45Z</time></trkpt><trkpt lat="44.8285333" lon="8.169005"><ele>127.0</ele><time>2026-04-12T07:47:52.45Z</time></trkpt><trkpt lat="44.8285033" lon="8.1689233"><ele>126.66666666666667</ele><time>2026-04-12T07:47:53.45Z</time></trkpt><trkpt lat="44.8284767" lon="8.1688417"><ele>126.33333333333334</ele><time>2026-04-12T07:47:54.451Z</time></trkpt><trkpt lat="44.8284467" lon="8.16876"><ele>126.0</ele><time>2026-04-12T07:47:55.451Z</time></trkpt><trkpt lat="44.82839" lon="8.1686033"><ele>125.66666666666666</ele><time>2026-04-12T07:47:57.45Z</time></trkpt><trkpt lat="44.8283317" lon="8.1684483"><ele>125.33333333333333</ele><time>2026-04-12T07:47:59.45Z</time></trkpt><trkpt lat="44.8283" lon="8.168365"><ele>125.0</ele><time>2026-04-12T07:48:00.45Z</time></trkpt><trkpt lat="44.8282733" lon="8.1682833"><ele>125.0</ele><time>2026-04-12T07:48:01.45Z</time></trkpt><trkpt lat="44.828245" lon="8.1682033"><ele>125.0</ele><time>2026-04-12T07:48:02.45Z</time></trkpt><trkpt lat="44.8282183" lon="8.1681217"><ele>125.0</ele><time>2026-04-12T07:48:03.45Z</time></trkpt><trkpt lat="44.8281867" lon="8.1679567"><ele>125.0</ele><time>2026-04-12T07:48:05.45Z</time></trkpt><trkpt lat="44.828155" lon="8.1678117"><ele>125.0</ele><time>2026-04-12T07:48:07.45Z</time></trkpt><trkpt lat="44.828145" lon="8.1676717"><ele>125.16666666666666</ele><time>2026-04-12T07:48:09.45Z</time></trkpt><trkpt lat="44.828125" lon="8.167545"><ele>125.33333333333333</ele><time>2026-04-12T07:48:11.45Z</time></trkpt><trkpt lat="44.82806" lon="8.1674267"><ele>125.5</ele><time>2026-04-12T07:48:13.45Z</time></trkpt><trkpt lat="44.82802" lon="8.1673533"><ele>125.66666666666666</ele><time>2026-04-12T07:48:14.45Z</time></trkpt><trkpt lat="44.82798" lon="8.1672733"><ele>125.83333333333333</ele><time>2026-04-12T07:48:15.451Z</time></trkpt><trkpt lat="44.8279467" lon="8.1671833"><ele>126.0</ele><time>2026-04-12T07:48:16.45Z</time></trkpt><trkpt lat="44.8279083" lon="8.1670983"><ele>126.0</ele><time>2026-04-12T07:48:17.45Z</time></trkpt><trkpt lat="44.8278667" lon="8.1670117"><ele>126.0</ele><time>2026-04-12T07:48:18.45Z</time></trkpt><trkpt lat="44.8278183" lon="8.1669367"><ele>126.0</ele><time>2026-04-12T07:48:19.45Z</time></trkpt><trkpt lat="44.8277667" lon="8.1668667"><ele>126.0</ele><time>2026-04-12T07:48:20.45Z</time></trkpt><trkpt lat="44.82771" lon="8.166805"><ele>126.0</ele><time>2026-04-12T07:48:21.45Z</time></trkpt><trkpt lat="44.82765" lon="8.1667517"><ele>126.0</ele><time>2026-04-12T07:48:22.45Z</time></trkpt><trkpt lat="44.8275883" lon="8.166695"><ele>126.0</ele><time>2026-04-12T07:48:23.45Z</time></trkpt><trkpt lat="44.8275183" lon="8.1666383"><ele>126.16666666666667</ele><time>2026-04-12T07:48:24.45Z</time></trkpt><trkpt lat="44.8274567" lon="8.1665817"><ele>126.33333333333334</ele><time>2026-04-12T07:48:25.45Z</time></trkpt><trkpt lat="44.8273917" lon="8.16652"><ele>126.5</ele><time>2026-04-12T07:48:26.45Z</time></trkpt><trkpt lat="44.8273267" lon="8.1664617"><ele>126.66666666666667</ele><time>2026-04-12T07:48:27.45Z</time></trkpt><trkpt lat="44.8272617" lon="8.166405"><ele>126.83333333333334</ele><time>2026-04-12T07:48:28.45Z</time></trkpt><trkpt lat="44.827205" lon="8.1663367"><ele>127.0</ele><time>2026-04-12T07:48:29.451Z</time></trkpt><trkpt lat="44.8271433" lon="8.16627"><ele>127.0</ele><time>2026-04-12T07:48:30.45Z</time></trkpt><trkpt lat="44.827085" lon="8.1662017"><ele>127.0</ele><time>2026-04-12T07:48:31.45Z</time></trkpt><trkpt lat="44.8270283" lon="8.1661317"><ele>127.0</ele><time>2026-04-12T07:48:32.45Z</time></trkpt><trkpt lat="44.8269733" lon="8.16606"><ele>127.0</ele><time>2026-04-12T07:48:33.45Z</time></trkpt><trkpt lat="44.8269267" lon="8.1659817"><ele>127.0</ele><time>2026-04-12T07:48:34.45Z</time></trkpt><trkpt lat="44.8268817" lon="8.1658983"><ele>127.0</ele><time>2026-04-12T07:48:35.45Z</time></trkpt><trkpt lat="44.826835" lon="8.1658167"><ele>127.0</ele><time>2026-04-12T07:48:36.45Z</time></trkpt><trkpt lat="44.826785" lon="8.1657283"><ele>127.0</ele><time>2026-04-12T07:48:37.45Z</time></trkpt><trkpt lat="44.8267417" lon="8.1656467"><ele>127.0</ele><time>2026-04-12T07:48:38.45Z</time></trkpt><trkpt lat="44.8267017" lon="8.1655617"><ele>127.0</ele><time>2026-04-12T07:48:39.45Z</time></trkpt><trkpt lat="44.8266683" lon="8.1654783"><ele>127.0</ele><time>2026-04-12T07:48:40.45Z</time></trkpt><trkpt lat="44.8266433" lon="8.1653967"><ele>127.0</ele><time>2026-04-12T07:48:41.45Z</time></trkpt><trkpt lat="44.82662" lon="8.165305"><ele>127.0</ele><time>2026-04-12T07:48:42.45Z</time></trkpt><trkpt lat="44.8265917" lon="8.1652183"><ele>127.0</ele><time>2026-04-12T07:48:43.45Z</time></trkpt><trkpt lat="44.8265617" lon="8.1651283"><ele>127.0</ele><time>2026-04-12T07:48:44.45Z</time></trkpt><trkpt lat="44.826535" lon="8.165035"><ele>127.0</ele><time>2026-04-12T07:48:45.45Z</time></trkpt><trkpt lat="44.826505" lon="8.16495"><ele>127.0</ele><time>2026-04-12T07:48:46.45Z</time></trkpt><trkpt lat="44.8264817" lon="8.1648633"><ele>127.0</ele><time>2026-04-12T07:48:47.45Z</time></trkpt><trkpt lat="44.8264617" lon="8.164775"><ele>127.0</ele><time>2026-04-12T07:48:48.45Z</time></trkpt><trkpt lat="44.826445" lon="8.1646833"><ele>127.0</ele><time>2026-04-12T07:48:49.45Z</time></trkpt><trkpt lat="44.82643" lon="8.16458"><ele>127.0</ele><time>2026-04-12T07:48:50.45Z</time></trkpt><trkpt lat="44.826415" lon="8.1644817"><ele>127.0</ele><time>2026-04-12T07:48:51.45Z</time></trkpt><trkpt lat="44.826405" lon="8.164385"><ele>127.0</ele><time>2026-04-12T07:48:52.45Z</time></trkpt><trkpt lat="44.826385" lon="8.1642867"><ele>127.0</ele><time>2026-04-12T07:48:53.45Z</time></trkpt><trkpt lat="44.826375" lon="8.1641883"><ele>127.0</ele><time>2026-04-12T07:48:54.45Z</time></trkpt><trkpt lat="44.82637" lon="8.16409"><ele>127.0</ele><time>2026-04-12T07:48:55.45Z</time></trkpt><trkpt lat="44.82636" lon="8.1639983"><ele>127.0</ele><time>2026-04-12T07:48:56.45Z</time></trkpt><trkpt lat="44.8263517" lon="8.1639067"><ele>127.0</ele><time>2026-04-12T07:48:57.45Z</time></trkpt><trkpt lat="44.8263217" lon="8.1637467"><ele>126.66666666666667</ele><time>2026-04-12T07:48:59.45Z</time></trkpt><trkpt lat="44.82631" lon="8.1636583"><ele>126.33333333333334</ele><time>2026-04-12T07:49:00.45Z</time></trkpt><trkpt lat="44.8262933" lon="8.16357"><ele>126.0</ele><time>2026-04-12T07:49:01.45Z</time></trkpt><trkpt lat="44.826285" lon="8.1634817"><ele>125.66666666666666</ele><time>2026-04-12T07:49:02.451Z</time></trkpt><trkpt lat="44.82627" lon="8.163315"><ele>125.33333333333333</ele><time>2026-04-12T07:49:04.45Z</time></trkpt><trkpt lat="44.8262483" lon="8.1631483"><ele>125.0</ele><time>2026-04-12T07:49:06.45Z</time></trkpt><trkpt lat="44.8262333" lon="8.1629967"><ele>125.0</ele><time>2026-04-12T07:49:08.45Z</time></trkpt><trkpt lat="44.8262217" lon="8.1628417"><ele>125.0</ele><time>2026-04-12T07:49:10.45Z</time></trkpt><trkpt lat="44.82627" lon="8.1627283"><ele>125.0</ele><time>2026-04-12T07:49:12.45Z</time></trkpt><trkpt lat="44.8263567" lon="8.1626233"><ele>125.0</ele><time>2026-04-12T07:49:14.45Z</time></trkpt><trkpt lat="44.8264483" lon="8.16251"><ele>125.0</ele><time>2026-04-12T07:49:16.45Z</time></trkpt><trkpt lat="44.8264983" lon="8.1624517"><ele>125.0</ele><time>2026-04-12T07:49:17.45Z</time></trkpt><trkpt lat="44.8265483" lon="8.16239"><ele>125.0</ele><time>2026-04-12T07:49:18.45Z</time></trkpt><trkpt lat="44.8265983" lon="8.1623283"><ele>125.0</ele><time>2026-04-12T07:49:19.45Z</time></trkpt><trkpt lat="44.8266517" lon="8.1622633"><ele>125.0</ele><time>2026-04-12T07:49:20.45Z</time></trkpt><trkpt lat="44.826705" lon="8.1622033"><ele>125.0</ele><time>2026-04-12T07:49:21.45Z</time></trkpt><trkpt lat="44.8267617" lon="8.1621467"><ele>125.0</ele><time>2026-04-12T07:49:22.45Z</time></trkpt><trkpt lat="44.8268167" lon="8.162085"><ele>125.0</ele><time>2026-04-12T07:49:23.45Z</time></trkpt><trkpt lat="44.8268667" lon="8.1620267"><ele>124.85714285714286</ele><time>2026-04-12T07:49:24.45Z</time></trkpt><trkpt lat="44.8269183" lon="8.1619633"><ele>124.71428571428572</ele><time>2026-04-12T07:49:25.45Z</time></trkpt><trkpt lat="44.82697" lon="8.1619"><ele>124.57142857142858</ele><time>2026-04-12T07:49:26.45Z</time></trkpt><trkpt lat="44.827025" lon="8.16183"><ele>124.42857142857143</ele><time>2026-04-12T07:49:27.45Z</time></trkpt><trkpt lat="44.8270767" lon="8.1617683"><ele>124.2857142857143</ele><time>2026-04-12T07:49:28.45Z</time></trkpt><trkpt lat="44.8271283" lon="8.1617017"><ele>124.14285714285715</ele><time>2026-04-12T07:49:29.45Z</time></trkpt><trkpt lat="44.82718" lon="8.1616383"><ele>124.0</ele><time>2026-04-12T07:49:30.45Z</time></trkpt><trkpt lat="44.8272233" lon="8.1615667"><ele>124.2</ele><time>2026-04-12T07:49:31.45Z</time></trkpt><trkpt lat="44.827255" lon="8.161485"><ele>124.4</ele><time>2026-04-12T07:49:32.45Z</time></trkpt><trkpt lat="44.8272717" lon="8.161315"><ele>124.6</ele><time>2026-04-12T07:49:34.45Z</time></trkpt><trkpt lat="44.827295" lon="8.1612267"><ele>124.8</ele><time>2026-04-12T07:49:35.45Z</time></trkpt><trkpt lat="44.8273783" lon="8.1611017"><ele>125.0</ele><time>2026-04-12T07:49:37.45Z</time></trkpt><trkpt lat="44.8274717" lon="8.1609817"><ele>125.0</ele><time>2026-04-12T07:49:39.45Z</time></trkpt><trkpt lat="44.8275583" lon="8.1608717"><ele>125.0</ele><time>2026-04-12T07:49:41.45Z</time></trkpt><trkpt lat="44.827645" lon="8.160775"><ele>125.0</ele><time>2026-04-12T07:49:43.45Z</time></trkpt><trkpt lat="44.8277283" lon="8.1606617"><ele>125.0</ele><time>2026-04-12T07:49:45.45Z</time></trkpt><trkpt lat="44.827775" lon="8.1605983"><ele>125.0</ele><time>2026-04-12T07:49:46.45Z</time></trkpt><trkpt lat="44.8278667" lon="8.16048"><ele>124.83333333333333</ele><time>2026-04-12T07:49:48.45Z</time></trkpt><trkpt lat="44.8279633" lon="8.160365"><ele>124.66666666666666</ele><time>2026-04-12T07:49:50.45Z</time></trkpt><trkpt lat="44.828015" lon="8.1603033"><ele>124.5</ele><time>2026-04-12T07:49:51.45Z</time></trkpt><trkpt lat="44.8280667" lon="8.1602467"><ele>124.33333333333334</ele><time>2026-04-12T07:49:52.45Z</time></trkpt><trkpt lat="44.8281133" lon="8.1601867"><ele>124.16666666666667</ele><time>2026-04-12T07:49:53.45Z</time></trkpt><trkpt lat="44.8281617" lon="8.1601233"><ele>124.0</ele><time>2026-04-12T07:49:54.45Z</time></trkpt><trkpt lat="44.8282083" lon="8.1600567"><ele>124.0</ele><time>2026-04-12T07:49:55.45Z</time></trkpt><trkpt lat="44.828255" lon="8.15999"><ele>124.0</ele><time>2026-04-12T07:49:56.45Z</time></trkpt><trkpt lat="44.8282983" lon="8.1599217"><ele>124.0</ele><time>2026-04-12T07:49:57.45Z</time></trkpt><trkpt lat="44.828385" lon="8.15982"><ele>124.0</ele><time>2026-04-12T07:49:59.45Z</time></trkpt><trkpt lat="44.828485" lon="8.159855"><ele>124.0</ele><time>2026-04-12T07:50:01.45Z</time></trkpt><trkpt lat="44.82855" lon="8.15999"><ele>124.00000000000001</ele><time>2026-04-12T07:50:03.45Z</time></trkpt><trkpt lat="44.828585" lon="8.1600667"><ele>124.0</ele><time>2026-04-12T07:50:04.45Z</time></trkpt><trkpt lat="44.828625" lon="8.1601367"><ele>124.0</ele><time>2026-04-12T07:50:05.45Z</time></trkpt><trkpt lat="44.8286683" lon="8.1602083"><ele>124.0</ele><time>2026-04-12T07:50:06.45Z</time></trkpt><trkpt lat="44.8287067" lon="8.1602817"><ele>124.00000000000001</ele><time>2026-04-12T07:50:07.45Z</time></trkpt><trkpt lat="44.82879" lon="8.1604083"><ele>124.0</ele><time>2026-04-12T07:50:09.45Z</time></trkpt><trkpt lat="44.8288817" lon="8.1604983"><ele>124.00000000000001</ele><time>2026-04-12T07:50:11.45Z</time></trkpt><trkpt lat="44.8289667" lon="8.1605233"><ele>124.0</ele><time>2026-04-12T07:50:13.45Z</time></trkpt><trkpt lat="44.82904" lon="8.1604767"><ele>124.0</ele><time>2026-04-12T07:50:16.45Z</time></trkpt><trkpt lat="44.8290617" lon="8.1603233"><ele>124.0</ele><time>2026-04-12T07:51:17.45Z</time></trkpt><trkpt lat="44.8290917" lon="8.1604033"><ele>124.00000000000001</ele><time>2026-04-12T07:51:34.45Z</time></trkpt><trkpt lat="44.82914" lon="8.1604733"><ele>124.0</ele><time>2026-04-12T07:51:37.45Z</time></trkpt><trkpt lat="44.8291933" lon="8.160415"><ele>124.0</ele><time>2026-04-12T07:51:42.45Z</time></trkpt><trkpt lat="44.8291317" lon="8.160385"><ele>124.0</ele><time>2026-04-12T07:51:45.45Z</time></trkpt><trkpt lat="44.8290433" lon="8.1604433"><ele>124.0</ele><time>2026-04-12T07:51:51.45Z</time></trkpt><trkpt lat="44.8290867" lon="8.1602917"><ele>124.0</ele><time>2026-04-12T07:51:58.45Z</time></trkpt><trkpt lat="44.82913" lon="8.160205"><ele>124.0</ele><time>2026-04-12T07:52:01.45Z</time></trkpt><trkpt lat="44.8292217" lon="8.1601633"><ele>124.0</ele><time>2026-04-12T07:52:02.45Z</time></trkpt><trkpt lat="44.8292683" lon="8.1601"><ele>124.00000000000001</ele><time>2026-04-12T07:52:04.45Z</time></trkpt><trkpt lat="44.82925" lon="8.1600117"><ele>124.0</ele><time>2026-04-12T07:52:07.45Z</time></trkpt><trkpt lat="44.82923" lon="8.1599017"><ele>124.0</ele><time>2026-04-12T07:52:11.45Z</time></trkpt><trkpt lat="44.829215" lon="8.1598033"><ele>124.00000000000001</ele><time>2026-04-12T07:52:15.45Z</time></trkpt><trkpt lat="44.829175" lon="8.1597133"><ele>124.0</ele><time>2026-04-12T07:52:19.45Z</time></trkpt><trkpt lat="44.829135" lon="8.1596433"><ele>124.0</ele><time>2026-04-12T07:52:38.45Z</time></trkpt><trkpt lat="44.8290767" lon="8.1595567"><ele>124.2</ele><time>2026-04-12T07:52:40.45Z</time></trkpt><trkpt lat="44.829015" lon="8.1594517"><ele>124.4</ele><time>2026-04-12T07:52:42.45Z</time></trkpt><trkpt lat="44.82895" lon="8.1593417"><ele>124.6</ele><time>2026-04-12T07:52:44.45Z</time></trkpt><trkpt lat="44.82888" lon="8.1592317"><ele>124.8</ele><time>2026-04-12T07:52:46.45Z</time></trkpt><trkpt lat="44.8288067" lon="8.1591283"><ele>125.0</ele><time>2026-04-12T07:52:48.45Z</time></trkpt><trkpt lat="44.8287317" lon="8.1590133"><ele>125.2</ele><time>2026-04-12T07:52:50.45Z</time></trkpt><trkpt lat="44.82865" lon="8.1588933"><ele>125.4</ele><time>2026-04-12T07:52:52.45Z</time></trkpt><trkpt lat="44.8286083" lon="8.1588267"><ele>125.6</ele><time>2026-04-12T07:52:53.45Z</time></trkpt><trkpt lat="44.828535" lon="8.1586967"><ele>125.8</ele><time>2026-04-12T07:52:55.45Z</time></trkpt><trkpt lat="44.8284517" lon="8.158565"><ele>126.0</ele><time>2026-04-12T07:52:57.45Z</time></trkpt><trkpt lat="44.8283717" lon="8.1584333"><ele>126.0</ele><time>2026-04-12T07:52:59.45Z</time></trkpt><trkpt lat="44.8282983" lon="8.1582983"><ele>126.0</ele><time>2026-04-12T07:53:01.45Z</time></trkpt><trkpt lat="44.8282567" lon="8.1582267"><ele>126.0</ele><time>2026-04-12T07:53:02.45Z</time></trkpt><trkpt lat="44.828175" lon="8.158095"><ele>126.0</ele><time>2026-04-12T07:53:04.45Z</time></trkpt><trkpt lat="44.82809" lon="8.1579683"><ele>126.0</ele><time>2026-04-12T07:53:06.45Z</time></trkpt><trkpt lat="44.828045" lon="8.1579033"><ele>125.71428571428572</ele><time>2026-04-12T07:53:07.45Z</time></trkpt><trkpt lat="44.8280033" lon="8.1578333"><ele>125.42857142857143</ele><time>2026-04-12T07:53:08.45Z</time></trkpt><trkpt lat="44.82797" lon="8.157755"><ele>125.14285714285714</ele><time>2026-04-12T07:53:09.45Z</time></trkpt><trkpt lat="44.82793" lon="8.157685"><ele>124.85714285714286</ele><time>2026-04-12T07:53:10.45Z</time></trkpt><trkpt lat="44.8278817" lon="8.1576083"><ele>124.57142857142858</ele><time>2026-04-12T07:53:11.45Z</time></trkpt><trkpt lat="44.82784" lon="8.1575417"><ele>124.28571428571429</ele><time>2026-04-12T07:53:12.45Z</time></trkpt><trkpt lat="44.8277983" lon="8.1574717"><ele>124.0</ele><time>2026-04-12T07:53:13.45Z</time></trkpt><trkpt lat="44.8277567" lon="8.1574017"><ele>124.14285714285715</ele><time>2026-04-12T07:53:14.45Z</time></trkpt><trkpt lat="44.8277133" lon="8.1573283"><ele>124.2857142857143</ele><time>2026-04-12T07:53:15.45Z</time></trkpt><trkpt lat="44.8276683" lon="8.1572517"><ele>124.42857142857143</ele><time>2026-04-12T07:53:16.45Z</time></trkpt><trkpt lat="44.8276217" lon="8.1571783"><ele>124.57142857142858</ele><time>2026-04-12T07:53:17.45Z</time></trkpt><trkpt lat="44.8275783" lon="8.157105"><ele>124.71428571428572</ele><time>2026-04-12T07:53:18.45Z</time></trkpt><trkpt lat="44.8275383" lon="8.15703"><ele>124.85714285714286</ele><time>2026-04-12T07:53:19.45Z</time></trkpt><trkpt lat="44.8274933" lon="8.156955"><ele>125.0</ele><time>2026-04-12T07:53:20.45Z</time></trkpt><trkpt lat="44.82745" lon="8.1568817"><ele>125.0</ele><time>2026-04-12T07:53:21.45Z</time></trkpt><trkpt lat="44.8274117" lon="8.1568067"><ele>125.0</ele><time>2026-04-12T07:53:22.45Z</time></trkpt><trkpt lat="44.8273717" lon="8.156735"><ele>125.0</ele><time>2026-04-12T07:53:23.45Z</time></trkpt><trkpt lat="44.8273283" lon="8.1566617"><ele>125.0</ele><time>2026-04-12T07:53:24.45Z</time></trkpt><trkpt lat="44.8272817" lon="8.1565883"><ele>125.0</ele><time>2026-04-12T07:53:25.45Z</time></trkpt><trkpt lat="44.8272383" lon="8.156515"><ele>125.0</ele><time>2026-04-12T07:53:26.45Z</time></trkpt><trkpt lat="44.8271933" lon="8.1564483"><ele>125.0</ele><time>2026-04-12T07:53:27.451Z</time></trkpt><trkpt lat="44.8271483" lon="8.1563767"><ele>125.14285714285714</ele><time>2026-04-12T07:53:28.45Z</time></trkpt><trkpt lat="44.8271" lon="8.1563033"><ele>125.28571428571429</ele><time>2026-04-12T07:53:29.45Z</time></trkpt><trkpt lat="44.827055" lon="8.15623"><ele>125.42857142857143</ele><time>2026-04-12T07:53:30.45Z</time></trkpt><trkpt lat="44.82701" lon="8.156155"><ele>125.57142857142857</ele><time>2026-04-12T07:53:31.45Z</time></trkpt><trkpt lat="44.826965" lon="8.1560783"><ele>125.71428571428572</ele><time>2026-04-12T07:53:32.451Z</time></trkpt><trkpt lat="44.82692" lon="8.1560033"><ele>125.85714285714286</ele><time>2026-04-12T07:53:33.45Z</time></trkpt><trkpt lat="44.8268717" lon="8.15593"><ele>126.0</ele><time>2026-04-12T07:53:34.45Z</time></trkpt><trkpt lat="44.826825" lon="8.155855"><ele>126.14285714285714</ele><time>2026-04-12T07:53:35.45Z</time></trkpt><trkpt lat="44.82678" lon="8.1557817"><ele>126.28571428571428</ele><time>2026-04-12T07:53:36.45Z</time></trkpt><trkpt lat="44.82674" lon="8.1557117"><ele>126.42857142857143</ele><time>2026-04-12T07:53:37.45Z</time></trkpt><trkpt lat="44.8266933" lon="8.1556383"><ele>126.57142857142857</ele><time>2026-04-12T07:53:38.45Z</time></trkpt><trkpt lat="44.8266483" lon="8.1555633"><ele>126.71428571428571</ele><time>2026-04-12T07:53:39.45Z</time></trkpt><trkpt lat="44.8266033" lon="8.15549"><ele>126.85714285714286</ele><time>2026-04-12T07:53:40.45Z</time></trkpt><trkpt lat="44.8265583" lon="8.155415"><ele>127.0</ele><time>2026-04-12T07:53:41.45Z</time></trkpt><trkpt lat="44.8265133" lon="8.15534"><ele>127.0</ele><time>2026-04-12T07:53:42.451Z</time></trkpt><trkpt lat="44.8264683" lon="8.15527"><ele>127.0</ele><time>2026-04-12T07:53:43.45Z</time></trkpt><trkpt lat="44.8264217" lon="8.1551967"><ele>127.0</ele><time>2026-04-12T07:53:44.45Z</time></trkpt><trkpt lat="44.826375" lon="8.1551183"><ele>127.0</ele><time>2026-04-12T07:53:45.45Z</time></trkpt><trkpt lat="44.8263283" lon="8.1550417"><ele>127.0</ele><time>2026-04-12T07:53:46.45Z</time></trkpt><trkpt lat="44.826285" lon="8.154965"><ele>127.0</ele><time>2026-04-12T07:53:47.45Z</time></trkpt><trkpt lat="44.8262417" lon="8.1548883"><ele>127.0</ele><time>2026-04-12T07:53:48.45Z</time></trkpt><trkpt lat="44.8262" lon="8.1548133"><ele>126.85714285714286</ele><time>2026-04-12T07:53:49.451Z</time></trkpt><trkpt lat="44.8261567" lon="8.154735"><ele>126.71428571428571</ele><time>2026-04-12T07:53:50.45Z</time></trkpt><trkpt lat="44.82611" lon="8.1546583"><ele>126.57142857142857</ele><time>2026-04-12T07:53:51.45Z</time></trkpt><trkpt lat="44.8260617" lon="8.1545867"><ele>126.42857142857143</ele><time>2026-04-12T07:53:52.45Z</time></trkpt><trkpt lat="44.8260083" lon="8.154515"><ele>126.28571428571428</ele><time>2026-04-12T07:53:53.45Z</time></trkpt><trkpt lat="44.8259633" lon="8.1544433"><ele>126.14285714285714</ele><time>2026-04-12T07:53:54.45Z</time></trkpt><trkpt lat="44.8259167" lon="8.1543683"><ele>126.0</ele><time>2026-04-12T07:53:55.45Z</time></trkpt><trkpt lat="44.82587" lon="8.154295"><ele>126.0</ele><time>2026-04-12T07:53:56.45Z</time></trkpt><trkpt lat="44.8258183" lon="8.15422"><ele>126.0</ele><time>2026-04-12T07:53:57.451Z</time></trkpt><trkpt lat="44.8257767" lon="8.154145"><ele>126.0</ele><time>2026-04-12T07:53:58.45Z</time></trkpt><trkpt lat="44.8257317" lon="8.1540717"><ele>126.0</ele><time>2026-04-12T07:53:59.45Z</time></trkpt><trkpt lat="44.825685" lon="8.1539983"><ele>126.0</ele><time>2026-04-12T07:54:00.45Z</time></trkpt><trkpt lat="44.8256433" lon="8.1539217"><ele>126.0</ele><time>2026-04-12T07:54:01.45Z</time></trkpt><trkpt lat="44.8256" lon="8.1538467"><ele>126.0</ele><time>2026-04-12T07:54:02.45Z</time></trkpt><trkpt lat="44.8255533" lon="8.1537667"><ele>126.0</ele><time>2026-04-12T07:54:03.45Z</time></trkpt><trkpt lat="44.8255067" lon="8.1536917"><ele>126.0</ele><time>2026-04-12T07:54:04.45Z</time></trkpt><trkpt lat="44.8254583" lon="8.1536183"><ele>126.0</ele><time>2026-04-12T07:54:05.45Z</time></trkpt><trkpt lat="44.8254133" lon="8.1535433"><ele>126.0</ele><time>2026-04-12T07:54:06.45Z</time></trkpt><trkpt lat="44.825365" lon="8.1534683"><ele>126.0</ele><time>2026-04-12T07:54:07.45Z</time></trkpt><trkpt lat="44.82532" lon="8.1533967"><ele>126.0</ele><time>2026-04-12T07:54:08.45Z</time></trkpt><trkpt lat="44.8252783" lon="8.1533233"><ele>126.0</ele><time>2026-04-12T07:54:09.45Z</time></trkpt><trkpt lat="44.825235" lon="8.1532467"><ele>126.14285714285714</ele><time>2026-04-12T07:54:10.45Z</time></trkpt><trkpt lat="44.8251933" lon="8.1531667"><ele>126.28571428571428</ele><time>2026-04-12T07:54:11.45Z</time></trkpt><trkpt lat="44.8251467" lon="8.15309"><ele>126.42857142857143</ele><time>2026-04-12T07:54:12.45Z</time></trkpt><trkpt lat="44.8251017" lon="8.1530167"><ele>126.57142857142857</ele><time>2026-04-12T07:54:13.45Z</time></trkpt><trkpt lat="44.825055" lon="8.15295"><ele>126.71428571428571</ele><time>2026-04-12T07:54:14.45Z</time></trkpt><trkpt lat="44.8250117" lon="8.1528817"><ele>126.85714285714286</ele><time>2026-04-12T07:54:15.45Z</time></trkpt><trkpt lat="44.8249683" lon="8.1528067"><ele>127.0</ele><time>2026-04-12T07:54:16.45Z</time></trkpt><trkpt lat="44.8249183" lon="8.152735"><ele>127.0</ele><time>2026-04-12T07:54:17.45Z</time></trkpt><trkpt lat="44.8248683" lon="8.1526633"><ele>127.0</ele><time>2026-04-12T07:54:18.45Z</time></trkpt><trkpt lat="44.824825" lon="8.1525833"><ele>127.0</ele><time>2026-04-12T07:54:19.45Z</time></trkpt><trkpt lat="44.8247817" lon="8.152505"><ele>127.0</ele><time>2026-04-12T07:54:20.45Z</time></trkpt><trkpt lat="44.82474" lon="8.15243"><ele>127.0</ele><time>2026-04-12T07:54:21.45Z</time></trkpt><trkpt lat="44.824695" lon="8.1523567"><ele>127.0</ele><time>2026-04-12T07:54:22.45Z</time></trkpt><trkpt lat="44.8246467" lon="8.1522833"><ele>127.0</ele><time>2026-04-12T07:54:23.45Z</time></trkpt><trkpt lat="44.8245983" lon="8.1522083"><ele>127.0</ele><time>2026-04-12T07:54:24.45Z</time></trkpt><trkpt lat="44.8245533" lon="8.1521333"><ele>127.0</ele><time>2026-04-12T07:54:25.45Z</time></trkpt><trkpt lat="44.824505" lon="8.15206"><ele>127.0</ele><time>2026-04-12T07:54:26.45Z</time></trkpt><trkpt lat="44.8244567" lon="8.151985"><ele>127.0</ele><time>2026-04-12T07:54:27.45Z</time></trkpt><trkpt lat="44.8244083" lon="8.151905"><ele>127.0</ele><time>2026-04-12T07:54:28.451Z</time></trkpt><trkpt lat="44.8243667" lon="8.1518267"><ele>127.0</ele><time>2026-04-12T07:54:29.45Z</time></trkpt><trkpt lat="44.82432" lon="8.15175"><ele>127.0</ele><time>2026-04-12T07:54:30.45Z</time></trkpt><trkpt lat="44.8242733" lon="8.15168"><ele>127.0</ele><time>2026-04-12T07:54:31.45Z</time></trkpt><trkpt lat="44.824225" lon="8.1516117"><ele>127.0</ele><time>2026-04-12T07:54:32.45Z</time></trkpt><trkpt lat="44.8241783" lon="8.151535"><ele>127.0</ele><time>2026-04-12T07:54:33.45Z</time></trkpt><trkpt lat="44.8241333" lon="8.15146"><ele>127.0</ele><time>2026-04-12T07:54:34.45Z</time></trkpt><trkpt lat="44.8240917" lon="8.1513883"><ele>127.0</ele><time>2026-04-12T07:54:35.45Z</time></trkpt><trkpt lat="44.824045" lon="8.1513117"><ele>127.0</ele><time>2026-04-12T07:54:36.45Z</time></trkpt><trkpt lat="44.824" lon="8.1512383"><ele>127.0</ele><time>2026-04-12T07:54:37.45Z</time></trkpt><trkpt lat="44.8239533" lon="8.1511633"><ele>127.0</ele><time>2026-04-12T07:54:38.45Z</time></trkpt><trkpt lat="44.8239117" lon="8.1510883"><ele>127.0</ele><time>2026-04-12T07:54:39.45Z</time></trkpt><trkpt lat="44.8238683" lon="8.15101"><ele>127.0</ele><time>2026-04-12T07:54:40.45Z</time></trkpt><trkpt lat="44.8238267" lon="8.1509367"><ele>127.0</ele><time>2026-04-12T07:54:41.45Z</time></trkpt><trkpt lat="44.8237833" lon="8.1508667"><ele>127.0</ele><time>2026-04-12T07:54:42.45Z</time></trkpt><trkpt lat="44.8237417" lon="8.1507967"><ele>127.0</ele><time>2026-04-12T07:54:43.45Z</time></trkpt><trkpt lat="44.8236967" lon="8.150725"><ele>127.0</ele><time>2026-04-12T07:54:44.45Z</time></trkpt><trkpt lat="44.8236517" lon="8.15065"><ele>127.0</ele><time>2026-04-12T07:54:45.45Z</time></trkpt><trkpt lat="44.8236033" lon="8.1505817"><ele>127.0</ele><time>2026-04-12T07:54:46.45Z</time></trkpt><trkpt lat="44.8235567" lon="8.150505"><ele>127.0</ele><time>2026-04-12T07:54:47.45Z</time></trkpt><trkpt lat="44.8235117" lon="8.1504267"><ele>127.0</ele><time>2026-04-12T07:54:48.45Z</time></trkpt><trkpt lat="44.8234667" lon="8.150355"><ele>127.0</ele><time>2026-04-12T07:54:49.45Z</time></trkpt><trkpt lat="44.8234233" lon="8.15028"><ele>127.0</ele><time>2026-04-12T07:54:50.45Z</time></trkpt><trkpt lat="44.82338" lon="8.1502067"><ele>127.0</ele><time>2026-04-12T07:54:51.45Z</time></trkpt><trkpt lat="44.823335" lon="8.150135"><ele>127.0</ele><time>2026-04-12T07:54:52.45Z</time></trkpt><trkpt lat="44.82326" lon="8.1500017"><ele>126.99999999999999</ele><time>2026-04-12T07:54:54.45Z</time></trkpt><trkpt lat="44.8232017" lon="8.1498983"><ele>126.99999999999999</ele><time>2026-04-12T07:54:56.45Z</time></trkpt><trkpt lat="44.8231383" lon="8.1498133"><ele>127.0</ele><time>2026-04-12T07:54:58.45Z</time></trkpt><trkpt lat="44.82307" lon="8.14971"><ele>127.0</ele><time>2026-04-12T07:55:00.45Z</time></trkpt><trkpt lat="44.82299" lon="8.1495967"><ele>127.0</ele><time>2026-04-12T07:55:02.45Z</time></trkpt><trkpt lat="44.82292" lon="8.1494883"><ele>126.99999999999999</ele><time>2026-04-12T07:55:04.45Z</time></trkpt><trkpt lat="44.8228517" lon="8.1493867"><ele>126.99999999999999</ele><time>2026-04-12T07:55:06.45Z</time></trkpt><trkpt lat="44.8227817" lon="8.14925"><ele>127.0</ele><time>2026-04-12T07:55:08.45Z</time></trkpt><trkpt lat="44.8227083" lon="8.1491183"><ele>127.0</ele><time>2026-04-12T07:55:10.45Z</time></trkpt><trkpt lat="44.8226433" lon="8.1489717"><ele>127.00000000000001</ele><time>2026-04-12T07:55:12.45Z</time></trkpt><trkpt lat="44.8226133" lon="8.1488917"><ele>127.0</ele><time>2026-04-12T07:55:13.45Z</time></trkpt><trkpt lat="44.82255" lon="8.1487383"><ele>127.0</ele><time>2026-04-12T07:55:15.45Z</time></trkpt><trkpt lat="44.8225133" lon="8.14866"><ele>127.0</ele><time>2026-04-12T07:55:16.45Z</time></trkpt><trkpt lat="44.822475" lon="8.1485867"><ele>127.00000000000001</ele><time>2026-04-12T07:55:17.45Z</time></trkpt><trkpt lat="44.822435" lon="8.1485133"><ele>127.0</ele><time>2026-04-12T07:55:18.45Z</time></trkpt><trkpt lat="44.8223917" lon="8.1484417"><ele>127.0</ele><time>2026-04-12T07:55:19.45Z</time></trkpt><trkpt lat="44.8223517" lon="8.1483683"><ele>126.99999999999999</ele><time>2026-04-12T07:55:20.451Z</time></trkpt><trkpt lat="44.8222733" lon="8.14823"><ele>126.99999999999999</ele><time>2026-04-12T07:55:22.451Z</time></trkpt><trkpt lat="44.8221933" lon="8.1481067"><ele>127.0</ele><time>2026-04-12T07:55:24.45Z</time></trkpt><trkpt lat="44.8221133" lon="8.14798"><ele>127.0</ele><time>2026-04-12T07:55:26.45Z</time></trkpt><trkpt lat="44.82207" lon="8.1479133"><ele>127.0</ele><time>2026-04-12T07:55:27.45Z</time></trkpt><trkpt lat="44.8219867" lon="8.1477933"><ele>126.99999999999999</ele><time>2026-04-12T07:55:29.45Z</time></trkpt><trkpt lat="44.821885" lon="8.1477367"><ele>126.99999999999999</ele><time>2026-04-12T07:55:31.45Z</time></trkpt><trkpt lat="44.821775" lon="8.1477467"><ele>127.0</ele><time>2026-04-12T07:55:33.45Z</time></trkpt><trkpt lat="44.8216667" lon="8.1477783"><ele>127.0</ele><time>2026-04-12T07:55:35.45Z</time></trkpt><trkpt lat="44.8215817" lon="8.147825"><ele>127.00000000000001</ele><time>2026-04-12T07:55:37.45Z</time></trkpt><trkpt lat="44.8215233" lon="8.1478767"><ele>127.0</ele><time>2026-04-12T07:55:38.45Z</time></trkpt><trkpt lat="44.821445" lon="8.1479133"><ele>127.0</ele><time>2026-04-12T07:55:39.45Z</time></trkpt><trkpt lat="44.8213433" lon="8.147945"><ele>127.0</ele><time>2026-04-12T07:55:41.45Z</time></trkpt><trkpt lat="44.8212317" lon="8.1479483"><ele>127.00000000000001</ele><time>2026-04-12T07:55:43.45Z</time></trkpt><trkpt lat="44.8211633" lon="8.147955"><ele>127.0</ele><time>2026-04-12T07:55:44.45Z</time></trkpt><trkpt lat="44.8210933" lon="8.147965"><ele>127.0</ele><time>2026-04-12T07:55:45.45Z</time></trkpt><trkpt lat="44.82102" lon="8.1479783"><ele>127.0</ele><time>2026-04-12T07:55:46.45Z</time></trkpt><trkpt lat="44.8209467" lon="8.1480033"><ele>127.0</ele><time>2026-04-12T07:55:47.45Z</time></trkpt><trkpt lat="44.8208817" lon="8.1480267"><ele>127.0</ele><time>2026-04-12T07:55:48.45Z</time></trkpt><trkpt lat="44.8208133" lon="8.1480433"><ele>127.0</ele><time>2026-04-12T07:55:49.45Z</time></trkpt><trkpt lat="44.820745" lon="8.1480533"><ele>127.0</ele><time>2026-04-12T07:55:50.45Z</time></trkpt><trkpt lat="44.8206783" lon="8.14806"><ele>127.0</ele><time>2026-04-12T07:55:51.45Z</time></trkpt><trkpt lat="44.82061" lon="8.1480633"><ele>127.0</ele><time>2026-04-12T07:55:52.45Z</time></trkpt><trkpt lat="44.820485" lon="8.148075"><ele>126.99999999999999</ele><time>2026-04-12T07:55:54.451Z</time></trkpt><trkpt lat="44.8204183" lon="8.1480933"><ele>126.99999999999999</ele><time>2026-04-12T07:55:55.45Z</time></trkpt><trkpt lat="44.820295" lon="8.1481167"><ele>127.0</ele><time>2026-04-12T07:55:57.45Z</time></trkpt><trkpt lat="44.8201767" lon="8.1481333"><ele>127.0</ele><time>2026-04-12T07:55:59.45Z</time></trkpt><trkpt lat="44.820055" lon="8.14815"><ele>127.25</ele><time>2026-04-12T07:56:01.451Z</time></trkpt><trkpt lat="44.8199383" lon="8.1481633"><ele>127.5</ele><time>2026-04-12T07:56:03.45Z</time></trkpt><trkpt lat="44.8198233" lon="8.1481883"><ele>127.75</ele><time>2026-04-12T07:56:05.45Z</time></trkpt><trkpt lat="44.8197067" lon="8.1482183"><ele>128.0</ele><time>2026-04-12T07:56:07.45Z</time></trkpt><trkpt lat="44.8195917" lon="8.14824"><ele>128.0</ele><time>2026-04-12T07:56:09.45Z</time></trkpt><trkpt lat="44.8194667" lon="8.1482567"><ele>128.0</ele><time>2026-04-12T07:56:11.45Z</time></trkpt><trkpt lat="44.8194" lon="8.1482683"><ele>128.0</ele><time>2026-04-12T07:56:12.45Z</time></trkpt><trkpt lat="44.8192767" lon="8.1482933"><ele>128.0</ele><time>2026-04-12T07:56:14.45Z</time></trkpt><trkpt lat="44.81921" lon="8.1482967"><ele>128.0</ele><time>2026-04-12T07:56:15.45Z</time></trkpt><trkpt lat="44.8191433" lon="8.1483017"><ele>128.33333333333331</ele><time>2026-04-12T07:56:16.45Z</time></trkpt><trkpt lat="44.81908" lon="8.1483133"><ele>128.66666666666666</ele><time>2026-04-12T07:56:17.45Z</time></trkpt><trkpt lat="44.819015" lon="8.1483217"><ele>129.0</ele><time>2026-04-12T07:56:18.45Z</time></trkpt><trkpt lat="44.8188867" lon="8.14834"><ele>129.33333333333334</ele><time>2026-04-12T07:56:20.45Z</time></trkpt><trkpt lat="44.8188233" lon="8.1483533"><ele>129.66666666666669</ele><time>2026-04-12T07:56:21.45Z</time></trkpt><trkpt lat="44.8187533" lon="8.1483583"><ele>130.0</ele><time>2026-04-12T07:56:22.45Z</time></trkpt><trkpt lat="44.8186817" lon="8.1483533"><ele>130.00000000000003</ele><time>2026-04-12T07:56:23.45Z</time></trkpt><trkpt lat="44.8186183" lon="8.148335"><ele>130.0</ele><time>2026-04-12T07:56:24.45Z</time></trkpt><trkpt lat="44.818555" lon="8.148305"><ele>130.0</ele><time>2026-04-12T07:56:25.45Z</time></trkpt><trkpt lat="44.8184967" lon="8.1482683"><ele>130.0</ele><time>2026-04-12T07:56:26.45Z</time></trkpt><trkpt lat="44.8184433" lon="8.148215"><ele>130.0</ele><time>2026-04-12T07:56:27.45Z</time></trkpt><trkpt lat="44.8183967" lon="8.14815"><ele>130.00000000000003</ele><time>2026-04-12T07:56:28.45Z</time></trkpt><trkpt lat="44.8183567" lon="8.14808"><ele>130.0</ele><time>2026-04-12T07:56:29.45Z</time></trkpt><trkpt lat="44.81832" lon="8.1480067"><ele>129.57142857142858</ele><time>2026-04-12T07:56:30.451Z</time></trkpt><trkpt lat="44.8182783" lon="8.1479317"><ele>129.14285714285714</ele><time>2026-04-12T07:56:31.45Z</time></trkpt><trkpt lat="44.8182383" lon="8.1478533"><ele>128.71428571428572</ele><time>2026-04-12T07:56:32.45Z</time></trkpt><trkpt lat="44.8181967" lon="8.1477767"><ele>128.28571428571428</ele><time>2026-04-12T07:56:33.45Z</time></trkpt><trkpt lat="44.8181567" lon="8.147705"><ele>127.85714285714286</ele><time>2026-04-12T07:56:34.451Z</time></trkpt><trkpt lat="44.81812" lon="8.1476283"><ele>127.42857142857143</ele><time>2026-04-12T07:56:35.45Z</time></trkpt><trkpt lat="44.8180833" lon="8.1475533"><ele>127.0</ele><time>2026-04-12T07:56:36.45Z</time></trkpt><trkpt lat="44.8180433" lon="8.1474783"><ele>127.00000000000001</ele><time>2026-04-12T07:56:37.45Z</time></trkpt><trkpt lat="44.818005" lon="8.1473983"><ele>127.0</ele><time>2026-04-12T07:56:38.45Z</time></trkpt><trkpt lat="44.8179667" lon="8.14732"><ele>127.0</ele><time>2026-04-12T07:56:39.45Z</time></trkpt><trkpt lat="44.81793" lon="8.1472383"><ele>127.0</ele><time>2026-04-12T07:56:40.45Z</time></trkpt><trkpt lat="44.817855" lon="8.14709"><ele>127.00000000000001</ele><time>2026-04-12T07:56:42.45Z</time></trkpt><trkpt lat="44.817815" lon="8.1470167"><ele>127.0</ele><time>2026-04-12T07:56:43.45Z</time></trkpt><trkpt lat="44.8177733" lon="8.14694"><ele>127.28571428571429</ele><time>2026-04-12T07:56:44.45Z</time></trkpt><trkpt lat="44.817735" lon="8.1468617"><ele>127.57142857142856</ele><time>2026-04-12T07:56:45.45Z</time></trkpt><trkpt lat="44.817695" lon="8.1467867"><ele>127.85714285714285</ele><time>2026-04-12T07:56:46.45Z</time></trkpt><trkpt lat="44.8176517" lon="8.1467117"><ele>128.14285714285714</ele><time>2026-04-12T07:56:47.45Z</time></trkpt><trkpt lat="44.8176067" lon="8.1466367"><ele>128.42857142857142</ele><time>2026-04-12T07:56:48.45Z</time></trkpt><trkpt lat="44.817565" lon="8.146565"><ele>128.7142857142857</ele><time>2026-04-12T07:56:49.45Z</time></trkpt><trkpt lat="44.8175267" lon="8.1464883"><ele>129.0</ele><time>2026-04-12T07:56:50.45Z</time></trkpt><trkpt lat="44.8174917" lon="8.1464117"><ele>129.0</ele><time>2026-04-12T07:56:51.45Z</time></trkpt><trkpt lat="44.81746" lon="8.1463333"><ele>129.0</ele><time>2026-04-12T07:56:52.45Z</time></trkpt><trkpt lat="44.8173917" lon="8.14618"><ele>129.0</ele><time>2026-04-12T07:56:54.45Z</time></trkpt><trkpt lat="44.8173517" lon="8.146105"><ele>129.0</ele><time>2026-04-12T07:56:55.45Z</time></trkpt><trkpt lat="44.8173133" lon="8.1460283"><ele>129.0</ele><time>2026-04-12T07:56:56.45Z</time></trkpt><trkpt lat="44.817275" lon="8.1459533"><ele>129.0</ele><time>2026-04-12T07:56:57.45Z</time></trkpt><trkpt lat="44.8172333" lon="8.1458767"><ele>128.99999999999997</ele><time>2026-04-12T07:56:58.45Z</time></trkpt><trkpt lat="44.8171967" lon="8.1457933"><ele>129.0</ele><time>2026-04-12T07:56:59.45Z</time></trkpt><trkpt lat="44.817155" lon="8.145715"><ele>129.0</ele><time>2026-04-12T07:57:00.45Z</time></trkpt><trkpt lat="44.8171167" lon="8.14564"><ele>129.0</ele><time>2026-04-12T07:57:01.45Z</time></trkpt><trkpt lat="44.817075" lon="8.1455583"><ele>129.0</ele><time>2026-04-12T07:57:02.45Z</time></trkpt><trkpt lat="44.8170333" lon="8.1454767"><ele>128.99999999999997</ele><time>2026-04-12T07:57:03.45Z</time></trkpt><trkpt lat="44.8169933" lon="8.1454017"><ele>129.0</ele><time>2026-04-12T07:57:04.45Z</time></trkpt><trkpt lat="44.8169533" lon="8.145325"><ele>128.99999999999997</ele><time>2026-04-12T07:57:05.45Z</time></trkpt><trkpt lat="44.8169133" lon="8.1452517"><ele>129.0</ele><time>2026-04-12T07:57:06.45Z</time></trkpt><trkpt lat="44.8168717" lon="8.145175"><ele>129.0</ele><time>2026-04-12T07:57:07.45Z</time></trkpt><trkpt lat="44.8168267" lon="8.1451017"><ele>129.0</ele><time>2026-04-12T07:57:08.45Z</time></trkpt><trkpt lat="44.8167883" lon="8.1450217"><ele>129.0</ele><time>2026-04-12T07:57:09.45Z</time></trkpt><trkpt lat="44.8167483" lon="8.14495"><ele>128.99999999999997</ele><time>2026-04-12T07:57:10.45Z</time></trkpt><trkpt lat="44.8167133" lon="8.1448717"><ele>129.0</ele><time>2026-04-12T07:57:11.45Z</time></trkpt><trkpt lat="44.816675" lon="8.14479"><ele>128.99999999999997</ele><time>2026-04-12T07:57:12.45Z</time></trkpt><trkpt lat="44.8166367" lon="8.1447117"><ele>129.0</ele><time>2026-04-12T07:57:13.45Z</time></trkpt><trkpt lat="44.8165967" lon="8.1446333"><ele>129.0</ele><time>2026-04-12T07:57:14.45Z</time></trkpt><trkpt lat="44.8165567" lon="8.1445583"><ele>129.0</ele><time>2026-04-12T07:57:15.45Z</time></trkpt><trkpt lat="44.816525" lon="8.14448"><ele>129.0</ele><time>2026-04-12T07:57:16.45Z</time></trkpt><trkpt lat="44.8164967" lon="8.1443983"><ele>128.99999999999997</ele><time>2026-04-12T07:57:17.45Z</time></trkpt><trkpt lat="44.8164717" lon="8.1443117"><ele>129.0</ele><time>2026-04-12T07:57:18.45Z</time></trkpt><trkpt lat="44.8164467" lon="8.1442233"><ele>128.99999999999997</ele><time>2026-04-12T07:57:19.45Z</time></trkpt><trkpt lat="44.816425" lon="8.1441367"><ele>129.0</ele><time>2026-04-12T07:57:20.45Z</time></trkpt><trkpt lat="44.81641" lon="8.1440483"><ele>129.0</ele><time>2026-04-12T07:57:21.45Z</time></trkpt><trkpt lat="44.8163933" lon="8.1439483"><ele>129.0</ele><time>2026-04-12T07:57:22.45Z</time></trkpt><trkpt lat="44.8163733" lon="8.1438533"><ele>129.0</ele><time>2026-04-12T07:57:23.45Z</time></trkpt><trkpt lat="44.8163583" lon="8.1437533"><ele>128.99999999999997</ele><time>2026-04-12T07:57:24.45Z</time></trkpt><trkpt lat="44.8163433" lon="8.1436583"><ele>129.0</ele><time>2026-04-12T07:57:25.45Z</time></trkpt><trkpt lat="44.8163283" lon="8.143565"><ele>128.99999999999997</ele><time>2026-04-12T07:57:26.45Z</time></trkpt><trkpt lat="44.81632" lon="8.1434733"><ele>129.0</ele><time>2026-04-12T07:57:27.45Z</time></trkpt><trkpt lat="44.8163283" lon="8.1433783"><ele>129.0</ele><time>2026-04-12T07:57:28.45Z</time></trkpt><trkpt lat="44.8163433" lon="8.1432883"><ele>129.0</ele><time>2026-04-12T07:57:29.45Z</time></trkpt><trkpt lat="44.8163683" lon="8.1431983"><ele>129.0</ele><time>2026-04-12T07:57:30.45Z</time></trkpt><trkpt lat="44.8164033" lon="8.1431117"><ele>128.99999999999997</ele><time>2026-04-12T07:57:31.45Z</time></trkpt><trkpt lat="44.8164367" lon="8.1430267"><ele>129.0</ele><time>2026-04-12T07:57:32.45Z</time></trkpt><trkpt lat="44.816475" lon="8.14295"><ele>128.83333333333334</ele><time>2026-04-12T07:57:33.45Z</time></trkpt><trkpt lat="44.81651" lon="8.1428717"><ele>128.66666666666666</ele><time>2026-04-12T07:57:34.451Z</time></trkpt><trkpt lat="44.816545" lon="8.14279"><ele>128.5</ele><time>2026-04-12T07:57:35.45Z</time></trkpt><trkpt lat="44.8165767" lon="8.1427133"><ele>128.33333333333331</ele><time>2026-04-12T07:57:36.45Z</time></trkpt><trkpt lat="44.816645" lon="8.14256"><ele>128.16666666666666</ele><time>2026-04-12T07:57:38.45Z</time></trkpt><trkpt lat="44.81668" lon="8.1424833"><ele>128.0</ele><time>2026-04-12T07:57:39.45Z</time></trkpt><trkpt lat="44.8167117" lon="8.1423983"><ele>127.99999999999999</ele><time>2026-04-12T07:57:40.45Z</time></trkpt><trkpt lat="44.8167467" lon="8.142315"><ele>128.0</ele><time>2026-04-12T07:57:41.45Z</time></trkpt><trkpt lat="44.81678" lon="8.1422383"><ele>128.0</ele><time>2026-04-12T07:57:42.45Z</time></trkpt><trkpt lat="44.8168167" lon="8.1421617"><ele>128.0</ele><time>2026-04-12T07:57:43.45Z</time></trkpt><trkpt lat="44.8168817" lon="8.1420067"><ele>127.99999999999999</ele><time>2026-04-12T07:57:45.45Z</time></trkpt><trkpt lat="44.8169133" lon="8.1419233"><ele>128.0</ele><time>2026-04-12T07:57:46.45Z</time></trkpt><trkpt lat="44.816945" lon="8.14184"><ele>128.0</ele><time>2026-04-12T07:57:47.45Z</time></trkpt><trkpt lat="44.816975" lon="8.1417567"><ele>128.0</ele><time>2026-04-12T07:57:48.45Z</time></trkpt><trkpt lat="44.8170117" lon="8.1416817"><ele>128.0</ele><time>2026-04-12T07:57:49.45Z</time></trkpt><trkpt lat="44.8170683" lon="8.1415433"><ele>128.0</ele><time>2026-04-12T07:57:51.45Z</time></trkpt><trkpt lat="44.817085" lon="8.1414217"><ele>128.0</ele><time>2026-04-12T07:57:53.45Z</time></trkpt><trkpt lat="44.817055" lon="8.1412567"><ele>127.99999999999999</ele><time>2026-04-12T07:57:55.45Z</time></trkpt><trkpt lat="44.8170033" lon="8.1411117"><ele>128.0</ele><time>2026-04-12T07:57:57.45Z</time></trkpt><trkpt lat="44.8169517" lon="8.1409617"><ele>128.0</ele><time>2026-04-12T07:57:59.45Z</time></trkpt><trkpt lat="44.816925" lon="8.1408783"><ele>128.0</ele><time>2026-04-12T07:58:00.451Z</time></trkpt><trkpt lat="44.8169" lon="8.14079"><ele>127.99999999999999</ele><time>2026-04-12T07:58:01.45Z</time></trkpt><trkpt lat="44.8168783" lon="8.1407033"><ele>128.0</ele><time>2026-04-12T07:58:02.45Z</time></trkpt><trkpt lat="44.816835" lon="8.140535"><ele>128.16666666666666</ele><time>2026-04-12T07:58:04.451Z</time></trkpt><trkpt lat="44.8168033" lon="8.1404467"><ele>128.33333333333331</ele><time>2026-04-12T07:58:05.45Z</time></trkpt><trkpt lat="44.8167767" lon="8.1403633"><ele>128.5</ele><time>2026-04-12T07:58:06.45Z</time></trkpt><trkpt lat="44.8167467" lon="8.1402783"><ele>128.66666666666666</ele><time>2026-04-12T07:58:07.45Z</time></trkpt><trkpt lat="44.8167167" lon="8.1401983"><ele>128.83333333333334</ele><time>2026-04-12T07:58:08.45Z</time></trkpt><trkpt lat="44.8166917" lon="8.1401167"><ele>129.0</ele><time>2026-04-12T07:58:09.45Z</time></trkpt><trkpt lat="44.81664" lon="8.13996"><ele>128.99999999999997</ele><time>2026-04-12T07:58:11.45Z</time></trkpt><trkpt lat="44.816615" lon="8.1398783"><ele>129.0</ele><time>2026-04-12T07:58:12.45Z</time></trkpt><trkpt lat="44.8165867" lon="8.139795"><ele>129.0</ele><time>2026-04-12T07:58:13.45Z</time></trkpt><trkpt lat="44.8165583" lon="8.1397117"><ele>129.0</ele><time>2026-04-12T07:58:14.45Z</time></trkpt><trkpt lat="44.8165333" lon="8.13963"><ele>129.0</ele><time>2026-04-12T07:58:15.45Z</time></trkpt><trkpt lat="44.8165067" lon="8.1395483"><ele>128.99999999999997</ele><time>2026-04-12T07:58:16.45Z</time></trkpt><trkpt lat="44.81646" lon="8.1393933"><ele>129.0</ele><time>2026-04-12T07:58:18.45Z</time></trkpt><trkpt lat="44.816415" lon="8.1392633"><ele>129.0</ele><time>2026-04-12T07:58:20.45Z</time></trkpt><trkpt lat="44.8163767" lon="8.1391483"><ele>129.0</ele><time>2026-04-12T07:58:22.45Z</time></trkpt><trkpt lat="44.816345" lon="8.1390317"><ele>129.0</ele><time>2026-04-12T07:58:24.45Z</time></trkpt><trkpt lat="44.8163067" lon="8.1389117"><ele>129.0</ele><time>2026-04-12T07:58:26.45Z</time></trkpt><trkpt lat="44.81627" lon="8.1388067"><ele>129.0</ele><time>2026-04-12T07:58:28.45Z</time></trkpt><trkpt lat="44.8162267" lon="8.1387133"><ele>129.0</ele><time>2026-04-12T07:58:30.45Z</time></trkpt><trkpt lat="44.8161783" lon="8.1386267"><ele>129.0</ele><time>2026-04-12T07:58:32.45Z</time></trkpt><trkpt lat="44.8161083" lon="8.1385583"><ele>129.0</ele><time>2026-04-12T07:58:34.45Z</time></trkpt><trkpt lat="44.8160283" lon="8.138535"><ele>129.0</ele><time>2026-04-12T07:58:36.45Z</time></trkpt><trkpt lat="44.815925" lon="8.1385333"><ele>129.0</ele><time>2026-04-12T07:58:38.45Z</time></trkpt><trkpt lat="44.815815" lon="8.1385483"><ele>129.0</ele><time>2026-04-12T07:58:40.45Z</time></trkpt><trkpt lat="44.8157067" lon="8.1385533"><ele>129.0</ele><time>2026-04-12T07:58:42.45Z</time></trkpt><trkpt lat="44.8156033" lon="8.1385633"><ele>129.0</ele><time>2026-04-12T07:58:44.45Z</time></trkpt><trkpt lat="44.8155033" lon="8.1385633"><ele>129.0</ele><time>2026-04-12T07:58:46.45Z</time></trkpt><trkpt lat="44.815395" lon="8.138565"><ele>129.0</ele><time>2026-04-12T07:58:48.45Z</time></trkpt><trkpt lat="44.81529" lon="8.1385767"><ele>129.0</ele><time>2026-04-12T07:58:50.45Z</time></trkpt><trkpt lat="44.8151817" lon="8.1385767"><ele>129.0</ele><time>2026-04-12T07:58:52.45Z</time></trkpt><trkpt lat="44.8150717" lon="8.1385733"><ele>129.0</ele><time>2026-04-12T07:58:54.45Z</time></trkpt><trkpt lat="44.8149617" lon="8.1385517"><ele>129.0</ele><time>2026-04-12T07:58:56.45Z</time></trkpt><trkpt lat="44.81485" lon="8.1385067"><ele>129.0</ele><time>2026-04-12T07:58:58.45Z</time></trkpt><trkpt lat="44.8147317" lon="8.1384367"><ele>129.0</ele><time>2026-04-12T07:59:00.45Z</time></trkpt><trkpt lat="44.8146733" lon="8.1384017"><ele>129.0</ele><time>2026-04-12T07:59:01.45Z</time></trkpt><trkpt lat="44.8146183" lon="8.1383533"><ele>129.0</ele><time>2026-04-12T07:59:02.45Z</time></trkpt><trkpt lat="44.814565" lon="8.1383033"><ele>129.0</ele><time>2026-04-12T07:59:03.45Z</time></trkpt><trkpt lat="44.8144567" lon="8.13821"><ele>129.0</ele><time>2026-04-12T07:59:05.45Z</time></trkpt><trkpt lat="44.8143533" lon="8.1381167"><ele>129.0</ele><time>2026-04-12T07:59:07.45Z</time></trkpt><trkpt lat="44.8142533" lon="8.1380233"><ele>129.14285714285714</ele><time>2026-04-12T07:59:09.45Z</time></trkpt><trkpt lat="44.8142" lon="8.1379733"><ele>129.28571428571428</ele><time>2026-04-12T07:59:10.45Z</time></trkpt><trkpt lat="44.81414" lon="8.1379233"><ele>129.42857142857144</ele><time>2026-04-12T07:59:11.45Z</time></trkpt><trkpt lat="44.8140817" lon="8.1378717"><ele>129.57142857142856</ele><time>2026-04-12T07:59:12.45Z</time></trkpt><trkpt lat="44.8140283" lon="8.137815"><ele>129.71428571428572</ele><time>2026-04-12T07:59:13.45Z</time></trkpt><trkpt lat="44.813975" lon="8.1377667"><ele>129.85714285714286</ele><time>2026-04-12T07:59:14.45Z</time></trkpt><trkpt lat="44.8139183" lon="8.1377117"><ele>130.0</ele><time>2026-04-12T07:59:15.45Z</time></trkpt><trkpt lat="44.8138617" lon="8.1376567"><ele>130.00000000000003</ele><time>2026-04-12T07:59:16.45Z</time></trkpt><trkpt lat="44.8138017" lon="8.1376067"><ele>130.0</ele><time>2026-04-12T07:59:17.45Z</time></trkpt><trkpt lat="44.813745" lon="8.1375517"><ele>130.0</ele><time>2026-04-12T07:59:18.45Z</time></trkpt><trkpt lat="44.8136883" lon="8.1375"><ele>130.0</ele><time>2026-04-12T07:59:19.45Z</time></trkpt><trkpt lat="44.8136333" lon="8.1374433"><ele>130.0</ele><time>2026-04-12T07:59:20.45Z</time></trkpt><trkpt lat="44.8135767" lon="8.1373917"><ele>130.00000000000003</ele><time>2026-04-12T07:59:21.45Z</time></trkpt><trkpt lat="44.813515" lon="8.1373433"><ele>130.0</ele><time>2026-04-12T07:59:22.45Z</time></trkpt><trkpt lat="44.8134617" lon="8.137285"><ele>130.16666666666669</ele><time>2026-04-12T07:59:23.45Z</time></trkpt><trkpt lat="44.8133533" lon="8.137185"><ele>130.33333333333334</ele><time>2026-04-12T07:59:25.45Z</time></trkpt><trkpt lat="44.813295" lon="8.13713"><ele>130.5</ele><time>2026-04-12T07:59:26.45Z</time></trkpt><trkpt lat="44.8132367" lon="8.1370867"><ele>130.66666666666666</ele><time>2026-04-12T07:59:27.45Z</time></trkpt><trkpt lat="44.8131833" lon="8.1370367"><ele>130.83333333333331</ele><time>2026-04-12T07:59:28.45Z</time></trkpt><trkpt lat="44.813125" lon="8.1369883"><ele>131.0</ele><time>2026-04-12T07:59:29.45Z</time></trkpt><trkpt lat="44.81307" lon="8.1369383"><ele>131.0</ele><time>2026-04-12T07:59:30.45Z</time></trkpt><trkpt lat="44.81296" lon="8.1368533"><ele>131.0</ele><time>2026-04-12T07:59:32.45Z</time></trkpt><trkpt lat="44.8129017" lon="8.1368033"><ele>131.0</ele><time>2026-04-12T07:59:33.45Z</time></trkpt><trkpt lat="44.812845" lon="8.136755"><ele>131.0</ele><time>2026-04-12T07:59:34.45Z</time></trkpt><trkpt lat="44.8127883" lon="8.1367017"><ele>131.0</ele><time>2026-04-12T07:59:35.45Z</time></trkpt><trkpt lat="44.81273" lon="8.1366483"><ele>131.0</ele><time>2026-04-12T07:59:36.45Z</time></trkpt><trkpt lat="44.81267" lon="8.1366"><ele>130.85714285714286</ele><time>2026-04-12T07:59:37.45Z</time></trkpt><trkpt lat="44.8126117" lon="8.13655"><ele>130.71428571428572</ele><time>2026-04-12T07:59:38.451Z</time></trkpt><trkpt lat="44.8125517" lon="8.1365017"><ele>130.57142857142858</ele><time>2026-04-12T07:59:39.45Z</time></trkpt><trkpt lat="44.8124933" lon="8.13645"><ele>130.42857142857144</ele><time>2026-04-12T07:59:40.45Z</time></trkpt><trkpt lat="44.8124367" lon="8.1364017"><ele>130.28571428571428</ele><time>2026-04-12T07:59:41.45Z</time></trkpt><trkpt lat="44.8123767" lon="8.1363567"><ele>130.14285714285717</ele><time>2026-04-12T07:59:42.45Z</time></trkpt><trkpt lat="44.812315" lon="8.1363117"><ele>130.0</ele><time>2026-04-12T07:59:43.45Z</time></trkpt><trkpt lat="44.812255" lon="8.136265"><ele>130.00000000000003</ele><time>2026-04-12T07:59:44.45Z</time></trkpt><trkpt lat="44.8121967" lon="8.1362183"><ele>130.0</ele><time>2026-04-12T07:59:45.45Z</time></trkpt><trkpt lat="44.812135" lon="8.1361717"><ele>130.0</ele><time>2026-04-12T07:59:46.45Z</time></trkpt><trkpt lat="44.8120783" lon="8.136125"><ele>130.0</ele><time>2026-04-12T07:59:47.45Z</time></trkpt><trkpt lat="44.81202" lon="8.1360817"><ele>130.0</ele><time>2026-04-12T07:59:48.45Z</time></trkpt><trkpt lat="44.8119617" lon="8.1360383"><ele>130.00000000000003</ele><time>2026-04-12T07:59:49.45Z</time></trkpt><trkpt lat="44.8119033" lon="8.13599"><ele>130.0</ele><time>2026-04-12T07:59:50.45Z</time></trkpt><trkpt lat="44.811845" lon="8.1359467"><ele>130.00000000000003</ele><time>2026-04-12T07:59:51.45Z</time></trkpt><trkpt lat="44.8117883" lon="8.1359033"><ele>130.0</ele><time>2026-04-12T07:59:52.45Z</time></trkpt><trkpt lat="44.8117267" lon="8.13586"><ele>130.0</ele><time>2026-04-12T07:59:53.451Z</time></trkpt><trkpt lat="44.8116583" lon="8.1358083"><ele>130.0</ele><time>2026-04-12T07:59:54.45Z</time></trkpt><trkpt lat="44.8115967" lon="8.135765"><ele>130.0</ele><time>2026-04-12T07:59:55.45Z</time></trkpt><trkpt lat="44.811535" lon="8.1357217"><ele>130.00000000000003</ele><time>2026-04-12T07:59:56.45Z</time></trkpt><trkpt lat="44.8114767" lon="8.1356817"><ele>130.0</ele><time>2026-04-12T07:59:57.45Z</time></trkpt><trkpt lat="44.8114133" lon="8.13564"><ele>130.00000000000003</ele><time>2026-04-12T07:59:58.45Z</time></trkpt><trkpt lat="44.81135" lon="8.1356017"><ele>130.0</ele><time>2026-04-12T07:59:59.45Z</time></trkpt><trkpt lat="44.8112867" lon="8.1355583"><ele>130.0</ele><time>2026-04-12T08:00:00.45Z</time></trkpt><trkpt lat="44.8112267" lon="8.1355167"><ele>130.0</ele><time>2026-04-12T08:00:01.45Z</time></trkpt><trkpt lat="44.811165" lon="8.1354717"><ele>130.0</ele><time>2026-04-12T08:00:02.45Z</time></trkpt><trkpt lat="44.8111067" lon="8.13543"><ele>130.00000000000003</ele><time>2026-04-12T08:00:03.45Z</time></trkpt><trkpt lat="44.8110483" lon="8.1353933"><ele>130.0</ele><time>2026-04-12T08:00:04.45Z</time></trkpt><trkpt lat="44.810985" lon="8.1353533"><ele>129.85714285714286</ele><time>2026-04-12T08:00:05.45Z</time></trkpt><trkpt lat="44.810925" lon="8.13531"><ele>129.71428571428572</ele><time>2026-04-12T08:00:06.45Z</time></trkpt><trkpt lat="44.8108617" lon="8.1352733"><ele>129.57142857142856</ele><time>2026-04-12T08:00:07.45Z</time></trkpt><trkpt lat="44.8108017" lon="8.135235"><ele>129.42857142857144</ele><time>2026-04-12T08:00:08.45Z</time></trkpt><trkpt lat="44.81074" lon="8.1351917"><ele>129.28571428571428</ele><time>2026-04-12T08:00:09.45Z</time></trkpt><trkpt lat="44.8106767" lon="8.1351567"><ele>129.14285714285714</ele><time>2026-04-12T08:00:10.45Z</time></trkpt><trkpt lat="44.8106133" lon="8.1351183"><ele>129.0</ele><time>2026-04-12T08:00:11.45Z</time></trkpt><trkpt lat="44.8105433" lon="8.135085"><ele>128.99999999999997</ele><time>2026-04-12T08:00:12.45Z</time></trkpt><trkpt lat="44.81048" lon="8.1350467"><ele>129.0</ele><time>2026-04-12T08:00:13.45Z</time></trkpt><trkpt lat="44.8104183" lon="8.135"><ele>129.0</ele><time>2026-04-12T08:00:14.45Z</time></trkpt><trkpt lat="44.8103583" lon="8.1349567"><ele>129.0</ele><time>2026-04-12T08:00:15.45Z</time></trkpt><trkpt lat="44.8102967" lon="8.134915"><ele>129.0</ele><time>2026-04-12T08:00:16.45Z</time></trkpt><trkpt lat="44.8102333" lon="8.1348767"><ele>128.99999999999997</ele><time>2026-04-12T08:00:17.45Z</time></trkpt><trkpt lat="44.8101733" lon="8.1348417"><ele>129.0</ele><time>2026-04-12T08:00:18.45Z</time></trkpt><trkpt lat="44.81011" lon="8.1348"><ele>129.14285714285714</ele><time>2026-04-12T08:00:19.45Z</time></trkpt><trkpt lat="44.810045" lon="8.1347617"><ele>129.28571428571428</ele><time>2026-04-12T08:00:20.45Z</time></trkpt><trkpt lat="44.8099783" lon="8.134725"><ele>129.42857142857144</ele><time>2026-04-12T08:00:21.45Z</time></trkpt><trkpt lat="44.80992" lon="8.13469"><ele>129.57142857142856</ele><time>2026-04-12T08:00:22.45Z</time></trkpt><trkpt lat="44.8098567" lon="8.1346533"><ele>129.71428571428572</ele><time>2026-04-12T08:00:23.45Z</time></trkpt><trkpt lat="44.8097967" lon="8.1346167"><ele>129.85714285714286</ele><time>2026-04-12T08:00:24.45Z</time></trkpt><trkpt lat="44.809735" lon="8.13458"><ele>130.0</ele><time>2026-04-12T08:00:25.45Z</time></trkpt><trkpt lat="44.80967" lon="8.134545"><ele>130.00000000000003</ele><time>2026-04-12T08:00:26.45Z</time></trkpt><trkpt lat="44.809605" lon="8.1345117"><ele>130.0</ele><time>2026-04-12T08:00:27.45Z</time></trkpt><trkpt lat="44.8095417" lon="8.1344733"><ele>130.0</ele><time>2026-04-12T08:00:28.45Z</time></trkpt><trkpt lat="44.8094783" lon="8.1344367"><ele>130.0</ele><time>2026-04-12T08:00:29.45Z</time></trkpt><trkpt lat="44.8094167" lon="8.1344033"><ele>130.0</ele><time>2026-04-12T08:00:30.45Z</time></trkpt><trkpt lat="44.8093517" lon="8.134375"><ele>130.00000000000003</ele><time>2026-04-12T08:00:31.45Z</time></trkpt><trkpt lat="44.80929" lon="8.1343417"><ele>130.0</ele><time>2026-04-12T08:00:32.45Z</time></trkpt><trkpt lat="44.8092283" lon="8.134305"><ele>129.66666666666669</ele><time>2026-04-12T08:00:33.45Z</time></trkpt><trkpt lat="44.8091633" lon="8.1342733"><ele>129.33333333333334</ele><time>2026-04-12T08:00:34.45Z</time></trkpt><trkpt lat="44.8090983" lon="8.13424"><ele>129.0</ele><time>2026-04-12T08:00:35.45Z</time></trkpt><trkpt lat="44.8090383" lon="8.1342117"><ele>128.66666666666666</ele><time>2026-04-12T08:00:36.45Z</time></trkpt><trkpt lat="44.8089217" lon="8.1341633"><ele>128.33333333333331</ele><time>2026-04-12T08:00:38.45Z</time></trkpt><trkpt lat="44.8088067" lon="8.1341117"><ele>128.0</ele><time>2026-04-12T08:00:40.45Z</time></trkpt><trkpt lat="44.8086917" lon="8.134065"><ele>127.99999999999999</ele><time>2026-04-12T08:00:42.45Z</time></trkpt><trkpt lat="44.8086267" lon="8.13404"><ele>128.0</ele><time>2026-04-12T08:00:43.45Z</time></trkpt><trkpt lat="44.80856" lon="8.134015"><ele>128.0</ele><time>2026-04-12T08:00:44.45Z</time></trkpt><trkpt lat="44.8084967" lon="8.1339883"><ele>128.0</ele><time>2026-04-12T08:00:45.45Z</time></trkpt><trkpt lat="44.808425" lon="8.1339633"><ele>127.99999999999999</ele><time>2026-04-12T08:00:46.45Z</time></trkpt><trkpt lat="44.8083617" lon="8.1339333"><ele>128.0</ele><time>2026-04-12T08:00:47.45Z</time></trkpt><trkpt lat="44.8082467" lon="8.1338767"><ele>128.0</ele><time>2026-04-12T08:00:49.45Z</time></trkpt><trkpt lat="44.8081367" lon="8.1338183"><ele>128.0</ele><time>2026-04-12T08:00:51.45Z</time></trkpt><trkpt lat="44.808035" lon="8.133765"><ele>128.0</ele><time>2026-04-12T08:00:53.45Z</time></trkpt><trkpt lat="44.8079517" lon="8.133695"><ele>128.0</ele><time>2026-04-12T08:00:55.45Z</time></trkpt><trkpt lat="44.8079333" lon="8.1335617"><ele>128.0</ele><time>2026-04-12T08:00:57.45Z</time></trkpt><trkpt lat="44.807945" lon="8.1333817"><ele>127.99999999999999</ele><time>2026-04-12T08:00:59.45Z</time></trkpt><trkpt lat="44.8079533" lon="8.133285"><ele>128.0</ele><time>2026-04-12T08:01:00.45Z</time></trkpt><trkpt lat="44.8079583" lon="8.13319"><ele>128.0</ele><time>2026-04-12T08:01:01.45Z</time></trkpt><trkpt lat="44.80796" lon="8.13304"><ele>128.0</ele><time>2026-04-12T08:01:03.45Z</time></trkpt><trkpt lat="44.8079217" lon="8.13293"><ele>127.99999999999999</ele><time>2026-04-12T08:01:05.45Z</time></trkpt><trkpt lat="44.8078567" lon="8.132925"><ele>128.0</ele><time>2026-04-12T08:01:07.45Z</time></trkpt><trkpt lat="44.807765" lon="8.1329667"><ele>128.0</ele><time>2026-04-12T08:01:09.45Z</time></trkpt><trkpt lat="44.8076717" lon="8.132995"><ele>128.0</ele><time>2026-04-12T08:01:11.45Z</time></trkpt><trkpt lat="44.80757" lon="8.13303"><ele>128.0</ele><time>2026-04-12T08:01:13.45Z</time></trkpt><trkpt lat="44.8074683" lon="8.1330417"><ele>128.0</ele><time>2026-04-12T08:01:15.45Z</time></trkpt><trkpt lat="44.8073617" lon="8.1330367"><ele>128.0</ele><time>2026-04-12T08:01:17.45Z</time></trkpt><trkpt lat="44.8072967" lon="8.13303"><ele>128.20000000000002</ele><time>2026-04-12T08:01:18.45Z</time></trkpt><trkpt lat="44.8072317" lon="8.13302"><ele>128.4</ele><time>2026-04-12T08:01:19.45Z</time></trkpt><trkpt lat="44.807115" lon="8.1330133"><ele>128.60000000000002</ele><time>2026-04-12T08:01:21.45Z</time></trkpt><trkpt lat="44.8070067" lon="8.1330067"><ele>128.8</ele><time>2026-04-12T08:01:23.45Z</time></trkpt><trkpt lat="44.8068867" lon="8.1329717"><ele>129.0</ele><time>2026-04-12T08:01:25.45Z</time></trkpt><trkpt lat="44.8068217" lon="8.1329433"><ele>128.99999999999997</ele><time>2026-04-12T08:01:26.45Z</time></trkpt><trkpt lat="44.8067617" lon="8.1329117"><ele>129.0</ele><time>2026-04-12T08:01:27.45Z</time></trkpt><trkpt lat="44.8066983" lon="8.13288"><ele>129.0</ele><time>2026-04-12T08:01:28.451Z</time></trkpt><trkpt lat="44.8066383" lon="8.1328467"><ele>129.0</ele><time>2026-04-12T08:01:29.45Z</time></trkpt><trkpt lat="44.80657" lon="8.132815"><ele>129.0</ele><time>2026-04-12T08:01:30.45Z</time></trkpt><trkpt lat="44.8065067" lon="8.132785"><ele>128.99999999999997</ele><time>2026-04-12T08:01:31.45Z</time></trkpt><trkpt lat="44.80644" lon="8.1327533"><ele>129.0</ele><time>2026-04-12T08:01:32.45Z</time></trkpt><trkpt lat="44.8063733" lon="8.1327183"><ele>128.99999999999997</ele><time>2026-04-12T08:01:33.45Z</time></trkpt><trkpt lat="44.8063083" lon="8.1326833"><ele>129.0</ele><time>2026-04-12T08:01:34.45Z</time></trkpt><trkpt lat="44.8062433" lon="8.1326533"><ele>129.0</ele><time>2026-04-12T08:01:35.45Z</time></trkpt><trkpt lat="44.8061783" lon="8.1326233"><ele>129.0</ele><time>2026-04-12T08:01:36.45Z</time></trkpt><trkpt lat="44.8061083" lon="8.132595"><ele>129.0</ele><time>2026-04-12T08:01:37.45Z</time></trkpt><trkpt lat="44.8060433" lon="8.1325633"><ele>128.99999999999997</ele><time>2026-04-12T08:01:38.45Z</time></trkpt><trkpt lat="44.80598" lon="8.1325233"><ele>129.0</ele><time>2026-04-12T08:01:39.45Z</time></trkpt><trkpt lat="44.8059133" lon="8.1324783"><ele>129.14285714285714</ele><time>2026-04-12T08:01:40.45Z</time></trkpt><trkpt lat="44.8058533" lon="8.13243"><ele>129.28571428571428</ele><time>2026-04-12T08:01:41.45Z</time></trkpt><trkpt lat="44.8057917" lon="8.1323817"><ele>129.42857142857144</ele><time>2026-04-12T08:01:42.45Z</time></trkpt><trkpt lat="44.8057317" lon="8.1323383"><ele>129.57142857142856</ele><time>2026-04-12T08:01:43.45Z</time></trkpt><trkpt lat="44.80567" lon="8.1322917"><ele>129.71428571428572</ele><time>2026-04-12T08:01:44.45Z</time></trkpt><trkpt lat="44.8056067" lon="8.1322533"><ele>129.85714285714286</ele><time>2026-04-12T08:01:45.45Z</time></trkpt><trkpt lat="44.805545" lon="8.1322283"><ele>130.0</ele><time>2026-04-12T08:01:46.45Z</time></trkpt><trkpt lat="44.8054783" lon="8.1322067"><ele>129.85714285714286</ele><time>2026-04-12T08:01:47.45Z</time></trkpt><trkpt lat="44.8054083" lon="8.132195"><ele>129.71428571428572</ele><time>2026-04-12T08:01:48.45Z</time></trkpt><trkpt lat="44.8053383" lon="8.1321767"><ele>129.57142857142856</ele><time>2026-04-12T08:01:49.45Z</time></trkpt><trkpt lat="44.8052667" lon="8.1321533"><ele>129.42857142857144</ele><time>2026-04-12T08:01:50.45Z</time></trkpt><trkpt lat="44.8051983" lon="8.1321317"><ele>129.28571428571428</ele><time>2026-04-12T08:01:51.45Z</time></trkpt><trkpt lat="44.8051333" lon="8.13211"><ele>129.14285714285714</ele><time>2026-04-12T08:01:52.45Z</time></trkpt><trkpt lat="44.8050683" lon="8.1320883"><ele>129.0</ele><time>2026-04-12T08:01:53.45Z</time></trkpt><trkpt lat="44.8050033" lon="8.13206"><ele>128.99999999999997</ele><time>2026-04-12T08:01:54.45Z</time></trkpt><trkpt lat="44.8049333" lon="8.1320367"><ele>129.0</ele><time>2026-04-12T08:01:55.45Z</time></trkpt><trkpt lat="44.8048667" lon="8.13201"><ele>129.0</ele><time>2026-04-12T08:01:56.45Z</time></trkpt><trkpt lat="44.8048017" lon="8.1319783"><ele>129.0</ele><time>2026-04-12T08:01:57.45Z</time></trkpt><trkpt lat="44.8047383" lon="8.13195"><ele>129.0</ele><time>2026-04-12T08:01:58.45Z</time></trkpt><trkpt lat="44.80467" lon="8.13192"><ele>128.99999999999997</ele><time>2026-04-12T08:01:59.45Z</time></trkpt><trkpt lat="44.8046033" lon="8.131895"><ele>129.0</ele><time>2026-04-12T08:02:00.45Z</time></trkpt><trkpt lat="44.8045317" lon="8.131865"><ele>128.99999999999997</ele><time>2026-04-12T08:02:01.45Z</time></trkpt><trkpt lat="44.804465" lon="8.1318233"><ele>129.0</ele><time>2026-04-12T08:02:02.45Z</time></trkpt><trkpt lat="44.8043983" lon="8.1317917"><ele>129.0</ele><time>2026-04-12T08:02:03.45Z</time></trkpt><trkpt lat="44.8043283" lon="8.1317617"><ele>129.0</ele><time>2026-04-12T08:02:04.45Z</time></trkpt><trkpt lat="44.8042633" lon="8.131735"><ele>129.0</ele><time>2026-04-12T08:02:05.45Z</time></trkpt><trkpt lat="44.804195" lon="8.131705"><ele>128.99999999999997</ele><time>2026-04-12T08:02:06.451Z</time></trkpt><trkpt lat="44.8041267" lon="8.1316717"><ele>129.0</ele><time>2026-04-12T08:02:07.45Z</time></trkpt><trkpt lat="44.8040583" lon="8.131635"><ele>128.99999999999997</ele><time>2026-04-12T08:02:08.45Z</time></trkpt><trkpt lat="44.8039933" lon="8.1316017"><ele>129.0</ele><time>2026-04-12T08:02:09.451Z</time></trkpt><trkpt lat="44.8039267" lon="8.13157"><ele>129.0</ele><time>2026-04-12T08:02:10.45Z</time></trkpt><trkpt lat="44.8038633" lon="8.131535"><ele>129.0</ele><time>2026-04-12T08:02:11.45Z</time></trkpt><trkpt lat="44.8037967" lon="8.1314983"><ele>129.0</ele><time>2026-04-12T08:02:12.45Z</time></trkpt><trkpt lat="44.8037267" lon="8.1314583"><ele>128.99999999999997</ele><time>2026-04-12T08:02:13.45Z</time></trkpt><trkpt lat="44.80366" lon="8.131415"><ele>129.0</ele><time>2026-04-12T08:02:14.45Z</time></trkpt><trkpt lat="44.8035967" lon="8.1313767"><ele>128.99999999999997</ele><time>2026-04-12T08:02:15.45Z</time></trkpt><trkpt lat="44.8035317" lon="8.131345"><ele>129.0</ele><time>2026-04-12T08:02:16.45Z</time></trkpt><trkpt lat="44.80346" lon="8.1313267"><ele>129.0</ele><time>2026-04-12T08:02:17.45Z</time></trkpt><trkpt lat="44.8033967" lon="8.1313117"><ele>129.0</ele><time>2026-04-12T08:02:18.45Z</time></trkpt><trkpt lat="44.8033317" lon="8.131295"><ele>129.0</ele><time>2026-04-12T08:02:19.45Z</time></trkpt><trkpt lat="44.803265" lon="8.1312767"><ele>128.99999999999997</ele><time>2026-04-12T08:02:20.45Z</time></trkpt><trkpt lat="44.8032" lon="8.1312483"><ele>129.0</ele><time>2026-04-12T08:02:21.45Z</time></trkpt><trkpt lat="44.8031317" lon="8.1312217"><ele>128.99999999999997</ele><time>2026-04-12T08:02:22.45Z</time></trkpt><trkpt lat="44.803065" lon="8.1311867"><ele>129.0</ele><time>2026-04-12T08:02:23.45Z</time></trkpt><trkpt lat="44.8030033" lon="8.1311517"><ele>129.0</ele><time>2026-04-12T08:02:24.45Z</time></trkpt><trkpt lat="44.8029333" lon="8.1311167"><ele>129.0</ele><time>2026-04-12T08:02:25.45Z</time></trkpt><trkpt lat="44.80287" lon="8.1310767"><ele>129.0</ele><time>2026-04-12T08:02:26.45Z</time></trkpt><trkpt lat="44.8028033" lon="8.131045"><ele>128.99999999999997</ele><time>2026-04-12T08:02:27.45Z</time></trkpt><trkpt lat="44.8027367" lon="8.13101"><ele>129.0</ele><time>2026-04-12T08:02:28.45Z</time></trkpt><trkpt lat="44.8026683" lon="8.1309767"><ele>129.14285714285714</ele><time>2026-04-12T08:02:29.45Z</time></trkpt><trkpt lat="44.8026033" lon="8.1309517"><ele>129.28571428571428</ele><time>2026-04-12T08:02:30.45Z</time></trkpt><trkpt lat="44.8025367" lon="8.1309433"><ele>129.42857142857144</ele><time>2026-04-12T08:02:31.45Z</time></trkpt><trkpt lat="44.8024717" lon="8.130935"><ele>129.57142857142856</ele><time>2026-04-12T08:02:32.45Z</time></trkpt><trkpt lat="44.8024017" lon="8.13093"><ele>129.71428571428572</ele><time>2026-04-12T08:02:33.451Z</time></trkpt><trkpt lat="44.8023317" lon="8.1309317"><ele>129.85714285714286</ele><time>2026-04-12T08:02:34.45Z</time></trkpt><trkpt lat="44.8022633" lon="8.130925"><ele>130.0</ele><time>2026-04-12T08:02:35.451Z</time></trkpt><trkpt lat="44.8021983" lon="8.1309183"><ele>130.0</ele><time>2026-04-12T08:02:36.45Z</time></trkpt><trkpt lat="44.802135" lon="8.1309133"><ele>130.0</ele><time>2026-04-12T08:02:37.45Z</time></trkpt><trkpt lat="44.8020683" lon="8.1308967"><ele>130.0</ele><time>2026-04-12T08:02:38.45Z</time></trkpt><trkpt lat="44.802" lon="8.130875"><ele>130.0</ele><time>2026-04-12T08:02:39.45Z</time></trkpt><trkpt lat="44.8019333" lon="8.13085"><ele>130.0</ele><time>2026-04-12T08:02:40.45Z</time></trkpt><trkpt lat="44.801805" lon="8.1308583"><ele>130.0</ele><time>2026-04-12T08:02:42.45Z</time></trkpt><trkpt lat="44.8017383" lon="8.13089"><ele>130.14285714285717</ele><time>2026-04-12T08:02:43.451Z</time></trkpt><trkpt lat="44.80168" lon="8.1309383"><ele>130.28571428571428</ele><time>2026-04-12T08:02:44.45Z</time></trkpt><trkpt lat="44.8016233" lon="8.1309867"><ele>130.42857142857144</ele><time>2026-04-12T08:02:45.45Z</time></trkpt><trkpt lat="44.801565" lon="8.1310367"><ele>130.57142857142858</ele><time>2026-04-12T08:02:46.45Z</time></trkpt><trkpt lat="44.8015033" lon="8.1310883"><ele>130.71428571428572</ele><time>2026-04-12T08:02:47.45Z</time></trkpt><trkpt lat="44.80144" lon="8.1311317"><ele>130.85714285714286</ele><time>2026-04-12T08:02:48.45Z</time></trkpt><trkpt lat="44.8013783" lon="8.1311733"><ele>131.0</ele><time>2026-04-12T08:02:49.45Z</time></trkpt><trkpt lat="44.8013183" lon="8.1312017"><ele>131.0</ele><time>2026-04-12T08:02:50.45Z</time></trkpt><trkpt lat="44.8012033" lon="8.131205"><ele>131.0</ele><time>2026-04-12T08:02:52.45Z</time></trkpt><trkpt lat="44.8010833" lon="8.1312017"><ele>131.0</ele><time>2026-04-12T08:02:54.45Z</time></trkpt><trkpt lat="44.8009783" lon="8.1311767"><ele>131.0</ele><time>2026-04-12T08:02:56.45Z</time></trkpt><trkpt lat="44.800865" lon="8.13115"><ele>130.75</ele><time>2026-04-12T08:02:58.45Z</time></trkpt><trkpt lat="44.800745" lon="8.131125"><ele>130.5</ele><time>2026-04-12T08:03:00.45Z</time></trkpt><trkpt lat="44.800625" lon="8.1310917"><ele>130.25</ele><time>2026-04-12T08:03:02.45Z</time></trkpt><trkpt lat="44.8005017" lon="8.131055"><ele>130.0</ele><time>2026-04-12T08:03:04.45Z</time></trkpt><trkpt lat="44.8003817" lon="8.13103"><ele>130.0</ele><time>2026-04-12T08:03:06.451Z</time></trkpt><trkpt lat="44.800315" lon="8.131025"><ele>130.0</ele><time>2026-04-12T08:03:07.451Z</time></trkpt><trkpt lat="44.8002033" lon="8.1309867"><ele>130.0</ele><time>2026-04-12T08:03:09.451Z</time></trkpt><trkpt lat="44.800115" lon="8.130925"><ele>130.0</ele><time>2026-04-12T08:03:11.451Z</time></trkpt><trkpt lat="44.8000333" lon="8.130855"><ele>130.0</ele><time>2026-04-12T08:03:13.452Z</time></trkpt><trkpt lat="44.799955" lon="8.1307533"><ele>129.8</ele><time>2026-04-12T08:03:15.451Z</time></trkpt><trkpt lat="44.7998683" lon="8.1306517"><ele>129.6</ele><time>2026-04-12T08:03:17.451Z</time></trkpt><trkpt lat="44.7997683" lon="8.1305783"><ele>129.4</ele><time>2026-04-12T08:03:19.451Z</time></trkpt><trkpt lat="44.7996683" lon="8.13056"><ele>129.2</ele><time>2026-04-12T08:03:21.451Z</time></trkpt><trkpt lat="44.79957" lon="8.130535"><ele>129.0</ele><time>2026-04-12T08:03:23.451Z</time></trkpt><trkpt lat="44.79947" lon="8.1304883"><ele>129.0</ele><time>2026-04-12T08:03:25.451Z</time></trkpt><trkpt lat="44.7993567" lon="8.1304733"><ele>129.0</ele><time>2026-04-12T08:03:27.451Z</time></trkpt><trkpt lat="44.799255" lon="8.1304683"><ele>129.0</ele><time>2026-04-12T08:03:29.451Z</time></trkpt><trkpt lat="44.7991583" lon="8.1304483"><ele>129.0</ele><time>2026-04-12T08:03:31.451Z</time></trkpt><trkpt lat="44.799075" lon="8.1304267"><ele>129.0</ele><time>2026-04-12T08:03:33.451Z</time></trkpt><trkpt lat="44.798995" lon="8.130405"><ele>129.33333333333334</ele><time>2026-04-12T08:03:35.451Z</time></trkpt><trkpt lat="44.798915" lon="8.1303867"><ele>129.66666666666666</ele><time>2026-04-12T08:03:37.451Z</time></trkpt><trkpt lat="44.7988317" lon="8.1303767"><ele>130.0</ele><time>2026-04-12T08:03:39.451Z</time></trkpt><trkpt lat="44.79875" lon="8.13038"><ele>130.33333333333331</ele><time>2026-04-12T08:03:41.451Z</time></trkpt><trkpt lat="44.798675" lon="8.1304067"><ele>130.66666666666666</ele><time>2026-04-12T08:03:43.451Z</time></trkpt><trkpt lat="44.7986083" lon="8.1304567"><ele>131.0</ele><time>2026-04-12T08:03:45.451Z</time></trkpt><trkpt lat="44.798535" lon="8.1305083"><ele>131.0</ele><time>2026-04-12T08:03:47.451Z</time></trkpt><trkpt lat="44.7984417" lon="8.1304867"><ele>131.0</ele><time>2026-04-12T08:03:49.451Z</time></trkpt><trkpt lat="44.7983433" lon="8.1304333"><ele>131.0</ele><time>2026-04-12T08:03:51.451Z</time></trkpt><trkpt lat="44.7982383" lon="8.1303783"><ele>131.0</ele><time>2026-04-12T08:03:53.451Z</time></trkpt><trkpt lat="44.798135" lon="8.1303117"><ele>131.0</ele><time>2026-04-12T08:03:55.452Z</time></trkpt><trkpt lat="44.7980367" lon="8.1302483"><ele>131.0</ele><time>2026-04-12T08:03:57.452Z</time></trkpt><trkpt lat="44.7979483" lon="8.1301883"><ele>131.0</ele><time>2026-04-12T08:03:59.451Z</time></trkpt><trkpt lat="44.7978833" lon="8.13013"><ele>131.0</ele><time>2026-04-12T08:04:01.452Z</time></trkpt><trkpt lat="44.79781" lon="8.130095"><ele>131.0</ele><time>2026-04-12T08:04:03.451Z</time></trkpt><trkpt lat="44.79773" lon="8.1300933"><ele>131.0</ele><time>2026-04-12T08:04:05.451Z</time></trkpt><trkpt lat="44.7976483" lon="8.1301017"><ele>131.0</ele><time>2026-04-12T08:04:07.451Z</time></trkpt><trkpt lat="44.79757" lon="8.13011"><ele>131.16666666666666</ele><time>2026-04-12T08:04:09.451Z</time></trkpt><trkpt lat="44.7974833" lon="8.1300533"><ele>131.33333333333331</ele><time>2026-04-12T08:04:11.451Z</time></trkpt><trkpt lat="44.79739" lon="8.13"><ele>131.5</ele><time>2026-04-12T08:04:13.451Z</time></trkpt><trkpt lat="44.79735" lon="8.1300733"><ele>131.66666666666666</ele><time>2026-04-12T08:04:16.451Z</time></trkpt><trkpt lat="44.7974033" lon="8.1301383"><ele>131.83333333333334</ele><time>2026-04-12T08:04:18.451Z</time></trkpt><trkpt lat="44.797465" lon="8.1302217"><ele>132.0</ele><time>2026-04-12T08:04:20.451Z</time></trkpt><trkpt lat="44.7975417" lon="8.1303083"><ele>132.0</ele><time>2026-04-12T08:04:22.451Z</time></trkpt><trkpt lat="44.7976317" lon="8.1303983"><ele>132.0</ele><time>2026-04-12T08:04:24.451Z</time></trkpt><trkpt lat="44.7977167" lon="8.130495"><ele>132.0</ele><time>2026-04-12T08:04:26.451Z</time></trkpt><trkpt lat="44.7977767" lon="8.1305883"><ele>132.0</ele><time>2026-04-12T08:04:28.451Z</time></trkpt><trkpt lat="44.7978217" lon="8.13071"><ele>132.0</ele><time>2026-04-12T08:04:30.451Z</time></trkpt><trkpt lat="44.7978283" lon="8.1308667"><ele>132.0</ele><time>2026-04-12T08:04:32.451Z</time></trkpt><trkpt lat="44.7978" lon="8.130965"><ele>132.0</ele><time>2026-04-12T08:04:33.451Z</time></trkpt><trkpt lat="44.7977683" lon="8.131045"><ele>132.0</ele><time>2026-04-12T08:04:34.451Z</time></trkpt><trkpt lat="44.7977433" lon="8.1311417"><ele>132.0</ele><time>2026-04-12T08:04:35.451Z</time></trkpt><trkpt lat="44.7976983" lon="8.131295"><ele>132.0</ele><time>2026-04-12T08:04:37.451Z</time></trkpt><trkpt lat="44.797655" lon="8.1314167"><ele>132.0</ele><time>2026-04-12T08:04:39.451Z</time></trkpt><trkpt lat="44.7976133" lon="8.1315217"><ele>132.2</ele><time>2026-04-12T08:04:41.451Z</time></trkpt><trkpt lat="44.7975467" lon="8.1316117"><ele>132.39999999999998</ele><time>2026-04-12T08:04:43.451Z</time></trkpt><trkpt lat="44.79745" lon="8.131685"><ele>132.60000000000002</ele><time>2026-04-12T08:04:45.451Z</time></trkpt><trkpt lat="44.7973367" lon="8.1317483"><ele>132.8</ele><time>2026-04-12T08:04:47.451Z</time></trkpt><trkpt lat="44.7972783" lon="8.1317867"><ele>133.0</ele><time>2026-04-12T08:04:48.451Z</time></trkpt><trkpt lat="44.797165" lon="8.1318533"><ele>133.0</ele><time>2026-04-12T08:04:50.451Z</time></trkpt><trkpt lat="44.797105" lon="8.131885"><ele>133.0</ele><time>2026-04-12T08:04:51.451Z</time></trkpt><trkpt lat="44.797045" lon="8.13192"><ele>133.0</ele><time>2026-04-12T08:04:52.451Z</time></trkpt><trkpt lat="44.7969283" lon="8.1319817"><ele>133.0</ele><time>2026-04-12T08:04:54.451Z</time></trkpt><trkpt lat="44.796865" lon="8.1320217"><ele>133.0</ele><time>2026-04-12T08:04:55.451Z</time></trkpt><trkpt lat="44.796805" lon="8.1320567"><ele>133.0</ele><time>2026-04-12T08:04:56.452Z</time></trkpt><trkpt lat="44.7967417" lon="8.1320917"><ele>132.85714285714286</ele><time>2026-04-12T08:04:57.451Z</time></trkpt><trkpt lat="44.7966817" lon="8.1321283"><ele>132.71428571428572</ele><time>2026-04-12T08:04:58.451Z</time></trkpt><trkpt lat="44.79662" lon="8.1321617"><ele>132.57142857142856</ele><time>2026-04-12T08:04:59.451Z</time></trkpt><trkpt lat="44.7965583" lon="8.1321917"><ele>132.42857142857144</ele><time>2026-04-12T08:05:00.451Z</time></trkpt><trkpt lat="44.7964967" lon="8.1322267"><ele>132.28571428571428</ele><time>2026-04-12T08:05:01.451Z</time></trkpt><trkpt lat="44.7964367" lon="8.13226"><ele>132.14285714285714</ele><time>2026-04-12T08:05:02.451Z</time></trkpt><trkpt lat="44.7963767" lon="8.1322967"><ele>132.0</ele><time>2026-04-12T08:05:03.451Z</time></trkpt><trkpt lat="44.7963167" lon="8.132325"><ele>132.0</ele><time>2026-04-12T08:05:04.451Z</time></trkpt><trkpt lat="44.7962567" lon="8.1323567"><ele>132.0</ele><time>2026-04-12T08:05:05.452Z</time></trkpt><trkpt lat="44.7961917" lon="8.13239"><ele>132.0</ele><time>2026-04-12T08:05:06.451Z</time></trkpt><trkpt lat="44.7961233" lon="8.1324283"><ele>132.0</ele><time>2026-04-12T08:05:07.451Z</time></trkpt><trkpt lat="44.7960567" lon="8.1324667"><ele>132.0</ele><time>2026-04-12T08:05:08.452Z</time></trkpt><trkpt lat="44.7959917" lon="8.1325067"><ele>132.0</ele><time>2026-04-12T08:05:09.451Z</time></trkpt><trkpt lat="44.79593" lon="8.132545"><ele>132.0</ele><time>2026-04-12T08:05:10.451Z</time></trkpt><trkpt lat="44.795865" lon="8.13258"><ele>131.85714285714286</ele><time>2026-04-12T08:05:11.451Z</time></trkpt><trkpt lat="44.7957983" lon="8.1326167"><ele>131.71428571428572</ele><time>2026-04-12T08:05:12.451Z</time></trkpt><trkpt lat="44.79573" lon="8.132655"><ele>131.57142857142858</ele><time>2026-04-12T08:05:13.451Z</time></trkpt><trkpt lat="44.79566" lon="8.132695"><ele>131.42857142857144</ele><time>2026-04-12T08:05:14.451Z</time></trkpt><trkpt lat="44.795595" lon="8.1327317"><ele>131.2857142857143</ele><time>2026-04-12T08:05:15.451Z</time></trkpt><trkpt lat="44.7955317" lon="8.13277"><ele>131.14285714285714</ele><time>2026-04-12T08:05:16.451Z</time></trkpt><trkpt lat="44.79547" lon="8.132815"><ele>131.0</ele><time>2026-04-12T08:05:17.451Z</time></trkpt><trkpt lat="44.795405" lon="8.1328583"><ele>131.0</ele><time>2026-04-12T08:05:18.451Z</time></trkpt><trkpt lat="44.7953433" lon="8.1328917"><ele>131.0</ele><time>2026-04-12T08:05:19.451Z</time></trkpt><trkpt lat="44.79528" lon="8.1329217"><ele>131.0</ele><time>2026-04-12T08:05:20.451Z</time></trkpt><trkpt lat="44.7952183" lon="8.1329517"><ele>131.0</ele><time>2026-04-12T08:05:21.452Z</time></trkpt><trkpt lat="44.7951583" lon="8.1329867"><ele>131.0</ele><time>2026-04-12T08:05:22.451Z</time></trkpt><trkpt lat="44.7951" lon="8.133025"><ele>131.0</ele><time>2026-04-12T08:05:23.451Z</time></trkpt><trkpt lat="44.79504" lon="8.1330617"><ele>131.0</ele><time>2026-04-12T08:05:24.451Z</time></trkpt><trkpt lat="44.7949783" lon="8.1330983"><ele>131.33333333333331</ele><time>2026-04-12T08:05:25.451Z</time></trkpt><trkpt lat="44.7949183" lon="8.133135"><ele>131.66666666666666</ele><time>2026-04-12T08:05:26.451Z</time></trkpt><trkpt lat="44.7948583" lon="8.1331733"><ele>132.0</ele><time>2026-04-12T08:05:27.451Z</time></trkpt><trkpt lat="44.7947983" lon="8.1332067"><ele>132.33333333333334</ele><time>2026-04-12T08:05:28.451Z</time></trkpt><trkpt lat="44.7946767" lon="8.13327"><ele>132.66666666666669</ele><time>2026-04-12T08:05:30.452Z</time></trkpt><trkpt lat="44.79461" lon="8.1333017"><ele>133.0</ele><time>2026-04-12T08:05:31.451Z</time></trkpt><trkpt lat="44.79455" lon="8.1333383"><ele>133.0</ele><time>2026-04-12T08:05:32.451Z</time></trkpt><trkpt lat="44.7944317" lon="8.1334"><ele>133.0</ele><time>2026-04-12T08:05:34.451Z</time></trkpt><trkpt lat="44.7943733" lon="8.133435"><ele>133.0</ele><time>2026-04-12T08:05:35.451Z</time></trkpt><trkpt lat="44.794315" lon="8.13347"><ele>133.0</ele><time>2026-04-12T08:05:36.451Z</time></trkpt><trkpt lat="44.7942533" lon="8.1335117"><ele>133.0</ele><time>2026-04-12T08:05:37.451Z</time></trkpt><trkpt lat="44.7941933" lon="8.1335533"><ele>133.0</ele><time>2026-04-12T08:05:38.451Z</time></trkpt><trkpt lat="44.7940867" lon="8.1336383"><ele>132.83333333333334</ele><time>2026-04-12T08:05:40.451Z</time></trkpt><trkpt lat="44.7939733" lon="8.13373"><ele>132.66666666666669</ele><time>2026-04-12T08:05:42.452Z</time></trkpt><trkpt lat="44.7939133" lon="8.1337783"><ele>132.5</ele><time>2026-04-12T08:05:43.451Z</time></trkpt><trkpt lat="44.793855" lon="8.1338267"><ele>132.33333333333334</ele><time>2026-04-12T08:05:44.451Z</time></trkpt><trkpt lat="44.7937983" lon="8.1338733"><ele>132.16666666666666</ele><time>2026-04-12T08:05:45.451Z</time></trkpt><trkpt lat="44.79374" lon="8.1339233"><ele>132.0</ele><time>2026-04-12T08:05:46.451Z</time></trkpt><trkpt lat="44.7936333" lon="8.1340167"><ele>132.0</ele><time>2026-04-12T08:05:48.451Z</time></trkpt><trkpt lat="44.793575" lon="8.1340667"><ele>132.0</ele><time>2026-04-12T08:05:49.451Z</time></trkpt><trkpt lat="44.7935133" lon="8.1341167"><ele>132.0</ele><time>2026-04-12T08:05:50.451Z</time></trkpt><trkpt lat="44.793405" lon="8.1342033"><ele>132.0</ele><time>2026-04-12T08:05:52.451Z</time></trkpt><trkpt lat="44.79335" lon="8.1342483"><ele>132.0</ele><time>2026-04-12T08:05:53.452Z</time></trkpt><trkpt lat="44.7932933" lon="8.1342967"><ele>132.0</ele><time>2026-04-12T08:05:54.451Z</time></trkpt><trkpt lat="44.7931883" lon="8.1343867"><ele>132.4</ele><time>2026-04-12T08:05:56.452Z</time></trkpt><trkpt lat="44.79308" lon="8.1344783"><ele>132.79999999999998</ele><time>2026-04-12T08:05:58.451Z</time></trkpt><trkpt lat="44.7930233" lon="8.1345217"><ele>133.2</ele><time>2026-04-12T08:05:59.451Z</time></trkpt><trkpt lat="44.79297" lon="8.134575"><ele>133.6</ele><time>2026-04-12T08:06:00.451Z</time></trkpt><trkpt lat="44.7928567" lon="8.1346633"><ele>134.0</ele><time>2026-04-12T08:06:02.451Z</time></trkpt><trkpt lat="44.7928" lon="8.134705"><ele>134.0</ele><time>2026-04-12T08:06:03.452Z</time></trkpt><trkpt lat="44.792745" lon="8.1347517"><ele>134.0</ele><time>2026-04-12T08:06:04.451Z</time></trkpt><trkpt lat="44.7926317" lon="8.1348433"><ele>134.0</ele><time>2026-04-12T08:06:06.451Z</time></trkpt><trkpt lat="44.7925717" lon="8.1348867"><ele>134.0</ele><time>2026-04-12T08:06:07.451Z</time></trkpt><trkpt lat="44.7925133" lon="8.1349367"><ele>134.0</ele><time>2026-04-12T08:06:08.451Z</time></trkpt><trkpt lat="44.7924567" lon="8.13499"><ele>134.0</ele><time>2026-04-12T08:06:09.451Z</time></trkpt><trkpt lat="44.7924" lon="8.1350367"><ele>133.71428571428572</ele><time>2026-04-12T08:06:10.451Z</time></trkpt><trkpt lat="44.7923417" lon="8.1350817"><ele>133.42857142857142</ele><time>2026-04-12T08:06:11.451Z</time></trkpt><trkpt lat="44.7922833" lon="8.13513"><ele>133.14285714285714</ele><time>2026-04-12T08:06:12.451Z</time></trkpt><trkpt lat="44.7922283" lon="8.1351817"><ele>132.85714285714286</ele><time>2026-04-12T08:06:13.451Z</time></trkpt><trkpt lat="44.7921733" lon="8.1352283"><ele>132.57142857142858</ele><time>2026-04-12T08:06:14.451Z</time></trkpt><trkpt lat="44.7920733" lon="8.1353133"><ele>132.28571428571428</ele><time>2026-04-12T08:06:16.451Z</time></trkpt><trkpt lat="44.792015" lon="8.1353583"><ele>132.0</ele><time>2026-04-12T08:06:17.451Z</time></trkpt><trkpt lat="44.79196" lon="8.135405"><ele>132.0</ele><time>2026-04-12T08:06:18.451Z</time></trkpt><trkpt lat="44.791905" lon="8.1354517"><ele>132.0</ele><time>2026-04-12T08:06:19.451Z</time></trkpt><trkpt lat="44.79185" lon="8.135495"><ele>132.0</ele><time>2026-04-12T08:06:20.451Z</time></trkpt><trkpt lat="44.7917933" lon="8.1355433"><ele>132.0</ele><time>2026-04-12T08:06:21.451Z</time></trkpt><trkpt lat="44.7917367" lon="8.1355933"><ele>132.0</ele><time>2026-04-12T08:06:22.451Z</time></trkpt><trkpt lat="44.7916333" lon="8.1356783"><ele>132.0</ele><time>2026-04-12T08:06:24.451Z</time></trkpt><trkpt lat="44.7915783" lon="8.1357217"><ele>132.0</ele><time>2026-04-12T08:06:25.451Z</time></trkpt><trkpt lat="44.7915233" lon="8.1357683"><ele>132.16666666666666</ele><time>2026-04-12T08:06:26.451Z</time></trkpt><trkpt lat="44.7914667" lon="8.135815"><ele>132.33333333333334</ele><time>2026-04-12T08:06:27.451Z</time></trkpt><trkpt lat="44.791365" lon="8.1359017"><ele>132.5</ele><time>2026-04-12T08:06:29.451Z</time></trkpt><trkpt lat="44.791265" lon="8.135975"><ele>132.66666666666669</ele><time>2026-04-12T08:06:31.451Z</time></trkpt><trkpt lat="44.7912067" lon="8.1360117"><ele>132.83333333333334</ele><time>2026-04-12T08:06:32.451Z</time></trkpt><trkpt lat="44.7911483" lon="8.1360533"><ele>133.0</ele><time>2026-04-12T08:06:33.451Z</time></trkpt><trkpt lat="44.79109" lon="8.136095"><ele>133.0</ele><time>2026-04-12T08:06:34.451Z</time></trkpt><trkpt lat="44.7910333" lon="8.1361383"><ele>133.0</ele><time>2026-04-12T08:06:35.451Z</time></trkpt><trkpt lat="44.7909767" lon="8.1361867"><ele>133.0</ele><time>2026-04-12T08:06:36.451Z</time></trkpt><trkpt lat="44.7909217" lon="8.136235"><ele>133.0</ele><time>2026-04-12T08:06:37.451Z</time></trkpt><trkpt lat="44.7908667" lon="8.13628"><ele>133.0</ele><time>2026-04-12T08:06:38.451Z</time></trkpt><trkpt lat="44.79081" lon="8.1363267"><ele>133.0</ele><time>2026-04-12T08:06:39.451Z</time></trkpt><trkpt lat="44.79075" lon="8.1363767"><ele>133.0</ele><time>2026-04-12T08:06:40.452Z</time></trkpt><trkpt lat="44.7906917" lon="8.1364267"><ele>133.33333333333334</ele><time>2026-04-12T08:06:41.451Z</time></trkpt><trkpt lat="44.7906333" lon="8.13648"><ele>133.66666666666669</ele><time>2026-04-12T08:06:42.451Z</time></trkpt><trkpt lat="44.7905733" lon="8.1365283"><ele>134.0</ele><time>2026-04-12T08:06:43.451Z</time></trkpt><trkpt lat="44.7905167" lon="8.136575"><ele>134.33333333333334</ele><time>2026-04-12T08:06:44.451Z</time></trkpt><trkpt lat="44.7904583" lon="8.13662"><ele>134.66666666666666</ele><time>2026-04-12T08:06:45.451Z</time></trkpt><trkpt lat="44.790405" lon="8.1366683"><ele>135.0</ele><time>2026-04-12T08:06:46.451Z</time></trkpt><trkpt lat="44.79029" lon="8.1367583"><ele>135.14285714285714</ele><time>2026-04-12T08:06:48.451Z</time></trkpt><trkpt lat="44.7902317" lon="8.1368067"><ele>135.28571428571428</ele><time>2026-04-12T08:06:49.451Z</time></trkpt><trkpt lat="44.790175" lon="8.13686"><ele>135.42857142857142</ele><time>2026-04-12T08:06:50.451Z</time></trkpt><trkpt lat="44.7901183" lon="8.13691"><ele>135.57142857142856</ele><time>2026-04-12T08:06:51.451Z</time></trkpt><trkpt lat="44.79006" lon="8.13696"><ele>135.71428571428572</ele><time>2026-04-12T08:06:52.451Z</time></trkpt><trkpt lat="44.7900067" lon="8.13701"><ele>135.85714285714283</ele><time>2026-04-12T08:06:53.451Z</time></trkpt><trkpt lat="44.7899467" lon="8.1370617"><ele>136.0</ele><time>2026-04-12T08:06:54.451Z</time></trkpt><trkpt lat="44.7898833" lon="8.137105"><ele>136.0</ele><time>2026-04-12T08:06:55.451Z</time></trkpt><trkpt lat="44.7898267" lon="8.1371517"><ele>136.0</ele><time>2026-04-12T08:06:56.451Z</time></trkpt><trkpt lat="44.78977" lon="8.1372"><ele>136.0</ele><time>2026-04-12T08:06:57.451Z</time></trkpt><trkpt lat="44.7896617" lon="8.137295"><ele>136.0</ele><time>2026-04-12T08:06:59.451Z</time></trkpt><trkpt lat="44.7895533" lon="8.13739"><ele>136.0</ele><time>2026-04-12T08:07:01.451Z</time></trkpt><trkpt lat="44.7895" lon="8.1374383"><ele>135.99999999999997</ele><time>2026-04-12T08:07:02.452Z</time></trkpt><trkpt lat="44.7894433" lon="8.1374833"><ele>136.0</ele><time>2026-04-12T08:07:03.451Z</time></trkpt><trkpt lat="44.7893867" lon="8.1375317"><ele>136.0</ele><time>2026-04-12T08:07:04.451Z</time></trkpt><trkpt lat="44.7893283" lon="8.13758"><ele>136.0</ele><time>2026-04-12T08:07:05.451Z</time></trkpt><trkpt lat="44.7892683" lon="8.1376267"><ele>136.0</ele><time>2026-04-12T08:07:06.451Z</time></trkpt><trkpt lat="44.7892067" lon="8.137675"><ele>135.99999999999997</ele><time>2026-04-12T08:07:07.451Z</time></trkpt><trkpt lat="44.789145" lon="8.137725"><ele>136.0</ele><time>2026-04-12T08:07:08.451Z</time></trkpt><trkpt lat="44.7890817" lon="8.1377733"><ele>135.99999999999997</ele><time>2026-04-12T08:07:09.451Z</time></trkpt><trkpt lat="44.7890233" lon="8.1378233"><ele>136.0</ele><time>2026-04-12T08:07:10.451Z</time></trkpt><trkpt lat="44.788965" lon="8.137865"><ele>136.0</ele><time>2026-04-12T08:07:11.451Z</time></trkpt><trkpt lat="44.7889067" lon="8.1379117"><ele>136.0</ele><time>2026-04-12T08:07:12.451Z</time></trkpt><trkpt lat="44.7888467" lon="8.1379617"><ele>136.0</ele><time>2026-04-12T08:07:13.452Z</time></trkpt><trkpt lat="44.78879" lon="8.1380133"><ele>135.99999999999997</ele><time>2026-04-12T08:07:14.451Z</time></trkpt><trkpt lat="44.7887333" lon="8.13806"><ele>136.0</ele><time>2026-04-12T08:07:15.451Z</time></trkpt><trkpt lat="44.7886767" lon="8.138105"><ele>135.99999999999997</ele><time>2026-04-12T08:07:16.451Z</time></trkpt><trkpt lat="44.7886183" lon="8.1381517"><ele>136.0</ele><time>2026-04-12T08:07:17.451Z</time></trkpt><trkpt lat="44.7885583" lon="8.1382017"><ele>136.0</ele><time>2026-04-12T08:07:18.451Z</time></trkpt><trkpt lat="44.7884983" lon="8.1382483"><ele>136.0</ele><time>2026-04-12T08:07:19.451Z</time></trkpt><trkpt lat="44.7884383" lon="8.13829"><ele>136.0</ele><time>2026-04-12T08:07:20.451Z</time></trkpt><trkpt lat="44.7883767" lon="8.138335"><ele>135.99999999999997</ele><time>2026-04-12T08:07:21.451Z</time></trkpt><trkpt lat="44.788315" lon="8.13838"><ele>136.0</ele><time>2026-04-12T08:07:22.451Z</time></trkpt><trkpt lat="44.7882517" lon="8.1384267"><ele>136.14285714285714</ele><time>2026-04-12T08:07:23.451Z</time></trkpt><trkpt lat="44.7881933" lon="8.1384683"><ele>136.28571428571428</ele><time>2026-04-12T08:07:24.451Z</time></trkpt><trkpt lat="44.7881333" lon="8.1385133"><ele>136.42857142857144</ele><time>2026-04-12T08:07:25.451Z</time></trkpt><trkpt lat="44.7880717" lon="8.138555"><ele>136.57142857142856</ele><time>2026-04-12T08:07:26.451Z</time></trkpt><trkpt lat="44.7880083" lon="8.1386017"><ele>136.71428571428572</ele><time>2026-04-12T08:07:27.451Z</time></trkpt><trkpt lat="44.7879483" lon="8.138645"><ele>136.85714285714286</ele><time>2026-04-12T08:07:28.451Z</time></trkpt><trkpt lat="44.7878867" lon="8.138685"><ele>137.0</ele><time>2026-04-12T08:07:29.451Z</time></trkpt><trkpt lat="44.7878233" lon="8.138735"><ele>137.00000000000003</ele><time>2026-04-12T08:07:30.451Z</time></trkpt><trkpt lat="44.7877583" lon="8.13878"><ele>137.0</ele><time>2026-04-12T08:07:31.451Z</time></trkpt><trkpt lat="44.7876967" lon="8.138825"><ele>137.0</ele><time>2026-04-12T08:07:32.451Z</time></trkpt><trkpt lat="44.7876367" lon="8.138865"><ele>137.0</ele><time>2026-04-12T08:07:33.451Z</time></trkpt><trkpt lat="44.7875783" lon="8.13891"><ele>137.0</ele><time>2026-04-12T08:07:34.451Z</time></trkpt><trkpt lat="44.7875167" lon="8.1389583"><ele>137.00000000000003</ele><time>2026-04-12T08:07:35.451Z</time></trkpt><trkpt lat="44.78745" lon="8.1390067"><ele>137.0</ele><time>2026-04-12T08:07:36.451Z</time></trkpt><trkpt lat="44.7873883" lon="8.1390467"><ele>137.0</ele><time>2026-04-12T08:07:37.451Z</time></trkpt><trkpt lat="44.7873283" lon="8.1390883"><ele>137.0</ele><time>2026-04-12T08:07:38.451Z</time></trkpt><trkpt lat="44.7872667" lon="8.1391267"><ele>137.0</ele><time>2026-04-12T08:07:39.451Z</time></trkpt><trkpt lat="44.7872033" lon="8.1391683"><ele>137.0</ele><time>2026-04-12T08:07:40.451Z</time></trkpt><trkpt lat="44.7871417" lon="8.13921"><ele>137.0</ele><time>2026-04-12T08:07:41.451Z</time></trkpt><trkpt lat="44.78708" lon="8.1392567"><ele>137.0</ele><time>2026-04-12T08:07:42.451Z</time></trkpt><trkpt lat="44.78696" lon="8.1393267"><ele>137.00000000000003</ele><time>2026-04-12T08:07:44.451Z</time></trkpt><trkpt lat="44.7868983" lon="8.13936"><ele>137.0</ele><time>2026-04-12T08:07:45.451Z</time></trkpt><trkpt lat="44.78684" lon="8.139395"><ele>137.0</ele><time>2026-04-12T08:07:46.452Z</time></trkpt><trkpt lat="44.786775" lon="8.1394267"><ele>137.0</ele><time>2026-04-12T08:07:47.451Z</time></trkpt><trkpt lat="44.786715" lon="8.1394567"><ele>137.0</ele><time>2026-04-12T08:07:48.451Z</time></trkpt><trkpt lat="44.7866533" lon="8.1394833"><ele>137.00000000000003</ele><time>2026-04-12T08:07:49.451Z</time></trkpt><trkpt lat="44.7865867" lon="8.139515"><ele>137.0</ele><time>2026-04-12T08:07:50.451Z</time></trkpt><trkpt lat="44.7865167" lon="8.1395383"><ele>136.75</ele><time>2026-04-12T08:07:51.451Z</time></trkpt><trkpt lat="44.7864033" lon="8.1395783"><ele>136.5</ele><time>2026-04-12T08:07:53.451Z</time></trkpt><trkpt lat="44.786285" lon="8.1396067"><ele>136.25</ele><time>2026-04-12T08:07:55.451Z</time></trkpt><trkpt lat="44.78617" lon="8.139635"><ele>136.0</ele><time>2026-04-12T08:07:57.451Z</time></trkpt><trkpt lat="44.786065" lon="8.1396567"><ele>136.0</ele><time>2026-04-12T08:07:59.451Z</time></trkpt><trkpt lat="44.7859517" lon="8.1396867"><ele>136.0</ele><time>2026-04-12T08:08:01.451Z</time></trkpt><trkpt lat="44.7858367" lon="8.1396917"><ele>136.0</ele><time>2026-04-12T08:08:03.451Z</time></trkpt><trkpt lat="44.78573" lon="8.1397"><ele>136.0</ele><time>2026-04-12T08:08:05.452Z</time></trkpt><trkpt lat="44.785625" lon="8.1397067"><ele>136.0</ele><time>2026-04-12T08:08:07.451Z</time></trkpt><trkpt lat="44.7855267" lon="8.1397017"><ele>136.0</ele><time>2026-04-12T08:08:09.451Z</time></trkpt><trkpt lat="44.7854167" lon="8.1396983"><ele>136.0</ele><time>2026-04-12T08:08:11.451Z</time></trkpt><trkpt lat="44.7853067" lon="8.1396833"><ele>136.0</ele><time>2026-04-12T08:08:13.451Z</time></trkpt><trkpt lat="44.7851933" lon="8.1396617"><ele>136.0</ele><time>2026-04-12T08:08:15.451Z</time></trkpt><trkpt lat="44.7850667" lon="8.1396367"><ele>136.0</ele><time>2026-04-12T08:08:17.451Z</time></trkpt><trkpt lat="44.7849433" lon="8.1396133"><ele>136.0</ele><time>2026-04-12T08:08:19.451Z</time></trkpt><trkpt lat="44.7848233" lon="8.13958"><ele>136.0</ele><time>2026-04-12T08:08:21.451Z</time></trkpt><trkpt lat="44.7846967" lon="8.1395467"><ele>136.0</ele><time>2026-04-12T08:08:23.452Z</time></trkpt><trkpt lat="44.7845767" lon="8.1395067"><ele>136.0</ele><time>2026-04-12T08:08:25.451Z</time></trkpt><trkpt lat="44.7844633" lon="8.1394567"><ele>136.0</ele><time>2026-04-12T08:08:27.451Z</time></trkpt><trkpt lat="44.7843517" lon="8.1394133"><ele>136.0</ele><time>2026-04-12T08:08:29.451Z</time></trkpt><trkpt lat="44.7842317" lon="8.1393567"><ele>136.0</ele><time>2026-04-12T08:08:31.451Z</time></trkpt><trkpt lat="44.78417" lon="8.1393167"><ele>136.0</ele><time>2026-04-12T08:08:32.451Z</time></trkpt><trkpt lat="44.7841067" lon="8.139285"><ele>135.99999999999997</ele><time>2026-04-12T08:08:33.451Z</time></trkpt><trkpt lat="44.7840467" lon="8.139245"><ele>136.0</ele><time>2026-04-12T08:08:34.451Z</time></trkpt><trkpt lat="44.78399" lon="8.1392"><ele>136.0</ele><time>2026-04-12T08:08:35.451Z</time></trkpt><trkpt lat="44.7839317" lon="8.1391567"><ele>136.0</ele><time>2026-04-12T08:08:36.451Z</time></trkpt><trkpt lat="44.78387" lon="8.1391167"><ele>136.0</ele><time>2026-04-12T08:08:37.451Z</time></trkpt><trkpt lat="44.7838033" lon="8.1390733"><ele>135.99999999999997</ele><time>2026-04-12T08:08:38.452Z</time></trkpt><trkpt lat="44.7837467" lon="8.1390317"><ele>136.0</ele><time>2026-04-12T08:08:39.451Z</time></trkpt><trkpt lat="44.7836833" lon="8.13899"><ele>135.99999999999997</ele><time>2026-04-12T08:08:40.451Z</time></trkpt><trkpt lat="44.7836233" lon="8.1389483"><ele>136.0</ele><time>2026-04-12T08:08:41.451Z</time></trkpt><trkpt lat="44.783565" lon="8.138905"><ele>136.0</ele><time>2026-04-12T08:08:42.451Z</time></trkpt><trkpt lat="44.783505" lon="8.138865"><ele>136.0</ele><time>2026-04-12T08:08:43.452Z</time></trkpt><trkpt lat="44.7834433" lon="8.1388217"><ele>136.0</ele><time>2026-04-12T08:08:44.451Z</time></trkpt><trkpt lat="44.78338" lon="8.1387867"><ele>135.99999999999997</ele><time>2026-04-12T08:08:45.451Z</time></trkpt><trkpt lat="44.7833183" lon="8.1387483"><ele>136.0</ele><time>2026-04-12T08:08:46.451Z</time></trkpt><trkpt lat="44.7832583" lon="8.1387083"><ele>136.33333333333334</ele><time>2026-04-12T08:08:47.451Z</time></trkpt><trkpt lat="44.783195" lon="8.1386667"><ele>136.66666666666669</ele><time>2026-04-12T08:08:48.451Z</time></trkpt><trkpt lat="44.78313" lon="8.138625"><ele>137.0</ele><time>2026-04-12T08:08:49.451Z</time></trkpt><trkpt lat="44.7830683" lon="8.1385817"><ele>137.33333333333334</ele><time>2026-04-12T08:08:50.451Z</time></trkpt><trkpt lat="44.78301" lon="8.1385367"><ele>137.66666666666666</ele><time>2026-04-12T08:08:51.451Z</time></trkpt><trkpt lat="44.782895" lon="8.1384583"><ele>138.0</ele><time>2026-04-12T08:08:53.451Z</time></trkpt><trkpt lat="44.7828367" lon="8.1384167"><ele>138.0</ele><time>2026-04-12T08:08:54.451Z</time></trkpt><trkpt lat="44.7827233" lon="8.1383333"><ele>138.0</ele><time>2026-04-12T08:08:56.451Z</time></trkpt><trkpt lat="44.7826083" lon="8.1382583"><ele>138.0</ele><time>2026-04-12T08:08:58.451Z</time></trkpt><trkpt lat="44.7824933" lon="8.1381883"><ele>138.0</ele><time>2026-04-12T08:09:00.451Z</time></trkpt><trkpt lat="44.782435" lon="8.1381533"><ele>138.0</ele><time>2026-04-12T08:09:01.451Z</time></trkpt><trkpt lat="44.782335" lon="8.1380917"><ele>137.66666666666666</ele><time>2026-04-12T08:09:03.451Z</time></trkpt><trkpt lat="44.78223" lon="8.1380167"><ele>137.33333333333334</ele><time>2026-04-12T08:09:05.451Z</time></trkpt><trkpt lat="44.7821717" lon="8.1379783"><ele>137.0</ele><time>2026-04-12T08:09:06.451Z</time></trkpt><trkpt lat="44.782115" lon="8.1379383"><ele>136.66666666666669</ele><time>2026-04-12T08:09:07.451Z</time></trkpt><trkpt lat="44.7820583" lon="8.1378983"><ele>136.33333333333334</ele><time>2026-04-12T08:09:08.451Z</time></trkpt><trkpt lat="44.7819417" lon="8.1378217"><ele>136.0</ele><time>2026-04-12T08:09:10.451Z</time></trkpt><trkpt lat="44.7818833" lon="8.1377817"><ele>136.2</ele><time>2026-04-12T08:09:11.452Z</time></trkpt><trkpt lat="44.78177" lon="8.1377117"><ele>136.39999999999998</ele><time>2026-04-12T08:09:13.451Z</time></trkpt><trkpt lat="44.7816533" lon="8.1376333"><ele>136.6</ele><time>2026-04-12T08:09:15.451Z</time></trkpt><trkpt lat="44.781595" lon="8.1375883"><ele>136.79999999999998</ele><time>2026-04-12T08:09:16.451Z</time></trkpt><trkpt lat="44.7814883" lon="8.1375017"><ele>137.0</ele><time>2026-04-12T08:09:18.451Z</time></trkpt><trkpt lat="44.78143" lon="8.137465"><ele>137.0</ele><time>2026-04-12T08:09:19.451Z</time></trkpt><trkpt lat="44.781365" lon="8.1374267"><ele>137.0</ele><time>2026-04-12T08:09:20.451Z</time></trkpt><trkpt lat="44.78126" lon="8.1373383"><ele>137.0</ele><time>2026-04-12T08:09:22.451Z</time></trkpt><trkpt lat="44.7812067" lon="8.1372833"><ele>137.0</ele><time>2026-04-12T08:09:23.451Z</time></trkpt><trkpt lat="44.7811567" lon="8.137225"><ele>137.0</ele><time>2026-04-12T08:09:24.452Z</time></trkpt><trkpt lat="44.7811117" lon="8.137155"><ele>137.0</ele><time>2026-04-12T08:09:25.452Z</time></trkpt><trkpt lat="44.7810583" lon="8.1369967"><ele>136.71428571428572</ele><time>2026-04-12T08:09:27.451Z</time></trkpt><trkpt lat="44.7810417" lon="8.1369"><ele>136.42857142857144</ele><time>2026-04-12T08:09:28.451Z</time></trkpt><trkpt lat="44.7810267" lon="8.1368083"><ele>136.14285714285714</ele><time>2026-04-12T08:09:29.452Z</time></trkpt><trkpt lat="44.78102" lon="8.1367167"><ele>135.85714285714286</ele><time>2026-04-12T08:09:30.451Z</time></trkpt><trkpt lat="44.7810067" lon="8.1366217"><ele>135.57142857142856</ele><time>2026-04-12T08:09:31.451Z</time></trkpt><trkpt lat="44.7809883" lon="8.1365267"><ele>135.28571428571428</ele><time>2026-04-12T08:09:32.451Z</time></trkpt><trkpt lat="44.78098" lon="8.1364267"><ele>135.0</ele><time>2026-04-12T08:09:33.451Z</time></trkpt><trkpt lat="44.7809683" lon="8.1363367"><ele>135.71428571428572</ele><time>2026-04-12T08:09:34.451Z</time></trkpt><trkpt lat="44.7809583" lon="8.136245"><ele>136.42857142857142</ele><time>2026-04-12T08:09:35.451Z</time></trkpt><trkpt lat="44.7809433" lon="8.1361517"><ele>137.14285714285714</ele><time>2026-04-12T08:09:36.451Z</time></trkpt><trkpt lat="44.7809333" lon="8.136055"><ele>137.85714285714286</ele><time>2026-04-12T08:09:37.451Z</time></trkpt><trkpt lat="44.7809233" lon="8.13596"><ele>138.57142857142856</ele><time>2026-04-12T08:09:38.451Z</time></trkpt><trkpt lat="44.780915" lon="8.1358683"><ele>139.28571428571428</ele><time>2026-04-12T08:09:39.451Z</time></trkpt><trkpt lat="44.7809" lon="8.1357783"><ele>140.0</ele><time>2026-04-12T08:09:40.451Z</time></trkpt><trkpt lat="44.7808867" lon="8.135685"><ele>140.0</ele><time>2026-04-12T08:09:41.451Z</time></trkpt><trkpt lat="44.780875" lon="8.13559"><ele>140.0</ele><time>2026-04-12T08:09:42.451Z</time></trkpt><trkpt lat="44.78086" lon="8.1355"><ele>140.0</ele><time>2026-04-12T08:09:43.451Z</time></trkpt><trkpt lat="44.7808483" lon="8.1354083"><ele>140.0</ele><time>2026-04-12T08:09:44.451Z</time></trkpt><trkpt lat="44.7808383" lon="8.1353117"><ele>140.0</ele><time>2026-04-12T08:09:45.451Z</time></trkpt><trkpt lat="44.7808267" lon="8.1352133"><ele>140.0</ele><time>2026-04-12T08:09:46.451Z</time></trkpt><trkpt lat="44.7808167" lon="8.1351183"><ele>140.0</ele><time>2026-04-12T08:09:47.451Z</time></trkpt><trkpt lat="44.7808083" lon="8.135025"><ele>140.0</ele><time>2026-04-12T08:09:48.451Z</time></trkpt><trkpt lat="44.780795" lon="8.1349317"><ele>140.0</ele><time>2026-04-12T08:09:49.452Z</time></trkpt><trkpt lat="44.7807867" lon="8.1348417"><ele>140.0</ele><time>2026-04-12T08:09:50.451Z</time></trkpt><trkpt lat="44.780775" lon="8.1347533"><ele>140.0</ele><time>2026-04-12T08:09:51.451Z</time></trkpt><trkpt lat="44.7807633" lon="8.134665"><ele>140.0</ele><time>2026-04-12T08:09:52.451Z</time></trkpt><trkpt lat="44.7807517" lon="8.134575"><ele>140.0</ele><time>2026-04-12T08:09:53.451Z</time></trkpt><trkpt lat="44.78074" lon="8.1344817"><ele>140.0</ele><time>2026-04-12T08:09:54.451Z</time></trkpt><trkpt lat="44.780725" lon="8.1343883"><ele>139.83333333333331</ele><time>2026-04-12T08:09:55.451Z</time></trkpt><trkpt lat="44.780715" lon="8.134295"><ele>139.66666666666666</ele><time>2026-04-12T08:09:56.451Z</time></trkpt><trkpt lat="44.7807" lon="8.1341983"><ele>139.5</ele><time>2026-04-12T08:09:57.451Z</time></trkpt><trkpt lat="44.7806833" lon="8.1341033"><ele>139.33333333333334</ele><time>2026-04-12T08:09:58.451Z</time></trkpt><trkpt lat="44.78067" lon="8.13401"><ele>139.16666666666669</ele><time>2026-04-12T08:09:59.451Z</time></trkpt><trkpt lat="44.78066" lon="8.1339217"><ele>139.0</ele><time>2026-04-12T08:10:00.451Z</time></trkpt><trkpt lat="44.780635" lon="8.1337517"><ele>138.71428571428572</ele><time>2026-04-12T08:10:02.451Z</time></trkpt><trkpt lat="44.7806283" lon="8.1336567"><ele>138.42857142857144</ele><time>2026-04-12T08:10:03.451Z</time></trkpt><trkpt lat="44.78062" lon="8.1335633"><ele>138.14285714285717</ele><time>2026-04-12T08:10:04.451Z</time></trkpt><trkpt lat="44.780605" lon="8.1334667"><ele>137.85714285714286</ele><time>2026-04-12T08:10:05.451Z</time></trkpt><trkpt lat="44.7805933" lon="8.13337"><ele>137.57142857142858</ele><time>2026-04-12T08:10:06.451Z</time></trkpt><trkpt lat="44.78058" lon="8.133275"><ele>137.2857142857143</ele><time>2026-04-12T08:10:07.451Z</time></trkpt><trkpt lat="44.7805683" lon="8.1331817"><ele>137.0</ele><time>2026-04-12T08:10:08.451Z</time></trkpt><trkpt lat="44.7805533" lon="8.13309"><ele>136.85714285714286</ele><time>2026-04-12T08:10:09.451Z</time></trkpt><trkpt lat="44.780545" lon="8.132995"><ele>136.71428571428572</ele><time>2026-04-12T08:10:10.451Z</time></trkpt><trkpt lat="44.7805317" lon="8.1329017"><ele>136.57142857142856</ele><time>2026-04-12T08:10:11.452Z</time></trkpt><trkpt lat="44.7805167" lon="8.132805"><ele>136.42857142857144</ele><time>2026-04-12T08:10:12.451Z</time></trkpt><trkpt lat="44.7805033" lon="8.1327067"><ele>136.28571428571428</ele><time>2026-04-12T08:10:13.451Z</time></trkpt><trkpt lat="44.7804883" lon="8.1326083"><ele>136.14285714285714</ele><time>2026-04-12T08:10:14.451Z</time></trkpt><trkpt lat="44.7804767" lon="8.1325133"><ele>136.0</ele><time>2026-04-12T08:10:15.451Z</time></trkpt><trkpt lat="44.780465" lon="8.13242"><ele>136.0</ele><time>2026-04-12T08:10:16.451Z</time></trkpt><trkpt lat="44.780455" lon="8.1323233"><ele>136.0</ele><time>2026-04-12T08:10:17.451Z</time></trkpt><trkpt lat="44.780435" lon="8.13215"><ele>136.0</ele><time>2026-04-12T08:10:19.451Z</time></trkpt><trkpt lat="44.7804217" lon="8.1320583"><ele>136.0</ele><time>2026-04-12T08:10:20.451Z</time></trkpt><trkpt lat="44.7804033" lon="8.1319633"><ele>136.0</ele><time>2026-04-12T08:10:21.451Z</time></trkpt><trkpt lat="44.78039" lon="8.1318667"><ele>136.0</ele><time>2026-04-12T08:10:22.451Z</time></trkpt><trkpt lat="44.7803783" lon="8.1317767"><ele>135.99999999999997</ele><time>2026-04-12T08:10:23.451Z</time></trkpt><trkpt lat="44.7803683" lon="8.131685"><ele>136.0</ele><time>2026-04-12T08:10:24.451Z</time></trkpt><trkpt lat="44.7803567" lon="8.131595"><ele>136.0</ele><time>2026-04-12T08:10:25.451Z</time></trkpt><trkpt lat="44.7803483" lon="8.1314983"><ele>136.0</ele><time>2026-04-12T08:10:26.451Z</time></trkpt><trkpt lat="44.7803383" lon="8.1314067"><ele>136.0</ele><time>2026-04-12T08:10:27.451Z</time></trkpt><trkpt lat="44.78033" lon="8.1313133"><ele>135.99999999999997</ele><time>2026-04-12T08:10:28.451Z</time></trkpt><trkpt lat="44.7803267" lon="8.1312183"><ele>136.0</ele><time>2026-04-12T08:10:29.451Z</time></trkpt><trkpt lat="44.7803317" lon="8.1311217"><ele>136.0</ele><time>2026-04-12T08:10:30.451Z</time></trkpt><trkpt lat="44.78034" lon="8.1310267"><ele>136.0</ele><time>2026-04-12T08:10:31.451Z</time></trkpt><trkpt lat="44.78034" lon="8.13093"><ele>136.0</ele><time>2026-04-12T08:10:32.451Z</time></trkpt><trkpt lat="44.7803433" lon="8.13084"><ele>136.0</ele><time>2026-04-12T08:10:33.451Z</time></trkpt><trkpt lat="44.780355" lon="8.13075"><ele>136.0</ele><time>2026-04-12T08:10:34.451Z</time></trkpt><trkpt lat="44.7803733" lon="8.1305817"><ele>136.0</ele><time>2026-04-12T08:10:36.451Z</time></trkpt><trkpt lat="44.7803883" lon="8.1304283"><ele>136.0</ele><time>2026-04-12T08:10:38.451Z</time></trkpt><trkpt lat="44.7804017" lon="8.1303017"><ele>136.0</ele><time>2026-04-12T08:10:40.451Z</time></trkpt><trkpt lat="44.7804283" lon="8.1302083"><ele>136.0</ele><time>2026-04-12T08:10:42.451Z</time></trkpt><trkpt lat="44.7804683" lon="8.1301333"><ele>136.0</ele><time>2026-04-12T08:10:45.451Z</time></trkpt><trkpt lat="44.7805117" lon="8.1300583"><ele>136.0</ele><time>2026-04-12T08:10:47.451Z</time></trkpt><trkpt lat="44.7805533" lon="8.1299617"><ele>136.0</ele><time>2026-04-12T08:10:49.451Z</time></trkpt><trkpt lat="44.780575" lon="8.12983"><ele>137.0</ele><time>2026-04-12T08:10:51.452Z</time></trkpt><trkpt lat="44.7805483" lon="8.1296867"><ele>138.0</ele><time>2026-04-12T08:10:53.451Z</time></trkpt><trkpt lat="44.7804883" lon="8.1295667"><ele>139.0</ele><time>2026-04-12T08:10:55.451Z</time></trkpt><trkpt lat="44.78041" lon="8.1294617"><ele>140.0</ele><time>2026-04-12T08:10:57.451Z</time></trkpt><trkpt lat="44.7803283" lon="8.1293733"><ele>141.0</ele><time>2026-04-12T08:10:59.451Z</time></trkpt><trkpt lat="44.78024" lon="8.1292817"><ele>140.8</ele><time>2026-04-12T08:11:01.451Z</time></trkpt><trkpt lat="44.7801367" lon="8.129195"><ele>140.6</ele><time>2026-04-12T08:11:03.451Z</time></trkpt><trkpt lat="44.7800783" lon="8.129155"><ele>140.4</ele><time>2026-04-12T08:11:04.451Z</time></trkpt><trkpt lat="44.7799617" lon="8.1291017"><ele>140.2</ele><time>2026-04-12T08:11:06.451Z</time></trkpt><trkpt lat="44.7798417" lon="8.1290567"><ele>140.0</ele><time>2026-04-12T08:11:08.451Z</time></trkpt><trkpt lat="44.7797267" lon="8.1290033"><ele>140.0</ele><time>2026-04-12T08:11:10.451Z</time></trkpt><trkpt lat="44.7796667" lon="8.1289717"><ele>140.0</ele><time>2026-04-12T08:11:11.451Z</time></trkpt><trkpt lat="44.779555" lon="8.1289"><ele>140.0</ele><time>2026-04-12T08:11:13.451Z</time></trkpt><trkpt lat="44.7794933" lon="8.12887"><ele>140.0</ele><time>2026-04-12T08:11:14.451Z</time></trkpt><trkpt lat="44.77938" lon="8.1288167"><ele>140.0</ele><time>2026-04-12T08:11:16.451Z</time></trkpt><trkpt lat="44.779265" lon="8.12876"><ele>139.66666666666666</ele><time>2026-04-12T08:11:18.451Z</time></trkpt><trkpt lat="44.7792067" lon="8.128725"><ele>139.33333333333331</ele><time>2026-04-12T08:11:19.451Z</time></trkpt><trkpt lat="44.7790833" lon="8.1286667"><ele>139.0</ele><time>2026-04-12T08:11:21.451Z</time></trkpt><trkpt lat="44.7790217" lon="8.12863"><ele>138.66666666666666</ele><time>2026-04-12T08:11:22.451Z</time></trkpt><trkpt lat="44.7789583" lon="8.1285933"><ele>138.33333333333334</ele><time>2026-04-12T08:11:23.451Z</time></trkpt><trkpt lat="44.778895" lon="8.12856"><ele>138.0</ele><time>2026-04-12T08:11:24.451Z</time></trkpt><trkpt lat="44.7787867" lon="8.1284983"><ele>138.0</ele><time>2026-04-12T08:11:26.451Z</time></trkpt><trkpt lat="44.7786783" lon="8.1284417"><ele>138.0</ele><time>2026-04-12T08:11:28.451Z</time></trkpt><trkpt lat="44.7785817" lon="8.1283633"><ele>138.0</ele><time>2026-04-12T08:11:30.451Z</time></trkpt><trkpt lat="44.7785267" lon="8.12832"><ele>138.0</ele><time>2026-04-12T08:11:31.451Z</time></trkpt><trkpt lat="44.7784617" lon="8.1282833"><ele>138.0</ele><time>2026-04-12T08:11:32.451Z</time></trkpt><trkpt lat="44.778395" lon="8.1282533"><ele>138.0</ele><time>2026-04-12T08:11:33.451Z</time></trkpt><trkpt lat="44.7783317" lon="8.128225"><ele>138.20000000000002</ele><time>2026-04-12T08:11:34.451Z</time></trkpt><trkpt lat="44.7782717" lon="8.1281967"><ele>138.4</ele><time>2026-04-12T08:11:35.451Z</time></trkpt><trkpt lat="44.7781567" lon="8.1281533"><ele>138.60000000000002</ele><time>2026-04-12T08:11:37.451Z</time></trkpt><trkpt lat="44.77805" lon="8.128125"><ele>138.8</ele><time>2026-04-12T08:11:39.451Z</time></trkpt><trkpt lat="44.7779433" lon="8.1280983"><ele>139.0</ele><time>2026-04-12T08:11:41.451Z</time></trkpt><trkpt lat="44.7778467" lon="8.128065"><ele>139.0</ele><time>2026-04-12T08:11:43.451Z</time></trkpt><trkpt lat="44.777735" lon="8.1280467"><ele>139.0</ele><time>2026-04-12T08:11:45.451Z</time></trkpt><trkpt lat="44.7776417" lon="8.1280383"><ele>139.0</ele><time>2026-04-12T08:11:47.452Z</time></trkpt><trkpt lat="44.777545" lon="8.1280383"><ele>139.0</ele><time>2026-04-12T08:11:49.451Z</time></trkpt><trkpt lat="44.7774283" lon="8.1280667"><ele>139.0</ele><time>2026-04-12T08:11:51.451Z</time></trkpt><trkpt lat="44.7773183" lon="8.1280633"><ele>139.0</ele><time>2026-04-12T08:11:53.451Z</time></trkpt><trkpt lat="44.7772033" lon="8.1280883"><ele>139.0</ele><time>2026-04-12T08:11:55.451Z</time></trkpt><trkpt lat="44.7770933" lon="8.128115"><ele>139.0</ele><time>2026-04-12T08:11:57.451Z</time></trkpt><trkpt lat="44.777" lon="8.12814"><ele>139.0</ele><time>2026-04-12T08:11:59.451Z</time></trkpt><trkpt lat="44.7769067" lon="8.1281567"><ele>139.0</ele><time>2026-04-12T08:12:01.451Z</time></trkpt><trkpt lat="44.7767983" lon="8.1281933"><ele>139.0</ele><time>2026-04-12T08:12:03.451Z</time></trkpt><trkpt lat="44.7766917" lon="8.12823"><ele>139.0</ele><time>2026-04-12T08:12:05.451Z</time></trkpt><trkpt lat="44.7765817" lon="8.1282633"><ele>139.0</ele><time>2026-04-12T08:12:07.451Z</time></trkpt><trkpt lat="44.7764717" lon="8.12826"><ele>139.0</ele><time>2026-04-12T08:12:09.452Z</time></trkpt><trkpt lat="44.7763667" lon="8.1282333"><ele>139.0</ele><time>2026-04-12T08:12:11.451Z</time></trkpt><trkpt lat="44.77626" lon="8.12819"><ele>139.0</ele><time>2026-04-12T08:12:13.451Z</time></trkpt><trkpt lat="44.7761517" lon="8.1281267"><ele>139.0</ele><time>2026-04-12T08:12:15.451Z</time></trkpt><trkpt lat="44.7760433" lon="8.1280483"><ele>139.0</ele><time>2026-04-12T08:12:17.451Z</time></trkpt><trkpt lat="44.7759433" lon="8.127955"><ele>139.0</ele><time>2026-04-12T08:12:19.451Z</time></trkpt><trkpt lat="44.7758883" lon="8.1279083"><ele>139.0</ele><time>2026-04-12T08:12:20.451Z</time></trkpt><trkpt lat="44.775835" lon="8.1278567"><ele>138.83333333333334</ele><time>2026-04-12T08:12:21.451Z</time></trkpt><trkpt lat="44.77578" lon="8.1278083"><ele>138.66666666666669</ele><time>2026-04-12T08:12:22.451Z</time></trkpt><trkpt lat="44.7757283" lon="8.1277567"><ele>138.5</ele><time>2026-04-12T08:12:23.451Z</time></trkpt><trkpt lat="44.7756317" lon="8.12766"><ele>138.33333333333334</ele><time>2026-04-12T08:12:25.451Z</time></trkpt><trkpt lat="44.7755367" lon="8.12757"><ele>138.16666666666666</ele><time>2026-04-12T08:12:27.451Z</time></trkpt><trkpt lat="44.77548" lon="8.1275183"><ele>138.0</ele><time>2026-04-12T08:12:28.451Z</time></trkpt><trkpt lat="44.7754133" lon="8.127465"><ele>138.0</ele><time>2026-04-12T08:12:29.451Z</time></trkpt><trkpt lat="44.77536" lon="8.1274133"><ele>138.0</ele><time>2026-04-12T08:12:30.451Z</time></trkpt><trkpt lat="44.7752567" lon="8.1273167"><ele>138.0</ele><time>2026-04-12T08:12:32.451Z</time></trkpt><trkpt lat="44.775155" lon="8.127215"><ele>138.0</ele><time>2026-04-12T08:12:34.451Z</time></trkpt><trkpt lat="44.7750517" lon="8.1271183"><ele>138.0</ele><time>2026-04-12T08:12:36.451Z</time></trkpt><trkpt lat="44.775" lon="8.1270667"><ele>138.0</ele><time>2026-04-12T08:12:37.451Z</time></trkpt><trkpt lat="44.7749033" lon="8.12697"><ele>138.0</ele><time>2026-04-12T08:12:39.451Z</time></trkpt><trkpt lat="44.7748033" lon="8.12687"><ele>138.0</ele><time>2026-04-12T08:12:41.451Z</time></trkpt><trkpt lat="44.774745" lon="8.12682"><ele>138.0</ele><time>2026-04-12T08:12:42.451Z</time></trkpt><trkpt lat="44.77469" lon="8.126765"><ele>138.0</ele><time>2026-04-12T08:12:43.451Z</time></trkpt><trkpt lat="44.7746367" lon="8.1267167"><ele>138.0</ele><time>2026-04-12T08:12:44.451Z</time></trkpt><trkpt lat="44.7745817" lon="8.126665"><ele>138.0</ele><time>2026-04-12T08:12:45.451Z</time></trkpt><trkpt lat="44.7745267" lon="8.1266183"><ele>138.0</ele><time>2026-04-12T08:12:46.451Z</time></trkpt><trkpt lat="44.7744217" lon="8.1265217"><ele>138.0</ele><time>2026-04-12T08:12:48.451Z</time></trkpt><trkpt lat="44.77437" lon="8.1264667"><ele>138.0</ele><time>2026-04-12T08:12:49.451Z</time></trkpt><trkpt lat="44.7742683" lon="8.1263667"><ele>138.0</ele><time>2026-04-12T08:12:51.451Z</time></trkpt><trkpt lat="44.7741633" lon="8.126265"><ele>137.66666666666666</ele><time>2026-04-12T08:12:53.451Z</time></trkpt><trkpt lat="44.774105" lon="8.1262117"><ele>137.33333333333334</ele><time>2026-04-12T08:12:54.451Z</time></trkpt><trkpt lat="44.774045" lon="8.1261617"><ele>137.0</ele><time>2026-04-12T08:12:55.451Z</time></trkpt><trkpt lat="44.7739867" lon="8.1261083"><ele>136.66666666666669</ele><time>2026-04-12T08:12:56.451Z</time></trkpt><trkpt lat="44.7739317" lon="8.1260583"><ele>136.33333333333334</ele><time>2026-04-12T08:12:57.451Z</time></trkpt><trkpt lat="44.77384" lon="8.125965"><ele>136.0</ele><time>2026-04-12T08:12:59.451Z</time></trkpt><trkpt lat="44.7737617" lon="8.1258783"><ele>136.0</ele><time>2026-04-12T08:13:01.451Z</time></trkpt><trkpt lat="44.7737083" lon="8.1257883"><ele>136.0</ele><time>2026-04-12T08:13:03.451Z</time></trkpt><trkpt lat="44.7736667" lon="8.1256567"><ele>136.0</ele><time>2026-04-12T08:13:05.451Z</time></trkpt><trkpt lat="44.7735867" lon="8.1255067"><ele>136.0</ele><time>2026-04-12T08:13:07.451Z</time></trkpt><trkpt lat="44.77354" lon="8.1254317"><ele>136.0</ele><time>2026-04-12T08:13:08.451Z</time></trkpt><trkpt lat="44.7734967" lon="8.1253567"><ele>136.2</ele><time>2026-04-12T08:13:09.451Z</time></trkpt><trkpt lat="44.7734517" lon="8.1252833"><ele>136.39999999999998</ele><time>2026-04-12T08:13:10.451Z</time></trkpt><trkpt lat="44.77337" lon="8.12516"><ele>136.6</ele><time>2026-04-12T08:13:12.451Z</time></trkpt><trkpt lat="44.77329" lon="8.1250467"><ele>136.79999999999998</ele><time>2026-04-12T08:13:14.451Z</time></trkpt><trkpt lat="44.7732133" lon="8.12494"><ele>137.0</ele><time>2026-04-12T08:13:16.451Z</time></trkpt><trkpt lat="44.77315" lon="8.1248383"><ele>137.0</ele><time>2026-04-12T08:13:18.451Z</time></trkpt><trkpt lat="44.7730733" lon="8.1247417"><ele>137.0</ele><time>2026-04-12T08:13:20.451Z</time></trkpt><trkpt lat="44.7729967" lon="8.1246433"><ele>137.0</ele><time>2026-04-12T08:13:22.451Z</time></trkpt><trkpt lat="44.7729283" lon="8.1245383"><ele>137.0</ele><time>2026-04-12T08:13:24.451Z</time></trkpt><trkpt lat="44.7728533" lon="8.1244283"><ele>137.0</ele><time>2026-04-12T08:13:26.451Z</time></trkpt><trkpt lat="44.7727717" lon="8.12434"><ele>137.2</ele><time>2026-04-12T08:13:28.451Z</time></trkpt><trkpt lat="44.77268" lon="8.1242333"><ele>137.39999999999998</ele><time>2026-04-12T08:13:30.451Z</time></trkpt><trkpt lat="44.7725817" lon="8.1241333"><ele>137.60000000000002</ele><time>2026-04-12T08:13:32.451Z</time></trkpt><trkpt lat="44.7725283" lon="8.1240783"><ele>137.8</ele><time>2026-04-12T08:13:33.451Z</time></trkpt><trkpt lat="44.772435" lon="8.1239967"><ele>138.0</ele><time>2026-04-12T08:13:35.451Z</time></trkpt><trkpt lat="44.77233" lon="8.1239283"><ele>138.16666666666666</ele><time>2026-04-12T08:13:37.451Z</time></trkpt><trkpt lat="44.7722333" lon="8.123835"><ele>138.33333333333334</ele><time>2026-04-12T08:13:39.451Z</time></trkpt><trkpt lat="44.7721433" lon="8.1237317"><ele>138.5</ele><time>2026-04-12T08:13:41.451Z</time></trkpt><trkpt lat="44.772095" lon="8.1236667"><ele>138.66666666666669</ele><time>2026-04-12T08:13:42.451Z</time></trkpt><trkpt lat="44.7720433" lon="8.123615"><ele>138.83333333333334</ele><time>2026-04-12T08:13:43.451Z</time></trkpt><trkpt lat="44.77199" lon="8.12356"><ele>139.0</ele><time>2026-04-12T08:13:44.451Z</time></trkpt><trkpt lat="44.77193" lon="8.12351"><ele>139.0</ele><time>2026-04-12T08:13:45.451Z</time></trkpt><trkpt lat="44.7718667" lon="8.1234567"><ele>139.0</ele><time>2026-04-12T08:13:46.451Z</time></trkpt><trkpt lat="44.7718033" lon="8.1233983"><ele>139.0</ele><time>2026-04-12T08:13:47.451Z</time></trkpt><trkpt lat="44.7717417" lon="8.123335"><ele>139.0</ele><time>2026-04-12T08:13:48.451Z</time></trkpt><trkpt lat="44.7716783" lon="8.12327"><ele>139.0</ele><time>2026-04-12T08:13:49.451Z</time></trkpt><trkpt lat="44.77162" lon="8.1231983"><ele>139.0</ele><time>2026-04-12T08:13:50.451Z</time></trkpt><trkpt lat="44.7715667" lon="8.1231283"><ele>139.33333333333334</ele><time>2026-04-12T08:13:51.451Z</time></trkpt><trkpt lat="44.771505" lon="8.1230567"><ele>139.66666666666669</ele><time>2026-04-12T08:13:52.451Z</time></trkpt><trkpt lat="44.771445" lon="8.1229883"><ele>140.0</ele><time>2026-04-12T08:13:53.451Z</time></trkpt><trkpt lat="44.77139" lon="8.1229133"><ele>140.33333333333334</ele><time>2026-04-12T08:13:54.451Z</time></trkpt><trkpt lat="44.7713317" lon="8.1228417"><ele>140.66666666666666</ele><time>2026-04-12T08:13:55.451Z</time></trkpt><trkpt lat="44.771275" lon="8.122765"><ele>141.0</ele><time>2026-04-12T08:13:56.451Z</time></trkpt><trkpt lat="44.7712167" lon="8.1226917"><ele>141.0</ele><time>2026-04-12T08:13:57.451Z</time></trkpt><trkpt lat="44.7711583" lon="8.12262"><ele>141.0</ele><time>2026-04-12T08:13:58.451Z</time></trkpt><trkpt lat="44.7710967" lon="8.1225533"><ele>141.0</ele><time>2026-04-12T08:13:59.451Z</time></trkpt><trkpt lat="44.7710383" lon="8.12249"><ele>141.0</ele><time>2026-04-12T08:14:00.451Z</time></trkpt><trkpt lat="44.7709783" lon="8.1224267"><ele>141.0</ele><time>2026-04-12T08:14:01.451Z</time></trkpt><trkpt lat="44.77092" lon="8.1223567"><ele>141.0</ele><time>2026-04-12T08:14:02.451Z</time></trkpt><trkpt lat="44.7708617" lon="8.1222933"><ele>140.66666666666666</ele><time>2026-04-12T08:14:03.451Z</time></trkpt><trkpt lat="44.770795" lon="8.122225"><ele>140.33333333333334</ele><time>2026-04-12T08:14:04.451Z</time></trkpt><trkpt lat="44.77073" lon="8.1221517"><ele>140.0</ele><time>2026-04-12T08:14:05.451Z</time></trkpt><trkpt lat="44.7706667" lon="8.1220767"><ele>139.66666666666669</ele><time>2026-04-12T08:14:06.451Z</time></trkpt><trkpt lat="44.7706033" lon="8.1220083"><ele>139.33333333333334</ele><time>2026-04-12T08:14:07.451Z</time></trkpt><trkpt lat="44.7705433" lon="8.1219383"><ele>139.0</ele><time>2026-04-12T08:14:08.451Z</time></trkpt><trkpt lat="44.7704867" lon="8.12187"><ele>139.0</ele><time>2026-04-12T08:14:09.451Z</time></trkpt><trkpt lat="44.7704267" lon="8.121805"><ele>139.0</ele><time>2026-04-12T08:14:10.451Z</time></trkpt><trkpt lat="44.770365" lon="8.121735"><ele>139.0</ele><time>2026-04-12T08:14:11.451Z</time></trkpt><trkpt lat="44.7703067" lon="8.121665"><ele>139.0</ele><time>2026-04-12T08:14:12.451Z</time></trkpt><trkpt lat="44.7702517" lon="8.121595"><ele>139.0</ele><time>2026-04-12T08:14:13.451Z</time></trkpt><trkpt lat="44.7702067" lon="8.1215317"><ele>139.0</ele><time>2026-04-12T08:14:14.451Z</time></trkpt><trkpt lat="44.770155" lon="8.121475"><ele>139.0</ele><time>2026-04-12T08:14:15.452Z</time></trkpt><trkpt lat="44.7700983" lon="8.1214133"><ele>139.14285714285714</ele><time>2026-04-12T08:14:16.451Z</time></trkpt><trkpt lat="44.7700417" lon="8.121355"><ele>139.28571428571428</ele><time>2026-04-12T08:14:17.451Z</time></trkpt><trkpt lat="44.769985" lon="8.1212967"><ele>139.42857142857144</ele><time>2026-04-12T08:14:18.451Z</time></trkpt><trkpt lat="44.76993" lon="8.1212417"><ele>139.57142857142856</ele><time>2026-04-12T08:14:19.451Z</time></trkpt><trkpt lat="44.769875" lon="8.1211783"><ele>139.71428571428572</ele><time>2026-04-12T08:14:20.451Z</time></trkpt><trkpt lat="44.7698183" lon="8.1211167"><ele>139.85714285714286</ele><time>2026-04-12T08:14:21.451Z</time></trkpt><trkpt lat="44.769765" lon="8.12106"><ele>140.0</ele><time>2026-04-12T08:14:22.451Z</time></trkpt><trkpt lat="44.7697083" lon="8.1209967"><ele>140.0</ele><time>2026-04-12T08:14:23.451Z</time></trkpt><trkpt lat="44.76965" lon="8.12094"><ele>140.0</ele><time>2026-04-12T08:14:24.452Z</time></trkpt><trkpt lat="44.76959" lon="8.1208867"><ele>140.0</ele><time>2026-04-12T08:14:25.451Z</time></trkpt><trkpt lat="44.769525" lon="8.12083"><ele>140.0</ele><time>2026-04-12T08:14:26.452Z</time></trkpt><trkpt lat="44.769475" lon="8.12077"><ele>140.0</ele><time>2026-04-12T08:14:27.451Z</time></trkpt><trkpt lat="44.7694233" lon="8.1207117"><ele>140.0</ele><time>2026-04-12T08:14:28.452Z</time></trkpt><trkpt lat="44.769365" lon="8.1206517"><ele>140.0</ele><time>2026-04-12T08:14:29.451Z</time></trkpt><trkpt lat="44.7693167" lon="8.1205933"><ele>140.0</ele><time>2026-04-12T08:14:30.451Z</time></trkpt><trkpt lat="44.769265" lon="8.12053"><ele>140.0</ele><time>2026-04-12T08:14:31.451Z</time></trkpt><trkpt lat="44.7692133" lon="8.1204717"><ele>140.0</ele><time>2026-04-12T08:14:32.451Z</time></trkpt><trkpt lat="44.7691633" lon="8.1204133"><ele>140.0</ele><time>2026-04-12T08:14:33.451Z</time></trkpt><trkpt lat="44.7690717" lon="8.1203067"><ele>140.0</ele><time>2026-04-12T08:14:35.451Z</time></trkpt><trkpt lat="44.7689783" lon="8.120205"><ele>140.0</ele><time>2026-04-12T08:14:37.451Z</time></trkpt><trkpt lat="44.7688817" lon="8.1201"><ele>140.0</ele><time>2026-04-12T08:14:39.451Z</time></trkpt><trkpt lat="44.768795" lon="8.11999"><ele>140.0</ele><time>2026-04-12T08:14:41.451Z</time></trkpt><trkpt lat="44.7686983" lon="8.119875"><ele>140.0</ele><time>2026-04-12T08:14:43.452Z</time></trkpt><trkpt lat="44.7686467" lon="8.119815"><ele>140.0</ele><time>2026-04-12T08:14:44.451Z</time></trkpt><trkpt lat="44.768595" lon="8.1197633"><ele>140.0</ele><time>2026-04-12T08:14:45.452Z</time></trkpt><trkpt lat="44.7685417" lon="8.1197067"><ele>140.0</ele><time>2026-04-12T08:14:46.451Z</time></trkpt><trkpt lat="44.7684867" lon="8.119645"><ele>140.0</ele><time>2026-04-12T08:14:47.451Z</time></trkpt><trkpt lat="44.7684333" lon="8.1195783"><ele>140.0</ele><time>2026-04-12T08:14:48.451Z</time></trkpt><trkpt lat="44.7683833" lon="8.1195167"><ele>140.0</ele><time>2026-04-12T08:14:49.451Z</time></trkpt><trkpt lat="44.7683367" lon="8.1194567"><ele>140.0</ele><time>2026-04-12T08:14:50.451Z</time></trkpt><trkpt lat="44.768235" lon="8.1193517"><ele>140.0</ele><time>2026-04-12T08:14:52.451Z</time></trkpt><trkpt lat="44.7681817" lon="8.1193017"><ele>140.0</ele><time>2026-04-12T08:14:53.451Z</time></trkpt><trkpt lat="44.7681283" lon="8.1192467"><ele>140.0</ele><time>2026-04-12T08:14:54.451Z</time></trkpt><trkpt lat="44.7680767" lon="8.1191933"><ele>140.0</ele><time>2026-04-12T08:14:55.451Z</time></trkpt><trkpt lat="44.7679783" lon="8.1190933"><ele>140.0</ele><time>2026-04-12T08:14:57.451Z</time></trkpt><trkpt lat="44.7678983" lon="8.11899"><ele>140.0</ele><time>2026-04-12T08:14:59.451Z</time></trkpt><trkpt lat="44.767815" lon="8.1188783"><ele>140.0</ele><time>2026-04-12T08:15:01.451Z</time></trkpt><trkpt lat="44.76771" lon="8.1188267"><ele>140.0</ele><time>2026-04-12T08:15:03.451Z</time></trkpt><trkpt lat="44.7675817" lon="8.1188117"><ele>140.0</ele><time>2026-04-12T08:15:05.451Z</time></trkpt><trkpt lat="44.7675167" lon="8.1188017"><ele>140.0</ele><time>2026-04-12T08:15:06.451Z</time></trkpt><trkpt lat="44.76745" lon="8.118785"><ele>140.0</ele><time>2026-04-12T08:15:07.451Z</time></trkpt><trkpt lat="44.7673817" lon="8.118775"><ele>140.0</ele><time>2026-04-12T08:15:08.451Z</time></trkpt><trkpt lat="44.7673133" lon="8.11875"><ele>140.0</ele><time>2026-04-12T08:15:09.451Z</time></trkpt><trkpt lat="44.7672467" lon="8.1187317"><ele>140.0</ele><time>2026-04-12T08:15:10.451Z</time></trkpt><trkpt lat="44.76718" lon="8.1187217"><ele>140.0</ele><time>2026-04-12T08:15:11.451Z</time></trkpt><trkpt lat="44.767115" lon="8.118705"><ele>140.0</ele><time>2026-04-12T08:15:12.451Z</time></trkpt><trkpt lat="44.7670483" lon="8.118685"><ele>140.0</ele><time>2026-04-12T08:15:13.451Z</time></trkpt><trkpt lat="44.76698" lon="8.1186683"><ele>140.0</ele><time>2026-04-12T08:15:14.452Z</time></trkpt><trkpt lat="44.7668633" lon="8.1186267"><ele>140.0</ele><time>2026-04-12T08:15:16.451Z</time></trkpt><trkpt lat="44.7667383" lon="8.1185933"><ele>140.2</ele><time>2026-04-12T08:15:18.451Z</time></trkpt><trkpt lat="44.7666717" lon="8.1185867"><ele>140.4</ele><time>2026-04-12T08:15:19.451Z</time></trkpt><trkpt lat="44.766555" lon="8.11856"><ele>140.6</ele><time>2026-04-12T08:15:21.451Z</time></trkpt><trkpt lat="44.7664467" lon="8.1185317"><ele>140.8</ele><time>2026-04-12T08:15:23.451Z</time></trkpt><trkpt lat="44.7663533" lon="8.1185033"><ele>141.0</ele><time>2026-04-12T08:15:25.451Z</time></trkpt><trkpt lat="44.7662567" lon="8.1184767"><ele>141.0</ele><time>2026-04-12T08:15:27.451Z</time></trkpt><trkpt lat="44.7661567" lon="8.118445"><ele>141.0</ele><time>2026-04-12T08:15:29.451Z</time></trkpt><trkpt lat="44.766055" lon="8.1184333"><ele>141.0</ele><time>2026-04-12T08:15:31.451Z</time></trkpt><trkpt lat="44.76594" lon="8.118435"><ele>141.0</ele><time>2026-04-12T08:15:33.451Z</time></trkpt><trkpt lat="44.76584" lon="8.11844"><ele>141.0</ele><time>2026-04-12T08:15:35.451Z</time></trkpt><trkpt lat="44.76573" lon="8.1184167"><ele>141.0</ele><time>2026-04-12T08:15:37.451Z</time></trkpt><trkpt lat="44.7656167" lon="8.1183517"><ele>141.0</ele><time>2026-04-12T08:15:39.451Z</time></trkpt><trkpt lat="44.765515" lon="8.1182733"><ele>141.0</ele><time>2026-04-12T08:15:41.451Z</time></trkpt><trkpt lat="44.765415" lon="8.1181967"><ele>141.0</ele><time>2026-04-12T08:15:43.452Z</time></trkpt><trkpt lat="44.7653333" lon="8.1181083"><ele>140.8</ele><time>2026-04-12T08:15:45.451Z</time></trkpt><trkpt lat="44.76525" lon="8.1180083"><ele>140.6</ele><time>2026-04-12T08:15:47.451Z</time></trkpt><trkpt lat="44.7651433" lon="8.11791"><ele>140.4</ele><time>2026-04-12T08:15:49.451Z</time></trkpt><trkpt lat="44.7650417" lon="8.1178233"><ele>140.2</ele><time>2026-04-12T08:15:51.451Z</time></trkpt><trkpt lat="44.7649867" lon="8.117765"><ele>140.0</ele><time>2026-04-12T08:15:52.451Z</time></trkpt><trkpt lat="44.7649267" lon="8.1177133"><ele>140.0</ele><time>2026-04-12T08:15:53.451Z</time></trkpt><trkpt lat="44.7648133" lon="8.1176383"><ele>140.0</ele><time>2026-04-12T08:15:55.451Z</time></trkpt><trkpt lat="44.7647133" lon="8.1175633"><ele>140.0</ele><time>2026-04-12T08:15:57.451Z</time></trkpt><trkpt lat="44.7646033" lon="8.1174917"><ele>140.0</ele><time>2026-04-12T08:15:59.451Z</time></trkpt><trkpt lat="44.764495" lon="8.1174217"><ele>140.16666666666666</ele><time>2026-04-12T08:16:01.451Z</time></trkpt><trkpt lat="44.7643767" lon="8.1173633"><ele>140.33333333333331</ele><time>2026-04-12T08:16:03.451Z</time></trkpt><trkpt lat="44.7643133" lon="8.1173283"><ele>140.5</ele><time>2026-04-12T08:16:04.451Z</time></trkpt><trkpt lat="44.76425" lon="8.117295"><ele>140.66666666666666</ele><time>2026-04-12T08:16:05.451Z</time></trkpt><trkpt lat="44.764185" lon="8.1172567"><ele>140.83333333333334</ele><time>2026-04-12T08:16:06.451Z</time></trkpt><trkpt lat="44.7641183" lon="8.1172133"><ele>141.0</ele><time>2026-04-12T08:16:07.451Z</time></trkpt><trkpt lat="44.7640633" lon="8.1171633"><ele>141.0</ele><time>2026-04-12T08:16:08.451Z</time></trkpt><trkpt lat="44.7640067" lon="8.1169917"><ele>141.0</ele><time>2026-04-12T08:16:10.451Z</time></trkpt><trkpt lat="44.7639983" lon="8.11689"><ele>141.0</ele><time>2026-04-12T08:16:11.451Z</time></trkpt><trkpt lat="44.7639933" lon="8.1167917"><ele>141.0</ele><time>2026-04-12T08:16:12.451Z</time></trkpt><trkpt lat="44.764" lon="8.1166867"><ele>141.0</ele><time>2026-04-12T08:16:13.451Z</time></trkpt><trkpt lat="44.764005" lon="8.1165833"><ele>141.0</ele><time>2026-04-12T08:16:14.451Z</time></trkpt><trkpt lat="44.7640083" lon="8.1164883"><ele>141.0</ele><time>2026-04-12T08:16:15.451Z</time></trkpt><trkpt lat="44.7639983" lon="8.1163933"><ele>141.0</ele><time>2026-04-12T08:16:16.451Z</time></trkpt><trkpt lat="44.7639883" lon="8.116295"><ele>141.0</ele><time>2026-04-12T08:16:17.451Z</time></trkpt><trkpt lat="44.7639833" lon="8.1162"><ele>141.0</ele><time>2026-04-12T08:16:18.451Z</time></trkpt><trkpt lat="44.7639767" lon="8.11611"><ele>141.0</ele><time>2026-04-12T08:16:19.451Z</time></trkpt><trkpt lat="44.7639717" lon="8.1160183"><ele>141.0</ele><time>2026-04-12T08:16:20.451Z</time></trkpt><trkpt lat="44.76397" lon="8.1159233"><ele>141.0</ele><time>2026-04-12T08:16:21.451Z</time></trkpt><trkpt lat="44.76397" lon="8.11583"><ele>140.83333333333334</ele><time>2026-04-12T08:16:22.451Z</time></trkpt><trkpt lat="44.7639667" lon="8.1157333"><ele>140.66666666666666</ele><time>2026-04-12T08:16:23.451Z</time></trkpt><trkpt lat="44.763965" lon="8.1156383"><ele>140.5</ele><time>2026-04-12T08:16:24.451Z</time></trkpt><trkpt lat="44.7639633" lon="8.11554"><ele>140.33333333333331</ele><time>2026-04-12T08:16:25.451Z</time></trkpt><trkpt lat="44.7639583" lon="8.1154467"><ele>140.16666666666666</ele><time>2026-04-12T08:16:26.451Z</time></trkpt><trkpt lat="44.7639533" lon="8.1153517"><ele>140.0</ele><time>2026-04-12T08:16:27.451Z</time></trkpt><trkpt lat="44.7639567" lon="8.1151683"><ele>140.0</ele><time>2026-04-12T08:16:29.451Z</time></trkpt><trkpt lat="44.7639583" lon="8.1150683"><ele>140.0</ele><time>2026-04-12T08:16:30.451Z</time></trkpt><trkpt lat="44.763945" lon="8.1149717"><ele>140.0</ele><time>2026-04-12T08:16:31.451Z</time></trkpt><trkpt lat="44.7639233" lon="8.114885"><ele>140.0</ele><time>2026-04-12T08:16:32.451Z</time></trkpt><trkpt lat="44.76388" lon="8.1148117"><ele>140.0</ele><time>2026-04-12T08:16:33.451Z</time></trkpt><trkpt lat="44.7638267" lon="8.11476"><ele>140.0</ele><time>2026-04-12T08:16:34.451Z</time></trkpt><trkpt lat="44.7637683" lon="8.11472"><ele>140.0</ele><time>2026-04-12T08:16:35.451Z</time></trkpt><trkpt lat="44.76371" lon="8.1146817"><ele>140.16666666666666</ele><time>2026-04-12T08:16:36.451Z</time></trkpt><trkpt lat="44.76364" lon="8.1146483"><ele>140.33333333333331</ele><time>2026-04-12T08:16:37.451Z</time></trkpt><trkpt lat="44.7635733" lon="8.1146067"><ele>140.5</ele><time>2026-04-12T08:16:38.451Z</time></trkpt><trkpt lat="44.763515" lon="8.1145617"><ele>140.66666666666666</ele><time>2026-04-12T08:16:39.451Z</time></trkpt><trkpt lat="44.7634533" lon="8.1145133"><ele>140.83333333333334</ele><time>2026-04-12T08:16:40.452Z</time></trkpt><trkpt lat="44.7633917" lon="8.1144717"><ele>141.0</ele><time>2026-04-12T08:16:41.451Z</time></trkpt><trkpt lat="44.7632917" lon="8.11438"><ele>141.0</ele><time>2026-04-12T08:16:43.451Z</time></trkpt><trkpt lat="44.7631817" lon="8.1143083"><ele>141.0</ele><time>2026-04-12T08:16:45.451Z</time></trkpt><trkpt lat="44.7631233" lon="8.114265"><ele>141.0</ele><time>2026-04-12T08:16:46.451Z</time></trkpt><trkpt lat="44.7630617" lon="8.1142217"><ele>141.0</ele><time>2026-04-12T08:16:47.451Z</time></trkpt><trkpt lat="44.7629967" lon="8.1141817"><ele>141.0</ele><time>2026-04-12T08:16:48.451Z</time></trkpt><trkpt lat="44.7629383" lon="8.11414"><ele>141.0</ele><time>2026-04-12T08:16:49.451Z</time></trkpt><trkpt lat="44.7628767" lon="8.1141017"><ele>141.14285714285714</ele><time>2026-04-12T08:16:50.451Z</time></trkpt><trkpt lat="44.7628117" lon="8.1140683"><ele>141.28571428571428</ele><time>2026-04-12T08:16:51.451Z</time></trkpt><trkpt lat="44.7627483" lon="8.1140283"><ele>141.42857142857142</ele><time>2026-04-12T08:16:52.451Z</time></trkpt><trkpt lat="44.7626883" lon="8.1139933"><ele>141.57142857142856</ele><time>2026-04-12T08:16:53.452Z</time></trkpt><trkpt lat="44.7626267" lon="8.11396"><ele>141.7142857142857</ele><time>2026-04-12T08:16:54.451Z</time></trkpt><trkpt lat="44.7625667" lon="8.11392"><ele>141.85714285714286</ele><time>2026-04-12T08:16:55.452Z</time></trkpt><trkpt lat="44.762505" lon="8.1138733"><ele>142.0</ele><time>2026-04-12T08:16:56.451Z</time></trkpt><trkpt lat="44.7624417" lon="8.1138283"><ele>142.14285714285714</ele><time>2026-04-12T08:16:57.451Z</time></trkpt><trkpt lat="44.76238" lon="8.113785"><ele>142.28571428571428</ele><time>2026-04-12T08:16:58.451Z</time></trkpt><trkpt lat="44.7623183" lon="8.11374"><ele>142.42857142857142</ele><time>2026-04-12T08:16:59.451Z</time></trkpt><trkpt lat="44.7622517" lon="8.1136967"><ele>142.57142857142856</ele><time>2026-04-12T08:17:00.451Z</time></trkpt><trkpt lat="44.7621933" lon="8.1136483"><ele>142.71428571428572</ele><time>2026-04-12T08:17:01.451Z</time></trkpt><trkpt lat="44.76213" lon="8.1136"><ele>142.85714285714283</ele><time>2026-04-12T08:17:02.451Z</time></trkpt><trkpt lat="44.7620683" lon="8.1135583"><ele>143.0</ele><time>2026-04-12T08:17:03.451Z</time></trkpt><trkpt lat="44.76195" lon="8.113475"><ele>143.0</ele><time>2026-04-12T08:17:05.451Z</time></trkpt><trkpt lat="44.7618867" lon="8.1134267"><ele>143.0</ele><time>2026-04-12T08:17:06.451Z</time></trkpt><trkpt lat="44.761825" lon="8.1133767"><ele>143.0</ele><time>2026-04-12T08:17:07.451Z</time></trkpt><trkpt lat="44.761765" lon="8.1133267"><ele>143.0</ele><time>2026-04-12T08:17:08.451Z</time></trkpt><trkpt lat="44.7617017" lon="8.1132783"><ele>143.0</ele><time>2026-04-12T08:17:09.451Z</time></trkpt><trkpt lat="44.7616383" lon="8.1132383"><ele>143.0</ele><time>2026-04-12T08:17:10.451Z</time></trkpt><trkpt lat="44.7615233" lon="8.1131517"><ele>142.83333333333331</ele><time>2026-04-12T08:17:12.451Z</time></trkpt><trkpt lat="44.7614683" lon="8.113105"><ele>142.66666666666666</ele><time>2026-04-12T08:17:13.451Z</time></trkpt><trkpt lat="44.76141" lon="8.1130583"><ele>142.5</ele><time>2026-04-12T08:17:14.451Z</time></trkpt><trkpt lat="44.761355" lon="8.113015"><ele>142.33333333333334</ele><time>2026-04-12T08:17:15.451Z</time></trkpt><trkpt lat="44.7612433" lon="8.1129383"><ele>142.16666666666669</ele><time>2026-04-12T08:17:17.451Z</time></trkpt><trkpt lat="44.7611833" lon="8.1128983"><ele>142.0</ele><time>2026-04-12T08:17:18.451Z</time></trkpt><trkpt lat="44.7611233" lon="8.1128583"><ele>142.0</ele><time>2026-04-12T08:17:19.451Z</time></trkpt><trkpt lat="44.7610633" lon="8.1128167"><ele>142.0</ele><time>2026-04-12T08:17:20.452Z</time></trkpt><trkpt lat="44.7610067" lon="8.112775"><ele>142.0</ele><time>2026-04-12T08:17:21.451Z</time></trkpt><trkpt lat="44.7609417" lon="8.1127367"><ele>142.0</ele><time>2026-04-12T08:17:22.451Z</time></trkpt><trkpt lat="44.76088" lon="8.1126983"><ele>142.0</ele><time>2026-04-12T08:17:23.452Z</time></trkpt><trkpt lat="44.7608233" lon="8.1126583"><ele>142.0</ele><time>2026-04-12T08:17:24.451Z</time></trkpt><trkpt lat="44.760765" lon="8.1126183"><ele>142.0</ele><time>2026-04-12T08:17:25.451Z</time></trkpt><trkpt lat="44.760705" lon="8.112575"><ele>141.83333333333334</ele><time>2026-04-12T08:17:26.451Z</time></trkpt><trkpt lat="44.7606467" lon="8.112525"><ele>141.66666666666669</ele><time>2026-04-12T08:17:27.451Z</time></trkpt><trkpt lat="44.7605817" lon="8.1124817"><ele>141.5</ele><time>2026-04-12T08:17:28.451Z</time></trkpt><trkpt lat="44.7605217" lon="8.1124383"><ele>141.33333333333334</ele><time>2026-04-12T08:17:29.451Z</time></trkpt><trkpt lat="44.7604633" lon="8.1123967"><ele>141.16666666666666</ele><time>2026-04-12T08:17:30.451Z</time></trkpt><trkpt lat="44.7603517" lon="8.1122933"><ele>141.0</ele><time>2026-04-12T08:17:32.451Z</time></trkpt><trkpt lat="44.7602983" lon="8.1122383"><ele>141.0</ele><time>2026-04-12T08:17:33.451Z</time></trkpt><trkpt lat="44.7602467" lon="8.11218"><ele>141.0</ele><time>2026-04-12T08:17:34.451Z</time></trkpt><trkpt lat="44.760155" lon="8.1120583"><ele>141.0</ele><time>2026-04-12T08:17:36.451Z</time></trkpt><trkpt lat="44.7601083" lon="8.1119967"><ele>141.0</ele><time>2026-04-12T08:17:37.451Z</time></trkpt><trkpt lat="44.76006" lon="8.1119367"><ele>141.0</ele><time>2026-04-12T08:17:38.451Z</time></trkpt><trkpt lat="44.7600117" lon="8.1118733"><ele>141.0</ele><time>2026-04-12T08:17:39.451Z</time></trkpt><trkpt lat="44.7599617" lon="8.1118083"><ele>141.0</ele><time>2026-04-12T08:17:40.451Z</time></trkpt><trkpt lat="44.7599083" lon="8.1117467"><ele>141.0</ele><time>2026-04-12T08:17:41.451Z</time></trkpt><trkpt lat="44.7598617" lon="8.111685"><ele>141.0</ele><time>2026-04-12T08:17:42.451Z</time></trkpt><trkpt lat="44.75981" lon="8.1116183"><ele>141.0</ele><time>2026-04-12T08:17:43.451Z</time></trkpt><trkpt lat="44.7597617" lon="8.111555"><ele>141.0</ele><time>2026-04-12T08:17:44.451Z</time></trkpt><trkpt lat="44.7597133" lon="8.1114967"><ele>141.0</ele><time>2026-04-12T08:17:45.451Z</time></trkpt><trkpt lat="44.759665" lon="8.1114383"><ele>141.0</ele><time>2026-04-12T08:17:46.451Z</time></trkpt><trkpt lat="44.759615" lon="8.1113783"><ele>141.0</ele><time>2026-04-12T08:17:47.451Z</time></trkpt><trkpt lat="44.75957" lon="8.1113117"><ele>141.0</ele><time>2026-04-12T08:17:48.451Z</time></trkpt><trkpt lat="44.7595233" lon="8.11125"><ele>141.0</ele><time>2026-04-12T08:17:49.451Z</time></trkpt><trkpt lat="44.759435" lon="8.11112"><ele>141.0</ele><time>2026-04-12T08:17:51.451Z</time></trkpt><trkpt lat="44.7593867" lon="8.11106"><ele>141.0</ele><time>2026-04-12T08:17:52.452Z</time></trkpt><trkpt lat="44.7593417" lon="8.1109967"><ele>141.0</ele><time>2026-04-12T08:17:53.451Z</time></trkpt><trkpt lat="44.7592517" lon="8.11087"><ele>141.14285714285714</ele><time>2026-04-12T08:17:55.451Z</time></trkpt><trkpt lat="44.7592033" lon="8.1108033"><ele>141.28571428571428</ele><time>2026-04-12T08:17:56.451Z</time></trkpt><trkpt lat="44.7591567" lon="8.1107417"><ele>141.42857142857142</ele><time>2026-04-12T08:17:57.451Z</time></trkpt><trkpt lat="44.7591083" lon="8.1106833"><ele>141.57142857142856</ele><time>2026-04-12T08:17:58.451Z</time></trkpt><trkpt lat="44.7590567" lon="8.1106217"><ele>141.7142857142857</ele><time>2026-04-12T08:17:59.451Z</time></trkpt><trkpt lat="44.7590067" lon="8.1105583"><ele>141.85714285714286</ele><time>2026-04-12T08:18:00.451Z</time></trkpt><trkpt lat="44.758955" lon="8.1104983"><ele>142.0</ele><time>2026-04-12T08:18:01.452Z</time></trkpt><trkpt lat="44.7589033" lon="8.1104467"><ele>142.0</ele><time>2026-04-12T08:18:02.452Z</time></trkpt><trkpt lat="44.7588533" lon="8.1103883"><ele>142.0</ele><time>2026-04-12T08:18:03.451Z</time></trkpt><trkpt lat="44.7587983" lon="8.110335"><ele>142.0</ele><time>2026-04-12T08:18:04.451Z</time></trkpt><trkpt lat="44.7587467" lon="8.1102767"><ele>142.0</ele><time>2026-04-12T08:18:05.451Z</time></trkpt><trkpt lat="44.7586933" lon="8.11022"><ele>142.0</ele><time>2026-04-12T08:18:06.451Z</time></trkpt><trkpt lat="44.758595" lon="8.1101233"><ele>142.0</ele><time>2026-04-12T08:18:08.451Z</time></trkpt><trkpt lat="44.758495" lon="8.1100417"><ele>142.25</ele><time>2026-04-12T08:18:10.451Z</time></trkpt><trkpt lat="44.7583917" lon="8.1099633"><ele>142.5</ele><time>2026-04-12T08:18:12.451Z</time></trkpt><trkpt lat="44.7582783" lon="8.1099117"><ele>142.75</ele><time>2026-04-12T08:18:14.451Z</time></trkpt><trkpt lat="44.75816" lon="8.1098717"><ele>143.0</ele><time>2026-04-12T08:18:16.451Z</time></trkpt><trkpt lat="44.75804" lon="8.1098217"><ele>143.20000000000002</ele><time>2026-04-12T08:18:18.451Z</time></trkpt><trkpt lat="44.75792" lon="8.1097767"><ele>143.4</ele><time>2026-04-12T08:18:20.451Z</time></trkpt><trkpt lat="44.7578567" lon="8.1097583"><ele>143.60000000000002</ele><time>2026-04-12T08:18:21.451Z</time></trkpt><trkpt lat="44.757795" lon="8.10974"><ele>143.8</ele><time>2026-04-12T08:18:22.451Z</time></trkpt><trkpt lat="44.757675" lon="8.1097333"><ele>144.0</ele><time>2026-04-12T08:18:24.451Z</time></trkpt><trkpt lat="44.7575567" lon="8.1097333"><ele>143.6</ele><time>2026-04-12T08:18:26.451Z</time></trkpt><trkpt lat="44.75746" lon="8.1096983"><ele>143.2</ele><time>2026-04-12T08:18:28.451Z</time></trkpt><trkpt lat="44.7574183" lon="8.1095767"><ele>142.79999999999998</ele><time>2026-04-12T08:18:30.451Z</time></trkpt><trkpt lat="44.7574383" lon="8.10943"><ele>142.4</ele><time>2026-04-12T08:18:32.451Z</time></trkpt><trkpt lat="44.7574933" lon="8.109285"><ele>142.0</ele><time>2026-04-12T08:18:34.451Z</time></trkpt><trkpt lat="44.7575217" lon="8.109205"><ele>142.0</ele><time>2026-04-12T08:18:35.451Z</time></trkpt><trkpt lat="44.757555" lon="8.1091233"><ele>142.0</ele><time>2026-04-12T08:18:36.451Z</time></trkpt><trkpt lat="44.7575867" lon="8.109045"><ele>142.0</ele><time>2026-04-12T08:18:37.451Z</time></trkpt><trkpt lat="44.7576183" lon="8.1089683"><ele>142.0</ele><time>2026-04-12T08:18:38.451Z</time></trkpt><trkpt lat="44.7576817" lon="8.10882"><ele>142.0</ele><time>2026-04-12T08:18:40.452Z</time></trkpt><trkpt lat="44.7577317" lon="8.1086567"><ele>142.0</ele><time>2026-04-12T08:18:42.451Z</time></trkpt><trkpt lat="44.7577583" lon="8.108575"><ele>142.2</ele><time>2026-04-12T08:18:43.451Z</time></trkpt><trkpt lat="44.75779" lon="8.1084933"><ele>142.39999999999998</ele><time>2026-04-12T08:18:44.451Z</time></trkpt><trkpt lat="44.7578367" lon="8.1083333"><ele>142.60000000000002</ele><time>2026-04-12T08:18:46.451Z</time></trkpt><trkpt lat="44.757855" lon="8.108245"><ele>142.8</ele><time>2026-04-12T08:18:47.451Z</time></trkpt><trkpt lat="44.757835" lon="8.10808"><ele>143.0</ele><time>2026-04-12T08:18:49.451Z</time></trkpt><trkpt lat="44.7577633" lon="8.1079583"><ele>142.83333333333331</ele><time>2026-04-12T08:18:51.451Z</time></trkpt><trkpt lat="44.7576633" lon="8.10787"><ele>142.66666666666666</ele><time>2026-04-12T08:18:53.451Z</time></trkpt><trkpt lat="44.75761" lon="8.1078183"><ele>142.5</ele><time>2026-04-12T08:18:54.451Z</time></trkpt><trkpt lat="44.7575617" lon="8.1077517"><ele>142.33333333333334</ele><time>2026-04-12T08:18:55.451Z</time></trkpt><trkpt lat="44.7575183" lon="8.1076767"><ele>142.16666666666669</ele><time>2026-04-12T08:18:56.451Z</time></trkpt><trkpt lat="44.7574733" lon="8.10759"><ele>142.0</ele><time>2026-04-12T08:18:57.451Z</time></trkpt><trkpt lat="44.7574317" lon="8.1075067"><ele>141.79999999999998</ele><time>2026-04-12T08:18:58.451Z</time></trkpt><trkpt lat="44.757365" lon="8.107365"><ele>141.6</ele><time>2026-04-12T08:19:00.451Z</time></trkpt><trkpt lat="44.7573417" lon="8.1072817"><ele>141.39999999999998</ele><time>2026-04-12T08:19:01.451Z</time></trkpt><trkpt lat="44.7572983" lon="8.1071217"><ele>141.2</ele><time>2026-04-12T08:19:03.451Z</time></trkpt><trkpt lat="44.7572733" lon="8.106955"><ele>141.0</ele><time>2026-04-12T08:19:05.451Z</time></trkpt><trkpt lat="44.7572617" lon="8.1067767"><ele>141.0</ele><time>2026-04-12T08:19:07.451Z</time></trkpt><trkpt lat="44.7572" lon="8.1066183"><ele>141.0</ele><time>2026-04-12T08:19:09.451Z</time></trkpt><trkpt lat="44.757105" lon="8.1065017"><ele>141.0</ele><time>2026-04-12T08:19:11.451Z</time></trkpt><trkpt lat="44.7570567" lon="8.1064417"><ele>141.0</ele><time>2026-04-12T08:19:12.451Z</time></trkpt><trkpt lat="44.7569817" lon="8.1062933"><ele>141.0</ele><time>2026-04-12T08:19:14.451Z</time></trkpt><trkpt lat="44.75695" lon="8.1062117"><ele>141.14285714285714</ele><time>2026-04-12T08:19:15.451Z</time></trkpt><trkpt lat="44.7569167" lon="8.1061317"><ele>141.28571428571428</ele><time>2026-04-12T08:19:16.451Z</time></trkpt><trkpt lat="44.7568817" lon="8.1060483"><ele>141.42857142857142</ele><time>2026-04-12T08:19:17.451Z</time></trkpt><trkpt lat="44.7568467" lon="8.1059617"><ele>141.57142857142856</ele><time>2026-04-12T08:19:18.451Z</time></trkpt><trkpt lat="44.7568083" lon="8.1058783"><ele>141.7142857142857</ele><time>2026-04-12T08:19:19.452Z</time></trkpt><trkpt lat="44.75677" lon="8.1057983"><ele>141.85714285714286</ele><time>2026-04-12T08:19:20.451Z</time></trkpt><trkpt lat="44.756735" lon="8.105715"><ele>142.0</ele><time>2026-04-12T08:19:21.451Z</time></trkpt><trkpt lat="44.7566983" lon="8.105635"><ele>141.57142857142856</ele><time>2026-04-12T08:19:22.451Z</time></trkpt><trkpt lat="44.75666" lon="8.1055517"><ele>141.14285714285714</ele><time>2026-04-12T08:19:23.451Z</time></trkpt><trkpt lat="44.75662" lon="8.10547"><ele>140.71428571428572</ele><time>2026-04-12T08:19:24.451Z</time></trkpt><trkpt lat="44.7565817" lon="8.1053883"><ele>140.28571428571428</ele><time>2026-04-12T08:19:25.451Z</time></trkpt><trkpt lat="44.7565433" lon="8.1053083"><ele>139.85714285714286</ele><time>2026-04-12T08:19:26.452Z</time></trkpt><trkpt lat="44.75651" lon="8.10523"><ele>139.42857142857142</ele><time>2026-04-12T08:19:27.451Z</time></trkpt><trkpt lat="44.75647" lon="8.105155"><ele>139.0</ele><time>2026-04-12T08:19:28.451Z</time></trkpt><trkpt lat="44.756435" lon="8.10508"><ele>139.0</ele><time>2026-04-12T08:19:29.451Z</time></trkpt><trkpt lat="44.7563933" lon="8.1050067"><ele>139.0</ele><time>2026-04-12T08:19:30.451Z</time></trkpt><trkpt lat="44.7563517" lon="8.1049333"><ele>139.0</ele><time>2026-04-12T08:19:31.451Z</time></trkpt><trkpt lat="44.7562783" lon="8.1048"><ele>139.0</ele><time>2026-04-12T08:19:33.451Z</time></trkpt><trkpt lat="44.7562017" lon="8.10468"><ele>139.0</ele><time>2026-04-12T08:19:35.451Z</time></trkpt><trkpt lat="44.7561333" lon="8.1045867"><ele>139.2</ele><time>2026-04-12T08:19:37.451Z</time></trkpt><trkpt lat="44.7560633" lon="8.1044983"><ele>139.4</ele><time>2026-04-12T08:19:40.451Z</time></trkpt><trkpt lat="44.7559967" lon="8.104415"><ele>139.6</ele><time>2026-04-12T08:19:42.451Z</time></trkpt><trkpt lat="44.7558967" lon="8.1043533"><ele>139.8</ele><time>2026-04-12T08:19:44.451Z</time></trkpt><trkpt lat="44.7558067" lon="8.10436"><ele>140.0</ele><time>2026-04-12T08:19:46.451Z</time></trkpt><trkpt lat="44.7557017" lon="8.1044"><ele>140.2</ele><time>2026-04-12T08:19:48.451Z</time></trkpt><trkpt lat="44.7555967" lon="8.1044317"><ele>140.4</ele><time>2026-04-12T08:19:50.451Z</time></trkpt><trkpt lat="44.7554767" lon="8.1044333"><ele>140.6</ele><time>2026-04-12T08:19:52.451Z</time></trkpt><trkpt lat="44.7553483" lon="8.104425"><ele>140.8</ele><time>2026-04-12T08:19:54.451Z</time></trkpt><trkpt lat="44.7552833" lon="8.10442"><ele>141.0</ele><time>2026-04-12T08:19:55.451Z</time></trkpt><trkpt lat="44.7552167" lon="8.1044133"><ele>140.75</ele><time>2026-04-12T08:19:56.451Z</time></trkpt><trkpt lat="44.7550933" lon="8.1043983"><ele>140.5</ele><time>2026-04-12T08:19:58.451Z</time></trkpt><trkpt lat="44.7549783" lon="8.1043733"><ele>140.25</ele><time>2026-04-12T08:20:00.451Z</time></trkpt><trkpt lat="44.7548583" lon="8.1043583"><ele>140.0</ele><time>2026-04-12T08:20:02.451Z</time></trkpt><trkpt lat="44.7547533" lon="8.1043583"><ele>140.0</ele><time>2026-04-12T08:20:04.451Z</time></trkpt><trkpt lat="44.7546667" lon="8.1043567"><ele>140.0</ele><time>2026-04-12T08:20:06.451Z</time></trkpt><trkpt lat="44.7545817" lon="8.10437"><ele>140.0</ele><time>2026-04-12T08:20:08.451Z</time></trkpt><trkpt lat="44.75449" lon="8.1043817"><ele>140.0</ele><time>2026-04-12T08:20:10.451Z</time></trkpt><trkpt lat="44.7543883" lon="8.1044017"><ele>140.0</ele><time>2026-04-12T08:20:12.451Z</time></trkpt><trkpt lat="44.7542833" lon="8.104425"><ele>140.6</ele><time>2026-04-12T08:20:14.451Z</time></trkpt><trkpt lat="44.7541717" lon="8.104435"><ele>141.2</ele><time>2026-04-12T08:20:16.451Z</time></trkpt><trkpt lat="44.75407" lon="8.1044383"><ele>141.8</ele><time>2026-04-12T08:20:18.451Z</time></trkpt><trkpt lat="44.7539717" lon="8.1044433"><ele>142.4</ele><time>2026-04-12T08:20:20.451Z</time></trkpt><trkpt lat="44.7538833" lon="8.1044583"><ele>143.0</ele><time>2026-04-12T08:20:22.451Z</time></trkpt><trkpt lat="44.7537817" lon="8.10448"><ele>143.0</ele><time>2026-04-12T08:20:24.451Z</time></trkpt><trkpt lat="44.75368" lon="8.104505"><ele>143.0</ele><time>2026-04-12T08:20:26.451Z</time></trkpt><trkpt lat="44.753575" lon="8.1045167"><ele>143.0</ele><time>2026-04-12T08:20:28.451Z</time></trkpt><trkpt lat="44.7534767" lon="8.1045283"><ele>143.0</ele><time>2026-04-12T08:20:30.451Z</time></trkpt><trkpt lat="44.7533667" lon="8.1045617"><ele>143.0</ele><time>2026-04-12T08:20:32.451Z</time></trkpt><trkpt lat="44.7532567" lon="8.1045717"><ele>144.0</ele><time>2026-04-12T08:20:34.451Z</time></trkpt><trkpt lat="44.7531483" lon="8.1045633"><ele>145.0</ele><time>2026-04-12T08:20:36.452Z</time></trkpt><trkpt lat="44.753055" lon="8.1044883"><ele>146.0</ele><time>2026-04-12T08:20:38.451Z</time></trkpt><trkpt lat="44.752985" lon="8.1043617"><ele>147.0</ele><time>2026-04-12T08:20:40.451Z</time></trkpt><trkpt lat="44.7529133" lon="8.10422"><ele>147.0</ele><time>2026-04-12T08:20:42.451Z</time></trkpt><trkpt lat="44.7528367" lon="8.104075"><ele>147.0</ele><time>2026-04-12T08:20:44.451Z</time></trkpt><trkpt lat="44.7527983" lon="8.1040017"><ele>147.0</ele><time>2026-04-12T08:20:45.451Z</time></trkpt><trkpt lat="44.752715" lon="8.1038733"><ele>147.0</ele><time>2026-04-12T08:20:47.451Z</time></trkpt><trkpt lat="44.7526733" lon="8.1038067"><ele>147.0</ele><time>2026-04-12T08:20:48.451Z</time></trkpt><trkpt lat="44.7525983" lon="8.1036683"><ele>147.0</ele><time>2026-04-12T08:20:50.451Z</time></trkpt><trkpt lat="44.7525617" lon="8.103595"><ele>147.0</ele><time>2026-04-12T08:20:51.451Z</time></trkpt><trkpt lat="44.7525217" lon="8.103525"><ele>147.0</ele><time>2026-04-12T08:20:52.451Z</time></trkpt><trkpt lat="44.7524783" lon="8.1034583"><ele>147.0</ele><time>2026-04-12T08:20:53.451Z</time></trkpt><trkpt lat="44.7523883" lon="8.103345"><ele>147.0</ele><time>2026-04-12T08:20:55.451Z</time></trkpt><trkpt lat="44.7522967" lon="8.1032483"><ele>147.0</ele><time>2026-04-12T08:20:57.452Z</time></trkpt><trkpt lat="44.7521917" lon="8.1031883"><ele>146.4</ele><time>2026-04-12T08:20:59.451Z</time></trkpt><trkpt lat="44.75209" lon="8.1031717"><ele>145.79999999999998</ele><time>2026-04-12T08:21:01.451Z</time></trkpt><trkpt lat="44.7519767" lon="8.1031467"><ele>145.2</ele><time>2026-04-12T08:21:03.451Z</time></trkpt><trkpt lat="44.7518533" lon="8.10312"><ele>144.6</ele><time>2026-04-12T08:21:05.451Z</time></trkpt><trkpt lat="44.75179" lon="8.1031083"><ele>144.0</ele><time>2026-04-12T08:21:06.451Z</time></trkpt><trkpt lat="44.7517283" lon="8.1030883"><ele>144.0</ele><time>2026-04-12T08:21:07.451Z</time></trkpt><trkpt lat="44.7516633" lon="8.1030767"><ele>144.0</ele><time>2026-04-12T08:21:08.451Z</time></trkpt><trkpt lat="44.7515383" lon="8.1030583"><ele>144.0</ele><time>2026-04-12T08:21:10.451Z</time></trkpt><trkpt lat="44.7514133" lon="8.10303"><ele>144.0</ele><time>2026-04-12T08:21:12.451Z</time></trkpt><trkpt lat="44.7513" lon="8.1029833"><ele>144.0</ele><time>2026-04-12T08:21:14.451Z</time></trkpt><trkpt lat="44.7511867" lon="8.1029133"><ele>144.0</ele><time>2026-04-12T08:21:16.451Z</time></trkpt><trkpt lat="44.7510833" lon="8.102825"><ele>144.0</ele><time>2026-04-12T08:21:18.451Z</time></trkpt><trkpt lat="44.751005" lon="8.1027"><ele>144.0</ele><time>2026-04-12T08:21:20.452Z</time></trkpt><trkpt lat="44.750965" lon="8.102625"><ele>144.0</ele><time>2026-04-12T08:21:21.451Z</time></trkpt><trkpt lat="44.7509233" lon="8.1025517"><ele>144.0</ele><time>2026-04-12T08:21:22.451Z</time></trkpt><trkpt lat="44.7508933" lon="8.1024683"><ele>144.0</ele><time>2026-04-12T08:21:23.452Z</time></trkpt><trkpt lat="44.75086" lon="8.102375"><ele>144.57142857142858</ele><time>2026-04-12T08:21:24.451Z</time></trkpt><trkpt lat="44.7508283" lon="8.1022867"><ele>145.14285714285714</ele><time>2026-04-12T08:21:25.451Z</time></trkpt><trkpt lat="44.75079" lon="8.1022"><ele>145.71428571428572</ele><time>2026-04-12T08:21:26.451Z</time></trkpt><trkpt lat="44.750755" lon="8.1021183"><ele>146.28571428571428</ele><time>2026-04-12T08:21:27.451Z</time></trkpt><trkpt lat="44.7507233" lon="8.10204"><ele>146.85714285714286</ele><time>2026-04-12T08:21:28.451Z</time></trkpt><trkpt lat="44.75069" lon="8.1019617"><ele>147.42857142857144</ele><time>2026-04-12T08:21:29.451Z</time></trkpt><trkpt lat="44.7506533" lon="8.10188"><ele>148.0</ele><time>2026-04-12T08:21:30.451Z</time></trkpt><trkpt lat="44.750625" lon="8.1017967"><ele>148.0</ele><time>2026-04-12T08:21:31.452Z</time></trkpt><trkpt lat="44.7506" lon="8.1017133"><ele>148.0</ele><time>2026-04-12T08:21:32.451Z</time></trkpt><trkpt lat="44.750555" lon="8.1015567"><ele>148.0</ele><time>2026-04-12T08:21:34.451Z</time></trkpt><trkpt lat="44.7505067" lon="8.101405"><ele>148.0</ele><time>2026-04-12T08:21:36.451Z</time></trkpt><trkpt lat="44.7504333" lon="8.1012733"><ele>148.0</ele><time>2026-04-12T08:21:38.451Z</time></trkpt><trkpt lat="44.7503783" lon="8.1012267"><ele>148.5</ele><time>2026-04-12T08:21:39.451Z</time></trkpt><trkpt lat="44.7503183" lon="8.1011833"><ele>149.0</ele><time>2026-04-12T08:21:40.451Z</time></trkpt><trkpt lat="44.75021" lon="8.1011083"><ele>149.5</ele><time>2026-04-12T08:21:42.451Z</time></trkpt><trkpt lat="44.750155" lon="8.1010567"><ele>150.0</ele><time>2026-04-12T08:21:43.451Z</time></trkpt><trkpt lat="44.75011" lon="8.1009933"><ele>150.5</ele><time>2026-04-12T08:21:44.451Z</time></trkpt><trkpt lat="44.7500667" lon="8.1009267"><ele>151.0</ele><time>2026-04-12T08:21:45.452Z</time></trkpt><trkpt lat="44.7499933" lon="8.1007833"><ele>150.5</ele><time>2026-04-12T08:21:47.451Z</time></trkpt><trkpt lat="44.7499283" lon="8.100645"><ele>150.0</ele><time>2026-04-12T08:21:49.451Z</time></trkpt><trkpt lat="44.7498867" lon="8.1004933"><ele>149.5</ele><time>2026-04-12T08:21:51.451Z</time></trkpt><trkpt lat="44.7498717" lon="8.10033"><ele>149.0</ele><time>2026-04-12T08:21:53.451Z</time></trkpt><trkpt lat="44.74983" lon="8.1001517"><ele>149.0</ele><time>2026-04-12T08:21:55.451Z</time></trkpt><trkpt lat="44.7497867" lon="8.1000617"><ele>149.0</ele><time>2026-04-12T08:21:56.451Z</time></trkpt><trkpt lat="44.7497433" lon="8.099975"><ele>149.0</ele><time>2026-04-12T08:21:57.451Z</time></trkpt><trkpt lat="44.7497" lon="8.0998983"><ele>149.0</ele><time>2026-04-12T08:21:58.452Z</time></trkpt><trkpt lat="44.7496633" lon="8.0998233"><ele>149.0</ele><time>2026-04-12T08:21:59.451Z</time></trkpt><trkpt lat="44.7496167" lon="8.0997517"><ele>149.0</ele><time>2026-04-12T08:22:00.451Z</time></trkpt><trkpt lat="44.74956" lon="8.0997017"><ele>149.0</ele><time>2026-04-12T08:22:01.451Z</time></trkpt><trkpt lat="44.749495" lon="8.0996767"><ele>149.16666666666666</ele><time>2026-04-12T08:22:02.451Z</time></trkpt><trkpt lat="44.74943" lon="8.0996583"><ele>149.33333333333331</ele><time>2026-04-12T08:22:03.451Z</time></trkpt><trkpt lat="44.749365" lon="8.0996383"><ele>149.5</ele><time>2026-04-12T08:22:04.452Z</time></trkpt><trkpt lat="44.7492983" lon="8.0996"><ele>149.66666666666666</ele><time>2026-04-12T08:22:05.451Z</time></trkpt><trkpt lat="44.7492517" lon="8.0995383"><ele>149.83333333333334</ele><time>2026-04-12T08:22:06.451Z</time></trkpt><trkpt lat="44.7492083" lon="8.09947"><ele>150.0</ele><time>2026-04-12T08:22:07.452Z</time></trkpt><trkpt lat="44.7491217" lon="8.0993417"><ele>150.0</ele><time>2026-04-12T08:22:09.451Z</time></trkpt><trkpt lat="44.7490683" lon="8.0992767"><ele>150.0</ele><time>2026-04-12T08:22:10.451Z</time></trkpt><trkpt lat="44.7490167" lon="8.09921"><ele>150.0</ele><time>2026-04-12T08:22:11.451Z</time></trkpt><trkpt lat="44.748965" lon="8.09914"><ele>150.0</ele><time>2026-04-12T08:22:12.451Z</time></trkpt><trkpt lat="44.7489167" lon="8.0990817"><ele>150.0</ele><time>2026-04-12T08:22:13.451Z</time></trkpt><trkpt lat="44.7488233" lon="8.098995"><ele>150.0</ele><time>2026-04-12T08:22:15.451Z</time></trkpt><trkpt lat="44.7487583" lon="8.0989017"><ele>150.0</ele><time>2026-04-12T08:22:17.451Z</time></trkpt><trkpt lat="44.7487" lon="8.0988117"><ele>150.0</ele><time>2026-04-12T08:22:19.451Z</time></trkpt><trkpt lat="44.7486283" lon="8.098725"><ele>150.0</ele><time>2026-04-12T08:22:21.451Z</time></trkpt><trkpt lat="44.74856" lon="8.09865"><ele>150.0</ele><time>2026-04-12T08:22:23.451Z</time></trkpt><trkpt lat="44.7484967" lon="8.0985717"><ele>150.0</ele><time>2026-04-12T08:22:25.451Z</time></trkpt><trkpt lat="44.7484267" lon="8.0984917"><ele>150.0</ele><time>2026-04-12T08:22:27.451Z</time></trkpt><trkpt lat="44.7483567" lon="8.0984233"><ele>150.0</ele><time>2026-04-12T08:22:29.451Z</time></trkpt><trkpt lat="44.74828" lon="8.0983367"><ele>150.0</ele><time>2026-04-12T08:22:31.451Z</time></trkpt><trkpt lat="44.7482033" lon="8.09825"><ele>150.0</ele><time>2026-04-12T08:22:33.451Z</time></trkpt><trkpt lat="44.7481183" lon="8.0981483"><ele>150.0</ele><time>2026-04-12T08:22:35.451Z</time></trkpt><trkpt lat="44.7480383" lon="8.0980383"><ele>150.0</ele><time>2026-04-12T08:22:37.451Z</time></trkpt><trkpt lat="44.7479533" lon="8.0979233"><ele>150.0</ele><time>2026-04-12T08:22:39.451Z</time></trkpt><trkpt lat="44.7478733" lon="8.097825"><ele>150.0</ele><time>2026-04-12T08:22:41.451Z</time></trkpt><trkpt lat="44.747795" lon="8.09773"><ele>150.0</ele><time>2026-04-12T08:22:43.451Z</time></trkpt><trkpt lat="44.7477167" lon="8.0976333"><ele>150.0</ele><time>2026-04-12T08:22:45.452Z</time></trkpt><trkpt lat="44.74763" lon="8.0975383"><ele>150.0</ele><time>2026-04-12T08:22:47.451Z</time></trkpt><trkpt lat="44.7475317" lon="8.0974467"><ele>149.6</ele><time>2026-04-12T08:22:49.451Z</time></trkpt><trkpt lat="44.747435" lon="8.0973467"><ele>149.2</ele><time>2026-04-12T08:22:51.451Z</time></trkpt><trkpt lat="44.7473483" lon="8.097255"><ele>148.8</ele><time>2026-04-12T08:22:53.451Z</time></trkpt><trkpt lat="44.7472583" lon="8.0971717"><ele>148.4</ele><time>2026-04-12T08:22:55.451Z</time></trkpt><trkpt lat="44.7471783" lon="8.09707"><ele>148.0</ele><time>2026-04-12T08:22:57.451Z</time></trkpt><trkpt lat="44.7470817" lon="8.0969633"><ele>148.0</ele><time>2026-04-12T08:22:59.451Z</time></trkpt><trkpt lat="44.7469817" lon="8.096855"><ele>148.0</ele><time>2026-04-12T08:23:01.451Z</time></trkpt><trkpt lat="44.7469283" lon="8.096795"><ele>148.0</ele><time>2026-04-12T08:23:02.451Z</time></trkpt><trkpt lat="44.7468767" lon="8.096735"><ele>148.0</ele><time>2026-04-12T08:23:03.451Z</time></trkpt><trkpt lat="44.746825" lon="8.09668"><ele>148.0</ele><time>2026-04-12T08:23:04.451Z</time></trkpt><trkpt lat="44.7467683" lon="8.096615"><ele>148.0</ele><time>2026-04-12T08:23:05.451Z</time></trkpt><trkpt lat="44.7467133" lon="8.096545"><ele>148.16666666666669</ele><time>2026-04-12T08:23:06.451Z</time></trkpt><trkpt lat="44.7466633" lon="8.0964767"><ele>148.33333333333334</ele><time>2026-04-12T08:23:07.451Z</time></trkpt><trkpt lat="44.7466183" lon="8.0964033"><ele>148.5</ele><time>2026-04-12T08:23:08.451Z</time></trkpt><trkpt lat="44.7465783" lon="8.0963283"><ele>148.66666666666666</ele><time>2026-04-12T08:23:09.451Z</time></trkpt><trkpt lat="44.74654" lon="8.0962517"><ele>148.83333333333331</ele><time>2026-04-12T08:23:10.451Z</time></trkpt><trkpt lat="44.74645" lon="8.0961267"><ele>149.0</ele><time>2026-04-12T08:23:12.451Z</time></trkpt><trkpt lat="44.7463833" lon="8.0960983"><ele>149.0</ele><time>2026-04-12T08:23:13.451Z</time></trkpt><trkpt lat="44.7463117" lon="8.0960917"><ele>149.0</ele><time>2026-04-12T08:23:14.451Z</time></trkpt><trkpt lat="44.7462433" lon="8.09609"><ele>149.0</ele><time>2026-04-12T08:23:15.452Z</time></trkpt><trkpt lat="44.74617" lon="8.09609"><ele>149.0</ele><time>2026-04-12T08:23:16.451Z</time></trkpt><trkpt lat="44.7461017" lon="8.09609"><ele>149.0</ele><time>2026-04-12T08:23:17.451Z</time></trkpt><trkpt lat="44.7460333" lon="8.0961"><ele>149.0</ele><time>2026-04-12T08:23:18.451Z</time></trkpt><trkpt lat="44.7459633" lon="8.096115"><ele>149.0</ele><time>2026-04-12T08:23:19.451Z</time></trkpt><trkpt lat="44.7459" lon="8.09613"><ele>149.0</ele><time>2026-04-12T08:23:20.451Z</time></trkpt><trkpt lat="44.745835" lon="8.096135"><ele>149.0</ele><time>2026-04-12T08:23:21.451Z</time></trkpt><trkpt lat="44.7457683" lon="8.096135"><ele>149.0</ele><time>2026-04-12T08:23:22.451Z</time></trkpt><trkpt lat="44.7457017" lon="8.09614"><ele>149.0</ele><time>2026-04-12T08:23:23.451Z</time></trkpt><trkpt lat="44.745575" lon="8.0961283"><ele>149.0</ele><time>2026-04-12T08:23:25.451Z</time></trkpt><trkpt lat="44.745515" lon="8.0960917"><ele>149.0</ele><time>2026-04-12T08:23:26.451Z</time></trkpt><trkpt lat="44.7454533" lon="8.096045"><ele>149.0</ele><time>2026-04-12T08:23:27.451Z</time></trkpt><trkpt lat="44.745395" lon="8.095995"><ele>149.0</ele><time>2026-04-12T08:23:28.451Z</time></trkpt><trkpt lat="44.7453383" lon="8.0959483"><ele>149.0</ele><time>2026-04-12T08:23:29.451Z</time></trkpt><trkpt lat="44.7452783" lon="8.0958967"><ele>149.0</ele><time>2026-04-12T08:23:30.451Z</time></trkpt><trkpt lat="44.74522" lon="8.0958467"><ele>149.0</ele><time>2026-04-12T08:23:31.452Z</time></trkpt><trkpt lat="44.745165" lon="8.095785"><ele>149.0</ele><time>2026-04-12T08:23:32.451Z</time></trkpt><trkpt lat="44.7451133" lon="8.0957317"><ele>149.0</ele><time>2026-04-12T08:23:33.451Z</time></trkpt><trkpt lat="44.7450533" lon="8.0956783"><ele>149.42857142857142</ele><time>2026-04-12T08:23:34.451Z</time></trkpt><trkpt lat="44.7449967" lon="8.09562"><ele>149.85714285714283</ele><time>2026-04-12T08:23:35.451Z</time></trkpt><trkpt lat="44.74494" lon="8.0955633"><ele>150.28571428571428</ele><time>2026-04-12T08:23:36.451Z</time></trkpt><trkpt lat="44.74488" lon="8.0955033"><ele>150.71428571428572</ele><time>2026-04-12T08:23:37.451Z</time></trkpt><trkpt lat="44.7448233" lon="8.095445"><ele>151.14285714285717</ele><time>2026-04-12T08:23:38.451Z</time></trkpt><trkpt lat="44.7447617" lon="8.0953883"><ele>151.57142857142856</ele><time>2026-04-12T08:23:39.451Z</time></trkpt><trkpt lat="44.7447033" lon="8.0953383"><ele>152.0</ele><time>2026-04-12T08:23:40.451Z</time></trkpt><trkpt lat="44.7446467" lon="8.0952817"><ele>152.0</ele><time>2026-04-12T08:23:41.451Z</time></trkpt><trkpt lat="44.7445883" lon="8.0952267"><ele>152.0</ele><time>2026-04-12T08:23:42.451Z</time></trkpt><trkpt lat="44.7445333" lon="8.0951667"><ele>152.0</ele><time>2026-04-12T08:23:43.451Z</time></trkpt><trkpt lat="44.74447" lon="8.0951033"><ele>152.0</ele><time>2026-04-12T08:23:44.452Z</time></trkpt><trkpt lat="44.744405" lon="8.0950483"><ele>152.0</ele><time>2026-04-12T08:23:45.451Z</time></trkpt><trkpt lat="44.7443417" lon="8.0949917"><ele>152.0</ele><time>2026-04-12T08:23:46.451Z</time></trkpt><trkpt lat="44.7442833" lon="8.0949383"><ele>152.0</ele><time>2026-04-12T08:23:47.451Z</time></trkpt><trkpt lat="44.7442283" lon="8.09489"><ele>151.5</ele><time>2026-04-12T08:23:48.451Z</time></trkpt><trkpt lat="44.744175" lon="8.0948417"><ele>151.0</ele><time>2026-04-12T08:23:49.451Z</time></trkpt><trkpt lat="44.744075" lon="8.0947517"><ele>150.5</ele><time>2026-04-12T08:23:51.451Z</time></trkpt><trkpt lat="44.7440233" lon="8.0947"><ele>150.0</ele><time>2026-04-12T08:23:52.451Z</time></trkpt><trkpt lat="44.7439233" lon="8.0945867"><ele>149.5</ele><time>2026-04-12T08:23:54.451Z</time></trkpt><trkpt lat="44.74387" lon="8.094535"><ele>149.0</ele><time>2026-04-12T08:23:55.451Z</time></trkpt><trkpt lat="44.7437667" lon="8.094435"><ele>149.0</ele><time>2026-04-12T08:23:57.451Z</time></trkpt><trkpt lat="44.74371" lon="8.09439"><ele>149.0</ele><time>2026-04-12T08:23:58.451Z</time></trkpt><trkpt lat="44.743655" lon="8.0943367"><ele>149.0</ele><time>2026-04-12T08:23:59.451Z</time></trkpt><trkpt lat="44.74355" lon="8.0942283"><ele>149.0</ele><time>2026-04-12T08:24:01.451Z</time></trkpt><trkpt lat="44.7434983" lon="8.0941733"><ele>149.0</ele><time>2026-04-12T08:24:02.451Z</time></trkpt><trkpt lat="44.7434467" lon="8.0941217"><ele>149.0</ele><time>2026-04-12T08:24:03.451Z</time></trkpt><trkpt lat="44.7433933" lon="8.0940717"><ele>148.8</ele><time>2026-04-12T08:24:04.451Z</time></trkpt><trkpt lat="44.743335" lon="8.0940233"><ele>148.60000000000002</ele><time>2026-04-12T08:24:05.451Z</time></trkpt><trkpt lat="44.7432383" lon="8.09393"><ele>148.4</ele><time>2026-04-12T08:24:07.452Z</time></trkpt><trkpt lat="44.7431417" lon="8.093835"><ele>148.20000000000002</ele><time>2026-04-12T08:24:09.451Z</time></trkpt><trkpt lat="44.743035" lon="8.09374"><ele>148.0</ele><time>2026-04-12T08:24:11.451Z</time></trkpt><trkpt lat="44.742925" lon="8.0936467"><ele>148.0</ele><time>2026-04-12T08:24:13.451Z</time></trkpt><trkpt lat="44.7428733" lon="8.0935933"><ele>148.0</ele><time>2026-04-12T08:24:14.452Z</time></trkpt><trkpt lat="44.74282" lon="8.0935417"><ele>148.0</ele><time>2026-04-12T08:24:15.451Z</time></trkpt><trkpt lat="44.7427117" lon="8.0934417"><ele>148.0</ele><time>2026-04-12T08:24:17.451Z</time></trkpt><trkpt lat="44.7426567" lon="8.0933883"><ele>148.0</ele><time>2026-04-12T08:24:18.451Z</time></trkpt><trkpt lat="44.7426033" lon="8.0933383"><ele>148.0</ele><time>2026-04-12T08:24:19.451Z</time></trkpt><trkpt lat="44.7425117" lon="8.093245"><ele>149.4</ele><time>2026-04-12T08:24:21.451Z</time></trkpt><trkpt lat="44.7424217" lon="8.0931517"><ele>150.8</ele><time>2026-04-12T08:24:23.451Z</time></trkpt><trkpt lat="44.7423683" lon="8.0931017"><ele>152.2</ele><time>2026-04-12T08:24:24.451Z</time></trkpt><trkpt lat="44.7423167" lon="8.0930467"><ele>153.6</ele><time>2026-04-12T08:24:25.451Z</time></trkpt><trkpt lat="44.7422183" lon="8.0929517"><ele>155.0</ele><time>2026-04-12T08:24:27.451Z</time></trkpt><trkpt lat="44.7421317" lon="8.0928533"><ele>155.0</ele><time>2026-04-12T08:24:29.451Z</time></trkpt><trkpt lat="44.742025" lon="8.092765"><ele>155.0</ele><time>2026-04-12T08:24:31.451Z</time></trkpt><trkpt lat="44.7419233" lon="8.09267"><ele>155.0</ele><time>2026-04-12T08:24:33.451Z</time></trkpt><trkpt lat="44.7418267" lon="8.0925767"><ele>155.0</ele><time>2026-04-12T08:24:35.451Z</time></trkpt><trkpt lat="44.7417333" lon="8.09247"><ele>154.8</ele><time>2026-04-12T08:24:37.451Z</time></trkpt><trkpt lat="44.74168" lon="8.0924217"><ele>154.6</ele><time>2026-04-12T08:24:38.451Z</time></trkpt><trkpt lat="44.7415833" lon="8.0923267"><ele>154.4</ele><time>2026-04-12T08:24:40.451Z</time></trkpt><trkpt lat="44.7414833" lon="8.0922233"><ele>154.2</ele><time>2026-04-12T08:24:42.451Z</time></trkpt><trkpt lat="44.7413817" lon="8.0921417"><ele>154.0</ele><time>2026-04-12T08:24:44.451Z</time></trkpt><trkpt lat="44.7412817" lon="8.0920583"><ele>154.0</ele><time>2026-04-12T08:24:46.451Z</time></trkpt><trkpt lat="44.7412267" lon="8.092015"><ele>154.0</ele><time>2026-04-12T08:24:47.451Z</time></trkpt><trkpt lat="44.74112" lon="8.0919517"><ele>154.0</ele><time>2026-04-12T08:24:49.451Z</time></trkpt><trkpt lat="44.7410117" lon="8.0919417"><ele>154.0</ele><time>2026-04-12T08:24:51.451Z</time></trkpt><trkpt lat="44.74091" lon="8.091985"><ele>154.0</ele><time>2026-04-12T08:24:53.451Z</time></trkpt><trkpt lat="44.7408183" lon="8.0920433"><ele>154.0</ele><time>2026-04-12T08:24:55.451Z</time></trkpt><trkpt lat="44.74074" lon="8.0920967"><ele>154.0</ele><time>2026-04-12T08:24:57.451Z</time></trkpt><trkpt lat="44.74067" lon="8.0921183"><ele>154.0</ele><time>2026-04-12T08:24:59.451Z</time></trkpt><trkpt lat="44.7406" lon="8.09213"><ele>154.0</ele><time>2026-04-12T08:25:02.452Z</time></trkpt><trkpt lat="44.7405367" lon="8.0921483"><ele>154.0</ele><time>2026-04-12T08:25:06.451Z</time></trkpt><trkpt lat="44.7404917" lon="8.0922283"><ele>154.0</ele><time>2026-04-12T08:25:09.451Z</time></trkpt><trkpt lat="44.7404317" lon="8.09228"><ele>154.0</ele><time>2026-04-12T08:25:12.451Z</time></trkpt><trkpt lat="44.74036" lon="8.0923417"><ele>154.0</ele><time>2026-04-12T08:25:16.451Z</time></trkpt><trkpt lat="44.7402833" lon="8.0923883"><ele>154.0</ele><time>2026-04-12T08:25:19.451Z</time></trkpt><trkpt lat="44.7402067" lon="8.0924367"><ele>154.0</ele><time>2026-04-12T08:25:24.451Z</time></trkpt><trkpt lat="44.7401367" lon="8.0924367"><ele>154.0</ele><time>2026-04-12T08:25:26.451Z</time></trkpt><trkpt lat="44.7400483" lon="8.09248"><ele>154.0</ele><time>2026-04-12T08:25:28.451Z</time></trkpt><trkpt lat="44.7399533" lon="8.0925433"><ele>154.0</ele><time>2026-04-12T08:25:30.451Z</time></trkpt><trkpt lat="44.7398483" lon="8.0926117"><ele>154.25</ele><time>2026-04-12T08:25:32.451Z</time></trkpt><trkpt lat="44.7397383" lon="8.0926733"><ele>154.5</ele><time>2026-04-12T08:25:34.451Z</time></trkpt><trkpt lat="44.7396333" lon="8.0927517"><ele>154.75</ele><time>2026-04-12T08:25:36.451Z</time></trkpt><trkpt lat="44.7395233" lon="8.0928133"><ele>155.0</ele><time>2026-04-12T08:25:38.451Z</time></trkpt><trkpt lat="44.739415" lon="8.0928867"><ele>155.75</ele><time>2026-04-12T08:25:40.451Z</time></trkpt><trkpt lat="44.7393067" lon="8.0929517"><ele>156.5</ele><time>2026-04-12T08:25:42.451Z</time></trkpt><trkpt lat="44.7392017" lon="8.093005"><ele>157.25</ele><time>2026-04-12T08:25:44.451Z</time></trkpt><trkpt lat="44.7391017" lon="8.0930533"><ele>158.0</ele><time>2026-04-12T08:25:46.451Z</time></trkpt><trkpt lat="44.738985" lon="8.09313"><ele>158.0</ele><time>2026-04-12T08:25:48.451Z</time></trkpt><trkpt lat="44.7389283" lon="8.0931717"><ele>158.0</ele><time>2026-04-12T08:25:49.451Z</time></trkpt><trkpt lat="44.73882" lon="8.09324"><ele>158.0</ele><time>2026-04-12T08:25:51.451Z</time></trkpt><trkpt lat="44.73871" lon="8.0933033"><ele>158.0</ele><time>2026-04-12T08:25:53.451Z</time></trkpt><trkpt lat="44.7385967" lon="8.0933667"><ele>158.0</ele><time>2026-04-12T08:25:55.451Z</time></trkpt><trkpt lat="44.7384883" lon="8.0934317"><ele>158.5</ele><time>2026-04-12T08:25:57.451Z</time></trkpt><trkpt lat="44.73843" lon="8.0934667"><ele>159.0</ele><time>2026-04-12T08:25:58.451Z</time></trkpt><trkpt lat="44.73837" lon="8.0934983"><ele>159.5</ele><time>2026-04-12T08:25:59.451Z</time></trkpt><trkpt lat="44.7382583" lon="8.093565"><ele>160.0</ele><time>2026-04-12T08:26:01.451Z</time></trkpt><trkpt lat="44.738145" lon="8.0936183"><ele>160.5</ele><time>2026-04-12T08:26:03.451Z</time></trkpt><trkpt lat="44.7380833" lon="8.093645"><ele>161.0</ele><time>2026-04-12T08:26:04.451Z</time></trkpt><trkpt lat="44.7380217" lon="8.093665"><ele>161.0</ele><time>2026-04-12T08:26:05.451Z</time></trkpt><trkpt lat="44.7379067" lon="8.09371"><ele>161.0</ele><time>2026-04-12T08:26:07.451Z</time></trkpt><trkpt lat="44.73779" lon="8.0937583"><ele>161.0</ele><time>2026-04-12T08:26:09.452Z</time></trkpt><trkpt lat="44.7376683" lon="8.0938017"><ele>161.0</ele><time>2026-04-12T08:26:11.451Z</time></trkpt><trkpt lat="44.7376033" lon="8.0938233"><ele>161.0</ele><time>2026-04-12T08:26:12.451Z</time></trkpt><trkpt lat="44.7374817" lon="8.093855"><ele>161.16666666666666</ele><time>2026-04-12T08:26:14.451Z</time></trkpt><trkpt lat="44.73736" lon="8.093905"><ele>161.33333333333331</ele><time>2026-04-12T08:26:16.451Z</time></trkpt><trkpt lat="44.7372967" lon="8.0939267"><ele>161.5</ele><time>2026-04-12T08:26:17.451Z</time></trkpt><trkpt lat="44.7372317" lon="8.09394"><ele>161.66666666666666</ele><time>2026-04-12T08:26:18.451Z</time></trkpt><trkpt lat="44.7371083" lon="8.0939633"><ele>161.83333333333334</ele><time>2026-04-12T08:26:20.452Z</time></trkpt><trkpt lat="44.737045" lon="8.0939783"><ele>162.0</ele><time>2026-04-12T08:26:21.451Z</time></trkpt><trkpt lat="44.7369817" lon="8.0939917"><ele>163.0</ele><time>2026-04-12T08:26:22.451Z</time></trkpt><trkpt lat="44.7368633" lon="8.094005"><ele>164.0</ele><time>2026-04-12T08:26:24.451Z</time></trkpt><trkpt lat="44.7367467" lon="8.094025"><ele>165.0</ele><time>2026-04-12T08:26:26.451Z</time></trkpt><trkpt lat="44.736625" lon="8.0940417"><ele>166.0</ele><time>2026-04-12T08:26:28.451Z</time></trkpt><trkpt lat="44.7365017" lon="8.094055"><ele>166.0</ele><time>2026-04-12T08:26:30.451Z</time></trkpt><trkpt lat="44.7364383" lon="8.0940617"><ele>166.0</ele><time>2026-04-12T08:26:31.451Z</time></trkpt><trkpt lat="44.736375" lon="8.0940683"><ele>166.0</ele><time>2026-04-12T08:26:32.451Z</time></trkpt><trkpt lat="44.7363117" lon="8.0940783"><ele>166.0</ele><time>2026-04-12T08:26:33.451Z</time></trkpt><trkpt lat="44.7362467" lon="8.0940933"><ele>166.0</ele><time>2026-04-12T08:26:34.451Z</time></trkpt><trkpt lat="44.73613" lon="8.0941267"><ele>166.0</ele><time>2026-04-12T08:26:36.451Z</time></trkpt><trkpt lat="44.73601" lon="8.0941617"><ele>165.60000000000002</ele><time>2026-04-12T08:26:38.451Z</time></trkpt><trkpt lat="44.735885" lon="8.0942"><ele>165.2</ele><time>2026-04-12T08:26:40.451Z</time></trkpt><trkpt lat="44.7357667" lon="8.0942367"><ele>164.8</ele><time>2026-04-12T08:26:42.451Z</time></trkpt><trkpt lat="44.7356417" lon="8.09426"><ele>164.39999999999998</ele><time>2026-04-12T08:26:44.452Z</time></trkpt><trkpt lat="44.7355767" lon="8.094275"><ele>164.0</ele><time>2026-04-12T08:26:45.452Z</time></trkpt><trkpt lat="44.735515" lon="8.0942933"><ele>163.99999999999997</ele><time>2026-04-12T08:26:46.452Z</time></trkpt><trkpt lat="44.7354467" lon="8.094305"><ele>164.0</ele><time>2026-04-12T08:26:47.452Z</time></trkpt><trkpt lat="44.735385" lon="8.0943233"><ele>164.0</ele><time>2026-04-12T08:26:48.452Z</time></trkpt><trkpt lat="44.7352667" lon="8.0943567"><ele>164.0</ele><time>2026-04-12T08:26:50.452Z</time></trkpt><trkpt lat="44.7352033" lon="8.09437"><ele>164.0</ele><time>2026-04-12T08:26:51.452Z</time></trkpt><trkpt lat="44.7351383" lon="8.0943867"><ele>163.99999999999997</ele><time>2026-04-12T08:26:52.452Z</time></trkpt><trkpt lat="44.735075" lon="8.0944067"><ele>164.0</ele><time>2026-04-12T08:26:53.452Z</time></trkpt><trkpt lat="44.7350083" lon="8.0944267"><ele>163.66666666666666</ele><time>2026-04-12T08:26:54.452Z</time></trkpt><trkpt lat="44.7349417" lon="8.094445"><ele>163.33333333333331</ele><time>2026-04-12T08:26:55.452Z</time></trkpt><trkpt lat="44.7348133" lon="8.0944733"><ele>163.0</ele><time>2026-04-12T08:26:57.452Z</time></trkpt><trkpt lat="44.7347433" lon="8.0944767"><ele>162.66666666666666</ele><time>2026-04-12T08:26:58.452Z</time></trkpt><trkpt lat="44.73468" lon="8.094475"><ele>162.33333333333334</ele><time>2026-04-12T08:26:59.452Z</time></trkpt><trkpt lat="44.734615" lon="8.0944717"><ele>162.0</ele><time>2026-04-12T08:27:00.452Z</time></trkpt><trkpt lat="44.7345517" lon="8.09446"><ele>162.0</ele><time>2026-04-12T08:27:01.452Z</time></trkpt><trkpt lat="44.7344883" lon="8.0944417"><ele>162.0</ele><time>2026-04-12T08:27:02.452Z</time></trkpt><trkpt lat="44.73442" lon="8.0944317"><ele>162.0</ele><time>2026-04-12T08:27:03.452Z</time></trkpt><trkpt lat="44.7343583" lon="8.09441"><ele>162.0</ele><time>2026-04-12T08:27:04.452Z</time></trkpt><trkpt lat="44.734295" lon="8.0943883"><ele>162.0</ele><time>2026-04-12T08:27:05.453Z</time></trkpt><trkpt lat="44.7342333" lon="8.09436"><ele>162.0</ele><time>2026-04-12T08:27:06.452Z</time></trkpt><trkpt lat="44.7341667" lon="8.094335"><ele>162.0</ele><time>2026-04-12T08:27:07.452Z</time></trkpt><trkpt lat="44.7340967" lon="8.0943133"><ele>162.0</ele><time>2026-04-12T08:27:08.452Z</time></trkpt><trkpt lat="44.73403" lon="8.0942917"><ele>162.0</ele><time>2026-04-12T08:27:09.452Z</time></trkpt><trkpt lat="44.733965" lon="8.0942733"><ele>162.0</ele><time>2026-04-12T08:27:10.452Z</time></trkpt><trkpt lat="44.733895" lon="8.0942517"><ele>162.0</ele><time>2026-04-12T08:27:11.452Z</time></trkpt><trkpt lat="44.7338283" lon="8.0942267"><ele>162.0</ele><time>2026-04-12T08:27:12.453Z</time></trkpt><trkpt lat="44.733765" lon="8.0942083"><ele>162.0</ele><time>2026-04-12T08:27:13.452Z</time></trkpt><trkpt lat="44.7337033" lon="8.0941867"><ele>162.0</ele><time>2026-04-12T08:27:14.452Z</time></trkpt><trkpt lat="44.7336383" lon="8.0941583"><ele>162.0</ele><time>2026-04-12T08:27:15.452Z</time></trkpt><trkpt lat="44.73357" lon="8.094135"><ele>162.0</ele><time>2026-04-12T08:27:16.452Z</time></trkpt><trkpt lat="44.7335067" lon="8.0941117"><ele>162.0</ele><time>2026-04-12T08:27:17.452Z</time></trkpt><trkpt lat="44.7334433" lon="8.094095"><ele>162.0</ele><time>2026-04-12T08:27:18.452Z</time></trkpt><trkpt lat="44.7333283" lon="8.094075"><ele>162.0</ele><time>2026-04-12T08:27:20.452Z</time></trkpt><trkpt lat="44.733265" lon="8.0940717"><ele>162.0</ele><time>2026-04-12T08:27:21.452Z</time></trkpt><trkpt lat="44.7332" lon="8.094075"><ele>162.0</ele><time>2026-04-12T08:27:22.452Z</time></trkpt><trkpt lat="44.7331333" lon="8.0940833"><ele>162.39999999999998</ele><time>2026-04-12T08:27:23.452Z</time></trkpt><trkpt lat="44.7330667" lon="8.0940933"><ele>162.79999999999998</ele><time>2026-04-12T08:27:24.452Z</time></trkpt><trkpt lat="44.7329417" lon="8.0941033"><ele>163.2</ele><time>2026-04-12T08:27:26.452Z</time></trkpt><trkpt lat="44.7328233" lon="8.0941067"><ele>163.6</ele><time>2026-04-12T08:27:28.452Z</time></trkpt><trkpt lat="44.7327033" lon="8.094105"><ele>164.0</ele><time>2026-04-12T08:27:30.452Z</time></trkpt><trkpt lat="44.7325883" lon="8.09412"><ele>164.39999999999998</ele><time>2026-04-12T08:27:32.452Z</time></trkpt><trkpt lat="44.7324767" lon="8.0941367"><ele>164.8</ele><time>2026-04-12T08:27:34.452Z</time></trkpt><trkpt lat="44.732355" lon="8.0941533"><ele>165.2</ele><time>2026-04-12T08:27:36.452Z</time></trkpt><trkpt lat="44.7322883" lon="8.094155"><ele>165.60000000000002</ele><time>2026-04-12T08:27:37.452Z</time></trkpt><trkpt lat="44.73217" lon="8.0941683"><ele>166.0</ele><time>2026-04-12T08:27:39.452Z</time></trkpt><trkpt lat="44.7320483" lon="8.0941783"><ele>166.0</ele><time>2026-04-12T08:27:41.452Z</time></trkpt><trkpt lat="44.7319283" lon="8.0941867"><ele>166.0</ele><time>2026-04-12T08:27:43.452Z</time></trkpt><trkpt lat="44.7318633" lon="8.09419"><ele>166.0</ele><time>2026-04-12T08:27:44.452Z</time></trkpt><trkpt lat="44.7318" lon="8.0941933"><ele>166.0</ele><time>2026-04-12T08:27:45.453Z</time></trkpt><trkpt lat="44.7316817" lon="8.0942"><ele>166.0</ele><time>2026-04-12T08:27:47.452Z</time></trkpt><trkpt lat="44.73157" lon="8.09421"><ele>166.60000000000002</ele><time>2026-04-12T08:27:49.452Z</time></trkpt><trkpt lat="44.73145" lon="8.0942217"><ele>167.2</ele><time>2026-04-12T08:27:51.452Z</time></trkpt><trkpt lat="44.7313867" lon="8.0942267"><ele>167.8</ele><time>2026-04-12T08:27:52.452Z</time></trkpt><trkpt lat="44.7312683" lon="8.094235"><ele>168.39999999999998</ele><time>2026-04-12T08:27:54.452Z</time></trkpt><trkpt lat="44.7311533" lon="8.0942467"><ele>169.0</ele><time>2026-04-12T08:27:56.452Z</time></trkpt><trkpt lat="44.7310333" lon="8.0942633"><ele>169.0</ele><time>2026-04-12T08:27:58.452Z</time></trkpt><trkpt lat="44.7309683" lon="8.0942683"><ele>169.0</ele><time>2026-04-12T08:27:59.452Z</time></trkpt><trkpt lat="44.730845" lon="8.0942833"><ele>169.0</ele><time>2026-04-12T08:28:01.452Z</time></trkpt><trkpt lat="44.730725" lon="8.094285"><ele>169.0</ele><time>2026-04-12T08:28:03.452Z</time></trkpt><trkpt lat="44.7306133" lon="8.09429"><ele>169.0</ele><time>2026-04-12T08:28:05.452Z</time></trkpt><trkpt lat="44.7305183" lon="8.09428"><ele>169.0</ele><time>2026-04-12T08:28:07.453Z</time></trkpt><trkpt lat="44.7304467" lon="8.0941917"><ele>169.0</ele><time>2026-04-12T08:28:09.452Z</time></trkpt><trkpt lat="44.7303983" lon="8.0940483"><ele>169.0</ele><time>2026-04-12T08:28:11.452Z</time></trkpt><trkpt lat="44.73039" lon="8.0938983"><ele>169.0</ele><time>2026-04-12T08:28:13.452Z</time></trkpt><trkpt lat="44.7303917" lon="8.0937517"><ele>169.0</ele><time>2026-04-12T08:28:15.452Z</time></trkpt><trkpt lat="44.7303933" lon="8.0936417"><ele>169.66666666666669</ele><time>2026-04-12T08:28:17.452Z</time></trkpt><trkpt lat="44.7304067" lon="8.0935283"><ele>170.33333333333334</ele><time>2026-04-12T08:28:20.452Z</time></trkpt><trkpt lat="44.7304233" lon="8.093415"><ele>171.0</ele><time>2026-04-12T08:28:23.452Z</time></trkpt><trkpt lat="44.7304317" lon="8.0932917"><ele>171.66666666666666</ele><time>2026-04-12T08:28:26.452Z</time></trkpt><trkpt lat="44.730445" lon="8.0932017"><ele>172.33333333333331</ele><time>2026-04-12T08:28:29.452Z</time></trkpt><trkpt lat="44.730495" lon="8.0931033"><ele>173.0</ele><time>2026-04-12T08:28:32.452Z</time></trkpt><trkpt lat="44.73056" lon="8.0930167"><ele>175.0</ele><time>2026-04-12T08:28:35.452Z</time></trkpt><trkpt lat="44.7306367" lon="8.09296"><ele>177.0</ele><time>2026-04-12T08:28:38.452Z</time></trkpt><trkpt lat="44.7307183" lon="8.0929183"><ele>179.0</ele><time>2026-04-12T08:28:41.452Z</time></trkpt><trkpt lat="44.7307933" lon="8.0929"><ele>181.0</ele><time>2026-04-12T08:28:44.452Z</time></trkpt><trkpt lat="44.7308767" lon="8.09286"><ele>183.0</ele><time>2026-04-12T08:28:47.452Z</time></trkpt><trkpt lat="44.730945" lon="8.0928367"><ele>185.0</ele><time>2026-04-12T08:28:50.452Z</time></trkpt><trkpt lat="44.7310133" lon="8.0927983"><ele>183.5</ele><time>2026-04-12T08:28:53.452Z</time></trkpt><trkpt lat="44.7310733" lon="8.0927667"><ele>182.0</ele><time>2026-04-12T08:28:55.452Z</time></trkpt><trkpt lat="44.7311483" lon="8.0926933"><ele>180.5</ele><time>2026-04-12T08:28:58.452Z</time></trkpt><trkpt lat="44.7312233" lon="8.0926217"><ele>179.0</ele><time>2026-04-12T08:29:01.452Z</time></trkpt><trkpt lat="44.73129" lon="8.0925517"><ele>177.5</ele><time>2026-04-12T08:29:04.453Z</time></trkpt><trkpt lat="44.73134" lon="8.0924933"><ele>176.0</ele><time>2026-04-12T08:29:06.452Z</time></trkpt><trkpt lat="44.73139" lon="8.0924367"><ele>178.0</ele><time>2026-04-12T08:29:08.452Z</time></trkpt><trkpt lat="44.7314433" lon="8.0923833"><ele>180.0</ele><time>2026-04-12T08:29:10.452Z</time></trkpt><trkpt lat="44.7314917" lon="8.0923183"><ele>182.0</ele><time>2026-04-12T08:29:12.452Z</time></trkpt><trkpt lat="44.731535" lon="8.0922533"><ele>184.0</ele><time>2026-04-12T08:29:14.452Z</time></trkpt><trkpt lat="44.731575" lon="8.0921817"><ele>186.0</ele><time>2026-04-12T08:29:16.452Z</time></trkpt><trkpt lat="44.731625" lon="8.092125"><ele>188.0</ele><time>2026-04-12T08:29:18.452Z</time></trkpt><trkpt lat="44.73168" lon="8.0920667"><ele>190.0</ele><time>2026-04-12T08:29:20.452Z</time></trkpt><trkpt lat="44.7317317" lon="8.0920117"><ele>190.0</ele><time>2026-04-12T08:29:22.452Z</time></trkpt><trkpt lat="44.73181" lon="8.09195"><ele>190.0</ele><time>2026-04-12T08:29:25.452Z</time></trkpt><trkpt lat="44.731895" lon="8.0919183"><ele>190.0</ele><time>2026-04-12T08:29:28.452Z</time></trkpt><trkpt lat="44.73198" lon="8.091885"><ele>190.0</ele><time>2026-04-12T08:29:31.452Z</time></trkpt><trkpt lat="44.7320567" lon="8.0918567"><ele>190.0</ele><time>2026-04-12T08:29:34.452Z</time></trkpt><trkpt lat="44.7321367" lon="8.091825"><ele>190.0</ele><time>2026-04-12T08:29:37.452Z</time></trkpt><trkpt lat="44.7322133" lon="8.0918"><ele>190.5</ele><time>2026-04-12T08:29:40.452Z</time></trkpt><trkpt lat="44.7323017" lon="8.0917733"><ele>191.0</ele><time>2026-04-12T08:29:43.452Z</time></trkpt><trkpt lat="44.7323817" lon="8.0917433"><ele>191.5</ele><time>2026-04-12T08:29:46.452Z</time></trkpt><trkpt lat="44.7324533" lon="8.0916817"><ele>192.0</ele><time>2026-04-12T08:29:49.452Z</time></trkpt><trkpt lat="44.73252" lon="8.09161"><ele>192.49999999999997</ele><time>2026-04-12T08:29:52.452Z</time></trkpt><trkpt lat="44.7325817" lon="8.0915283"><ele>193.0</ele><time>2026-04-12T08:29:55.452Z</time></trkpt><trkpt lat="44.7326467" lon="8.0914483"><ele>193.33333333333331</ele><time>2026-04-12T08:29:58.452Z</time></trkpt><trkpt lat="44.7327" lon="8.09135"><ele>193.66666666666666</ele><time>2026-04-12T08:30:01.452Z</time></trkpt><trkpt lat="44.7327517" lon="8.09125"><ele>194.0</ele><time>2026-04-12T08:30:04.452Z</time></trkpt><trkpt lat="44.7328067" lon="8.0911583"><ele>194.33333333333331</ele><time>2026-04-12T08:30:07.452Z</time></trkpt><trkpt lat="44.7328683" lon="8.0910817"><ele>194.66666666666666</ele><time>2026-04-12T08:30:10.452Z</time></trkpt><trkpt lat="44.7329267" lon="8.0909967"><ele>195.0</ele><time>2026-04-12T08:30:13.453Z</time></trkpt><trkpt lat="44.7329883" lon="8.0909183"><ele>195.0</ele><time>2026-04-12T08:30:16.452Z</time></trkpt><trkpt lat="44.73305" lon="8.0908533"><ele>195.0</ele><time>2026-04-12T08:30:19.452Z</time></trkpt><trkpt lat="44.7331133" lon="8.09078"><ele>195.0</ele><time>2026-04-12T08:30:22.452Z</time></trkpt><trkpt lat="44.7331783" lon="8.0907117"><ele>195.0</ele><time>2026-04-12T08:30:25.452Z</time></trkpt><trkpt lat="44.73324" lon="8.09063"><ele>195.0</ele><time>2026-04-12T08:30:28.452Z</time></trkpt><trkpt lat="44.7332983" lon="8.0905567"><ele>195.0</ele><time>2026-04-12T08:30:30.452Z</time></trkpt><trkpt lat="44.733355" lon="8.0905083"><ele>197.66666666666666</ele><time>2026-04-12T08:30:32.453Z</time></trkpt><trkpt lat="44.7334083" lon="8.090435"><ele>200.33333333333331</ele><time>2026-04-12T08:30:35.452Z</time></trkpt><trkpt lat="44.7334633" lon="8.0903383"><ele>203.0</ele><time>2026-04-12T08:30:38.452Z</time></trkpt><trkpt lat="44.73353" lon="8.0902617"><ele>205.66666666666666</ele><time>2026-04-12T08:30:41.452Z</time></trkpt><trkpt lat="44.7336017" lon="8.0902033"><ele>208.33333333333331</ele><time>2026-04-12T08:30:44.452Z</time></trkpt><trkpt lat="44.73368" lon="8.0901383"><ele>211.0</ele><time>2026-04-12T08:30:47.452Z</time></trkpt><trkpt lat="44.7337367" lon="8.0900883"><ele>211.0</ele><time>2026-04-12T08:30:49.452Z</time></trkpt><trkpt lat="44.733795" lon="8.0900333"><ele>211.0</ele><time>2026-04-12T08:30:51.452Z</time></trkpt><trkpt lat="44.7338617" lon="8.0899683"><ele>211.0</ele><time>2026-04-12T08:30:54.452Z</time></trkpt><trkpt lat="44.733945" lon="8.0899417"><ele>211.0</ele><time>2026-04-12T08:30:57.452Z</time></trkpt><trkpt lat="44.7340117" lon="8.0899333"><ele>211.0</ele><time>2026-04-12T08:30:59.452Z</time></trkpt><trkpt lat="44.7340833" lon="8.0899467"><ele>211.0</ele><time>2026-04-12T08:31:01.452Z</time></trkpt><trkpt lat="44.7341517" lon="8.0899617"><ele>211.0</ele><time>2026-04-12T08:31:03.452Z</time></trkpt><trkpt lat="44.73424" lon="8.0900067"><ele>211.0</ele><time>2026-04-12T08:31:06.452Z</time></trkpt><trkpt lat="44.7343033" lon="8.09004"><ele>211.0</ele><time>2026-04-12T08:31:08.452Z</time></trkpt><trkpt lat="44.7343867" lon="8.0900833"><ele>211.0</ele><time>2026-04-12T08:31:11.452Z</time></trkpt><trkpt lat="44.734445" lon="8.0901183"><ele>211.0</ele><time>2026-04-12T08:31:13.452Z</time></trkpt><trkpt lat="44.73451" lon="8.0901433"><ele>211.0</ele><time>2026-04-12T08:31:15.452Z</time></trkpt><trkpt lat="44.7345733" lon="8.0901583"><ele>211.0</ele><time>2026-04-12T08:31:17.452Z</time></trkpt><trkpt lat="44.7346683" lon="8.0901533"><ele>211.0</ele><time>2026-04-12T08:31:20.452Z</time></trkpt><trkpt lat="44.7347317" lon="8.0901517"><ele>211.42857142857144</ele><time>2026-04-12T08:31:22.452Z</time></trkpt><trkpt lat="44.7348167" lon="8.0901117"><ele>211.85714285714286</ele><time>2026-04-12T08:31:25.452Z</time></trkpt><trkpt lat="44.7348767" lon="8.0900467"><ele>212.28571428571428</ele><time>2026-04-12T08:31:27.452Z</time></trkpt><trkpt lat="44.7349283" lon="8.0899783"><ele>212.71428571428572</ele><time>2026-04-12T08:31:29.452Z</time></trkpt><trkpt lat="44.7349733" lon="8.08989"><ele>213.14285714285714</ele><time>2026-04-12T08:31:31.452Z</time></trkpt><trkpt lat="44.7350133" lon="8.089815"><ele>213.57142857142858</ele><time>2026-04-12T08:31:33.452Z</time></trkpt><trkpt lat="44.73506" lon="8.0897433"><ele>214.0</ele><time>2026-04-12T08:31:35.452Z</time></trkpt><trkpt lat="44.7351217" lon="8.089635"><ele>215.16666666666666</ele><time>2026-04-12T08:31:38.452Z</time></trkpt><trkpt lat="44.7351883" lon="8.0895417"><ele>216.33333333333331</ele><time>2026-04-12T08:31:41.452Z</time></trkpt><trkpt lat="44.7352367" lon="8.089475"><ele>217.5</ele><time>2026-04-12T08:31:43.452Z</time></trkpt><trkpt lat="44.7353133" lon="8.0894067"><ele>218.66666666666669</ele><time>2026-04-12T08:31:46.452Z</time></trkpt><trkpt lat="44.735375" lon="8.0893667"><ele>219.83333333333334</ele><time>2026-04-12T08:31:48.452Z</time></trkpt><trkpt lat="44.7354417" lon="8.0893233"><ele>221.0</ele><time>2026-04-12T08:31:50.452Z</time></trkpt><trkpt lat="44.7355267" lon="8.0892667"><ele>221.00000000000003</ele><time>2026-04-12T08:31:53.452Z</time></trkpt><trkpt lat="44.7355867" lon="8.089235"><ele>221.0</ele><time>2026-04-12T08:31:55.452Z</time></trkpt><trkpt lat="44.7356467" lon="8.0891983"><ele>221.0</ele><time>2026-04-12T08:31:57.452Z</time></trkpt><trkpt lat="44.73571" lon="8.089175"><ele>221.0</ele><time>2026-04-12T08:31:59.452Z</time></trkpt><trkpt lat="44.7357767" lon="8.0891483"><ele>221.0</ele><time>2026-04-12T08:32:01.452Z</time></trkpt><trkpt lat="44.7358333" lon="8.0891067"><ele>221.00000000000003</ele><time>2026-04-12T08:32:03.452Z</time></trkpt><trkpt lat="44.7358933" lon="8.0890617"><ele>221.0</ele><time>2026-04-12T08:32:05.452Z</time></trkpt><trkpt lat="44.735945" lon="8.0890033"><ele>222.66666666666669</ele><time>2026-04-12T08:32:07.452Z</time></trkpt><trkpt lat="44.7359883" lon="8.0889183"><ele>224.33333333333334</ele><time>2026-04-12T08:32:09.452Z</time></trkpt><trkpt lat="44.736015" lon="8.08882"><ele>226.0</ele><time>2026-04-12T08:32:11.452Z</time></trkpt><trkpt lat="44.7360183" lon="8.0887183"><ele>227.66666666666669</ele><time>2026-04-12T08:32:13.452Z</time></trkpt><trkpt lat="44.7359883" lon="8.088605"><ele>229.33333333333334</ele><time>2026-04-12T08:32:16.452Z</time></trkpt><trkpt lat="44.7359433" lon="8.0885133"><ele>231.0</ele><time>2026-04-12T08:32:19.452Z</time></trkpt><trkpt lat="44.7359233" lon="8.0884117"><ele>231.0</ele><time>2026-04-12T08:32:22.452Z</time></trkpt><trkpt lat="44.7359167" lon="8.0883117"><ele>231.0</ele><time>2026-04-12T08:32:24.452Z</time></trkpt><trkpt lat="44.7358917" lon="8.0882117"><ele>231.0</ele><time>2026-04-12T08:32:26.452Z</time></trkpt><trkpt lat="44.7358317" lon="8.08812"><ele>231.0</ele><time>2026-04-12T08:32:29.452Z</time></trkpt><trkpt lat="44.7357817" lon="8.0880367"><ele>231.0</ele><time>2026-04-12T08:32:32.452Z</time></trkpt><trkpt lat="44.735735" lon="8.08797"><ele>231.0</ele><time>2026-04-12T08:32:35.452Z</time></trkpt><trkpt lat="44.7356817" lon="8.087905"><ele>230.85714285714286</ele><time>2026-04-12T08:32:38.453Z</time></trkpt><trkpt lat="44.7356133" lon="8.0878633"><ele>230.71428571428572</ele><time>2026-04-12T08:32:41.453Z</time></trkpt><trkpt lat="44.7355433" lon="8.0878267"><ele>230.57142857142856</ele><time>2026-04-12T08:32:44.452Z</time></trkpt><trkpt lat="44.7354767" lon="8.0878"><ele>230.42857142857142</ele><time>2026-04-12T08:32:47.452Z</time></trkpt><trkpt lat="44.7354083" lon="8.0877717"><ele>230.28571428571428</ele><time>2026-04-12T08:32:50.452Z</time></trkpt><trkpt lat="44.7353383" lon="8.08775"><ele>230.1428571428571</ele><time>2026-04-12T08:32:53.452Z</time></trkpt><trkpt lat="44.735275" lon="8.0877333"><ele>229.99999999999997</ele><time>2026-04-12T08:32:56.452Z</time></trkpt><trkpt lat="44.7352083" lon="8.0877033"><ele>231.57142857142856</ele><time>2026-04-12T08:32:59.452Z</time></trkpt><trkpt lat="44.7351467" lon="8.0876733"><ele>233.14285714285714</ele><time>2026-04-12T08:33:02.452Z</time></trkpt><trkpt lat="44.735085" lon="8.0876533"><ele>234.71428571428572</ele><time>2026-04-12T08:33:05.452Z</time></trkpt><trkpt lat="44.7350217" lon="8.087625"><ele>236.28571428571428</ele><time>2026-04-12T08:33:08.452Z</time></trkpt><trkpt lat="44.7349467" lon="8.0875917"><ele>237.8571428571429</ele><time>2026-04-12T08:33:12.452Z</time></trkpt><trkpt lat="44.7348833" lon="8.0875517"><ele>239.42857142857144</ele><time>2026-04-12T08:33:15.452Z</time></trkpt><trkpt lat="44.734815" lon="8.0874917"><ele>241.0</ele><time>2026-04-12T08:33:19.452Z</time></trkpt><trkpt lat="44.7347567" lon="8.0874233"><ele>241.0</ele><time>2026-04-12T08:33:22.452Z</time></trkpt><trkpt lat="44.734695" lon="8.087365"><ele>241.00000000000003</ele><time>2026-04-12T08:33:25.452Z</time></trkpt><trkpt lat="44.7346367" lon="8.0872967"><ele>241.0</ele><time>2026-04-12T08:33:28.453Z</time></trkpt><trkpt lat="44.734585" lon="8.0872367"><ele>241.0</ele><time>2026-04-12T08:33:31.453Z</time></trkpt><trkpt lat="44.734525" lon="8.0871817"><ele>241.00000000000003</ele><time>2026-04-12T08:33:34.452Z</time></trkpt><trkpt lat="44.73447" lon="8.08713"><ele>241.0</ele><time>2026-04-12T08:33:37.452Z</time></trkpt><trkpt lat="44.734415" lon="8.08707"><ele>241.0</ele><time>2026-04-12T08:33:40.452Z</time></trkpt><trkpt lat="44.7343683" lon="8.0869883"><ele>243.83333333333331</ele><time>2026-04-12T08:33:43.452Z</time></trkpt><trkpt lat="44.7343117" lon="8.0869267"><ele>246.66666666666666</ele><time>2026-04-12T08:33:46.452Z</time></trkpt><trkpt lat="44.73424" lon="8.08687"><ele>249.5</ele><time>2026-04-12T08:33:50.452Z</time></trkpt><trkpt lat="44.7341783" lon="8.0868283"><ele>252.33333333333331</ele><time>2026-04-12T08:33:53.452Z</time></trkpt><trkpt lat="44.73411" lon="8.0867683"><ele>255.16666666666666</ele><time>2026-04-12T08:33:57.452Z</time></trkpt><trkpt lat="44.7340367" lon="8.0867267"><ele>258.0</ele><time>2026-04-12T08:34:01.452Z</time></trkpt><trkpt lat="44.733955" lon="8.0866933"><ele>257.99999999999994</ele><time>2026-04-12T08:34:05.452Z</time></trkpt><trkpt lat="44.73389" lon="8.086685"><ele>258.0</ele><time>2026-04-12T08:34:08.452Z</time></trkpt><trkpt lat="44.7338183" lon="8.0866733"><ele>258.0</ele><time>2026-04-12T08:34:12.452Z</time></trkpt><trkpt lat="44.7337633" lon="8.0866283"><ele>258.0</ele><time>2026-04-12T08:34:15.452Z</time></trkpt><trkpt lat="44.7336933" lon="8.08659"><ele>258.0</ele><time>2026-04-12T08:34:18.452Z</time></trkpt><trkpt lat="44.7336233" lon="8.0865567"><ele>257.99999999999994</ele><time>2026-04-12T08:34:21.452Z</time></trkpt><trkpt lat="44.73355" lon="8.0865167"><ele>258.0</ele><time>2026-04-12T08:34:24.452Z</time></trkpt><trkpt lat="44.7334683" lon="8.0864933"><ele>258.0</ele><time>2026-04-12T08:34:27.453Z</time></trkpt><trkpt lat="44.7333817" lon="8.086475"><ele>258.0</ele><time>2026-04-12T08:34:30.452Z</time></trkpt><trkpt lat="44.7332917" lon="8.08643"><ele>258.0</ele><time>2026-04-12T08:34:33.452Z</time></trkpt><trkpt lat="44.733225" lon="8.08641"><ele>258.0</ele><time>2026-04-12T08:34:35.452Z</time></trkpt><trkpt lat="44.7331367" lon="8.086385"><ele>258.0</ele><time>2026-04-12T08:34:38.452Z</time></trkpt><trkpt lat="44.7330717" lon="8.0863633"><ele>258.0</ele><time>2026-04-12T08:34:40.452Z</time></trkpt><trkpt lat="44.7330083" lon="8.0863517"><ele>257.99999999999994</ele><time>2026-04-12T08:34:42.452Z</time></trkpt><trkpt lat="44.7329383" lon="8.0863317"><ele>258.0</ele><time>2026-04-12T08:34:44.452Z</time></trkpt><trkpt lat="44.7328683" lon="8.0863133"><ele>258.0</ele><time>2026-04-12T08:34:46.452Z</time></trkpt><trkpt lat="44.7327983" lon="8.0863"><ele>258.0</ele><time>2026-04-12T08:34:48.452Z</time></trkpt><trkpt lat="44.73273" lon="8.0862933"><ele>258.0</ele><time>2026-04-12T08:34:50.452Z</time></trkpt><trkpt lat="44.732665" lon="8.086295"><ele>257.99999999999994</ele><time>2026-04-12T08:34:52.452Z</time></trkpt><trkpt lat="44.7325967" lon="8.086295"><ele>258.0</ele><time>2026-04-12T08:34:54.452Z</time></trkpt><trkpt lat="44.73253" lon="8.086295"><ele>259.2857142857143</ele><time>2026-04-12T08:34:56.453Z</time></trkpt><trkpt lat="44.7324583" lon="8.0862817"><ele>260.57142857142856</ele><time>2026-04-12T08:34:58.452Z</time></trkpt><trkpt lat="44.73239" lon="8.0862633"><ele>261.8571428571429</ele><time>2026-04-12T08:35:00.452Z</time></trkpt><trkpt lat="44.732325" lon="8.0862617"><ele>263.1428571428571</ele><time>2026-04-12T08:35:02.452Z</time></trkpt><trkpt lat="44.7322583" lon="8.0862633"><ele>264.42857142857144</ele><time>2026-04-12T08:35:04.452Z</time></trkpt><trkpt lat="44.7321883" lon="8.0862567"><ele>265.7142857142857</ele><time>2026-04-12T08:35:06.452Z</time></trkpt><trkpt lat="44.732125" lon="8.0862467"><ele>267.0</ele><time>2026-04-12T08:35:08.452Z</time></trkpt><trkpt lat="44.7320567" lon="8.0862383"><ele>267.00000000000006</ele><time>2026-04-12T08:35:10.452Z</time></trkpt><trkpt lat="44.7319867" lon="8.0862467"><ele>267.0</ele><time>2026-04-12T08:35:12.452Z</time></trkpt><trkpt lat="44.7319117" lon="8.0862583"><ele>267.0</ele><time>2026-04-12T08:35:14.452Z</time></trkpt><trkpt lat="44.731845" lon="8.086265"><ele>267.0</ele><time>2026-04-12T08:35:16.452Z</time></trkpt><trkpt lat="44.731775" lon="8.0862667"><ele>267.0</ele><time>2026-04-12T08:35:18.452Z</time></trkpt><trkpt lat="44.73171" lon="8.08628"><ele>267.00000000000006</ele><time>2026-04-12T08:35:20.452Z</time></trkpt><trkpt lat="44.7316183" lon="8.0863217"><ele>267.0</ele><time>2026-04-12T08:35:23.452Z</time></trkpt><trkpt lat="44.73153" lon="8.086365"><ele>267.2</ele><time>2026-04-12T08:35:26.452Z</time></trkpt><trkpt lat="44.7314417" lon="8.08641"><ele>267.4</ele><time>2026-04-12T08:35:29.452Z</time></trkpt><trkpt lat="44.73138" lon="8.086435"><ele>267.6</ele><time>2026-04-12T08:35:31.452Z</time></trkpt><trkpt lat="44.7312983" lon="8.0864617"><ele>267.8</ele><time>2026-04-12T08:35:33.452Z</time></trkpt><trkpt lat="44.7311967" lon="8.0864967"><ele>268.0</ele><time>2026-04-12T08:35:35.452Z</time></trkpt><trkpt lat="44.731095" lon="8.0865467"><ele>267.8571428571429</ele><time>2026-04-12T08:35:37.452Z</time></trkpt><trkpt lat="44.7310317" lon="8.0865617"><ele>267.7142857142857</ele><time>2026-04-12T08:35:38.452Z</time></trkpt><trkpt lat="44.7309633" lon="8.08658"><ele>267.57142857142856</ele><time>2026-04-12T08:35:39.452Z</time></trkpt><trkpt lat="44.7308933" lon="8.0866"><ele>267.42857142857144</ele><time>2026-04-12T08:35:40.452Z</time></trkpt><trkpt lat="44.7308233" lon="8.08662"><ele>267.2857142857143</ele><time>2026-04-12T08:35:41.452Z</time></trkpt><trkpt lat="44.730755" lon="8.08663"><ele>267.14285714285717</ele><time>2026-04-12T08:35:42.452Z</time></trkpt><trkpt lat="44.7306783" lon="8.0866467"><ele>267.0</ele><time>2026-04-12T08:35:43.452Z</time></trkpt><trkpt lat="44.7306033" lon="8.0866517"><ele>267.7142857142857</ele><time>2026-04-12T08:35:44.452Z</time></trkpt><trkpt lat="44.730525" lon="8.0866583"><ele>268.42857142857144</ele><time>2026-04-12T08:35:45.452Z</time></trkpt><trkpt lat="44.730455" lon="8.08666"><ele>269.1428571428571</ele><time>2026-04-12T08:35:46.452Z</time></trkpt><trkpt lat="44.73038" lon="8.0866583"><ele>269.8571428571429</ele><time>2026-04-12T08:35:47.452Z</time></trkpt><trkpt lat="44.7303033" lon="8.0866533"><ele>270.57142857142856</ele><time>2026-04-12T08:35:48.452Z</time></trkpt><trkpt lat="44.7302383" lon="8.0866333"><ele>271.2857142857143</ele><time>2026-04-12T08:35:49.452Z</time></trkpt><trkpt lat="44.730165" lon="8.0866217"><ele>272.0</ele><time>2026-04-12T08:35:50.453Z</time></trkpt><trkpt lat="44.7300983" lon="8.086605"><ele>270.0</ele><time>2026-04-12T08:35:51.452Z</time></trkpt><trkpt lat="44.7300233" lon="8.08659"><ele>268.0</ele><time>2026-04-12T08:35:52.452Z</time></trkpt><trkpt lat="44.729945" lon="8.086575"><ele>266.0</ele><time>2026-04-12T08:35:53.452Z</time></trkpt><trkpt lat="44.72987" lon="8.08656"><ele>264.0</ele><time>2026-04-12T08:35:54.452Z</time></trkpt><trkpt lat="44.7297883" lon="8.0865433"><ele>262.0</ele><time>2026-04-12T08:35:55.452Z</time></trkpt><trkpt lat="44.729705" lon="8.0865367"><ele>260.0</ele><time>2026-04-12T08:35:56.452Z</time></trkpt><trkpt lat="44.729615" lon="8.086535"><ele>260.0</ele><time>2026-04-12T08:35:57.452Z</time></trkpt><trkpt lat="44.7295267" lon="8.0865317"><ele>260.0</ele><time>2026-04-12T08:35:58.452Z</time></trkpt><trkpt lat="44.7294383" lon="8.086525"><ele>260.0</ele><time>2026-04-12T08:35:59.452Z</time></trkpt><trkpt lat="44.729345" lon="8.08651"><ele>260.0</ele><time>2026-04-12T08:36:00.452Z</time></trkpt><trkpt lat="44.7292467" lon="8.0865033"><ele>260.0</ele><time>2026-04-12T08:36:01.453Z</time></trkpt><trkpt lat="44.729155" lon="8.0864933"><ele>258.4</ele><time>2026-04-12T08:36:02.452Z</time></trkpt><trkpt lat="44.7290517" lon="8.0864733"><ele>256.8</ele><time>2026-04-12T08:36:03.452Z</time></trkpt><trkpt lat="44.72895" lon="8.0864433"><ele>255.2</ele><time>2026-04-12T08:36:04.452Z</time></trkpt><trkpt lat="44.7288583" lon="8.0864"><ele>253.6</ele><time>2026-04-12T08:36:05.452Z</time></trkpt><trkpt lat="44.728765" lon="8.0863533"><ele>252.0</ele><time>2026-04-12T08:36:06.452Z</time></trkpt><trkpt lat="44.7286783" lon="8.0863067"><ele>252.0</ele><time>2026-04-12T08:36:07.452Z</time></trkpt><trkpt lat="44.7285917" lon="8.0862533"><ele>252.0</ele><time>2026-04-12T08:36:08.452Z</time></trkpt><trkpt lat="44.7285083" lon="8.0861983"><ele>252.0</ele><time>2026-04-12T08:36:09.452Z</time></trkpt><trkpt lat="44.7284317" lon="8.0861367"><ele>252.0</ele><time>2026-04-12T08:36:10.452Z</time></trkpt><trkpt lat="44.7283583" lon="8.086075"><ele>252.0</ele><time>2026-04-12T08:36:11.452Z</time></trkpt><trkpt lat="44.7282833" lon="8.08601"><ele>252.0</ele><time>2026-04-12T08:36:12.452Z</time></trkpt><trkpt lat="44.7282133" lon="8.0859517"><ele>251.42857142857144</ele><time>2026-04-12T08:36:13.452Z</time></trkpt><trkpt lat="44.7281483" lon="8.0858917"><ele>250.85714285714286</ele><time>2026-04-12T08:36:14.452Z</time></trkpt><trkpt lat="44.7280883" lon="8.0858367"><ele>250.28571428571428</ele><time>2026-04-12T08:36:15.452Z</time></trkpt><trkpt lat="44.7280233" lon="8.0857933"><ele>249.71428571428572</ele><time>2026-04-12T08:36:16.452Z</time></trkpt><trkpt lat="44.72796" lon="8.08576"><ele>249.14285714285717</ele><time>2026-04-12T08:36:17.452Z</time></trkpt><trkpt lat="44.727895" lon="8.0857233"><ele>248.57142857142858</ele><time>2026-04-12T08:36:18.452Z</time></trkpt><trkpt lat="44.72783" lon="8.0856833"><ele>248.0</ele><time>2026-04-12T08:36:19.452Z</time></trkpt><trkpt lat="44.7277683" lon="8.085645"><ele>250.75</ele><time>2026-04-12T08:36:20.452Z</time></trkpt><trkpt lat="44.7276517" lon="8.0855817"><ele>253.5</ele><time>2026-04-12T08:36:22.453Z</time></trkpt><trkpt lat="44.7275367" lon="8.0855283"><ele>256.25</ele><time>2026-04-12T08:36:24.453Z</time></trkpt><trkpt lat="44.7274267" lon="8.0854767"><ele>259.0</ele><time>2026-04-12T08:36:26.452Z</time></trkpt><trkpt lat="44.7273133" lon="8.0854267"><ele>259.0</ele><time>2026-04-12T08:36:28.452Z</time></trkpt><trkpt lat="44.7272083" lon="8.0853833"><ele>259.0</ele><time>2026-04-12T08:36:30.452Z</time></trkpt><trkpt lat="44.7270933" lon="8.085325"><ele>259.0</ele><time>2026-04-12T08:36:32.452Z</time></trkpt><trkpt lat="44.726985" lon="8.08528"><ele>259.0</ele><time>2026-04-12T08:36:34.452Z</time></trkpt><trkpt lat="44.726895" lon="8.08523"><ele>259.0</ele><time>2026-04-12T08:36:36.452Z</time></trkpt><trkpt lat="44.726795" lon="8.085185"><ele>259.59999999999997</ele><time>2026-04-12T08:36:38.452Z</time></trkpt><trkpt lat="44.7266917" lon="8.08514"><ele>260.2</ele><time>2026-04-12T08:36:40.452Z</time></trkpt><trkpt lat="44.7266" lon="8.0850917"><ele>260.79999999999995</ele><time>2026-04-12T08:36:42.452Z</time></trkpt><trkpt lat="44.7265033" lon="8.08504"><ele>261.4</ele><time>2026-04-12T08:36:44.452Z</time></trkpt><trkpt lat="44.7264033" lon="8.085"><ele>262.0</ele><time>2026-04-12T08:36:46.452Z</time></trkpt><trkpt lat="44.726295" lon="8.0849567"><ele>262.0</ele><time>2026-04-12T08:36:48.452Z</time></trkpt><trkpt lat="44.726195" lon="8.0849117"><ele>262.0</ele><time>2026-04-12T08:36:50.452Z</time></trkpt><trkpt lat="44.7260917" lon="8.0848617"><ele>262.0</ele><time>2026-04-12T08:36:52.452Z</time></trkpt><trkpt lat="44.7259917" lon="8.0848217"><ele>262.0</ele><time>2026-04-12T08:36:54.452Z</time></trkpt><trkpt lat="44.7259083" lon="8.0847717"><ele>262.0</ele><time>2026-04-12T08:36:56.452Z</time></trkpt><trkpt lat="44.7258267" lon="8.0847333"><ele>262.0</ele><time>2026-04-12T08:36:58.452Z</time></trkpt><trkpt lat="44.7257483" lon="8.08469"><ele>262.0</ele><time>2026-04-12T08:37:00.452Z</time></trkpt><trkpt lat="44.7256867" lon="8.0846433"><ele>262.0</ele><time>2026-04-12T08:37:02.452Z</time></trkpt><trkpt lat="44.7256083" lon="8.0845867"><ele>262.0</ele><time>2026-04-12T08:37:05.452Z</time></trkpt><trkpt lat="44.7255367" lon="8.0845433"><ele>262.0</ele><time>2026-04-12T08:37:08.452Z</time></trkpt><trkpt lat="44.72552" lon="8.0844267"><ele>262.0</ele><time>2026-04-12T08:38:23.452Z</time></trkpt><trkpt lat="44.72549" lon="8.0843067"><ele>262.0</ele><time>2026-04-12T08:38:26.452Z</time></trkpt><trkpt lat="44.7254483" lon="8.0841883"><ele>262.0</ele><time>2026-04-12T08:38:28.452Z</time></trkpt><trkpt lat="44.7254" lon="8.0840633"><ele>262.0</ele><time>2026-04-12T08:38:30.452Z</time></trkpt><trkpt lat="44.7253433" lon="8.0839133"><ele>262.0</ele><time>2026-04-12T08:38:32.452Z</time></trkpt><trkpt lat="44.7253133" lon="8.0838317"><ele>262.0</ele><time>2026-04-12T08:38:33.452Z</time></trkpt><trkpt lat="44.7252783" lon="8.0837467"><ele>262.8571428571429</ele><time>2026-04-12T08:38:34.452Z</time></trkpt><trkpt lat="44.725245" lon="8.0836633"><ele>263.7142857142857</ele><time>2026-04-12T08:38:35.452Z</time></trkpt><trkpt lat="44.7252167" lon="8.0835817"><ele>264.57142857142856</ele><time>2026-04-12T08:38:36.452Z</time></trkpt><trkpt lat="44.7251867" lon="8.0834933"><ele>265.42857142857144</ele><time>2026-04-12T08:38:37.452Z</time></trkpt><trkpt lat="44.72516" lon="8.0834083"><ele>266.2857142857143</ele><time>2026-04-12T08:38:38.452Z</time></trkpt><trkpt lat="44.7251383" lon="8.083315"><ele>267.14285714285717</ele><time>2026-04-12T08:38:39.452Z</time></trkpt><trkpt lat="44.7251183" lon="8.0832167"><ele>268.0</ele><time>2026-04-12T08:38:40.452Z</time></trkpt><trkpt lat="44.7251033" lon="8.0831217"><ele>268.0</ele><time>2026-04-12T08:38:41.452Z</time></trkpt><trkpt lat="44.7250933" lon="8.08301"><ele>268.0</ele><time>2026-04-12T08:38:42.452Z</time></trkpt><trkpt lat="44.7250867" lon="8.0829"><ele>268.0</ele><time>2026-04-12T08:38:43.453Z</time></trkpt><trkpt lat="44.7250733" lon="8.0827917"><ele>268.0</ele><time>2026-04-12T08:38:44.452Z</time></trkpt><trkpt lat="44.7250617" lon="8.08269"><ele>268.0</ele><time>2026-04-12T08:38:45.452Z</time></trkpt><trkpt lat="44.725055" lon="8.0825783"><ele>268.0</ele><time>2026-04-12T08:38:46.452Z</time></trkpt><trkpt lat="44.7250467" lon="8.0824667"><ele>267.5</ele><time>2026-04-12T08:38:47.452Z</time></trkpt><trkpt lat="44.7250467" lon="8.0823417"><ele>267.0</ele><time>2026-04-12T08:38:48.453Z</time></trkpt><trkpt lat="44.7250517" lon="8.082215"><ele>266.5</ele><time>2026-04-12T08:38:49.452Z</time></trkpt><trkpt lat="44.7250467" lon="8.0820917"><ele>266.0</ele><time>2026-04-12T08:38:50.452Z</time></trkpt><trkpt lat="44.72504" lon="8.0819667"><ele>265.5</ele><time>2026-04-12T08:38:51.452Z</time></trkpt><trkpt lat="44.7250383" lon="8.0818433"><ele>265.0</ele><time>2026-04-12T08:38:52.453Z</time></trkpt><trkpt lat="44.7250383" lon="8.0817233"><ele>265.0</ele><time>2026-04-12T08:38:53.452Z</time></trkpt><trkpt lat="44.7250417" lon="8.08161"><ele>265.0</ele><time>2026-04-12T08:38:54.452Z</time></trkpt><trkpt lat="44.7250417" lon="8.0815017"><ele>265.0</ele><time>2026-04-12T08:38:55.452Z</time></trkpt><trkpt lat="44.7250433" lon="8.0814083"><ele>265.0</ele><time>2026-04-12T08:38:56.452Z</time></trkpt><trkpt lat="44.7250433" lon="8.0812983"><ele>265.0</ele><time>2026-04-12T08:38:58.452Z</time></trkpt><trkpt lat="44.7250683" lon="8.08118"><ele>265.0</ele><time>2026-04-12T08:39:00.452Z</time></trkpt><trkpt lat="44.72513" lon="8.0810817"><ele>264.4</ele><time>2026-04-12T08:39:02.452Z</time></trkpt><trkpt lat="44.7252067" lon="8.0810017"><ele>263.8</ele><time>2026-04-12T08:39:04.452Z</time></trkpt><trkpt lat="44.7252683" lon="8.080955"><ele>263.2</ele><time>2026-04-12T08:39:06.452Z</time></trkpt><trkpt lat="44.7253383" lon="8.0809067"><ele>262.6</ele><time>2026-04-12T08:39:09.452Z</time></trkpt><trkpt lat="44.7254417" lon="8.0807433"><ele>262.0</ele><time>2026-04-12T08:39:24.452Z</time></trkpt><trkpt lat="44.7255183" lon="8.0807033"><ele>261.14285714285717</ele><time>2026-04-12T08:39:41.452Z</time></trkpt><trkpt lat="44.7255867" lon="8.0806717"><ele>260.28571428571433</ele><time>2026-04-12T08:39:45.452Z</time></trkpt><trkpt lat="44.7256617" lon="8.080655"><ele>259.42857142857144</ele><time>2026-04-12T08:39:50.452Z</time></trkpt><trkpt lat="44.7257283" lon="8.0806317"><ele>258.57142857142856</ele><time>2026-04-12T08:39:53.452Z</time></trkpt><trkpt lat="44.7258" lon="8.08062"><ele>257.71428571428567</ele><time>2026-04-12T08:39:55.452Z</time></trkpt><trkpt lat="44.7258667" lon="8.0806183"><ele>256.85714285714283</ele><time>2026-04-12T08:39:57.452Z</time></trkpt><trkpt lat="44.725935" lon="8.08061"><ele>256.0</ele><time>2026-04-12T08:40:00.452Z</time></trkpt><trkpt lat="44.72602" lon="8.0806"><ele>256.8333333333333</ele><time>2026-04-12T08:40:03.452Z</time></trkpt><trkpt lat="44.7261117" lon="8.0805833"><ele>257.66666666666663</ele><time>2026-04-12T08:40:06.452Z</time></trkpt><trkpt lat="44.7261883" lon="8.08056"><ele>258.5</ele><time>2026-04-12T08:40:08.452Z</time></trkpt><trkpt lat="44.7262783" lon="8.0805483"><ele>259.3333333333333</ele><time>2026-04-12T08:40:10.452Z</time></trkpt><trkpt lat="44.7263517" lon="8.080545"><ele>260.1666666666667</ele><time>2026-04-12T08:40:12.452Z</time></trkpt><trkpt lat="44.7264183" lon="8.0805283"><ele>261.0</ele><time>2026-04-12T08:40:14.452Z</time></trkpt><trkpt lat="44.7265083" lon="8.0805083"><ele>261.0</ele><time>2026-04-12T08:40:17.452Z</time></trkpt><trkpt lat="44.7265783" lon="8.0804683"><ele>261.0</ele><time>2026-04-12T08:40:19.452Z</time></trkpt><trkpt lat="44.7266517" lon="8.0804233"><ele>261.0</ele><time>2026-04-12T08:40:21.452Z</time></trkpt><trkpt lat="44.7267167" lon="8.0804017"><ele>261.0</ele><time>2026-04-12T08:40:23.452Z</time></trkpt><trkpt lat="44.7268083" lon="8.08043"><ele>261.0</ele><time>2026-04-12T08:40:25.452Z</time></trkpt><trkpt lat="44.7269083" lon="8.0804483"><ele>261.0</ele><time>2026-04-12T08:40:27.452Z</time></trkpt><trkpt lat="44.7269717" lon="8.0804783"><ele>260.1666666666667</ele><time>2026-04-12T08:40:29.452Z</time></trkpt><trkpt lat="44.7270217" lon="8.0805367"><ele>259.3333333333333</ele><time>2026-04-12T08:40:32.452Z</time></trkpt><trkpt lat="44.727085" lon="8.0805967"><ele>258.5</ele><time>2026-04-12T08:40:35.452Z</time></trkpt><trkpt lat="44.7271567" lon="8.0806433"><ele>257.66666666666663</ele><time>2026-04-12T08:40:38.452Z</time></trkpt><trkpt lat="44.7272167" lon="8.08069"><ele>256.8333333333333</ele><time>2026-04-12T08:40:41.452Z</time></trkpt><trkpt lat="44.7272867" lon="8.0807233"><ele>256.0</ele><time>2026-04-12T08:40:52.452Z</time></trkpt><trkpt lat="44.72722" lon="8.0806333"><ele>255.99999999999997</ele><time>2026-04-12T08:41:03.452Z</time></trkpt><trkpt lat="44.72714" lon="8.0805733"><ele>256.0</ele><time>2026-04-12T08:41:07.452Z</time></trkpt><trkpt lat="44.7270783" lon="8.0805233"><ele>256.0</ele><time>2026-04-12T08:41:10.452Z</time></trkpt><trkpt lat="44.72701" lon="8.0804467"><ele>256.0</ele><time>2026-04-12T08:41:13.452Z</time></trkpt><trkpt lat="44.7269567" lon="8.0803983"><ele>255.99999999999997</ele><time>2026-04-12T08:41:16.452Z</time></trkpt><trkpt lat="44.7268833" lon="8.080395"><ele>256.0</ele><time>2026-04-12T08:41:18.453Z</time></trkpt><trkpt lat="44.72681" lon="8.0803917"><ele>256.8333333333333</ele><time>2026-04-12T08:41:20.452Z</time></trkpt><trkpt lat="44.726715" lon="8.0803883"><ele>257.66666666666663</ele><time>2026-04-12T08:41:22.452Z</time></trkpt><trkpt lat="44.726635" lon="8.0803833"><ele>258.5</ele><time>2026-04-12T08:41:24.452Z</time></trkpt><trkpt lat="44.726565" lon="8.0804133"><ele>259.3333333333333</ele><time>2026-04-12T08:41:26.452Z</time></trkpt><trkpt lat="44.7264833" lon="8.0804133"><ele>260.1666666666667</ele><time>2026-04-12T08:41:28.452Z</time></trkpt><trkpt lat="44.72639" lon="8.08044"><ele>261.0</ele><time>2026-04-12T08:41:30.452Z</time></trkpt><trkpt lat="44.7263083" lon="8.0804317"><ele>261.0</ele><time>2026-04-12T08:41:32.452Z</time></trkpt><trkpt lat="44.7262133" lon="8.0804383"><ele>261.0</ele><time>2026-04-12T08:41:34.452Z</time></trkpt><trkpt lat="44.7261067" lon="8.0804517"><ele>261.0</ele><time>2026-04-12T08:41:36.452Z</time></trkpt><trkpt lat="44.7260067" lon="8.0804967"><ele>261.0</ele><time>2026-04-12T08:41:38.452Z</time></trkpt><trkpt lat="44.7258933" lon="8.0805283"><ele>261.0</ele><time>2026-04-12T08:41:40.452Z</time></trkpt><trkpt lat="44.72583" lon="8.0805367"><ele>260.1666666666667</ele><time>2026-04-12T08:41:41.452Z</time></trkpt><trkpt lat="44.725765" lon="8.0805517"><ele>259.3333333333333</ele><time>2026-04-12T08:41:42.452Z</time></trkpt><trkpt lat="44.7257033" lon="8.080575"><ele>258.5</ele><time>2026-04-12T08:41:43.452Z</time></trkpt><trkpt lat="44.7256433" lon="8.0806067"><ele>257.66666666666663</ele><time>2026-04-12T08:41:44.452Z</time></trkpt><trkpt lat="44.7255467" lon="8.0806283"><ele>256.8333333333333</ele><time>2026-04-12T08:41:46.452Z</time></trkpt><trkpt lat="44.7254717" lon="8.080645"><ele>256.0</ele><time>2026-04-12T08:41:48.452Z</time></trkpt><trkpt lat="44.7253867" lon="8.080645"><ele>255.99999999999997</ele><time>2026-04-12T08:41:51.452Z</time></trkpt><trkpt lat="44.725325" lon="8.0806267"><ele>256.0</ele><time>2026-04-12T08:41:53.452Z</time></trkpt><trkpt lat="44.7252583" lon="8.08062"><ele>256.0</ele><time>2026-04-12T08:41:55.453Z</time></trkpt><trkpt lat="44.72519" lon="8.08057"><ele>256.0</ele><time>2026-04-12T08:41:57.453Z</time></trkpt><trkpt lat="44.7250867" lon="8.0805317"><ele>255.99999999999997</ele><time>2026-04-12T08:41:59.452Z</time></trkpt><trkpt lat="44.7249883" lon="8.0804883"><ele>256.0</ele><time>2026-04-12T08:42:01.453Z</time></trkpt><trkpt lat="44.7249183" lon="8.080435"><ele>254.83333333333331</ele><time>2026-04-12T08:42:03.452Z</time></trkpt><trkpt lat="44.7248367" lon="8.0803733"><ele>253.66666666666666</ele><time>2026-04-12T08:42:05.452Z</time></trkpt><trkpt lat="44.724765" lon="8.08031"><ele>252.5</ele><time>2026-04-12T08:42:07.452Z</time></trkpt><trkpt lat="44.724695" lon="8.0802517"><ele>251.33333333333331</ele><time>2026-04-12T08:42:09.452Z</time></trkpt><trkpt lat="44.7246183" lon="8.0801833"><ele>250.16666666666666</ele><time>2026-04-12T08:42:11.452Z</time></trkpt><trkpt lat="44.7245517" lon="8.08014"><ele>249.0</ele><time>2026-04-12T08:42:13.452Z</time></trkpt><trkpt lat="44.7244767" lon="8.08011"><ele>249.0</ele><time>2026-04-12T08:42:15.453Z</time></trkpt><trkpt lat="44.7244117" lon="8.080095"><ele>249.0</ele><time>2026-04-12T08:42:17.452Z</time></trkpt><trkpt lat="44.7243417" lon="8.0800783"><ele>249.0</ele><time>2026-04-12T08:42:20.452Z</time></trkpt><trkpt lat="44.7243983" lon="8.0801267"><ele>249.0</ele><time>2026-04-12T08:42:43.452Z</time></trkpt><trkpt lat="44.724485" lon="8.0801633"><ele>249.0</ele><time>2026-04-12T08:42:46.453Z</time></trkpt><trkpt lat="44.7245583" lon="8.080215"><ele>249.0</ele><time>2026-04-12T08:42:49.452Z</time></trkpt><trkpt lat="44.7246317" lon="8.08027"><ele>249.0</ele><time>2026-04-12T08:42:52.452Z</time></trkpt><trkpt lat="44.724655" lon="8.0803533"><ele>248.99999999999997</ele><time>2026-04-12T08:42:55.452Z</time></trkpt><trkpt lat="44.724585" lon="8.08034"><ele>249.0</ele><time>2026-04-12T08:42:58.452Z</time></trkpt><trkpt lat="44.724525" lon="8.0803067"><ele>249.0</ele><time>2026-04-12T08:43:00.453Z</time></trkpt><trkpt lat="44.7244701" lon="8.0802583"><ele>248.99999999999997</ele><time>2026-04-12T08:44:35.505Z</time></trkpt><trkpt lat="44.7244165" lon="8.0803184"><ele>249.0</ele><time>2026-04-12T08:44:45.452Z</time></trkpt><trkpt lat="44.7244933" lon="8.0802483"><ele>249.0</ele><time>2026-04-12T09:10:49.45Z</time></trkpt><trkpt lat="44.7245383" lon="8.08032"><ele>249.0</ele><time>2026-04-12T09:11:12.45Z</time></trkpt><trkpt lat="44.72461" lon="8.0803833"><ele>249.0</ele><time>2026-04-12T09:11:15.45Z</time></trkpt><trkpt lat="44.7246467" lon="8.08031"><ele>249.0</ele><time>2026-04-12T09:11:18.45Z</time></trkpt><trkpt lat="44.72463" lon="8.08014"><ele>249.0</ele><time>2026-04-12T09:12:54.45Z</time></trkpt><trkpt lat="44.724555" lon="8.0801033"><ele>249.0</ele><time>2026-04-12T09:12:57.45Z</time></trkpt><trkpt lat="44.7244833" lon="8.08009"><ele>249.0</ele><time>2026-04-12T09:12:59.45Z</time></trkpt><trkpt lat="44.724385" lon="8.0800867"><ele>249.39999999999998</ele><time>2026-04-12T09:13:01.45Z</time></trkpt><trkpt lat="44.724255" lon="8.0801183"><ele>249.79999999999998</ele><time>2026-04-12T09:13:03.45Z</time></trkpt><trkpt lat="44.7241867" lon="8.0801617"><ele>250.20000000000002</ele><time>2026-04-12T09:13:04.45Z</time></trkpt><trkpt lat="44.7241217" lon="8.0802117"><ele>250.60000000000002</ele><time>2026-04-12T09:13:05.45Z</time></trkpt><trkpt lat="44.7240467" lon="8.080275"><ele>251.0</ele><time>2026-04-12T09:13:06.45Z</time></trkpt><trkpt lat="44.7239733" lon="8.080325"><ele>251.00000000000003</ele><time>2026-04-12T09:13:07.45Z</time></trkpt><trkpt lat="44.723905" lon="8.0803783"><ele>251.0</ele><time>2026-04-12T09:13:08.45Z</time></trkpt><trkpt lat="44.72384" lon="8.080435"><ele>251.0</ele><time>2026-04-12T09:13:09.45Z</time></trkpt><trkpt lat="44.7237717" lon="8.0805067"><ele>251.0</ele><time>2026-04-12T09:13:10.45Z</time></trkpt><trkpt lat="44.7237133" lon="8.0805967"><ele>251.00000000000003</ele><time>2026-04-12T09:13:11.45Z</time></trkpt><trkpt lat="44.7236667" lon="8.0806817"><ele>251.0</ele><time>2026-04-12T09:13:12.45Z</time></trkpt><trkpt lat="44.723625" lon="8.0807667"><ele>249.99999999999997</ele><time>2026-04-12T09:13:13.45Z</time></trkpt><trkpt lat="44.723585" lon="8.0808533"><ele>249.0</ele><time>2026-04-12T09:13:14.45Z</time></trkpt><trkpt lat="44.723555" lon="8.0809417"><ele>247.99999999999997</ele><time>2026-04-12T09:13:15.451Z</time></trkpt><trkpt lat="44.7235283" lon="8.0810283"><ele>246.99999999999997</ele><time>2026-04-12T09:13:16.45Z</time></trkpt><trkpt lat="44.7235083" lon="8.08112"><ele>246.0</ele><time>2026-04-12T09:13:17.45Z</time></trkpt><trkpt lat="44.7234867" lon="8.0812083"><ele>244.99999999999997</ele><time>2026-04-12T09:13:18.451Z</time></trkpt><trkpt lat="44.7234667" lon="8.0812933"><ele>243.99999999999997</ele><time>2026-04-12T09:13:19.45Z</time></trkpt><trkpt lat="44.7234483" lon="8.0813833"><ele>243.99999999999997</ele><time>2026-04-12T09:13:20.45Z</time></trkpt><trkpt lat="44.7234217" lon="8.08147"><ele>244.0</ele><time>2026-04-12T09:13:21.45Z</time></trkpt><trkpt lat="44.7234" lon="8.081555"><ele>244.0</ele><time>2026-04-12T09:13:22.45Z</time></trkpt><trkpt lat="44.7233683" lon="8.081715"><ele>244.0</ele><time>2026-04-12T09:13:24.45Z</time></trkpt><trkpt lat="44.723345" lon="8.0818533"><ele>243.99999999999997</ele><time>2026-04-12T09:13:26.45Z</time></trkpt><trkpt lat="44.7233083" lon="8.0819683"><ele>244.0</ele><time>2026-04-12T09:13:28.45Z</time></trkpt><trkpt lat="44.7232867" lon="8.0820783"><ele>244.99999999999997</ele><time>2026-04-12T09:13:30.45Z</time></trkpt><trkpt lat="44.7232617" lon="8.0821833"><ele>246.0</ele><time>2026-04-12T09:13:32.45Z</time></trkpt><trkpt lat="44.72322" lon="8.0822667"><ele>247.0</ele><time>2026-04-12T09:13:34.45Z</time></trkpt><trkpt lat="44.7231717" lon="8.0823567"><ele>248.0</ele><time>2026-04-12T09:13:36.45Z</time></trkpt><trkpt lat="44.7231217" lon="8.0824517"><ele>248.99999999999997</ele><time>2026-04-12T09:13:38.45Z</time></trkpt><trkpt lat="44.723075" lon="8.08253"><ele>250.0</ele><time>2026-04-12T09:13:40.45Z</time></trkpt><trkpt lat="44.7230267" lon="8.08261"><ele>249.0</ele><time>2026-04-12T09:13:42.45Z</time></trkpt><trkpt lat="44.7229683" lon="8.0826767"><ele>248.0</ele><time>2026-04-12T09:13:44.45Z</time></trkpt><trkpt lat="44.7229083" lon="8.0827267"><ele>247.0</ele><time>2026-04-12T09:13:46.45Z</time></trkpt><trkpt lat="44.72285" lon="8.082765"><ele>246.0</ele><time>2026-04-12T09:13:48.45Z</time></trkpt><trkpt lat="44.7228" lon="8.08282"><ele>245.0</ele><time>2026-04-12T09:13:50.45Z</time></trkpt><trkpt lat="44.7227417" lon="8.0828883"><ele>244.0</ele><time>2026-04-12T09:13:52.45Z</time></trkpt><trkpt lat="44.722675" lon="8.0829267"><ele>243.0</ele><time>2026-04-12T09:13:54.45Z</time></trkpt><trkpt lat="44.7226017" lon="8.0829783"><ele>243.0</ele><time>2026-04-12T09:13:57.45Z</time></trkpt><trkpt lat="44.7225483" lon="8.0830567"><ele>243.0</ele><time>2026-04-12T09:14:00.45Z</time></trkpt><trkpt lat="44.72248" lon="8.0831283"><ele>243.0</ele><time>2026-04-12T09:14:03.45Z</time></trkpt><trkpt lat="44.7224033" lon="8.0831933"><ele>243.0</ele><time>2026-04-12T09:14:06.45Z</time></trkpt><trkpt lat="44.7223333" lon="8.08326"><ele>243.0</ele><time>2026-04-12T09:14:09.45Z</time></trkpt><trkpt lat="44.72227" lon="8.0833417"><ele>243.0</ele><time>2026-04-12T09:14:12.45Z</time></trkpt><trkpt lat="44.7222033" lon="8.0834167"><ele>245.5</ele><time>2026-04-12T09:14:15.45Z</time></trkpt><trkpt lat="44.72214" lon="8.08351"><ele>248.0</ele><time>2026-04-12T09:14:18.45Z</time></trkpt><trkpt lat="44.7220867" lon="8.083595"><ele>250.5</ele><time>2026-04-12T09:14:21.45Z</time></trkpt><trkpt lat="44.7220283" lon="8.0836733"><ele>253.0</ele><time>2026-04-12T09:14:24.45Z</time></trkpt><trkpt lat="44.7219767" lon="8.083765"><ele>255.5</ele><time>2026-04-12T09:14:27.45Z</time></trkpt><trkpt lat="44.721925" lon="8.0838467"><ele>258.0</ele><time>2026-04-12T09:14:30.45Z</time></trkpt><trkpt lat="44.7218533" lon="8.0839133"><ele>258.3333333333333</ele><time>2026-04-12T09:14:33.45Z</time></trkpt><trkpt lat="44.721765" lon="8.0839083"><ele>258.6666666666667</ele><time>2026-04-12T09:14:36.45Z</time></trkpt><trkpt lat="44.7216717" lon="8.0838967"><ele>259.0</ele><time>2026-04-12T09:14:39.45Z</time></trkpt><trkpt lat="44.7215783" lon="8.083885"><ele>259.33333333333337</ele><time>2026-04-12T09:14:42.45Z</time></trkpt><trkpt lat="44.721515" lon="8.083875"><ele>259.6666666666667</ele><time>2026-04-12T09:14:44.45Z</time></trkpt><trkpt lat="44.7214483" lon="8.08387"><ele>260.0</ele><time>2026-04-12T09:14:46.45Z</time></trkpt><trkpt lat="44.721385" lon="8.0838633"><ele>260.00000000000006</ele><time>2026-04-12T09:14:49.45Z</time></trkpt><trkpt lat="44.721315" lon="8.0838667"><ele>260.0</ele><time>2026-04-12T09:14:52.45Z</time></trkpt><trkpt lat="44.7212467" lon="8.08384"><ele>260.0</ele><time>2026-04-12T09:14:54.45Z</time></trkpt><trkpt lat="44.7211667" lon="8.0837983"><ele>260.0</ele><time>2026-04-12T09:14:56.45Z</time></trkpt><trkpt lat="44.7210883" lon="8.0837683"><ele>260.0</ele><time>2026-04-12T09:14:58.45Z</time></trkpt><trkpt lat="44.72102" lon="8.08374"><ele>260.00000000000006</ele><time>2026-04-12T09:15:00.45Z</time></trkpt><trkpt lat="44.7209567" lon="8.0837267"><ele>260.0</ele><time>2026-04-12T09:15:02.45Z</time></trkpt><trkpt lat="44.720865" lon="8.083715"><ele>260.5714285714286</ele><time>2026-04-12T09:15:05.45Z</time></trkpt><trkpt lat="44.7207983" lon="8.0837117"><ele>261.14285714285717</ele><time>2026-04-12T09:15:07.45Z</time></trkpt><trkpt lat="44.7207317" lon="8.083705"><ele>261.7142857142857</ele><time>2026-04-12T09:15:09.45Z</time></trkpt><trkpt lat="44.7206567" lon="8.0837117"><ele>262.28571428571433</ele><time>2026-04-12T09:15:11.45Z</time></trkpt><trkpt lat="44.720585" lon="8.08374"><ele>262.8571428571429</ele><time>2026-04-12T09:15:13.45Z</time></trkpt><trkpt lat="44.7205233" lon="8.0837867"><ele>263.42857142857144</ele><time>2026-04-12T09:15:15.45Z</time></trkpt><trkpt lat="44.720465" lon="8.0838317"><ele>264.0</ele><time>2026-04-12T09:15:17.451Z</time></trkpt><trkpt lat="44.7204133" lon="8.0838883"><ele>264.0</ele><time>2026-04-12T09:15:19.45Z</time></trkpt><trkpt lat="44.72037" lon="8.0839533"><ele>264.0</ele><time>2026-04-12T09:15:21.451Z</time></trkpt><trkpt lat="44.7203267" lon="8.0840267"><ele>264.0</ele><time>2026-04-12T09:15:23.45Z</time></trkpt><trkpt lat="44.7202833" lon="8.0840917"><ele>264.0</ele><time>2026-04-12T09:15:25.45Z</time></trkpt><trkpt lat="44.720215" lon="8.0841767"><ele>264.0</ele><time>2026-04-12T09:15:28.45Z</time></trkpt><trkpt lat="44.720135" lon="8.0842417"><ele>264.0</ele><time>2026-04-12T09:15:31.45Z</time></trkpt><trkpt lat="44.7200717" lon="8.084285"><ele>264.0</ele><time>2026-04-12T09:15:33.45Z</time></trkpt><trkpt lat="44.72001" lon="8.0843317"><ele>265.2857142857143</ele><time>2026-04-12T09:15:35.45Z</time></trkpt><trkpt lat="44.7199483" lon="8.0843683"><ele>266.57142857142856</ele><time>2026-04-12T09:15:37.449Z</time></trkpt><trkpt lat="44.71988" lon="8.084415"><ele>267.8571428571429</ele><time>2026-04-12T09:15:39.449Z</time></trkpt><trkpt lat="44.71982" lon="8.084465"><ele>269.1428571428571</ele><time>2026-04-12T09:15:41.449Z</time></trkpt><trkpt lat="44.7197533" lon="8.084515"><ele>270.42857142857144</ele><time>2026-04-12T09:15:43.449Z</time></trkpt><trkpt lat="44.719685" lon="8.08455"><ele>271.7142857142857</ele><time>2026-04-12T09:15:45.449Z</time></trkpt><trkpt lat="44.7196167" lon="8.0845733"><ele>273.0</ele><time>2026-04-12T09:15:47.449Z</time></trkpt><trkpt lat="44.7195483" lon="8.0845967"><ele>273.0</ele><time>2026-04-12T09:15:49.449Z</time></trkpt><trkpt lat="44.719475" lon="8.0846117"><ele>273.0</ele><time>2026-04-12T09:15:51.449Z</time></trkpt><trkpt lat="44.7194033" lon="8.08462"><ele>273.0</ele><time>2026-04-12T09:15:53.449Z</time></trkpt><trkpt lat="44.71934" lon="8.08464"><ele>273.0</ele><time>2026-04-12T09:15:55.449Z</time></trkpt><trkpt lat="44.71927" lon="8.08465"><ele>273.0</ele><time>2026-04-12T09:15:57.449Z</time></trkpt><trkpt lat="44.71919" lon="8.084665"><ele>273.0</ele><time>2026-04-12T09:15:59.449Z</time></trkpt><trkpt lat="44.7191183" lon="8.0846717"><ele>273.0</ele><time>2026-04-12T09:16:01.449Z</time></trkpt><trkpt lat="44.7190433" lon="8.0846783"><ele>272.8333333333333</ele><time>2026-04-12T09:16:03.449Z</time></trkpt><trkpt lat="44.71897" lon="8.0846883"><ele>272.6666666666667</ele><time>2026-04-12T09:16:05.449Z</time></trkpt><trkpt lat="44.7189" lon="8.084685"><ele>272.5</ele><time>2026-04-12T09:16:07.449Z</time></trkpt><trkpt lat="44.7188217" lon="8.0846933"><ele>272.33333333333337</ele><time>2026-04-12T09:16:09.449Z</time></trkpt><trkpt lat="44.718735" lon="8.0846967"><ele>272.1666666666667</ele><time>2026-04-12T09:16:11.449Z</time></trkpt><trkpt lat="44.7186417" lon="8.0847083"><ele>272.0</ele><time>2026-04-12T09:16:13.449Z</time></trkpt><trkpt lat="44.7185483" lon="8.0847233"><ele>273.4</ele><time>2026-04-12T09:16:15.449Z</time></trkpt><trkpt lat="44.71845" lon="8.08473"><ele>274.79999999999995</ele><time>2026-04-12T09:16:17.449Z</time></trkpt><trkpt lat="44.7183683" lon="8.0847333"><ele>276.2</ele><time>2026-04-12T09:16:19.449Z</time></trkpt><trkpt lat="44.7182783" lon="8.08474"><ele>277.59999999999997</ele><time>2026-04-12T09:16:21.449Z</time></trkpt><trkpt lat="44.71819" lon="8.08474"><ele>279.0</ele><time>2026-04-12T09:16:23.449Z</time></trkpt><trkpt lat="44.7181" lon="8.0847617"><ele>279.0</ele><time>2026-04-12T09:16:25.449Z</time></trkpt><trkpt lat="44.7180217" lon="8.0847733"><ele>279.0</ele><time>2026-04-12T09:16:27.449Z</time></trkpt><trkpt lat="44.7179383" lon="8.084785"><ele>279.0</ele><time>2026-04-12T09:16:29.449Z</time></trkpt><trkpt lat="44.71786" lon="8.0847833"><ele>279.0</ele><time>2026-04-12T09:16:31.449Z</time></trkpt><trkpt lat="44.717775" lon="8.0847917"><ele>279.0</ele><time>2026-04-12T09:16:33.449Z</time></trkpt><trkpt lat="44.717685" lon="8.0848083"><ele>279.0</ele><time>2026-04-12T09:16:35.449Z</time></trkpt><trkpt lat="44.7176067" lon="8.0848333"><ele>279.6666666666667</ele><time>2026-04-12T09:16:37.449Z</time></trkpt><trkpt lat="44.71752" lon="8.0848533"><ele>280.3333333333333</ele><time>2026-04-12T09:16:39.449Z</time></trkpt><trkpt lat="44.7174417" lon="8.08488"><ele>281.0</ele><time>2026-04-12T09:16:41.449Z</time></trkpt><trkpt lat="44.7173567" lon="8.0849067"><ele>281.66666666666663</ele><time>2026-04-12T09:16:43.449Z</time></trkpt><trkpt lat="44.717275" lon="8.084935"><ele>282.3333333333333</ele><time>2026-04-12T09:16:45.449Z</time></trkpt><trkpt lat="44.7171933" lon="8.0849733"><ele>283.0</ele><time>2026-04-12T09:16:47.449Z</time></trkpt><trkpt lat="44.7171167" lon="8.0850067"><ele>283.0</ele><time>2026-04-12T09:16:49.449Z</time></trkpt><trkpt lat="44.7170417" lon="8.0850317"><ele>283.0</ele><time>2026-04-12T09:16:51.449Z</time></trkpt><trkpt lat="44.7169583" lon="8.085055"><ele>283.0</ele><time>2026-04-12T09:16:53.449Z</time></trkpt><trkpt lat="44.7168833" lon="8.0850633"><ele>283.0</ele><time>2026-04-12T09:16:55.449Z</time></trkpt><trkpt lat="44.7168017" lon="8.085055"><ele>283.0</ele><time>2026-04-12T09:16:57.449Z</time></trkpt><trkpt lat="44.7167183" lon="8.0850383"><ele>283.0</ele><time>2026-04-12T09:16:59.449Z</time></trkpt><trkpt lat="44.71664" lon="8.0850183"><ele>284.2857142857143</ele><time>2026-04-12T09:17:01.449Z</time></trkpt><trkpt lat="44.71657" lon="8.08498"><ele>285.5714285714286</ele><time>2026-04-12T09:17:03.449Z</time></trkpt><trkpt lat="44.7165067" lon="8.084935"><ele>286.8571428571429</ele><time>2026-04-12T09:17:05.449Z</time></trkpt><trkpt lat="44.716435" lon="8.084905"><ele>288.14285714285717</ele><time>2026-04-12T09:17:07.449Z</time></trkpt><trkpt lat="44.7163667" lon="8.0848667"><ele>289.42857142857144</ele><time>2026-04-12T09:17:09.449Z</time></trkpt><trkpt lat="44.7163033" lon="8.084815"><ele>290.7142857142857</ele><time>2026-04-12T09:17:11.449Z</time></trkpt><trkpt lat="44.71624" lon="8.0847683"><ele>292.0</ele><time>2026-04-12T09:17:13.449Z</time></trkpt><trkpt lat="44.7161733" lon="8.08473"><ele>292.0</ele><time>2026-04-12T09:17:15.449Z</time></trkpt><trkpt lat="44.7160883" lon="8.0846833"><ele>292.0</ele><time>2026-04-12T09:17:17.449Z</time></trkpt><trkpt lat="44.71601" lon="8.08464"><ele>292.0</ele><time>2026-04-12T09:17:19.449Z</time></trkpt><trkpt lat="44.7159367" lon="8.0846067"><ele>292.0</ele><time>2026-04-12T09:17:21.449Z</time></trkpt><trkpt lat="44.715865" lon="8.084585"><ele>292.0</ele><time>2026-04-12T09:17:23.449Z</time></trkpt><trkpt lat="44.7157883" lon="8.084575"><ele>292.0</ele><time>2026-04-12T09:17:25.449Z</time></trkpt><trkpt lat="44.7157167" lon="8.0845733"><ele>292.0</ele><time>2026-04-12T09:17:27.449Z</time></trkpt><trkpt lat="44.7156417" lon="8.0845867"><ele>292.0</ele><time>2026-04-12T09:17:29.449Z</time></trkpt><trkpt lat="44.7155733" lon="8.0846283"><ele>292.0</ele><time>2026-04-12T09:17:31.449Z</time></trkpt><trkpt lat="44.7154917" lon="8.084685"><ele>292.0</ele><time>2026-04-12T09:17:34.449Z</time></trkpt><trkpt lat="44.7154217" lon="8.0847483"><ele>292.0</ele><time>2026-04-12T09:17:36.449Z</time></trkpt><trkpt lat="44.7153517" lon="8.0848333"><ele>292.0</ele><time>2026-04-12T09:17:38.45Z</time></trkpt><trkpt lat="44.7152783" lon="8.0849217"><ele>293.4</ele><time>2026-04-12T09:17:40.449Z</time></trkpt><trkpt lat="44.71519" lon="8.085015"><ele>294.79999999999995</ele><time>2026-04-12T09:17:42.45Z</time></trkpt><trkpt lat="44.7150917" lon="8.08508"><ele>296.2</ele><time>2026-04-12T09:17:44.449Z</time></trkpt><trkpt lat="44.71499" lon="8.0851117"><ele>297.59999999999997</ele><time>2026-04-12T09:17:46.449Z</time></trkpt><trkpt lat="44.714885" lon="8.0851567"><ele>299.0</ele><time>2026-04-12T09:17:48.449Z</time></trkpt><trkpt lat="44.714795" lon="8.0852083"><ele>299.0</ele><time>2026-04-12T09:17:50.449Z</time></trkpt><trkpt lat="44.714705" lon="8.0852433"><ele>299.0</ele><time>2026-04-12T09:17:52.449Z</time></trkpt><trkpt lat="44.7146033" lon="8.0853033"><ele>299.0</ele><time>2026-04-12T09:17:54.449Z</time></trkpt><trkpt lat="44.7145517" lon="8.085355"><ele>299.0</ele><time>2026-04-12T09:17:55.449Z</time></trkpt><trkpt lat="44.7144717" lon="8.0854483"><ele>299.0</ele><time>2026-04-12T09:17:57.449Z</time></trkpt><trkpt lat="44.7143833" lon="8.0855467"><ele>297.25</ele><time>2026-04-12T09:17:59.449Z</time></trkpt><trkpt lat="44.7142967" lon="8.0856567"><ele>295.5</ele><time>2026-04-12T09:18:01.449Z</time></trkpt><trkpt lat="44.71422" lon="8.0857717"><ele>293.75</ele><time>2026-04-12T09:18:03.449Z</time></trkpt><trkpt lat="44.71415" lon="8.085895"><ele>292.0</ele><time>2026-04-12T09:18:05.449Z</time></trkpt><trkpt lat="44.714085" lon="8.0860333"><ele>292.0</ele><time>2026-04-12T09:18:07.449Z</time></trkpt><trkpt lat="44.71405" lon="8.08611"><ele>292.0</ele><time>2026-04-12T09:18:08.449Z</time></trkpt><trkpt lat="44.7139867" lon="8.086265"><ele>292.0</ele><time>2026-04-12T09:18:10.449Z</time></trkpt><trkpt lat="44.7139517" lon="8.0863417"><ele>292.0</ele><time>2026-04-12T09:18:11.449Z</time></trkpt><trkpt lat="44.71392" lon="8.0864183"><ele>292.0</ele><time>2026-04-12T09:18:12.449Z</time></trkpt><trkpt lat="44.7138883" lon="8.086495"><ele>292.0</ele><time>2026-04-12T09:18:13.45Z</time></trkpt><trkpt lat="44.7138233" lon="8.086645"><ele>290.75</ele><time>2026-04-12T09:18:15.449Z</time></trkpt><trkpt lat="44.7137483" lon="8.0867883"><ele>289.5</ele><time>2026-04-12T09:18:17.449Z</time></trkpt><trkpt lat="44.7136783" lon="8.0869233"><ele>288.25</ele><time>2026-04-12T09:18:19.449Z</time></trkpt><trkpt lat="44.71361" lon="8.0870683"><ele>287.0</ele><time>2026-04-12T09:18:21.449Z</time></trkpt><trkpt lat="44.7135467" lon="8.08722"><ele>287.5</ele><time>2026-04-12T09:18:23.449Z</time></trkpt><trkpt lat="44.7134967" lon="8.087365"><ele>288.0</ele><time>2026-04-12T09:18:25.45Z</time></trkpt><trkpt lat="44.713445" lon="8.0875083"><ele>288.5</ele><time>2026-04-12T09:18:27.449Z</time></trkpt><trkpt lat="44.7133933" lon="8.0876667"><ele>289.0</ele><time>2026-04-12T09:18:29.449Z</time></trkpt><trkpt lat="44.7133483" lon="8.08783"><ele>289.0</ele><time>2026-04-12T09:18:31.449Z</time></trkpt><trkpt lat="44.7133017" lon="8.08798"><ele>289.0</ele><time>2026-04-12T09:18:33.449Z</time></trkpt><trkpt lat="44.7132483" lon="8.08813"><ele>289.0</ele><time>2026-04-12T09:18:35.449Z</time></trkpt><trkpt lat="44.7132017" lon="8.0882817"><ele>289.0</ele><time>2026-04-12T09:18:37.449Z</time></trkpt><trkpt lat="44.7131283" lon="8.0884267"><ele>289.8</ele><time>2026-04-12T09:18:39.449Z</time></trkpt><trkpt lat="44.7130933" lon="8.0885033"><ele>290.59999999999997</ele><time>2026-04-12T09:18:40.449Z</time></trkpt><trkpt lat="44.71302" lon="8.0886333"><ele>291.4</ele><time>2026-04-12T09:18:42.449Z</time></trkpt><trkpt lat="44.7129483" lon="8.088765"><ele>292.2</ele><time>2026-04-12T09:18:44.449Z</time></trkpt><trkpt lat="44.7128867" lon="8.0888917"><ele>293.0</ele><time>2026-04-12T09:18:46.449Z</time></trkpt><trkpt lat="44.7128217" lon="8.089005"><ele>292.4</ele><time>2026-04-12T09:18:48.449Z</time></trkpt><trkpt lat="44.7127483" lon="8.0891233"><ele>291.8</ele><time>2026-04-12T09:18:50.449Z</time></trkpt><trkpt lat="44.7126783" lon="8.0892383"><ele>291.2</ele><time>2026-04-12T09:18:52.449Z</time></trkpt><trkpt lat="44.712615" lon="8.089325"><ele>290.6</ele><time>2026-04-12T09:18:54.449Z</time></trkpt><trkpt lat="44.7125533" lon="8.0894017"><ele>290.0</ele><time>2026-04-12T09:18:56.449Z</time></trkpt><trkpt lat="44.712505" lon="8.0894633"><ele>291.6666666666667</ele><time>2026-04-12T09:18:58.449Z</time></trkpt><trkpt lat="44.7124583" lon="8.08955"><ele>293.33333333333337</ele><time>2026-04-12T09:19:00.449Z</time></trkpt><trkpt lat="44.7124083" lon="8.089635"><ele>295.0</ele><time>2026-04-12T09:19:02.449Z</time></trkpt><trkpt lat="44.7123517" lon="8.08971"><ele>296.6666666666667</ele><time>2026-04-12T09:19:04.449Z</time></trkpt><trkpt lat="44.7123" lon="8.08979"><ele>298.3333333333333</ele><time>2026-04-12T09:19:06.449Z</time></trkpt><trkpt lat="44.7122533" lon="8.0898783"><ele>300.0</ele><time>2026-04-12T09:19:08.449Z</time></trkpt><trkpt lat="44.7122067" lon="8.08995"><ele>300.71428571428567</ele><time>2026-04-12T09:19:10.449Z</time></trkpt><trkpt lat="44.7121633" lon="8.0900383"><ele>301.42857142857144</ele><time>2026-04-12T09:19:12.449Z</time></trkpt><trkpt lat="44.7121233" lon="8.0901167"><ele>302.1428571428571</ele><time>2026-04-12T09:19:14.449Z</time></trkpt><trkpt lat="44.712075" lon="8.0901967"><ele>302.85714285714283</ele><time>2026-04-12T09:19:16.449Z</time></trkpt><trkpt lat="44.712025" lon="8.090275"><ele>303.57142857142856</ele><time>2026-04-12T09:19:18.449Z</time></trkpt><trkpt lat="44.7119833" lon="8.0903633"><ele>304.2857142857143</ele><time>2026-04-12T09:19:20.449Z</time></trkpt><trkpt lat="44.7119467" lon="8.0904433"><ele>305.0</ele><time>2026-04-12T09:19:22.449Z</time></trkpt><trkpt lat="44.7119083" lon="8.09052"><ele>305.33333333333337</ele><time>2026-04-12T09:19:24.449Z</time></trkpt><trkpt lat="44.7118633" lon="8.0906017"><ele>305.6666666666667</ele><time>2026-04-12T09:19:26.449Z</time></trkpt><trkpt lat="44.7118083" lon="8.09068"><ele>306.0</ele><time>2026-04-12T09:19:28.449Z</time></trkpt><trkpt lat="44.7117533" lon="8.0907717"><ele>306.3333333333333</ele><time>2026-04-12T09:19:30.449Z</time></trkpt><trkpt lat="44.7116883" lon="8.0908583"><ele>306.66666666666663</ele><time>2026-04-12T09:19:32.449Z</time></trkpt><trkpt lat="44.7116167" lon="8.090945"><ele>307.0</ele><time>2026-04-12T09:19:34.449Z</time></trkpt><trkpt lat="44.7115483" lon="8.0910233"><ele>307.0</ele><time>2026-04-12T09:19:36.449Z</time></trkpt><trkpt lat="44.7114783" lon="8.09109"><ele>307.0</ele><time>2026-04-12T09:19:38.449Z</time></trkpt><trkpt lat="44.7113983" lon="8.0911417"><ele>307.0</ele><time>2026-04-12T09:19:40.449Z</time></trkpt><trkpt lat="44.7113067" lon="8.0912083"><ele>307.0</ele><time>2026-04-12T09:19:42.449Z</time></trkpt><trkpt lat="44.7112317" lon="8.0912533"><ele>307.0</ele><time>2026-04-12T09:19:44.45Z</time></trkpt><trkpt lat="44.7111567" lon="8.09128"><ele>307.0</ele><time>2026-04-12T09:19:46.449Z</time></trkpt><trkpt lat="44.7110683" lon="8.091295"><ele>306.4</ele><time>2026-04-12T09:19:48.449Z</time></trkpt><trkpt lat="44.7109783" lon="8.091305"><ele>305.79999999999995</ele><time>2026-04-12T09:19:50.45Z</time></trkpt><trkpt lat="44.7108833" lon="8.0913"><ele>305.2</ele><time>2026-04-12T09:19:52.449Z</time></trkpt><trkpt lat="44.7107967" lon="8.0912833"><ele>304.59999999999997</ele><time>2026-04-12T09:19:54.449Z</time></trkpt><trkpt lat="44.7107033" lon="8.09125"><ele>304.0</ele><time>2026-04-12T09:19:56.449Z</time></trkpt><trkpt lat="44.7106167" lon="8.091205"><ele>304.0</ele><time>2026-04-12T09:19:58.449Z</time></trkpt><trkpt lat="44.710535" lon="8.0911583"><ele>304.0</ele><time>2026-04-12T09:20:00.449Z</time></trkpt><trkpt lat="44.7104467" lon="8.0911133"><ele>304.0</ele><time>2026-04-12T09:20:02.449Z</time></trkpt><trkpt lat="44.7103667" lon="8.0910583"><ele>304.0</ele><time>2026-04-12T09:20:04.449Z</time></trkpt><trkpt lat="44.71029" lon="8.0909933"><ele>304.0</ele><time>2026-04-12T09:20:06.449Z</time></trkpt><trkpt lat="44.7102133" lon="8.090935"><ele>304.0</ele><time>2026-04-12T09:20:08.449Z</time></trkpt><trkpt lat="44.710135" lon="8.0908767"><ele>303.8333333333333</ele><time>2026-04-12T09:20:10.449Z</time></trkpt><trkpt lat="44.7100633" lon="8.0908217"><ele>303.66666666666663</ele><time>2026-04-12T09:20:12.45Z</time></trkpt><trkpt lat="44.7099833" lon="8.0907533"><ele>303.5</ele><time>2026-04-12T09:20:14.449Z</time></trkpt><trkpt lat="44.709905" lon="8.090695"><ele>303.3333333333333</ele><time>2026-04-12T09:20:16.449Z</time></trkpt><trkpt lat="44.7098317" lon="8.09066"><ele>303.1666666666667</ele><time>2026-04-12T09:20:18.45Z</time></trkpt><trkpt lat="44.7097533" lon="8.090635"><ele>303.0</ele><time>2026-04-12T09:20:20.449Z</time></trkpt><trkpt lat="44.7096783" lon="8.0906283"><ele>303.0</ele><time>2026-04-12T09:20:22.449Z</time></trkpt><trkpt lat="44.7096083" lon="8.090615"><ele>303.0</ele><time>2026-04-12T09:20:24.449Z</time></trkpt><trkpt lat="44.7095133" lon="8.09058"><ele>303.0</ele><time>2026-04-12T09:20:26.449Z</time></trkpt><trkpt lat="44.7094283" lon="8.0905717"><ele>303.0</ele><time>2026-04-12T09:20:28.449Z</time></trkpt><trkpt lat="44.7093283" lon="8.0905433"><ele>303.0</ele><time>2026-04-12T09:20:30.449Z</time></trkpt><trkpt lat="44.7092167" lon="8.0904983"><ele>305.8333333333333</ele><time>2026-04-12T09:20:32.449Z</time></trkpt><trkpt lat="44.7091083" lon="8.09044"><ele>308.6666666666667</ele><time>2026-04-12T09:20:34.449Z</time></trkpt><trkpt lat="44.708995" lon="8.0903867"><ele>311.5</ele><time>2026-04-12T09:20:36.449Z</time></trkpt><trkpt lat="44.70893" lon="8.0903567"><ele>314.33333333333337</ele><time>2026-04-12T09:20:37.449Z</time></trkpt><trkpt lat="44.7088617" lon="8.0903233"><ele>317.1666666666667</ele><time>2026-04-12T09:20:38.449Z</time></trkpt><trkpt lat="44.7087983" lon="8.090295"><ele>320.0</ele><time>2026-04-12T09:20:39.449Z</time></trkpt><trkpt lat="44.7087383" lon="8.0902467"><ele>320.0</ele><time>2026-04-12T09:20:40.449Z</time></trkpt><trkpt lat="44.70868" lon="8.0901933"><ele>320.0</ele><time>2026-04-12T09:20:41.449Z</time></trkpt><trkpt lat="44.708625" lon="8.0901333"><ele>320.0</ele><time>2026-04-12T09:20:42.449Z</time></trkpt><trkpt lat="44.7085817" lon="8.0900617"><ele>320.0</ele><time>2026-04-12T09:20:43.449Z</time></trkpt><trkpt lat="44.7085333" lon="8.0899933"><ele>320.0</ele><time>2026-04-12T09:20:44.45Z</time></trkpt><trkpt lat="44.708485" lon="8.0899217"><ele>320.0</ele><time>2026-04-12T09:20:45.449Z</time></trkpt><trkpt lat="44.708435" lon="8.0898567"><ele>320.0</ele><time>2026-04-12T09:20:46.449Z</time></trkpt><trkpt lat="44.7083817" lon="8.089795"><ele>320.85714285714283</ele><time>2026-04-12T09:20:47.449Z</time></trkpt><trkpt lat="44.7083217" lon="8.08974"><ele>321.7142857142857</ele><time>2026-04-12T09:20:48.449Z</time></trkpt><trkpt lat="44.70826" lon="8.0896917"><ele>322.57142857142856</ele><time>2026-04-12T09:20:49.449Z</time></trkpt><trkpt lat="44.7081967" lon="8.0896483"><ele>323.42857142857144</ele><time>2026-04-12T09:20:50.449Z</time></trkpt><trkpt lat="44.7081367" lon="8.0895983"><ele>324.2857142857143</ele><time>2026-04-12T09:20:51.449Z</time></trkpt><trkpt lat="44.708075" lon="8.0895517"><ele>325.14285714285717</ele><time>2026-04-12T09:20:52.449Z</time></trkpt><trkpt lat="44.708015" lon="8.08951"><ele>326.0</ele><time>2026-04-12T09:20:53.449Z</time></trkpt><trkpt lat="44.707955" lon="8.0894717"><ele>326.0</ele><time>2026-04-12T09:20:54.449Z</time></trkpt><trkpt lat="44.7078867" lon="8.0894333"><ele>326.0</ele><time>2026-04-12T09:20:55.45Z</time></trkpt><trkpt lat="44.7078183" lon="8.08939"><ele>326.0</ele><time>2026-04-12T09:20:56.449Z</time></trkpt><trkpt lat="44.7077617" lon="8.0893433"><ele>326.0</ele><time>2026-04-12T09:20:57.449Z</time></trkpt><trkpt lat="44.70771" lon="8.0892883"><ele>326.0</ele><time>2026-04-12T09:20:58.449Z</time></trkpt><trkpt lat="44.7076583" lon="8.089225"><ele>326.0</ele><time>2026-04-12T09:20:59.449Z</time></trkpt><trkpt lat="44.70761" lon="8.089165"><ele>326.0</ele><time>2026-04-12T09:21:00.449Z</time></trkpt><trkpt lat="44.707565" lon="8.089095"><ele>325.5714285714286</ele><time>2026-04-12T09:21:01.449Z</time></trkpt><trkpt lat="44.7075167" lon="8.0890217"><ele>325.1428571428571</ele><time>2026-04-12T09:21:02.449Z</time></trkpt><trkpt lat="44.7074817" lon="8.0889417"><ele>324.7142857142857</ele><time>2026-04-12T09:21:03.449Z</time></trkpt><trkpt lat="44.7074383" lon="8.08886"><ele>324.28571428571433</ele><time>2026-04-12T09:21:04.449Z</time></trkpt><trkpt lat="44.7073917" lon="8.088775"><ele>323.8571428571429</ele><time>2026-04-12T09:21:05.449Z</time></trkpt><trkpt lat="44.7073483" lon="8.088695"><ele>323.42857142857144</ele><time>2026-04-12T09:21:06.449Z</time></trkpt><trkpt lat="44.7073017" lon="8.088615"><ele>323.0</ele><time>2026-04-12T09:21:07.449Z</time></trkpt><trkpt lat="44.7072517" lon="8.088535"><ele>323.0</ele><time>2026-04-12T09:21:08.449Z</time></trkpt><trkpt lat="44.7072133" lon="8.0884533"><ele>323.0</ele><time>2026-04-12T09:21:09.449Z</time></trkpt><trkpt lat="44.7071783" lon="8.088365"><ele>323.0</ele><time>2026-04-12T09:21:10.449Z</time></trkpt><trkpt lat="44.70715" lon="8.0882717"><ele>323.0</ele><time>2026-04-12T09:21:11.449Z</time></trkpt><trkpt lat="44.707105" lon="8.0881067"><ele>323.0</ele><time>2026-04-12T09:21:13.449Z</time></trkpt><trkpt lat="44.707105" lon="8.0879967"><ele>323.0</ele><time>2026-04-12T09:21:14.449Z</time></trkpt><trkpt lat="44.7071133" lon="8.087895"><ele>322.5714285714286</ele><time>2026-04-12T09:21:15.449Z</time></trkpt><trkpt lat="44.7071433" lon="8.087795"><ele>322.14285714285717</ele><time>2026-04-12T09:21:16.449Z</time></trkpt><trkpt lat="44.70718" lon="8.087695"><ele>321.7142857142857</ele><time>2026-04-12T09:21:17.449Z</time></trkpt><trkpt lat="44.7072183" lon="8.08761"><ele>321.28571428571433</ele><time>2026-04-12T09:21:18.449Z</time></trkpt><trkpt lat="44.7072533" lon="8.08753"><ele>320.8571428571429</ele><time>2026-04-12T09:21:19.449Z</time></trkpt><trkpt lat="44.7072867" lon="8.0874433"><ele>320.42857142857144</ele><time>2026-04-12T09:21:20.449Z</time></trkpt><trkpt lat="44.7073133" lon="8.0873567"><ele>320.0</ele><time>2026-04-12T09:21:21.449Z</time></trkpt><trkpt lat="44.7073417" lon="8.0872667"><ele>319.57142857142856</ele><time>2026-04-12T09:21:22.449Z</time></trkpt><trkpt lat="44.7073667" lon="8.0871717"><ele>319.14285714285717</ele><time>2026-04-12T09:21:23.449Z</time></trkpt><trkpt lat="44.7073733" lon="8.0870667"><ele>318.7142857142857</ele><time>2026-04-12T09:21:24.449Z</time></trkpt><trkpt lat="44.707365" lon="8.0869683"><ele>318.2857142857143</ele><time>2026-04-12T09:21:25.449Z</time></trkpt><trkpt lat="44.7073383" lon="8.0868817"><ele>317.85714285714283</ele><time>2026-04-12T09:21:26.449Z</time></trkpt><trkpt lat="44.7073" lon="8.0868"><ele>317.42857142857144</ele><time>2026-04-12T09:21:27.449Z</time></trkpt><trkpt lat="44.70726" lon="8.0867283"><ele>317.0</ele><time>2026-04-12T09:21:28.449Z</time></trkpt><trkpt lat="44.707215" lon="8.0866567"><ele>317.1666666666667</ele><time>2026-04-12T09:21:29.449Z</time></trkpt><trkpt lat="44.7071267" lon="8.0865233"><ele>317.33333333333337</ele><time>2026-04-12T09:21:31.449Z</time></trkpt><trkpt lat="44.7070783" lon="8.0864583"><ele>317.5</ele><time>2026-04-12T09:21:32.449Z</time></trkpt><trkpt lat="44.7070283" lon="8.08639"><ele>317.6666666666667</ele><time>2026-04-12T09:21:33.449Z</time></trkpt><trkpt lat="44.70698" lon="8.0863283"><ele>317.8333333333333</ele><time>2026-04-12T09:21:34.449Z</time></trkpt><trkpt lat="44.7069283" lon="8.0862583"><ele>318.0</ele><time>2026-04-12T09:21:35.449Z</time></trkpt><trkpt lat="44.7068767" lon="8.0861867"><ele>318.0</ele><time>2026-04-12T09:21:36.449Z</time></trkpt><trkpt lat="44.7068283" lon="8.0861117"><ele>318.0</ele><time>2026-04-12T09:21:37.449Z</time></trkpt><trkpt lat="44.7067833" lon="8.0860333"><ele>318.0</ele><time>2026-04-12T09:21:38.449Z</time></trkpt><trkpt lat="44.7067383" lon="8.085965"><ele>318.0</ele><time>2026-04-12T09:21:39.449Z</time></trkpt><trkpt lat="44.706695" lon="8.08589"><ele>318.0</ele><time>2026-04-12T09:21:40.449Z</time></trkpt><trkpt lat="44.70665" lon="8.0858117"><ele>318.0</ele><time>2026-04-12T09:21:41.449Z</time></trkpt><trkpt lat="44.7065983" lon="8.0857367"><ele>318.0</ele><time>2026-04-12T09:21:42.45Z</time></trkpt><trkpt lat="44.706555" lon="8.08566"><ele>316.7142857142857</ele><time>2026-04-12T09:21:43.449Z</time></trkpt><trkpt lat="44.7065167" lon="8.085575"><ele>315.42857142857144</ele><time>2026-04-12T09:21:44.449Z</time></trkpt><trkpt lat="44.7064733" lon="8.0854833"><ele>314.14285714285717</ele><time>2026-04-12T09:21:45.449Z</time></trkpt><trkpt lat="44.7064367" lon="8.0853933"><ele>312.8571428571429</ele><time>2026-04-12T09:21:46.449Z</time></trkpt><trkpt lat="44.7064017" lon="8.0853017"><ele>311.57142857142856</ele><time>2026-04-12T09:21:47.449Z</time></trkpt><trkpt lat="44.7063683" lon="8.0852133"><ele>310.28571428571433</ele><time>2026-04-12T09:21:48.449Z</time></trkpt><trkpt lat="44.7063417" lon="8.0851217"><ele>309.0</ele><time>2026-04-12T09:21:49.449Z</time></trkpt><trkpt lat="44.7063083" lon="8.0850317"><ele>309.00000000000006</ele><time>2026-04-12T09:21:50.45Z</time></trkpt><trkpt lat="44.7062833" lon="8.084935"><ele>309.0</ele><time>2026-04-12T09:21:51.45Z</time></trkpt><trkpt lat="44.706255" lon="8.0848417"><ele>309.0</ele><time>2026-04-12T09:21:52.449Z</time></trkpt><trkpt lat="44.7062267" lon="8.08475"><ele>309.0</ele><time>2026-04-12T09:21:53.449Z</time></trkpt><trkpt lat="44.7061983" lon="8.0846617"><ele>309.0</ele><time>2026-04-12T09:21:54.449Z</time></trkpt><trkpt lat="44.7061717" lon="8.0845783"><ele>309.00000000000006</ele><time>2026-04-12T09:21:55.449Z</time></trkpt><trkpt lat="44.7061383" lon="8.084485"><ele>309.0</ele><time>2026-04-12T09:21:56.449Z</time></trkpt><trkpt lat="44.706105" lon="8.08439"><ele>310.14285714285717</ele><time>2026-04-12T09:21:57.449Z</time></trkpt><trkpt lat="44.7060733" lon="8.0843"><ele>311.2857142857143</ele><time>2026-04-12T09:21:58.449Z</time></trkpt><trkpt lat="44.70604" lon="8.0842217"><ele>312.42857142857144</ele><time>2026-04-12T09:21:59.449Z</time></trkpt><trkpt lat="44.70601" lon="8.0841333"><ele>313.57142857142856</ele><time>2026-04-12T09:22:00.449Z</time></trkpt><trkpt lat="44.70598" lon="8.0840467"><ele>314.7142857142857</ele><time>2026-04-12T09:22:01.449Z</time></trkpt><trkpt lat="44.70595" lon="8.0839617"><ele>315.8571428571429</ele><time>2026-04-12T09:22:02.449Z</time></trkpt><trkpt lat="44.70591" lon="8.0838783"><ele>317.0</ele><time>2026-04-12T09:22:03.449Z</time></trkpt><trkpt lat="44.70588" lon="8.0837867"><ele>317.0</ele><time>2026-04-12T09:22:04.449Z</time></trkpt><trkpt lat="44.7058533" lon="8.0836967"><ele>317.0</ele><time>2026-04-12T09:22:05.449Z</time></trkpt><trkpt lat="44.7058167" lon="8.08361"><ele>317.0</ele><time>2026-04-12T09:22:06.449Z</time></trkpt><trkpt lat="44.70578" lon="8.083525"><ele>317.0</ele><time>2026-04-12T09:22:07.449Z</time></trkpt><trkpt lat="44.7057417" lon="8.08344"><ele>317.0</ele><time>2026-04-12T09:22:08.449Z</time></trkpt><trkpt lat="44.7056967" lon="8.0833617"><ele>317.0</ele><time>2026-04-12T09:22:09.45Z</time></trkpt><trkpt lat="44.7056483" lon="8.0832783"><ele>317.0</ele><time>2026-04-12T09:22:10.449Z</time></trkpt><trkpt lat="44.705605" lon="8.0832017"><ele>315.6666666666667</ele><time>2026-04-12T09:22:11.449Z</time></trkpt><trkpt lat="44.70556" lon="8.0831267"><ele>314.33333333333337</ele><time>2026-04-12T09:22:12.449Z</time></trkpt><trkpt lat="44.7055167" lon="8.0830517"><ele>313.0</ele><time>2026-04-12T09:22:13.449Z</time></trkpt><trkpt lat="44.7054717" lon="8.0829783"><ele>311.6666666666667</ele><time>2026-04-12T09:22:14.449Z</time></trkpt><trkpt lat="44.70542" lon="8.0828867"><ele>310.3333333333333</ele><time>2026-04-12T09:22:15.449Z</time></trkpt><trkpt lat="44.7053683" lon="8.0827983"><ele>309.0</ele><time>2026-04-12T09:22:16.449Z</time></trkpt><trkpt lat="44.70531" lon="8.0827183"><ele>309.0</ele><time>2026-04-12T09:22:17.449Z</time></trkpt><trkpt lat="44.705255" lon="8.0826333"><ele>309.0</ele><time>2026-04-12T09:22:18.449Z</time></trkpt><trkpt lat="44.7051983" lon="8.0825433"><ele>309.0</ele><time>2026-04-12T09:22:19.449Z</time></trkpt><trkpt lat="44.70514" lon="8.0824517"><ele>309.0</ele><time>2026-04-12T09:22:20.449Z</time></trkpt><trkpt lat="44.7050817" lon="8.0823533"><ele>309.0</ele><time>2026-04-12T09:22:21.449Z</time></trkpt><trkpt lat="44.7050217" lon="8.082265"><ele>309.0</ele><time>2026-04-12T09:22:22.449Z</time></trkpt><trkpt lat="44.7049633" lon="8.0821783"><ele>308.8333333333333</ele><time>2026-04-12T09:22:23.449Z</time></trkpt><trkpt lat="44.7049067" lon="8.0820867"><ele>308.6666666666667</ele><time>2026-04-12T09:22:24.449Z</time></trkpt><trkpt lat="44.7048433" lon="8.0819983"><ele>308.5</ele><time>2026-04-12T09:22:25.449Z</time></trkpt><trkpt lat="44.7047867" lon="8.081905"><ele>308.33333333333337</ele><time>2026-04-12T09:22:26.449Z</time></trkpt><trkpt lat="44.7047333" lon="8.0818017"><ele>308.1666666666667</ele><time>2026-04-12T09:22:27.449Z</time></trkpt><trkpt lat="44.704675" lon="8.0817117"><ele>308.0</ele><time>2026-04-12T09:22:28.449Z</time></trkpt><trkpt lat="44.7046167" lon="8.08161"><ele>309.83333333333337</ele><time>2026-04-12T09:22:29.449Z</time></trkpt><trkpt lat="44.7045567" lon="8.0815083"><ele>311.6666666666667</ele><time>2026-04-12T09:22:30.449Z</time></trkpt><trkpt lat="44.7044983" lon="8.0814133"><ele>313.5</ele><time>2026-04-12T09:22:31.449Z</time></trkpt><trkpt lat="44.7044433" lon="8.081315"><ele>315.3333333333333</ele><time>2026-04-12T09:22:32.449Z</time></trkpt><trkpt lat="44.7043917" lon="8.0812267"><ele>317.16666666666663</ele><time>2026-04-12T09:22:33.449Z</time></trkpt><trkpt lat="44.7043433" lon="8.0811333"><ele>319.0</ele><time>2026-04-12T09:22:34.449Z</time></trkpt><trkpt lat="44.7042983" lon="8.0810417"><ele>319.0</ele><time>2026-04-12T09:22:35.449Z</time></trkpt><trkpt lat="44.70425" lon="8.08094"><ele>319.0</ele><time>2026-04-12T09:22:36.449Z</time></trkpt><trkpt lat="44.704205" lon="8.08084"><ele>319.0</ele><time>2026-04-12T09:22:37.449Z</time></trkpt><trkpt lat="44.7041783" lon="8.0807267"><ele>319.0</ele><time>2026-04-12T09:22:38.449Z</time></trkpt><trkpt lat="44.7041667" lon="8.080605"><ele>319.0</ele><time>2026-04-12T09:22:39.449Z</time></trkpt><trkpt lat="44.7041817" lon="8.0804883"><ele>319.0</ele><time>2026-04-12T09:22:40.449Z</time></trkpt><trkpt lat="44.7041983" lon="8.0803667"><ele>318.59999999999997</ele><time>2026-04-12T09:22:41.449Z</time></trkpt><trkpt lat="44.7042267" lon="8.0802417"><ele>318.2</ele><time>2026-04-12T09:22:42.45Z</time></trkpt><trkpt lat="44.7042667" lon="8.0801267"><ele>317.79999999999995</ele><time>2026-04-12T09:22:43.449Z</time></trkpt><trkpt lat="44.704315" lon="8.08001"><ele>317.4</ele><time>2026-04-12T09:22:44.449Z</time></trkpt><trkpt lat="44.7043683" lon="8.0799017"><ele>317.0</ele><time>2026-04-12T09:22:45.449Z</time></trkpt><trkpt lat="44.7044217" lon="8.0797967"><ele>313.4</ele><time>2026-04-12T09:22:46.449Z</time></trkpt><trkpt lat="44.7044767" lon="8.0796867"><ele>309.79999999999995</ele><time>2026-04-12T09:22:47.449Z</time></trkpt><trkpt lat="44.7045267" lon="8.0795733"><ele>306.2</ele><time>2026-04-12T09:22:48.45Z</time></trkpt><trkpt lat="44.7045783" lon="8.0794583"><ele>302.59999999999997</ele><time>2026-04-12T09:22:49.449Z</time></trkpt><trkpt lat="44.7046317" lon="8.0793483"><ele>299.0</ele><time>2026-04-12T09:22:50.449Z</time></trkpt><trkpt lat="44.7046917" lon="8.079235"><ele>299.0</ele><time>2026-04-12T09:22:51.449Z</time></trkpt><trkpt lat="44.70475" lon="8.0791133"><ele>299.0</ele><time>2026-04-12T09:22:52.449Z</time></trkpt><trkpt lat="44.7048067" lon="8.07899"><ele>299.0</ele><time>2026-04-12T09:22:53.449Z</time></trkpt><trkpt lat="44.7048667" lon="8.07887"><ele>299.0</ele><time>2026-04-12T09:22:54.449Z</time></trkpt><trkpt lat="44.704925" lon="8.0787467"><ele>299.0</ele><time>2026-04-12T09:22:55.449Z</time></trkpt><trkpt lat="44.704975" lon="8.07863"><ele>299.8</ele><time>2026-04-12T09:22:56.449Z</time></trkpt><trkpt lat="44.7050117" lon="8.07851"><ele>300.59999999999997</ele><time>2026-04-12T09:22:57.449Z</time></trkpt><trkpt lat="44.70503" lon="8.0783767"><ele>301.4</ele><time>2026-04-12T09:22:58.449Z</time></trkpt><trkpt lat="44.7050367" lon="8.0782383"><ele>302.2</ele><time>2026-04-12T09:22:59.449Z</time></trkpt><trkpt lat="44.70503" lon="8.0781"><ele>303.0</ele><time>2026-04-12T09:23:00.449Z</time></trkpt><trkpt lat="44.705025" lon="8.0779517"><ele>303.0</ele><time>2026-04-12T09:23:01.449Z</time></trkpt><trkpt lat="44.705015" lon="8.0778083"><ele>303.0</ele><time>2026-04-12T09:23:02.449Z</time></trkpt><trkpt lat="44.70501" lon="8.0776633"><ele>303.0</ele><time>2026-04-12T09:23:03.449Z</time></trkpt><trkpt lat="44.7049983" lon="8.0775283"><ele>303.0</ele><time>2026-04-12T09:23:04.449Z</time></trkpt><trkpt lat="44.7049933" lon="8.0773867"><ele>303.0</ele><time>2026-04-12T09:23:05.449Z</time></trkpt><trkpt lat="44.704985" lon="8.0772467"><ele>303.0</ele><time>2026-04-12T09:23:06.449Z</time></trkpt><trkpt lat="44.7049883" lon="8.0770983"><ele>303.0</ele><time>2026-04-12T09:23:07.449Z</time></trkpt><trkpt lat="44.705" lon="8.07695"><ele>303.0</ele><time>2026-04-12T09:23:08.449Z</time></trkpt><trkpt lat="44.7050317" lon="8.0768067"><ele>303.0</ele><time>2026-04-12T09:23:09.449Z</time></trkpt><trkpt lat="44.7050767" lon="8.0766667"><ele>303.0</ele><time>2026-04-12T09:23:10.449Z</time></trkpt><trkpt lat="44.7051417" lon="8.07653"><ele>302.8</ele><time>2026-04-12T09:23:11.449Z</time></trkpt><trkpt lat="44.7052117" lon="8.0764"><ele>302.6</ele><time>2026-04-12T09:23:12.449Z</time></trkpt><trkpt lat="44.7052767" lon="8.0762667"><ele>302.4</ele><time>2026-04-12T09:23:13.449Z</time></trkpt><trkpt lat="44.7053267" lon="8.076135"><ele>302.2</ele><time>2026-04-12T09:23:14.449Z</time></trkpt><trkpt lat="44.705365" lon="8.076"><ele>302.0</ele><time>2026-04-12T09:23:15.449Z</time></trkpt><trkpt lat="44.7054" lon="8.07585"><ele>298.25</ele><time>2026-04-12T09:23:16.449Z</time></trkpt><trkpt lat="44.7054333" lon="8.0756933"><ele>294.5</ele><time>2026-04-12T09:23:17.449Z</time></trkpt><trkpt lat="44.7054667" lon="8.0755417"><ele>290.75</ele><time>2026-04-12T09:23:18.449Z</time></trkpt><trkpt lat="44.7054917" lon="8.0753867"><ele>287.0</ele><time>2026-04-12T09:23:19.45Z</time></trkpt><trkpt lat="44.7055333" lon="8.075235"><ele>287.0</ele><time>2026-04-12T09:23:20.449Z</time></trkpt><trkpt lat="44.705565" lon="8.0750783"><ele>287.0</ele><time>2026-04-12T09:23:21.449Z</time></trkpt><trkpt lat="44.7056017" lon="8.0749083"><ele>287.0</ele><time>2026-04-12T09:23:22.449Z</time></trkpt><trkpt lat="44.705625" lon="8.0747467"><ele>287.0</ele><time>2026-04-12T09:23:23.449Z</time></trkpt><trkpt lat="44.7056417" lon="8.07458"><ele>286.5</ele><time>2026-04-12T09:23:24.45Z</time></trkpt><trkpt lat="44.7056467" lon="8.0744167"><ele>286.0</ele><time>2026-04-12T09:23:25.449Z</time></trkpt><trkpt lat="44.7056583" lon="8.0742467"><ele>285.5</ele><time>2026-04-12T09:23:26.449Z</time></trkpt><trkpt lat="44.705655" lon="8.07408"><ele>285.0</ele><time>2026-04-12T09:23:27.449Z</time></trkpt><trkpt lat="44.7056533" lon="8.073915"><ele>284.25</ele><time>2026-04-12T09:23:28.449Z</time></trkpt><trkpt lat="44.7056533" lon="8.0737533"><ele>283.5</ele><time>2026-04-12T09:23:29.449Z</time></trkpt><trkpt lat="44.70566" lon="8.0735917"><ele>282.75</ele><time>2026-04-12T09:23:30.449Z</time></trkpt><trkpt lat="44.7056583" lon="8.0734267"><ele>282.0</ele><time>2026-04-12T09:23:31.449Z</time></trkpt><trkpt lat="44.7056583" lon="8.073265"><ele>281.8</ele><time>2026-04-12T09:23:32.45Z</time></trkpt><trkpt lat="44.7056617" lon="8.0731067"><ele>281.6</ele><time>2026-04-12T09:23:33.449Z</time></trkpt><trkpt lat="44.7056683" lon="8.0729467"><ele>281.40000000000003</ele><time>2026-04-12T09:23:34.449Z</time></trkpt><trkpt lat="44.70568" lon="8.0727967"><ele>281.2</ele><time>2026-04-12T09:23:35.449Z</time></trkpt><trkpt lat="44.7057083" lon="8.0726467"><ele>281.0</ele><time>2026-04-12T09:23:36.449Z</time></trkpt><trkpt lat="44.705735" lon="8.0725017"><ele>280.40000000000003</ele><time>2026-04-12T09:23:37.449Z</time></trkpt><trkpt lat="44.705765" lon="8.07235"><ele>279.8</ele><time>2026-04-12T09:23:38.449Z</time></trkpt><trkpt lat="44.7057983" lon="8.0722"><ele>279.20000000000005</ele><time>2026-04-12T09:23:39.449Z</time></trkpt><trkpt lat="44.7058333" lon="8.0720567"><ele>278.6</ele><time>2026-04-12T09:23:40.449Z</time></trkpt><trkpt lat="44.7058633" lon="8.0719017"><ele>278.0</ele><time>2026-04-12T09:23:41.45Z</time></trkpt><trkpt lat="44.7058833" lon="8.0717433"><ele>277.4</ele><time>2026-04-12T09:23:42.449Z</time></trkpt><trkpt lat="44.7058917" lon="8.0715817"><ele>276.8</ele><time>2026-04-12T09:23:43.449Z</time></trkpt><trkpt lat="44.7058917" lon="8.0714267"><ele>276.2</ele><time>2026-04-12T09:23:44.449Z</time></trkpt><trkpt lat="44.70588" lon="8.07128"><ele>275.6</ele><time>2026-04-12T09:23:45.449Z</time></trkpt><trkpt lat="44.70586" lon="8.0711267"><ele>275.0</ele><time>2026-04-12T09:23:46.449Z</time></trkpt><trkpt lat="44.7058417" lon="8.0709867"><ele>275.0</ele><time>2026-04-12T09:23:47.449Z</time></trkpt><trkpt lat="44.705835" lon="8.0708517"><ele>275.0</ele><time>2026-04-12T09:23:48.449Z</time></trkpt><trkpt lat="44.70585" lon="8.0707183"><ele>275.0</ele><time>2026-04-12T09:23:49.449Z</time></trkpt><trkpt lat="44.7058883" lon="8.0706"><ele>275.0</ele><time>2026-04-12T09:23:50.449Z</time></trkpt><trkpt lat="44.705955" lon="8.070505"><ele>275.0</ele><time>2026-04-12T09:23:51.449Z</time></trkpt><trkpt lat="44.7060417" lon="8.0704367"><ele>274.4</ele><time>2026-04-12T09:23:52.449Z</time></trkpt><trkpt lat="44.7061417" lon="8.0703817"><ele>273.8</ele><time>2026-04-12T09:23:53.449Z</time></trkpt><trkpt lat="44.7062483" lon="8.0703333"><ele>273.2</ele><time>2026-04-12T09:23:54.449Z</time></trkpt><trkpt lat="44.7063567" lon="8.0702833"><ele>272.6</ele><time>2026-04-12T09:23:55.449Z</time></trkpt><trkpt lat="44.706465" lon="8.0702333"><ele>272.0</ele><time>2026-04-12T09:23:56.449Z</time></trkpt><trkpt lat="44.7065783" lon="8.0701683"><ele>272.0</ele><time>2026-04-12T09:23:57.449Z</time></trkpt><trkpt lat="44.70669" lon="8.0701"><ele>272.0</ele><time>2026-04-12T09:23:58.449Z</time></trkpt><trkpt lat="44.7068033" lon="8.0700183"><ele>272.0</ele><time>2026-04-12T09:23:59.449Z</time></trkpt><trkpt lat="44.7069" lon="8.06991"><ele>272.0</ele><time>2026-04-12T09:24:00.449Z</time></trkpt><trkpt lat="44.7069883" lon="8.0697867"><ele>272.0</ele><time>2026-04-12T09:24:01.449Z</time></trkpt><trkpt lat="44.7070633" lon="8.0696433"><ele>272.0</ele><time>2026-04-12T09:24:02.449Z</time></trkpt><trkpt lat="44.7071317" lon="8.0694983"><ele>272.0</ele><time>2026-04-12T09:24:03.449Z</time></trkpt><trkpt lat="44.7072" lon="8.0693517"><ele>272.0</ele><time>2026-04-12T09:24:04.449Z</time></trkpt><trkpt lat="44.7072633" lon="8.0692033"><ele>269.25</ele><time>2026-04-12T09:24:05.449Z</time></trkpt><trkpt lat="44.7073117" lon="8.0690583"><ele>266.5</ele><time>2026-04-12T09:24:06.449Z</time></trkpt><trkpt lat="44.7073533" lon="8.06889"><ele>263.75</ele><time>2026-04-12T09:24:07.449Z</time></trkpt><trkpt lat="44.707385" lon="8.06871"><ele>261.0</ele><time>2026-04-12T09:24:08.449Z</time></trkpt><trkpt lat="44.707415" lon="8.0685333"><ele>261.0</ele><time>2026-04-12T09:24:09.449Z</time></trkpt><trkpt lat="44.7074417" lon="8.068365"><ele>261.0</ele><time>2026-04-12T09:24:10.449Z</time></trkpt><trkpt lat="44.707475" lon="8.0682017"><ele>261.0</ele><time>2026-04-12T09:24:11.449Z</time></trkpt><trkpt lat="44.7075033" lon="8.068045"><ele>261.0</ele><time>2026-04-12T09:24:12.449Z</time></trkpt><trkpt lat="44.707545" lon="8.0679067"><ele>259.6</ele><time>2026-04-12T09:24:13.449Z</time></trkpt><trkpt lat="44.7075967" lon="8.0677867"><ele>258.20000000000005</ele><time>2026-04-12T09:24:14.45Z</time></trkpt><trkpt lat="44.70767" lon="8.067705"><ele>256.79999999999995</ele><time>2026-04-12T09:24:15.449Z</time></trkpt><trkpt lat="44.7077583" lon="8.0676517"><ele>255.39999999999998</ele><time>2026-04-12T09:24:16.449Z</time></trkpt><trkpt lat="44.707865" lon="8.06762"><ele>254.0</ele><time>2026-04-12T09:24:17.449Z</time></trkpt><trkpt lat="44.707975" lon="8.0676133"><ele>254.0</ele><time>2026-04-12T09:24:18.449Z</time></trkpt><trkpt lat="44.7081083" lon="8.067585"><ele>254.0</ele><time>2026-04-12T09:24:19.45Z</time></trkpt><trkpt lat="44.70822" lon="8.0675817"><ele>254.0</ele><time>2026-04-12T09:24:20.449Z</time></trkpt><trkpt lat="44.7083333" lon="8.0675567"><ele>254.0</ele><time>2026-04-12T09:24:21.449Z</time></trkpt><trkpt lat="44.708445" lon="8.0675033"><ele>252.5</ele><time>2026-04-12T09:24:22.449Z</time></trkpt><trkpt lat="44.70855" lon="8.0674367"><ele>251.0</ele><time>2026-04-12T09:24:23.449Z</time></trkpt><trkpt lat="44.7086567" lon="8.0673633"><ele>249.5</ele><time>2026-04-12T09:24:24.45Z</time></trkpt><trkpt lat="44.70875" lon="8.067295"><ele>248.0</ele><time>2026-04-12T09:24:25.45Z</time></trkpt><trkpt lat="44.7088583" lon="8.0672217"><ele>248.0</ele><time>2026-04-12T09:24:26.449Z</time></trkpt><trkpt lat="44.70896" lon="8.06714"><ele>248.0</ele><time>2026-04-12T09:24:27.449Z</time></trkpt><trkpt lat="44.7090517" lon="8.06705"><ele>248.0</ele><time>2026-04-12T09:24:28.449Z</time></trkpt><trkpt lat="44.7091433" lon="8.0669417"><ele>248.0</ele><time>2026-04-12T09:24:29.449Z</time></trkpt><trkpt lat="44.7092133" lon="8.0668183"><ele>248.0</ele><time>2026-04-12T09:24:30.45Z</time></trkpt><trkpt lat="44.7092767" lon="8.06668"><ele>248.0</ele><time>2026-04-12T09:24:31.449Z</time></trkpt><trkpt lat="44.70933" lon="8.06651"><ele>248.0</ele><time>2026-04-12T09:24:32.449Z</time></trkpt><trkpt lat="44.709375" lon="8.066345"><ele>248.0</ele><time>2026-04-12T09:24:33.449Z</time></trkpt><trkpt lat="44.709425" lon="8.0661833"><ele>247.5</ele><time>2026-04-12T09:24:34.449Z</time></trkpt><trkpt lat="44.7094733" lon="8.0660233"><ele>247.0</ele><time>2026-04-12T09:24:35.449Z</time></trkpt><trkpt lat="44.7095183" lon="8.0658583"><ele>246.5</ele><time>2026-04-12T09:24:36.449Z</time></trkpt><trkpt lat="44.709565" lon="8.0656917"><ele>246.0</ele><time>2026-04-12T09:24:37.449Z</time></trkpt><trkpt lat="44.7095917" lon="8.0655233"><ele>246.0</ele><time>2026-04-12T09:24:38.449Z</time></trkpt><trkpt lat="44.709595" lon="8.0653517"><ele>246.0</ele><time>2026-04-12T09:24:39.449Z</time></trkpt><trkpt lat="44.7095933" lon="8.06518"><ele>246.0</ele><time>2026-04-12T09:24:40.449Z</time></trkpt><trkpt lat="44.709585" lon="8.0650033"><ele>246.0</ele><time>2026-04-12T09:24:41.449Z</time></trkpt><trkpt lat="44.709575" lon="8.064825"><ele>244.25</ele><time>2026-04-12T09:24:42.449Z</time></trkpt><trkpt lat="44.7095583" lon="8.0646483"><ele>242.5</ele><time>2026-04-12T09:24:43.449Z</time></trkpt><trkpt lat="44.7095433" lon="8.0644817"><ele>240.75</ele><time>2026-04-12T09:24:44.449Z</time></trkpt><trkpt lat="44.7095333" lon="8.064325"><ele>239.0</ele><time>2026-04-12T09:24:45.449Z</time></trkpt><trkpt lat="44.70953" lon="8.064165"><ele>238.2</ele><time>2026-04-12T09:24:46.45Z</time></trkpt><trkpt lat="44.7095267" lon="8.06401"><ele>237.39999999999998</ele><time>2026-04-12T09:24:47.45Z</time></trkpt><trkpt lat="44.7095217" lon="8.0638667"><ele>236.6</ele><time>2026-04-12T09:24:48.449Z</time></trkpt><trkpt lat="44.7095267" lon="8.0637233"><ele>235.8</ele><time>2026-04-12T09:24:49.449Z</time></trkpt><trkpt lat="44.7095533" lon="8.0635917"><ele>235.0</ele><time>2026-04-12T09:24:50.449Z</time></trkpt><trkpt lat="44.7096083" lon="8.06347"><ele>235.0</ele><time>2026-04-12T09:24:51.45Z</time></trkpt><trkpt lat="44.709685" lon="8.0633733"><ele>235.0</ele><time>2026-04-12T09:24:52.449Z</time></trkpt><trkpt lat="44.7097717" lon="8.0632817"><ele>235.0</ele><time>2026-04-12T09:24:53.449Z</time></trkpt><trkpt lat="44.70985" lon="8.0631883"><ele>235.0</ele><time>2026-04-12T09:24:54.449Z</time></trkpt><trkpt lat="44.7099167" lon="8.0630967"><ele>235.0</ele><time>2026-04-12T09:24:55.449Z</time></trkpt><trkpt lat="44.7099833" lon="8.0629917"><ele>233.0</ele><time>2026-04-12T09:24:56.449Z</time></trkpt><trkpt lat="44.7100217" lon="8.062875"><ele>231.0</ele><time>2026-04-12T09:24:57.449Z</time></trkpt><trkpt lat="44.71003" lon="8.0627533"><ele>229.0</ele><time>2026-04-12T09:24:58.449Z</time></trkpt><trkpt lat="44.7100017" lon="8.0626267"><ele>227.0</ele><time>2026-04-12T09:24:59.45Z</time></trkpt><trkpt lat="44.7099483" lon="8.0625217"><ele>225.0</ele><time>2026-04-12T09:25:00.45Z</time></trkpt><trkpt lat="44.7098517" lon="8.0624767"><ele>225.0</ele><time>2026-04-12T09:25:01.449Z</time></trkpt><trkpt lat="44.7097517" lon="8.0624583"><ele>225.0</ele><time>2026-04-12T09:25:02.449Z</time></trkpt><trkpt lat="44.7096467" lon="8.062475"><ele>225.0</ele><time>2026-04-12T09:25:03.449Z</time></trkpt><trkpt lat="44.7095433" lon="8.06251"><ele>225.0</ele><time>2026-04-12T09:25:04.449Z</time></trkpt><trkpt lat="44.7094483" lon="8.0625617"><ele>225.0</ele><time>2026-04-12T09:25:05.449Z</time></trkpt><trkpt lat="44.7093667" lon="8.06266"><ele>223.2</ele><time>2026-04-12T09:25:06.45Z</time></trkpt><trkpt lat="44.7093083" lon="8.0627817"><ele>221.4</ele><time>2026-04-12T09:25:07.449Z</time></trkpt><trkpt lat="44.7092733" lon="8.0629283"><ele>219.60000000000002</ele><time>2026-04-12T09:25:08.449Z</time></trkpt><trkpt lat="44.70926" lon="8.06309"><ele>217.8</ele><time>2026-04-12T09:25:09.449Z</time></trkpt><trkpt lat="44.7092533" lon="8.0632467"><ele>216.0</ele><time>2026-04-12T09:25:10.449Z</time></trkpt><trkpt lat="44.70924" lon="8.0634167"><ele>216.0</ele><time>2026-04-12T09:25:11.449Z</time></trkpt><trkpt lat="44.7092167" lon="8.0635883"><ele>216.0</ele><time>2026-04-12T09:25:12.449Z</time></trkpt><trkpt lat="44.7091867" lon="8.0637583"><ele>216.0</ele><time>2026-04-12T09:25:13.449Z</time></trkpt><trkpt lat="44.7091633" lon="8.06391"><ele>216.0</ele><time>2026-04-12T09:25:14.45Z</time></trkpt><trkpt lat="44.7091383" lon="8.0640633"><ele>216.75</ele><time>2026-04-12T09:25:15.449Z</time></trkpt><trkpt lat="44.7091217" lon="8.0642133"><ele>217.5</ele><time>2026-04-12T09:25:16.449Z</time></trkpt><trkpt lat="44.70911" lon="8.064375"><ele>218.25</ele><time>2026-04-12T09:25:17.449Z</time></trkpt><trkpt lat="44.7091017" lon="8.0645417"><ele>219.0</ele><time>2026-04-12T09:25:18.449Z</time></trkpt><trkpt lat="44.7090883" lon="8.06471"><ele>219.0</ele><time>2026-04-12T09:25:19.449Z</time></trkpt><trkpt lat="44.7090767" lon="8.064875"><ele>218.99999999999997</ele><time>2026-04-12T09:25:20.449Z</time></trkpt><trkpt lat="44.7090583" lon="8.065035"><ele>218.99999999999997</ele><time>2026-04-12T09:25:21.449Z</time></trkpt><trkpt lat="44.7090167" lon="8.065175"><ele>219.0</ele><time>2026-04-12T09:25:22.449Z</time></trkpt><trkpt lat="44.708945" lon="8.065275"><ele>219.0</ele><time>2026-04-12T09:25:23.449Z</time></trkpt><trkpt lat="44.7088517" lon="8.0653167"><ele>220.25</ele><time>2026-04-12T09:25:24.449Z</time></trkpt><trkpt lat="44.7087433" lon="8.0653267"><ele>221.5</ele><time>2026-04-12T09:25:25.449Z</time></trkpt><trkpt lat="44.70863" lon="8.0653117"><ele>222.75</ele><time>2026-04-12T09:25:26.449Z</time></trkpt><trkpt lat="44.7085167" lon="8.0652733"><ele>224.0</ele><time>2026-04-12T09:25:27.449Z</time></trkpt><trkpt lat="44.7084067" lon="8.0652"><ele>220.25</ele><time>2026-04-12T09:25:28.449Z</time></trkpt><trkpt lat="44.7083033" lon="8.0651083"><ele>216.5</ele><time>2026-04-12T09:25:29.449Z</time></trkpt><trkpt lat="44.7081967" lon="8.065035"><ele>212.75</ele><time>2026-04-12T09:25:30.449Z</time></trkpt><trkpt lat="44.7080883" lon="8.064985"><ele>209.0</ele><time>2026-04-12T09:25:31.449Z</time></trkpt><trkpt lat="44.7079717" lon="8.064945"><ele>206.0</ele><time>2026-04-12T09:25:32.449Z</time></trkpt><trkpt lat="44.7078567" lon="8.0649117"><ele>203.0</ele><time>2026-04-12T09:25:33.449Z</time></trkpt><trkpt lat="44.707735" lon="8.06489"><ele>200.0</ele><time>2026-04-12T09:25:34.449Z</time></trkpt><trkpt lat="44.7076067" lon="8.0648633"><ele>197.0</ele><time>2026-04-12T09:25:35.449Z</time></trkpt><trkpt lat="44.70748" lon="8.064835"><ele>197.0</ele><time>2026-04-12T09:25:36.449Z</time></trkpt><trkpt lat="44.7073583" lon="8.0648033"><ele>197.0</ele><time>2026-04-12T09:25:37.449Z</time></trkpt><trkpt lat="44.7072317" lon="8.0647817"><ele>197.0</ele><time>2026-04-12T09:25:38.449Z</time></trkpt><trkpt lat="44.707115" lon="8.064755"><ele>197.0</ele><time>2026-04-12T09:25:39.449Z</time></trkpt><trkpt lat="44.7070117" lon="8.064695"><ele>197.0</ele><time>2026-04-12T09:25:40.449Z</time></trkpt><trkpt lat="44.706915" lon="8.06461"><ele>197.0</ele><time>2026-04-12T09:25:41.449Z</time></trkpt><trkpt lat="44.70683" lon="8.0645017"><ele>197.0</ele><time>2026-04-12T09:25:42.449Z</time></trkpt><trkpt lat="44.7067583" lon="8.0643833"><ele>197.0</ele><time>2026-04-12T09:25:43.449Z</time></trkpt><trkpt lat="44.706695" lon="8.064275"><ele>197.0</ele><time>2026-04-12T09:25:44.449Z</time></trkpt><trkpt lat="44.7066267" lon="8.06419"><ele>196.6</ele><time>2026-04-12T09:25:45.449Z</time></trkpt><trkpt lat="44.7065467" lon="8.0641417"><ele>196.2</ele><time>2026-04-12T09:25:46.449Z</time></trkpt><trkpt lat="44.7064567" lon="8.0641383"><ele>195.8</ele><time>2026-04-12T09:25:47.449Z</time></trkpt><trkpt lat="44.7063717" lon="8.06419"><ele>195.4</ele><time>2026-04-12T09:25:48.449Z</time></trkpt><trkpt lat="44.7062983" lon="8.064265"><ele>195.0</ele><time>2026-04-12T09:25:49.449Z</time></trkpt><trkpt lat="44.7062383" lon="8.0643667"><ele>195.0</ele><time>2026-04-12T09:25:50.449Z</time></trkpt><trkpt lat="44.7061933" lon="8.0644983"><ele>195.0</ele><time>2026-04-12T09:25:51.449Z</time></trkpt><trkpt lat="44.7061683" lon="8.0646383"><ele>195.0</ele><time>2026-04-12T09:25:52.449Z</time></trkpt><trkpt lat="44.7061533" lon="8.0647883"><ele>195.0</ele><time>2026-04-12T09:25:53.449Z</time></trkpt><trkpt lat="44.7061483" lon="8.0649333"><ele>195.0</ele><time>2026-04-12T09:25:54.449Z</time></trkpt><trkpt lat="44.706145" lon="8.06508"><ele>197.2</ele><time>2026-04-12T09:25:55.449Z</time></trkpt><trkpt lat="44.7061467" lon="8.0652317"><ele>199.4</ele><time>2026-04-12T09:25:56.449Z</time></trkpt><trkpt lat="44.7061483" lon="8.0653817"><ele>201.60000000000002</ele><time>2026-04-12T09:25:57.449Z</time></trkpt><trkpt lat="44.70615" lon="8.065535"><ele>203.8</ele><time>2026-04-12T09:25:58.449Z</time></trkpt><trkpt lat="44.706155" lon="8.0656767"><ele>206.0</ele><time>2026-04-12T09:25:59.449Z</time></trkpt><trkpt lat="44.70615" lon="8.065825"><ele>207.20000000000002</ele><time>2026-04-12T09:26:00.449Z</time></trkpt><trkpt lat="44.7061183" lon="8.0659617"><ele>208.4</ele><time>2026-04-12T09:26:01.449Z</time></trkpt><trkpt lat="44.70606" lon="8.066075"><ele>209.6</ele><time>2026-04-12T09:26:02.449Z</time></trkpt><trkpt lat="44.7059683" lon="8.066145"><ele>210.8</ele><time>2026-04-12T09:26:03.449Z</time></trkpt><trkpt lat="44.7058583" lon="8.066155"><ele>212.0</ele><time>2026-04-12T09:26:04.449Z</time></trkpt><trkpt lat="44.7057533" lon="8.06613"><ele>208.2</ele><time>2026-04-12T09:26:05.449Z</time></trkpt><trkpt lat="44.705655" lon="8.066065"><ele>204.39999999999998</ele><time>2026-04-12T09:26:06.449Z</time></trkpt><trkpt lat="44.7055717" lon="8.06597"><ele>200.60000000000002</ele><time>2026-04-12T09:26:07.449Z</time></trkpt><trkpt lat="44.705495" lon="8.0658533"><ele>196.8</ele><time>2026-04-12T09:26:08.449Z</time></trkpt><trkpt lat="44.7054167" lon="8.0657333"><ele>193.0</ele><time>2026-04-12T09:26:09.449Z</time></trkpt><trkpt lat="44.7053433" lon="8.065615"><ele>192.0</ele><time>2026-04-12T09:26:10.449Z</time></trkpt><trkpt lat="44.7052667" lon="8.065495"><ele>191.0</ele><time>2026-04-12T09:26:11.449Z</time></trkpt><trkpt lat="44.7051867" lon="8.0653667"><ele>190.0</ele><time>2026-04-12T09:26:12.449Z</time></trkpt><trkpt lat="44.705115" lon="8.06525"><ele>189.0</ele><time>2026-04-12T09:26:13.45Z</time></trkpt><trkpt lat="44.7050367" lon="8.0651333"><ele>188.5</ele><time>2026-04-12T09:26:14.449Z</time></trkpt><trkpt lat="44.704955" lon="8.0650217"><ele>188.0</ele><time>2026-04-12T09:26:15.449Z</time></trkpt><trkpt lat="44.7048817" lon="8.0648967"><ele>187.5</ele><time>2026-04-12T09:26:16.449Z</time></trkpt><trkpt lat="44.7048" lon="8.0647817"><ele>187.0</ele><time>2026-04-12T09:26:17.449Z</time></trkpt><trkpt lat="44.7047117" lon="8.0646867"><ele>185.8</ele><time>2026-04-12T09:26:18.449Z</time></trkpt><trkpt lat="44.7046167" lon="8.0646117"><ele>184.6</ele><time>2026-04-12T09:26:19.449Z</time></trkpt><trkpt lat="44.7045117" lon="8.0645667"><ele>183.4</ele><time>2026-04-12T09:26:20.449Z</time></trkpt><trkpt lat="44.7044017" lon="8.0645517"><ele>182.20000000000002</ele><time>2026-04-12T09:26:21.449Z</time></trkpt><trkpt lat="44.7042867" lon="8.0645467"><ele>181.0</ele><time>2026-04-12T09:26:22.449Z</time></trkpt><trkpt lat="44.7041633" lon="8.0645483"><ele>181.0</ele><time>2026-04-12T09:26:23.449Z</time></trkpt><trkpt lat="44.7040433" lon="8.0645583"><ele>181.0</ele><time>2026-04-12T09:26:24.449Z</time></trkpt><trkpt lat="44.70392" lon="8.0645683"><ele>181.0</ele><time>2026-04-12T09:26:25.449Z</time></trkpt><trkpt lat="44.7037967" lon="8.0645733"><ele>181.0</ele><time>2026-04-12T09:26:26.449Z</time></trkpt><trkpt lat="44.7036717" lon="8.06458"><ele>179.75</ele><time>2026-04-12T09:26:27.449Z</time></trkpt><trkpt lat="44.7035467" lon="8.0645833"><ele>178.5</ele><time>2026-04-12T09:26:28.449Z</time></trkpt><trkpt lat="44.703425" lon="8.0645733"><ele>177.25</ele><time>2026-04-12T09:26:29.449Z</time></trkpt><trkpt lat="44.7033117" lon="8.0645383"><ele>176.0</ele><time>2026-04-12T09:26:30.449Z</time></trkpt><trkpt lat="44.7032017" lon="8.0644817"><ele>176.0</ele><time>2026-04-12T09:26:31.449Z</time></trkpt><trkpt lat="44.7030933" lon="8.06441"><ele>176.0</ele><time>2026-04-12T09:26:32.449Z</time></trkpt><trkpt lat="44.70298" lon="8.06433"><ele>176.0</ele><time>2026-04-12T09:26:33.449Z</time></trkpt><trkpt lat="44.7028683" lon="8.06425"><ele>176.0</ele><time>2026-04-12T09:26:34.45Z</time></trkpt><trkpt lat="44.7027567" lon="8.0641733"><ele>174.5</ele><time>2026-04-12T09:26:35.449Z</time></trkpt><trkpt lat="44.7026433" lon="8.0640967"><ele>173.0</ele><time>2026-04-12T09:26:36.449Z</time></trkpt><trkpt lat="44.7025283" lon="8.0640133"><ele>171.5</ele><time>2026-04-12T09:26:37.449Z</time></trkpt><trkpt lat="44.7024183" lon="8.0639283"><ele>170.0</ele><time>2026-04-12T09:26:38.449Z</time></trkpt><trkpt lat="44.7023083" lon="8.0638533"><ele>170.0</ele><time>2026-04-12T09:26:39.449Z</time></trkpt><trkpt lat="44.7022017" lon="8.0637867"><ele>170.0</ele><time>2026-04-12T09:26:40.449Z</time></trkpt><trkpt lat="44.7020967" lon="8.063725"><ele>170.0</ele><time>2026-04-12T09:26:41.449Z</time></trkpt><trkpt lat="44.701985" lon="8.0636683"><ele>170.0</ele><time>2026-04-12T09:26:42.449Z</time></trkpt><trkpt lat="44.7018783" lon="8.063615"><ele>170.0</ele><time>2026-04-12T09:26:43.449Z</time></trkpt><trkpt lat="44.7017767" lon="8.0635633"><ele>170.0</ele><time>2026-04-12T09:26:44.449Z</time></trkpt><trkpt lat="44.7016767" lon="8.06352"><ele>170.0</ele><time>2026-04-12T09:26:45.449Z</time></trkpt><trkpt lat="44.7015817" lon="8.0634717"><ele>170.0</ele><time>2026-04-12T09:26:46.449Z</time></trkpt><trkpt lat="44.701485" lon="8.0634217"><ele>170.0</ele><time>2026-04-12T09:26:47.449Z</time></trkpt><trkpt lat="44.7013883" lon="8.063375"><ele>170.0</ele><time>2026-04-12T09:26:48.45Z</time></trkpt><trkpt lat="44.70129" lon="8.063335"><ele>170.0</ele><time>2026-04-12T09:26:49.449Z</time></trkpt><trkpt lat="44.7011967" lon="8.06329"><ele>170.0</ele><time>2026-04-12T09:26:50.449Z</time></trkpt><trkpt lat="44.7011083" lon="8.0632417"><ele>170.0</ele><time>2026-04-12T09:26:51.449Z</time></trkpt><trkpt lat="44.701025" lon="8.0631933"><ele>170.0</ele><time>2026-04-12T09:26:52.449Z</time></trkpt><trkpt lat="44.700935" lon="8.0631433"><ele>169.83333333333331</ele><time>2026-04-12T09:26:53.449Z</time></trkpt><trkpt lat="44.7008567" lon="8.0630867"><ele>169.66666666666666</ele><time>2026-04-12T09:26:54.449Z</time></trkpt><trkpt lat="44.7007817" lon="8.0630283"><ele>169.5</ele><time>2026-04-12T09:26:55.449Z</time></trkpt><trkpt lat="44.7007183" lon="8.0629733"><ele>169.33333333333334</ele><time>2026-04-12T09:26:56.449Z</time></trkpt><trkpt lat="44.7006633" lon="8.0629067"><ele>169.16666666666669</ele><time>2026-04-12T09:26:57.449Z</time></trkpt><trkpt lat="44.7006233" lon="8.0628267"><ele>169.0</ele><time>2026-04-12T09:26:58.449Z</time></trkpt><trkpt lat="44.7006033" lon="8.0627417"><ele>169.0</ele><time>2026-04-12T09:26:59.45Z</time></trkpt><trkpt lat="44.7006017" lon="8.0626483"><ele>169.0</ele><time>2026-04-12T09:27:00.449Z</time></trkpt><trkpt lat="44.700595" lon="8.06255"><ele>169.0</ele><time>2026-04-12T09:27:01.449Z</time></trkpt><trkpt lat="44.7005867" lon="8.0624517"><ele>169.0</ele><time>2026-04-12T09:27:02.449Z</time></trkpt><trkpt lat="44.7005783" lon="8.06234"><ele>169.0</ele><time>2026-04-12T09:27:03.449Z</time></trkpt><trkpt lat="44.70057" lon="8.0622317"><ele>169.0</ele><time>2026-04-12T09:27:04.449Z</time></trkpt><trkpt lat="44.70056" lon="8.06212"><ele>169.0</ele><time>2026-04-12T09:27:05.449Z</time></trkpt><trkpt lat="44.7005517" lon="8.0620183"><ele>169.57142857142858</ele><time>2026-04-12T09:27:06.449Z</time></trkpt><trkpt lat="44.7005467" lon="8.06191"><ele>170.14285714285714</ele><time>2026-04-12T09:27:07.449Z</time></trkpt><trkpt lat="44.7005383" lon="8.0618"><ele>170.71428571428572</ele><time>2026-04-12T09:27:08.449Z</time></trkpt><trkpt lat="44.70053" lon="8.0616967"><ele>171.28571428571428</ele><time>2026-04-12T09:27:09.449Z</time></trkpt><trkpt lat="44.7005183" lon="8.0615983"><ele>171.85714285714286</ele><time>2026-04-12T09:27:10.449Z</time></trkpt><trkpt lat="44.70051" lon="8.0614983"><ele>172.42857142857142</ele><time>2026-04-12T09:27:11.449Z</time></trkpt><trkpt lat="44.7005" lon="8.0614067"><ele>173.0</ele><time>2026-04-12T09:27:12.449Z</time></trkpt><trkpt lat="44.7004883" lon="8.0613183"><ele>174.4</ele><time>2026-04-12T09:27:13.449Z</time></trkpt><trkpt lat="44.7004817" lon="8.06122"><ele>175.8</ele><time>2026-04-12T09:27:14.449Z</time></trkpt><trkpt lat="44.7004667" lon="8.0611317"><ele>177.2</ele><time>2026-04-12T09:27:15.449Z</time></trkpt><trkpt lat="44.7004233" lon="8.060975"><ele>178.6</ele><time>2026-04-12T09:27:17.449Z</time></trkpt><trkpt lat="44.7003683" lon="8.060825"><ele>180.0</ele><time>2026-04-12T09:27:19.449Z</time></trkpt><trkpt lat="44.70031" lon="8.060665"><ele>180.2</ele><time>2026-04-12T09:27:21.449Z</time></trkpt><trkpt lat="44.70028" lon="8.0605867"><ele>180.4</ele><time>2026-04-12T09:27:22.449Z</time></trkpt><trkpt lat="44.70023" lon="8.060445"><ele>180.60000000000002</ele><time>2026-04-12T09:27:24.449Z</time></trkpt><trkpt lat="44.7001633" lon="8.060325"><ele>180.8</ele><time>2026-04-12T09:27:26.449Z</time></trkpt><trkpt lat="44.7001017" lon="8.0601933"><ele>181.0</ele><time>2026-04-12T09:27:28.449Z</time></trkpt><trkpt lat="44.7000583" lon="8.060075"><ele>181.0</ele><time>2026-04-12T09:27:30.449Z</time></trkpt><trkpt lat="44.6999967" lon="8.0599617"><ele>181.0</ele><time>2026-04-12T09:27:32.449Z</time></trkpt><trkpt lat="44.69995" lon="8.0598417"><ele>181.0</ele><time>2026-04-12T09:27:34.449Z</time></trkpt><trkpt lat="44.699885" lon="8.05972"><ele>181.0</ele><time>2026-04-12T09:27:36.449Z</time></trkpt><trkpt lat="44.6998233" lon="8.0595933"><ele>181.0</ele><time>2026-04-12T09:27:38.449Z</time></trkpt><trkpt lat="44.6997533" lon="8.0594633"><ele>182.20000000000002</ele><time>2026-04-12T09:27:40.449Z</time></trkpt><trkpt lat="44.6996867" lon="8.0593283"><ele>183.4</ele><time>2026-04-12T09:27:42.449Z</time></trkpt><trkpt lat="44.69963" lon="8.0591933"><ele>184.6</ele><time>2026-04-12T09:27:44.449Z</time></trkpt><trkpt lat="44.6995733" lon="8.05907"><ele>185.8</ele><time>2026-04-12T09:27:46.45Z</time></trkpt><trkpt lat="44.6995117" lon="8.0589533"><ele>187.0</ele><time>2026-04-12T09:27:48.449Z</time></trkpt><trkpt lat="44.6994567" lon="8.058835"><ele>187.0</ele><time>2026-04-12T09:27:50.449Z</time></trkpt><trkpt lat="44.6994" lon="8.0587233"><ele>187.0</ele><time>2026-04-12T09:27:52.449Z</time></trkpt><trkpt lat="44.6993467" lon="8.05861"><ele>187.0</ele><time>2026-04-12T09:27:54.449Z</time></trkpt><trkpt lat="44.6992917" lon="8.0585033"><ele>187.0</ele><time>2026-04-12T09:27:56.449Z</time></trkpt><trkpt lat="44.6992367" lon="8.0584"><ele>187.0</ele><time>2026-04-12T09:27:58.449Z</time></trkpt><trkpt lat="44.6991917" lon="8.05829"><ele>188.0</ele><time>2026-04-12T09:28:00.449Z</time></trkpt><trkpt lat="44.6991367" lon="8.0581783"><ele>189.0</ele><time>2026-04-12T09:28:02.449Z</time></trkpt><trkpt lat="44.6990833" lon="8.0580733"><ele>190.0</ele><time>2026-04-12T09:28:04.449Z</time></trkpt><trkpt lat="44.69902" lon="8.0579717"><ele>191.0</ele><time>2026-04-12T09:28:06.449Z</time></trkpt><trkpt lat="44.6989517" lon="8.0578517"><ele>192.0</ele><time>2026-04-12T09:28:08.449Z</time></trkpt><trkpt lat="44.6989" lon="8.0577467"><ele>192.0</ele><time>2026-04-12T09:28:10.449Z</time></trkpt><trkpt lat="44.6988517" lon="8.057645"><ele>192.0</ele><time>2026-04-12T09:28:12.449Z</time></trkpt><trkpt lat="44.698795" lon="8.05754"><ele>192.0</ele><time>2026-04-12T09:28:14.449Z</time></trkpt><trkpt lat="44.6987433" lon="8.0574383"><ele>192.0</ele><time>2026-04-12T09:28:16.449Z</time></trkpt><trkpt lat="44.6986967" lon="8.057335"><ele>192.0</ele><time>2026-04-12T09:28:18.449Z</time></trkpt><trkpt lat="44.69865" lon="8.0572333"><ele>192.0</ele><time>2026-04-12T09:28:20.449Z</time></trkpt><trkpt lat="44.6986033" lon="8.0571233"><ele>191.8</ele><time>2026-04-12T09:28:22.449Z</time></trkpt><trkpt lat="44.69855" lon="8.0570167"><ele>191.6</ele><time>2026-04-12T09:28:24.449Z</time></trkpt><trkpt lat="44.6984917" lon="8.0568983"><ele>191.4</ele><time>2026-04-12T09:28:26.449Z</time></trkpt><trkpt lat="44.6984433" lon="8.0567917"><ele>191.20000000000002</ele><time>2026-04-12T09:28:28.449Z</time></trkpt><trkpt lat="44.6984033" lon="8.0566833"><ele>191.0</ele><time>2026-04-12T09:28:30.449Z</time></trkpt><trkpt lat="44.6983617" lon="8.0565733"><ele>191.83333333333331</ele><time>2026-04-12T09:28:32.449Z</time></trkpt><trkpt lat="44.6983133" lon="8.056475"><ele>192.66666666666666</ele><time>2026-04-12T09:28:34.449Z</time></trkpt><trkpt lat="44.6982733" lon="8.0563783"><ele>193.5</ele><time>2026-04-12T09:28:36.449Z</time></trkpt><trkpt lat="44.6982317" lon="8.056285"><ele>194.33333333333331</ele><time>2026-04-12T09:28:38.449Z</time></trkpt><trkpt lat="44.6981933" lon="8.0561867"><ele>195.16666666666666</ele><time>2026-04-12T09:28:40.449Z</time></trkpt><trkpt lat="44.69816" lon="8.0560833"><ele>196.0</ele><time>2026-04-12T09:28:42.449Z</time></trkpt><trkpt lat="44.6981217" lon="8.055975"><ele>195.99999999999997</ele><time>2026-04-12T09:28:44.449Z</time></trkpt><trkpt lat="44.6980817" lon="8.0558817"><ele>196.0</ele><time>2026-04-12T09:28:46.449Z</time></trkpt><trkpt lat="44.69804" lon="8.0557767"><ele>196.0</ele><time>2026-04-12T09:28:48.449Z</time></trkpt><trkpt lat="44.697995" lon="8.0556667"><ele>196.0</ele><time>2026-04-12T09:28:50.449Z</time></trkpt><trkpt lat="44.6979483" lon="8.0555617"><ele>195.99999999999997</ele><time>2026-04-12T09:28:52.449Z</time></trkpt><trkpt lat="44.697905" lon="8.0554567"><ele>196.0</ele><time>2026-04-12T09:28:54.449Z</time></trkpt><trkpt lat="44.6978583" lon="8.05535"><ele>195.99999999999997</ele><time>2026-04-12T09:28:56.449Z</time></trkpt><trkpt lat="44.6978133" lon="8.0552467"><ele>196.0</ele><time>2026-04-12T09:28:58.449Z</time></trkpt><trkpt lat="44.6977733" lon="8.0551467"><ele>196.0</ele><time>2026-04-12T09:29:00.449Z</time></trkpt><trkpt lat="44.6977333" lon="8.05505"><ele>196.0</ele><time>2026-04-12T09:29:02.449Z</time></trkpt><trkpt lat="44.6976983" lon="8.054955"><ele>195.99999999999997</ele><time>2026-04-12T09:29:04.449Z</time></trkpt><trkpt lat="44.6976633" lon="8.05486"><ele>196.0</ele><time>2026-04-12T09:29:06.449Z</time></trkpt><trkpt lat="44.6976217" lon="8.0547617"><ele>196.99999999999997</ele><time>2026-04-12T09:29:08.449Z</time></trkpt><trkpt lat="44.6975867" lon="8.0546667"><ele>198.0</ele><time>2026-04-12T09:29:10.449Z</time></trkpt><trkpt lat="44.6975383" lon="8.0545867"><ele>199.0</ele><time>2026-04-12T09:29:12.449Z</time></trkpt><trkpt lat="44.6974783" lon="8.0545017"><ele>200.0</ele><time>2026-04-12T09:29:14.449Z</time></trkpt><trkpt lat="44.697405" lon="8.05443"><ele>200.99999999999997</ele><time>2026-04-12T09:29:16.449Z</time></trkpt><trkpt lat="44.6973317" lon="8.0543767"><ele>202.0</ele><time>2026-04-12T09:29:18.449Z</time></trkpt><trkpt lat="44.697255" lon="8.0543383"><ele>201.99999999999997</ele><time>2026-04-12T09:29:20.449Z</time></trkpt><trkpt lat="44.6971767" lon="8.0543117"><ele>202.0</ele><time>2026-04-12T09:29:22.449Z</time></trkpt><trkpt lat="44.6971033" lon="8.054285"><ele>202.0</ele><time>2026-04-12T09:29:24.449Z</time></trkpt><trkpt lat="44.6970167" lon="8.0542683"><ele>202.0</ele><time>2026-04-12T09:29:26.449Z</time></trkpt><trkpt lat="44.6969333" lon="8.0542583"><ele>201.99999999999997</ele><time>2026-04-12T09:29:28.449Z</time></trkpt><trkpt lat="44.6968633" lon="8.0542417"><ele>202.0</ele><time>2026-04-12T09:29:30.449Z</time></trkpt><trkpt lat="44.6967967" lon="8.054225"><ele>202.33333333333331</ele><time>2026-04-12T09:29:32.449Z</time></trkpt><trkpt lat="44.6967317" lon="8.0542067"><ele>202.66666666666666</ele><time>2026-04-12T09:29:34.449Z</time></trkpt><trkpt lat="44.6966483" lon="8.0541867"><ele>203.0</ele><time>2026-04-12T09:29:36.449Z</time></trkpt><trkpt lat="44.696565" lon="8.0541717"><ele>203.33333333333331</ele><time>2026-04-12T09:29:38.449Z</time></trkpt><trkpt lat="44.6964883" lon="8.0541517"><ele>203.66666666666666</ele><time>2026-04-12T09:29:40.449Z</time></trkpt><trkpt lat="44.6964083" lon="8.0541367"><ele>204.0</ele><time>2026-04-12T09:29:42.449Z</time></trkpt><trkpt lat="44.6963367" lon="8.0541217"><ele>203.83333333333334</ele><time>2026-04-12T09:29:44.449Z</time></trkpt><trkpt lat="44.6962583" lon="8.0541117"><ele>203.66666666666669</ele><time>2026-04-12T09:29:46.449Z</time></trkpt><trkpt lat="44.6961883" lon="8.054105"><ele>203.5</ele><time>2026-04-12T09:29:48.449Z</time></trkpt><trkpt lat="44.696125" lon="8.054095"><ele>203.33333333333334</ele><time>2026-04-12T09:29:50.449Z</time></trkpt><trkpt lat="44.6960383" lon="8.054085"><ele>203.16666666666669</ele><time>2026-04-12T09:29:52.449Z</time></trkpt><trkpt lat="44.6959567" lon="8.0540533"><ele>203.0</ele><time>2026-04-12T09:29:54.449Z</time></trkpt><trkpt lat="44.6958783" lon="8.0540217"><ele>203.33333333333334</ele><time>2026-04-12T09:29:56.449Z</time></trkpt><trkpt lat="44.6957983" lon="8.0539933"><ele>203.66666666666669</ele><time>2026-04-12T09:29:58.449Z</time></trkpt><trkpt lat="44.695725" lon="8.0539533"><ele>204.0</ele><time>2026-04-12T09:30:00.449Z</time></trkpt><trkpt lat="44.6956483" lon="8.053905"><ele>204.33333333333331</ele><time>2026-04-12T09:30:02.449Z</time></trkpt><trkpt lat="44.6955717" lon="8.05386"><ele>204.66666666666666</ele><time>2026-04-12T09:30:04.449Z</time></trkpt><trkpt lat="44.6955" lon="8.0538383"><ele>205.0</ele><time>2026-04-12T09:30:06.449Z</time></trkpt><trkpt lat="44.69543" lon="8.0537933"><ele>204.99999999999997</ele><time>2026-04-12T09:30:08.449Z</time></trkpt><trkpt lat="44.6953617" lon="8.0537333"><ele>205.0</ele><time>2026-04-12T09:30:10.449Z</time></trkpt><trkpt lat="44.69529" lon="8.05368"><ele>205.0</ele><time>2026-04-12T09:30:12.449Z</time></trkpt><trkpt lat="44.6952167" lon="8.0536317"><ele>205.0</ele><time>2026-04-12T09:30:14.449Z</time></trkpt><trkpt lat="44.6951417" lon="8.0535733"><ele>204.99999999999997</ele><time>2026-04-12T09:30:16.449Z</time></trkpt><trkpt lat="44.6950783" lon="8.05352"><ele>205.0</ele><time>2026-04-12T09:30:18.449Z</time></trkpt><trkpt lat="44.6950017" lon="8.0534583"><ele>205.83333333333331</ele><time>2026-04-12T09:30:20.449Z</time></trkpt><trkpt lat="44.6949217" lon="8.053415"><ele>206.66666666666666</ele><time>2026-04-12T09:30:22.449Z</time></trkpt><trkpt lat="44.6948667" lon="8.05336"><ele>207.5</ele><time>2026-04-12T09:30:24.449Z</time></trkpt><trkpt lat="44.6947933" lon="8.0533067"><ele>208.33333333333331</ele><time>2026-04-12T09:30:26.449Z</time></trkpt><trkpt lat="44.6947233" lon="8.0532583"><ele>209.16666666666666</ele><time>2026-04-12T09:30:28.449Z</time></trkpt><trkpt lat="44.694665" lon="8.0532117"><ele>210.0</ele><time>2026-04-12T09:30:30.449Z</time></trkpt><trkpt lat="44.694605" lon="8.0531483"><ele>210.0</ele><time>2026-04-12T09:30:32.449Z</time></trkpt><trkpt lat="44.69453" lon="8.0531033"><ele>210.0</ele><time>2026-04-12T09:30:34.449Z</time></trkpt><trkpt lat="44.69446" lon="8.053065"><ele>210.0</ele><time>2026-04-12T09:30:36.449Z</time></trkpt><trkpt lat="44.69439" lon="8.053015"><ele>210.0</ele><time>2026-04-12T09:30:38.449Z</time></trkpt><trkpt lat="44.694325" lon="8.0529617"><ele>210.0</ele><time>2026-04-12T09:30:40.449Z</time></trkpt><trkpt lat="44.6942567" lon="8.0529217"><ele>210.0</ele><time>2026-04-12T09:30:42.449Z</time></trkpt><trkpt lat="44.694185" lon="8.0528983"><ele>211.16666666666666</ele><time>2026-04-12T09:30:44.449Z</time></trkpt><trkpt lat="44.694105" lon="8.0528617"><ele>212.33333333333331</ele><time>2026-04-12T09:30:46.449Z</time></trkpt><trkpt lat="44.694025" lon="8.05284"><ele>213.5</ele><time>2026-04-12T09:30:48.449Z</time></trkpt><trkpt lat="44.6939417" lon="8.0528317"><ele>214.66666666666666</ele><time>2026-04-12T09:30:50.449Z</time></trkpt><trkpt lat="44.6938633" lon="8.0528217"><ele>215.83333333333331</ele><time>2026-04-12T09:30:52.449Z</time></trkpt><trkpt lat="44.693785" lon="8.0528"><ele>217.0</ele><time>2026-04-12T09:30:54.449Z</time></trkpt><trkpt lat="44.6937067" lon="8.05279"><ele>216.99999999999997</ele><time>2026-04-12T09:30:56.449Z</time></trkpt><trkpt lat="44.6936217" lon="8.0527983"><ele>217.0</ele><time>2026-04-12T09:30:58.45Z</time></trkpt><trkpt lat="44.6935417" lon="8.052795"><ele>217.0</ele><time>2026-04-12T09:31:00.449Z</time></trkpt><trkpt lat="44.6934633" lon="8.052785"><ele>217.0</ele><time>2026-04-12T09:31:02.449Z</time></trkpt><trkpt lat="44.6933867" lon="8.0527617"><ele>216.99999999999997</ele><time>2026-04-12T09:31:04.449Z</time></trkpt><trkpt lat="44.69331" lon="8.05276"><ele>217.0</ele><time>2026-04-12T09:31:06.449Z</time></trkpt><trkpt lat="44.6932267" lon="8.0527533"><ele>217.83333333333331</ele><time>2026-04-12T09:31:08.449Z</time></trkpt><trkpt lat="44.69315" lon="8.0527483"><ele>218.66666666666666</ele><time>2026-04-12T09:31:10.449Z</time></trkpt><trkpt lat="44.6930767" lon="8.0527467"><ele>219.5</ele><time>2026-04-12T09:31:12.449Z</time></trkpt><trkpt lat="44.6929967" lon="8.052745"><ele>220.33333333333331</ele><time>2026-04-12T09:31:14.449Z</time></trkpt><trkpt lat="44.69292" lon="8.05273"><ele>221.16666666666666</ele><time>2026-04-12T09:31:16.449Z</time></trkpt><trkpt lat="44.6928333" lon="8.0527183"><ele>222.0</ele><time>2026-04-12T09:31:18.449Z</time></trkpt><trkpt lat="44.6927533" lon="8.0527133"><ele>222.66666666666666</ele><time>2026-04-12T09:31:20.449Z</time></trkpt><trkpt lat="44.69267" lon="8.052705"><ele>223.33333333333331</ele><time>2026-04-12T09:31:22.449Z</time></trkpt><trkpt lat="44.692595" lon="8.0526883"><ele>224.0</ele><time>2026-04-12T09:31:24.449Z</time></trkpt><trkpt lat="44.6925183" lon="8.05265"><ele>224.66666666666666</ele><time>2026-04-12T09:31:26.449Z</time></trkpt><trkpt lat="44.69245" lon="8.0525883"><ele>225.33333333333331</ele><time>2026-04-12T09:31:28.45Z</time></trkpt><trkpt lat="44.6923967" lon="8.0525083"><ele>226.0</ele><time>2026-04-12T09:31:30.449Z</time></trkpt><trkpt lat="44.6923533" lon="8.05242"><ele>227.33333333333331</ele><time>2026-04-12T09:31:32.449Z</time></trkpt><trkpt lat="44.6923267" lon="8.052315"><ele>228.66666666666666</ele><time>2026-04-12T09:31:34.449Z</time></trkpt><trkpt lat="44.6923133" lon="8.052205"><ele>230.0</ele><time>2026-04-12T09:31:36.449Z</time></trkpt><trkpt lat="44.6923117" lon="8.0520983"><ele>231.33333333333331</ele><time>2026-04-12T09:31:38.449Z</time></trkpt><trkpt lat="44.6923383" lon="8.0519867"><ele>232.66666666666666</ele><time>2026-04-12T09:31:40.449Z</time></trkpt><trkpt lat="44.692395" lon="8.0518817"><ele>234.0</ele><time>2026-04-12T09:31:42.449Z</time></trkpt><trkpt lat="44.69246" lon="8.0518067"><ele>234.0</ele><time>2026-04-12T09:31:44.45Z</time></trkpt><trkpt lat="44.6925267" lon="8.05175"><ele>234.0</ele><time>2026-04-12T09:31:46.449Z</time></trkpt><trkpt lat="44.6925983" lon="8.0516983"><ele>234.0</ele><time>2026-04-12T09:31:48.45Z</time></trkpt><trkpt lat="44.6926733" lon="8.05165"><ele>234.0</ele><time>2026-04-12T09:31:50.449Z</time></trkpt><trkpt lat="44.6927483" lon="8.0516"><ele>234.0</ele><time>2026-04-12T09:31:52.449Z</time></trkpt><trkpt lat="44.69282" lon="8.0515467"><ele>234.0</ele><time>2026-04-12T09:31:54.449Z</time></trkpt><trkpt lat="44.6928983" lon="8.0514917"><ele>234.5</ele><time>2026-04-12T09:31:56.449Z</time></trkpt><trkpt lat="44.6929783" lon="8.0514283"><ele>235.0</ele><time>2026-04-12T09:31:58.449Z</time></trkpt><trkpt lat="44.6930517" lon="8.051375"><ele>235.5</ele><time>2026-04-12T09:32:00.449Z</time></trkpt><trkpt lat="44.69313" lon="8.0513083"><ele>236.0</ele><time>2026-04-12T09:32:02.449Z</time></trkpt><trkpt lat="44.6931983" lon="8.051235"><ele>236.5</ele><time>2026-04-12T09:32:04.449Z</time></trkpt><trkpt lat="44.6932633" lon="8.0511433"><ele>237.0</ele><time>2026-04-12T09:32:06.449Z</time></trkpt><trkpt lat="44.69332" lon="8.0510533"><ele>237.0</ele><time>2026-04-12T09:32:08.449Z</time></trkpt><trkpt lat="44.6933817" lon="8.05096"><ele>237.0</ele><time>2026-04-12T09:32:10.449Z</time></trkpt><trkpt lat="44.6934333" lon="8.0508583"><ele>237.0</ele><time>2026-04-12T09:32:12.449Z</time></trkpt><trkpt lat="44.6934967" lon="8.050765"><ele>237.0</ele><time>2026-04-12T09:32:14.449Z</time></trkpt><trkpt lat="44.6935517" lon="8.050675"><ele>237.0</ele><time>2026-04-12T09:32:16.449Z</time></trkpt><trkpt lat="44.6936167" lon="8.05058"><ele>237.0</ele><time>2026-04-12T09:32:18.449Z</time></trkpt><trkpt lat="44.6936833" lon="8.0504833"><ele>238.0</ele><time>2026-04-12T09:32:20.449Z</time></trkpt><trkpt lat="44.693745" lon="8.0503933"><ele>239.0</ele><time>2026-04-12T09:32:22.449Z</time></trkpt><trkpt lat="44.6938017" lon="8.0503117"><ele>240.0</ele><time>2026-04-12T09:32:24.449Z</time></trkpt><trkpt lat="44.6938617" lon="8.0502417"><ele>241.0</ele><time>2026-04-12T09:32:26.449Z</time></trkpt><trkpt lat="44.6939167" lon="8.050155"><ele>242.0</ele><time>2026-04-12T09:32:28.449Z</time></trkpt><trkpt lat="44.693965" lon="8.05007"><ele>243.0</ele><time>2026-04-12T09:32:30.449Z</time></trkpt><trkpt lat="44.6940183" lon="8.0499983"><ele>243.33333333333334</ele><time>2026-04-12T09:32:32.449Z</time></trkpt><trkpt lat="44.6940717" lon="8.0499067"><ele>243.66666666666669</ele><time>2026-04-12T09:32:34.449Z</time></trkpt><trkpt lat="44.6941183" lon="8.0498267"><ele>244.0</ele><time>2026-04-12T09:32:36.449Z</time></trkpt><trkpt lat="44.694155" lon="8.0497117"><ele>244.33333333333334</ele><time>2026-04-12T09:32:38.449Z</time></trkpt><trkpt lat="44.6941917" lon="8.0495917"><ele>244.66666666666669</ele><time>2026-04-12T09:32:40.449Z</time></trkpt><trkpt lat="44.6942133" lon="8.0494733"><ele>245.0</ele><time>2026-04-12T09:32:42.45Z</time></trkpt><trkpt lat="44.6942417" lon="8.049335"><ele>245.0</ele><time>2026-04-12T09:32:44.449Z</time></trkpt><trkpt lat="44.6942867" lon="8.0492033"><ele>245.0</ele><time>2026-04-12T09:32:46.449Z</time></trkpt><trkpt lat="44.6943567" lon="8.0490583"><ele>245.0</ele><time>2026-04-12T09:32:48.449Z</time></trkpt><trkpt lat="44.6944617" lon="8.04895"><ele>245.0</ele><time>2026-04-12T09:32:50.449Z</time></trkpt><trkpt lat="44.6945283" lon="8.0488917"><ele>245.0</ele><time>2026-04-12T09:32:51.449Z</time></trkpt><trkpt lat="44.6945933" lon="8.0488333"><ele>243.33333333333334</ele><time>2026-04-12T09:32:52.449Z</time></trkpt><trkpt lat="44.6946617" lon="8.0487883"><ele>241.66666666666669</ele><time>2026-04-12T09:32:53.449Z</time></trkpt><trkpt lat="44.6947267" lon="8.0487467"><ele>240.0</ele><time>2026-04-12T09:32:54.45Z</time></trkpt><trkpt lat="44.6947917" lon="8.0487"><ele>238.33333333333331</ele><time>2026-04-12T09:32:55.449Z</time></trkpt><trkpt lat="44.6948617" lon="8.04866"><ele>236.66666666666666</ele><time>2026-04-12T09:32:56.449Z</time></trkpt><trkpt lat="44.6949383" lon="8.0486083"><ele>235.0</ele><time>2026-04-12T09:32:57.449Z</time></trkpt><trkpt lat="44.6950133" lon="8.0485533"><ele>234.99999999999997</ele><time>2026-04-12T09:32:58.449Z</time></trkpt><trkpt lat="44.6950883" lon="8.048505"><ele>235.0</ele><time>2026-04-12T09:32:59.449Z</time></trkpt><trkpt lat="44.6951583" lon="8.0484433"><ele>235.0</ele><time>2026-04-12T09:33:00.449Z</time></trkpt><trkpt lat="44.6952283" lon="8.0483783"><ele>235.0</ele><time>2026-04-12T09:33:01.449Z</time></trkpt><trkpt lat="44.6952883" lon="8.0483017"><ele>234.99999999999997</ele><time>2026-04-12T09:33:02.449Z</time></trkpt><trkpt lat="44.69536" lon="8.0482167"><ele>235.0</ele><time>2026-04-12T09:33:03.449Z</time></trkpt><trkpt lat="44.6954267" lon="8.04814"><ele>233.2</ele><time>2026-04-12T09:33:04.449Z</time></trkpt><trkpt lat="44.695505" lon="8.04807"><ele>231.4</ele><time>2026-04-12T09:33:05.449Z</time></trkpt><trkpt lat="44.69559" lon="8.0479883"><ele>229.60000000000002</ele><time>2026-04-12T09:33:06.449Z</time></trkpt><trkpt lat="44.69567" lon="8.0479033"><ele>227.8</ele><time>2026-04-12T09:33:07.449Z</time></trkpt><trkpt lat="44.6957417" lon="8.0478083"><ele>226.0</ele><time>2026-04-12T09:33:08.449Z</time></trkpt><trkpt lat="44.695815" lon="8.0477133"><ele>226.0</ele><time>2026-04-12T09:33:09.449Z</time></trkpt><trkpt lat="44.6958933" lon="8.0476217"><ele>226.00000000000003</ele><time>2026-04-12T09:33:10.449Z</time></trkpt><trkpt lat="44.6959717" lon="8.047535"><ele>226.00000000000003</ele><time>2026-04-12T09:33:11.449Z</time></trkpt><trkpt lat="44.696055" lon="8.0474583"><ele>226.0</ele><time>2026-04-12T09:33:12.449Z</time></trkpt><trkpt lat="44.69614" lon="8.0473733"><ele>226.0</ele><time>2026-04-12T09:33:13.449Z</time></trkpt><trkpt lat="44.6962233" lon="8.0472883"><ele>224.60000000000002</ele><time>2026-04-12T09:33:14.449Z</time></trkpt><trkpt lat="44.6963067" lon="8.0472117"><ele>223.20000000000002</ele><time>2026-04-12T09:33:15.45Z</time></trkpt><trkpt lat="44.6964033" lon="8.047135"><ele>221.79999999999998</ele><time>2026-04-12T09:33:16.449Z</time></trkpt><trkpt lat="44.6965" lon="8.0470633"><ele>220.39999999999998</ele><time>2026-04-12T09:33:17.449Z</time></trkpt><trkpt lat="44.696585" lon="8.0469983"><ele>219.0</ele><time>2026-04-12T09:33:18.449Z</time></trkpt><trkpt lat="44.6966733" lon="8.0469367"><ele>219.0</ele><time>2026-04-12T09:33:19.449Z</time></trkpt><trkpt lat="44.6967583" lon="8.0468717"><ele>218.99999999999997</ele><time>2026-04-12T09:33:20.449Z</time></trkpt><trkpt lat="44.6968417" lon="8.0467933"><ele>218.99999999999997</ele><time>2026-04-12T09:33:21.449Z</time></trkpt><trkpt lat="44.6969233" lon="8.0467267"><ele>219.0</ele><time>2026-04-12T09:33:22.449Z</time></trkpt><trkpt lat="44.6970083" lon="8.04669"><ele>219.0</ele><time>2026-04-12T09:33:23.449Z</time></trkpt><trkpt lat="44.6971083" lon="8.046675"><ele>217.79999999999998</ele><time>2026-04-12T09:33:24.449Z</time></trkpt><trkpt lat="44.697205" lon="8.0467167"><ele>216.59999999999997</ele><time>2026-04-12T09:33:25.449Z</time></trkpt><trkpt lat="44.697285" lon="8.0467917"><ele>215.4</ele><time>2026-04-12T09:33:26.449Z</time></trkpt><trkpt lat="44.697345" lon="8.0468967"><ele>214.2</ele><time>2026-04-12T09:33:27.449Z</time></trkpt><trkpt lat="44.6973967" lon="8.047015"><ele>213.0</ele><time>2026-04-12T09:33:28.449Z</time></trkpt><trkpt lat="44.6974583" lon="8.0471283"><ele>213.0</ele><time>2026-04-12T09:33:29.449Z</time></trkpt><trkpt lat="44.6975267" lon="8.0472283"><ele>213.0</ele><time>2026-04-12T09:33:30.449Z</time></trkpt><trkpt lat="44.6976283" lon="8.0472967"><ele>213.0</ele><time>2026-04-12T09:33:31.449Z</time></trkpt><trkpt lat="44.69773" lon="8.04734"><ele>213.0</ele><time>2026-04-12T09:33:32.449Z</time></trkpt><trkpt lat="44.697835" lon="8.0473433"><ele>213.0</ele><time>2026-04-12T09:33:33.449Z</time></trkpt><trkpt lat="44.69794" lon="8.047315"><ele>212.0</ele><time>2026-04-12T09:33:34.45Z</time></trkpt><trkpt lat="44.6980383" lon="8.0472633"><ele>211.0</ele><time>2026-04-12T09:33:35.449Z</time></trkpt><trkpt lat="44.6981333" lon="8.0471883"><ele>210.0</ele><time>2026-04-12T09:33:36.449Z</time></trkpt><trkpt lat="44.6982233" lon="8.0471067"><ele>209.0</ele><time>2026-04-12T09:33:37.449Z</time></trkpt><trkpt lat="44.6983117" lon="8.04702"><ele>208.0</ele><time>2026-04-12T09:33:38.449Z</time></trkpt><trkpt lat="44.69839" lon="8.0469433"><ele>208.0</ele><time>2026-04-12T09:33:39.449Z</time></trkpt><trkpt lat="44.698475" lon="8.0468633"><ele>208.0</ele><time>2026-04-12T09:33:40.449Z</time></trkpt><trkpt lat="44.6985617" lon="8.0467983"><ele>208.0</ele><time>2026-04-12T09:33:41.449Z</time></trkpt><trkpt lat="44.6986533" lon="8.0467417"><ele>208.0</ele><time>2026-04-12T09:33:42.449Z</time></trkpt><trkpt lat="44.6987583" lon="8.0467133"><ele>208.0</ele><time>2026-04-12T09:33:43.449Z</time></trkpt><trkpt lat="44.6988733" lon="8.0466883"><ele>209.4</ele><time>2026-04-12T09:33:44.449Z</time></trkpt><trkpt lat="44.6989783" lon="8.0466717"><ele>210.8</ele><time>2026-04-12T09:33:45.449Z</time></trkpt><trkpt lat="44.6990833" lon="8.0466467"><ele>212.2</ele><time>2026-04-12T09:33:46.449Z</time></trkpt><trkpt lat="44.6991867" lon="8.046605"><ele>213.6</ele><time>2026-04-12T09:33:47.449Z</time></trkpt><trkpt lat="44.6992917" lon="8.0465617"><ele>215.0</ele><time>2026-04-12T09:33:48.45Z</time></trkpt><trkpt lat="44.699395" lon="8.04651"><ele>211.4</ele><time>2026-04-12T09:33:49.449Z</time></trkpt><trkpt lat="44.69949" lon="8.04647"><ele>207.8</ele><time>2026-04-12T09:33:50.449Z</time></trkpt><trkpt lat="44.699585" lon="8.0464583"><ele>204.2</ele><time>2026-04-12T09:33:51.449Z</time></trkpt><trkpt lat="44.6996783" lon="8.04647"><ele>200.6</ele><time>2026-04-12T09:33:52.449Z</time></trkpt><trkpt lat="44.6997667" lon="8.0464917"><ele>197.0</ele><time>2026-04-12T09:33:53.449Z</time></trkpt><trkpt lat="44.6998533" lon="8.0464967"><ele>197.0</ele><time>2026-04-12T09:33:54.449Z</time></trkpt><trkpt lat="44.6999433" lon="8.0464817"><ele>197.0</ele><time>2026-04-12T09:33:55.449Z</time></trkpt><trkpt lat="44.7000267" lon="8.0464167"><ele>197.0</ele><time>2026-04-12T09:33:56.449Z</time></trkpt><trkpt lat="44.70008" lon="8.0463217"><ele>197.0</ele><time>2026-04-12T09:33:57.449Z</time></trkpt><trkpt lat="44.7000867" lon="8.0461817"><ele>197.0</ele><time>2026-04-12T09:33:58.449Z</time></trkpt><trkpt lat="44.7000717" lon="8.0460433"><ele>197.0</ele><time>2026-04-12T09:33:59.449Z</time></trkpt><trkpt lat="44.700025" lon="8.0459133"><ele>197.0</ele><time>2026-04-12T09:34:00.449Z</time></trkpt><trkpt lat="44.69995" lon="8.0458133"><ele>197.0</ele><time>2026-04-12T09:34:01.449Z</time></trkpt><trkpt lat="44.69986" lon="8.0457267"><ele>197.0</ele><time>2026-04-12T09:34:02.449Z</time></trkpt><trkpt lat="44.6997517" lon="8.0456517"><ele>197.0</ele><time>2026-04-12T09:34:03.449Z</time></trkpt><trkpt lat="44.6996433" lon="8.0456017"><ele>194.39999999999998</ele><time>2026-04-12T09:34:04.449Z</time></trkpt><trkpt lat="44.6995333" lon="8.0455567"><ele>191.79999999999998</ele><time>2026-04-12T09:34:05.449Z</time></trkpt><trkpt lat="44.6994283" lon="8.0455283"><ele>189.2</ele><time>2026-04-12T09:34:06.449Z</time></trkpt><trkpt lat="44.699325" lon="8.0455183"><ele>186.6</ele><time>2026-04-12T09:34:07.449Z</time></trkpt><trkpt lat="44.699215" lon="8.0455217"><ele>184.0</ele><time>2026-04-12T09:34:08.449Z</time></trkpt><trkpt lat="44.6991" lon="8.0455467"><ele>184.0</ele><time>2026-04-12T09:34:09.45Z</time></trkpt><trkpt lat="44.6989983" lon="8.0455733"><ele>184.0</ele><time>2026-04-12T09:34:10.449Z</time></trkpt><trkpt lat="44.6988783" lon="8.0456"><ele>184.0</ele><time>2026-04-12T09:34:11.449Z</time></trkpt><trkpt lat="44.698765" lon="8.0456233"><ele>184.0</ele><time>2026-04-12T09:34:12.449Z</time></trkpt><trkpt lat="44.6986617" lon="8.0456083"><ele>184.0</ele><time>2026-04-12T09:34:13.45Z</time></trkpt><trkpt lat="44.6985683" lon="8.0455567"><ele>185.0</ele><time>2026-04-12T09:34:14.449Z</time></trkpt><trkpt lat="44.698495" lon="8.0454567"><ele>186.0</ele><time>2026-04-12T09:34:15.449Z</time></trkpt><trkpt lat="44.6984467" lon="8.0453317"><ele>187.0</ele><time>2026-04-12T09:34:16.449Z</time></trkpt><trkpt lat="44.6984033" lon="8.045205"><ele>188.0</ele><time>2026-04-12T09:34:17.449Z</time></trkpt><trkpt lat="44.6983633" lon="8.0450717"><ele>189.0</ele><time>2026-04-12T09:34:18.449Z</time></trkpt><trkpt lat="44.6983233" lon="8.0449367"><ele>187.0</ele><time>2026-04-12T09:34:19.449Z</time></trkpt><trkpt lat="44.6982767" lon="8.044805"><ele>185.0</ele><time>2026-04-12T09:34:20.449Z</time></trkpt><trkpt lat="44.6982167" lon="8.0446967"><ele>183.0</ele><time>2026-04-12T09:34:21.449Z</time></trkpt><trkpt lat="44.6981383" lon="8.0446183"><ele>181.0</ele><time>2026-04-12T09:34:22.45Z</time></trkpt><trkpt lat="44.6980483" lon="8.04457"><ele>179.0</ele><time>2026-04-12T09:34:23.449Z</time></trkpt><trkpt lat="44.6979433" lon="8.0445383"><ele>179.0</ele><time>2026-04-12T09:34:24.449Z</time></trkpt><trkpt lat="44.6978317" lon="8.0445333"><ele>179.0</ele><time>2026-04-12T09:34:25.449Z</time></trkpt><trkpt lat="44.6977217" lon="8.044545"><ele>179.0</ele><time>2026-04-12T09:34:26.45Z</time></trkpt><trkpt lat="44.6976233" lon="8.04456"><ele>179.0</ele><time>2026-04-12T09:34:27.449Z</time></trkpt><trkpt lat="44.6975267" lon="8.0445967"><ele>179.0</ele><time>2026-04-12T09:34:28.449Z</time></trkpt><trkpt lat="44.6974333" lon="8.0446183"><ele>179.83333333333331</ele><time>2026-04-12T09:34:29.449Z</time></trkpt><trkpt lat="44.69734" lon="8.04461"><ele>180.66666666666666</ele><time>2026-04-12T09:34:30.449Z</time></trkpt><trkpt lat="44.6972567" lon="8.0445783"><ele>181.5</ele><time>2026-04-12T09:34:31.45Z</time></trkpt><trkpt lat="44.6972317" lon="8.0444883"><ele>182.33333333333334</ele><time>2026-04-12T09:34:32.449Z</time></trkpt><trkpt lat="44.69724" lon="8.044385"><ele>183.16666666666669</ele><time>2026-04-12T09:34:33.449Z</time></trkpt><trkpt lat="44.6972617" lon="8.0442883"><ele>184.0</ele><time>2026-04-12T09:34:34.449Z</time></trkpt><trkpt lat="44.6972867" lon="8.0441883"><ele>182.79999999999998</ele><time>2026-04-12T09:34:35.449Z</time></trkpt><trkpt lat="44.697335" lon="8.04409"><ele>181.6</ele><time>2026-04-12T09:34:36.449Z</time></trkpt><trkpt lat="44.6974167" lon="8.0440167"><ele>180.4</ele><time>2026-04-12T09:34:37.449Z</time></trkpt><trkpt lat="44.697505" lon="8.0439717"><ele>179.2</ele><time>2026-04-12T09:34:38.449Z</time></trkpt><trkpt lat="44.697595" lon="8.0439567"><ele>178.0</ele><time>2026-04-12T09:34:39.449Z</time></trkpt><trkpt lat="44.6976917" lon="8.0439383"><ele>177.2</ele><time>2026-04-12T09:34:40.449Z</time></trkpt><trkpt lat="44.697785" lon="8.0439283"><ele>176.4</ele><time>2026-04-12T09:34:41.449Z</time></trkpt><trkpt lat="44.6978983" lon="8.0439233"><ele>175.6</ele><time>2026-04-12T09:34:42.449Z</time></trkpt><trkpt lat="44.6979917" lon="8.043925"><ele>174.79999999999998</ele><time>2026-04-12T09:34:43.45Z</time></trkpt><trkpt lat="44.6980917" lon="8.0439167"><ele>174.0</ele><time>2026-04-12T09:34:44.449Z</time></trkpt><trkpt lat="44.698205" lon="8.0439033"><ele>174.0</ele><time>2026-04-12T09:34:45.449Z</time></trkpt><trkpt lat="44.6983083" lon="8.0438833"><ele>174.0</ele><time>2026-04-12T09:34:46.449Z</time></trkpt><trkpt lat="44.6984067" lon="8.0438717"><ele>174.0</ele><time>2026-04-12T09:34:47.449Z</time></trkpt><trkpt lat="44.69851" lon="8.04385"><ele>174.0</ele><time>2026-04-12T09:34:48.449Z</time></trkpt><trkpt lat="44.698615" lon="8.0438233"><ele>174.0</ele><time>2026-04-12T09:34:49.449Z</time></trkpt><trkpt lat="44.6987217" lon="8.0437917"><ele>173.2</ele><time>2026-04-12T09:34:50.449Z</time></trkpt><trkpt lat="44.6988217" lon="8.0437483"><ele>172.39999999999998</ele><time>2026-04-12T09:34:51.449Z</time></trkpt><trkpt lat="44.6989167" lon="8.0436967"><ele>171.6</ele><time>2026-04-12T09:34:52.449Z</time></trkpt><trkpt lat="44.6990083" lon="8.04363"><ele>170.8</ele><time>2026-04-12T09:34:53.449Z</time></trkpt><trkpt lat="44.6991017" lon="8.04358"><ele>170.0</ele><time>2026-04-12T09:34:54.449Z</time></trkpt><trkpt lat="44.6991917" lon="8.0435467"><ele>170.0</ele><time>2026-04-12T09:34:55.449Z</time></trkpt><trkpt lat="44.6992817" lon="8.043525"><ele>170.0</ele><time>2026-04-12T09:34:56.449Z</time></trkpt><trkpt lat="44.6993783" lon="8.04352"><ele>170.0</ele><time>2026-04-12T09:34:57.449Z</time></trkpt><trkpt lat="44.69947" lon="8.0435133"><ele>170.0</ele><time>2026-04-12T09:34:58.45Z</time></trkpt><trkpt lat="44.6995667" lon="8.04352"><ele>170.0</ele><time>2026-04-12T09:34:59.449Z</time></trkpt><trkpt lat="44.6996667" lon="8.04353"><ele>170.2</ele><time>2026-04-12T09:35:00.449Z</time></trkpt><trkpt lat="44.69977" lon="8.0435267"><ele>170.4</ele><time>2026-04-12T09:35:01.449Z</time></trkpt><trkpt lat="44.6998683" lon="8.0435117"><ele>170.60000000000002</ele><time>2026-04-12T09:35:02.449Z</time></trkpt><trkpt lat="44.699955" lon="8.0434883"><ele>170.8</ele><time>2026-04-12T09:35:03.449Z</time></trkpt><trkpt lat="44.7000367" lon="8.0434583"><ele>171.0</ele><time>2026-04-12T09:35:04.45Z</time></trkpt><trkpt lat="44.7001117" lon="8.0434267"><ele>171.0</ele><time>2026-04-12T09:35:05.449Z</time></trkpt><trkpt lat="44.70019" lon="8.043375"><ele>171.0</ele><time>2026-04-12T09:35:06.449Z</time></trkpt><trkpt lat="44.7002683" lon="8.0432967"><ele>171.0</ele><time>2026-04-12T09:35:07.449Z</time></trkpt><trkpt lat="44.70032" lon="8.0431967"><ele>171.0</ele><time>2026-04-12T09:35:08.449Z</time></trkpt><trkpt lat="44.7003383" lon="8.0430617"><ele>171.0</ele><time>2026-04-12T09:35:09.449Z</time></trkpt><trkpt lat="44.7003317" lon="8.04292"><ele>169.8</ele><time>2026-04-12T09:35:10.449Z</time></trkpt><trkpt lat="44.7003283" lon="8.042785"><ele>168.60000000000002</ele><time>2026-04-12T09:35:11.449Z</time></trkpt><trkpt lat="44.7003317" lon="8.0426417"><ele>167.4</ele><time>2026-04-12T09:35:12.449Z</time></trkpt><trkpt lat="44.7003433" lon="8.0425017"><ele>166.2</ele><time>2026-04-12T09:35:13.449Z</time></trkpt><trkpt lat="44.70036" lon="8.0423667"><ele>165.0</ele><time>2026-04-12T09:35:14.449Z</time></trkpt><trkpt lat="44.70037" lon="8.04225"><ele>164.8</ele><time>2026-04-12T09:35:15.449Z</time></trkpt><trkpt lat="44.7003817" lon="8.04213"><ele>164.6</ele><time>2026-04-12T09:35:16.45Z</time></trkpt><trkpt lat="44.700405" lon="8.0420183"><ele>164.39999999999998</ele><time>2026-04-12T09:35:17.449Z</time></trkpt><trkpt lat="44.7004167" lon="8.0418883"><ele>164.2</ele><time>2026-04-12T09:35:18.449Z</time></trkpt><trkpt lat="44.7004367" lon="8.0417567"><ele>164.0</ele><time>2026-04-12T09:35:19.449Z</time></trkpt><trkpt lat="44.7004533" lon="8.0416233"><ele>164.0</ele><time>2026-04-12T09:35:20.449Z</time></trkpt><trkpt lat="44.7004667" lon="8.0414933"><ele>164.0</ele><time>2026-04-12T09:35:21.449Z</time></trkpt><trkpt lat="44.7004767" lon="8.041375"><ele>164.0</ele><time>2026-04-12T09:35:22.449Z</time></trkpt><trkpt lat="44.70049" lon="8.0412633"><ele>164.0</ele><time>2026-04-12T09:35:23.449Z</time></trkpt><trkpt lat="44.7005067" lon="8.0411517"><ele>164.0</ele><time>2026-04-12T09:35:24.449Z</time></trkpt><trkpt lat="44.7005217" lon="8.04105"><ele>164.0</ele><time>2026-04-12T09:35:25.449Z</time></trkpt><trkpt lat="44.70054" lon="8.0409583"><ele>164.0</ele><time>2026-04-12T09:35:26.449Z</time></trkpt><trkpt lat="44.70056" lon="8.0408633"><ele>164.0</ele><time>2026-04-12T09:35:27.449Z</time></trkpt><trkpt lat="44.70058" lon="8.0407683"><ele>164.0</ele><time>2026-04-12T09:35:28.449Z</time></trkpt><trkpt lat="44.7005967" lon="8.040675"><ele>164.0</ele><time>2026-04-12T09:35:29.449Z</time></trkpt><trkpt lat="44.70061" lon="8.0405817"><ele>164.0</ele><time>2026-04-12T09:35:30.449Z</time></trkpt><trkpt lat="44.70065" lon="8.0404283"><ele>164.0</ele><time>2026-04-12T09:35:32.449Z</time></trkpt><trkpt lat="44.7006767" lon="8.0402867"><ele>165.0</ele><time>2026-04-12T09:35:34.449Z</time></trkpt><trkpt lat="44.7007017" lon="8.0402017"><ele>166.0</ele><time>2026-04-12T09:35:37.449Z</time></trkpt><trkpt lat="44.7007633" lon="8.040085"><ele>167.0</ele><time>2026-04-12T09:35:40.449Z</time></trkpt><trkpt lat="44.7008067" lon="8.0399483"><ele>168.0</ele><time>2026-04-12T09:35:42.449Z</time></trkpt><trkpt lat="44.7008567" lon="8.0397817"><ele>169.0</ele><time>2026-04-12T09:35:44.449Z</time></trkpt><trkpt lat="44.7008833" lon="8.03969"><ele>169.5</ele><time>2026-04-12T09:35:45.449Z</time></trkpt><trkpt lat="44.7009033" lon="8.039595"><ele>170.0</ele><time>2026-04-12T09:35:46.449Z</time></trkpt><trkpt lat="44.7009183" lon="8.0394933"><ele>170.5</ele><time>2026-04-12T09:35:47.449Z</time></trkpt><trkpt lat="44.700945" lon="8.0393183"><ele>171.0</ele><time>2026-04-12T09:35:49.45Z</time></trkpt><trkpt lat="44.700965" lon="8.0392283"><ele>171.5</ele><time>2026-04-12T09:35:50.449Z</time></trkpt><trkpt lat="44.700985" lon="8.0391283"><ele>172.0</ele><time>2026-04-12T09:35:51.449Z</time></trkpt><trkpt lat="44.7009983" lon="8.039025"><ele>172.33333333333334</ele><time>2026-04-12T09:35:52.449Z</time></trkpt><trkpt lat="44.7010133" lon="8.0389267"><ele>172.66666666666669</ele><time>2026-04-12T09:35:53.449Z</time></trkpt><trkpt lat="44.7010217" lon="8.0388317"><ele>173.0</ele><time>2026-04-12T09:35:54.449Z</time></trkpt><trkpt lat="44.7010367" lon="8.0387017"><ele>173.33333333333334</ele><time>2026-04-12T09:35:56.449Z</time></trkpt><trkpt lat="44.7010617" lon="8.0385633"><ele>173.66666666666666</ele><time>2026-04-12T09:35:58.449Z</time></trkpt><trkpt lat="44.701045" lon="8.0384517"><ele>174.0</ele><time>2026-04-12T09:36:00.449Z</time></trkpt><trkpt lat="44.7010583" lon="8.0383217"><ele>174.0</ele><time>2026-04-12T09:36:02.449Z</time></trkpt><trkpt lat="44.701095" lon="8.0381833"><ele>174.0</ele><time>2026-04-12T09:36:04.449Z</time></trkpt><trkpt lat="44.7011083" lon="8.0380567"><ele>174.0</ele><time>2026-04-12T09:36:06.449Z</time></trkpt><trkpt lat="44.701105" lon="8.0379533"><ele>174.0</ele><time>2026-04-12T09:36:08.449Z</time></trkpt><trkpt lat="44.7011233" lon="8.0378567"><ele>174.0</ele><time>2026-04-12T09:36:10.449Z</time></trkpt><trkpt lat="44.7010983" lon="8.03772"><ele>174.0</ele><time>2026-04-12T09:36:13.449Z</time></trkpt><trkpt lat="44.7010717" lon="8.0376"><ele>174.16666666666666</ele><time>2026-04-12T09:36:16.449Z</time></trkpt><trkpt lat="44.7010517" lon="8.0374583"><ele>174.33333333333334</ele><time>2026-04-12T09:36:18.449Z</time></trkpt><trkpt lat="44.701055" lon="8.0373333"><ele>174.5</ele><time>2026-04-12T09:36:20.449Z</time></trkpt><trkpt lat="44.70106" lon="8.0372267"><ele>174.66666666666669</ele><time>2026-04-12T09:36:22.45Z</time></trkpt><trkpt lat="44.7010717" lon="8.0370967"><ele>174.83333333333334</ele><time>2026-04-12T09:36:25.449Z</time></trkpt><trkpt lat="44.701095" lon="8.0369917"><ele>175.0</ele><time>2026-04-12T09:36:28.449Z</time></trkpt><trkpt lat="44.7010983" lon="8.0368833"><ele>175.0</ele><time>2026-04-12T09:36:30.449Z</time></trkpt><trkpt lat="44.7011067" lon="8.03677"><ele>175.0</ele><time>2026-04-12T09:36:32.449Z</time></trkpt><trkpt lat="44.7011117" lon="8.03665"><ele>175.0</ele><time>2026-04-12T09:36:34.449Z</time></trkpt><trkpt lat="44.7011083" lon="8.03655"><ele>175.0</ele><time>2026-04-12T09:36:37.449Z</time></trkpt><trkpt lat="44.701115" lon="8.0364617"><ele>175.0</ele><time>2026-04-12T09:36:40.449Z</time></trkpt><trkpt lat="44.7010783" lon="8.0363783"><ele>175.0</ele><time>2026-04-12T09:36:43.449Z</time></trkpt><trkpt lat="44.7010333" lon="8.036265"><ele>175.8</ele><time>2026-04-12T09:36:45.449Z</time></trkpt><trkpt lat="44.7009883" lon="8.03612"><ele>176.6</ele><time>2026-04-12T09:36:47.449Z</time></trkpt><trkpt lat="44.7008967" lon="8.03605"><ele>177.39999999999998</ele><time>2026-04-12T09:36:49.449Z</time></trkpt><trkpt lat="44.7008167" lon="8.0360433"><ele>178.2</ele><time>2026-04-12T09:36:51.449Z</time></trkpt><trkpt lat="44.7007433" lon="8.036115"><ele>179.0</ele><time>2026-04-12T09:36:53.449Z</time></trkpt><trkpt lat="44.700675" lon="8.0361867"><ele>179.0</ele><time>2026-04-12T09:36:56.449Z</time></trkpt><trkpt lat="44.7006217" lon="8.0362417"><ele>179.0</ele><time>2026-04-12T09:36:59.449Z</time></trkpt><trkpt lat="44.7005633" lon="8.0363117"><ele>179.0</ele><time>2026-04-12T09:37:04.449Z</time></trkpt><trkpt lat="44.7005267" lon="8.0364233"><ele>179.0</ele><time>2026-04-12T09:37:08.449Z</time></trkpt><trkpt lat="44.7005417" lon="8.03654"><ele>179.0</ele><time>2026-04-12T09:37:10.449Z</time></trkpt><trkpt lat="44.700535" lon="8.03666"><ele>179.0</ele><time>2026-04-12T09:37:12.449Z</time></trkpt><trkpt lat="44.7005167" lon="8.0367667"><ele>178.83333333333331</ele><time>2026-04-12T09:37:14.449Z</time></trkpt><trkpt lat="44.7004867" lon="8.03688"><ele>178.66666666666666</ele><time>2026-04-12T09:37:16.449Z</time></trkpt><trkpt lat="44.7004383" lon="8.0369833"><ele>178.5</ele><time>2026-04-12T09:37:18.449Z</time></trkpt><trkpt lat="44.7004317" lon="8.037085"><ele>178.33333333333334</ele><time>2026-04-12T09:37:20.449Z</time></trkpt><trkpt lat="44.7003667" lon="8.0371467"><ele>178.16666666666669</ele><time>2026-04-12T09:37:22.449Z</time></trkpt><trkpt lat="44.70031" lon="8.0372067"><ele>178.0</ele><time>2026-04-12T09:37:25.449Z</time></trkpt><trkpt lat="44.7002317" lon="8.0372583"><ele>178.0</ele><time>2026-04-12T09:37:28.449Z</time></trkpt><trkpt lat="44.7001433" lon="8.037275"><ele>178.0</ele><time>2026-04-12T09:37:30.449Z</time></trkpt><trkpt lat="44.7000667" lon="8.037325"><ele>178.0</ele><time>2026-04-12T09:37:32.449Z</time></trkpt><trkpt lat="44.6999967" lon="8.037385"><ele>178.0</ele><time>2026-04-12T09:37:34.449Z</time></trkpt><trkpt lat="44.69996" lon="8.0374617"><ele>178.0</ele><time>2026-04-12T09:37:36.449Z</time></trkpt><trkpt lat="44.6998583" lon="8.0374533"><ele>178.0</ele><time>2026-04-12T09:37:38.449Z</time></trkpt><trkpt lat="44.6997383" lon="8.0374483"><ele>178.0</ele><time>2026-04-12T09:37:40.449Z</time></trkpt><trkpt lat="44.699645" lon="8.0374067"><ele>178.0</ele><time>2026-04-12T09:37:42.448Z</time></trkpt><trkpt lat="44.69962" lon="8.0372883"><ele>178.0</ele><time>2026-04-12T09:37:46.448Z</time></trkpt><trkpt lat="44.6996333" lon="8.0371767"><ele>178.0</ele><time>2026-04-12T09:37:49.448Z</time></trkpt><trkpt lat="44.6996433" lon="8.037065"><ele>178.0</ele><time>2026-04-12T09:37:52.448Z</time></trkpt><trkpt lat="44.6996467" lon="8.0369667"><ele>178.0</ele><time>2026-04-12T09:37:54.448Z</time></trkpt><trkpt lat="44.6996817" lon="8.0368517"><ele>178.0</ele><time>2026-04-12T09:37:56.448Z</time></trkpt><trkpt lat="44.6997367" lon="8.0366917"><ele>178.0</ele><time>2026-04-12T09:37:58.448Z</time></trkpt><trkpt lat="44.6997683" lon="8.0365767"><ele>178.0</ele><time>2026-04-12T09:38:00.448Z</time></trkpt><trkpt lat="44.699795" lon="8.0364933"><ele>178.0</ele><time>2026-04-12T09:38:02.448Z</time></trkpt><trkpt lat="44.6997983" lon="8.0363683"><ele>178.0</ele><time>2026-04-12T09:38:05.448Z</time></trkpt><trkpt lat="44.6998117" lon="8.036255"><ele>178.33333333333334</ele><time>2026-04-12T09:38:08.448Z</time></trkpt><trkpt lat="44.6997733" lon="8.036175"><ele>178.66666666666669</ele><time>2026-04-12T09:38:11.448Z</time></trkpt><trkpt lat="44.699695" lon="8.03617"><ele>179.0</ele><time>2026-04-12T09:38:12.448Z</time></trkpt><trkpt lat="44.69961" lon="8.0361367"><ele>179.33333333333334</ele><time>2026-04-12T09:38:14.448Z</time></trkpt><trkpt lat="44.6995333" lon="8.0360783"><ele>179.66666666666666</ele><time>2026-04-12T09:38:17.448Z</time></trkpt><trkpt lat="44.69942" lon="8.0360417"><ele>180.0</ele><time>2026-04-12T09:38:18.448Z</time></trkpt><trkpt lat="44.69933" lon="8.0360217"><ele>179.0</ele><time>2026-04-12T09:38:19.448Z</time></trkpt><trkpt lat="44.6992467" lon="8.0360367"><ele>178.0</ele><time>2026-04-12T09:38:20.448Z</time></trkpt><trkpt lat="44.6990583" lon="8.036085"><ele>177.0</ele><time>2026-04-12T09:38:22.448Z</time></trkpt><trkpt lat="44.6989933" lon="8.0360867"><ele>176.0</ele><time>2026-04-12T09:38:23.448Z</time></trkpt><trkpt lat="44.69889" lon="8.0360817"><ele>175.0</ele><time>2026-04-12T09:38:25.448Z</time></trkpt><trkpt lat="44.6987883" lon="8.03609"><ele>175.0</ele><time>2026-04-12T09:38:27.448Z</time></trkpt><trkpt lat="44.6986933" lon="8.036075"><ele>175.0</ele><time>2026-04-12T09:38:29.448Z</time></trkpt><trkpt lat="44.6986017" lon="8.036075"><ele>175.0</ele><time>2026-04-12T09:38:31.448Z</time></trkpt><trkpt lat="44.698535" lon="8.0360817"><ele>175.0</ele><time>2026-04-12T09:38:33.448Z</time></trkpt><trkpt lat="44.6984517" lon="8.0360083"><ele>175.0</ele><time>2026-04-12T09:38:34.448Z</time></trkpt><trkpt lat="44.698365" lon="8.03603"><ele>175.0</ele><time>2026-04-12T09:38:36.448Z</time></trkpt><trkpt lat="44.6982767" lon="8.03607"><ele>174.83333333333334</ele><time>2026-04-12T09:38:38.448Z</time></trkpt><trkpt lat="44.698225" lon="8.03613"><ele>174.66666666666669</ele><time>2026-04-12T09:38:41.448Z</time></trkpt><trkpt lat="44.69818" lon="8.0361933"><ele>174.5</ele><time>2026-04-12T09:38:45.448Z</time></trkpt><trkpt lat="44.6982" lon="8.036325"><ele>174.33333333333334</ele><time>2026-04-12T09:38:49.448Z</time></trkpt><trkpt lat="44.6982133" lon="8.0364167"><ele>174.16666666666666</ele><time>2026-04-12T09:38:51.448Z</time></trkpt><trkpt lat="44.6982183" lon="8.0365467"><ele>174.0</ele><time>2026-04-12T09:38:54.448Z</time></trkpt><trkpt lat="44.6982217" lon="8.036645"><ele>174.0</ele><time>2026-04-12T09:38:56.448Z</time></trkpt><trkpt lat="44.6982183" lon="8.03677"><ele>174.0</ele><time>2026-04-12T09:38:59.448Z</time></trkpt><trkpt lat="44.6982083" lon="8.0369"><ele>174.0</ele><time>2026-04-12T09:39:01.448Z</time></trkpt><trkpt lat="44.69818" lon="8.0369817"><ele>174.0</ele><time>2026-04-12T09:39:02.448Z</time></trkpt><trkpt lat="44.698145" lon="8.0370867"><ele>174.0</ele><time>2026-04-12T09:39:09.448Z</time></trkpt><trkpt lat="44.6980667" lon="8.0370167"><ele>174.0</ele><time>2026-04-12T09:39:12.448Z</time></trkpt><trkpt lat="44.6980067" lon="8.0369617"><ele>174.0</ele><time>2026-04-12T09:39:14.448Z</time></trkpt><trkpt lat="44.69793" lon="8.036885"><ele>174.0</ele><time>2026-04-12T09:39:19.448Z</time></trkpt><trkpt lat="44.6978433" lon="8.0368017"><ele>174.0</ele><time>2026-04-12T09:39:20.448Z</time></trkpt><trkpt lat="44.6977467" lon="8.03678"><ele>174.0</ele><time>2026-04-12T09:39:22.448Z</time></trkpt><trkpt lat="44.6976883" lon="8.0367433"><ele>174.0</ele><time>2026-04-12T09:39:24.448Z</time></trkpt><trkpt lat="44.697665" lon="8.036615"><ele>174.0</ele><time>2026-04-12T09:39:26.448Z</time></trkpt><trkpt lat="44.6976283" lon="8.0364667"><ele>174.0</ele><time>2026-04-12T09:39:28.448Z</time></trkpt><trkpt lat="44.6975933" lon="8.0363233"><ele>174.0</ele><time>2026-04-12T09:39:30.448Z</time></trkpt><trkpt lat="44.6975667" lon="8.0361667"><ele>174.0</ele><time>2026-04-12T09:39:32.448Z</time></trkpt><trkpt lat="44.6975433" lon="8.0360017"><ele>174.0</ele><time>2026-04-12T09:39:34.448Z</time></trkpt><trkpt lat="44.6975617" lon="8.0358083"><ele>174.0</ele><time>2026-04-12T09:39:36.448Z</time></trkpt><trkpt lat="44.6975333" lon="8.0356733"><ele>174.0</ele><time>2026-04-12T09:39:38.448Z</time></trkpt><trkpt lat="44.6975617" lon="8.0355617"><ele>174.0</ele><time>2026-04-12T09:39:40.448Z</time></trkpt><trkpt lat="44.6975567" lon="8.0354567"><ele>174.0</ele><time>2026-04-12T09:39:42.448Z</time></trkpt><trkpt lat="44.6975333" lon="8.0353167"><ele>174.6</ele><time>2026-04-12T09:39:44.449Z</time></trkpt><trkpt lat="44.6975133" lon="8.0351617"><ele>175.2</ele><time>2026-04-12T09:39:46.448Z</time></trkpt><trkpt lat="44.6975167" lon="8.0350167"><ele>175.79999999999998</ele><time>2026-04-12T09:39:48.448Z</time></trkpt><trkpt lat="44.6975033" lon="8.034875"><ele>176.39999999999998</ele><time>2026-04-12T09:39:50.448Z</time></trkpt><trkpt lat="44.6974533" lon="8.0348167"><ele>177.0</ele><time>2026-04-12T09:39:52.448Z</time></trkpt><trkpt lat="44.6973767" lon="8.0347917"><ele>177.0</ele><time>2026-04-12T09:39:54.448Z</time></trkpt><trkpt lat="44.6972983" lon="8.0347633"><ele>177.0</ele><time>2026-04-12T09:39:56.448Z</time></trkpt><trkpt lat="44.69723" lon="8.0347867"><ele>177.0</ele><time>2026-04-12T09:39:58.448Z</time></trkpt><trkpt lat="44.697185" lon="8.0348517"><ele>177.0</ele><time>2026-04-12T09:40:00.448Z</time></trkpt><trkpt lat="44.6971417" lon="8.0349317"><ele>177.0</ele><time>2026-04-12T09:40:02.448Z</time></trkpt><trkpt lat="44.6971333" lon="8.0350983"><ele>177.0</ele><time>2026-04-12T09:40:04.448Z</time></trkpt><trkpt lat="44.6971317" lon="8.0352417"><ele>177.0</ele><time>2026-04-12T09:40:06.448Z</time></trkpt><trkpt lat="44.6971083" lon="8.0353567"><ele>177.0</ele><time>2026-04-12T09:40:08.448Z</time></trkpt><trkpt lat="44.6970983" lon="8.0354483"><ele>177.0</ele><time>2026-04-12T09:40:11.448Z</time></trkpt><trkpt lat="44.69708" lon="8.0355333"><ele>177.0</ele><time>2026-04-12T09:40:14.448Z</time></trkpt><trkpt lat="44.697" lon="8.03558"><ele>177.0</ele><time>2026-04-12T09:40:17.448Z</time></trkpt><trkpt lat="44.696925" lon="8.03559"><ele>177.0</ele><time>2026-04-12T09:40:18.448Z</time></trkpt><trkpt lat="44.69685" lon="8.0355917"><ele>177.0</ele><time>2026-04-12T09:40:19.448Z</time></trkpt><trkpt lat="44.6967617" lon="8.03559"><ele>177.0</ele><time>2026-04-12T09:40:20.448Z</time></trkpt><trkpt lat="44.6966583" lon="8.0356"><ele>177.0</ele><time>2026-04-12T09:40:22.448Z</time></trkpt><trkpt lat="44.69659" lon="8.0355917"><ele>177.0</ele><time>2026-04-12T09:40:23.448Z</time></trkpt><trkpt lat="44.6964817" lon="8.0355717"><ele>177.0</ele><time>2026-04-12T09:40:24.448Z</time></trkpt><trkpt lat="44.6964183" lon="8.0355217"><ele>177.0</ele><time>2026-04-12T09:40:25.448Z</time></trkpt><trkpt lat="44.69636" lon="8.0354567"><ele>177.0</ele><time>2026-04-12T09:40:26.448Z</time></trkpt><trkpt lat="44.6963167" lon="8.0353417"><ele>177.0</ele><time>2026-04-12T09:40:28.448Z</time></trkpt><trkpt lat="44.6963717" lon="8.03517"><ele>177.0</ele><time>2026-04-12T09:40:30.448Z</time></trkpt><trkpt lat="44.6963983" lon="8.0350817"><ele>177.0</ele><time>2026-04-12T09:40:31.448Z</time></trkpt><trkpt lat="44.696455" lon="8.03495"><ele>177.0</ele><time>2026-04-12T09:40:32.448Z</time></trkpt><trkpt lat="44.6964917" lon="8.03483"><ele>177.0</ele><time>2026-04-12T09:40:33.448Z</time></trkpt><trkpt lat="44.6965417" lon="8.034695"><ele>177.0</ele><time>2026-04-12T09:40:34.448Z</time></trkpt><trkpt lat="44.6965583" lon="8.0346083"><ele>177.0</ele><time>2026-04-12T09:40:35.448Z</time></trkpt><trkpt lat="44.6965917" lon="8.0345117"><ele>177.0</ele><time>2026-04-12T09:40:36.448Z</time></trkpt><trkpt lat="44.6966117" lon="8.0344217"><ele>177.0</ele><time>2026-04-12T09:40:37.448Z</time></trkpt><trkpt lat="44.6966183" lon="8.0342617"><ele>177.0</ele><time>2026-04-12T09:40:39.448Z</time></trkpt><trkpt lat="44.696625" lon="8.0341183"><ele>176.83333333333334</ele><time>2026-04-12T09:40:41.448Z</time></trkpt><trkpt lat="44.69665" lon="8.0340033"><ele>176.66666666666666</ele><time>2026-04-12T09:40:43.448Z</time></trkpt><trkpt lat="44.6966717" lon="8.033885"><ele>176.5</ele><time>2026-04-12T09:40:45.448Z</time></trkpt><trkpt lat="44.696685" lon="8.0337767"><ele>176.33333333333331</ele><time>2026-04-12T09:40:47.448Z</time></trkpt><trkpt lat="44.6966867" lon="8.0336667"><ele>176.16666666666666</ele><time>2026-04-12T09:40:49.448Z</time></trkpt><trkpt lat="44.6966917" lon="8.0335467"><ele>176.0</ele><time>2026-04-12T09:40:51.448Z</time></trkpt><trkpt lat="44.696675" lon="8.03345"><ele>176.0</ele><time>2026-04-12T09:40:53.448Z</time></trkpt><trkpt lat="44.6966667" lon="8.0333533"><ele>176.0</ele><time>2026-04-12T09:40:55.449Z</time></trkpt><trkpt lat="44.69666" lon="8.033225"><ele>176.0</ele><time>2026-04-12T09:40:58.448Z</time></trkpt><trkpt lat="44.6966683" lon="8.0330733"><ele>176.0</ele><time>2026-04-12T09:41:00.448Z</time></trkpt><trkpt lat="44.6966967" lon="8.0329"><ele>176.0</ele><time>2026-04-12T09:41:02.448Z</time></trkpt><trkpt lat="44.6967183" lon="8.0327683"><ele>174.75</ele><time>2026-04-12T09:41:03.448Z</time></trkpt><trkpt lat="44.6966833" lon="8.0326183"><ele>173.5</ele><time>2026-04-12T09:41:05.448Z</time></trkpt><trkpt lat="44.6965917" lon="8.0325183"><ele>172.25</ele><time>2026-04-12T09:41:07.448Z</time></trkpt><trkpt lat="44.6964883" lon="8.0324433"><ele>171.0</ele><time>2026-04-12T09:41:09.448Z</time></trkpt><trkpt lat="44.6963983" lon="8.032365"><ele>170.60000000000002</ele><time>2026-04-12T09:41:11.449Z</time></trkpt><trkpt lat="44.6963267" lon="8.0322817"><ele>170.2</ele><time>2026-04-12T09:41:13.448Z</time></trkpt><trkpt lat="44.6962717" lon="8.0321833"><ele>169.8</ele><time>2026-04-12T09:41:15.448Z</time></trkpt><trkpt lat="44.6962067" lon="8.0320917"><ele>169.39999999999998</ele><time>2026-04-12T09:41:17.448Z</time></trkpt><trkpt lat="44.6961533" lon="8.03199"><ele>169.0</ele><time>2026-04-12T09:41:19.448Z</time></trkpt><trkpt lat="44.6961183" lon="8.0318517"><ele>169.0</ele><time>2026-04-12T09:41:21.448Z</time></trkpt><trkpt lat="44.696155" lon="8.03171"><ele>169.0</ele><time>2026-04-12T09:41:23.449Z</time></trkpt><trkpt lat="44.6961967" lon="8.0316367"><ele>169.0</ele><time>2026-04-12T09:41:24.448Z</time></trkpt><trkpt lat="44.696235" lon="8.0315433"><ele>169.0</ele><time>2026-04-12T09:41:25.448Z</time></trkpt><trkpt lat="44.6962517" lon="8.03144"><ele>169.0</ele><time>2026-04-12T09:41:26.448Z</time></trkpt><trkpt lat="44.6962517" lon="8.0313317"><ele>169.0</ele><time>2026-04-12T09:41:27.448Z</time></trkpt><trkpt lat="44.696235" lon="8.0312183"><ele>169.33333333333334</ele><time>2026-04-12T09:41:28.448Z</time></trkpt><trkpt lat="44.6962033" lon="8.03111"><ele>169.66666666666669</ele><time>2026-04-12T09:41:29.448Z</time></trkpt><trkpt lat="44.6961583" lon="8.031"><ele>170.0</ele><time>2026-04-12T09:41:30.448Z</time></trkpt><trkpt lat="44.69612" lon="8.0308917"><ele>170.33333333333334</ele><time>2026-04-12T09:41:31.448Z</time></trkpt><trkpt lat="44.6960633" lon="8.0307933"><ele>170.66666666666666</ele><time>2026-04-12T09:41:32.449Z</time></trkpt><trkpt lat="44.6960083" lon="8.0307033"><ele>171.0</ele><time>2026-04-12T09:41:33.448Z</time></trkpt><trkpt lat="44.69596" lon="8.0306167"><ele>171.28571428571428</ele><time>2026-04-12T09:41:34.448Z</time></trkpt><trkpt lat="44.6959133" lon="8.0305283"><ele>171.57142857142856</ele><time>2026-04-12T09:41:35.448Z</time></trkpt><trkpt lat="44.6958733" lon="8.030445"><ele>171.85714285714283</ele><time>2026-04-12T09:41:36.448Z</time></trkpt><trkpt lat="44.69583" lon="8.0303633"><ele>172.14285714285714</ele><time>2026-04-12T09:41:37.448Z</time></trkpt><trkpt lat="44.6957933" lon="8.0302783"><ele>172.42857142857144</ele><time>2026-04-12T09:41:38.448Z</time></trkpt><trkpt lat="44.695765" lon="8.03018"><ele>172.7142857142857</ele><time>2026-04-12T09:41:39.448Z</time></trkpt><trkpt lat="44.6957417" lon="8.0300867"><ele>173.0</ele><time>2026-04-12T09:41:40.448Z</time></trkpt><trkpt lat="44.6957233" lon="8.0299917"><ele>172.85714285714286</ele><time>2026-04-12T09:41:41.448Z</time></trkpt><trkpt lat="44.695705" lon="8.0298917"><ele>172.71428571428572</ele><time>2026-04-12T09:41:42.448Z</time></trkpt><trkpt lat="44.6956883" lon="8.0298"><ele>172.57142857142858</ele><time>2026-04-12T09:41:43.448Z</time></trkpt><trkpt lat="44.6956733" lon="8.02971"><ele>172.42857142857144</ele><time>2026-04-12T09:41:44.448Z</time></trkpt><trkpt lat="44.6956567" lon="8.0296167"><ele>172.28571428571428</ele><time>2026-04-12T09:41:45.448Z</time></trkpt><trkpt lat="44.6956467" lon="8.0295283"><ele>172.14285714285717</ele><time>2026-04-12T09:41:46.448Z</time></trkpt><trkpt lat="44.6956417" lon="8.0294283"><ele>172.0</ele><time>2026-04-12T09:41:47.448Z</time></trkpt><trkpt lat="44.69563" lon="8.0293333"><ele>172.0</ele><time>2026-04-12T09:41:48.448Z</time></trkpt><trkpt lat="44.6956167" lon="8.0292383"><ele>172.0</ele><time>2026-04-12T09:41:49.448Z</time></trkpt><trkpt lat="44.6956033" lon="8.02915"><ele>172.0</ele><time>2026-04-12T09:41:50.448Z</time></trkpt><trkpt lat="44.6955783" lon="8.0289817"><ele>172.0</ele><time>2026-04-12T09:41:52.448Z</time></trkpt><trkpt lat="44.6955467" lon="8.028835"><ele>172.0</ele><time>2026-04-12T09:41:54.448Z</time></trkpt><trkpt lat="44.6955467" lon="8.0286983"><ele>172.0</ele><time>2026-04-12T09:42:00.448Z</time></trkpt><trkpt lat="44.6955433" lon="8.0286033"><ele>172.0</ele><time>2026-04-12T09:42:02.448Z</time></trkpt><trkpt lat="44.6955283" lon="8.0284683"><ele>172.0</ele><time>2026-04-12T09:42:04.448Z</time></trkpt><trkpt lat="44.6955017" lon="8.0283317"><ele>172.0</ele><time>2026-04-12T09:42:06.448Z</time></trkpt><trkpt lat="44.69548" lon="8.0282383"><ele>172.0</ele><time>2026-04-12T09:42:08.448Z</time></trkpt><trkpt lat="44.69545" lon="8.0281567"><ele>172.0</ele><time>2026-04-12T09:42:10.448Z</time></trkpt><trkpt lat="44.6954117" lon="8.028075"><ele>172.0</ele><time>2026-04-12T09:42:12.448Z</time></trkpt><trkpt lat="44.695395" lon="8.0279583"><ele>172.0</ele><time>2026-04-12T09:42:14.448Z</time></trkpt><trkpt lat="44.69537" lon="8.0278117"><ele>172.0</ele><time>2026-04-12T09:42:16.448Z</time></trkpt><trkpt lat="44.6953983" lon="8.027665"><ele>172.0</ele><time>2026-04-12T09:42:17.448Z</time></trkpt><trkpt lat="44.69539" lon="8.0274533"><ele>172.0</ele><time>2026-04-12T09:42:19.448Z</time></trkpt><trkpt lat="44.6953467" lon="8.02728"><ele>172.0</ele><time>2026-04-12T09:42:21.448Z</time></trkpt><trkpt lat="44.6953067" lon="8.02713"><ele>172.0</ele><time>2026-04-12T09:42:23.448Z</time></trkpt><trkpt lat="44.6952667" lon="8.027015"><ele>172.0</ele><time>2026-04-12T09:42:25.449Z</time></trkpt><trkpt lat="44.6952533" lon="8.0268583"><ele>172.0</ele><time>2026-04-12T09:42:27.448Z</time></trkpt><trkpt lat="44.6952433" lon="8.026765"><ele>172.0</ele><time>2026-04-12T09:42:28.448Z</time></trkpt><trkpt lat="44.69522" lon="8.0266667"><ele>172.0</ele><time>2026-04-12T09:42:29.448Z</time></trkpt><trkpt lat="44.6951917" lon="8.02657"><ele>172.0</ele><time>2026-04-12T09:42:30.448Z</time></trkpt><trkpt lat="44.6951583" lon="8.026475"><ele>172.0</ele><time>2026-04-12T09:42:31.448Z</time></trkpt><trkpt lat="44.695125" lon="8.0263817"><ele>172.0</ele><time>2026-04-12T09:42:32.448Z</time></trkpt><trkpt lat="44.695085" lon="8.0262817"><ele>172.0</ele><time>2026-04-12T09:42:33.448Z</time></trkpt><trkpt lat="44.6950417" lon="8.0261733"><ele>172.2</ele><time>2026-04-12T09:42:34.448Z</time></trkpt><trkpt lat="44.695005" lon="8.0260917"><ele>172.39999999999998</ele><time>2026-04-12T09:42:35.448Z</time></trkpt><trkpt lat="44.6949683" lon="8.0260017"><ele>172.60000000000002</ele><time>2026-04-12T09:42:36.448Z</time></trkpt><trkpt lat="44.6949317" lon="8.0259283"><ele>172.8</ele><time>2026-04-12T09:42:37.448Z</time></trkpt><trkpt lat="44.6948617" lon="8.02578"><ele>173.0</ele><time>2026-04-12T09:42:39.448Z</time></trkpt><trkpt lat="44.6947933" lon="8.0256183"><ele>173.0</ele><time>2026-04-12T09:42:41.448Z</time></trkpt><trkpt lat="44.694755" lon="8.025545"><ele>173.0</ele><time>2026-04-12T09:42:42.448Z</time></trkpt><trkpt lat="44.6947117" lon="8.0254667"><ele>173.0</ele><time>2026-04-12T09:42:43.448Z</time></trkpt><trkpt lat="44.69467" lon="8.02539"><ele>173.0</ele><time>2026-04-12T09:42:44.448Z</time></trkpt><trkpt lat="44.69463" lon="8.0253033"><ele>173.0</ele><time>2026-04-12T09:42:45.448Z</time></trkpt><trkpt lat="44.69459" lon="8.02522"><ele>173.0</ele><time>2026-04-12T09:42:46.448Z</time></trkpt><trkpt lat="44.694555" lon="8.0251317"><ele>173.0</ele><time>2026-04-12T09:42:47.448Z</time></trkpt><trkpt lat="44.69452" lon="8.0250367"><ele>172.83333333333331</ele><time>2026-04-12T09:42:48.448Z</time></trkpt><trkpt lat="44.694485" lon="8.0249417"><ele>172.66666666666666</ele><time>2026-04-12T09:42:49.448Z</time></trkpt><trkpt lat="44.6944567" lon="8.0248433"><ele>172.5</ele><time>2026-04-12T09:42:50.448Z</time></trkpt><trkpt lat="44.694425" lon="8.024745"><ele>172.33333333333334</ele><time>2026-04-12T09:42:51.448Z</time></trkpt><trkpt lat="44.6943867" lon="8.02465"><ele>172.16666666666669</ele><time>2026-04-12T09:42:52.449Z</time></trkpt><trkpt lat="44.69435" lon="8.0245617"><ele>172.0</ele><time>2026-04-12T09:42:53.448Z</time></trkpt><trkpt lat="44.6943167" lon="8.02447"><ele>172.00000000000003</ele><time>2026-04-12T09:42:54.448Z</time></trkpt><trkpt lat="44.6942833" lon="8.02438"><ele>172.0</ele><time>2026-04-12T09:42:55.448Z</time></trkpt><trkpt lat="44.6942483" lon="8.0242933"><ele>172.0</ele><time>2026-04-12T09:42:56.448Z</time></trkpt><trkpt lat="44.6942083" lon="8.0242083"><ele>172.0</ele><time>2026-04-12T09:42:57.448Z</time></trkpt><trkpt lat="44.6941617" lon="8.0241317"><ele>172.0</ele><time>2026-04-12T09:42:58.448Z</time></trkpt><trkpt lat="44.694115" lon="8.0240533"><ele>172.00000000000003</ele><time>2026-04-12T09:42:59.448Z</time></trkpt><trkpt lat="44.6940717" lon="8.0239733"><ele>172.0</ele><time>2026-04-12T09:43:00.448Z</time></trkpt><trkpt lat="44.69403" lon="8.0238933"><ele>172.00000000000003</ele><time>2026-04-12T09:43:01.448Z</time></trkpt><trkpt lat="44.6939867" lon="8.0238117"><ele>172.0</ele><time>2026-04-12T09:43:02.448Z</time></trkpt><trkpt lat="44.693945" lon="8.0237267"><ele>172.0</ele><time>2026-04-12T09:43:03.448Z</time></trkpt><trkpt lat="44.6939017" lon="8.0236417"><ele>172.0</ele><time>2026-04-12T09:43:04.448Z</time></trkpt><trkpt lat="44.69386" lon="8.023555"><ele>172.0</ele><time>2026-04-12T09:43:05.448Z</time></trkpt><trkpt lat="44.693815" lon="8.0234717"><ele>172.00000000000003</ele><time>2026-04-12T09:43:06.448Z</time></trkpt><trkpt lat="44.69377" lon="8.0233933"><ele>172.0</ele><time>2026-04-12T09:43:07.448Z</time></trkpt><trkpt lat="44.6937317" lon="8.0233117"><ele>171.83333333333334</ele><time>2026-04-12T09:43:08.448Z</time></trkpt><trkpt lat="44.6936983" lon="8.023225"><ele>171.66666666666669</ele><time>2026-04-12T09:43:09.448Z</time></trkpt><trkpt lat="44.6936583" lon="8.0231517"><ele>171.5</ele><time>2026-04-12T09:43:10.448Z</time></trkpt><trkpt lat="44.6936317" lon="8.0230683"><ele>171.33333333333334</ele><time>2026-04-12T09:43:11.448Z</time></trkpt><trkpt lat="44.693575" lon="8.0229083"><ele>171.16666666666666</ele><time>2026-04-12T09:43:13.448Z</time></trkpt><trkpt lat="44.6935367" lon="8.0228367"><ele>171.0</ele><time>2026-04-12T09:43:14.448Z</time></trkpt><trkpt lat="44.6935" lon="8.022755"><ele>171.28571428571428</ele><time>2026-04-12T09:43:15.449Z</time></trkpt><trkpt lat="44.6934617" lon="8.0226717"><ele>171.57142857142856</ele><time>2026-04-12T09:43:16.448Z</time></trkpt><trkpt lat="44.6934217" lon="8.02259"><ele>171.85714285714283</ele><time>2026-04-12T09:43:17.448Z</time></trkpt><trkpt lat="44.6933833" lon="8.0225033"><ele>172.14285714285714</ele><time>2026-04-12T09:43:18.448Z</time></trkpt><trkpt lat="44.6933517" lon="8.0224167"><ele>172.42857142857144</ele><time>2026-04-12T09:43:19.448Z</time></trkpt><trkpt lat="44.69332" lon="8.022335"><ele>172.7142857142857</ele><time>2026-04-12T09:43:20.448Z</time></trkpt><trkpt lat="44.6932767" lon="8.022265"><ele>173.0</ele><time>2026-04-12T09:43:21.448Z</time></trkpt><trkpt lat="44.6932383" lon="8.0221883"><ele>173.0</ele><time>2026-04-12T09:43:22.448Z</time></trkpt><trkpt lat="44.6931933" lon="8.02211"><ele>173.0</ele><time>2026-04-12T09:43:23.448Z</time></trkpt><trkpt lat="44.6931533" lon="8.0220317"><ele>173.0</ele><time>2026-04-12T09:43:24.448Z</time></trkpt><trkpt lat="44.6931217" lon="8.0219467"><ele>173.0</ele><time>2026-04-12T09:43:25.448Z</time></trkpt><trkpt lat="44.6930833" lon="8.021875"><ele>173.0</ele><time>2026-04-12T09:43:26.448Z</time></trkpt><trkpt lat="44.6930167" lon="8.0217483"><ele>173.0</ele><time>2026-04-12T09:43:28.448Z</time></trkpt><trkpt lat="44.6929567" lon="8.0216233"><ele>173.16666666666666</ele><time>2026-04-12T09:43:30.448Z</time></trkpt><trkpt lat="44.69288" lon="8.0214817"><ele>173.33333333333331</ele><time>2026-04-12T09:43:32.449Z</time></trkpt><trkpt lat="44.6928383" lon="8.0214067"><ele>173.5</ele><time>2026-04-12T09:43:33.448Z</time></trkpt><trkpt lat="44.6928017" lon="8.0213283"><ele>173.66666666666666</ele><time>2026-04-12T09:43:34.448Z</time></trkpt><trkpt lat="44.6927783" lon="8.021245"><ele>173.83333333333334</ele><time>2026-04-12T09:43:35.448Z</time></trkpt><trkpt lat="44.692755" lon="8.0211583"><ele>174.0</ele><time>2026-04-12T09:43:36.448Z</time></trkpt><trkpt lat="44.6927283" lon="8.0210733"><ele>174.0</ele><time>2026-04-12T09:43:37.448Z</time></trkpt><trkpt lat="44.6926983" lon="8.020985"><ele>174.0</ele><time>2026-04-12T09:43:38.448Z</time></trkpt><trkpt lat="44.6926717" lon="8.020895"><ele>174.0</ele><time>2026-04-12T09:43:39.448Z</time></trkpt><trkpt lat="44.6926417" lon="8.02081"><ele>174.0</ele><time>2026-04-12T09:43:40.448Z</time></trkpt><trkpt lat="44.6926067" lon="8.0207267"><ele>174.0</ele><time>2026-04-12T09:43:41.448Z</time></trkpt><trkpt lat="44.6925733" lon="8.0206483"><ele>174.0</ele><time>2026-04-12T09:43:42.449Z</time></trkpt><trkpt lat="44.6925433" lon="8.02057"><ele>174.0</ele><time>2026-04-12T09:43:43.448Z</time></trkpt><trkpt lat="44.69251" lon="8.0204917"><ele>174.0</ele><time>2026-04-12T09:43:44.448Z</time></trkpt><trkpt lat="44.6924767" lon="8.0204083"><ele>174.0</ele><time>2026-04-12T09:43:45.448Z</time></trkpt><trkpt lat="44.6924417" lon="8.0203283"><ele>174.0</ele><time>2026-04-12T09:43:46.448Z</time></trkpt><trkpt lat="44.6924033" lon="8.0202533"><ele>174.0</ele><time>2026-04-12T09:43:47.448Z</time></trkpt><trkpt lat="44.6923633" lon="8.02018"><ele>174.0</ele><time>2026-04-12T09:43:48.448Z</time></trkpt><trkpt lat="44.6923283" lon="8.0200967"><ele>174.0</ele><time>2026-04-12T09:43:49.448Z</time></trkpt><trkpt lat="44.6922867" lon="8.020005"><ele>174.0</ele><time>2026-04-12T09:43:50.448Z</time></trkpt><trkpt lat="44.69225" lon="8.019915"><ele>173.85714285714286</ele><time>2026-04-12T09:43:51.449Z</time></trkpt><trkpt lat="44.6922067" lon="8.0198283"><ele>173.71428571428572</ele><time>2026-04-12T09:43:52.448Z</time></trkpt><trkpt lat="44.6921733" lon="8.0197333"><ele>173.57142857142856</ele><time>2026-04-12T09:43:53.448Z</time></trkpt><trkpt lat="44.6921267" lon="8.0196533"><ele>173.42857142857144</ele><time>2026-04-12T09:43:54.448Z</time></trkpt><trkpt lat="44.6920833" lon="8.019575"><ele>173.2857142857143</ele><time>2026-04-12T09:43:55.448Z</time></trkpt><trkpt lat="44.692045" lon="8.0194867"><ele>173.14285714285714</ele><time>2026-04-12T09:43:56.448Z</time></trkpt><trkpt lat="44.6920083" lon="8.0194"><ele>173.0</ele><time>2026-04-12T09:43:57.448Z</time></trkpt><trkpt lat="44.6919667" lon="8.0193117"><ele>173.0</ele><time>2026-04-12T09:43:58.448Z</time></trkpt><trkpt lat="44.6919317" lon="8.019225"><ele>173.0</ele><time>2026-04-12T09:43:59.448Z</time></trkpt><trkpt lat="44.6918917" lon="8.019145"><ele>173.0</ele><time>2026-04-12T09:44:00.449Z</time></trkpt><trkpt lat="44.6918383" lon="8.0190683"><ele>173.0</ele><time>2026-04-12T09:44:01.448Z</time></trkpt><trkpt lat="44.6917983" lon="8.018975"><ele>173.0</ele><time>2026-04-12T09:44:02.448Z</time></trkpt><trkpt lat="44.6917533" lon="8.0188967"><ele>173.0</ele><time>2026-04-12T09:44:03.448Z</time></trkpt><trkpt lat="44.6917017" lon="8.0188183"><ele>173.0</ele><time>2026-04-12T09:44:04.448Z</time></trkpt><trkpt lat="44.69167" lon="8.01874"><ele>173.28571428571428</ele><time>2026-04-12T09:44:05.448Z</time></trkpt><trkpt lat="44.6916317" lon="8.0186567"><ele>173.57142857142858</ele><time>2026-04-12T09:44:06.448Z</time></trkpt><trkpt lat="44.69159" lon="8.0185783"><ele>173.85714285714286</ele><time>2026-04-12T09:44:07.448Z</time></trkpt><trkpt lat="44.69155" lon="8.018495"><ele>174.14285714285714</ele><time>2026-04-12T09:44:08.448Z</time></trkpt><trkpt lat="44.6915083" lon="8.0184167"><ele>174.42857142857144</ele><time>2026-04-12T09:44:09.448Z</time></trkpt><trkpt lat="44.6914783" lon="8.0183383"><ele>174.71428571428572</ele><time>2026-04-12T09:44:10.448Z</time></trkpt><trkpt lat="44.69145" lon="8.0182517"><ele>175.0</ele><time>2026-04-12T09:44:11.448Z</time></trkpt><trkpt lat="44.6914267" lon="8.0181667"><ele>174.33333333333334</ele><time>2026-04-12T09:44:12.448Z</time></trkpt><trkpt lat="44.691395" lon="8.018085"><ele>173.66666666666669</ele><time>2026-04-12T09:44:13.448Z</time></trkpt><trkpt lat="44.69133" lon="8.017935"><ele>173.0</ele><time>2026-04-12T09:44:15.448Z</time></trkpt><trkpt lat="44.6912967" lon="8.017855"><ele>172.33333333333334</ele><time>2026-04-12T09:44:16.449Z</time></trkpt><trkpt lat="44.6912617" lon="8.017775"><ele>171.66666666666666</ele><time>2026-04-12T09:44:17.448Z</time></trkpt><trkpt lat="44.69119" lon="8.0176333"><ele>171.0</ele><time>2026-04-12T09:44:19.448Z</time></trkpt><trkpt lat="44.69113" lon="8.0175067"><ele>170.75</ele><time>2026-04-12T09:44:21.449Z</time></trkpt><trkpt lat="44.6910667" lon="8.01738"><ele>170.5</ele><time>2026-04-12T09:44:23.448Z</time></trkpt><trkpt lat="44.6909933" lon="8.0172333"><ele>170.25</ele><time>2026-04-12T09:44:25.448Z</time></trkpt><trkpt lat="44.6909183" lon="8.0170883"><ele>170.0</ele><time>2026-04-12T09:44:27.448Z</time></trkpt><trkpt lat="44.690855" lon="8.01695"><ele>170.0</ele><time>2026-04-12T09:44:29.448Z</time></trkpt><trkpt lat="44.690795" lon="8.0168133"><ele>170.0</ele><time>2026-04-12T09:44:31.448Z</time></trkpt><trkpt lat="44.6907367" lon="8.0166817"><ele>170.0</ele><time>2026-04-12T09:44:33.448Z</time></trkpt><trkpt lat="44.6906617" lon="8.0165517"><ele>170.0</ele><time>2026-04-12T09:44:35.448Z</time></trkpt><trkpt lat="44.6906233" lon="8.0164667"><ele>170.0</ele><time>2026-04-12T09:44:36.448Z</time></trkpt><trkpt lat="44.690585" lon="8.0163817"><ele>170.33333333333331</ele><time>2026-04-12T09:44:37.448Z</time></trkpt><trkpt lat="44.690545" lon="8.016295"><ele>170.66666666666666</ele><time>2026-04-12T09:44:38.449Z</time></trkpt><trkpt lat="44.6905117" lon="8.0162167"><ele>171.0</ele><time>2026-04-12T09:44:39.449Z</time></trkpt><trkpt lat="44.6904217" lon="8.0160867"><ele>171.33333333333334</ele><time>2026-04-12T09:44:41.448Z</time></trkpt><trkpt lat="44.69038" lon="8.0160017"><ele>171.66666666666669</ele><time>2026-04-12T09:44:42.448Z</time></trkpt><trkpt lat="44.69034" lon="8.0159183"><ele>172.0</ele><time>2026-04-12T09:44:43.448Z</time></trkpt><trkpt lat="44.6903067" lon="8.0158317"><ele>172.14285714285717</ele><time>2026-04-12T09:44:44.448Z</time></trkpt><trkpt lat="44.6902717" lon="8.01575"><ele>172.28571428571428</ele><time>2026-04-12T09:44:45.449Z</time></trkpt><trkpt lat="44.6902217" lon="8.0156767"><ele>172.42857142857144</ele><time>2026-04-12T09:44:46.448Z</time></trkpt><trkpt lat="44.6901833" lon="8.0156033"><ele>172.57142857142858</ele><time>2026-04-12T09:44:47.448Z</time></trkpt><trkpt lat="44.6901433" lon="8.015525"><ele>172.71428571428572</ele><time>2026-04-12T09:44:48.448Z</time></trkpt><trkpt lat="44.690105" lon="8.015445"><ele>172.85714285714286</ele><time>2026-04-12T09:44:49.448Z</time></trkpt><trkpt lat="44.6900717" lon="8.0153567"><ele>173.0</ele><time>2026-04-12T09:44:50.448Z</time></trkpt><trkpt lat="44.6900333" lon="8.0152767"><ele>173.0</ele><time>2026-04-12T09:44:51.448Z</time></trkpt><trkpt lat="44.6900017" lon="8.01519"><ele>173.0</ele><time>2026-04-12T09:44:52.448Z</time></trkpt><trkpt lat="44.6899317" lon="8.0150367"><ele>173.0</ele><time>2026-04-12T09:44:54.448Z</time></trkpt><trkpt lat="44.6898667" lon="8.0148917"><ele>173.0</ele><time>2026-04-12T09:44:56.448Z</time></trkpt><trkpt lat="44.6898283" lon="8.01482"><ele>173.0</ele><time>2026-04-12T09:44:57.448Z</time></trkpt><trkpt lat="44.6897883" lon="8.0147333"><ele>172.85714285714286</ele><time>2026-04-12T09:44:58.448Z</time></trkpt><trkpt lat="44.68975" lon="8.0146567"><ele>172.71428571428572</ele><time>2026-04-12T09:44:59.448Z</time></trkpt><trkpt lat="44.6897133" lon="8.014575"><ele>172.57142857142858</ele><time>2026-04-12T09:45:00.448Z</time></trkpt><trkpt lat="44.6896733" lon="8.014495"><ele>172.42857142857144</ele><time>2026-04-12T09:45:01.448Z</time></trkpt><trkpt lat="44.6896367" lon="8.0144117"><ele>172.28571428571428</ele><time>2026-04-12T09:45:02.448Z</time></trkpt><trkpt lat="44.6896033" lon="8.014325"><ele>172.14285714285717</ele><time>2026-04-12T09:45:03.448Z</time></trkpt><trkpt lat="44.6895633" lon="8.0142367"><ele>172.0</ele><time>2026-04-12T09:45:04.448Z</time></trkpt><trkpt lat="44.6895183" lon="8.0141567"><ele>172.00000000000003</ele><time>2026-04-12T09:45:05.448Z</time></trkpt><trkpt lat="44.6894817" lon="8.0140717"><ele>172.0</ele><time>2026-04-12T09:45:06.448Z</time></trkpt><trkpt lat="44.6894467" lon="8.01399"><ele>172.0</ele><time>2026-04-12T09:45:07.448Z</time></trkpt><trkpt lat="44.6894133" lon="8.0139"><ele>172.0</ele><time>2026-04-12T09:45:08.448Z</time></trkpt><trkpt lat="44.689375" lon="8.0138183"><ele>172.0</ele><time>2026-04-12T09:45:09.448Z</time></trkpt><trkpt lat="44.6893367" lon="8.0137333"><ele>172.00000000000003</ele><time>2026-04-12T09:45:10.448Z</time></trkpt><trkpt lat="44.6892967" lon="8.0136517"><ele>172.0</ele><time>2026-04-12T09:45:11.448Z</time></trkpt><trkpt lat="44.6892667" lon="8.0135667"><ele>172.33333333333334</ele><time>2026-04-12T09:45:12.448Z</time></trkpt><trkpt lat="44.6891967" lon="8.0134167"><ele>172.66666666666669</ele><time>2026-04-12T09:45:14.448Z</time></trkpt><trkpt lat="44.68916" lon="8.0133417"><ele>173.0</ele><time>2026-04-12T09:45:15.448Z</time></trkpt><trkpt lat="44.689125" lon="8.0132667"><ele>173.33333333333334</ele><time>2026-04-12T09:45:16.448Z</time></trkpt><trkpt lat="44.6890933" lon="8.01319"><ele>173.66666666666666</ele><time>2026-04-12T09:45:17.448Z</time></trkpt><trkpt lat="44.68903" lon="8.0130467"><ele>174.0</ele><time>2026-04-12T09:45:19.448Z</time></trkpt><trkpt lat="44.6889667" lon="8.0128983"><ele>174.0</ele><time>2026-04-12T09:45:21.448Z</time></trkpt><trkpt lat="44.6888983" lon="8.0127517"><ele>174.0</ele><time>2026-04-12T09:45:23.448Z</time></trkpt><trkpt lat="44.6888417" lon="8.01261"><ele>174.0</ele><time>2026-04-12T09:45:25.448Z</time></trkpt><trkpt lat="44.6887817" lon="8.0124483"><ele>174.0</ele><time>2026-04-12T09:45:27.448Z</time></trkpt><trkpt lat="44.6887433" lon="8.0123617"><ele>174.0</ele><time>2026-04-12T09:45:28.448Z</time></trkpt><trkpt lat="44.688705" lon="8.0122717"><ele>174.16666666666666</ele><time>2026-04-12T09:45:29.448Z</time></trkpt><trkpt lat="44.6886733" lon="8.0121733"><ele>174.33333333333334</ele><time>2026-04-12T09:45:30.448Z</time></trkpt><trkpt lat="44.6886367" lon="8.0120817"><ele>174.5</ele><time>2026-04-12T09:45:31.448Z</time></trkpt><trkpt lat="44.6885917" lon="8.0119883"><ele>174.66666666666669</ele><time>2026-04-12T09:45:32.448Z</time></trkpt><trkpt lat="44.6885717" lon="8.0118917"><ele>174.83333333333334</ele><time>2026-04-12T09:45:33.448Z</time></trkpt><trkpt lat="44.6885333" lon="8.0118033"><ele>175.0</ele><time>2026-04-12T09:45:34.448Z</time></trkpt><trkpt lat="44.6884883" lon="8.0117133"><ele>175.0</ele><time>2026-04-12T09:45:35.448Z</time></trkpt><trkpt lat="44.6884417" lon="8.0116317"><ele>175.0</ele><time>2026-04-12T09:45:36.448Z</time></trkpt><trkpt lat="44.6884033" lon="8.011545"><ele>175.0</ele><time>2026-04-12T09:45:37.448Z</time></trkpt><trkpt lat="44.688375" lon="8.011455"><ele>175.0</ele><time>2026-04-12T09:45:38.448Z</time></trkpt><trkpt lat="44.6883383" lon="8.01137"><ele>175.0</ele><time>2026-04-12T09:45:39.448Z</time></trkpt><trkpt lat="44.6883017" lon="8.0112883"><ele>175.0</ele><time>2026-04-12T09:45:40.448Z</time></trkpt><trkpt lat="44.6882667" lon="8.0112067"><ele>175.0</ele><time>2026-04-12T09:45:41.448Z</time></trkpt><trkpt lat="44.68823" lon="8.011125"><ele>175.0</ele><time>2026-04-12T09:45:42.448Z</time></trkpt><trkpt lat="44.6881833" lon="8.0110467"><ele>175.0</ele><time>2026-04-12T09:45:43.448Z</time></trkpt><trkpt lat="44.68814" lon="8.0109717"><ele>175.0</ele><time>2026-04-12T09:45:44.448Z</time></trkpt><trkpt lat="44.68809" lon="8.0108917"><ele>175.0</ele><time>2026-04-12T09:45:45.448Z</time></trkpt><trkpt lat="44.6880483" lon="8.010815"><ele>175.0</ele><time>2026-04-12T09:45:46.448Z</time></trkpt><trkpt lat="44.6880117" lon="8.010735"><ele>175.0</ele><time>2026-04-12T09:45:47.448Z</time></trkpt><trkpt lat="44.6879817" lon="8.0106517"><ele>175.0</ele><time>2026-04-12T09:45:48.448Z</time></trkpt><trkpt lat="44.6879083" lon="8.010495"><ele>175.14285714285714</ele><time>2026-04-12T09:45:50.448Z</time></trkpt><trkpt lat="44.687865" lon="8.0104167"><ele>175.28571428571428</ele><time>2026-04-12T09:45:51.448Z</time></trkpt><trkpt lat="44.68783" lon="8.010335"><ele>175.42857142857144</ele><time>2026-04-12T09:45:52.448Z</time></trkpt><trkpt lat="44.6877917" lon="8.0102533"><ele>175.57142857142856</ele><time>2026-04-12T09:45:53.448Z</time></trkpt><trkpt lat="44.6877517" lon="8.0101733"><ele>175.71428571428572</ele><time>2026-04-12T09:45:54.448Z</time></trkpt><trkpt lat="44.68771" lon="8.0100933"><ele>175.85714285714286</ele><time>2026-04-12T09:45:55.448Z</time></trkpt><trkpt lat="44.6876683" lon="8.010015"><ele>176.0</ele><time>2026-04-12T09:45:56.448Z</time></trkpt><trkpt lat="44.68763" lon="8.0099367"><ele>176.0</ele><time>2026-04-12T09:45:57.448Z</time></trkpt><trkpt lat="44.687585" lon="8.0098517"><ele>176.0</ele><time>2026-04-12T09:45:58.448Z</time></trkpt><trkpt lat="44.6875483" lon="8.00977"><ele>176.0</ele><time>2026-04-12T09:45:59.448Z</time></trkpt><trkpt lat="44.68751" lon="8.0096783"><ele>176.0</ele><time>2026-04-12T09:46:00.448Z</time></trkpt><trkpt lat="44.6874717" lon="8.009595"><ele>176.0</ele><time>2026-04-12T09:46:01.448Z</time></trkpt><trkpt lat="44.68744" lon="8.00951"><ele>176.0</ele><time>2026-04-12T09:46:02.448Z</time></trkpt><trkpt lat="44.6874067" lon="8.0094267"><ele>176.0</ele><time>2026-04-12T09:46:03.448Z</time></trkpt><trkpt lat="44.6873717" lon="8.00934"><ele>176.0</ele><time>2026-04-12T09:46:04.448Z</time></trkpt><trkpt lat="44.687335" lon="8.0092583"><ele>176.0</ele><time>2026-04-12T09:46:05.448Z</time></trkpt><trkpt lat="44.6873017" lon="8.0091783"><ele>176.0</ele><time>2026-04-12T09:46:06.448Z</time></trkpt><trkpt lat="44.6872633" lon="8.0091033"><ele>176.0</ele><time>2026-04-12T09:46:07.448Z</time></trkpt><trkpt lat="44.68719" lon="8.0089583"><ele>176.0</ele><time>2026-04-12T09:46:09.448Z</time></trkpt><trkpt lat="44.6871333" lon="8.00882"><ele>176.0</ele><time>2026-04-12T09:46:11.448Z</time></trkpt><trkpt lat="44.6870733" lon="8.0086733"><ele>176.0</ele><time>2026-04-12T09:46:13.448Z</time></trkpt><trkpt lat="44.6870417" lon="8.0085917"><ele>176.0</ele><time>2026-04-12T09:46:14.448Z</time></trkpt><trkpt lat="44.68701" lon="8.008505"><ele>176.0</ele><time>2026-04-12T09:46:15.448Z</time></trkpt><trkpt lat="44.6869783" lon="8.00842"><ele>176.0</ele><time>2026-04-12T09:46:16.448Z</time></trkpt><trkpt lat="44.68695" lon="8.008335"><ele>176.0</ele><time>2026-04-12T09:46:17.448Z</time></trkpt><trkpt lat="44.6869117" lon="8.0082483"><ele>176.0</ele><time>2026-04-12T09:46:18.448Z</time></trkpt><trkpt lat="44.6868683" lon="8.0081617"><ele>176.0</ele><time>2026-04-12T09:46:19.448Z</time></trkpt><trkpt lat="44.6868167" lon="8.0080717"><ele>176.0</ele><time>2026-04-12T09:46:20.448Z</time></trkpt><trkpt lat="44.6867667" lon="8.0079883"><ele>176.0</ele><time>2026-04-12T09:46:21.448Z</time></trkpt><trkpt lat="44.686715" lon="8.0079033"><ele>176.0</ele><time>2026-04-12T09:46:22.448Z</time></trkpt><trkpt lat="44.6866667" lon="8.0078267"><ele>176.0</ele><time>2026-04-12T09:46:23.448Z</time></trkpt><trkpt lat="44.686615" lon="8.0077483"><ele>176.0</ele><time>2026-04-12T09:46:24.448Z</time></trkpt><trkpt lat="44.6865617" lon="8.00767"><ele>176.0</ele><time>2026-04-12T09:46:25.448Z</time></trkpt><trkpt lat="44.6865083" lon="8.0075917"><ele>176.0</ele><time>2026-04-12T09:46:26.448Z</time></trkpt><trkpt lat="44.68645" lon="8.0075133"><ele>176.0</ele><time>2026-04-12T09:46:27.448Z</time></trkpt><trkpt lat="44.6864017" lon="8.00744"><ele>176.0</ele><time>2026-04-12T09:46:28.448Z</time></trkpt><trkpt lat="44.6863567" lon="8.0073617"><ele>176.0</ele><time>2026-04-12T09:46:29.448Z</time></trkpt><trkpt lat="44.6862983" lon="8.0072867"><ele>176.0</ele><time>2026-04-12T09:46:30.449Z</time></trkpt><trkpt lat="44.6862383" lon="8.0072183"><ele>176.0</ele><time>2026-04-12T09:46:31.449Z</time></trkpt><trkpt lat="44.68618" lon="8.007155"><ele>176.0</ele><time>2026-04-12T09:46:32.448Z</time></trkpt><trkpt lat="44.686125" lon="8.0070933"><ele>176.0</ele><time>2026-04-12T09:46:33.448Z</time></trkpt><trkpt lat="44.6860667" lon="8.0070333"><ele>176.0</ele><time>2026-04-12T09:46:34.448Z</time></trkpt><trkpt lat="44.6860117" lon="8.0069733"><ele>176.0</ele><time>2026-04-12T09:46:35.448Z</time></trkpt><trkpt lat="44.6859467" lon="8.0069133"><ele>176.0</ele><time>2026-04-12T09:46:36.448Z</time></trkpt><trkpt lat="44.6858867" lon="8.0068583"><ele>176.0</ele><time>2026-04-12T09:46:37.448Z</time></trkpt><trkpt lat="44.68583" lon="8.0068033"><ele>176.0</ele><time>2026-04-12T09:46:38.448Z</time></trkpt><trkpt lat="44.6857767" lon="8.00675"><ele>175.85714285714286</ele><time>2026-04-12T09:46:39.448Z</time></trkpt><trkpt lat="44.6857217" lon="8.0067"><ele>175.71428571428572</ele><time>2026-04-12T09:46:40.448Z</time></trkpt><trkpt lat="44.685665" lon="8.0066517"><ele>175.57142857142856</ele><time>2026-04-12T09:46:41.448Z</time></trkpt><trkpt lat="44.6856083" lon="8.0066117"><ele>175.42857142857144</ele><time>2026-04-12T09:46:42.448Z</time></trkpt><trkpt lat="44.6855517" lon="8.00657"><ele>175.28571428571428</ele><time>2026-04-12T09:46:43.448Z</time></trkpt><trkpt lat="44.685495" lon="8.0065233"><ele>175.14285714285714</ele><time>2026-04-12T09:46:44.448Z</time></trkpt><trkpt lat="44.685435" lon="8.0064783"><ele>175.0</ele><time>2026-04-12T09:46:45.448Z</time></trkpt><trkpt lat="44.6853733" lon="8.0064317"><ele>175.0</ele><time>2026-04-12T09:46:46.448Z</time></trkpt><trkpt lat="44.6853133" lon="8.0063833"><ele>175.0</ele><time>2026-04-12T09:46:47.449Z</time></trkpt><trkpt lat="44.68525" lon="8.006335"><ele>175.0</ele><time>2026-04-12T09:46:48.448Z</time></trkpt><trkpt lat="44.685185" lon="8.0062867"><ele>175.0</ele><time>2026-04-12T09:46:49.448Z</time></trkpt><trkpt lat="44.6851183" lon="8.006235"><ele>175.0</ele><time>2026-04-12T09:46:50.448Z</time></trkpt><trkpt lat="44.6850533" lon="8.0061883"><ele>175.0</ele><time>2026-04-12T09:46:51.448Z</time></trkpt><trkpt lat="44.68499" lon="8.0061433"><ele>175.0</ele><time>2026-04-12T09:46:52.448Z</time></trkpt><trkpt lat="44.6849267" lon="8.0061"><ele>175.0</ele><time>2026-04-12T09:46:53.448Z</time></trkpt><trkpt lat="44.684865" lon="8.0060617"><ele>175.0</ele><time>2026-04-12T09:46:54.448Z</time></trkpt><trkpt lat="44.6847617" lon="8.00596"><ele>175.0</ele><time>2026-04-12T09:46:56.448Z</time></trkpt><trkpt lat="44.6847067" lon="8.0058967"><ele>175.0</ele><time>2026-04-12T09:46:57.449Z</time></trkpt><trkpt lat="44.684655" lon="8.005825"><ele>175.0</ele><time>2026-04-12T09:46:58.448Z</time></trkpt><trkpt lat="44.6846017" lon="8.005765"><ele>175.0</ele><time>2026-04-12T09:46:59.448Z</time></trkpt><trkpt lat="44.68455" lon="8.005705"><ele>175.0</ele><time>2026-04-12T09:47:00.448Z</time></trkpt><trkpt lat="44.68449" lon="8.0056417"><ele>175.0</ele><time>2026-04-12T09:47:01.448Z</time></trkpt><trkpt lat="44.684435" lon="8.00558"><ele>175.0</ele><time>2026-04-12T09:47:02.448Z</time></trkpt><trkpt lat="44.6843767" lon="8.0055283"><ele>175.0</ele><time>2026-04-12T09:47:03.448Z</time></trkpt><trkpt lat="44.6842767" lon="8.0054233"><ele>175.0</ele><time>2026-04-12T09:47:05.448Z</time></trkpt><trkpt lat="44.6842267" lon="8.0053583"><ele>175.0</ele><time>2026-04-12T09:47:06.448Z</time></trkpt><trkpt lat="44.6841767" lon="8.0052933"><ele>175.16666666666669</ele><time>2026-04-12T09:47:07.448Z</time></trkpt><trkpt lat="44.6841317" lon="8.0052233"><ele>175.33333333333334</ele><time>2026-04-12T09:47:08.448Z</time></trkpt><trkpt lat="44.6840867" lon="8.0051483"><ele>175.5</ele><time>2026-04-12T09:47:09.448Z</time></trkpt><trkpt lat="44.6840433" lon="8.0050783"><ele>175.66666666666666</ele><time>2026-04-12T09:47:10.449Z</time></trkpt><trkpt lat="44.6840017" lon="8.0050033"><ele>175.83333333333331</ele><time>2026-04-12T09:47:11.448Z</time></trkpt><trkpt lat="44.6839667" lon="8.0049267"><ele>176.0</ele><time>2026-04-12T09:47:12.448Z</time></trkpt><trkpt lat="44.6838883" lon="8.0047917"><ele>176.0</ele><time>2026-04-12T09:47:14.448Z</time></trkpt><trkpt lat="44.6838033" lon="8.004665"><ele>176.0</ele><time>2026-04-12T09:47:16.448Z</time></trkpt><trkpt lat="44.6837567" lon="8.0045983"><ele>176.0</ele><time>2026-04-12T09:47:17.448Z</time></trkpt><trkpt lat="44.6837167" lon="8.004525"><ele>176.0</ele><time>2026-04-12T09:47:18.449Z</time></trkpt><trkpt lat="44.683675" lon="8.004455"><ele>176.0</ele><time>2026-04-12T09:47:19.448Z</time></trkpt><trkpt lat="44.6836333" lon="8.0043833"><ele>176.0</ele><time>2026-04-12T09:47:20.448Z</time></trkpt><trkpt lat="44.6835917" lon="8.0043083"><ele>175.83333333333331</ele><time>2026-04-12T09:47:21.448Z</time></trkpt><trkpt lat="44.68353" lon="8.0041533"><ele>175.66666666666666</ele><time>2026-04-12T09:47:23.448Z</time></trkpt><trkpt lat="44.6834933" lon="8.004075"><ele>175.5</ele><time>2026-04-12T09:47:24.448Z</time></trkpt><trkpt lat="44.68346" lon="8.00399"><ele>175.33333333333334</ele><time>2026-04-12T09:47:25.448Z</time></trkpt><trkpt lat="44.6834267" lon="8.003905"><ele>175.16666666666669</ele><time>2026-04-12T09:47:26.448Z</time></trkpt><trkpt lat="44.6833933" lon="8.0038267"><ele>175.0</ele><time>2026-04-12T09:47:27.448Z</time></trkpt><trkpt lat="44.6833583" lon="8.0037467"><ele>175.0</ele><time>2026-04-12T09:47:28.448Z</time></trkpt><trkpt lat="44.6833167" lon="8.0036633"><ele>175.0</ele><time>2026-04-12T09:47:29.448Z</time></trkpt><trkpt lat="44.6832717" lon="8.0035733"><ele>175.0</ele><time>2026-04-12T09:47:30.448Z</time></trkpt><trkpt lat="44.683225" lon="8.00348"><ele>175.0</ele><time>2026-04-12T09:47:31.448Z</time></trkpt><trkpt lat="44.6831833" lon="8.0033917"><ele>175.0</ele><time>2026-04-12T09:47:32.448Z</time></trkpt><trkpt lat="44.6831417" lon="8.0033083"><ele>175.0</ele><time>2026-04-12T09:47:33.448Z</time></trkpt><trkpt lat="44.6830983" lon="8.0032283"><ele>174.57142857142858</ele><time>2026-04-12T09:47:34.448Z</time></trkpt><trkpt lat="44.683055" lon="8.003145"><ele>174.14285714285714</ele><time>2026-04-12T09:47:35.448Z</time></trkpt><trkpt lat="44.6830117" lon="8.0030533"><ele>173.71428571428572</ele><time>2026-04-12T09:47:36.448Z</time></trkpt><trkpt lat="44.6829767" lon="8.002965"><ele>173.28571428571428</ele><time>2026-04-12T09:47:37.448Z</time></trkpt><trkpt lat="44.682945" lon="8.0028783"><ele>172.85714285714286</ele><time>2026-04-12T09:47:38.448Z</time></trkpt><trkpt lat="44.682905" lon="8.0027867"><ele>172.42857142857144</ele><time>2026-04-12T09:47:39.448Z</time></trkpt><trkpt lat="44.6828617" lon="8.002705"><ele>172.0</ele><time>2026-04-12T09:47:40.448Z</time></trkpt><trkpt lat="44.6828133" lon="8.0026367"><ele>172.00000000000003</ele><time>2026-04-12T09:47:41.448Z</time></trkpt><trkpt lat="44.68277" lon="8.002565"><ele>172.0</ele><time>2026-04-12T09:47:42.448Z</time></trkpt><trkpt lat="44.6827383" lon="8.002485"><ele>172.0</ele><time>2026-04-12T09:47:43.448Z</time></trkpt><trkpt lat="44.6826967" lon="8.0024167"><ele>172.0</ele><time>2026-04-12T09:47:44.448Z</time></trkpt><trkpt lat="44.6826583" lon="8.002335"><ele>172.0</ele><time>2026-04-12T09:47:45.448Z</time></trkpt><trkpt lat="44.6826183" lon="8.0022583"><ele>172.00000000000003</ele><time>2026-04-12T09:47:46.448Z</time></trkpt><trkpt lat="44.6825833" lon="8.002175"><ele>172.0</ele><time>2026-04-12T09:47:47.448Z</time></trkpt><trkpt lat="44.68254" lon="8.0020917"><ele>172.42857142857144</ele><time>2026-04-12T09:47:48.448Z</time></trkpt><trkpt lat="44.682505" lon="8.0019983"><ele>172.85714285714286</ele><time>2026-04-12T09:47:49.448Z</time></trkpt><trkpt lat="44.6824617" lon="8.001915"><ele>173.28571428571428</ele><time>2026-04-12T09:47:50.448Z</time></trkpt><trkpt lat="44.6824283" lon="8.0018333"><ele>173.71428571428572</ele><time>2026-04-12T09:47:51.448Z</time></trkpt><trkpt lat="44.68239" lon="8.00175"><ele>174.14285714285714</ele><time>2026-04-12T09:47:52.448Z</time></trkpt><trkpt lat="44.6823467" lon="8.0016767"><ele>174.57142857142858</ele><time>2026-04-12T09:47:53.448Z</time></trkpt><trkpt lat="44.682305" lon="8.0016017"><ele>175.0</ele><time>2026-04-12T09:47:54.448Z</time></trkpt><trkpt lat="44.6822683" lon="8.00152"><ele>175.0</ele><time>2026-04-12T09:47:55.448Z</time></trkpt><trkpt lat="44.6822283" lon="8.0014383"><ele>175.0</ele><time>2026-04-12T09:47:56.448Z</time></trkpt><trkpt lat="44.6821883" lon="8.0013533"><ele>175.0</ele><time>2026-04-12T09:47:57.448Z</time></trkpt><trkpt lat="44.6821433" lon="8.0012667"><ele>175.0</ele><time>2026-04-12T09:47:58.448Z</time></trkpt><trkpt lat="44.68211" lon="8.001185"><ele>175.0</ele><time>2026-04-12T09:47:59.448Z</time></trkpt><trkpt lat="44.6820717" lon="8.0011083"><ele>175.0</ele><time>2026-04-12T09:48:00.448Z</time></trkpt><trkpt lat="44.6820367" lon="8.0010317"><ele>175.0</ele><time>2026-04-12T09:48:01.448Z</time></trkpt><trkpt lat="44.6819967" lon="8.0009517"><ele>175.0</ele><time>2026-04-12T09:48:02.448Z</time></trkpt><trkpt lat="44.6819633" lon="8.0008667"><ele>175.0</ele><time>2026-04-12T09:48:03.448Z</time></trkpt><trkpt lat="44.6819233" lon="8.000785"><ele>175.0</ele><time>2026-04-12T09:48:04.448Z</time></trkpt><trkpt lat="44.6818833" lon="8.0007033"><ele>175.0</ele><time>2026-04-12T09:48:05.448Z</time></trkpt><trkpt lat="44.6818433" lon="8.0006133"><ele>175.0</ele><time>2026-04-12T09:48:06.448Z</time></trkpt><trkpt lat="44.6818083" lon="8.0005317"><ele>175.0</ele><time>2026-04-12T09:48:07.448Z</time></trkpt><trkpt lat="44.6817683" lon="8.0004467"><ele>175.0</ele><time>2026-04-12T09:48:08.448Z</time></trkpt><trkpt lat="44.6817217" lon="8.00036"><ele>175.33333333333334</ele><time>2026-04-12T09:48:09.448Z</time></trkpt><trkpt lat="44.6816817" lon="8.0002717"><ele>175.66666666666669</ele><time>2026-04-12T09:48:10.448Z</time></trkpt><trkpt lat="44.6816417" lon="8.0001833"><ele>176.0</ele><time>2026-04-12T09:48:11.448Z</time></trkpt><trkpt lat="44.681605" lon="8.0000983"><ele>176.33333333333334</ele><time>2026-04-12T09:48:12.448Z</time></trkpt><trkpt lat="44.6815633" lon="8.0000033"><ele>176.66666666666666</ele><time>2026-04-12T09:48:13.448Z</time></trkpt><trkpt lat="44.68152" lon="7.99991"><ele>177.0</ele><time>2026-04-12T09:48:14.448Z</time></trkpt><trkpt lat="44.68147" lon="7.9998267"><ele>177.0</ele><time>2026-04-12T09:48:15.448Z</time></trkpt><trkpt lat="44.6814233" lon="7.99974"><ele>177.0</ele><time>2026-04-12T09:48:16.448Z</time></trkpt><trkpt lat="44.6813717" lon="7.9996517"><ele>177.0</ele><time>2026-04-12T09:48:17.448Z</time></trkpt><trkpt lat="44.6813183" lon="7.9995633"><ele>177.0</ele><time>2026-04-12T09:48:18.448Z</time></trkpt><trkpt lat="44.6812767" lon="7.9994767"><ele>177.0</ele><time>2026-04-12T09:48:19.448Z</time></trkpt><trkpt lat="44.6812317" lon="7.9993883"><ele>177.0</ele><time>2026-04-12T09:48:20.448Z</time></trkpt><trkpt lat="44.6811867" lon="7.9992967"><ele>177.0</ele><time>2026-04-12T09:48:21.448Z</time></trkpt><trkpt lat="44.6811383" lon="7.999215"><ele>177.0</ele><time>2026-04-12T09:48:22.448Z</time></trkpt><trkpt lat="44.6810933" lon="7.9991267"><ele>177.0</ele><time>2026-04-12T09:48:23.448Z</time></trkpt><trkpt lat="44.68105" lon="7.9990383"><ele>177.0</ele><time>2026-04-12T09:48:24.448Z</time></trkpt><trkpt lat="44.6810067" lon="7.9989433"><ele>177.0</ele><time>2026-04-12T09:48:25.448Z</time></trkpt><trkpt lat="44.6809633" lon="7.9988583"><ele>177.0</ele><time>2026-04-12T09:48:26.448Z</time></trkpt><trkpt lat="44.6809167" lon="7.9987767"><ele>177.0</ele><time>2026-04-12T09:48:27.448Z</time></trkpt><trkpt lat="44.68087" lon="7.9986933"><ele>177.0</ele><time>2026-04-12T09:48:28.448Z</time></trkpt><trkpt lat="44.680825" lon="7.9986083"><ele>177.0</ele><time>2026-04-12T09:48:29.448Z</time></trkpt><trkpt lat="44.6807883" lon="7.998525"><ele>177.0</ele><time>2026-04-12T09:48:30.448Z</time></trkpt><trkpt lat="44.6807517" lon="7.9984483"><ele>177.0</ele><time>2026-04-12T09:48:31.448Z</time></trkpt><trkpt lat="44.6807217" lon="7.9983667"><ele>177.0</ele><time>2026-04-12T09:48:32.448Z</time></trkpt><trkpt lat="44.6806833" lon="7.9982883"><ele>177.0</ele><time>2026-04-12T09:48:33.448Z</time></trkpt><trkpt lat="44.68065" lon="7.9982033"><ele>177.0</ele><time>2026-04-12T09:48:34.448Z</time></trkpt><trkpt lat="44.6806133" lon="7.99812"><ele>177.0</ele><time>2026-04-12T09:48:35.448Z</time></trkpt><trkpt lat="44.6805717" lon="7.9980333"><ele>177.0</ele><time>2026-04-12T09:48:36.448Z</time></trkpt><trkpt lat="44.6805383" lon="7.9979517"><ele>177.0</ele><time>2026-04-12T09:48:37.448Z</time></trkpt><trkpt lat="44.6805017" lon="7.9978667"><ele>177.0</ele><time>2026-04-12T09:48:38.449Z</time></trkpt><trkpt lat="44.6804683" lon="7.9977833"><ele>177.0</ele><time>2026-04-12T09:48:39.448Z</time></trkpt><trkpt lat="44.680425" lon="7.997695"><ele>177.0</ele><time>2026-04-12T09:48:40.448Z</time></trkpt><trkpt lat="44.6803817" lon="7.9976167"><ele>177.0</ele><time>2026-04-12T09:48:41.448Z</time></trkpt><trkpt lat="44.6803433" lon="7.9975317"><ele>177.0</ele><time>2026-04-12T09:48:42.448Z</time></trkpt><trkpt lat="44.6802983" lon="7.997455"><ele>177.0</ele><time>2026-04-12T09:48:43.448Z</time></trkpt><trkpt lat="44.6802533" lon="7.9973667"><ele>177.0</ele><time>2026-04-12T09:48:44.448Z</time></trkpt><trkpt lat="44.6802067" lon="7.997285"><ele>177.0</ele><time>2026-04-12T09:48:45.448Z</time></trkpt><trkpt lat="44.6801667" lon="7.9971967"><ele>177.0</ele><time>2026-04-12T09:48:46.448Z</time></trkpt><trkpt lat="44.6801233" lon="7.9971117"><ele>177.0</ele><time>2026-04-12T09:48:47.448Z</time></trkpt><trkpt lat="44.6800783" lon="7.9970233"><ele>177.2857142857143</ele><time>2026-04-12T09:48:48.448Z</time></trkpt><trkpt lat="44.6800367" lon="7.9969383"><ele>177.57142857142856</ele><time>2026-04-12T09:48:49.448Z</time></trkpt><trkpt lat="44.6799983" lon="7.9968517"><ele>177.85714285714286</ele><time>2026-04-12T09:48:50.448Z</time></trkpt><trkpt lat="44.67996" lon="7.9967667"><ele>178.14285714285717</ele><time>2026-04-12T09:48:51.448Z</time></trkpt><trkpt lat="44.6799167" lon="7.996685"><ele>178.42857142857144</ele><time>2026-04-12T09:48:52.448Z</time></trkpt><trkpt lat="44.6798783" lon="7.9966017"><ele>178.71428571428572</ele><time>2026-04-12T09:48:53.448Z</time></trkpt><trkpt lat="44.6798333" lon="7.9965167"><ele>179.0</ele><time>2026-04-12T09:48:54.448Z</time></trkpt><trkpt lat="44.6797917" lon="7.99643"><ele>179.2857142857143</ele><time>2026-04-12T09:48:55.448Z</time></trkpt><trkpt lat="44.679745" lon="7.9963417"><ele>179.57142857142858</ele><time>2026-04-12T09:48:56.448Z</time></trkpt><trkpt lat="44.679695" lon="7.99625"><ele>179.85714285714286</ele><time>2026-04-12T09:48:57.448Z</time></trkpt><trkpt lat="44.6796517" lon="7.9961683"><ele>180.14285714285717</ele><time>2026-04-12T09:48:58.448Z</time></trkpt><trkpt lat="44.6796117" lon="7.9960867"><ele>180.42857142857142</ele><time>2026-04-12T09:48:59.448Z</time></trkpt><trkpt lat="44.6795717" lon="7.996015"><ele>180.71428571428572</ele><time>2026-04-12T09:49:00.448Z</time></trkpt><trkpt lat="44.679535" lon="7.9959333"><ele>181.0</ele><time>2026-04-12T09:49:01.448Z</time></trkpt><trkpt lat="44.6794967" lon="7.9958433"><ele>181.0</ele><time>2026-04-12T09:49:02.448Z</time></trkpt><trkpt lat="44.679455" lon="7.995755"><ele>181.0</ele><time>2026-04-12T09:49:03.448Z</time></trkpt><trkpt lat="44.6794117" lon="7.9956733"><ele>181.0</ele><time>2026-04-12T09:49:04.448Z</time></trkpt><trkpt lat="44.6793667" lon="7.9955817"><ele>181.0</ele><time>2026-04-12T09:49:05.448Z</time></trkpt><trkpt lat="44.6793267" lon="7.9954817"><ele>181.0</ele><time>2026-04-12T09:49:06.448Z</time></trkpt><trkpt lat="44.67928" lon="7.9953917"><ele>181.0</ele><time>2026-04-12T09:49:07.448Z</time></trkpt><trkpt lat="44.67924" lon="7.9953067"><ele>181.0</ele><time>2026-04-12T09:49:08.448Z</time></trkpt><trkpt lat="44.6791967" lon="7.99522"><ele>181.0</ele><time>2026-04-12T09:49:09.448Z</time></trkpt><trkpt lat="44.6791533" lon="7.9951433"><ele>181.0</ele><time>2026-04-12T09:49:10.448Z</time></trkpt><trkpt lat="44.6791083" lon="7.9950667"><ele>181.0</ele><time>2026-04-12T09:49:11.448Z</time></trkpt><trkpt lat="44.67907" lon="7.9949867"><ele>181.0</ele><time>2026-04-12T09:49:12.448Z</time></trkpt><trkpt lat="44.6790317" lon="7.9948983"><ele>181.0</ele><time>2026-04-12T09:49:13.448Z</time></trkpt><trkpt lat="44.6789883" lon="7.99481"><ele>181.0</ele><time>2026-04-12T09:49:14.448Z</time></trkpt><trkpt lat="44.6789417" lon="7.9947233"><ele>181.0</ele><time>2026-04-12T09:49:15.448Z</time></trkpt><trkpt lat="44.6788967" lon="7.9946317"><ele>181.0</ele><time>2026-04-12T09:49:16.448Z</time></trkpt><trkpt lat="44.6788517" lon="7.9945383"><ele>181.0</ele><time>2026-04-12T09:49:17.448Z</time></trkpt><trkpt lat="44.6788133" lon="7.994455"><ele>181.0</ele><time>2026-04-12T09:49:18.448Z</time></trkpt><trkpt lat="44.6787767" lon="7.9943767"><ele>181.0</ele><time>2026-04-12T09:49:19.448Z</time></trkpt><trkpt lat="44.6787383" lon="7.9943"><ele>181.0</ele><time>2026-04-12T09:49:20.448Z</time></trkpt><trkpt lat="44.6786967" lon="7.9942167"><ele>181.0</ele><time>2026-04-12T09:49:21.449Z</time></trkpt><trkpt lat="44.678655" lon="7.994135"><ele>180.85714285714286</ele><time>2026-04-12T09:49:22.448Z</time></trkpt><trkpt lat="44.6786133" lon="7.994055"><ele>180.71428571428572</ele><time>2026-04-12T09:49:23.448Z</time></trkpt><trkpt lat="44.678575" lon="7.9939683"><ele>180.57142857142856</ele><time>2026-04-12T09:49:24.448Z</time></trkpt><trkpt lat="44.678535" lon="7.9938867"><ele>180.42857142857144</ele><time>2026-04-12T09:49:25.448Z</time></trkpt><trkpt lat="44.678495" lon="7.9938017"><ele>180.2857142857143</ele><time>2026-04-12T09:49:26.448Z</time></trkpt><trkpt lat="44.6784517" lon="7.9937167"><ele>180.14285714285714</ele><time>2026-04-12T09:49:27.448Z</time></trkpt><trkpt lat="44.6784083" lon="7.9936317"><ele>180.0</ele><time>2026-04-12T09:49:28.448Z</time></trkpt><trkpt lat="44.6783717" lon="7.993545"><ele>180.0</ele><time>2026-04-12T09:49:29.448Z</time></trkpt><trkpt lat="44.67834" lon="7.9934617"><ele>180.0</ele><time>2026-04-12T09:49:30.448Z</time></trkpt><trkpt lat="44.67828" lon="7.9932983"><ele>180.0</ele><time>2026-04-12T09:49:32.448Z</time></trkpt><trkpt lat="44.67824" lon="7.993215"><ele>180.0</ele><time>2026-04-12T09:49:33.448Z</time></trkpt><trkpt lat="44.6782033" lon="7.9931367"><ele>180.0</ele><time>2026-04-12T09:49:34.448Z</time></trkpt><trkpt lat="44.6781667" lon="7.9930517"><ele>180.0</ele><time>2026-04-12T09:49:35.448Z</time></trkpt><trkpt lat="44.678125" lon="7.9929717"><ele>179.66666666666666</ele><time>2026-04-12T09:49:36.449Z</time></trkpt><trkpt lat="44.6780817" lon="7.9928917"><ele>179.33333333333334</ele><time>2026-04-12T09:49:37.448Z</time></trkpt><trkpt lat="44.678035" lon="7.9928133"><ele>179.0</ele><time>2026-04-12T09:49:38.448Z</time></trkpt><trkpt lat="44.67799" lon="7.9927367"><ele>178.66666666666669</ele><time>2026-04-12T09:49:39.448Z</time></trkpt><trkpt lat="44.6779417" lon="7.9926483"><ele>178.33333333333334</ele><time>2026-04-12T09:49:40.448Z</time></trkpt><trkpt lat="44.6778883" lon="7.9925567"><ele>178.0</ele><time>2026-04-12T09:49:41.448Z</time></trkpt><trkpt lat="44.6778333" lon="7.9924783"><ele>178.14285714285714</ele><time>2026-04-12T09:49:42.448Z</time></trkpt><trkpt lat="44.677785" lon="7.9924033"><ele>178.28571428571428</ele><time>2026-04-12T09:49:43.448Z</time></trkpt><trkpt lat="44.677735" lon="7.9923233"><ele>178.42857142857144</ele><time>2026-04-12T09:49:44.448Z</time></trkpt><trkpt lat="44.6776883" lon="7.99225"><ele>178.57142857142856</ele><time>2026-04-12T09:49:45.449Z</time></trkpt><trkpt lat="44.677645" lon="7.992175"><ele>178.71428571428572</ele><time>2026-04-12T09:49:46.448Z</time></trkpt><trkpt lat="44.6776017" lon="7.9920967"><ele>178.85714285714286</ele><time>2026-04-12T09:49:47.448Z</time></trkpt><trkpt lat="44.6775583" lon="7.9920167"><ele>179.0</ele><time>2026-04-12T09:49:48.448Z</time></trkpt><trkpt lat="44.677515" lon="7.991935"><ele>179.00000000000003</ele><time>2026-04-12T09:49:49.448Z</time></trkpt><trkpt lat="44.6774717" lon="7.9918517"><ele>179.0</ele><time>2026-04-12T09:49:50.448Z</time></trkpt><trkpt lat="44.6774267" lon="7.9917717"><ele>179.0</ele><time>2026-04-12T09:49:51.448Z</time></trkpt><trkpt lat="44.677385" lon="7.9916883"><ele>179.0</ele><time>2026-04-12T09:49:52.448Z</time></trkpt><trkpt lat="44.6773417" lon="7.9916067"><ele>179.0</ele><time>2026-04-12T09:49:53.448Z</time></trkpt><trkpt lat="44.6772983" lon="7.991535"><ele>179.00000000000003</ele><time>2026-04-12T09:49:54.448Z</time></trkpt><trkpt lat="44.6772583" lon="7.9914583"><ele>179.0</ele><time>2026-04-12T09:49:55.448Z</time></trkpt><trkpt lat="44.6772167" lon="7.9913817"><ele>178.83333333333331</ele><time>2026-04-12T09:49:56.449Z</time></trkpt><trkpt lat="44.6771733" lon="7.9913"><ele>178.66666666666666</ele><time>2026-04-12T09:49:57.448Z</time></trkpt><trkpt lat="44.6771333" lon="7.9912233"><ele>178.5</ele><time>2026-04-12T09:49:58.448Z</time></trkpt><trkpt lat="44.677095" lon="7.9911483"><ele>178.33333333333334</ele><time>2026-04-12T09:49:59.448Z</time></trkpt><trkpt lat="44.67703" lon="7.9910217"><ele>178.16666666666669</ele><time>2026-04-12T09:50:01.448Z</time></trkpt><trkpt lat="44.676955" lon="7.9908917"><ele>178.0</ele><time>2026-04-12T09:50:03.448Z</time></trkpt><trkpt lat="44.6769017" lon="7.9907633"><ele>178.5</ele><time>2026-04-12T09:50:05.448Z</time></trkpt><trkpt lat="44.6768567" lon="7.9906633"><ele>179.0</ele><time>2026-04-12T09:50:07.448Z</time></trkpt><trkpt lat="44.6768317" lon="7.9905783"><ele>179.5</ele><time>2026-04-12T09:50:09.448Z</time></trkpt><trkpt lat="44.67681" lon="7.9904683"><ele>180.0</ele><time>2026-04-12T09:50:11.449Z</time></trkpt><trkpt lat="44.67675" lon="7.990365"><ele>180.5</ele><time>2026-04-12T09:50:13.448Z</time></trkpt><trkpt lat="44.6766583" lon="7.9902933"><ele>181.0</ele><time>2026-04-12T09:50:15.448Z</time></trkpt><trkpt lat="44.6765617" lon="7.9902483"><ele>181.0</ele><time>2026-04-12T09:50:17.448Z</time></trkpt><trkpt lat="44.6764533" lon="7.990195"><ele>181.0</ele><time>2026-04-12T09:50:19.448Z</time></trkpt><trkpt lat="44.6763417" lon="7.990115"><ele>181.0</ele><time>2026-04-12T09:50:21.448Z</time></trkpt><trkpt lat="44.676285" lon="7.9900667"><ele>181.0</ele><time>2026-04-12T09:50:22.448Z</time></trkpt><trkpt lat="44.676215" lon="7.9900217"><ele>181.0</ele><time>2026-04-12T09:50:23.448Z</time></trkpt><trkpt lat="44.6761483" lon="7.98998"><ele>181.14285714285714</ele><time>2026-04-12T09:50:24.448Z</time></trkpt><trkpt lat="44.6760717" lon="7.9899433"><ele>181.28571428571428</ele><time>2026-04-12T09:50:25.448Z</time></trkpt><trkpt lat="44.6760033" lon="7.9899083"><ele>181.42857142857144</ele><time>2026-04-12T09:50:26.448Z</time></trkpt><trkpt lat="44.6759317" lon="7.9898633"><ele>181.57142857142856</ele><time>2026-04-12T09:50:27.448Z</time></trkpt><trkpt lat="44.6758683" lon="7.9898133"><ele>181.71428571428572</ele><time>2026-04-12T09:50:28.448Z</time></trkpt><trkpt lat="44.6758033" lon="7.9897733"><ele>181.85714285714286</ele><time>2026-04-12T09:50:29.448Z</time></trkpt><trkpt lat="44.6757417" lon="7.989735"><ele>182.0</ele><time>2026-04-12T09:50:30.448Z</time></trkpt><trkpt lat="44.6756717" lon="7.989695"><ele>182.0</ele><time>2026-04-12T09:50:31.448Z</time></trkpt><trkpt lat="44.6756017" lon="7.9896467"><ele>182.0</ele><time>2026-04-12T09:50:32.448Z</time></trkpt><trkpt lat="44.6755333" lon="7.9896033"><ele>182.0</ele><time>2026-04-12T09:50:33.448Z</time></trkpt><trkpt lat="44.6754633" lon="7.9895567"><ele>182.0</ele><time>2026-04-12T09:50:34.448Z</time></trkpt><trkpt lat="44.675395" lon="7.98951"><ele>182.0</ele><time>2026-04-12T09:50:35.449Z</time></trkpt><trkpt lat="44.67533" lon="7.9894683"><ele>182.0</ele><time>2026-04-12T09:50:36.448Z</time></trkpt><trkpt lat="44.6752617" lon="7.98943"><ele>182.14285714285714</ele><time>2026-04-12T09:50:37.448Z</time></trkpt><trkpt lat="44.6751967" lon="7.9893917"><ele>182.28571428571428</ele><time>2026-04-12T09:50:38.448Z</time></trkpt><trkpt lat="44.67513" lon="7.9893517"><ele>182.42857142857144</ele><time>2026-04-12T09:50:39.448Z</time></trkpt><trkpt lat="44.6750667" lon="7.9893117"><ele>182.57142857142856</ele><time>2026-04-12T09:50:40.448Z</time></trkpt><trkpt lat="44.6749967" lon="7.98927"><ele>182.71428571428572</ele><time>2026-04-12T09:50:41.448Z</time></trkpt><trkpt lat="44.6749283" lon="7.989225"><ele>182.85714285714286</ele><time>2026-04-12T09:50:42.448Z</time></trkpt><trkpt lat="44.6748617" lon="7.98919"><ele>183.0</ele><time>2026-04-12T09:50:43.448Z</time></trkpt><trkpt lat="44.6747967" lon="7.989155"><ele>183.0</ele><time>2026-04-12T09:50:44.448Z</time></trkpt><trkpt lat="44.674725" lon="7.9891233"><ele>183.0</ele><time>2026-04-12T09:50:45.448Z</time></trkpt><trkpt lat="44.6746567" lon="7.9890983"><ele>183.0</ele><time>2026-04-12T09:50:46.448Z</time></trkpt><trkpt lat="44.674585" lon="7.989075"><ele>183.0</ele><time>2026-04-12T09:50:47.448Z</time></trkpt><trkpt lat="44.6745117" lon="7.9890533"><ele>183.0</ele><time>2026-04-12T09:50:48.448Z</time></trkpt><trkpt lat="44.6744367" lon="7.9890333"><ele>183.0</ele><time>2026-04-12T09:50:49.448Z</time></trkpt><trkpt lat="44.67436" lon="7.9890217"><ele>183.0</ele><time>2026-04-12T09:50:50.448Z</time></trkpt><trkpt lat="44.6742833" lon="7.9890083"><ele>183.16666666666666</ele><time>2026-04-12T09:50:51.448Z</time></trkpt><trkpt lat="44.6742067" lon="7.9889967"><ele>183.33333333333334</ele><time>2026-04-12T09:50:52.448Z</time></trkpt><trkpt lat="44.67413" lon="7.988985"><ele>183.5</ele><time>2026-04-12T09:50:53.448Z</time></trkpt><trkpt lat="44.67406" lon="7.988975"><ele>183.66666666666669</ele><time>2026-04-12T09:50:54.448Z</time></trkpt><trkpt lat="44.6739883" lon="7.9889767"><ele>183.83333333333334</ele><time>2026-04-12T09:50:55.448Z</time></trkpt><trkpt lat="44.6739117" lon="7.9889733"><ele>184.0</ele><time>2026-04-12T09:50:56.448Z</time></trkpt><trkpt lat="44.673835" lon="7.9889683"><ele>184.0</ele><time>2026-04-12T09:50:57.448Z</time></trkpt><trkpt lat="44.6737617" lon="7.9889633"><ele>184.0</ele><time>2026-04-12T09:50:58.448Z</time></trkpt><trkpt lat="44.6736933" lon="7.9889617"><ele>184.0</ele><time>2026-04-12T09:50:59.448Z</time></trkpt><trkpt lat="44.6736233" lon="7.9889617"><ele>184.0</ele><time>2026-04-12T09:51:00.448Z</time></trkpt><trkpt lat="44.6735517" lon="7.9889617"><ele>184.0</ele><time>2026-04-12T09:51:01.448Z</time></trkpt><trkpt lat="44.6734817" lon="7.9889667"><ele>184.0</ele><time>2026-04-12T09:51:02.448Z</time></trkpt><trkpt lat="44.6734033" lon="7.9889617"><ele>184.0</ele><time>2026-04-12T09:51:03.448Z</time></trkpt><trkpt lat="44.67333" lon="7.98896"><ele>183.71428571428572</ele><time>2026-04-12T09:51:04.448Z</time></trkpt><trkpt lat="44.6732567" lon="7.9889567"><ele>183.42857142857142</ele><time>2026-04-12T09:51:05.448Z</time></trkpt><trkpt lat="44.6731867" lon="7.98895"><ele>183.14285714285714</ele><time>2026-04-12T09:51:06.448Z</time></trkpt><trkpt lat="44.673115" lon="7.9889383"><ele>182.85714285714286</ele><time>2026-04-12T09:51:07.448Z</time></trkpt><trkpt lat="44.67305" lon="7.9889283"><ele>182.57142857142856</ele><time>2026-04-12T09:51:08.448Z</time></trkpt><trkpt lat="44.6729867" lon="7.9889133"><ele>182.28571428571428</ele><time>2026-04-12T09:51:09.448Z</time></trkpt><trkpt lat="44.6729217" lon="7.9888967"><ele>182.0</ele><time>2026-04-12T09:51:10.448Z</time></trkpt><trkpt lat="44.6728583" lon="7.9888683"><ele>182.0</ele><time>2026-04-12T09:51:11.448Z</time></trkpt><trkpt lat="44.6727933" lon="7.988845"><ele>182.0</ele><time>2026-04-12T09:51:12.448Z</time></trkpt><trkpt lat="44.67273" lon="7.9888183"><ele>182.0</ele><time>2026-04-12T09:51:13.448Z</time></trkpt><trkpt lat="44.67267" lon="7.9887833"><ele>182.0</ele><time>2026-04-12T09:51:14.448Z</time></trkpt><trkpt lat="44.6726083" lon="7.9887467"><ele>182.0</ele><time>2026-04-12T09:51:15.448Z</time></trkpt><trkpt lat="44.672545" lon="7.9887083"><ele>182.0</ele><time>2026-04-12T09:51:16.448Z</time></trkpt><trkpt lat="44.6724817" lon="7.98867"><ele>182.0</ele><time>2026-04-12T09:51:17.448Z</time></trkpt><trkpt lat="44.67242" lon="7.98863"><ele>182.0</ele><time>2026-04-12T09:51:18.448Z</time></trkpt><trkpt lat="44.6723583" lon="7.98859"><ele>182.0</ele><time>2026-04-12T09:51:19.449Z</time></trkpt><trkpt lat="44.672295" lon="7.9885533"><ele>182.0</ele><time>2026-04-12T09:51:20.448Z</time></trkpt><trkpt lat="44.67223" lon="7.9885217"><ele>182.0</ele><time>2026-04-12T09:51:21.448Z</time></trkpt><trkpt lat="44.672165" lon="7.9884867"><ele>182.0</ele><time>2026-04-12T09:51:22.448Z</time></trkpt><trkpt lat="44.672095" lon="7.9884567"><ele>182.0</ele><time>2026-04-12T09:51:23.448Z</time></trkpt><trkpt lat="44.672025" lon="7.9884133"><ele>182.0</ele><time>2026-04-12T09:51:24.448Z</time></trkpt><trkpt lat="44.6719583" lon="7.9883733"><ele>182.42857142857142</ele><time>2026-04-12T09:51:25.448Z</time></trkpt><trkpt lat="44.6718967" lon="7.98833"><ele>182.85714285714286</ele><time>2026-04-12T09:51:26.448Z</time></trkpt><trkpt lat="44.6718333" lon="7.9882917"><ele>183.28571428571428</ele><time>2026-04-12T09:51:27.448Z</time></trkpt><trkpt lat="44.67177" lon="7.9882483"><ele>183.71428571428572</ele><time>2026-04-12T09:51:28.448Z</time></trkpt><trkpt lat="44.6717133" lon="7.9881967"><ele>184.14285714285714</ele><time>2026-04-12T09:51:29.448Z</time></trkpt><trkpt lat="44.671655" lon="7.988155"><ele>184.57142857142856</ele><time>2026-04-12T09:51:30.448Z</time></trkpt><trkpt lat="44.671595" lon="7.9881083"><ele>185.0</ele><time>2026-04-12T09:51:31.448Z</time></trkpt><trkpt lat="44.671525" lon="7.9880567"><ele>184.99999999999997</ele><time>2026-04-12T09:51:32.448Z</time></trkpt><trkpt lat="44.67146" lon="7.9879967"><ele>185.0</ele><time>2026-04-12T09:51:33.448Z</time></trkpt><trkpt lat="44.6714017" lon="7.9879267"><ele>185.0</ele><time>2026-04-12T09:51:34.448Z</time></trkpt><trkpt lat="44.6713433" lon="7.9878567"><ele>185.0</ele><time>2026-04-12T09:51:35.448Z</time></trkpt><trkpt lat="44.6712833" lon="7.9877967"><ele>185.0</ele><time>2026-04-12T09:51:36.448Z</time></trkpt><trkpt lat="44.6712267" lon="7.9877383"><ele>184.99999999999997</ele><time>2026-04-12T09:51:37.448Z</time></trkpt><trkpt lat="44.6711667" lon="7.9876917"><ele>185.0</ele><time>2026-04-12T09:51:38.448Z</time></trkpt><trkpt lat="44.67105" lon="7.9876283"><ele>184.99999999999997</ele><time>2026-04-12T09:51:40.448Z</time></trkpt><trkpt lat="44.6709867" lon="7.9875967"><ele>185.0</ele><time>2026-04-12T09:51:41.448Z</time></trkpt><trkpt lat="44.6709217" lon="7.9875667"><ele>185.0</ele><time>2026-04-12T09:51:42.448Z</time></trkpt><trkpt lat="44.67085" lon="7.98754"><ele>185.0</ele><time>2026-04-12T09:51:43.448Z</time></trkpt><trkpt lat="44.6707817" lon="7.987515"><ele>185.0</ele><time>2026-04-12T09:51:44.448Z</time></trkpt><trkpt lat="44.6707167" lon="7.98749"><ele>184.99999999999997</ele><time>2026-04-12T09:51:45.448Z</time></trkpt><trkpt lat="44.6706483" lon="7.98746"><ele>185.0</ele><time>2026-04-12T09:51:46.448Z</time></trkpt><trkpt lat="44.670575" lon="7.9874333"><ele>185.0</ele><time>2026-04-12T09:51:47.448Z</time></trkpt><trkpt lat="44.6705067" lon="7.98742"><ele>185.0</ele><time>2026-04-12T09:51:48.448Z</time></trkpt><trkpt lat="44.6704333" lon="7.9873967"><ele>185.0</ele><time>2026-04-12T09:51:49.448Z</time></trkpt><trkpt lat="44.670355" lon="7.9873617"><ele>185.0</ele><time>2026-04-12T09:51:50.448Z</time></trkpt><trkpt lat="44.670275" lon="7.98732"><ele>185.0</ele><time>2026-04-12T09:51:51.448Z</time></trkpt><trkpt lat="44.6701917" lon="7.98728"><ele>185.0</ele><time>2026-04-12T09:51:52.448Z</time></trkpt><trkpt lat="44.670105" lon="7.9872383"><ele>185.0</ele><time>2026-04-12T09:51:53.448Z</time></trkpt><trkpt lat="44.670025" lon="7.9872"><ele>185.0</ele><time>2026-04-12T09:51:54.448Z</time></trkpt><trkpt lat="44.6699383" lon="7.987175"><ele>185.0</ele><time>2026-04-12T09:51:55.448Z</time></trkpt><trkpt lat="44.66986" lon="7.9871467"><ele>185.0</ele><time>2026-04-12T09:51:56.448Z</time></trkpt><trkpt lat="44.669785" lon="7.9871183"><ele>185.0</ele><time>2026-04-12T09:51:57.448Z</time></trkpt><trkpt lat="44.66971" lon="7.9870967"><ele>185.0</ele><time>2026-04-12T09:51:58.449Z</time></trkpt><trkpt lat="44.66963" lon="7.9870867"><ele>184.99999999999997</ele><time>2026-04-12T09:51:59.448Z</time></trkpt><trkpt lat="44.6695567" lon="7.9870783"><ele>185.0</ele><time>2026-04-12T09:52:00.448Z</time></trkpt><trkpt lat="44.66948" lon="7.98707"><ele>185.0</ele><time>2026-04-12T09:52:01.448Z</time></trkpt><trkpt lat="44.6694083" lon="7.9870583"><ele>185.0</ele><time>2026-04-12T09:52:02.448Z</time></trkpt><trkpt lat="44.6693317" lon="7.9870467"><ele>185.0</ele><time>2026-04-12T09:52:03.448Z</time></trkpt><trkpt lat="44.669255" lon="7.987035"><ele>184.99999999999997</ele><time>2026-04-12T09:52:04.448Z</time></trkpt><trkpt lat="44.669185" lon="7.987025"><ele>185.0</ele><time>2026-04-12T09:52:05.448Z</time></trkpt><trkpt lat="44.6691117" lon="7.9870133"><ele>185.14285714285714</ele><time>2026-04-12T09:52:06.448Z</time></trkpt><trkpt lat="44.6690367" lon="7.987"><ele>185.28571428571428</ele><time>2026-04-12T09:52:07.448Z</time></trkpt><trkpt lat="44.66897" lon="7.98699"><ele>185.42857142857144</ele><time>2026-04-12T09:52:08.448Z</time></trkpt><trkpt lat="44.6689017" lon="7.9869783"><ele>185.57142857142856</ele><time>2026-04-12T09:52:09.448Z</time></trkpt><trkpt lat="44.6688317" lon="7.9869617"><ele>185.71428571428572</ele><time>2026-04-12T09:52:10.448Z</time></trkpt><trkpt lat="44.668765" lon="7.9869417"><ele>185.85714285714286</ele><time>2026-04-12T09:52:11.448Z</time></trkpt><trkpt lat="44.6687" lon="7.9869217"><ele>186.0</ele><time>2026-04-12T09:52:12.448Z</time></trkpt><trkpt lat="44.668585" lon="7.98687"><ele>186.60000000000002</ele><time>2026-04-12T09:52:14.448Z</time></trkpt><trkpt lat="44.6684883" lon="7.98682"><ele>187.2</ele><time>2026-04-12T09:52:16.448Z</time></trkpt><trkpt lat="44.6684117" lon="7.9867833"><ele>187.8</ele><time>2026-04-12T09:52:19.449Z</time></trkpt><trkpt lat="44.6683467" lon="7.9867467"><ele>188.39999999999998</ele><time>2026-04-12T09:52:21.448Z</time></trkpt><trkpt lat="44.668255" lon="7.98671"><ele>189.0</ele><time>2026-04-12T09:52:23.448Z</time></trkpt><trkpt lat="44.6681517" lon="7.986715"><ele>189.0</ele><time>2026-04-12T09:52:25.448Z</time></trkpt><trkpt lat="44.6680583" lon="7.98681"><ele>189.0</ele><time>2026-04-12T09:52:27.448Z</time></trkpt><trkpt lat="44.6680167" lon="7.9868817"><ele>189.0</ele><time>2026-04-12T09:52:28.448Z</time></trkpt><trkpt lat="44.6679783" lon="7.9869567"><ele>189.0</ele><time>2026-04-12T09:52:29.448Z</time></trkpt><trkpt lat="44.6679083" lon="7.9871"><ele>189.0</ele><time>2026-04-12T09:52:31.448Z</time></trkpt><trkpt lat="44.6678367" lon="7.98723"><ele>188.6</ele><time>2026-04-12T09:52:33.448Z</time></trkpt><trkpt lat="44.6677667" lon="7.9873567"><ele>188.2</ele><time>2026-04-12T09:52:35.448Z</time></trkpt><trkpt lat="44.6676833" lon="7.987495"><ele>187.79999999999998</ele><time>2026-04-12T09:52:37.448Z</time></trkpt><trkpt lat="44.66764" lon="7.9875667"><ele>187.39999999999998</ele><time>2026-04-12T09:52:38.448Z</time></trkpt><trkpt lat="44.6676" lon="7.9876433"><ele>187.0</ele><time>2026-04-12T09:52:39.448Z</time></trkpt><trkpt lat="44.6675217" lon="7.987765"><ele>187.0</ele><time>2026-04-12T09:52:41.448Z</time></trkpt><trkpt lat="44.6674767" lon="7.9878467"><ele>187.0</ele><time>2026-04-12T09:52:42.448Z</time></trkpt><trkpt lat="44.6674333" lon="7.987925"><ele>187.0</ele><time>2026-04-12T09:52:43.448Z</time></trkpt><trkpt lat="44.6673933" lon="7.9880017"><ele>187.0</ele><time>2026-04-12T09:52:44.448Z</time></trkpt><trkpt lat="44.6673567" lon="7.98808"><ele>187.0</ele><time>2026-04-12T09:52:45.448Z</time></trkpt><trkpt lat="44.6672883" lon="7.98821"><ele>187.0</ele><time>2026-04-12T09:52:47.448Z</time></trkpt><trkpt lat="44.667215" lon="7.98834"><ele>187.39999999999998</ele><time>2026-04-12T09:52:49.448Z</time></trkpt><trkpt lat="44.6671733" lon="7.9884083"><ele>187.79999999999998</ele><time>2026-04-12T09:52:50.448Z</time></trkpt><trkpt lat="44.6670833" lon="7.9885317"><ele>188.2</ele><time>2026-04-12T09:52:52.448Z</time></trkpt><trkpt lat="44.6670217" lon="7.9886483"><ele>188.6</ele><time>2026-04-12T09:52:54.448Z</time></trkpt><trkpt lat="44.6669733" lon="7.9887483"><ele>189.0</ele><time>2026-04-12T09:52:56.448Z</time></trkpt><trkpt lat="44.66692" lon="7.98885"><ele>189.0</ele><time>2026-04-12T09:52:58.448Z</time></trkpt><trkpt lat="44.6668483" lon="7.988965"><ele>189.0</ele><time>2026-04-12T09:53:00.449Z</time></trkpt><trkpt lat="44.66678" lon="7.989075"><ele>189.0</ele><time>2026-04-12T09:53:02.448Z</time></trkpt><trkpt lat="44.666715" lon="7.9891817"><ele>189.0</ele><time>2026-04-12T09:53:04.448Z</time></trkpt><trkpt lat="44.6666433" lon="7.9892967"><ele>189.0</ele><time>2026-04-12T09:53:06.448Z</time></trkpt><trkpt lat="44.6665667" lon="7.9893983"><ele>188.79999999999998</ele><time>2026-04-12T09:53:08.448Z</time></trkpt><trkpt lat="44.6664933" lon="7.989515"><ele>188.6</ele><time>2026-04-12T09:53:10.448Z</time></trkpt><trkpt lat="44.66645" lon="7.98958"><ele>188.4</ele><time>2026-04-12T09:53:11.448Z</time></trkpt><trkpt lat="44.6664033" lon="7.9896433"><ele>188.2</ele><time>2026-04-12T09:53:12.448Z</time></trkpt><trkpt lat="44.66632" lon="7.9897533"><ele>188.0</ele><time>2026-04-12T09:53:14.448Z</time></trkpt><trkpt lat="44.666235" lon="7.98986"><ele>188.0</ele><time>2026-04-12T09:53:16.448Z</time></trkpt><trkpt lat="44.6661817" lon="7.9899167"><ele>188.0</ele><time>2026-04-12T09:53:17.448Z</time></trkpt><trkpt lat="44.666095" lon="7.990025"><ele>188.0</ele><time>2026-04-12T09:53:19.448Z</time></trkpt><trkpt lat="44.66601" lon="7.9901367"><ele>188.0</ele><time>2026-04-12T09:53:21.448Z</time></trkpt><trkpt lat="44.6659283" lon="7.9902233"><ele>188.0</ele><time>2026-04-12T09:53:23.448Z</time></trkpt><trkpt lat="44.6658517" lon="7.9902917"><ele>188.0</ele><time>2026-04-12T09:53:25.448Z</time></trkpt><trkpt lat="44.66579" lon="7.990265"><ele>188.0</ele><time>2026-04-12T09:53:27.448Z</time></trkpt><trkpt lat="44.6657217" lon="7.9901717"><ele>188.0</ele><time>2026-04-12T09:53:29.448Z</time></trkpt><trkpt lat="44.6656567" lon="7.990075"><ele>188.0</ele><time>2026-04-12T09:53:31.448Z</time></trkpt><trkpt lat="44.6655933" lon="7.989985"><ele>188.0</ele><time>2026-04-12T09:53:33.448Z</time></trkpt><trkpt lat="44.6655233" lon="7.9899133"><ele>188.0</ele><time>2026-04-12T09:53:35.448Z</time></trkpt><trkpt lat="44.66547" lon="7.9898467"><ele>188.16666666666666</ele><time>2026-04-12T09:53:37.449Z</time></trkpt><trkpt lat="44.6654133" lon="7.98976"><ele>188.33333333333331</ele><time>2026-04-12T09:53:40.448Z</time></trkpt><trkpt lat="44.6653633" lon="7.9897033"><ele>188.5</ele><time>2026-04-12T09:53:42.448Z</time></trkpt><trkpt lat="44.665305" lon="7.9896583"><ele>188.66666666666666</ele><time>2026-04-12T09:53:44.448Z</time></trkpt><trkpt lat="44.6652367" lon="7.98964"><ele>188.83333333333334</ele><time>2026-04-12T09:53:47.449Z</time></trkpt><trkpt lat="44.665185" lon="7.989575"><ele>189.0</ele><time>2026-04-12T09:53:50.448Z</time></trkpt><trkpt lat="44.665115" lon="7.9894817"><ele>189.2</ele><time>2026-04-12T09:53:52.448Z</time></trkpt><trkpt lat="44.6650317" lon="7.98939"><ele>189.39999999999998</ele><time>2026-04-12T09:53:54.448Z</time></trkpt><trkpt lat="44.6649317" lon="7.989335"><ele>189.6</ele><time>2026-04-12T09:53:56.448Z</time></trkpt><trkpt lat="44.66483" lon="7.9892567"><ele>189.8</ele><time>2026-04-12T09:53:58.448Z</time></trkpt><trkpt lat="44.6647733" lon="7.9892083"><ele>190.0</ele><time>2026-04-12T09:53:59.448Z</time></trkpt><trkpt lat="44.6647133" lon="7.989165"><ele>190.0</ele><time>2026-04-12T09:54:00.448Z</time></trkpt><trkpt lat="44.6646" lon="7.9890933"><ele>190.0</ele><time>2026-04-12T09:54:02.448Z</time></trkpt><trkpt lat="44.6645383" lon="7.98905"><ele>190.0</ele><time>2026-04-12T09:54:03.448Z</time></trkpt><trkpt lat="44.6644767" lon="7.9890117"><ele>190.0</ele><time>2026-04-12T09:54:04.448Z</time></trkpt><trkpt lat="44.6644167" lon="7.9889717"><ele>190.0</ele><time>2026-04-12T09:54:05.448Z</time></trkpt><trkpt lat="44.664305" lon="7.9889017"><ele>190.0</ele><time>2026-04-12T09:54:07.448Z</time></trkpt><trkpt lat="44.664195" lon="7.9888417"><ele>190.6</ele><time>2026-04-12T09:54:09.448Z</time></trkpt><trkpt lat="44.6640883" lon="7.9887833"><ele>191.2</ele><time>2026-04-12T09:54:11.448Z</time></trkpt><trkpt lat="44.6639883" lon="7.9887083"><ele>191.8</ele><time>2026-04-12T09:54:13.448Z</time></trkpt><trkpt lat="44.6638967" lon="7.988625"><ele>192.4</ele><time>2026-04-12T09:54:15.448Z</time></trkpt><trkpt lat="44.66381" lon="7.98854"><ele>193.0</ele><time>2026-04-12T09:54:17.448Z</time></trkpt><trkpt lat="44.6637283" lon="7.9884433"><ele>193.0</ele><time>2026-04-12T09:54:19.448Z</time></trkpt><trkpt lat="44.6636526" lon="7.9883467"><ele>193.0</ele><time>2026-04-12T09:54:21.448Z</time></trkpt><trkpt lat="44.6635825" lon="7.9882504"><ele>193.0</ele><time>2026-04-12T09:54:23.448Z</time></trkpt><trkpt lat="44.6635095" lon="7.9881636"><ele>193.0</ele><time>2026-04-12T09:54:25.448Z</time></trkpt><trkpt lat="44.6634397" lon="7.9880937"><ele>193.0</ele><time>2026-04-12T09:54:27.448Z</time></trkpt><trkpt lat="44.663375" lon="7.9880183"><ele>192.83333333333331</ele><time>2026-04-12T09:54:29.448Z</time></trkpt><trkpt lat="44.663335" lon="7.98791"><ele>192.66666666666666</ele><time>2026-04-12T09:54:31.448Z</time></trkpt><trkpt lat="44.6633017" lon="7.987805"><ele>192.5</ele><time>2026-04-12T09:54:33.448Z</time></trkpt><trkpt lat="44.6632483" lon="7.9877367"><ele>192.33333333333331</ele><time>2026-04-12T09:54:36.448Z</time></trkpt><trkpt lat="44.6631683" lon="7.9878217"><ele>192.16666666666666</ele><time>2026-04-12T09:54:39.448Z</time></trkpt><trkpt lat="44.6631017" lon="7.9879"><ele>192.0</ele><time>2026-04-12T09:54:41.448Z</time></trkpt><trkpt lat="44.6630433" lon="7.987985"><ele>192.0</ele><time>2026-04-12T09:54:43.448Z</time></trkpt><trkpt lat="44.66298" lon="7.9880817"><ele>192.0</ele><time>2026-04-12T09:54:45.448Z</time></trkpt><trkpt lat="44.6629133" lon="7.9881683"><ele>192.0</ele><time>2026-04-12T09:54:47.448Z</time></trkpt><trkpt lat="44.662835" lon="7.9882717"><ele>192.0</ele><time>2026-04-12T09:54:49.448Z</time></trkpt><trkpt lat="44.6627617" lon="7.988385"><ele>192.0</ele><time>2026-04-12T09:54:51.448Z</time></trkpt><trkpt lat="44.6626683" lon="7.9884967"><ele>192.25</ele><time>2026-04-12T09:54:53.448Z</time></trkpt><trkpt lat="44.6625867" lon="7.9886"><ele>192.5</ele><time>2026-04-12T09:54:55.448Z</time></trkpt><trkpt lat="44.6625017" lon="7.9886967"><ele>192.75</ele><time>2026-04-12T09:54:57.448Z</time></trkpt><trkpt lat="44.66242" lon="7.98881"><ele>193.0</ele><time>2026-04-12T09:54:59.448Z</time></trkpt><trkpt lat="44.6623317" lon="7.988925"><ele>192.99999999999997</ele><time>2026-04-12T09:55:01.448Z</time></trkpt><trkpt lat="44.66229" lon="7.988995"><ele>193.0</ele><time>2026-04-12T09:55:02.448Z</time></trkpt><trkpt lat="44.6622017" lon="7.9891117"><ele>193.0</ele><time>2026-04-12T09:55:04.448Z</time></trkpt><trkpt lat="44.6621567" lon="7.989175"><ele>193.0</ele><time>2026-04-12T09:55:05.448Z</time></trkpt><trkpt lat="44.6621133" lon="7.9892417"><ele>192.99999999999997</ele><time>2026-04-12T09:55:06.448Z</time></trkpt><trkpt lat="44.662035" lon="7.989355"><ele>193.0</ele><time>2026-04-12T09:55:08.448Z</time></trkpt><trkpt lat="44.6619617" lon="7.989465"><ele>193.2</ele><time>2026-04-12T09:55:10.448Z</time></trkpt><trkpt lat="44.6618833" lon="7.9895767"><ele>193.4</ele><time>2026-04-12T09:55:12.448Z</time></trkpt><trkpt lat="44.6617933" lon="7.9896833"><ele>193.6</ele><time>2026-04-12T09:55:14.448Z</time></trkpt><trkpt lat="44.6617183" lon="7.9897767"><ele>193.79999999999998</ele><time>2026-04-12T09:55:16.448Z</time></trkpt><trkpt lat="44.6616467" lon="7.9898717"><ele>194.0</ele><time>2026-04-12T09:55:18.448Z</time></trkpt><trkpt lat="44.6615667" lon="7.989975"><ele>193.75</ele><time>2026-04-12T09:55:20.448Z</time></trkpt><trkpt lat="44.6614867" lon="7.990085"><ele>193.5</ele><time>2026-04-12T09:55:22.448Z</time></trkpt><trkpt lat="44.661395" lon="7.9901933"><ele>193.25</ele><time>2026-04-12T09:55:24.448Z</time></trkpt><trkpt lat="44.66131" lon="7.9903017"><ele>193.0</ele><time>2026-04-12T09:55:26.448Z</time></trkpt><trkpt lat="44.66122" lon="7.990405"><ele>193.0</ele><time>2026-04-12T09:55:28.448Z</time></trkpt><trkpt lat="44.6611333" lon="7.990505"><ele>193.0</ele><time>2026-04-12T09:55:30.448Z</time></trkpt><trkpt lat="44.661045" lon="7.9906067"><ele>193.0</ele><time>2026-04-12T09:55:32.448Z</time></trkpt><trkpt lat="44.6609583" lon="7.9907133"><ele>193.0</ele><time>2026-04-12T09:55:34.448Z</time></trkpt><trkpt lat="44.6608733" lon="7.9908217"><ele>193.60000000000002</ele><time>2026-04-12T09:55:36.448Z</time></trkpt><trkpt lat="44.6607733" lon="7.9909267"><ele>194.20000000000002</ele><time>2026-04-12T09:55:38.448Z</time></trkpt><trkpt lat="44.66067" lon="7.9910267"><ele>194.8</ele><time>2026-04-12T09:55:40.448Z</time></trkpt><trkpt lat="44.66058" lon="7.9911317"><ele>195.4</ele><time>2026-04-12T09:55:42.448Z</time></trkpt><trkpt lat="44.6605317" lon="7.9911917"><ele>196.0</ele><time>2026-04-12T09:55:43.448Z</time></trkpt><trkpt lat="44.66044" lon="7.9913033"><ele>196.0</ele><time>2026-04-12T09:55:45.448Z</time></trkpt><trkpt lat="44.6603467" lon="7.9914"><ele>196.0</ele><time>2026-04-12T09:55:47.448Z</time></trkpt><trkpt lat="44.6602533" lon="7.99149"><ele>196.0</ele><time>2026-04-12T09:55:49.448Z</time></trkpt><trkpt lat="44.6601533" lon="7.9915667"><ele>196.0</ele><time>2026-04-12T09:55:51.448Z</time></trkpt><trkpt lat="44.6600667" lon="7.9916183"><ele>196.0</ele><time>2026-04-12T09:55:53.448Z</time></trkpt><trkpt lat="44.659965" lon="7.9916667"><ele>196.60000000000002</ele><time>2026-04-12T09:55:55.448Z</time></trkpt><trkpt lat="44.6598633" lon="7.9917183"><ele>197.2</ele><time>2026-04-12T09:55:57.448Z</time></trkpt><trkpt lat="44.6597633" lon="7.99176"><ele>197.8</ele><time>2026-04-12T09:55:59.448Z</time></trkpt><trkpt lat="44.6596667" lon="7.9918067"><ele>198.39999999999998</ele><time>2026-04-12T09:56:01.448Z</time></trkpt><trkpt lat="44.65957" lon="7.9918533"><ele>199.0</ele><time>2026-04-12T09:56:03.448Z</time></trkpt><trkpt lat="44.6594733" lon="7.99191"><ele>199.79999999999998</ele><time>2026-04-12T09:56:05.448Z</time></trkpt><trkpt lat="44.6593867" lon="7.99197"><ele>200.6</ele><time>2026-04-12T09:56:07.448Z</time></trkpt><trkpt lat="44.65928" lon="7.99201"><ele>201.4</ele><time>2026-04-12T09:56:09.448Z</time></trkpt><trkpt lat="44.6591717" lon="7.992025"><ele>202.2</ele><time>2026-04-12T09:56:11.448Z</time></trkpt><trkpt lat="44.659055" lon="7.9920233"><ele>203.0</ele><time>2026-04-12T09:56:13.448Z</time></trkpt><trkpt lat="44.6589467" lon="7.9920317"><ele>203.0</ele><time>2026-04-12T09:56:15.448Z</time></trkpt><trkpt lat="44.6588367" lon="7.9920317"><ele>203.0</ele><time>2026-04-12T09:56:17.448Z</time></trkpt><trkpt lat="44.65873" lon="7.992015"><ele>203.0</ele><time>2026-04-12T09:56:19.448Z</time></trkpt><trkpt lat="44.6586133" lon="7.9920017"><ele>203.0</ele><time>2026-04-12T09:56:21.448Z</time></trkpt><trkpt lat="44.6585017" lon="7.9919767"><ele>203.0</ele><time>2026-04-12T09:56:23.448Z</time></trkpt><trkpt lat="44.6584017" lon="7.9919633"><ele>203.2</ele><time>2026-04-12T09:56:25.448Z</time></trkpt><trkpt lat="44.6583" lon="7.9919417"><ele>203.4</ele><time>2026-04-12T09:56:27.448Z</time></trkpt><trkpt lat="44.6582033" lon="7.9919217"><ele>203.6</ele><time>2026-04-12T09:56:29.447Z</time></trkpt><trkpt lat="44.6581033" lon="7.9919183"><ele>203.79999999999998</ele><time>2026-04-12T09:56:31.447Z</time></trkpt><trkpt lat="44.6579917" lon="7.9919133"><ele>204.0</ele><time>2026-04-12T09:56:33.447Z</time></trkpt><trkpt lat="44.6578983" lon="7.99192"><ele>204.0</ele><time>2026-04-12T09:56:35.447Z</time></trkpt><trkpt lat="44.6578033" lon="7.9919433"><ele>204.0</ele><time>2026-04-12T09:56:37.447Z</time></trkpt><trkpt lat="44.6577067" lon="7.991985"><ele>204.0</ele><time>2026-04-12T09:56:39.447Z</time></trkpt><trkpt lat="44.657615" lon="7.99204"><ele>204.0</ele><time>2026-04-12T09:56:41.447Z</time></trkpt><trkpt lat="44.65752" lon="7.9920883"><ele>204.0</ele><time>2026-04-12T09:56:43.447Z</time></trkpt><trkpt lat="44.6574383" lon="7.99215"><ele>204.2</ele><time>2026-04-12T09:56:45.447Z</time></trkpt><trkpt lat="44.6573567" lon="7.9922033"><ele>204.39999999999998</ele><time>2026-04-12T09:56:47.447Z</time></trkpt><trkpt lat="44.6572783" lon="7.9922567"><ele>204.6</ele><time>2026-04-12T09:56:49.447Z</time></trkpt><trkpt lat="44.6571883" lon="7.9923183"><ele>204.8</ele><time>2026-04-12T09:56:51.447Z</time></trkpt><trkpt lat="44.6570933" lon="7.992385"><ele>205.0</ele><time>2026-04-12T09:56:53.447Z</time></trkpt><trkpt lat="44.6570017" lon="7.9924767"><ele>206.4</ele><time>2026-04-12T09:56:55.447Z</time></trkpt><trkpt lat="44.6569283" lon="7.9925767"><ele>207.8</ele><time>2026-04-12T09:56:57.447Z</time></trkpt><trkpt lat="44.65685" lon="7.9926883"><ele>209.2</ele><time>2026-04-12T09:56:59.448Z</time></trkpt><trkpt lat="44.6567867" lon="7.9928017"><ele>210.6</ele><time>2026-04-12T09:57:01.447Z</time></trkpt><trkpt lat="44.6567233" lon="7.9929117"><ele>212.0</ele><time>2026-04-12T09:57:03.447Z</time></trkpt><trkpt lat="44.656665" lon="7.9930167"><ele>212.0</ele><time>2026-04-12T09:57:05.447Z</time></trkpt><trkpt lat="44.6566067" lon="7.9931217"><ele>212.0</ele><time>2026-04-12T09:57:07.447Z</time></trkpt><trkpt lat="44.65654" lon="7.9932317"><ele>212.0</ele><time>2026-04-12T09:57:09.447Z</time></trkpt><trkpt lat="44.6564717" lon="7.9933467"><ele>212.0</ele><time>2026-04-12T09:57:11.447Z</time></trkpt><trkpt lat="44.6563983" lon="7.9934467"><ele>212.0</ele><time>2026-04-12T09:57:13.447Z</time></trkpt><trkpt lat="44.656325" lon="7.9935267"><ele>212.2857142857143</ele><time>2026-04-12T09:57:15.447Z</time></trkpt><trkpt lat="44.65626" lon="7.9935983"><ele>212.57142857142856</ele><time>2026-04-12T09:57:17.447Z</time></trkpt><trkpt lat="44.6561967" lon="7.9936833"><ele>212.85714285714286</ele><time>2026-04-12T09:57:19.447Z</time></trkpt><trkpt lat="44.6561433" lon="7.9937317"><ele>213.14285714285717</ele><time>2026-04-12T09:57:21.447Z</time></trkpt><trkpt lat="44.6560783" lon="7.993785"><ele>213.42857142857144</ele><time>2026-04-12T09:57:23.447Z</time></trkpt><trkpt lat="44.6560167" lon="7.9938283"><ele>213.71428571428572</ele><time>2026-04-12T09:57:25.447Z</time></trkpt><trkpt lat="44.6559633" lon="7.9938867"><ele>214.0</ele><time>2026-04-12T09:57:27.447Z</time></trkpt><trkpt lat="44.6559033" lon="7.9939467"><ele>214.33333333333331</ele><time>2026-04-12T09:57:29.447Z</time></trkpt><trkpt lat="44.655835" lon="7.99402"><ele>214.66666666666666</ele><time>2026-04-12T09:57:31.447Z</time></trkpt><trkpt lat="44.6557767" lon="7.9940983"><ele>215.0</ele><time>2026-04-12T09:57:33.447Z</time></trkpt><trkpt lat="44.6557117" lon="7.9941917"><ele>215.33333333333331</ele><time>2026-04-12T09:57:35.447Z</time></trkpt><trkpt lat="44.6556567" lon="7.994275"><ele>215.66666666666666</ele><time>2026-04-12T09:57:37.447Z</time></trkpt><trkpt lat="44.655605" lon="7.9943617"><ele>216.0</ele><time>2026-04-12T09:57:39.447Z</time></trkpt><trkpt lat="44.65554" lon="7.9944467"><ele>216.28571428571428</ele><time>2026-04-12T09:57:41.447Z</time></trkpt><trkpt lat="44.65549" lon="7.9945317"><ele>216.57142857142856</ele><time>2026-04-12T09:57:43.448Z</time></trkpt><trkpt lat="44.6554367" lon="7.99461"><ele>216.85714285714286</ele><time>2026-04-12T09:57:45.447Z</time></trkpt><trkpt lat="44.6553833" lon="7.9946917"><ele>217.14285714285714</ele><time>2026-04-12T09:57:47.447Z</time></trkpt><trkpt lat="44.6553317" lon="7.9947717"><ele>217.42857142857144</ele><time>2026-04-12T09:57:49.447Z</time></trkpt><trkpt lat="44.6552883" lon="7.9948467"><ele>217.71428571428572</ele><time>2026-04-12T09:57:51.447Z</time></trkpt><trkpt lat="44.6552383" lon="7.99491"><ele>218.0</ele><time>2026-04-12T09:57:53.447Z</time></trkpt><trkpt lat="44.655165" lon="7.9949717"><ele>219.83333333333334</ele><time>2026-04-12T09:57:56.447Z</time></trkpt><trkpt lat="44.6550783" lon="7.995015"><ele>221.66666666666669</ele><time>2026-04-12T09:57:59.447Z</time></trkpt><trkpt lat="44.6550133" lon="7.9950517"><ele>223.5</ele><time>2026-04-12T09:58:02.447Z</time></trkpt><trkpt lat="44.65495" lon="7.9950783"><ele>225.33333333333331</ele><time>2026-04-12T09:58:05.447Z</time></trkpt><trkpt lat="44.654875" lon="7.99509"><ele>227.16666666666666</ele><time>2026-04-12T09:58:08.447Z</time></trkpt><trkpt lat="44.6548083" lon="7.995125"><ele>229.0</ele><time>2026-04-12T09:58:11.447Z</time></trkpt><trkpt lat="44.6547367" lon="7.995175"><ele>229.0</ele><time>2026-04-12T09:58:15.447Z</time></trkpt><trkpt lat="44.6546867" lon="7.99523"><ele>229.0</ele><time>2026-04-12T09:58:18.447Z</time></trkpt><trkpt lat="44.654645" lon="7.9953267"><ele>229.0</ele><time>2026-04-12T09:58:22.447Z</time></trkpt><trkpt lat="44.6546" lon="7.9954033"><ele>229.0</ele><time>2026-04-12T09:58:26.447Z</time></trkpt><trkpt lat="44.6545617" lon="7.9954933"><ele>229.0</ele><time>2026-04-12T09:58:30.447Z</time></trkpt><trkpt lat="44.6545333" lon="7.99559"><ele>229.0</ele><time>2026-04-12T09:58:34.447Z</time></trkpt><trkpt lat="44.6545267" lon="7.99569"><ele>229.0</ele><time>2026-04-12T09:58:39.447Z</time></trkpt><trkpt lat="44.6545317" lon="7.9957783"><ele>230.85714285714283</ele><time>2026-04-12T09:58:44.447Z</time></trkpt><trkpt lat="44.6545367" lon="7.9958817"><ele>232.71428571428572</ele><time>2026-04-12T09:58:49.447Z</time></trkpt><trkpt lat="44.6545417" lon="7.995975"><ele>234.57142857142856</ele><time>2026-04-12T09:58:53.447Z</time></trkpt><trkpt lat="44.654555" lon="7.9960767"><ele>236.42857142857142</ele><time>2026-04-12T09:58:57.447Z</time></trkpt><trkpt lat="44.6545633" lon="7.9961783"><ele>238.28571428571428</ele><time>2026-04-12T09:59:01.447Z</time></trkpt><trkpt lat="44.65455" lon="7.9962783"><ele>240.14285714285714</ele><time>2026-04-12T09:59:04.447Z</time></trkpt><trkpt lat="44.6545183" lon="7.99636"><ele>242.0</ele><time>2026-04-12T09:59:08.447Z</time></trkpt><trkpt lat="44.6544767" lon="7.9964283"><ele>243.85714285714283</ele><time>2026-04-12T09:59:12.447Z</time></trkpt><trkpt lat="44.65441" lon="7.9964583"><ele>245.7142857142857</ele><time>2026-04-12T09:59:18.447Z</time></trkpt><trkpt lat="44.6543367" lon="7.9964267"><ele>247.57142857142856</ele><time>2026-04-12T09:59:24.447Z</time></trkpt><trkpt lat="44.654275" lon="7.9963467"><ele>249.42857142857144</ele><time>2026-04-12T09:59:29.447Z</time></trkpt><trkpt lat="44.654235" lon="7.996275"><ele>251.2857142857143</ele><time>2026-04-12T09:59:32.447Z</time></trkpt><trkpt lat="44.6541783" lon="7.9962217"><ele>253.14285714285717</ele><time>2026-04-12T09:59:36.447Z</time></trkpt><trkpt lat="44.6541183" lon="7.99619"><ele>255.0</ele><time>2026-04-12T09:59:40.447Z</time></trkpt><trkpt lat="44.6540583" lon="7.9961433"><ele>255.0</ele><time>2026-04-12T09:59:45.447Z</time></trkpt><trkpt lat="44.6540167" lon="7.9960633"><ele>255.0</ele><time>2026-04-12T09:59:49.448Z</time></trkpt><trkpt lat="44.653945" lon="7.9960033"><ele>255.0</ele><time>2026-04-12T09:59:52.447Z</time></trkpt><trkpt lat="44.6539017" lon="7.9959283"><ele>255.0</ele><time>2026-04-12T09:59:55.447Z</time></trkpt><trkpt lat="44.6538983" lon="7.9957817"><ele>255.0</ele><time>2026-04-12T09:59:58.447Z</time></trkpt><trkpt lat="44.653915" lon="7.9956617"><ele>255.0</ele><time>2026-04-12T10:00:01.447Z</time></trkpt><trkpt lat="44.653925" lon="7.9955483"><ele>254.5</ele><time>2026-04-12T10:00:04.447Z</time></trkpt><trkpt lat="44.6539433" lon="7.995455"><ele>254.0</ele><time>2026-04-12T10:00:07.447Z</time></trkpt><trkpt lat="44.6539283" lon="7.9953417"><ele>253.5</ele><time>2026-04-12T10:00:10.447Z</time></trkpt><trkpt lat="44.653895" lon="7.9952583"><ele>253.0</ele><time>2026-04-12T10:00:12.448Z</time></trkpt><trkpt lat="44.6538483" lon="7.995175"><ele>252.5</ele><time>2026-04-12T10:00:14.447Z</time></trkpt><trkpt lat="44.653815" lon="7.99506"><ele>252.0</ele><time>2026-04-12T10:00:17.447Z</time></trkpt><trkpt lat="44.653775" lon="7.9949517"><ele>251.16666666666666</ele><time>2026-04-12T10:00:20.447Z</time></trkpt><trkpt lat="44.6537383" lon="7.99483"><ele>250.33333333333331</ele><time>2026-04-12T10:00:23.447Z</time></trkpt><trkpt lat="44.6536967" lon="7.9947533"><ele>249.5</ele><time>2026-04-12T10:00:25.447Z</time></trkpt><trkpt lat="44.6536233" lon="7.99478"><ele>248.66666666666666</ele><time>2026-04-12T10:00:28.447Z</time></trkpt><trkpt lat="44.6535883" lon="7.9949"><ele>247.83333333333331</ele><time>2026-04-12T10:00:31.447Z</time></trkpt><trkpt lat="44.6535617" lon="7.9950033"><ele>247.0</ele><time>2026-04-12T10:00:34.447Z</time></trkpt><trkpt lat="44.653545" lon="7.9950917"><ele>249.0</ele><time>2026-04-12T10:00:37.447Z</time></trkpt><trkpt lat="44.6534983" lon="7.9951917"><ele>251.0</ele><time>2026-04-12T10:00:40.447Z</time></trkpt><trkpt lat="44.65346" lon="7.9952833"><ele>253.0</ele><time>2026-04-12T10:00:43.447Z</time></trkpt><trkpt lat="44.6534317" lon="7.9953833"><ele>255.0</ele><time>2026-04-12T10:00:46.447Z</time></trkpt><trkpt lat="44.6533633" lon="7.9954217"><ele>257.0</ele><time>2026-04-12T10:00:51.448Z</time></trkpt><trkpt lat="44.653295" lon="7.995405"><ele>259.0</ele><time>2026-04-12T10:00:55.447Z</time></trkpt><trkpt lat="44.65323" lon="7.9954067"><ele>261.0</ele><time>2026-04-12T10:01:00.447Z</time></trkpt><trkpt lat="44.653295" lon="7.9954467"><ele>261.0</ele><time>2026-04-12T10:01:08.447Z</time></trkpt><trkpt lat="44.6533383" lon="7.9955567"><ele>261.0</ele><time>2026-04-12T10:01:29.447Z</time></trkpt><trkpt lat="44.653245" lon="7.9956067"><ele>261.0</ele><time>2026-04-12T10:01:32.447Z</time></trkpt><trkpt lat="44.6531533" lon="7.9956167"><ele>261.0</ele><time>2026-04-12T10:01:34.447Z</time></trkpt><trkpt lat="44.653055" lon="7.9956083"><ele>261.0</ele><time>2026-04-12T10:01:36.447Z</time></trkpt><trkpt lat="44.65299" lon="7.995595"><ele>261.0</ele><time>2026-04-12T10:01:37.447Z</time></trkpt><trkpt lat="44.6529217" lon="7.995575"><ele>261.0</ele><time>2026-04-12T10:01:38.447Z</time></trkpt><trkpt lat="44.6528133" lon="7.9955517"><ele>261.0</ele><time>2026-04-12T10:01:40.447Z</time></trkpt><trkpt lat="44.6527183" lon="7.9955467"><ele>261.0</ele><time>2026-04-12T10:01:42.447Z</time></trkpt><trkpt lat="44.65264" lon="7.9955567"><ele>261.0</ele><time>2026-04-12T10:01:44.447Z</time></trkpt><trkpt lat="44.6525683" lon="7.9955617"><ele>261.0</ele><time>2026-04-12T10:01:46.447Z</time></trkpt><trkpt lat="44.6524867" lon="7.9955533"><ele>261.0</ele><time>2026-04-12T10:01:48.447Z</time></trkpt><trkpt lat="44.6524033" lon="7.99551"><ele>261.0</ele><time>2026-04-12T10:01:51.448Z</time></trkpt><trkpt lat="44.6523617" lon="7.9954267"><ele>261.0</ele><time>2026-04-12T10:01:53.447Z</time></trkpt><trkpt lat="44.6523317" lon="7.9953033"><ele>261.0</ele><time>2026-04-12T10:01:55.447Z</time></trkpt><trkpt lat="44.6523033" lon="7.9951767"><ele>261.0</ele><time>2026-04-12T10:01:57.447Z</time></trkpt><trkpt lat="44.652295" lon="7.99505"><ele>261.0</ele><time>2026-04-12T10:01:59.447Z</time></trkpt><trkpt lat="44.6523017" lon="7.9949183"><ele>261.0</ele><time>2026-04-12T10:02:01.447Z</time></trkpt><trkpt lat="44.652315" lon="7.9948033"><ele>261.0</ele><time>2026-04-12T10:02:03.448Z</time></trkpt><trkpt lat="44.6523367" lon="7.9946717"><ele>261.0</ele><time>2026-04-12T10:02:05.447Z</time></trkpt><trkpt lat="44.6523717" lon="7.9945217"><ele>261.0</ele><time>2026-04-12T10:02:07.447Z</time></trkpt><trkpt lat="44.6524033" lon="7.9943983"><ele>261.0</ele><time>2026-04-12T10:02:09.447Z</time></trkpt><trkpt lat="44.65244" lon="7.99427"><ele>261.0</ele><time>2026-04-12T10:02:11.447Z</time></trkpt><trkpt lat="44.6524967" lon="7.99413"><ele>259.5</ele><time>2026-04-12T10:02:13.447Z</time></trkpt><trkpt lat="44.6525533" lon="7.9940017"><ele>258.0</ele><time>2026-04-12T10:02:15.447Z</time></trkpt><trkpt lat="44.6526133" lon="7.9938867"><ele>256.5</ele><time>2026-04-12T10:02:17.447Z</time></trkpt><trkpt lat="44.65269" lon="7.99375"><ele>255.0</ele><time>2026-04-12T10:02:19.447Z</time></trkpt><trkpt lat="44.6527533" lon="7.9936083"><ele>255.66666666666666</ele><time>2026-04-12T10:02:21.447Z</time></trkpt><trkpt lat="44.6528133" lon="7.993475"><ele>256.3333333333333</ele><time>2026-04-12T10:02:23.447Z</time></trkpt><trkpt lat="44.6528667" lon="7.99336"><ele>257.0</ele><time>2026-04-12T10:02:25.447Z</time></trkpt><trkpt lat="44.6528533" lon="7.9932667"><ele>257.66666666666663</ele><time>2026-04-12T10:02:28.447Z</time></trkpt><trkpt lat="44.652785" lon="7.9932383"><ele>258.3333333333333</ele><time>2026-04-12T10:02:30.447Z</time></trkpt><trkpt lat="44.6527217" lon="7.993215"><ele>259.0</ele><time>2026-04-12T10:02:32.447Z</time></trkpt><trkpt lat="44.6526583" lon="7.993175"><ele>256.8333333333333</ele><time>2026-04-12T10:02:35.447Z</time></trkpt><trkpt lat="44.6525917" lon="7.9931183"><ele>254.66666666666666</ele><time>2026-04-12T10:02:38.447Z</time></trkpt><trkpt lat="44.6525483" lon="7.9930483"><ele>252.5</ele><time>2026-04-12T10:02:40.447Z</time></trkpt><trkpt lat="44.6525133" lon="7.9929483"><ele>250.33333333333331</ele><time>2026-04-12T10:02:42.447Z</time></trkpt><trkpt lat="44.6524567" lon="7.9928017"><ele>248.16666666666666</ele><time>2026-04-12T10:02:44.447Z</time></trkpt><trkpt lat="44.6524067" lon="7.9927383"><ele>246.0</ele><time>2026-04-12T10:02:45.447Z</time></trkpt><trkpt lat="44.6523467" lon="7.99269"><ele>246.0</ele><time>2026-04-12T10:02:46.447Z</time></trkpt><trkpt lat="44.6522833" lon="7.9926517"><ele>246.0</ele><time>2026-04-12T10:02:47.447Z</time></trkpt><trkpt lat="44.6522183" lon="7.9926133"><ele>246.0</ele><time>2026-04-12T10:02:48.447Z</time></trkpt><trkpt lat="44.652155" lon="7.9925717"><ele>246.0</ele><time>2026-04-12T10:02:49.447Z</time></trkpt><trkpt lat="44.652095" lon="7.9925367"><ele>246.0</ele><time>2026-04-12T10:02:50.447Z</time></trkpt><trkpt lat="44.65199" lon="7.9924783"><ele>246.0</ele><time>2026-04-12T10:02:52.448Z</time></trkpt><trkpt lat="44.6518883" lon="7.992425"><ele>241.16666666666666</ele><time>2026-04-12T10:02:54.447Z</time></trkpt><trkpt lat="44.6518283" lon="7.9923883"><ele>236.33333333333331</ele><time>2026-04-12T10:02:55.447Z</time></trkpt><trkpt lat="44.6517617" lon="7.9923517"><ele>231.5</ele><time>2026-04-12T10:02:56.447Z</time></trkpt><trkpt lat="44.6516917" lon="7.99231"><ele>226.66666666666666</ele><time>2026-04-12T10:02:57.447Z</time></trkpt><trkpt lat="44.6516167" lon="7.992265"><ele>221.83333333333331</ele><time>2026-04-12T10:02:58.447Z</time></trkpt><trkpt lat="44.6515467" lon="7.9922217"><ele>217.0</ele><time>2026-04-12T10:02:59.447Z</time></trkpt><trkpt lat="44.65147" lon="7.99217"><ele>217.0</ele><time>2026-04-12T10:03:00.447Z</time></trkpt><trkpt lat="44.651385" lon="7.9921117"><ele>217.0</ele><time>2026-04-12T10:03:01.447Z</time></trkpt><trkpt lat="44.6512983" lon="7.9920517"><ele>217.0</ele><time>2026-04-12T10:03:02.448Z</time></trkpt><trkpt lat="44.651215" lon="7.9919817"><ele>217.0</ele><time>2026-04-12T10:03:03.447Z</time></trkpt><trkpt lat="44.6511333" lon="7.991915"><ele>217.0</ele><time>2026-04-12T10:03:04.447Z</time></trkpt><trkpt lat="44.6510667" lon="7.9918417"><ele>214.99999999999997</ele><time>2026-04-12T10:03:05.447Z</time></trkpt><trkpt lat="44.6510117" lon="7.99177"><ele>213.0</ele><time>2026-04-12T10:03:06.447Z</time></trkpt><trkpt lat="44.6509517" lon="7.9917083"><ele>211.0</ele><time>2026-04-12T10:03:07.447Z</time></trkpt><trkpt lat="44.6508817" lon="7.99164"><ele>209.0</ele><time>2026-04-12T10:03:09.447Z</time></trkpt><trkpt lat="44.65083" lon="7.99158"><ele>206.99999999999997</ele><time>2026-04-12T10:03:13.447Z</time></trkpt><trkpt lat="44.6507567" lon="7.991615"><ele>205.0</ele><time>2026-04-12T10:03:16.447Z</time></trkpt><trkpt lat="44.650705" lon="7.9917233"><ele>205.0</ele><time>2026-04-12T10:03:18.447Z</time></trkpt><trkpt lat="44.6506433" lon="7.9918433"><ele>205.0</ele><time>2026-04-12T10:03:20.447Z</time></trkpt><trkpt lat="44.6505617" lon="7.99197"><ele>205.0</ele><time>2026-04-12T10:03:22.447Z</time></trkpt><trkpt lat="44.650475" lon="7.992105"><ele>205.0</ele><time>2026-04-12T10:03:24.448Z</time></trkpt><trkpt lat="44.6504283" lon="7.9921767"><ele>205.0</ele><time>2026-04-12T10:03:25.447Z</time></trkpt><trkpt lat="44.6503817" lon="7.9922517"><ele>204.99999999999997</ele><time>2026-04-12T10:03:26.447Z</time></trkpt><trkpt lat="44.65034" lon="7.99233"><ele>205.0</ele><time>2026-04-12T10:03:27.447Z</time></trkpt><trkpt lat="44.6502617" lon="7.9924717"><ele>205.0</ele><time>2026-04-12T10:03:29.447Z</time></trkpt><trkpt lat="44.6502183" lon="7.992545"><ele>205.0</ele><time>2026-04-12T10:03:30.447Z</time></trkpt><trkpt lat="44.650175" lon="7.99262"><ele>204.99999999999997</ele><time>2026-04-12T10:03:31.447Z</time></trkpt><trkpt lat="44.65013" lon="7.992695"><ele>205.0</ele><time>2026-04-12T10:03:32.447Z</time></trkpt><trkpt lat="44.65009" lon="7.99277"><ele>204.8</ele><time>2026-04-12T10:03:33.447Z</time></trkpt><trkpt lat="44.65005" lon="7.9928417"><ele>204.6</ele><time>2026-04-12T10:03:34.447Z</time></trkpt><trkpt lat="44.6499733" lon="7.9929783"><ele>204.39999999999998</ele><time>2026-04-12T10:03:36.447Z</time></trkpt><trkpt lat="44.649905" lon="7.9931117"><ele>204.2</ele><time>2026-04-12T10:03:38.447Z</time></trkpt><trkpt lat="44.64983" lon="7.993245"><ele>204.0</ele><time>2026-04-12T10:03:40.447Z</time></trkpt><trkpt lat="44.6497867" lon="7.99332"><ele>204.14285714285714</ele><time>2026-04-12T10:03:41.447Z</time></trkpt><trkpt lat="44.649745" lon="7.9934"><ele>204.28571428571428</ele><time>2026-04-12T10:03:42.447Z</time></trkpt><trkpt lat="44.6497033" lon="7.9934733"><ele>204.42857142857144</ele><time>2026-04-12T10:03:43.447Z</time></trkpt><trkpt lat="44.649655" lon="7.9935483"><ele>204.57142857142856</ele><time>2026-04-12T10:03:44.447Z</time></trkpt><trkpt lat="44.6496083" lon="7.9936233"><ele>204.7142857142857</ele><time>2026-04-12T10:03:45.447Z</time></trkpt><trkpt lat="44.6495583" lon="7.9936883"><ele>204.85714285714286</ele><time>2026-04-12T10:03:46.447Z</time></trkpt><trkpt lat="44.6495167" lon="7.9937633"><ele>205.0</ele><time>2026-04-12T10:03:47.447Z</time></trkpt><trkpt lat="44.649475" lon="7.99384"><ele>205.0</ele><time>2026-04-12T10:03:48.447Z</time></trkpt><trkpt lat="44.6494367" lon="7.9939117"><ele>205.0</ele><time>2026-04-12T10:03:49.447Z</time></trkpt><trkpt lat="44.6493967" lon="7.9939817"><ele>205.0</ele><time>2026-04-12T10:03:50.447Z</time></trkpt><trkpt lat="44.649355" lon="7.9940483"><ele>205.0</ele><time>2026-04-12T10:03:51.447Z</time></trkpt><trkpt lat="44.6493183" lon="7.9941217"><ele>205.0</ele><time>2026-04-12T10:03:52.447Z</time></trkpt><trkpt lat="44.6492783" lon="7.9941933"><ele>205.0</ele><time>2026-04-12T10:03:53.447Z</time></trkpt><trkpt lat="44.6492033" lon="7.9943283"><ele>205.0</ele><time>2026-04-12T10:03:55.447Z</time></trkpt><trkpt lat="44.6491167" lon="7.9944617"><ele>206.71428571428572</ele><time>2026-04-12T10:03:57.447Z</time></trkpt><trkpt lat="44.6490683" lon="7.994525"><ele>208.42857142857142</ele><time>2026-04-12T10:03:58.447Z</time></trkpt><trkpt lat="44.6490133" lon="7.994585"><ele>210.14285714285714</ele><time>2026-04-12T10:03:59.447Z</time></trkpt><trkpt lat="44.6489517" lon="7.9946367"><ele>211.85714285714286</ele><time>2026-04-12T10:04:00.448Z</time></trkpt><trkpt lat="44.64889" lon="7.9946817"><ele>213.57142857142856</ele><time>2026-04-12T10:04:01.447Z</time></trkpt><trkpt lat="44.64883" lon="7.9947283"><ele>215.28571428571428</ele><time>2026-04-12T10:04:02.447Z</time></trkpt><trkpt lat="44.6487633" lon="7.9947683"><ele>217.0</ele><time>2026-04-12T10:04:03.447Z</time></trkpt><trkpt lat="44.6486933" lon="7.9947917"><ele>217.0</ele><time>2026-04-12T10:04:04.448Z</time></trkpt><trkpt lat="44.6486267" lon="7.99481"><ele>217.0</ele><time>2026-04-12T10:04:05.447Z</time></trkpt><trkpt lat="44.64856" lon="7.9948167"><ele>217.0</ele><time>2026-04-12T10:04:06.447Z</time></trkpt><trkpt lat="44.64849" lon="7.9948367"><ele>217.0</ele><time>2026-04-12T10:04:07.447Z</time></trkpt><trkpt lat="44.64842" lon="7.9948533"><ele>217.0</ele><time>2026-04-12T10:04:08.447Z</time></trkpt><trkpt lat="44.64835" lon="7.9948633"><ele>217.0</ele><time>2026-04-12T10:04:09.447Z</time></trkpt><trkpt lat="44.6482817" lon="7.9948833"><ele>217.0</ele><time>2026-04-12T10:04:10.447Z</time></trkpt><trkpt lat="44.6482083" lon="7.9949083"><ele>216.71428571428572</ele><time>2026-04-12T10:04:11.447Z</time></trkpt><trkpt lat="44.6481433" lon="7.994935"><ele>216.42857142857144</ele><time>2026-04-12T10:04:12.447Z</time></trkpt><trkpt lat="44.64808" lon="7.99497"><ele>216.14285714285714</ele><time>2026-04-12T10:04:13.447Z</time></trkpt><trkpt lat="44.6480167" lon="7.9950117"><ele>215.85714285714286</ele><time>2026-04-12T10:04:14.447Z</time></trkpt><trkpt lat="44.647955" lon="7.9950583"><ele>215.57142857142858</ele><time>2026-04-12T10:04:15.447Z</time></trkpt><trkpt lat="44.6478983" lon="7.99511"><ele>215.28571428571428</ele><time>2026-04-12T10:04:16.447Z</time></trkpt><trkpt lat="44.6478417" lon="7.99516"><ele>215.0</ele><time>2026-04-12T10:04:17.447Z</time></trkpt><trkpt lat="44.64779" lon="7.995215"><ele>213.6</ele><time>2026-04-12T10:04:18.447Z</time></trkpt><trkpt lat="44.6477383" lon="7.9952667"><ele>212.2</ele><time>2026-04-12T10:04:19.447Z</time></trkpt><trkpt lat="44.6476467" lon="7.99536"><ele>210.8</ele><time>2026-04-12T10:04:21.447Z</time></trkpt><trkpt lat="44.647565" lon="7.9954567"><ele>209.4</ele><time>2026-04-12T10:04:23.447Z</time></trkpt><trkpt lat="44.6474833" lon="7.99555"><ele>208.0</ele><time>2026-04-12T10:04:25.448Z</time></trkpt><trkpt lat="44.647405" lon="7.9956417"><ele>208.0</ele><time>2026-04-12T10:04:27.447Z</time></trkpt><trkpt lat="44.64733" lon="7.9957283"><ele>208.0</ele><time>2026-04-12T10:04:29.447Z</time></trkpt><trkpt lat="44.6472567" lon="7.99582"><ele>208.0</ele><time>2026-04-12T10:04:31.447Z</time></trkpt><trkpt lat="44.64718" lon="7.9959033"><ele>208.0</ele><time>2026-04-12T10:04:33.447Z</time></trkpt><trkpt lat="44.64711" lon="7.99596"><ele>208.0</ele><time>2026-04-12T10:04:35.447Z</time></trkpt><trkpt lat="44.6470167" lon="7.9959083"><ele>208.16666666666666</ele><time>2026-04-12T10:04:38.447Z</time></trkpt><trkpt lat="44.64694" lon="7.9957683"><ele>208.33333333333331</ele><time>2026-04-12T10:04:40.447Z</time></trkpt><trkpt lat="44.6468933" lon="7.9956933"><ele>208.5</ele><time>2026-04-12T10:04:41.447Z</time></trkpt><trkpt lat="44.646845" lon="7.9956083"><ele>208.66666666666669</ele><time>2026-04-12T10:04:42.447Z</time></trkpt><trkpt lat="44.6468" lon="7.9955233"><ele>208.83333333333334</ele><time>2026-04-12T10:04:43.447Z</time></trkpt><trkpt lat="44.6467583" lon="7.9954283"><ele>209.0</ele><time>2026-04-12T10:04:44.447Z</time></trkpt><trkpt lat="44.6467167" lon="7.9953333"><ele>209.00000000000003</ele><time>2026-04-12T10:04:45.447Z</time></trkpt><trkpt lat="44.6466683" lon="7.9952417"><ele>209.0</ele><time>2026-04-12T10:04:46.447Z</time></trkpt><trkpt lat="44.6466183" lon="7.995155"><ele>209.0</ele><time>2026-04-12T10:04:47.447Z</time></trkpt><trkpt lat="44.6465717" lon="7.9950733"><ele>209.0</ele><time>2026-04-12T10:04:48.447Z</time></trkpt><trkpt lat="44.646525" lon="7.994985"><ele>209.00000000000003</ele><time>2026-04-12T10:04:49.447Z</time></trkpt><trkpt lat="44.6464783" lon="7.9949017"><ele>209.0</ele><time>2026-04-12T10:04:50.447Z</time></trkpt><trkpt lat="44.6464367" lon="7.9948217"><ele>208.42857142857142</ele><time>2026-04-12T10:04:51.447Z</time></trkpt><trkpt lat="44.6463883" lon="7.9947367"><ele>207.85714285714283</ele><time>2026-04-12T10:04:52.447Z</time></trkpt><trkpt lat="44.6463367" lon="7.9946483"><ele>207.28571428571428</ele><time>2026-04-12T10:04:53.447Z</time></trkpt><trkpt lat="44.646295" lon="7.9945667"><ele>206.71428571428572</ele><time>2026-04-12T10:04:54.447Z</time></trkpt><trkpt lat="44.6462517" lon="7.9944833"><ele>206.14285714285714</ele><time>2026-04-12T10:04:55.447Z</time></trkpt><trkpt lat="44.6462067" lon="7.9944"><ele>205.57142857142858</ele><time>2026-04-12T10:04:56.447Z</time></trkpt><trkpt lat="44.6461683" lon="7.9943283"><ele>205.0</ele><time>2026-04-12T10:04:57.447Z</time></trkpt><trkpt lat="44.6460983" lon="7.9942033"><ele>204.75</ele><time>2026-04-12T10:04:59.447Z</time></trkpt><trkpt lat="44.6460317" lon="7.9940583"><ele>204.5</ele><time>2026-04-12T10:05:01.447Z</time></trkpt><trkpt lat="44.645975" lon="7.9939217"><ele>204.25</ele><time>2026-04-12T10:05:03.447Z</time></trkpt><trkpt lat="44.6459183" lon="7.99377"><ele>204.0</ele><time>2026-04-12T10:05:05.447Z</time></trkpt><trkpt lat="44.6458483" lon="7.9936283"><ele>204.0</ele><time>2026-04-12T10:05:07.447Z</time></trkpt><trkpt lat="44.6457983" lon="7.9935383"><ele>204.0</ele><time>2026-04-12T10:05:08.447Z</time></trkpt><trkpt lat="44.645745" lon="7.9934533"><ele>204.0</ele><time>2026-04-12T10:05:09.447Z</time></trkpt><trkpt lat="44.64569" lon="7.9933633"><ele>204.0</ele><time>2026-04-12T10:05:10.447Z</time></trkpt><trkpt lat="44.6456283" lon="7.9932683"><ele>204.0</ele><time>2026-04-12T10:05:11.447Z</time></trkpt><trkpt lat="44.6455833" lon="7.993185"><ele>204.0</ele><time>2026-04-12T10:05:12.447Z</time></trkpt><trkpt lat="44.6455383" lon="7.9931017"><ele>203.79999999999998</ele><time>2026-04-12T10:05:13.447Z</time></trkpt><trkpt lat="44.6454983" lon="7.993015"><ele>203.6</ele><time>2026-04-12T10:05:14.447Z</time></trkpt><trkpt lat="44.6454567" lon="7.9929317"><ele>203.4</ele><time>2026-04-12T10:05:15.447Z</time></trkpt><trkpt lat="44.6454183" lon="7.9928483"><ele>203.2</ele><time>2026-04-12T10:05:16.447Z</time></trkpt><trkpt lat="44.6453483" lon="7.992705"><ele>203.0</ele><time>2026-04-12T10:05:18.448Z</time></trkpt><trkpt lat="44.64527" lon="7.9925867"><ele>203.00000000000003</ele><time>2026-04-12T10:05:20.447Z</time></trkpt><trkpt lat="44.6451967" lon="7.99245"><ele>203.0</ele><time>2026-04-12T10:05:22.447Z</time></trkpt><trkpt lat="44.6451567" lon="7.992375"><ele>203.0</ele><time>2026-04-12T10:05:23.447Z</time></trkpt><trkpt lat="44.645115" lon="7.9923"><ele>203.0</ele><time>2026-04-12T10:05:24.447Z</time></trkpt><trkpt lat="44.64507" lon="7.9922233"><ele>203.00000000000003</ele><time>2026-04-12T10:05:25.447Z</time></trkpt><trkpt lat="44.64502" lon="7.9921517"><ele>203.0</ele><time>2026-04-12T10:05:26.447Z</time></trkpt><trkpt lat="44.6449717" lon="7.9920767"><ele>203.00000000000003</ele><time>2026-04-12T10:05:27.447Z</time></trkpt><trkpt lat="44.644925" lon="7.9920017"><ele>203.0</ele><time>2026-04-12T10:05:28.447Z</time></trkpt><trkpt lat="44.6448817" lon="7.99193"><ele>203.0</ele><time>2026-04-12T10:05:29.447Z</time></trkpt><trkpt lat="44.644835" lon="7.9917967"><ele>203.0</ele><time>2026-04-12T10:05:31.447Z</time></trkpt><trkpt lat="44.6448533" lon="7.9916767"><ele>203.00000000000003</ele><time>2026-04-12T10:05:33.447Z</time></trkpt><trkpt lat="44.64493" lon="7.9915867"><ele>203.0</ele><time>2026-04-12T10:05:35.447Z</time></trkpt><trkpt lat="44.64501" lon="7.9914917"><ele>203.2</ele><time>2026-04-12T10:05:37.447Z</time></trkpt><trkpt lat="44.6450867" lon="7.9913683"><ele>203.4</ele><time>2026-04-12T10:05:39.448Z</time></trkpt><trkpt lat="44.645155" lon="7.9912367"><ele>203.6</ele><time>2026-04-12T10:05:41.447Z</time></trkpt><trkpt lat="44.6452167" lon="7.991115"><ele>203.79999999999998</ele><time>2026-04-12T10:05:43.447Z</time></trkpt><trkpt lat="44.6452767" lon="7.9909867"><ele>204.0</ele><time>2026-04-12T10:05:45.447Z</time></trkpt><trkpt lat="44.6453267" lon="7.99084"><ele>203.5</ele><time>2026-04-12T10:05:47.447Z</time></trkpt><trkpt lat="44.6453767" lon="7.9907"><ele>203.0</ele><time>2026-04-12T10:05:49.447Z</time></trkpt><trkpt lat="44.64542" lon="7.9905583"><ele>202.5</ele><time>2026-04-12T10:05:51.447Z</time></trkpt><trkpt lat="44.64547" lon="7.9904117"><ele>202.0</ele><time>2026-04-12T10:05:53.447Z</time></trkpt><trkpt lat="44.645515" lon="7.9902567"><ele>202.0</ele><time>2026-04-12T10:05:55.448Z</time></trkpt><trkpt lat="44.6455417" lon="7.9901717"><ele>202.0</ele><time>2026-04-12T10:05:56.447Z</time></trkpt><trkpt lat="44.6455683" lon="7.9900883"><ele>202.0</ele><time>2026-04-12T10:05:57.447Z</time></trkpt><trkpt lat="44.6456167" lon="7.9899433"><ele>202.0</ele><time>2026-04-12T10:05:59.447Z</time></trkpt><trkpt lat="44.645665" lon="7.9897933"><ele>202.0</ele><time>2026-04-12T10:06:01.448Z</time></trkpt><trkpt lat="44.6457067" lon="7.9896433"><ele>202.16666666666666</ele><time>2026-04-12T10:06:03.447Z</time></trkpt><trkpt lat="44.6457267" lon="7.9895583"><ele>202.33333333333331</ele><time>2026-04-12T10:06:04.447Z</time></trkpt><trkpt lat="44.6457583" lon="7.98948"><ele>202.5</ele><time>2026-04-12T10:06:05.447Z</time></trkpt><trkpt lat="44.64579" lon="7.989395"><ele>202.66666666666669</ele><time>2026-04-12T10:06:06.447Z</time></trkpt><trkpt lat="44.6458167" lon="7.9893117"><ele>202.83333333333334</ele><time>2026-04-12T10:06:07.447Z</time></trkpt><trkpt lat="44.645845" lon="7.9892317"><ele>203.0</ele><time>2026-04-12T10:06:08.447Z</time></trkpt><trkpt lat="44.64588" lon="7.9890583"><ele>202.71428571428572</ele><time>2026-04-12T10:06:10.448Z</time></trkpt><trkpt lat="44.6458983" lon="7.98897"><ele>202.42857142857144</ele><time>2026-04-12T10:06:11.447Z</time></trkpt><trkpt lat="44.6459167" lon="7.988885"><ele>202.14285714285714</ele><time>2026-04-12T10:06:12.447Z</time></trkpt><trkpt lat="44.6459367" lon="7.9887867"><ele>201.85714285714286</ele><time>2026-04-12T10:06:13.448Z</time></trkpt><trkpt lat="44.6459533" lon="7.98869"><ele>201.57142857142858</ele><time>2026-04-12T10:06:14.447Z</time></trkpt><trkpt lat="44.6459717" lon="7.9885917"><ele>201.28571428571428</ele><time>2026-04-12T10:06:15.447Z</time></trkpt><trkpt lat="44.6459883" lon="7.9884867"><ele>201.0</ele><time>2026-04-12T10:06:16.447Z</time></trkpt><trkpt lat="44.646015" lon="7.9883833"><ele>201.16666666666666</ele><time>2026-04-12T10:06:17.447Z</time></trkpt><trkpt lat="44.6460367" lon="7.9882817"><ele>201.33333333333331</ele><time>2026-04-12T10:06:18.447Z</time></trkpt><trkpt lat="44.6460583" lon="7.98818"><ele>201.5</ele><time>2026-04-12T10:06:19.447Z</time></trkpt><trkpt lat="44.64608" lon="7.988075"><ele>201.66666666666666</ele><time>2026-04-12T10:06:20.447Z</time></trkpt><trkpt lat="44.6461" lon="7.987975"><ele>201.83333333333331</ele><time>2026-04-12T10:06:21.447Z</time></trkpt><trkpt lat="44.6461233" lon="7.9878733"><ele>202.0</ele><time>2026-04-12T10:06:22.447Z</time></trkpt><trkpt lat="44.646145" lon="7.9877733"><ele>201.66666666666666</ele><time>2026-04-12T10:06:23.448Z</time></trkpt><trkpt lat="44.6461633" lon="7.9876767"><ele>201.33333333333331</ele><time>2026-04-12T10:06:24.447Z</time></trkpt><trkpt lat="44.6461833" lon="7.98757"><ele>201.0</ele><time>2026-04-12T10:06:25.447Z</time></trkpt><trkpt lat="44.6462067" lon="7.9874667"><ele>200.66666666666669</ele><time>2026-04-12T10:06:26.447Z</time></trkpt><trkpt lat="44.6462317" lon="7.9873617"><ele>200.33333333333334</ele><time>2026-04-12T10:06:27.447Z</time></trkpt><trkpt lat="44.64626" lon="7.98726"><ele>200.0</ele><time>2026-04-12T10:06:28.447Z</time></trkpt><trkpt lat="44.6462867" lon="7.9871517"><ele>200.00000000000003</ele><time>2026-04-12T10:06:29.447Z</time></trkpt><trkpt lat="44.6463167" lon="7.9870417"><ele>200.0</ele><time>2026-04-12T10:06:30.447Z</time></trkpt><trkpt lat="44.646345" lon="7.986945"><ele>200.0</ele><time>2026-04-12T10:06:31.447Z</time></trkpt><trkpt lat="44.64637" lon="7.98684"><ele>200.0</ele><time>2026-04-12T10:06:32.447Z</time></trkpt><trkpt lat="44.6464" lon="7.9867367"><ele>200.00000000000003</ele><time>2026-04-12T10:06:33.447Z</time></trkpt><trkpt lat="44.646425" lon="7.9866333"><ele>200.0</ele><time>2026-04-12T10:06:34.447Z</time></trkpt><trkpt lat="44.64645" lon="7.9865283"><ele>200.16666666666669</ele><time>2026-04-12T10:06:35.447Z</time></trkpt><trkpt lat="44.64648" lon="7.9864283"><ele>200.33333333333334</ele><time>2026-04-12T10:06:36.447Z</time></trkpt><trkpt lat="44.6465083" lon="7.9863317"><ele>200.5</ele><time>2026-04-12T10:06:37.447Z</time></trkpt><trkpt lat="44.646535" lon="7.9862317"><ele>200.66666666666669</ele><time>2026-04-12T10:06:38.447Z</time></trkpt><trkpt lat="44.64656" lon="7.9861283"><ele>200.83333333333334</ele><time>2026-04-12T10:06:39.447Z</time></trkpt><trkpt lat="44.6465817" lon="7.9860283"><ele>201.0</ele><time>2026-04-12T10:06:40.447Z</time></trkpt><trkpt lat="44.646605" lon="7.9859283"><ele>200.83333333333334</ele><time>2026-04-12T10:06:41.447Z</time></trkpt><trkpt lat="44.6466333" lon="7.9858267"><ele>200.66666666666669</ele><time>2026-04-12T10:06:42.447Z</time></trkpt><trkpt lat="44.6466583" lon="7.9857267"><ele>200.5</ele><time>2026-04-12T10:06:43.447Z</time></trkpt><trkpt lat="44.64669" lon="7.98563"><ele>200.33333333333334</ele><time>2026-04-12T10:06:44.447Z</time></trkpt><trkpt lat="44.64672" lon="7.985525"><ele>200.16666666666669</ele><time>2026-04-12T10:06:45.447Z</time></trkpt><trkpt lat="44.64675" lon="7.985425"><ele>200.0</ele><time>2026-04-12T10:06:46.447Z</time></trkpt><trkpt lat="44.6467733" lon="7.9853217"><ele>200.00000000000003</ele><time>2026-04-12T10:06:47.447Z</time></trkpt><trkpt lat="44.6467967" lon="7.9852233"><ele>200.0</ele><time>2026-04-12T10:06:48.447Z</time></trkpt><trkpt lat="44.6468183" lon="7.985115"><ele>200.0</ele><time>2026-04-12T10:06:49.447Z</time></trkpt><trkpt lat="44.6468433" lon="7.9850167"><ele>200.0</ele><time>2026-04-12T10:06:50.447Z</time></trkpt><trkpt lat="44.6468667" lon="7.984915"><ele>200.00000000000003</ele><time>2026-04-12T10:06:51.447Z</time></trkpt><trkpt lat="44.646895" lon="7.9848183"><ele>200.0</ele><time>2026-04-12T10:06:52.447Z</time></trkpt><trkpt lat="44.64692" lon="7.9847183"><ele>200.00000000000003</ele><time>2026-04-12T10:06:53.448Z</time></trkpt><trkpt lat="44.6469433" lon="7.984615"><ele>200.0</ele><time>2026-04-12T10:06:54.447Z</time></trkpt><trkpt lat="44.6469717" lon="7.98452"><ele>200.0</ele><time>2026-04-12T10:06:55.447Z</time></trkpt><trkpt lat="44.6469933" lon="7.9844317"><ele>200.0</ele><time>2026-04-12T10:06:56.447Z</time></trkpt><trkpt lat="44.647015" lon="7.98434"><ele>200.0</ele><time>2026-04-12T10:06:57.447Z</time></trkpt><trkpt lat="44.64704" lon="7.98425"><ele>200.00000000000003</ele><time>2026-04-12T10:06:58.447Z</time></trkpt><trkpt lat="44.6470583" lon="7.9841617"><ele>200.0</ele><time>2026-04-12T10:06:59.447Z</time></trkpt><trkpt lat="44.6470833" lon="7.9840683"><ele>199.66666666666669</ele><time>2026-04-12T10:07:00.447Z</time></trkpt><trkpt lat="44.647105" lon="7.9839683"><ele>199.33333333333334</ele><time>2026-04-12T10:07:01.447Z</time></trkpt><trkpt lat="44.6471267" lon="7.9838617"><ele>199.0</ele><time>2026-04-12T10:07:02.447Z</time></trkpt><trkpt lat="44.6471533" lon="7.98376"><ele>198.66666666666669</ele><time>2026-04-12T10:07:03.447Z</time></trkpt><trkpt lat="44.64718" lon="7.98366"><ele>198.33333333333334</ele><time>2026-04-12T10:07:04.447Z</time></trkpt><trkpt lat="44.6472067" lon="7.98356"><ele>198.0</ele><time>2026-04-12T10:07:05.447Z</time></trkpt><trkpt lat="44.647235" lon="7.98346"><ele>198.0</ele><time>2026-04-12T10:07:06.447Z</time></trkpt><trkpt lat="44.64726" lon="7.983355"><ele>198.0</ele><time>2026-04-12T10:07:07.447Z</time></trkpt><trkpt lat="44.6472867" lon="7.983255"><ele>198.0</ele><time>2026-04-12T10:07:08.447Z</time></trkpt><trkpt lat="44.6473133" lon="7.9831567"><ele>198.0</ele><time>2026-04-12T10:07:09.447Z</time></trkpt><trkpt lat="44.6473417" lon="7.9830617"><ele>198.0</ele><time>2026-04-12T10:07:10.447Z</time></trkpt><trkpt lat="44.6473733" lon="7.982965"><ele>198.0</ele><time>2026-04-12T10:07:11.447Z</time></trkpt><trkpt lat="44.6474017" lon="7.982875"><ele>198.0</ele><time>2026-04-12T10:07:12.447Z</time></trkpt><trkpt lat="44.647435" lon="7.982785"><ele>198.16666666666666</ele><time>2026-04-12T10:07:13.448Z</time></trkpt><trkpt lat="44.6474667" lon="7.982695"><ele>198.33333333333331</ele><time>2026-04-12T10:07:14.447Z</time></trkpt><trkpt lat="44.647495" lon="7.9826"><ele>198.5</ele><time>2026-04-12T10:07:15.448Z</time></trkpt><trkpt lat="44.6475233" lon="7.982505"><ele>198.66666666666666</ele><time>2026-04-12T10:07:16.447Z</time></trkpt><trkpt lat="44.6475567" lon="7.9824033"><ele>198.83333333333331</ele><time>2026-04-12T10:07:17.447Z</time></trkpt><trkpt lat="44.6475883" lon="7.9823017"><ele>199.0</ele><time>2026-04-12T10:07:18.447Z</time></trkpt><trkpt lat="44.64762" lon="7.9822033"><ele>198.99999999999997</ele><time>2026-04-12T10:07:19.447Z</time></trkpt><trkpt lat="44.647655" lon="7.9821083"><ele>199.0</ele><time>2026-04-12T10:07:20.447Z</time></trkpt><trkpt lat="44.647685" lon="7.9820167"><ele>199.0</ele><time>2026-04-12T10:07:21.447Z</time></trkpt><trkpt lat="44.6477183" lon="7.981925"><ele>199.0</ele><time>2026-04-12T10:07:22.447Z</time></trkpt><trkpt lat="44.6477533" lon="7.9818317"><ele>198.99999999999997</ele><time>2026-04-12T10:07:23.447Z</time></trkpt><trkpt lat="44.6477883" lon="7.9817383"><ele>199.0</ele><time>2026-04-12T10:07:24.447Z</time></trkpt><trkpt lat="44.647855" lon="7.9815867"><ele>198.99999999999997</ele><time>2026-04-12T10:07:26.447Z</time></trkpt><trkpt lat="44.647895" lon="7.9814267"><ele>199.0</ele><time>2026-04-12T10:07:28.447Z</time></trkpt><trkpt lat="44.6479183" lon="7.98134"><ele>199.0</ele><time>2026-04-12T10:07:29.447Z</time></trkpt><trkpt lat="44.6479367" lon="7.981255"><ele>199.0</ele><time>2026-04-12T10:07:30.447Z</time></trkpt><trkpt lat="44.64798" lon="7.9810867"><ele>198.99999999999997</ele><time>2026-04-12T10:07:32.447Z</time></trkpt><trkpt lat="44.6480067" lon="7.9809983"><ele>199.0</ele><time>2026-04-12T10:07:33.447Z</time></trkpt><trkpt lat="44.64803" lon="7.980915"><ele>199.2</ele><time>2026-04-12T10:07:34.447Z</time></trkpt><trkpt lat="44.64806" lon="7.9807633"><ele>199.39999999999998</ele><time>2026-04-12T10:07:36.447Z</time></trkpt><trkpt lat="44.648055" lon="7.9806283"><ele>199.6</ele><time>2026-04-12T10:07:38.447Z</time></trkpt><trkpt lat="44.64802" lon="7.9805017"><ele>199.8</ele><time>2026-04-12T10:07:40.447Z</time></trkpt><trkpt lat="44.6479917" lon="7.9803417"><ele>200.0</ele><time>2026-04-12T10:07:42.447Z</time></trkpt><trkpt lat="44.6479717" lon="7.9801817"><ele>200.00000000000003</ele><time>2026-04-12T10:07:44.447Z</time></trkpt><trkpt lat="44.6479733" lon="7.9800317"><ele>200.0</ele><time>2026-04-12T10:07:46.447Z</time></trkpt><trkpt lat="44.6479783" lon="7.9799417"><ele>200.0</ele><time>2026-04-12T10:07:47.447Z</time></trkpt><trkpt lat="44.647975" lon="7.97985"><ele>200.0</ele><time>2026-04-12T10:07:48.447Z</time></trkpt><trkpt lat="44.6479667" lon="7.9797533"><ele>200.00000000000003</ele><time>2026-04-12T10:07:49.447Z</time></trkpt><trkpt lat="44.6479733" lon="7.9795883"><ele>200.0</ele><time>2026-04-12T10:07:51.447Z</time></trkpt><trkpt lat="44.6479867" lon="7.9794267"><ele>199.66666666666669</ele><time>2026-04-12T10:07:53.447Z</time></trkpt><trkpt lat="44.648005" lon="7.9792767"><ele>199.33333333333334</ele><time>2026-04-12T10:07:55.447Z</time></trkpt><trkpt lat="44.6480367" lon="7.9791567"><ele>199.0</ele><time>2026-04-12T10:07:57.447Z</time></trkpt><trkpt lat="44.6480767" lon="7.9790717"><ele>198.66666666666669</ele><time>2026-04-12T10:07:59.447Z</time></trkpt><trkpt lat="44.6480917" lon="7.9789783"><ele>198.33333333333334</ele><time>2026-04-12T10:08:02.447Z</time></trkpt><trkpt lat="44.6480633" lon="7.9788667"><ele>198.0</ele><time>2026-04-12T10:09:00.446Z</time></trkpt><trkpt lat="44.647975" lon="7.9788033"><ele>198.0</ele><time>2026-04-12T10:09:03.446Z</time></trkpt><trkpt lat="44.6478933" lon="7.9787617"><ele>198.0</ele><time>2026-04-12T10:09:05.446Z</time></trkpt><trkpt lat="44.6477983" lon="7.9787233"><ele>198.0</ele><time>2026-04-12T10:09:07.446Z</time></trkpt><trkpt lat="44.647695" lon="7.9786917"><ele>198.0</ele><time>2026-04-12T10:09:09.446Z</time></trkpt><trkpt lat="44.6475883" lon="7.9786517"><ele>198.0</ele><time>2026-04-12T10:09:11.446Z</time></trkpt><trkpt lat="44.64749" lon="7.9786117"><ele>198.2</ele><time>2026-04-12T10:09:13.446Z</time></trkpt><trkpt lat="44.6473783" lon="7.9785633"><ele>198.4</ele><time>2026-04-12T10:09:15.446Z</time></trkpt><trkpt lat="44.6472567" lon="7.9785167"><ele>198.6</ele><time>2026-04-12T10:09:17.446Z</time></trkpt><trkpt lat="44.647145" lon="7.9784383"><ele>198.79999999999998</ele><time>2026-04-12T10:09:19.446Z</time></trkpt><trkpt lat="44.647085" lon="7.9783933"><ele>199.0</ele><time>2026-04-12T10:09:20.446Z</time></trkpt><trkpt lat="44.64703" lon="7.9783433"><ele>199.2</ele><time>2026-04-12T10:09:21.446Z</time></trkpt><trkpt lat="44.6469517" lon="7.9782"><ele>199.39999999999998</ele><time>2026-04-12T10:09:23.446Z</time></trkpt><trkpt lat="44.6469233" lon="7.97812"><ele>199.6</ele><time>2026-04-12T10:09:24.446Z</time></trkpt><trkpt lat="44.6468917" lon="7.97804"><ele>199.8</ele><time>2026-04-12T10:09:25.446Z</time></trkpt><trkpt lat="44.6468167" lon="7.9779183"><ele>200.0</ele><time>2026-04-12T10:09:27.446Z</time></trkpt><trkpt lat="44.6467067" lon="7.9778667"><ele>200.0</ele><time>2026-04-12T10:09:29.446Z</time></trkpt><trkpt lat="44.6466083" lon="7.97795"><ele>200.0</ele><time>2026-04-12T10:09:31.446Z</time></trkpt><trkpt lat="44.6465267" lon="7.9780783"><ele>200.0</ele><time>2026-04-12T10:09:33.446Z</time></trkpt><trkpt lat="44.6464483" lon="7.978205"><ele>200.0</ele><time>2026-04-12T10:09:35.446Z</time></trkpt><trkpt lat="44.6463467" lon="7.9782767"><ele>200.0</ele><time>2026-04-12T10:09:37.446Z</time></trkpt><trkpt lat="44.6462483" lon="7.97832"><ele>200.0</ele><time>2026-04-12T10:09:39.446Z</time></trkpt><trkpt lat="44.6461467" lon="7.9783683"><ele>200.0</ele><time>2026-04-12T10:09:41.446Z</time></trkpt><trkpt lat="44.6460333" lon="7.9784233"><ele>200.0</ele><time>2026-04-12T10:09:43.446Z</time></trkpt><trkpt lat="44.6459767" lon="7.9784717"><ele>200.0</ele><time>2026-04-12T10:09:44.446Z</time></trkpt><trkpt lat="44.64587" lon="7.9785383"><ele>201.8</ele><time>2026-04-12T10:09:46.446Z</time></trkpt><trkpt lat="44.6457617" lon="7.978585"><ele>203.6</ele><time>2026-04-12T10:09:48.446Z</time></trkpt><trkpt lat="44.6456633" lon="7.9786417"><ele>205.39999999999998</ele><time>2026-04-12T10:09:50.446Z</time></trkpt><trkpt lat="44.6455633" lon="7.97869"><ele>207.2</ele><time>2026-04-12T10:09:52.446Z</time></trkpt><trkpt lat="44.6454683" lon="7.978745"><ele>209.0</ele><time>2026-04-12T10:09:54.446Z</time></trkpt><trkpt lat="44.6453817" lon="7.978785"><ele>208.2</ele><time>2026-04-12T10:09:56.446Z</time></trkpt><trkpt lat="44.6452917" lon="7.97882"><ele>207.39999999999998</ele><time>2026-04-12T10:09:58.446Z</time></trkpt><trkpt lat="44.6452033" lon="7.9788617"><ele>206.6</ele><time>2026-04-12T10:10:00.446Z</time></trkpt><trkpt lat="44.6451217" lon="7.9789033"><ele>205.8</ele><time>2026-04-12T10:10:02.446Z</time></trkpt><trkpt lat="44.6450333" lon="7.978945"><ele>205.0</ele><time>2026-04-12T10:10:04.446Z</time></trkpt><trkpt lat="44.644945" lon="7.9789933"><ele>205.0</ele><time>2026-04-12T10:10:06.446Z</time></trkpt><trkpt lat="44.6448433" lon="7.9790467"><ele>205.0</ele><time>2026-04-12T10:10:08.446Z</time></trkpt><trkpt lat="44.64474" lon="7.9791117"><ele>205.0</ele><time>2026-04-12T10:10:10.446Z</time></trkpt><trkpt lat="44.64463" lon="7.9791633"><ele>205.0</ele><time>2026-04-12T10:10:12.446Z</time></trkpt><trkpt lat="44.6445233" lon="7.979225"><ele>206.4</ele><time>2026-04-12T10:10:14.446Z</time></trkpt><trkpt lat="44.6444183" lon="7.979285"><ele>207.8</ele><time>2026-04-12T10:10:16.446Z</time></trkpt><trkpt lat="44.6443167" lon="7.9793417"><ele>209.2</ele><time>2026-04-12T10:10:18.446Z</time></trkpt><trkpt lat="44.6442333" lon="7.9794"><ele>210.6</ele><time>2026-04-12T10:10:20.446Z</time></trkpt><trkpt lat="44.6441417" lon="7.979495"><ele>212.0</ele><time>2026-04-12T10:10:22.446Z</time></trkpt><trkpt lat="44.644045" lon="7.9795967"><ele>212.00000000000003</ele><time>2026-04-12T10:10:24.446Z</time></trkpt><trkpt lat="44.6439483" lon="7.97971"><ele>212.0</ele><time>2026-04-12T10:10:26.446Z</time></trkpt><trkpt lat="44.6438517" lon="7.9798217"><ele>212.0</ele><time>2026-04-12T10:10:28.446Z</time></trkpt><trkpt lat="44.6438017" lon="7.9798783"><ele>212.0</ele><time>2026-04-12T10:10:29.446Z</time></trkpt><trkpt lat="44.6437517" lon="7.979935"><ele>212.00000000000003</ele><time>2026-04-12T10:10:30.446Z</time></trkpt><trkpt lat="44.6436983" lon="7.9799867"><ele>212.0</ele><time>2026-04-12T10:10:31.446Z</time></trkpt><trkpt lat="44.6436083" lon="7.9801"><ele>211.39999999999998</ele><time>2026-04-12T10:10:33.446Z</time></trkpt><trkpt lat="44.64352" lon="7.9802117"><ele>210.79999999999998</ele><time>2026-04-12T10:10:35.446Z</time></trkpt><trkpt lat="44.64347" lon="7.9802667"><ele>210.2</ele><time>2026-04-12T10:10:36.446Z</time></trkpt><trkpt lat="44.643375" lon="7.98038"><ele>209.6</ele><time>2026-04-12T10:10:38.446Z</time></trkpt><trkpt lat="44.6432817" lon="7.9804933"><ele>209.0</ele><time>2026-04-12T10:10:40.446Z</time></trkpt><trkpt lat="44.6431917" lon="7.9806"><ele>209.00000000000003</ele><time>2026-04-12T10:10:42.446Z</time></trkpt><trkpt lat="44.643085" lon="7.9807067"><ele>209.0</ele><time>2026-04-12T10:10:44.446Z</time></trkpt><trkpt lat="44.6430283" lon="7.9807617"><ele>209.0</ele><time>2026-04-12T10:10:45.446Z</time></trkpt><trkpt lat="44.6429733" lon="7.9808117"><ele>209.0</ele><time>2026-04-12T10:10:46.446Z</time></trkpt><trkpt lat="44.6429133" lon="7.9808533"><ele>209.00000000000003</ele><time>2026-04-12T10:10:47.446Z</time></trkpt><trkpt lat="44.642855" lon="7.9808983"><ele>209.0</ele><time>2026-04-12T10:10:48.446Z</time></trkpt><trkpt lat="44.6428" lon="7.9809417"><ele>209.00000000000003</ele><time>2026-04-12T10:10:49.446Z</time></trkpt><trkpt lat="44.6426867" lon="7.9810183"><ele>209.0</ele><time>2026-04-12T10:10:51.446Z</time></trkpt><trkpt lat="44.64263" lon="7.98106"><ele>209.0</ele><time>2026-04-12T10:10:52.446Z</time></trkpt><trkpt lat="44.64257" lon="7.9811017"><ele>209.0</ele><time>2026-04-12T10:10:53.446Z</time></trkpt><trkpt lat="44.64251" lon="7.9811433"><ele>209.00000000000003</ele><time>2026-04-12T10:10:54.446Z</time></trkpt><trkpt lat="44.6424533" lon="7.9811883"><ele>209.0</ele><time>2026-04-12T10:10:55.446Z</time></trkpt><trkpt lat="44.6424" lon="7.9812383"><ele>209.0</ele><time>2026-04-12T10:10:56.446Z</time></trkpt><trkpt lat="44.6423483" lon="7.9812983"><ele>209.0</ele><time>2026-04-12T10:10:57.446Z</time></trkpt><trkpt lat="44.6422967" lon="7.9813583"><ele>209.0</ele><time>2026-04-12T10:10:58.446Z</time></trkpt><trkpt lat="44.6422483" lon="7.98142"><ele>209.0</ele><time>2026-04-12T10:10:59.447Z</time></trkpt><trkpt lat="44.6421967" lon="7.981485"><ele>209.0</ele><time>2026-04-12T10:11:00.446Z</time></trkpt><trkpt lat="44.6421467" lon="7.9815517"><ele>209.0</ele><time>2026-04-12T10:11:01.446Z</time></trkpt><trkpt lat="44.6420933" lon="7.9816167"><ele>209.0</ele><time>2026-04-12T10:11:02.446Z</time></trkpt><trkpt lat="44.6420367" lon="7.981675"><ele>209.0</ele><time>2026-04-12T10:11:03.446Z</time></trkpt><trkpt lat="44.6419867" lon="7.9817367"><ele>209.0</ele><time>2026-04-12T10:11:04.446Z</time></trkpt><trkpt lat="44.64193" lon="7.98179"><ele>209.0</ele><time>2026-04-12T10:11:05.446Z</time></trkpt><trkpt lat="44.6418733" lon="7.9818367"><ele>209.0</ele><time>2026-04-12T10:11:06.446Z</time></trkpt><trkpt lat="44.641815" lon="7.9818817"><ele>209.0</ele><time>2026-04-12T10:11:07.446Z</time></trkpt><trkpt lat="44.6417533" lon="7.9819267"><ele>209.0</ele><time>2026-04-12T10:11:08.446Z</time></trkpt><trkpt lat="44.64169" lon="7.98197"><ele>209.0</ele><time>2026-04-12T10:11:09.446Z</time></trkpt><trkpt lat="44.6416233" lon="7.9820017"><ele>209.0</ele><time>2026-04-12T10:11:10.446Z</time></trkpt><trkpt lat="44.6415567" lon="7.9820283"><ele>209.0</ele><time>2026-04-12T10:11:11.446Z</time></trkpt><trkpt lat="44.6414917" lon="7.9820533"><ele>209.0</ele><time>2026-04-12T10:11:12.447Z</time></trkpt><trkpt lat="44.641425" lon="7.9820833"><ele>209.0</ele><time>2026-04-12T10:11:13.446Z</time></trkpt><trkpt lat="44.64136" lon="7.9821067"><ele>209.0</ele><time>2026-04-12T10:11:14.446Z</time></trkpt><trkpt lat="44.6412917" lon="7.9821317"><ele>209.0</ele><time>2026-04-12T10:11:15.446Z</time></trkpt><trkpt lat="44.6412283" lon="7.9821567"><ele>209.0</ele><time>2026-04-12T10:11:16.446Z</time></trkpt><trkpt lat="44.6411617" lon="7.98218"><ele>208.83333333333334</ele><time>2026-04-12T10:11:17.446Z</time></trkpt><trkpt lat="44.641095" lon="7.98221"><ele>208.66666666666669</ele><time>2026-04-12T10:11:18.446Z</time></trkpt><trkpt lat="44.6410317" lon="7.982245"><ele>208.5</ele><time>2026-04-12T10:11:19.446Z</time></trkpt><trkpt lat="44.6409233" lon="7.982325"><ele>208.33333333333331</ele><time>2026-04-12T10:11:21.446Z</time></trkpt><trkpt lat="44.6408133" lon="7.9823933"><ele>208.16666666666666</ele><time>2026-04-12T10:11:23.446Z</time></trkpt><trkpt lat="44.6407533" lon="7.9824317"><ele>208.0</ele><time>2026-04-12T10:11:24.447Z</time></trkpt><trkpt lat="44.6406917" lon="7.98246"><ele>208.0</ele><time>2026-04-12T10:11:25.446Z</time></trkpt><trkpt lat="44.6405783" lon="7.9825117"><ele>208.0</ele><time>2026-04-12T10:11:27.446Z</time></trkpt><trkpt lat="44.6404667" lon="7.982545"><ele>208.0</ele><time>2026-04-12T10:11:29.447Z</time></trkpt><trkpt lat="44.64036" lon="7.98259"><ele>208.0</ele><time>2026-04-12T10:11:31.446Z</time></trkpt><trkpt lat="44.640245" lon="7.9826317"><ele>209.66666666666666</ele><time>2026-04-12T10:11:33.446Z</time></trkpt><trkpt lat="44.64015" lon="7.9826583"><ele>211.33333333333331</ele><time>2026-04-12T10:11:35.447Z</time></trkpt><trkpt lat="44.6400683" lon="7.9826917"><ele>213.0</ele><time>2026-04-12T10:11:37.446Z</time></trkpt><trkpt lat="44.6399867" lon="7.98271"><ele>214.66666666666669</ele><time>2026-04-12T10:11:39.446Z</time></trkpt><trkpt lat="44.63991" lon="7.98273"><ele>216.33333333333334</ele><time>2026-04-12T10:11:41.446Z</time></trkpt><trkpt lat="44.6398183" lon="7.9827517"><ele>218.0</ele><time>2026-04-12T10:11:43.446Z</time></trkpt><trkpt lat="44.6397267" lon="7.9827733"><ele>218.0</ele><time>2026-04-12T10:11:45.446Z</time></trkpt><trkpt lat="44.6396267" lon="7.9827983"><ele>218.0</ele><time>2026-04-12T10:11:47.446Z</time></trkpt><trkpt lat="44.6395217" lon="7.98281"><ele>218.0</ele><time>2026-04-12T10:11:49.446Z</time></trkpt><trkpt lat="44.6394117" lon="7.9828167"><ele>218.0</ele><time>2026-04-12T10:11:51.446Z</time></trkpt><trkpt lat="44.6392983" lon="7.98283"><ele>218.0</ele><time>2026-04-12T10:11:53.446Z</time></trkpt><trkpt lat="44.63919" lon="7.9828467"><ele>217.60000000000002</ele><time>2026-04-12T10:11:55.446Z</time></trkpt><trkpt lat="44.639085" lon="7.9828633"><ele>217.20000000000002</ele><time>2026-04-12T10:11:57.446Z</time></trkpt><trkpt lat="44.6389833" lon="7.98288"><ele>216.8</ele><time>2026-04-12T10:11:59.446Z</time></trkpt><trkpt lat="44.63888" lon="7.9828983"><ele>216.4</ele><time>2026-04-12T10:12:01.446Z</time></trkpt><trkpt lat="44.6387767" lon="7.9829267"><ele>216.0</ele><time>2026-04-12T10:12:03.446Z</time></trkpt><trkpt lat="44.63868" lon="7.9829533"><ele>215.4</ele><time>2026-04-12T10:12:05.446Z</time></trkpt><trkpt lat="44.6385933" lon="7.9829933"><ele>214.8</ele><time>2026-04-12T10:12:07.446Z</time></trkpt><trkpt lat="44.6385117" lon="7.9830733"><ele>214.20000000000002</ele><time>2026-04-12T10:12:09.446Z</time></trkpt><trkpt lat="44.6384483" lon="7.9831867"><ele>213.60000000000002</ele><time>2026-04-12T10:12:11.446Z</time></trkpt><trkpt lat="44.6383833" lon="7.9833033"><ele>213.0</ele><time>2026-04-12T10:12:13.446Z</time></trkpt><trkpt lat="44.63833" lon="7.983415"><ele>214.4</ele><time>2026-04-12T10:12:15.446Z</time></trkpt><trkpt lat="44.6382833" lon="7.983535"><ele>215.8</ele><time>2026-04-12T10:12:17.446Z</time></trkpt><trkpt lat="44.6382433" lon="7.9836467"><ele>217.2</ele><time>2026-04-12T10:12:19.447Z</time></trkpt><trkpt lat="44.63821" lon="7.983765"><ele>218.6</ele><time>2026-04-12T10:12:21.446Z</time></trkpt><trkpt lat="44.6381817" lon="7.9838983"><ele>220.0</ele><time>2026-04-12T10:12:23.446Z</time></trkpt><trkpt lat="44.6381683" lon="7.984045"><ele>219.99999999999997</ele><time>2026-04-12T10:12:25.446Z</time></trkpt><trkpt lat="44.6381583" lon="7.9841517"><ele>220.0</ele><time>2026-04-12T10:12:27.446Z</time></trkpt><trkpt lat="44.63814" lon="7.9842533"><ele>220.0</ele><time>2026-04-12T10:12:29.446Z</time></trkpt><trkpt lat="44.6381167" lon="7.98439"><ele>220.0</ele><time>2026-04-12T10:12:31.446Z</time></trkpt><trkpt lat="44.63812" lon="7.9845033"><ele>219.99999999999997</ele><time>2026-04-12T10:12:33.447Z</time></trkpt><trkpt lat="44.638125" lon="7.9845967"><ele>220.0</ele><time>2026-04-12T10:12:35.446Z</time></trkpt><trkpt lat="44.6381517" lon="7.9846917"><ele>220.6</ele><time>2026-04-12T10:12:37.447Z</time></trkpt><trkpt lat="44.63819" lon="7.9848517"><ele>221.2</ele><time>2026-04-12T10:12:39.446Z</time></trkpt><trkpt lat="44.6382133" lon="7.98495"><ele>221.8</ele><time>2026-04-12T10:12:40.446Z</time></trkpt><trkpt lat="44.6382417" lon="7.985035"><ele>222.4</ele><time>2026-04-12T10:12:41.446Z</time></trkpt><trkpt lat="44.6382983" lon="7.98518"><ele>223.0</ele><time>2026-04-12T10:12:43.446Z</time></trkpt><trkpt lat="44.6383567" lon="7.9853017"><ele>223.60000000000002</ele><time>2026-04-12T10:12:45.446Z</time></trkpt><trkpt lat="44.6384" lon="7.98542"><ele>224.20000000000002</ele><time>2026-04-12T10:12:47.446Z</time></trkpt><trkpt lat="44.638445" lon="7.985525"><ele>224.8</ele><time>2026-04-12T10:12:49.446Z</time></trkpt><trkpt lat="44.6384817" lon="7.9856617"><ele>225.4</ele><time>2026-04-12T10:12:51.447Z</time></trkpt><trkpt lat="44.6385183" lon="7.9857833"><ele>226.0</ele><time>2026-04-12T10:12:53.446Z</time></trkpt><trkpt lat="44.6385433" lon="7.9859133"><ele>226.66666666666666</ele><time>2026-04-12T10:12:55.446Z</time></trkpt><trkpt lat="44.6385583" lon="7.986035"><ele>227.33333333333331</ele><time>2026-04-12T10:12:57.446Z</time></trkpt><trkpt lat="44.63856" lon="7.986145"><ele>228.0</ele><time>2026-04-12T10:12:59.446Z</time></trkpt><trkpt lat="44.638555" lon="7.9862533"><ele>228.66666666666669</ele><time>2026-04-12T10:13:01.446Z</time></trkpt><trkpt lat="44.63855" lon="7.986365"><ele>229.33333333333334</ele><time>2026-04-12T10:13:03.446Z</time></trkpt><trkpt lat="44.6385583" lon="7.9864583"><ele>230.0</ele><time>2026-04-12T10:13:05.446Z</time></trkpt><trkpt lat="44.6385633" lon="7.986585"><ele>230.00000000000003</ele><time>2026-04-12T10:13:08.446Z</time></trkpt><trkpt lat="44.63856" lon="7.986675"><ele>230.0</ele><time>2026-04-12T10:13:10.446Z</time></trkpt><trkpt lat="44.6385533" lon="7.986775"><ele>230.0</ele><time>2026-04-12T10:13:12.446Z</time></trkpt><trkpt lat="44.6385517" lon="7.9868867"><ele>230.0</ele><time>2026-04-12T10:13:14.446Z</time></trkpt><trkpt lat="44.638545" lon="7.9869967"><ele>230.00000000000003</ele><time>2026-04-12T10:13:16.447Z</time></trkpt><trkpt lat="44.63854" lon="7.9871083"><ele>230.0</ele><time>2026-04-12T10:13:18.446Z</time></trkpt><trkpt lat="44.638535" lon="7.98722"><ele>230.1428571428571</ele><time>2026-04-12T10:13:20.446Z</time></trkpt><trkpt lat="44.6385283" lon="7.98733"><ele>230.28571428571428</ele><time>2026-04-12T10:13:22.446Z</time></trkpt><trkpt lat="44.6385233" lon="7.9874367"><ele>230.42857142857142</ele><time>2026-04-12T10:13:24.446Z</time></trkpt><trkpt lat="44.638525" lon="7.9875317"><ele>230.57142857142856</ele><time>2026-04-12T10:13:26.446Z</time></trkpt><trkpt lat="44.63852" lon="7.9876233"><ele>230.71428571428572</ele><time>2026-04-12T10:13:28.446Z</time></trkpt><trkpt lat="44.6385217" lon="7.987735"><ele>230.85714285714286</ele><time>2026-04-12T10:13:31.446Z</time></trkpt><trkpt lat="44.6385183" lon="7.9878267"><ele>231.0</ele><time>2026-04-12T10:13:34.446Z</time></trkpt><trkpt lat="44.6384867" lon="7.9879333"><ele>231.83333333333334</ele><time>2026-04-12T10:13:37.446Z</time></trkpt><trkpt lat="44.638535" lon="7.988015"><ele>232.66666666666669</ele><time>2026-04-12T10:13:40.446Z</time></trkpt><trkpt lat="44.6386" lon="7.9879583"><ele>233.5</ele><time>2026-04-12T10:13:43.446Z</time></trkpt><trkpt lat="44.638655" lon="7.9878783"><ele>234.33333333333334</ele><time>2026-04-12T10:13:46.446Z</time></trkpt><trkpt lat="44.6387183" lon="7.9877883"><ele>235.16666666666669</ele><time>2026-04-12T10:13:49.446Z</time></trkpt><trkpt lat="44.6387533" lon="7.9876817"><ele>236.0</ele><time>2026-04-12T10:13:51.446Z</time></trkpt><trkpt lat="44.638775" lon="7.98756"><ele>238.4</ele><time>2026-04-12T10:13:53.446Z</time></trkpt><trkpt lat="44.63881" lon="7.9874383"><ele>240.8</ele><time>2026-04-12T10:13:55.446Z</time></trkpt><trkpt lat="44.6388283" lon="7.9873083"><ele>243.20000000000002</ele><time>2026-04-12T10:13:57.446Z</time></trkpt><trkpt lat="44.638845" lon="7.9871867"><ele>245.60000000000002</ele><time>2026-04-12T10:13:59.446Z</time></trkpt><trkpt lat="44.63887" lon="7.9870617"><ele>248.0</ele><time>2026-04-12T10:14:01.446Z</time></trkpt><trkpt lat="44.6388867" lon="7.9869367"><ele>248.0</ele><time>2026-04-12T10:14:03.447Z</time></trkpt><trkpt lat="44.638895" lon="7.9868"><ele>248.0</ele><time>2026-04-12T10:14:05.447Z</time></trkpt><trkpt lat="44.6389033" lon="7.9866633"><ele>248.0</ele><time>2026-04-12T10:14:07.446Z</time></trkpt><trkpt lat="44.6389267" lon="7.98653"><ele>248.0</ele><time>2026-04-12T10:14:09.446Z</time></trkpt><trkpt lat="44.6389333" lon="7.986405"><ele>248.0</ele><time>2026-04-12T10:14:11.446Z</time></trkpt><trkpt lat="44.63894" lon="7.9862883"><ele>247.2</ele><time>2026-04-12T10:14:13.446Z</time></trkpt><trkpt lat="44.6389533" lon="7.9861783"><ele>246.4</ele><time>2026-04-12T10:14:15.446Z</time></trkpt><trkpt lat="44.638985" lon="7.9860117"><ele>245.59999999999997</ele><time>2026-04-12T10:14:17.446Z</time></trkpt><trkpt lat="44.63902" lon="7.9858667"><ele>244.79999999999998</ele><time>2026-04-12T10:14:19.446Z</time></trkpt><trkpt lat="44.6390217" lon="7.985715"><ele>244.0</ele><time>2026-04-12T10:14:21.446Z</time></trkpt><trkpt lat="44.639015" lon="7.9855717"><ele>243.49999999999997</ele><time>2026-04-12T10:14:23.446Z</time></trkpt><trkpt lat="44.6389967" lon="7.98543"><ele>243.0</ele><time>2026-04-12T10:14:25.446Z</time></trkpt><trkpt lat="44.6389683" lon="7.9852917"><ele>242.5</ele><time>2026-04-12T10:14:27.446Z</time></trkpt><trkpt lat="44.6389433" lon="7.9851667"><ele>242.0</ele><time>2026-04-12T10:14:29.446Z</time></trkpt><trkpt lat="44.6389167" lon="7.98506"><ele>241.49999999999997</ele><time>2026-04-12T10:14:31.446Z</time></trkpt><trkpt lat="44.638895" lon="7.9849667"><ele>241.0</ele><time>2026-04-12T10:14:33.446Z</time></trkpt><trkpt lat="44.6388733" lon="7.984875"><ele>240.99999999999997</ele><time>2026-04-12T10:14:35.446Z</time></trkpt><trkpt lat="44.638855" lon="7.9847833"><ele>241.0</ele><time>2026-04-12T10:14:37.446Z</time></trkpt><trkpt lat="44.6388583" lon="7.9846567"><ele>241.0</ele><time>2026-04-12T10:14:40.446Z</time></trkpt><trkpt lat="44.638905" lon="7.98455"><ele>241.0</ele><time>2026-04-12T10:14:43.446Z</time></trkpt><trkpt lat="44.6389683" lon="7.9844783"><ele>240.99999999999997</ele><time>2026-04-12T10:14:46.446Z</time></trkpt><trkpt lat="44.63904" lon="7.984455"><ele>241.0</ele><time>2026-04-12T10:14:49.446Z</time></trkpt><trkpt lat="44.6391233" lon="7.9844783"><ele>240.99999999999997</ele><time>2026-04-12T10:14:53.446Z</time></trkpt><trkpt lat="44.639185" lon="7.9845217"><ele>241.0</ele><time>2026-04-12T10:14:56.446Z</time></trkpt><trkpt lat="44.6392583" lon="7.98457"><ele>241.0</ele><time>2026-04-12T10:15:00.446Z</time></trkpt><trkpt lat="44.6393317" lon="7.984615"><ele>241.0</ele><time>2026-04-12T10:15:04.446Z</time></trkpt><trkpt lat="44.6393983" lon="7.9846617"><ele>240.99999999999997</ele><time>2026-04-12T10:15:08.446Z</time></trkpt><trkpt lat="44.6394667" lon="7.9847067"><ele>241.0</ele><time>2026-04-12T10:15:12.446Z</time></trkpt><trkpt lat="44.6395467" lon="7.9847417"><ele>243.33333333333331</ele><time>2026-04-12T10:15:16.446Z</time></trkpt><trkpt lat="44.6396183" lon="7.98475"><ele>245.66666666666666</ele><time>2026-04-12T10:15:20.446Z</time></trkpt><trkpt lat="44.6396983" lon="7.9847483"><ele>248.0</ele><time>2026-04-12T10:15:24.446Z</time></trkpt><trkpt lat="44.6397683" lon="7.9847417"><ele>250.33333333333331</ele><time>2026-04-12T10:15:27.446Z</time></trkpt><trkpt lat="44.6398383" lon="7.98473"><ele>252.66666666666666</ele><time>2026-04-12T10:15:30.446Z</time></trkpt><trkpt lat="44.6399133" lon="7.9847117"><ele>255.0</ele><time>2026-04-12T10:15:33.446Z</time></trkpt><trkpt lat="44.6400083" lon="7.984685"><ele>255.0</ele><time>2026-04-12T10:15:36.446Z</time></trkpt><trkpt lat="44.640085" lon="7.9846633"><ele>255.0</ele><time>2026-04-12T10:15:38.446Z</time></trkpt><trkpt lat="44.64016" lon="7.984645"><ele>255.0</ele><time>2026-04-12T10:15:40.446Z</time></trkpt><trkpt lat="44.6402417" lon="7.98462"><ele>255.0</ele><time>2026-04-12T10:15:42.446Z</time></trkpt><trkpt lat="44.6403267" lon="7.984605"><ele>255.0</ele><time>2026-04-12T10:15:44.446Z</time></trkpt><trkpt lat="44.640415" lon="7.9846033"><ele>255.0</ele><time>2026-04-12T10:15:46.446Z</time></trkpt><trkpt lat="44.6405017" lon="7.9846067"><ele>253.66666666666666</ele><time>2026-04-12T10:15:48.446Z</time></trkpt><trkpt lat="44.6405783" lon="7.9846133"><ele>252.33333333333331</ele><time>2026-04-12T10:15:50.446Z</time></trkpt><trkpt lat="44.6406467" lon="7.9846283"><ele>251.0</ele><time>2026-04-12T10:15:52.446Z</time></trkpt><trkpt lat="44.640715" lon="7.98465"><ele>249.66666666666666</ele><time>2026-04-12T10:15:54.447Z</time></trkpt><trkpt lat="44.6407817" lon="7.9846883"><ele>248.33333333333331</ele><time>2026-04-12T10:15:57.447Z</time></trkpt><trkpt lat="44.6407983" lon="7.98482"><ele>247.0</ele><time>2026-04-12T10:16:00.446Z</time></trkpt><trkpt lat="44.6408017" lon="7.9849133"><ele>248.0</ele><time>2026-04-12T10:16:02.446Z</time></trkpt><trkpt lat="44.6407933" lon="7.98504"><ele>249.0</ele><time>2026-04-12T10:16:05.446Z</time></trkpt><trkpt lat="44.6407833" lon="7.98513"><ele>250.0</ele><time>2026-04-12T10:16:07.446Z</time></trkpt><trkpt lat="44.640785" lon="7.98522"><ele>251.0</ele><time>2026-04-12T10:16:09.446Z</time></trkpt><trkpt lat="44.64078" lon="7.9853167"><ele>252.0</ele><time>2026-04-12T10:16:11.446Z</time></trkpt><trkpt lat="44.64077" lon="7.9854083"><ele>253.0</ele><time>2026-04-12T10:16:13.446Z</time></trkpt><trkpt lat="44.6407433" lon="7.9855283"><ele>254.0</ele><time>2026-04-12T10:16:16.446Z</time></trkpt><trkpt lat="44.6407433" lon="7.9856183"><ele>254.00000000000003</ele><time>2026-04-12T10:16:18.447Z</time></trkpt><trkpt lat="44.6407433" lon="7.9857283"><ele>254.0</ele><time>2026-04-12T10:16:21.446Z</time></trkpt><trkpt lat="44.6407567" lon="7.9858383"><ele>254.0</ele><time>2026-04-12T10:16:24.446Z</time></trkpt><trkpt lat="44.6407667" lon="7.98596"><ele>254.0</ele><time>2026-04-12T10:16:27.446Z</time></trkpt><trkpt lat="44.6407867" lon="7.9860683"><ele>254.00000000000003</ele><time>2026-04-12T10:16:29.446Z</time></trkpt><trkpt lat="44.64082" lon="7.9861883"><ele>254.0</ele><time>2026-04-12T10:16:32.446Z</time></trkpt><trkpt lat="44.6408867" lon="7.986285"><ele>254.71428571428572</ele><time>2026-04-12T10:16:35.446Z</time></trkpt><trkpt lat="44.640925" lon="7.986365"><ele>255.42857142857142</ele><time>2026-04-12T10:16:37.446Z</time></trkpt><trkpt lat="44.6409683" lon="7.9864383"><ele>256.1428571428571</ele><time>2026-04-12T10:16:39.446Z</time></trkpt><trkpt lat="44.6410267" lon="7.9865"><ele>256.8571428571429</ele><time>2026-04-12T10:16:41.447Z</time></trkpt><trkpt lat="44.64109" lon="7.986555"><ele>257.57142857142856</ele><time>2026-04-12T10:16:43.446Z</time></trkpt><trkpt lat="44.6411683" lon="7.9865817"><ele>258.2857142857143</ele><time>2026-04-12T10:16:45.446Z</time></trkpt><trkpt lat="44.6412433" lon="7.98661"><ele>259.0</ele><time>2026-04-12T10:16:47.446Z</time></trkpt><trkpt lat="44.64131" lon="7.9866367"><ele>259.0</ele><time>2026-04-12T10:16:49.446Z</time></trkpt><trkpt lat="44.6413717" lon="7.9866633"><ele>259.0</ele><time>2026-04-12T10:16:51.446Z</time></trkpt><trkpt lat="44.64144" lon="7.986695"><ele>259.0</ele><time>2026-04-12T10:16:53.446Z</time></trkpt><trkpt lat="44.6415067" lon="7.9867017"><ele>259.0</ele><time>2026-04-12T10:16:55.446Z</time></trkpt><trkpt lat="44.6415817" lon="7.9867083"><ele>259.0</ele><time>2026-04-12T10:16:57.447Z</time></trkpt><trkpt lat="44.64165" lon="7.98674"><ele>259.0</ele><time>2026-04-12T10:16:59.446Z</time></trkpt><trkpt lat="44.6417117" lon="7.98676"><ele>259.0</ele><time>2026-04-12T10:17:01.446Z</time></trkpt><trkpt lat="44.64178" lon="7.9867633"><ele>260.3333333333333</ele><time>2026-04-12T10:17:03.446Z</time></trkpt><trkpt lat="44.6418317" lon="7.986815"><ele>261.66666666666663</ele><time>2026-04-12T10:17:07.446Z</time></trkpt><trkpt lat="44.6418183" lon="7.9869467"><ele>263.0</ele><time>2026-04-12T10:17:11.446Z</time></trkpt><trkpt lat="44.641795" lon="7.9870467"><ele>264.3333333333333</ele><time>2026-04-12T10:17:13.446Z</time></trkpt><trkpt lat="44.6417767" lon="7.9871483"><ele>265.6666666666667</ele><time>2026-04-12T10:17:15.446Z</time></trkpt><trkpt lat="44.64175" lon="7.98725"><ele>267.0</ele><time>2026-04-12T10:17:17.446Z</time></trkpt><trkpt lat="44.64173" lon="7.9873467"><ele>267.00000000000006</ele><time>2026-04-12T10:17:19.446Z</time></trkpt><trkpt lat="44.6417117" lon="7.987445"><ele>267.0</ele><time>2026-04-12T10:17:21.446Z</time></trkpt><trkpt lat="44.6416883" lon="7.9875367"><ele>267.0</ele><time>2026-04-12T10:17:23.446Z</time></trkpt><trkpt lat="44.64167" lon="7.98763"><ele>267.0</ele><time>2026-04-12T10:17:25.446Z</time></trkpt><trkpt lat="44.6416517" lon="7.9877233"><ele>267.0</ele><time>2026-04-12T10:17:27.446Z</time></trkpt><trkpt lat="44.64163" lon="7.9878183"><ele>267.00000000000006</ele><time>2026-04-12T10:17:29.446Z</time></trkpt><trkpt lat="44.641605" lon="7.9879417"><ele>267.0</ele><time>2026-04-12T10:17:32.446Z</time></trkpt><trkpt lat="44.6415867" lon="7.9880317"><ele>267.0</ele><time>2026-04-12T10:17:34.446Z</time></trkpt><trkpt lat="44.64156" lon="7.988145"><ele>267.0</ele><time>2026-04-12T10:17:37.446Z</time></trkpt><trkpt lat="44.6415417" lon="7.9882433"><ele>267.0</ele><time>2026-04-12T10:17:40.446Z</time></trkpt><trkpt lat="44.6415117" lon="7.9883583"><ele>267.0</ele><time>2026-04-12T10:17:43.446Z</time></trkpt><trkpt lat="44.6414917" lon="7.9884617"><ele>267.0</ele><time>2026-04-12T10:17:46.446Z</time></trkpt><trkpt lat="44.6414683" lon="7.9885683"><ele>267.0</ele><time>2026-04-12T10:17:49.446Z</time></trkpt><trkpt lat="44.6414467" lon="7.98868"><ele>266.5</ele><time>2026-04-12T10:17:52.446Z</time></trkpt><trkpt lat="44.6414217" lon="7.9887883"><ele>266.0</ele><time>2026-04-12T10:17:55.446Z</time></trkpt><trkpt lat="44.64139" lon="7.9888933"><ele>265.5</ele><time>2026-04-12T10:17:58.446Z</time></trkpt><trkpt lat="44.641355" lon="7.9890117"><ele>265.0</ele><time>2026-04-12T10:18:01.446Z</time></trkpt><trkpt lat="44.64133" lon="7.98912"><ele>264.5</ele><time>2026-04-12T10:18:04.446Z</time></trkpt><trkpt lat="44.6413017" lon="7.9892167"><ele>264.0</ele><time>2026-04-12T10:18:07.446Z</time></trkpt><trkpt lat="44.6412733" lon="7.9893283"><ele>262.6666666666667</ele><time>2026-04-12T10:18:10.446Z</time></trkpt><trkpt lat="44.641245" lon="7.9894367"><ele>261.3333333333333</ele><time>2026-04-12T10:18:13.446Z</time></trkpt><trkpt lat="44.6411883" lon="7.9895433"><ele>260.0</ele><time>2026-04-12T10:18:16.446Z</time></trkpt><trkpt lat="44.6411417" lon="7.9896183"><ele>258.66666666666663</ele><time>2026-04-12T10:18:18.446Z</time></trkpt><trkpt lat="44.64109" lon="7.98967"><ele>257.3333333333333</ele><time>2026-04-12T10:18:20.446Z</time></trkpt><trkpt lat="44.64103" lon="7.98973"><ele>256.0</ele><time>2026-04-12T10:18:22.446Z</time></trkpt><trkpt lat="44.6409683" lon="7.9897867"><ele>256.8333333333333</ele><time>2026-04-12T10:18:24.446Z</time></trkpt><trkpt lat="44.6408933" lon="7.9898383"><ele>257.66666666666663</ele><time>2026-04-12T10:18:26.446Z</time></trkpt><trkpt lat="44.6408217" lon="7.9898867"><ele>258.5</ele><time>2026-04-12T10:18:28.446Z</time></trkpt><trkpt lat="44.6407417" lon="7.98994"><ele>259.3333333333333</ele><time>2026-04-12T10:18:30.446Z</time></trkpt><trkpt lat="44.6406517" lon="7.9899983"><ele>260.1666666666667</ele><time>2026-04-12T10:18:32.446Z</time></trkpt><trkpt lat="44.6405683" lon="7.9900617"><ele>261.0</ele><time>2026-04-12T10:18:34.446Z</time></trkpt><trkpt lat="44.6404817" lon="7.990125"><ele>261.0</ele><time>2026-04-12T10:18:36.446Z</time></trkpt><trkpt lat="44.6403983" lon="7.99018"><ele>261.0</ele><time>2026-04-12T10:18:38.446Z</time></trkpt><trkpt lat="44.640325" lon="7.9902317"><ele>261.0</ele><time>2026-04-12T10:18:40.446Z</time></trkpt><trkpt lat="44.6402483" lon="7.9902883"><ele>261.0</ele><time>2026-04-12T10:18:42.446Z</time></trkpt><trkpt lat="44.640165" lon="7.99034"><ele>261.0</ele><time>2026-04-12T10:18:44.446Z</time></trkpt><trkpt lat="44.6400833" lon="7.9904"><ele>261.0</ele><time>2026-04-12T10:18:46.446Z</time></trkpt><trkpt lat="44.6400017" lon="7.9904617"><ele>263.7142857142857</ele><time>2026-04-12T10:18:48.446Z</time></trkpt><trkpt lat="44.639935" lon="7.99053"><ele>266.42857142857144</ele><time>2026-04-12T10:18:50.446Z</time></trkpt><trkpt lat="44.6398767" lon="7.9906017"><ele>269.1428571428571</ele><time>2026-04-12T10:18:52.446Z</time></trkpt><trkpt lat="44.6398217" lon="7.9906583"><ele>271.8571428571429</ele><time>2026-04-12T10:18:54.446Z</time></trkpt><trkpt lat="44.6397667" lon="7.9907017"><ele>274.57142857142856</ele><time>2026-04-12T10:18:56.446Z</time></trkpt><trkpt lat="44.6396983" lon="7.9907617"><ele>277.2857142857143</ele><time>2026-04-12T10:18:59.446Z</time></trkpt><trkpt lat="44.6396333" lon="7.9908117"><ele>280.0</ele><time>2026-04-12T10:19:02.446Z</time></trkpt><trkpt lat="44.6395817" lon="7.9906967"><ele>280.0</ele><time>2026-04-12T10:19:06.446Z</time></trkpt><trkpt lat="44.639525" lon="7.990615"><ele>280.0</ele><time>2026-04-12T10:19:08.447Z</time></trkpt><trkpt lat="44.63945" lon="7.9906133"><ele>280.0</ele><time>2026-04-12T10:19:10.446Z</time></trkpt><trkpt lat="44.6393883" lon="7.9906833"><ele>280.0</ele><time>2026-04-12T10:19:12.446Z</time></trkpt><trkpt lat="44.6393283" lon="7.9907617"><ele>280.0</ele><time>2026-04-12T10:19:14.446Z</time></trkpt><trkpt lat="44.639265" lon="7.9908333"><ele>280.0</ele><time>2026-04-12T10:19:16.446Z</time></trkpt><trkpt lat="44.63921" lon="7.990915"><ele>282.0</ele><time>2026-04-12T10:19:18.446Z</time></trkpt><trkpt lat="44.63917" lon="7.99099"><ele>284.0</ele><time>2026-04-12T10:19:20.446Z</time></trkpt><trkpt lat="44.6391283" lon="7.9910667"><ele>286.0</ele><time>2026-04-12T10:19:22.446Z</time></trkpt><trkpt lat="44.6390883" lon="7.9911517"><ele>288.0</ele><time>2026-04-12T10:19:24.446Z</time></trkpt><trkpt lat="44.639045" lon="7.9912383"><ele>290.0</ele><time>2026-04-12T10:19:26.446Z</time></trkpt><trkpt lat="44.63901" lon="7.9913233"><ele>292.0</ele><time>2026-04-12T10:19:28.446Z</time></trkpt><trkpt lat="44.6389767" lon="7.9914133"><ele>294.0</ele><time>2026-04-12T10:19:30.446Z</time></trkpt><trkpt lat="44.6389433" lon="7.9914967"><ele>294.0</ele><time>2026-04-12T10:19:32.446Z</time></trkpt><trkpt lat="44.638905" lon="7.99158"><ele>294.0</ele><time>2026-04-12T10:19:34.446Z</time></trkpt><trkpt lat="44.6388683" lon="7.9916567"><ele>294.0</ele><time>2026-04-12T10:19:36.446Z</time></trkpt><trkpt lat="44.6388183" lon="7.99177"><ele>294.0</ele><time>2026-04-12T10:19:39.446Z</time></trkpt><trkpt lat="44.6387667" lon="7.991875"><ele>294.0</ele><time>2026-04-12T10:19:42.446Z</time></trkpt><trkpt lat="44.638715" lon="7.9919767"><ele>294.0</ele><time>2026-04-12T10:19:45.446Z</time></trkpt><trkpt lat="44.6386633" lon="7.9920783"><ele>293.8333333333333</ele><time>2026-04-12T10:19:48.446Z</time></trkpt><trkpt lat="44.63861" lon="7.9921883"><ele>293.6666666666667</ele><time>2026-04-12T10:19:51.446Z</time></trkpt><trkpt lat="44.6385783" lon="7.9922667"><ele>293.5</ele><time>2026-04-12T10:19:53.446Z</time></trkpt><trkpt lat="44.6385317" lon="7.992385"><ele>293.33333333333337</ele><time>2026-04-12T10:19:56.446Z</time></trkpt><trkpt lat="44.6384917" lon="7.99247"><ele>293.1666666666667</ele><time>2026-04-12T10:19:58.446Z</time></trkpt><trkpt lat="44.6384183" lon="7.9925733"><ele>293.0</ele><time>2026-04-12T10:20:00.447Z</time></trkpt><trkpt lat="44.6383717" lon="7.992635"><ele>292.33333333333337</ele><time>2026-04-12T10:20:01.446Z</time></trkpt><trkpt lat="44.638325" lon="7.9926967"><ele>291.6666666666667</ele><time>2026-04-12T10:20:02.446Z</time></trkpt><trkpt lat="44.6382767" lon="7.9927567"><ele>291.0</ele><time>2026-04-12T10:20:03.446Z</time></trkpt><trkpt lat="44.6382267" lon="7.992815"><ele>290.3333333333333</ele><time>2026-04-12T10:20:04.446Z</time></trkpt><trkpt lat="44.6381333" lon="7.9929333"><ele>289.66666666666663</ele><time>2026-04-12T10:20:06.447Z</time></trkpt><trkpt lat="44.6380483" lon="7.993055"><ele>289.0</ele><time>2026-04-12T10:20:08.446Z</time></trkpt><trkpt lat="44.6379733" lon="7.9931767"><ele>289.0</ele><time>2026-04-12T10:20:10.446Z</time></trkpt><trkpt lat="44.6379017" lon="7.9933067"><ele>289.0</ele><time>2026-04-12T10:20:12.446Z</time></trkpt><trkpt lat="44.6378367" lon="7.9934167"><ele>289.0</ele><time>2026-04-12T10:20:14.446Z</time></trkpt><trkpt lat="44.6377717" lon="7.993525"><ele>289.0</ele><time>2026-04-12T10:20:16.446Z</time></trkpt><trkpt lat="44.6377167" lon="7.9936167"><ele>289.0</ele><time>2026-04-12T10:20:18.446Z</time></trkpt><trkpt lat="44.6376733" lon="7.9937"><ele>290.57142857142856</ele><time>2026-04-12T10:20:20.446Z</time></trkpt><trkpt lat="44.637625" lon="7.9937883"><ele>292.1428571428571</ele><time>2026-04-12T10:20:22.446Z</time></trkpt><trkpt lat="44.637585" lon="7.9938583"><ele>293.71428571428567</ele><time>2026-04-12T10:20:24.446Z</time></trkpt><trkpt lat="44.63754" lon="7.9939417"><ele>295.2857142857143</ele><time>2026-04-12T10:20:27.446Z</time></trkpt><trkpt lat="44.6374917" lon="7.9940317"><ele>296.85714285714283</ele><time>2026-04-12T10:20:30.446Z</time></trkpt><trkpt lat="44.63744" lon="7.99411"><ele>298.4285714285714</ele><time>2026-04-12T10:20:33.446Z</time></trkpt><trkpt lat="44.63739" lon="7.9941833"><ele>300.0</ele><time>2026-04-12T10:20:36.446Z</time></trkpt><trkpt lat="44.6373483" lon="7.9942833"><ele>300.3333333333333</ele><time>2026-04-12T10:20:39.446Z</time></trkpt><trkpt lat="44.637315" lon="7.9943933"><ele>300.6666666666667</ele><time>2026-04-12T10:20:42.446Z</time></trkpt><trkpt lat="44.63728" lon="7.99451"><ele>301.0</ele><time>2026-04-12T10:20:45.446Z</time></trkpt><trkpt lat="44.6372433" lon="7.9945917"><ele>301.33333333333337</ele><time>2026-04-12T10:20:48.446Z</time></trkpt><trkpt lat="44.6372" lon="7.994665"><ele>301.6666666666667</ele><time>2026-04-12T10:20:51.446Z</time></trkpt><trkpt lat="44.6371333" lon="7.9947267"><ele>302.0</ele><time>2026-04-12T10:20:54.446Z</time></trkpt><trkpt lat="44.6370567" lon="7.9947817"><ele>302.0</ele><time>2026-04-12T10:20:57.446Z</time></trkpt><trkpt lat="44.636975" lon="7.994855"><ele>302.0</ele><time>2026-04-12T10:21:00.446Z</time></trkpt><trkpt lat="44.636895" lon="7.9949117"><ele>302.0</ele><time>2026-04-12T10:21:02.446Z</time></trkpt><trkpt lat="44.6368183" lon="7.9949417"><ele>302.0</ele><time>2026-04-12T10:21:04.446Z</time></trkpt><trkpt lat="44.6367567" lon="7.9949633"><ele>302.0</ele><time>2026-04-12T10:21:06.446Z</time></trkpt><trkpt lat="44.636685" lon="7.9949917"><ele>302.0</ele><time>2026-04-12T10:21:08.446Z</time></trkpt><trkpt lat="44.6366167" lon="7.99502"><ele>301.0</ele><time>2026-04-12T10:21:10.446Z</time></trkpt><trkpt lat="44.63653" lon="7.9950567"><ele>300.0</ele><time>2026-04-12T10:21:13.446Z</time></trkpt><trkpt lat="44.636465" lon="7.9950867"><ele>299.0</ele><time>2026-04-12T10:21:15.446Z</time></trkpt><trkpt lat="44.6363967" lon="7.9951217"><ele>298.0</ele><time>2026-04-12T10:21:17.446Z</time></trkpt><trkpt lat="44.6363167" lon="7.9951633"><ele>297.0</ele><time>2026-04-12T10:21:20.446Z</time></trkpt><trkpt lat="44.6362467" lon="7.9952"><ele>296.0</ele><time>2026-04-12T10:21:23.446Z</time></trkpt><trkpt lat="44.6361683" lon="7.9952433"><ele>297.83333333333337</ele><time>2026-04-12T10:21:26.446Z</time></trkpt><trkpt lat="44.6360767" lon="7.995255"><ele>299.6666666666667</ele><time>2026-04-12T10:21:29.446Z</time></trkpt><trkpt lat="44.6360033" lon="7.9952183"><ele>301.5</ele><time>2026-04-12T10:21:32.446Z</time></trkpt><trkpt lat="44.6359317" lon="7.9951617"><ele>303.3333333333333</ele><time>2026-04-12T10:21:36.446Z</time></trkpt><trkpt lat="44.6358583" lon="7.9951133"><ele>305.16666666666663</ele><time>2026-04-12T10:21:39.446Z</time></trkpt><trkpt lat="44.6357983" lon="7.995075"><ele>307.0</ele><time>2026-04-12T10:21:41.446Z</time></trkpt><trkpt lat="44.6357283" lon="7.99502"><ele>307.66666666666663</ele><time>2026-04-12T10:21:43.446Z</time></trkpt><trkpt lat="44.6356633" lon="7.9949567"><ele>308.3333333333333</ele><time>2026-04-12T10:21:45.446Z</time></trkpt><trkpt lat="44.6356" lon="7.994895"><ele>309.0</ele><time>2026-04-12T10:21:47.446Z</time></trkpt><trkpt lat="44.6355367" lon="7.99484"><ele>309.6666666666667</ele><time>2026-04-12T10:21:49.446Z</time></trkpt><trkpt lat="44.6354667" lon="7.9947733"><ele>310.33333333333337</ele><time>2026-04-12T10:21:51.446Z</time></trkpt><trkpt lat="44.6354083" lon="7.99469"><ele>311.0</ele><time>2026-04-12T10:21:53.446Z</time></trkpt><trkpt lat="44.6353517" lon="7.9945733"><ele>311.0</ele><time>2026-04-12T10:21:55.446Z</time></trkpt><trkpt lat="44.6352983" lon="7.99444"><ele>311.0</ele><time>2026-04-12T10:21:57.446Z</time></trkpt><trkpt lat="44.63525" lon="7.9943117"><ele>311.0</ele><time>2026-04-12T10:21:59.446Z</time></trkpt><trkpt lat="44.6351883" lon="7.9941967"><ele>311.0</ele><time>2026-04-12T10:22:01.446Z</time></trkpt><trkpt lat="44.63511" lon="7.9941083"><ele>311.0</ele><time>2026-04-12T10:22:03.446Z</time></trkpt><trkpt lat="44.635055" lon="7.9940633"><ele>311.0</ele><time>2026-04-12T10:22:04.446Z</time></trkpt><trkpt lat="44.63499" lon="7.9940167"><ele>311.0</ele><time>2026-04-12T10:22:05.446Z</time></trkpt><trkpt lat="44.6349217" lon="7.9939767"><ele>311.0</ele><time>2026-04-12T10:22:06.446Z</time></trkpt><trkpt lat="44.6348483" lon="7.993945"><ele>311.0</ele><time>2026-04-12T10:22:07.446Z</time></trkpt><trkpt lat="44.6347767" lon="7.9939167"><ele>311.0</ele><time>2026-04-12T10:22:08.446Z</time></trkpt><trkpt lat="44.6347" lon="7.9938983"><ele>311.0</ele><time>2026-04-12T10:22:09.446Z</time></trkpt><trkpt lat="44.6346283" lon="7.993875"><ele>311.0</ele><time>2026-04-12T10:22:10.446Z</time></trkpt><trkpt lat="44.6345567" lon="7.9938483"><ele>311.0</ele><time>2026-04-12T10:22:11.446Z</time></trkpt><trkpt lat="44.6344917" lon="7.9938183"><ele>311.0</ele><time>2026-04-12T10:22:12.446Z</time></trkpt><trkpt lat="44.6344217" lon="7.9937867"><ele>311.0</ele><time>2026-04-12T10:22:13.446Z</time></trkpt><trkpt lat="44.6343567" lon="7.9937483"><ele>311.0</ele><time>2026-04-12T10:22:14.446Z</time></trkpt><trkpt lat="44.634295" lon="7.99371"><ele>311.0</ele><time>2026-04-12T10:22:15.446Z</time></trkpt><trkpt lat="44.6342017" lon="7.99363"><ele>310.6</ele><time>2026-04-12T10:22:17.446Z</time></trkpt><trkpt lat="44.6341283" lon="7.9935483"><ele>310.20000000000005</ele><time>2026-04-12T10:22:19.446Z</time></trkpt><trkpt lat="44.63406" lon="7.993465"><ele>309.79999999999995</ele><time>2026-04-12T10:22:21.446Z</time></trkpt><trkpt lat="44.63398" lon="7.9933783"><ele>309.4</ele><time>2026-04-12T10:22:23.446Z</time></trkpt><trkpt lat="44.633895" lon="7.9932983"><ele>309.0</ele><time>2026-04-12T10:22:25.446Z</time></trkpt><trkpt lat="44.633815" lon="7.9932283"><ele>309.0</ele><time>2026-04-12T10:22:27.446Z</time></trkpt><trkpt lat="44.63373" lon="7.993155"><ele>309.0</ele><time>2026-04-12T10:22:29.446Z</time></trkpt><trkpt lat="44.6336517" lon="7.99308"><ele>309.0</ele><time>2026-04-12T10:22:31.446Z</time></trkpt><trkpt lat="44.633565" lon="7.993005"><ele>309.0</ele><time>2026-04-12T10:22:33.446Z</time></trkpt><trkpt lat="44.633475" lon="7.992945"><ele>309.0</ele><time>2026-04-12T10:22:35.446Z</time></trkpt><trkpt lat="44.6333883" lon="7.99288"><ele>308.8</ele><time>2026-04-12T10:22:37.446Z</time></trkpt><trkpt lat="44.6333067" lon="7.9928133"><ele>308.59999999999997</ele><time>2026-04-12T10:22:39.446Z</time></trkpt><trkpt lat="44.6332067" lon="7.9927383"><ele>308.4</ele><time>2026-04-12T10:22:41.446Z</time></trkpt><trkpt lat="44.633095" lon="7.9927333"><ele>308.2</ele><time>2026-04-12T10:22:43.446Z</time></trkpt><trkpt lat="44.6329983" lon="7.9927567"><ele>308.0</ele><time>2026-04-12T10:22:45.446Z</time></trkpt><trkpt lat="44.632915" lon="7.9927633"><ele>308.0</ele><time>2026-04-12T10:22:47.446Z</time></trkpt><trkpt lat="44.63285" lon="7.9927483"><ele>308.0</ele><time>2026-04-12T10:22:49.446Z</time></trkpt><trkpt lat="44.6327783" lon="7.9927533"><ele>308.0</ele><time>2026-04-12T10:22:51.446Z</time></trkpt><trkpt lat="44.6327" lon="7.9927467"><ele>308.0</ele><time>2026-04-12T10:22:53.446Z</time></trkpt><trkpt lat="44.6326133" lon="7.99272"><ele>308.0</ele><time>2026-04-12T10:22:55.446Z</time></trkpt><trkpt lat="44.6325417" lon="7.99272"><ele>308.0</ele><time>2026-04-12T10:22:56.446Z</time></trkpt><trkpt lat="44.63242" lon="7.9926933"><ele>307.0</ele><time>2026-04-12T10:22:58.446Z</time></trkpt><trkpt lat="44.63235" lon="7.9926783"><ele>306.0</ele><time>2026-04-12T10:22:59.446Z</time></trkpt><trkpt lat="44.6322683" lon="7.9926417"><ele>305.0</ele><time>2026-04-12T10:23:00.446Z</time></trkpt><trkpt lat="44.6321967" lon="7.9926233"><ele>304.0</ele><time>2026-04-12T10:23:01.446Z</time></trkpt><trkpt lat="44.632135" lon="7.9925983"><ele>303.0</ele><time>2026-04-12T10:23:02.447Z</time></trkpt><trkpt lat="44.632035" lon="7.9925583"><ele>302.0</ele><time>2026-04-12T10:23:04.446Z</time></trkpt><trkpt lat="44.6319617" lon="7.9925283"><ele>301.6666666666667</ele><time>2026-04-12T10:23:06.447Z</time></trkpt><trkpt lat="44.6319017" lon="7.99244"><ele>301.33333333333337</ele><time>2026-04-12T10:23:52.446Z</time></trkpt><trkpt lat="44.6318417" lon="7.9923867"><ele>301.0</ele><time>2026-04-12T10:23:54.446Z</time></trkpt><trkpt lat="44.6317533" lon="7.9923467"><ele>300.6666666666667</ele><time>2026-04-12T10:23:56.446Z</time></trkpt><trkpt lat="44.6316667" lon="7.9923033"><ele>300.3333333333333</ele><time>2026-04-12T10:23:58.446Z</time></trkpt><trkpt lat="44.6315833" lon="7.9922417"><ele>300.0</ele><time>2026-04-12T10:24:00.446Z</time></trkpt><trkpt lat="44.6315" lon="7.992175"><ele>300.0</ele><time>2026-04-12T10:24:02.446Z</time></trkpt><trkpt lat="44.6314083" lon="7.99211"><ele>300.0</ele><time>2026-04-12T10:24:04.446Z</time></trkpt><trkpt lat="44.63132" lon="7.992045"><ele>300.0</ele><time>2026-04-12T10:24:06.446Z</time></trkpt><trkpt lat="44.6312383" lon="7.991985"><ele>300.0</ele><time>2026-04-12T10:24:08.446Z</time></trkpt><trkpt lat="44.6311567" lon="7.9919233"><ele>300.0</ele><time>2026-04-12T10:24:10.446Z</time></trkpt><trkpt lat="44.63109" lon="7.99186"><ele>299.6666666666667</ele><time>2026-04-12T10:24:12.446Z</time></trkpt><trkpt lat="44.631015" lon="7.991805"><ele>299.3333333333333</ele><time>2026-04-12T10:24:14.446Z</time></trkpt><trkpt lat="44.6309383" lon="7.9917683"><ele>299.0</ele><time>2026-04-12T10:24:16.446Z</time></trkpt><trkpt lat="44.63086" lon="7.99174"><ele>298.66666666666663</ele><time>2026-04-12T10:24:18.446Z</time></trkpt><trkpt lat="44.6307817" lon="7.991735"><ele>298.3333333333333</ele><time>2026-04-12T10:24:20.446Z</time></trkpt><trkpt lat="44.6307117" lon="7.9917433"><ele>298.0</ele><time>2026-04-12T10:24:22.446Z</time></trkpt><trkpt lat="44.6306417" lon="7.9917567"><ele>298.0</ele><time>2026-04-12T10:24:24.446Z</time></trkpt><trkpt lat="44.6305683" lon="7.9917767"><ele>298.0</ele><time>2026-04-12T10:24:26.446Z</time></trkpt><trkpt lat="44.6304933" lon="7.9917967"><ele>298.0</ele><time>2026-04-12T10:24:28.446Z</time></trkpt><trkpt lat="44.6304233" lon="7.9918283"><ele>298.0</ele><time>2026-04-12T10:24:30.446Z</time></trkpt><trkpt lat="44.6303533" lon="7.991845"><ele>298.0</ele><time>2026-04-12T10:24:32.446Z</time></trkpt><trkpt lat="44.6302683" lon="7.99187"><ele>298.0</ele><time>2026-04-12T10:24:34.446Z</time></trkpt><trkpt lat="44.6302" lon="7.9918833"><ele>299.1428571428571</ele><time>2026-04-12T10:24:36.446Z</time></trkpt><trkpt lat="44.6301317" lon="7.9919017"><ele>300.2857142857143</ele><time>2026-04-12T10:24:38.446Z</time></trkpt><trkpt lat="44.630065" lon="7.99192"><ele>301.42857142857144</ele><time>2026-04-12T10:24:40.446Z</time></trkpt><trkpt lat="44.63" lon="7.9919383"><ele>302.57142857142856</ele><time>2026-04-12T10:24:42.446Z</time></trkpt><trkpt lat="44.629935" lon="7.9919517"><ele>303.7142857142857</ele><time>2026-04-12T10:24:44.446Z</time></trkpt><trkpt lat="44.6298717" lon="7.9919667"><ele>304.85714285714283</ele><time>2026-04-12T10:24:46.446Z</time></trkpt><trkpt lat="44.6297783" lon="7.991985"><ele>306.0</ele><time>2026-04-12T10:24:49.446Z</time></trkpt><trkpt lat="44.6297167" lon="7.992005"><ele>306.0</ele><time>2026-04-12T10:24:51.446Z</time></trkpt><trkpt lat="44.6296183" lon="7.9920083"><ele>306.0</ele><time>2026-04-12T10:24:54.446Z</time></trkpt><trkpt lat="44.6295467" lon="7.9920183"><ele>306.0</ele><time>2026-04-12T10:24:56.446Z</time></trkpt><trkpt lat="44.62948" lon="7.99202"><ele>306.0</ele><time>2026-04-12T10:24:58.446Z</time></trkpt><trkpt lat="44.62941" lon="7.9920267"><ele>306.0</ele><time>2026-04-12T10:25:00.446Z</time></trkpt><trkpt lat="44.62934" lon="7.992035"><ele>306.0</ele><time>2026-04-12T10:25:02.446Z</time></trkpt><trkpt lat="44.6292583" lon="7.9920467"><ele>306.8333333333333</ele><time>2026-04-12T10:25:04.446Z</time></trkpt><trkpt lat="44.6291833" lon="7.9920517"><ele>307.6666666666667</ele><time>2026-04-12T10:25:06.446Z</time></trkpt><trkpt lat="44.6291033" lon="7.9920683"><ele>308.5</ele><time>2026-04-12T10:25:08.446Z</time></trkpt><trkpt lat="44.629025" lon="7.992085"><ele>309.33333333333337</ele><time>2026-04-12T10:25:10.446Z</time></trkpt><trkpt lat="44.6289517" lon="7.9921083"><ele>310.1666666666667</ele><time>2026-04-12T10:25:12.446Z</time></trkpt><trkpt lat="44.6288817" lon="7.992125"><ele>311.0</ele><time>2026-04-12T10:25:14.446Z</time></trkpt><trkpt lat="44.62879" lon="7.99216"><ele>311.0</ele><time>2026-04-12T10:25:17.446Z</time></trkpt><trkpt lat="44.6286983" lon="7.9921917"><ele>311.0</ele><time>2026-04-12T10:25:19.446Z</time></trkpt><trkpt lat="44.628625" lon="7.9922117"><ele>311.0</ele><time>2026-04-12T10:25:21.446Z</time></trkpt><trkpt lat="44.6285483" lon="7.9922533"><ele>311.0</ele><time>2026-04-12T10:25:23.446Z</time></trkpt><trkpt lat="44.62847" lon="7.9922933"><ele>311.0</ele><time>2026-04-12T10:25:25.446Z</time></trkpt><trkpt lat="44.628405" lon="7.9923367"><ele>311.0</ele><time>2026-04-12T10:25:27.447Z</time></trkpt><trkpt lat="44.6283383" lon="7.9923817"><ele>311.85714285714283</ele><time>2026-04-12T10:25:29.446Z</time></trkpt><trkpt lat="44.6282717" lon="7.9924217"><ele>312.7142857142857</ele><time>2026-04-12T10:25:31.446Z</time></trkpt><trkpt lat="44.628215" lon="7.9924667"><ele>313.57142857142856</ele><time>2026-04-12T10:25:33.446Z</time></trkpt><trkpt lat="44.6281517" lon="7.9925083"><ele>314.42857142857144</ele><time>2026-04-12T10:25:35.446Z</time></trkpt><trkpt lat="44.628095" lon="7.99255"><ele>315.2857142857143</ele><time>2026-04-12T10:25:37.446Z</time></trkpt><trkpt lat="44.6280217" lon="7.9925883"><ele>316.14285714285717</ele><time>2026-04-12T10:25:39.446Z</time></trkpt><trkpt lat="44.6279567" lon="7.9926333"><ele>317.0</ele><time>2026-04-12T10:25:41.446Z</time></trkpt><trkpt lat="44.62788" lon="7.992675"><ele>317.0</ele><time>2026-04-12T10:25:43.446Z</time></trkpt><trkpt lat="44.6278133" lon="7.99272"><ele>317.0</ele><time>2026-04-12T10:25:45.446Z</time></trkpt><trkpt lat="44.6277567" lon="7.9927617"><ele>317.0</ele><time>2026-04-12T10:25:47.446Z</time></trkpt><trkpt lat="44.6277" lon="7.9928033"><ele>317.0</ele><time>2026-04-12T10:25:49.446Z</time></trkpt><trkpt lat="44.6276367" lon="7.9928483"><ele>317.0</ele><time>2026-04-12T10:25:51.447Z</time></trkpt><trkpt lat="44.627565" lon="7.9928917"><ele>317.0</ele><time>2026-04-12T10:25:53.446Z</time></trkpt><trkpt lat="44.627505" lon="7.99294"><ele>317.0</ele><time>2026-04-12T10:25:55.446Z</time></trkpt><trkpt lat="44.6274433" lon="7.9930017"><ele>319.33333333333337</ele><time>2026-04-12T10:25:57.446Z</time></trkpt><trkpt lat="44.6273717" lon="7.9930933"><ele>321.6666666666667</ele><time>2026-04-12T10:26:00.446Z</time></trkpt><trkpt lat="44.627315" lon="7.9931567"><ele>324.0</ele><time>2026-04-12T10:26:02.446Z</time></trkpt><trkpt lat="44.627255" lon="7.99322"><ele>326.3333333333333</ele><time>2026-04-12T10:26:04.446Z</time></trkpt><trkpt lat="44.62719" lon="7.9933067"><ele>328.66666666666663</ele><time>2026-04-12T10:26:06.446Z</time></trkpt><trkpt lat="44.627135" lon="7.9933967"><ele>331.0</ele><time>2026-04-12T10:26:08.446Z</time></trkpt><trkpt lat="44.6270933" lon="7.99348"><ele>331.8333333333333</ele><time>2026-04-12T10:26:10.446Z</time></trkpt><trkpt lat="44.6270467" lon="7.993565"><ele>332.66666666666663</ele><time>2026-04-12T10:26:12.446Z</time></trkpt><trkpt lat="44.627005" lon="7.9936417"><ele>333.5</ele><time>2026-04-12T10:26:14.446Z</time></trkpt><trkpt lat="44.6269617" lon="7.9937133"><ele>334.3333333333333</ele><time>2026-04-12T10:26:16.446Z</time></trkpt><trkpt lat="44.626925" lon="7.99379"><ele>335.1666666666667</ele><time>2026-04-12T10:26:18.446Z</time></trkpt><trkpt lat="44.62688" lon="7.993895"><ele>336.0</ele><time>2026-04-12T10:26:21.446Z</time></trkpt><trkpt lat="44.62684" lon="7.9940067"><ele>336.2857142857143</ele><time>2026-04-12T10:26:24.446Z</time></trkpt><trkpt lat="44.6268033" lon="7.99409"><ele>336.57142857142856</ele><time>2026-04-12T10:26:26.447Z</time></trkpt><trkpt lat="44.6267667" lon="7.9941633"><ele>336.8571428571429</ele><time>2026-04-12T10:26:28.447Z</time></trkpt><trkpt lat="44.6267233" lon="7.9942367"><ele>337.1428571428571</ele><time>2026-04-12T10:26:30.446Z</time></trkpt><trkpt lat="44.6266817" lon="7.99431"><ele>337.42857142857144</ele><time>2026-04-12T10:26:32.446Z</time></trkpt><trkpt lat="44.6266283" lon="7.9944167"><ele>337.7142857142857</ele><time>2026-04-12T10:26:35.446Z</time></trkpt><trkpt lat="44.6265917" lon="7.9944933"><ele>338.0</ele><time>2026-04-12T10:26:37.446Z</time></trkpt><trkpt lat="44.6265583" lon="7.9945817"><ele>338.6666666666667</ele><time>2026-04-12T10:26:39.446Z</time></trkpt><trkpt lat="44.62652" lon="7.9946717"><ele>339.33333333333337</ele><time>2026-04-12T10:26:41.446Z</time></trkpt><trkpt lat="44.6264933" lon="7.99476"><ele>340.0</ele><time>2026-04-12T10:26:43.446Z</time></trkpt><trkpt lat="44.62647" lon="7.9948633"><ele>340.6666666666667</ele><time>2026-04-12T10:26:45.446Z</time></trkpt><trkpt lat="44.6264533" lon="7.994965"><ele>341.3333333333333</ele><time>2026-04-12T10:26:47.446Z</time></trkpt><trkpt lat="44.62643" lon="7.9950633"><ele>342.0</ele><time>2026-04-12T10:26:49.446Z</time></trkpt><trkpt lat="44.6264033" lon="7.9951733"><ele>343.6666666666667</ele><time>2026-04-12T10:26:51.446Z</time></trkpt><trkpt lat="44.6263717" lon="7.995295"><ele>345.3333333333333</ele><time>2026-04-12T10:26:53.446Z</time></trkpt><trkpt lat="44.6263417" lon="7.9954117"><ele>347.0</ele><time>2026-04-12T10:26:55.446Z</time></trkpt><trkpt lat="44.6263117" lon="7.9955233"><ele>348.66666666666663</ele><time>2026-04-12T10:26:57.446Z</time></trkpt><trkpt lat="44.62628" lon="7.9956333"><ele>350.3333333333333</ele><time>2026-04-12T10:26:59.446Z</time></trkpt><trkpt lat="44.6262483" lon="7.9957333"><ele>352.0</ele><time>2026-04-12T10:27:01.446Z</time></trkpt><trkpt lat="44.6262133" lon="7.99585"><ele>352.8333333333333</ele><time>2026-04-12T10:27:03.446Z</time></trkpt><trkpt lat="44.6261833" lon="7.9959617"><ele>353.66666666666663</ele><time>2026-04-12T10:27:05.446Z</time></trkpt><trkpt lat="44.626145" lon="7.9960583"><ele>354.5</ele><time>2026-04-12T10:27:07.447Z</time></trkpt><trkpt lat="44.62608" lon="7.9961367"><ele>355.3333333333333</ele><time>2026-04-12T10:27:09.446Z</time></trkpt><trkpt lat="44.626005" lon="7.9961883"><ele>356.1666666666667</ele><time>2026-04-12T10:27:11.446Z</time></trkpt><trkpt lat="44.6259217" lon="7.99621"><ele>357.0</ele><time>2026-04-12T10:27:13.446Z</time></trkpt><trkpt lat="44.62583" lon="7.9961917"><ele>357.0</ele><time>2026-04-12T10:27:15.446Z</time></trkpt><trkpt lat="44.625735" lon="7.9961667"><ele>357.0</ele><time>2026-04-12T10:27:17.446Z</time></trkpt><trkpt lat="44.6256417" lon="7.99614"><ele>357.0</ele><time>2026-04-12T10:27:19.446Z</time></trkpt><trkpt lat="44.6255533" lon="7.9961133"><ele>357.0</ele><time>2026-04-12T10:27:21.446Z</time></trkpt><trkpt lat="44.6254617" lon="7.9960967"><ele>357.0</ele><time>2026-04-12T10:27:23.446Z</time></trkpt><trkpt lat="44.6253717" lon="7.99607"><ele>358.40000000000003</ele><time>2026-04-12T10:27:25.446Z</time></trkpt><trkpt lat="44.6252783" lon="7.9960433"><ele>359.8</ele><time>2026-04-12T10:27:27.446Z</time></trkpt><trkpt lat="44.6251817" lon="7.9960233"><ele>361.2</ele><time>2026-04-12T10:27:29.447Z</time></trkpt><trkpt lat="44.6250883" lon="7.9959883"><ele>362.6</ele><time>2026-04-12T10:27:31.446Z</time></trkpt><trkpt lat="44.6249967" lon="7.995965"><ele>364.0</ele><time>2026-04-12T10:27:33.446Z</time></trkpt><trkpt lat="44.6248967" lon="7.9959367"><ele>364.0</ele><time>2026-04-12T10:27:35.446Z</time></trkpt><trkpt lat="44.6248" lon="7.9959033"><ele>364.0</ele><time>2026-04-12T10:27:37.446Z</time></trkpt><trkpt lat="44.6246967" lon="7.9958633"><ele>364.0</ele><time>2026-04-12T10:27:39.446Z</time></trkpt><trkpt lat="44.6246083" lon="7.99581"><ele>364.0</ele><time>2026-04-12T10:27:41.446Z</time></trkpt><trkpt lat="44.6245167" lon="7.995765"><ele>364.0</ele><time>2026-04-12T10:27:43.446Z</time></trkpt><trkpt lat="44.6244283" lon="7.99571"><ele>362.6</ele><time>2026-04-12T10:27:45.446Z</time></trkpt><trkpt lat="44.62433" lon="7.9956333"><ele>361.2</ele><time>2026-04-12T10:27:47.446Z</time></trkpt><trkpt lat="44.624235" lon="7.9955517"><ele>359.8</ele><time>2026-04-12T10:27:49.446Z</time></trkpt><trkpt lat="44.624135" lon="7.9954733"><ele>358.40000000000003</ele><time>2026-04-12T10:27:51.446Z</time></trkpt><trkpt lat="44.6240483" lon="7.995395"><ele>357.0</ele><time>2026-04-12T10:27:53.446Z</time></trkpt><trkpt lat="44.6239467" lon="7.99532"><ele>357.0</ele><time>2026-04-12T10:27:55.446Z</time></trkpt><trkpt lat="44.6238483" lon="7.9952417"><ele>357.0</ele><time>2026-04-12T10:27:57.446Z</time></trkpt><trkpt lat="44.6237517" lon="7.995165"><ele>357.0</ele><time>2026-04-12T10:27:59.446Z</time></trkpt><trkpt lat="44.6236583" lon="7.9950883"><ele>357.0</ele><time>2026-04-12T10:28:01.447Z</time></trkpt><trkpt lat="44.6235683" lon="7.9950117"><ele>357.0</ele><time>2026-04-12T10:28:03.446Z</time></trkpt><trkpt lat="44.6234733" lon="7.9949417"><ele>356.20000000000005</ele><time>2026-04-12T10:28:05.446Z</time></trkpt><trkpt lat="44.6233833" lon="7.9948617"><ele>355.4</ele><time>2026-04-12T10:28:07.446Z</time></trkpt><trkpt lat="44.623295" lon="7.99479"><ele>354.6</ele><time>2026-04-12T10:28:09.446Z</time></trkpt><trkpt lat="44.623205" lon="7.994715"><ele>353.79999999999995</ele><time>2026-04-12T10:28:11.446Z</time></trkpt><trkpt lat="44.6231167" lon="7.99465"><ele>353.0</ele><time>2026-04-12T10:28:13.446Z</time></trkpt><trkpt lat="44.62303" lon="7.9945867"><ele>353.0</ele><time>2026-04-12T10:28:15.446Z</time></trkpt><trkpt lat="44.6229333" lon="7.9945433"><ele>353.0</ele><time>2026-04-12T10:28:17.446Z</time></trkpt><trkpt lat="44.6228367" lon="7.9945133"><ele>353.0</ele><time>2026-04-12T10:28:19.446Z</time></trkpt><trkpt lat="44.622735" lon="7.9945"><ele>353.0</ele><time>2026-04-12T10:28:21.446Z</time></trkpt><trkpt lat="44.622635" lon="7.9945067"><ele>353.0</ele><time>2026-04-12T10:28:23.446Z</time></trkpt><trkpt lat="44.6225383" lon="7.9945233"><ele>354.59999999999997</ele><time>2026-04-12T10:28:25.446Z</time></trkpt><trkpt lat="44.6224417" lon="7.9945467"><ele>356.2</ele><time>2026-04-12T10:28:27.446Z</time></trkpt><trkpt lat="44.6223433" lon="7.9945883"><ele>357.8</ele><time>2026-04-12T10:28:29.446Z</time></trkpt><trkpt lat="44.6222517" lon="7.9946417"><ele>359.4</ele><time>2026-04-12T10:28:31.446Z</time></trkpt><trkpt lat="44.6221617" lon="7.994695"><ele>361.0</ele><time>2026-04-12T10:28:33.446Z</time></trkpt><trkpt lat="44.622065" lon="7.9947633"><ele>358.75</ele><time>2026-04-12T10:28:35.446Z</time></trkpt><trkpt lat="44.6219667" lon="7.994845"><ele>356.5</ele><time>2026-04-12T10:28:37.446Z</time></trkpt><trkpt lat="44.62187" lon="7.994925"><ele>354.25</ele><time>2026-04-12T10:28:39.446Z</time></trkpt><trkpt lat="44.6217683" lon="7.995"><ele>352.0</ele><time>2026-04-12T10:28:41.447Z</time></trkpt><trkpt lat="44.6216667" lon="7.9950683"><ele>351.75</ele><time>2026-04-12T10:28:43.446Z</time></trkpt><trkpt lat="44.62156" lon="7.995135"><ele>351.5</ele><time>2026-04-12T10:28:45.446Z</time></trkpt><trkpt lat="44.621445" lon="7.9951967"><ele>351.25</ele><time>2026-04-12T10:28:47.446Z</time></trkpt><trkpt lat="44.62134" lon="7.99526"><ele>351.0</ele><time>2026-04-12T10:28:49.446Z</time></trkpt><trkpt lat="44.6212233" lon="7.9953183"><ele>352.5</ele><time>2026-04-12T10:28:51.446Z</time></trkpt><trkpt lat="44.621105" lon="7.99536"><ele>354.0</ele><time>2026-04-12T10:28:53.446Z</time></trkpt><trkpt lat="44.620985" lon="7.995395"><ele>355.5</ele><time>2026-04-12T10:28:55.446Z</time></trkpt><trkpt lat="44.6208717" lon="7.9954"><ele>357.0</ele><time>2026-04-12T10:28:57.446Z</time></trkpt><trkpt lat="44.620765" lon="7.9953917"><ele>357.0</ele><time>2026-04-12T10:28:59.446Z</time></trkpt><trkpt lat="44.6206567" lon="7.9953767"><ele>357.0</ele><time>2026-04-12T10:29:01.446Z</time></trkpt><trkpt lat="44.6205483" lon="7.99537"><ele>357.0</ele><time>2026-04-12T10:29:03.446Z</time></trkpt><trkpt lat="44.6204567" lon="7.99537"><ele>357.0</ele><time>2026-04-12T10:29:05.446Z</time></trkpt><trkpt lat="44.62037" lon="7.9953683"><ele>357.0</ele><time>2026-04-12T10:29:07.446Z</time></trkpt><trkpt lat="44.6202833" lon="7.995375"><ele>358.3333333333333</ele><time>2026-04-12T10:29:09.446Z</time></trkpt><trkpt lat="44.6202017" lon="7.9954"><ele>359.6666666666667</ele><time>2026-04-12T10:29:11.446Z</time></trkpt><trkpt lat="44.6201067" lon="7.995415"><ele>361.0</ele><time>2026-04-12T10:29:13.447Z</time></trkpt><trkpt lat="44.6200183" lon="7.99543"><ele>362.33333333333337</ele><time>2026-04-12T10:29:15.446Z</time></trkpt><trkpt lat="44.619935" lon="7.9954483"><ele>363.6666666666667</ele><time>2026-04-12T10:29:17.446Z</time></trkpt><trkpt lat="44.6198583" lon="7.99546"><ele>365.0</ele><time>2026-04-12T10:29:19.446Z</time></trkpt><trkpt lat="44.6197767" lon="7.995475"><ele>365.0</ele><time>2026-04-12T10:29:21.446Z</time></trkpt><trkpt lat="44.6196917" lon="7.9954933"><ele>365.0</ele><time>2026-04-12T10:29:23.446Z</time></trkpt><trkpt lat="44.6196083" lon="7.995505"><ele>365.0</ele><time>2026-04-12T10:29:25.446Z</time></trkpt><trkpt lat="44.6195283" lon="7.9955267"><ele>365.0</ele><time>2026-04-12T10:29:27.446Z</time></trkpt><trkpt lat="44.6194567" lon="7.9955533"><ele>365.0</ele><time>2026-04-12T10:29:29.445Z</time></trkpt><trkpt lat="44.6193933" lon="7.9955883"><ele>365.0</ele><time>2026-04-12T10:29:31.445Z</time></trkpt><trkpt lat="44.6193233" lon="7.9956383"><ele>365.1666666666667</ele><time>2026-04-12T10:29:33.445Z</time></trkpt><trkpt lat="44.6192667" lon="7.9957117"><ele>365.33333333333337</ele><time>2026-04-12T10:29:35.445Z</time></trkpt><trkpt lat="44.6192167" lon="7.9958"><ele>365.5</ele><time>2026-04-12T10:29:37.445Z</time></trkpt><trkpt lat="44.6191783" lon="7.9959"><ele>365.6666666666667</ele><time>2026-04-12T10:29:39.445Z</time></trkpt><trkpt lat="44.6191517" lon="7.996015"><ele>365.8333333333333</ele><time>2026-04-12T10:29:41.445Z</time></trkpt><trkpt lat="44.619145" lon="7.9961317"><ele>366.0</ele><time>2026-04-12T10:29:43.445Z</time></trkpt><trkpt lat="44.6191483" lon="7.9962617"><ele>366.0</ele><time>2026-04-12T10:29:45.445Z</time></trkpt><trkpt lat="44.6191567" lon="7.99638"><ele>366.0</ele><time>2026-04-12T10:29:47.445Z</time></trkpt><trkpt lat="44.6191617" lon="7.996485"><ele>366.0</ele><time>2026-04-12T10:29:49.445Z</time></trkpt><trkpt lat="44.6191633" lon="7.9965867"><ele>366.0</ele><time>2026-04-12T10:29:51.445Z</time></trkpt><trkpt lat="44.6191583" lon="7.9966933"><ele>366.0</ele><time>2026-04-12T10:29:53.445Z</time></trkpt><trkpt lat="44.6191483" lon="7.9967983"><ele>366.0</ele><time>2026-04-12T10:29:55.445Z</time></trkpt><trkpt lat="44.619125" lon="7.9968983"><ele>366.7142857142857</ele><time>2026-04-12T10:29:57.445Z</time></trkpt><trkpt lat="44.6191067" lon="7.9969967"><ele>367.42857142857144</ele><time>2026-04-12T10:29:59.445Z</time></trkpt><trkpt lat="44.619085" lon="7.9970983"><ele>368.1428571428571</ele><time>2026-04-12T10:30:01.445Z</time></trkpt><trkpt lat="44.6190567" lon="7.9972"><ele>368.8571428571429</ele><time>2026-04-12T10:30:03.445Z</time></trkpt><trkpt lat="44.6190317" lon="7.9972983"><ele>369.57142857142856</ele><time>2026-04-12T10:30:05.445Z</time></trkpt><trkpt lat="44.619005" lon="7.9973933"><ele>370.2857142857143</ele><time>2026-04-12T10:30:07.445Z</time></trkpt><trkpt lat="44.6189733" lon="7.9974717"><ele>371.0</ele><time>2026-04-12T10:30:09.445Z</time></trkpt><trkpt lat="44.6189367" lon="7.9975617"><ele>371.0</ele><time>2026-04-12T10:30:11.445Z</time></trkpt><trkpt lat="44.6189017" lon="7.99765"><ele>371.0</ele><time>2026-04-12T10:30:13.446Z</time></trkpt><trkpt lat="44.6188633" lon="7.99773"><ele>371.0</ele><time>2026-04-12T10:30:15.445Z</time></trkpt><trkpt lat="44.61881" lon="7.9978017"><ele>371.0</ele><time>2026-04-12T10:30:17.445Z</time></trkpt><trkpt lat="44.61876" lon="7.99788"><ele>371.0</ele><time>2026-04-12T10:30:19.445Z</time></trkpt><trkpt lat="44.6187083" lon="7.9979583"><ele>371.0</ele><time>2026-04-12T10:30:21.445Z</time></trkpt><trkpt lat="44.618655" lon="7.998035"><ele>371.0</ele><time>2026-04-12T10:30:23.445Z</time></trkpt><trkpt lat="44.6186033" lon="7.9981033"><ele>371.33333333333337</ele><time>2026-04-12T10:30:25.446Z</time></trkpt><trkpt lat="44.6185433" lon="7.99817"><ele>371.6666666666667</ele><time>2026-04-12T10:30:27.445Z</time></trkpt><trkpt lat="44.6184883" lon="7.998245"><ele>372.0</ele><time>2026-04-12T10:30:29.445Z</time></trkpt><trkpt lat="44.6184233" lon="7.9983133"><ele>372.3333333333333</ele><time>2026-04-12T10:30:31.445Z</time></trkpt><trkpt lat="44.61835" lon="7.9983817"><ele>372.66666666666663</ele><time>2026-04-12T10:30:33.445Z</time></trkpt><trkpt lat="44.61827" lon="7.9984433"><ele>373.0</ele><time>2026-04-12T10:30:35.445Z</time></trkpt><trkpt lat="44.6181917" lon="7.9984967"><ele>373.0</ele><time>2026-04-12T10:30:37.445Z</time></trkpt><trkpt lat="44.618095" lon="7.9985433"><ele>373.0</ele><time>2026-04-12T10:30:39.445Z</time></trkpt><trkpt lat="44.6179933" lon="7.99858"><ele>373.0</ele><time>2026-04-12T10:30:41.445Z</time></trkpt><trkpt lat="44.61788" lon="7.9986217"><ele>373.0</ele><time>2026-04-12T10:30:43.445Z</time></trkpt><trkpt lat="44.617815" lon="7.9986417"><ele>373.0</ele><time>2026-04-12T10:30:44.445Z</time></trkpt><trkpt lat="44.6177517" lon="7.99866"><ele>373.0</ele><time>2026-04-12T10:30:45.445Z</time></trkpt><trkpt lat="44.6176417" lon="7.9987"><ele>373.0</ele><time>2026-04-12T10:30:47.445Z</time></trkpt><trkpt lat="44.6175283" lon="7.9987533"><ele>373.0</ele><time>2026-04-12T10:30:49.445Z</time></trkpt><trkpt lat="44.6174167" lon="7.9988283"><ele>373.0</ele><time>2026-04-12T10:30:51.445Z</time></trkpt><trkpt lat="44.6173133" lon="7.9989283"><ele>373.0</ele><time>2026-04-12T10:30:53.446Z</time></trkpt><trkpt lat="44.6172217" lon="7.9990417"><ele>373.0</ele><time>2026-04-12T10:30:55.445Z</time></trkpt><trkpt lat="44.6171317" lon="7.999165"><ele>373.0</ele><time>2026-04-12T10:30:57.445Z</time></trkpt><trkpt lat="44.6170583" lon="7.9992983"><ele>373.0</ele><time>2026-04-12T10:30:59.445Z</time></trkpt><trkpt lat="44.6169933" lon="7.99944"><ele>374.4</ele><time>2026-04-12T10:31:01.445Z</time></trkpt><trkpt lat="44.61693" lon="7.9995667"><ele>375.79999999999995</ele><time>2026-04-12T10:31:03.445Z</time></trkpt><trkpt lat="44.6168583" lon="7.9996933"><ele>377.2</ele><time>2026-04-12T10:31:05.445Z</time></trkpt><trkpt lat="44.616795" lon="7.9998217"><ele>378.6</ele><time>2026-04-12T10:31:07.445Z</time></trkpt><trkpt lat="44.6167367" lon="7.99994"><ele>380.0</ele><time>2026-04-12T10:31:09.445Z</time></trkpt><trkpt lat="44.6166683" lon="8.0000433"><ele>380.0</ele><time>2026-04-12T10:31:11.445Z</time></trkpt><trkpt lat="44.61659" lon="8.000135"><ele>380.0</ele><time>2026-04-12T10:31:13.445Z</time></trkpt><trkpt lat="44.6165033" lon="8.0002233"><ele>380.0</ele><time>2026-04-12T10:31:15.445Z</time></trkpt><trkpt lat="44.6164133" lon="8.0003117"><ele>380.0</ele><time>2026-04-12T10:31:17.445Z</time></trkpt><trkpt lat="44.6163233" lon="8.000385"><ele>380.0</ele><time>2026-04-12T10:31:19.445Z</time></trkpt><trkpt lat="44.6162417" lon="8.0004517"><ele>380.0</ele><time>2026-04-12T10:31:21.445Z</time></trkpt><trkpt lat="44.616155" lon="8.0005067"><ele>380.0</ele><time>2026-04-12T10:31:23.445Z</time></trkpt><trkpt lat="44.6160583" lon="8.000555"><ele>380.0</ele><time>2026-04-12T10:31:25.446Z</time></trkpt><trkpt lat="44.6159667" lon="8.0005983"><ele>380.0</ele><time>2026-04-12T10:31:27.445Z</time></trkpt><trkpt lat="44.6158717" lon="8.0006433"><ele>380.0</ele><time>2026-04-12T10:31:29.445Z</time></trkpt><trkpt lat="44.6157833" lon="8.000685"><ele>380.4</ele><time>2026-04-12T10:31:31.445Z</time></trkpt><trkpt lat="44.615695" lon="8.000735"><ele>380.8</ele><time>2026-04-12T10:31:33.445Z</time></trkpt><trkpt lat="44.6156017" lon="8.0007767"><ele>381.20000000000005</ele><time>2026-04-12T10:31:35.445Z</time></trkpt><trkpt lat="44.615505" lon="8.0008233"><ele>381.6</ele><time>2026-04-12T10:31:37.445Z</time></trkpt><trkpt lat="44.615415" lon="8.0008517"><ele>382.0</ele><time>2026-04-12T10:31:39.445Z</time></trkpt><trkpt lat="44.61532" lon="8.00088"><ele>382.0</ele><time>2026-04-12T10:31:41.446Z</time></trkpt><trkpt lat="44.61522" lon="8.0009283"><ele>382.0</ele><time>2026-04-12T10:31:43.445Z</time></trkpt><trkpt lat="44.615125" lon="8.00098"><ele>382.0</ele><time>2026-04-12T10:31:45.445Z</time></trkpt><trkpt lat="44.6150367" lon="8.00103"><ele>382.0</ele><time>2026-04-12T10:31:47.445Z</time></trkpt><trkpt lat="44.6149417" lon="8.0010767"><ele>382.0</ele><time>2026-04-12T10:31:49.445Z</time></trkpt><trkpt lat="44.61485" lon="8.0011183"><ele>382.0</ele><time>2026-04-12T10:31:51.445Z</time></trkpt><trkpt lat="44.6147517" lon="8.001155"><ele>382.0</ele><time>2026-04-12T10:31:53.445Z</time></trkpt><trkpt lat="44.6146533" lon="8.0011917"><ele>382.0</ele><time>2026-04-12T10:31:55.445Z</time></trkpt><trkpt lat="44.6145367" lon="8.001225"><ele>382.0</ele><time>2026-04-12T10:31:57.445Z</time></trkpt><trkpt lat="44.614475" lon="8.0012483"><ele>382.0</ele><time>2026-04-12T10:31:58.445Z</time></trkpt><trkpt lat="44.6143467" lon="8.00128"><ele>381.7142857142857</ele><time>2026-04-12T10:32:00.445Z</time></trkpt><trkpt lat="44.6142733" lon="8.0012967"><ele>381.4285714285714</ele><time>2026-04-12T10:32:01.445Z</time></trkpt><trkpt lat="44.6141983" lon="8.0013067"><ele>381.1428571428571</ele><time>2026-04-12T10:32:02.446Z</time></trkpt><trkpt lat="44.6141217" lon="8.0013183"><ele>380.8571428571429</ele><time>2026-04-12T10:32:03.445Z</time></trkpt><trkpt lat="44.6140483" lon="8.001335"><ele>380.57142857142856</ele><time>2026-04-12T10:32:04.445Z</time></trkpt><trkpt lat="44.6139817" lon="8.0013483"><ele>380.2857142857143</ele><time>2026-04-12T10:32:05.445Z</time></trkpt><trkpt lat="44.6139133" lon="8.0013683"><ele>380.0</ele><time>2026-04-12T10:32:06.445Z</time></trkpt><trkpt lat="44.6138333" lon="8.0013683"><ele>380.0</ele><time>2026-04-12T10:32:07.445Z</time></trkpt><trkpt lat="44.6137567" lon="8.0013667"><ele>380.0</ele><time>2026-04-12T10:32:08.445Z</time></trkpt><trkpt lat="44.613675" lon="8.0013733"><ele>380.0</ele><time>2026-04-12T10:32:09.445Z</time></trkpt><trkpt lat="44.6136083" lon="8.0013817"><ele>380.0</ele><time>2026-04-12T10:32:10.445Z</time></trkpt><trkpt lat="44.6135317" lon="8.0013917"><ele>380.0</ele><time>2026-04-12T10:32:11.445Z</time></trkpt><trkpt lat="44.6134583" lon="8.0013883"><ele>380.0</ele><time>2026-04-12T10:32:12.445Z</time></trkpt><trkpt lat="44.6133867" lon="8.0013933"><ele>380.0</ele><time>2026-04-12T10:32:13.446Z</time></trkpt><trkpt lat="44.6133133" lon="8.0013967"><ele>379.8571428571429</ele><time>2026-04-12T10:32:14.445Z</time></trkpt><trkpt lat="44.613245" lon="8.001395"><ele>379.7142857142857</ele><time>2026-04-12T10:32:15.445Z</time></trkpt><trkpt lat="44.61318" lon="8.0013867"><ele>379.57142857142856</ele><time>2026-04-12T10:32:16.445Z</time></trkpt><trkpt lat="44.613115" lon="8.0013783"><ele>379.42857142857144</ele><time>2026-04-12T10:32:17.445Z</time></trkpt><trkpt lat="44.6130483" lon="8.00136"><ele>379.2857142857143</ele><time>2026-04-12T10:32:18.445Z</time></trkpt><trkpt lat="44.6129833" lon="8.0013383"><ele>379.14285714285717</ele><time>2026-04-12T10:32:19.445Z</time></trkpt><trkpt lat="44.6129217" lon="8.0013133"><ele>379.0</ele><time>2026-04-12T10:32:20.445Z</time></trkpt><trkpt lat="44.6128033" lon="8.0012667"><ele>379.0</ele><time>2026-04-12T10:32:22.445Z</time></trkpt><trkpt lat="44.6126933" lon="8.0012067"><ele>379.0</ele><time>2026-04-12T10:32:24.445Z</time></trkpt><trkpt lat="44.6125883" lon="8.001135"><ele>379.0</ele><time>2026-04-12T10:32:26.445Z</time></trkpt><trkpt lat="44.61248" lon="8.0010683"><ele>379.0</ele><time>2026-04-12T10:32:28.445Z</time></trkpt><trkpt lat="44.6123667" lon="8.0010067"><ele>379.0</ele><time>2026-04-12T10:32:30.445Z</time></trkpt><trkpt lat="44.6122533" lon="8.0009583"><ele>379.0</ele><time>2026-04-12T10:32:32.445Z</time></trkpt><trkpt lat="44.6121467" lon="8.00089"><ele>379.0</ele><time>2026-04-12T10:32:34.445Z</time></trkpt><trkpt lat="44.6120517" lon="8.0008133"><ele>379.0</ele><time>2026-04-12T10:32:36.445Z</time></trkpt><trkpt lat="44.6119667" lon="8.0007417"><ele>379.0</ele><time>2026-04-12T10:32:38.445Z</time></trkpt><trkpt lat="44.6118817" lon="8.0006917"><ele>379.16666666666663</ele><time>2026-04-12T10:32:40.445Z</time></trkpt><trkpt lat="44.6117867" lon="8.0006017"><ele>379.3333333333333</ele><time>2026-04-12T10:32:43.445Z</time></trkpt><trkpt lat="44.6117167" lon="8.0005583"><ele>379.5</ele><time>2026-04-12T10:32:45.445Z</time></trkpt><trkpt lat="44.6116483" lon="8.0005217"><ele>379.6666666666667</ele><time>2026-04-12T10:32:47.445Z</time></trkpt><trkpt lat="44.611575" lon="8.00048"><ele>379.83333333333337</ele><time>2026-04-12T10:32:50.445Z</time></trkpt><trkpt lat="44.6115133" lon="8.0004517"><ele>380.0</ele><time>2026-04-12T10:32:53.445Z</time></trkpt><trkpt lat="44.6114517" lon="8.0004983"><ele>380.0</ele><time>2026-04-12T10:32:58.445Z</time></trkpt><trkpt lat="44.6114017" lon="8.0005883"><ele>380.0</ele><time>2026-04-12T10:33:02.445Z</time></trkpt><trkpt lat="44.611365" lon="8.0006967"><ele>380.0</ele><time>2026-04-12T10:33:05.445Z</time></trkpt><trkpt lat="44.6113267" lon="8.0008117"><ele>380.0</ele><time>2026-04-12T10:33:08.445Z</time></trkpt><trkpt lat="44.6112983" lon="8.0006983"><ele>380.0</ele><time>2026-04-12T10:33:27.445Z</time></trkpt><trkpt lat="44.6112917" lon="8.000595"><ele>380.0</ele><time>2026-04-12T10:33:30.445Z</time></trkpt><trkpt lat="44.611265" lon="8.0005"><ele>380.0</ele><time>2026-04-12T10:33:33.445Z</time></trkpt><trkpt lat="44.611235" lon="8.0004083"><ele>380.0</ele><time>2026-04-12T10:33:37.445Z</time></trkpt><trkpt lat="44.6112133" lon="8.0003217"><ele>380.0</ele><time>2026-04-12T10:33:42.445Z</time></trkpt><trkpt lat="44.6111233" lon="8.0003717"><ele>380.0</ele><time>2026-04-12T10:33:50.445Z</time></trkpt><trkpt lat="44.611045" lon="8.0004167"><ele>380.0</ele><time>2026-04-12T10:33:53.445Z</time></trkpt><trkpt lat="44.610995" lon="8.000515"><ele>380.0</ele><time>2026-04-12T10:33:58.445Z</time></trkpt><trkpt lat="44.61097" lon="8.00042"><ele>382.42857142857144</ele><time>2026-04-12T10:34:08.445Z</time></trkpt><trkpt lat="44.61097" lon="8.0003283"><ele>384.8571428571429</ele><time>2026-04-12T10:34:11.445Z</time></trkpt><trkpt lat="44.610955" lon="8.0002417"><ele>387.2857142857143</ele><time>2026-04-12T10:34:14.445Z</time></trkpt><trkpt lat="44.610915" lon="8.0001567"><ele>389.7142857142857</ele><time>2026-04-12T10:34:17.445Z</time></trkpt><trkpt lat="44.6108267" lon="8.0001083"><ele>392.1428571428571</ele><time>2026-04-12T10:34:20.445Z</time></trkpt><trkpt lat="44.6107467" lon="8.000095"><ele>394.57142857142856</ele><time>2026-04-12T10:34:23.445Z</time></trkpt><trkpt lat="44.6106767" lon="8.0000767"><ele>397.0</ele><time>2026-04-12T10:34:26.446Z</time></trkpt><trkpt lat="44.6106067" lon="8.0000683"><ele>397.0</ele><time>2026-04-12T10:34:31.445Z</time></trkpt><trkpt lat="44.610565" lon="8.000145"><ele>397.0</ele><time>2026-04-12T10:34:36.445Z</time></trkpt><trkpt lat="44.61057" lon="8.0002483"><ele>397.0</ele><time>2026-04-12T10:34:41.445Z</time></trkpt><trkpt lat="44.610545" lon="8.0003417"><ele>397.0</ele><time>2026-04-12T10:34:46.445Z</time></trkpt><trkpt lat="44.6106017" lon="8.0004183"><ele>397.0</ele><time>2026-04-12T10:34:55.445Z</time></trkpt><trkpt lat="44.610665" lon="8.0004367"><ele>397.0</ele><time>2026-04-12T10:34:57.445Z</time></trkpt><trkpt lat="44.6107367" lon="8.0004333"><ele>397.0</ele><time>2026-04-12T10:34:59.445Z</time></trkpt><trkpt lat="44.6108" lon="8.00039"><ele>397.0</ele><time>2026-04-12T10:35:02.445Z</time></trkpt><trkpt lat="44.6107183" lon="8.0003883"><ele>397.0</ele><time>2026-04-12T10:35:09.445Z</time></trkpt><trkpt lat="44.6106533" lon="8.0004333"><ele>397.0</ele><time>2026-04-12T10:35:11.445Z</time></trkpt><trkpt lat="44.61058" lon="8.0003267"><ele>397.0</ele><time>2026-04-12T10:35:27.445Z</time></trkpt><trkpt lat="44.6105783" lon="8.000135"><ele>397.0</ele><time>2026-04-12T10:36:12.445Z</time></trkpt><trkpt lat="44.610655" lon="8.00008"><ele>397.00000000000006</ele><time>2026-04-12T10:36:15.445Z</time></trkpt><trkpt lat="44.6107267" lon="8.0000883"><ele>397.0</ele><time>2026-04-12T10:36:20.446Z</time></trkpt><trkpt lat="44.610815" lon="8.000105"><ele>397.0</ele><time>2026-04-12T10:36:23.445Z</time></trkpt><trkpt lat="44.6108783" lon="8.0001733"><ele>397.0</ele><time>2026-04-12T10:36:26.445Z</time></trkpt><trkpt lat="44.610905" lon="8.000295"><ele>397.00000000000006</ele><time>2026-04-12T10:36:28.445Z</time></trkpt><trkpt lat="44.6109167" lon="8.0003983"><ele>397.0</ele><time>2026-04-12T10:36:30.445Z</time></trkpt><trkpt lat="44.6108983" lon="8.0005"><ele>397.00000000000006</ele><time>2026-04-12T10:36:33.445Z</time></trkpt><trkpt lat="44.6109633" lon="8.00055"><ele>397.0</ele><time>2026-04-12T10:36:37.445Z</time></trkpt><trkpt lat="44.6109167" lon="8.0006483"><ele>397.0</ele><time>2026-04-12T10:36:46.445Z</time></trkpt><trkpt lat="44.6108817" lon="8.00075"><ele>397.0</ele><time>2026-04-12T10:36:48.445Z</time></trkpt><trkpt lat="44.61084" lon="8.000825"><ele>397.00000000000006</ele><time>2026-04-12T10:36:50.445Z</time></trkpt><trkpt lat="44.6107667" lon="8.0008767"><ele>397.0</ele><time>2026-04-12T10:36:52.445Z</time></trkpt><trkpt lat="44.610665" lon="8.0009217"><ele>397.00000000000006</ele><time>2026-04-12T10:36:54.445Z</time></trkpt><trkpt lat="44.6106" lon="8.0009183"><ele>397.0</ele><time>2026-04-12T10:36:55.445Z</time></trkpt><trkpt lat="44.610515" lon="8.0008583"><ele>397.0</ele><time>2026-04-12T10:36:57.445Z</time></trkpt><trkpt lat="44.610455" lon="8.000785"><ele>397.0</ele><time>2026-04-12T10:36:59.445Z</time></trkpt><trkpt lat="44.6104083" lon="8.0006583"><ele>397.00000000000006</ele><time>2026-04-12T10:37:02.445Z</time></trkpt><trkpt lat="44.610345" lon="8.0005867"><ele>397.0</ele><time>2026-04-12T10:37:04.445Z</time></trkpt><trkpt lat="44.610285" lon="8.0005133"><ele>396.33333333333337</ele><time>2026-04-12T10:37:06.445Z</time></trkpt><trkpt lat="44.6102383" lon="8.000415"><ele>395.6666666666667</ele><time>2026-04-12T10:37:09.445Z</time></trkpt><trkpt lat="44.6101767" lon="8.0003583"><ele>395.0</ele><time>2026-04-12T10:37:12.445Z</time></trkpt><trkpt lat="44.610095" lon="8.0003467"><ele>394.33333333333337</ele><time>2026-04-12T10:37:14.445Z</time></trkpt><trkpt lat="44.6100233" lon="8.0003267"><ele>393.6666666666667</ele><time>2026-04-12T10:37:15.445Z</time></trkpt><trkpt lat="44.6099533" lon="8.0003083"><ele>393.0</ele><time>2026-04-12T10:37:16.445Z</time></trkpt><trkpt lat="44.609885" lon="8.000285"><ele>393.0</ele><time>2026-04-12T10:37:17.445Z</time></trkpt><trkpt lat="44.6097717" lon="8.00026"><ele>393.0</ele><time>2026-04-12T10:37:19.445Z</time></trkpt><trkpt lat="44.6096917" lon="8.0002333"><ele>393.0</ele><time>2026-04-12T10:37:22.445Z</time></trkpt><trkpt lat="44.60959" lon="8.0002183"><ele>393.0</ele><time>2026-04-12T10:37:36.445Z</time></trkpt><trkpt lat="44.6095283" lon="8.00024"><ele>393.0</ele><time>2026-04-12T10:37:38.445Z</time></trkpt><trkpt lat="44.6094583" lon="8.0002867"><ele>393.0</ele><time>2026-04-12T10:37:41.445Z</time></trkpt><trkpt lat="44.6093952" lon="8.0002786"><ele>391.3333333333333</ele><time>2026-04-12T10:41:37.51Z</time></trkpt><trkpt lat="44.6093255" lon="8.0003108"><ele>389.6666666666667</ele><time>2026-04-12T10:41:42.445Z</time></trkpt><trkpt lat="44.6092559" lon="8.0003631"><ele>388.0</ele><time>2026-04-12T10:41:44.523Z</time></trkpt><trkpt lat="44.6091737" lon="8.0004287"><ele>386.33333333333337</ele><time>2026-04-12T10:41:46.512Z</time></trkpt><trkpt lat="44.6091156" lon="8.0004868"><ele>384.6666666666667</ele><time>2026-04-12T10:41:48.5Z</time></trkpt><trkpt lat="44.6090352" lon="8.0005474"><ele>383.0</ele><time>2026-04-12T10:41:51.536Z</time></trkpt><trkpt lat="44.6089786" lon="8.0005988"><ele>383.0</ele><time>2026-04-12T10:41:53.524Z</time></trkpt><trkpt lat="44.608908" lon="8.0006371"><ele>383.0</ele><time>2026-04-12T10:41:55.513Z</time></trkpt><trkpt lat="44.6088167" lon="8.0006517"><ele>383.0</ele><time>2026-04-12T10:41:57.513Z</time></trkpt><trkpt lat="44.6087317" lon="8.0006333"><ele>383.0</ele><time>2026-04-12T10:41:59.445Z</time></trkpt><trkpt lat="44.6086467" lon="8.000645"><ele>383.0</ele><time>2026-04-12T10:42:01.445Z</time></trkpt><trkpt lat="44.6085583" lon="8.00061"><ele>383.0</ele><time>2026-04-12T10:42:03.445Z</time></trkpt><trkpt lat="44.6084733" lon="8.0005867"><ele>382.5</ele><time>2026-04-12T10:42:05.445Z</time></trkpt><trkpt lat="44.6083933" lon="8.00058"><ele>382.0</ele><time>2026-04-12T10:42:07.445Z</time></trkpt><trkpt lat="44.608295" lon="8.0005467"><ele>381.5</ele><time>2026-04-12T10:42:09.445Z</time></trkpt><trkpt lat="44.608205" lon="8.00048"><ele>381.0</ele><time>2026-04-12T10:42:11.445Z</time></trkpt><trkpt lat="44.6081217" lon="8.00044"><ele>380.5</ele><time>2026-04-12T10:42:13.445Z</time></trkpt><trkpt lat="44.60806" lon="8.0004217"><ele>380.0</ele><time>2026-04-12T10:42:14.445Z</time></trkpt><trkpt lat="44.6079983" lon="8.0003933"><ele>380.0</ele><time>2026-04-12T10:42:15.445Z</time></trkpt><trkpt lat="44.60793" lon="8.0003567"><ele>380.0</ele><time>2026-04-12T10:42:16.445Z</time></trkpt><trkpt lat="44.60787" lon="8.000325"><ele>380.0</ele><time>2026-04-12T10:42:17.445Z</time></trkpt><trkpt lat="44.60777" lon="8.0002817"><ele>380.0</ele><time>2026-04-12T10:42:19.446Z</time></trkpt><trkpt lat="44.6076717" lon="8.0002383"><ele>380.0</ele><time>2026-04-12T10:42:21.445Z</time></trkpt><trkpt lat="44.6075217" lon="8.0001883"><ele>381.0</ele><time>2026-04-12T10:42:24.445Z</time></trkpt><trkpt lat="44.607425" lon="8.0001433"><ele>382.0</ele><time>2026-04-12T10:42:26.445Z</time></trkpt><trkpt lat="44.6073333" lon="8.0000983"><ele>383.0</ele><time>2026-04-12T10:42:28.445Z</time></trkpt><trkpt lat="44.6072483" lon="8.00003"><ele>384.0</ele><time>2026-04-12T10:42:30.445Z</time></trkpt><trkpt lat="44.607175" lon="7.999975"><ele>385.0</ele><time>2026-04-12T10:42:32.445Z</time></trkpt><trkpt lat="44.6070883" lon="7.9999017"><ele>385.0</ele><time>2026-04-12T10:42:34.445Z</time></trkpt><trkpt lat="44.6070083" lon="7.999825"><ele>385.0</ele><time>2026-04-12T10:42:36.445Z</time></trkpt><trkpt lat="44.6069267" lon="7.9997617"><ele>385.0</ele><time>2026-04-12T10:42:38.445Z</time></trkpt><trkpt lat="44.6068467" lon="7.9996817"><ele>385.0</ele><time>2026-04-12T10:42:40.445Z</time></trkpt><trkpt lat="44.6067467" lon="7.9996017"><ele>385.0</ele><time>2026-04-12T10:42:42.445Z</time></trkpt><trkpt lat="44.606685" lon="7.9995683"><ele>385.85714285714283</ele><time>2026-04-12T10:42:43.445Z</time></trkpt><trkpt lat="44.6066217" lon="7.9995467"><ele>386.7142857142857</ele><time>2026-04-12T10:42:44.445Z</time></trkpt><trkpt lat="44.6065533" lon="7.9995317"><ele>387.57142857142856</ele><time>2026-04-12T10:42:45.445Z</time></trkpt><trkpt lat="44.6064833" lon="7.9995317"><ele>388.42857142857144</ele><time>2026-04-12T10:42:46.445Z</time></trkpt><trkpt lat="44.6064117" lon="7.9995383"><ele>389.2857142857143</ele><time>2026-04-12T10:42:47.445Z</time></trkpt><trkpt lat="44.60634" lon="7.99955"><ele>390.1428571428571</ele><time>2026-04-12T10:42:48.445Z</time></trkpt><trkpt lat="44.6062667" lon="7.9995633"><ele>391.0</ele><time>2026-04-12T10:42:49.445Z</time></trkpt><trkpt lat="44.6061867" lon="7.9995783"><ele>389.83333333333337</ele><time>2026-04-12T10:42:50.445Z</time></trkpt><trkpt lat="44.6061033" lon="7.9995867"><ele>388.6666666666667</ele><time>2026-04-12T10:42:51.445Z</time></trkpt><trkpt lat="44.60602" lon="7.999585"><ele>387.5</ele><time>2026-04-12T10:42:52.445Z</time></trkpt><trkpt lat="44.6059367" lon="7.99957"><ele>386.33333333333337</ele><time>2026-04-12T10:42:53.445Z</time></trkpt><trkpt lat="44.60585" lon="7.9995383"><ele>385.1666666666667</ele><time>2026-04-12T10:42:54.445Z</time></trkpt><trkpt lat="44.6057617" lon="7.9994983"><ele>384.0</ele><time>2026-04-12T10:42:55.445Z</time></trkpt><trkpt lat="44.6056783" lon="7.9994633"><ele>384.0</ele><time>2026-04-12T10:42:56.445Z</time></trkpt><trkpt lat="44.605595" lon="7.9994367"><ele>384.0</ele><time>2026-04-12T10:42:57.445Z</time></trkpt><trkpt lat="44.6055117" lon="7.999415"><ele>384.0</ele><time>2026-04-12T10:42:58.445Z</time></trkpt><trkpt lat="44.6054333" lon="7.9993867"><ele>384.0</ele><time>2026-04-12T10:42:59.445Z</time></trkpt><trkpt lat="44.6053567" lon="7.9993667"><ele>384.0</ele><time>2026-04-12T10:43:00.446Z</time></trkpt><trkpt lat="44.605285" lon="7.99935"><ele>384.0</ele><time>2026-04-12T10:43:01.445Z</time></trkpt><trkpt lat="44.6052167" lon="7.9993333"><ele>382.5</ele><time>2026-04-12T10:43:02.445Z</time></trkpt><trkpt lat="44.6051433" lon="7.999315"><ele>381.0</ele><time>2026-04-12T10:43:03.445Z</time></trkpt><trkpt lat="44.605075" lon="7.9992883"><ele>379.5</ele><time>2026-04-12T10:43:04.445Z</time></trkpt><trkpt lat="44.605005" lon="7.9992617"><ele>378.0</ele><time>2026-04-12T10:43:05.445Z</time></trkpt><trkpt lat="44.60494" lon="7.99924"><ele>376.5</ele><time>2026-04-12T10:43:06.445Z</time></trkpt><trkpt lat="44.6048783" lon="7.9992167"><ele>375.0</ele><time>2026-04-12T10:43:07.445Z</time></trkpt><trkpt lat="44.604765" lon="7.9991817"><ele>376.0</ele><time>2026-04-12T10:43:09.445Z</time></trkpt><trkpt lat="44.6046567" lon="7.99914"><ele>377.0</ele><time>2026-04-12T10:43:11.445Z</time></trkpt><trkpt lat="44.6045533" lon="7.9991"><ele>378.0</ele><time>2026-04-12T10:43:13.445Z</time></trkpt><trkpt lat="44.6044483" lon="7.9990733"><ele>379.0</ele><time>2026-04-12T10:43:15.445Z</time></trkpt><trkpt lat="44.60435" lon="7.9990433"><ele>380.0</ele><time>2026-04-12T10:43:17.445Z</time></trkpt><trkpt lat="44.6042417" lon="7.9990117"><ele>380.75</ele><time>2026-04-12T10:43:19.445Z</time></trkpt><trkpt lat="44.604125" lon="7.9989967"><ele>381.5</ele><time>2026-04-12T10:43:21.445Z</time></trkpt><trkpt lat="44.604005" lon="7.9989833"><ele>382.25</ele><time>2026-04-12T10:43:23.445Z</time></trkpt><trkpt lat="44.6038783" lon="7.9989683"><ele>383.0</ele><time>2026-04-12T10:43:25.445Z</time></trkpt><trkpt lat="44.6037567" lon="7.99896"><ele>383.0</ele><time>2026-04-12T10:43:27.445Z</time></trkpt><trkpt lat="44.60369" lon="7.99896"><ele>383.0</ele><time>2026-04-12T10:43:28.445Z</time></trkpt><trkpt lat="44.6036217" lon="7.998955"><ele>383.0</ele><time>2026-04-12T10:43:29.445Z</time></trkpt><trkpt lat="44.60355" lon="7.99896"><ele>383.0</ele><time>2026-04-12T10:43:30.445Z</time></trkpt><trkpt lat="44.603485" lon="7.9989733"><ele>383.0</ele><time>2026-04-12T10:43:31.445Z</time></trkpt><trkpt lat="44.6034183" lon="7.9989883"><ele>383.0</ele><time>2026-04-12T10:43:32.445Z</time></trkpt><trkpt lat="44.603355" lon="7.9990033"><ele>383.0</ele><time>2026-04-12T10:43:33.445Z</time></trkpt><trkpt lat="44.6032917" lon="7.999025"><ele>382.85714285714283</ele><time>2026-04-12T10:43:34.445Z</time></trkpt><trkpt lat="44.6032267" lon="7.9990383"><ele>382.71428571428567</ele><time>2026-04-12T10:43:35.445Z</time></trkpt><trkpt lat="44.60316" lon="7.99905"><ele>382.57142857142856</ele><time>2026-04-12T10:43:36.445Z</time></trkpt><trkpt lat="44.603095" lon="7.9990683"><ele>382.42857142857144</ele><time>2026-04-12T10:43:37.445Z</time></trkpt><trkpt lat="44.6030233" lon="7.9990883"><ele>382.2857142857143</ele><time>2026-04-12T10:43:38.445Z</time></trkpt><trkpt lat="44.6029533" lon="7.9991083"><ele>382.14285714285717</ele><time>2026-04-12T10:43:39.445Z</time></trkpt><trkpt lat="44.6028817" lon="7.999125"><ele>382.0</ele><time>2026-04-12T10:43:40.445Z</time></trkpt><trkpt lat="44.602815" lon="7.9991467"><ele>381.0</ele><time>2026-04-12T10:43:41.445Z</time></trkpt><trkpt lat="44.6027483" lon="7.99917"><ele>380.0</ele><time>2026-04-12T10:43:42.445Z</time></trkpt><trkpt lat="44.602625" lon="7.9992017"><ele>379.0</ele><time>2026-04-12T10:43:44.445Z</time></trkpt><trkpt lat="44.602505" lon="7.9992283"><ele>378.0</ele><time>2026-04-12T10:43:46.445Z</time></trkpt><trkpt lat="44.6023883" lon="7.99926"><ele>377.0</ele><time>2026-04-12T10:43:48.445Z</time></trkpt><trkpt lat="44.60227" lon="7.9992917"><ele>377.0</ele><time>2026-04-12T10:43:50.446Z</time></trkpt><trkpt lat="44.6021517" lon="7.9993283"><ele>377.0</ele><time>2026-04-12T10:43:52.445Z</time></trkpt><trkpt lat="44.6020417" lon="7.9993667"><ele>377.0</ele><time>2026-04-12T10:43:54.445Z</time></trkpt><trkpt lat="44.601935" lon="7.999395"><ele>377.0</ele><time>2026-04-12T10:43:56.445Z</time></trkpt><trkpt lat="44.6018167" lon="7.9994267"><ele>377.20000000000005</ele><time>2026-04-12T10:43:58.445Z</time></trkpt><trkpt lat="44.6017017" lon="7.9994617"><ele>377.4</ele><time>2026-04-12T10:44:00.445Z</time></trkpt><trkpt lat="44.6015817" lon="7.9994983"><ele>377.6</ele><time>2026-04-12T10:44:02.445Z</time></trkpt><trkpt lat="44.6014533" lon="7.999535"><ele>377.79999999999995</ele><time>2026-04-12T10:44:04.445Z</time></trkpt><trkpt lat="44.601385" lon="7.999555"><ele>378.0</ele><time>2026-04-12T10:44:05.445Z</time></trkpt><trkpt lat="44.60131" lon="7.999575"><ele>378.0</ele><time>2026-04-12T10:44:06.445Z</time></trkpt><trkpt lat="44.6012317" lon="7.9995967"><ele>378.0</ele><time>2026-04-12T10:44:07.445Z</time></trkpt><trkpt lat="44.6011533" lon="7.9996167"><ele>378.0</ele><time>2026-04-12T10:44:08.445Z</time></trkpt><trkpt lat="44.601075" lon="7.9996433"><ele>378.0</ele><time>2026-04-12T10:44:09.445Z</time></trkpt><trkpt lat="44.600995" lon="7.9996683"><ele>378.0</ele><time>2026-04-12T10:44:10.445Z</time></trkpt><trkpt lat="44.6009133" lon="7.9996883"><ele>378.0</ele><time>2026-04-12T10:44:11.446Z</time></trkpt><trkpt lat="44.60083" lon="7.99971"><ele>378.0</ele><time>2026-04-12T10:44:12.446Z</time></trkpt><trkpt lat="44.6007467" lon="7.999735"><ele>378.0</ele><time>2026-04-12T10:44:13.445Z</time></trkpt><trkpt lat="44.600655" lon="7.99976"><ele>378.0</ele><time>2026-04-12T10:44:14.445Z</time></trkpt><trkpt lat="44.6005617" lon="7.9997817"><ele>378.0</ele><time>2026-04-12T10:44:15.445Z</time></trkpt><trkpt lat="44.60047" lon="7.9998133"><ele>378.0</ele><time>2026-04-12T10:44:16.445Z</time></trkpt><trkpt lat="44.6003783" lon="7.99986"><ele>378.0</ele><time>2026-04-12T10:44:17.445Z</time></trkpt><trkpt lat="44.6002883" lon="7.9999183"><ele>378.0</ele><time>2026-04-12T10:44:18.445Z</time></trkpt><trkpt lat="44.6002017" lon="7.9999883"><ele>378.0</ele><time>2026-04-12T10:44:19.446Z</time></trkpt><trkpt lat="44.6001183" lon="8.000075"><ele>378.0</ele><time>2026-04-12T10:44:20.445Z</time></trkpt><trkpt lat="44.60005" lon="8.0001833"><ele>378.0</ele><time>2026-04-12T10:44:21.445Z</time></trkpt><trkpt lat="44.5999983" lon="8.0003033"><ele>378.0</ele><time>2026-04-12T10:44:22.445Z</time></trkpt><trkpt lat="44.599945" lon="8.0004233"><ele>378.0</ele><time>2026-04-12T10:44:23.445Z</time></trkpt><trkpt lat="44.5998983" lon="8.000545"><ele>378.0</ele><time>2026-04-12T10:44:24.445Z</time></trkpt><trkpt lat="44.5998533" lon="8.0006567"><ele>378.0</ele><time>2026-04-12T10:44:25.445Z</time></trkpt><trkpt lat="44.599815" lon="8.0007683"><ele>378.0</ele><time>2026-04-12T10:44:26.445Z</time></trkpt><trkpt lat="44.599775" lon="8.0008817"><ele>378.1666666666667</ele><time>2026-04-12T10:44:27.445Z</time></trkpt><trkpt lat="44.5997483" lon="8.0009867"><ele>378.3333333333333</ele><time>2026-04-12T10:44:28.445Z</time></trkpt><trkpt lat="44.5997317" lon="8.0011033"><ele>378.5</ele><time>2026-04-12T10:44:29.445Z</time></trkpt><trkpt lat="44.599735" lon="8.0012117"><ele>378.66666666666663</ele><time>2026-04-12T10:44:30.446Z</time></trkpt><trkpt lat="44.5997467" lon="8.001325"><ele>378.8333333333333</ele><time>2026-04-12T10:44:31.444Z</time></trkpt><trkpt lat="44.5997717" lon="8.001425"><ele>379.0</ele><time>2026-04-12T10:44:32.444Z</time></trkpt><trkpt lat="44.5997967" lon="8.0015233"><ele>379.0</ele><time>2026-04-12T10:44:33.444Z</time></trkpt><trkpt lat="44.5998233" lon="8.00161"><ele>379.0</ele><time>2026-04-12T10:44:34.444Z</time></trkpt><trkpt lat="44.599845" lon="8.0016933"><ele>379.0</ele><time>2026-04-12T10:44:35.444Z</time></trkpt><trkpt lat="44.5998833" lon="8.001845"><ele>379.0</ele><time>2026-04-12T10:44:37.444Z</time></trkpt><trkpt lat="44.5999133" lon="8.00199"><ele>379.0</ele><time>2026-04-12T10:44:39.444Z</time></trkpt><trkpt lat="44.599935" lon="8.0021183"><ele>379.0</ele><time>2026-04-12T10:44:41.444Z</time></trkpt><trkpt lat="44.5999433" lon="8.00224"><ele>379.3333333333333</ele><time>2026-04-12T10:44:43.444Z</time></trkpt><trkpt lat="44.5999467" lon="8.0023583"><ele>379.66666666666663</ele><time>2026-04-12T10:44:45.444Z</time></trkpt><trkpt lat="44.59994" lon="8.0024783"><ele>380.0</ele><time>2026-04-12T10:44:47.444Z</time></trkpt><trkpt lat="44.5999433" lon="8.0025767"><ele>380.3333333333333</ele><time>2026-04-12T10:44:49.444Z</time></trkpt><trkpt lat="44.5999383" lon="8.0026867"><ele>380.6666666666667</ele><time>2026-04-12T10:44:51.444Z</time></trkpt><trkpt lat="44.59996" lon="8.0027983"><ele>381.0</ele><time>2026-04-12T10:44:53.444Z</time></trkpt><trkpt lat="44.5999883" lon="8.0028983"><ele>381.6666666666667</ele><time>2026-04-12T10:44:55.444Z</time></trkpt><trkpt lat="44.6000167" lon="8.002995"><ele>382.33333333333337</ele><time>2026-04-12T10:44:57.444Z</time></trkpt><trkpt lat="44.600055" lon="8.00309"><ele>383.0</ele><time>2026-04-12T10:44:59.444Z</time></trkpt><trkpt lat="44.6000967" lon="8.0031817"><ele>383.6666666666667</ele><time>2026-04-12T10:45:01.444Z</time></trkpt><trkpt lat="44.6001367" lon="8.003275"><ele>384.33333333333337</ele><time>2026-04-12T10:45:03.444Z</time></trkpt><trkpt lat="44.6001833" lon="8.0033583"><ele>385.0</ele><time>2026-04-12T10:45:05.444Z</time></trkpt><trkpt lat="44.60023" lon="8.0034533"><ele>384.33333333333337</ele><time>2026-04-12T10:45:07.444Z</time></trkpt><trkpt lat="44.6002783" lon="8.0035367"><ele>383.6666666666667</ele><time>2026-04-12T10:45:09.444Z</time></trkpt><trkpt lat="44.6003267" lon="8.003615"><ele>383.0</ele><time>2026-04-12T10:45:11.444Z</time></trkpt><trkpt lat="44.6003783" lon="8.0037"><ele>382.33333333333337</ele><time>2026-04-12T10:45:13.444Z</time></trkpt><trkpt lat="44.6004217" lon="8.0037867"><ele>381.6666666666667</ele><time>2026-04-12T10:45:15.444Z</time></trkpt><trkpt lat="44.6004683" lon="8.0038617"><ele>381.0</ele><time>2026-04-12T10:45:17.444Z</time></trkpt><trkpt lat="44.6005233" lon="8.0039483"><ele>381.0</ele><time>2026-04-12T10:45:19.444Z</time></trkpt><trkpt lat="44.6005567" lon="8.0040317"><ele>381.0</ele><time>2026-04-12T10:45:21.444Z</time></trkpt><trkpt lat="44.600595" lon="8.0041167"><ele>381.0</ele><time>2026-04-12T10:45:23.444Z</time></trkpt><trkpt lat="44.6006317" lon="8.004205"><ele>381.0</ele><time>2026-04-12T10:45:25.444Z</time></trkpt><trkpt lat="44.60069" lon="8.00431"><ele>381.0</ele><time>2026-04-12T10:45:28.444Z</time></trkpt><trkpt lat="44.6007267" lon="8.0043983"><ele>381.0</ele><time>2026-04-12T10:45:30.444Z</time></trkpt><trkpt lat="44.6007683" lon="8.0044717"><ele>381.0</ele><time>2026-04-12T10:45:32.444Z</time></trkpt><trkpt lat="44.6008233" lon="8.0045533"><ele>382.2857142857143</ele><time>2026-04-12T10:45:34.444Z</time></trkpt><trkpt lat="44.600875" lon="8.0046333"><ele>383.5714285714286</ele><time>2026-04-12T10:45:36.444Z</time></trkpt><trkpt lat="44.600915" lon="8.004715"><ele>384.8571428571429</ele><time>2026-04-12T10:45:38.445Z</time></trkpt><trkpt lat="44.6009267" lon="8.0048033"><ele>386.1428571428571</ele><time>2026-04-12T10:45:40.444Z</time></trkpt><trkpt lat="44.600895" lon="8.00493"><ele>387.42857142857144</ele><time>2026-04-12T10:45:43.444Z</time></trkpt><trkpt lat="44.6008333" lon="8.00497"><ele>388.7142857142857</ele><time>2026-04-12T10:45:45.445Z</time></trkpt><trkpt lat="44.6007617" lon="8.00495"><ele>390.0</ele><time>2026-04-12T10:45:47.444Z</time></trkpt><trkpt lat="44.6007083" lon="8.0048883"><ele>390.0</ele><time>2026-04-12T10:45:49.444Z</time></trkpt><trkpt lat="44.6006733" lon="8.0048067"><ele>390.0</ele><time>2026-04-12T10:45:51.444Z</time></trkpt><trkpt lat="44.6006383" lon="8.0047267"><ele>390.0</ele><time>2026-04-12T10:45:53.444Z</time></trkpt><trkpt lat="44.6005983" lon="8.0046533"><ele>390.0</ele><time>2026-04-12T10:45:55.444Z</time></trkpt><trkpt lat="44.6005667" lon="8.0045733"><ele>390.0</ele><time>2026-04-12T10:45:57.444Z</time></trkpt><trkpt lat="44.6005283" lon="8.0044967"><ele>390.0</ele><time>2026-04-12T10:45:59.444Z</time></trkpt><trkpt lat="44.600475" lon="8.0043917"><ele>390.0</ele><time>2026-04-12T10:46:02.444Z</time></trkpt><trkpt lat="44.6004233" lon="8.0042917"><ele>390.0</ele><time>2026-04-12T10:46:05.444Z</time></trkpt><trkpt lat="44.600375" lon="8.00423"><ele>390.0</ele><time>2026-04-12T10:46:07.444Z</time></trkpt><trkpt lat="44.60033" lon="8.0041667"><ele>390.0</ele><time>2026-04-12T10:46:09.444Z</time></trkpt><trkpt lat="44.60028" lon="8.0041117"><ele>390.0</ele><time>2026-04-12T10:46:11.444Z</time></trkpt><trkpt lat="44.6002183" lon="8.004065"><ele>390.0</ele><time>2026-04-12T10:46:13.444Z</time></trkpt><trkpt lat="44.6001583" lon="8.0040317"><ele>390.0</ele><time>2026-04-12T10:46:15.444Z</time></trkpt><trkpt lat="44.6000867" lon="8.0039967"><ele>390.0</ele><time>2026-04-12T10:46:18.444Z</time></trkpt><trkpt lat="44.599995" lon="8.00401"><ele>390.6666666666667</ele><time>2026-04-12T10:46:21.444Z</time></trkpt><trkpt lat="44.5999183" lon="8.0040917"><ele>391.33333333333337</ele><time>2026-04-12T10:46:24.444Z</time></trkpt><trkpt lat="44.5998783" lon="8.0041633"><ele>392.0</ele><time>2026-04-12T10:46:26.444Z</time></trkpt><trkpt lat="44.5998367" lon="8.0042817"><ele>392.6666666666667</ele><time>2026-04-12T10:46:29.444Z</time></trkpt><trkpt lat="44.5998283" lon="8.0043717"><ele>393.33333333333337</ele><time>2026-04-12T10:46:31.444Z</time></trkpt><trkpt lat="44.5998167" lon="8.0044683"><ele>394.0</ele><time>2026-04-12T10:46:33.444Z</time></trkpt><trkpt lat="44.5998033" lon="8.004565"><ele>395.7142857142857</ele><time>2026-04-12T10:46:35.444Z</time></trkpt><trkpt lat="44.5997883" lon="8.0046533"><ele>397.42857142857144</ele><time>2026-04-12T10:46:37.444Z</time></trkpt><trkpt lat="44.5997817" lon="8.0047417"><ele>399.1428571428571</ele><time>2026-04-12T10:46:39.444Z</time></trkpt><trkpt lat="44.59976" lon="8.0048633"><ele>400.8571428571429</ele><time>2026-04-12T10:46:42.444Z</time></trkpt><trkpt lat="44.59974" lon="8.0049833"><ele>402.57142857142856</ele><time>2026-04-12T10:46:45.444Z</time></trkpt><trkpt lat="44.5997067" lon="8.0050783"><ele>404.2857142857143</ele><time>2026-04-12T10:46:47.444Z</time></trkpt><trkpt lat="44.5996783" lon="8.00516"><ele>406.0</ele><time>2026-04-12T10:46:49.444Z</time></trkpt><trkpt lat="44.599625" lon="8.005265"><ele>405.57142857142856</ele><time>2026-04-12T10:46:52.444Z</time></trkpt><trkpt lat="44.5995783" lon="8.0053367"><ele>405.1428571428571</ele><time>2026-04-12T10:46:54.444Z</time></trkpt><trkpt lat="44.599525" lon="8.0054"><ele>404.7142857142857</ele><time>2026-04-12T10:46:56.444Z</time></trkpt><trkpt lat="44.5994633" lon="8.0054567"><ele>404.2857142857143</ele><time>2026-04-12T10:46:58.444Z</time></trkpt><trkpt lat="44.5994067" lon="8.0055117"><ele>403.85714285714283</ele><time>2026-04-12T10:47:00.444Z</time></trkpt><trkpt lat="44.59935" lon="8.0055733"><ele>403.42857142857144</ele><time>2026-04-12T10:47:02.444Z</time></trkpt><trkpt lat="44.599295" lon="8.0056317"><ele>403.0</ele><time>2026-04-12T10:47:04.444Z</time></trkpt><trkpt lat="44.5992383" lon="8.005685"><ele>403.0</ele><time>2026-04-12T10:47:06.444Z</time></trkpt><trkpt lat="44.5991833" lon="8.0057433"><ele>403.0</ele><time>2026-04-12T10:47:08.445Z</time></trkpt><trkpt lat="44.5991267" lon="8.005795"><ele>403.0</ele><time>2026-04-12T10:47:10.444Z</time></trkpt><trkpt lat="44.59905" lon="8.0058683"><ele>403.0</ele><time>2026-04-12T10:47:13.444Z</time></trkpt><trkpt lat="44.5989983" lon="8.0059217"><ele>403.0</ele><time>2026-04-12T10:47:15.444Z</time></trkpt><trkpt lat="44.5989433" lon="8.005975"><ele>403.0</ele><time>2026-04-12T10:47:17.444Z</time></trkpt><trkpt lat="44.5988817" lon="8.00603"><ele>403.0</ele><time>2026-04-12T10:47:19.444Z</time></trkpt><trkpt lat="44.5988183" lon="8.0060917"><ele>404.0</ele><time>2026-04-12T10:47:21.445Z</time></trkpt><trkpt lat="44.5987567" lon="8.006145"><ele>405.0</ele><time>2026-04-12T10:47:23.444Z</time></trkpt><trkpt lat="44.5986983" lon="8.0061933"><ele>406.0</ele><time>2026-04-12T10:47:25.444Z</time></trkpt><trkpt lat="44.5986367" lon="8.0062317"><ele>407.0</ele><time>2026-04-12T10:47:27.444Z</time></trkpt><trkpt lat="44.5985717" lon="8.00628"><ele>408.0</ele><time>2026-04-12T10:47:29.444Z</time></trkpt><trkpt lat="44.59851" lon="8.0063233"><ele>409.0</ele><time>2026-04-12T10:47:31.444Z</time></trkpt><trkpt lat="44.5984467" lon="8.006365"><ele>410.0</ele><time>2026-04-12T10:47:33.444Z</time></trkpt><trkpt lat="44.5983783" lon="8.0064033"><ele>410.0</ele><time>2026-04-12T10:47:35.444Z</time></trkpt><trkpt lat="44.598305" lon="8.0064383"><ele>410.0</ele><time>2026-04-12T10:47:37.444Z</time></trkpt><trkpt lat="44.5982433" lon="8.00647"><ele>410.0</ele><time>2026-04-12T10:47:39.444Z</time></trkpt><trkpt lat="44.5981767" lon="8.00651"><ele>410.0</ele><time>2026-04-12T10:47:41.444Z</time></trkpt><trkpt lat="44.598115" lon="8.00655"><ele>410.0</ele><time>2026-04-12T10:47:43.444Z</time></trkpt><trkpt lat="44.5980317" lon="8.0065883"><ele>410.0</ele><time>2026-04-12T10:47:46.444Z</time></trkpt><trkpt lat="44.5979583" lon="8.0066067"><ele>410.0</ele><time>2026-04-12T10:47:48.444Z</time></trkpt><trkpt lat="44.5978783" lon="8.006625"><ele>408.99999999999994</ele><time>2026-04-12T10:47:50.444Z</time></trkpt><trkpt lat="44.597785" lon="8.00664"><ele>408.0</ele><time>2026-04-12T10:47:52.444Z</time></trkpt><trkpt lat="44.5976967" lon="8.0066517"><ele>407.0</ele><time>2026-04-12T10:47:54.444Z</time></trkpt><trkpt lat="44.597615" lon="8.0066667"><ele>406.0</ele><time>2026-04-12T10:47:56.444Z</time></trkpt><trkpt lat="44.5975283" lon="8.00669"><ele>404.99999999999994</ele><time>2026-04-12T10:47:58.444Z</time></trkpt><trkpt lat="44.5974417" lon="8.0067067"><ele>404.0</ele><time>2026-04-12T10:48:00.444Z</time></trkpt><trkpt lat="44.5973367" lon="8.0067267"><ele>406.2</ele><time>2026-04-12T10:48:02.444Z</time></trkpt><trkpt lat="44.597235" lon="8.0067433"><ele>408.4</ele><time>2026-04-12T10:48:04.444Z</time></trkpt><trkpt lat="44.597125" lon="8.0067467"><ele>410.6</ele><time>2026-04-12T10:48:06.444Z</time></trkpt><trkpt lat="44.5970117" lon="8.0067367"><ele>412.8</ele><time>2026-04-12T10:48:08.444Z</time></trkpt><trkpt lat="44.5969033" lon="8.0067017"><ele>415.0</ele><time>2026-04-12T10:48:10.444Z</time></trkpt><trkpt lat="44.596785" lon="8.006645"><ele>415.0</ele><time>2026-04-12T10:48:12.444Z</time></trkpt><trkpt lat="44.5967267" lon="8.0066033"><ele>415.0</ele><time>2026-04-12T10:48:13.444Z</time></trkpt><trkpt lat="44.5966717" lon="8.0065583"><ele>415.0</ele><time>2026-04-12T10:48:14.444Z</time></trkpt><trkpt lat="44.59658" lon="8.00645"><ele>415.0</ele><time>2026-04-12T10:48:16.444Z</time></trkpt><trkpt lat="44.5964983" lon="8.0063417"><ele>415.0</ele><time>2026-04-12T10:48:18.444Z</time></trkpt><trkpt lat="44.59642" lon="8.0062283"><ele>415.0</ele><time>2026-04-12T10:48:20.444Z</time></trkpt><trkpt lat="44.5963517" lon="8.0061217"><ele>415.0</ele><time>2026-04-12T10:48:22.444Z</time></trkpt><trkpt lat="44.5962833" lon="8.006015"><ele>415.0</ele><time>2026-04-12T10:48:24.444Z</time></trkpt><trkpt lat="44.5962233" lon="8.00591"><ele>415.0</ele><time>2026-04-12T10:48:26.444Z</time></trkpt><trkpt lat="44.5961467" lon="8.005805"><ele>415.0</ele><time>2026-04-12T10:48:28.445Z</time></trkpt><trkpt lat="44.5960883" lon="8.0056967"><ele>418.2</ele><time>2026-04-12T10:48:30.444Z</time></trkpt><trkpt lat="44.5960483" lon="8.0055717"><ele>421.4</ele><time>2026-04-12T10:48:32.444Z</time></trkpt><trkpt lat="44.5960233" lon="8.00544"><ele>424.6</ele><time>2026-04-12T10:48:34.444Z</time></trkpt><trkpt lat="44.5960017" lon="8.005305"><ele>427.8</ele><time>2026-04-12T10:48:36.444Z</time></trkpt><trkpt lat="44.59597" lon="8.0051667"><ele>431.0</ele><time>2026-04-12T10:48:38.444Z</time></trkpt><trkpt lat="44.59593" lon="8.0050383"><ele>427.4</ele><time>2026-04-12T10:48:40.444Z</time></trkpt><trkpt lat="44.595865" lon="8.004935"><ele>423.8</ele><time>2026-04-12T10:48:42.444Z</time></trkpt><trkpt lat="44.59578" lon="8.00487"><ele>420.2</ele><time>2026-04-12T10:48:44.444Z</time></trkpt><trkpt lat="44.595685" lon="8.0048267"><ele>416.59999999999997</ele><time>2026-04-12T10:48:46.444Z</time></trkpt><trkpt lat="44.5955833" lon="8.0047933"><ele>413.0</ele><time>2026-04-12T10:48:48.444Z</time></trkpt><trkpt lat="44.59548" lon="8.004755"><ele>413.0</ele><time>2026-04-12T10:48:50.445Z</time></trkpt><trkpt lat="44.5953783" lon="8.00472"><ele>413.0</ele><time>2026-04-12T10:48:52.444Z</time></trkpt><trkpt lat="44.59528" lon="8.0046667"><ele>413.0</ele><time>2026-04-12T10:48:54.444Z</time></trkpt><trkpt lat="44.5951833" lon="8.004595"><ele>413.0</ele><time>2026-04-12T10:48:56.444Z</time></trkpt><trkpt lat="44.5950817" lon="8.0045067"><ele>413.0</ele><time>2026-04-12T10:48:58.444Z</time></trkpt><trkpt lat="44.594985" lon="8.0044133"><ele>412.2</ele><time>2026-04-12T10:49:00.444Z</time></trkpt><trkpt lat="44.5948967" lon="8.0043117"><ele>411.4</ele><time>2026-04-12T10:49:02.444Z</time></trkpt><trkpt lat="44.5948483" lon="8.004255"><ele>410.59999999999997</ele><time>2026-04-12T10:49:03.444Z</time></trkpt><trkpt lat="44.5947517" lon="8.004155"><ele>409.79999999999995</ele><time>2026-04-12T10:49:05.444Z</time></trkpt><trkpt lat="44.5946633" lon="8.0040517"><ele>409.0</ele><time>2026-04-12T10:49:07.444Z</time></trkpt><trkpt lat="44.5945883" lon="8.0039317"><ele>409.0</ele><time>2026-04-12T10:49:09.444Z</time></trkpt><trkpt lat="44.594505" lon="8.00381"><ele>409.0</ele><time>2026-04-12T10:49:11.445Z</time></trkpt><trkpt lat="44.59443" lon="8.0036833"><ele>409.0</ele><time>2026-04-12T10:49:13.444Z</time></trkpt><trkpt lat="44.594365" lon="8.00355"><ele>409.0</ele><time>2026-04-12T10:49:15.444Z</time></trkpt><trkpt lat="44.5942917" lon="8.0034217"><ele>411.6</ele><time>2026-04-12T10:49:17.444Z</time></trkpt><trkpt lat="44.594205" lon="8.003315"><ele>414.2</ele><time>2026-04-12T10:49:19.444Z</time></trkpt><trkpt lat="44.5941133" lon="8.0032267"><ele>416.8</ele><time>2026-04-12T10:49:21.444Z</time></trkpt><trkpt lat="44.5940183" lon="8.0031433"><ele>419.40000000000003</ele><time>2026-04-12T10:49:23.444Z</time></trkpt><trkpt lat="44.5939217" lon="8.0030667"><ele>422.0</ele><time>2026-04-12T10:49:25.444Z</time></trkpt><trkpt lat="44.593825" lon="8.0029983"><ele>422.0</ele><time>2026-04-12T10:49:27.444Z</time></trkpt><trkpt lat="44.59373" lon="8.0029217"><ele>422.0</ele><time>2026-04-12T10:49:29.444Z</time></trkpt><trkpt lat="44.59363" lon="8.0028483"><ele>422.0</ele><time>2026-04-12T10:49:31.444Z</time></trkpt><trkpt lat="44.5935283" lon="8.0027767"><ele>422.0</ele><time>2026-04-12T10:49:33.444Z</time></trkpt><trkpt lat="44.5934317" lon="8.0027117"><ele>422.0</ele><time>2026-04-12T10:49:35.444Z</time></trkpt><trkpt lat="44.59333" lon="8.00267"><ele>423.8</ele><time>2026-04-12T10:49:37.444Z</time></trkpt><trkpt lat="44.59323" lon="8.00265"><ele>425.6</ele><time>2026-04-12T10:49:39.444Z</time></trkpt><trkpt lat="44.59314" lon="8.0026533"><ele>427.40000000000003</ele><time>2026-04-12T10:49:41.444Z</time></trkpt><trkpt lat="44.5930433" lon="8.0026783"><ele>429.20000000000005</ele><time>2026-04-12T10:49:43.445Z</time></trkpt><trkpt lat="44.592945" lon="8.0027117"><ele>431.0</ele><time>2026-04-12T10:49:45.444Z</time></trkpt><trkpt lat="44.5928517" lon="8.0027583"><ele>430.6</ele><time>2026-04-12T10:49:47.444Z</time></trkpt><trkpt lat="44.59275" lon="8.0028033"><ele>430.20000000000005</ele><time>2026-04-12T10:49:49.444Z</time></trkpt><trkpt lat="44.59265" lon="8.0028533"><ele>429.79999999999995</ele><time>2026-04-12T10:49:51.444Z</time></trkpt><trkpt lat="44.5925467" lon="8.0028967"><ele>429.4</ele><time>2026-04-12T10:49:53.444Z</time></trkpt><trkpt lat="44.59245" lon="8.002945"><ele>429.0</ele><time>2026-04-12T10:49:55.444Z</time></trkpt><trkpt lat="44.5923583" lon="8.0029917"><ele>429.0</ele><time>2026-04-12T10:49:57.444Z</time></trkpt><trkpt lat="44.5922667" lon="8.003015"><ele>429.0</ele><time>2026-04-12T10:49:59.444Z</time></trkpt><trkpt lat="44.592185" lon="8.0030367"><ele>429.0</ele><time>2026-04-12T10:50:01.445Z</time></trkpt><trkpt lat="44.5921017" lon="8.00304"><ele>429.0</ele><time>2026-04-12T10:50:03.444Z</time></trkpt><trkpt lat="44.59202" lon="8.0030417"><ele>429.0</ele><time>2026-04-12T10:50:05.444Z</time></trkpt><trkpt lat="44.5919217" lon="8.0030483"><ele>429.0</ele><time>2026-04-12T10:50:07.444Z</time></trkpt><trkpt lat="44.59184" lon="8.0030517"><ele>429.3333333333333</ele><time>2026-04-12T10:50:09.444Z</time></trkpt><trkpt lat="44.5917567" lon="8.00305"><ele>429.66666666666663</ele><time>2026-04-12T10:50:11.444Z</time></trkpt><trkpt lat="44.59169" lon="8.0030367"><ele>430.0</ele><time>2026-04-12T10:50:13.444Z</time></trkpt><trkpt lat="44.5916183" lon="8.0030333"><ele>430.3333333333333</ele><time>2026-04-12T10:50:15.444Z</time></trkpt><trkpt lat="44.5915383" lon="8.0030233"><ele>430.66666666666663</ele><time>2026-04-12T10:50:17.444Z</time></trkpt><trkpt lat="44.591455" lon="8.0030183"><ele>431.0</ele><time>2026-04-12T10:50:19.444Z</time></trkpt><trkpt lat="44.5913717" lon="8.0030033"><ele>430.99999999999994</ele><time>2026-04-12T10:50:21.445Z</time></trkpt><trkpt lat="44.59129" lon="8.0029967"><ele>431.0</ele><time>2026-04-12T10:50:23.445Z</time></trkpt><trkpt lat="44.59121" lon="8.0029883"><ele>431.0</ele><time>2026-04-12T10:50:25.444Z</time></trkpt><trkpt lat="44.5911267" lon="8.0029767"><ele>431.0</ele><time>2026-04-12T10:50:27.444Z</time></trkpt><trkpt lat="44.5910383" lon="8.00297"><ele>430.99999999999994</ele><time>2026-04-12T10:50:29.444Z</time></trkpt><trkpt lat="44.59094" lon="8.00296"><ele>431.0</ele><time>2026-04-12T10:50:31.444Z</time></trkpt><trkpt lat="44.5908267" lon="8.00295"><ele>431.6</ele><time>2026-04-12T10:50:33.444Z</time></trkpt><trkpt lat="44.5907033" lon="8.0029433"><ele>432.20000000000005</ele><time>2026-04-12T10:50:35.444Z</time></trkpt><trkpt lat="44.59057" lon="8.00293"><ele>432.79999999999995</ele><time>2026-04-12T10:50:37.444Z</time></trkpt><trkpt lat="44.5904983" lon="8.0029267"><ele>433.4</ele><time>2026-04-12T10:50:38.444Z</time></trkpt><trkpt lat="44.5904283" lon="8.0029183"><ele>434.0</ele><time>2026-04-12T10:50:39.444Z</time></trkpt><trkpt lat="44.590355" lon="8.00291"><ele>432.99999999999994</ele><time>2026-04-12T10:50:40.444Z</time></trkpt><trkpt lat="44.5902833" lon="8.002905"><ele>432.0</ele><time>2026-04-12T10:50:41.444Z</time></trkpt><trkpt lat="44.5902067" lon="8.0028967"><ele>431.0</ele><time>2026-04-12T10:50:42.445Z</time></trkpt><trkpt lat="44.5901367" lon="8.00289"><ele>430.0</ele><time>2026-04-12T10:50:43.444Z</time></trkpt><trkpt lat="44.5900583" lon="8.002885"><ele>428.99999999999994</ele><time>2026-04-12T10:50:44.444Z</time></trkpt><trkpt lat="44.5899783" lon="8.0028883"><ele>428.0</ele><time>2026-04-12T10:50:45.444Z</time></trkpt><trkpt lat="44.5898967" lon="8.0029017"><ele>427.99999999999994</ele><time>2026-04-12T10:50:46.444Z</time></trkpt><trkpt lat="44.5898167" lon="8.00293"><ele>428.0</ele><time>2026-04-12T10:50:47.444Z</time></trkpt><trkpt lat="44.5897417" lon="8.0029717"><ele>428.0</ele><time>2026-04-12T10:50:48.444Z</time></trkpt><trkpt lat="44.589665" lon="8.0030283"><ele>428.0</ele><time>2026-04-12T10:50:49.444Z</time></trkpt><trkpt lat="44.5895933" lon="8.0030983"><ele>427.99999999999994</ele><time>2026-04-12T10:50:50.444Z</time></trkpt><trkpt lat="44.5895283" lon="8.0031867"><ele>428.0</ele><time>2026-04-12T10:50:51.444Z</time></trkpt><trkpt lat="44.589465" lon="8.0032817"><ele>428.4</ele><time>2026-04-12T10:50:52.444Z</time></trkpt><trkpt lat="44.5894067" lon="8.00338"><ele>428.79999999999995</ele><time>2026-04-12T10:50:53.444Z</time></trkpt><trkpt lat="44.5893417" lon="8.0034783"><ele>429.2</ele><time>2026-04-12T10:50:54.444Z</time></trkpt><trkpt lat="44.5892733" lon="8.0035817"><ele>429.6</ele><time>2026-04-12T10:50:55.444Z</time></trkpt><trkpt lat="44.58921" lon="8.00369"><ele>430.0</ele><time>2026-04-12T10:50:56.444Z</time></trkpt><trkpt lat="44.589145" lon="8.003795"><ele>430.0</ele><time>2026-04-12T10:50:57.444Z</time></trkpt><trkpt lat="44.58908" lon="8.0039083"><ele>430.0</ele><time>2026-04-12T10:50:58.444Z</time></trkpt><trkpt lat="44.5890083" lon="8.004025"><ele>430.0</ele><time>2026-04-12T10:50:59.444Z</time></trkpt><trkpt lat="44.5889417" lon="8.00413"><ele>430.0</ele><time>2026-04-12T10:51:00.444Z</time></trkpt><trkpt lat="44.588875" lon="8.004235"><ele>430.0</ele><time>2026-04-12T10:51:01.444Z</time></trkpt><trkpt lat="44.588805" lon="8.0043483"><ele>429.0</ele><time>2026-04-12T10:51:02.444Z</time></trkpt><trkpt lat="44.5887383" lon="8.0044583"><ele>428.0</ele><time>2026-04-12T10:51:03.444Z</time></trkpt><trkpt lat="44.5886683" lon="8.004575"><ele>427.0</ele><time>2026-04-12T10:51:04.444Z</time></trkpt><trkpt lat="44.5885983" lon="8.0046883"><ele>426.0</ele><time>2026-04-12T10:51:05.444Z</time></trkpt><trkpt lat="44.5885333" lon="8.0047983"><ele>425.0</ele><time>2026-04-12T10:51:06.444Z</time></trkpt><trkpt lat="44.5884783" lon="8.004915"><ele>424.0</ele><time>2026-04-12T10:51:07.445Z</time></trkpt><trkpt lat="44.5884367" lon="8.005035"><ele>423.0</ele><time>2026-04-12T10:51:08.444Z</time></trkpt><trkpt lat="44.5883983" lon="8.0051533"><ele>422.0</ele><time>2026-04-12T10:51:09.444Z</time></trkpt><trkpt lat="44.5883733" lon="8.005275"><ele>421.0</ele><time>2026-04-12T10:51:10.444Z</time></trkpt><trkpt lat="44.5883617" lon="8.0054"><ele>420.0</ele><time>2026-04-12T10:51:11.444Z</time></trkpt><trkpt lat="44.5883617" lon="8.0055183"><ele>420.0</ele><time>2026-04-12T10:51:12.444Z</time></trkpt><trkpt lat="44.5883667" lon="8.0056283"><ele>420.0</ele><time>2026-04-12T10:51:13.445Z</time></trkpt><trkpt lat="44.5883717" lon="8.0057367"><ele>420.0</ele><time>2026-04-12T10:51:14.444Z</time></trkpt><trkpt lat="44.5883867" lon="8.0058367"><ele>420.0</ele><time>2026-04-12T10:51:15.444Z</time></trkpt><trkpt lat="44.5884017" lon="8.0059283"><ele>420.0</ele><time>2026-04-12T10:51:16.444Z</time></trkpt><trkpt lat="44.5884183" lon="8.0060217"><ele>420.0</ele><time>2026-04-12T10:51:17.444Z</time></trkpt><trkpt lat="44.58844" lon="8.0061067"><ele>420.0</ele><time>2026-04-12T10:51:18.444Z</time></trkpt><trkpt lat="44.5884783" lon="8.0062717"><ele>421.1666666666667</ele><time>2026-04-12T10:51:20.444Z</time></trkpt><trkpt lat="44.5885183" lon="8.0064017"><ele>422.33333333333337</ele><time>2026-04-12T10:51:22.445Z</time></trkpt><trkpt lat="44.588555" lon="8.0065217"><ele>423.5</ele><time>2026-04-12T10:51:24.444Z</time></trkpt><trkpt lat="44.58857" lon="8.0066267"><ele>424.6666666666667</ele><time>2026-04-12T10:51:26.444Z</time></trkpt><trkpt lat="44.5885467" lon="8.0067283"><ele>425.83333333333337</ele><time>2026-04-12T10:51:28.444Z</time></trkpt><trkpt lat="44.5884983" lon="8.0068183"><ele>427.0</ele><time>2026-04-12T10:51:30.444Z</time></trkpt><trkpt lat="44.5884367" lon="8.006865"><ele>428.14285714285717</ele><time>2026-04-12T10:51:32.444Z</time></trkpt><trkpt lat="44.588365" lon="8.0068783"><ele>429.2857142857143</ele><time>2026-04-12T10:51:34.444Z</time></trkpt><trkpt lat="44.5882917" lon="8.0068767"><ele>430.42857142857144</ele><time>2026-04-12T10:51:36.444Z</time></trkpt><trkpt lat="44.588215" lon="8.00687"><ele>431.57142857142856</ele><time>2026-04-12T10:51:38.444Z</time></trkpt><trkpt lat="44.5881417" lon="8.0068583"><ele>432.7142857142857</ele><time>2026-04-12T10:51:40.444Z</time></trkpt><trkpt lat="44.5880683" lon="8.00685"><ele>433.8571428571429</ele><time>2026-04-12T10:51:42.444Z</time></trkpt><trkpt lat="44.588" lon="8.0068383"><ele>435.0</ele><time>2026-04-12T10:51:44.444Z</time></trkpt><trkpt lat="44.5879283" lon="8.0068283"><ele>435.00000000000006</ele><time>2026-04-12T10:51:46.444Z</time></trkpt><trkpt lat="44.5878567" lon="8.0068133"><ele>435.0</ele><time>2026-04-12T10:51:48.444Z</time></trkpt><trkpt lat="44.5877833" lon="8.0068067"><ele>435.0</ele><time>2026-04-12T10:51:50.445Z</time></trkpt><trkpt lat="44.5877167" lon="8.006805"><ele>435.0</ele><time>2026-04-12T10:51:52.444Z</time></trkpt><trkpt lat="44.5876483" lon="8.0067883"><ele>435.0</ele><time>2026-04-12T10:51:54.444Z</time></trkpt><trkpt lat="44.5875817" lon="8.0067783"><ele>435.00000000000006</ele><time>2026-04-12T10:51:56.444Z</time></trkpt><trkpt lat="44.587515" lon="8.006775"><ele>435.0</ele><time>2026-04-12T10:51:58.444Z</time></trkpt><trkpt lat="44.587445" lon="8.0067833"><ele>435.0</ele><time>2026-04-12T10:52:00.444Z</time></trkpt><trkpt lat="44.5873817" lon="8.006795"><ele>435.0</ele><time>2026-04-12T10:52:02.444Z</time></trkpt><trkpt lat="44.5872967" lon="8.0068333"><ele>435.0</ele><time>2026-04-12T10:52:05.444Z</time></trkpt><trkpt lat="44.5872167" lon="8.0068833"><ele>435.0</ele><time>2026-04-12T10:52:08.444Z</time></trkpt><trkpt lat="44.5871633" lon="8.00694"><ele>435.0</ele><time>2026-04-12T10:52:10.444Z</time></trkpt><trkpt lat="44.5871133" lon="8.006995"><ele>435.0</ele><time>2026-04-12T10:52:12.444Z</time></trkpt><trkpt lat="44.5870567" lon="8.007085"><ele>435.8333333333333</ele><time>2026-04-12T10:52:15.444Z</time></trkpt><trkpt lat="44.5869983" lon="8.007185"><ele>436.66666666666663</ele><time>2026-04-12T10:52:18.444Z</time></trkpt><trkpt lat="44.5869483" lon="8.00729"><ele>437.5</ele><time>2026-04-12T10:52:21.444Z</time></trkpt><trkpt lat="44.58691" lon="8.0074017"><ele>438.3333333333333</ele><time>2026-04-12T10:52:24.444Z</time></trkpt><trkpt lat="44.5868833" lon="8.007525"><ele>439.16666666666663</ele><time>2026-04-12T10:52:27.444Z</time></trkpt><trkpt lat="44.586865" lon="8.0076183"><ele>440.0</ele><time>2026-04-12T10:52:29.444Z</time></trkpt><trkpt lat="44.5868567" lon="8.0077083"><ele>439.99999999999994</ele><time>2026-04-12T10:52:31.444Z</time></trkpt><trkpt lat="44.586865" lon="8.007835"><ele>440.0</ele><time>2026-04-12T10:52:34.444Z</time></trkpt><trkpt lat="44.58688" lon="8.0079617"><ele>440.0</ele><time>2026-04-12T10:52:37.444Z</time></trkpt><trkpt lat="44.5868967" lon="8.0080483"><ele>440.0</ele><time>2026-04-12T10:52:39.444Z</time></trkpt><trkpt lat="44.5869133" lon="8.0081383"><ele>439.99999999999994</ele><time>2026-04-12T10:52:41.444Z</time></trkpt><trkpt lat="44.58693" lon="8.0082567"><ele>440.0</ele><time>2026-04-12T10:52:44.444Z</time></trkpt><trkpt lat="44.58694" lon="8.0083767"><ele>441.3333333333333</ele><time>2026-04-12T10:52:47.444Z</time></trkpt><trkpt lat="44.5869383" lon="8.0085033"><ele>442.66666666666663</ele><time>2026-04-12T10:52:50.444Z</time></trkpt><trkpt lat="44.5869" lon="8.0086233"><ele>444.0</ele><time>2026-04-12T10:52:53.444Z</time></trkpt><trkpt lat="44.5868633" lon="8.0086967"><ele>445.33333333333337</ele><time>2026-04-12T10:52:55.444Z</time></trkpt><trkpt lat="44.58682" lon="8.0087667"><ele>446.6666666666667</ele><time>2026-04-12T10:52:57.444Z</time></trkpt><trkpt lat="44.5867617" lon="8.0088367"><ele>448.0</ele><time>2026-04-12T10:52:59.444Z</time></trkpt><trkpt lat="44.5867117" lon="8.0089033"><ele>448.00000000000006</ele><time>2026-04-12T10:53:01.445Z</time></trkpt><trkpt lat="44.5866633" lon="8.0089667"><ele>448.0</ele><time>2026-04-12T10:53:03.444Z</time></trkpt><trkpt lat="44.5866133" lon="8.0090333"><ele>448.0</ele><time>2026-04-12T10:53:05.444Z</time></trkpt><trkpt lat="44.58656" lon="8.0090983"><ele>448.0</ele><time>2026-04-12T10:53:07.444Z</time></trkpt><trkpt lat="44.5865017" lon="8.0091883"><ele>448.00000000000006</ele><time>2026-04-12T10:53:10.444Z</time></trkpt><trkpt lat="44.586445" lon="8.00929"><ele>448.0</ele><time>2026-04-12T10:53:13.444Z</time></trkpt><trkpt lat="44.586405" lon="8.0093633"><ele>447.83333333333337</ele><time>2026-04-12T10:53:15.444Z</time></trkpt><trkpt lat="44.586365" lon="8.009435"><ele>447.6666666666667</ele><time>2026-04-12T10:53:17.444Z</time></trkpt><trkpt lat="44.58632" lon="8.0095483"><ele>447.5</ele><time>2026-04-12T10:53:20.444Z</time></trkpt><trkpt lat="44.5862883" lon="8.0096267"><ele>447.33333333333337</ele><time>2026-04-12T10:53:22.444Z</time></trkpt><trkpt lat="44.58624" lon="8.009725"><ele>447.1666666666667</ele><time>2026-04-12T10:53:25.444Z</time></trkpt><trkpt lat="44.586185" lon="8.0098317"><ele>447.0</ele><time>2026-04-12T10:53:28.444Z</time></trkpt><trkpt lat="44.5861317" lon="8.00993"><ele>449.85714285714283</ele><time>2026-04-12T10:53:31.444Z</time></trkpt><trkpt lat="44.5860783" lon="8.0100367"><ele>452.71428571428567</ele><time>2026-04-12T10:53:34.444Z</time></trkpt><trkpt lat="44.586025" lon="8.010095"><ele>455.57142857142856</ele><time>2026-04-12T10:53:36.444Z</time></trkpt><trkpt lat="44.5859683" lon="8.010145"><ele>458.4285714285714</ele><time>2026-04-12T10:53:38.444Z</time></trkpt><trkpt lat="44.585905" lon="8.010185"><ele>461.2857142857143</ele><time>2026-04-12T10:53:40.445Z</time></trkpt><trkpt lat="44.58584" lon="8.0102067"><ele>464.14285714285705</ele><time>2026-04-12T10:53:42.444Z</time></trkpt><trkpt lat="44.5857683" lon="8.0102183"><ele>466.99999999999994</ele><time>2026-04-12T10:53:44.444Z</time></trkpt><trkpt lat="44.5857033" lon="8.0102167"><ele>466.99999999999994</ele><time>2026-04-12T10:53:46.444Z</time></trkpt><trkpt lat="44.58562" lon="8.010205"><ele>467.0</ele><time>2026-04-12T10:53:49.444Z</time></trkpt><trkpt lat="44.5855283" lon="8.0102"><ele>467.0</ele><time>2026-04-12T10:53:52.444Z</time></trkpt><trkpt lat="44.5854333" lon="8.0102167"><ele>467.0</ele><time>2026-04-12T10:53:55.444Z</time></trkpt><trkpt lat="44.5853567" lon="8.0102733"><ele>466.99999999999994</ele><time>2026-04-12T10:53:58.444Z</time></trkpt><trkpt lat="44.5853033" lon="8.0103717"><ele>467.0</ele><time>2026-04-12T10:54:01.444Z</time></trkpt><trkpt lat="44.58529" lon="8.0104883"><ele>466.99999999999994</ele><time>2026-04-12T10:54:04.444Z</time></trkpt><trkpt lat="44.5853117" lon="8.0106017"><ele>467.0</ele><time>2026-04-12T10:54:07.444Z</time></trkpt><trkpt lat="44.58538" lon="8.0106817"><ele>466.99999999999994</ele><time>2026-04-12T10:54:10.444Z</time></trkpt><trkpt lat="44.585435" lon="8.0107333"><ele>466.99999999999994</ele><time>2026-04-12T10:54:12.444Z</time></trkpt><trkpt lat="44.5855033" lon="8.0107667"><ele>467.0</ele><time>2026-04-12T10:54:14.444Z</time></trkpt><trkpt lat="44.5855683" lon="8.0107817"><ele>466.99999999999994</ele><time>2026-04-12T10:54:16.444Z</time></trkpt><trkpt lat="44.5856333" lon="8.01078"><ele>466.99999999999994</ele><time>2026-04-12T10:54:18.444Z</time></trkpt><trkpt lat="44.585725" lon="8.0107933"><ele>466.99999999999994</ele><time>2026-04-12T10:54:21.444Z</time></trkpt><trkpt lat="44.5857983" lon="8.0107983"><ele>467.0</ele><time>2026-04-12T10:54:23.444Z</time></trkpt><trkpt lat="44.58587" lon="8.0108"><ele>467.0</ele><time>2026-04-12T10:54:25.444Z</time></trkpt><trkpt lat="44.5859467" lon="8.0107833"><ele>467.0</ele><time>2026-04-12T10:54:27.444Z</time></trkpt><trkpt lat="44.58602" lon="8.0107533"><ele>466.99999999999994</ele><time>2026-04-12T10:54:29.444Z</time></trkpt><trkpt lat="44.5860917" lon="8.0107217"><ele>467.0</ele><time>2026-04-12T10:54:31.444Z</time></trkpt><trkpt lat="44.58617" lon="8.0106833"><ele>468.71428571428567</ele><time>2026-04-12T10:54:33.444Z</time></trkpt><trkpt lat="44.5862367" lon="8.0106383"><ele>470.42857142857144</ele><time>2026-04-12T10:54:35.444Z</time></trkpt><trkpt lat="44.5862917" lon="8.01059"><ele>472.1428571428571</ele><time>2026-04-12T10:54:37.444Z</time></trkpt><trkpt lat="44.5863433" lon="8.010515"><ele>473.85714285714283</ele><time>2026-04-12T10:54:39.444Z</time></trkpt><trkpt lat="44.586405" lon="8.0104467"><ele>475.57142857142856</ele><time>2026-04-12T10:54:41.445Z</time></trkpt><trkpt lat="44.5864667" lon="8.0103983"><ele>477.2857142857143</ele><time>2026-04-12T10:54:43.445Z</time></trkpt><trkpt lat="44.5865283" lon="8.0103783"><ele>479.0</ele><time>2026-04-12T10:54:45.444Z</time></trkpt><trkpt lat="44.58658" lon="8.0104333"><ele>479.0</ele><time>2026-04-12T10:54:47.444Z</time></trkpt><trkpt lat="44.5865633" lon="8.01054"><ele>479.0</ele><time>2026-04-12T10:54:50.444Z</time></trkpt><trkpt lat="44.5865167" lon="8.0106017"><ele>479.0</ele><time>2026-04-12T10:54:52.445Z</time></trkpt><trkpt lat="44.5864633" lon="8.0106567"><ele>479.0</ele><time>2026-04-12T10:54:54.444Z</time></trkpt><trkpt lat="44.5864083" lon="8.0107117"><ele>479.0</ele><time>2026-04-12T10:54:56.444Z</time></trkpt><trkpt lat="44.5863517" lon="8.01077"><ele>479.0</ele><time>2026-04-12T10:54:58.444Z</time></trkpt><trkpt lat="44.5862967" lon="8.0108217"><ele>479.0</ele><time>2026-04-12T10:55:00.444Z</time></trkpt><trkpt lat="44.5862383" lon="8.01087"><ele>479.57142857142856</ele><time>2026-04-12T10:55:02.444Z</time></trkpt><trkpt lat="44.58616" lon="8.010945"><ele>480.14285714285717</ele><time>2026-04-12T10:55:05.444Z</time></trkpt><trkpt lat="44.58611" lon="8.011005"><ele>480.7142857142857</ele><time>2026-04-12T10:55:07.444Z</time></trkpt><trkpt lat="44.5860633" lon="8.0110667"><ele>481.2857142857143</ele><time>2026-04-12T10:55:09.444Z</time></trkpt><trkpt lat="44.5860133" lon="8.011125"><ele>481.8571428571429</ele><time>2026-04-12T10:55:11.444Z</time></trkpt><trkpt lat="44.5859667" lon="8.0111883"><ele>482.42857142857144</ele><time>2026-04-12T10:55:13.444Z</time></trkpt><trkpt lat="44.5859183" lon="8.0112517"><ele>483.0</ele><time>2026-04-12T10:55:15.444Z</time></trkpt><trkpt lat="44.5858783" lon="8.01132"><ele>483.0</ele><time>2026-04-12T10:55:17.444Z</time></trkpt><trkpt lat="44.5858133" lon="8.0114217"><ele>483.0</ele><time>2026-04-12T10:55:20.444Z</time></trkpt><trkpt lat="44.5857667" lon="8.0114917"><ele>483.0</ele><time>2026-04-12T10:55:22.444Z</time></trkpt><trkpt lat="44.5857283" lon="8.0115667"><ele>483.0</ele><time>2026-04-12T10:55:24.444Z</time></trkpt><trkpt lat="44.585685" lon="8.0116317"><ele>483.0</ele><time>2026-04-12T10:55:26.444Z</time></trkpt><trkpt lat="44.5856433" lon="8.01171"><ele>483.0</ele><time>2026-04-12T10:55:28.444Z</time></trkpt><trkpt lat="44.5856167" lon="8.0117933"><ele>483.0</ele><time>2026-04-12T10:55:30.444Z</time></trkpt><trkpt lat="44.585575" lon="8.0119017"><ele>484.0</ele><time>2026-04-12T10:55:33.444Z</time></trkpt><trkpt lat="44.5855383" lon="8.0119767"><ele>485.0</ele><time>2026-04-12T10:55:35.444Z</time></trkpt><trkpt lat="44.58551" lon="8.012065"><ele>486.0</ele><time>2026-04-12T10:55:37.444Z</time></trkpt><trkpt lat="44.5854567" lon="8.0121733"><ele>487.0</ele><time>2026-04-12T10:55:40.444Z</time></trkpt><trkpt lat="44.5854133" lon="8.01225"><ele>488.0</ele><time>2026-04-12T10:55:42.444Z</time></trkpt><trkpt lat="44.5853667" lon="8.01233"><ele>489.0</ele><time>2026-04-12T10:55:44.444Z</time></trkpt><trkpt lat="44.58532" lon="8.0123983"><ele>490.0</ele><time>2026-04-12T10:55:46.444Z</time></trkpt><trkpt lat="44.5852583" lon="8.0124783"><ele>492.4</ele><time>2026-04-12T10:55:49.444Z</time></trkpt><trkpt lat="44.58521" lon="8.012585"><ele>494.8</ele><time>2026-04-12T10:55:52.444Z</time></trkpt><trkpt lat="44.585225" lon="8.0127133"><ele>497.20000000000005</ele><time>2026-04-12T10:55:55.444Z</time></trkpt><trkpt lat="44.5852367" lon="8.01284"><ele>499.6</ele><time>2026-04-12T10:55:58.444Z</time></trkpt><trkpt lat="44.58524" lon="8.0129533"><ele>502.0</ele><time>2026-04-12T10:56:00.444Z</time></trkpt><trkpt lat="44.585245" lon="8.013095"><ele>502.00000000000006</ele><time>2026-04-12T10:56:02.444Z</time></trkpt><trkpt lat="44.5852633" lon="8.0132683"><ele>502.0</ele><time>2026-04-12T10:56:04.444Z</time></trkpt><trkpt lat="44.5852733" lon="8.0133583"><ele>502.0</ele><time>2026-04-12T10:56:05.444Z</time></trkpt><trkpt lat="44.5852783" lon="8.01345"><ele>502.0</ele><time>2026-04-12T10:56:06.444Z</time></trkpt><trkpt lat="44.585285" lon="8.0135483"><ele>502.00000000000006</ele><time>2026-04-12T10:56:07.444Z</time></trkpt><trkpt lat="44.5852917" lon="8.0136467"><ele>502.0</ele><time>2026-04-12T10:56:08.444Z</time></trkpt><trkpt lat="44.5853183" lon="8.01375"><ele>499.6666666666667</ele><time>2026-04-12T10:56:09.444Z</time></trkpt><trkpt lat="44.5853567" lon="8.013855"><ele>497.33333333333337</ele><time>2026-04-12T10:56:10.444Z</time></trkpt><trkpt lat="44.5854067" lon="8.0139533"><ele>495.0</ele><time>2026-04-12T10:56:11.444Z</time></trkpt><trkpt lat="44.585455" lon="8.0140467"><ele>492.66666666666663</ele><time>2026-04-12T10:56:12.444Z</time></trkpt><trkpt lat="44.5855067" lon="8.0141383"><ele>490.3333333333333</ele><time>2026-04-12T10:56:13.444Z</time></trkpt><trkpt lat="44.5855617" lon="8.0142367"><ele>488.0</ele><time>2026-04-12T10:56:14.444Z</time></trkpt><trkpt lat="44.5856117" lon="8.01433"><ele>488.0</ele><time>2026-04-12T10:56:15.444Z</time></trkpt><trkpt lat="44.58566" lon="8.0144367"><ele>487.99999999999994</ele><time>2026-04-12T10:56:16.444Z</time></trkpt><trkpt lat="44.5857133" lon="8.01455"><ele>487.99999999999994</ele><time>2026-04-12T10:56:17.444Z</time></trkpt><trkpt lat="44.5857633" lon="8.0146683"><ele>488.0</ele><time>2026-04-12T10:56:18.444Z</time></trkpt><trkpt lat="44.5858017" lon="8.0147967"><ele>488.0</ele><time>2026-04-12T10:56:19.444Z</time></trkpt><trkpt lat="44.5858233" lon="8.0149267"><ele>488.2</ele><time>2026-04-12T10:56:20.444Z</time></trkpt><trkpt lat="44.5858167" lon="8.0150683"><ele>488.4</ele><time>2026-04-12T10:56:21.444Z</time></trkpt><trkpt lat="44.5857917" lon="8.015215"><ele>488.59999999999997</ele><time>2026-04-12T10:56:22.444Z</time></trkpt><trkpt lat="44.5857833" lon="8.0153433"><ele>488.79999999999995</ele><time>2026-04-12T10:56:23.444Z</time></trkpt><trkpt lat="44.58579" lon="8.0154667"><ele>489.0</ele><time>2026-04-12T10:56:24.444Z</time></trkpt><trkpt lat="44.5858183" lon="8.01558"><ele>489.0</ele><time>2026-04-12T10:56:25.444Z</time></trkpt><trkpt lat="44.5858567" lon="8.0156783"><ele>489.0</ele><time>2026-04-12T10:56:26.444Z</time></trkpt><trkpt lat="44.585905" lon="8.0157717"><ele>489.0</ele><time>2026-04-12T10:56:27.444Z</time></trkpt><trkpt lat="44.5859533" lon="8.0158417"><ele>489.0</ele><time>2026-04-12T10:56:28.444Z</time></trkpt><trkpt lat="44.5860033" lon="8.0158967"><ele>489.0</ele><time>2026-04-12T10:56:29.444Z</time></trkpt><trkpt lat="44.58611" lon="8.0159983"><ele>489.0</ele><time>2026-04-12T10:56:31.444Z</time></trkpt><trkpt lat="44.5862017" lon="8.0161233"><ele>488.1666666666667</ele><time>2026-04-12T10:56:33.444Z</time></trkpt><trkpt lat="44.5862383" lon="8.016205"><ele>487.33333333333337</ele><time>2026-04-12T10:56:34.444Z</time></trkpt><trkpt lat="44.586265" lon="8.0162883"><ele>486.5</ele><time>2026-04-12T10:56:35.444Z</time></trkpt><trkpt lat="44.5863017" lon="8.0164367"><ele>485.6666666666667</ele><time>2026-04-12T10:56:37.444Z</time></trkpt><trkpt lat="44.58633" lon="8.016555"><ele>484.83333333333337</ele><time>2026-04-12T10:56:39.444Z</time></trkpt><trkpt lat="44.5863467" lon="8.016645"><ele>484.0</ele><time>2026-04-12T10:56:41.444Z</time></trkpt><trkpt lat="44.5863533" lon="8.016745"><ele>484.0</ele><time>2026-04-12T10:56:44.444Z</time></trkpt><trkpt lat="44.5862667" lon="8.0167833"><ele>483.99999999999994</ele><time>2026-04-12T10:56:47.444Z</time></trkpt><trkpt lat="44.5862" lon="8.01678"><ele>484.0</ele><time>2026-04-12T10:56:49.444Z</time></trkpt><trkpt lat="44.5861333" lon="8.016775"><ele>484.0</ele><time>2026-04-12T10:56:51.445Z</time></trkpt><trkpt lat="44.586065" lon="8.0167617"><ele>483.99999999999994</ele><time>2026-04-12T10:56:53.444Z</time></trkpt><trkpt lat="44.5859967" lon="8.0167367"><ele>484.0</ele><time>2026-04-12T10:56:55.444Z</time></trkpt><trkpt lat="44.5859383" lon="8.016685"><ele>484.0</ele><time>2026-04-12T10:56:57.444Z</time></trkpt><trkpt lat="44.5858833" lon="8.0166333"><ele>485.00000000000006</ele><time>2026-04-12T10:56:59.444Z</time></trkpt><trkpt lat="44.58584" lon="8.0165683"><ele>486.0</ele><time>2026-04-12T10:57:01.444Z</time></trkpt><trkpt lat="44.58578" lon="8.0164767"><ele>487.0</ele><time>2026-04-12T10:57:04.444Z</time></trkpt><trkpt lat="44.58572" lon="8.01639"><ele>488.0</ele><time>2026-04-12T10:57:07.444Z</time></trkpt><trkpt lat="44.585645" lon="8.01632"><ele>489.00000000000006</ele><time>2026-04-12T10:57:10.444Z</time></trkpt><trkpt lat="44.5855717" lon="8.01628"><ele>490.0</ele><time>2026-04-12T10:57:13.444Z</time></trkpt><trkpt lat="44.5854967" lon="8.0162533"><ele>490.0</ele><time>2026-04-12T10:57:16.444Z</time></trkpt><trkpt lat="44.5854333" lon="8.0162333"><ele>490.0</ele><time>2026-04-12T10:57:18.444Z</time></trkpt><trkpt lat="44.58537" lon="8.0162117"><ele>490.0</ele><time>2026-04-12T10:57:20.444Z</time></trkpt><trkpt lat="44.5852833" lon="8.0161833"><ele>490.0</ele><time>2026-04-12T10:57:23.444Z</time></trkpt><trkpt lat="44.5852067" lon="8.0161517"><ele>490.0</ele><time>2026-04-12T10:57:26.444Z</time></trkpt><trkpt lat="44.5851633" lon="8.0160867"><ele>490.0</ele><time>2026-04-12T10:57:29.444Z</time></trkpt><trkpt lat="44.58512" lon="8.016005"><ele>490.0</ele><time>2026-04-12T10:57:32.444Z</time></trkpt><trkpt lat="44.5850767" lon="8.0159217"><ele>491.0</ele><time>2026-04-12T10:57:35.444Z</time></trkpt><trkpt lat="44.58504" lon="8.01584"><ele>492.0</ele><time>2026-04-12T10:57:38.444Z</time></trkpt><trkpt lat="44.5849983" lon="8.0157617"><ele>493.0</ele><time>2026-04-12T10:57:41.444Z</time></trkpt><trkpt lat="44.58497" lon="8.0156667"><ele>494.0</ele><time>2026-04-12T10:57:44.444Z</time></trkpt><trkpt lat="44.584905" lon="8.01559"><ele>495.0</ele><time>2026-04-12T10:57:47.444Z</time></trkpt><trkpt lat="44.5848583" lon="8.0155283"><ele>496.0</ele><time>2026-04-12T10:57:49.444Z</time></trkpt><trkpt lat="44.5848117" lon="8.0154633"><ele>497.0</ele><time>2026-04-12T10:57:51.444Z</time></trkpt><trkpt lat="44.5847567" lon="8.0153783"><ele>498.42857142857144</ele><time>2026-04-12T10:57:54.444Z</time></trkpt><trkpt lat="44.584695" lon="8.0153233"><ele>499.8571428571429</ele><time>2026-04-12T10:57:57.444Z</time></trkpt><trkpt lat="44.5846317" lon="8.0152567"><ele>501.2857142857143</ele><time>2026-04-12T10:58:00.444Z</time></trkpt><trkpt lat="44.584565" lon="8.0151883"><ele>502.7142857142857</ele><time>2026-04-12T10:58:03.444Z</time></trkpt><trkpt lat="44.5845017" lon="8.01514"><ele>504.14285714285717</ele><time>2026-04-12T10:58:06.444Z</time></trkpt><trkpt lat="44.5844467" lon="8.0150967"><ele>505.57142857142856</ele><time>2026-04-12T10:58:09.444Z</time></trkpt><trkpt lat="44.5843717" lon="8.0150717"><ele>507.0</ele><time>2026-04-12T10:58:12.444Z</time></trkpt><trkpt lat="44.58428" lon="8.0150633"><ele>508.0</ele><time>2026-04-12T10:58:15.444Z</time></trkpt><trkpt lat="44.5842133" lon="8.0150667"><ele>509.0</ele><time>2026-04-12T10:58:18.444Z</time></trkpt><trkpt lat="44.584135" lon="8.015075"><ele>510.0</ele><time>2026-04-12T10:58:21.444Z</time></trkpt><trkpt lat="44.5840483" lon="8.0150867"><ele>511.0</ele><time>2026-04-12T10:58:24.444Z</time></trkpt><trkpt lat="44.583965" lon="8.0150933"><ele>512.0</ele><time>2026-04-12T10:58:27.444Z</time></trkpt><trkpt lat="44.5838933" lon="8.0150767"><ele>513.0</ele><time>2026-04-12T10:58:30.444Z</time></trkpt><trkpt lat="44.5838217" lon="8.0150233"><ele>515.1428571428572</ele><time>2026-04-12T10:58:34.444Z</time></trkpt><trkpt lat="44.58376" lon="8.0149767"><ele>517.2857142857143</ele><time>2026-04-12T10:58:37.444Z</time></trkpt><trkpt lat="44.5837017" lon="8.0149233"><ele>519.4285714285714</ele><time>2026-04-12T10:58:40.444Z</time></trkpt><trkpt lat="44.5836517" lon="8.0148667"><ele>521.5714285714287</ele><time>2026-04-12T10:58:43.444Z</time></trkpt><trkpt lat="44.5836033" lon="8.0147933"><ele>523.7142857142858</ele><time>2026-04-12T10:58:46.444Z</time></trkpt><trkpt lat="44.5835383" lon="8.014715"><ele>525.8571428571429</ele><time>2026-04-12T10:58:50.444Z</time></trkpt><trkpt lat="44.5834917" lon="8.0146467"><ele>528.0</ele><time>2026-04-12T10:58:53.444Z</time></trkpt><trkpt lat="44.5834283" lon="8.0145717"><ele>528.4285714285714</ele><time>2026-04-12T10:58:57.444Z</time></trkpt><trkpt lat="44.58337" lon="8.0145133"><ele>528.8571428571429</ele><time>2026-04-12T10:59:00.444Z</time></trkpt><trkpt lat="44.5833167" lon="8.0144633"><ele>529.2857142857143</ele><time>2026-04-12T10:59:02.444Z</time></trkpt><trkpt lat="44.5832483" lon="8.0144067"><ele>529.7142857142858</ele><time>2026-04-12T10:59:05.445Z</time></trkpt><trkpt lat="44.5831883" lon="8.0143683"><ele>530.1428571428572</ele><time>2026-04-12T10:59:07.444Z</time></trkpt><trkpt lat="44.5831183" lon="8.0143333"><ele>530.5714285714286</ele><time>2026-04-12T10:59:09.444Z</time></trkpt><trkpt lat="44.58304" lon="8.0142983"><ele>531.0</ele><time>2026-04-12T10:59:11.444Z</time></trkpt><trkpt lat="44.58296" lon="8.014285"><ele>531.0</ele><time>2026-04-12T10:59:13.444Z</time></trkpt><trkpt lat="44.5828783" lon="8.0142817"><ele>531.0</ele><time>2026-04-12T10:59:15.444Z</time></trkpt><trkpt lat="44.582785" lon="8.01427"><ele>531.0</ele><time>2026-04-12T10:59:17.445Z</time></trkpt><trkpt lat="44.58269" lon="8.01427"><ele>531.0</ele><time>2026-04-12T10:59:19.444Z</time></trkpt><trkpt lat="44.5825983" lon="8.01427"><ele>531.0</ele><time>2026-04-12T10:59:21.444Z</time></trkpt><trkpt lat="44.5825233" lon="8.01427"><ele>531.0</ele><time>2026-04-12T10:59:23.444Z</time></trkpt><trkpt lat="44.5824583" lon="8.0142617"><ele>530.1428571428571</ele><time>2026-04-12T10:59:25.444Z</time></trkpt><trkpt lat="44.5823933" lon="8.0142533"><ele>529.2857142857143</ele><time>2026-04-12T10:59:27.444Z</time></trkpt><trkpt lat="44.5823233" lon="8.0142383"><ele>528.4285714285714</ele><time>2026-04-12T10:59:29.444Z</time></trkpt><trkpt lat="44.58224" lon="8.0142167"><ele>527.5714285714286</ele><time>2026-04-12T10:59:32.444Z</time></trkpt><trkpt lat="44.5821717" lon="8.0141883"><ele>526.7142857142858</ele><time>2026-04-12T10:59:35.444Z</time></trkpt><trkpt lat="44.5821167" lon="8.0141267"><ele>525.8571428571429</ele><time>2026-04-12T10:59:38.444Z</time></trkpt><trkpt lat="44.5820467" lon="8.0141233"><ele>525.0</ele><time>2026-04-12T10:59:41.444Z</time></trkpt><trkpt lat="44.5819717" lon="8.0141167"><ele>523.5</ele><time>2026-04-12T10:59:44.444Z</time></trkpt><trkpt lat="44.5818983" lon="8.0141333"><ele>522.0</ele><time>2026-04-12T11:00:27.444Z</time></trkpt><trkpt lat="44.581815" lon="8.0141283"><ele>520.5</ele><time>2026-04-12T11:00:30.444Z</time></trkpt><trkpt lat="44.5817317" lon="8.0141033"><ele>519.0</ele><time>2026-04-12T11:00:32.444Z</time></trkpt><trkpt lat="44.5816467" lon="8.0140783"><ele>517.5</ele><time>2026-04-12T11:00:34.444Z</time></trkpt><trkpt lat="44.5815633" lon="8.0140467"><ele>516.0</ele><time>2026-04-12T11:00:36.444Z</time></trkpt><trkpt lat="44.58148" lon="8.01401"><ele>516.0</ele><time>2026-04-12T11:00:38.444Z</time></trkpt><trkpt lat="44.5814083" lon="8.0139933"><ele>516.0</ele><time>2026-04-12T11:00:40.444Z</time></trkpt><trkpt lat="44.5813283" lon="8.013975"><ele>516.0</ele><time>2026-04-12T11:00:42.444Z</time></trkpt><trkpt lat="44.5812317" lon="8.01397"><ele>516.0</ele><time>2026-04-12T11:00:44.444Z</time></trkpt><trkpt lat="44.581145" lon="8.0139517"><ele>516.0</ele><time>2026-04-12T11:00:46.445Z</time></trkpt><trkpt lat="44.5810517" lon="8.0139433"><ele>516.0</ele><time>2026-04-12T11:00:48.444Z</time></trkpt><trkpt lat="44.580965" lon="8.01395"><ele>516.3333333333334</ele><time>2026-04-12T11:00:50.444Z</time></trkpt><trkpt lat="44.58088" lon="8.0139483"><ele>516.6666666666666</ele><time>2026-04-12T11:00:52.444Z</time></trkpt><trkpt lat="44.580795" lon="8.013955"><ele>517.0</ele><time>2026-04-12T11:00:54.444Z</time></trkpt><trkpt lat="44.580695" lon="8.0139483"><ele>517.3333333333333</ele><time>2026-04-12T11:00:56.444Z</time></trkpt><trkpt lat="44.5806017" lon="8.0139383"><ele>517.6666666666666</ele><time>2026-04-12T11:00:58.445Z</time></trkpt><trkpt lat="44.5805233" lon="8.01394"><ele>518.0</ele><time>2026-04-12T11:01:00.444Z</time></trkpt><trkpt lat="44.58045" lon="8.0139383"><ele>518.0</ele><time>2026-04-12T11:01:02.444Z</time></trkpt><trkpt lat="44.5803833" lon="8.0139333"><ele>518.0</ele><time>2026-04-12T11:01:04.444Z</time></trkpt><trkpt lat="44.5803017" lon="8.0139367"><ele>518.0</ele><time>2026-04-12T11:01:07.444Z</time></trkpt><trkpt lat="44.5802367" lon="8.0139417"><ele>518.0</ele><time>2026-04-12T11:01:09.444Z</time></trkpt><trkpt lat="44.5801683" lon="8.0139467"><ele>518.0</ele><time>2026-04-12T11:01:11.444Z</time></trkpt><trkpt lat="44.5800767" lon="8.013945"><ele>518.0</ele><time>2026-04-12T11:01:14.444Z</time></trkpt><trkpt lat="44.58001" lon="8.013945"><ele>518.0</ele><time>2026-04-12T11:01:16.444Z</time></trkpt><trkpt lat="44.5799417" lon="8.0139417"><ele>519.1666666666666</ele><time>2026-04-12T11:01:18.444Z</time></trkpt><trkpt lat="44.5798767" lon="8.0139367"><ele>520.3333333333333</ele><time>2026-04-12T11:01:20.444Z</time></trkpt><trkpt lat="44.5798017" lon="8.01393"><ele>521.5</ele><time>2026-04-12T11:01:22.444Z</time></trkpt><trkpt lat="44.5797367" lon="8.0139217"><ele>522.6666666666666</ele><time>2026-04-12T11:01:24.444Z</time></trkpt><trkpt lat="44.5796433" lon="8.0138783"><ele>523.8333333333334</ele><time>2026-04-12T11:01:27.444Z</time></trkpt><trkpt lat="44.57958" lon="8.0138383"><ele>525.0</ele><time>2026-04-12T11:01:29.444Z</time></trkpt><trkpt lat="44.5795017" lon="8.0137667"><ele>526.8333333333334</ele><time>2026-04-12T11:01:32.444Z</time></trkpt><trkpt lat="44.5794533" lon="8.0137033"><ele>528.6666666666666</ele><time>2026-04-12T11:01:34.444Z</time></trkpt><trkpt lat="44.5794083" lon="8.01364"><ele>530.5</ele><time>2026-04-12T11:01:36.444Z</time></trkpt><trkpt lat="44.5793733" lon="8.0135233"><ele>532.3333333333333</ele><time>2026-04-12T11:01:39.444Z</time></trkpt><trkpt lat="44.5793433" lon="8.013405"><ele>534.1666666666666</ele><time>2026-04-12T11:01:42.444Z</time></trkpt><trkpt lat="44.5793117" lon="8.0132883"><ele>536.0</ele><time>2026-04-12T11:01:45.444Z</time></trkpt><trkpt lat="44.579255" lon="8.013185"><ele>536.0</ele><time>2026-04-12T11:01:48.444Z</time></trkpt><trkpt lat="44.5791667" lon="8.013175"><ele>536.0</ele><time>2026-04-12T11:01:51.444Z</time></trkpt><trkpt lat="44.57912" lon="8.0132417"><ele>536.0</ele><time>2026-04-12T11:01:53.444Z</time></trkpt><trkpt lat="44.579085" lon="8.0133217"><ele>536.0</ele><time>2026-04-12T11:01:55.444Z</time></trkpt><trkpt lat="44.5790533" lon="8.0134067"><ele>536.0</ele><time>2026-04-12T11:01:57.444Z</time></trkpt><trkpt lat="44.5790267" lon="8.013495"><ele>536.0</ele><time>2026-04-12T11:01:59.444Z</time></trkpt><trkpt lat="44.578985" lon="8.01357"><ele>536.0</ele><time>2026-04-12T11:02:01.444Z</time></trkpt><trkpt lat="44.57893" lon="8.0136267"><ele>537.5714285714286</ele><time>2026-04-12T11:02:03.444Z</time></trkpt><trkpt lat="44.5788733" lon="8.013675"><ele>539.1428571428571</ele><time>2026-04-12T11:02:05.444Z</time></trkpt><trkpt lat="44.5788117" lon="8.013725"><ele>540.7142857142857</ele><time>2026-04-12T11:02:07.444Z</time></trkpt><trkpt lat="44.5787467" lon="8.0137533"><ele>542.2857142857142</ele><time>2026-04-12T11:02:09.444Z</time></trkpt><trkpt lat="44.5786567" lon="8.0137783"><ele>543.8571428571428</ele><time>2026-04-12T11:02:12.444Z</time></trkpt><trkpt lat="44.5785933" lon="8.0138"><ele>545.4285714285714</ele><time>2026-04-12T11:02:14.444Z</time></trkpt><trkpt lat="44.5785217" lon="8.01383"><ele>547.0</ele><time>2026-04-12T11:02:16.444Z</time></trkpt><trkpt lat="44.5784333" lon="8.01387"><ele>549.0</ele><time>2026-04-12T11:02:19.444Z</time></trkpt><trkpt lat="44.578365" lon="8.0138983"><ele>551.0</ele><time>2026-04-12T11:02:21.444Z</time></trkpt><trkpt lat="44.5783" lon="8.0139183"><ele>553.0</ele><time>2026-04-12T11:02:23.444Z</time></trkpt><trkpt lat="44.578235" lon="8.0139467"><ele>555.0</ele><time>2026-04-12T11:02:25.444Z</time></trkpt><trkpt lat="44.5781667" lon="8.0139767"><ele>557.0</ele><time>2026-04-12T11:02:27.445Z</time></trkpt><trkpt lat="44.5781" lon="8.0139917"><ele>559.0</ele><time>2026-04-12T11:02:29.444Z</time></trkpt><trkpt lat="44.5780183" lon="8.0140367"><ele>561.0</ele><time>2026-04-12T11:02:32.444Z</time></trkpt><trkpt lat="44.5779317" lon="8.0140833"><ele>561.0</ele><time>2026-04-12T11:02:35.444Z</time></trkpt><trkpt lat="44.577865" lon="8.014115"><ele>561.0</ele><time>2026-04-12T11:02:37.444Z</time></trkpt><trkpt lat="44.5777783" lon="8.01417"><ele>561.0</ele><time>2026-04-12T11:02:40.444Z</time></trkpt><trkpt lat="44.5776883" lon="8.0142117"><ele>561.0</ele><time>2026-04-12T11:02:43.444Z</time></trkpt><trkpt lat="44.5776017" lon="8.014245"><ele>561.0</ele><time>2026-04-12T11:02:46.444Z</time></trkpt><trkpt lat="44.577535" lon="8.01427"><ele>561.0</ele><time>2026-04-12T11:02:48.444Z</time></trkpt><trkpt lat="44.57744" lon="8.014305"><ele>561.4285714285714</ele><time>2026-04-12T11:02:51.444Z</time></trkpt><trkpt lat="44.57738" lon="8.01434"><ele>561.8571428571428</ele><time>2026-04-12T11:02:53.444Z</time></trkpt><trkpt lat="44.5773217" lon="8.0143817"><ele>562.2857142857142</ele><time>2026-04-12T11:02:55.444Z</time></trkpt><trkpt lat="44.57726" lon="8.014415"><ele>562.7142857142857</ele><time>2026-04-12T11:02:57.445Z</time></trkpt><trkpt lat="44.5771817" lon="8.014475"><ele>563.1428571428571</ele><time>2026-04-12T11:03:00.444Z</time></trkpt><trkpt lat="44.5771033" lon="8.0145233"><ele>563.5714285714286</ele><time>2026-04-12T11:03:03.444Z</time></trkpt><trkpt lat="44.5770383" lon="8.0145617"><ele>564.0</ele><time>2026-04-12T11:03:05.444Z</time></trkpt><trkpt lat="44.57697" lon="8.0145933"><ele>565.8333333333334</ele><time>2026-04-12T11:03:07.444Z</time></trkpt><trkpt lat="44.5769117" lon="8.0146283"><ele>567.6666666666666</ele><time>2026-04-12T11:03:09.444Z</time></trkpt><trkpt lat="44.5768233" lon="8.01469"><ele>569.5</ele><time>2026-04-12T11:03:12.444Z</time></trkpt><trkpt lat="44.5767617" lon="8.0147267"><ele>571.3333333333333</ele><time>2026-04-12T11:03:14.444Z</time></trkpt><trkpt lat="44.5766783" lon="8.0147683"><ele>573.1666666666666</ele><time>2026-04-12T11:03:17.444Z</time></trkpt><trkpt lat="44.5766183" lon="8.0147983"><ele>575.0</ele><time>2026-04-12T11:03:19.444Z</time></trkpt><trkpt lat="44.5765467" lon="8.0148233"><ele>575.0</ele><time>2026-04-12T11:03:21.444Z</time></trkpt><trkpt lat="44.5764767" lon="8.0148533"><ele>575.0</ele><time>2026-04-12T11:03:23.445Z</time></trkpt><trkpt lat="44.57641" lon="8.014885"><ele>575.0</ele><time>2026-04-12T11:03:25.444Z</time></trkpt><trkpt lat="44.5763467" lon="8.0149367"><ele>575.0</ele><time>2026-04-12T11:03:27.444Z</time></trkpt><trkpt lat="44.5762917" lon="8.0150017"><ele>575.0</ele><time>2026-04-12T11:03:29.444Z</time></trkpt><trkpt lat="44.576245" lon="8.01511"><ele>575.0</ele><time>2026-04-12T11:03:32.444Z</time></trkpt><trkpt lat="44.5762067" lon="8.01523"><ele>574.8571428571429</ele><time>2026-04-12T11:03:35.444Z</time></trkpt><trkpt lat="44.576175" lon="8.0153167"><ele>574.7142857142857</ele><time>2026-04-12T11:03:37.444Z</time></trkpt><trkpt lat="44.57615" lon="8.01541"><ele>574.5714285714286</ele><time>2026-04-12T11:03:39.444Z</time></trkpt><trkpt lat="44.5761233" lon="8.0155"><ele>574.4285714285714</ele><time>2026-04-12T11:03:41.444Z</time></trkpt><trkpt lat="44.5760967" lon="8.0155967"><ele>574.2857142857142</ele><time>2026-04-12T11:03:43.445Z</time></trkpt><trkpt lat="44.57607" lon="8.0156933"><ele>574.1428571428571</ele><time>2026-04-12T11:03:45.444Z</time></trkpt><trkpt lat="44.5760617" lon="8.0157967"><ele>574.0</ele><time>2026-04-12T11:03:47.444Z</time></trkpt><trkpt lat="44.576035" lon="8.0158933"><ele>574.0</ele><time>2026-04-12T11:03:49.444Z</time></trkpt><trkpt lat="44.5760033" lon="8.0159967"><ele>574.0</ele><time>2026-04-12T11:03:51.445Z</time></trkpt><trkpt lat="44.5759767" lon="8.0160967"><ele>574.0</ele><time>2026-04-12T11:03:53.444Z</time></trkpt><trkpt lat="44.5759517" lon="8.0161883"><ele>574.0</ele><time>2026-04-12T11:03:55.444Z</time></trkpt><trkpt lat="44.5759233" lon="8.0162767"><ele>574.0</ele><time>2026-04-12T11:03:57.444Z</time></trkpt><trkpt lat="44.5758917" lon="8.016375"><ele>574.0</ele><time>2026-04-12T11:03:59.445Z</time></trkpt><trkpt lat="44.5758633" lon="8.01647"><ele>574.0</ele><time>2026-04-12T11:04:01.445Z</time></trkpt><trkpt lat="44.5758333" lon="8.0165683"><ele>574.4285714285714</ele><time>2026-04-12T11:04:03.444Z</time></trkpt><trkpt lat="44.5757983" lon="8.0166683"><ele>574.8571428571429</ele><time>2026-04-12T11:04:05.444Z</time></trkpt><trkpt lat="44.5757883" lon="8.016765"><ele>575.2857142857142</ele><time>2026-04-12T11:04:07.444Z</time></trkpt><trkpt lat="44.5757717" lon="8.0168617"><ele>575.7142857142858</ele><time>2026-04-12T11:04:09.444Z</time></trkpt><trkpt lat="44.5757483" lon="8.0169567"><ele>576.1428571428571</ele><time>2026-04-12T11:04:11.444Z</time></trkpt><trkpt lat="44.5757233" lon="8.0170467"><ele>576.5714285714286</ele><time>2026-04-12T11:04:13.444Z</time></trkpt><trkpt lat="44.5757117" lon="8.017145"><ele>577.0</ele><time>2026-04-12T11:04:15.444Z</time></trkpt><trkpt lat="44.575695" lon="8.0172533"><ele>577.0</ele><time>2026-04-12T11:04:17.444Z</time></trkpt><trkpt lat="44.5756567" lon="8.0173833"><ele>577.0</ele><time>2026-04-12T11:04:19.444Z</time></trkpt><trkpt lat="44.5756167" lon="8.0175133"><ele>577.0</ele><time>2026-04-12T11:04:21.444Z</time></trkpt><trkpt lat="44.5755683" lon="8.01758"><ele>577.0</ele><time>2026-04-12T11:04:22.443Z</time></trkpt><trkpt lat="44.57548" lon="8.017715"><ele>577.0</ele><time>2026-04-12T11:04:24.443Z</time></trkpt><trkpt lat="44.575415" lon="8.0178317"><ele>577.6</ele><time>2026-04-12T11:04:26.443Z</time></trkpt><trkpt lat="44.575345" lon="8.0179617"><ele>578.2</ele><time>2026-04-12T11:04:28.443Z</time></trkpt><trkpt lat="44.5752733" lon="8.0181083"><ele>578.8</ele><time>2026-04-12T11:04:30.443Z</time></trkpt><trkpt lat="44.57519" lon="8.0182533"><ele>579.4</ele><time>2026-04-12T11:04:32.443Z</time></trkpt><trkpt lat="44.5751533" lon="8.0183317"><ele>580.0</ele><time>2026-04-12T11:04:33.443Z</time></trkpt><trkpt lat="44.5751217" lon="8.01841"><ele>580.0</ele><time>2026-04-12T11:04:34.443Z</time></trkpt><trkpt lat="44.575085" lon="8.0184883"><ele>580.0</ele><time>2026-04-12T11:04:35.443Z</time></trkpt><trkpt lat="44.5750483" lon="8.0185667"><ele>580.0</ele><time>2026-04-12T11:04:36.443Z</time></trkpt><trkpt lat="44.57499" lon="8.0187217"><ele>580.0</ele><time>2026-04-12T11:04:38.443Z</time></trkpt><trkpt lat="44.5749583" lon="8.0187983"><ele>580.0</ele><time>2026-04-12T11:04:39.443Z</time></trkpt><trkpt lat="44.5749233" lon="8.0188733"><ele>580.0</ele><time>2026-04-12T11:04:40.443Z</time></trkpt><trkpt lat="44.5748967" lon="8.0189567"><ele>580.0</ele><time>2026-04-12T11:04:41.443Z</time></trkpt><trkpt lat="44.5748667" lon="8.0190417"><ele>580.0</ele><time>2026-04-12T11:04:42.444Z</time></trkpt><trkpt lat="44.5748333" lon="8.0191217"><ele>580.0</ele><time>2026-04-12T11:04:43.443Z</time></trkpt><trkpt lat="44.5748017" lon="8.0192083"><ele>580.0</ele><time>2026-04-12T11:04:44.444Z</time></trkpt><trkpt lat="44.5747717" lon="8.0192917"><ele>580.0</ele><time>2026-04-12T11:04:45.443Z</time></trkpt><trkpt lat="44.5747417" lon="8.0193783"><ele>580.0</ele><time>2026-04-12T11:04:46.443Z</time></trkpt><trkpt lat="44.5747167" lon="8.0194633"><ele>580.0</ele><time>2026-04-12T11:04:47.443Z</time></trkpt><trkpt lat="44.5746967" lon="8.019555"><ele>578.8571428571429</ele><time>2026-04-12T11:04:48.443Z</time></trkpt><trkpt lat="44.574675" lon="8.0196467"><ele>577.7142857142858</ele><time>2026-04-12T11:04:49.443Z</time></trkpt><trkpt lat="44.5746567" lon="8.0197383"><ele>576.5714285714286</ele><time>2026-04-12T11:04:50.443Z</time></trkpt><trkpt lat="44.5746383" lon="8.0198283"><ele>575.4285714285714</ele><time>2026-04-12T11:04:51.443Z</time></trkpt><trkpt lat="44.5746183" lon="8.01992"><ele>574.2857142857142</ele><time>2026-04-12T11:04:52.443Z</time></trkpt><trkpt lat="44.5746017" lon="8.020015"><ele>573.1428571428571</ele><time>2026-04-12T11:04:53.443Z</time></trkpt><trkpt lat="44.574585" lon="8.02011"><ele>572.0</ele><time>2026-04-12T11:04:54.443Z</time></trkpt><trkpt lat="44.5745717" lon="8.0202033"><ele>571.7142857142857</ele><time>2026-04-12T11:04:55.443Z</time></trkpt><trkpt lat="44.5745583" lon="8.02029"><ele>571.4285714285714</ele><time>2026-04-12T11:04:56.443Z</time></trkpt><trkpt lat="44.5745483" lon="8.0203817"><ele>571.1428571428571</ele><time>2026-04-12T11:04:57.443Z</time></trkpt><trkpt lat="44.5745367" lon="8.02047"><ele>570.8571428571429</ele><time>2026-04-12T11:04:58.443Z</time></trkpt><trkpt lat="44.574525" lon="8.02056"><ele>570.5714285714286</ele><time>2026-04-12T11:04:59.443Z</time></trkpt><trkpt lat="44.5745083" lon="8.0206517"><ele>570.2857142857142</ele><time>2026-04-12T11:05:00.443Z</time></trkpt><trkpt lat="44.5744933" lon="8.0207383"><ele>570.0</ele><time>2026-04-12T11:05:01.443Z</time></trkpt><trkpt lat="44.5744783" lon="8.0209167"><ele>570.1428571428571</ele><time>2026-04-12T11:05:03.443Z</time></trkpt><trkpt lat="44.5744767" lon="8.02101"><ele>570.2857142857143</ele><time>2026-04-12T11:05:04.443Z</time></trkpt><trkpt lat="44.574485" lon="8.0211067"><ele>570.4285714285714</ele><time>2026-04-12T11:05:05.443Z</time></trkpt><trkpt lat="44.5745033" lon="8.0212033"><ele>570.5714285714286</ele><time>2026-04-12T11:05:06.443Z</time></trkpt><trkpt lat="44.5745267" lon="8.0213033"><ele>570.7142857142857</ele><time>2026-04-12T11:05:07.443Z</time></trkpt><trkpt lat="44.5745617" lon="8.0213967"><ele>570.8571428571429</ele><time>2026-04-12T11:05:08.443Z</time></trkpt><trkpt lat="44.5746033" lon="8.021485"><ele>571.0</ele><time>2026-04-12T11:05:09.443Z</time></trkpt><trkpt lat="44.5746533" lon="8.02158"><ele>570.8571428571429</ele><time>2026-04-12T11:05:10.443Z</time></trkpt><trkpt lat="44.5747083" lon="8.0216667"><ele>570.7142857142857</ele><time>2026-04-12T11:05:11.443Z</time></trkpt><trkpt lat="44.5747567" lon="8.0217533"><ele>570.5714285714286</ele><time>2026-04-12T11:05:12.443Z</time></trkpt><trkpt lat="44.574805" lon="8.0218317"><ele>570.4285714285714</ele><time>2026-04-12T11:05:13.443Z</time></trkpt><trkpt lat="44.5748483" lon="8.0219017"><ele>570.2857142857143</ele><time>2026-04-12T11:05:14.443Z</time></trkpt><trkpt lat="44.5748967" lon="8.02198"><ele>570.1428571428571</ele><time>2026-04-12T11:05:15.443Z</time></trkpt><trkpt lat="44.5749467" lon="8.022055"><ele>570.0</ele><time>2026-04-12T11:05:16.443Z</time></trkpt><trkpt lat="44.5749917" lon="8.0221233"><ele>570.0</ele><time>2026-04-12T11:05:17.443Z</time></trkpt><trkpt lat="44.5750367" lon="8.022195"><ele>570.0</ele><time>2026-04-12T11:05:18.443Z</time></trkpt><trkpt lat="44.5751167" lon="8.0223283"><ele>570.0</ele><time>2026-04-12T11:05:20.443Z</time></trkpt><trkpt lat="44.57521" lon="8.0224367"><ele>570.0</ele><time>2026-04-12T11:05:22.443Z</time></trkpt><trkpt lat="44.5752917" lon="8.02254"><ele>570.0</ele><time>2026-04-12T11:05:24.443Z</time></trkpt><trkpt lat="44.5753567" lon="8.0226233"><ele>568.1666666666666</ele><time>2026-04-12T11:05:26.443Z</time></trkpt><trkpt lat="44.5754167" lon="8.02267"><ele>566.3333333333334</ele><time>2026-04-12T11:05:29.443Z</time></trkpt><trkpt lat="44.5754867" lon="8.0227167"><ele>564.5</ele><time>2026-04-12T11:05:37.443Z</time></trkpt><trkpt lat="44.5755533" lon="8.0227633"><ele>562.6666666666667</ele><time>2026-04-12T11:05:39.443Z</time></trkpt><trkpt lat="44.5756583" lon="8.022855"><ele>560.8333333333334</ele><time>2026-04-12T11:05:41.443Z</time></trkpt><trkpt lat="44.5757283" lon="8.02292"><ele>559.0</ele><time>2026-04-12T11:05:42.443Z</time></trkpt><trkpt lat="44.5757967" lon="8.0229833"><ele>559.0</ele><time>2026-04-12T11:05:43.443Z</time></trkpt><trkpt lat="44.5758617" lon="8.0230533"><ele>559.0</ele><time>2026-04-12T11:05:44.443Z</time></trkpt><trkpt lat="44.5759133" lon="8.0231267"><ele>559.0</ele><time>2026-04-12T11:05:45.443Z</time></trkpt><trkpt lat="44.5759583" lon="8.0231967"><ele>559.0</ele><time>2026-04-12T11:05:46.443Z</time></trkpt><trkpt lat="44.5760067" lon="8.0232817"><ele>559.0</ele><time>2026-04-12T11:05:47.443Z</time></trkpt><trkpt lat="44.5760633" lon="8.0233633"><ele>559.0</ele><time>2026-04-12T11:05:48.443Z</time></trkpt><trkpt lat="44.5761133" lon="8.023455"><ele>560.8</ele><time>2026-04-12T11:05:49.443Z</time></trkpt><trkpt lat="44.5761617" lon="8.0235583"><ele>562.5999999999999</ele><time>2026-04-12T11:05:50.443Z</time></trkpt><trkpt lat="44.5762033" lon="8.0236633"><ele>564.4</ele><time>2026-04-12T11:05:51.443Z</time></trkpt><trkpt lat="44.576245" lon="8.0237783"><ele>566.1999999999999</ele><time>2026-04-12T11:05:52.443Z</time></trkpt><trkpt lat="44.5762867" lon="8.0238983"><ele>568.0</ele><time>2026-04-12T11:05:53.443Z</time></trkpt><trkpt lat="44.5763233" lon="8.0240183"><ele>565.0</ele><time>2026-04-12T11:05:54.443Z</time></trkpt><trkpt lat="44.5763633" lon="8.024155"><ele>562.0</ele><time>2026-04-12T11:05:55.444Z</time></trkpt><trkpt lat="44.5763983" lon="8.02429"><ele>559.0</ele><time>2026-04-12T11:05:56.443Z</time></trkpt><trkpt lat="44.576445" lon="8.0244233"><ele>556.0</ele><time>2026-04-12T11:05:57.444Z</time></trkpt><trkpt lat="44.5765" lon="8.024545"><ele>553.0</ele><time>2026-04-12T11:05:58.443Z</time></trkpt><trkpt lat="44.5765583" lon="8.0246567"><ele>553.0</ele><time>2026-04-12T11:05:59.443Z</time></trkpt><trkpt lat="44.5766117" lon="8.0247683"><ele>553.0</ele><time>2026-04-12T11:06:00.443Z</time></trkpt><trkpt lat="44.576665" lon="8.02489"><ele>553.0</ele><time>2026-04-12T11:06:01.443Z</time></trkpt><trkpt lat="44.5767" lon="8.0250267"><ele>553.0</ele><time>2026-04-12T11:06:02.444Z</time></trkpt><trkpt lat="44.5767283" lon="8.0251767"><ele>553.0</ele><time>2026-04-12T11:06:03.443Z</time></trkpt><trkpt lat="44.5767367" lon="8.0253517"><ele>553.5</ele><time>2026-04-12T11:06:04.443Z</time></trkpt><trkpt lat="44.576745" lon="8.02553"><ele>554.0</ele><time>2026-04-12T11:06:05.443Z</time></trkpt><trkpt lat="44.5767617" lon="8.0257033"><ele>554.5</ele><time>2026-04-12T11:06:06.443Z</time></trkpt><trkpt lat="44.5767967" lon="8.0258667"><ele>555.0</ele><time>2026-04-12T11:06:07.444Z</time></trkpt><trkpt lat="44.5768317" lon="8.0260367"><ele>555.0</ele><time>2026-04-12T11:06:08.443Z</time></trkpt><trkpt lat="44.57687" lon="8.0262067"><ele>555.0</ele><time>2026-04-12T11:06:09.443Z</time></trkpt><trkpt lat="44.576915" lon="8.0263667"><ele>555.0</ele><time>2026-04-12T11:06:10.443Z</time></trkpt><trkpt lat="44.57696" lon="8.026535"><ele>555.0</ele><time>2026-04-12T11:06:11.443Z</time></trkpt><trkpt lat="44.5770067" lon="8.0267017"><ele>549.0</ele><time>2026-04-12T11:06:12.443Z</time></trkpt><trkpt lat="44.5770467" lon="8.0268617"><ele>543.0</ele><time>2026-04-12T11:06:13.443Z</time></trkpt><trkpt lat="44.5770917" lon="8.0270233"><ele>537.0</ele><time>2026-04-12T11:06:14.443Z</time></trkpt><trkpt lat="44.57714" lon="8.0271783"><ele>531.0</ele><time>2026-04-12T11:06:15.443Z</time></trkpt><trkpt lat="44.5771917" lon="8.0273533"><ele>531.8</ele><time>2026-04-12T11:06:16.443Z</time></trkpt><trkpt lat="44.5772617" lon="8.027495"><ele>532.6</ele><time>2026-04-12T11:06:17.443Z</time></trkpt><trkpt lat="44.5773417" lon="8.0276167"><ele>533.4</ele><time>2026-04-12T11:06:18.444Z</time></trkpt><trkpt lat="44.5774133" lon="8.0277233"><ele>534.2</ele><time>2026-04-12T11:06:19.443Z</time></trkpt><trkpt lat="44.5774767" lon="8.0278333"><ele>535.0</ele><time>2026-04-12T11:06:20.443Z</time></trkpt><trkpt lat="44.5775367" lon="8.02794"><ele>535.0</ele><time>2026-04-12T11:06:21.443Z</time></trkpt><trkpt lat="44.577595" lon="8.02804"><ele>535.0</ele><time>2026-04-12T11:06:22.443Z</time></trkpt><trkpt lat="44.5776517" lon="8.0281417"><ele>535.0</ele><time>2026-04-12T11:06:23.444Z</time></trkpt><trkpt lat="44.5777067" lon="8.0282283"><ele>535.0</ele><time>2026-04-12T11:06:24.443Z</time></trkpt><trkpt lat="44.5777683" lon="8.02831"><ele>535.0</ele><time>2026-04-12T11:06:25.443Z</time></trkpt><trkpt lat="44.5778333" lon="8.0283817"><ele>535.0</ele><time>2026-04-12T11:06:26.443Z</time></trkpt><trkpt lat="44.5779" lon="8.0284467"><ele>534.1666666666667</ele><time>2026-04-12T11:06:27.443Z</time></trkpt><trkpt lat="44.5779583" lon="8.0285167"><ele>533.3333333333334</ele><time>2026-04-12T11:06:28.443Z</time></trkpt><trkpt lat="44.5780167" lon="8.0285917"><ele>532.5</ele><time>2026-04-12T11:06:29.443Z</time></trkpt><trkpt lat="44.5780767" lon="8.028655"><ele>531.6666666666666</ele><time>2026-04-12T11:06:30.443Z</time></trkpt><trkpt lat="44.57814" lon="8.02871"><ele>530.8333333333333</ele><time>2026-04-12T11:06:31.443Z</time></trkpt><trkpt lat="44.5782017" lon="8.0287783"><ele>530.0</ele><time>2026-04-12T11:06:32.444Z</time></trkpt><trkpt lat="44.5782633" lon="8.0288383"><ele>529.9999999999999</ele><time>2026-04-12T11:06:33.443Z</time></trkpt><trkpt lat="44.5783267" lon="8.0289083"><ele>530.0</ele><time>2026-04-12T11:06:34.443Z</time></trkpt><trkpt lat="44.5783833" lon="8.0289683"><ele>530.0</ele><time>2026-04-12T11:06:35.443Z</time></trkpt><trkpt lat="44.5784367" lon="8.0290367"><ele>530.0</ele><time>2026-04-12T11:06:36.443Z</time></trkpt><trkpt lat="44.5784917" lon="8.0291083"><ele>530.0</ele><time>2026-04-12T11:06:37.443Z</time></trkpt><trkpt lat="44.5785483" lon="8.0291733"><ele>529.9999999999999</ele><time>2026-04-12T11:06:38.443Z</time></trkpt><trkpt lat="44.5786017" lon="8.0292433"><ele>530.0</ele><time>2026-04-12T11:06:39.443Z</time></trkpt><trkpt lat="44.57865" lon="8.0293267"><ele>529.6666666666666</ele><time>2026-04-12T11:06:40.443Z</time></trkpt><trkpt lat="44.5786967" lon="8.0294117"><ele>529.3333333333333</ele><time>2026-04-12T11:06:41.443Z</time></trkpt><trkpt lat="44.5787433" lon="8.0295033"><ele>529.0</ele><time>2026-04-12T11:06:42.443Z</time></trkpt><trkpt lat="44.5787983" lon="8.0295983"><ele>528.6666666666666</ele><time>2026-04-12T11:06:43.443Z</time></trkpt><trkpt lat="44.5788683" lon="8.02968"><ele>528.3333333333334</ele><time>2026-04-12T11:06:44.443Z</time></trkpt><trkpt lat="44.5789417" lon="8.0297383"><ele>528.0</ele><time>2026-04-12T11:06:45.444Z</time></trkpt><trkpt lat="44.57902" lon="8.02978"><ele>528.0</ele><time>2026-04-12T11:06:46.444Z</time></trkpt><trkpt lat="44.57908" lon="8.0298183"><ele>528.0</ele><time>2026-04-12T11:06:47.443Z</time></trkpt><trkpt lat="44.579145" lon="8.0298717"><ele>528.0</ele><time>2026-04-12T11:06:48.443Z</time></trkpt><trkpt lat="44.5792067" lon="8.02993"><ele>528.0</ele><time>2026-04-12T11:06:49.443Z</time></trkpt><trkpt lat="44.5792667" lon="8.0300033"><ele>528.0</ele><time>2026-04-12T11:06:50.443Z</time></trkpt><trkpt lat="44.5793233" lon="8.03008"><ele>528.0</ele><time>2026-04-12T11:06:51.443Z</time></trkpt><trkpt lat="44.5793817" lon="8.0301683"><ele>529.0</ele><time>2026-04-12T11:06:52.443Z</time></trkpt><trkpt lat="44.5794417" lon="8.0302567"><ele>530.0</ele><time>2026-04-12T11:06:53.444Z</time></trkpt><trkpt lat="44.5795017" lon="8.0303483"><ele>531.0</ele><time>2026-04-12T11:06:54.443Z</time></trkpt><trkpt lat="44.57956" lon="8.0304517"><ele>532.0</ele><time>2026-04-12T11:06:55.443Z</time></trkpt><trkpt lat="44.5796133" lon="8.0305583"><ele>533.0</ele><time>2026-04-12T11:06:56.443Z</time></trkpt><trkpt lat="44.5796683" lon="8.0306533"><ele>534.0</ele><time>2026-04-12T11:06:57.443Z</time></trkpt><trkpt lat="44.57973" lon="8.0307517"><ele>532.4</ele><time>2026-04-12T11:06:58.443Z</time></trkpt><trkpt lat="44.5797933" lon="8.0308533"><ele>530.8</ele><time>2026-04-12T11:06:59.444Z</time></trkpt><trkpt lat="44.57986" lon="8.0309567"><ele>529.2</ele><time>2026-04-12T11:07:00.443Z</time></trkpt><trkpt lat="44.5799217" lon="8.031055"><ele>527.6</ele><time>2026-04-12T11:07:01.443Z</time></trkpt><trkpt lat="44.5799733" lon="8.03116"><ele>526.0</ele><time>2026-04-12T11:07:02.443Z</time></trkpt><trkpt lat="44.580005" lon="8.0312767"><ele>526.0</ele><time>2026-04-12T11:07:03.443Z</time></trkpt><trkpt lat="44.58002" lon="8.03139"><ele>526.0</ele><time>2026-04-12T11:07:04.443Z</time></trkpt><trkpt lat="44.5800283" lon="8.0314933"><ele>526.0</ele><time>2026-04-12T11:07:05.443Z</time></trkpt><trkpt lat="44.58002" lon="8.0316617"><ele>526.0</ele><time>2026-04-12T11:07:07.443Z</time></trkpt><trkpt lat="44.580005" lon="8.0318067"><ele>526.0</ele><time>2026-04-12T11:07:09.443Z</time></trkpt><trkpt lat="44.5799783" lon="8.0319283"><ele>527.5</ele><time>2026-04-12T11:07:11.443Z</time></trkpt><trkpt lat="44.5799633" lon="8.0320333"><ele>529.0</ele><time>2026-04-12T11:07:13.443Z</time></trkpt><trkpt lat="44.57995" lon="8.0321433"><ele>530.5</ele><time>2026-04-12T11:07:15.443Z</time></trkpt><trkpt lat="44.5799367" lon="8.03226"><ele>532.0</ele><time>2026-04-12T11:07:17.443Z</time></trkpt><trkpt lat="44.5799367" lon="8.0323733"><ele>533.5</ele><time>2026-04-12T11:07:19.443Z</time></trkpt><trkpt lat="44.5799317" lon="8.03249"><ele>535.0</ele><time>2026-04-12T11:07:21.443Z</time></trkpt><trkpt lat="44.5799317" lon="8.0326067"><ele>535.6666666666667</ele><time>2026-04-12T11:07:23.443Z</time></trkpt><trkpt lat="44.5799417" lon="8.0327167"><ele>536.3333333333334</ele><time>2026-04-12T11:07:25.443Z</time></trkpt><trkpt lat="44.5799517" lon="8.0328217"><ele>537.0</ele><time>2026-04-12T11:07:27.443Z</time></trkpt><trkpt lat="44.5799183" lon="8.03295"><ele>537.6666666666666</ele><time>2026-04-12T11:07:30.443Z</time></trkpt><trkpt lat="44.57989" lon="8.03305"><ele>538.3333333333333</ele><time>2026-04-12T11:07:32.443Z</time></trkpt><trkpt lat="44.5798883" lon="8.0331667"><ele>539.0</ele><time>2026-04-12T11:07:34.443Z</time></trkpt><trkpt lat="44.5798867" lon="8.0332917"><ele>539.4</ele><time>2026-04-12T11:07:36.443Z</time></trkpt><trkpt lat="44.5798817" lon="8.033425"><ele>539.8</ele><time>2026-04-12T11:07:38.444Z</time></trkpt><trkpt lat="44.579875" lon="8.033555"><ele>540.2</ele><time>2026-04-12T11:07:40.443Z</time></trkpt><trkpt lat="44.5798583" lon="8.03368"><ele>540.6</ele><time>2026-04-12T11:07:42.443Z</time></trkpt><trkpt lat="44.5798333" lon="8.0337967"><ele>541.0</ele><time>2026-04-12T11:07:44.443Z</time></trkpt><trkpt lat="44.5798133" lon="8.03394"><ele>541.0</ele><time>2026-04-12T11:07:46.443Z</time></trkpt><trkpt lat="44.5797983" lon="8.0340617"><ele>541.0</ele><time>2026-04-12T11:07:48.443Z</time></trkpt><trkpt lat="44.5797683" lon="8.0341933"><ele>541.0</ele><time>2026-04-12T11:07:50.444Z</time></trkpt><trkpt lat="44.579735" lon="8.034335"><ele>541.0</ele><time>2026-04-12T11:07:52.443Z</time></trkpt><trkpt lat="44.5797067" lon="8.03447"><ele>541.0</ele><time>2026-04-12T11:07:54.443Z</time></trkpt><trkpt lat="44.5796717" lon="8.0346067"><ele>541.0</ele><time>2026-04-12T11:07:56.443Z</time></trkpt><trkpt lat="44.5796333" lon="8.0347383"><ele>541.0</ele><time>2026-04-12T11:07:58.443Z</time></trkpt><trkpt lat="44.579595" lon="8.0348667"><ele>541.0</ele><time>2026-04-12T11:08:00.443Z</time></trkpt><trkpt lat="44.57956" lon="8.0349967"><ele>541.0</ele><time>2026-04-12T11:08:02.443Z</time></trkpt><trkpt lat="44.5795317" lon="8.0351233"><ele>541.0</ele><time>2026-04-12T11:08:04.443Z</time></trkpt><trkpt lat="44.5795" lon="8.0352417"><ele>541.6666666666667</ele><time>2026-04-12T11:08:06.443Z</time></trkpt><trkpt lat="44.5794717" lon="8.0353467"><ele>542.3333333333334</ele><time>2026-04-12T11:08:08.443Z</time></trkpt><trkpt lat="44.5794333" lon="8.035445"><ele>543.0</ele><time>2026-04-12T11:08:10.443Z</time></trkpt><trkpt lat="44.5793683" lon="8.0355167"><ele>543.6666666666666</ele><time>2026-04-12T11:08:12.443Z</time></trkpt><trkpt lat="44.5792917" lon="8.0355483"><ele>544.3333333333333</ele><time>2026-04-12T11:08:14.443Z</time></trkpt><trkpt lat="44.57922" lon="8.0355417"><ele>545.0</ele><time>2026-04-12T11:08:16.443Z</time></trkpt><trkpt lat="44.5791567" lon="8.03553"><ele>545.0</ele><time>2026-04-12T11:08:18.443Z</time></trkpt><trkpt lat="44.5790883" lon="8.0355083"><ele>545.0</ele><time>2026-04-12T11:08:20.443Z</time></trkpt><trkpt lat="44.579" lon="8.0354733"><ele>545.0</ele><time>2026-04-12T11:08:23.443Z</time></trkpt><trkpt lat="44.578915" lon="8.03545"><ele>545.0</ele><time>2026-04-12T11:08:26.443Z</time></trkpt><trkpt lat="44.5788317" lon="8.035415"><ele>545.0</ele><time>2026-04-12T11:08:29.443Z</time></trkpt><trkpt lat="44.5787517" lon="8.035385"><ele>545.0</ele><time>2026-04-12T11:08:32.443Z</time></trkpt><trkpt lat="44.5786667" lon="8.0353483"><ele>546.0</ele><time>2026-04-12T11:08:35.443Z</time></trkpt><trkpt lat="44.578585" lon="8.0353267"><ele>547.0</ele><time>2026-04-12T11:08:38.443Z</time></trkpt><trkpt lat="44.578505" lon="8.0353"><ele>548.0</ele><time>2026-04-12T11:08:41.443Z</time></trkpt><trkpt lat="44.5784233" lon="8.035265"><ele>549.0</ele><time>2026-04-12T11:08:44.443Z</time></trkpt><trkpt lat="44.578345" lon="8.0352267"><ele>550.0</ele><time>2026-04-12T11:08:47.443Z</time></trkpt><trkpt lat="44.5782567" lon="8.0351983"><ele>551.0</ele><time>2026-04-12T11:08:50.443Z</time></trkpt><trkpt lat="44.57817" lon="8.0351767"><ele>551.0</ele><time>2026-04-12T11:08:53.443Z</time></trkpt><trkpt lat="44.5780917" lon="8.0351333"><ele>551.0</ele><time>2026-04-12T11:08:56.443Z</time></trkpt><trkpt lat="44.5780133" lon="8.0350983"><ele>551.0</ele><time>2026-04-12T11:08:59.443Z</time></trkpt><trkpt lat="44.57793" lon="8.035075"><ele>551.0</ele><time>2026-04-12T11:09:02.443Z</time></trkpt><trkpt lat="44.5778467" lon="8.0350533"><ele>551.0</ele><time>2026-04-12T11:09:04.443Z</time></trkpt><trkpt lat="44.5777533" lon="8.03505"><ele>551.0</ele><time>2026-04-12T11:09:06.444Z</time></trkpt><trkpt lat="44.577665" lon="8.035105"><ele>549.2</ele><time>2026-04-12T11:09:08.443Z</time></trkpt><trkpt lat="44.5776017" lon="8.0351983"><ele>547.4000000000001</ele><time>2026-04-12T11:09:10.443Z</time></trkpt><trkpt lat="44.577545" lon="8.0353267"><ele>545.6</ele><time>2026-04-12T11:09:12.443Z</time></trkpt><trkpt lat="44.5775067" lon="8.0354017"><ele>543.8000000000001</ele><time>2026-04-12T11:09:13.443Z</time></trkpt><trkpt lat="44.5774667" lon="8.035475"><ele>542.0</ele><time>2026-04-12T11:09:14.443Z</time></trkpt><trkpt lat="44.57741" lon="8.0356233"><ele>542.0</ele><time>2026-04-12T11:09:16.444Z</time></trkpt><trkpt lat="44.57739" lon="8.03571"><ele>542.0</ele><time>2026-04-12T11:09:17.443Z</time></trkpt><trkpt lat="44.577365" lon="8.03581"><ele>542.0</ele><time>2026-04-12T11:09:18.443Z</time></trkpt><trkpt lat="44.5773383" lon="8.0359317"><ele>542.0</ele><time>2026-04-12T11:09:19.444Z</time></trkpt><trkpt lat="44.5773117" lon="8.0360617"><ele>542.0</ele><time>2026-04-12T11:09:20.443Z</time></trkpt><trkpt lat="44.5772883" lon="8.0361817"><ele>542.0</ele><time>2026-04-12T11:09:21.443Z</time></trkpt><trkpt lat="44.57726" lon="8.03629"><ele>543.5714285714286</ele><time>2026-04-12T11:09:22.443Z</time></trkpt><trkpt lat="44.5772367" lon="8.03639"><ele>545.1428571428571</ele><time>2026-04-12T11:09:23.443Z</time></trkpt><trkpt lat="44.57721" lon="8.0365"><ele>546.7142857142858</ele><time>2026-04-12T11:09:24.443Z</time></trkpt><trkpt lat="44.5771883" lon="8.0366017"><ele>548.2857142857142</ele><time>2026-04-12T11:09:25.443Z</time></trkpt><trkpt lat="44.57717" lon="8.0366983"><ele>549.8571428571429</ele><time>2026-04-12T11:09:26.443Z</time></trkpt><trkpt lat="44.5771583" lon="8.0367933"><ele>551.4285714285714</ele><time>2026-04-12T11:09:27.443Z</time></trkpt><trkpt lat="44.5771383" lon="8.03689"><ele>553.0</ele><time>2026-04-12T11:09:28.443Z</time></trkpt><trkpt lat="44.5771217" lon="8.0369867"><ele>553.0</ele><time>2026-04-12T11:09:29.444Z</time></trkpt><trkpt lat="44.5770933" lon="8.0370733"><ele>553.0</ele><time>2026-04-12T11:09:30.443Z</time></trkpt><trkpt lat="44.5770667" lon="8.0371583"><ele>553.0</ele><time>2026-04-12T11:09:31.443Z</time></trkpt><trkpt lat="44.576995" lon="8.0373133"><ele>553.0</ele><time>2026-04-12T11:09:33.443Z</time></trkpt><trkpt lat="44.576955" lon="8.0373833"><ele>553.0</ele><time>2026-04-12T11:09:34.443Z</time></trkpt><trkpt lat="44.57691" lon="8.03747"><ele>553.0</ele><time>2026-04-12T11:09:35.443Z</time></trkpt><trkpt lat="44.576865" lon="8.0375683"><ele>548.6666666666667</ele><time>2026-04-12T11:09:36.443Z</time></trkpt><trkpt lat="44.5768083" lon="8.0376633"><ele>544.3333333333334</ele><time>2026-04-12T11:09:37.443Z</time></trkpt><trkpt lat="44.5767533" lon="8.0377683"><ele>540.0</ele><time>2026-04-12T11:09:38.443Z</time></trkpt><trkpt lat="44.5766917" lon="8.0378617"><ele>535.6666666666666</ele><time>2026-04-12T11:09:39.443Z</time></trkpt><trkpt lat="44.5766317" lon="8.0379617"><ele>531.3333333333333</ele><time>2026-04-12T11:09:40.443Z</time></trkpt><trkpt lat="44.5765967" lon="8.0380583"><ele>527.0</ele><time>2026-04-12T11:09:41.443Z</time></trkpt><trkpt lat="44.5765467" lon="8.0382083"><ele>528.8000000000001</ele><time>2026-04-12T11:09:43.443Z</time></trkpt><trkpt lat="44.576505" lon="8.03836"><ele>530.6</ele><time>2026-04-12T11:09:45.443Z</time></trkpt><trkpt lat="44.5764467" lon="8.0385167"><ele>532.4000000000001</ele><time>2026-04-12T11:09:47.443Z</time></trkpt><trkpt lat="44.5764" lon="8.0385883"><ele>534.2</ele><time>2026-04-12T11:09:48.444Z</time></trkpt><trkpt lat="44.5763417" lon="8.038665"><ele>536.0</ele><time>2026-04-12T11:09:49.443Z</time></trkpt><trkpt lat="44.5762883" lon="8.0387467"><ele>536.0</ele><time>2026-04-12T11:09:50.443Z</time></trkpt><trkpt lat="44.5762383" lon="8.03882"><ele>536.0</ele><time>2026-04-12T11:09:51.443Z</time></trkpt><trkpt lat="44.5761933" lon="8.0388967"><ele>536.0</ele><time>2026-04-12T11:09:52.443Z</time></trkpt><trkpt lat="44.5761533" lon="8.03899"><ele>536.0</ele><time>2026-04-12T11:09:53.443Z</time></trkpt><trkpt lat="44.5761067" lon="8.0390817"><ele>536.0</ele><time>2026-04-12T11:09:54.443Z</time></trkpt><trkpt lat="44.5760583" lon="8.0391667"><ele>536.0</ele><time>2026-04-12T11:09:55.443Z</time></trkpt><trkpt lat="44.57601" lon="8.0392367"><ele>536.0</ele><time>2026-04-12T11:09:56.443Z</time></trkpt><trkpt lat="44.575965" lon="8.0393017"><ele>533.8333333333333</ele><time>2026-04-12T11:09:57.443Z</time></trkpt><trkpt lat="44.57588" lon="8.0393717"><ele>531.6666666666666</ele><time>2026-04-12T11:09:59.443Z</time></trkpt><trkpt lat="44.5758083" lon="8.0394167"><ele>529.5</ele><time>2026-04-12T11:10:01.443Z</time></trkpt><trkpt lat="44.5757367" lon="8.03948"><ele>527.3333333333334</ele><time>2026-04-12T11:10:03.443Z</time></trkpt><trkpt lat="44.57567" lon="8.039565"><ele>525.1666666666667</ele><time>2026-04-12T11:10:05.443Z</time></trkpt><trkpt lat="44.5756" lon="8.039655"><ele>523.0</ele><time>2026-04-12T11:10:07.443Z</time></trkpt><trkpt lat="44.57553" lon="8.039745"><ele>523.0</ele><time>2026-04-12T11:10:09.443Z</time></trkpt><trkpt lat="44.5754633" lon="8.0398617"><ele>523.0</ele><time>2026-04-12T11:10:11.443Z</time></trkpt><trkpt lat="44.57541" lon="8.03999"><ele>523.0</ele><time>2026-04-12T11:10:13.443Z</time></trkpt><trkpt lat="44.5753683" lon="8.0401167"><ele>523.0</ele><time>2026-04-12T11:10:15.443Z</time></trkpt><trkpt lat="44.5753283" lon="8.0402333"><ele>523.0</ele><time>2026-04-12T11:10:17.443Z</time></trkpt><trkpt lat="44.5752933" lon="8.0403333"><ele>524.8333333333334</ele><time>2026-04-12T11:10:19.444Z</time></trkpt><trkpt lat="44.5752317" lon="8.0404217"><ele>526.6666666666667</ele><time>2026-04-12T11:10:22.443Z</time></trkpt><trkpt lat="44.5751767" lon="8.040485"><ele>528.5</ele><time>2026-04-12T11:10:24.443Z</time></trkpt><trkpt lat="44.5751267" lon="8.0405533"><ele>530.3333333333334</ele><time>2026-04-12T11:10:26.443Z</time></trkpt><trkpt lat="44.5751117" lon="8.040675"><ele>532.1666666666666</ele><time>2026-04-12T11:10:29.443Z</time></trkpt><trkpt lat="44.57506" lon="8.0407533"><ele>534.0</ele><time>2026-04-12T11:10:33.443Z</time></trkpt><trkpt lat="44.5750033" lon="8.0408317"><ele>534.0</ele><time>2026-04-12T11:10:38.444Z</time></trkpt><trkpt lat="44.5749183" lon="8.040965"><ele>534.0</ele><time>2026-04-12T11:10:58.443Z</time></trkpt><trkpt lat="44.5748417" lon="8.0410517"><ele>534.0</ele><time>2026-04-12T11:11:40.443Z</time></trkpt><trkpt lat="44.5748067" lon="8.0411483"><ele>534.0</ele><time>2026-04-12T11:11:44.443Z</time></trkpt><trkpt lat="44.574865" lon="8.0410833"><ele>534.0</ele><time>2026-04-12T11:12:05.443Z</time></trkpt><trkpt lat="44.5749117" lon="8.04096"><ele>534.0</ele><time>2026-04-12T11:12:11.443Z</time></trkpt><trkpt lat="44.57493" lon="8.04085"><ele>534.0</ele><time>2026-04-12T11:12:15.443Z</time></trkpt><trkpt lat="44.5749517" lon="8.0407233"><ele>534.0</ele><time>2026-04-12T11:12:19.443Z</time></trkpt><trkpt lat="44.57495" lon="8.0406167"><ele>534.0</ele><time>2026-04-12T11:12:21.443Z</time></trkpt><trkpt lat="44.5749583" lon="8.0405033"><ele>534.0</ele><time>2026-04-12T11:12:23.443Z</time></trkpt><trkpt lat="44.5749633" lon="8.0403917"><ele>534.0</ele><time>2026-04-12T11:12:26.443Z</time></trkpt><trkpt lat="44.5749483" lon="8.0402733"><ele>534.2857142857143</ele><time>2026-04-12T11:12:31.443Z</time></trkpt><trkpt lat="44.5749617" lon="8.0401867"><ele>534.5714285714286</ele><time>2026-04-12T11:12:34.443Z</time></trkpt><trkpt lat="44.5749633" lon="8.0400933"><ele>534.8571428571429</ele><time>2026-04-12T11:12:38.443Z</time></trkpt><trkpt lat="44.57496" lon="8.0399983"><ele>535.1428571428571</ele><time>2026-04-12T11:12:41.443Z</time></trkpt><trkpt lat="44.5749583" lon="8.0399067"><ele>535.4285714285714</ele><time>2026-04-12T11:12:44.443Z</time></trkpt><trkpt lat="44.5749067" lon="8.0398333"><ele>535.7142857142858</ele><time>2026-04-12T11:12:47.443Z</time></trkpt><trkpt lat="44.5748533" lon="8.0397617"><ele>536.0</ele><time>2026-04-12T11:12:51.443Z</time></trkpt><trkpt lat="44.5747983" lon="8.0396717"><ele>536.0</ele><time>2026-04-12T11:12:56.443Z</time></trkpt><trkpt lat="44.5747383" lon="8.039615"><ele>536.0</ele><time>2026-04-12T11:13:00.443Z</time></trkpt><trkpt lat="44.57472" lon="8.0395167"><ele>536.0</ele><time>2026-04-12T11:13:06.443Z</time></trkpt><trkpt lat="44.57471" lon="8.0394067"><ele>536.0</ele><time>2026-04-12T11:13:11.443Z</time></trkpt><trkpt lat="44.5746983" lon="8.039305"><ele>536.0</ele><time>2026-04-12T11:13:14.443Z</time></trkpt><trkpt lat="44.5747" lon="8.0391983"><ele>536.0</ele><time>2026-04-12T11:13:17.443Z</time></trkpt><trkpt lat="44.574695" lon="8.0390917"><ele>536.0</ele><time>2026-04-12T11:13:20.443Z</time></trkpt><trkpt lat="44.574695" lon="8.0389933"><ele>536.0</ele><time>2026-04-12T11:13:23.443Z</time></trkpt><trkpt lat="44.57468" lon="8.0389"><ele>536.0</ele><time>2026-04-12T11:13:26.443Z</time></trkpt><trkpt lat="44.5746817" lon="8.0388067"><ele>536.0</ele><time>2026-04-12T11:13:54.443Z</time></trkpt><trkpt lat="44.5747417" lon="8.03873"><ele>536.0</ele><time>2026-04-12T11:13:57.443Z</time></trkpt><trkpt lat="44.5748067" lon="8.03861"><ele>536.0</ele><time>2026-04-12T11:13:59.443Z</time></trkpt><trkpt lat="44.5748583" lon="8.0384783"><ele>536.0</ele><time>2026-04-12T11:14:01.443Z</time></trkpt><trkpt lat="44.5748733" lon="8.0383417"><ele>535.8</ele><time>2026-04-12T11:14:03.443Z</time></trkpt><trkpt lat="44.5748583" lon="8.0382067"><ele>535.6</ele><time>2026-04-12T11:14:05.443Z</time></trkpt><trkpt lat="44.5748417" lon="8.0380583"><ele>535.4</ele><time>2026-04-12T11:14:07.443Z</time></trkpt><trkpt lat="44.5748117" lon="8.03792"><ele>535.2</ele><time>2026-04-12T11:14:09.443Z</time></trkpt><trkpt lat="44.5747767" lon="8.0378017"><ele>535.0</ele><time>2026-04-12T11:14:11.443Z</time></trkpt><trkpt lat="44.57473" lon="8.0376867"><ele>535.0</ele><time>2026-04-12T11:14:13.443Z</time></trkpt><trkpt lat="44.5746867" lon="8.03759"><ele>535.0</ele><time>2026-04-12T11:14:15.443Z</time></trkpt><trkpt lat="44.5746533" lon="8.0375067"><ele>535.0</ele><time>2026-04-12T11:14:17.443Z</time></trkpt><trkpt lat="44.5746283" lon="8.037415"><ele>535.0</ele><time>2026-04-12T11:14:19.443Z</time></trkpt><trkpt lat="44.5745833" lon="8.0373217"><ele>535.0</ele><time>2026-04-12T11:14:21.443Z</time></trkpt><trkpt lat="44.57454" lon="8.0372317"><ele>535.0</ele><time>2026-04-12T11:14:23.443Z</time></trkpt><trkpt lat="44.5745" lon="8.03714"><ele>536.8333333333334</ele><time>2026-04-12T11:14:25.443Z</time></trkpt><trkpt lat="44.5744533" lon="8.0370367"><ele>538.6666666666667</ele><time>2026-04-12T11:14:27.443Z</time></trkpt><trkpt lat="44.5743983" lon="8.0369333"><ele>540.5</ele><time>2026-04-12T11:14:29.443Z</time></trkpt><trkpt lat="44.5743417" lon="8.0368433"><ele>542.3333333333334</ele><time>2026-04-12T11:14:31.443Z</time></trkpt><trkpt lat="44.5743033" lon="8.03676"><ele>544.1666666666666</ele><time>2026-04-12T11:14:33.443Z</time></trkpt><trkpt lat="44.5742617" lon="8.03667"><ele>546.0</ele><time>2026-04-12T11:14:35.443Z</time></trkpt><trkpt lat="44.574215" lon="8.0365983"><ele>546.4285714285714</ele><time>2026-04-12T11:14:37.443Z</time></trkpt><trkpt lat="44.574175" lon="8.0365267"><ele>546.8571428571429</ele><time>2026-04-12T11:14:39.443Z</time></trkpt><trkpt lat="44.5741433" lon="8.03645"><ele>547.2857142857142</ele><time>2026-04-12T11:14:41.443Z</time></trkpt><trkpt lat="44.57411" lon="8.0363583"><ele>547.7142857142858</ele><time>2026-04-12T11:14:43.443Z</time></trkpt><trkpt lat="44.57406" lon="8.03626"><ele>548.1428571428571</ele><time>2026-04-12T11:14:45.443Z</time></trkpt><trkpt lat="44.5740517" lon="8.0361483"><ele>548.5714285714286</ele><time>2026-04-12T11:14:48.443Z</time></trkpt><trkpt lat="44.574065" lon="8.03604"><ele>549.0</ele><time>2026-04-12T11:14:51.443Z</time></trkpt><trkpt lat="44.5740667" lon="8.03593"><ele>549.0</ele><time>2026-04-12T11:14:54.443Z</time></trkpt><trkpt lat="44.57405" lon="8.035805"><ele>549.0</ele><time>2026-04-12T11:14:57.443Z</time></trkpt><trkpt lat="44.5740233" lon="8.0356883"><ele>549.0</ele><time>2026-04-12T11:15:01.443Z</time></trkpt><trkpt lat="44.5740117" lon="8.0356"><ele>549.0</ele><time>2026-04-12T11:15:03.443Z</time></trkpt><trkpt lat="44.574" lon="8.0354767"><ele>549.0</ele><time>2026-04-12T11:15:05.444Z</time></trkpt><trkpt lat="44.5740183" lon="8.0353267"><ele>549.0</ele><time>2026-04-12T11:15:07.443Z</time></trkpt><trkpt lat="44.5740283" lon="8.035145"><ele>548.1666666666666</ele><time>2026-04-12T11:15:09.443Z</time></trkpt><trkpt lat="44.574035" lon="8.0350533"><ele>547.3333333333334</ele><time>2026-04-12T11:15:10.443Z</time></trkpt><trkpt lat="44.5740583" lon="8.034895"><ele>546.5</ele><time>2026-04-12T11:15:12.443Z</time></trkpt><trkpt lat="44.5740617" lon="8.0347933"><ele>545.6666666666667</ele><time>2026-04-12T11:15:13.443Z</time></trkpt><trkpt lat="44.5740417" lon="8.0346917"><ele>544.8333333333334</ele><time>2026-04-12T11:15:14.443Z</time></trkpt><trkpt lat="44.5740367" lon="8.0346033"><ele>544.0</ele><time>2026-04-12T11:15:15.443Z</time></trkpt><trkpt lat="44.5740233" lon="8.0344417"><ele>542.8</ele><time>2026-04-12T11:15:17.443Z</time></trkpt><trkpt lat="44.5739817" lon="8.0342917"><ele>541.5999999999999</ele><time>2026-04-12T11:15:19.443Z</time></trkpt><trkpt lat="44.57393" lon="8.0341217"><ele>540.4</ele><time>2026-04-12T11:15:21.443Z</time></trkpt><trkpt lat="44.57391" lon="8.0340167"><ele>539.1999999999999</ele><time>2026-04-12T11:15:22.443Z</time></trkpt><trkpt lat="44.573885" lon="8.03391"><ele>538.0</ele><time>2026-04-12T11:15:23.443Z</time></trkpt><trkpt lat="44.5738583" lon="8.03381"><ele>536.8571428571429</ele><time>2026-04-12T11:15:24.443Z</time></trkpt><trkpt lat="44.5738267" lon="8.0337183"><ele>535.7142857142858</ele><time>2026-04-12T11:15:25.443Z</time></trkpt><trkpt lat="44.5737833" lon="8.0336417"><ele>534.5714285714286</ele><time>2026-04-12T11:15:26.443Z</time></trkpt><trkpt lat="44.573735" lon="8.0335783"><ele>533.4285714285714</ele><time>2026-04-12T11:15:27.443Z</time></trkpt><trkpt lat="44.57368" lon="8.0335283"><ele>532.2857142857142</ele><time>2026-04-12T11:15:28.443Z</time></trkpt><trkpt lat="44.5736233" lon="8.03348"><ele>531.1428571428571</ele><time>2026-04-12T11:15:29.443Z</time></trkpt><trkpt lat="44.57357" lon="8.03342"><ele>530.0</ele><time>2026-04-12T11:15:30.443Z</time></trkpt><trkpt lat="44.5735083" lon="8.03329"><ele>530.0</ele><time>2026-04-12T11:15:32.443Z</time></trkpt><trkpt lat="44.5734633" lon="8.0331733"><ele>530.0</ele><time>2026-04-12T11:15:34.443Z</time></trkpt><trkpt lat="44.573395" lon="8.0330567"><ele>530.0</ele><time>2026-04-12T11:15:36.443Z</time></trkpt><trkpt lat="44.5733233" lon="8.0329583"><ele>530.0</ele><time>2026-04-12T11:15:38.443Z</time></trkpt><trkpt lat="44.5732667" lon="8.0328683"><ele>530.0</ele><time>2026-04-12T11:15:40.443Z</time></trkpt><trkpt lat="44.5731983" lon="8.032785"><ele>530.0</ele><time>2026-04-12T11:15:42.443Z</time></trkpt><trkpt lat="44.573115" lon="8.0326783"><ele>530.0</ele><time>2026-04-12T11:15:44.443Z</time></trkpt><trkpt lat="44.5730667" lon="8.03262"><ele>530.0</ele><time>2026-04-12T11:15:45.443Z</time></trkpt><trkpt lat="44.5730183" lon="8.03256"><ele>530.0</ele><time>2026-04-12T11:15:46.443Z</time></trkpt><trkpt lat="44.572965" lon="8.0324917"><ele>530.0</ele><time>2026-04-12T11:15:47.443Z</time></trkpt><trkpt lat="44.57291" lon="8.032425"><ele>530.0</ele><time>2026-04-12T11:15:48.443Z</time></trkpt><trkpt lat="44.57285" lon="8.032355"><ele>530.1666666666666</ele><time>2026-04-12T11:15:49.443Z</time></trkpt><trkpt lat="44.5727883" lon="8.03228"><ele>530.3333333333333</ele><time>2026-04-12T11:15:50.443Z</time></trkpt><trkpt lat="44.5727267" lon="8.0322117"><ele>530.5</ele><time>2026-04-12T11:15:51.443Z</time></trkpt><trkpt lat="44.5726633" lon="8.0321483"><ele>530.6666666666666</ele><time>2026-04-12T11:15:52.443Z</time></trkpt><trkpt lat="44.5726033" lon="8.0320867"><ele>530.8333333333334</ele><time>2026-04-12T11:15:53.443Z</time></trkpt><trkpt lat="44.572545" lon="8.0320333"><ele>531.0</ele><time>2026-04-12T11:15:54.443Z</time></trkpt><trkpt lat="44.5724867" lon="8.0319817"><ele>531.0</ele><time>2026-04-12T11:15:55.443Z</time></trkpt><trkpt lat="44.5723883" lon="8.0318833"><ele>531.0</ele><time>2026-04-12T11:15:57.443Z</time></trkpt><trkpt lat="44.572305" lon="8.0318267"><ele>531.0</ele><time>2026-04-12T11:15:59.443Z</time></trkpt><trkpt lat="44.5722317" lon="8.031795"><ele>531.0</ele><time>2026-04-12T11:16:01.443Z</time></trkpt><trkpt lat="44.5721617" lon="8.0317533"><ele>531.0</ele><time>2026-04-12T11:16:03.443Z</time></trkpt><trkpt lat="44.5720933" lon="8.0317183"><ele>531.0</ele><time>2026-04-12T11:16:05.443Z</time></trkpt><trkpt lat="44.572025" lon="8.0317"><ele>531.0</ele><time>2026-04-12T11:16:07.443Z</time></trkpt><trkpt lat="44.571945" lon="8.03169"><ele>531.0</ele><time>2026-04-12T11:16:09.443Z</time></trkpt><trkpt lat="44.57187" lon="8.0316833"><ele>531.0</ele><time>2026-04-12T11:16:11.443Z</time></trkpt><trkpt lat="44.5717867" lon="8.0316567"><ele>531.0</ele><time>2026-04-12T11:16:14.443Z</time></trkpt><trkpt lat="44.5717017" lon="8.031615"><ele>531.0</ele><time>2026-04-12T11:16:17.443Z</time></trkpt><trkpt lat="44.5716167" lon="8.0315717"><ele>531.0</ele><time>2026-04-12T11:16:20.443Z</time></trkpt><trkpt lat="44.57153" lon="8.0315317"><ele>531.0</ele><time>2026-04-12T11:16:23.443Z</time></trkpt><trkpt lat="44.5714517" lon="8.031485"><ele>531.0</ele><time>2026-04-12T11:16:26.443Z</time></trkpt><trkpt lat="44.5713717" lon="8.031425"><ele>531.0</ele><time>2026-04-12T11:16:29.443Z</time></trkpt><trkpt lat="44.5712967" lon="8.03136"><ele>531.0</ele><time>2026-04-12T11:16:32.443Z</time></trkpt><trkpt lat="44.5712183" lon="8.03131"><ele>531.0</ele><time>2026-04-12T11:16:35.443Z</time></trkpt><trkpt lat="44.5711383" lon="8.0312583"><ele>531.0</ele><time>2026-04-12T11:16:38.443Z</time></trkpt><trkpt lat="44.57106" lon="8.0312133"><ele>532.5</ele><time>2026-04-12T11:16:41.443Z</time></trkpt><trkpt lat="44.570975" lon="8.031165"><ele>534.0</ele><time>2026-04-12T11:16:44.443Z</time></trkpt><trkpt lat="44.5709083" lon="8.0311383"><ele>535.5</ele><time>2026-04-12T11:16:46.443Z</time></trkpt><trkpt lat="44.5708467" lon="8.0310967"><ele>537.0</ele><time>2026-04-12T11:16:49.443Z</time></trkpt><trkpt lat="44.57077" lon="8.0310783"><ele>538.5</ele><time>2026-04-12T11:16:54.443Z</time></trkpt><trkpt lat="44.5707033" lon="8.03105"><ele>540.0</ele><time>2026-04-12T11:16:58.443Z</time></trkpt><trkpt lat="44.57063" lon="8.03105"><ele>540.0</ele><time>2026-04-12T11:17:03.443Z</time></trkpt><trkpt lat="44.5705567" lon="8.031045"><ele>540.0</ele><time>2026-04-12T11:17:08.443Z</time></trkpt><trkpt lat="44.5704883" lon="8.031025"><ele>540.0</ele><time>2026-04-12T11:17:12.443Z</time></trkpt><trkpt lat="44.5704083" lon="8.0310217"><ele>540.0</ele><time>2026-04-12T11:17:16.443Z</time></trkpt><trkpt lat="44.5703433" lon="8.031005"><ele>540.0</ele><time>2026-04-12T11:17:19.443Z</time></trkpt><trkpt lat="44.5702717" lon="8.030985"><ele>540.0</ele><time>2026-04-12T11:17:23.444Z</time></trkpt><trkpt lat="44.570205" lon="8.0309583"><ele>540.0</ele><time>2026-04-12T11:17:26.443Z</time></trkpt><trkpt lat="44.5701367" lon="8.0309167"><ele>540.2857142857142</ele><time>2026-04-12T11:17:29.443Z</time></trkpt><trkpt lat="44.5700733" lon="8.030885"><ele>540.5714285714286</ele><time>2026-04-12T11:17:32.443Z</time></trkpt><trkpt lat="44.5700067" lon="8.0308683"><ele>540.8571428571429</ele><time>2026-04-12T11:17:35.443Z</time></trkpt><trkpt lat="44.5699233" lon="8.0308783"><ele>541.1428571428571</ele><time>2026-04-12T11:17:39.443Z</time></trkpt><trkpt lat="44.5698483" lon="8.030905"><ele>541.4285714285714</ele><time>2026-04-12T11:17:43.443Z</time></trkpt><trkpt lat="44.569785" lon="8.0309417"><ele>541.7142857142857</ele><time>2026-04-12T11:17:47.443Z</time></trkpt><trkpt lat="44.5697217" lon="8.031"><ele>542.0</ele><time>2026-04-12T11:17:51.443Z</time></trkpt><trkpt lat="44.5696617" lon="8.0310667"><ele>542.0</ele><time>2026-04-12T11:17:54.443Z</time></trkpt><trkpt lat="44.56962" lon="8.0311383"><ele>542.0</ele><time>2026-04-12T11:17:57.443Z</time></trkpt><trkpt lat="44.5695733" lon="8.0312117"><ele>542.0</ele><time>2026-04-12T11:18:01.443Z</time></trkpt><trkpt lat="44.56953" lon="8.0313"><ele>542.0</ele><time>2026-04-12T11:18:05.443Z</time></trkpt><trkpt lat="44.569485" lon="8.0313967"><ele>542.0</ele><time>2026-04-12T11:18:09.443Z</time></trkpt><trkpt lat="44.5694433" lon="8.03149"><ele>542.0</ele><time>2026-04-12T11:18:13.443Z</time></trkpt><trkpt lat="44.5694067" lon="8.031575"><ele>542.0</ele><time>2026-04-12T11:18:17.443Z</time></trkpt><trkpt lat="44.569365" lon="8.0316583"><ele>544.3333333333333</ele><time>2026-04-12T11:18:21.443Z</time></trkpt><trkpt lat="44.5693167" lon="8.03175"><ele>546.6666666666666</ele><time>2026-04-12T11:18:25.443Z</time></trkpt><trkpt lat="44.5692783" lon="8.03185"><ele>549.0</ele><time>2026-04-12T11:18:29.443Z</time></trkpt><trkpt lat="44.5692533" lon="8.0319433"><ele>551.3333333333334</ele><time>2026-04-12T11:18:33.443Z</time></trkpt><trkpt lat="44.569235" lon="8.0320417"><ele>553.6666666666667</ele><time>2026-04-12T11:18:37.443Z</time></trkpt><trkpt lat="44.569205" lon="8.03214"><ele>556.0</ele><time>2026-04-12T11:18:41.443Z</time></trkpt><trkpt lat="44.5691883" lon="8.0322433"><ele>556.0</ele><time>2026-04-12T11:18:45.443Z</time></trkpt><trkpt lat="44.5691817" lon="8.0323417"><ele>556.0</ele><time>2026-04-12T11:18:49.443Z</time></trkpt><trkpt lat="44.56917" lon="8.0324433"><ele>556.0</ele><time>2026-04-12T11:18:53.443Z</time></trkpt><trkpt lat="44.569185" lon="8.032545"><ele>556.0</ele><time>2026-04-12T11:18:57.443Z</time></trkpt><trkpt lat="44.56917" lon="8.032645"><ele>556.0</ele><time>2026-04-12T11:19:02.443Z</time></trkpt><trkpt lat="44.569195" lon="8.03273"><ele>556.0</ele><time>2026-04-12T11:19:07.443Z</time></trkpt><trkpt lat="44.56918" lon="8.032825"><ele>556.0</ele><time>2026-04-12T11:19:15.443Z</time></trkpt><trkpt lat="44.56916" lon="8.03293"><ele>557.7142857142857</ele><time>2026-04-12T11:19:20.443Z</time></trkpt><trkpt lat="44.569145" lon="8.0330183"><ele>559.4285714285714</ele><time>2026-04-12T11:19:24.444Z</time></trkpt><trkpt lat="44.5691217" lon="8.0331067"><ele>561.1428571428571</ele><time>2026-04-12T11:19:27.443Z</time></trkpt><trkpt lat="44.5691033" lon="8.0332217"><ele>562.8571428571429</ele><time>2026-04-12T11:19:31.443Z</time></trkpt><trkpt lat="44.5690983" lon="8.0333183"><ele>564.5714285714286</ele><time>2026-04-12T11:19:34.443Z</time></trkpt><trkpt lat="44.569095" lon="8.0334133"><ele>566.2857142857142</ele><time>2026-04-12T11:19:37.443Z</time></trkpt><trkpt lat="44.5690767" lon="8.0334983"><ele>568.0</ele><time>2026-04-12T11:19:40.443Z</time></trkpt><trkpt lat="44.5690633" lon="8.0335867"><ele>569.8333333333334</ele><time>2026-04-12T11:19:43.443Z</time></trkpt><trkpt lat="44.569035" lon="8.0336933"><ele>571.6666666666667</ele><time>2026-04-12T11:19:47.443Z</time></trkpt><trkpt lat="44.5690133" lon="8.0338033"><ele>573.5</ele><time>2026-04-12T11:19:51.443Z</time></trkpt><trkpt lat="44.5690017" lon="8.033895"><ele>575.3333333333334</ele><time>2026-04-12T11:19:54.443Z</time></trkpt><trkpt lat="44.56899" lon="8.0340017"><ele>577.1666666666666</ele><time>2026-04-12T11:19:58.443Z</time></trkpt><trkpt lat="44.5690217" lon="8.0341017"><ele>579.0</ele><time>2026-04-12T11:20:00.443Z</time></trkpt><trkpt lat="44.5690517" lon="8.0341883"><ele>580.5714285714286</ele><time>2026-04-12T11:20:02.443Z</time></trkpt><trkpt lat="44.5690783" lon="8.0342917"><ele>582.1428571428571</ele><time>2026-04-12T11:20:05.443Z</time></trkpt><trkpt lat="44.569075" lon="8.0343917"><ele>583.7142857142858</ele><time>2026-04-12T11:20:08.443Z</time></trkpt><trkpt lat="44.5690683" lon="8.03449"><ele>585.2857142857142</ele><time>2026-04-12T11:20:11.443Z</time></trkpt><trkpt lat="44.5690567" lon="8.0345783"><ele>586.8571428571429</ele><time>2026-04-12T11:20:14.443Z</time></trkpt><trkpt lat="44.56903" lon="8.0346617"><ele>588.4285714285714</ele><time>2026-04-12T11:20:18.443Z</time></trkpt><trkpt lat="44.5690317" lon="8.0347567"><ele>590.0</ele><time>2026-04-12T11:20:21.443Z</time></trkpt><trkpt lat="44.569005" lon="8.0348417"><ele>590.0000000000001</ele><time>2026-04-12T11:20:24.444Z</time></trkpt><trkpt lat="44.568975" lon="8.0349433"><ele>590.0</ele><time>2026-04-12T11:20:28.443Z</time></trkpt><trkpt lat="44.568945" lon="8.0350283"><ele>590.0</ele><time>2026-04-12T11:20:31.443Z</time></trkpt><trkpt lat="44.5689183" lon="8.0351167"><ele>590.0</ele><time>2026-04-12T11:20:34.443Z</time></trkpt><trkpt lat="44.568905" lon="8.0352083"><ele>590.0</ele><time>2026-04-12T11:20:37.443Z</time></trkpt><trkpt lat="44.56887" lon="8.0353"><ele>590.0000000000001</ele><time>2026-04-12T11:20:40.443Z</time></trkpt><trkpt lat="44.568845" lon="8.0354017"><ele>590.0</ele><time>2026-04-12T11:20:43.443Z</time></trkpt><trkpt lat="44.568815" lon="8.0355133"><ele>590.3333333333333</ele><time>2026-04-12T11:20:46.443Z</time></trkpt><trkpt lat="44.568765" lon="8.03561"><ele>590.6666666666666</ele><time>2026-04-12T11:20:49.443Z</time></trkpt><trkpt lat="44.5687267" lon="8.03571"><ele>591.0</ele><time>2026-04-12T11:20:52.443Z</time></trkpt><trkpt lat="44.5686833" lon="8.0358133"><ele>591.3333333333334</ele><time>2026-04-12T11:20:55.443Z</time></trkpt><trkpt lat="44.5686133" lon="8.0359067"><ele>591.6666666666667</ele><time>2026-04-12T11:20:58.443Z</time></trkpt><trkpt lat="44.5685433" lon="8.0359883"><ele>592.0</ele><time>2026-04-12T11:21:01.443Z</time></trkpt><trkpt lat="44.5684783" lon="8.0360517"><ele>592.0</ele><time>2026-04-12T11:21:04.443Z</time></trkpt><trkpt lat="44.56841" lon="8.0361083"><ele>592.0</ele><time>2026-04-12T11:21:07.443Z</time></trkpt><trkpt lat="44.5683383" lon="8.0361817"><ele>592.0</ele><time>2026-04-12T11:21:10.443Z</time></trkpt><trkpt lat="44.5682683" lon="8.0362583"><ele>592.0</ele><time>2026-04-12T11:21:13.443Z</time></trkpt><trkpt lat="44.5681967" lon="8.0363333"><ele>592.0</ele><time>2026-04-12T11:21:16.443Z</time></trkpt><trkpt lat="44.5681433" lon="8.036405"><ele>592.0</ele><time>2026-04-12T11:21:18.443Z</time></trkpt><trkpt lat="44.5680917" lon="8.0364883"><ele>592.0</ele><time>2026-04-12T11:21:20.443Z</time></trkpt><trkpt lat="44.56804" lon="8.036575"><ele>592.0</ele><time>2026-04-12T11:21:22.444Z</time></trkpt><trkpt lat="44.568" lon="8.0366533"><ele>592.0</ele><time>2026-04-12T11:21:24.443Z</time></trkpt><trkpt lat="44.5679617" lon="8.03675"><ele>592.0</ele><time>2026-04-12T11:21:26.443Z</time></trkpt><trkpt lat="44.567925" lon="8.0368467"><ele>592.0</ele><time>2026-04-12T11:21:28.443Z</time></trkpt><trkpt lat="44.56789" lon="8.0369367"><ele>592.0</ele><time>2026-04-12T11:21:30.443Z</time></trkpt><trkpt lat="44.5678517" lon="8.0370233"><ele>592.8571428571429</ele><time>2026-04-12T11:21:32.443Z</time></trkpt><trkpt lat="44.5678133" lon="8.0371183"><ele>593.7142857142857</ele><time>2026-04-12T11:21:34.443Z</time></trkpt><trkpt lat="44.5677733" lon="8.0371983"><ele>594.5714285714286</ele><time>2026-04-12T11:21:36.443Z</time></trkpt><trkpt lat="44.5677383" lon="8.0372917"><ele>595.4285714285714</ele><time>2026-04-12T11:21:38.443Z</time></trkpt><trkpt lat="44.5677067" lon="8.037385"><ele>596.2857142857143</ele><time>2026-04-12T11:21:40.443Z</time></trkpt><trkpt lat="44.5676767" lon="8.0374683"><ele>597.1428571428571</ele><time>2026-04-12T11:21:42.443Z</time></trkpt><trkpt lat="44.5676517" lon="8.037565"><ele>598.0</ele><time>2026-04-12T11:21:44.443Z</time></trkpt><trkpt lat="44.5676367" lon="8.037655"><ele>598.0</ele><time>2026-04-12T11:21:46.443Z</time></trkpt><trkpt lat="44.56764" lon="8.0377717"><ele>598.0</ele><time>2026-04-12T11:21:49.443Z</time></trkpt><trkpt lat="44.5676717" lon="8.0378883"><ele>598.0</ele><time>2026-04-12T11:21:51.443Z</time></trkpt><trkpt lat="44.5677" lon="8.0380067"><ele>598.0</ele><time>2026-04-12T11:21:53.443Z</time></trkpt><trkpt lat="44.5677283" lon="8.0381267"><ele>598.0</ele><time>2026-04-12T11:21:55.443Z</time></trkpt><trkpt lat="44.567765" lon="8.038265"><ele>599.0</ele><time>2026-04-12T11:21:57.443Z</time></trkpt><trkpt lat="44.5678233" lon="8.03841"><ele>600.0</ele><time>2026-04-12T11:21:59.443Z</time></trkpt><trkpt lat="44.56786" lon="8.03854"><ele>601.0</ele><time>2026-04-12T11:22:01.443Z</time></trkpt><trkpt lat="44.5678783" lon="8.0386683"><ele>602.0</ele><time>2026-04-12T11:22:03.443Z</time></trkpt><trkpt lat="44.5678717" lon="8.0387867"><ele>603.0</ele><time>2026-04-12T11:22:05.443Z</time></trkpt><trkpt lat="44.5679033" lon="8.0389117"><ele>607.5</ele><time>2026-04-12T11:22:07.443Z</time></trkpt><trkpt lat="44.5679733" lon="8.0389017"><ele>612.0</ele><time>2026-04-12T11:22:10.443Z</time></trkpt><trkpt lat="44.5679817" lon="8.0388083"><ele>616.5</ele><time>2026-04-12T11:22:12.443Z</time></trkpt><trkpt lat="44.5679733" lon="8.0386967"><ele>621.0</ele><time>2026-04-12T11:22:15.443Z</time></trkpt><trkpt lat="44.5679717" lon="8.0386"><ele>625.5</ele><time>2026-04-12T11:22:18.443Z</time></trkpt><trkpt lat="44.5679567" lon="8.0384833"><ele>630.0</ele><time>2026-04-12T11:22:21.443Z</time></trkpt><trkpt lat="44.5679467" lon="8.0383733"><ele>628.8333333333334</ele><time>2026-04-12T11:22:24.443Z</time></trkpt><trkpt lat="44.5679417" lon="8.0382667"><ele>627.6666666666666</ele><time>2026-04-12T11:22:27.443Z</time></trkpt><trkpt lat="44.56793" lon="8.0381667"><ele>626.5</ele><time>2026-04-12T11:22:30.443Z</time></trkpt><trkpt lat="44.56792" lon="8.0380417"><ele>625.3333333333333</ele><time>2026-04-12T11:22:33.443Z</time></trkpt><trkpt lat="44.56791" lon="8.0379233"><ele>624.1666666666666</ele><time>2026-04-12T11:22:36.443Z</time></trkpt><trkpt lat="44.56791" lon="8.0378283"><ele>623.0</ele><time>2026-04-12T11:22:39.443Z</time></trkpt><trkpt lat="44.5679883" lon="8.0377767"><ele>623.0</ele><time>2026-04-12T11:22:43.443Z</time></trkpt><trkpt lat="44.568045" lon="8.0378167"><ele>623.0</ele><time>2026-04-12T11:22:46.443Z</time></trkpt><trkpt lat="44.5680733" lon="8.0379033"><ele>623.0</ele><time>2026-04-12T11:22:49.443Z</time></trkpt><trkpt lat="44.5680733" lon="8.038005"><ele>623.0</ele><time>2026-04-12T11:22:52.443Z</time></trkpt><trkpt lat="44.5680967" lon="8.038105"><ele>623.0</ele><time>2026-04-12T11:22:55.443Z</time></trkpt><trkpt lat="44.56813" lon="8.0381867"><ele>623.0</ele><time>2026-04-12T11:22:58.443Z</time></trkpt><trkpt lat="44.5681733" lon="8.0382567"><ele>623.0</ele><time>2026-04-12T11:23:01.443Z</time></trkpt><trkpt lat="44.568205" lon="8.038335"><ele>624.1666666666666</ele><time>2026-04-12T11:23:04.443Z</time></trkpt><trkpt lat="44.5682483" lon="8.0384333"><ele>625.3333333333333</ele><time>2026-04-12T11:23:08.443Z</time></trkpt><trkpt lat="44.568295" lon="8.0385317"><ele>626.5</ele><time>2026-04-12T11:23:12.443Z</time></trkpt><trkpt lat="44.5683383" lon="8.0386267"><ele>627.6666666666666</ele><time>2026-04-12T11:23:15.443Z</time></trkpt><trkpt lat="44.568385" lon="8.038695"><ele>628.8333333333334</ele><time>2026-04-12T11:23:18.443Z</time></trkpt><trkpt lat="44.5684467" lon="8.038745"><ele>630.0</ele><time>2026-04-12T11:23:21.443Z</time></trkpt><trkpt lat="44.5684833" lon="8.0388283"><ele>630.0</ele><time>2026-04-12T11:23:24.443Z</time></trkpt><trkpt lat="44.5685" lon="8.0389183"><ele>630.0</ele><time>2026-04-12T11:23:27.443Z</time></trkpt><trkpt lat="44.5685117" lon="8.0390117"><ele>630.0</ele><time>2026-04-12T11:23:30.443Z</time></trkpt><trkpt lat="44.5685333" lon="8.0391033"><ele>630.0</ele><time>2026-04-12T11:23:33.443Z</time></trkpt><trkpt lat="44.5685867" lon="8.0391783"><ele>630.0</ele><time>2026-04-12T11:23:37.444Z</time></trkpt><trkpt lat="44.5686367" lon="8.0391133"><ele>630.0</ele><time>2026-04-12T11:23:44.443Z</time></trkpt><trkpt lat="44.5686567" lon="8.03902"><ele>630.0</ele><time>2026-04-12T11:23:48.443Z</time></trkpt><trkpt lat="44.5686633" lon="8.0389183"><ele>630.0</ele><time>2026-04-12T11:23:53.443Z</time></trkpt><trkpt lat="44.568695" lon="8.0387217"><ele>630.0</ele><time>2026-04-12T11:24:15.442Z</time></trkpt><trkpt lat="44.568675" lon="8.0386333"><ele>630.0</ele><time>2026-04-12T11:24:18.442Z</time></trkpt><trkpt lat="44.5686633" lon="8.0385417"><ele>630.0</ele><time>2026-04-12T11:24:21.442Z</time></trkpt><trkpt lat="44.5686767" lon="8.0384283"><ele>630.0</ele><time>2026-04-12T11:24:25.442Z</time></trkpt><trkpt lat="44.568685" lon="8.0383233"><ele>630.0</ele><time>2026-04-12T11:24:28.442Z</time></trkpt><trkpt lat="44.568685" lon="8.0382333"><ele>631.0</ele><time>2026-04-12T11:24:31.442Z</time></trkpt><trkpt lat="44.5687133" lon="8.038145"><ele>632.0</ele><time>2026-04-12T11:24:34.442Z</time></trkpt><trkpt lat="44.5687867" lon="8.0380933"><ele>633.0</ele><time>2026-04-12T11:24:38.442Z</time></trkpt><trkpt lat="44.568855" lon="8.03813"><ele>634.0</ele><time>2026-04-12T11:24:41.443Z</time></trkpt><trkpt lat="44.5688933" lon="8.0382367"><ele>635.0</ele><time>2026-04-12T11:24:44.442Z</time></trkpt><trkpt lat="44.5689333" lon="8.038355"><ele>636.0</ele><time>2026-04-12T11:24:47.442Z</time></trkpt><trkpt lat="44.568965" lon="8.03844"><ele>637.3333333333334</ele><time>2026-04-12T11:24:49.442Z</time></trkpt><trkpt lat="44.568995" lon="8.0385233"><ele>638.6666666666666</ele><time>2026-04-12T11:24:51.442Z</time></trkpt><trkpt lat="44.5690133" lon="8.0386117"><ele>640.0</ele><time>2026-04-12T11:24:53.442Z</time></trkpt><trkpt lat="44.5690283" lon="8.0387333"><ele>641.3333333333333</ele><time>2026-04-12T11:24:56.442Z</time></trkpt><trkpt lat="44.5690467" lon="8.0388583"><ele>642.6666666666666</ele><time>2026-04-12T11:24:59.442Z</time></trkpt><trkpt lat="44.56906" lon="8.0389817"><ele>644.0</ele><time>2026-04-12T11:25:02.442Z</time></trkpt><trkpt lat="44.569065" lon="8.0390967"><ele>644.8571428571429</ele><time>2026-04-12T11:25:05.442Z</time></trkpt><trkpt lat="44.5690733" lon="8.0391883"><ele>645.7142857142858</ele><time>2026-04-12T11:25:08.442Z</time></trkpt><trkpt lat="44.5690917" lon="8.0392783"><ele>646.5714285714286</ele><time>2026-04-12T11:25:11.443Z</time></trkpt><trkpt lat="44.5691367" lon="8.0393883"><ele>647.4285714285714</ele><time>2026-04-12T11:25:14.442Z</time></trkpt><trkpt lat="44.5691867" lon="8.0394767"><ele>648.2857142857143</ele><time>2026-04-12T11:25:17.442Z</time></trkpt><trkpt lat="44.56922" lon="8.0395567"><ele>649.1428571428571</ele><time>2026-04-12T11:25:20.442Z</time></trkpt><trkpt lat="44.56924" lon="8.039655"><ele>650.0</ele><time>2026-04-12T11:25:23.442Z</time></trkpt><trkpt lat="44.5692483" lon="8.0397533"><ele>650.0</ele><time>2026-04-12T11:25:26.442Z</time></trkpt><trkpt lat="44.5692417" lon="8.03985"><ele>650.0</ele><time>2026-04-12T11:25:29.442Z</time></trkpt><trkpt lat="44.569225" lon="8.03995"><ele>650.0</ele><time>2026-04-12T11:25:32.442Z</time></trkpt><trkpt lat="44.5692017" lon="8.04006"><ele>650.0</ele><time>2026-04-12T11:25:35.442Z</time></trkpt><trkpt lat="44.56917" lon="8.0401667"><ele>650.0</ele><time>2026-04-12T11:25:38.442Z</time></trkpt><trkpt lat="44.56912" lon="8.0402833"><ele>650.0</ele><time>2026-04-12T11:25:41.442Z</time></trkpt><trkpt lat="44.5690733" lon="8.0403733"><ele>651.0</ele><time>2026-04-12T11:25:43.442Z</time></trkpt><trkpt lat="44.569025" lon="8.0404633"><ele>652.0</ele><time>2026-04-12T11:25:45.442Z</time></trkpt><trkpt lat="44.5689817" lon="8.0405483"><ele>653.0</ele><time>2026-04-12T11:25:47.442Z</time></trkpt><trkpt lat="44.5689133" lon="8.0406417"><ele>654.0</ele><time>2026-04-12T11:25:49.442Z</time></trkpt><trkpt lat="44.5688617" lon="8.0407633"><ele>655.0</ele><time>2026-04-12T11:25:51.442Z</time></trkpt><trkpt lat="44.56882" lon="8.04091"><ele>656.3333333333334</ele><time>2026-04-12T11:25:53.442Z</time></trkpt><trkpt lat="44.5687817" lon="8.0410783"><ele>657.6666666666667</ele><time>2026-04-12T11:25:55.442Z</time></trkpt><trkpt lat="44.5687633" lon="8.0411667"><ele>659.0</ele><time>2026-04-12T11:25:56.442Z</time></trkpt><trkpt lat="44.5687383" lon="8.0412583"><ele>660.3333333333334</ele><time>2026-04-12T11:25:57.442Z</time></trkpt><trkpt lat="44.5687117" lon="8.0413483"><ele>661.6666666666666</ele><time>2026-04-12T11:25:58.442Z</time></trkpt><trkpt lat="44.568685" lon="8.0414383"><ele>663.0</ele><time>2026-04-12T11:25:59.442Z</time></trkpt><trkpt lat="44.5686533" lon="8.0415283"><ele>661.5</ele><time>2026-04-12T11:26:00.442Z</time></trkpt><trkpt lat="44.568615" lon="8.04161"><ele>660.0</ele><time>2026-04-12T11:26:01.442Z</time></trkpt><trkpt lat="44.56857" lon="8.0416883"><ele>658.5</ele><time>2026-04-12T11:26:02.442Z</time></trkpt><trkpt lat="44.5685267" lon="8.041775"><ele>657.0</ele><time>2026-04-12T11:26:03.442Z</time></trkpt><trkpt lat="44.56849" lon="8.0418533"><ele>655.5</ele><time>2026-04-12T11:26:04.442Z</time></trkpt><trkpt lat="44.5684567" lon="8.0419433"><ele>654.0</ele><time>2026-04-12T11:26:05.442Z</time></trkpt><trkpt lat="44.5683967" lon="8.0420883"><ele>654.0</ele><time>2026-04-12T11:26:07.442Z</time></trkpt><trkpt lat="44.5683583" lon="8.0422483"><ele>654.0</ele><time>2026-04-12T11:26:09.442Z</time></trkpt><trkpt lat="44.5683333" lon="8.042415"><ele>654.0</ele><time>2026-04-12T11:26:11.442Z</time></trkpt><trkpt lat="44.5683333" lon="8.0425617"><ele>654.0</ele><time>2026-04-12T11:26:13.442Z</time></trkpt><trkpt lat="44.56831" lon="8.0426983"><ele>654.0</ele><time>2026-04-12T11:26:15.442Z</time></trkpt><trkpt lat="44.56828" lon="8.0428183"><ele>656.6666666666666</ele><time>2026-04-12T11:26:17.442Z</time></trkpt><trkpt lat="44.5682483" lon="8.0429233"><ele>659.3333333333334</ele><time>2026-04-12T11:26:19.442Z</time></trkpt><trkpt lat="44.5682067" lon="8.0430233"><ele>662.0</ele><time>2026-04-12T11:26:21.442Z</time></trkpt><trkpt lat="44.56817" lon="8.0431267"><ele>664.6666666666667</ele><time>2026-04-12T11:26:23.442Z</time></trkpt><trkpt lat="44.5681283" lon="8.0432317"><ele>667.3333333333334</ele><time>2026-04-12T11:26:25.442Z</time></trkpt><trkpt lat="44.5680983" lon="8.0433283"><ele>670.0</ele><time>2026-04-12T11:26:27.442Z</time></trkpt><trkpt lat="44.5680583" lon="8.0434217"><ele>670.6666666666667</ele><time>2026-04-12T11:26:29.442Z</time></trkpt><trkpt lat="44.5680167" lon="8.04352"><ele>671.3333333333334</ele><time>2026-04-12T11:26:31.442Z</time></trkpt><trkpt lat="44.5679833" lon="8.04363"><ele>672.0</ele><time>2026-04-12T11:26:33.442Z</time></trkpt><trkpt lat="44.5679683" lon="8.043745"><ele>672.6666666666666</ele><time>2026-04-12T11:26:35.442Z</time></trkpt><trkpt lat="44.5679583" lon="8.0438633"><ele>673.3333333333333</ele><time>2026-04-12T11:26:37.442Z</time></trkpt><trkpt lat="44.567935" lon="8.0439667"><ele>674.0</ele><time>2026-04-12T11:26:39.442Z</time></trkpt><trkpt lat="44.5678933" lon="8.0440567"><ele>673.1428571428572</ele><time>2026-04-12T11:26:41.442Z</time></trkpt><trkpt lat="44.567835" lon="8.0441367"><ele>672.2857142857143</ele><time>2026-04-12T11:26:43.442Z</time></trkpt><trkpt lat="44.56778" lon="8.0442167"><ele>671.4285714285714</ele><time>2026-04-12T11:26:45.442Z</time></trkpt><trkpt lat="44.5677317" lon="8.044295"><ele>670.5714285714287</ele><time>2026-04-12T11:26:47.442Z</time></trkpt><trkpt lat="44.567685" lon="8.0443633"><ele>669.7142857142858</ele><time>2026-04-12T11:26:49.442Z</time></trkpt><trkpt lat="44.5676417" lon="8.04443"><ele>668.8571428571429</ele><time>2026-04-12T11:26:51.442Z</time></trkpt><trkpt lat="44.5675983" lon="8.0444983"><ele>668.0</ele><time>2026-04-12T11:26:53.442Z</time></trkpt><trkpt lat="44.567555" lon="8.04457"><ele>668.0</ele><time>2026-04-12T11:26:55.442Z</time></trkpt><trkpt lat="44.5675133" lon="8.0446367"><ele>668.0</ele><time>2026-04-12T11:26:57.442Z</time></trkpt><trkpt lat="44.5674717" lon="8.0447033"><ele>668.0</ele><time>2026-04-12T11:26:59.442Z</time></trkpt><trkpt lat="44.5674167" lon="8.0447967"><ele>668.0</ele><time>2026-04-12T11:27:02.442Z</time></trkpt><trkpt lat="44.5673583" lon="8.0448967"><ele>668.0</ele><time>2026-04-12T11:27:05.442Z</time></trkpt><trkpt lat="44.5673133" lon="8.0449867"><ele>668.0</ele><time>2026-04-12T11:27:07.442Z</time></trkpt><trkpt lat="44.5672683" lon="8.0450917"><ele>668.5</ele><time>2026-04-12T11:27:09.442Z</time></trkpt><trkpt lat="44.567225" lon="8.0451967"><ele>669.0</ele><time>2026-04-12T11:27:11.442Z</time></trkpt><trkpt lat="44.56718" lon="8.0452867"><ele>669.5</ele><time>2026-04-12T11:27:13.442Z</time></trkpt><trkpt lat="44.5671317" lon="8.0453833"><ele>670.0</ele><time>2026-04-12T11:27:15.442Z</time></trkpt><trkpt lat="44.5670783" lon="8.0454633"><ele>670.5</ele><time>2026-04-12T11:27:17.442Z</time></trkpt><trkpt lat="44.56704" lon="8.0455533"><ele>671.0</ele><time>2026-04-12T11:27:19.442Z</time></trkpt><trkpt lat="44.567" lon="8.045635"><ele>671.4285714285714</ele><time>2026-04-12T11:27:21.442Z</time></trkpt><trkpt lat="44.566965" lon="8.0457183"><ele>671.8571428571429</ele><time>2026-04-12T11:27:23.442Z</time></trkpt><trkpt lat="44.566925" lon="8.0458417"><ele>672.2857142857143</ele><time>2026-04-12T11:27:26.442Z</time></trkpt><trkpt lat="44.5669067" lon="8.045935"><ele>672.7142857142858</ele><time>2026-04-12T11:27:28.442Z</time></trkpt><trkpt lat="44.5668883" lon="8.0460267"><ele>673.1428571428571</ele><time>2026-04-12T11:27:30.442Z</time></trkpt><trkpt lat="44.5668667" lon="8.0461217"><ele>673.5714285714287</ele><time>2026-04-12T11:27:33.442Z</time></trkpt><trkpt lat="44.5668417" lon="8.0462133"><ele>674.0</ele><time>2026-04-12T11:27:35.442Z</time></trkpt><trkpt lat="44.566795" lon="8.046315"><ele>674.0</ele><time>2026-04-12T11:27:38.442Z</time></trkpt><trkpt lat="44.5667567" lon="8.0464"><ele>674.0</ele><time>2026-04-12T11:27:40.442Z</time></trkpt><trkpt lat="44.5667267" lon="8.0464833"><ele>674.0</ele><time>2026-04-12T11:27:42.442Z</time></trkpt><trkpt lat="44.56668" lon="8.0465883"><ele>674.0</ele><time>2026-04-12T11:27:44.442Z</time></trkpt><trkpt lat="44.5666433" lon="8.0466817"><ele>674.0</ele><time>2026-04-12T11:27:46.442Z</time></trkpt><trkpt lat="44.566605" lon="8.0468033"><ele>674.0</ele><time>2026-04-12T11:27:48.442Z</time></trkpt><trkpt lat="44.5665883" lon="8.046905"><ele>675.0</ele><time>2026-04-12T11:27:50.443Z</time></trkpt><trkpt lat="44.5665683" lon="8.0470067"><ele>676.0</ele><time>2026-04-12T11:27:52.442Z</time></trkpt><trkpt lat="44.56656" lon="8.0471183"><ele>677.0</ele><time>2026-04-12T11:27:54.442Z</time></trkpt><trkpt lat="44.5665683" lon="8.0472367"><ele>678.0</ele><time>2026-04-12T11:27:56.442Z</time></trkpt><trkpt lat="44.5665867" lon="8.047365"><ele>679.0</ele><time>2026-04-12T11:27:58.442Z</time></trkpt><trkpt lat="44.5666017" lon="8.04748"><ele>680.0</ele><time>2026-04-12T11:28:00.442Z</time></trkpt><trkpt lat="44.566615" lon="8.0475967"><ele>680.2857142857143</ele><time>2026-04-12T11:28:02.442Z</time></trkpt><trkpt lat="44.5666217" lon="8.0477"><ele>680.5714285714286</ele><time>2026-04-12T11:28:04.442Z</time></trkpt><trkpt lat="44.5666267" lon="8.0477983"><ele>680.8571428571429</ele><time>2026-04-12T11:28:06.442Z</time></trkpt><trkpt lat="44.5666317" lon="8.0478967"><ele>681.1428571428571</ele><time>2026-04-12T11:28:08.442Z</time></trkpt><trkpt lat="44.5666333" lon="8.0479867"><ele>681.4285714285714</ele><time>2026-04-12T11:28:10.442Z</time></trkpt><trkpt lat="44.566605" lon="8.0480883"><ele>681.7142857142857</ele><time>2026-04-12T11:28:13.442Z</time></trkpt><trkpt lat="44.5665667" lon="8.04819"><ele>682.0</ele><time>2026-04-12T11:28:16.442Z</time></trkpt><trkpt lat="44.5665467" lon="8.04831"><ele>682.6666666666667</ele><time>2026-04-12T11:28:19.442Z</time></trkpt><trkpt lat="44.5665283" lon="8.048395"><ele>683.3333333333334</ele><time>2026-04-12T11:28:21.442Z</time></trkpt><trkpt lat="44.5665183" lon="8.0484867"><ele>684.0</ele><time>2026-04-12T11:28:23.442Z</time></trkpt><trkpt lat="44.566505" lon="8.04859"><ele>684.6666666666666</ele><time>2026-04-12T11:28:25.442Z</time></trkpt><trkpt lat="44.5664867" lon="8.0487217"><ele>685.3333333333333</ele><time>2026-04-12T11:28:28.442Z</time></trkpt><trkpt lat="44.5664583" lon="8.048845"><ele>686.0</ele><time>2026-04-12T11:28:31.442Z</time></trkpt><trkpt lat="44.5664317" lon="8.0489417"><ele>686.0</ele><time>2026-04-12T11:28:33.443Z</time></trkpt><trkpt lat="44.5664033" lon="8.0490417"><ele>686.0</ele><time>2026-04-12T11:28:35.442Z</time></trkpt><trkpt lat="44.5663883" lon="8.04915"><ele>686.0</ele><time>2026-04-12T11:28:37.442Z</time></trkpt><trkpt lat="44.56637" lon="8.0492567"><ele>686.0</ele><time>2026-04-12T11:28:39.442Z</time></trkpt><trkpt lat="44.5663583" lon="8.0493617"><ele>686.0</ele><time>2026-04-12T11:28:41.442Z</time></trkpt><trkpt lat="44.5663567" lon="8.0494767"><ele>686.0</ele><time>2026-04-12T11:28:43.442Z</time></trkpt><trkpt lat="44.56636" lon="8.0495933"><ele>686.8333333333333</ele><time>2026-04-12T11:28:45.442Z</time></trkpt><trkpt lat="44.5663767" lon="8.0497117"><ele>687.6666666666666</ele><time>2026-04-12T11:28:47.442Z</time></trkpt><trkpt lat="44.5663983" lon="8.0498183"><ele>688.5</ele><time>2026-04-12T11:28:49.442Z</time></trkpt><trkpt lat="44.5664" lon="8.0499267"><ele>689.3333333333334</ele><time>2026-04-12T11:28:51.442Z</time></trkpt><trkpt lat="44.5663983" lon="8.0500383"><ele>690.1666666666667</ele><time>2026-04-12T11:28:53.442Z</time></trkpt><trkpt lat="44.5664" lon="8.0501333"><ele>691.0</ele><time>2026-04-12T11:28:55.442Z</time></trkpt><trkpt lat="44.5664017" lon="8.05024"><ele>691.5</ele><time>2026-04-12T11:28:57.442Z</time></trkpt><trkpt lat="44.5663983" lon="8.05034"><ele>692.0</ele><time>2026-04-12T11:28:59.442Z</time></trkpt><trkpt lat="44.5663933" lon="8.0504467"><ele>692.5</ele><time>2026-04-12T11:29:01.442Z</time></trkpt><trkpt lat="44.5663967" lon="8.050565"><ele>693.0</ele><time>2026-04-12T11:29:03.442Z</time></trkpt><trkpt lat="44.5663933" lon="8.0506833"><ele>693.5</ele><time>2026-04-12T11:29:05.442Z</time></trkpt><trkpt lat="44.5663967" lon="8.0507867"><ele>694.0</ele><time>2026-04-12T11:29:07.442Z</time></trkpt><trkpt lat="44.566395" lon="8.0508833"><ele>694.3333333333334</ele><time>2026-04-12T11:29:09.442Z</time></trkpt><trkpt lat="44.5663967" lon="8.0510017"><ele>694.6666666666667</ele><time>2026-04-12T11:29:12.442Z</time></trkpt><trkpt lat="44.5663983" lon="8.051115"><ele>695.0</ele><time>2026-04-12T11:29:15.442Z</time></trkpt><trkpt lat="44.56639" lon="8.0512267"><ele>695.3333333333334</ele><time>2026-04-12T11:29:18.442Z</time></trkpt><trkpt lat="44.566385" lon="8.0513167"><ele>695.6666666666666</ele><time>2026-04-12T11:29:21.442Z</time></trkpt><trkpt lat="44.5663817" lon="8.051405"><ele>696.0</ele><time>2026-04-12T11:29:24.442Z</time></trkpt><trkpt lat="44.5663583" lon="8.051515"><ele>696.0</ele><time>2026-04-12T11:29:28.442Z</time></trkpt><trkpt lat="44.5663133" lon="8.05161"><ele>696.0</ele><time>2026-04-12T11:29:32.442Z</time></trkpt><trkpt lat="44.5662867" lon="8.0517033"><ele>696.0</ele><time>2026-04-12T11:29:35.442Z</time></trkpt><trkpt lat="44.5662467" lon="8.0517817"><ele>696.0</ele><time>2026-04-12T11:29:38.442Z</time></trkpt><trkpt lat="44.566215" lon="8.051865"><ele>696.0</ele><time>2026-04-12T11:29:41.442Z</time></trkpt><trkpt lat="44.566185" lon="8.051965"><ele>696.0</ele><time>2026-04-12T11:29:44.442Z</time></trkpt><trkpt lat="44.5661483" lon="8.0520483"><ele>696.0</ele><time>2026-04-12T11:29:47.442Z</time></trkpt><trkpt lat="44.5661033" lon="8.0521283"><ele>697.5</ele><time>2026-04-12T11:29:49.442Z</time></trkpt><trkpt lat="44.566055" lon="8.05224"><ele>699.0</ele><time>2026-04-12T11:29:51.442Z</time></trkpt><trkpt lat="44.5660167" lon="8.0523517"><ele>700.5</ele><time>2026-04-12T11:29:53.442Z</time></trkpt><trkpt lat="44.5659767" lon="8.0524583"><ele>702.0</ele><time>2026-04-12T11:29:55.442Z</time></trkpt><trkpt lat="44.56593" lon="8.05257"><ele>703.5</ele><time>2026-04-12T11:29:57.442Z</time></trkpt><trkpt lat="44.5658917" lon="8.0526783"><ele>705.0</ele><time>2026-04-12T11:29:59.442Z</time></trkpt><trkpt lat="44.565855" lon="8.0527983"><ele>706.8333333333334</ele><time>2026-04-12T11:30:01.442Z</time></trkpt><trkpt lat="44.5658283" lon="8.052915"><ele>708.6666666666666</ele><time>2026-04-12T11:30:03.442Z</time></trkpt><trkpt lat="44.5657917" lon="8.0530167"><ele>710.5</ele><time>2026-04-12T11:30:05.442Z</time></trkpt><trkpt lat="44.565765" lon="8.0531233"><ele>712.3333333333333</ele><time>2026-04-12T11:30:07.442Z</time></trkpt><trkpt lat="44.5657467" lon="8.0532167"><ele>714.1666666666666</ele><time>2026-04-12T11:30:09.442Z</time></trkpt><trkpt lat="44.5657183" lon="8.0532983"><ele>716.0</ele><time>2026-04-12T11:30:11.442Z</time></trkpt><trkpt lat="44.565685" lon="8.0534167"><ele>716.0</ele><time>2026-04-12T11:30:14.442Z</time></trkpt><trkpt lat="44.5656467" lon="8.05353"><ele>716.0</ele><time>2026-04-12T11:30:17.442Z</time></trkpt><trkpt lat="44.5656083" lon="8.053625"><ele>716.0</ele><time>2026-04-12T11:30:20.442Z</time></trkpt><trkpt lat="44.5655617" lon="8.0537133"><ele>716.0</ele><time>2026-04-12T11:30:23.442Z</time></trkpt><trkpt lat="44.56551" lon="8.0537933"><ele>716.0</ele><time>2026-04-12T11:30:26.442Z</time></trkpt><trkpt lat="44.5654567" lon="8.053885"><ele>716.0</ele><time>2026-04-12T11:30:29.442Z</time></trkpt><trkpt lat="44.5654083" lon="8.0539633"><ele>716.4</ele><time>2026-04-12T11:30:32.442Z</time></trkpt><trkpt lat="44.56535" lon="8.0540533"><ele>716.8</ele><time>2026-04-12T11:30:35.442Z</time></trkpt><trkpt lat="44.5652833" lon="8.0541467"><ele>717.1999999999999</ele><time>2026-04-12T11:30:38.442Z</time></trkpt><trkpt lat="44.5652333" lon="8.0542117"><ele>717.5999999999999</ele><time>2026-04-12T11:30:40.442Z</time></trkpt><trkpt lat="44.565145" lon="8.0542883"><ele>718.0</ele><time>2026-04-12T11:30:42.442Z</time></trkpt><trkpt lat="44.56504" lon="8.0543733"><ele>718.8333333333334</ele><time>2026-04-12T11:30:44.442Z</time></trkpt><trkpt lat="44.5649317" lon="8.0544817"><ele>719.6666666666667</ele><time>2026-04-12T11:30:46.442Z</time></trkpt><trkpt lat="44.5648733" lon="8.0545317"><ele>720.5</ele><time>2026-04-12T11:30:47.442Z</time></trkpt><trkpt lat="44.5648033" lon="8.0545817"><ele>721.3333333333334</ele><time>2026-04-12T11:30:48.442Z</time></trkpt><trkpt lat="44.5647283" lon="8.054635"><ele>722.1666666666666</ele><time>2026-04-12T11:30:49.442Z</time></trkpt><trkpt lat="44.5646533" lon="8.054685"><ele>723.0</ele><time>2026-04-12T11:30:50.442Z</time></trkpt><trkpt lat="44.5645817" lon="8.0547217"><ele>721.1666666666666</ele><time>2026-04-12T11:30:51.442Z</time></trkpt><trkpt lat="44.5645117" lon="8.054755"><ele>719.3333333333334</ele><time>2026-04-12T11:30:52.442Z</time></trkpt><trkpt lat="44.56443" lon="8.0548017"><ele>717.5</ele><time>2026-04-12T11:30:53.442Z</time></trkpt><trkpt lat="44.564355" lon="8.0548683"><ele>715.6666666666667</ele><time>2026-04-12T11:30:54.442Z</time></trkpt><trkpt lat="44.5642867" lon="8.0549467"><ele>713.8333333333334</ele><time>2026-04-12T11:30:55.442Z</time></trkpt><trkpt lat="44.564235" lon="8.0550283"><ele>712.0</ele><time>2026-04-12T11:30:56.442Z</time></trkpt><trkpt lat="44.5642033" lon="8.0551183"><ele>712.0</ele><time>2026-04-12T11:30:57.442Z</time></trkpt><trkpt lat="44.5641683" lon="8.055195"><ele>712.0</ele><time>2026-04-12T11:30:58.442Z</time></trkpt><trkpt lat="44.5640967" lon="8.055295"><ele>712.0</ele><time>2026-04-12T11:31:00.442Z</time></trkpt><trkpt lat="44.56404" lon="8.055375"><ele>712.0</ele><time>2026-04-12T11:31:02.442Z</time></trkpt><trkpt lat="44.5639967" lon="8.0554417"><ele>712.0</ele><time>2026-04-12T11:31:04.442Z</time></trkpt><trkpt lat="44.56395" lon="8.05555"><ele>712.0</ele><time>2026-04-12T11:31:07.442Z</time></trkpt><trkpt lat="44.56391" lon="8.055645"><ele>711.9999999999999</ele><time>2026-04-12T11:31:10.442Z</time></trkpt><trkpt lat="44.5638617" lon="8.0557267"><ele>712.0</ele><time>2026-04-12T11:31:13.442Z</time></trkpt><trkpt lat="44.5638183" lon="8.05582"><ele>712.0</ele><time>2026-04-12T11:31:17.442Z</time></trkpt><trkpt lat="44.563775" lon="8.0558983"><ele>712.0</ele><time>2026-04-12T11:31:20.442Z</time></trkpt><trkpt lat="44.56373" lon="8.0559867"><ele>712.0</ele><time>2026-04-12T11:31:24.442Z</time></trkpt><trkpt lat="44.56368" lon="8.056075"><ele>711.9999999999999</ele><time>2026-04-12T11:31:29.442Z</time></trkpt><trkpt lat="44.5636383" lon="8.0561467"><ele>712.0</ele><time>2026-04-12T11:31:32.442Z</time></trkpt><trkpt lat="44.5635883" lon="8.0562267"><ele>713.5</ele><time>2026-04-12T11:31:37.442Z</time></trkpt><trkpt lat="44.5635367" lon="8.0562933"><ele>715.0</ele><time>2026-04-12T11:31:41.442Z</time></trkpt><trkpt lat="44.563475" lon="8.0563833"><ele>716.5</ele><time>2026-04-12T11:31:45.442Z</time></trkpt><trkpt lat="44.5634183" lon="8.056455"><ele>718.0</ele><time>2026-04-12T11:31:48.442Z</time></trkpt><trkpt lat="44.5633583" lon="8.0565333"><ele>719.5</ele><time>2026-04-12T11:31:51.442Z</time></trkpt><trkpt lat="44.5633033" lon="8.0565833"><ele>721.0</ele><time>2026-04-12T11:31:54.442Z</time></trkpt><trkpt lat="44.56323" lon="8.0566417"><ele>722.8333333333334</ele><time>2026-04-12T11:31:57.442Z</time></trkpt><trkpt lat="44.5631683" lon="8.0567083"><ele>724.6666666666667</ele><time>2026-04-12T11:32:00.442Z</time></trkpt><trkpt lat="44.5631083" lon="8.0567667"><ele>726.5</ele><time>2026-04-12T11:32:03.442Z</time></trkpt><trkpt lat="44.5630433" lon="8.0568183"><ele>728.3333333333334</ele><time>2026-04-12T11:32:06.442Z</time></trkpt><trkpt lat="44.562985" lon="8.05688"><ele>730.1666666666666</ele><time>2026-04-12T11:32:09.442Z</time></trkpt><trkpt lat="44.562915" lon="8.05694"><ele>732.0</ele><time>2026-04-12T11:32:12.442Z</time></trkpt><trkpt lat="44.5628517" lon="8.0569983"><ele>732.7142857142858</ele><time>2026-04-12T11:32:15.442Z</time></trkpt><trkpt lat="44.5628" lon="8.057065"><ele>733.4285714285714</ele><time>2026-04-12T11:32:18.442Z</time></trkpt><trkpt lat="44.562755" lon="8.0571317"><ele>734.1428571428571</ele><time>2026-04-12T11:32:21.442Z</time></trkpt><trkpt lat="44.5626967" lon="8.0572067"><ele>734.8571428571429</ele><time>2026-04-12T11:32:25.442Z</time></trkpt><trkpt lat="44.5626483" lon="8.057265"><ele>735.5714285714286</ele><time>2026-04-12T11:32:28.442Z</time></trkpt><trkpt lat="44.562585" lon="8.057295"><ele>736.2857142857143</ele><time>2026-04-12T11:32:31.442Z</time></trkpt><trkpt lat="44.5625167" lon="8.05732"><ele>737.0</ele><time>2026-04-12T11:32:34.442Z</time></trkpt><trkpt lat="44.5624367" lon="8.0573083"><ele>737.0</ele><time>2026-04-12T11:32:37.442Z</time></trkpt><trkpt lat="44.562345" lon="8.0573117"><ele>737.0</ele><time>2026-04-12T11:32:40.443Z</time></trkpt><trkpt lat="44.5622567" lon="8.0573133"><ele>737.0</ele><time>2026-04-12T11:32:43.442Z</time></trkpt><trkpt lat="44.5621867" lon="8.0572867"><ele>737.0</ele><time>2026-04-12T11:32:46.442Z</time></trkpt><trkpt lat="44.5620967" lon="8.0572733"><ele>737.0</ele><time>2026-04-12T11:32:49.442Z</time></trkpt><trkpt lat="44.5620267" lon="8.0572517"><ele>737.0</ele><time>2026-04-12T11:32:51.442Z</time></trkpt><trkpt lat="44.5619517" lon="8.0572233"><ele>737.4000000000001</ele><time>2026-04-12T11:32:53.442Z</time></trkpt><trkpt lat="44.5618833" lon="8.0571817"><ele>737.8000000000001</ele><time>2026-04-12T11:32:55.442Z</time></trkpt><trkpt lat="44.561795" lon="8.0571583"><ele>738.2</ele><time>2026-04-12T11:32:57.442Z</time></trkpt><trkpt lat="44.5617" lon="8.057125"><ele>738.6</ele><time>2026-04-12T11:32:59.442Z</time></trkpt><trkpt lat="44.5616033" lon="8.0571083"><ele>739.0</ele><time>2026-04-12T11:33:01.442Z</time></trkpt><trkpt lat="44.5615083" lon="8.0570817"><ele>739.0</ele><time>2026-04-12T11:33:03.442Z</time></trkpt><trkpt lat="44.56141" lon="8.057065"><ele>739.0</ele><time>2026-04-12T11:33:05.442Z</time></trkpt><trkpt lat="44.5613133" lon="8.0570383"><ele>739.0</ele><time>2026-04-12T11:33:07.442Z</time></trkpt><trkpt lat="44.5612133" lon="8.05701"><ele>739.0</ele><time>2026-04-12T11:33:09.442Z</time></trkpt><trkpt lat="44.5611317" lon="8.0569733"><ele>739.0</ele><time>2026-04-12T11:33:11.442Z</time></trkpt><trkpt lat="44.5610383" lon="8.05694"><ele>739.8333333333334</ele><time>2026-04-12T11:33:13.442Z</time></trkpt><trkpt lat="44.56095" lon="8.0569"><ele>740.6666666666667</ele><time>2026-04-12T11:33:15.442Z</time></trkpt><trkpt lat="44.56086" lon="8.0568817"><ele>741.5</ele><time>2026-04-12T11:33:17.442Z</time></trkpt><trkpt lat="44.5607833" lon="8.056875"><ele>742.3333333333334</ele><time>2026-04-12T11:33:19.442Z</time></trkpt><trkpt lat="44.5607117" lon="8.05688"><ele>743.1666666666666</ele><time>2026-04-12T11:33:21.442Z</time></trkpt><trkpt lat="44.56065" lon="8.0569017"><ele>744.0</ele><time>2026-04-12T11:33:23.442Z</time></trkpt><trkpt lat="44.5605617" lon="8.0569483"><ele>744.0000000000001</ele><time>2026-04-12T11:33:26.442Z</time></trkpt><trkpt lat="44.560495" lon="8.0569983"><ele>744.0</ele><time>2026-04-12T11:33:28.442Z</time></trkpt><trkpt lat="44.560435" lon="8.0570467"><ele>744.0</ele><time>2026-04-12T11:33:30.442Z</time></trkpt><trkpt lat="44.56038" lon="8.0571383"><ele>744.0</ele><time>2026-04-12T11:33:33.442Z</time></trkpt><trkpt lat="44.5603667" lon="8.0572267"><ele>744.0</ele><time>2026-04-12T11:33:37.442Z</time></trkpt><trkpt lat="44.5603583" lon="8.057335"><ele>744.0000000000001</ele><time>2026-04-12T11:33:42.443Z</time></trkpt><trkpt lat="44.5602867" lon="8.0573133"><ele>744.0</ele><time>2026-04-12T11:33:48.442Z</time></trkpt><trkpt lat="44.5602817" lon="8.0574583"><ele>745.0</ele><time>2026-04-12T11:34:12.442Z</time></trkpt><trkpt lat="44.560225" lon="8.0575333"><ele>746.0</ele><time>2026-04-12T11:34:15.442Z</time></trkpt><trkpt lat="44.5601667" lon="8.0575817"><ele>747.0</ele><time>2026-04-12T11:34:17.442Z</time></trkpt><trkpt lat="44.5601317" lon="8.0576817"><ele>748.0</ele><time>2026-04-12T11:34:20.442Z</time></trkpt><trkpt lat="44.5602033" lon="8.05773"><ele>749.0</ele><time>2026-04-12T11:34:31.442Z</time></trkpt><trkpt lat="44.5602317" lon="8.0576367"><ele>750.0</ele><time>2026-04-12T11:34:34.442Z</time></trkpt><trkpt lat="44.5602767" lon="8.057555"><ele>750.0</ele><time>2026-04-12T11:34:37.442Z</time></trkpt><trkpt lat="44.56034" lon="8.0575083"><ele>750.0</ele><time>2026-04-12T11:34:40.442Z</time></trkpt><trkpt lat="44.5603417" lon="8.057415"><ele>750.0</ele><time>2026-04-12T11:35:24.442Z</time></trkpt><trkpt lat="44.56028" lon="8.0574967"><ele>750.0</ele><time>2026-04-12T11:35:26.442Z</time></trkpt><trkpt lat="44.5602133" lon="8.0575733"><ele>750.0</ele><time>2026-04-12T11:35:28.442Z</time></trkpt><trkpt lat="44.560155" lon="8.0576417"><ele>750.0</ele><time>2026-04-12T11:35:30.442Z</time></trkpt><trkpt lat="44.560125" lon="8.0577367"><ele>750.0</ele><time>2026-04-12T11:35:33.442Z</time></trkpt><trkpt lat="44.560185" lon="8.057875"><ele>750.0</ele><time>2026-04-12T11:36:45.442Z</time></trkpt><trkpt lat="44.56028" lon="8.0579283"><ele>750.0</ele><time>2026-04-12T11:36:59.442Z</time></trkpt><trkpt lat="44.56033" lon="8.058"><ele>750.0</ele><time>2026-04-12T11:37:01.442Z</time></trkpt><trkpt lat="44.5603333" lon="8.0581"><ele>750.0</ele><time>2026-04-12T11:37:05.442Z</time></trkpt><trkpt lat="44.5602683" lon="8.0579333"><ele>750.0</ele><time>2026-04-12T11:37:17.442Z</time></trkpt><trkpt lat="44.56033" lon="8.0579817"><ele>750.0</ele><time>2026-04-12T11:37:33.442Z</time></trkpt><trkpt lat="44.5601933" lon="8.0578933"><ele>750.0</ele><time>2026-04-12T11:38:23.442Z</time></trkpt><trkpt lat="44.5602641" lon="8.0579276"><ele>750.0</ele><time>2026-04-12T12:03:16.505Z</time></trkpt><trkpt lat="44.5602025" lon="8.0578789"><ele>750.0</ele><time>2026-04-12T12:07:51.449Z</time></trkpt><trkpt lat="44.5601341" lon="8.0579674"><ele>750.0</ele><time>2026-04-12T12:07:53.44Z</time></trkpt><trkpt lat="44.5600713" lon="8.0581134"><ele>750.0</ele><time>2026-04-12T12:07:55.44Z</time></trkpt><trkpt lat="44.5600378" lon="8.0582153"><ele>750.0</ele><time>2026-04-12T12:07:56.44Z</time></trkpt><trkpt lat="44.5600039" lon="8.0582994"><ele>750.0</ele><time>2026-04-12T12:07:57.44Z</time></trkpt><trkpt lat="44.5599047" lon="8.0583906"><ele>750.0</ele><time>2026-04-12T12:07:59.44Z</time></trkpt><trkpt lat="44.5597984" lon="8.0584364"><ele>750.8333333333334</ele><time>2026-04-12T12:08:01.44Z</time></trkpt><trkpt lat="44.5597405" lon="8.0584739"><ele>751.6666666666666</ele><time>2026-04-12T12:08:03.44Z</time></trkpt><trkpt lat="44.55964" lon="8.0585583"><ele>752.5</ele><time>2026-04-12T12:08:12.44Z</time></trkpt><trkpt lat="44.5595733" lon="8.0585817"><ele>753.3333333333333</ele><time>2026-04-12T12:08:15.44Z</time></trkpt><trkpt lat="44.5594683" lon="8.0586267"><ele>754.1666666666666</ele><time>2026-04-12T12:08:17.44Z</time></trkpt><trkpt lat="44.559405" lon="8.0586767"><ele>755.0</ele><time>2026-04-12T12:08:18.44Z</time></trkpt><trkpt lat="44.5593383" lon="8.0587283"><ele>751.8</ele><time>2026-04-12T12:08:19.44Z</time></trkpt><trkpt lat="44.5592633" lon="8.0587867"><ele>748.6</ele><time>2026-04-12T12:08:20.44Z</time></trkpt><trkpt lat="44.5591817" lon="8.0588617"><ele>745.4000000000001</ele><time>2026-04-12T12:08:21.44Z</time></trkpt><trkpt lat="44.5591033" lon="8.05893"><ele>742.2</ele><time>2026-04-12T12:08:22.44Z</time></trkpt><trkpt lat="44.559025" lon="8.058995"><ele>739.0</ele><time>2026-04-12T12:08:23.44Z</time></trkpt><trkpt lat="44.558945" lon="8.0590633"><ele>739.0</ele><time>2026-04-12T12:08:24.44Z</time></trkpt><trkpt lat="44.5588683" lon="8.0591167"><ele>739.0</ele><time>2026-04-12T12:08:25.44Z</time></trkpt><trkpt lat="44.558785" lon="8.0591783"><ele>739.0</ele><time>2026-04-12T12:08:26.44Z</time></trkpt><trkpt lat="44.55869" lon="8.0592383"><ele>739.0</ele><time>2026-04-12T12:08:27.44Z</time></trkpt><trkpt lat="44.5586133" lon="8.0592833"><ele>739.0</ele><time>2026-04-12T12:08:28.44Z</time></trkpt><trkpt lat="44.55855" lon="8.0593283"><ele>739.0</ele><time>2026-04-12T12:08:29.441Z</time></trkpt><trkpt lat="44.5584467" lon="8.0594033"><ele>738.1666666666667</ele><time>2026-04-12T12:08:31.44Z</time></trkpt><trkpt lat="44.558355" lon="8.059475"><ele>737.3333333333334</ele><time>2026-04-12T12:08:33.44Z</time></trkpt><trkpt lat="44.5582933" lon="8.0595117"><ele>736.5</ele><time>2026-04-12T12:08:35.44Z</time></trkpt><trkpt lat="44.5582133" lon="8.0595467"><ele>735.6666666666666</ele><time>2026-04-12T12:08:38.44Z</time></trkpt><trkpt lat="44.558145" lon="8.05956"><ele>734.8333333333333</ele><time>2026-04-12T12:08:40.44Z</time></trkpt><trkpt lat="44.5580567" lon="8.0595567"><ele>734.0</ele><time>2026-04-12T12:08:42.44Z</time></trkpt><trkpt lat="44.55796" lon="8.0595567"><ele>731.8000000000001</ele><time>2026-04-12T12:08:44.44Z</time></trkpt><trkpt lat="44.557855" lon="8.0595783"><ele>729.6</ele><time>2026-04-12T12:08:46.44Z</time></trkpt><trkpt lat="44.5577583" lon="8.0596"><ele>727.4</ele><time>2026-04-12T12:08:48.44Z</time></trkpt><trkpt lat="44.5576717" lon="8.0596483"><ele>725.2</ele><time>2026-04-12T12:08:50.44Z</time></trkpt><trkpt lat="44.557585" lon="8.0596967"><ele>723.0</ele><time>2026-04-12T12:08:52.44Z</time></trkpt><trkpt lat="44.557475" lon="8.05974"><ele>723.0</ele><time>2026-04-12T12:08:54.44Z</time></trkpt><trkpt lat="44.5573633" lon="8.059795"><ele>723.0</ele><time>2026-04-12T12:08:56.44Z</time></trkpt><trkpt lat="44.557305" lon="8.0598317"><ele>723.0</ele><time>2026-04-12T12:08:57.44Z</time></trkpt><trkpt lat="44.5572467" lon="8.0598833"><ele>723.0</ele><time>2026-04-12T12:08:58.44Z</time></trkpt><trkpt lat="44.5571883" lon="8.0599333"><ele>723.0</ele><time>2026-04-12T12:08:59.44Z</time></trkpt><trkpt lat="44.5571267" lon="8.059975"><ele>723.0</ele><time>2026-04-12T12:09:00.44Z</time></trkpt><trkpt lat="44.55707" lon="8.0600233"><ele>724.0000000000001</ele><time>2026-04-12T12:09:01.44Z</time></trkpt><trkpt lat="44.5570067" lon="8.0600567"><ele>725.0</ele><time>2026-04-12T12:09:02.44Z</time></trkpt><trkpt lat="44.5569483" lon="8.06009"><ele>726.0</ele><time>2026-04-12T12:09:03.44Z</time></trkpt><trkpt lat="44.5568833" lon="8.0601133"><ele>727.0</ele><time>2026-04-12T12:09:04.44Z</time></trkpt><trkpt lat="44.5568133" lon="8.0601433"><ele>728.0</ele><time>2026-04-12T12:09:05.44Z</time></trkpt><trkpt lat="44.556745" lon="8.06017"><ele>729.0000000000001</ele><time>2026-04-12T12:09:06.44Z</time></trkpt><trkpt lat="44.55668" lon="8.06019"><ele>730.0</ele><time>2026-04-12T12:09:07.44Z</time></trkpt><trkpt lat="44.5566083" lon="8.060205"><ele>730.0</ele><time>2026-04-12T12:09:08.44Z</time></trkpt><trkpt lat="44.5565383" lon="8.060225"><ele>730.0</ele><time>2026-04-12T12:09:09.44Z</time></trkpt><trkpt lat="44.5564683" lon="8.0602467"><ele>730.0</ele><time>2026-04-12T12:09:10.44Z</time></trkpt><trkpt lat="44.5564033" lon="8.0602733"><ele>730.0</ele><time>2026-04-12T12:09:11.441Z</time></trkpt><trkpt lat="44.5563383" lon="8.0603"><ele>730.0</ele><time>2026-04-12T12:09:12.441Z</time></trkpt><trkpt lat="44.5562783" lon="8.06033"><ele>730.0</ele><time>2026-04-12T12:09:13.44Z</time></trkpt><trkpt lat="44.5561567" lon="8.06039"><ele>731.1428571428572</ele><time>2026-04-12T12:09:15.44Z</time></trkpt><trkpt lat="44.5560917" lon="8.060425"><ele>732.2857142857143</ele><time>2026-04-12T12:09:16.44Z</time></trkpt><trkpt lat="44.5560267" lon="8.0604767"><ele>733.4285714285714</ele><time>2026-04-12T12:09:17.44Z</time></trkpt><trkpt lat="44.555965" lon="8.060535"><ele>734.5714285714287</ele><time>2026-04-12T12:09:18.44Z</time></trkpt><trkpt lat="44.5559117" lon="8.0606017"><ele>735.7142857142857</ele><time>2026-04-12T12:09:19.44Z</time></trkpt><trkpt lat="44.55587" lon="8.060675"><ele>736.8571428571429</ele><time>2026-04-12T12:09:20.44Z</time></trkpt><trkpt lat="44.55583" lon="8.06075"><ele>738.0</ele><time>2026-04-12T12:09:21.44Z</time></trkpt><trkpt lat="44.5557883" lon="8.0608283"><ele>738.0</ele><time>2026-04-12T12:09:22.44Z</time></trkpt><trkpt lat="44.5557467" lon="8.060905"><ele>738.0</ele><time>2026-04-12T12:09:23.44Z</time></trkpt><trkpt lat="44.5557017" lon="8.0609783"><ele>738.0</ele><time>2026-04-12T12:09:24.44Z</time></trkpt><trkpt lat="44.5556617" lon="8.0610517"><ele>738.0</ele><time>2026-04-12T12:09:25.44Z</time></trkpt><trkpt lat="44.5556283" lon="8.0611267"><ele>738.0</ele><time>2026-04-12T12:09:26.44Z</time></trkpt><trkpt lat="44.555595" lon="8.0612067"><ele>738.0</ele><time>2026-04-12T12:09:27.44Z</time></trkpt><trkpt lat="44.555565" lon="8.061295"><ele>738.0</ele><time>2026-04-12T12:09:28.44Z</time></trkpt><trkpt lat="44.5555333" lon="8.0613783"><ele>738.0</ele><time>2026-04-12T12:09:29.44Z</time></trkpt><trkpt lat="44.5555017" lon="8.0614633"><ele>738.0</ele><time>2026-04-12T12:09:30.441Z</time></trkpt><trkpt lat="44.55547" lon="8.0615517"><ele>738.0</ele><time>2026-04-12T12:09:31.44Z</time></trkpt><trkpt lat="44.5554333" lon="8.0616367"><ele>738.0</ele><time>2026-04-12T12:09:32.44Z</time></trkpt><trkpt lat="44.555395" lon="8.0617217"><ele>738.0</ele><time>2026-04-12T12:09:33.44Z</time></trkpt><trkpt lat="44.55536" lon="8.0618067"><ele>738.0</ele><time>2026-04-12T12:09:34.44Z</time></trkpt><trkpt lat="44.55532" lon="8.0618917"><ele>738.0</ele><time>2026-04-12T12:09:35.44Z</time></trkpt><trkpt lat="44.5552783" lon="8.0619767"><ele>737.4285714285714</ele><time>2026-04-12T12:09:36.44Z</time></trkpt><trkpt lat="44.5552317" lon="8.062055"><ele>736.8571428571429</ele><time>2026-04-12T12:09:37.44Z</time></trkpt><trkpt lat="44.5551867" lon="8.0621283"><ele>736.2857142857142</ele><time>2026-04-12T12:09:38.44Z</time></trkpt><trkpt lat="44.555135" lon="8.0622017"><ele>735.7142857142858</ele><time>2026-04-12T12:09:39.44Z</time></trkpt><trkpt lat="44.555085" lon="8.0622733"><ele>735.1428571428572</ele><time>2026-04-12T12:09:40.44Z</time></trkpt><trkpt lat="44.5550333" lon="8.0623383"><ele>734.5714285714286</ele><time>2026-04-12T12:09:41.44Z</time></trkpt><trkpt lat="44.5549783" lon="8.0624"><ele>734.0</ele><time>2026-04-12T12:09:42.44Z</time></trkpt><trkpt lat="44.5549217" lon="8.0624483"><ele>734.0</ele><time>2026-04-12T12:09:43.44Z</time></trkpt><trkpt lat="44.5548667" lon="8.0624917"><ele>734.0</ele><time>2026-04-12T12:09:44.44Z</time></trkpt><trkpt lat="44.5548067" lon="8.062525"><ele>734.0</ele><time>2026-04-12T12:09:45.44Z</time></trkpt><trkpt lat="44.554745" lon="8.0625583"><ele>734.0</ele><time>2026-04-12T12:09:46.44Z</time></trkpt><trkpt lat="44.554685" lon="8.0625983"><ele>734.0</ele><time>2026-04-12T12:09:47.44Z</time></trkpt><trkpt lat="44.5546217" lon="8.062635"><ele>734.0</ele><time>2026-04-12T12:09:48.44Z</time></trkpt><trkpt lat="44.5545117" lon="8.0627117"><ele>733.4000000000001</ele><time>2026-04-12T12:09:50.44Z</time></trkpt><trkpt lat="44.5544183" lon="8.0627767"><ele>732.8</ele><time>2026-04-12T12:09:52.44Z</time></trkpt><trkpt lat="44.5543117" lon="8.0628383"><ele>732.2</ele><time>2026-04-12T12:09:54.44Z</time></trkpt><trkpt lat="44.5542083" lon="8.0628867"><ele>731.5999999999999</ele><time>2026-04-12T12:09:56.44Z</time></trkpt><trkpt lat="44.5541083" lon="8.0629217"><ele>731.0</ele><time>2026-04-12T12:09:58.44Z</time></trkpt><trkpt lat="44.554005" lon="8.0629717"><ele>731.0</ele><time>2026-04-12T12:10:00.44Z</time></trkpt><trkpt lat="44.5539167" lon="8.063025"><ele>731.0</ele><time>2026-04-12T12:10:02.44Z</time></trkpt><trkpt lat="44.553825" lon="8.0630767"><ele>731.0</ele><time>2026-04-12T12:10:04.44Z</time></trkpt><trkpt lat="44.5537367" lon="8.0631217"><ele>731.0</ele><time>2026-04-12T12:10:06.44Z</time></trkpt><trkpt lat="44.5536567" lon="8.0631767"><ele>731.0</ele><time>2026-04-12T12:10:08.44Z</time></trkpt><trkpt lat="44.5535917" lon="8.0632333"><ele>732.5</ele><time>2026-04-12T12:10:10.44Z</time></trkpt><trkpt lat="44.5535267" lon="8.0632833"><ele>734.0</ele><time>2026-04-12T12:10:12.44Z</time></trkpt><trkpt lat="44.5534567" lon="8.0633317"><ele>735.5</ele><time>2026-04-12T12:10:14.44Z</time></trkpt><trkpt lat="44.5533917" lon="8.0633817"><ele>737.0</ele><time>2026-04-12T12:10:16.44Z</time></trkpt><trkpt lat="44.5533333" lon="8.06343"><ele>738.5</ele><time>2026-04-12T12:10:18.44Z</time></trkpt><trkpt lat="44.5532717" lon="8.0634783"><ele>740.0</ele><time>2026-04-12T12:10:20.44Z</time></trkpt><trkpt lat="44.5531983" lon="8.063545"><ele>740.0</ele><time>2026-04-12T12:10:22.44Z</time></trkpt><trkpt lat="44.5531267" lon="8.0636367"><ele>740.0</ele><time>2026-04-12T12:10:24.44Z</time></trkpt><trkpt lat="44.5530483" lon="8.0637633"><ele>740.0</ele><time>2026-04-12T12:10:26.44Z</time></trkpt><trkpt lat="44.5530033" lon="8.0638283"><ele>740.0</ele><time>2026-04-12T12:10:27.44Z</time></trkpt><trkpt lat="44.55296" lon="8.0638933"><ele>740.0</ele><time>2026-04-12T12:10:28.441Z</time></trkpt><trkpt lat="44.55291" lon="8.0639683"><ele>740.0</ele><time>2026-04-12T12:10:29.44Z</time></trkpt><trkpt lat="44.552855" lon="8.0640533"><ele>741.0</ele><time>2026-04-12T12:10:30.44Z</time></trkpt><trkpt lat="44.5528" lon="8.0641467"><ele>742.0</ele><time>2026-04-12T12:10:31.44Z</time></trkpt><trkpt lat="44.5527433" lon="8.0642517"><ele>743.0</ele><time>2026-04-12T12:10:32.44Z</time></trkpt><trkpt lat="44.5526933" lon="8.06435"><ele>744.0</ele><time>2026-04-12T12:10:33.44Z</time></trkpt><trkpt lat="44.5526367" lon="8.06446"><ele>745.0</ele><time>2026-04-12T12:10:34.44Z</time></trkpt><trkpt lat="44.5525767" lon="8.06456"><ele>745.0</ele><time>2026-04-12T12:10:35.44Z</time></trkpt><trkpt lat="44.5525233" lon="8.0646567"><ele>745.0</ele><time>2026-04-12T12:10:36.441Z</time></trkpt><trkpt lat="44.55247" lon="8.0647583"><ele>745.0</ele><time>2026-04-12T12:10:37.44Z</time></trkpt><trkpt lat="44.55242" lon="8.0648567"><ele>745.0</ele><time>2026-04-12T12:10:38.44Z</time></trkpt><trkpt lat="44.552375" lon="8.0649683"><ele>745.0</ele><time>2026-04-12T12:10:39.44Z</time></trkpt><trkpt lat="44.5523317" lon="8.0650783"><ele>745.0</ele><time>2026-04-12T12:10:40.44Z</time></trkpt><trkpt lat="44.552295" lon="8.0651833"><ele>744.1666666666667</ele><time>2026-04-12T12:10:41.44Z</time></trkpt><trkpt lat="44.55227" lon="8.0652883"><ele>743.3333333333334</ele><time>2026-04-12T12:10:42.44Z</time></trkpt><trkpt lat="44.552245" lon="8.0653917"><ele>742.5</ele><time>2026-04-12T12:10:43.44Z</time></trkpt><trkpt lat="44.5522117" lon="8.0654867"><ele>741.6666666666666</ele><time>2026-04-12T12:10:44.44Z</time></trkpt><trkpt lat="44.5521867" lon="8.065575"><ele>740.8333333333333</ele><time>2026-04-12T12:10:45.44Z</time></trkpt><trkpt lat="44.552135" lon="8.065665"><ele>740.0</ele><time>2026-04-12T12:10:46.44Z</time></trkpt><trkpt lat="44.5520983" lon="8.065745"><ele>738.8</ele><time>2026-04-12T12:10:47.44Z</time></trkpt><trkpt lat="44.5520533" lon="8.0658817"><ele>737.6</ele><time>2026-04-12T12:10:49.44Z</time></trkpt><trkpt lat="44.552015" lon="8.0660167"><ele>736.4000000000001</ele><time>2026-04-12T12:10:51.44Z</time></trkpt><trkpt lat="44.5519817" lon="8.06614"><ele>735.2</ele><time>2026-04-12T12:10:53.44Z</time></trkpt><trkpt lat="44.5519217" lon="8.0661783"><ele>734.0</ele><time>2026-04-12T12:10:56.44Z</time></trkpt><trkpt lat="44.5519117" lon="8.0660567"><ele>734.0</ele><time>2026-04-12T12:10:59.44Z</time></trkpt><trkpt lat="44.55191" lon="8.065945"><ele>734.0</ele><time>2026-04-12T12:11:01.44Z</time></trkpt><trkpt lat="44.5518983" lon="8.0658133"><ele>734.0</ele><time>2026-04-12T12:11:03.44Z</time></trkpt><trkpt lat="44.5518833" lon="8.0656717"><ele>734.0</ele><time>2026-04-12T12:11:05.44Z</time></trkpt><trkpt lat="44.5518567" lon="8.065535"><ele>734.0</ele><time>2026-04-12T12:11:07.44Z</time></trkpt><trkpt lat="44.551835" lon="8.0653967"><ele>735.0</ele><time>2026-04-12T12:11:09.44Z</time></trkpt><trkpt lat="44.55182" lon="8.06528"><ele>736.0</ele><time>2026-04-12T12:11:11.44Z</time></trkpt><trkpt lat="44.5518133" lon="8.06515"><ele>737.0</ele><time>2026-04-12T12:11:13.441Z</time></trkpt><trkpt lat="44.5518117" lon="8.065035"><ele>738.0</ele><time>2026-04-12T12:11:15.44Z</time></trkpt><trkpt lat="44.5518067" lon="8.0649117"><ele>739.0</ele><time>2026-04-12T12:11:17.44Z</time></trkpt><trkpt lat="44.55177" lon="8.0647583"><ele>739.8333333333334</ele><time>2026-04-12T12:11:19.44Z</time></trkpt><trkpt lat="44.5517067" lon="8.064595"><ele>740.6666666666667</ele><time>2026-04-12T12:11:21.44Z</time></trkpt><trkpt lat="44.5516633" lon="8.0645217"><ele>741.5</ele><time>2026-04-12T12:11:22.44Z</time></trkpt><trkpt lat="44.551615" lon="8.0644567"><ele>742.3333333333334</ele><time>2026-04-12T12:11:23.44Z</time></trkpt><trkpt lat="44.5515667" lon="8.06439"><ele>743.1666666666666</ele><time>2026-04-12T12:11:24.44Z</time></trkpt><trkpt lat="44.5515167" lon="8.064325"><ele>744.0</ele><time>2026-04-12T12:11:25.44Z</time></trkpt><trkpt lat="44.55144" lon="8.06423"><ele>744.0</ele><time>2026-04-12T12:11:27.44Z</time></trkpt><trkpt lat="44.5513883" lon="8.0641633"><ele>744.0</ele><time>2026-04-12T12:11:29.44Z</time></trkpt><trkpt lat="44.5513267" lon="8.064085"><ele>744.0</ele><time>2026-04-12T12:11:32.44Z</time></trkpt><trkpt lat="44.55127" lon="8.0639967"><ele>744.0</ele><time>2026-04-12T12:11:35.44Z</time></trkpt><trkpt lat="44.5512167" lon="8.063935"><ele>744.0</ele><time>2026-04-12T12:11:37.44Z</time></trkpt><trkpt lat="44.551155" lon="8.06385"><ele>744.0</ele><time>2026-04-12T12:11:40.44Z</time></trkpt><trkpt lat="44.55111" lon="8.0637783"><ele>743.6</ele><time>2026-04-12T12:11:42.44Z</time></trkpt><trkpt lat="44.5510533" lon="8.0636883"><ele>743.2</ele><time>2026-04-12T12:11:44.44Z</time></trkpt><trkpt lat="44.5509933" lon="8.0635817"><ele>742.8000000000001</ele><time>2026-04-12T12:11:46.44Z</time></trkpt><trkpt lat="44.5509233" lon="8.06347"><ele>742.4000000000001</ele><time>2026-04-12T12:11:48.44Z</time></trkpt><trkpt lat="44.5508417" lon="8.063365"><ele>742.0</ele><time>2026-04-12T12:11:50.44Z</time></trkpt><trkpt lat="44.55075" lon="8.063255"><ele>741.6</ele><time>2026-04-12T12:11:52.44Z</time></trkpt><trkpt lat="44.55066" lon="8.06316"><ele>741.2</ele><time>2026-04-12T12:11:54.44Z</time></trkpt><trkpt lat="44.5505917" lon="8.0630817"><ele>740.8</ele><time>2026-04-12T12:11:56.44Z</time></trkpt><trkpt lat="44.55052" lon="8.063"><ele>740.4</ele><time>2026-04-12T12:11:58.44Z</time></trkpt><trkpt lat="44.55044" lon="8.0629083"><ele>740.0</ele><time>2026-04-12T12:12:00.44Z</time></trkpt><trkpt lat="44.5503717" lon="8.0628233"><ele>738.5</ele><time>2026-04-12T12:12:02.44Z</time></trkpt><trkpt lat="44.5503183" lon="8.06275"><ele>737.0</ele><time>2026-04-12T12:12:04.44Z</time></trkpt><trkpt lat="44.5502667" lon="8.062665"><ele>735.5</ele><time>2026-04-12T12:12:06.44Z</time></trkpt><trkpt lat="44.5502367" lon="8.0625817"><ele>734.0</ele><time>2026-04-12T12:12:08.44Z</time></trkpt><trkpt lat="44.5502083" lon="8.0624633"><ele>732.5</ele><time>2026-04-12T12:12:11.44Z</time></trkpt><trkpt lat="44.55019" lon="8.06237"><ele>731.0</ele><time>2026-04-12T12:12:13.44Z</time></trkpt><trkpt lat="44.5501667" lon="8.06225"><ele>730.6666666666666</ele><time>2026-04-12T12:12:16.44Z</time></trkpt><trkpt lat="44.5501167" lon="8.0621367"><ele>730.3333333333333</ele><time>2026-04-12T12:12:19.44Z</time></trkpt><trkpt lat="44.5500767" lon="8.062065"><ele>730.0</ele><time>2026-04-12T12:12:21.44Z</time></trkpt><trkpt lat="44.5500267" lon="8.0619833"><ele>729.6666666666666</ele><time>2026-04-12T12:12:26.44Z</time></trkpt><trkpt lat="44.549985" lon="8.0618967"><ele>729.3333333333334</ele><time>2026-04-12T12:12:29.44Z</time></trkpt><trkpt lat="44.5499567" lon="8.061815"><ele>729.0</ele><time>2026-04-12T12:12:31.44Z</time></trkpt><trkpt lat="44.5499233" lon="8.06172"><ele>728.3333333333334</ele><time>2026-04-12T12:12:33.44Z</time></trkpt><trkpt lat="44.54991" lon="8.0616067"><ele>727.6666666666666</ele><time>2026-04-12T12:12:35.441Z</time></trkpt><trkpt lat="44.5499" lon="8.0614767"><ele>727.0</ele><time>2026-04-12T12:12:37.441Z</time></trkpt><trkpt lat="44.549895" lon="8.0613583"><ele>726.3333333333333</ele><time>2026-04-12T12:12:39.44Z</time></trkpt><trkpt lat="44.5498983" lon="8.06126"><ele>725.6666666666666</ele><time>2026-04-12T12:12:42.44Z</time></trkpt><trkpt lat="44.5498933" lon="8.0611467"><ele>725.0</ele><time>2026-04-12T12:12:47.44Z</time></trkpt><trkpt lat="44.5498617" lon="8.0610383"><ele>725.0</ele><time>2026-04-12T12:12:49.44Z</time></trkpt><trkpt lat="44.5497917" lon="8.06093"><ele>725.0</ele><time>2026-04-12T12:12:51.44Z</time></trkpt><trkpt lat="44.5497083" lon="8.0608083"><ele>725.0</ele><time>2026-04-12T12:12:53.44Z</time></trkpt><trkpt lat="44.549625" lon="8.0606883"><ele>725.0</ele><time>2026-04-12T12:12:55.44Z</time></trkpt><trkpt lat="44.54953" lon="8.060585"><ele>725.4</ele><time>2026-04-12T12:12:57.44Z</time></trkpt><trkpt lat="44.5494517" lon="8.0604983"><ele>725.8</ele><time>2026-04-12T12:12:59.44Z</time></trkpt><trkpt lat="44.5493783" lon="8.0603817"><ele>726.2</ele><time>2026-04-12T12:13:01.44Z</time></trkpt><trkpt lat="44.5493083" lon="8.060245"><ele>726.6</ele><time>2026-04-12T12:13:03.44Z</time></trkpt><trkpt lat="44.5492667" lon="8.06017"><ele>727.0</ele><time>2026-04-12T12:13:04.44Z</time></trkpt><trkpt lat="44.5492217" lon="8.0600833"><ele>727.0</ele><time>2026-04-12T12:13:05.44Z</time></trkpt><trkpt lat="44.5491717" lon="8.0599983"><ele>727.0</ele><time>2026-04-12T12:13:06.44Z</time></trkpt><trkpt lat="44.5491067" lon="8.05992"><ele>727.0</ele><time>2026-04-12T12:13:07.44Z</time></trkpt><trkpt lat="44.5490383" lon="8.0598517"><ele>727.0</ele><time>2026-04-12T12:13:08.44Z</time></trkpt><trkpt lat="44.5489817" lon="8.059785"><ele>727.0</ele><time>2026-04-12T12:13:09.441Z</time></trkpt><trkpt lat="44.5489267" lon="8.0597217"><ele>727.0</ele><time>2026-04-12T12:13:10.44Z</time></trkpt><trkpt lat="44.5488767" lon="8.0596533"><ele>727.0</ele><time>2026-04-12T12:13:11.44Z</time></trkpt><trkpt lat="44.548835" lon="8.0595817"><ele>727.0</ele><time>2026-04-12T12:13:12.44Z</time></trkpt><trkpt lat="44.548795" lon="8.0595017"><ele>727.0</ele><time>2026-04-12T12:13:13.44Z</time></trkpt><trkpt lat="44.5487483" lon="8.0594267"><ele>727.0</ele><time>2026-04-12T12:13:14.44Z</time></trkpt><trkpt lat="44.5486983" lon="8.05935"><ele>727.0</ele><time>2026-04-12T12:13:15.44Z</time></trkpt><trkpt lat="44.5486467" lon="8.0592817"><ele>727.0</ele><time>2026-04-12T12:13:16.44Z</time></trkpt><trkpt lat="44.548605" lon="8.05921"><ele>727.0</ele><time>2026-04-12T12:13:17.44Z</time></trkpt><trkpt lat="44.5485383" lon="8.0590767"><ele>727.0</ele><time>2026-04-12T12:13:19.44Z</time></trkpt><trkpt lat="44.5484733" lon="8.05895"><ele>727.0</ele><time>2026-04-12T12:13:21.44Z</time></trkpt><trkpt lat="44.548405" lon="8.0588433"><ele>727.0</ele><time>2026-04-12T12:13:23.44Z</time></trkpt><trkpt lat="44.5483317" lon="8.0587683"><ele>727.0</ele><time>2026-04-12T12:13:25.441Z</time></trkpt><trkpt lat="44.5482867" lon="8.0586917"><ele>727.0</ele><time>2026-04-12T12:13:27.44Z</time></trkpt><trkpt lat="44.5482483" lon="8.0586067"><ele>727.0</ele><time>2026-04-12T12:13:29.44Z</time></trkpt><trkpt lat="44.5482033" lon="8.0585167"><ele>727.0</ele><time>2026-04-12T12:13:31.44Z</time></trkpt><trkpt lat="44.54816" lon="8.05841"><ele>727.0</ele><time>2026-04-12T12:13:33.44Z</time></trkpt><trkpt lat="44.5481467" lon="8.05829"><ele>727.0</ele><time>2026-04-12T12:13:35.44Z</time></trkpt><trkpt lat="44.5481117" lon="8.05817"><ele>727.0</ele><time>2026-04-12T12:13:37.44Z</time></trkpt><trkpt lat="44.54808" lon="8.0580617"><ele>727.0</ele><time>2026-04-12T12:13:39.44Z</time></trkpt><trkpt lat="44.5480517" lon="8.0579367"><ele>727.0</ele><time>2026-04-12T12:13:41.44Z</time></trkpt><trkpt lat="44.5480217" lon="8.05783"><ele>727.4000000000001</ele><time>2026-04-12T12:13:43.441Z</time></trkpt><trkpt lat="44.5479617" lon="8.05772"><ele>727.8000000000001</ele><time>2026-04-12T12:13:45.44Z</time></trkpt><trkpt lat="44.5479233" lon="8.0575817"><ele>728.2</ele><time>2026-04-12T12:13:47.44Z</time></trkpt><trkpt lat="44.5479017" lon="8.0574383"><ele>728.6</ele><time>2026-04-12T12:13:49.44Z</time></trkpt><trkpt lat="44.5478717" lon="8.0572917"><ele>729.0</ele><time>2026-04-12T12:13:51.44Z</time></trkpt><trkpt lat="44.547835" lon="8.0571383"><ele>729.0</ele><time>2026-04-12T12:13:53.44Z</time></trkpt><trkpt lat="44.5477833" lon="8.0569767"><ele>729.0</ele><time>2026-04-12T12:13:55.44Z</time></trkpt><trkpt lat="44.5477283" lon="8.0568367"><ele>729.0</ele><time>2026-04-12T12:13:57.44Z</time></trkpt><trkpt lat="44.5476733" lon="8.0567367"><ele>729.0</ele><time>2026-04-12T12:13:59.441Z</time></trkpt><trkpt lat="44.547615" lon="8.0566483"><ele>729.0</ele><time>2026-04-12T12:14:02.44Z</time></trkpt><trkpt lat="44.5475483" lon="8.0566517"><ele>729.0</ele><time>2026-04-12T12:14:04.44Z</time></trkpt><trkpt lat="44.5474833" lon="8.0567433"><ele>729.0</ele><time>2026-04-12T12:14:06.44Z</time></trkpt><trkpt lat="44.5474233" lon="8.05685"><ele>729.0</ele><time>2026-04-12T12:14:08.44Z</time></trkpt><trkpt lat="44.5473617" lon="8.0569517"><ele>729.0</ele><time>2026-04-12T12:14:10.44Z</time></trkpt><trkpt lat="44.5473033" lon="8.0570717"><ele>729.0</ele><time>2026-04-12T12:14:12.44Z</time></trkpt><trkpt lat="44.5472467" lon="8.0571933"><ele>729.0</ele><time>2026-04-12T12:14:14.44Z</time></trkpt><trkpt lat="44.5471817" lon="8.05731"><ele>729.0</ele><time>2026-04-12T12:14:16.44Z</time></trkpt><trkpt lat="44.5471233" lon="8.057435"><ele>729.0</ele><time>2026-04-12T12:14:18.44Z</time></trkpt><trkpt lat="44.547065" lon="8.0575667"><ele>729.0</ele><time>2026-04-12T12:14:20.44Z</time></trkpt><trkpt lat="44.5469883" lon="8.0576933"><ele>729.0</ele><time>2026-04-12T12:14:22.44Z</time></trkpt><trkpt lat="44.5469433" lon="8.05776"><ele>727.8333333333334</ele><time>2026-04-12T12:14:23.44Z</time></trkpt><trkpt lat="44.5468667" lon="8.0578983"><ele>726.6666666666666</ele><time>2026-04-12T12:14:25.44Z</time></trkpt><trkpt lat="44.546825" lon="8.0579667"><ele>725.5</ele><time>2026-04-12T12:14:26.44Z</time></trkpt><trkpt lat="44.5467817" lon="8.0580333"><ele>724.3333333333333</ele><time>2026-04-12T12:14:27.44Z</time></trkpt><trkpt lat="44.5467367" lon="8.0581017"><ele>723.1666666666666</ele><time>2026-04-12T12:14:28.44Z</time></trkpt><trkpt lat="44.5466917" lon="8.05817"><ele>722.0</ele><time>2026-04-12T12:14:29.44Z</time></trkpt><trkpt lat="44.546645" lon="8.0582433"><ele>723.5714285714286</ele><time>2026-04-12T12:14:30.44Z</time></trkpt><trkpt lat="44.546595" lon="8.058325"><ele>725.1428571428571</ele><time>2026-04-12T12:14:31.44Z</time></trkpt><trkpt lat="44.5465517" lon="8.0584033"><ele>726.7142857142857</ele><time>2026-04-12T12:14:32.44Z</time></trkpt><trkpt lat="44.5464983" lon="8.0584767"><ele>728.2857142857142</ele><time>2026-04-12T12:14:33.44Z</time></trkpt><trkpt lat="44.5464417" lon="8.058535"><ele>729.8571428571429</ele><time>2026-04-12T12:14:34.44Z</time></trkpt><trkpt lat="44.5463783" lon="8.0585883"><ele>731.4285714285713</ele><time>2026-04-12T12:14:35.44Z</time></trkpt><trkpt lat="44.54632" lon="8.058635"><ele>733.0</ele><time>2026-04-12T12:14:36.44Z</time></trkpt><trkpt lat="44.54622" lon="8.05871"><ele>731.8</ele><time>2026-04-12T12:14:38.44Z</time></trkpt><trkpt lat="44.5461317" lon="8.0587433"><ele>730.5999999999999</ele><time>2026-04-12T12:14:40.44Z</time></trkpt><trkpt lat="44.5460367" lon="8.058675"><ele>729.4000000000001</ele><time>2026-04-12T12:14:42.44Z</time></trkpt><trkpt lat="44.5459367" lon="8.0585783"><ele>728.2</ele><time>2026-04-12T12:14:44.44Z</time></trkpt><trkpt lat="44.5458833" lon="8.0585283"><ele>727.0</ele><time>2026-04-12T12:14:45.44Z</time></trkpt><trkpt lat="44.5457833" lon="8.0584267"><ele>727.0</ele><time>2026-04-12T12:14:47.44Z</time></trkpt><trkpt lat="44.5457283" lon="8.0583767"><ele>727.0</ele><time>2026-04-12T12:14:48.44Z</time></trkpt><trkpt lat="44.5456767" lon="8.0583233"><ele>727.0</ele><time>2026-04-12T12:14:49.44Z</time></trkpt><trkpt lat="44.5455717" lon="8.0582417"><ele>727.0</ele><time>2026-04-12T12:14:51.44Z</time></trkpt><trkpt lat="44.5454733" lon="8.058165"><ele>727.0</ele><time>2026-04-12T12:14:53.44Z</time></trkpt><trkpt lat="44.5453667" lon="8.0580933"><ele>726.3333333333334</ele><time>2026-04-12T12:14:55.44Z</time></trkpt><trkpt lat="44.5453083" lon="8.0580583"><ele>725.6666666666667</ele><time>2026-04-12T12:14:56.44Z</time></trkpt><trkpt lat="44.5451967" lon="8.0579833"><ele>725.0</ele><time>2026-04-12T12:14:58.44Z</time></trkpt><trkpt lat="44.5450783" lon="8.0579217"><ele>724.3333333333334</ele><time>2026-04-12T12:15:00.44Z</time></trkpt><trkpt lat="44.5450167" lon="8.0578917"><ele>723.6666666666666</ele><time>2026-04-12T12:15:01.44Z</time></trkpt><trkpt lat="44.544955" lon="8.05786"><ele>723.0</ele><time>2026-04-12T12:15:02.441Z</time></trkpt><trkpt lat="44.54489" lon="8.0578283"><ele>723.0000000000001</ele><time>2026-04-12T12:15:03.44Z</time></trkpt><trkpt lat="44.5448267" lon="8.0577883"><ele>723.0</ele><time>2026-04-12T12:15:04.44Z</time></trkpt><trkpt lat="44.5447683" lon="8.0577467"><ele>723.0</ele><time>2026-04-12T12:15:05.44Z</time></trkpt><trkpt lat="44.5447083" lon="8.057705"><ele>723.0</ele><time>2026-04-12T12:15:06.44Z</time></trkpt><trkpt lat="44.5446533" lon="8.0576583"><ele>723.0</ele><time>2026-04-12T12:15:07.44Z</time></trkpt><trkpt lat="44.5445933" lon="8.057605"><ele>723.0000000000001</ele><time>2026-04-12T12:15:08.44Z</time></trkpt><trkpt lat="44.54454" lon="8.0575467"><ele>723.0</ele><time>2026-04-12T12:15:09.44Z</time></trkpt><trkpt lat="44.5444833" lon="8.0574883"><ele>722.7142857142858</ele><time>2026-04-12T12:15:10.44Z</time></trkpt><trkpt lat="44.54443" lon="8.0574333"><ele>722.4285714285714</ele><time>2026-04-12T12:15:11.44Z</time></trkpt><trkpt lat="44.5443767" lon="8.0573817"><ele>722.1428571428571</ele><time>2026-04-12T12:15:12.44Z</time></trkpt><trkpt lat="44.5443167" lon="8.0573333"><ele>721.8571428571429</ele><time>2026-04-12T12:15:13.44Z</time></trkpt><trkpt lat="44.5442517" lon="8.0572883"><ele>721.5714285714286</ele><time>2026-04-12T12:15:14.44Z</time></trkpt><trkpt lat="44.5441867" lon="8.0572467"><ele>721.2857142857143</ele><time>2026-04-12T12:15:15.44Z</time></trkpt><trkpt lat="44.5441217" lon="8.0572167"><ele>721.0</ele><time>2026-04-12T12:15:16.441Z</time></trkpt><trkpt lat="44.5440517" lon="8.0571967"><ele>721.0</ele><time>2026-04-12T12:15:17.44Z</time></trkpt><trkpt lat="44.543985" lon="8.0571883"><ele>721.0</ele><time>2026-04-12T12:15:18.44Z</time></trkpt><trkpt lat="44.543915" lon="8.057185"><ele>721.0</ele><time>2026-04-12T12:15:19.44Z</time></trkpt><trkpt lat="44.543845" lon="8.0571867"><ele>721.0</ele><time>2026-04-12T12:15:20.44Z</time></trkpt><trkpt lat="44.5437717" lon="8.057185"><ele>721.0</ele><time>2026-04-12T12:15:21.44Z</time></trkpt><trkpt lat="44.5437" lon="8.0571867"><ele>721.0</ele><time>2026-04-12T12:15:22.44Z</time></trkpt><trkpt lat="44.543625" lon="8.057195"><ele>721.0</ele><time>2026-04-12T12:15:23.44Z</time></trkpt><trkpt lat="44.5435483" lon="8.0572"><ele>721.0</ele><time>2026-04-12T12:15:24.44Z</time></trkpt><trkpt lat="44.5434683" lon="8.0572017"><ele>721.0</ele><time>2026-04-12T12:15:25.44Z</time></trkpt><trkpt lat="44.5433917" lon="8.057205"><ele>721.0</ele><time>2026-04-12T12:15:26.44Z</time></trkpt><trkpt lat="44.5433133" lon="8.0572017"><ele>721.0</ele><time>2026-04-12T12:15:27.44Z</time></trkpt><trkpt lat="44.5432317" lon="8.057195"><ele>721.0</ele><time>2026-04-12T12:15:28.44Z</time></trkpt><trkpt lat="44.5431533" lon="8.057185"><ele>721.0</ele><time>2026-04-12T12:15:29.441Z</time></trkpt><trkpt lat="44.5430733" lon="8.0571683"><ele>721.0</ele><time>2026-04-12T12:15:30.44Z</time></trkpt><trkpt lat="44.5429983" lon="8.0571517"><ele>721.0</ele><time>2026-04-12T12:15:31.44Z</time></trkpt><trkpt lat="44.54292" lon="8.0571283"><ele>721.0</ele><time>2026-04-12T12:15:32.44Z</time></trkpt><trkpt lat="44.542845" lon="8.0571"><ele>721.0</ele><time>2026-04-12T12:15:33.44Z</time></trkpt><trkpt lat="44.5427733" lon="8.05707"><ele>721.0</ele><time>2026-04-12T12:15:34.441Z</time></trkpt><trkpt lat="44.5427017" lon="8.0570367"><ele>721.0</ele><time>2026-04-12T12:15:35.44Z</time></trkpt><trkpt lat="44.54263" lon="8.057"><ele>722.1666666666667</ele><time>2026-04-12T12:15:36.44Z</time></trkpt><trkpt lat="44.5425533" lon="8.0569583"><ele>723.3333333333334</ele><time>2026-04-12T12:15:37.44Z</time></trkpt><trkpt lat="44.54248" lon="8.056915"><ele>724.5</ele><time>2026-04-12T12:15:38.44Z</time></trkpt><trkpt lat="44.5424117" lon="8.0568683"><ele>725.6666666666666</ele><time>2026-04-12T12:15:39.44Z</time></trkpt><trkpt lat="44.5423417" lon="8.056815"><ele>726.8333333333333</ele><time>2026-04-12T12:15:40.44Z</time></trkpt><trkpt lat="44.542275" lon="8.056755"><ele>728.0</ele><time>2026-04-12T12:15:41.44Z</time></trkpt><trkpt lat="44.54221" lon="8.0566933"><ele>728.0</ele><time>2026-04-12T12:15:42.44Z</time></trkpt><trkpt lat="44.5421467" lon="8.05663"><ele>728.0</ele><time>2026-04-12T12:15:43.44Z</time></trkpt><trkpt lat="44.54208" lon="8.05657"><ele>728.0</ele><time>2026-04-12T12:15:44.44Z</time></trkpt><trkpt lat="44.5420133" lon="8.05651"><ele>728.0</ele><time>2026-04-12T12:15:45.44Z</time></trkpt><trkpt lat="44.5419517" lon="8.0564483"><ele>728.0</ele><time>2026-04-12T12:15:46.44Z</time></trkpt><trkpt lat="44.5418833" lon="8.0563867"><ele>728.0</ele><time>2026-04-12T12:15:47.44Z</time></trkpt><trkpt lat="44.5418183" lon="8.0563267"><ele>727.7142857142857</ele><time>2026-04-12T12:15:48.44Z</time></trkpt><trkpt lat="44.54176" lon="8.0562617"><ele>727.4285714285714</ele><time>2026-04-12T12:15:49.44Z</time></trkpt><trkpt lat="44.5417017" lon="8.056195"><ele>727.1428571428571</ele><time>2026-04-12T12:15:50.44Z</time></trkpt><trkpt lat="44.541645" lon="8.0561233"><ele>726.8571428571429</ele><time>2026-04-12T12:15:51.44Z</time></trkpt><trkpt lat="44.5415967" lon="8.0560483"><ele>726.5714285714286</ele><time>2026-04-12T12:15:52.441Z</time></trkpt><trkpt lat="44.5415483" lon="8.0559683"><ele>726.2857142857142</ele><time>2026-04-12T12:15:53.44Z</time></trkpt><trkpt lat="44.5415017" lon="8.0558867"><ele>726.0</ele><time>2026-04-12T12:15:54.44Z</time></trkpt><trkpt lat="44.5414533" lon="8.055805"><ele>726.3333333333334</ele><time>2026-04-12T12:15:55.44Z</time></trkpt><trkpt lat="44.5414133" lon="8.05572"><ele>726.6666666666666</ele><time>2026-04-12T12:15:56.44Z</time></trkpt><trkpt lat="44.5413717" lon="8.0556267"><ele>727.0</ele><time>2026-04-12T12:15:57.44Z</time></trkpt><trkpt lat="44.5413283" lon="8.055535"><ele>727.3333333333333</ele><time>2026-04-12T12:15:58.44Z</time></trkpt><trkpt lat="44.5412817" lon="8.055445"><ele>727.6666666666666</ele><time>2026-04-12T12:15:59.44Z</time></trkpt><trkpt lat="44.5412383" lon="8.05536"><ele>728.0</ele><time>2026-04-12T12:16:00.44Z</time></trkpt><trkpt lat="44.5411933" lon="8.0552683"><ele>728.0</ele><time>2026-04-12T12:16:01.44Z</time></trkpt><trkpt lat="44.5411533" lon="8.0551817"><ele>728.0</ele><time>2026-04-12T12:16:02.44Z</time></trkpt><trkpt lat="44.5411117" lon="8.0550867"><ele>728.0</ele><time>2026-04-12T12:16:03.44Z</time></trkpt><trkpt lat="44.54107" lon="8.054995"><ele>728.0</ele><time>2026-04-12T12:16:04.44Z</time></trkpt><trkpt lat="44.5410317" lon="8.0549083"><ele>728.0</ele><time>2026-04-12T12:16:05.44Z</time></trkpt><trkpt lat="44.5409933" lon="8.0548217"><ele>728.0</ele><time>2026-04-12T12:16:06.44Z</time></trkpt><trkpt lat="44.5409483" lon="8.0547367"><ele>726.8571428571429</ele><time>2026-04-12T12:16:07.44Z</time></trkpt><trkpt lat="44.5409017" lon="8.0546483"><ele>725.7142857142858</ele><time>2026-04-12T12:16:08.44Z</time></trkpt><trkpt lat="44.5408583" lon="8.0545683"><ele>724.5714285714286</ele><time>2026-04-12T12:16:09.441Z</time></trkpt><trkpt lat="44.5408133" lon="8.0544917"><ele>723.4285714285714</ele><time>2026-04-12T12:16:10.44Z</time></trkpt><trkpt lat="44.54077" lon="8.054425"><ele>722.2857142857143</ele><time>2026-04-12T12:16:11.44Z</time></trkpt><trkpt lat="44.5407183" lon="8.0543633"><ele>721.1428571428571</ele><time>2026-04-12T12:16:12.44Z</time></trkpt><trkpt lat="44.540665" lon="8.0543033"><ele>720.0</ele><time>2026-04-12T12:16:13.441Z</time></trkpt><trkpt lat="44.5405733" lon="8.0541967"><ele>721.0</ele><time>2026-04-12T12:16:15.44Z</time></trkpt><trkpt lat="44.5404783" lon="8.05412"><ele>722.0</ele><time>2026-04-12T12:16:17.44Z</time></trkpt><trkpt lat="44.54037" lon="8.054085"><ele>723.0</ele><time>2026-04-12T12:16:19.44Z</time></trkpt><trkpt lat="44.540255" lon="8.0540467"><ele>724.0</ele><time>2026-04-12T12:16:21.44Z</time></trkpt><trkpt lat="44.5401517" lon="8.0539717"><ele>724.0</ele><time>2026-04-12T12:16:23.44Z</time></trkpt><trkpt lat="44.5400533" lon="8.0538883"><ele>724.0</ele><time>2026-04-12T12:16:25.44Z</time></trkpt><trkpt lat="44.53995" lon="8.053825"><ele>724.0</ele><time>2026-04-12T12:16:27.44Z</time></trkpt><trkpt lat="44.5398633" lon="8.0538383"><ele>724.0</ele><time>2026-04-12T12:16:29.44Z</time></trkpt><trkpt lat="44.53982" lon="8.0539067"><ele>724.0</ele><time>2026-04-12T12:16:31.44Z</time></trkpt><trkpt lat="44.539765" lon="8.0539867"><ele>724.0</ele><time>2026-04-12T12:16:34.44Z</time></trkpt><trkpt lat="44.5397183" lon="8.0540617"><ele>724.0</ele><time>2026-04-12T12:16:37.44Z</time></trkpt><trkpt lat="44.5396733" lon="8.0541267"><ele>724.0</ele><time>2026-04-12T12:16:40.44Z</time></trkpt><trkpt lat="44.5396033" lon="8.0541917"><ele>724.0</ele><time>2026-04-12T12:16:43.44Z</time></trkpt><trkpt lat="44.5395283" lon="8.0541767"><ele>724.0</ele><time>2026-04-12T12:16:46.44Z</time></trkpt><trkpt lat="44.5394617" lon="8.0541367"><ele>724.0</ele><time>2026-04-12T12:16:49.44Z</time></trkpt><trkpt lat="44.5394017" lon="8.0540967"><ele>724.0</ele><time>2026-04-12T12:16:52.44Z</time></trkpt><trkpt lat="44.5393417" lon="8.0540683"><ele>726.3333333333334</ele><time>2026-04-12T12:16:55.441Z</time></trkpt><trkpt lat="44.5392667" lon="8.0540183"><ele>728.6666666666667</ele><time>2026-04-12T12:16:59.441Z</time></trkpt><trkpt lat="44.5391967" lon="8.0539917"><ele>731.0</ele><time>2026-04-12T12:17:02.44Z</time></trkpt><trkpt lat="44.5391317" lon="8.053955"><ele>733.3333333333334</ele><time>2026-04-12T12:17:05.44Z</time></trkpt><trkpt lat="44.5390667" lon="8.0539183"><ele>735.6666666666666</ele><time>2026-04-12T12:17:08.44Z</time></trkpt><trkpt lat="44.5389967" lon="8.0538717"><ele>738.0</ele><time>2026-04-12T12:17:11.44Z</time></trkpt><trkpt lat="44.5389567" lon="8.0537717"><ele>738.0</ele><time>2026-04-12T12:17:15.44Z</time></trkpt><trkpt lat="44.5389117" lon="8.0537017"><ele>738.0</ele><time>2026-04-12T12:17:18.44Z</time></trkpt><trkpt lat="44.5388667" lon="8.0536167"><ele>738.0</ele><time>2026-04-12T12:17:21.44Z</time></trkpt><trkpt lat="44.5388133" lon="8.05354"><ele>738.0</ele><time>2026-04-12T12:17:24.44Z</time></trkpt><trkpt lat="44.5387467" lon="8.0534617"><ele>738.0</ele><time>2026-04-12T12:17:27.44Z</time></trkpt><trkpt lat="44.5386917" lon="8.0534"><ele>738.0</ele><time>2026-04-12T12:17:29.44Z</time></trkpt><trkpt lat="44.5386283" lon="8.0533217"><ele>740.3333333333334</ele><time>2026-04-12T12:17:32.44Z</time></trkpt><trkpt lat="44.538585" lon="8.0532483"><ele>742.6666666666666</ele><time>2026-04-12T12:17:35.44Z</time></trkpt><trkpt lat="44.53855" lon="8.0531617"><ele>745.0</ele><time>2026-04-12T12:17:38.44Z</time></trkpt><trkpt lat="44.53849" lon="8.0530817"><ele>747.3333333333333</ele><time>2026-04-12T12:17:41.44Z</time></trkpt><trkpt lat="44.5384083" lon="8.0530217"><ele>749.6666666666666</ele><time>2026-04-12T12:17:44.44Z</time></trkpt><trkpt lat="44.5383367" lon="8.0529783"><ele>752.0</ele><time>2026-04-12T12:17:47.44Z</time></trkpt><trkpt lat="44.53826" lon="8.0529417"><ele>752.0</ele><time>2026-04-12T12:17:51.44Z</time></trkpt><trkpt lat="44.5382017" lon="8.0528967"><ele>752.0</ele><time>2026-04-12T12:17:54.44Z</time></trkpt><trkpt lat="44.538135" lon="8.052815"><ele>752.0</ele><time>2026-04-12T12:17:56.44Z</time></trkpt><trkpt lat="44.5380783" lon="8.05269"><ele>752.0</ele><time>2026-04-12T12:17:58.44Z</time></trkpt><trkpt lat="44.5380467" lon="8.0526067"><ele>752.0</ele><time>2026-04-12T12:17:59.44Z</time></trkpt><trkpt lat="44.53803" lon="8.0525017"><ele>752.0</ele><time>2026-04-12T12:18:00.44Z</time></trkpt><trkpt lat="44.53801" lon="8.052405"><ele>752.2857142857142</ele><time>2026-04-12T12:18:01.44Z</time></trkpt><trkpt lat="44.5379867" lon="8.0523117"><ele>752.5714285714286</ele><time>2026-04-12T12:18:02.44Z</time></trkpt><trkpt lat="44.5379733" lon="8.0522117"><ele>752.8571428571429</ele><time>2026-04-12T12:18:03.441Z</time></trkpt><trkpt lat="44.53797" lon="8.0521183"><ele>753.1428571428571</ele><time>2026-04-12T12:18:04.44Z</time></trkpt><trkpt lat="44.5379667" lon="8.05201"><ele>753.4285714285714</ele><time>2026-04-12T12:18:05.44Z</time></trkpt><trkpt lat="44.5379683" lon="8.051905"><ele>753.7142857142857</ele><time>2026-04-12T12:18:06.44Z</time></trkpt><trkpt lat="44.5379733" lon="8.0518067"><ele>754.0</ele><time>2026-04-12T12:18:07.44Z</time></trkpt><trkpt lat="44.537975" lon="8.0516917"><ele>754.8333333333334</ele><time>2026-04-12T12:18:08.441Z</time></trkpt><trkpt lat="44.5379833" lon="8.05158"><ele>755.6666666666667</ele><time>2026-04-12T12:18:09.44Z</time></trkpt><trkpt lat="44.5379883" lon="8.0514667"><ele>756.5</ele><time>2026-04-12T12:18:10.44Z</time></trkpt><trkpt lat="44.5379867" lon="8.0513433"><ele>757.3333333333334</ele><time>2026-04-12T12:18:11.44Z</time></trkpt><trkpt lat="44.5379783" lon="8.0512217"><ele>758.1666666666666</ele><time>2026-04-12T12:18:12.44Z</time></trkpt><trkpt lat="44.5379683" lon="8.0511133"><ele>759.0</ele><time>2026-04-12T12:18:13.44Z</time></trkpt><trkpt lat="44.5379567" lon="8.0510017"><ele>759.0</ele><time>2026-04-12T12:18:14.44Z</time></trkpt><trkpt lat="44.53795" lon="8.05088"><ele>759.0</ele><time>2026-04-12T12:18:15.44Z</time></trkpt><trkpt lat="44.53795" lon="8.0507583"><ele>759.0</ele><time>2026-04-12T12:18:16.44Z</time></trkpt><trkpt lat="44.5379483" lon="8.0506383"><ele>759.0</ele><time>2026-04-12T12:18:17.44Z</time></trkpt><trkpt lat="44.5379483" lon="8.0505233"><ele>759.0</ele><time>2026-04-12T12:18:18.44Z</time></trkpt><trkpt lat="44.53794" lon="8.0504183"><ele>759.0</ele><time>2026-04-12T12:18:19.44Z</time></trkpt><trkpt lat="44.5379233" lon="8.0503267"><ele>758.8571428571429</ele><time>2026-04-12T12:18:20.44Z</time></trkpt><trkpt lat="44.5378967" lon="8.050235"><ele>758.7142857142857</ele><time>2026-04-12T12:18:21.44Z</time></trkpt><trkpt lat="44.537865" lon="8.0501583"><ele>758.5714285714287</ele><time>2026-04-12T12:18:22.44Z</time></trkpt><trkpt lat="44.5378233" lon="8.05009"><ele>758.4285714285714</ele><time>2026-04-12T12:18:23.44Z</time></trkpt><trkpt lat="44.5377717" lon="8.05003"><ele>758.2857142857143</ele><time>2026-04-12T12:18:24.44Z</time></trkpt><trkpt lat="44.537715" lon="8.04997"><ele>758.1428571428572</ele><time>2026-04-12T12:18:25.44Z</time></trkpt><trkpt lat="44.53766" lon="8.0499267"><ele>758.0</ele><time>2026-04-12T12:18:26.44Z</time></trkpt><trkpt lat="44.537555" lon="8.0498333"><ele>753.1666666666666</ele><time>2026-04-12T12:18:28.44Z</time></trkpt><trkpt lat="44.5374633" lon="8.0497517"><ele>748.3333333333333</ele><time>2026-04-12T12:18:30.44Z</time></trkpt><trkpt lat="44.5373933" lon="8.0496667"><ele>743.5</ele><time>2026-04-12T12:18:32.44Z</time></trkpt><trkpt lat="44.5373383" lon="8.0495833"><ele>738.6666666666666</ele><time>2026-04-12T12:18:34.44Z</time></trkpt><trkpt lat="44.5373033" lon="8.0494817"><ele>733.8333333333334</ele><time>2026-04-12T12:18:36.44Z</time></trkpt><trkpt lat="44.53729" lon="8.0493783"><ele>729.0</ele><time>2026-04-12T12:18:38.44Z</time></trkpt><trkpt lat="44.53731" lon="8.0492383"><ele>729.0</ele><time>2026-04-12T12:18:40.44Z</time></trkpt><trkpt lat="44.53732" lon="8.0491367"><ele>729.0</ele><time>2026-04-12T12:18:41.44Z</time></trkpt><trkpt lat="44.5373367" lon="8.0490117"><ele>729.0</ele><time>2026-04-12T12:18:42.44Z</time></trkpt><trkpt lat="44.5373583" lon="8.048885"><ele>729.0</ele><time>2026-04-12T12:18:43.44Z</time></trkpt><trkpt lat="44.5373867" lon="8.0487617"><ele>729.0</ele><time>2026-04-12T12:18:44.44Z</time></trkpt><trkpt lat="44.53741" lon="8.0486283"><ele>729.0</ele><time>2026-04-12T12:18:45.44Z</time></trkpt><trkpt lat="44.5374417" lon="8.0484917"><ele>726.8000000000001</ele><time>2026-04-12T12:18:46.44Z</time></trkpt><trkpt lat="44.5374917" lon="8.0483633"><ele>724.6</ele><time>2026-04-12T12:18:47.44Z</time></trkpt><trkpt lat="44.5375417" lon="8.0482267"><ele>722.4</ele><time>2026-04-12T12:18:48.44Z</time></trkpt><trkpt lat="44.537595" lon="8.0480933"><ele>720.2</ele><time>2026-04-12T12:18:49.44Z</time></trkpt><trkpt lat="44.537655" lon="8.0479717"><ele>718.0</ele><time>2026-04-12T12:18:50.44Z</time></trkpt><trkpt lat="44.5377133" lon="8.04786"><ele>717.8</ele><time>2026-04-12T12:18:51.44Z</time></trkpt><trkpt lat="44.5377783" lon="8.04775"><ele>717.5999999999999</ele><time>2026-04-12T12:18:52.44Z</time></trkpt><trkpt lat="44.537855" lon="8.0476483"><ele>717.4000000000001</ele><time>2026-04-12T12:18:53.44Z</time></trkpt><trkpt lat="44.537945" lon="8.0475533"><ele>717.2</ele><time>2026-04-12T12:18:54.44Z</time></trkpt><trkpt lat="44.5380217" lon="8.047465"><ele>717.0</ele><time>2026-04-12T12:18:55.44Z</time></trkpt><trkpt lat="44.5380933" lon="8.047365"><ele>717.0</ele><time>2026-04-12T12:18:56.44Z</time></trkpt><trkpt lat="44.5381467" lon="8.047265"><ele>717.0</ele><time>2026-04-12T12:18:57.44Z</time></trkpt><trkpt lat="44.5381983" lon="8.0471517"><ele>717.0</ele><time>2026-04-12T12:18:58.44Z</time></trkpt><trkpt lat="44.5382433" lon="8.0470467"><ele>717.0</ele><time>2026-04-12T12:18:59.44Z</time></trkpt><trkpt lat="44.538275" lon="8.04695"><ele>717.0</ele><time>2026-04-12T12:19:00.44Z</time></trkpt><trkpt lat="44.538295" lon="8.04685"><ele>717.0</ele><time>2026-04-12T12:19:01.44Z</time></trkpt><trkpt lat="44.538305" lon="8.04673"><ele>717.0</ele><time>2026-04-12T12:19:02.44Z</time></trkpt><trkpt lat="44.538315" lon="8.04663"><ele>717.0</ele><time>2026-04-12T12:19:03.44Z</time></trkpt><trkpt lat="44.538315" lon="8.0465217"><ele>717.0</ele><time>2026-04-12T12:19:04.44Z</time></trkpt><trkpt lat="44.5383183" lon="8.0464183"><ele>717.0</ele><time>2026-04-12T12:19:05.44Z</time></trkpt><trkpt lat="44.5383183" lon="8.0463183"><ele>717.0</ele><time>2026-04-12T12:19:06.44Z</time></trkpt><trkpt lat="44.5383317" lon="8.0461783"><ele>717.0</ele><time>2026-04-12T12:19:08.44Z</time></trkpt><trkpt lat="44.5383383" lon="8.04608"><ele>715.8333333333334</ele><time>2026-04-12T12:19:10.44Z</time></trkpt><trkpt lat="44.5383033" lon="8.0459833"><ele>714.6666666666666</ele><time>2026-04-12T12:19:12.44Z</time></trkpt><trkpt lat="44.5382083" lon="8.0459"><ele>713.5</ele><time>2026-04-12T12:19:14.44Z</time></trkpt><trkpt lat="44.5381533" lon="8.045855"><ele>712.3333333333333</ele><time>2026-04-12T12:19:15.44Z</time></trkpt><trkpt lat="44.5380967" lon="8.0458117"><ele>711.1666666666666</ele><time>2026-04-12T12:19:16.44Z</time></trkpt><trkpt lat="44.5380383" lon="8.0457683"><ele>710.0</ele><time>2026-04-12T12:19:17.44Z</time></trkpt><trkpt lat="44.537975" lon="8.045725"><ele>709.8571428571429</ele><time>2026-04-12T12:19:18.44Z</time></trkpt><trkpt lat="44.5379133" lon="8.0456783"><ele>709.7142857142858</ele><time>2026-04-12T12:19:19.44Z</time></trkpt><trkpt lat="44.5378483" lon="8.0456333"><ele>709.5714285714287</ele><time>2026-04-12T12:19:20.44Z</time></trkpt><trkpt lat="44.5377817" lon="8.0455867"><ele>709.4285714285714</ele><time>2026-04-12T12:19:21.44Z</time></trkpt><trkpt lat="44.5377183" lon="8.0455433"><ele>709.2857142857143</ele><time>2026-04-12T12:19:22.44Z</time></trkpt><trkpt lat="44.5376533" lon="8.0455017"><ele>709.1428571428572</ele><time>2026-04-12T12:19:23.44Z</time></trkpt><trkpt lat="44.5375867" lon="8.04546"><ele>709.0</ele><time>2026-04-12T12:19:24.44Z</time></trkpt><trkpt lat="44.53752" lon="8.0454183"><ele>709.0</ele><time>2026-04-12T12:19:25.44Z</time></trkpt><trkpt lat="44.5374567" lon="8.045375"><ele>709.0</ele><time>2026-04-12T12:19:26.44Z</time></trkpt><trkpt lat="44.5373983" lon="8.0453367"><ele>709.0</ele><time>2026-04-12T12:19:27.44Z</time></trkpt><trkpt lat="44.53734" lon="8.0453"><ele>709.0</ele><time>2026-04-12T12:19:28.44Z</time></trkpt><trkpt lat="44.5372783" lon="8.0452633"><ele>709.0</ele><time>2026-04-12T12:19:29.44Z</time></trkpt><trkpt lat="44.5372183" lon="8.0452333"><ele>709.0</ele><time>2026-04-12T12:19:30.44Z</time></trkpt><trkpt lat="44.5371" lon="8.0451833"><ele>710.4000000000001</ele><time>2026-04-12T12:19:32.44Z</time></trkpt><trkpt lat="44.53698" lon="8.0451467"><ele>711.8</ele><time>2026-04-12T12:19:34.44Z</time></trkpt><trkpt lat="44.53686" lon="8.0451283"><ele>713.2</ele><time>2026-04-12T12:19:36.44Z</time></trkpt><trkpt lat="44.536735" lon="8.0451183"><ele>714.5999999999999</ele><time>2026-04-12T12:19:38.44Z</time></trkpt><trkpt lat="44.5366717" lon="8.04512"><ele>716.0</ele><time>2026-04-12T12:19:39.44Z</time></trkpt><trkpt lat="44.5366083" lon="8.04513"><ele>716.0</ele><time>2026-04-12T12:19:40.44Z</time></trkpt><trkpt lat="44.53649" lon="8.0451317"><ele>716.0</ele><time>2026-04-12T12:19:42.44Z</time></trkpt><trkpt lat="44.5364233" lon="8.0451367"><ele>716.0</ele><time>2026-04-12T12:19:43.44Z</time></trkpt><trkpt lat="44.5363117" lon="8.0451517"><ele>716.0</ele><time>2026-04-12T12:19:45.44Z</time></trkpt><trkpt lat="44.5362" lon="8.0451683"><ele>716.0</ele><time>2026-04-12T12:19:47.44Z</time></trkpt><trkpt lat="44.536075" lon="8.0451833"><ele>718.5</ele><time>2026-04-12T12:19:49.44Z</time></trkpt><trkpt lat="44.5359483" lon="8.0451933"><ele>721.0</ele><time>2026-04-12T12:19:51.44Z</time></trkpt><trkpt lat="44.5358367" lon="8.0451817"><ele>723.5</ele><time>2026-04-12T12:19:53.44Z</time></trkpt><trkpt lat="44.5357267" lon="8.0451933"><ele>726.0</ele><time>2026-04-12T12:19:55.44Z</time></trkpt><trkpt lat="44.5356167" lon="8.04521"><ele>726.0</ele><time>2026-04-12T12:19:57.44Z</time></trkpt><trkpt lat="44.5355133" lon="8.045245"><ele>726.0</ele><time>2026-04-12T12:19:59.44Z</time></trkpt><trkpt lat="44.5354117" lon="8.04528"><ele>726.0</ele><time>2026-04-12T12:20:01.44Z</time></trkpt><trkpt lat="44.53531" lon="8.0453217"><ele>726.0</ele><time>2026-04-12T12:20:03.44Z</time></trkpt><trkpt lat="44.5352067" lon="8.0453583"><ele>726.0</ele><time>2026-04-12T12:20:05.44Z</time></trkpt><trkpt lat="44.5351067" lon="8.0454017"><ele>728.1999999999999</ele><time>2026-04-12T12:20:07.44Z</time></trkpt><trkpt lat="44.5350167" lon="8.0454467"><ele>730.4</ele><time>2026-04-12T12:20:09.44Z</time></trkpt><trkpt lat="44.5349117" lon="8.0455"><ele>732.6</ele><time>2026-04-12T12:20:11.44Z</time></trkpt><trkpt lat="44.5348117" lon="8.0455533"><ele>734.8</ele><time>2026-04-12T12:20:13.44Z</time></trkpt><trkpt lat="44.5347083" lon="8.0456033"><ele>737.0</ele><time>2026-04-12T12:20:15.44Z</time></trkpt><trkpt lat="44.5346467" lon="8.0456333"><ele>738.75</ele><time>2026-04-12T12:20:16.44Z</time></trkpt><trkpt lat="44.5345267" lon="8.045685"><ele>740.5</ele><time>2026-04-12T12:20:18.44Z</time></trkpt><trkpt lat="44.5344083" lon="8.0457233"><ele>742.25</ele><time>2026-04-12T12:20:20.44Z</time></trkpt><trkpt lat="44.5343067" lon="8.0457783"><ele>744.0</ele><time>2026-04-12T12:20:22.44Z</time></trkpt><trkpt lat="44.5342067" lon="8.0458217"><ele>741.0</ele><time>2026-04-12T12:20:24.44Z</time></trkpt><trkpt lat="44.5341083" lon="8.0458817"><ele>738.0</ele><time>2026-04-12T12:20:26.44Z</time></trkpt><trkpt lat="44.5340083" lon="8.0459383"><ele>735.0</ele><time>2026-04-12T12:20:28.441Z</time></trkpt><trkpt lat="44.5339083" lon="8.046005"><ele>732.0</ele><time>2026-04-12T12:20:30.44Z</time></trkpt><trkpt lat="44.5338233" lon="8.0460533"><ele>729.0</ele><time>2026-04-12T12:20:32.44Z</time></trkpt><trkpt lat="44.5337417" lon="8.0461083"><ele>730.6</ele><time>2026-04-12T12:20:34.44Z</time></trkpt><trkpt lat="44.5336417" lon="8.0461267"><ele>732.2</ele><time>2026-04-12T12:20:36.44Z</time></trkpt><trkpt lat="44.5335467" lon="8.0461033"><ele>733.8000000000001</ele><time>2026-04-12T12:20:38.44Z</time></trkpt><trkpt lat="44.5334533" lon="8.046105"><ele>735.4000000000001</ele><time>2026-04-12T12:20:40.44Z</time></trkpt><trkpt lat="44.5333617" lon="8.0461067"><ele>737.0</ele><time>2026-04-12T12:20:42.44Z</time></trkpt><trkpt lat="44.53329" lon="8.0461367"><ele>737.0</ele><time>2026-04-12T12:20:44.44Z</time></trkpt><trkpt lat="44.5332083" lon="8.046185"><ele>737.0</ele><time>2026-04-12T12:20:47.44Z</time></trkpt><trkpt lat="44.53313" lon="8.0462233"><ele>737.0</ele><time>2026-04-12T12:20:50.44Z</time></trkpt><trkpt lat="44.5330517" lon="8.0462683"><ele>737.0</ele><time>2026-04-12T12:20:53.44Z</time></trkpt><trkpt lat="44.532965" lon="8.0462933"><ele>737.0</ele><time>2026-04-12T12:20:56.44Z</time></trkpt><trkpt lat="44.5328883" lon="8.0463317"><ele>737.0</ele><time>2026-04-12T12:20:59.44Z</time></trkpt><trkpt lat="44.5328017" lon="8.0463167"><ele>737.0</ele><time>2026-04-12T12:21:02.441Z</time></trkpt><trkpt lat="44.5327983" lon="8.0462017"><ele>737.0</ele><time>2026-04-12T12:21:05.44Z</time></trkpt><trkpt lat="44.5328467" lon="8.0461083"><ele>737.0</ele><time>2026-04-12T12:21:08.44Z</time></trkpt><trkpt lat="44.5329017" lon="8.0460383"><ele>737.0</ele><time>2026-04-12T12:21:11.44Z</time></trkpt><trkpt lat="44.532955" lon="8.04599"><ele>737.0</ele><time>2026-04-12T12:21:13.44Z</time></trkpt><trkpt lat="44.53302" lon="8.0459017"><ele>737.0</ele><time>2026-04-12T12:21:16.44Z</time></trkpt><trkpt lat="44.53307" lon="8.0458333"><ele>736.8333333333333</ele><time>2026-04-12T12:21:18.44Z</time></trkpt><trkpt lat="44.5331383" lon="8.0457483"><ele>736.6666666666666</ele><time>2026-04-12T12:21:21.44Z</time></trkpt><trkpt lat="44.533195" lon="8.045695"><ele>736.5</ele><time>2026-04-12T12:21:23.44Z</time></trkpt><trkpt lat="44.53325" lon="8.0456483"><ele>736.3333333333334</ele><time>2026-04-12T12:21:25.44Z</time></trkpt><trkpt lat="44.5333283" lon="8.0455767"><ele>736.1666666666667</ele><time>2026-04-12T12:21:28.441Z</time></trkpt><trkpt lat="44.5333967" lon="8.0455267"><ele>736.0</ele><time>2026-04-12T12:21:30.44Z</time></trkpt><trkpt lat="44.53345" lon="8.045465"><ele>736.0</ele><time>2026-04-12T12:21:32.44Z</time></trkpt><trkpt lat="44.533505" lon="8.04541"><ele>736.0</ele><time>2026-04-12T12:21:34.44Z</time></trkpt><trkpt lat="44.5335583" lon="8.04536"><ele>736.0</ele><time>2026-04-12T12:21:36.44Z</time></trkpt><trkpt lat="44.5336367" lon="8.045305"><ele>736.0</ele><time>2026-04-12T12:21:39.44Z</time></trkpt><trkpt lat="44.533715" lon="8.0452433"><ele>736.0</ele><time>2026-04-12T12:21:42.44Z</time></trkpt><trkpt lat="44.5337833" lon="8.04518"><ele>736.0</ele><time>2026-04-12T12:21:45.44Z</time></trkpt><trkpt lat="44.533835" lon="8.0451083"><ele>737.3333333333334</ele><time>2026-04-12T12:21:47.44Z</time></trkpt><trkpt lat="44.53388" lon="8.0450267"><ele>738.6666666666667</ele><time>2026-04-12T12:21:49.44Z</time></trkpt><trkpt lat="44.5339167" lon="8.0449483"><ele>740.0</ele><time>2026-04-12T12:21:51.44Z</time></trkpt><trkpt lat="44.5339633" lon="8.0448533"><ele>741.3333333333334</ele><time>2026-04-12T12:21:53.44Z</time></trkpt><trkpt lat="44.53401" lon="8.044755"><ele>742.6666666666666</ele><time>2026-04-12T12:21:55.44Z</time></trkpt><trkpt lat="44.53405" lon="8.044665"><ele>744.0</ele><time>2026-04-12T12:21:57.44Z</time></trkpt><trkpt lat="44.5340967" lon="8.0445683"><ele>743.6666666666666</ele><time>2026-04-12T12:21:59.44Z</time></trkpt><trkpt lat="44.534145" lon="8.0444933"><ele>743.3333333333334</ele><time>2026-04-12T12:22:01.44Z</time></trkpt><trkpt lat="44.53418" lon="8.0444033"><ele>743.0</ele><time>2026-04-12T12:22:03.44Z</time></trkpt><trkpt lat="44.534215" lon="8.04431"><ele>742.6666666666667</ele><time>2026-04-12T12:22:05.44Z</time></trkpt><trkpt lat="44.5342433" lon="8.044215"><ele>742.3333333333334</ele><time>2026-04-12T12:22:07.44Z</time></trkpt><trkpt lat="44.5342817" lon="8.0441033"><ele>742.0</ele><time>2026-04-12T12:22:09.44Z</time></trkpt><trkpt lat="44.5343167" lon="8.0439983"><ele>742.0</ele><time>2026-04-12T12:22:11.44Z</time></trkpt><trkpt lat="44.5343567" lon="8.0438833"><ele>742.0</ele><time>2026-04-12T12:22:13.44Z</time></trkpt><trkpt lat="44.534395" lon="8.0437667"><ele>742.0</ele><time>2026-04-12T12:22:15.44Z</time></trkpt><trkpt lat="44.5344267" lon="8.0436533"><ele>742.0</ele><time>2026-04-12T12:22:17.44Z</time></trkpt><trkpt lat="44.534445" lon="8.0435533"><ele>742.0</ele><time>2026-04-12T12:22:19.44Z</time></trkpt><trkpt lat="44.5344633" lon="8.0434367"><ele>742.0</ele><time>2026-04-12T12:22:21.44Z</time></trkpt><trkpt lat="44.5344817" lon="8.04332"><ele>742.2</ele><time>2026-04-12T12:22:23.44Z</time></trkpt><trkpt lat="44.534495" lon="8.0431917"><ele>742.4000000000001</ele><time>2026-04-12T12:22:25.44Z</time></trkpt><trkpt lat="44.53451" lon="8.0430567"><ele>742.5999999999999</ele><time>2026-04-12T12:22:27.44Z</time></trkpt><trkpt lat="44.5345283" lon="8.0429183"><ele>742.8</ele><time>2026-04-12T12:22:29.44Z</time></trkpt><trkpt lat="44.5345533" lon="8.0427767"><ele>743.0</ele><time>2026-04-12T12:22:31.44Z</time></trkpt><trkpt lat="44.5345917" lon="8.04267"><ele>743.4</ele><time>2026-04-12T12:22:33.44Z</time></trkpt><trkpt lat="44.534635" lon="8.042575"><ele>743.8</ele><time>2026-04-12T12:22:35.44Z</time></trkpt><trkpt lat="44.5346733" lon="8.0424817"><ele>744.2</ele><time>2026-04-12T12:22:37.44Z</time></trkpt><trkpt lat="44.5347183" lon="8.042385"><ele>744.6</ele><time>2026-04-12T12:22:39.44Z</time></trkpt><trkpt lat="44.5347833" lon="8.0422483"><ele>745.0</ele><time>2026-04-12T12:22:41.44Z</time></trkpt><trkpt lat="44.5348667" lon="8.042095"><ele>745.4</ele><time>2026-04-12T12:22:43.44Z</time></trkpt><trkpt lat="44.5349133" lon="8.0419883"><ele>745.8</ele><time>2026-04-12T12:22:44.44Z</time></trkpt><trkpt lat="44.53497" lon="8.0418883"><ele>746.2</ele><time>2026-04-12T12:22:45.44Z</time></trkpt><trkpt lat="44.535025" lon="8.04177"><ele>746.6</ele><time>2026-04-12T12:22:46.44Z</time></trkpt><trkpt lat="44.53507" lon="8.0416367"><ele>747.0</ele><time>2026-04-12T12:22:47.44Z</time></trkpt><trkpt lat="44.5351117" lon="8.041505"><ele>745.8</ele><time>2026-04-12T12:22:48.44Z</time></trkpt><trkpt lat="44.535155" lon="8.041375"><ele>744.6</ele><time>2026-04-12T12:22:49.44Z</time></trkpt><trkpt lat="44.53522" lon="8.0412333"><ele>743.4</ele><time>2026-04-12T12:22:50.44Z</time></trkpt><trkpt lat="44.5352933" lon="8.0411083"><ele>742.1999999999999</ele><time>2026-04-12T12:22:51.44Z</time></trkpt><trkpt lat="44.535365" lon="8.0409967"><ele>741.0</ele><time>2026-04-12T12:22:52.44Z</time></trkpt><trkpt lat="44.5354483" lon="8.040895"><ele>738.5</ele><time>2026-04-12T12:22:53.44Z</time></trkpt><trkpt lat="44.5355517" lon="8.0408017"><ele>736.0</ele><time>2026-04-12T12:22:54.44Z</time></trkpt><trkpt lat="44.5356517" lon="8.040695"><ele>733.5</ele><time>2026-04-12T12:22:55.44Z</time></trkpt><trkpt lat="44.5357433" lon="8.0405683"><ele>731.0</ele><time>2026-04-12T12:22:56.44Z</time></trkpt><trkpt lat="44.5358267" lon="8.0404267"><ele>730.25</ele><time>2026-04-12T12:22:57.44Z</time></trkpt><trkpt lat="44.535915" lon="8.04028"><ele>729.5</ele><time>2026-04-12T12:22:58.44Z</time></trkpt><trkpt lat="44.5359933" lon="8.04012"><ele>728.75</ele><time>2026-04-12T12:22:59.44Z</time></trkpt><trkpt lat="44.536075" lon="8.0399517"><ele>728.0</ele><time>2026-04-12T12:23:00.44Z</time></trkpt><trkpt lat="44.5361567" lon="8.0397933"><ele>726.0</ele><time>2026-04-12T12:23:01.44Z</time></trkpt><trkpt lat="44.5362417" lon="8.0396433"><ele>724.0</ele><time>2026-04-12T12:23:02.44Z</time></trkpt><trkpt lat="44.536335" lon="8.0395017"><ele>722.0</ele><time>2026-04-12T12:23:03.44Z</time></trkpt><trkpt lat="44.53644" lon="8.0393833"><ele>720.0</ele><time>2026-04-12T12:23:04.44Z</time></trkpt><trkpt lat="44.5365533" lon="8.0392767"><ele>720.0</ele><time>2026-04-12T12:23:05.44Z</time></trkpt><trkpt lat="44.536655" lon="8.039175"><ele>720.0</ele><time>2026-04-12T12:23:06.441Z</time></trkpt><trkpt lat="44.53676" lon="8.0390967"><ele>720.0</ele><time>2026-04-12T12:23:07.44Z</time></trkpt><trkpt lat="44.5368667" lon="8.0390267"><ele>720.0</ele><time>2026-04-12T12:23:08.44Z</time></trkpt><trkpt lat="44.5369767" lon="8.0389517"><ele>720.0</ele><time>2026-04-12T12:23:09.44Z</time></trkpt><trkpt lat="44.5370733" lon="8.03887"><ele>720.0</ele><time>2026-04-12T12:23:10.44Z</time></trkpt><trkpt lat="44.53715" lon="8.038785"><ele>720.0</ele><time>2026-04-12T12:23:11.44Z</time></trkpt><trkpt lat="44.5372" lon="8.0387133"><ele>720.0</ele><time>2026-04-12T12:23:12.441Z</time></trkpt><trkpt lat="44.53726" lon="8.038565"><ele>720.0</ele><time>2026-04-12T12:23:14.44Z</time></trkpt><trkpt lat="44.5372533" lon="8.0384267"><ele>720.0</ele><time>2026-04-12T12:23:16.44Z</time></trkpt><trkpt lat="44.5372567" lon="8.0383233"><ele>720.0</ele><time>2026-04-12T12:23:18.44Z</time></trkpt><trkpt lat="44.5373083" lon="8.0382717"><ele>720.0</ele><time>2026-04-12T12:23:20.44Z</time></trkpt><trkpt lat="44.5373883" lon="8.0382633"><ele>720.0</ele><time>2026-04-12T12:23:22.44Z</time></trkpt><trkpt lat="44.53749" lon="8.0382817"><ele>720.0</ele><time>2026-04-12T12:23:24.44Z</time></trkpt><trkpt lat="44.53758" lon="8.0382767"><ele>720.0</ele><time>2026-04-12T12:23:26.44Z</time></trkpt><trkpt lat="44.5376517" lon="8.0382633"><ele>719.5</ele><time>2026-04-12T12:23:28.44Z</time></trkpt><trkpt lat="44.5377383" lon="8.0382483"><ele>719.0</ele><time>2026-04-12T12:23:31.44Z</time></trkpt><trkpt lat="44.5378017" lon="8.0382517"><ele>718.5</ele><time>2026-04-12T12:23:33.44Z</time></trkpt><trkpt lat="44.5378717" lon="8.0382633"><ele>718.0</ele><time>2026-04-12T12:23:35.44Z</time></trkpt><trkpt lat="44.5379633" lon="8.038265"><ele>717.5</ele><time>2026-04-12T12:23:37.44Z</time></trkpt><trkpt lat="44.5380483" lon="8.03829"><ele>717.0</ele><time>2026-04-12T12:23:39.44Z</time></trkpt><trkpt lat="44.5381233" lon="8.0383417"><ele>717.0</ele><time>2026-04-12T12:23:41.44Z</time></trkpt><trkpt lat="44.5382083" lon="8.0383883"><ele>717.0</ele><time>2026-04-12T12:23:43.44Z</time></trkpt><trkpt lat="44.5383083" lon="8.0384383"><ele>717.0</ele><time>2026-04-12T12:23:45.44Z</time></trkpt><trkpt lat="44.538395" lon="8.0384583"><ele>717.0</ele><time>2026-04-12T12:23:47.44Z</time></trkpt><trkpt lat="44.5384767" lon="8.038455"><ele>717.0</ele><time>2026-04-12T12:23:49.44Z</time></trkpt><trkpt lat="44.538565" lon="8.0384317"><ele>717.0</ele><time>2026-04-12T12:23:51.44Z</time></trkpt><trkpt lat="44.53864" lon="8.0383667"><ele>717.0</ele><time>2026-04-12T12:23:53.441Z</time></trkpt><trkpt lat="44.5387033" lon="8.0382767"><ele>717.0</ele><time>2026-04-12T12:23:55.44Z</time></trkpt><trkpt lat="44.5387667" lon="8.0382083"><ele>717.0</ele><time>2026-04-12T12:23:57.44Z</time></trkpt><trkpt lat="44.5388117" lon="8.038125"><ele>717.0</ele><time>2026-04-12T12:23:59.44Z</time></trkpt><trkpt lat="44.5388783" lon="8.0380433"><ele>717.0</ele><time>2026-04-12T12:24:01.44Z</time></trkpt><trkpt lat="44.5389633" lon="8.0379583"><ele>717.0</ele><time>2026-04-12T12:24:03.44Z</time></trkpt><trkpt lat="44.5390433" lon="8.0378383"><ele>717.0</ele><time>2026-04-12T12:24:05.44Z</time></trkpt><trkpt lat="44.5391133" lon="8.03769"><ele>717.0</ele><time>2026-04-12T12:24:07.44Z</time></trkpt><trkpt lat="44.5391467" lon="8.0376033"><ele>717.0</ele><time>2026-04-12T12:24:08.44Z</time></trkpt><trkpt lat="44.53918" lon="8.0375267"><ele>717.0</ele><time>2026-04-12T12:24:09.44Z</time></trkpt><trkpt lat="44.5392283" lon="8.0374217"><ele>719.6</ele><time>2026-04-12T12:24:11.44Z</time></trkpt><trkpt lat="44.5392917" lon="8.0373367"><ele>722.2</ele><time>2026-04-12T12:24:14.44Z</time></trkpt><trkpt lat="44.5393233" lon="8.03724"><ele>724.8</ele><time>2026-04-12T12:24:16.44Z</time></trkpt><trkpt lat="44.53936" lon="8.037135"><ele>727.4</ele><time>2026-04-12T12:24:18.44Z</time></trkpt><trkpt lat="44.5394033" lon="8.0370083"><ele>730.0</ele><time>2026-04-12T12:24:20.44Z</time></trkpt><trkpt lat="44.5394367" lon="8.0368533"><ele>730.0</ele><time>2026-04-12T12:24:22.44Z</time></trkpt><trkpt lat="44.539445" lon="8.036765"><ele>730.0</ele><time>2026-04-12T12:24:23.44Z</time></trkpt><trkpt lat="44.5394633" lon="8.0366267"><ele>730.0</ele><time>2026-04-12T12:24:25.44Z</time></trkpt><trkpt lat="44.539505" lon="8.0365283"><ele>730.0</ele><time>2026-04-12T12:24:27.44Z</time></trkpt><trkpt lat="44.5395433" lon="8.0364283"><ele>730.0</ele><time>2026-04-12T12:24:30.44Z</time></trkpt><trkpt lat="44.539575" lon="8.0363217"><ele>730.0</ele><time>2026-04-12T12:24:32.44Z</time></trkpt><trkpt lat="44.5396267" lon="8.0361667"><ele>730.2857142857143</ele><time>2026-04-12T12:24:34.44Z</time></trkpt><trkpt lat="44.5396683" lon="8.0360933"><ele>730.5714285714286</ele><time>2026-04-12T12:24:35.44Z</time></trkpt><trkpt lat="44.5397117" lon="8.0360233"><ele>730.8571428571429</ele><time>2026-04-12T12:24:36.44Z</time></trkpt><trkpt lat="44.53976" lon="8.0359533"><ele>731.1428571428571</ele><time>2026-04-12T12:24:37.44Z</time></trkpt><trkpt lat="44.5398117" lon="8.0358917"><ele>731.4285714285714</ele><time>2026-04-12T12:24:38.44Z</time></trkpt><trkpt lat="44.53989" lon="8.0358233"><ele>731.7142857142858</ele><time>2026-04-12T12:24:40.44Z</time></trkpt><trkpt lat="44.5399717" lon="8.035795"><ele>732.0</ele><time>2026-04-12T12:24:42.44Z</time></trkpt><trkpt lat="44.540045" lon="8.0357867"><ele>732.0</ele><time>2026-04-12T12:24:44.44Z</time></trkpt><trkpt lat="44.540125" lon="8.0358"><ele>732.0</ele><time>2026-04-12T12:24:47.44Z</time></trkpt><trkpt lat="44.5402867" lon="8.0357967"><ele>732.0</ele><time>2026-04-12T12:25:10.44Z</time></trkpt><trkpt lat="44.5403783" lon="8.0357767"><ele>732.0</ele><time>2026-04-12T12:25:12.44Z</time></trkpt><trkpt lat="44.5404833" lon="8.0357667"><ele>732.0</ele><time>2026-04-12T12:25:14.44Z</time></trkpt><trkpt lat="44.540595" lon="8.0357583"><ele>729.0</ele><time>2026-04-12T12:25:16.44Z</time></trkpt><trkpt lat="44.54066" lon="8.0357667"><ele>726.0</ele><time>2026-04-12T12:25:17.44Z</time></trkpt><trkpt lat="44.5407283" lon="8.0357833"><ele>723.0</ele><time>2026-04-12T12:25:18.44Z</time></trkpt><trkpt lat="44.5407933" lon="8.0357883"><ele>720.0</ele><time>2026-04-12T12:25:19.44Z</time></trkpt><trkpt lat="44.5408567" lon="8.03578"><ele>717.0</ele><time>2026-04-12T12:25:20.44Z</time></trkpt><trkpt lat="44.5409233" lon="8.03577"><ele>714.0</ele><time>2026-04-12T12:25:21.44Z</time></trkpt><trkpt lat="44.5409883" lon="8.0357333"><ele>711.0</ele><time>2026-04-12T12:25:22.44Z</time></trkpt><trkpt lat="44.5411017" lon="8.03564"><ele>711.0</ele><time>2026-04-12T12:25:24.44Z</time></trkpt><trkpt lat="44.54116" lon="8.0355733"><ele>711.0</ele><time>2026-04-12T12:25:25.44Z</time></trkpt><trkpt lat="44.5412133" lon="8.0355067"><ele>711.0</ele><time>2026-04-12T12:25:26.44Z</time></trkpt><trkpt lat="44.5412667" lon="8.0354317"><ele>711.0</ele><time>2026-04-12T12:25:27.44Z</time></trkpt><trkpt lat="44.5413217" lon="8.0352867"><ele>711.0</ele><time>2026-04-12T12:25:29.44Z</time></trkpt><trkpt lat="44.54135" lon="8.03519"><ele>711.0</ele><time>2026-04-12T12:25:31.44Z</time></trkpt><trkpt lat="44.5413817" lon="8.0350983"><ele>708.8</ele><time>2026-04-12T12:25:35.44Z</time></trkpt><trkpt lat="44.54143" lon="8.0350083"><ele>706.5999999999999</ele><time>2026-04-12T12:25:38.44Z</time></trkpt><trkpt lat="44.5414917" lon="8.03494"><ele>704.4</ele><time>2026-04-12T12:25:40.44Z</time></trkpt><trkpt lat="44.541585" lon="8.03487"><ele>702.2</ele><time>2026-04-12T12:25:42.441Z</time></trkpt><trkpt lat="44.5416467" lon="8.0347917"><ele>700.0</ele><time>2026-04-12T12:25:44.44Z</time></trkpt><trkpt lat="44.541755" lon="8.03459"><ele>700.0</ele><time>2026-04-12T12:26:01.44Z</time></trkpt><trkpt lat="44.541825" lon="8.0345217"><ele>700.0</ele><time>2026-04-12T12:26:03.44Z</time></trkpt><trkpt lat="44.5418933" lon="8.034445"><ele>700.0</ele><time>2026-04-12T12:26:05.44Z</time></trkpt><trkpt lat="44.5419567" lon="8.0343383"><ele>700.0</ele><time>2026-04-12T12:26:07.44Z</time></trkpt><trkpt lat="44.5420017" lon="8.03425"><ele>700.0</ele><time>2026-04-12T12:26:09.44Z</time></trkpt><trkpt lat="44.5420367" lon="8.0341683"><ele>700.0</ele><time>2026-04-12T12:26:11.44Z</time></trkpt><trkpt lat="44.54207" lon="8.0340733"><ele>697.3333333333334</ele><time>2026-04-12T12:26:13.44Z</time></trkpt><trkpt lat="44.54209" lon="8.03395"><ele>694.6666666666667</ele><time>2026-04-12T12:26:15.441Z</time></trkpt><trkpt lat="44.5421083" lon="8.0338233"><ele>692.0</ele><time>2026-04-12T12:26:17.44Z</time></trkpt><trkpt lat="44.5421267" lon="8.033715"><ele>689.3333333333334</ele><time>2026-04-12T12:26:19.44Z</time></trkpt><trkpt lat="44.5421333" lon="8.0336217"><ele>686.6666666666666</ele><time>2026-04-12T12:26:21.44Z</time></trkpt><trkpt lat="44.54215" lon="8.0334983"><ele>684.0</ele><time>2026-04-12T12:26:24.44Z</time></trkpt><trkpt lat="44.5421583" lon="8.03341"><ele>684.0</ele><time>2026-04-12T12:26:26.44Z</time></trkpt><trkpt lat="44.542165" lon="8.0333167"><ele>684.0</ele><time>2026-04-12T12:26:28.44Z</time></trkpt><trkpt lat="44.5421717" lon="8.0332267"><ele>684.0</ele><time>2026-04-12T12:26:30.44Z</time></trkpt><trkpt lat="44.5421567" lon="8.0331267"><ele>684.0</ele><time>2026-04-12T12:26:33.44Z</time></trkpt><trkpt lat="44.5421717" lon="8.033"><ele>684.0</ele><time>2026-04-12T12:26:36.44Z</time></trkpt><trkpt lat="44.5421967" lon="8.0328983"><ele>684.0</ele><time>2026-04-12T12:26:39.44Z</time></trkpt><trkpt lat="44.5422283" lon="8.032785"><ele>685.6666666666666</ele><time>2026-04-12T12:26:42.44Z</time></trkpt><trkpt lat="44.5422717" lon="8.0326667"><ele>687.3333333333334</ele><time>2026-04-12T12:26:45.44Z</time></trkpt><trkpt lat="44.542315" lon="8.03255"><ele>689.0</ele><time>2026-04-12T12:26:48.44Z</time></trkpt><trkpt lat="44.54234" lon="8.0324583"><ele>690.6666666666667</ele><time>2026-04-12T12:26:50.44Z</time></trkpt><trkpt lat="44.5423683" lon="8.0323567"><ele>692.3333333333334</ele><time>2026-04-12T12:26:53.44Z</time></trkpt><trkpt lat="44.5424067" lon="8.0322533"><ele>694.0</ele><time>2026-04-12T12:26:56.44Z</time></trkpt><trkpt lat="44.5424383" lon="8.032165"><ele>695.0</ele><time>2026-04-12T12:26:58.441Z</time></trkpt><trkpt lat="44.5424667" lon="8.0320767"><ele>696.0</ele><time>2026-04-12T12:27:00.44Z</time></trkpt><trkpt lat="44.5424767" lon="8.0319783"><ele>697.0</ele><time>2026-04-12T12:27:03.44Z</time></trkpt><trkpt lat="44.5424967" lon="8.0318833"><ele>698.0</ele><time>2026-04-12T12:27:06.44Z</time></trkpt><trkpt lat="44.542545" lon="8.0318233"><ele>699.0</ele><time>2026-04-12T12:27:08.44Z</time></trkpt><trkpt lat="44.5426083" lon="8.0317367"><ele>700.0</ele><time>2026-04-12T12:27:10.44Z</time></trkpt><trkpt lat="44.5426733" lon="8.0316533"><ele>700.0</ele><time>2026-04-12T12:27:12.44Z</time></trkpt><trkpt lat="44.5427183" lon="8.0315717"><ele>700.0</ele><time>2026-04-12T12:27:14.44Z</time></trkpt><trkpt lat="44.5427567" lon="8.0315"><ele>700.0</ele><time>2026-04-12T12:27:16.44Z</time></trkpt><trkpt lat="44.5428117" lon="8.03141"><ele>700.0</ele><time>2026-04-12T12:27:19.44Z</time></trkpt><trkpt lat="44.5427517" lon="8.0314583"><ele>700.0</ele><time>2026-04-12T12:27:50.44Z</time></trkpt><trkpt lat="44.542705" lon="8.0315233"><ele>700.0</ele><time>2026-04-12T12:27:52.44Z</time></trkpt><trkpt lat="44.5426367" lon="8.0316017"><ele>700.0</ele><time>2026-04-12T12:27:55.44Z</time></trkpt><trkpt lat="44.5425833" lon="8.0316667"><ele>700.0</ele><time>2026-04-12T12:27:59.44Z</time></trkpt><trkpt lat="44.54245" lon="8.03184"><ele>700.0</ele><time>2026-04-12T12:28:09.44Z</time></trkpt><trkpt lat="44.5424217" lon="8.0319317"><ele>700.0</ele><time>2026-04-12T12:28:11.44Z</time></trkpt><trkpt lat="44.5423917" lon="8.0320333"><ele>700.0</ele><time>2026-04-12T12:28:13.44Z</time></trkpt><trkpt lat="44.5423467" lon="8.0321433"><ele>700.0</ele><time>2026-04-12T12:28:15.44Z</time></trkpt><trkpt lat="44.5423" lon="8.032275"><ele>700.0</ele><time>2026-04-12T12:28:17.44Z</time></trkpt><trkpt lat="44.5422733" lon="8.0323567"><ele>700.0</ele><time>2026-04-12T12:28:18.44Z</time></trkpt><trkpt lat="44.5422483" lon="8.032445"><ele>700.0</ele><time>2026-04-12T12:28:19.44Z</time></trkpt><trkpt lat="44.5421967" lon="8.0326083"><ele>700.0</ele><time>2026-04-12T12:28:21.44Z</time></trkpt><trkpt lat="44.5421567" lon="8.0327583"><ele>700.0</ele><time>2026-04-12T12:28:23.44Z</time></trkpt><trkpt lat="44.54213" lon="8.0328733"><ele>699.0</ele><time>2026-04-12T12:28:25.44Z</time></trkpt><trkpt lat="44.542105" lon="8.032975"><ele>698.0</ele><time>2026-04-12T12:28:28.44Z</time></trkpt><trkpt lat="44.5420817" lon="8.0331033"><ele>697.0</ele><time>2026-04-12T12:28:31.44Z</time></trkpt><trkpt lat="44.5420617" lon="8.0331967"><ele>696.0</ele><time>2026-04-12T12:28:33.44Z</time></trkpt><trkpt lat="44.5420517" lon="8.0333083"><ele>695.0</ele><time>2026-04-12T12:28:35.44Z</time></trkpt><trkpt lat="44.5420483" lon="8.0334217"><ele>694.0</ele><time>2026-04-12T12:28:37.44Z</time></trkpt><trkpt lat="44.5420333" lon="8.0335883"><ele>695.2</ele><time>2026-04-12T12:28:39.44Z</time></trkpt><trkpt lat="44.5420183" lon="8.0336767"><ele>696.4000000000001</ele><time>2026-04-12T12:28:40.44Z</time></trkpt><trkpt lat="44.541985" lon="8.03381"><ele>697.6</ele><time>2026-04-12T12:28:42.44Z</time></trkpt><trkpt lat="44.5419533" lon="8.0339583"><ele>698.8</ele><time>2026-04-12T12:28:44.44Z</time></trkpt><trkpt lat="44.5419183" lon="8.0340967"><ele>700.0</ele><time>2026-04-12T12:28:46.44Z</time></trkpt><trkpt lat="44.541845" lon="8.034225"><ele>700.0</ele><time>2026-04-12T12:28:48.44Z</time></trkpt><trkpt lat="44.5418083" lon="8.0343133"><ele>700.0</ele><time>2026-04-12T12:28:50.44Z</time></trkpt><trkpt lat="44.5418267" lon="8.0344567"><ele>700.0</ele><time>2026-04-12T12:29:09.441Z</time></trkpt><trkpt lat="44.5419117" lon="8.0344483"><ele>700.0</ele><time>2026-04-12T12:29:12.441Z</time></trkpt><trkpt lat="44.5419717" lon="8.0343983"><ele>700.0</ele><time>2026-04-12T12:29:14.44Z</time></trkpt><trkpt lat="44.5420533" lon="8.0343367"><ele>700.0</ele><time>2026-04-12T12:29:16.44Z</time></trkpt><trkpt lat="44.5421433" lon="8.0342583"><ele>697.3333333333334</ele><time>2026-04-12T12:29:18.44Z</time></trkpt><trkpt lat="44.5422383" lon="8.034185"><ele>694.6666666666667</ele><time>2026-04-12T12:29:20.44Z</time></trkpt><trkpt lat="44.5423233" lon="8.034115"><ele>692.0</ele><time>2026-04-12T12:29:22.44Z</time></trkpt><trkpt lat="44.5423833" lon="8.0340483"><ele>689.3333333333334</ele><time>2026-04-12T12:29:24.44Z</time></trkpt><trkpt lat="44.5424233" lon="8.03396"><ele>686.6666666666666</ele><time>2026-04-12T12:29:26.44Z</time></trkpt><trkpt lat="44.5424717" lon="8.0338533"><ele>684.0</ele><time>2026-04-12T12:29:28.44Z</time></trkpt><trkpt lat="44.542515" lon="8.0337067"><ele>684.0</ele><time>2026-04-12T12:29:30.44Z</time></trkpt><trkpt lat="44.542555" lon="8.0335333"><ele>684.0</ele><time>2026-04-12T12:29:32.44Z</time></trkpt><trkpt lat="44.542585" lon="8.033385"><ele>684.0</ele><time>2026-04-12T12:29:34.44Z</time></trkpt><trkpt lat="44.5426317" lon="8.0332533"><ele>684.0</ele><time>2026-04-12T12:29:36.441Z</time></trkpt><trkpt lat="44.5426933" lon="8.0331283"><ele>685.4285714285713</ele><time>2026-04-12T12:29:38.44Z</time></trkpt><trkpt lat="44.5427317" lon="8.0330567"><ele>686.8571428571429</ele><time>2026-04-12T12:29:39.44Z</time></trkpt><trkpt lat="44.5427783" lon="8.032975"><ele>688.2857142857142</ele><time>2026-04-12T12:29:40.44Z</time></trkpt><trkpt lat="44.5428283" lon="8.0329017"><ele>689.7142857142857</ele><time>2026-04-12T12:29:41.44Z</time></trkpt><trkpt lat="44.542875" lon="8.0328183"><ele>691.1428571428571</ele><time>2026-04-12T12:29:42.44Z</time></trkpt><trkpt lat="44.54291" lon="8.03274"><ele>692.5714285714286</ele><time>2026-04-12T12:29:43.44Z</time></trkpt><trkpt lat="44.5429467" lon="8.0326617"><ele>694.0</ele><time>2026-04-12T12:29:44.44Z</time></trkpt><trkpt lat="44.5430367" lon="8.0325533"><ele>691.6666666666667</ele><time>2026-04-12T12:29:46.44Z</time></trkpt><trkpt lat="44.543095" lon="8.0325167"><ele>689.3333333333334</ele><time>2026-04-12T12:29:47.44Z</time></trkpt><trkpt lat="44.5431517" lon="8.03247"><ele>687.0</ele><time>2026-04-12T12:29:48.44Z</time></trkpt><trkpt lat="44.5432067" lon="8.032395"><ele>684.6666666666666</ele><time>2026-04-12T12:29:49.44Z</time></trkpt><trkpt lat="44.54325" lon="8.03232"><ele>682.3333333333333</ele><time>2026-04-12T12:29:50.44Z</time></trkpt><trkpt lat="44.543315" lon="8.03217"><ele>680.0</ele><time>2026-04-12T12:29:52.44Z</time></trkpt><trkpt lat="44.5433883" lon="8.032015"><ele>680.0</ele><time>2026-04-12T12:29:54.44Z</time></trkpt><trkpt lat="44.5434317" lon="8.0319367"><ele>680.0</ele><time>2026-04-12T12:29:55.44Z</time></trkpt><trkpt lat="44.5434783" lon="8.0318583"><ele>680.0</ele><time>2026-04-12T12:29:56.44Z</time></trkpt><trkpt lat="44.54353" lon="8.03177"><ele>680.0</ele><time>2026-04-12T12:29:57.44Z</time></trkpt><trkpt lat="44.54359" lon="8.0316667"><ele>680.0</ele><time>2026-04-12T12:29:58.44Z</time></trkpt><trkpt lat="44.54364" lon="8.0315617"><ele>680.0</ele><time>2026-04-12T12:29:59.44Z</time></trkpt><trkpt lat="44.5436883" lon="8.031465"><ele>677.4285714285714</ele><time>2026-04-12T12:30:00.44Z</time></trkpt><trkpt lat="44.5437383" lon="8.0313833"><ele>674.8571428571428</ele><time>2026-04-12T12:30:01.44Z</time></trkpt><trkpt lat="44.543785" lon="8.0313167"><ele>672.2857142857142</ele><time>2026-04-12T12:30:02.44Z</time></trkpt><trkpt lat="44.543835" lon="8.0312617"><ele>669.7142857142858</ele><time>2026-04-12T12:30:03.44Z</time></trkpt><trkpt lat="44.54389" lon="8.0312033"><ele>667.1428571428571</ele><time>2026-04-12T12:30:04.44Z</time></trkpt><trkpt lat="44.5439433" lon="8.0311517"><ele>664.5714285714286</ele><time>2026-04-12T12:30:05.44Z</time></trkpt><trkpt lat="44.5440017" lon="8.0310967"><ele>662.0</ele><time>2026-04-12T12:30:06.44Z</time></trkpt><trkpt lat="44.5440667" lon="8.0310333"><ele>662.0</ele><time>2026-04-12T12:30:07.44Z</time></trkpt><trkpt lat="44.54413" lon="8.030965"><ele>662.0</ele><time>2026-04-12T12:30:08.44Z</time></trkpt><trkpt lat="44.5441883" lon="8.0308833"><ele>662.0</ele><time>2026-04-12T12:30:09.44Z</time></trkpt><trkpt lat="44.544245" lon="8.0308"><ele>662.0</ele><time>2026-04-12T12:30:10.44Z</time></trkpt><trkpt lat="44.5442967" lon="8.0307117"><ele>662.0</ele><time>2026-04-12T12:30:11.44Z</time></trkpt><trkpt lat="44.5443383" lon="8.0306217"><ele>662.0</ele><time>2026-04-12T12:30:12.44Z</time></trkpt><trkpt lat="44.54438" lon="8.0305417"><ele>664.1428571428571</ele><time>2026-04-12T12:30:13.44Z</time></trkpt><trkpt lat="44.5444217" lon="8.0304583"><ele>666.2857142857142</ele><time>2026-04-12T12:30:14.44Z</time></trkpt><trkpt lat="44.5444633" lon="8.0303767"><ele>668.4285714285713</ele><time>2026-04-12T12:30:15.44Z</time></trkpt><trkpt lat="44.5445033" lon="8.030295"><ele>670.5714285714286</ele><time>2026-04-12T12:30:16.44Z</time></trkpt><trkpt lat="44.5445333" lon="8.0302167"><ele>672.7142857142857</ele><time>2026-04-12T12:30:17.44Z</time></trkpt><trkpt lat="44.5445683" lon="8.0301383"><ele>674.8571428571428</ele><time>2026-04-12T12:30:18.44Z</time></trkpt><trkpt lat="44.5446167" lon="8.03006"><ele>677.0</ele><time>2026-04-12T12:30:19.44Z</time></trkpt><trkpt lat="44.544675" lon="8.0299833"><ele>673.8333333333333</ele><time>2026-04-12T12:30:20.44Z</time></trkpt><trkpt lat="44.5447333" lon="8.0299117"><ele>670.6666666666666</ele><time>2026-04-12T12:30:21.44Z</time></trkpt><trkpt lat="44.544795" lon="8.02984"><ele>667.5</ele><time>2026-04-12T12:30:22.44Z</time></trkpt><trkpt lat="44.54485" lon="8.0297733"><ele>664.3333333333334</ele><time>2026-04-12T12:30:23.44Z</time></trkpt><trkpt lat="44.54491" lon="8.0297067"><ele>661.1666666666667</ele><time>2026-04-12T12:30:24.44Z</time></trkpt><trkpt lat="44.5449667" lon="8.0296317"><ele>658.0</ele><time>2026-04-12T12:30:25.44Z</time></trkpt><trkpt lat="44.5450183" lon="8.0295483"><ele>658.0</ele><time>2026-04-12T12:30:26.44Z</time></trkpt><trkpt lat="44.5450617" lon="8.0294633"><ele>658.0</ele><time>2026-04-12T12:30:27.44Z</time></trkpt><trkpt lat="44.5450967" lon="8.0293867"><ele>658.0</ele><time>2026-04-12T12:30:28.44Z</time></trkpt><trkpt lat="44.54518" lon="8.0292617"><ele>658.0</ele><time>2026-04-12T12:30:30.44Z</time></trkpt><trkpt lat="44.5452683" lon="8.0291433"><ele>658.0</ele><time>2026-04-12T12:30:32.44Z</time></trkpt><trkpt lat="44.545315" lon="8.0290817"><ele>658.0</ele><time>2026-04-12T12:30:33.44Z</time></trkpt><trkpt lat="44.5453617" lon="8.0290217"><ele>654.8333333333334</ele><time>2026-04-12T12:30:34.44Z</time></trkpt><trkpt lat="44.545445" lon="8.0289017"><ele>651.6666666666667</ele><time>2026-04-12T12:30:36.44Z</time></trkpt><trkpt lat="44.5455133" lon="8.0287733"><ele>648.5</ele><time>2026-04-12T12:30:38.44Z</time></trkpt><trkpt lat="44.545535" lon="8.02869"><ele>645.3333333333334</ele><time>2026-04-12T12:30:39.44Z</time></trkpt><trkpt lat="44.54555" lon="8.0286"><ele>642.1666666666666</ele><time>2026-04-12T12:30:40.44Z</time></trkpt><trkpt lat="44.5455617" lon="8.02851"><ele>639.0</ele><time>2026-04-12T12:30:41.44Z</time></trkpt><trkpt lat="44.545595" lon="8.0283467"><ele>639.6666666666666</ele><time>2026-04-12T12:30:43.44Z</time></trkpt><trkpt lat="44.5456217" lon="8.0282667"><ele>640.3333333333334</ele><time>2026-04-12T12:30:44.44Z</time></trkpt><trkpt lat="44.545665" lon="8.02815"><ele>641.0</ele><time>2026-04-12T12:30:46.44Z</time></trkpt><trkpt lat="44.5457317" lon="8.0280667"><ele>641.6666666666667</ele><time>2026-04-12T12:30:49.44Z</time></trkpt><trkpt lat="44.5457933" lon="8.028"><ele>642.3333333333334</ele><time>2026-04-12T12:30:51.44Z</time></trkpt><trkpt lat="44.5458733" lon="8.0279433"><ele>643.0</ele><time>2026-04-12T12:30:53.44Z</time></trkpt><trkpt lat="44.545955" lon="8.027875"><ele>643.0</ele><time>2026-04-12T12:30:55.44Z</time></trkpt><trkpt lat="44.5460033" lon="8.0278183"><ele>643.0</ele><time>2026-04-12T12:30:56.44Z</time></trkpt><trkpt lat="44.5460933" lon="8.0277017"><ele>643.0</ele><time>2026-04-12T12:30:58.44Z</time></trkpt><trkpt lat="44.54616" lon="8.02758"><ele>643.0</ele><time>2026-04-12T12:31:00.44Z</time></trkpt><trkpt lat="44.5461967" lon="8.0274317"><ele>643.0</ele><time>2026-04-12T12:31:02.44Z</time></trkpt><trkpt lat="44.54621" lon="8.0273317"><ele>641.8</ele><time>2026-04-12T12:31:03.44Z</time></trkpt><trkpt lat="44.5461783" lon="8.0272"><ele>640.5999999999999</ele><time>2026-04-12T12:31:05.44Z</time></trkpt><trkpt lat="44.5460983" lon="8.0270683"><ele>639.4000000000001</ele><time>2026-04-12T12:31:07.44Z</time></trkpt><trkpt lat="44.5460283" lon="8.0269267"><ele>638.2</ele><time>2026-04-12T12:31:09.44Z</time></trkpt><trkpt lat="44.5459983" lon="8.0268433"><ele>637.0</ele><time>2026-04-12T12:31:10.44Z</time></trkpt><trkpt lat="44.54596" lon="8.026755"><ele>637.0</ele><time>2026-04-12T12:31:11.44Z</time></trkpt><trkpt lat="44.545925" lon="8.026665"><ele>637.0</ele><time>2026-04-12T12:31:12.44Z</time></trkpt><trkpt lat="44.5458867" lon="8.0265683"><ele>637.0</ele><time>2026-04-12T12:31:13.44Z</time></trkpt><trkpt lat="44.5458533" lon="8.02649"><ele>637.0</ele><time>2026-04-12T12:31:14.44Z</time></trkpt><trkpt lat="44.54583" lon="8.0264067"><ele>637.0</ele><time>2026-04-12T12:31:17.44Z</time></trkpt><trkpt lat="44.5457517" lon="8.02633"><ele>637.0</ele><time>2026-04-12T12:31:44.44Z</time></trkpt><trkpt lat="44.54564" lon="8.0263033"><ele>636.4</ele><time>2026-04-12T12:32:08.44Z</time></trkpt><trkpt lat="44.5456383" lon="8.0261717"><ele>635.8000000000001</ele><time>2026-04-12T12:32:34.44Z</time></trkpt><trkpt lat="44.5456033" lon="8.026085"><ele>635.2</ele><time>2026-04-12T12:32:41.44Z</time></trkpt><trkpt lat="44.5455783" lon="8.0259217"><ele>634.6</ele><time>2026-04-12T12:33:11.44Z</time></trkpt><trkpt lat="44.54562" lon="8.02577"><ele>634.0</ele><time>2026-04-12T12:33:22.44Z</time></trkpt><trkpt lat="44.5456317" lon="8.02565"><ele>634.0</ele><time>2026-04-12T12:33:27.44Z</time></trkpt><trkpt lat="44.5456367" lon="8.0254767"><ele>634.0</ele><time>2026-04-12T12:33:38.44Z</time></trkpt><trkpt lat="44.5456033" lon="8.0252483"><ele>634.0</ele><time>2026-04-12T12:34:00.44Z</time></trkpt><trkpt lat="44.5455467" lon="8.0251967"><ele>634.0</ele><time>2026-04-12T12:34:05.44Z</time></trkpt><trkpt lat="44.5454883" lon="8.0251483"><ele>634.0</ele><time>2026-04-12T12:34:13.44Z</time></trkpt><trkpt lat="44.5454117" lon="8.0251367"><ele>636.0</ele><time>2026-04-12T12:34:16.44Z</time></trkpt><trkpt lat="44.5453217" lon="8.025145"><ele>638.0</ele><time>2026-04-12T12:34:19.44Z</time></trkpt><trkpt lat="44.5452567" lon="8.02513"><ele>640.0</ele><time>2026-04-12T12:34:21.44Z</time></trkpt><trkpt lat="44.54519" lon="8.0250833"><ele>642.0</ele><time>2026-04-12T12:34:24.44Z</time></trkpt><trkpt lat="44.5451033" lon="8.0249667"><ele>644.0</ele><time>2026-04-12T12:34:40.44Z</time></trkpt><trkpt lat="44.5450273" lon="8.0248513"><ele>644.0</ele><time>2026-04-12T12:35:06.462Z</time></trkpt><trkpt lat="44.5449976" lon="8.0247632"><ele>644.0</ele><time>2026-04-12T12:35:10.544Z</time></trkpt><trkpt lat="44.5449885" lon="8.0246734"><ele>644.0</ele><time>2026-04-12T12:35:13.471Z</time></trkpt><trkpt lat="44.5449793" lon="8.0245778"><ele>644.0</ele><time>2026-04-12T12:35:16.508Z</time></trkpt><trkpt lat="44.5449878" lon="8.0244899"><ele>644.0</ele><time>2026-04-12T12:35:17.493Z</time></trkpt><trkpt lat="44.544875" lon="8.0242883"><ele>644.0</ele><time>2026-04-12T12:35:18.44Z</time></trkpt><trkpt lat="44.5447967" lon="8.02416"><ele>644.3333333333333</ele><time>2026-04-12T12:35:20.44Z</time></trkpt><trkpt lat="44.5447517" lon="8.0240967"><ele>644.6666666666666</ele><time>2026-04-12T12:35:21.44Z</time></trkpt><trkpt lat="44.5446983" lon="8.0240417"><ele>645.0</ele><time>2026-04-12T12:35:22.44Z</time></trkpt><trkpt lat="44.5446433" lon="8.02398"><ele>645.3333333333334</ele><time>2026-04-12T12:35:23.44Z</time></trkpt><trkpt lat="44.5445517" lon="8.0238717"><ele>645.6666666666667</ele><time>2026-04-12T12:35:25.44Z</time></trkpt><trkpt lat="44.544455" lon="8.0237883"><ele>646.0</ele><time>2026-04-12T12:35:27.44Z</time></trkpt><trkpt lat="44.5443833" lon="8.0237433"><ele>646.0</ele><time>2026-04-12T12:35:28.44Z</time></trkpt><trkpt lat="44.544285" lon="8.023665"><ele>646.0</ele><time>2026-04-12T12:35:30.44Z</time></trkpt><trkpt lat="44.544235" lon="8.023575"><ele>646.0</ele><time>2026-04-12T12:35:32.44Z</time></trkpt><trkpt lat="44.54419" lon="8.0234967"><ele>646.0</ele><time>2026-04-12T12:35:34.44Z</time></trkpt><trkpt lat="44.5441383" lon="8.023405"><ele>646.0</ele><time>2026-04-12T12:35:36.44Z</time></trkpt><trkpt lat="44.5440767" lon="8.023295"><ele>646.0</ele><time>2026-04-12T12:35:38.44Z</time></trkpt><trkpt lat="44.543995" lon="8.0231867"><ele>644.0</ele><time>2026-04-12T12:35:40.44Z</time></trkpt><trkpt lat="44.5439183" lon="8.0231067"><ele>642.0</ele><time>2026-04-12T12:35:42.44Z</time></trkpt><trkpt lat="44.5438183" lon="8.0230233"><ele>640.0</ele><time>2026-04-12T12:35:44.44Z</time></trkpt><trkpt lat="44.54374" lon="8.0229617"><ele>638.0</ele><time>2026-04-12T12:35:46.44Z</time></trkpt><trkpt lat="44.54368" lon="8.02289"><ele>636.0</ele><time>2026-04-12T12:35:48.441Z</time></trkpt><trkpt lat="44.5436467" lon="8.02278"><ele>636.0</ele><time>2026-04-12T12:35:50.44Z</time></trkpt><trkpt lat="44.5436183" lon="8.0226583"><ele>636.0</ele><time>2026-04-12T12:35:52.44Z</time></trkpt><trkpt lat="44.5435933" lon="8.02252"><ele>636.0</ele><time>2026-04-12T12:35:54.44Z</time></trkpt><trkpt lat="44.54355" lon="8.0223717"><ele>636.0</ele><time>2026-04-12T12:35:56.44Z</time></trkpt><trkpt lat="44.5435083" lon="8.0223"><ele>636.0</ele><time>2026-04-12T12:35:57.44Z</time></trkpt><trkpt lat="44.5434633" lon="8.0222317"><ele>636.0</ele><time>2026-04-12T12:35:58.44Z</time></trkpt><trkpt lat="44.5434217" lon="8.02216"><ele>635.5</ele><time>2026-04-12T12:35:59.44Z</time></trkpt><trkpt lat="44.5433767" lon="8.0220833"><ele>635.0</ele><time>2026-04-12T12:36:00.44Z</time></trkpt><trkpt lat="44.5433367" lon="8.022005"><ele>634.5</ele><time>2026-04-12T12:36:01.44Z</time></trkpt><trkpt lat="44.5433" lon="8.021925"><ele>634.0</ele><time>2026-04-12T12:36:02.44Z</time></trkpt><trkpt lat="44.5432667" lon="8.0218417"><ele>633.5</ele><time>2026-04-12T12:36:03.44Z</time></trkpt><trkpt lat="44.54322" lon="8.0216983"><ele>633.0</ele><time>2026-04-12T12:36:05.44Z</time></trkpt><trkpt lat="44.5431683" lon="8.0216067"><ele>631.8</ele><time>2026-04-12T12:36:07.44Z</time></trkpt><trkpt lat="44.543125" lon="8.0215133"><ele>630.5999999999999</ele><time>2026-04-12T12:36:44.44Z</time></trkpt><trkpt lat="44.5431017" lon="8.02141"><ele>629.4000000000001</ele><time>2026-04-12T12:36:47.44Z</time></trkpt><trkpt lat="44.5430417" lon="8.02131"><ele>628.2</ele><time>2026-04-12T12:36:50.44Z</time></trkpt><trkpt lat="44.54299" lon="8.0212"><ele>627.0</ele><time>2026-04-12T12:36:52.44Z</time></trkpt><trkpt lat="44.54293" lon="8.0210633"><ele>626.5</ele><time>2026-04-12T12:36:54.44Z</time></trkpt><trkpt lat="44.5428583" lon="8.0209167"><ele>626.0</ele><time>2026-04-12T12:36:56.44Z</time></trkpt><trkpt lat="44.542815" lon="8.0208367"><ele>625.5</ele><time>2026-04-12T12:36:57.44Z</time></trkpt><trkpt lat="44.54277" lon="8.0207517"><ele>625.0</ele><time>2026-04-12T12:36:58.44Z</time></trkpt><trkpt lat="44.5427217" lon="8.0206633"><ele>624.5</ele><time>2026-04-12T12:36:59.44Z</time></trkpt><trkpt lat="44.542675" lon="8.0205717"><ele>624.0</ele><time>2026-04-12T12:37:00.44Z</time></trkpt><trkpt lat="44.5426367" lon="8.0204733"><ele>624.0</ele><time>2026-04-12T12:37:01.44Z</time></trkpt><trkpt lat="44.5425917" lon="8.0203733"><ele>624.0</ele><time>2026-04-12T12:37:02.44Z</time></trkpt><trkpt lat="44.5425567" lon="8.0202633"><ele>624.0</ele><time>2026-04-12T12:37:03.44Z</time></trkpt><trkpt lat="44.5425233" lon="8.0201517"><ele>624.0</ele><time>2026-04-12T12:37:04.44Z</time></trkpt><trkpt lat="44.54249" lon="8.0200383"><ele>624.0</ele><time>2026-04-12T12:37:05.44Z</time></trkpt><trkpt lat="44.54246" lon="8.0199267"><ele>624.0</ele><time>2026-04-12T12:37:06.44Z</time></trkpt><trkpt lat="44.5424233" lon="8.019815"><ele>623.6666666666666</ele><time>2026-04-12T12:37:07.44Z</time></trkpt><trkpt lat="44.5423783" lon="8.019705"><ele>623.3333333333334</ele><time>2026-04-12T12:37:08.44Z</time></trkpt><trkpt lat="44.542335" lon="8.019595"><ele>623.0</ele><time>2026-04-12T12:37:09.44Z</time></trkpt><trkpt lat="44.5422883" lon="8.0194867"><ele>622.6666666666667</ele><time>2026-04-12T12:37:10.44Z</time></trkpt><trkpt lat="44.5422433" lon="8.0193833"><ele>622.3333333333334</ele><time>2026-04-12T12:37:11.44Z</time></trkpt><trkpt lat="44.5422017" lon="8.0192883"><ele>622.0</ele><time>2026-04-12T12:37:12.44Z</time></trkpt><trkpt lat="44.5421617" lon="8.01919"><ele>622.1666666666667</ele><time>2026-04-12T12:37:13.44Z</time></trkpt><trkpt lat="44.5421233" lon="8.0190833"><ele>622.3333333333334</ele><time>2026-04-12T12:37:14.44Z</time></trkpt><trkpt lat="44.5420867" lon="8.018985"><ele>622.5</ele><time>2026-04-12T12:37:15.44Z</time></trkpt><trkpt lat="44.54205" lon="8.018895"><ele>622.6666666666666</ele><time>2026-04-12T12:37:16.44Z</time></trkpt><trkpt lat="44.542015" lon="8.0187967"><ele>622.8333333333333</ele><time>2026-04-12T12:37:17.44Z</time></trkpt><trkpt lat="44.5419767" lon="8.0187033"><ele>623.0</ele><time>2026-04-12T12:37:18.44Z</time></trkpt><trkpt lat="44.5419367" lon="8.01862"><ele>623.0</ele><time>2026-04-12T12:37:19.44Z</time></trkpt><trkpt lat="44.5418883" lon="8.01855"><ele>623.0</ele><time>2026-04-12T12:37:20.44Z</time></trkpt><trkpt lat="44.541825" lon="8.018495"><ele>623.0</ele><time>2026-04-12T12:37:21.44Z</time></trkpt><trkpt lat="44.5417467" lon="8.0184533"><ele>623.0</ele><time>2026-04-12T12:37:22.441Z</time></trkpt><trkpt lat="44.5416783" lon="8.0184067"><ele>623.0</ele><time>2026-04-12T12:37:23.44Z</time></trkpt><trkpt lat="44.5416133" lon="8.018355"><ele>623.0</ele><time>2026-04-12T12:37:24.44Z</time></trkpt><trkpt lat="44.5415583" lon="8.0182883"><ele>621.8571428571429</ele><time>2026-04-12T12:37:25.441Z</time></trkpt><trkpt lat="44.5415067" lon="8.018215"><ele>620.7142857142858</ele><time>2026-04-12T12:37:26.44Z</time></trkpt><trkpt lat="44.5414683" lon="8.018145"><ele>619.5714285714286</ele><time>2026-04-12T12:37:27.44Z</time></trkpt><trkpt lat="44.5414267" lon="8.0180767"><ele>618.4285714285714</ele><time>2026-04-12T12:37:28.44Z</time></trkpt><trkpt lat="44.5413817" lon="8.0180033"><ele>617.2857142857143</ele><time>2026-04-12T12:37:29.44Z</time></trkpt><trkpt lat="44.5413383" lon="8.0179217"><ele>616.1428571428571</ele><time>2026-04-12T12:37:30.44Z</time></trkpt><trkpt lat="44.5412883" lon="8.0178433"><ele>615.0</ele><time>2026-04-12T12:37:31.44Z</time></trkpt><trkpt lat="44.5412333" lon="8.017765"><ele>614.8333333333334</ele><time>2026-04-12T12:37:32.44Z</time></trkpt><trkpt lat="44.5411783" lon="8.01768"><ele>614.6666666666666</ele><time>2026-04-12T12:37:33.44Z</time></trkpt><trkpt lat="44.5411217" lon="8.0175883"><ele>614.5</ele><time>2026-04-12T12:37:34.44Z</time></trkpt><trkpt lat="44.5410667" lon="8.0174933"><ele>614.3333333333333</ele><time>2026-04-12T12:37:35.441Z</time></trkpt><trkpt lat="44.5410117" lon="8.0173933"><ele>614.1666666666666</ele><time>2026-04-12T12:37:36.44Z</time></trkpt><trkpt lat="44.540955" lon="8.0172917"><ele>614.0</ele><time>2026-04-12T12:37:37.44Z</time></trkpt><trkpt lat="44.540895" lon="8.0171817"><ele>614.0</ele><time>2026-04-12T12:37:38.44Z</time></trkpt><trkpt lat="44.54083" lon="8.0170683"><ele>614.0</ele><time>2026-04-12T12:37:39.44Z</time></trkpt><trkpt lat="44.54077" lon="8.01695"><ele>614.0</ele><time>2026-04-12T12:37:40.441Z</time></trkpt><trkpt lat="44.5407083" lon="8.0168283"><ele>614.0</ele><time>2026-04-12T12:37:41.44Z</time></trkpt><trkpt lat="44.5406517" lon="8.01671"><ele>614.0</ele><time>2026-04-12T12:37:42.44Z</time></trkpt><trkpt lat="44.5405967" lon="8.0165833"><ele>613.6</ele><time>2026-04-12T12:37:43.44Z</time></trkpt><trkpt lat="44.5405317" lon="8.01647"><ele>613.2</ele><time>2026-04-12T12:37:44.44Z</time></trkpt><trkpt lat="44.54047" lon="8.0163483"><ele>612.8000000000001</ele><time>2026-04-12T12:37:45.44Z</time></trkpt><trkpt lat="44.5404117" lon="8.0162217"><ele>612.4</ele><time>2026-04-12T12:37:46.44Z</time></trkpt><trkpt lat="44.54035" lon="8.0161"><ele>612.0</ele><time>2026-04-12T12:37:47.44Z</time></trkpt><trkpt lat="44.5402967" lon="8.015975"><ele>611.0</ele><time>2026-04-12T12:37:48.441Z</time></trkpt><trkpt lat="44.5402583" lon="8.01584"><ele>610.0</ele><time>2026-04-12T12:37:49.44Z</time></trkpt><trkpt lat="44.5402217" lon="8.0157067"><ele>609.0</ele><time>2026-04-12T12:37:50.44Z</time></trkpt><trkpt lat="44.5401833" lon="8.0155683"><ele>608.0</ele><time>2026-04-12T12:37:51.44Z</time></trkpt><trkpt lat="44.540135" lon="8.01544"><ele>607.0</ele><time>2026-04-12T12:37:52.44Z</time></trkpt><trkpt lat="44.5400933" lon="8.0153133"><ele>607.0</ele><time>2026-04-12T12:37:53.44Z</time></trkpt><trkpt lat="44.5400533" lon="8.01519"><ele>607.0</ele><time>2026-04-12T12:37:54.44Z</time></trkpt><trkpt lat="44.5400033" lon="8.0150667"><ele>607.0</ele><time>2026-04-12T12:37:55.44Z</time></trkpt><trkpt lat="44.539955" lon="8.0149483"><ele>607.0</ele><time>2026-04-12T12:37:56.44Z</time></trkpt><trkpt lat="44.5399017" lon="8.0148383"><ele>607.0</ele><time>2026-04-12T12:37:57.44Z</time></trkpt><trkpt lat="44.5398517" lon="8.0147233"><ele>606.6</ele><time>2026-04-12T12:37:58.441Z</time></trkpt><trkpt lat="44.5398" lon="8.014605"><ele>606.2</ele><time>2026-04-12T12:37:59.44Z</time></trkpt><trkpt lat="44.5397467" lon="8.0144883"><ele>605.8</ele><time>2026-04-12T12:38:00.44Z</time></trkpt><trkpt lat="44.5396967" lon="8.0143717"><ele>605.4</ele><time>2026-04-12T12:38:01.44Z</time></trkpt><trkpt lat="44.539645" lon="8.01426"><ele>605.0</ele><time>2026-04-12T12:38:02.44Z</time></trkpt><trkpt lat="44.539595" lon="8.01415"><ele>604.8333333333333</ele><time>2026-04-12T12:38:03.44Z</time></trkpt><trkpt lat="44.53955" lon="8.0140333"><ele>604.6666666666666</ele><time>2026-04-12T12:38:04.44Z</time></trkpt><trkpt lat="44.5395183" lon="8.0139167"><ele>604.5</ele><time>2026-04-12T12:38:05.44Z</time></trkpt><trkpt lat="44.5394867" lon="8.0138067"><ele>604.3333333333334</ele><time>2026-04-12T12:38:06.44Z</time></trkpt><trkpt lat="44.5394483" lon="8.01371"><ele>604.1666666666667</ele><time>2026-04-12T12:38:07.441Z</time></trkpt><trkpt lat="44.5394017" lon="8.01363"><ele>604.0</ele><time>2026-04-12T12:38:08.44Z</time></trkpt><trkpt lat="44.5393433" lon="8.0135633"><ele>604.0</ele><time>2026-04-12T12:38:09.44Z</time></trkpt><trkpt lat="44.5392783" lon="8.0135067"><ele>604.0</ele><time>2026-04-12T12:38:10.441Z</time></trkpt><trkpt lat="44.5392167" lon="8.0134417"><ele>604.0</ele><time>2026-04-12T12:38:11.44Z</time></trkpt><trkpt lat="44.5391667" lon="8.013355"><ele>604.0</ele><time>2026-04-12T12:38:12.44Z</time></trkpt><trkpt lat="44.5391267" lon="8.0132517"><ele>604.0</ele><time>2026-04-12T12:38:13.44Z</time></trkpt><trkpt lat="44.53909" lon="8.013135"><ele>604.0</ele><time>2026-04-12T12:38:14.44Z</time></trkpt><trkpt lat="44.5390533" lon="8.0130217"><ele>604.2</ele><time>2026-04-12T12:38:15.44Z</time></trkpt><trkpt lat="44.5390183" lon="8.012905"><ele>604.4</ele><time>2026-04-12T12:38:16.441Z</time></trkpt><trkpt lat="44.5389733" lon="8.0127783"><ele>604.6</ele><time>2026-04-12T12:38:17.44Z</time></trkpt><trkpt lat="44.5389317" lon="8.012645"><ele>604.8</ele><time>2026-04-12T12:38:18.44Z</time></trkpt><trkpt lat="44.5389083" lon="8.0125183"><ele>605.0</ele><time>2026-04-12T12:38:19.44Z</time></trkpt><trkpt lat="44.5388917" lon="8.0123767"><ele>603.6</ele><time>2026-04-12T12:38:20.44Z</time></trkpt><trkpt lat="44.538885" lon="8.012235"><ele>602.2</ele><time>2026-04-12T12:38:21.44Z</time></trkpt><trkpt lat="44.5388783" lon="8.0120967"><ele>600.8</ele><time>2026-04-12T12:38:22.44Z</time></trkpt><trkpt lat="44.5388683" lon="8.01197"><ele>599.4</ele><time>2026-04-12T12:38:23.44Z</time></trkpt><trkpt lat="44.5388567" lon="8.011845"><ele>598.0</ele><time>2026-04-12T12:38:24.44Z</time></trkpt><trkpt lat="44.5388467" lon="8.011725"><ele>597.3333333333334</ele><time>2026-04-12T12:38:25.44Z</time></trkpt><trkpt lat="44.53884" lon="8.01161"><ele>596.6666666666667</ele><time>2026-04-12T12:38:26.441Z</time></trkpt><trkpt lat="44.53884" lon="8.0114967"><ele>596.0</ele><time>2026-04-12T12:38:27.44Z</time></trkpt><trkpt lat="44.5388367" lon="8.01139"><ele>595.3333333333334</ele><time>2026-04-12T12:38:28.441Z</time></trkpt><trkpt lat="44.5388317" lon="8.0112917"><ele>594.6666666666666</ele><time>2026-04-12T12:38:29.44Z</time></trkpt><trkpt lat="44.53879" lon="8.0111367"><ele>594.0</ele><time>2026-04-12T12:38:31.44Z</time></trkpt><trkpt lat="44.5387433" lon="8.0110033"><ele>594.3333333333334</ele><time>2026-04-12T12:38:33.44Z</time></trkpt><trkpt lat="44.5387133" lon="8.0108983"><ele>594.6666666666666</ele><time>2026-04-12T12:38:35.44Z</time></trkpt><trkpt lat="44.5386817" lon="8.0108183"><ele>595.0</ele><time>2026-04-12T12:38:37.44Z</time></trkpt><trkpt lat="44.5386567" lon="8.010725"><ele>595.3333333333333</ele><time>2026-04-12T12:38:39.44Z</time></trkpt><trkpt lat="44.5386183" lon="8.01056"><ele>595.6666666666666</ele><time>2026-04-12T12:38:42.44Z</time></trkpt><trkpt lat="44.5385933" lon="8.0104617"><ele>596.0</ele><time>2026-04-12T12:38:44.44Z</time></trkpt><trkpt lat="44.5385683" lon="8.0103583"><ele>596.0</ele><time>2026-04-12T12:38:46.44Z</time></trkpt><trkpt lat="44.5385467" lon="8.010225"><ele>596.0</ele><time>2026-04-12T12:38:49.44Z</time></trkpt><trkpt lat="44.538515" lon="8.010145"><ele>596.0</ele><time>2026-04-12T12:38:51.44Z</time></trkpt><trkpt lat="44.5384667" lon="8.0100317"><ele>596.0</ele><time>2026-04-12T12:38:54.44Z</time></trkpt><trkpt lat="44.538425" lon="8.0099417"><ele>596.0</ele><time>2026-04-12T12:38:56.44Z</time></trkpt><trkpt lat="44.5383667" lon="8.0098483"><ele>596.0</ele><time>2026-04-12T12:38:58.44Z</time></trkpt><trkpt lat="44.5382933" lon="8.0097467"><ele>594.5</ele><time>2026-04-12T12:39:00.44Z</time></trkpt><trkpt lat="44.5382267" lon="8.0096817"><ele>593.0</ele><time>2026-04-12T12:39:02.44Z</time></trkpt><trkpt lat="44.538175" lon="8.0095933"><ele>591.5</ele><time>2026-04-12T12:39:04.44Z</time></trkpt><trkpt lat="44.5381233" lon="8.0095033"><ele>590.0</ele><time>2026-04-12T12:39:06.44Z</time></trkpt><trkpt lat="44.5381" lon="8.0094017"><ele>588.5</ele><time>2026-04-12T12:39:08.44Z</time></trkpt><trkpt lat="44.5380867" lon="8.00927"><ele>587.0</ele><time>2026-04-12T12:39:10.44Z</time></trkpt><trkpt lat="44.5380833" lon="8.0091067"><ele>585.0</ele><time>2026-04-12T12:39:12.44Z</time></trkpt><trkpt lat="44.5380767" lon="8.0089517"><ele>583.0</ele><time>2026-04-12T12:39:14.44Z</time></trkpt><trkpt lat="44.5380683" lon="8.0088233"><ele>581.0</ele><time>2026-04-12T12:39:16.44Z</time></trkpt><trkpt lat="44.5380617" lon="8.008685"><ele>579.0</ele><time>2026-04-12T12:39:18.441Z</time></trkpt><trkpt lat="44.5380583" lon="8.0085333"><ele>577.0</ele><time>2026-04-12T12:39:20.44Z</time></trkpt><trkpt lat="44.5380483" lon="8.0084383"><ele>577.0</ele><time>2026-04-12T12:39:21.44Z</time></trkpt><trkpt lat="44.5380267" lon="8.0083383"><ele>577.0</ele><time>2026-04-12T12:39:22.44Z</time></trkpt><trkpt lat="44.5379983" lon="8.00823"><ele>577.0</ele><time>2026-04-12T12:39:23.44Z</time></trkpt><trkpt lat="44.53796" lon="8.0081233"><ele>577.0</ele><time>2026-04-12T12:39:24.44Z</time></trkpt><trkpt lat="44.53792" lon="8.0080133"><ele>577.0</ele><time>2026-04-12T12:39:25.44Z</time></trkpt><trkpt lat="44.5378717" lon="8.0079033"><ele>577.0</ele><time>2026-04-12T12:39:26.44Z</time></trkpt><trkpt lat="44.5378283" lon="8.0077883"><ele>575.4</ele><time>2026-04-12T12:39:27.44Z</time></trkpt><trkpt lat="44.5377867" lon="8.0076733"><ele>573.8000000000001</ele><time>2026-04-12T12:39:28.44Z</time></trkpt><trkpt lat="44.5377483" lon="8.007555"><ele>572.2</ele><time>2026-04-12T12:39:29.44Z</time></trkpt><trkpt lat="44.537715" lon="8.00743"><ele>570.6</ele><time>2026-04-12T12:39:30.44Z</time></trkpt><trkpt lat="44.5376983" lon="8.0073033"><ele>569.0</ele><time>2026-04-12T12:39:31.44Z</time></trkpt><trkpt lat="44.537685" lon="8.0071733"><ele>568.8</ele><time>2026-04-12T12:39:32.44Z</time></trkpt><trkpt lat="44.53768" lon="8.0070433"><ele>568.5999999999999</ele><time>2026-04-12T12:39:33.44Z</time></trkpt><trkpt lat="44.5376767" lon="8.0069033"><ele>568.4</ele><time>2026-04-12T12:39:34.44Z</time></trkpt><trkpt lat="44.5376667" lon="8.0067683"><ele>568.1999999999999</ele><time>2026-04-12T12:39:35.44Z</time></trkpt><trkpt lat="44.537655" lon="8.0066167"><ele>568.0</ele><time>2026-04-12T12:39:36.44Z</time></trkpt><trkpt lat="44.5376417" lon="8.0064733"><ele>567.0</ele><time>2026-04-12T12:39:37.44Z</time></trkpt><trkpt lat="44.5376217" lon="8.0063317"><ele>566.0</ele><time>2026-04-12T12:39:38.44Z</time></trkpt><trkpt lat="44.5376017" lon="8.0061867"><ele>565.0</ele><time>2026-04-12T12:39:39.44Z</time></trkpt><trkpt lat="44.5375867" lon="8.0060483"><ele>564.0</ele><time>2026-04-12T12:39:40.441Z</time></trkpt><trkpt lat="44.5375733" lon="8.005915"><ele>563.0</ele><time>2026-04-12T12:39:41.44Z</time></trkpt><trkpt lat="44.5375583" lon="8.0057817"><ele>562.6666666666666</ele><time>2026-04-12T12:39:42.44Z</time></trkpt><trkpt lat="44.5375317" lon="8.0056533"><ele>562.3333333333333</ele><time>2026-04-12T12:39:43.44Z</time></trkpt><trkpt lat="44.537495" lon="8.00553"><ele>562.0</ele><time>2026-04-12T12:39:44.44Z</time></trkpt><trkpt lat="44.5374567" lon="8.0054217"><ele>561.6666666666666</ele><time>2026-04-12T12:39:45.441Z</time></trkpt><trkpt lat="44.537415" lon="8.0053383"><ele>561.3333333333334</ele><time>2026-04-12T12:39:46.44Z</time></trkpt><trkpt lat="44.5373467" lon="8.0052367"><ele>561.0</ele><time>2026-04-12T12:39:48.44Z</time></trkpt><trkpt lat="44.53727" lon="8.00517"><ele>561.0</ele><time>2026-04-12T12:39:50.44Z</time></trkpt><trkpt lat="44.53719" lon="8.00518"><ele>561.0</ele><time>2026-04-12T12:39:52.44Z</time></trkpt><trkpt lat="44.5371467" lon="8.00528"><ele>561.0</ele><time>2026-04-12T12:39:54.44Z</time></trkpt><trkpt lat="44.5371383" lon="8.00544"><ele>561.0</ele><time>2026-04-12T12:39:56.44Z</time></trkpt><trkpt lat="44.537135" lon="8.0055283"><ele>561.0</ele><time>2026-04-12T12:39:57.44Z</time></trkpt><trkpt lat="44.5371317" lon="8.0056233"><ele>561.0</ele><time>2026-04-12T12:39:58.44Z</time></trkpt><trkpt lat="44.5371267" lon="8.00572"><ele>561.0</ele><time>2026-04-12T12:39:59.44Z</time></trkpt><trkpt lat="44.5371217" lon="8.00582"><ele>561.0</ele><time>2026-04-12T12:40:00.44Z</time></trkpt><trkpt lat="44.537115" lon="8.0059167"><ele>561.0</ele><time>2026-04-12T12:40:01.44Z</time></trkpt><trkpt lat="44.5371083" lon="8.00602"><ele>561.0</ele><time>2026-04-12T12:40:02.44Z</time></trkpt><trkpt lat="44.5371" lon="8.006125"><ele>561.0</ele><time>2026-04-12T12:40:03.44Z</time></trkpt><trkpt lat="44.537095" lon="8.0062217"><ele>561.0</ele><time>2026-04-12T12:40:04.44Z</time></trkpt><trkpt lat="44.5370883" lon="8.0063167"><ele>561.0</ele><time>2026-04-12T12:40:05.44Z</time></trkpt><trkpt lat="44.537085" lon="8.0064083"><ele>561.3333333333334</ele><time>2026-04-12T12:40:06.44Z</time></trkpt><trkpt lat="44.537085" lon="8.0065083"><ele>561.6666666666666</ele><time>2026-04-12T12:40:07.44Z</time></trkpt><trkpt lat="44.537085" lon="8.00661"><ele>562.0</ele><time>2026-04-12T12:40:08.441Z</time></trkpt><trkpt lat="44.5370917" lon="8.0067133"><ele>562.3333333333333</ele><time>2026-04-12T12:40:09.44Z</time></trkpt><trkpt lat="44.537105" lon="8.00683"><ele>562.6666666666666</ele><time>2026-04-12T12:40:10.44Z</time></trkpt><trkpt lat="44.5371133" lon="8.0069383"><ele>563.0</ele><time>2026-04-12T12:40:11.44Z</time></trkpt><trkpt lat="44.5371217" lon="8.00704"><ele>563.8333333333333</ele><time>2026-04-12T12:40:12.44Z</time></trkpt><trkpt lat="44.5371267" lon="8.0071433"><ele>564.6666666666666</ele><time>2026-04-12T12:40:13.44Z</time></trkpt><trkpt lat="44.537125" lon="8.0072517"><ele>565.5</ele><time>2026-04-12T12:40:14.44Z</time></trkpt><trkpt lat="44.5371133" lon="8.0073583"><ele>566.3333333333334</ele><time>2026-04-12T12:40:15.44Z</time></trkpt><trkpt lat="44.5371133" lon="8.00747"><ele>567.1666666666667</ele><time>2026-04-12T12:40:16.44Z</time></trkpt><trkpt lat="44.5371083" lon="8.0075933"><ele>568.0</ele><time>2026-04-12T12:40:17.44Z</time></trkpt><trkpt lat="44.5371167" lon="8.00772"><ele>568.1999999999999</ele><time>2026-04-12T12:40:18.44Z</time></trkpt><trkpt lat="44.5371317" lon="8.007845"><ele>568.4</ele><time>2026-04-12T12:40:19.44Z</time></trkpt><trkpt lat="44.5371433" lon="8.007975"><ele>568.5999999999999</ele><time>2026-04-12T12:40:20.44Z</time></trkpt><trkpt lat="44.5371483" lon="8.0080983"><ele>568.8</ele><time>2026-04-12T12:40:21.44Z</time></trkpt><trkpt lat="44.537135" lon="8.0082367"><ele>569.0</ele><time>2026-04-12T12:40:22.44Z</time></trkpt><trkpt lat="44.5371183" lon="8.0083683"><ele>569.0</ele><time>2026-04-12T12:40:23.44Z</time></trkpt><trkpt lat="44.5371067" lon="8.0085083"><ele>569.0</ele><time>2026-04-12T12:40:24.44Z</time></trkpt><trkpt lat="44.5370917" lon="8.0086617"><ele>569.0</ele><time>2026-04-12T12:40:25.44Z</time></trkpt><trkpt lat="44.53707" lon="8.0088033"><ele>569.0</ele><time>2026-04-12T12:40:26.44Z</time></trkpt><trkpt lat="44.5370567" lon="8.0089417"><ele>569.0</ele><time>2026-04-12T12:40:27.44Z</time></trkpt><trkpt lat="44.5370417" lon="8.00908"><ele>562.2</ele><time>2026-04-12T12:40:28.44Z</time></trkpt><trkpt lat="44.5370367" lon="8.00922"><ele>555.4</ele><time>2026-04-12T12:40:29.44Z</time></trkpt><trkpt lat="44.537035" lon="8.0093667"><ele>548.6</ele><time>2026-04-12T12:40:30.44Z</time></trkpt><trkpt lat="44.537035" lon="8.0095233"><ele>541.8</ele><time>2026-04-12T12:40:31.44Z</time></trkpt><trkpt lat="44.53704" lon="8.0096783"><ele>535.0</ele><time>2026-04-12T12:40:32.44Z</time></trkpt><trkpt lat="44.5370467" lon="8.00983"><ele>535.0</ele><time>2026-04-12T12:40:33.44Z</time></trkpt><trkpt lat="44.5370517" lon="8.0099767"><ele>535.0</ele><time>2026-04-12T12:40:34.44Z</time></trkpt><trkpt lat="44.537065" lon="8.0101117"><ele>535.0</ele><time>2026-04-12T12:40:35.44Z</time></trkpt><trkpt lat="44.537075" lon="8.01024"><ele>535.0</ele><time>2026-04-12T12:40:36.44Z</time></trkpt><trkpt lat="44.5370917" lon="8.01036"><ele>535.0</ele><time>2026-04-12T12:40:37.441Z</time></trkpt><trkpt lat="44.5371233" lon="8.0104883"><ele>534.1666666666667</ele><time>2026-04-12T12:40:38.44Z</time></trkpt><trkpt lat="44.537135" lon="8.0106233"><ele>533.3333333333334</ele><time>2026-04-12T12:40:39.44Z</time></trkpt><trkpt lat="44.5371267" lon="8.010755"><ele>532.5</ele><time>2026-04-12T12:40:40.44Z</time></trkpt><trkpt lat="44.5371117" lon="8.0108683"><ele>531.6666666666666</ele><time>2026-04-12T12:40:41.44Z</time></trkpt><trkpt lat="44.537085" lon="8.010965"><ele>530.8333333333333</ele><time>2026-04-12T12:40:42.44Z</time></trkpt><trkpt lat="44.53707" lon="8.0110583"><ele>530.0</ele><time>2026-04-12T12:40:43.44Z</time></trkpt><trkpt lat="44.5370233" lon="8.011145"><ele>530.0</ele><time>2026-04-12T12:40:44.44Z</time></trkpt><trkpt lat="44.5369717" lon="8.0112267"><ele>530.0</ele><time>2026-04-12T12:40:45.44Z</time></trkpt><trkpt lat="44.536905" lon="8.011305"><ele>530.0</ele><time>2026-04-12T12:40:46.44Z</time></trkpt><trkpt lat="44.5368267" lon="8.0113717"><ele>530.0</ele><time>2026-04-12T12:40:47.44Z</time></trkpt><trkpt lat="44.53675" lon="8.0114333"><ele>530.0</ele><time>2026-04-12T12:40:48.44Z</time></trkpt><trkpt lat="44.53668" lon="8.0114717"><ele>530.0</ele><time>2026-04-12T12:40:49.441Z</time></trkpt><trkpt lat="44.5365983" lon="8.0115483"><ele>530.0</ele><time>2026-04-12T12:40:51.44Z</time></trkpt><trkpt lat="44.5365483" lon="8.0116533"><ele>530.0</ele><time>2026-04-12T12:40:54.44Z</time></trkpt><trkpt lat="44.53656" lon="8.011745"><ele>530.0</ele><time>2026-04-12T12:40:56.44Z</time></trkpt><trkpt lat="44.5366133" lon="8.01187"><ele>530.0</ele><time>2026-04-12T12:40:58.44Z</time></trkpt><trkpt lat="44.53668" lon="8.01202"><ele>530.0</ele><time>2026-04-12T12:41:00.44Z</time></trkpt><trkpt lat="44.5367233" lon="8.0121083"><ele>529.0</ele><time>2026-04-12T12:41:01.44Z</time></trkpt><trkpt lat="44.5367633" lon="8.0121917"><ele>528.0</ele><time>2026-04-12T12:41:02.44Z</time></trkpt><trkpt lat="44.536805" lon="8.0122767"><ele>527.0</ele><time>2026-04-12T12:41:03.44Z</time></trkpt><trkpt lat="44.536845" lon="8.0123583"><ele>526.0</ele><time>2026-04-12T12:41:04.44Z</time></trkpt><trkpt lat="44.5369217" lon="8.01251"><ele>525.0</ele><time>2026-04-12T12:41:06.44Z</time></trkpt><trkpt lat="44.5369883" lon="8.0126733"><ele>524.4285714285714</ele><time>2026-04-12T12:41:08.44Z</time></trkpt><trkpt lat="44.537025" lon="8.0127583"><ele>523.8571428571429</ele><time>2026-04-12T12:41:09.441Z</time></trkpt><trkpt lat="44.53705" lon="8.012845"><ele>523.2857142857142</ele><time>2026-04-12T12:41:10.44Z</time></trkpt><trkpt lat="44.5370717" lon="8.0129417"><ele>522.7142857142858</ele><time>2026-04-12T12:41:11.44Z</time></trkpt><trkpt lat="44.537085" lon="8.0130383"><ele>522.1428571428571</ele><time>2026-04-12T12:41:12.44Z</time></trkpt><trkpt lat="44.5370833" lon="8.0131367"><ele>521.5714285714286</ele><time>2026-04-12T12:41:13.44Z</time></trkpt><trkpt lat="44.5370767" lon="8.0132417"><ele>521.0</ele><time>2026-04-12T12:41:14.44Z</time></trkpt><trkpt lat="44.5370533" lon="8.0133333"><ele>520.4285714285714</ele><time>2026-04-12T12:41:15.44Z</time></trkpt><trkpt lat="44.5370317" lon="8.013425"><ele>519.8571428571429</ele><time>2026-04-12T12:41:16.44Z</time></trkpt><trkpt lat="44.53701" lon="8.0135117"><ele>519.2857142857143</ele><time>2026-04-12T12:41:17.44Z</time></trkpt><trkpt lat="44.5369817" lon="8.013605"><ele>518.7142857142858</ele><time>2026-04-12T12:41:18.44Z</time></trkpt><trkpt lat="44.53695" lon="8.0137"><ele>518.1428571428572</ele><time>2026-04-12T12:41:19.44Z</time></trkpt><trkpt lat="44.53692" lon="8.0137917"><ele>517.5714285714286</ele><time>2026-04-12T12:41:20.44Z</time></trkpt><trkpt lat="44.536895" lon="8.0138867"><ele>517.0</ele><time>2026-04-12T12:41:21.44Z</time></trkpt><trkpt lat="44.5368583" lon="8.0139833"><ele>517.0</ele><time>2026-04-12T12:41:22.44Z</time></trkpt><trkpt lat="44.536825" lon="8.0140833"><ele>517.0</ele><time>2026-04-12T12:41:23.441Z</time></trkpt><trkpt lat="44.5367883" lon="8.01417"><ele>517.0</ele><time>2026-04-12T12:41:24.44Z</time></trkpt><trkpt lat="44.5367467" lon="8.01425"><ele>517.0</ele><time>2026-04-12T12:41:25.44Z</time></trkpt><trkpt lat="44.5366817" lon="8.0143033"><ele>517.0</ele><time>2026-04-12T12:41:26.44Z</time></trkpt><trkpt lat="44.5366067" lon="8.0143383"><ele>517.0</ele><time>2026-04-12T12:41:27.44Z</time></trkpt><trkpt lat="44.5365317" lon="8.0143517"><ele>517.1428571428571</ele><time>2026-04-12T12:41:28.44Z</time></trkpt><trkpt lat="44.5364567" lon="8.01434"><ele>517.2857142857143</ele><time>2026-04-12T12:41:29.44Z</time></trkpt><trkpt lat="44.5363833" lon="8.01432"><ele>517.4285714285714</ele><time>2026-04-12T12:41:30.44Z</time></trkpt><trkpt lat="44.5363133" lon="8.0142983"><ele>517.5714285714286</ele><time>2026-04-12T12:41:31.44Z</time></trkpt><trkpt lat="44.536245" lon="8.0142717"><ele>517.7142857142858</ele><time>2026-04-12T12:41:32.44Z</time></trkpt><trkpt lat="44.53617" lon="8.0142517"><ele>517.8571428571429</ele><time>2026-04-12T12:41:33.44Z</time></trkpt><trkpt lat="44.536105" lon="8.014225"><ele>518.0</ele><time>2026-04-12T12:41:34.44Z</time></trkpt><trkpt lat="44.5360433" lon="8.0141917"><ele>516.75</ele><time>2026-04-12T12:41:35.44Z</time></trkpt><trkpt lat="44.5359383" lon="8.01411"><ele>515.5</ele><time>2026-04-12T12:41:37.44Z</time></trkpt><trkpt lat="44.5358617" lon="8.014"><ele>514.25</ele><time>2026-04-12T12:41:39.44Z</time></trkpt><trkpt lat="44.5358" lon="8.01387"><ele>513.0</ele><time>2026-04-12T12:41:41.44Z</time></trkpt><trkpt lat="44.53574" lon="8.0137417"><ele>513.0</ele><time>2026-04-12T12:41:43.44Z</time></trkpt><trkpt lat="44.535665" lon="8.0136333"><ele>513.0</ele><time>2026-04-12T12:41:45.44Z</time></trkpt><trkpt lat="44.53558" lon="8.0135517"><ele>513.0</ele><time>2026-04-12T12:41:47.44Z</time></trkpt><trkpt lat="44.5354967" lon="8.0134967"><ele>513.0</ele><time>2026-04-12T12:41:49.44Z</time></trkpt><trkpt lat="44.5354117" lon="8.0134417"><ele>513.0</ele><time>2026-04-12T12:41:51.44Z</time></trkpt><trkpt lat="44.5353283" lon="8.0133917"><ele>512.6666666666666</ele><time>2026-04-12T12:41:53.441Z</time></trkpt><trkpt lat="44.5352467" lon="8.0133467"><ele>512.3333333333334</ele><time>2026-04-12T12:41:55.44Z</time></trkpt><trkpt lat="44.5351633" lon="8.0133083"><ele>512.0</ele><time>2026-04-12T12:41:57.44Z</time></trkpt><trkpt lat="44.5350767" lon="8.01327"><ele>511.6666666666667</ele><time>2026-04-12T12:41:59.441Z</time></trkpt><trkpt lat="44.53499" lon="8.0132367"><ele>511.33333333333337</ele><time>2026-04-12T12:42:01.44Z</time></trkpt><trkpt lat="44.5349067" lon="8.0132"><ele>511.0</ele><time>2026-04-12T12:42:03.44Z</time></trkpt><trkpt lat="44.5348267" lon="8.013175"><ele>511.00000000000006</ele><time>2026-04-12T12:42:05.44Z</time></trkpt><trkpt lat="44.5347433" lon="8.0131617"><ele>511.0</ele><time>2026-04-12T12:42:07.44Z</time></trkpt><trkpt lat="44.534665" lon="8.013145"><ele>511.0</ele><time>2026-04-12T12:42:09.44Z</time></trkpt><trkpt lat="44.5345833" lon="8.0131367"><ele>511.0</ele><time>2026-04-12T12:42:11.44Z</time></trkpt><trkpt lat="44.534505" lon="8.0131217"><ele>511.00000000000006</ele><time>2026-04-12T12:42:13.44Z</time></trkpt><trkpt lat="44.5344167" lon="8.0131117"><ele>511.0</ele><time>2026-04-12T12:42:15.44Z</time></trkpt><trkpt lat="44.5343283" lon="8.0131"><ele>512.8333333333334</ele><time>2026-04-12T12:42:17.44Z</time></trkpt><trkpt lat="44.5342467" lon="8.0130883"><ele>514.6666666666667</ele><time>2026-04-12T12:42:19.44Z</time></trkpt><trkpt lat="44.5341617" lon="8.01308"><ele>516.5</ele><time>2026-04-12T12:42:21.44Z</time></trkpt><trkpt lat="44.5340783" lon="8.0130667"><ele>518.3333333333334</ele><time>2026-04-12T12:42:23.44Z</time></trkpt><trkpt lat="44.5339933" lon="8.0130667"><ele>520.1666666666666</ele><time>2026-04-12T12:42:25.44Z</time></trkpt><trkpt lat="44.53391" lon="8.013065"><ele>522.0</ele><time>2026-04-12T12:42:27.44Z</time></trkpt><trkpt lat="44.5338333" lon="8.0130567"><ele>522.0</ele><time>2026-04-12T12:42:29.44Z</time></trkpt><trkpt lat="44.533755" lon="8.0130467"><ele>522.0</ele><time>2026-04-12T12:42:31.44Z</time></trkpt><trkpt lat="44.5336683" lon="8.0130333"><ele>522.0</ele><time>2026-04-12T12:42:33.44Z</time></trkpt><trkpt lat="44.5335817" lon="8.0130317"><ele>522.0</ele><time>2026-04-12T12:42:35.44Z</time></trkpt><trkpt lat="44.5334983" lon="8.0130217"><ele>522.0</ele><time>2026-04-12T12:42:37.44Z</time></trkpt><trkpt lat="44.53341" lon="8.0130033"><ele>522.0</ele><time>2026-04-12T12:42:39.44Z</time></trkpt><trkpt lat="44.533325" lon="8.0129683"><ele>522.6666666666666</ele><time>2026-04-12T12:42:41.44Z</time></trkpt><trkpt lat="44.5332383" lon="8.012945"><ele>523.3333333333334</ele><time>2026-04-12T12:42:43.44Z</time></trkpt><trkpt lat="44.5331533" lon="8.0129217"><ele>524.0</ele><time>2026-04-12T12:42:45.44Z</time></trkpt><trkpt lat="44.5330683" lon="8.0129017"><ele>524.6666666666667</ele><time>2026-04-12T12:42:47.44Z</time></trkpt><trkpt lat="44.532985" lon="8.0128817"><ele>525.3333333333334</ele><time>2026-04-12T12:42:49.44Z</time></trkpt><trkpt lat="44.532895" lon="8.0128683"><ele>526.0</ele><time>2026-04-12T12:42:51.44Z</time></trkpt><trkpt lat="44.5328133" lon="8.0128517"><ele>527.6666666666667</ele><time>2026-04-12T12:42:53.44Z</time></trkpt><trkpt lat="44.53273" lon="8.01286"><ele>529.3333333333334</ele><time>2026-04-12T12:42:55.44Z</time></trkpt><trkpt lat="44.53264" lon="8.01287"><ele>531.0</ele><time>2026-04-12T12:42:57.44Z</time></trkpt><trkpt lat="44.5325533" lon="8.0128783"><ele>532.6666666666666</ele><time>2026-04-12T12:42:59.44Z</time></trkpt><trkpt lat="44.53246" lon="8.0128817"><ele>534.3333333333333</ele><time>2026-04-12T12:43:01.44Z</time></trkpt><trkpt lat="44.532375" lon="8.0128717"><ele>536.0</ele><time>2026-04-12T12:43:03.44Z</time></trkpt><trkpt lat="44.5322867" lon="8.0128383"><ele>536.0</ele><time>2026-04-12T12:43:05.44Z</time></trkpt><trkpt lat="44.532215" lon="8.012805"><ele>536.0</ele><time>2026-04-12T12:43:07.44Z</time></trkpt><trkpt lat="44.532145" lon="8.0127583"><ele>536.0</ele><time>2026-04-12T12:43:09.44Z</time></trkpt><trkpt lat="44.5320783" lon="8.012705"><ele>536.0</ele><time>2026-04-12T12:43:11.44Z</time></trkpt><trkpt lat="44.5320167" lon="8.01265"><ele>536.0</ele><time>2026-04-12T12:43:13.44Z</time></trkpt><trkpt lat="44.5319483" lon="8.0125983"><ele>536.0</ele><time>2026-04-12T12:43:15.44Z</time></trkpt><trkpt lat="44.53188" lon="8.012525"><ele>537.3333333333333</ele><time>2026-04-12T12:43:17.44Z</time></trkpt><trkpt lat="44.5318267" lon="8.0124583"><ele>538.6666666666666</ele><time>2026-04-12T12:43:19.44Z</time></trkpt><trkpt lat="44.531775" lon="8.012385"><ele>540.0</ele><time>2026-04-12T12:43:21.44Z</time></trkpt><trkpt lat="44.53174" lon="8.0123033"><ele>541.3333333333334</ele><time>2026-04-12T12:43:23.44Z</time></trkpt><trkpt lat="44.5317117" lon="8.0122"><ele>542.6666666666667</ele><time>2026-04-12T12:43:25.44Z</time></trkpt><trkpt lat="44.5316967" lon="8.012085"><ele>544.0</ele><time>2026-04-12T12:43:27.44Z</time></trkpt><trkpt lat="44.5316817" lon="8.01197"><ele>544.0</ele><time>2026-04-12T12:43:29.44Z</time></trkpt><trkpt lat="44.5316633" lon="8.0118583"><ele>544.0</ele><time>2026-04-12T12:43:31.44Z</time></trkpt><trkpt lat="44.53164" lon="8.0117417"><ele>544.0</ele><time>2026-04-12T12:43:33.441Z</time></trkpt><trkpt lat="44.5316117" lon="8.0116433"><ele>544.0</ele><time>2026-04-12T12:43:35.44Z</time></trkpt><trkpt lat="44.5315883" lon="8.011515"><ele>544.0</ele><time>2026-04-12T12:43:37.44Z</time></trkpt><trkpt lat="44.5315467" lon="8.0113817"><ele>544.0</ele><time>2026-04-12T12:43:39.44Z</time></trkpt><trkpt lat="44.531505" lon="8.01125"><ele>543.4</ele><time>2026-04-12T12:43:41.44Z</time></trkpt><trkpt lat="44.5314517" lon="8.011125"><ele>542.8</ele><time>2026-04-12T12:43:43.441Z</time></trkpt><trkpt lat="44.53141" lon="8.011005"><ele>542.2</ele><time>2026-04-12T12:43:45.44Z</time></trkpt><trkpt lat="44.531375" lon="8.0108817"><ele>541.6</ele><time>2026-04-12T12:43:47.44Z</time></trkpt><trkpt lat="44.53134" lon="8.0107467"><ele>541.0</ele><time>2026-04-12T12:43:49.44Z</time></trkpt><trkpt lat="44.5313167" lon="8.010615"><ele>540.0</ele><time>2026-04-12T12:43:51.44Z</time></trkpt><trkpt lat="44.53131" lon="8.010485"><ele>539.0</ele><time>2026-04-12T12:43:53.44Z</time></trkpt><trkpt lat="44.53131" lon="8.010355"><ele>538.0</ele><time>2026-04-12T12:43:55.44Z</time></trkpt><trkpt lat="44.5312917" lon="8.0102167"><ele>537.0</ele><time>2026-04-12T12:43:57.44Z</time></trkpt><trkpt lat="44.5312667" lon="8.0100767"><ele>536.0</ele><time>2026-04-12T12:43:59.441Z</time></trkpt><trkpt lat="44.5312383" lon="8.009915"><ele>537.6666666666666</ele><time>2026-04-12T12:44:01.44Z</time></trkpt><trkpt lat="44.5312133" lon="8.009745"><ele>539.3333333333333</ele><time>2026-04-12T12:44:03.44Z</time></trkpt><trkpt lat="44.53119" lon="8.0096567"><ele>541.0</ele><time>2026-04-12T12:44:04.44Z</time></trkpt><trkpt lat="44.5311633" lon="8.0095683"><ele>542.6666666666666</ele><time>2026-04-12T12:44:05.44Z</time></trkpt><trkpt lat="44.5311267" lon="8.0094817"><ele>544.3333333333334</ele><time>2026-04-12T12:44:06.44Z</time></trkpt><trkpt lat="44.5310733" lon="8.0094033"><ele>546.0</ele><time>2026-04-12T12:44:07.44Z</time></trkpt><trkpt lat="44.53103" lon="8.0093167"><ele>546.0</ele><time>2026-04-12T12:44:08.44Z</time></trkpt><trkpt lat="44.5309917" lon="8.009225"><ele>546.0</ele><time>2026-04-12T12:44:09.44Z</time></trkpt><trkpt lat="44.5309467" lon="8.009135"><ele>546.0</ele><time>2026-04-12T12:44:10.44Z</time></trkpt><trkpt lat="44.5309067" lon="8.0090433"><ele>546.0</ele><time>2026-04-12T12:44:11.44Z</time></trkpt><trkpt lat="44.5308717" lon="8.00895"><ele>546.0</ele><time>2026-04-12T12:44:12.44Z</time></trkpt><trkpt lat="44.5308433" lon="8.0088533"><ele>546.0</ele><time>2026-04-12T12:44:13.44Z</time></trkpt><trkpt lat="44.5308233" lon="8.00875"><ele>545.1666666666666</ele><time>2026-04-12T12:44:14.44Z</time></trkpt><trkpt lat="44.5308067" lon="8.0086483"><ele>544.3333333333334</ele><time>2026-04-12T12:44:15.44Z</time></trkpt><trkpt lat="44.5307883" lon="8.0085383"><ele>543.5</ele><time>2026-04-12T12:44:16.44Z</time></trkpt><trkpt lat="44.5307733" lon="8.0084317"><ele>542.6666666666667</ele><time>2026-04-12T12:44:17.44Z</time></trkpt><trkpt lat="44.5307583" lon="8.00833"><ele>541.8333333333334</ele><time>2026-04-12T12:44:18.44Z</time></trkpt><trkpt lat="44.53074" lon="8.00823"><ele>541.0</ele><time>2026-04-12T12:44:19.44Z</time></trkpt><trkpt lat="44.530715" lon="8.0081333"><ele>539.6666666666667</ele><time>2026-04-12T12:44:20.44Z</time></trkpt><trkpt lat="44.5306817" lon="8.0080433"><ele>538.3333333333334</ele><time>2026-04-12T12:44:21.44Z</time></trkpt><trkpt lat="44.5306533" lon="8.007955"><ele>537.0</ele><time>2026-04-12T12:44:22.44Z</time></trkpt><trkpt lat="44.5306283" lon="8.00787"><ele>535.6666666666666</ele><time>2026-04-12T12:44:23.44Z</time></trkpt><trkpt lat="44.5305983" lon="8.00779"><ele>534.3333333333333</ele><time>2026-04-12T12:44:24.44Z</time></trkpt><trkpt lat="44.5305367" lon="8.0076317"><ele>533.0</ele><time>2026-04-12T12:44:26.44Z</time></trkpt><trkpt lat="44.5305" lon="8.0075567"><ele>533.4285714285714</ele><time>2026-04-12T12:44:27.44Z</time></trkpt><trkpt lat="44.5304617" lon="8.0074833"><ele>533.8571428571428</ele><time>2026-04-12T12:44:28.44Z</time></trkpt><trkpt lat="44.5303933" lon="8.0073467"><ele>534.2857142857142</ele><time>2026-04-12T12:44:30.44Z</time></trkpt><trkpt lat="44.5303533" lon="8.0072767"><ele>534.7142857142857</ele><time>2026-04-12T12:44:31.44Z</time></trkpt><trkpt lat="44.5303067" lon="8.007205"><ele>535.1428571428571</ele><time>2026-04-12T12:44:32.44Z</time></trkpt><trkpt lat="44.5302633" lon="8.0071383"><ele>535.5714285714286</ele><time>2026-04-12T12:44:33.44Z</time></trkpt><trkpt lat="44.5302133" lon="8.0070733"><ele>536.0</ele><time>2026-04-12T12:44:34.44Z</time></trkpt><trkpt lat="44.530165" lon="8.0070067"><ele>536.0</ele><time>2026-04-12T12:44:35.44Z</time></trkpt><trkpt lat="44.530115" lon="8.0069333"><ele>536.0</ele><time>2026-04-12T12:44:36.44Z</time></trkpt><trkpt lat="44.5300633" lon="8.0068667"><ele>536.0</ele><time>2026-04-12T12:44:37.44Z</time></trkpt><trkpt lat="44.53001" lon="8.006795"><ele>536.0</ele><time>2026-04-12T12:44:38.44Z</time></trkpt><trkpt lat="44.5299633" lon="8.0067183"><ele>536.0</ele><time>2026-04-12T12:44:39.44Z</time></trkpt><trkpt lat="44.5299083" lon="8.0066483"><ele>536.0</ele><time>2026-04-12T12:44:40.44Z</time></trkpt><trkpt lat="44.5298483" lon="8.006585"><ele>536.0</ele><time>2026-04-12T12:44:41.44Z</time></trkpt><trkpt lat="44.5297817" lon="8.0065233"><ele>535.6</ele><time>2026-04-12T12:44:42.44Z</time></trkpt><trkpt lat="44.52971" lon="8.0064833"><ele>535.2</ele><time>2026-04-12T12:44:43.44Z</time></trkpt><trkpt lat="44.5296367" lon="8.0064683"><ele>534.8</ele><time>2026-04-12T12:44:44.44Z</time></trkpt><trkpt lat="44.52956" lon="8.0064583"><ele>534.4</ele><time>2026-04-12T12:44:45.44Z</time></trkpt><trkpt lat="44.529485" lon="8.0064617"><ele>534.0</ele><time>2026-04-12T12:44:46.44Z</time></trkpt><trkpt lat="44.5293383" lon="8.0064733"><ele>534.0</ele><time>2026-04-12T12:44:48.44Z</time></trkpt><trkpt lat="44.52927" lon="8.0064683"><ele>534.0</ele><time>2026-04-12T12:44:49.44Z</time></trkpt><trkpt lat="44.5292017" lon="8.0064383"><ele>534.0</ele><time>2026-04-12T12:44:50.44Z</time></trkpt><trkpt lat="44.5291317" lon="8.00639"><ele>534.0</ele><time>2026-04-12T12:44:51.44Z</time></trkpt><trkpt lat="44.5290633" lon="8.0063267"><ele>534.0</ele><time>2026-04-12T12:44:52.44Z</time></trkpt><trkpt lat="44.529005" lon="8.0062567"><ele>534.0</ele><time>2026-04-12T12:44:53.44Z</time></trkpt><trkpt lat="44.52895" lon="8.00618"><ele>534.0000000000001</ele><time>2026-04-12T12:44:54.441Z</time></trkpt><trkpt lat="44.5288967" lon="8.0061067"><ele>534.0</ele><time>2026-04-12T12:44:55.44Z</time></trkpt><trkpt lat="44.5288517" lon="8.006025"><ele>534.0</ele><time>2026-04-12T12:44:56.44Z</time></trkpt><trkpt lat="44.5288017" lon="8.005945"><ele>534.0</ele><time>2026-04-12T12:44:57.44Z</time></trkpt><trkpt lat="44.52875" lon="8.0058683"><ele>534.0</ele><time>2026-04-12T12:44:58.44Z</time></trkpt><trkpt lat="44.5286967" lon="8.0058017"><ele>534.0000000000001</ele><time>2026-04-12T12:44:59.44Z</time></trkpt><trkpt lat="44.528645" lon="8.005735"><ele>534.0</ele><time>2026-04-12T12:45:00.44Z</time></trkpt><trkpt lat="44.5285933" lon="8.0056683"><ele>535.0</ele><time>2026-04-12T12:45:01.44Z</time></trkpt><trkpt lat="44.528545" lon="8.0056"><ele>536.0</ele><time>2026-04-12T12:45:02.44Z</time></trkpt><trkpt lat="44.5285017" lon="8.0055267"><ele>537.0</ele><time>2026-04-12T12:45:03.44Z</time></trkpt><trkpt lat="44.5284583" lon="8.0054583"><ele>538.0</ele><time>2026-04-12T12:45:04.44Z</time></trkpt><trkpt lat="44.5284133" lon="8.0053933"><ele>539.0</ele><time>2026-04-12T12:45:05.44Z</time></trkpt><trkpt lat="44.52833" lon="8.0052717"><ele>540.0</ele><time>2026-04-12T12:45:07.44Z</time></trkpt><trkpt lat="44.52824" lon="8.0051583"><ele>540.0</ele><time>2026-04-12T12:45:09.44Z</time></trkpt><trkpt lat="44.5281617" lon="8.005055"><ele>540.0</ele><time>2026-04-12T12:45:11.44Z</time></trkpt><trkpt lat="44.5280817" lon="8.0049733"><ele>540.0</ele><time>2026-04-12T12:45:13.44Z</time></trkpt><trkpt lat="44.5280017" lon="8.0048967"><ele>540.0</ele><time>2026-04-12T12:45:15.44Z</time></trkpt><trkpt lat="44.5279283" lon="8.0048267"><ele>540.0</ele><time>2026-04-12T12:45:17.44Z</time></trkpt><trkpt lat="44.5278667" lon="8.0047583"><ele>541.5</ele><time>2026-04-12T12:45:19.44Z</time></trkpt><trkpt lat="44.5278017" lon="8.0046867"><ele>543.0</ele><time>2026-04-12T12:45:21.44Z</time></trkpt><trkpt lat="44.5277417" lon="8.0046233"><ele>544.5</ele><time>2026-04-12T12:45:23.44Z</time></trkpt><trkpt lat="44.5276783" lon="8.0045583"><ele>546.0</ele><time>2026-04-12T12:45:25.441Z</time></trkpt><trkpt lat="44.527615" lon="8.0044933"><ele>547.5</ele><time>2026-04-12T12:45:27.44Z</time></trkpt><trkpt lat="44.5275583" lon="8.00443"><ele>549.0</ele><time>2026-04-12T12:45:29.44Z</time></trkpt><trkpt lat="44.5274967" lon="8.00437"><ele>549.0</ele><time>2026-04-12T12:45:31.44Z</time></trkpt><trkpt lat="44.5274383" lon="8.0043033"><ele>549.0</ele><time>2026-04-12T12:45:33.44Z</time></trkpt><trkpt lat="44.5273767" lon="8.0042383"><ele>549.0</ele><time>2026-04-12T12:45:35.44Z</time></trkpt><trkpt lat="44.5273233" lon="8.00417"><ele>549.0</ele><time>2026-04-12T12:45:37.44Z</time></trkpt><trkpt lat="44.52727" lon="8.0040933"><ele>549.0</ele><time>2026-04-12T12:45:39.44Z</time></trkpt><trkpt lat="44.5272133" lon="8.004015"><ele>549.0</ele><time>2026-04-12T12:45:41.44Z</time></trkpt><trkpt lat="44.5271533" lon="8.0039417"><ele>549.8333333333334</ele><time>2026-04-12T12:45:43.44Z</time></trkpt><trkpt lat="44.5271017" lon="8.0038733"><ele>550.6666666666666</ele><time>2026-04-12T12:45:45.44Z</time></trkpt><trkpt lat="44.527045" lon="8.0038133"><ele>551.5</ele><time>2026-04-12T12:45:47.44Z</time></trkpt><trkpt lat="44.5269833" lon="8.0037517"><ele>552.3333333333333</ele><time>2026-04-12T12:45:49.44Z</time></trkpt><trkpt lat="44.5269167" lon="8.0036933"><ele>553.1666666666666</ele><time>2026-04-12T12:45:51.44Z</time></trkpt><trkpt lat="44.5268467" lon="8.0036417"><ele>554.0</ele><time>2026-04-12T12:45:53.44Z</time></trkpt><trkpt lat="44.5267767" lon="8.0035917"><ele>554.0</ele><time>2026-04-12T12:45:55.44Z</time></trkpt><trkpt lat="44.5267033" lon="8.0035383"><ele>554.0</ele><time>2026-04-12T12:45:57.44Z</time></trkpt><trkpt lat="44.5266233" lon="8.0034933"><ele>554.0</ele><time>2026-04-12T12:45:59.44Z</time></trkpt><trkpt lat="44.5265433" lon="8.00345"><ele>554.0</ele><time>2026-04-12T12:46:01.44Z</time></trkpt><trkpt lat="44.5264617" lon="8.003405"><ele>554.0</ele><time>2026-04-12T12:46:03.44Z</time></trkpt><trkpt lat="44.5263867" lon="8.0033583"><ele>554.0</ele><time>2026-04-12T12:46:05.44Z</time></trkpt><trkpt lat="44.5262967" lon="8.003315"><ele>554.0</ele><time>2026-04-12T12:46:07.441Z</time></trkpt><trkpt lat="44.5262033" lon="8.00327"><ele>554.0</ele><time>2026-04-12T12:46:09.44Z</time></trkpt><trkpt lat="44.5261" lon="8.0032233"><ele>554.0</ele><time>2026-04-12T12:46:11.44Z</time></trkpt><trkpt lat="44.5259967" lon="8.0031717"><ele>554.0</ele><time>2026-04-12T12:46:13.44Z</time></trkpt><trkpt lat="44.5258833" lon="8.003085"><ele>554.0</ele><time>2026-04-12T12:46:15.44Z</time></trkpt><trkpt lat="44.5258367" lon="8.0030217"><ele>554.0</ele><time>2026-04-12T12:46:16.44Z</time></trkpt><trkpt lat="44.5257883" lon="8.00296"><ele>554.0</ele><time>2026-04-12T12:46:17.44Z</time></trkpt><trkpt lat="44.5257" lon="8.0028267"><ele>554.0</ele><time>2026-04-12T12:46:19.44Z</time></trkpt><trkpt lat="44.52565" lon="8.0027633"><ele>554.0</ele><time>2026-04-12T12:46:20.44Z</time></trkpt><trkpt lat="44.5255583" lon="8.0026367"><ele>554.0</ele><time>2026-04-12T12:46:22.44Z</time></trkpt><trkpt lat="44.52551" lon="8.0025667"><ele>553.2</ele><time>2026-04-12T12:46:23.44Z</time></trkpt><trkpt lat="44.5254117" lon="8.0024533"><ele>552.4</ele><time>2026-04-12T12:46:25.44Z</time></trkpt><trkpt lat="44.5253633" lon="8.0023917"><ele>551.6</ele><time>2026-04-12T12:46:26.44Z</time></trkpt><trkpt lat="44.5252717" lon="8.002275"><ele>550.8</ele><time>2026-04-12T12:46:28.44Z</time></trkpt><trkpt lat="44.52518" lon="8.002165"><ele>550.0</ele><time>2026-04-12T12:46:30.44Z</time></trkpt><trkpt lat="44.52509" lon="8.0020567"><ele>550.0</ele><time>2026-04-12T12:46:32.44Z</time></trkpt><trkpt lat="44.52504" lon="8.0020017"><ele>550.0</ele><time>2026-04-12T12:46:33.44Z</time></trkpt><trkpt lat="44.5249533" lon="8.00191"><ele>550.0</ele><time>2026-04-12T12:46:35.44Z</time></trkpt><trkpt lat="44.5248683" lon="8.0018217"><ele>550.0</ele><time>2026-04-12T12:46:37.441Z</time></trkpt><trkpt lat="44.52478" lon="8.0017317"><ele>550.0</ele><time>2026-04-12T12:46:39.44Z</time></trkpt><trkpt lat="44.5247233" lon="8.0016717"><ele>548.8</ele><time>2026-04-12T12:46:40.44Z</time></trkpt><trkpt lat="44.5246633" lon="8.001595"><ele>547.6</ele><time>2026-04-12T12:46:41.44Z</time></trkpt><trkpt lat="44.5245983" lon="8.0015117"><ele>546.4</ele><time>2026-04-12T12:46:42.44Z</time></trkpt><trkpt lat="44.5245283" lon="8.0014183"><ele>545.2</ele><time>2026-04-12T12:46:43.44Z</time></trkpt><trkpt lat="44.5244683" lon="8.0013133"><ele>544.0</ele><time>2026-04-12T12:46:44.44Z</time></trkpt><trkpt lat="44.524395" lon="8.001215"><ele>544.0</ele><time>2026-04-12T12:46:45.44Z</time></trkpt><trkpt lat="44.5243267" lon="8.00112"><ele>544.0</ele><time>2026-04-12T12:46:46.44Z</time></trkpt><trkpt lat="44.5242583" lon="8.0010183"><ele>544.0</ele><time>2026-04-12T12:46:47.44Z</time></trkpt><trkpt lat="44.524185" lon="8.000925"><ele>544.0</ele><time>2026-04-12T12:46:48.44Z</time></trkpt><trkpt lat="44.5241233" lon="8.0008233"><ele>544.0</ele><time>2026-04-12T12:46:49.44Z</time></trkpt><trkpt lat="44.5240583" lon="8.000725"><ele>544.3333333333334</ele><time>2026-04-12T12:46:50.44Z</time></trkpt><trkpt lat="44.5240017" lon="8.0006317"><ele>544.6666666666667</ele><time>2026-04-12T12:46:51.44Z</time></trkpt><trkpt lat="44.52394" lon="8.0005517"><ele>545.0</ele><time>2026-04-12T12:46:52.44Z</time></trkpt><trkpt lat="44.5238783" lon="8.00046"><ele>545.3333333333334</ele><time>2026-04-12T12:46:53.44Z</time></trkpt><trkpt lat="44.523825" lon="8.000375"><ele>545.6666666666666</ele><time>2026-04-12T12:46:54.44Z</time></trkpt><trkpt lat="44.52378" lon="8.0002833"><ele>546.0</ele><time>2026-04-12T12:46:55.44Z</time></trkpt><trkpt lat="44.5237467" lon="8.0001967"><ele>544.6</ele><time>2026-04-12T12:46:56.44Z</time></trkpt><trkpt lat="44.52372" lon="8.000105"><ele>543.2</ele><time>2026-04-12T12:46:57.44Z</time></trkpt><trkpt lat="44.52369" lon="8.0000167"><ele>541.8</ele><time>2026-04-12T12:46:58.44Z</time></trkpt><trkpt lat="44.52363" lon="7.99986"><ele>540.4</ele><time>2026-04-12T12:47:00.44Z</time></trkpt><trkpt lat="44.5235767" lon="7.9997033"><ele>539.0</ele><time>2026-04-12T12:47:02.44Z</time></trkpt><trkpt lat="44.5235167" lon="7.9995683"><ele>539.0</ele><time>2026-04-12T12:47:04.44Z</time></trkpt><trkpt lat="44.52345" lon="7.9994417"><ele>539.0</ele><time>2026-04-12T12:47:06.44Z</time></trkpt><trkpt lat="44.5233917" lon="7.9993167"><ele>539.0</ele><time>2026-04-12T12:47:08.44Z</time></trkpt><trkpt lat="44.5233417" lon="7.999205"><ele>539.0</ele><time>2026-04-12T12:47:10.44Z</time></trkpt><trkpt lat="44.5232867" lon="7.99911"><ele>539.0</ele><time>2026-04-12T12:47:12.44Z</time></trkpt><trkpt lat="44.5232233" lon="7.9990333"><ele>540.5</ele><time>2026-04-12T12:47:14.44Z</time></trkpt><trkpt lat="44.5231733" lon="7.998955"><ele>542.0</ele><time>2026-04-12T12:47:16.441Z</time></trkpt><trkpt lat="44.5231333" lon="7.9988767"><ele>543.5</ele><time>2026-04-12T12:47:18.44Z</time></trkpt><trkpt lat="44.5230933" lon="7.99877"><ele>545.0</ele><time>2026-04-12T12:47:20.441Z</time></trkpt><trkpt lat="44.52302" lon="7.99864"><ele>546.5</ele><time>2026-04-12T12:47:22.44Z</time></trkpt><trkpt lat="44.522975" lon="7.99857"><ele>548.0</ele><time>2026-04-12T12:47:23.44Z</time></trkpt><trkpt lat="44.52293" lon="7.9984917"><ele>549.0</ele><time>2026-04-12T12:47:24.44Z</time></trkpt><trkpt lat="44.522875" lon="7.9984133"><ele>550.0</ele><time>2026-04-12T12:47:25.44Z</time></trkpt><trkpt lat="44.5228183" lon="7.9983283"><ele>551.0</ele><time>2026-04-12T12:47:26.44Z</time></trkpt><trkpt lat="44.5227583" lon="7.9982367"><ele>552.0</ele><time>2026-04-12T12:47:27.44Z</time></trkpt><trkpt lat="44.5227" lon="7.9981417"><ele>553.0</ele><time>2026-04-12T12:47:28.44Z</time></trkpt><trkpt lat="44.5226417" lon="7.998045"><ele>554.0</ele><time>2026-04-12T12:47:29.44Z</time></trkpt><trkpt lat="44.522585" lon="7.9979417"><ele>554.0</ele><time>2026-04-12T12:47:30.44Z</time></trkpt><trkpt lat="44.5225283" lon="7.99783"><ele>554.0</ele><time>2026-04-12T12:47:31.44Z</time></trkpt><trkpt lat="44.52247" lon="7.9977017"><ele>554.0</ele><time>2026-04-12T12:47:32.44Z</time></trkpt><trkpt lat="44.5224133" lon="7.9975733"><ele>554.0</ele><time>2026-04-12T12:47:33.44Z</time></trkpt><trkpt lat="44.522355" lon="7.997435"><ele>554.0</ele><time>2026-04-12T12:47:34.44Z</time></trkpt><trkpt lat="44.5222933" lon="7.9972967"><ele>554.5</ele><time>2026-04-12T12:47:35.44Z</time></trkpt><trkpt lat="44.5222317" lon="7.99715"><ele>555.0</ele><time>2026-04-12T12:47:36.44Z</time></trkpt><trkpt lat="44.52217" lon="7.997"><ele>555.5</ele><time>2026-04-12T12:47:37.44Z</time></trkpt><trkpt lat="44.5221083" lon="7.9968533"><ele>556.0</ele><time>2026-04-12T12:47:38.44Z</time></trkpt><trkpt lat="44.52204" lon="7.9966983"><ele>553.5</ele><time>2026-04-12T12:47:39.44Z</time></trkpt><trkpt lat="44.521965" lon="7.9965467"><ele>551.0</ele><time>2026-04-12T12:47:40.44Z</time></trkpt><trkpt lat="44.5219017" lon="7.9963867"><ele>548.5</ele><time>2026-04-12T12:47:41.44Z</time></trkpt><trkpt lat="44.5218367" lon="7.9962283"><ele>546.0</ele><time>2026-04-12T12:47:42.44Z</time></trkpt><trkpt lat="44.52178" lon="7.9960667"><ele>546.0</ele><time>2026-04-12T12:47:43.44Z</time></trkpt><trkpt lat="44.5217167" lon="7.9959067"><ele>546.0</ele><time>2026-04-12T12:47:44.44Z</time></trkpt><trkpt lat="44.5216617" lon="7.9957483"><ele>546.0</ele><time>2026-04-12T12:47:45.44Z</time></trkpt><trkpt lat="44.5216017" lon="7.9955967"><ele>546.0</ele><time>2026-04-12T12:47:46.44Z</time></trkpt><trkpt lat="44.5215367" lon="7.9954567"><ele>545.0</ele><time>2026-04-12T12:47:47.44Z</time></trkpt><trkpt lat="44.521465" lon="7.9953217"><ele>544.0</ele><time>2026-04-12T12:47:48.44Z</time></trkpt><trkpt lat="44.5213817" lon="7.9951983"><ele>543.0</ele><time>2026-04-12T12:47:49.44Z</time></trkpt><trkpt lat="44.521295" lon="7.9950817"><ele>542.0</ele><time>2026-04-12T12:47:50.44Z</time></trkpt><trkpt lat="44.5212083" lon="7.9949533"><ele>542.0</ele><time>2026-04-12T12:47:51.441Z</time></trkpt><trkpt lat="44.521125" lon="7.994825"><ele>542.0</ele><time>2026-04-12T12:47:52.44Z</time></trkpt><trkpt lat="44.52104" lon="7.994695"><ele>542.0</ele><time>2026-04-12T12:47:53.44Z</time></trkpt><trkpt lat="44.5209567" lon="7.994575"><ele>542.0</ele><time>2026-04-12T12:47:54.44Z</time></trkpt><trkpt lat="44.5208783" lon="7.994455"><ele>542.0</ele><time>2026-04-12T12:47:55.44Z</time></trkpt><trkpt lat="44.5207983" lon="7.994345"><ele>542.0</ele><time>2026-04-12T12:47:56.44Z</time></trkpt><trkpt lat="44.52072" lon="7.9942383"><ele>542.0</ele><time>2026-04-12T12:47:57.44Z</time></trkpt><trkpt lat="44.520635" lon="7.994145"><ele>542.0</ele><time>2026-04-12T12:47:58.44Z</time></trkpt><trkpt lat="44.5205417" lon="7.9940617"><ele>542.0</ele><time>2026-04-12T12:47:59.44Z</time></trkpt><trkpt lat="44.5204517" lon="7.9939817"><ele>542.6</ele><time>2026-04-12T12:48:00.44Z</time></trkpt><trkpt lat="44.52036" lon="7.9939017"><ele>543.2</ele><time>2026-04-12T12:48:01.44Z</time></trkpt><trkpt lat="44.5202717" lon="7.99382"><ele>543.8</ele><time>2026-04-12T12:48:02.441Z</time></trkpt><trkpt lat="44.5201867" lon="7.9937367"><ele>544.4</ele><time>2026-04-12T12:48:03.44Z</time></trkpt><trkpt lat="44.52011" lon="7.9936667"><ele>545.0</ele><time>2026-04-12T12:48:04.44Z</time></trkpt><trkpt lat="44.5200367" lon="7.9936017"><ele>545.0</ele><time>2026-04-12T12:48:05.44Z</time></trkpt><trkpt lat="44.5199767" lon="7.9935517"><ele>545.0</ele><time>2026-04-12T12:48:06.44Z</time></trkpt><trkpt lat="44.51992" lon="7.9934683"><ele>545.0</ele><time>2026-04-12T12:48:08.44Z</time></trkpt><trkpt lat="44.519985" lon="7.9933983"><ele>545.0</ele><time>2026-04-12T12:48:11.44Z</time></trkpt><trkpt lat="44.5201283" lon="7.9934383"><ele>545.0</ele><time>2026-04-12T12:48:13.44Z</time></trkpt><trkpt lat="44.5202117" lon="7.99345"><ele>545.0</ele><time>2026-04-12T12:48:14.44Z</time></trkpt><trkpt lat="44.5202917" lon="7.9934683"><ele>545.0</ele><time>2026-04-12T12:48:15.44Z</time></trkpt><trkpt lat="44.5203717" lon="7.99348"><ele>545.0</ele><time>2026-04-12T12:48:16.44Z</time></trkpt><trkpt lat="44.5204483" lon="7.9934933"><ele>545.0</ele><time>2026-04-12T12:48:17.44Z</time></trkpt><trkpt lat="44.52052" lon="7.993495"><ele>545.0</ele><time>2026-04-12T12:48:18.44Z</time></trkpt><trkpt lat="44.5205967" lon="7.9935"><ele>545.0</ele><time>2026-04-12T12:48:19.44Z</time></trkpt><trkpt lat="44.5206783" lon="7.993495"><ele>543.1666666666666</ele><time>2026-04-12T12:48:20.441Z</time></trkpt><trkpt lat="44.5207583" lon="7.99349"><ele>541.3333333333333</ele><time>2026-04-12T12:48:21.44Z</time></trkpt><trkpt lat="44.5208433" lon="7.993485"><ele>539.5</ele><time>2026-04-12T12:48:22.44Z</time></trkpt><trkpt lat="44.52093" lon="7.99347"><ele>537.6666666666666</ele><time>2026-04-12T12:48:23.44Z</time></trkpt><trkpt lat="44.5210217" lon="7.9934567"><ele>535.8333333333334</ele><time>2026-04-12T12:48:24.44Z</time></trkpt><trkpt lat="44.5211167" lon="7.9934417"><ele>534.0</ele><time>2026-04-12T12:48:25.44Z</time></trkpt><trkpt lat="44.5212167" lon="7.993425"><ele>531.6</ele><time>2026-04-12T12:48:26.44Z</time></trkpt><trkpt lat="44.5213133" lon="7.9934133"><ele>529.2</ele><time>2026-04-12T12:48:27.44Z</time></trkpt><trkpt lat="44.5214133" lon="7.9934083"><ele>526.8000000000001</ele><time>2026-04-12T12:48:28.44Z</time></trkpt><trkpt lat="44.5215167" lon="7.9934017"><ele>524.4</ele><time>2026-04-12T12:48:29.441Z</time></trkpt><trkpt lat="44.5216217" lon="7.99339"><ele>522.0</ele><time>2026-04-12T12:48:30.44Z</time></trkpt><trkpt lat="44.5217133" lon="7.9933633"><ele>522.0</ele><time>2026-04-12T12:48:31.44Z</time></trkpt><trkpt lat="44.5217983" lon="7.9932983"><ele>522.0</ele><time>2026-04-12T12:48:32.44Z</time></trkpt><trkpt lat="44.52187" lon="7.9932017"><ele>522.0</ele><time>2026-04-12T12:48:33.44Z</time></trkpt><trkpt lat="44.5219333" lon="7.9930833"><ele>522.0</ele><time>2026-04-12T12:48:34.44Z</time></trkpt><trkpt lat="44.5219883" lon="7.992965"><ele>522.0</ele><time>2026-04-12T12:48:35.44Z</time></trkpt><trkpt lat="44.52204" lon="7.9928417"><ele>518.8000000000001</ele><time>2026-04-12T12:48:36.44Z</time></trkpt><trkpt lat="44.522095" lon="7.992715"><ele>515.6</ele><time>2026-04-12T12:48:37.44Z</time></trkpt><trkpt lat="44.52215" lon="7.9925817"><ele>512.4000000000001</ele><time>2026-04-12T12:48:38.441Z</time></trkpt><trkpt lat="44.5222017" lon="7.9924417"><ele>509.20000000000005</ele><time>2026-04-12T12:48:39.44Z</time></trkpt><trkpt lat="44.5222517" lon="7.9922967"><ele>506.0</ele><time>2026-04-12T12:48:40.44Z</time></trkpt><trkpt lat="44.522305" lon="7.992155"><ele>506.0</ele><time>2026-04-12T12:48:41.44Z</time></trkpt><trkpt lat="44.5223733" lon="7.99201"><ele>506.0</ele><time>2026-04-12T12:48:42.44Z</time></trkpt><trkpt lat="44.5224433" lon="7.9918683"><ele>506.0</ele><time>2026-04-12T12:48:43.44Z</time></trkpt><trkpt lat="44.5225217" lon="7.9917267"><ele>506.0</ele><time>2026-04-12T12:48:44.44Z</time></trkpt><trkpt lat="44.5226167" lon="7.9915933"><ele>505.75</ele><time>2026-04-12T12:48:45.44Z</time></trkpt><trkpt lat="44.5227133" lon="7.991465"><ele>505.5</ele><time>2026-04-12T12:48:46.44Z</time></trkpt><trkpt lat="44.52282" lon="7.9913467"><ele>505.25</ele><time>2026-04-12T12:48:47.44Z</time></trkpt><trkpt lat="44.5229317" lon="7.9912417"><ele>505.0</ele><time>2026-04-12T12:48:48.441Z</time></trkpt><trkpt lat="44.5230467" lon="7.9911433"><ele>503.5</ele><time>2026-04-12T12:48:49.44Z</time></trkpt><trkpt lat="44.5231567" lon="7.99105"><ele>502.0</ele><time>2026-04-12T12:48:50.44Z</time></trkpt><trkpt lat="44.5232633" lon="7.9909633"><ele>500.5</ele><time>2026-04-12T12:48:51.44Z</time></trkpt><trkpt lat="44.523365" lon="7.9908917"><ele>499.0</ele><time>2026-04-12T12:48:52.44Z</time></trkpt><trkpt lat="44.52346" lon="7.9908133"><ele>499.0</ele><time>2026-04-12T12:48:53.44Z</time></trkpt><trkpt lat="44.523555" lon="7.990725"><ele>499.0</ele><time>2026-04-12T12:48:54.44Z</time></trkpt><trkpt lat="44.5236317" lon="7.990615"><ele>499.0</ele><time>2026-04-12T12:48:55.44Z</time></trkpt><trkpt lat="44.5236883" lon="7.9905017"><ele>499.0</ele><time>2026-04-12T12:48:56.44Z</time></trkpt><trkpt lat="44.5237317" lon="7.9903917"><ele>499.0</ele><time>2026-04-12T12:48:57.44Z</time></trkpt><trkpt lat="44.523755" lon="7.99027"><ele>498.6</ele><time>2026-04-12T12:48:58.44Z</time></trkpt><trkpt lat="44.5237483" lon="7.9901417"><ele>498.2</ele><time>2026-04-12T12:48:59.44Z</time></trkpt><trkpt lat="44.5237283" lon="7.9900067"><ele>497.80000000000007</ele><time>2026-04-12T12:49:00.44Z</time></trkpt><trkpt lat="44.5237017" lon="7.9898717"><ele>497.40000000000003</ele><time>2026-04-12T12:49:01.44Z</time></trkpt><trkpt lat="44.5236783" lon="7.9897283"><ele>497.0</ele><time>2026-04-12T12:49:02.44Z</time></trkpt><trkpt lat="44.5236767" lon="7.989585"><ele>497.0</ele><time>2026-04-12T12:49:03.44Z</time></trkpt><trkpt lat="44.5236967" lon="7.9894467"><ele>497.00000000000006</ele><time>2026-04-12T12:49:04.44Z</time></trkpt><trkpt lat="44.523735" lon="7.989305"><ele>497.00000000000006</ele><time>2026-04-12T12:49:05.44Z</time></trkpt><trkpt lat="44.5237683" lon="7.9891533"><ele>497.0</ele><time>2026-04-12T12:49:06.44Z</time></trkpt><trkpt lat="44.5237767" lon="7.9890017"><ele>497.0</ele><time>2026-04-12T12:49:07.44Z</time></trkpt><trkpt lat="44.5237583" lon="7.988845"><ele>495.40000000000003</ele><time>2026-04-12T12:49:08.44Z</time></trkpt><trkpt lat="44.5237133" lon="7.9886933"><ele>493.80000000000007</ele><time>2026-04-12T12:49:09.44Z</time></trkpt><trkpt lat="44.5236617" lon="7.98854"><ele>492.2</ele><time>2026-04-12T12:49:10.44Z</time></trkpt><trkpt lat="44.5236183" lon="7.988395"><ele>490.6</ele><time>2026-04-12T12:49:11.44Z</time></trkpt><trkpt lat="44.5235983" lon="7.988275"><ele>489.0</ele><time>2026-04-12T12:49:12.44Z</time></trkpt><trkpt lat="44.5235967" lon="7.988165"><ele>487.6666666666667</ele><time>2026-04-12T12:49:13.44Z</time></trkpt><trkpt lat="44.523605" lon="7.9880683"><ele>486.33333333333337</ele><time>2026-04-12T12:49:14.44Z</time></trkpt><trkpt lat="44.5236717" lon="7.9880133"><ele>485.0</ele><time>2026-04-12T12:49:15.44Z</time></trkpt><trkpt lat="44.5237417" lon="7.9880183"><ele>483.6666666666667</ele><time>2026-04-12T12:49:16.44Z</time></trkpt><trkpt lat="44.5238117" lon="7.988065"><ele>482.33333333333337</ele><time>2026-04-12T12:49:17.44Z</time></trkpt><trkpt lat="44.5238717" lon="7.98813"><ele>481.0</ele><time>2026-04-12T12:49:18.44Z</time></trkpt><trkpt lat="44.5239167" lon="7.988235"><ele>480.20000000000005</ele><time>2026-04-12T12:49:19.44Z</time></trkpt><trkpt lat="44.5239583" lon="7.9883533"><ele>479.40000000000003</ele><time>2026-04-12T12:49:20.44Z</time></trkpt><trkpt lat="44.524" lon="7.9884733"><ele>478.6</ele><time>2026-04-12T12:49:21.44Z</time></trkpt><trkpt lat="44.52404" lon="7.9885983"><ele>477.8</ele><time>2026-04-12T12:49:22.44Z</time></trkpt><trkpt lat="44.5240833" lon="7.98873"><ele>477.0</ele><time>2026-04-12T12:49:23.44Z</time></trkpt><trkpt lat="44.5241167" lon="7.988875"><ele>477.0</ele><time>2026-04-12T12:49:24.44Z</time></trkpt><trkpt lat="44.5241533" lon="7.989"><ele>477.00000000000006</ele><time>2026-04-12T12:49:25.441Z</time></trkpt><trkpt lat="44.524175" lon="7.9890933"><ele>477.00000000000006</ele><time>2026-04-12T12:49:26.44Z</time></trkpt><trkpt lat="44.5242417" lon="7.9892033"><ele>477.0</ele><time>2026-04-12T12:49:28.44Z</time></trkpt><trkpt lat="44.5243367" lon="7.9891083"><ele>477.0</ele><time>2026-04-12T12:49:30.44Z</time></trkpt><trkpt lat="44.524365" lon="7.9889967"><ele>477.0</ele><time>2026-04-12T12:49:31.44Z</time></trkpt><trkpt lat="44.5243733" lon="7.9888733"><ele>477.00000000000006</ele><time>2026-04-12T12:49:32.44Z</time></trkpt><trkpt lat="44.52438" lon="7.9887433"><ele>477.00000000000006</ele><time>2026-04-12T12:49:33.44Z</time></trkpt><trkpt lat="44.5243833" lon="7.9886017"><ele>477.0</ele><time>2026-04-12T12:49:34.44Z</time></trkpt><trkpt lat="44.5243983" lon="7.9884633"><ele>477.0</ele><time>2026-04-12T12:49:35.44Z</time></trkpt><trkpt lat="44.52441" lon="7.98831"><ele>475.0</ele><time>2026-04-12T12:49:36.44Z</time></trkpt><trkpt lat="44.5244117" lon="7.988155"><ele>473.0</ele><time>2026-04-12T12:49:37.44Z</time></trkpt><trkpt lat="44.52441" lon="7.9880033"><ele>471.0</ele><time>2026-04-12T12:49:38.44Z</time></trkpt><trkpt lat="44.5244083" lon="7.987845"><ele>469.0</ele><time>2026-04-12T12:49:39.44Z</time></trkpt><trkpt lat="44.5244083" lon="7.9876783"><ele>469.0</ele><time>2026-04-12T12:49:40.44Z</time></trkpt><trkpt lat="44.5244067" lon="7.987515"><ele>469.0</ele><time>2026-04-12T12:49:41.44Z</time></trkpt><trkpt lat="44.5243983" lon="7.98735"><ele>469.0</ele><time>2026-04-12T12:49:42.44Z</time></trkpt><trkpt lat="44.52438" lon="7.9871867"><ele>469.0</ele><time>2026-04-12T12:49:43.44Z</time></trkpt><trkpt lat="44.52435" lon="7.9870233"><ele>467.75</ele><time>2026-04-12T12:49:44.44Z</time></trkpt><trkpt lat="44.5243067" lon="7.9868783"><ele>466.5</ele><time>2026-04-12T12:49:45.44Z</time></trkpt><trkpt lat="44.524245" lon="7.9867317"><ele>465.25</ele><time>2026-04-12T12:49:46.44Z</time></trkpt><trkpt lat="44.5241817" lon="7.9865833"><ele>464.0</ele><time>2026-04-12T12:49:47.441Z</time></trkpt><trkpt lat="44.5241283" lon="7.9864283"><ele>462.25</ele><time>2026-04-12T12:49:48.44Z</time></trkpt><trkpt lat="44.5240717" lon="7.9862733"><ele>460.5</ele><time>2026-04-12T12:49:49.44Z</time></trkpt><trkpt lat="44.5240217" lon="7.986115"><ele>458.75</ele><time>2026-04-12T12:49:50.44Z</time></trkpt><trkpt lat="44.5239683" lon="7.9859567"><ele>457.0</ele><time>2026-04-12T12:49:51.44Z</time></trkpt><trkpt lat="44.52391" lon="7.9857967"><ele>456.0</ele><time>2026-04-12T12:49:52.44Z</time></trkpt><trkpt lat="44.5238317" lon="7.9856633"><ele>455.00000000000006</ele><time>2026-04-12T12:49:53.44Z</time></trkpt><trkpt lat="44.5237517" lon="7.9855517"><ele>454.00000000000006</ele><time>2026-04-12T12:49:54.44Z</time></trkpt><trkpt lat="44.5236883" lon="7.9854583"><ele>453.0</ele><time>2026-04-12T12:49:55.44Z</time></trkpt><trkpt lat="44.5236283" lon="7.985385"><ele>452.0</ele><time>2026-04-12T12:49:56.44Z</time></trkpt><trkpt lat="44.5235683" lon="7.98525"><ele>452.0</ele><time>2026-04-12T12:49:58.44Z</time></trkpt><trkpt lat="44.5235983" lon="7.9851567"><ele>452.00000000000006</ele><time>2026-04-12T12:50:00.44Z</time></trkpt><trkpt lat="44.5237183" lon="7.98521"><ele>452.00000000000006</ele><time>2026-04-12T12:50:02.44Z</time></trkpt><trkpt lat="44.523785" lon="7.9852817"><ele>452.0</ele><time>2026-04-12T12:50:03.44Z</time></trkpt><trkpt lat="44.523855" lon="7.98536"><ele>452.0</ele><time>2026-04-12T12:50:04.44Z</time></trkpt><trkpt lat="44.5239333" lon="7.9854383"><ele>450.8</ele><time>2026-04-12T12:50:05.44Z</time></trkpt><trkpt lat="44.52401" lon="7.985515"><ele>449.6</ele><time>2026-04-12T12:50:06.44Z</time></trkpt><trkpt lat="44.52409" lon="7.98559"><ele>448.40000000000003</ele><time>2026-04-12T12:50:07.44Z</time></trkpt><trkpt lat="44.5241783" lon="7.9856667"><ele>447.20000000000005</ele><time>2026-04-12T12:50:08.44Z</time></trkpt><trkpt lat="44.5242717" lon="7.98574"><ele>446.0</ele><time>2026-04-12T12:50:09.441Z</time></trkpt><trkpt lat="44.52436" lon="7.985815"><ele>445.0</ele><time>2026-04-12T12:50:10.44Z</time></trkpt><trkpt lat="44.5244317" lon="7.985875"><ele>444.0</ele><time>2026-04-12T12:50:11.44Z</time></trkpt><trkpt lat="44.5244883" lon="7.9859283"><ele>443.0</ele><time>2026-04-12T12:50:12.44Z</time></trkpt><trkpt lat="44.5245917" lon="7.98594"><ele>442.0</ele><time>2026-04-12T12:50:14.44Z</time></trkpt><trkpt lat="44.5246083" lon="7.985765"><ele>441.0</ele><time>2026-04-12T12:50:16.44Z</time></trkpt><trkpt lat="44.5245767" lon="7.985655"><ele>442.0</ele><time>2026-04-12T12:50:17.44Z</time></trkpt><trkpt lat="44.5245367" lon="7.9855467"><ele>443.0</ele><time>2026-04-12T12:50:18.44Z</time></trkpt><trkpt lat="44.52449" lon="7.98543"><ele>444.0</ele><time>2026-04-12T12:50:19.44Z</time></trkpt><trkpt lat="44.5244433" lon="7.9853083"><ele>445.0</ele><time>2026-04-12T12:50:20.44Z</time></trkpt><trkpt lat="44.5243967" lon="7.9851733"><ele>446.0</ele><time>2026-04-12T12:50:21.44Z</time></trkpt><trkpt lat="44.5243517" lon="7.9850383"><ele>442.0</ele><time>2026-04-12T12:50:22.44Z</time></trkpt><trkpt lat="44.5243033" lon="7.9848917"><ele>438.0</ele><time>2026-04-12T12:50:23.44Z</time></trkpt><trkpt lat="44.52426" lon="7.98474"><ele>434.0</ele><time>2026-04-12T12:50:24.44Z</time></trkpt><trkpt lat="44.524215" lon="7.9845867"><ele>430.0</ele><time>2026-04-12T12:50:25.44Z</time></trkpt><trkpt lat="44.524165" lon="7.9844283"><ele>430.0</ele><time>2026-04-12T12:50:26.44Z</time></trkpt><trkpt lat="44.5241283" lon="7.9842733"><ele>430.0</ele><time>2026-04-12T12:50:27.44Z</time></trkpt><trkpt lat="44.5240967" lon="7.984115"><ele>430.0</ele><time>2026-04-12T12:50:28.44Z</time></trkpt><trkpt lat="44.5240633" lon="7.9839467"><ele>430.0</ele><time>2026-04-12T12:50:29.44Z</time></trkpt><trkpt lat="44.524025" lon="7.9837733"><ele>427.25</ele><time>2026-04-12T12:50:30.441Z</time></trkpt><trkpt lat="44.5239817" lon="7.9835983"><ele>424.5</ele><time>2026-04-12T12:50:31.44Z</time></trkpt><trkpt lat="44.523925" lon="7.9834317"><ele>421.75</ele><time>2026-04-12T12:50:32.44Z</time></trkpt><trkpt lat="44.52386" lon="7.9832733"><ele>419.0</ele><time>2026-04-12T12:50:33.44Z</time></trkpt><trkpt lat="44.5237767" lon="7.98312"><ele>418.25</ele><time>2026-04-12T12:50:34.44Z</time></trkpt><trkpt lat="44.5236983" lon="7.982965"><ele>417.5</ele><time>2026-04-12T12:50:35.44Z</time></trkpt><trkpt lat="44.5236217" lon="7.9828067"><ele>416.75</ele><time>2026-04-12T12:50:36.44Z</time></trkpt><trkpt lat="44.52356" lon="7.9826417"><ele>416.0</ele><time>2026-04-12T12:50:37.44Z</time></trkpt><trkpt lat="44.5235183" lon="7.98247"><ele>413.25</ele><time>2026-04-12T12:50:38.44Z</time></trkpt><trkpt lat="44.5234967" lon="7.9822967"><ele>410.5</ele><time>2026-04-12T12:50:39.44Z</time></trkpt><trkpt lat="44.5234717" lon="7.9821283"><ele>407.75</ele><time>2026-04-12T12:50:40.44Z</time></trkpt><trkpt lat="44.5234267" lon="7.9819783"><ele>405.0</ele><time>2026-04-12T12:50:41.44Z</time></trkpt><trkpt lat="44.5233683" lon="7.98186"><ele>405.0</ele><time>2026-04-12T12:50:42.44Z</time></trkpt><trkpt lat="44.5232883" lon="7.9817883"><ele>405.0</ele><time>2026-04-12T12:50:43.44Z</time></trkpt><trkpt lat="44.523205" lon="7.9817533"><ele>405.0</ele><time>2026-04-12T12:50:44.44Z</time></trkpt><trkpt lat="44.5231283" lon="7.98174"><ele>405.0</ele><time>2026-04-12T12:50:45.44Z</time></trkpt><trkpt lat="44.5230467" lon="7.9816517"><ele>405.0</ele><time>2026-04-12T12:50:47.44Z</time></trkpt><trkpt lat="44.5231" lon="7.981505"><ele>402.8</ele><time>2026-04-12T12:50:49.44Z</time></trkpt><trkpt lat="44.523175" lon="7.98144"><ele>400.6</ele><time>2026-04-12T12:50:50.44Z</time></trkpt><trkpt lat="44.5232633" lon="7.98137"><ele>398.4</ele><time>2026-04-12T12:50:51.44Z</time></trkpt><trkpt lat="44.523355" lon="7.981295"><ele>396.2</ele><time>2026-04-12T12:50:52.44Z</time></trkpt><trkpt lat="44.5234433" lon="7.981215"><ele>394.0</ele><time>2026-04-12T12:50:53.44Z</time></trkpt><trkpt lat="44.5235333" lon="7.9811433"><ele>394.00000000000006</ele><time>2026-04-12T12:50:54.44Z</time></trkpt><trkpt lat="44.523605" lon="7.9810867"><ele>394.0</ele><time>2026-04-12T12:50:55.44Z</time></trkpt><trkpt lat="44.5236767" lon="7.9810333"><ele>394.0</ele><time>2026-04-12T12:50:56.44Z</time></trkpt><trkpt lat="44.5237433" lon="7.9809783"><ele>394.0</ele><time>2026-04-12T12:50:57.44Z</time></trkpt><trkpt lat="44.5238083" lon="7.980935"><ele>394.00000000000006</ele><time>2026-04-12T12:50:58.44Z</time></trkpt><trkpt lat="44.52387" lon="7.9809067"><ele>394.0</ele><time>2026-04-12T12:50:59.44Z</time></trkpt><trkpt lat="44.5239733" lon="7.98086"><ele>392.6666666666667</ele><time>2026-04-12T12:51:01.44Z</time></trkpt><trkpt lat="44.52403" lon="7.9807717"><ele>391.33333333333337</ele><time>2026-04-12T12:51:03.44Z</time></trkpt><trkpt lat="44.5239917" lon="7.98065"><ele>390.0</ele><time>2026-04-12T12:51:05.44Z</time></trkpt><trkpt lat="44.5239283" lon="7.98063"><ele>388.66666666666663</ele><time>2026-04-12T12:51:06.44Z</time></trkpt><trkpt lat="44.52385" lon="7.9806233"><ele>387.3333333333333</ele><time>2026-04-12T12:51:07.44Z</time></trkpt><trkpt lat="44.523765" lon="7.980635"><ele>386.0</ele><time>2026-04-12T12:51:08.44Z</time></trkpt><trkpt lat="44.5236817" lon="7.9806517"><ele>384.4</ele><time>2026-04-12T12:51:09.44Z</time></trkpt><trkpt lat="44.523585" lon="7.9806717"><ele>382.8</ele><time>2026-04-12T12:51:10.44Z</time></trkpt><trkpt lat="44.5234883" lon="7.9806817"><ele>381.2</ele><time>2026-04-12T12:51:11.44Z</time></trkpt><trkpt lat="44.5233883" lon="7.9807067"><ele>379.59999999999997</ele><time>2026-04-12T12:51:12.441Z</time></trkpt><trkpt lat="44.5232933" lon="7.9807517"><ele>378.0</ele><time>2026-04-12T12:51:13.44Z</time></trkpt><trkpt lat="44.5232167" lon="7.9808017"><ele>378.0</ele><time>2026-04-12T12:51:14.44Z</time></trkpt><trkpt lat="44.5231467" lon="7.980845"><ele>378.0</ele><time>2026-04-12T12:51:15.44Z</time></trkpt><trkpt lat="44.5230467" lon="7.9808433"><ele>378.0</ele><time>2026-04-12T12:51:17.44Z</time></trkpt><trkpt lat="44.52303" lon="7.9807283"><ele>378.0</ele><time>2026-04-12T12:51:19.441Z</time></trkpt><trkpt lat="44.5231117" lon="7.980585"><ele>378.0</ele><time>2026-04-12T12:51:21.44Z</time></trkpt><trkpt lat="44.5231833" lon="7.9805217"><ele>378.0</ele><time>2026-04-12T12:51:22.44Z</time></trkpt><trkpt lat="44.5232567" lon="7.9804583"><ele>378.0</ele><time>2026-04-12T12:51:23.44Z</time></trkpt><trkpt lat="44.5233383" lon="7.9803783"><ele>378.0</ele><time>2026-04-12T12:51:24.44Z</time></trkpt><trkpt lat="44.5234117" lon="7.9803083"><ele>378.0</ele><time>2026-04-12T12:51:25.44Z</time></trkpt><trkpt lat="44.5235" lon="7.98024"><ele>378.0</ele><time>2026-04-12T12:51:26.44Z</time></trkpt><trkpt lat="44.523595" lon="7.9801717"><ele>378.0</ele><time>2026-04-12T12:51:27.44Z</time></trkpt><trkpt lat="44.5236917" lon="7.9801083"><ele>378.0</ele><time>2026-04-12T12:51:28.44Z</time></trkpt><trkpt lat="44.523795" lon="7.9800517"><ele>378.0</ele><time>2026-04-12T12:51:29.44Z</time></trkpt><trkpt lat="44.5238883" lon="7.9800017"><ele>378.0</ele><time>2026-04-12T12:51:30.44Z</time></trkpt><trkpt lat="44.5239717" lon="7.97996"><ele>378.0</ele><time>2026-04-12T12:51:31.44Z</time></trkpt><trkpt lat="44.5240517" lon="7.9799283"><ele>377.0</ele><time>2026-04-12T12:51:32.44Z</time></trkpt><trkpt lat="44.52412" lon="7.9798967"><ele>376.0</ele><time>2026-04-12T12:51:33.44Z</time></trkpt><trkpt lat="44.5241833" lon="7.9797933"><ele>375.0</ele><time>2026-04-12T12:51:35.44Z</time></trkpt><trkpt lat="44.5241033" lon="7.9797217"><ele>374.0</ele><time>2026-04-12T12:51:37.44Z</time></trkpt><trkpt lat="44.5240383" lon="7.9797267"><ele>373.0</ele><time>2026-04-12T12:51:38.44Z</time></trkpt><trkpt lat="44.5239683" lon="7.9797517"><ele>372.0</ele><time>2026-04-12T12:51:39.44Z</time></trkpt><trkpt lat="44.52389" lon="7.9797783"><ele>372.0</ele><time>2026-04-12T12:51:40.441Z</time></trkpt><trkpt lat="44.5238033" lon="7.979805"><ele>372.0</ele><time>2026-04-12T12:51:41.44Z</time></trkpt><trkpt lat="44.523715" lon="7.9798233"><ele>372.0</ele><time>2026-04-12T12:51:42.44Z</time></trkpt><trkpt lat="44.523625" lon="7.97985"><ele>372.0</ele><time>2026-04-12T12:51:43.44Z</time></trkpt><trkpt lat="44.52354" lon="7.97989"><ele>372.0</ele><time>2026-04-12T12:51:44.44Z</time></trkpt><trkpt lat="44.5234517" lon="7.9799467"><ele>373.20000000000005</ele><time>2026-04-12T12:51:45.44Z</time></trkpt><trkpt lat="44.5233767" lon="7.980005"><ele>374.4</ele><time>2026-04-12T12:51:46.44Z</time></trkpt><trkpt lat="44.5233217" lon="7.9800567"><ele>375.6</ele><time>2026-04-12T12:51:47.441Z</time></trkpt><trkpt lat="44.523245" lon="7.9800767"><ele>376.79999999999995</ele><time>2026-04-12T12:51:49.44Z</time></trkpt><trkpt lat="44.5232883" lon="7.97995"><ele>378.0</ele><time>2026-04-12T12:51:52.44Z</time></trkpt><trkpt lat="44.5233917" lon="7.9798533"><ele>376.79999999999995</ele><time>2026-04-12T12:51:54.44Z</time></trkpt><trkpt lat="44.523465" lon="7.97981"><ele>375.6</ele><time>2026-04-12T12:51:55.44Z</time></trkpt><trkpt lat="44.5235467" lon="7.9797617"><ele>374.4</ele><time>2026-04-12T12:51:56.44Z</time></trkpt><trkpt lat="44.5236283" lon="7.9797067"><ele>373.20000000000005</ele><time>2026-04-12T12:51:57.44Z</time></trkpt><trkpt lat="44.5237183" lon="7.9796517"><ele>372.0</ele><time>2026-04-12T12:51:58.44Z</time></trkpt><trkpt lat="44.5238117" lon="7.9795917"><ele>372.0</ele><time>2026-04-12T12:51:59.441Z</time></trkpt><trkpt lat="44.5239017" lon="7.9795267"><ele>372.0</ele><time>2026-04-12T12:52:00.44Z</time></trkpt><trkpt lat="44.5240017" lon="7.9794633"><ele>372.0</ele><time>2026-04-12T12:52:01.44Z</time></trkpt><trkpt lat="44.5240917" lon="7.979405"><ele>372.0</ele><time>2026-04-12T12:52:02.44Z</time></trkpt><trkpt lat="44.52418" lon="7.979345"><ele>372.0</ele><time>2026-04-12T12:52:03.44Z</time></trkpt><trkpt lat="44.52427" lon="7.9792883"><ele>372.0</ele><time>2026-04-12T12:52:04.44Z</time></trkpt><trkpt lat="44.5243717" lon="7.97926"><ele>372.0</ele><time>2026-04-12T12:52:05.44Z</time></trkpt><trkpt lat="44.52447" lon="7.9792833"><ele>372.0</ele><time>2026-04-12T12:52:06.44Z</time></trkpt><trkpt lat="44.5245633" lon="7.979335"><ele>372.0</ele><time>2026-04-12T12:52:07.44Z</time></trkpt><trkpt lat="44.5246583" lon="7.9794233"><ele>372.0</ele><time>2026-04-12T12:52:08.44Z</time></trkpt><trkpt lat="44.52476" lon="7.97952"><ele>365.75</ele><time>2026-04-12T12:52:09.44Z</time></trkpt><trkpt lat="44.5248617" lon="7.97962"><ele>359.5</ele><time>2026-04-12T12:52:10.44Z</time></trkpt><trkpt lat="44.5249683" lon="7.9797067"><ele>353.25</ele><time>2026-04-12T12:52:11.44Z</time></trkpt><trkpt lat="44.5250767" lon="7.9797917"><ele>347.0</ele><time>2026-04-12T12:52:12.44Z</time></trkpt><trkpt lat="44.525175" lon="7.9798783"><ele>347.0</ele><time>2026-04-12T12:52:13.44Z</time></trkpt><trkpt lat="44.525265" lon="7.97995"><ele>347.0</ele><time>2026-04-12T12:52:14.44Z</time></trkpt><trkpt lat="44.5253567" lon="7.98001"><ele>347.0</ele><time>2026-04-12T12:52:15.44Z</time></trkpt><trkpt lat="44.5254483" lon="7.980025"><ele>347.0</ele><time>2026-04-12T12:52:16.44Z</time></trkpt><trkpt lat="44.5255267" lon="7.9800133"><ele>347.0</ele><time>2026-04-12T12:52:17.44Z</time></trkpt><trkpt lat="44.5256267" lon="7.9799483"><ele>349.1666666666667</ele><time>2026-04-12T12:52:19.44Z</time></trkpt><trkpt lat="44.525685" lon="7.979825"><ele>351.33333333333337</ele><time>2026-04-12T12:52:21.44Z</time></trkpt><trkpt lat="44.5256967" lon="7.97966"><ele>353.5</ele><time>2026-04-12T12:52:23.44Z</time></trkpt><trkpt lat="44.52569" lon="7.97957"><ele>355.6666666666667</ele><time>2026-04-12T12:52:24.44Z</time></trkpt><trkpt lat="44.5256817" lon="7.9794783"><ele>357.8333333333333</ele><time>2026-04-12T12:52:25.44Z</time></trkpt><trkpt lat="44.5256667" lon="7.9793783"><ele>360.0</ele><time>2026-04-12T12:52:26.44Z</time></trkpt><trkpt lat="44.52565" lon="7.9792783"><ele>359.7142857142857</ele><time>2026-04-12T12:52:27.44Z</time></trkpt><trkpt lat="44.52563" lon="7.9791817"><ele>359.42857142857144</ele><time>2026-04-12T12:52:28.44Z</time></trkpt><trkpt lat="44.52562" lon="7.9790783"><ele>359.14285714285717</ele><time>2026-04-12T12:52:29.44Z</time></trkpt><trkpt lat="44.52561" lon="7.9789767"><ele>358.8571428571429</ele><time>2026-04-12T12:52:30.44Z</time></trkpt><trkpt lat="44.525595" lon="7.9788683"><ele>358.57142857142856</ele><time>2026-04-12T12:52:31.44Z</time></trkpt><trkpt lat="44.52559" lon="7.9787667"><ele>358.28571428571433</ele><time>2026-04-12T12:52:32.44Z</time></trkpt><trkpt lat="44.5255917" lon="7.9786767"><ele>358.0</ele><time>2026-04-12T12:52:33.44Z</time></trkpt><trkpt lat="44.5255983" lon="7.9785117"><ele>358.0</ele><time>2026-04-12T12:52:35.44Z</time></trkpt><trkpt lat="44.5255817" lon="7.9783767"><ele>358.0</ele><time>2026-04-12T12:52:36.44Z</time></trkpt><trkpt lat="44.525585" lon="7.9782667"><ele>358.0</ele><time>2026-04-12T12:52:37.44Z</time></trkpt><trkpt lat="44.525595" lon="7.9781617"><ele>358.0</ele><time>2026-04-12T12:52:38.44Z</time></trkpt><trkpt lat="44.5256083" lon="7.978045"><ele>358.0</ele><time>2026-04-12T12:52:39.44Z</time></trkpt><trkpt lat="44.5256433" lon="7.9779283"><ele>358.0</ele><time>2026-04-12T12:52:40.44Z</time></trkpt><trkpt lat="44.5256767" lon="7.97781"><ele>357.0</ele><time>2026-04-12T12:52:41.44Z</time></trkpt><trkpt lat="44.5257133" lon="7.977705"><ele>356.0</ele><time>2026-04-12T12:52:42.441Z</time></trkpt><trkpt lat="44.52575" lon="7.9776"><ele>355.0</ele><time>2026-04-12T12:52:43.44Z</time></trkpt><trkpt lat="44.525825" lon="7.9775117"><ele>354.0</ele><time>2026-04-12T12:52:44.44Z</time></trkpt><trkpt lat="44.5258983" lon="7.9774267"><ele>353.0</ele><time>2026-04-12T12:52:45.44Z</time></trkpt><trkpt lat="44.5259817" lon="7.9773733"><ele>353.6666666666667</ele><time>2026-04-12T12:52:46.44Z</time></trkpt><trkpt lat="44.52605" lon="7.9773067"><ele>354.33333333333337</ele><time>2026-04-12T12:52:47.44Z</time></trkpt><trkpt lat="44.526115" lon="7.977245"><ele>355.0</ele><time>2026-04-12T12:52:48.44Z</time></trkpt><trkpt lat="44.52618" lon="7.9771817"><ele>355.6666666666667</ele><time>2026-04-12T12:52:49.44Z</time></trkpt><trkpt lat="44.526245" lon="7.977125"><ele>356.3333333333333</ele><time>2026-04-12T12:52:50.441Z</time></trkpt><trkpt lat="44.526305" lon="7.97706"><ele>357.0</ele><time>2026-04-12T12:52:51.44Z</time></trkpt><trkpt lat="44.5263683" lon="7.9769917"><ele>357.0</ele><time>2026-04-12T12:52:52.44Z</time></trkpt><trkpt lat="44.526435" lon="7.9769283"><ele>357.0</ele><time>2026-04-12T12:52:53.44Z</time></trkpt><trkpt lat="44.5264917" lon="7.976855"><ele>357.0</ele><time>2026-04-12T12:52:54.44Z</time></trkpt><trkpt lat="44.526555" lon="7.9767867"><ele>357.0</ele><time>2026-04-12T12:52:55.44Z</time></trkpt><trkpt lat="44.5266133" lon="7.9767167"><ele>357.0</ele><time>2026-04-12T12:52:56.44Z</time></trkpt><trkpt lat="44.526665" lon="7.97665"><ele>357.0</ele><time>2026-04-12T12:52:57.44Z</time></trkpt><trkpt lat="44.5267833" lon="7.9765283"><ele>357.5</ele><time>2026-04-12T12:52:59.44Z</time></trkpt><trkpt lat="44.5268383" lon="7.976465"><ele>358.0</ele><time>2026-04-12T12:53:00.44Z</time></trkpt><trkpt lat="44.5269067" lon="7.9764117"><ele>358.5</ele><time>2026-04-12T12:53:01.441Z</time></trkpt><trkpt lat="44.5269667" lon="7.9763717"><ele>359.0</ele><time>2026-04-12T12:53:02.441Z</time></trkpt><trkpt lat="44.5270667" lon="7.9762783"><ele>359.5</ele><time>2026-04-12T12:53:04.44Z</time></trkpt><trkpt lat="44.5271517" lon="7.9761733"><ele>360.0</ele><time>2026-04-12T12:53:06.44Z</time></trkpt><trkpt lat="44.5272317" lon="7.97606"><ele>360.0</ele><time>2026-04-12T12:53:08.44Z</time></trkpt><trkpt lat="44.5273217" lon="7.9759633"><ele>360.0</ele><time>2026-04-12T12:53:10.44Z</time></trkpt><trkpt lat="44.5273967" lon="7.975865"><ele>360.0</ele><time>2026-04-12T12:53:12.44Z</time></trkpt><trkpt lat="44.52748" lon="7.9757767"><ele>360.0</ele><time>2026-04-12T12:53:14.44Z</time></trkpt><trkpt lat="44.5275667" lon="7.9756667"><ele>360.0</ele><time>2026-04-12T12:53:16.44Z</time></trkpt><trkpt lat="44.5276433" lon="7.97557"><ele>361.2</ele><time>2026-04-12T12:53:18.44Z</time></trkpt><trkpt lat="44.5277233" lon="7.9754733"><ele>362.4</ele><time>2026-04-12T12:53:20.441Z</time></trkpt><trkpt lat="44.527795" lon="7.9753933"><ele>363.6</ele><time>2026-04-12T12:53:22.44Z</time></trkpt><trkpt lat="44.5278783" lon="7.9753067"><ele>364.8</ele><time>2026-04-12T12:53:24.44Z</time></trkpt><trkpt lat="44.5279517" lon="7.9752167"><ele>366.0</ele><time>2026-04-12T12:53:26.44Z</time></trkpt><trkpt lat="44.5280267" lon="7.97512"><ele>363.4</ele><time>2026-04-12T12:53:28.44Z</time></trkpt><trkpt lat="44.5280867" lon="7.97501"><ele>360.8</ele><time>2026-04-12T12:53:30.44Z</time></trkpt><trkpt lat="44.5281467" lon="7.97489"><ele>358.2</ele><time>2026-04-12T12:53:32.44Z</time></trkpt><trkpt lat="44.5281967" lon="7.9747217"><ele>355.59999999999997</ele><time>2026-04-12T12:53:34.44Z</time></trkpt><trkpt lat="44.5282033" lon="7.9746333"><ele>353.0</ele><time>2026-04-12T12:53:35.44Z</time></trkpt><trkpt lat="44.5282383" lon="7.974475"><ele>353.0</ele><time>2026-04-12T12:53:37.44Z</time></trkpt><trkpt lat="44.5282683" lon="7.9743917"><ele>353.0</ele><time>2026-04-12T12:53:38.44Z</time></trkpt><trkpt lat="44.5283267" lon="7.9742183"><ele>353.0</ele><time>2026-04-12T12:53:40.44Z</time></trkpt><trkpt lat="44.5283583" lon="7.9741067"><ele>353.0</ele><time>2026-04-12T12:53:41.44Z</time></trkpt><trkpt lat="44.528405" lon="7.9739933"><ele>353.0</ele><time>2026-04-12T12:53:42.44Z</time></trkpt><trkpt lat="44.5284517" lon="7.9738783"><ele>352.4</ele><time>2026-04-12T12:53:43.44Z</time></trkpt><trkpt lat="44.5285117" lon="7.97377"><ele>351.79999999999995</ele><time>2026-04-12T12:53:44.44Z</time></trkpt><trkpt lat="44.52857" lon="7.9736617"><ele>351.2</ele><time>2026-04-12T12:53:45.44Z</time></trkpt><trkpt lat="44.528625" lon="7.9735517"><ele>350.6</ele><time>2026-04-12T12:53:46.44Z</time></trkpt><trkpt lat="44.5286767" lon="7.9734333"><ele>350.0</ele><time>2026-04-12T12:53:47.44Z</time></trkpt><trkpt lat="44.5287317" lon="7.973325"><ele>350.0</ele><time>2026-04-12T12:53:48.44Z</time></trkpt><trkpt lat="44.52879" lon="7.9732117"><ele>350.0</ele><time>2026-04-12T12:53:49.44Z</time></trkpt><trkpt lat="44.5288467" lon="7.9731017"><ele>350.0</ele><time>2026-04-12T12:53:50.441Z</time></trkpt><trkpt lat="44.5289117" lon="7.9729933"><ele>350.0</ele><time>2026-04-12T12:53:51.44Z</time></trkpt><trkpt lat="44.5289767" lon="7.9728867"><ele>350.0</ele><time>2026-04-12T12:53:52.44Z</time></trkpt><trkpt lat="44.5290533" lon="7.972785"><ele>350.0</ele><time>2026-04-12T12:53:53.44Z</time></trkpt><trkpt lat="44.5291333" lon="7.9726867"><ele>350.0</ele><time>2026-04-12T12:53:54.44Z</time></trkpt><trkpt lat="44.5292" lon="7.972585"><ele>350.0</ele><time>2026-04-12T12:53:55.44Z</time></trkpt><trkpt lat="44.5292583" lon="7.9724783"><ele>350.0</ele><time>2026-04-12T12:53:56.44Z</time></trkpt><trkpt lat="44.5293033" lon="7.9723633"><ele>350.0</ele><time>2026-04-12T12:53:57.44Z</time></trkpt><trkpt lat="44.529355" lon="7.9722567"><ele>349.8</ele><time>2026-04-12T12:53:58.44Z</time></trkpt><trkpt lat="44.5294133" lon="7.9721483"><ele>349.6</ele><time>2026-04-12T12:53:59.44Z</time></trkpt><trkpt lat="44.5294583" lon="7.9720317"><ele>349.4</ele><time>2026-04-12T12:54:00.44Z</time></trkpt><trkpt lat="44.5295167" lon="7.971915"><ele>349.2</ele><time>2026-04-12T12:54:01.44Z</time></trkpt><trkpt lat="44.52957" lon="7.9717983"><ele>349.0</ele><time>2026-04-12T12:54:02.44Z</time></trkpt><trkpt lat="44.5296267" lon="7.971685"><ele>346.4</ele><time>2026-04-12T12:54:03.44Z</time></trkpt><trkpt lat="44.529675" lon="7.9715633"><ele>343.79999999999995</ele><time>2026-04-12T12:54:04.44Z</time></trkpt><trkpt lat="44.5297367" lon="7.9714383"><ele>341.20000000000005</ele><time>2026-04-12T12:54:05.44Z</time></trkpt><trkpt lat="44.5298017" lon="7.9713117"><ele>338.6</ele><time>2026-04-12T12:54:06.44Z</time></trkpt><trkpt lat="44.5298583" lon="7.9711917"><ele>336.0</ele><time>2026-04-12T12:54:07.44Z</time></trkpt><trkpt lat="44.52991" lon="7.9710667"><ele>336.0</ele><time>2026-04-12T12:54:08.44Z</time></trkpt><trkpt lat="44.5299617" lon="7.9709467"><ele>336.0</ele><time>2026-04-12T12:54:09.44Z</time></trkpt><trkpt lat="44.530015" lon="7.97082"><ele>336.0</ele><time>2026-04-12T12:54:10.44Z</time></trkpt><trkpt lat="44.5300667" lon="7.97069"><ele>336.0</ele><time>2026-04-12T12:54:11.44Z</time></trkpt><trkpt lat="44.53012" lon="7.9705733"><ele>336.0</ele><time>2026-04-12T12:54:12.44Z</time></trkpt><trkpt lat="44.5301767" lon="7.9704517"><ele>334.6</ele><time>2026-04-12T12:54:13.44Z</time></trkpt><trkpt lat="44.53023" lon="7.9703267"><ele>333.20000000000005</ele><time>2026-04-12T12:54:14.44Z</time></trkpt><trkpt lat="44.5302833" lon="7.9702083"><ele>331.79999999999995</ele><time>2026-04-12T12:54:15.44Z</time></trkpt><trkpt lat="44.53034" lon="7.9700833"><ele>330.4</ele><time>2026-04-12T12:54:16.44Z</time></trkpt><trkpt lat="44.530395" lon="7.96996"><ele>329.0</ele><time>2026-04-12T12:54:17.44Z</time></trkpt><trkpt lat="44.53045" lon="7.96983"><ele>329.0</ele><time>2026-04-12T12:54:18.44Z</time></trkpt><trkpt lat="44.5305017" lon="7.969705"><ele>329.0</ele><time>2026-04-12T12:54:19.44Z</time></trkpt><trkpt lat="44.53056" lon="7.969575"><ele>329.0</ele><time>2026-04-12T12:54:20.44Z</time></trkpt><trkpt lat="44.530615" lon="7.969455"><ele>329.0</ele><time>2026-04-12T12:54:21.44Z</time></trkpt><trkpt lat="44.530665" lon="7.9693317"><ele>329.0</ele><time>2026-04-12T12:54:22.44Z</time></trkpt><trkpt lat="44.5307233" lon="7.96921"><ele>326.59999999999997</ele><time>2026-04-12T12:54:23.44Z</time></trkpt><trkpt lat="44.5307767" lon="7.96909"><ele>324.2</ele><time>2026-04-12T12:54:24.44Z</time></trkpt><trkpt lat="44.53083" lon="7.968975"><ele>321.79999999999995</ele><time>2026-04-12T12:54:25.44Z</time></trkpt><trkpt lat="44.5308767" lon="7.9688583"><ele>319.4</ele><time>2026-04-12T12:54:26.44Z</time></trkpt><trkpt lat="44.5309233" lon="7.968745"><ele>317.0</ele><time>2026-04-12T12:54:27.441Z</time></trkpt><trkpt lat="44.530975" lon="7.968625"><ele>317.0</ele><time>2026-04-12T12:54:28.44Z</time></trkpt><trkpt lat="44.531025" lon="7.968515"><ele>317.0</ele><time>2026-04-12T12:54:29.44Z</time></trkpt><trkpt lat="44.531075" lon="7.9683983"><ele>317.0</ele><time>2026-04-12T12:54:30.44Z</time></trkpt><trkpt lat="44.5311267" lon="7.9682767"><ele>317.0</ele><time>2026-04-12T12:54:31.44Z</time></trkpt><trkpt lat="44.5311833" lon="7.9681583"><ele>317.0</ele><time>2026-04-12T12:54:32.44Z</time></trkpt><trkpt lat="44.5312367" lon="7.968035"><ele>316.4</ele><time>2026-04-12T12:54:33.44Z</time></trkpt><trkpt lat="44.53129" lon="7.9679167"><ele>315.79999999999995</ele><time>2026-04-12T12:54:34.44Z</time></trkpt><trkpt lat="44.5313383" lon="7.9677967"><ele>315.2</ele><time>2026-04-12T12:54:35.44Z</time></trkpt><trkpt lat="44.5313883" lon="7.96768"><ele>314.59999999999997</ele><time>2026-04-12T12:54:36.44Z</time></trkpt><trkpt lat="44.53144" lon="7.96756"><ele>314.0</ele><time>2026-04-12T12:54:37.44Z</time></trkpt><trkpt lat="44.53149" lon="7.96744"><ele>314.0</ele><time>2026-04-12T12:54:38.44Z</time></trkpt><trkpt lat="44.5315433" lon="7.9673233"><ele>314.0</ele><time>2026-04-12T12:54:39.441Z</time></trkpt><trkpt lat="44.5316017" lon="7.9672017"><ele>314.0</ele><time>2026-04-12T12:54:40.44Z</time></trkpt><trkpt lat="44.5316633" lon="7.967075"><ele>314.0</ele><time>2026-04-12T12:54:41.44Z</time></trkpt><trkpt lat="44.5317283" lon="7.96696"><ele>314.0</ele><time>2026-04-12T12:54:42.44Z</time></trkpt><trkpt lat="44.5317983" lon="7.966865"><ele>314.0</ele><time>2026-04-12T12:54:43.44Z</time></trkpt><trkpt lat="44.5318733" lon="7.9667667"><ele>314.0</ele><time>2026-04-12T12:54:44.44Z</time></trkpt><trkpt lat="44.5319467" lon="7.9666683"><ele>314.0</ele><time>2026-04-12T12:54:45.44Z</time></trkpt><trkpt lat="44.5320133" lon="7.96656"><ele>314.0</ele><time>2026-04-12T12:54:46.44Z</time></trkpt><trkpt lat="44.5320883" lon="7.9664583"><ele>314.0</ele><time>2026-04-12T12:54:47.44Z</time></trkpt><trkpt lat="44.532165" lon="7.9663483"><ele>312.4</ele><time>2026-04-12T12:54:48.44Z</time></trkpt><trkpt lat="44.5322283" lon="7.9662467"><ele>310.79999999999995</ele><time>2026-04-12T12:54:49.44Z</time></trkpt><trkpt lat="44.5322917" lon="7.9661333"><ele>309.20000000000005</ele><time>2026-04-12T12:54:50.44Z</time></trkpt><trkpt lat="44.5323517" lon="7.9660217"><ele>307.6</ele><time>2026-04-12T12:54:51.44Z</time></trkpt><trkpt lat="44.5324033" lon="7.965905"><ele>306.0</ele><time>2026-04-12T12:54:52.44Z</time></trkpt><trkpt lat="44.5324517" lon="7.965785"><ele>306.0</ele><time>2026-04-12T12:54:53.44Z</time></trkpt><trkpt lat="44.532505" lon="7.965655"><ele>306.0</ele><time>2026-04-12T12:54:54.44Z</time></trkpt><trkpt lat="44.5325533" lon="7.9655283"><ele>306.0</ele><time>2026-04-12T12:54:55.44Z</time></trkpt><trkpt lat="44.532595" lon="7.9654083"><ele>306.0</ele><time>2026-04-12T12:54:56.44Z</time></trkpt><trkpt lat="44.5326367" lon="7.965295"><ele>306.0</ele><time>2026-04-12T12:54:57.44Z</time></trkpt><trkpt lat="44.5326783" lon="7.9651883"><ele>306.0</ele><time>2026-04-12T12:54:58.44Z</time></trkpt><trkpt lat="44.5327183" lon="7.9650883"><ele>306.0</ele><time>2026-04-12T12:54:59.441Z</time></trkpt><trkpt lat="44.5327583" lon="7.9649867"><ele>306.0</ele><time>2026-04-12T12:55:00.44Z</time></trkpt><trkpt lat="44.5328" lon="7.964885"><ele>306.0</ele><time>2026-04-12T12:55:01.44Z</time></trkpt><trkpt lat="44.53284" lon="7.9647817"><ele>306.0</ele><time>2026-04-12T12:55:02.44Z</time></trkpt><trkpt lat="44.532875" lon="7.96468"><ele>306.0</ele><time>2026-04-12T12:55:03.44Z</time></trkpt><trkpt lat="44.5329117" lon="7.9645767"><ele>306.6666666666667</ele><time>2026-04-12T12:55:04.44Z</time></trkpt><trkpt lat="44.5329583" lon="7.9644783"><ele>307.3333333333333</ele><time>2026-04-12T12:55:05.441Z</time></trkpt><trkpt lat="44.5329983" lon="7.9643733"><ele>308.0</ele><time>2026-04-12T12:55:06.44Z</time></trkpt><trkpt lat="44.533035" lon="7.9642733"><ele>308.66666666666663</ele><time>2026-04-12T12:55:07.44Z</time></trkpt><trkpt lat="44.5330683" lon="7.9641783"><ele>309.3333333333333</ele><time>2026-04-12T12:55:08.44Z</time></trkpt><trkpt lat="44.5331" lon="7.9640667"><ele>310.0</ele><time>2026-04-12T12:55:09.44Z</time></trkpt><trkpt lat="44.5331283" lon="7.9639517"><ele>310.0</ele><time>2026-04-12T12:55:10.44Z</time></trkpt><trkpt lat="44.53316" lon="7.96384"><ele>310.0</ele><time>2026-04-12T12:55:11.44Z</time></trkpt><trkpt lat="44.533195" lon="7.9637333"><ele>310.0</ele><time>2026-04-12T12:55:12.44Z</time></trkpt><trkpt lat="44.5332233" lon="7.96363"><ele>310.0</ele><time>2026-04-12T12:55:13.44Z</time></trkpt><trkpt lat="44.5332617" lon="7.963515"><ele>310.0</ele><time>2026-04-12T12:55:14.44Z</time></trkpt><trkpt lat="44.5332967" lon="7.9634083"><ele>310.0</ele><time>2026-04-12T12:55:15.44Z</time></trkpt><trkpt lat="44.5333233" lon="7.9632933"><ele>309.66666666666663</ele><time>2026-04-12T12:55:16.44Z</time></trkpt><trkpt lat="44.5333483" lon="7.96318"><ele>309.3333333333333</ele><time>2026-04-12T12:55:17.44Z</time></trkpt><trkpt lat="44.5333783" lon="7.9630667"><ele>309.0</ele><time>2026-04-12T12:55:18.44Z</time></trkpt><trkpt lat="44.53341" lon="7.962965"><ele>308.6666666666667</ele><time>2026-04-12T12:55:19.44Z</time></trkpt><trkpt lat="44.5334417" lon="7.96285"><ele>308.33333333333337</ele><time>2026-04-12T12:55:20.44Z</time></trkpt><trkpt lat="44.53347" lon="7.9627467"><ele>308.0</ele><time>2026-04-12T12:55:21.44Z</time></trkpt><trkpt lat="44.5334983" lon="7.962645"><ele>308.0</ele><time>2026-04-12T12:55:22.44Z</time></trkpt><trkpt lat="44.5335217" lon="7.9625317"><ele>308.0</ele><time>2026-04-12T12:55:23.44Z</time></trkpt><trkpt lat="44.533545" lon="7.9624083"><ele>308.0</ele><time>2026-04-12T12:55:24.44Z</time></trkpt><trkpt lat="44.5335617" lon="7.962295"><ele>308.0</ele><time>2026-04-12T12:55:25.44Z</time></trkpt><trkpt lat="44.533585" lon="7.9621817"><ele>308.0</ele><time>2026-04-12T12:55:26.441Z</time></trkpt><trkpt lat="44.5335967" lon="7.9620633"><ele>308.0</ele><time>2026-04-12T12:55:27.441Z</time></trkpt><trkpt lat="44.5336" lon="7.9619433"><ele>307.6666666666667</ele><time>2026-04-12T12:55:28.44Z</time></trkpt><trkpt lat="44.5336033" lon="7.9618267"><ele>307.33333333333337</ele><time>2026-04-12T12:55:29.44Z</time></trkpt><trkpt lat="44.5336083" lon="7.9617133"><ele>307.0</ele><time>2026-04-12T12:55:30.44Z</time></trkpt><trkpt lat="44.533615" lon="7.961595"><ele>306.6666666666667</ele><time>2026-04-12T12:55:31.44Z</time></trkpt><trkpt lat="44.53362" lon="7.96147"><ele>306.3333333333333</ele><time>2026-04-12T12:55:32.44Z</time></trkpt><trkpt lat="44.53363" lon="7.961345"><ele>306.0</ele><time>2026-04-12T12:55:33.44Z</time></trkpt><trkpt lat="44.5336367" lon="7.961215"><ele>305.6666666666667</ele><time>2026-04-12T12:55:34.44Z</time></trkpt><trkpt lat="44.533645" lon="7.9610883"><ele>305.3333333333333</ele><time>2026-04-12T12:55:35.44Z</time></trkpt><trkpt lat="44.533655" lon="7.9609667"><ele>305.0</ele><time>2026-04-12T12:55:36.44Z</time></trkpt><trkpt lat="44.5336633" lon="7.9608467"><ele>304.66666666666663</ele><time>2026-04-12T12:55:37.44Z</time></trkpt><trkpt lat="44.533675" lon="7.9607183"><ele>304.3333333333333</ele><time>2026-04-12T12:55:38.44Z</time></trkpt><trkpt lat="44.5336833" lon="7.9605983"><ele>304.0</ele><time>2026-04-12T12:55:39.44Z</time></trkpt><trkpt lat="44.5336867" lon="7.9604783"><ele>303.59999999999997</ele><time>2026-04-12T12:55:40.44Z</time></trkpt><trkpt lat="44.5336883" lon="7.9603533"><ele>303.2</ele><time>2026-04-12T12:55:41.44Z</time></trkpt><trkpt lat="44.5336867" lon="7.96023"><ele>302.79999999999995</ele><time>2026-04-12T12:55:42.44Z</time></trkpt><trkpt lat="44.5336867" lon="7.9601"><ele>302.4</ele><time>2026-04-12T12:55:43.44Z</time></trkpt><trkpt lat="44.5336917" lon="7.9599717"><ele>302.0</ele><time>2026-04-12T12:55:44.44Z</time></trkpt><trkpt lat="44.5336967" lon="7.9598367"><ele>301.2</ele><time>2026-04-12T12:55:45.44Z</time></trkpt><trkpt lat="44.5337" lon="7.95971"><ele>300.4</ele><time>2026-04-12T12:55:46.44Z</time></trkpt><trkpt lat="44.5337033" lon="7.9595833"><ele>299.6</ele><time>2026-04-12T12:55:47.44Z</time></trkpt><trkpt lat="44.5337" lon="7.959455"><ele>298.8</ele><time>2026-04-12T12:55:48.44Z</time></trkpt><trkpt lat="44.5337" lon="7.95933"><ele>298.0</ele><time>2026-04-12T12:55:49.44Z</time></trkpt><trkpt lat="44.5336967" lon="7.959205"><ele>298.0</ele><time>2026-04-12T12:55:50.44Z</time></trkpt><trkpt lat="44.533685" lon="7.9590867"><ele>298.0</ele><time>2026-04-12T12:55:51.44Z</time></trkpt><trkpt lat="44.5336783" lon="7.95896"><ele>298.0</ele><time>2026-04-12T12:55:52.44Z</time></trkpt><trkpt lat="44.5336733" lon="7.9588367"><ele>298.0</ele><time>2026-04-12T12:55:53.44Z</time></trkpt><trkpt lat="44.5336683" lon="7.9587133"><ele>298.0</ele><time>2026-04-12T12:55:54.44Z</time></trkpt><trkpt lat="44.533665" lon="7.95859"><ele>298.0</ele><time>2026-04-12T12:55:55.44Z</time></trkpt><trkpt lat="44.5336583" lon="7.95846"><ele>298.0</ele><time>2026-04-12T12:55:56.44Z</time></trkpt><trkpt lat="44.53365" lon="7.958335"><ele>298.0</ele><time>2026-04-12T12:55:57.44Z</time></trkpt><trkpt lat="44.53364" lon="7.9582067"><ele>298.0</ele><time>2026-04-12T12:55:58.44Z</time></trkpt><trkpt lat="44.5336233" lon="7.9580817"><ele>298.0</ele><time>2026-04-12T12:55:59.44Z</time></trkpt><trkpt lat="44.533615" lon="7.95796"><ele>298.0</ele><time>2026-04-12T12:56:00.44Z</time></trkpt><trkpt lat="44.53361" lon="7.9578417"><ele>298.0</ele><time>2026-04-12T12:56:01.44Z</time></trkpt><trkpt lat="44.5336" lon="7.9577217"><ele>298.0</ele><time>2026-04-12T12:56:02.44Z</time></trkpt><trkpt lat="44.5335867" lon="7.9576017"><ele>298.0</ele><time>2026-04-12T12:56:03.44Z</time></trkpt><trkpt lat="44.53357" lon="7.9574883"><ele>298.0</ele><time>2026-04-12T12:56:04.44Z</time></trkpt><trkpt lat="44.5335583" lon="7.9573733"><ele>298.0</ele><time>2026-04-12T12:56:05.44Z</time></trkpt><trkpt lat="44.5335467" lon="7.9572667"><ele>298.0</ele><time>2026-04-12T12:56:06.44Z</time></trkpt><trkpt lat="44.5335383" lon="7.9571517"><ele>298.0</ele><time>2026-04-12T12:56:07.44Z</time></trkpt><trkpt lat="44.5335117" lon="7.95704"><ele>298.6</ele><time>2026-04-12T12:56:08.44Z</time></trkpt><trkpt lat="44.5334767" lon="7.9569317"><ele>299.20000000000005</ele><time>2026-04-12T12:56:09.44Z</time></trkpt><trkpt lat="44.5334417" lon="7.9568183"><ele>299.8</ele><time>2026-04-12T12:56:10.44Z</time></trkpt><trkpt lat="44.533415" lon="7.956695"><ele>300.40000000000003</ele><time>2026-04-12T12:56:11.44Z</time></trkpt><trkpt lat="44.5333917" lon="7.9565667"><ele>301.0</ele><time>2026-04-12T12:56:12.44Z</time></trkpt><trkpt lat="44.5333717" lon="7.956435"><ele>301.2</ele><time>2026-04-12T12:56:13.44Z</time></trkpt><trkpt lat="44.5333483" lon="7.9563017"><ele>301.40000000000003</ele><time>2026-04-12T12:56:14.441Z</time></trkpt><trkpt lat="44.5333183" lon="7.9561717"><ele>301.6</ele><time>2026-04-12T12:56:15.44Z</time></trkpt><trkpt lat="44.5332883" lon="7.9560417"><ele>301.8</ele><time>2026-04-12T12:56:16.44Z</time></trkpt><trkpt lat="44.5332633" lon="7.9559133"><ele>302.0</ele><time>2026-04-12T12:56:17.44Z</time></trkpt><trkpt lat="44.5332367" lon="7.9557867"><ele>302.0</ele><time>2026-04-12T12:56:18.441Z</time></trkpt><trkpt lat="44.5332" lon="7.9556617"><ele>302.0</ele><time>2026-04-12T12:56:19.44Z</time></trkpt><trkpt lat="44.53317" lon="7.9555367"><ele>302.0</ele><time>2026-04-12T12:56:20.44Z</time></trkpt><trkpt lat="44.53314" lon="7.9553967"><ele>302.0</ele><time>2026-04-12T12:56:21.44Z</time></trkpt><trkpt lat="44.533105" lon="7.95527"><ele>302.0</ele><time>2026-04-12T12:56:22.44Z</time></trkpt><trkpt lat="44.5330767" lon="7.95514"><ele>301.6</ele><time>2026-04-12T12:56:23.44Z</time></trkpt><trkpt lat="44.5330417" lon="7.9550067"><ele>301.2</ele><time>2026-04-12T12:56:24.44Z</time></trkpt><trkpt lat="44.5330067" lon="7.9548733"><ele>300.8</ele><time>2026-04-12T12:56:25.44Z</time></trkpt><trkpt lat="44.5329733" lon="7.95474"><ele>300.4</ele><time>2026-04-12T12:56:26.44Z</time></trkpt><trkpt lat="44.5329417" lon="7.9546117"><ele>300.0</ele><time>2026-04-12T12:56:27.44Z</time></trkpt><trkpt lat="44.5329183" lon="7.95449"><ele>300.0</ele><time>2026-04-12T12:56:28.44Z</time></trkpt><trkpt lat="44.5329" lon="7.9543633"><ele>300.0</ele><time>2026-04-12T12:56:29.44Z</time></trkpt><trkpt lat="44.5328767" lon="7.9542333"><ele>300.0</ele><time>2026-04-12T12:56:30.44Z</time></trkpt><trkpt lat="44.5328417" lon="7.954105"><ele>300.0</ele><time>2026-04-12T12:56:31.44Z</time></trkpt><trkpt lat="44.5328217" lon="7.9539833"><ele>300.0</ele><time>2026-04-12T12:56:32.44Z</time></trkpt><trkpt lat="44.5327967" lon="7.9538683"><ele>299.5</ele><time>2026-04-12T12:56:33.44Z</time></trkpt><trkpt lat="44.532765" lon="7.9537683"><ele>299.0</ele><time>2026-04-12T12:56:34.441Z</time></trkpt><trkpt lat="44.5327333" lon="7.9536583"><ele>298.5</ele><time>2026-04-12T12:56:35.44Z</time></trkpt><trkpt lat="44.5327067" lon="7.9535483"><ele>298.0</ele><time>2026-04-12T12:56:36.44Z</time></trkpt><trkpt lat="44.5326933" lon="7.9534217"><ele>297.5</ele><time>2026-04-12T12:56:37.44Z</time></trkpt><trkpt lat="44.532675" lon="7.953325"><ele>297.0</ele><time>2026-04-12T12:56:38.44Z</time></trkpt><trkpt lat="44.5326517" lon="7.9532333"><ele>297.0</ele><time>2026-04-12T12:56:39.44Z</time></trkpt><trkpt lat="44.5326333" lon="7.953145"><ele>297.0</ele><time>2026-04-12T12:56:40.44Z</time></trkpt><trkpt lat="44.5326183" lon="7.9530533"><ele>297.0</ele><time>2026-04-12T12:56:41.44Z</time></trkpt><trkpt lat="44.5325967" lon="7.952955"><ele>297.0</ele><time>2026-04-12T12:56:42.441Z</time></trkpt><trkpt lat="44.5325667" lon="7.9528583"><ele>297.0</ele><time>2026-04-12T12:56:43.44Z</time></trkpt><trkpt lat="44.53254" lon="7.95276"><ele>297.0</ele><time>2026-04-12T12:56:44.44Z</time></trkpt><trkpt lat="44.5325167" lon="7.9526683"><ele>297.0</ele><time>2026-04-12T12:56:45.44Z</time></trkpt><trkpt lat="44.5325" lon="7.95257"><ele>296.7142857142857</ele><time>2026-04-12T12:56:46.44Z</time></trkpt><trkpt lat="44.5324733" lon="7.9524817"><ele>296.42857142857144</ele><time>2026-04-12T12:56:47.441Z</time></trkpt><trkpt lat="44.532445" lon="7.95239"><ele>296.14285714285717</ele><time>2026-04-12T12:56:48.44Z</time></trkpt><trkpt lat="44.53242" lon="7.9523"><ele>295.8571428571429</ele><time>2026-04-12T12:56:49.44Z</time></trkpt><trkpt lat="44.532395" lon="7.9522083"><ele>295.57142857142856</ele><time>2026-04-12T12:56:50.44Z</time></trkpt><trkpt lat="44.5323733" lon="7.9521133"><ele>295.28571428571433</ele><time>2026-04-12T12:56:51.44Z</time></trkpt><trkpt lat="44.5323483" lon="7.9520167"><ele>295.0</ele><time>2026-04-12T12:56:52.44Z</time></trkpt><trkpt lat="44.5323233" lon="7.9519217"><ele>295.00000000000006</ele><time>2026-04-12T12:56:53.44Z</time></trkpt><trkpt lat="44.5323017" lon="7.951825"><ele>295.0</ele><time>2026-04-12T12:56:54.44Z</time></trkpt><trkpt lat="44.5322767" lon="7.9517333"><ele>295.0</ele><time>2026-04-12T12:56:55.44Z</time></trkpt><trkpt lat="44.532245" lon="7.951635"><ele>295.0</ele><time>2026-04-12T12:56:56.44Z</time></trkpt><trkpt lat="44.5322167" lon="7.9515383"><ele>295.0</ele><time>2026-04-12T12:56:57.44Z</time></trkpt><trkpt lat="44.5322" lon="7.9514467"><ele>295.00000000000006</ele><time>2026-04-12T12:56:58.44Z</time></trkpt><trkpt lat="44.5321783" lon="7.9513533"><ele>295.0</ele><time>2026-04-12T12:56:59.44Z</time></trkpt><trkpt lat="44.5321617" lon="7.9512533"><ele>295.00000000000006</ele><time>2026-04-12T12:57:00.44Z</time></trkpt><trkpt lat="44.532145" lon="7.951155"><ele>295.0</ele><time>2026-04-12T12:57:01.44Z</time></trkpt><trkpt lat="44.532125" lon="7.9510483"><ele>295.0</ele><time>2026-04-12T12:57:02.44Z</time></trkpt><trkpt lat="44.53211" lon="7.95095"><ele>295.0</ele><time>2026-04-12T12:57:03.44Z</time></trkpt><trkpt lat="44.532095" lon="7.9508417"><ele>295.0</ele><time>2026-04-12T12:57:04.44Z</time></trkpt><trkpt lat="44.5320933" lon="7.9507417"><ele>295.00000000000006</ele><time>2026-04-12T12:57:05.44Z</time></trkpt><trkpt lat="44.532095" lon="7.9506383"><ele>295.0</ele><time>2026-04-12T12:57:06.44Z</time></trkpt><trkpt lat="44.5320967" lon="7.9505417"><ele>295.0</ele><time>2026-04-12T12:57:07.441Z</time></trkpt><trkpt lat="44.5320917" lon="7.950445"><ele>295.0</ele><time>2026-04-12T12:57:08.44Z</time></trkpt><trkpt lat="44.5320833" lon="7.950355"><ele>295.0</ele><time>2026-04-12T12:57:09.44Z</time></trkpt><trkpt lat="44.5320667" lon="7.9501833"><ele>295.0</ele><time>2026-04-12T12:57:11.44Z</time></trkpt><trkpt lat="44.5320683" lon="7.9500933"><ele>295.0</ele><time>2026-04-12T12:57:12.44Z</time></trkpt><trkpt lat="44.5320517" lon="7.9499117"><ele>294.3333333333333</ele><time>2026-04-12T12:57:14.44Z</time></trkpt><trkpt lat="44.532025" lon="7.949825"><ele>293.66666666666663</ele><time>2026-04-12T12:57:15.44Z</time></trkpt><trkpt lat="44.531945" lon="7.9496867"><ele>293.0</ele><time>2026-04-12T12:57:17.44Z</time></trkpt><trkpt lat="44.531885" lon="7.949625"><ele>292.3333333333333</ele><time>2026-04-12T12:57:18.441Z</time></trkpt><trkpt lat="44.531815" lon="7.9495767"><ele>291.6666666666667</ele><time>2026-04-12T12:57:19.44Z</time></trkpt><trkpt lat="44.5317483" lon="7.9495417"><ele>291.0</ele><time>2026-04-12T12:57:20.44Z</time></trkpt><trkpt lat="44.5316667" lon="7.949505"><ele>291.0</ele><time>2026-04-12T12:57:21.44Z</time></trkpt><trkpt lat="44.53159" lon="7.9494767"><ele>291.0</ele><time>2026-04-12T12:57:22.44Z</time></trkpt><trkpt lat="44.53151" lon="7.9494533"><ele>291.0</ele><time>2026-04-12T12:57:23.44Z</time></trkpt><trkpt lat="44.5314317" lon="7.9494417"><ele>291.0</ele><time>2026-04-12T12:57:24.44Z</time></trkpt><trkpt lat="44.53135" lon="7.949425"><ele>291.0</ele><time>2026-04-12T12:57:25.44Z</time></trkpt><trkpt lat="44.531255" lon="7.9494033"><ele>291.0</ele><time>2026-04-12T12:57:26.44Z</time></trkpt><trkpt lat="44.53117" lon="7.94939"><ele>290.6666666666667</ele><time>2026-04-12T12:57:27.44Z</time></trkpt><trkpt lat="44.5310917" lon="7.9493767"><ele>290.3333333333333</ele><time>2026-04-12T12:57:28.44Z</time></trkpt><trkpt lat="44.531015" lon="7.94938"><ele>290.0</ele><time>2026-04-12T12:57:29.44Z</time></trkpt><trkpt lat="44.530935" lon="7.9493833"><ele>289.66666666666663</ele><time>2026-04-12T12:57:30.44Z</time></trkpt><trkpt lat="44.5308717" lon="7.9493833"><ele>289.3333333333333</ele><time>2026-04-12T12:57:31.441Z</time></trkpt><trkpt lat="44.5307717" lon="7.9493183"><ele>289.0</ele><time>2026-04-12T12:57:33.44Z</time></trkpt><trkpt lat="44.5307417" lon="7.94915"><ele>289.0</ele><time>2026-04-12T12:57:35.44Z</time></trkpt><trkpt lat="44.5307533" lon="7.94904"><ele>289.0</ele><time>2026-04-12T12:57:36.44Z</time></trkpt><trkpt lat="44.5307717" lon="7.9489167"><ele>289.0</ele><time>2026-04-12T12:57:37.44Z</time></trkpt><trkpt lat="44.5307883" lon="7.948795"><ele>289.0</ele><time>2026-04-12T12:57:38.441Z</time></trkpt><trkpt lat="44.5308017" lon="7.9486733"><ele>289.0</ele><time>2026-04-12T12:57:39.44Z</time></trkpt><trkpt lat="44.5308133" lon="7.9485467"><ele>289.0</ele><time>2026-04-12T12:57:40.441Z</time></trkpt><trkpt lat="44.5308267" lon="7.9484267"><ele>289.0</ele><time>2026-04-12T12:57:41.44Z</time></trkpt><trkpt lat="44.5308417" lon="7.948305"><ele>289.0</ele><time>2026-04-12T12:57:42.44Z</time></trkpt><trkpt lat="44.5308617" lon="7.948185"><ele>289.0</ele><time>2026-04-12T12:57:43.44Z</time></trkpt><trkpt lat="44.53088" lon="7.94807"><ele>289.0</ele><time>2026-04-12T12:57:44.44Z</time></trkpt><trkpt lat="44.5308933" lon="7.947955"><ele>289.0</ele><time>2026-04-12T12:57:45.44Z</time></trkpt><trkpt lat="44.5308983" lon="7.9478517"><ele>289.0</ele><time>2026-04-12T12:57:46.44Z</time></trkpt><trkpt lat="44.5309067" lon="7.94776"><ele>289.0</ele><time>2026-04-12T12:57:47.44Z</time></trkpt><trkpt lat="44.5309267" lon="7.947615"><ele>289.0</ele><time>2026-04-12T12:57:49.44Z</time></trkpt><trkpt lat="44.5309383" lon="7.9474783"><ele>289.0</ele><time>2026-04-12T12:57:51.44Z</time></trkpt><trkpt lat="44.5309517" lon="7.9473383"><ele>289.0</ele><time>2026-04-12T12:57:53.44Z</time></trkpt><trkpt lat="44.53097" lon="7.9471833"><ele>289.0</ele><time>2026-04-12T12:57:55.44Z</time></trkpt><trkpt lat="44.5309917" lon="7.9470067"><ele>288.7142857142857</ele><time>2026-04-12T12:57:57.44Z</time></trkpt><trkpt lat="44.531" lon="7.9469133"><ele>288.42857142857144</ele><time>2026-04-12T12:57:58.44Z</time></trkpt><trkpt lat="44.5309783" lon="7.9468133"><ele>288.1428571428571</ele><time>2026-04-12T12:57:59.44Z</time></trkpt><trkpt lat="44.530995" lon="7.9467167"><ele>287.8571428571429</ele><time>2026-04-12T12:58:00.44Z</time></trkpt><trkpt lat="44.531005" lon="7.9466183"><ele>287.57142857142856</ele><time>2026-04-12T12:58:01.44Z</time></trkpt><trkpt lat="44.5310183" lon="7.9465217"><ele>287.2857142857143</ele><time>2026-04-12T12:58:02.44Z</time></trkpt><trkpt lat="44.5310367" lon="7.9464267"><ele>287.0</ele><time>2026-04-12T12:58:03.44Z</time></trkpt><trkpt lat="44.53106" lon="7.9463333"><ele>287.0</ele><time>2026-04-12T12:58:04.44Z</time></trkpt><trkpt lat="44.5310733" lon="7.9462367"><ele>287.0</ele><time>2026-04-12T12:58:05.44Z</time></trkpt><trkpt lat="44.5310817" lon="7.94614"><ele>287.0</ele><time>2026-04-12T12:58:06.44Z</time></trkpt><trkpt lat="44.5311017" lon="7.94598"><ele>287.0</ele><time>2026-04-12T12:58:08.44Z</time></trkpt><trkpt lat="44.5311267" lon="7.9458083"><ele>287.0</ele><time>2026-04-12T12:58:10.44Z</time></trkpt><trkpt lat="44.53115" lon="7.9456517"><ele>286.83333333333337</ele><time>2026-04-12T12:58:12.44Z</time></trkpt><trkpt lat="44.5311617" lon="7.945535"><ele>286.6666666666667</ele><time>2026-04-12T12:58:14.44Z</time></trkpt><trkpt lat="44.53116" lon="7.9454367"><ele>286.5</ele><time>2026-04-12T12:58:17.44Z</time></trkpt><trkpt lat="44.5311517" lon="7.945325"><ele>286.3333333333333</ele><time>2026-04-12T12:58:20.44Z</time></trkpt><trkpt lat="44.531145" lon="7.9452133"><ele>286.16666666666663</ele><time>2026-04-12T12:58:22.44Z</time></trkpt><trkpt lat="44.5311633" lon="7.9450683"><ele>286.0</ele><time>2026-04-12T12:58:24.44Z</time></trkpt><trkpt lat="44.531175" lon="7.9448967"><ele>285.40000000000003</ele><time>2026-04-12T12:58:26.44Z</time></trkpt><trkpt lat="44.5311867" lon="7.94472"><ele>284.8</ele><time>2026-04-12T12:58:28.44Z</time></trkpt><trkpt lat="44.5311933" lon="7.944545"><ele>284.20000000000005</ele><time>2026-04-12T12:58:30.44Z</time></trkpt><trkpt lat="44.5312017" lon="7.9444467"><ele>283.6</ele><time>2026-04-12T12:58:31.44Z</time></trkpt><trkpt lat="44.5312117" lon="7.944355"><ele>283.0</ele><time>2026-04-12T12:58:32.44Z</time></trkpt><trkpt lat="44.5312167" lon="7.94426"><ele>283.2</ele><time>2026-04-12T12:58:33.44Z</time></trkpt><trkpt lat="44.5312133" lon="7.94417"><ele>283.4</ele><time>2026-04-12T12:58:34.44Z</time></trkpt><trkpt lat="44.531215" lon="7.9440817"><ele>283.59999999999997</ele><time>2026-04-12T12:58:35.44Z</time></trkpt><trkpt lat="44.5312267" lon="7.9439117"><ele>283.8</ele><time>2026-04-12T12:58:37.44Z</time></trkpt><trkpt lat="44.5312283" lon="7.94375"><ele>284.0</ele><time>2026-04-12T12:58:39.44Z</time></trkpt><trkpt lat="44.5312167" lon="7.9436067"><ele>284.0</ele><time>2026-04-12T12:58:41.44Z</time></trkpt><trkpt lat="44.5311867" lon="7.9435183"><ele>284.0</ele><time>2026-04-12T12:58:43.44Z</time></trkpt><trkpt lat="44.53117" lon="7.943375"><ele>284.0</ele><time>2026-04-12T12:58:46.44Z</time></trkpt><trkpt lat="44.5311717" lon="7.9432367"><ele>284.0</ele><time>2026-04-12T12:58:48.44Z</time></trkpt><trkpt lat="44.5311833" lon="7.9431067"><ele>284.0</ele><time>2026-04-12T12:58:50.44Z</time></trkpt><trkpt lat="44.5311833" lon="7.942985"><ele>283.85714285714283</ele><time>2026-04-12T12:58:52.44Z</time></trkpt><trkpt lat="44.5311433" lon="7.9428983"><ele>283.71428571428567</ele><time>2026-04-12T12:58:54.44Z</time></trkpt><trkpt lat="44.5310717" lon="7.942865"><ele>283.57142857142856</ele><time>2026-04-12T12:58:56.44Z</time></trkpt><trkpt lat="44.5310133" lon="7.9427933"><ele>283.42857142857144</ele><time>2026-04-12T12:58:59.44Z</time></trkpt><trkpt lat="44.5309833" lon="7.9427133"><ele>283.28571428571433</ele><time>2026-04-12T12:59:03.44Z</time></trkpt><trkpt lat="44.5309117" lon="7.9427317"><ele>283.14285714285717</ele><time>2026-04-12T12:59:07.44Z</time></trkpt><trkpt lat="44.5308483" lon="7.94272"><ele>283.0</ele><time>2026-04-12T12:59:09.44Z</time></trkpt><trkpt lat="44.530775" lon="7.9426983"><ele>283.0</ele><time>2026-04-12T12:59:11.44Z</time></trkpt><trkpt lat="44.5306917" lon="7.9426667"><ele>283.0</ele><time>2026-04-12T12:59:13.44Z</time></trkpt><trkpt lat="44.5306267" lon="7.9425617"><ele>283.0</ele><time>2026-04-12T12:59:15.44Z</time></trkpt><trkpt lat="44.5306183" lon="7.9424233"><ele>283.0</ele><time>2026-04-12T12:59:17.44Z</time></trkpt><trkpt lat="44.530645" lon="7.94227"><ele>283.0</ele><time>2026-04-12T12:59:19.44Z</time></trkpt><trkpt lat="44.5306483" lon="7.942115"><ele>282.8</ele><time>2026-04-12T12:59:21.44Z</time></trkpt><trkpt lat="44.5306417" lon="7.941945"><ele>282.6</ele><time>2026-04-12T12:59:23.44Z</time></trkpt><trkpt lat="44.5306467" lon="7.9417717"><ele>282.4</ele><time>2026-04-12T12:59:25.44Z</time></trkpt><trkpt lat="44.5306367" lon="7.94159"><ele>282.2</ele><time>2026-04-12T12:59:27.44Z</time></trkpt><trkpt lat="44.53063" lon="7.9415017"><ele>282.0</ele><time>2026-04-12T12:59:28.44Z</time></trkpt><trkpt lat="44.5306167" lon="7.9413267"><ele>281.6</ele><time>2026-04-12T12:59:30.441Z</time></trkpt><trkpt lat="44.530605" lon="7.941155"><ele>281.2</ele><time>2026-04-12T12:59:32.44Z</time></trkpt><trkpt lat="44.5305967" lon="7.941065"><ele>280.8</ele><time>2026-04-12T12:59:33.44Z</time></trkpt><trkpt lat="44.530605" lon="7.9408983"><ele>280.4</ele><time>2026-04-12T12:59:35.44Z</time></trkpt><trkpt lat="44.5306083" lon="7.9407267"><ele>280.0</ele><time>2026-04-12T12:59:37.44Z</time></trkpt><trkpt lat="44.530615" lon="7.9405667"><ele>280.0</ele><time>2026-04-12T12:59:39.44Z</time></trkpt><trkpt lat="44.5306167" lon="7.9404"><ele>280.0</ele><time>2026-04-12T12:59:41.44Z</time></trkpt><trkpt lat="44.5306117" lon="7.9402333"><ele>280.0</ele><time>2026-04-12T12:59:43.44Z</time></trkpt><trkpt lat="44.53062" lon="7.940085"><ele>280.0</ele><time>2026-04-12T12:59:45.44Z</time></trkpt><trkpt lat="44.530665" lon="7.9400083"><ele>280.0</ele><time>2026-04-12T12:59:47.441Z</time></trkpt><trkpt lat="44.5307317" lon="7.94"><ele>279.6</ele><time>2026-04-12T12:59:49.44Z</time></trkpt><trkpt lat="44.530835" lon="7.9400117"><ele>279.2</ele><time>2026-04-12T12:59:51.44Z</time></trkpt><trkpt lat="44.5309517" lon="7.9400033"><ele>278.8</ele><time>2026-04-12T12:59:53.44Z</time></trkpt><trkpt lat="44.5310617" lon="7.94"><ele>278.4</ele><time>2026-04-12T12:59:55.44Z</time></trkpt><trkpt lat="44.53117" lon="7.93999"><ele>278.0</ele><time>2026-04-12T12:59:57.44Z</time></trkpt><trkpt lat="44.5312783" lon="7.939995"><ele>277.4</ele><time>2026-04-12T12:59:59.44Z</time></trkpt><trkpt lat="44.5313817" lon="7.9399917"><ele>276.8</ele><time>2026-04-12T13:00:01.44Z</time></trkpt><trkpt lat="44.53147" lon="7.9399217"><ele>276.2</ele><time>2026-04-12T13:00:03.44Z</time></trkpt><trkpt lat="44.53153" lon="7.93978"><ele>275.6</ele><time>2026-04-12T13:00:05.441Z</time></trkpt><trkpt lat="44.5315467" lon="7.9396933"><ele>275.0</ele><time>2026-04-12T13:00:06.44Z</time></trkpt><trkpt lat="44.5315583" lon="7.9395967"><ele>275.0</ele><time>2026-04-12T13:00:07.44Z</time></trkpt><trkpt lat="44.5315667" lon="7.9394983"><ele>275.0</ele><time>2026-04-12T13:00:08.44Z</time></trkpt><trkpt lat="44.5315733" lon="7.9393983"><ele>275.0</ele><time>2026-04-12T13:00:09.44Z</time></trkpt><trkpt lat="44.5315783" lon="7.939305"><ele>275.0</ele><time>2026-04-12T13:00:10.44Z</time></trkpt><trkpt lat="44.53159" lon="7.9392083"><ele>275.0</ele><time>2026-04-12T13:00:11.44Z</time></trkpt><trkpt lat="44.5316" lon="7.93911"><ele>275.0</ele><time>2026-04-12T13:00:12.44Z</time></trkpt><trkpt lat="44.53161" lon="7.93901"><ele>275.0</ele><time>2026-04-12T13:00:13.44Z</time></trkpt><trkpt lat="44.5316183" lon="7.93891"><ele>275.0</ele><time>2026-04-12T13:00:14.44Z</time></trkpt><trkpt lat="44.531615" lon="7.9388083"><ele>275.0</ele><time>2026-04-12T13:00:15.44Z</time></trkpt><trkpt lat="44.53162" lon="7.9387083"><ele>275.0</ele><time>2026-04-12T13:00:16.44Z</time></trkpt><trkpt lat="44.5316333" lon="7.9386133"><ele>275.0</ele><time>2026-04-12T13:00:17.44Z</time></trkpt><trkpt lat="44.53165" lon="7.9385267"><ele>275.0</ele><time>2026-04-12T13:00:18.44Z</time></trkpt><trkpt lat="44.5316717" lon="7.9383683"><ele>275.0</ele><time>2026-04-12T13:00:20.44Z</time></trkpt><trkpt lat="44.53168" lon="7.9382767"><ele>274.8571428571429</ele><time>2026-04-12T13:00:21.44Z</time></trkpt><trkpt lat="44.5316817" lon="7.9381733"><ele>274.7142857142857</ele><time>2026-04-12T13:00:22.44Z</time></trkpt><trkpt lat="44.53169" lon="7.9380833"><ele>274.57142857142856</ele><time>2026-04-12T13:00:23.44Z</time></trkpt><trkpt lat="44.531695" lon="7.937995"><ele>274.42857142857144</ele><time>2026-04-12T13:00:24.44Z</time></trkpt><trkpt lat="44.5317017" lon="7.9379"><ele>274.2857142857143</ele><time>2026-04-12T13:00:25.44Z</time></trkpt><trkpt lat="44.5317033" lon="7.93781"><ele>274.14285714285717</ele><time>2026-04-12T13:00:26.44Z</time></trkpt><trkpt lat="44.5317067" lon="7.9377183"><ele>274.0</ele><time>2026-04-12T13:00:27.44Z</time></trkpt><trkpt lat="44.5317117" lon="7.937625"><ele>274.0</ele><time>2026-04-12T13:00:28.441Z</time></trkpt><trkpt lat="44.53172" lon="7.9375333"><ele>274.0</ele><time>2026-04-12T13:00:29.44Z</time></trkpt><trkpt lat="44.5317333" lon="7.9373583"><ele>274.0</ele><time>2026-04-12T13:00:31.44Z</time></trkpt><trkpt lat="44.5317433" lon="7.9372567"><ele>274.0</ele><time>2026-04-12T13:00:32.44Z</time></trkpt><trkpt lat="44.5317533" lon="7.9371617"><ele>274.0</ele><time>2026-04-12T13:00:33.44Z</time></trkpt><trkpt lat="44.5317617" lon="7.9370633"><ele>274.0</ele><time>2026-04-12T13:00:34.44Z</time></trkpt><trkpt lat="44.53177" lon="7.9369633"><ele>274.00000000000006</ele><time>2026-04-12T13:00:35.44Z</time></trkpt><trkpt lat="44.5317733" lon="7.936865"><ele>274.0</ele><time>2026-04-12T13:00:36.44Z</time></trkpt><trkpt lat="44.53178" lon="7.9367667"><ele>274.0</ele><time>2026-04-12T13:00:37.44Z</time></trkpt><trkpt lat="44.531795" lon="7.93667"><ele>274.0</ele><time>2026-04-12T13:00:38.44Z</time></trkpt><trkpt lat="44.5318033" lon="7.9365733"><ele>274.0</ele><time>2026-04-12T13:00:39.44Z</time></trkpt><trkpt lat="44.531815" lon="7.936475"><ele>274.00000000000006</ele><time>2026-04-12T13:00:40.44Z</time></trkpt><trkpt lat="44.5318283" lon="7.93638"><ele>274.0</ele><time>2026-04-12T13:00:41.44Z</time></trkpt><trkpt lat="44.5318417" lon="7.9362883"><ele>273.7142857142857</ele><time>2026-04-12T13:00:42.44Z</time></trkpt><trkpt lat="44.5318583" lon="7.9361917"><ele>273.42857142857144</ele><time>2026-04-12T13:00:43.44Z</time></trkpt><trkpt lat="44.5318733" lon="7.9360967"><ele>273.1428571428571</ele><time>2026-04-12T13:00:44.441Z</time></trkpt><trkpt lat="44.5318983" lon="7.9360117"><ele>272.8571428571429</ele><time>2026-04-12T13:00:45.44Z</time></trkpt><trkpt lat="44.5319367" lon="7.9359383"><ele>272.57142857142856</ele><time>2026-04-12T13:00:46.44Z</time></trkpt><trkpt lat="44.5319833" lon="7.9358733"><ele>272.2857142857143</ele><time>2026-04-12T13:00:47.44Z</time></trkpt><trkpt lat="44.5320383" lon="7.935825"><ele>272.0</ele><time>2026-04-12T13:00:48.44Z</time></trkpt><trkpt lat="44.5320983" lon="7.9357967"><ele>271.99999999999994</ele><time>2026-04-12T13:00:49.44Z</time></trkpt><trkpt lat="44.53216" lon="7.9357633"><ele>272.0</ele><time>2026-04-12T13:00:50.44Z</time></trkpt><trkpt lat="44.5322217" lon="7.9357267"><ele>272.0</ele><time>2026-04-12T13:00:51.44Z</time></trkpt><trkpt lat="44.532285" lon="7.9356967"><ele>272.0</ele><time>2026-04-12T13:00:52.44Z</time></trkpt><trkpt lat="44.53235" lon="7.9356683"><ele>272.0</ele><time>2026-04-12T13:00:53.44Z</time></trkpt><trkpt lat="44.5324133" lon="7.9356333"><ele>271.99999999999994</ele><time>2026-04-12T13:00:54.44Z</time></trkpt><trkpt lat="44.5324783" lon="7.935595"><ele>272.0</ele><time>2026-04-12T13:00:55.44Z</time></trkpt><trkpt lat="44.5325417" lon="7.93556"><ele>272.0</ele><time>2026-04-12T13:00:56.44Z</time></trkpt><trkpt lat="44.5326683" lon="7.93549"><ele>272.0</ele><time>2026-04-12T13:00:58.44Z</time></trkpt><trkpt lat="44.532735" lon="7.9354517"><ele>272.0</ele><time>2026-04-12T13:00:59.44Z</time></trkpt><trkpt lat="44.532805" lon="7.9354217"><ele>272.0</ele><time>2026-04-12T13:01:00.44Z</time></trkpt><trkpt lat="44.5328683" lon="7.9353883"><ele>272.0</ele><time>2026-04-12T13:01:01.44Z</time></trkpt><trkpt lat="44.5329317" lon="7.93535"><ele>272.0</ele><time>2026-04-12T13:01:02.44Z</time></trkpt><trkpt lat="44.5329967" lon="7.9353133"><ele>272.1428571428571</ele><time>2026-04-12T13:01:03.44Z</time></trkpt><trkpt lat="44.5330617" lon="7.9352783"><ele>272.2857142857143</ele><time>2026-04-12T13:01:04.44Z</time></trkpt><trkpt lat="44.533125" lon="7.93524"><ele>272.42857142857144</ele><time>2026-04-12T13:01:05.44Z</time></trkpt><trkpt lat="44.533185" lon="7.9352067"><ele>272.57142857142856</ele><time>2026-04-12T13:01:06.44Z</time></trkpt><trkpt lat="44.5332517" lon="7.9351733"><ele>272.7142857142857</ele><time>2026-04-12T13:01:07.44Z</time></trkpt><trkpt lat="44.5333217" lon="7.9351333"><ele>272.85714285714283</ele><time>2026-04-12T13:01:08.44Z</time></trkpt><trkpt lat="44.53339" lon="7.9350967"><ele>273.0</ele><time>2026-04-12T13:01:09.44Z</time></trkpt><trkpt lat="44.5334583" lon="7.9350617"><ele>272.42857142857144</ele><time>2026-04-12T13:01:10.44Z</time></trkpt><trkpt lat="44.5335283" lon="7.9350283"><ele>271.8571428571429</ele><time>2026-04-12T13:01:11.44Z</time></trkpt><trkpt lat="44.5335983" lon="7.9349967"><ele>271.2857142857143</ele><time>2026-04-12T13:01:12.44Z</time></trkpt><trkpt lat="44.533665" lon="7.93496"><ele>270.7142857142857</ele><time>2026-04-12T13:01:13.44Z</time></trkpt><trkpt lat="44.5337333" lon="7.9349183"><ele>270.14285714285717</ele><time>2026-04-12T13:01:14.44Z</time></trkpt><trkpt lat="44.5338" lon="7.9348867"><ele>269.57142857142856</ele><time>2026-04-12T13:01:15.44Z</time></trkpt><trkpt lat="44.53387" lon="7.9348517"><ele>269.0</ele><time>2026-04-12T13:01:16.44Z</time></trkpt><trkpt lat="44.5339383" lon="7.9348083"><ele>269.0</ele><time>2026-04-12T13:01:17.44Z</time></trkpt><trkpt lat="44.5340083" lon="7.9347717"><ele>269.0</ele><time>2026-04-12T13:01:18.44Z</time></trkpt><trkpt lat="44.5340717" lon="7.93475"><ele>269.0</ele><time>2026-04-12T13:01:19.44Z</time></trkpt><trkpt lat="44.5341317" lon="7.9347167"><ele>269.0</ele><time>2026-04-12T13:01:20.44Z</time></trkpt><trkpt lat="44.534245" lon="7.9346633"><ele>269.0</ele><time>2026-04-12T13:01:22.44Z</time></trkpt><trkpt lat="44.534305" lon="7.9346317"><ele>269.0</ele><time>2026-04-12T13:01:23.44Z</time></trkpt><trkpt lat="44.5343667" lon="7.9345983"><ele>269.0</ele><time>2026-04-12T13:01:24.44Z</time></trkpt><trkpt lat="44.5344267" lon="7.93456"><ele>269.0</ele><time>2026-04-12T13:01:25.44Z</time></trkpt><trkpt lat="44.5344883" lon="7.9345183"><ele>269.0</ele><time>2026-04-12T13:01:26.44Z</time></trkpt><trkpt lat="44.5345983" lon="7.9344417"><ele>269.0</ele><time>2026-04-12T13:01:28.44Z</time></trkpt><trkpt lat="44.5347" lon="7.934375"><ele>269.0</ele><time>2026-04-12T13:01:30.44Z</time></trkpt><trkpt lat="44.534785" lon="7.934305"><ele>269.0</ele><time>2026-04-12T13:01:32.44Z</time></trkpt><trkpt lat="44.5348733" lon="7.9342183"><ele>269.0</ele><time>2026-04-12T13:01:34.44Z</time></trkpt><trkpt lat="44.53497" lon="7.934105"><ele>269.0</ele><time>2026-04-12T13:01:36.44Z</time></trkpt><trkpt lat="44.5350233" lon="7.9340433"><ele>269.0</ele><time>2026-04-12T13:01:37.44Z</time></trkpt><trkpt lat="44.5350917" lon="7.9339783"><ele>269.0</ele><time>2026-04-12T13:01:38.44Z</time></trkpt><trkpt lat="44.5351517" lon="7.933915"><ele>269.0</ele><time>2026-04-12T13:01:39.44Z</time></trkpt><trkpt lat="44.5352117" lon="7.9338567"><ele>269.0</ele><time>2026-04-12T13:01:40.44Z</time></trkpt><trkpt lat="44.5352717" lon="7.933805"><ele>269.0</ele><time>2026-04-12T13:01:41.44Z</time></trkpt><trkpt lat="44.5353233" lon="7.9337533"><ele>269.0</ele><time>2026-04-12T13:01:42.44Z</time></trkpt><trkpt lat="44.5353817" lon="7.933695"><ele>269.0</ele><time>2026-04-12T13:01:43.44Z</time></trkpt><trkpt lat="44.5354367" lon="7.9336383"><ele>269.0</ele><time>2026-04-12T13:01:44.44Z</time></trkpt><trkpt lat="44.5354967" lon="7.9335817"><ele>269.0</ele><time>2026-04-12T13:01:45.44Z</time></trkpt><trkpt lat="44.5355533" lon="7.9335267"><ele>268.6666666666667</ele><time>2026-04-12T13:01:46.44Z</time></trkpt><trkpt lat="44.5356167" lon="7.93347"><ele>268.33333333333337</ele><time>2026-04-12T13:01:47.44Z</time></trkpt><trkpt lat="44.5356783" lon="7.9334083"><ele>268.0</ele><time>2026-04-12T13:01:48.44Z</time></trkpt><trkpt lat="44.5357583" lon="7.9333533"><ele>267.6666666666667</ele><time>2026-04-12T13:01:49.44Z</time></trkpt><trkpt lat="44.5358233" lon="7.93329"><ele>267.3333333333333</ele><time>2026-04-12T13:01:50.44Z</time></trkpt><trkpt lat="44.5358867" lon="7.933225"><ele>267.0</ele><time>2026-04-12T13:01:51.44Z</time></trkpt><trkpt lat="44.5359433" lon="7.93316"><ele>267.0</ele><time>2026-04-12T13:01:52.44Z</time></trkpt><trkpt lat="44.5359933" lon="7.9330983"><ele>267.0</ele><time>2026-04-12T13:01:53.44Z</time></trkpt><trkpt lat="44.5360917" lon="7.932985"><ele>267.0</ele><time>2026-04-12T13:01:55.44Z</time></trkpt><trkpt lat="44.5361483" lon="7.9329233"><ele>267.0</ele><time>2026-04-12T13:01:56.44Z</time></trkpt><trkpt lat="44.536215" lon="7.9328617"><ele>267.0</ele><time>2026-04-12T13:01:57.44Z</time></trkpt><trkpt lat="44.5362817" lon="7.9328117"><ele>267.0</ele><time>2026-04-12T13:01:58.44Z</time></trkpt><trkpt lat="44.5363417" lon="7.93276"><ele>267.00000000000006</ele><time>2026-04-12T13:01:59.44Z</time></trkpt><trkpt lat="44.5364017" lon="7.9327133"><ele>267.0</ele><time>2026-04-12T13:02:00.44Z</time></trkpt><trkpt lat="44.5364683" lon="7.9326733"><ele>267.0</ele><time>2026-04-12T13:02:01.441Z</time></trkpt><trkpt lat="44.53653" lon="7.9326267"><ele>267.0</ele><time>2026-04-12T13:02:02.44Z</time></trkpt><trkpt lat="44.536595" lon="7.9325767"><ele>267.0</ele><time>2026-04-12T13:02:03.44Z</time></trkpt><trkpt lat="44.5366617" lon="7.93252"><ele>267.00000000000006</ele><time>2026-04-12T13:02:04.44Z</time></trkpt><trkpt lat="44.5367333" lon="7.9324633"><ele>267.0</ele><time>2026-04-12T13:02:05.44Z</time></trkpt><trkpt lat="44.5368017" lon="7.9323983"><ele>267.0</ele><time>2026-04-12T13:02:06.44Z</time></trkpt><trkpt lat="44.536865" lon="7.93234"><ele>267.0</ele><time>2026-04-12T13:02:07.44Z</time></trkpt><trkpt lat="44.5369333" lon="7.9322733"><ele>267.0</ele><time>2026-04-12T13:02:08.44Z</time></trkpt><trkpt lat="44.5370017" lon="7.932215"><ele>267.0</ele><time>2026-04-12T13:02:09.44Z</time></trkpt><trkpt lat="44.5370683" lon="7.9321467"><ele>267.0</ele><time>2026-04-12T13:02:10.44Z</time></trkpt><trkpt lat="44.537135" lon="7.9320767"><ele>267.0</ele><time>2026-04-12T13:02:11.44Z</time></trkpt><trkpt lat="44.5372017" lon="7.9320083"><ele>266.6666666666667</ele><time>2026-04-12T13:02:12.44Z</time></trkpt><trkpt lat="44.5372667" lon="7.9319467"><ele>266.3333333333333</ele><time>2026-04-12T13:02:13.44Z</time></trkpt><trkpt lat="44.5373367" lon="7.931875"><ele>266.0</ele><time>2026-04-12T13:02:14.44Z</time></trkpt><trkpt lat="44.5374117" lon="7.9318"><ele>265.66666666666663</ele><time>2026-04-12T13:02:15.44Z</time></trkpt><trkpt lat="44.53748" lon="7.93172"><ele>265.3333333333333</ele><time>2026-04-12T13:02:16.44Z</time></trkpt><trkpt lat="44.5375517" lon="7.9316517"><ele>265.0</ele><time>2026-04-12T13:02:17.44Z</time></trkpt><trkpt lat="44.5376217" lon="7.9315783"><ele>265.0</ele><time>2026-04-12T13:02:18.44Z</time></trkpt><trkpt lat="44.53769" lon="7.9315017"><ele>265.0</ele><time>2026-04-12T13:02:19.44Z</time></trkpt><trkpt lat="44.5377583" lon="7.9314267"><ele>265.0</ele><time>2026-04-12T13:02:20.44Z</time></trkpt><trkpt lat="44.5378217" lon="7.9313567"><ele>265.0</ele><time>2026-04-12T13:02:21.44Z</time></trkpt><trkpt lat="44.5378883" lon="7.9312833"><ele>265.0</ele><time>2026-04-12T13:02:22.44Z</time></trkpt><trkpt lat="44.5379467" lon="7.93121"><ele>265.0</ele><time>2026-04-12T13:02:23.44Z</time></trkpt><trkpt lat="44.538" lon="7.931135"><ele>265.0</ele><time>2026-04-12T13:02:24.44Z</time></trkpt><trkpt lat="44.5380467" lon="7.931055"><ele>265.0</ele><time>2026-04-12T13:02:25.44Z</time></trkpt><trkpt lat="44.538135" lon="7.9309167"><ele>265.0</ele><time>2026-04-12T13:02:27.44Z</time></trkpt><trkpt lat="44.5381817" lon="7.93084"><ele>265.0</ele><time>2026-04-12T13:02:28.44Z</time></trkpt><trkpt lat="44.5382233" lon="7.9307667"><ele>265.0</ele><time>2026-04-12T13:02:29.44Z</time></trkpt><trkpt lat="44.5382667" lon="7.9307"><ele>265.0</ele><time>2026-04-12T13:02:30.44Z</time></trkpt><trkpt lat="44.5383083" lon="7.9306317"><ele>264.75</ele><time>2026-04-12T13:02:31.44Z</time></trkpt><trkpt lat="44.5383783" lon="7.9305083"><ele>264.5</ele><time>2026-04-12T13:02:33.44Z</time></trkpt><trkpt lat="44.5384533" lon="7.9303783"><ele>264.25</ele><time>2026-04-12T13:02:35.441Z</time></trkpt><trkpt lat="44.538515" lon="7.9302417"><ele>264.0</ele><time>2026-04-12T13:02:37.44Z</time></trkpt><trkpt lat="44.5385883" lon="7.9301183"><ele>264.0</ele><time>2026-04-12T13:02:39.44Z</time></trkpt><trkpt lat="44.5386817" lon="7.930055"><ele>264.0</ele><time>2026-04-12T13:02:41.44Z</time></trkpt><trkpt lat="44.5387733" lon="7.9300917"><ele>264.0</ele><time>2026-04-12T13:02:43.44Z</time></trkpt><trkpt lat="44.5388417" lon="7.9302283"><ele>264.0</ele><time>2026-04-12T13:02:45.441Z</time></trkpt><trkpt lat="44.5388967" lon="7.930375"><ele>264.0</ele><time>2026-04-12T13:02:47.44Z</time></trkpt><trkpt lat="44.53897" lon="7.930515"><ele>264.0</ele><time>2026-04-12T13:02:49.44Z</time></trkpt><trkpt lat="44.539035" lon="7.9306383"><ele>264.0</ele><time>2026-04-12T13:02:51.44Z</time></trkpt><trkpt lat="44.5391" lon="7.93075"><ele>264.0</ele><time>2026-04-12T13:02:53.44Z</time></trkpt><trkpt lat="44.53916" lon="7.9308617"><ele>264.0</ele><time>2026-04-12T13:02:55.44Z</time></trkpt><trkpt lat="44.5392167" lon="7.9309633"><ele>264.0</ele><time>2026-04-12T13:02:57.44Z</time></trkpt><trkpt lat="44.53927" lon="7.9310667"><ele>264.5</ele><time>2026-04-12T13:02:59.44Z</time></trkpt><trkpt lat="44.5393117" lon="7.93117"><ele>265.0</ele><time>2026-04-12T13:03:01.441Z</time></trkpt><trkpt lat="44.5393667" lon="7.9312467"><ele>265.5</ele><time>2026-04-12T13:03:05.44Z</time></trkpt><trkpt lat="44.5394267" lon="7.9312783"><ele>266.0</ele><time>2026-04-12T13:03:07.44Z</time></trkpt><trkpt lat="44.539505" lon="7.9312533"><ele>266.5</ele><time>2026-04-12T13:03:09.44Z</time></trkpt><trkpt lat="44.5395817" lon="7.9311867"><ele>267.0</ele><time>2026-04-12T13:03:11.44Z</time></trkpt><trkpt lat="44.5396667" lon="7.9310983"><ele>266.6666666666667</ele><time>2026-04-12T13:03:13.44Z</time></trkpt><trkpt lat="44.539755" lon="7.9310033"><ele>266.3333333333333</ele><time>2026-04-12T13:03:15.44Z</time></trkpt><trkpt lat="44.539845" lon="7.930915"><ele>266.0</ele><time>2026-04-12T13:03:17.44Z</time></trkpt><trkpt lat="44.539895" lon="7.930855"><ele>265.66666666666663</ele><time>2026-04-12T13:03:18.44Z</time></trkpt><trkpt lat="44.539945" lon="7.9307933"><ele>265.3333333333333</ele><time>2026-04-12T13:03:19.44Z</time></trkpt><trkpt lat="44.5399933" lon="7.9307333"><ele>265.0</ele><time>2026-04-12T13:03:20.44Z</time></trkpt><trkpt lat="44.5400883" lon="7.9306167"><ele>264.99999999999994</ele><time>2026-04-12T13:03:22.44Z</time></trkpt><trkpt lat="44.54014" lon="7.93056"><ele>265.0</ele><time>2026-04-12T13:03:23.44Z</time></trkpt><trkpt lat="44.540195" lon="7.9305067"><ele>265.0</ele><time>2026-04-12T13:03:24.44Z</time></trkpt><trkpt lat="44.540245" lon="7.9304333"><ele>265.0</ele><time>2026-04-12T13:03:25.44Z</time></trkpt><trkpt lat="44.5403" lon="7.9303717"><ele>265.0</ele><time>2026-04-12T13:03:26.44Z</time></trkpt><trkpt lat="44.5403567" lon="7.9303083"><ele>264.99999999999994</ele><time>2026-04-12T13:03:27.44Z</time></trkpt><trkpt lat="44.5404117" lon="7.9302383"><ele>265.0</ele><time>2026-04-12T13:03:28.44Z</time></trkpt><trkpt lat="44.5404633" lon="7.93017"><ele>264.71428571428567</ele><time>2026-04-12T13:03:29.44Z</time></trkpt><trkpt lat="44.54052" lon="7.9301033"><ele>264.42857142857144</ele><time>2026-04-12T13:03:30.44Z</time></trkpt><trkpt lat="44.540575" lon="7.93004"><ele>264.1428571428571</ele><time>2026-04-12T13:03:31.44Z</time></trkpt><trkpt lat="44.54063" lon="7.92998"><ele>263.85714285714283</ele><time>2026-04-12T13:03:32.44Z</time></trkpt><trkpt lat="44.540685" lon="7.9299133"><ele>263.57142857142856</ele><time>2026-04-12T13:03:33.44Z</time></trkpt><trkpt lat="44.54074" lon="7.92985"><ele>263.2857142857143</ele><time>2026-04-12T13:03:34.44Z</time></trkpt><trkpt lat="44.5407983" lon="7.9297867"><ele>263.0</ele><time>2026-04-12T13:03:35.44Z</time></trkpt><trkpt lat="44.5408517" lon="7.9297233"><ele>263.0</ele><time>2026-04-12T13:03:36.44Z</time></trkpt><trkpt lat="44.5409017" lon="7.9296517"><ele>263.0</ele><time>2026-04-12T13:03:37.44Z</time></trkpt><trkpt lat="44.5409633" lon="7.92959"><ele>263.0</ele><time>2026-04-12T13:03:38.441Z</time></trkpt><trkpt lat="44.5410183" lon="7.9295333"><ele>263.0</ele><time>2026-04-12T13:03:39.44Z</time></trkpt><trkpt lat="44.5410733" lon="7.929475"><ele>263.0</ele><time>2026-04-12T13:03:40.44Z</time></trkpt><trkpt lat="44.5411317" lon="7.929415"><ele>263.0</ele><time>2026-04-12T13:03:41.44Z</time></trkpt><trkpt lat="44.5411833" lon="7.9293567"><ele>263.0</ele><time>2026-04-12T13:03:42.44Z</time></trkpt><trkpt lat="44.541235" lon="7.9293"><ele>263.1666666666667</ele><time>2026-04-12T13:03:43.44Z</time></trkpt><trkpt lat="44.541285" lon="7.9292433"><ele>263.33333333333337</ele><time>2026-04-12T13:03:44.44Z</time></trkpt><trkpt lat="44.5413367" lon="7.92918"><ele>263.5</ele><time>2026-04-12T13:03:45.44Z</time></trkpt><trkpt lat="44.5414317" lon="7.9290583"><ele>263.6666666666667</ele><time>2026-04-12T13:03:47.44Z</time></trkpt><trkpt lat="44.5414867" lon="7.928995"><ele>263.8333333333333</ele><time>2026-04-12T13:03:48.44Z</time></trkpt><trkpt lat="44.5415417" lon="7.9289317"><ele>264.0</ele><time>2026-04-12T13:03:49.44Z</time></trkpt><trkpt lat="44.5415983" lon="7.928875"><ele>264.0</ele><time>2026-04-12T13:03:50.44Z</time></trkpt><trkpt lat="44.5416517" lon="7.9288133"><ele>264.0</ele><time>2026-04-12T13:03:51.44Z</time></trkpt><trkpt lat="44.5417033" lon="7.9287567"><ele>264.0</ele><time>2026-04-12T13:03:52.44Z</time></trkpt><trkpt lat="44.5417533" lon="7.928695"><ele>264.0</ele><time>2026-04-12T13:03:53.44Z</time></trkpt><trkpt lat="44.5417983" lon="7.9286317"><ele>264.0</ele><time>2026-04-12T13:03:54.44Z</time></trkpt><trkpt lat="44.5418533" lon="7.9285767"><ele>264.0</ele><time>2026-04-12T13:03:55.44Z</time></trkpt><trkpt lat="44.5419083" lon="7.9285267"><ele>264.0</ele><time>2026-04-12T13:03:56.44Z</time></trkpt><trkpt lat="44.5419633" lon="7.9284767"><ele>264.0</ele><time>2026-04-12T13:03:57.44Z</time></trkpt><trkpt lat="44.5420167" lon="7.9284267"><ele>264.0</ele><time>2026-04-12T13:03:58.44Z</time></trkpt><trkpt lat="44.54213" lon="7.928345"><ele>264.0</ele><time>2026-04-12T13:04:00.44Z</time></trkpt><trkpt lat="44.5422333" lon="7.9282733"><ele>264.0</ele><time>2026-04-12T13:04:02.44Z</time></trkpt><trkpt lat="44.5423367" lon="7.9281917"><ele>264.0</ele><time>2026-04-12T13:04:04.44Z</time></trkpt><trkpt lat="44.5424367" lon="7.9281167"><ele>263.25</ele><time>2026-04-12T13:04:06.44Z</time></trkpt><trkpt lat="44.5425367" lon="7.9280383"><ele>262.5</ele><time>2026-04-12T13:04:08.44Z</time></trkpt><trkpt lat="44.5426383" lon="7.9279633"><ele>261.75</ele><time>2026-04-12T13:04:10.44Z</time></trkpt><trkpt lat="44.5427417" lon="7.9278833"><ele>261.0</ele><time>2026-04-12T13:04:12.44Z</time></trkpt><trkpt lat="44.5428433" lon="7.927795"><ele>261.8</ele><time>2026-04-12T13:04:14.44Z</time></trkpt><trkpt lat="44.54294" lon="7.9277217"><ele>262.6</ele><time>2026-04-12T13:04:16.44Z</time></trkpt><trkpt lat="44.5430283" lon="7.92765"><ele>263.4</ele><time>2026-04-12T13:04:18.44Z</time></trkpt><trkpt lat="44.5431233" lon="7.927575"><ele>264.2</ele><time>2026-04-12T13:04:20.44Z</time></trkpt><trkpt lat="44.543225" lon="7.92753"><ele>265.0</ele><time>2026-04-12T13:04:22.44Z</time></trkpt><trkpt lat="44.5433333" lon="7.9275367"><ele>265.6</ele><time>2026-04-12T13:04:24.44Z</time></trkpt><trkpt lat="44.5434417" lon="7.9275867"><ele>266.2</ele><time>2026-04-12T13:04:26.44Z</time></trkpt><trkpt lat="44.543535" lon="7.9276217"><ele>266.8</ele><time>2026-04-12T13:04:28.44Z</time></trkpt><trkpt lat="44.543615" lon="7.92765"><ele>267.4</ele><time>2026-04-12T13:04:30.44Z</time></trkpt><trkpt lat="44.543705" lon="7.92769"><ele>268.0</ele><time>2026-04-12T13:04:32.44Z</time></trkpt><trkpt lat="44.5437883" lon="7.9277433"><ele>269.5</ele><time>2026-04-12T13:04:34.44Z</time></trkpt><trkpt lat="44.543845" lon="7.9278233"><ele>271.0</ele><time>2026-04-12T13:04:36.44Z</time></trkpt><trkpt lat="44.5438717" lon="7.9279417"><ele>272.5</ele><time>2026-04-12T13:04:38.44Z</time></trkpt><trkpt lat="44.5438967" lon="7.9280483"><ele>274.0</ele><time>2026-04-12T13:04:40.44Z</time></trkpt><trkpt lat="44.5439167" lon="7.928155"><ele>275.5</ele><time>2026-04-12T13:04:42.44Z</time></trkpt><trkpt lat="44.5439317" lon="7.92825"><ele>277.0</ele><time>2026-04-12T13:04:44.44Z</time></trkpt><trkpt lat="44.5439367" lon="7.928355"><ele>278.16666666666663</ele><time>2026-04-12T13:04:46.44Z</time></trkpt><trkpt lat="44.5439117" lon="7.9284717"><ele>279.3333333333333</ele><time>2026-04-12T13:04:48.44Z</time></trkpt><trkpt lat="44.5438783" lon="7.928585"><ele>280.5</ele><time>2026-04-12T13:04:50.44Z</time></trkpt><trkpt lat="44.54384" lon="7.9286817"><ele>281.6666666666667</ele><time>2026-04-12T13:04:52.44Z</time></trkpt><trkpt lat="44.54381" lon="7.9287867"><ele>282.83333333333337</ele><time>2026-04-12T13:04:54.44Z</time></trkpt><trkpt lat="44.543785" lon="7.9288867"><ele>284.0</ele><time>2026-04-12T13:04:56.44Z</time></trkpt><trkpt lat="44.543755" lon="7.9290117"><ele>284.0</ele><time>2026-04-12T13:04:59.44Z</time></trkpt><trkpt lat="44.5437283" lon="7.9290983"><ele>284.0</ele><time>2026-04-12T13:05:01.44Z</time></trkpt><trkpt lat="44.5436917" lon="7.9291833"><ele>284.0</ele><time>2026-04-12T13:05:03.44Z</time></trkpt><trkpt lat="44.5436533" lon="7.9292767"><ele>284.0</ele><time>2026-04-12T13:05:05.44Z</time></trkpt><trkpt lat="44.543615" lon="7.929365"><ele>284.0</ele><time>2026-04-12T13:05:07.44Z</time></trkpt><trkpt lat="44.5435783" lon="7.9294567"><ele>284.0</ele><time>2026-04-12T13:05:09.44Z</time></trkpt><trkpt lat="44.54355" lon="7.9295533"><ele>284.0</ele><time>2026-04-12T13:05:11.44Z</time></trkpt><trkpt lat="44.54353" lon="7.9296383"><ele>284.0</ele><time>2026-04-12T13:05:13.44Z</time></trkpt><trkpt lat="44.5435267" lon="7.9297367"><ele>284.0</ele><time>2026-04-12T13:05:15.44Z</time></trkpt><trkpt lat="44.5435233" lon="7.92984"><ele>284.0</ele><time>2026-04-12T13:05:17.44Z</time></trkpt><trkpt lat="44.5435317" lon="7.9299417"><ele>284.0</ele><time>2026-04-12T13:05:19.44Z</time></trkpt><trkpt lat="44.5435383" lon="7.9300333"><ele>284.0</ele><time>2026-04-12T13:05:21.44Z</time></trkpt><trkpt lat="44.5435333" lon="7.930125"><ele>284.0</ele><time>2026-04-12T13:05:23.44Z</time></trkpt><trkpt lat="44.543525" lon="7.9302233"><ele>284.0</ele><time>2026-04-12T13:05:25.44Z</time></trkpt><trkpt lat="44.543515" lon="7.9303567"><ele>285.1666666666667</ele><time>2026-04-12T13:05:28.44Z</time></trkpt><trkpt lat="44.5435067" lon="7.9304467"><ele>286.33333333333337</ele><time>2026-04-12T13:05:30.44Z</time></trkpt><trkpt lat="44.5434967" lon="7.9305767"><ele>287.5</ele><time>2026-04-12T13:05:33.44Z</time></trkpt><trkpt lat="44.5434917" lon="7.9306667"><ele>288.6666666666667</ele><time>2026-04-12T13:05:35.44Z</time></trkpt><trkpt lat="44.543485" lon="7.9307967"><ele>289.8333333333333</ele><time>2026-04-12T13:05:38.44Z</time></trkpt><trkpt lat="44.54347" lon="7.93093"><ele>291.0</ele><time>2026-04-12T13:05:41.44Z</time></trkpt><trkpt lat="44.54345" lon="7.9310433"><ele>292.1666666666667</ele><time>2026-04-12T13:05:44.441Z</time></trkpt><trkpt lat="44.5434533" lon="7.9311667"><ele>293.3333333333333</ele><time>2026-04-12T13:05:47.44Z</time></trkpt><trkpt lat="44.5434717" lon="7.931295"><ele>294.5</ele><time>2026-04-12T13:05:50.44Z</time></trkpt><trkpt lat="44.543485" lon="7.931385"><ele>295.66666666666663</ele><time>2026-04-12T13:05:52.44Z</time></trkpt><trkpt lat="44.5434967" lon="7.9315117"><ele>296.8333333333333</ele><time>2026-04-12T13:05:55.44Z</time></trkpt><trkpt lat="44.5435267" lon="7.9316383"><ele>298.0</ele><time>2026-04-12T13:05:58.44Z</time></trkpt><trkpt lat="44.543555" lon="7.931725"><ele>300.0</ele><time>2026-04-12T13:06:00.44Z</time></trkpt><trkpt lat="44.5435833" lon="7.93181"><ele>302.0</ele><time>2026-04-12T13:06:02.44Z</time></trkpt><trkpt lat="44.54361" lon="7.931895"><ele>304.0</ele><time>2026-04-12T13:06:04.44Z</time></trkpt><trkpt lat="44.5436367" lon="7.9319817"><ele>306.0</ele><time>2026-04-12T13:06:06.44Z</time></trkpt><trkpt lat="44.54367" lon="7.932095"><ele>308.0</ele><time>2026-04-12T13:06:09.44Z</time></trkpt><trkpt lat="44.5436833" lon="7.93221"><ele>310.0</ele><time>2026-04-12T13:06:12.44Z</time></trkpt><trkpt lat="44.5436917" lon="7.9323217"><ele>310.0</ele><time>2026-04-12T13:06:15.44Z</time></trkpt><trkpt lat="44.5437017" lon="7.9324383"><ele>310.0</ele><time>2026-04-12T13:06:18.44Z</time></trkpt><trkpt lat="44.5437167" lon="7.9325567"><ele>310.0</ele><time>2026-04-12T13:06:21.44Z</time></trkpt><trkpt lat="44.5437283" lon="7.9326683"><ele>310.0</ele><time>2026-04-12T13:06:24.44Z</time></trkpt><trkpt lat="44.54377" lon="7.9327817"><ele>310.0</ele><time>2026-04-12T13:06:27.44Z</time></trkpt><trkpt lat="44.5438183" lon="7.932875"><ele>310.0</ele><time>2026-04-12T13:06:29.44Z</time></trkpt><trkpt lat="44.5438517" lon="7.9329583"><ele>309.57142857142856</ele><time>2026-04-12T13:06:31.44Z</time></trkpt><trkpt lat="44.5438767" lon="7.93304"><ele>309.1428571428571</ele><time>2026-04-12T13:06:33.44Z</time></trkpt><trkpt lat="44.543895" lon="7.9331283"><ele>308.71428571428567</ele><time>2026-04-12T13:06:35.44Z</time></trkpt><trkpt lat="44.5439133" lon="7.9332133"><ele>308.2857142857143</ele><time>2026-04-12T13:06:37.44Z</time></trkpt><trkpt lat="44.5439317" lon="7.9333333"><ele>307.85714285714283</ele><time>2026-04-12T13:06:40.44Z</time></trkpt><trkpt lat="44.543945" lon="7.93342"><ele>307.4285714285714</ele><time>2026-04-12T13:06:42.44Z</time></trkpt><trkpt lat="44.5439617" lon="7.9335083"><ele>307.0</ele><time>2026-04-12T13:06:44.44Z</time></trkpt><trkpt lat="44.543985" lon="7.933615"><ele>308.5</ele><time>2026-04-12T13:06:47.44Z</time></trkpt><trkpt lat="44.5440071" lon="7.9337214"><ele>310.0</ele><time>2026-04-12T13:06:51.354Z</time></trkpt><trkpt lat="44.5440136" lon="7.9338195"><ele>311.5</ele><time>2026-04-12T13:06:54.133Z</time></trkpt><trkpt lat="44.5440567" lon="7.9339167"><ele>313.0</ele><time>2026-04-12T13:06:56.44Z</time></trkpt><trkpt lat="44.5440967" lon="7.9340267"><ele>314.5</ele><time>2026-04-12T13:06:59.44Z</time></trkpt><trkpt lat="44.5441133" lon="7.9341267"><ele>316.0</ele><time>2026-04-12T13:07:02.44Z</time></trkpt><trkpt lat="44.5441217" lon="7.9342333"><ele>317.00000000000006</ele><time>2026-04-12T13:07:05.44Z</time></trkpt><trkpt lat="44.544145" lon="7.9343233"><ele>318.0</ele><time>2026-04-12T13:07:08.44Z</time></trkpt><trkpt lat="44.5441467" lon="7.934425"><ele>319.0</ele><time>2026-04-12T13:07:11.44Z</time></trkpt><trkpt lat="44.54415" lon="7.9345267"><ele>320.0</ele><time>2026-04-12T13:07:14.44Z</time></trkpt><trkpt lat="44.5441733" lon="7.9346467"><ele>321.0</ele><time>2026-04-12T13:07:17.44Z</time></trkpt><trkpt lat="44.5442" lon="7.93475"><ele>322.00000000000006</ele><time>2026-04-12T13:07:20.441Z</time></trkpt><trkpt lat="44.5442317" lon="7.9348267"><ele>323.0</ele><time>2026-04-12T13:07:22.44Z</time></trkpt><trkpt lat="44.5442733" lon="7.9349283"><ele>323.00000000000006</ele><time>2026-04-12T13:07:25.44Z</time></trkpt><trkpt lat="44.5443133" lon="7.9350117"><ele>323.0</ele><time>2026-04-12T13:07:27.44Z</time></trkpt><trkpt lat="44.54435" lon="7.935085"><ele>323.0</ele><time>2026-04-12T13:07:29.44Z</time></trkpt><trkpt lat="44.5443933" lon="7.9351667"><ele>323.0</ele><time>2026-04-12T13:07:31.44Z</time></trkpt><trkpt lat="44.544475" lon="7.9352033"><ele>323.0</ele><time>2026-04-12T13:07:34.44Z</time></trkpt><trkpt lat="44.54452" lon="7.935285"><ele>323.00000000000006</ele><time>2026-04-12T13:07:36.44Z</time></trkpt><trkpt lat="44.5445667" lon="7.9353733"><ele>323.0</ele><time>2026-04-12T13:07:38.44Z</time></trkpt><trkpt lat="44.5446267" lon="7.9354683"><ele>323.5714285714286</ele><time>2026-04-12T13:07:41.44Z</time></trkpt><trkpt lat="44.5446717" lon="7.935565"><ele>324.14285714285717</ele><time>2026-04-12T13:07:44.44Z</time></trkpt><trkpt lat="44.5447167" lon="7.9356317"><ele>324.7142857142857</ele><time>2026-04-12T13:07:47.44Z</time></trkpt><trkpt lat="44.54475" lon="7.9357417"><ele>325.28571428571433</ele><time>2026-04-12T13:07:51.44Z</time></trkpt><trkpt lat="44.5447533" lon="7.9358367"><ele>325.8571428571429</ele><time>2026-04-12T13:07:54.44Z</time></trkpt><trkpt lat="44.5447183" lon="7.9359117"><ele>326.42857142857144</ele><time>2026-04-12T13:07:57.44Z</time></trkpt><trkpt lat="44.54465" lon="7.9359383"><ele>327.0</ele><time>2026-04-12T13:08:00.44Z</time></trkpt><trkpt lat="44.5445717" lon="7.9359417"><ele>327.1666666666667</ele><time>2026-04-12T13:08:04.44Z</time></trkpt><trkpt lat="44.5445" lon="7.9359167"><ele>327.3333333333333</ele><time>2026-04-12T13:08:09.44Z</time></trkpt><trkpt lat="44.5444333" lon="7.9358667"><ele>327.5</ele><time>2026-04-12T13:08:13.441Z</time></trkpt><trkpt lat="44.5443633" lon="7.9358133"><ele>327.66666666666663</ele><time>2026-04-12T13:08:17.44Z</time></trkpt><trkpt lat="44.5442833" lon="7.9357667"><ele>327.8333333333333</ele><time>2026-04-12T13:08:20.44Z</time></trkpt><trkpt lat="44.54421" lon="7.93572"><ele>328.0</ele><time>2026-04-12T13:08:23.44Z</time></trkpt><trkpt lat="44.5441317" lon="7.93565"><ele>328.0</ele><time>2026-04-12T13:08:26.44Z</time></trkpt><trkpt lat="44.5440533" lon="7.9355817"><ele>328.0</ele><time>2026-04-12T13:08:29.44Z</time></trkpt><trkpt lat="44.5439933" lon="7.9355017"><ele>328.0</ele><time>2026-04-12T13:08:32.44Z</time></trkpt><trkpt lat="44.54395" lon="7.935395"><ele>328.0</ele><time>2026-04-12T13:08:35.44Z</time></trkpt><trkpt lat="44.5439167" lon="7.9352817"><ele>328.0</ele><time>2026-04-12T13:08:38.44Z</time></trkpt><trkpt lat="44.5438983" lon="7.9351967"><ele>328.0</ele><time>2026-04-12T13:08:40.44Z</time></trkpt><trkpt lat="44.5438717" lon="7.935085"><ele>327.16666666666663</ele><time>2026-04-12T13:08:43.441Z</time></trkpt><trkpt lat="44.5438183" lon="7.9349917"><ele>326.3333333333333</ele><time>2026-04-12T13:08:46.44Z</time></trkpt><trkpt lat="44.5437567" lon="7.9349083"><ele>325.5</ele><time>2026-04-12T13:08:49.44Z</time></trkpt><trkpt lat="44.54369" lon="7.9348117"><ele>324.6666666666667</ele><time>2026-04-12T13:08:52.44Z</time></trkpt><trkpt lat="44.5436433" lon="7.9347383"><ele>323.83333333333337</ele><time>2026-04-12T13:08:54.44Z</time></trkpt><trkpt lat="44.543605" lon="7.9346667"><ele>323.0</ele><time>2026-04-12T13:08:56.44Z</time></trkpt><trkpt lat="44.5435717" lon="7.9345867"><ele>324.14285714285717</ele><time>2026-04-12T13:08:58.44Z</time></trkpt><trkpt lat="44.5435333" lon="7.9345067"><ele>325.2857142857143</ele><time>2026-04-12T13:09:00.44Z</time></trkpt><trkpt lat="44.5435033" lon="7.9344267"><ele>326.42857142857144</ele><time>2026-04-12T13:09:02.44Z</time></trkpt><trkpt lat="44.5434633" lon="7.93435"><ele>327.57142857142856</ele><time>2026-04-12T13:09:04.44Z</time></trkpt><trkpt lat="44.5434217" lon="7.9342767"><ele>328.7142857142857</ele><time>2026-04-12T13:09:06.44Z</time></trkpt><trkpt lat="44.5433683" lon="7.9341783"><ele>329.8571428571429</ele><time>2026-04-12T13:09:09.44Z</time></trkpt><trkpt lat="44.5433267" lon="7.9340783"><ele>331.0</ele><time>2026-04-12T13:09:12.44Z</time></trkpt><trkpt lat="44.543275" lon="7.9339833"><ele>331.0</ele><time>2026-04-12T13:09:15.44Z</time></trkpt><trkpt lat="44.5432083" lon="7.9339133"><ele>331.0</ele><time>2026-04-12T13:09:18.44Z</time></trkpt><trkpt lat="44.5431467" lon="7.9338933"><ele>331.0</ele><time>2026-04-12T13:09:20.44Z</time></trkpt><trkpt lat="44.5430683" lon="7.9338933"><ele>331.0</ele><time>2026-04-12T13:09:23.44Z</time></trkpt><trkpt lat="44.5429967" lon="7.9339417"><ele>331.0</ele><time>2026-04-12T13:09:26.44Z</time></trkpt><trkpt lat="44.542935" lon="7.9340133"><ele>331.0</ele><time>2026-04-12T13:09:29.44Z</time></trkpt><trkpt lat="44.5429017" lon="7.9341067"><ele>331.0</ele><time>2026-04-12T13:09:32.44Z</time></trkpt><trkpt lat="44.5428883" lon="7.9342117"><ele>331.0</ele><time>2026-04-12T13:09:35.44Z</time></trkpt><trkpt lat="44.5429233" lon="7.9342967"><ele>331.0</ele><time>2026-04-12T13:09:38.44Z</time></trkpt><trkpt lat="44.54297" lon="7.9343633"><ele>331.0</ele><time>2026-04-12T13:09:41.44Z</time></trkpt><trkpt lat="44.5430117" lon="7.9344383"><ele>331.0</ele><time>2026-04-12T13:09:44.44Z</time></trkpt><trkpt lat="44.5430367" lon="7.934535"><ele>331.0</ele><time>2026-04-12T13:09:47.44Z</time></trkpt><trkpt lat="44.5430617" lon="7.9346383"><ele>331.0</ele><time>2026-04-12T13:09:50.44Z</time></trkpt><trkpt lat="44.5430667" lon="7.934735"><ele>331.8571428571429</ele><time>2026-04-12T13:09:53.44Z</time></trkpt><trkpt lat="44.5430767" lon="7.934835"><ele>332.7142857142857</ele><time>2026-04-12T13:09:56.44Z</time></trkpt><trkpt lat="44.54307" lon="7.9349417"><ele>333.57142857142856</ele><time>2026-04-12T13:09:59.44Z</time></trkpt><trkpt lat="44.543065" lon="7.9350517"><ele>334.42857142857144</ele><time>2026-04-12T13:10:02.441Z</time></trkpt><trkpt lat="44.5430633" lon="7.9351583"><ele>335.2857142857143</ele><time>2026-04-12T13:10:05.441Z</time></trkpt><trkpt lat="44.5430533" lon="7.9352667"><ele>336.14285714285717</ele><time>2026-04-12T13:10:08.44Z</time></trkpt><trkpt lat="44.5430467" lon="7.9353617"><ele>337.0</ele><time>2026-04-12T13:10:11.441Z</time></trkpt><trkpt lat="44.5430367" lon="7.9354667"><ele>338.16666666666663</ele><time>2026-04-12T13:10:14.44Z</time></trkpt><trkpt lat="44.5430267" lon="7.9355767"><ele>339.3333333333333</ele><time>2026-04-12T13:10:17.44Z</time></trkpt><trkpt lat="44.543025" lon="7.9356833"><ele>340.5</ele><time>2026-04-12T13:10:20.44Z</time></trkpt><trkpt lat="44.543035" lon="7.9357883"><ele>341.6666666666667</ele><time>2026-04-12T13:10:23.44Z</time></trkpt><trkpt lat="44.5430533" lon="7.935895"><ele>342.83333333333337</ele><time>2026-04-12T13:10:26.44Z</time></trkpt><trkpt lat="44.5430867" lon="7.936"><ele>344.0</ele><time>2026-04-12T13:10:29.44Z</time></trkpt><trkpt lat="44.5431333" lon="7.936105"><ele>345.6666666666667</ele><time>2026-04-12T13:10:32.44Z</time></trkpt><trkpt lat="44.5431767" lon="7.9362"><ele>347.33333333333337</ele><time>2026-04-12T13:10:35.44Z</time></trkpt><trkpt lat="44.5432083" lon="7.936305"><ele>349.0</ele><time>2026-04-12T13:10:38.44Z</time></trkpt><trkpt lat="44.54322" lon="7.936415"><ele>350.6666666666667</ele><time>2026-04-12T13:10:41.44Z</time></trkpt><trkpt lat="44.5432367" lon="7.936535"><ele>352.3333333333333</ele><time>2026-04-12T13:10:44.44Z</time></trkpt><trkpt lat="44.543235" lon="7.9366517"><ele>354.0</ele><time>2026-04-12T13:10:47.44Z</time></trkpt><trkpt lat="44.5432417" lon="7.93675"><ele>355.6666666666667</ele><time>2026-04-12T13:10:50.44Z</time></trkpt><trkpt lat="44.5432433" lon="7.9368667"><ele>357.3333333333333</ele><time>2026-04-12T13:10:53.44Z</time></trkpt><trkpt lat="44.5432483" lon="7.9369783"><ele>359.0</ele><time>2026-04-12T13:10:56.44Z</time></trkpt><trkpt lat="44.54326" lon="7.9370883"><ele>360.66666666666663</ele><time>2026-04-12T13:10:59.44Z</time></trkpt><trkpt lat="44.5432817" lon="7.937195"><ele>362.3333333333333</ele><time>2026-04-12T13:11:02.44Z</time></trkpt><trkpt lat="44.5433" lon="7.937295"><ele>364.0</ele><time>2026-04-12T13:11:05.44Z</time></trkpt><trkpt lat="44.5433417" lon="7.9373783"><ele>364.0</ele><time>2026-04-12T13:11:08.44Z</time></trkpt><trkpt lat="44.543405" lon="7.9374683"><ele>364.0</ele><time>2026-04-12T13:11:11.44Z</time></trkpt><trkpt lat="44.5434783" lon="7.937545"><ele>364.0</ele><time>2026-04-12T13:11:14.44Z</time></trkpt><trkpt lat="44.5435333" lon="7.9376"><ele>364.0</ele><time>2026-04-12T13:11:16.44Z</time></trkpt><trkpt lat="44.5435917" lon="7.93765"><ele>364.0</ele><time>2026-04-12T13:11:18.44Z</time></trkpt><trkpt lat="44.5436667" lon="7.937725"><ele>364.0</ele><time>2026-04-12T13:11:21.44Z</time></trkpt><trkpt lat="44.5437433" lon="7.9377833"><ele>365.8333333333333</ele><time>2026-04-12T13:11:24.44Z</time></trkpt><trkpt lat="44.543815" lon="7.9378417"><ele>367.66666666666663</ele><time>2026-04-12T13:11:27.44Z</time></trkpt><trkpt lat="44.5439" lon="7.937885"><ele>369.5</ele><time>2026-04-12T13:11:30.44Z</time></trkpt><trkpt lat="44.54397" lon="7.93794"><ele>371.3333333333333</ele><time>2026-04-12T13:11:33.44Z</time></trkpt><trkpt lat="44.5440367" lon="7.9379917"><ele>373.1666666666667</ele><time>2026-04-12T13:11:36.44Z</time></trkpt><trkpt lat="44.5440883" lon="7.9380433"><ele>375.0</ele><time>2026-04-12T13:11:39.44Z</time></trkpt><trkpt lat="44.544145" lon="7.9381317"><ele>375.0</ele><time>2026-04-12T13:11:43.44Z</time></trkpt><trkpt lat="44.5441883" lon="7.938225"><ele>375.0</ele><time>2026-04-12T13:11:46.44Z</time></trkpt><trkpt lat="44.5442167" lon="7.9383383"><ele>375.0</ele><time>2026-04-12T13:11:49.44Z</time></trkpt><trkpt lat="44.544225" lon="7.9384467"><ele>375.0</ele><time>2026-04-12T13:11:52.441Z</time></trkpt><trkpt lat="44.5442283" lon="7.9385583"><ele>375.0</ele><time>2026-04-12T13:11:55.44Z</time></trkpt><trkpt lat="44.5442033" lon="7.9386617"><ele>375.0</ele><time>2026-04-12T13:11:58.44Z</time></trkpt><trkpt lat="44.54417" lon="7.9387617"><ele>376.5</ele><time>2026-04-12T13:12:01.44Z</time></trkpt><trkpt lat="44.5441183" lon="7.938845"><ele>378.0</ele><time>2026-04-12T13:12:04.441Z</time></trkpt><trkpt lat="44.544085" lon="7.93896"><ele>379.5</ele><time>2026-04-12T13:12:07.44Z</time></trkpt><trkpt lat="44.5441333" lon="7.9390583"><ele>381.0</ele><time>2026-04-12T13:12:10.441Z</time></trkpt><trkpt lat="44.5442083" lon="7.939125"><ele>382.5</ele><time>2026-04-12T13:12:13.44Z</time></trkpt><trkpt lat="44.5442867" lon="7.9391733"><ele>384.0</ele><time>2026-04-12T13:12:16.44Z</time></trkpt><trkpt lat="44.54438" lon="7.93917"><ele>383.99999999999994</ele><time>2026-04-12T13:12:19.44Z</time></trkpt><trkpt lat="44.5444483" lon="7.939175"><ele>384.0</ele><time>2026-04-12T13:12:21.44Z</time></trkpt><trkpt lat="44.5445183" lon="7.939175"><ele>384.0</ele><time>2026-04-12T13:12:23.441Z</time></trkpt><trkpt lat="44.5445817" lon="7.9391933"><ele>384.0</ele><time>2026-04-12T13:12:25.441Z</time></trkpt><trkpt lat="44.5446383" lon="7.939285"><ele>384.0</ele><time>2026-04-12T13:12:28.44Z</time></trkpt><trkpt lat="44.5446633" lon="7.93937"><ele>383.99999999999994</ele><time>2026-04-12T13:12:30.44Z</time></trkpt><trkpt lat="44.544675" lon="7.9394583"><ele>384.0</ele><time>2026-04-12T13:12:32.44Z</time></trkpt><trkpt lat="44.5446733" lon="7.939555"><ele>384.99999999999994</ele><time>2026-04-12T13:12:34.44Z</time></trkpt><trkpt lat="44.5446833" lon="7.9396483"><ele>386.0</ele><time>2026-04-12T13:12:36.44Z</time></trkpt><trkpt lat="44.5446967" lon="7.9397833"><ele>387.0</ele><time>2026-04-12T13:12:39.44Z</time></trkpt><trkpt lat="44.54471" lon="7.93988"><ele>388.0</ele><time>2026-04-12T13:12:41.441Z</time></trkpt><trkpt lat="44.544735" lon="7.939965"><ele>389.0</ele><time>2026-04-12T13:12:43.44Z</time></trkpt><trkpt lat="44.544775" lon="7.9400367"><ele>389.99999999999994</ele><time>2026-04-12T13:12:45.44Z</time></trkpt><trkpt lat="44.5448283" lon="7.94009"><ele>391.0</ele><time>2026-04-12T13:12:47.44Z</time></trkpt><trkpt lat="44.544915" lon="7.9401283"><ele>390.99999999999994</ele><time>2026-04-12T13:12:50.44Z</time></trkpt><trkpt lat="44.5449883" lon="7.94015"><ele>391.0</ele><time>2026-04-12T13:12:52.44Z</time></trkpt><trkpt lat="44.5450583" lon="7.9401717"><ele>391.0</ele><time>2026-04-12T13:12:54.44Z</time></trkpt><trkpt lat="44.5451317" lon="7.9401983"><ele>391.0</ele><time>2026-04-12T13:12:56.44Z</time></trkpt><trkpt lat="44.5452017" lon="7.94021"><ele>391.0</ele><time>2026-04-12T13:12:58.44Z</time></trkpt><trkpt lat="44.5452767" lon="7.9402133"><ele>390.99999999999994</ele><time>2026-04-12T13:13:00.44Z</time></trkpt><trkpt lat="44.545345" lon="7.94022"><ele>391.0</ele><time>2026-04-12T13:13:02.441Z</time></trkpt><trkpt lat="44.5454083" lon="7.9402433"><ele>392.85714285714283</ele><time>2026-04-12T13:13:04.441Z</time></trkpt><trkpt lat="44.5454717" lon="7.94027"><ele>394.7142857142857</ele><time>2026-04-12T13:13:06.44Z</time></trkpt><trkpt lat="44.5455617" lon="7.94028"><ele>396.57142857142856</ele><time>2026-04-12T13:13:09.44Z</time></trkpt><trkpt lat="44.5456233" lon="7.9403017"><ele>398.42857142857144</ele><time>2026-04-12T13:13:11.44Z</time></trkpt><trkpt lat="44.5456817" lon="7.9403433"><ele>400.2857142857143</ele><time>2026-04-12T13:13:13.44Z</time></trkpt><trkpt lat="44.54574" lon="7.9403833"><ele>402.1428571428571</ele><time>2026-04-12T13:13:15.44Z</time></trkpt><trkpt lat="44.54581" lon="7.940445"><ele>404.0</ele><time>2026-04-12T13:13:18.44Z</time></trkpt><trkpt lat="44.5458767" lon="7.9405217"><ele>403.99999999999994</ele><time>2026-04-12T13:13:21.44Z</time></trkpt><trkpt lat="44.5459467" lon="7.9406"><ele>404.0</ele><time>2026-04-12T13:13:24.44Z</time></trkpt><trkpt lat="44.546015" lon="7.940675"><ele>404.0</ele><time>2026-04-12T13:13:27.44Z</time></trkpt><trkpt lat="44.5460733" lon="7.94076"><ele>404.0</ele><time>2026-04-12T13:13:30.44Z</time></trkpt><trkpt lat="44.5461317" lon="7.9408417"><ele>403.99999999999994</ele><time>2026-04-12T13:13:33.44Z</time></trkpt><trkpt lat="44.5461783" lon="7.94093"><ele>404.0</ele><time>2026-04-12T13:13:36.44Z</time></trkpt><trkpt lat="44.5462317" lon="7.9410067"><ele>405.99999999999994</ele><time>2026-04-12T13:13:39.44Z</time></trkpt><trkpt lat="44.54629" lon="7.9410833"><ele>408.0</ele><time>2026-04-12T13:13:42.44Z</time></trkpt><trkpt lat="44.546345" lon="7.9411583"><ele>410.0</ele><time>2026-04-12T13:13:45.44Z</time></trkpt><trkpt lat="44.5463917" lon="7.9412383"><ele>412.0</ele><time>2026-04-12T13:13:48.441Z</time></trkpt><trkpt lat="44.5464533" lon="7.9413083"><ele>413.99999999999994</ele><time>2026-04-12T13:13:51.44Z</time></trkpt><trkpt lat="44.5465167" lon="7.9413733"><ele>416.0</ele><time>2026-04-12T13:13:54.44Z</time></trkpt><trkpt lat="44.54657" lon="7.941445"><ele>415.99999999999994</ele><time>2026-04-12T13:13:57.44Z</time></trkpt><trkpt lat="44.546625" lon="7.9415217"><ele>416.0</ele><time>2026-04-12T13:14:00.44Z</time></trkpt><trkpt lat="44.5466867" lon="7.9415817"><ele>416.0</ele><time>2026-04-12T13:14:03.441Z</time></trkpt><trkpt lat="44.5467433" lon="7.94166"><ele>416.0</ele><time>2026-04-12T13:14:06.44Z</time></trkpt><trkpt lat="44.5468" lon="7.9417317"><ele>415.99999999999994</ele><time>2026-04-12T13:14:09.44Z</time></trkpt><trkpt lat="44.546865" lon="7.9418033"><ele>416.0</ele><time>2026-04-12T13:14:12.44Z</time></trkpt><trkpt lat="44.5469317" lon="7.9418817"><ele>415.16666666666663</ele><time>2026-04-12T13:14:15.44Z</time></trkpt><trkpt lat="44.5469967" lon="7.94195"><ele>414.3333333333333</ele><time>2026-04-12T13:14:18.44Z</time></trkpt><trkpt lat="44.54706" lon="7.9420283"><ele>413.5</ele><time>2026-04-12T13:14:21.44Z</time></trkpt><trkpt lat="44.547125" lon="7.942085"><ele>412.66666666666663</ele><time>2026-04-12T13:14:24.44Z</time></trkpt><trkpt lat="44.54717" lon="7.9421717"><ele>411.8333333333333</ele><time>2026-04-12T13:14:27.44Z</time></trkpt><trkpt lat="44.5471683" lon="7.942265"><ele>411.0</ele><time>2026-04-12T13:14:29.44Z</time></trkpt><trkpt lat="44.5471383" lon="7.94238"><ele>410.6666666666667</ele><time>2026-04-12T13:14:31.44Z</time></trkpt><trkpt lat="44.5471517" lon="7.9424967"><ele>410.33333333333337</ele><time>2026-04-12T13:14:33.44Z</time></trkpt><trkpt lat="44.54723" lon="7.9425883"><ele>410.0</ele><time>2026-04-12T13:14:35.44Z</time></trkpt><trkpt lat="44.5473117" lon="7.9426517"><ele>409.6666666666667</ele><time>2026-04-12T13:14:37.44Z</time></trkpt><trkpt lat="44.5473933" lon="7.9426817"><ele>409.33333333333337</ele><time>2026-04-12T13:14:39.44Z</time></trkpt><trkpt lat="44.54746" lon="7.9427083"><ele>409.0</ele><time>2026-04-12T13:14:41.44Z</time></trkpt><trkpt lat="44.5475483" lon="7.94274"><ele>409.00000000000006</ele><time>2026-04-12T13:14:44.44Z</time></trkpt><trkpt lat="44.54763" lon="7.9427667"><ele>409.0</ele><time>2026-04-12T13:14:47.44Z</time></trkpt><trkpt lat="44.5477083" lon="7.9427767"><ele>409.0</ele><time>2026-04-12T13:14:50.44Z</time></trkpt><trkpt lat="44.547775" lon="7.9427433"><ele>409.0</ele><time>2026-04-12T13:14:53.44Z</time></trkpt><trkpt lat="44.5478383" lon="7.9426967"><ele>409.00000000000006</ele><time>2026-04-12T13:14:56.44Z</time></trkpt><trkpt lat="44.54791" lon="7.94267"><ele>409.0</ele><time>2026-04-12T13:14:59.44Z</time></trkpt><trkpt lat="44.5479767" lon="7.9427167"><ele>412.6666666666667</ele><time>2026-04-12T13:15:02.44Z</time></trkpt><trkpt lat="44.5480383" lon="7.942775"><ele>416.33333333333337</ele><time>2026-04-12T13:15:05.44Z</time></trkpt><trkpt lat="44.54809" lon="7.9428383"><ele>420.0</ele><time>2026-04-12T13:15:08.44Z</time></trkpt><trkpt lat="44.548155" lon="7.9429217"><ele>423.66666666666663</ele><time>2026-04-12T13:15:12.44Z</time></trkpt><trkpt lat="44.5482183" lon="7.9429817"><ele>427.3333333333333</ele><time>2026-04-12T13:15:15.44Z</time></trkpt><trkpt lat="44.5482717" lon="7.9430533"><ele>431.0</ele><time>2026-04-12T13:15:18.441Z</time></trkpt><trkpt lat="44.5483217" lon="7.9431283"><ele>431.0</ele><time>2026-04-12T13:15:21.44Z</time></trkpt><trkpt lat="44.5483783" lon="7.94318"><ele>431.0</ele><time>2026-04-12T13:15:24.44Z</time></trkpt><trkpt lat="44.54844" lon="7.9432267"><ele>431.0</ele><time>2026-04-12T13:15:27.44Z</time></trkpt><trkpt lat="44.5485017" lon="7.9432633"><ele>431.0</ele><time>2026-04-12T13:15:30.44Z</time></trkpt><trkpt lat="44.548575" lon="7.94328"><ele>431.0</ele><time>2026-04-12T13:15:33.44Z</time></trkpt><trkpt lat="44.5486467" lon="7.9432883"><ele>431.0</ele><time>2026-04-12T13:15:36.44Z</time></trkpt><trkpt lat="44.5487233" lon="7.9433"><ele>431.0</ele><time>2026-04-12T13:15:39.44Z</time></trkpt><trkpt lat="44.5487933" lon="7.9433183"><ele>431.66666666666663</ele><time>2026-04-12T13:15:42.44Z</time></trkpt><trkpt lat="44.548875" lon="7.94336"><ele>432.3333333333333</ele><time>2026-04-12T13:15:46.44Z</time></trkpt><trkpt lat="44.54895" lon="7.9434283"><ele>433.0</ele><time>2026-04-12T13:15:49.44Z</time></trkpt><trkpt lat="44.5490033" lon="7.943485"><ele>433.66666666666663</ele><time>2026-04-12T13:15:51.44Z</time></trkpt><trkpt lat="44.54907" lon="7.94355"><ele>434.3333333333333</ele><time>2026-04-12T13:15:53.44Z</time></trkpt><trkpt lat="44.5491283" lon="7.9436117"><ele>435.0</ele><time>2026-04-12T13:15:55.44Z</time></trkpt><trkpt lat="44.5491867" lon="7.9436683"><ele>435.00000000000006</ele><time>2026-04-12T13:15:57.44Z</time></trkpt><trkpt lat="44.549245" lon="7.94373"><ele>435.0</ele><time>2026-04-12T13:15:59.44Z</time></trkpt><trkpt lat="44.5493083" lon="7.943795"><ele>435.0</ele><time>2026-04-12T13:16:01.44Z</time></trkpt><trkpt lat="44.5493667" lon="7.94386"><ele>435.0</ele><time>2026-04-12T13:16:03.44Z</time></trkpt><trkpt lat="44.549425" lon="7.94392"><ele>435.0</ele><time>2026-04-12T13:16:05.44Z</time></trkpt><trkpt lat="44.549475" lon="7.943975"><ele>435.00000000000006</ele><time>2026-04-12T13:16:07.44Z</time></trkpt><trkpt lat="44.5495333" lon="7.944025"><ele>435.0</ele><time>2026-04-12T13:16:09.44Z</time></trkpt><trkpt lat="44.549595" lon="7.9440933"><ele>434.5</ele><time>2026-04-12T13:16:11.44Z</time></trkpt><trkpt lat="44.5496717" lon="7.9441683"><ele>434.0</ele><time>2026-04-12T13:16:13.44Z</time></trkpt><trkpt lat="44.549775" lon="7.944235"><ele>433.5</ele><time>2026-04-12T13:16:15.441Z</time></trkpt><trkpt lat="44.5498833" lon="7.94431"><ele>433.0</ele><time>2026-04-12T13:16:17.44Z</time></trkpt><trkpt lat="44.5499967" lon="7.9443867"><ele>432.0</ele><time>2026-04-12T13:16:19.44Z</time></trkpt><trkpt lat="44.550055" lon="7.944425"><ele>430.99999999999994</ele><time>2026-04-12T13:16:20.44Z</time></trkpt><trkpt lat="44.5501667" lon="7.9445017"><ele>429.99999999999994</ele><time>2026-04-12T13:16:22.44Z</time></trkpt><trkpt lat="44.5502783" lon="7.9445717"><ele>429.0</ele><time>2026-04-12T13:16:24.44Z</time></trkpt><trkpt lat="44.5503917" lon="7.9446467"><ele>428.0</ele><time>2026-04-12T13:16:26.441Z</time></trkpt><trkpt lat="44.5505033" lon="7.9447133"><ele>428.4</ele><time>2026-04-12T13:16:28.44Z</time></trkpt><trkpt lat="44.5506117" lon="7.9447867"><ele>428.79999999999995</ele><time>2026-04-12T13:16:30.44Z</time></trkpt><trkpt lat="44.5506683" lon="7.94483"><ele>429.2</ele><time>2026-04-12T13:16:31.441Z</time></trkpt><trkpt lat="44.550775" lon="7.9449233"><ele>429.6</ele><time>2026-04-12T13:16:33.44Z</time></trkpt><trkpt lat="44.5508817" lon="7.945015"><ele>430.0</ele><time>2026-04-12T13:16:35.44Z</time></trkpt><trkpt lat="44.5509817" lon="7.94511"><ele>430.00000000000006</ele><time>2026-04-12T13:16:37.44Z</time></trkpt><trkpt lat="44.5510383" lon="7.94516"><ele>430.0</ele><time>2026-04-12T13:16:38.44Z</time></trkpt><trkpt lat="44.5510917" lon="7.945215"><ele>430.0</ele><time>2026-04-12T13:16:39.44Z</time></trkpt><trkpt lat="44.5511783" lon="7.9453033"><ele>430.0</ele><time>2026-04-12T13:16:41.44Z</time></trkpt><trkpt lat="44.55127" lon="7.9453617"><ele>430.00000000000006</ele><time>2026-04-12T13:16:43.44Z</time></trkpt><trkpt lat="44.5513617" lon="7.9453917"><ele>430.0</ele><time>2026-04-12T13:16:45.44Z</time></trkpt><trkpt lat="44.5514483" lon="7.9454383"><ele>431.50000000000006</ele><time>2026-04-12T13:19:00.439Z</time></trkpt><trkpt lat="44.55152" lon="7.945465"><ele>433.0</ele><time>2026-04-12T13:19:02.439Z</time></trkpt><trkpt lat="44.55163" lon="7.9455"><ele>434.5</ele><time>2026-04-12T13:19:04.439Z</time></trkpt><trkpt lat="44.5516967" lon="7.9455217"><ele>436.0</ele><time>2026-04-12T13:19:05.439Z</time></trkpt><trkpt lat="44.5517617" lon="7.945545"><ele>437.50000000000006</ele><time>2026-04-12T13:19:06.439Z</time></trkpt><trkpt lat="44.551825" lon="7.9455733"><ele>439.0</ele><time>2026-04-12T13:19:07.439Z</time></trkpt><trkpt lat="44.5518833" lon="7.9456067"><ele>439.0</ele><time>2026-04-12T13:19:08.439Z</time></trkpt><trkpt lat="44.5519433" lon="7.9456467"><ele>439.0</ele><time>2026-04-12T13:19:09.439Z</time></trkpt><trkpt lat="44.5520017" lon="7.945695"><ele>439.0</ele><time>2026-04-12T13:19:10.439Z</time></trkpt><trkpt lat="44.5520567" lon="7.9457533"><ele>439.0</ele><time>2026-04-12T13:19:11.439Z</time></trkpt><trkpt lat="44.5521117" lon="7.9458267"><ele>439.0</ele><time>2026-04-12T13:19:12.439Z</time></trkpt><trkpt lat="44.5521733" lon="7.945885"><ele>439.0</ele><time>2026-04-12T13:19:13.439Z</time></trkpt><trkpt lat="44.5522367" lon="7.9459383"><ele>439.0</ele><time>2026-04-12T13:19:14.439Z</time></trkpt><trkpt lat="44.5523067" lon="7.946"><ele>438.0</ele><time>2026-04-12T13:19:15.439Z</time></trkpt><trkpt lat="44.5523717" lon="7.9460683"><ele>437.0</ele><time>2026-04-12T13:19:16.439Z</time></trkpt><trkpt lat="44.55245" lon="7.9461367"><ele>436.0</ele><time>2026-04-12T13:19:17.439Z</time></trkpt><trkpt lat="44.552525" lon="7.946215"><ele>435.0</ele><time>2026-04-12T13:19:18.439Z</time></trkpt><trkpt lat="44.5526067" lon="7.946295"><ele>434.0</ele><time>2026-04-12T13:19:19.439Z</time></trkpt><trkpt lat="44.55268" lon="7.946385"><ele>434.0</ele><time>2026-04-12T13:19:20.439Z</time></trkpt><trkpt lat="44.5527567" lon="7.9464667"><ele>434.0</ele><time>2026-04-12T13:19:21.439Z</time></trkpt><trkpt lat="44.55285" lon="7.9465467"><ele>434.0</ele><time>2026-04-12T13:19:22.439Z</time></trkpt><trkpt lat="44.55294" lon="7.9466383"><ele>434.0</ele><time>2026-04-12T13:19:23.439Z</time></trkpt><trkpt lat="44.553025" lon="7.94673"><ele>434.0</ele><time>2026-04-12T13:19:24.439Z</time></trkpt><trkpt lat="44.5531" lon="7.946815"><ele>435.49999999999994</ele><time>2026-04-12T13:19:25.439Z</time></trkpt><trkpt lat="44.5531583" lon="7.9469117"><ele>437.0</ele><time>2026-04-12T13:19:26.439Z</time></trkpt><trkpt lat="44.553215" lon="7.9469933"><ele>438.5</ele><time>2026-04-12T13:19:27.439Z</time></trkpt><trkpt lat="44.553245" lon="7.9470733"><ele>440.0</ele><time>2026-04-12T13:19:28.439Z</time></trkpt><trkpt lat="44.5532567" lon="7.94717"><ele>441.49999999999994</ele><time>2026-04-12T13:19:29.439Z</time></trkpt><trkpt lat="44.5532667" lon="7.9472783"><ele>443.0</ele><time>2026-04-12T13:19:30.439Z</time></trkpt><trkpt lat="44.5532633" lon="7.9473867"><ele>443.0</ele><time>2026-04-12T13:19:31.439Z</time></trkpt><trkpt lat="44.55326" lon="7.9474883"><ele>442.99999999999994</ele><time>2026-04-12T13:19:32.44Z</time></trkpt><trkpt lat="44.5533083" lon="7.9476317"><ele>442.99999999999994</ele><time>2026-04-12T13:19:34.439Z</time></trkpt><trkpt lat="44.5534083" lon="7.9477083"><ele>443.0</ele><time>2026-04-12T13:19:36.439Z</time></trkpt><trkpt lat="44.5534667" lon="7.9477433"><ele>443.0</ele><time>2026-04-12T13:19:37.439Z</time></trkpt><trkpt lat="44.553575" lon="7.9478417"><ele>442.49999999999994</ele><time>2026-04-12T13:19:39.439Z</time></trkpt><trkpt lat="44.5536317" lon="7.9478917"><ele>442.0</ele><time>2026-04-12T13:19:40.439Z</time></trkpt><trkpt lat="44.5536833" lon="7.947945"><ele>441.5</ele><time>2026-04-12T13:19:41.439Z</time></trkpt><trkpt lat="44.5537817" lon="7.94805"><ele>441.0</ele><time>2026-04-12T13:19:43.439Z</time></trkpt><trkpt lat="44.5538383" lon="7.9481083"><ele>440.49999999999994</ele><time>2026-04-12T13:19:44.439Z</time></trkpt><trkpt lat="44.5538933" lon="7.9481517"><ele>440.0</ele><time>2026-04-12T13:19:45.439Z</time></trkpt><trkpt lat="44.5539517" lon="7.9481933"><ele>440.0</ele><time>2026-04-12T13:19:46.439Z</time></trkpt><trkpt lat="44.5540567" lon="7.9482867"><ele>440.0</ele><time>2026-04-12T13:19:48.439Z</time></trkpt><trkpt lat="44.5541683" lon="7.94837"><ele>440.0</ele><time>2026-04-12T13:19:50.439Z</time></trkpt><trkpt lat="44.5542317" lon="7.9484167"><ele>440.0</ele><time>2026-04-12T13:19:51.439Z</time></trkpt><trkpt lat="44.554295" lon="7.9484783"><ele>440.0</ele><time>2026-04-12T13:19:52.439Z</time></trkpt><trkpt lat="44.55436" lon="7.94854"><ele>438.85714285714283</ele><time>2026-04-12T13:19:53.439Z</time></trkpt><trkpt lat="44.5544217" lon="7.9486033"><ele>437.7142857142857</ele><time>2026-04-12T13:19:54.439Z</time></trkpt><trkpt lat="44.554485" lon="7.9486667"><ele>436.57142857142856</ele><time>2026-04-12T13:19:55.439Z</time></trkpt><trkpt lat="44.5545417" lon="7.94873"><ele>435.42857142857144</ele><time>2026-04-12T13:19:56.439Z</time></trkpt><trkpt lat="44.5545983" lon="7.9487983"><ele>434.2857142857143</ele><time>2026-04-12T13:19:57.439Z</time></trkpt><trkpt lat="44.5546583" lon="7.9488583"><ele>433.1428571428571</ele><time>2026-04-12T13:19:58.439Z</time></trkpt><trkpt lat="44.5547133" lon="7.9489217"><ele>432.0</ele><time>2026-04-12T13:19:59.439Z</time></trkpt><trkpt lat="44.5547717" lon="7.9489833"><ele>432.0</ele><time>2026-04-12T13:20:00.439Z</time></trkpt><trkpt lat="44.5548233" lon="7.949045"><ele>432.0</ele><time>2026-04-12T13:20:01.44Z</time></trkpt><trkpt lat="44.55488" lon="7.94911"><ele>432.0</ele><time>2026-04-12T13:20:02.439Z</time></trkpt><trkpt lat="44.5549367" lon="7.94918"><ele>432.0</ele><time>2026-04-12T13:20:03.439Z</time></trkpt><trkpt lat="44.554995" lon="7.9492467"><ele>432.0</ele><time>2026-04-12T13:20:04.439Z</time></trkpt><trkpt lat="44.5550517" lon="7.9493133"><ele>432.0</ele><time>2026-04-12T13:20:05.439Z</time></trkpt><trkpt lat="44.5551117" lon="7.94938"><ele>432.0</ele><time>2026-04-12T13:20:06.439Z</time></trkpt><trkpt lat="44.5551667" lon="7.9494483"><ele>432.1666666666667</ele><time>2026-04-12T13:20:07.439Z</time></trkpt><trkpt lat="44.5552233" lon="7.94952"><ele>432.33333333333337</ele><time>2026-04-12T13:20:08.439Z</time></trkpt><trkpt lat="44.5552817" lon="7.9495933"><ele>432.5</ele><time>2026-04-12T13:20:09.439Z</time></trkpt><trkpt lat="44.5553417" lon="7.9496583"><ele>432.6666666666667</ele><time>2026-04-12T13:20:10.439Z</time></trkpt><trkpt lat="44.5554" lon="7.9497233"><ele>432.83333333333337</ele><time>2026-04-12T13:20:11.439Z</time></trkpt><trkpt lat="44.5554633" lon="7.9497883"><ele>433.0</ele><time>2026-04-12T13:20:12.439Z</time></trkpt><trkpt lat="44.555525" lon="7.9498533"><ele>432.99999999999994</ele><time>2026-04-12T13:20:13.439Z</time></trkpt><trkpt lat="44.5555883" lon="7.9499133"><ele>433.0</ele><time>2026-04-12T13:20:14.439Z</time></trkpt><trkpt lat="44.5556467" lon="7.949965"><ele>433.0</ele><time>2026-04-12T13:20:15.439Z</time></trkpt><trkpt lat="44.55571" lon="7.9500167"><ele>433.0</ele><time>2026-04-12T13:20:16.44Z</time></trkpt><trkpt lat="44.5557667" lon="7.9500833"><ele>433.0</ele><time>2026-04-12T13:20:17.439Z</time></trkpt><trkpt lat="44.5558183" lon="7.9501617"><ele>432.99999999999994</ele><time>2026-04-12T13:20:18.439Z</time></trkpt><trkpt lat="44.5558683" lon="7.95023"><ele>433.0</ele><time>2026-04-12T13:20:19.439Z</time></trkpt><trkpt lat="44.555915" lon="7.9502933"><ele>432.2</ele><time>2026-04-12T13:20:20.439Z</time></trkpt><trkpt lat="44.5560017" lon="7.9504117"><ele>431.4</ele><time>2026-04-12T13:20:22.439Z</time></trkpt><trkpt lat="44.556075" lon="7.9505267"><ele>430.59999999999997</ele><time>2026-04-12T13:20:24.44Z</time></trkpt><trkpt lat="44.5561567" lon="7.95062"><ele>429.79999999999995</ele><time>2026-04-12T13:20:26.439Z</time></trkpt><trkpt lat="44.5562433" lon="7.9507033"><ele>429.0</ele><time>2026-04-12T13:20:28.439Z</time></trkpt><trkpt lat="44.5563383" lon="7.9507767"><ele>429.8333333333333</ele><time>2026-04-12T13:20:30.439Z</time></trkpt><trkpt lat="44.5564433" lon="7.9508567"><ele>430.66666666666663</ele><time>2026-04-12T13:20:32.439Z</time></trkpt><trkpt lat="44.5565017" lon="7.9508917"><ele>431.5</ele><time>2026-04-12T13:20:33.439Z</time></trkpt><trkpt lat="44.556565" lon="7.9509283"><ele>432.3333333333333</ele><time>2026-04-12T13:20:34.439Z</time></trkpt><trkpt lat="44.5566317" lon="7.9509617"><ele>433.16666666666663</ele><time>2026-04-12T13:20:35.439Z</time></trkpt><trkpt lat="44.5566967" lon="7.9509917"><ele>434.0</ele><time>2026-04-12T13:20:36.439Z</time></trkpt><trkpt lat="44.5568" lon="7.9510417"><ele>433.99999999999994</ele><time>2026-04-12T13:20:38.439Z</time></trkpt><trkpt lat="44.5568767" lon="7.9511117"><ele>434.0</ele><time>2026-04-12T13:20:40.439Z</time></trkpt><trkpt lat="44.55692" lon="7.9512417"><ele>434.0</ele><time>2026-04-12T13:20:42.439Z</time></trkpt><trkpt lat="44.5569283" lon="7.9513317"><ele>434.0</ele><time>2026-04-12T13:20:43.439Z</time></trkpt><trkpt lat="44.55693" lon="7.9514267"><ele>433.99999999999994</ele><time>2026-04-12T13:20:44.44Z</time></trkpt><trkpt lat="44.5569283" lon="7.9515467"><ele>434.0</ele><time>2026-04-12T13:20:46.439Z</time></trkpt><trkpt lat="44.5569167" lon="7.9516367"><ele>433.6</ele><time>2026-04-12T13:20:48.439Z</time></trkpt><trkpt lat="44.5569367" lon="7.9517417"><ele>433.2</ele><time>2026-04-12T13:20:52.439Z</time></trkpt><trkpt lat="44.5570117" lon="7.9517633"><ele>432.80000000000007</ele><time>2026-04-12T13:20:54.439Z</time></trkpt><trkpt lat="44.5571217" lon="7.95179"><ele>432.40000000000003</ele><time>2026-04-12T13:20:56.439Z</time></trkpt><trkpt lat="44.5572383" lon="7.9517533"><ele>432.0</ele><time>2026-04-12T13:20:58.439Z</time></trkpt><trkpt lat="44.5572717" lon="7.95159"><ele>430.0</ele><time>2026-04-12T13:21:00.439Z</time></trkpt><trkpt lat="44.5572433" lon="7.951505"><ele>428.00000000000006</ele><time>2026-04-12T13:21:01.439Z</time></trkpt><trkpt lat="44.5572117" lon="7.9513533"><ele>426.0</ele><time>2026-04-12T13:21:03.439Z</time></trkpt><trkpt lat="44.5572583" lon="7.9512617"><ele>424.0</ele><time>2026-04-12T13:21:05.439Z</time></trkpt><trkpt lat="44.5573783" lon="7.9512733"><ele>422.0</ele><time>2026-04-12T13:21:07.439Z</time></trkpt><trkpt lat="44.557465" lon="7.9513233"><ele>421.99999999999994</ele><time>2026-04-12T13:21:09.439Z</time></trkpt><trkpt lat="44.5575317" lon="7.9513683"><ele>422.0</ele><time>2026-04-12T13:21:11.439Z</time></trkpt><trkpt lat="44.55764" lon="7.9514233"><ele>422.0</ele><time>2026-04-12T13:21:13.439Z</time></trkpt><trkpt lat="44.5577133" lon="7.95145"><ele>422.0</ele><time>2026-04-12T13:21:14.439Z</time></trkpt><trkpt lat="44.557795" lon="7.95148"><ele>421.99999999999994</ele><time>2026-04-12T13:21:15.439Z</time></trkpt><trkpt lat="44.5578733" lon="7.951515"><ele>422.0</ele><time>2026-04-12T13:21:16.439Z</time></trkpt><trkpt lat="44.5579633" lon="7.9515533"><ele>419.40000000000003</ele><time>2026-04-12T13:21:17.439Z</time></trkpt><trkpt lat="44.5580583" lon="7.9516"><ele>416.8</ele><time>2026-04-12T13:21:18.439Z</time></trkpt><trkpt lat="44.5581583" lon="7.9516317"><ele>414.2</ele><time>2026-04-12T13:21:19.439Z</time></trkpt><trkpt lat="44.5582567" lon="7.9516517"><ele>411.6</ele><time>2026-04-12T13:21:20.439Z</time></trkpt><trkpt lat="44.5583583" lon="7.9516517"><ele>409.0</ele><time>2026-04-12T13:21:21.439Z</time></trkpt><trkpt lat="44.5584667" lon="7.9516233"><ele>409.0</ele><time>2026-04-12T13:21:22.439Z</time></trkpt><trkpt lat="44.5585733" lon="7.951575"><ele>409.0</ele><time>2026-04-12T13:21:23.439Z</time></trkpt><trkpt lat="44.5586783" lon="7.9515133"><ele>409.0</ele><time>2026-04-12T13:21:24.439Z</time></trkpt><trkpt lat="44.5587867" lon="7.95145"><ele>409.0</ele><time>2026-04-12T13:21:25.439Z</time></trkpt><trkpt lat="44.5589067" lon="7.95141"><ele>407.2</ele><time>2026-04-12T13:21:26.439Z</time></trkpt><trkpt lat="44.5590267" lon="7.95138"><ele>405.4</ele><time>2026-04-12T13:21:27.439Z</time></trkpt><trkpt lat="44.5591383" lon="7.9513583"><ele>403.6</ele><time>2026-04-12T13:21:28.439Z</time></trkpt><trkpt lat="44.5592433" lon="7.9513383"><ele>401.8</ele><time>2026-04-12T13:21:29.439Z</time></trkpt><trkpt lat="44.55934" lon="7.9513233"><ele>400.0</ele><time>2026-04-12T13:21:30.439Z</time></trkpt><trkpt lat="44.55944" lon="7.951315"><ele>400.00000000000006</ele><time>2026-04-12T13:21:31.439Z</time></trkpt><trkpt lat="44.55953" lon="7.9513183"><ele>400.0</ele><time>2026-04-12T13:21:32.439Z</time></trkpt><trkpt lat="44.55962" lon="7.951345"><ele>400.0</ele><time>2026-04-12T13:21:33.439Z</time></trkpt><trkpt lat="44.5597017" lon="7.9513817"><ele>400.0</ele><time>2026-04-12T13:21:34.439Z</time></trkpt><trkpt lat="44.5597733" lon="7.9514267"><ele>400.00000000000006</ele><time>2026-04-12T13:21:35.439Z</time></trkpt><trkpt lat="44.5598333" lon="7.9514717"><ele>400.0</ele><time>2026-04-12T13:21:36.439Z</time></trkpt><trkpt lat="44.5599267" lon="7.951515"><ele>399.4</ele><time>2026-04-12T13:21:38.439Z</time></trkpt><trkpt lat="44.5599883" lon="7.951455"><ele>398.8</ele><time>2026-04-12T13:21:40.439Z</time></trkpt><trkpt lat="44.5600583" lon="7.9514367"><ele>398.20000000000005</ele><time>2026-04-12T13:21:44.439Z</time></trkpt><trkpt lat="44.5601267" lon="7.951515"><ele>397.6</ele><time>2026-04-12T13:21:46.439Z</time></trkpt><trkpt lat="44.5602167" lon="7.9516267"><ele>397.0</ele><time>2026-04-12T13:21:48.439Z</time></trkpt><trkpt lat="44.56029" lon="7.9517117"><ele>397.00000000000006</ele><time>2026-04-12T13:21:50.439Z</time></trkpt><trkpt lat="44.5603417" lon="7.95177"><ele>397.0</ele><time>2026-04-12T13:21:52.439Z</time></trkpt><trkpt lat="44.560405" lon="7.9518383"><ele>397.0</ele><time>2026-04-12T13:22:01.439Z</time></trkpt><trkpt lat="44.560465" lon="7.9518983"><ele>397.0</ele><time>2026-04-12T13:22:03.439Z</time></trkpt><trkpt lat="44.56055" lon="7.95199"><ele>397.00000000000006</ele><time>2026-04-12T13:22:05.439Z</time></trkpt><trkpt lat="44.5606433" lon="7.95208"><ele>397.0</ele><time>2026-04-12T13:22:07.439Z</time></trkpt><trkpt lat="44.56073" lon="7.9521767"><ele>395.40000000000003</ele><time>2026-04-12T13:22:09.439Z</time></trkpt><trkpt lat="44.5608217" lon="7.9523"><ele>393.8</ele><time>2026-04-12T13:22:11.439Z</time></trkpt><trkpt lat="44.5609017" lon="7.9524167"><ele>392.2</ele><time>2026-04-12T13:22:13.439Z</time></trkpt><trkpt lat="44.5609533" lon="7.9524767"><ele>390.6</ele><time>2026-04-12T13:22:14.439Z</time></trkpt><trkpt lat="44.5610467" lon="7.9525733"><ele>389.0</ele><time>2026-04-12T13:22:16.439Z</time></trkpt><trkpt lat="44.5611267" lon="7.952665"><ele>388.99999999999994</ele><time>2026-04-12T13:22:18.439Z</time></trkpt><trkpt lat="44.5611933" lon="7.9527183"><ele>389.0</ele><time>2026-04-12T13:22:20.439Z</time></trkpt><trkpt lat="44.56131" lon="7.952745"><ele>389.0</ele><time>2026-04-12T13:22:22.439Z</time></trkpt><trkpt lat="44.561375" lon="7.9527467"><ele>389.0</ele><time>2026-04-12T13:22:23.439Z</time></trkpt><trkpt lat="44.5614483" lon="7.95274"><ele>388.99999999999994</ele><time>2026-04-12T13:22:24.439Z</time></trkpt><trkpt lat="44.5615233" lon="7.95274"><ele>389.0</ele><time>2026-04-12T13:22:25.439Z</time></trkpt><trkpt lat="44.5615967" lon="7.9527383"><ele>385.66666666666663</ele><time>2026-04-12T13:22:26.439Z</time></trkpt><trkpt lat="44.5616733" lon="7.95274"><ele>382.3333333333333</ele><time>2026-04-12T13:22:27.439Z</time></trkpt><trkpt lat="44.5617467" lon="7.95275"><ele>379.0</ele><time>2026-04-12T13:22:28.439Z</time></trkpt><trkpt lat="44.5618233" lon="7.9527567"><ele>375.66666666666663</ele><time>2026-04-12T13:22:29.439Z</time></trkpt><trkpt lat="44.5619" lon="7.9527567"><ele>372.3333333333333</ele><time>2026-04-12T13:22:30.439Z</time></trkpt><trkpt lat="44.5619683" lon="7.9527617"><ele>369.0</ele><time>2026-04-12T13:22:31.439Z</time></trkpt><trkpt lat="44.5620633" lon="7.9527483"><ele>366.8333333333333</ele><time>2026-04-12T13:22:33.44Z</time></trkpt><trkpt lat="44.562135" lon="7.952755"><ele>364.6666666666667</ele><time>2026-04-12T13:22:38.439Z</time></trkpt><trkpt lat="44.5621683" lon="7.9528367"><ele>362.5</ele><time>2026-04-12T13:22:42.439Z</time></trkpt><trkpt lat="44.562175" lon="7.9529367"><ele>360.33333333333337</ele><time>2026-04-12T13:22:44.439Z</time></trkpt><trkpt lat="44.5621633" lon="7.9530433"><ele>358.1666666666667</ele><time>2026-04-12T13:22:46.439Z</time></trkpt><trkpt lat="44.5621033" lon="7.953175"><ele>356.0</ele><time>2026-04-12T13:22:48.439Z</time></trkpt><trkpt lat="44.5620567" lon="7.95324"><ele>356.6666666666667</ele><time>2026-04-12T13:22:49.439Z</time></trkpt><trkpt lat="44.5620017" lon="7.9533033"><ele>357.33333333333337</ele><time>2026-04-12T13:22:50.439Z</time></trkpt><trkpt lat="44.5619383" lon="7.9533667"><ele>358.0</ele><time>2026-04-12T13:22:51.439Z</time></trkpt><trkpt lat="44.56187" lon="7.95343"><ele>358.6666666666667</ele><time>2026-04-12T13:22:52.439Z</time></trkpt><trkpt lat="44.5617983" lon="7.9534917"><ele>359.3333333333333</ele><time>2026-04-12T13:22:53.439Z</time></trkpt><trkpt lat="44.5617383" lon="7.9535683"><ele>360.0</ele><time>2026-04-12T13:22:54.439Z</time></trkpt><trkpt lat="44.56169" lon="7.9536517"><ele>360.0</ele><time>2026-04-12T13:22:55.439Z</time></trkpt><trkpt lat="44.5616583" lon="7.9537567"><ele>360.0</ele><time>2026-04-12T13:22:56.439Z</time></trkpt><trkpt lat="44.5616417" lon="7.9538683"><ele>360.0</ele><time>2026-04-12T13:22:57.439Z</time></trkpt><trkpt lat="44.5616333" lon="7.9539783"><ele>360.0</ele><time>2026-04-12T13:22:58.439Z</time></trkpt><trkpt lat="44.56163" lon="7.9540917"><ele>360.0</ele><time>2026-04-12T13:22:59.439Z</time></trkpt><trkpt lat="44.561625" lon="7.9542117"><ele>360.0</ele><time>2026-04-12T13:23:00.439Z</time></trkpt><trkpt lat="44.5616233" lon="7.9543267"><ele>359.6666666666667</ele><time>2026-04-12T13:23:01.439Z</time></trkpt><trkpt lat="44.5616233" lon="7.9544433"><ele>359.3333333333333</ele><time>2026-04-12T13:23:02.439Z</time></trkpt><trkpt lat="44.561625" lon="7.95456"><ele>359.0</ele><time>2026-04-12T13:23:03.44Z</time></trkpt><trkpt lat="44.561625" lon="7.954665"><ele>358.66666666666663</ele><time>2026-04-12T13:23:04.439Z</time></trkpt><trkpt lat="44.5616233" lon="7.9547717"><ele>358.3333333333333</ele><time>2026-04-12T13:23:05.439Z</time></trkpt><trkpt lat="44.5616233" lon="7.95487"><ele>358.0</ele><time>2026-04-12T13:23:06.439Z</time></trkpt><trkpt lat="44.5616183" lon="7.95497"><ele>359.0</ele><time>2026-04-12T13:23:07.439Z</time></trkpt><trkpt lat="44.5616133" lon="7.9550717"><ele>360.0</ele><time>2026-04-12T13:23:08.439Z</time></trkpt><trkpt lat="44.56161" lon="7.9551733"><ele>361.0</ele><time>2026-04-12T13:23:09.439Z</time></trkpt><trkpt lat="44.5616083" lon="7.9552733"><ele>362.0</ele><time>2026-04-12T13:23:10.439Z</time></trkpt><trkpt lat="44.5616083" lon="7.9553617"><ele>363.0</ele><time>2026-04-12T13:23:11.439Z</time></trkpt><trkpt lat="44.5616083" lon="7.9554517"><ele>364.0</ele><time>2026-04-12T13:23:12.439Z</time></trkpt><trkpt lat="44.5616183" lon="7.95563"><ele>364.0</ele><time>2026-04-12T13:23:14.439Z</time></trkpt><trkpt lat="44.5616033" lon="7.9557867"><ele>364.0</ele><time>2026-04-12T13:23:16.44Z</time></trkpt><trkpt lat="44.561565" lon="7.9559"><ele>364.0</ele><time>2026-04-12T13:23:18.439Z</time></trkpt><trkpt lat="44.5615017" lon="7.9559117"><ele>364.0</ele><time>2026-04-12T13:23:20.439Z</time></trkpt><trkpt lat="44.56144" lon="7.9558633"><ele>364.0</ele><time>2026-04-12T13:23:22.439Z</time></trkpt><trkpt lat="44.5613933" lon="7.9557967"><ele>364.0</ele><time>2026-04-12T13:23:24.439Z</time></trkpt><trkpt lat="44.5613467" lon="7.955715"><ele>364.0</ele><time>2026-04-12T13:23:26.439Z</time></trkpt><trkpt lat="44.561295" lon="7.9556567"><ele>364.0</ele><time>2026-04-12T13:23:28.439Z</time></trkpt><trkpt lat="44.561205" lon="7.95564"><ele>364.0</ele><time>2026-04-12T13:23:31.439Z</time></trkpt><trkpt lat="44.5611317" lon="7.9557083"><ele>364.0</ele><time>2026-04-12T13:23:34.439Z</time></trkpt><trkpt lat="44.56108" lon="7.9558133"><ele>364.0</ele><time>2026-04-12T13:23:37.439Z</time></trkpt><trkpt lat="44.56104" lon="7.95592"><ele>364.0</ele><time>2026-04-12T13:23:40.439Z</time></trkpt><trkpt lat="44.560995" lon="7.956015"><ele>364.8333333333333</ele><time>2026-04-12T13:23:43.439Z</time></trkpt><trkpt lat="44.5609433" lon="7.9560917"><ele>365.66666666666663</ele><time>2026-04-12T13:23:46.439Z</time></trkpt><trkpt lat="44.5608867" lon="7.95617"><ele>366.5</ele><time>2026-04-12T13:23:49.439Z</time></trkpt><trkpt lat="44.560825" lon="7.95624"><ele>367.3333333333333</ele><time>2026-04-12T13:23:52.439Z</time></trkpt><trkpt lat="44.5607583" lon="7.9562917"><ele>368.1666666666667</ele><time>2026-04-12T13:23:55.44Z</time></trkpt><trkpt lat="44.5606883" lon="7.9563433"><ele>369.0</ele><time>2026-04-12T13:23:58.439Z</time></trkpt><trkpt lat="44.5606167" lon="7.9563933"><ele>369.0</ele><time>2026-04-12T13:24:01.439Z</time></trkpt><trkpt lat="44.5605383" lon="7.9564383"><ele>369.0</ele><time>2026-04-12T13:24:04.439Z</time></trkpt><trkpt lat="44.5604683" lon="7.9564883"><ele>369.0</ele><time>2026-04-12T13:24:07.439Z</time></trkpt><trkpt lat="44.5603983" lon="7.956535"><ele>369.0</ele><time>2026-04-12T13:24:10.439Z</time></trkpt><trkpt lat="44.5603417" lon="7.9565883"><ele>369.0</ele><time>2026-04-12T13:24:13.439Z</time></trkpt><trkpt lat="44.5602733" lon="7.9566583"><ele>369.0</ele><time>2026-04-12T13:24:16.439Z</time></trkpt><trkpt lat="44.5602267" lon="7.9567417"><ele>372.8333333333333</ele><time>2026-04-12T13:24:19.439Z</time></trkpt><trkpt lat="44.5601717" lon="7.9568233"><ele>376.66666666666663</ele><time>2026-04-12T13:24:22.439Z</time></trkpt><trkpt lat="44.560115" lon="7.9569033"><ele>380.5</ele><time>2026-04-12T13:24:25.439Z</time></trkpt><trkpt lat="44.560065" lon="7.9569583"><ele>384.3333333333333</ele><time>2026-04-12T13:24:27.439Z</time></trkpt><trkpt lat="44.56002" lon="7.9570233"><ele>388.16666666666663</ele><time>2026-04-12T13:24:29.439Z</time></trkpt><trkpt lat="44.5599783" lon="7.957115"><ele>392.0</ele><time>2026-04-12T13:24:32.439Z</time></trkpt><trkpt lat="44.55994" lon="7.95722"><ele>391.99999999999994</ele><time>2026-04-12T13:24:35.439Z</time></trkpt><trkpt lat="44.55989" lon="7.957335"><ele>392.0</ele><time>2026-04-12T13:24:38.439Z</time></trkpt><trkpt lat="44.559865" lon="7.957445"><ele>392.0</ele><time>2026-04-12T13:24:41.439Z</time></trkpt><trkpt lat="44.559845" lon="7.9575533"><ele>392.0</ele><time>2026-04-12T13:24:44.439Z</time></trkpt><trkpt lat="44.5598167" lon="7.9576767"><ele>391.99999999999994</ele><time>2026-04-12T13:24:47.439Z</time></trkpt><trkpt lat="44.5598283" lon="7.9578033"><ele>392.0</ele><time>2026-04-12T13:24:50.439Z</time></trkpt><trkpt lat="44.559865" lon="7.95791"><ele>393.66666666666663</ele><time>2026-04-12T13:24:53.439Z</time></trkpt><trkpt lat="44.5599233" lon="7.95801"><ele>395.3333333333333</ele><time>2026-04-12T13:24:56.439Z</time></trkpt><trkpt lat="44.5599883" lon="7.9580783"><ele>397.0</ele><time>2026-04-12T13:24:59.439Z</time></trkpt><trkpt lat="44.5600433" lon="7.95814"><ele>398.66666666666663</ele><time>2026-04-12T13:25:02.439Z</time></trkpt><trkpt lat="44.56011" lon="7.9582017"><ele>400.3333333333333</ele><time>2026-04-12T13:25:05.439Z</time></trkpt><trkpt lat="44.560185" lon="7.9582567"><ele>402.0</ele><time>2026-04-12T13:25:08.44Z</time></trkpt><trkpt lat="44.560245" lon="7.9583517"><ele>400.6666666666667</ele><time>2026-04-12T13:25:11.439Z</time></trkpt><trkpt lat="44.5602867" lon="7.9584283"><ele>399.33333333333337</ele><time>2026-04-12T13:25:13.439Z</time></trkpt><trkpt lat="44.5603333" lon="7.95849"><ele>398.0</ele><time>2026-04-12T13:25:15.439Z</time></trkpt><trkpt lat="44.5603867" lon="7.9586033"><ele>396.6666666666667</ele><time>2026-04-12T13:25:18.439Z</time></trkpt><trkpt lat="44.5604283" lon="7.9587017"><ele>395.33333333333337</ele><time>2026-04-12T13:25:20.439Z</time></trkpt><trkpt lat="44.5604767" lon="7.9588033"><ele>394.0</ele><time>2026-04-12T13:25:22.439Z</time></trkpt><trkpt lat="44.5605017" lon="7.9589117"><ele>394.0</ele><time>2026-04-12T13:25:24.439Z</time></trkpt><trkpt lat="44.560525" lon="7.9590133"><ele>394.0</ele><time>2026-04-12T13:25:26.439Z</time></trkpt><trkpt lat="44.5605383" lon="7.9591033"><ele>394.0</ele><time>2026-04-12T13:25:28.439Z</time></trkpt><trkpt lat="44.5605517" lon="7.9592033"><ele>394.0</ele><time>2026-04-12T13:25:30.439Z</time></trkpt><trkpt lat="44.5605567" lon="7.9592917"><ele>394.0</ele><time>2026-04-12T13:25:32.439Z</time></trkpt><trkpt lat="44.560555" lon="7.9593867"><ele>394.0</ele><time>2026-04-12T13:25:34.439Z</time></trkpt><trkpt lat="44.5605533" lon="7.95951"><ele>394.0</ele><time>2026-04-12T13:25:37.439Z</time></trkpt><trkpt lat="44.5605633" lon="7.959625"><ele>394.57142857142856</ele><time>2026-04-12T13:25:40.439Z</time></trkpt><trkpt lat="44.5605617" lon="7.9597317"><ele>395.14285714285717</ele><time>2026-04-12T13:25:43.439Z</time></trkpt><trkpt lat="44.5605317" lon="7.9598433"><ele>395.71428571428567</ele><time>2026-04-12T13:25:47.439Z</time></trkpt><trkpt lat="44.5605067" lon="7.959935"><ele>396.2857142857143</ele><time>2026-04-12T13:25:50.439Z</time></trkpt><trkpt lat="44.5604883" lon="7.9600317"><ele>396.85714285714283</ele><time>2026-04-12T13:25:53.439Z</time></trkpt><trkpt lat="44.56047" lon="7.9601183"><ele>397.4285714285714</ele><time>2026-04-12T13:25:56.439Z</time></trkpt><trkpt lat="44.5604483" lon="7.9602267"><ele>398.0</ele><time>2026-04-12T13:25:59.439Z</time></trkpt><trkpt lat="44.5604167" lon="7.9603417"><ele>397.99999999999994</ele><time>2026-04-12T13:26:02.439Z</time></trkpt><trkpt lat="44.5603983" lon="7.9604367"><ele>398.0</ele><time>2026-04-12T13:26:05.439Z</time></trkpt><trkpt lat="44.560355" lon="7.9605333"><ele>398.0</ele><time>2026-04-12T13:26:08.439Z</time></trkpt><trkpt lat="44.560315" lon="7.9606383"><ele>398.0</ele><time>2026-04-12T13:26:12.439Z</time></trkpt><trkpt lat="44.5602933" lon="7.9607267"><ele>397.99999999999994</ele><time>2026-04-12T13:26:15.439Z</time></trkpt><trkpt lat="44.5602633" lon="7.9608417"><ele>398.0</ele><time>2026-04-12T13:26:18.439Z</time></trkpt><trkpt lat="44.56023" lon="7.9609583"><ele>401.49999999999994</ele><time>2026-04-12T13:26:21.439Z</time></trkpt><trkpt lat="44.5602" lon="7.96106"><ele>405.0</ele><time>2026-04-12T13:26:24.439Z</time></trkpt><trkpt lat="44.560155" lon="7.9611617"><ele>408.5</ele><time>2026-04-12T13:26:27.439Z</time></trkpt><trkpt lat="44.56014" lon="7.9612833"><ele>412.0</ele><time>2026-04-12T13:26:30.439Z</time></trkpt><trkpt lat="44.5601117" lon="7.96138"><ele>415.49999999999994</ele><time>2026-04-12T13:26:33.439Z</time></trkpt><trkpt lat="44.5600867" lon="7.9614917"><ele>419.0</ele><time>2026-04-12T13:26:36.439Z</time></trkpt><trkpt lat="44.5600483" lon="7.9615867"><ele>418.99999999999994</ele><time>2026-04-12T13:26:39.439Z</time></trkpt><trkpt lat="44.5600133" lon="7.9616883"><ele>419.0</ele><time>2026-04-12T13:26:42.439Z</time></trkpt><trkpt lat="44.5600017" lon="7.9618083"><ele>419.0</ele><time>2026-04-12T13:26:45.439Z</time></trkpt><trkpt lat="44.55999" lon="7.961915"><ele>419.0</ele><time>2026-04-12T13:26:48.439Z</time></trkpt><trkpt lat="44.560005" lon="7.9620317"><ele>418.99999999999994</ele><time>2026-04-12T13:26:51.439Z</time></trkpt><trkpt lat="44.5600083" lon="7.9621433"><ele>419.0</ele><time>2026-04-12T13:26:54.439Z</time></trkpt><trkpt lat="44.5600167" lon="7.96226"><ele>419.8333333333333</ele><time>2026-04-12T13:26:57.439Z</time></trkpt><trkpt lat="44.560025" lon="7.9623817"><ele>420.66666666666663</ele><time>2026-04-12T13:27:00.439Z</time></trkpt><trkpt lat="44.5600267" lon="7.962485"><ele>421.5</ele><time>2026-04-12T13:27:03.439Z</time></trkpt><trkpt lat="44.5600383" lon="7.9625883"><ele>422.33333333333337</ele><time>2026-04-12T13:27:06.439Z</time></trkpt><trkpt lat="44.5600567" lon="7.9626933"><ele>423.1666666666667</ele><time>2026-04-12T13:27:09.439Z</time></trkpt><trkpt lat="44.5600783" lon="7.962795"><ele>424.0</ele><time>2026-04-12T13:27:12.439Z</time></trkpt><trkpt lat="44.56011" lon="7.9628783"><ele>424.83333333333337</ele><time>2026-04-12T13:27:15.439Z</time></trkpt><trkpt lat="44.5601433" lon="7.9629817"><ele>425.6666666666667</ele><time>2026-04-12T13:27:18.44Z</time></trkpt><trkpt lat="44.5601783" lon="7.96309"><ele>426.5</ele><time>2026-04-12T13:27:21.439Z</time></trkpt><trkpt lat="44.5602" lon="7.9632167"><ele>427.33333333333337</ele><time>2026-04-12T13:27:24.439Z</time></trkpt><trkpt lat="44.5602183" lon="7.9633067"><ele>428.1666666666667</ele><time>2026-04-12T13:27:26.439Z</time></trkpt><trkpt lat="44.56024" lon="7.963395"><ele>429.0</ele><time>2026-04-12T13:27:28.439Z</time></trkpt><trkpt lat="44.56028" lon="7.9634917"><ele>429.0</ele><time>2026-04-12T13:27:30.439Z</time></trkpt><trkpt lat="44.56032" lon="7.96358"><ele>429.0</ele><time>2026-04-12T13:27:32.439Z</time></trkpt><trkpt lat="44.5603683" lon="7.96365"><ele>429.0</ele><time>2026-04-12T13:27:34.439Z</time></trkpt><trkpt lat="44.5604233" lon="7.9637133"><ele>429.0</ele><time>2026-04-12T13:27:36.439Z</time></trkpt><trkpt lat="44.56048" lon="7.96377"><ele>429.0</ele><time>2026-04-12T13:27:38.439Z</time></trkpt><trkpt lat="44.5605333" lon="7.9638383"><ele>429.0</ele><time>2026-04-12T13:27:40.439Z</time></trkpt><trkpt lat="44.560595" lon="7.9638967"><ele>429.0</ele><time>2026-04-12T13:27:42.439Z</time></trkpt><trkpt lat="44.56066" lon="7.9639483"><ele>429.5</ele><time>2026-04-12T13:27:44.439Z</time></trkpt><trkpt lat="44.560725" lon="7.964005"><ele>430.0</ele><time>2026-04-12T13:27:46.439Z</time></trkpt><trkpt lat="44.560795" lon="7.9640583"><ele>430.5</ele><time>2026-04-12T13:27:48.439Z</time></trkpt><trkpt lat="44.5608683" lon="7.9641033"><ele>431.0</ele><time>2026-04-12T13:27:50.439Z</time></trkpt><trkpt lat="44.5609467" lon="7.9641467"><ele>431.5</ele><time>2026-04-12T13:27:52.439Z</time></trkpt><trkpt lat="44.5610117" lon="7.9641883"><ele>432.0</ele><time>2026-04-12T13:27:54.439Z</time></trkpt><trkpt lat="44.56108" lon="7.9642233"><ele>432.0</ele><time>2026-04-12T13:27:56.439Z</time></trkpt><trkpt lat="44.5611483" lon="7.9642667"><ele>432.0</ele><time>2026-04-12T13:27:58.439Z</time></trkpt><trkpt lat="44.5612117" lon="7.96429"><ele>432.0</ele><time>2026-04-12T13:28:00.439Z</time></trkpt><trkpt lat="44.5612867" lon="7.9643117"><ele>432.0</ele><time>2026-04-12T13:28:02.439Z</time></trkpt><trkpt lat="44.56136" lon="7.96434"><ele>432.0</ele><time>2026-04-12T13:28:04.439Z</time></trkpt><trkpt lat="44.5614433" lon="7.9643433"><ele>432.0</ele><time>2026-04-12T13:28:06.439Z</time></trkpt><trkpt lat="44.5615233" lon="7.9643433"><ele>431.0</ele><time>2026-04-12T13:28:08.439Z</time></trkpt><trkpt lat="44.56159" lon="7.96436"><ele>430.0</ele><time>2026-04-12T13:28:10.439Z</time></trkpt><trkpt lat="44.5616583" lon="7.964355"><ele>429.0</ele><time>2026-04-12T13:28:12.439Z</time></trkpt><trkpt lat="44.561725" lon="7.96435"><ele>428.0</ele><time>2026-04-12T13:28:14.439Z</time></trkpt><trkpt lat="44.56181" lon="7.964355"><ele>427.0</ele><time>2026-04-12T13:28:16.439Z</time></trkpt><trkpt lat="44.5618917" lon="7.96435"><ele>426.0</ele><time>2026-04-12T13:28:18.439Z</time></trkpt><trkpt lat="44.56198" lon="7.9643267"><ele>423.6666666666667</ele><time>2026-04-12T13:28:20.439Z</time></trkpt><trkpt lat="44.562055" lon="7.964305"><ele>421.33333333333337</ele><time>2026-04-12T13:28:22.439Z</time></trkpt><trkpt lat="44.5621467" lon="7.9642833"><ele>419.0</ele><time>2026-04-12T13:28:25.439Z</time></trkpt><trkpt lat="44.5622283" lon="7.96426"><ele>416.6666666666667</ele><time>2026-04-12T13:28:28.439Z</time></trkpt><trkpt lat="44.5623167" lon="7.9642383"><ele>414.33333333333337</ele><time>2026-04-12T13:28:31.439Z</time></trkpt><trkpt lat="44.5623983" lon="7.9642267"><ele>412.0</ele><time>2026-04-12T13:28:33.439Z</time></trkpt><trkpt lat="44.562525" lon="7.9641967"><ele>412.83333333333337</ele><time>2026-04-12T13:28:35.439Z</time></trkpt><trkpt lat="44.5625983" lon="7.96418"><ele>413.6666666666667</ele><time>2026-04-12T13:28:36.439Z</time></trkpt><trkpt lat="44.5626783" lon="7.96416"><ele>414.5</ele><time>2026-04-12T13:28:37.439Z</time></trkpt><trkpt lat="44.5627633" lon="7.9641367"><ele>415.33333333333337</ele><time>2026-04-12T13:28:38.439Z</time></trkpt><trkpt lat="44.5628517" lon="7.9641017"><ele>416.1666666666667</ele><time>2026-04-12T13:28:39.439Z</time></trkpt><trkpt lat="44.5629467" lon="7.9640533"><ele>417.0</ele><time>2026-04-12T13:28:40.439Z</time></trkpt><trkpt lat="44.5630483" lon="7.964"><ele>417.0</ele><time>2026-04-12T13:28:41.439Z</time></trkpt><trkpt lat="44.56315" lon="7.9639317"><ele>417.0</ele><time>2026-04-12T13:28:42.439Z</time></trkpt><trkpt lat="44.5632483" lon="7.9638617"><ele>417.0</ele><time>2026-04-12T13:28:43.439Z</time></trkpt><trkpt lat="44.56333" lon="7.9637917"><ele>417.0</ele><time>2026-04-12T13:28:44.439Z</time></trkpt><trkpt lat="44.5633983" lon="7.9637267"><ele>417.0</ele><time>2026-04-12T13:28:45.439Z</time></trkpt><trkpt lat="44.5634667" lon="7.9636767"><ele>417.0</ele><time>2026-04-12T13:28:46.439Z</time></trkpt><trkpt lat="44.563545" lon="7.9636867"><ele>417.0</ele><time>2026-04-12T13:28:47.439Z</time></trkpt><trkpt lat="44.5636217" lon="7.9637267"><ele>417.0</ele><time>2026-04-12T13:28:48.439Z</time></trkpt><trkpt lat="44.5637" lon="7.9637967"><ele>417.0</ele><time>2026-04-12T13:28:49.439Z</time></trkpt><trkpt lat="44.5637783" lon="7.9638833"><ele>417.0</ele><time>2026-04-12T13:28:50.439Z</time></trkpt><trkpt lat="44.5638617" lon="7.9639717"><ele>416.20000000000005</ele><time>2026-04-12T13:28:51.439Z</time></trkpt><trkpt lat="44.563945" lon="7.96406"><ele>415.4</ele><time>2026-04-12T13:28:52.439Z</time></trkpt><trkpt lat="44.564025" lon="7.9641567"><ele>414.6</ele><time>2026-04-12T13:28:53.439Z</time></trkpt><trkpt lat="44.5640933" lon="7.964265"><ele>413.79999999999995</ele><time>2026-04-12T13:28:54.439Z</time></trkpt><trkpt lat="44.56415" lon="7.9643817"><ele>413.0</ele><time>2026-04-12T13:28:55.439Z</time></trkpt><trkpt lat="44.564195" lon="7.9645033"><ele>413.0</ele><time>2026-04-12T13:28:56.439Z</time></trkpt><trkpt lat="44.564215" lon="7.9646083"><ele>413.0</ele><time>2026-04-12T13:28:57.439Z</time></trkpt><trkpt lat="44.5642033" lon="7.964765"><ele>413.0</ele><time>2026-04-12T13:29:06.439Z</time></trkpt><trkpt lat="44.5642517" lon="7.9648533"><ele>413.0</ele><time>2026-04-12T13:29:08.439Z</time></trkpt><trkpt lat="44.564315" lon="7.96494"><ele>413.0</ele><time>2026-04-12T13:29:10.44Z</time></trkpt><trkpt lat="44.5643833" lon="7.9650567"><ele>413.66666666666663</ele><time>2026-04-12T13:29:12.439Z</time></trkpt><trkpt lat="44.5644633" lon="7.9651883"><ele>414.3333333333333</ele><time>2026-04-12T13:29:14.439Z</time></trkpt><trkpt lat="44.564505" lon="7.9652617"><ele>415.0</ele><time>2026-04-12T13:29:15.439Z</time></trkpt><trkpt lat="44.564555" lon="7.96533"><ele>415.66666666666663</ele><time>2026-04-12T13:29:16.439Z</time></trkpt><trkpt lat="44.5646033" lon="7.9653933"><ele>416.3333333333333</ele><time>2026-04-12T13:29:17.439Z</time></trkpt><trkpt lat="44.564655" lon="7.965465"><ele>417.0</ele><time>2026-04-12T13:29:18.439Z</time></trkpt><trkpt lat="44.5647117" lon="7.9655283"><ele>416.0</ele><time>2026-04-12T13:29:19.439Z</time></trkpt><trkpt lat="44.5647667" lon="7.9655933"><ele>415.0</ele><time>2026-04-12T13:29:20.44Z</time></trkpt><trkpt lat="44.5648283" lon="7.9656617"><ele>414.0</ele><time>2026-04-12T13:29:21.439Z</time></trkpt><trkpt lat="44.564885" lon="7.9657383"><ele>413.0</ele><time>2026-04-12T13:29:22.439Z</time></trkpt><trkpt lat="44.564945" lon="7.9658183"><ele>412.0</ele><time>2026-04-12T13:29:23.439Z</time></trkpt><trkpt lat="44.565005" lon="7.9659117"><ele>411.0</ele><time>2026-04-12T13:29:24.439Z</time></trkpt><trkpt lat="44.5650433" lon="7.966015"><ele>411.0</ele><time>2026-04-12T13:29:25.439Z</time></trkpt><trkpt lat="44.56506" lon="7.9661333"><ele>411.0</ele><time>2026-04-12T13:29:26.439Z</time></trkpt><trkpt lat="44.5650567" lon="7.96626"><ele>411.0</ele><time>2026-04-12T13:29:27.439Z</time></trkpt><trkpt lat="44.5650533" lon="7.9663817"><ele>411.0</ele><time>2026-04-12T13:29:28.439Z</time></trkpt><trkpt lat="44.5650567" lon="7.96651"><ele>411.0</ele><time>2026-04-12T13:29:29.439Z</time></trkpt><trkpt lat="44.5650517" lon="7.9666367"><ele>411.0</ele><time>2026-04-12T13:29:30.439Z</time></trkpt><trkpt lat="44.56505" lon="7.9667583"><ele>411.5</ele><time>2026-04-12T13:29:31.439Z</time></trkpt><trkpt lat="44.5650567" lon="7.9668817"><ele>412.0</ele><time>2026-04-12T13:29:32.439Z</time></trkpt><trkpt lat="44.56506" lon="7.9669983"><ele>412.5</ele><time>2026-04-12T13:29:33.439Z</time></trkpt><trkpt lat="44.5650617" lon="7.9671167"><ele>413.0</ele><time>2026-04-12T13:29:34.439Z</time></trkpt><trkpt lat="44.5650617" lon="7.9672333"><ele>413.5</ele><time>2026-04-12T13:29:35.439Z</time></trkpt><trkpt lat="44.56507" lon="7.9673483"><ele>414.0</ele><time>2026-04-12T13:29:36.439Z</time></trkpt><trkpt lat="44.5650733" lon="7.9674683"><ele>415.8333333333333</ele><time>2026-04-12T13:29:37.439Z</time></trkpt><trkpt lat="44.5650883" lon="7.9675833"><ele>417.66666666666663</ele><time>2026-04-12T13:29:38.439Z</time></trkpt><trkpt lat="44.5651167" lon="7.967685"><ele>419.5</ele><time>2026-04-12T13:29:39.439Z</time></trkpt><trkpt lat="44.5651683" lon="7.967785"><ele>421.3333333333333</ele><time>2026-04-12T13:29:40.439Z</time></trkpt><trkpt lat="44.5652267" lon="7.96787"><ele>423.16666666666663</ele><time>2026-04-12T13:29:41.44Z</time></trkpt><trkpt lat="44.5652867" lon="7.9679433"><ele>425.0</ele><time>2026-04-12T13:29:42.439Z</time></trkpt><trkpt lat="44.565355" lon="7.9680167"><ele>422.49999999999994</ele><time>2026-04-12T13:29:43.439Z</time></trkpt><trkpt lat="44.565425" lon="7.9680767"><ele>420.0</ele><time>2026-04-12T13:29:44.439Z</time></trkpt><trkpt lat="44.5654933" lon="7.9681317"><ele>417.5</ele><time>2026-04-12T13:29:45.439Z</time></trkpt><trkpt lat="44.5655667" lon="7.9681883"><ele>415.0</ele><time>2026-04-12T13:29:46.439Z</time></trkpt><trkpt lat="44.5656383" lon="7.968235"><ele>412.49999999999994</ele><time>2026-04-12T13:29:47.439Z</time></trkpt><trkpt lat="44.5657183" lon="7.9682783"><ele>410.0</ele><time>2026-04-12T13:29:48.439Z</time></trkpt><trkpt lat="44.5657967" lon="7.9683183"><ele>411.8333333333333</ele><time>2026-04-12T13:29:49.439Z</time></trkpt><trkpt lat="44.5658733" lon="7.9683633"><ele>413.66666666666663</ele><time>2026-04-12T13:29:50.439Z</time></trkpt><trkpt lat="44.5659533" lon="7.9684133"><ele>415.5</ele><time>2026-04-12T13:29:51.439Z</time></trkpt><trkpt lat="44.5660283" lon="7.96845"><ele>417.33333333333337</ele><time>2026-04-12T13:29:52.439Z</time></trkpt><trkpt lat="44.5661067" lon="7.9684917"><ele>419.1666666666667</ele><time>2026-04-12T13:29:53.439Z</time></trkpt><trkpt lat="44.5661833" lon="7.9685233"><ele>421.0</ele><time>2026-04-12T13:29:54.439Z</time></trkpt><trkpt lat="44.56626" lon="7.9685483"><ele>421.00000000000006</ele><time>2026-04-12T13:29:55.44Z</time></trkpt><trkpt lat="44.5663417" lon="7.96856"><ele>421.0</ele><time>2026-04-12T13:29:56.44Z</time></trkpt><trkpt lat="44.566425" lon="7.968565"><ele>421.0</ele><time>2026-04-12T13:29:57.439Z</time></trkpt><trkpt lat="44.566505" lon="7.9685517"><ele>421.0</ele><time>2026-04-12T13:29:58.439Z</time></trkpt><trkpt lat="44.56659" lon="7.96853"><ele>421.00000000000006</ele><time>2026-04-12T13:29:59.439Z</time></trkpt><trkpt lat="44.56667" lon="7.9685033"><ele>421.0</ele><time>2026-04-12T13:30:00.439Z</time></trkpt><trkpt lat="44.5667467" lon="7.9684767"><ele>421.00000000000006</ele><time>2026-04-12T13:30:01.439Z</time></trkpt><trkpt lat="44.5668217" lon="7.9684483"><ele>421.0</ele><time>2026-04-12T13:30:02.439Z</time></trkpt><trkpt lat="44.5668967" lon="7.9684283"><ele>421.0</ele><time>2026-04-12T13:30:03.439Z</time></trkpt><trkpt lat="44.5669733" lon="7.96841"><ele>421.0</ele><time>2026-04-12T13:30:04.439Z</time></trkpt><trkpt lat="44.5670467" lon="7.9683733"><ele>421.00000000000006</ele><time>2026-04-12T13:30:05.439Z</time></trkpt><trkpt lat="44.5671233" lon="7.9683333"><ele>421.0</ele><time>2026-04-12T13:30:06.439Z</time></trkpt><trkpt lat="44.5671983" lon="7.9682883"><ele>419.50000000000006</ele><time>2026-04-12T13:30:07.439Z</time></trkpt><trkpt lat="44.5672783" lon="7.968245"><ele>418.0</ele><time>2026-04-12T13:30:08.439Z</time></trkpt><trkpt lat="44.5673467" lon="7.9681967"><ele>416.5</ele><time>2026-04-12T13:30:09.439Z</time></trkpt><trkpt lat="44.5674133" lon="7.9681467"><ele>415.0</ele><time>2026-04-12T13:30:10.439Z</time></trkpt><trkpt lat="44.5674767" lon="7.9681017"><ele>413.50000000000006</ele><time>2026-04-12T13:30:11.439Z</time></trkpt><trkpt lat="44.5675417" lon="7.9680533"><ele>412.0</ele><time>2026-04-12T13:30:12.439Z</time></trkpt><trkpt lat="44.567605" lon="7.9680117"><ele>412.00000000000006</ele><time>2026-04-12T13:30:13.439Z</time></trkpt><trkpt lat="44.567675" lon="7.9679683"><ele>412.0</ele><time>2026-04-12T13:30:14.439Z</time></trkpt><trkpt lat="44.567745" lon="7.96793"><ele>412.0</ele><time>2026-04-12T13:30:15.439Z</time></trkpt><trkpt lat="44.5678217" lon="7.9678917"><ele>412.0</ele><time>2026-04-12T13:30:16.439Z</time></trkpt><trkpt lat="44.5679033" lon="7.9678617"><ele>412.00000000000006</ele><time>2026-04-12T13:30:17.439Z</time></trkpt><trkpt lat="44.5679817" lon="7.9678433"><ele>412.0</ele><time>2026-04-12T13:30:18.439Z</time></trkpt><trkpt lat="44.5680633" lon="7.9678333"><ele>412.83333333333337</ele><time>2026-04-12T13:30:19.439Z</time></trkpt><trkpt lat="44.568145" lon="7.9678267"><ele>413.6666666666667</ele><time>2026-04-12T13:30:20.44Z</time></trkpt><trkpt lat="44.5682217" lon="7.9678333"><ele>414.5</ele><time>2026-04-12T13:30:21.439Z</time></trkpt><trkpt lat="44.5683017" lon="7.9678417"><ele>415.33333333333337</ele><time>2026-04-12T13:30:22.439Z</time></trkpt><trkpt lat="44.56838" lon="7.9678533"><ele>416.1666666666667</ele><time>2026-04-12T13:30:23.439Z</time></trkpt><trkpt lat="44.5684567" lon="7.9678767"><ele>417.0</ele><time>2026-04-12T13:30:24.439Z</time></trkpt><trkpt lat="44.568535" lon="7.9678983"><ele>417.0</ele><time>2026-04-12T13:30:25.439Z</time></trkpt><trkpt lat="44.5686183" lon="7.967925"><ele>417.0</ele><time>2026-04-12T13:30:26.439Z</time></trkpt><trkpt lat="44.5686983" lon="7.9679467"><ele>417.0</ele><time>2026-04-12T13:30:27.439Z</time></trkpt><trkpt lat="44.568775" lon="7.967975"><ele>417.0</ele><time>2026-04-12T13:30:28.439Z</time></trkpt><trkpt lat="44.56885" lon="7.9680033"><ele>417.0</ele><time>2026-04-12T13:30:29.439Z</time></trkpt><trkpt lat="44.568925" lon="7.9680267"><ele>417.0</ele><time>2026-04-12T13:30:30.439Z</time></trkpt><trkpt lat="44.568995" lon="7.968045"><ele>415.6666666666667</ele><time>2026-04-12T13:30:31.439Z</time></trkpt><trkpt lat="44.5690617" lon="7.968065"><ele>414.33333333333337</ele><time>2026-04-12T13:30:32.439Z</time></trkpt><trkpt lat="44.5691283" lon="7.9680817"><ele>413.0</ele><time>2026-04-12T13:30:33.439Z</time></trkpt><trkpt lat="44.5691917" lon="7.9681017"><ele>411.6666666666667</ele><time>2026-04-12T13:30:34.439Z</time></trkpt><trkpt lat="44.56926" lon="7.9681267"><ele>410.33333333333337</ele><time>2026-04-12T13:30:35.439Z</time></trkpt><trkpt lat="44.5693217" lon="7.9681533"><ele>409.0</ele><time>2026-04-12T13:30:36.439Z</time></trkpt><trkpt lat="44.5694383" lon="7.9681917"><ele>409.0</ele><time>2026-04-12T13:30:38.439Z</time></trkpt><trkpt lat="44.5695517" lon="7.96823"><ele>409.0</ele><time>2026-04-12T13:30:40.439Z</time></trkpt><trkpt lat="44.5696667" lon="7.9682633"><ele>409.0</ele><time>2026-04-12T13:30:42.439Z</time></trkpt><trkpt lat="44.5697667" lon="7.96828"><ele>409.0</ele><time>2026-04-12T13:30:44.439Z</time></trkpt><trkpt lat="44.56987" lon="7.9682783"><ele>409.0</ele><time>2026-04-12T13:30:46.439Z</time></trkpt><trkpt lat="44.5699783" lon="7.9682633"><ele>409.0</ele><time>2026-04-12T13:30:48.439Z</time></trkpt><trkpt lat="44.5700833" lon="7.9682467"><ele>409.0</ele><time>2026-04-12T13:30:50.439Z</time></trkpt><trkpt lat="44.570165" lon="7.9682233"><ele>409.0</ele><time>2026-04-12T13:30:52.439Z</time></trkpt><trkpt lat="44.57026" lon="7.9682233"><ele>409.0</ele><time>2026-04-12T13:30:54.439Z</time></trkpt><trkpt lat="44.5703517" lon="7.9682183"><ele>409.0</ele><time>2026-04-12T13:30:56.44Z</time></trkpt><trkpt lat="44.5704483" lon="7.96822"><ele>410.79999999999995</ele><time>2026-04-12T13:30:58.439Z</time></trkpt><trkpt lat="44.5705483" lon="7.96823"><ele>412.59999999999997</ele><time>2026-04-12T13:31:00.439Z</time></trkpt><trkpt lat="44.5706483" lon="7.96825"><ele>414.4</ele><time>2026-04-12T13:31:02.439Z</time></trkpt><trkpt lat="44.5707467" lon="7.9682583"><ele>416.2</ele><time>2026-04-12T13:31:04.439Z</time></trkpt><trkpt lat="44.5708383" lon="7.9682483"><ele>418.0</ele><time>2026-04-12T13:31:06.439Z</time></trkpt><trkpt lat="44.5709383" lon="7.96823"><ele>418.0</ele><time>2026-04-12T13:31:08.439Z</time></trkpt><trkpt lat="44.5710433" lon="7.9681883"><ele>418.0</ele><time>2026-04-12T13:31:10.439Z</time></trkpt><trkpt lat="44.571135" lon="7.9681467"><ele>418.0</ele><time>2026-04-12T13:31:12.44Z</time></trkpt><trkpt lat="44.5712317" lon="7.9681033"><ele>418.0</ele><time>2026-04-12T13:31:14.439Z</time></trkpt><trkpt lat="44.5713367" lon="7.9680467"><ele>418.0</ele><time>2026-04-12T13:31:16.439Z</time></trkpt><trkpt lat="44.5714517" lon="7.9680333"><ele>418.0</ele><time>2026-04-12T13:31:18.439Z</time></trkpt><trkpt lat="44.5715583" lon="7.9680583"><ele>418.0</ele><time>2026-04-12T13:31:20.439Z</time></trkpt><trkpt lat="44.57162" lon="7.9680867"><ele>418.0</ele><time>2026-04-12T13:31:21.439Z</time></trkpt><trkpt lat="44.57168" lon="7.968115"><ele>418.0</ele><time>2026-04-12T13:31:22.439Z</time></trkpt><trkpt lat="44.5717933" lon="7.96817"><ele>418.0</ele><time>2026-04-12T13:31:24.44Z</time></trkpt><trkpt lat="44.5719017" lon="7.9682367"><ele>418.0</ele><time>2026-04-12T13:31:26.439Z</time></trkpt><trkpt lat="44.572005" lon="7.968305"><ele>418.0</ele><time>2026-04-12T13:31:28.439Z</time></trkpt><trkpt lat="44.5721033" lon="7.9683633"><ele>418.0</ele><time>2026-04-12T13:31:30.439Z</time></trkpt><trkpt lat="44.5722033" lon="7.9684233"><ele>418.0</ele><time>2026-04-12T13:31:32.439Z</time></trkpt><trkpt lat="44.5723067" lon="7.9684867"><ele>418.0</ele><time>2026-04-12T13:31:34.439Z</time></trkpt><trkpt lat="44.57241" lon="7.9685517"><ele>417.4</ele><time>2026-04-12T13:31:36.439Z</time></trkpt><trkpt lat="44.572515" lon="7.9686133"><ele>416.79999999999995</ele><time>2026-04-12T13:31:38.439Z</time></trkpt><trkpt lat="44.572615" lon="7.9686817"><ele>416.2</ele><time>2026-04-12T13:31:40.439Z</time></trkpt><trkpt lat="44.57272" lon="7.96874"><ele>415.6</ele><time>2026-04-12T13:31:42.439Z</time></trkpt><trkpt lat="44.57282" lon="7.9688083"><ele>415.0</ele><time>2026-04-12T13:31:44.439Z</time></trkpt><trkpt lat="44.572915" lon="7.9688817"><ele>414.0</ele><time>2026-04-12T13:31:46.439Z</time></trkpt><trkpt lat="44.5729933" lon="7.9689633"><ele>413.0</ele><time>2026-04-12T13:31:48.439Z</time></trkpt><trkpt lat="44.573055" lon="7.9690633"><ele>412.0</ele><time>2026-04-12T13:31:50.439Z</time></trkpt><trkpt lat="44.57312" lon="7.9691683"><ele>411.0</ele><time>2026-04-12T13:31:52.439Z</time></trkpt><trkpt lat="44.57318" lon="7.9692667"><ele>410.0</ele><time>2026-04-12T13:31:54.439Z</time></trkpt><trkpt lat="44.5732317" lon="7.9693683"><ele>410.0</ele><time>2026-04-12T13:31:56.439Z</time></trkpt><trkpt lat="44.5733017" lon="7.9694733"><ele>410.0</ele><time>2026-04-12T13:31:58.439Z</time></trkpt><trkpt lat="44.57337" lon="7.9695667"><ele>410.0</ele><time>2026-04-12T13:32:00.439Z</time></trkpt><trkpt lat="44.5734483" lon="7.9696417"><ele>410.0</ele><time>2026-04-12T13:32:02.439Z</time></trkpt><trkpt lat="44.5735267" lon="7.96971"><ele>410.0</ele><time>2026-04-12T13:32:04.439Z</time></trkpt><trkpt lat="44.573615" lon="7.9697467"><ele>412.3333333333333</ele><time>2026-04-12T13:32:06.439Z</time></trkpt><trkpt lat="44.5737083" lon="7.969775"><ele>414.66666666666663</ele><time>2026-04-12T13:32:08.439Z</time></trkpt><trkpt lat="44.5737967" lon="7.9698133"><ele>417.0</ele><time>2026-04-12T13:32:10.439Z</time></trkpt><trkpt lat="44.5738783" lon="7.9698433"><ele>419.33333333333337</ele><time>2026-04-12T13:32:12.439Z</time></trkpt><trkpt lat="44.5739583" lon="7.9698583"><ele>421.6666666666667</ele><time>2026-04-12T13:32:14.439Z</time></trkpt><trkpt lat="44.57404" lon="7.9698983"><ele>424.0</ele><time>2026-04-12T13:32:16.439Z</time></trkpt><trkpt lat="44.5741117" lon="7.9699183"><ele>424.00000000000006</ele><time>2026-04-12T13:32:18.439Z</time></trkpt><trkpt lat="44.5741933" lon="7.969945"><ele>424.0</ele><time>2026-04-12T13:32:20.439Z</time></trkpt><trkpt lat="44.5742783" lon="7.9699783"><ele>424.0</ele><time>2026-04-12T13:32:22.439Z</time></trkpt><trkpt lat="44.5743533" lon="7.970005"><ele>424.0</ele><time>2026-04-12T13:32:24.439Z</time></trkpt><trkpt lat="44.5744317" lon="7.9700133"><ele>424.00000000000006</ele><time>2026-04-12T13:32:26.439Z</time></trkpt><trkpt lat="44.5745083" lon="7.9700267"><ele>424.0</ele><time>2026-04-12T13:32:28.439Z</time></trkpt><trkpt lat="44.5745767" lon="7.9700567"><ele>422.6666666666667</ele><time>2026-04-12T13:32:30.439Z</time></trkpt><trkpt lat="44.574655" lon="7.9700833"><ele>421.33333333333337</ele><time>2026-04-12T13:32:32.439Z</time></trkpt><trkpt lat="44.574735" lon="7.9701117"><ele>420.0</ele><time>2026-04-12T13:32:34.439Z</time></trkpt><trkpt lat="44.5748133" lon="7.9701433"><ele>418.66666666666663</ele><time>2026-04-12T13:32:36.439Z</time></trkpt><trkpt lat="44.5748917" lon="7.9701767"><ele>417.3333333333333</ele><time>2026-04-12T13:32:38.439Z</time></trkpt><trkpt lat="44.5749583" lon="7.9702033"><ele>416.0</ele><time>2026-04-12T13:32:40.439Z</time></trkpt><trkpt lat="44.5750283" lon="7.9702417"><ele>415.99999999999994</ele><time>2026-04-12T13:32:42.439Z</time></trkpt><trkpt lat="44.575105" lon="7.970265"><ele>416.0</ele><time>2026-04-12T13:32:44.439Z</time></trkpt><trkpt lat="44.5751817" lon="7.9702933"><ele>416.0</ele><time>2026-04-12T13:32:46.439Z</time></trkpt><trkpt lat="44.5752567" lon="7.9703317"><ele>416.0</ele><time>2026-04-12T13:32:48.439Z</time></trkpt><trkpt lat="44.5753283" lon="7.9703583"><ele>415.99999999999994</ele><time>2026-04-12T13:32:50.439Z</time></trkpt><trkpt lat="44.5754033" lon="7.9703867"><ele>416.0</ele><time>2026-04-12T13:32:52.439Z</time></trkpt><trkpt lat="44.575485" lon="7.9704183"><ele>417.3333333333333</ele><time>2026-04-12T13:32:54.439Z</time></trkpt><trkpt lat="44.5755667" lon="7.9704567"><ele>418.66666666666663</ele><time>2026-04-12T13:32:56.439Z</time></trkpt><trkpt lat="44.5756433" lon="7.9704933"><ele>420.0</ele><time>2026-04-12T13:32:58.439Z</time></trkpt><trkpt lat="44.57572" lon="7.9705267"><ele>421.33333333333337</ele><time>2026-04-12T13:33:00.439Z</time></trkpt><trkpt lat="44.5757933" lon="7.97054"><ele>422.6666666666667</ele><time>2026-04-12T13:33:02.44Z</time></trkpt><trkpt lat="44.57586" lon="7.9705517"><ele>424.0</ele><time>2026-04-12T13:33:04.439Z</time></trkpt><trkpt lat="44.575935" lon="7.9705583"><ele>424.00000000000006</ele><time>2026-04-12T13:33:06.44Z</time></trkpt><trkpt lat="44.5760017" lon="7.9705417"><ele>424.0</ele><time>2026-04-12T13:33:08.439Z</time></trkpt><trkpt lat="44.5760783" lon="7.97051"><ele>424.0</ele><time>2026-04-12T13:33:10.439Z</time></trkpt><trkpt lat="44.57616" lon="7.9704817"><ele>424.0</ele><time>2026-04-12T13:33:12.439Z</time></trkpt><trkpt lat="44.576235" lon="7.97042"><ele>424.00000000000006</ele><time>2026-04-12T13:33:14.439Z</time></trkpt><trkpt lat="44.5763033" lon="7.9703483"><ele>424.0</ele><time>2026-04-12T13:33:16.44Z</time></trkpt><trkpt lat="44.576375" lon="7.9702917"><ele>424.1666666666667</ele><time>2026-04-12T13:33:18.439Z</time></trkpt><trkpt lat="44.5764517" lon="7.97024"><ele>424.33333333333337</ele><time>2026-04-12T13:33:20.439Z</time></trkpt><trkpt lat="44.576525" lon="7.9702067"><ele>424.5</ele><time>2026-04-12T13:33:22.439Z</time></trkpt><trkpt lat="44.5766083" lon="7.9701883"><ele>424.66666666666663</ele><time>2026-04-12T13:33:24.439Z</time></trkpt><trkpt lat="44.576695" lon="7.9701517"><ele>424.8333333333333</ele><time>2026-04-12T13:33:26.439Z</time></trkpt><trkpt lat="44.57678" lon="7.9701317"><ele>425.0</ele><time>2026-04-12T13:33:28.439Z</time></trkpt><trkpt lat="44.57686" lon="7.970105"><ele>424.99999999999994</ele><time>2026-04-12T13:33:30.439Z</time></trkpt><trkpt lat="44.57693" lon="7.970095"><ele>425.0</ele><time>2026-04-12T13:33:32.439Z</time></trkpt><trkpt lat="44.577005" lon="7.9700783"><ele>425.0</ele><time>2026-04-12T13:33:34.439Z</time></trkpt><trkpt lat="44.577085" lon="7.9700717"><ele>425.0</ele><time>2026-04-12T13:33:36.439Z</time></trkpt><trkpt lat="44.5771633" lon="7.9700667"><ele>424.99999999999994</ele><time>2026-04-12T13:33:38.439Z</time></trkpt><trkpt lat="44.57724" lon="7.9700833"><ele>425.0</ele><time>2026-04-12T13:33:40.439Z</time></trkpt><trkpt lat="44.5773083" lon="7.9701167"><ele>425.85714285714283</ele><time>2026-04-12T13:33:42.439Z</time></trkpt><trkpt lat="44.57738" lon="7.9701533"><ele>426.71428571428567</ele><time>2026-04-12T13:33:44.439Z</time></trkpt><trkpt lat="44.5774483" lon="7.9701967"><ele>427.57142857142856</ele><time>2026-04-12T13:33:46.439Z</time></trkpt><trkpt lat="44.5775133" lon="7.97025"><ele>428.42857142857144</ele><time>2026-04-12T13:33:48.439Z</time></trkpt><trkpt lat="44.577575" lon="7.970295"><ele>429.2857142857143</ele><time>2026-04-12T13:33:50.44Z</time></trkpt><trkpt lat="44.57764" lon="7.9703283"><ele>430.14285714285717</ele><time>2026-04-12T13:33:52.439Z</time></trkpt><trkpt lat="44.5777067" lon="7.97038"><ele>431.0</ele><time>2026-04-12T13:33:54.44Z</time></trkpt><trkpt lat="44.5777683" lon="7.9704233"><ele>431.0</ele><time>2026-04-12T13:33:56.439Z</time></trkpt><trkpt lat="44.5778333" lon="7.9704333"><ele>431.0</ele><time>2026-04-12T13:33:58.439Z</time></trkpt><trkpt lat="44.5779033" lon="7.9704183"><ele>431.0</ele><time>2026-04-12T13:34:00.439Z</time></trkpt><trkpt lat="44.5779783" lon="7.97039"><ele>431.0</ele><time>2026-04-12T13:34:02.439Z</time></trkpt><trkpt lat="44.5780367" lon="7.97034"><ele>431.0</ele><time>2026-04-12T13:34:04.439Z</time></trkpt><trkpt lat="44.5780867" lon="7.9702533"><ele>431.0</ele><time>2026-04-12T13:34:06.439Z</time></trkpt><trkpt lat="44.578135" lon="7.97017"><ele>431.0</ele><time>2026-04-12T13:34:08.439Z</time></trkpt><trkpt lat="44.5781833" lon="7.9700917"><ele>432.8571428571429</ele><time>2026-04-12T13:34:10.439Z</time></trkpt><trkpt lat="44.57823" lon="7.9700117"><ele>434.71428571428567</ele><time>2026-04-12T13:34:12.439Z</time></trkpt><trkpt lat="44.578265" lon="7.969935"><ele>436.57142857142856</ele><time>2026-04-12T13:34:14.439Z</time></trkpt><trkpt lat="44.5783067" lon="7.9698533"><ele>438.42857142857144</ele><time>2026-04-12T13:34:16.439Z</time></trkpt><trkpt lat="44.5783417" lon="7.9697617"><ele>440.28571428571433</ele><time>2026-04-12T13:34:18.439Z</time></trkpt><trkpt lat="44.578385" lon="7.96966"><ele>442.1428571428571</ele><time>2026-04-12T13:34:20.439Z</time></trkpt><trkpt lat="44.57844" lon="7.9695783"><ele>444.0</ele><time>2026-04-12T13:34:22.439Z</time></trkpt><trkpt lat="44.5785017" lon="7.969485"><ele>444.0</ele><time>2026-04-12T13:34:25.439Z</time></trkpt><trkpt lat="44.578545" lon="7.969385"><ele>444.0</ele><time>2026-04-12T13:34:27.439Z</time></trkpt><trkpt lat="44.5785883" lon="7.96926"><ele>444.0</ele><time>2026-04-12T13:34:29.439Z</time></trkpt><trkpt lat="44.5786467" lon="7.969135"><ele>444.0</ele><time>2026-04-12T13:34:31.439Z</time></trkpt><trkpt lat="44.578695" lon="7.9690533"><ele>444.0</ele><time>2026-04-12T13:34:33.439Z</time></trkpt><trkpt lat="44.5787533" lon="7.9689733"><ele>444.0</ele><time>2026-04-12T13:34:35.439Z</time></trkpt><trkpt lat="44.578815" lon="7.968895"><ele>444.6666666666667</ele><time>2026-04-12T13:34:37.439Z</time></trkpt><trkpt lat="44.5788717" lon="7.9688267"><ele>445.33333333333337</ele><time>2026-04-12T13:34:39.439Z</time></trkpt><trkpt lat="44.578935" lon="7.96876"><ele>446.0</ele><time>2026-04-12T13:34:41.439Z</time></trkpt><trkpt lat="44.579005" lon="7.9687283"><ele>446.6666666666667</ele><time>2026-04-12T13:34:43.439Z</time></trkpt><trkpt lat="44.5790783" lon="7.9687067"><ele>447.33333333333337</ele><time>2026-04-12T13:34:45.439Z</time></trkpt><trkpt lat="44.57915" lon="7.96867"><ele>448.0</ele><time>2026-04-12T13:34:47.439Z</time></trkpt><trkpt lat="44.5792217" lon="7.9686483"><ele>448.00000000000006</ele><time>2026-04-12T13:34:49.439Z</time></trkpt><trkpt lat="44.5793033" lon="7.96867"><ele>448.0</ele><time>2026-04-12T13:34:51.439Z</time></trkpt><trkpt lat="44.579385" lon="7.9686867"><ele>448.0</ele><time>2026-04-12T13:34:53.439Z</time></trkpt><trkpt lat="44.5794583" lon="7.9687033"><ele>448.0</ele><time>2026-04-12T13:34:55.439Z</time></trkpt><trkpt lat="44.579535" lon="7.96873"><ele>448.00000000000006</ele><time>2026-04-12T13:34:57.439Z</time></trkpt><trkpt lat="44.579615" lon="7.96875"><ele>448.0</ele><time>2026-04-12T13:34:59.439Z</time></trkpt><trkpt lat="44.5796917" lon="7.9687767"><ele>449.1666666666667</ele><time>2026-04-12T13:35:01.439Z</time></trkpt><trkpt lat="44.579765" lon="7.968795"><ele>450.33333333333337</ele><time>2026-04-12T13:35:03.439Z</time></trkpt><trkpt lat="44.579835" lon="7.9687933"><ele>451.5</ele><time>2026-04-12T13:35:05.439Z</time></trkpt><trkpt lat="44.5799067" lon="7.9688017"><ele>452.66666666666663</ele><time>2026-04-12T13:35:07.439Z</time></trkpt><trkpt lat="44.5800033" lon="7.9688133"><ele>453.8333333333333</ele><time>2026-04-12T13:35:10.439Z</time></trkpt><trkpt lat="44.580075" lon="7.9688367"><ele>455.0</ele><time>2026-04-12T13:35:12.439Z</time></trkpt><trkpt lat="44.58016" lon="7.9688567"><ele>454.99999999999994</ele><time>2026-04-12T13:35:14.439Z</time></trkpt><trkpt lat="44.5802433" lon="7.968885"><ele>455.0</ele><time>2026-04-12T13:35:16.439Z</time></trkpt><trkpt lat="44.5803133" lon="7.96889"><ele>455.0</ele><time>2026-04-12T13:35:18.439Z</time></trkpt><trkpt lat="44.5803817" lon="7.9688933"><ele>455.0</ele><time>2026-04-12T13:35:20.439Z</time></trkpt><trkpt lat="44.5804583" lon="7.9689033"><ele>454.99999999999994</ele><time>2026-04-12T13:35:22.439Z</time></trkpt><trkpt lat="44.58053" lon="7.9689083"><ele>455.0</ele><time>2026-04-12T13:35:24.439Z</time></trkpt><trkpt lat="44.58061" lon="7.9688917"><ele>455.8333333333333</ele><time>2026-04-12T13:35:26.439Z</time></trkpt><trkpt lat="44.5806917" lon="7.9688667"><ele>456.66666666666663</ele><time>2026-04-12T13:35:28.439Z</time></trkpt><trkpt lat="44.58078" lon="7.96884"><ele>457.5</ele><time>2026-04-12T13:35:30.439Z</time></trkpt><trkpt lat="44.5808633" lon="7.968805"><ele>458.33333333333337</ele><time>2026-04-12T13:35:32.439Z</time></trkpt><trkpt lat="44.580945" lon="7.9687683"><ele>459.1666666666667</ele><time>2026-04-12T13:35:34.44Z</time></trkpt><trkpt lat="44.5810233" lon="7.96875"><ele>460.0</ele><time>2026-04-12T13:35:36.439Z</time></trkpt><trkpt lat="44.5810933" lon="7.9687183"><ele>459.99999999999994</ele><time>2026-04-12T13:35:38.439Z</time></trkpt><trkpt lat="44.5811567" lon="7.9686983"><ele>460.0</ele><time>2026-04-12T13:35:40.439Z</time></trkpt><trkpt lat="44.5812333" lon="7.9686883"><ele>459.99999999999994</ele><time>2026-04-12T13:35:43.439Z</time></trkpt><trkpt lat="44.581255" lon="7.9687733"><ele>459.99999999999994</ele><time>2026-04-12T13:35:47.439Z</time></trkpt><trkpt lat="44.5812733" lon="7.96889"><ele>460.0</ele><time>2026-04-12T13:35:50.439Z</time></trkpt><trkpt lat="44.581315" lon="7.9689683"><ele>459.99999999999994</ele><time>2026-04-12T13:35:52.439Z</time></trkpt><trkpt lat="44.5813867" lon="7.969015"><ele>459.99999999999994</ele><time>2026-04-12T13:35:54.439Z</time></trkpt><trkpt lat="44.5814617" lon="7.9690267"><ele>460.8571428571428</ele><time>2026-04-12T13:35:56.439Z</time></trkpt><trkpt lat="44.5815317" lon="7.9690433"><ele>461.71428571428567</ele><time>2026-04-12T13:35:58.439Z</time></trkpt><trkpt lat="44.5816" lon="7.9690317"><ele>462.57142857142856</ele><time>2026-04-12T13:36:00.439Z</time></trkpt><trkpt lat="44.5816833" lon="7.9689883"><ele>463.4285714285714</ele><time>2026-04-12T13:36:03.439Z</time></trkpt><trkpt lat="44.5817683" lon="7.96897"><ele>464.2857142857142</ele><time>2026-04-12T13:36:06.439Z</time></trkpt><trkpt lat="44.58183" lon="7.9689517"><ele>465.14285714285717</ele><time>2026-04-12T13:36:08.439Z</time></trkpt><trkpt lat="44.5818967" lon="7.9689217"><ele>466.0</ele><time>2026-04-12T13:36:10.439Z</time></trkpt><trkpt lat="44.581955" lon="7.9688817"><ele>466.57142857142856</ele><time>2026-04-12T13:36:12.439Z</time></trkpt><trkpt lat="44.5820417" lon="7.9688417"><ele>467.1428571428571</ele><time>2026-04-12T13:36:15.439Z</time></trkpt><trkpt lat="44.5821067" lon="7.96883"><ele>467.71428571428567</ele><time>2026-04-12T13:36:17.439Z</time></trkpt><trkpt lat="44.58217" lon="7.9687817"><ele>468.2857142857143</ele><time>2026-04-12T13:36:20.439Z</time></trkpt><trkpt lat="44.58224" lon="7.968745"><ele>468.8571428571428</ele><time>2026-04-12T13:36:24.439Z</time></trkpt><trkpt lat="44.5822833" lon="7.9688217"><ele>469.4285714285714</ele><time>2026-04-12T13:36:27.439Z</time></trkpt><trkpt lat="44.5823133" lon="7.9689067"><ele>470.0</ele><time>2026-04-12T13:36:29.439Z</time></trkpt><trkpt lat="44.582315" lon="7.9690167"><ele>470.0</ele><time>2026-04-12T13:36:31.439Z</time></trkpt><trkpt lat="44.5823033" lon="7.9691183"><ele>470.0</ele><time>2026-04-12T13:36:33.439Z</time></trkpt><trkpt lat="44.5822433" lon="7.96923"><ele>470.0</ele><time>2026-04-12T13:36:35.439Z</time></trkpt><trkpt lat="44.5821633" lon="7.9693383"><ele>470.0</ele><time>2026-04-12T13:36:37.439Z</time></trkpt><trkpt lat="44.58207" lon="7.9694483"><ele>470.0</ele><time>2026-04-12T13:36:39.439Z</time></trkpt><trkpt lat="44.58202" lon="7.9695133"><ele>469.2857142857143</ele><time>2026-04-12T13:36:40.439Z</time></trkpt><trkpt lat="44.58196" lon="7.9695767"><ele>468.57142857142856</ele><time>2026-04-12T13:36:41.439Z</time></trkpt><trkpt lat="44.5819017" lon="7.9696383"><ele>467.85714285714283</ele><time>2026-04-12T13:36:42.439Z</time></trkpt><trkpt lat="44.5818467" lon="7.9697"><ele>467.1428571428571</ele><time>2026-04-12T13:36:43.439Z</time></trkpt><trkpt lat="44.5817917" lon="7.96976"><ele>466.42857142857144</ele><time>2026-04-12T13:36:44.439Z</time></trkpt><trkpt lat="44.581735" lon="7.96982"><ele>465.71428571428567</ele><time>2026-04-12T13:36:45.439Z</time></trkpt><trkpt lat="44.581675" lon="7.96989"><ele>465.0</ele><time>2026-04-12T13:36:46.439Z</time></trkpt><trkpt lat="44.5816233" lon="7.969965"><ele>466.5</ele><time>2026-04-12T13:36:47.439Z</time></trkpt><trkpt lat="44.5815783" lon="7.970055"><ele>468.0</ele><time>2026-04-12T13:36:48.439Z</time></trkpt><trkpt lat="44.5815383" lon="7.9701517"><ele>469.5</ele><time>2026-04-12T13:36:49.439Z</time></trkpt><trkpt lat="44.5815117" lon="7.9702467"><ele>471.0</ele><time>2026-04-12T13:36:50.439Z</time></trkpt><trkpt lat="44.581485" lon="7.9703417"><ele>472.5</ele><time>2026-04-12T13:36:51.439Z</time></trkpt><trkpt lat="44.5814717" lon="7.9704367"><ele>474.0</ele><time>2026-04-12T13:36:52.439Z</time></trkpt><trkpt lat="44.5814383" lon="7.9705883"><ele>474.0</ele><time>2026-04-12T13:36:54.439Z</time></trkpt><trkpt lat="44.5814083" lon="7.970715"><ele>474.0</ele><time>2026-04-12T13:36:56.439Z</time></trkpt><trkpt lat="44.5813717" lon="7.97083"><ele>474.0</ele><time>2026-04-12T13:36:58.439Z</time></trkpt><trkpt lat="44.581335" lon="7.970935"><ele>474.0</ele><time>2026-04-12T13:37:00.439Z</time></trkpt><trkpt lat="44.5813" lon="7.971055"><ele>474.0</ele><time>2026-04-12T13:37:02.439Z</time></trkpt><trkpt lat="44.5812617" lon="7.9711617"><ele>474.0</ele><time>2026-04-12T13:37:04.439Z</time></trkpt><trkpt lat="44.5812133" lon="7.9712683"><ele>473.3333333333333</ele><time>2026-04-12T13:37:06.439Z</time></trkpt><trkpt lat="44.5811583" lon="7.97137"><ele>472.66666666666663</ele><time>2026-04-12T13:37:08.439Z</time></trkpt><trkpt lat="44.5811133" lon="7.9714717"><ele>472.0</ele><time>2026-04-12T13:37:10.439Z</time></trkpt><trkpt lat="44.5810583" lon="7.9715633"><ele>471.3333333333333</ele><time>2026-04-12T13:37:12.439Z</time></trkpt><trkpt lat="44.581005" lon="7.9716467"><ele>470.66666666666663</ele><time>2026-04-12T13:37:14.439Z</time></trkpt><trkpt lat="44.5809633" lon="7.9717467"><ele>470.0</ele><time>2026-04-12T13:37:16.439Z</time></trkpt><trkpt lat="44.58097" lon="7.97186"><ele>469.99999999999994</ele><time>2026-04-12T13:37:18.439Z</time></trkpt><trkpt lat="44.5810133" lon="7.9719383"><ele>470.0</ele><time>2026-04-12T13:37:20.439Z</time></trkpt><trkpt lat="44.5810933" lon="7.9719817"><ele>470.0</ele><time>2026-04-12T13:37:23.439Z</time></trkpt><trkpt lat="44.58117" lon="7.97199"><ele>470.0</ele><time>2026-04-12T13:37:27.439Z</time></trkpt><trkpt lat="44.5812317" lon="7.97195"><ele>469.99999999999994</ele><time>2026-04-12T13:37:31.439Z</time></trkpt><trkpt lat="44.5812967" lon="7.9718983"><ele>470.0</ele><time>2026-04-12T13:37:35.439Z</time></trkpt><trkpt lat="44.58137" lon="7.9718717"><ele>472.4285714285714</ele><time>2026-04-12T13:37:40.439Z</time></trkpt><trkpt lat="44.581445" lon="7.97186"><ele>474.8571428571428</ele><time>2026-04-12T13:37:44.439Z</time></trkpt><trkpt lat="44.5815167" lon="7.9718267"><ele>477.2857142857143</ele><time>2026-04-12T13:37:48.439Z</time></trkpt><trkpt lat="44.5815933" lon="7.9718067"><ele>479.71428571428567</ele><time>2026-04-12T13:37:52.439Z</time></trkpt><trkpt lat="44.5816533" lon="7.9717767"><ele>482.1428571428571</ele><time>2026-04-12T13:37:56.439Z</time></trkpt><trkpt lat="44.58172" lon="7.9717317"><ele>484.57142857142856</ele><time>2026-04-12T13:37:59.439Z</time></trkpt><trkpt lat="44.5817867" lon="7.9716867"><ele>487.0</ele><time>2026-04-12T13:38:02.439Z</time></trkpt><trkpt lat="44.5818467" lon="7.971625"><ele>487.0</ele><time>2026-04-12T13:38:05.439Z</time></trkpt><trkpt lat="44.5818967" lon="7.9715617"><ele>487.0</ele><time>2026-04-12T13:38:08.439Z</time></trkpt><trkpt lat="44.5819483" lon="7.9714983"><ele>487.0</ele><time>2026-04-12T13:38:11.439Z</time></trkpt><trkpt lat="44.581995" lon="7.9714383"><ele>487.0</ele><time>2026-04-12T13:38:14.439Z</time></trkpt><trkpt lat="44.58205" lon="7.9713883"><ele>487.0</ele><time>2026-04-12T13:38:17.439Z</time></trkpt><trkpt lat="44.58211" lon="7.9713317"><ele>487.0</ele><time>2026-04-12T13:38:21.439Z</time></trkpt><trkpt lat="44.582185" lon="7.97128"><ele>487.0</ele><time>2026-04-12T13:38:25.44Z</time></trkpt><trkpt lat="44.5822483" lon="7.9712133"><ele>491.00000000000006</ele><time>2026-04-12T13:38:28.439Z</time></trkpt><trkpt lat="44.58232" lon="7.9711533"><ele>495.0</ele><time>2026-04-12T13:38:31.439Z</time></trkpt><trkpt lat="44.5823867" lon="7.9710917"><ele>499.0</ele><time>2026-04-12T13:38:34.439Z</time></trkpt><trkpt lat="44.582445" lon="7.9710367"><ele>503.0</ele><time>2026-04-12T13:38:37.44Z</time></trkpt><trkpt lat="44.582515" lon="7.97098"><ele>507.00000000000006</ele><time>2026-04-12T13:38:41.439Z</time></trkpt><trkpt lat="44.58258" lon="7.970935"><ele>511.0</ele><time>2026-04-12T13:38:44.439Z</time></trkpt><trkpt lat="44.5826333" lon="7.9708633"><ele>511.7142857142857</ele><time>2026-04-12T13:38:48.439Z</time></trkpt><trkpt lat="44.5826883" lon="7.9708067"><ele>512.4285714285714</ele><time>2026-04-12T13:38:52.439Z</time></trkpt><trkpt lat="44.5827467" lon="7.9707433"><ele>513.1428571428571</ele><time>2026-04-12T13:38:56.439Z</time></trkpt><trkpt lat="44.58281" lon="7.9707217"><ele>513.8571428571429</ele><time>2026-04-12T13:39:00.439Z</time></trkpt><trkpt lat="44.5828683" lon="7.9706867"><ele>514.5714285714286</ele><time>2026-04-12T13:39:03.439Z</time></trkpt><trkpt lat="44.582925" lon="7.9706333"><ele>515.2857142857142</ele><time>2026-04-12T13:39:06.439Z</time></trkpt><trkpt lat="44.583005" lon="7.97058"><ele>516.0</ele><time>2026-04-12T13:39:09.439Z</time></trkpt><trkpt lat="44.5830667" lon="7.970515"><ele>516.0</ele><time>2026-04-12T13:39:12.44Z</time></trkpt><trkpt lat="44.5831417" lon="7.9704467"><ele>516.0</ele><time>2026-04-12T13:39:15.439Z</time></trkpt><trkpt lat="44.58321" lon="7.970395"><ele>516.0</ele><time>2026-04-12T13:39:18.439Z</time></trkpt><trkpt lat="44.5832717" lon="7.97036"><ele>516.0</ele><time>2026-04-12T13:39:20.439Z</time></trkpt><trkpt lat="44.5833517" lon="7.9703183"><ele>516.0</ele><time>2026-04-12T13:39:22.439Z</time></trkpt><trkpt lat="44.583425" lon="7.970255"><ele>516.0</ele><time>2026-04-12T13:39:25.439Z</time></trkpt><trkpt lat="44.5835083" lon="7.9702517"><ele>516.0</ele><time>2026-04-12T13:39:29.439Z</time></trkpt><trkpt lat="44.5835817" lon="7.9702633"><ele>516.0</ele><time>2026-04-12T13:39:32.439Z</time></trkpt><trkpt lat="44.583645" lon="7.9702633"><ele>516.0</ele><time>2026-04-12T13:39:34.439Z</time></trkpt><trkpt lat="44.5837333" lon="7.9702583"><ele>516.0</ele><time>2026-04-12T13:39:37.439Z</time></trkpt><trkpt lat="44.58382" lon="7.9702567"><ele>516.0</ele><time>2026-04-12T13:39:40.44Z</time></trkpt><trkpt lat="44.5839117" lon="7.970235"><ele>516.0</ele><time>2026-04-12T13:39:43.439Z</time></trkpt><trkpt lat="44.5839883" lon="7.97021"><ele>515.1428571428571</ele><time>2026-04-12T13:39:46.439Z</time></trkpt><trkpt lat="44.5840733" lon="7.9702"><ele>514.2857142857142</ele><time>2026-04-12T13:39:49.439Z</time></trkpt><trkpt lat="44.5841383" lon="7.9701733"><ele>513.4285714285714</ele><time>2026-04-12T13:39:52.439Z</time></trkpt><trkpt lat="44.5841967" lon="7.970135"><ele>512.5714285714286</ele><time>2026-04-12T13:39:54.44Z</time></trkpt><trkpt lat="44.5842517" lon="7.9700833"><ele>511.7142857142858</ele><time>2026-04-12T13:39:56.439Z</time></trkpt><trkpt lat="44.5843083" lon="7.9700383"><ele>510.8571428571429</ele><time>2026-04-12T13:39:58.439Z</time></trkpt><trkpt lat="44.5843733" lon="7.97001"><ele>510.0</ele><time>2026-04-12T13:40:00.439Z</time></trkpt><trkpt lat="44.5844417" lon="7.9699833"><ele>510.0</ele><time>2026-04-12T13:40:02.439Z</time></trkpt><trkpt lat="44.5844967" lon="7.96991"><ele>510.0</ele><time>2026-04-12T13:40:05.439Z</time></trkpt><trkpt lat="44.5845633" lon="7.9698517"><ele>510.0</ele><time>2026-04-12T13:41:09.439Z</time></trkpt><trkpt lat="44.5846517" lon="7.9698267"><ele>510.0</ele><time>2026-04-12T13:41:11.439Z</time></trkpt><trkpt lat="44.58473" lon="7.9698017"><ele>510.0</ele><time>2026-04-12T13:41:13.439Z</time></trkpt><trkpt lat="44.5847883" lon="7.96976"><ele>510.0</ele><time>2026-04-12T13:41:15.439Z</time></trkpt><trkpt lat="44.584855" lon="7.9697233"><ele>512.1428571428571</ele><time>2026-04-12T13:41:18.439Z</time></trkpt><trkpt lat="44.58492" lon="7.9696917"><ele>514.2857142857143</ele><time>2026-04-12T13:41:21.439Z</time></trkpt><trkpt lat="44.584995" lon="7.9696683"><ele>516.4285714285714</ele><time>2026-04-12T13:41:25.438Z</time></trkpt><trkpt lat="44.5850417" lon="7.96973"><ele>518.5714285714286</ele><time>2026-04-12T13:41:30.438Z</time></trkpt><trkpt lat="44.585065" lon="7.96982"><ele>520.7142857142858</ele><time>2026-04-12T13:41:33.438Z</time></trkpt><trkpt lat="44.5851167" lon="7.9698833"><ele>522.8571428571429</ele><time>2026-04-12T13:42:42.438Z</time></trkpt><trkpt lat="44.5850883" lon="7.9697933"><ele>525.0</ele><time>2026-04-12T13:42:57.439Z</time></trkpt><trkpt lat="44.5850567" lon="7.9697133"><ele>525.0</ele><time>2026-04-12T13:43:00.438Z</time></trkpt><trkpt lat="44.5850333" lon="7.9696217"><ele>525.0</ele><time>2026-04-12T13:43:05.439Z</time></trkpt><trkpt lat="44.5850067" lon="7.9695267"><ele>525.0</ele><time>2026-04-12T13:43:09.438Z</time></trkpt><trkpt lat="44.58496" lon="7.9694333"><ele>525.0</ele><time>2026-04-12T13:43:13.455Z</time></trkpt><trkpt lat="44.5850517" lon="7.9695867"><ele>525.0</ele><time>2026-04-12T13:43:14.455Z</time></trkpt><trkpt lat="44.585085" lon="7.9697767"><ele>525.0</ele><time>2026-04-12T13:43:16.455Z</time></trkpt><trkpt lat="44.5850317" lon="7.96969"><ele>525.0</ele><time>2026-04-12T13:43:35.455Z</time></trkpt><trkpt lat="44.5850367" lon="7.9696017"><ele>525.0</ele><time>2026-04-12T13:43:37.455Z</time></trkpt><trkpt lat="44.5850567" lon="7.9695117"><ele>525.0</ele><time>2026-04-12T13:43:39.455Z</time></trkpt><trkpt lat="44.585085" lon="7.9694317"><ele>525.0</ele><time>2026-04-12T13:43:41.455Z</time></trkpt><trkpt lat="44.585115" lon="7.9693533"><ele>525.0</ele><time>2026-04-12T13:43:43.455Z</time></trkpt><trkpt lat="44.58517" lon="7.969255"><ele>525.0</ele><time>2026-04-12T13:43:46.455Z</time></trkpt><trkpt lat="44.585235" lon="7.9692067"><ele>523.8333333333334</ele><time>2026-04-12T13:43:50.455Z</time></trkpt><trkpt lat="44.58531" lon="7.9691533"><ele>522.6666666666666</ele><time>2026-04-12T13:43:54.455Z</time></trkpt><trkpt lat="44.5853733" lon="7.9690817"><ele>521.5</ele><time>2026-04-12T13:43:57.455Z</time></trkpt><trkpt lat="44.5854133" lon="7.9689983"><ele>520.3333333333333</ele><time>2026-04-12T13:44:00.455Z</time></trkpt><trkpt lat="44.5854683" lon="7.9689267"><ele>519.1666666666666</ele><time>2026-04-12T13:44:04.455Z</time></trkpt><trkpt lat="44.58554" lon="7.9689083"><ele>518.0</ele><time>2026-04-12T13:44:07.455Z</time></trkpt><trkpt lat="44.5856183" lon="7.968915"><ele>518.0</ele><time>2026-04-12T13:44:10.455Z</time></trkpt><trkpt lat="44.5855567" lon="7.9689467"><ele>518.0</ele><time>2026-04-12T13:44:25.455Z</time></trkpt><trkpt lat="44.5855767" lon="7.9688333"><ele>518.0</ele><time>2026-04-12T13:44:30.455Z</time></trkpt><trkpt lat="44.585605" lon="7.9687433"><ele>518.0</ele><time>2026-04-12T13:44:32.455Z</time></trkpt><trkpt lat="44.5855867" lon="7.9686483"><ele>518.0</ele><time>2026-04-12T13:44:34.455Z</time></trkpt><trkpt lat="44.5855517" lon="7.9685333"><ele>518.0</ele><time>2026-04-12T13:44:36.455Z</time></trkpt><trkpt lat="44.5855033" lon="7.968415"><ele>518.6</ele><time>2026-04-12T13:44:38.455Z</time></trkpt><trkpt lat="44.5854567" lon="7.9682983"><ele>519.1999999999999</ele><time>2026-04-12T13:44:40.455Z</time></trkpt><trkpt lat="44.585405" lon="7.9681933"><ele>519.8</ele><time>2026-04-12T13:44:42.455Z</time></trkpt><trkpt lat="44.585355" lon="7.9680783"><ele>520.4</ele><time>2026-04-12T13:44:44.455Z</time></trkpt><trkpt lat="44.5852833" lon="7.9680183"><ele>521.0</ele><time>2026-04-12T13:44:46.455Z</time></trkpt><trkpt lat="44.5851867" lon="7.9680283"><ele>521.0</ele><time>2026-04-12T13:44:48.455Z</time></trkpt><trkpt lat="44.585095" lon="7.9680617"><ele>521.0</ele><time>2026-04-12T13:44:50.455Z</time></trkpt><trkpt lat="44.58505" lon="7.9681483"><ele>521.0</ele><time>2026-04-12T13:44:53.455Z</time></trkpt><trkpt lat="44.585045" lon="7.9682583"><ele>521.0</ele><time>2026-04-12T13:44:56.455Z</time></trkpt><trkpt lat="44.5848833" lon="7.9683083"><ele>521.0</ele><time>2026-04-12T13:46:04.455Z</time></trkpt><trkpt lat="44.584825" lon="7.9683733"><ele>520.4285714285714</ele><time>2026-04-12T13:46:10.455Z</time></trkpt><trkpt lat="44.5847567" lon="7.968405"><ele>519.8571428571429</ele><time>2026-04-12T13:46:15.455Z</time></trkpt><trkpt lat="44.5846933" lon="7.9684317"><ele>519.2857142857143</ele><time>2026-04-12T13:46:18.455Z</time></trkpt><trkpt lat="44.5846183" lon="7.96844"><ele>518.7142857142858</ele><time>2026-04-12T13:46:21.455Z</time></trkpt><trkpt lat="44.5845617" lon="7.968395"><ele>518.1428571428572</ele><time>2026-04-12T13:46:26.455Z</time></trkpt><trkpt lat="44.5844933" lon="7.9683783"><ele>517.5714285714286</ele><time>2026-04-12T13:46:30.455Z</time></trkpt><trkpt lat="44.58447" lon="7.968295"><ele>517.0</ele><time>2026-04-12T13:46:32.455Z</time></trkpt><trkpt lat="44.5844067" lon="7.9682367"><ele>515.0</ele><time>2026-04-12T13:46:34.455Z</time></trkpt><trkpt lat="44.5843267" lon="7.9682117"><ele>513.0</ele><time>2026-04-12T13:46:36.455Z</time></trkpt><trkpt lat="44.58425" lon="7.968215"><ele>511.0</ele><time>2026-04-12T13:46:39.455Z</time></trkpt><trkpt lat="44.5842067" lon="7.96814"><ele>509.0</ele><time>2026-04-12T13:46:49.455Z</time></trkpt><trkpt lat="44.5842117" lon="7.968045"><ele>507.00000000000006</ele><time>2026-04-12T13:46:51.455Z</time></trkpt><trkpt lat="44.5842133" lon="7.9679267"><ele>505.0</ele><time>2026-04-12T13:46:54.455Z</time></trkpt><trkpt lat="44.5840967" lon="7.96796"><ele>505.00000000000006</ele><time>2026-04-12T13:47:02.455Z</time></trkpt><trkpt lat="44.5840133" lon="7.9680083"><ele>505.0</ele><time>2026-04-12T13:47:04.455Z</time></trkpt><trkpt lat="44.5839317" lon="7.9680083"><ele>505.0</ele><time>2026-04-12T13:47:06.455Z</time></trkpt><trkpt lat="44.5838633" lon="7.967945"><ele>505.0</ele><time>2026-04-12T13:47:14.455Z</time></trkpt><trkpt lat="44.5838633" lon="7.9678433"><ele>505.00000000000006</ele><time>2026-04-12T13:47:17.455Z</time></trkpt><trkpt lat="44.5838833" lon="7.96775"><ele>505.0</ele><time>2026-04-12T13:47:20.455Z</time></trkpt><trkpt lat="44.5838183" lon="7.9676867"><ele>505.00000000000006</ele><time>2026-04-12T13:47:25.455Z</time></trkpt><trkpt lat="44.5837583" lon="7.96772"><ele>505.0</ele><time>2026-04-12T13:47:27.455Z</time></trkpt><trkpt lat="44.5836383" lon="7.967755"><ele>505.0</ele><time>2026-04-12T13:47:29.455Z</time></trkpt><trkpt lat="44.5835433" lon="7.9677883"><ele>505.0</ele><time>2026-04-12T13:47:31.455Z</time></trkpt><trkpt lat="44.5834817" lon="7.9678067"><ele>505.00000000000006</ele><time>2026-04-12T13:47:33.455Z</time></trkpt><trkpt lat="44.5833983" lon="7.96782"><ele>505.0</ele><time>2026-04-12T13:47:35.455Z</time></trkpt><trkpt lat="44.58331" lon="7.9678033"><ele>501.4285714285714</ele><time>2026-04-12T13:47:38.455Z</time></trkpt><trkpt lat="44.5832517" lon="7.9677267"><ele>497.8571428571428</ele><time>2026-04-12T13:47:41.455Z</time></trkpt><trkpt lat="44.58326" lon="7.9676383"><ele>494.2857142857143</ele><time>2026-04-12T13:47:43.455Z</time></trkpt><trkpt lat="44.58332" lon="7.9675383"><ele>490.71428571428567</ele><time>2026-04-12T13:47:45.455Z</time></trkpt><trkpt lat="44.5833667" lon="7.9674733"><ele>487.1428571428571</ele><time>2026-04-12T13:47:46.455Z</time></trkpt><trkpt lat="44.5834217" lon="7.9674133"><ele>483.57142857142856</ele><time>2026-04-12T13:47:47.455Z</time></trkpt><trkpt lat="44.583465" lon="7.9673383"><ele>480.0</ele><time>2026-04-12T13:47:48.455Z</time></trkpt><trkpt lat="44.5835267" lon="7.96728"><ele>479.0</ele><time>2026-04-12T13:47:49.455Z</time></trkpt><trkpt lat="44.5835883" lon="7.967215"><ele>478.0</ele><time>2026-04-12T13:47:50.455Z</time></trkpt><trkpt lat="44.5836483" lon="7.9671483"><ele>477.0</ele><time>2026-04-12T13:47:51.455Z</time></trkpt><trkpt lat="44.5837067" lon="7.9670717"><ele>476.0</ele><time>2026-04-12T13:47:52.455Z</time></trkpt><trkpt lat="44.5837683" lon="7.9669983"><ele>475.0</ele><time>2026-04-12T13:47:53.455Z</time></trkpt><trkpt lat="44.5838333" lon="7.966925"><ele>474.0</ele><time>2026-04-12T13:47:54.455Z</time></trkpt><trkpt lat="44.5838967" lon="7.9668467"><ele>473.0</ele><time>2026-04-12T13:47:55.455Z</time></trkpt><trkpt lat="44.5839617" lon="7.9667667"><ele>472.0</ele><time>2026-04-12T13:47:56.455Z</time></trkpt><trkpt lat="44.5840267" lon="7.9666817"><ele>471.0</ele><time>2026-04-12T13:47:57.455Z</time></trkpt><trkpt lat="44.58409" lon="7.96659"><ele>470.0</ele><time>2026-04-12T13:47:58.455Z</time></trkpt><trkpt lat="44.5841533" lon="7.9665083"><ele>469.0</ele><time>2026-04-12T13:47:59.455Z</time></trkpt><trkpt lat="44.5842183" lon="7.9664317"><ele>468.0</ele><time>2026-04-12T13:48:00.455Z</time></trkpt><trkpt lat="44.5842933" lon="7.9663467"><ele>468.0</ele><time>2026-04-12T13:48:01.455Z</time></trkpt><trkpt lat="44.5843633" lon="7.9662667"><ele>467.99999999999994</ele><time>2026-04-12T13:48:02.455Z</time></trkpt><trkpt lat="44.58444" lon="7.96618"><ele>467.99999999999994</ele><time>2026-04-12T13:48:03.455Z</time></trkpt><trkpt lat="44.5845233" lon="7.9661017"><ele>468.0</ele><time>2026-04-12T13:48:04.455Z</time></trkpt><trkpt lat="44.5846167" lon="7.9660433"><ele>468.0</ele><time>2026-04-12T13:48:05.455Z</time></trkpt><trkpt lat="44.5847083" lon="7.965955"><ele>466.59999999999997</ele><time>2026-04-12T13:48:06.455Z</time></trkpt><trkpt lat="44.5848033" lon="7.9658983"><ele>465.19999999999993</ele><time>2026-04-12T13:48:07.455Z</time></trkpt><trkpt lat="44.5849083" lon="7.9658483"><ele>463.8</ele><time>2026-04-12T13:48:08.455Z</time></trkpt><trkpt lat="44.585015" lon="7.965785"><ele>462.4</ele><time>2026-04-12T13:48:09.455Z</time></trkpt><trkpt lat="44.58511" lon="7.96572"><ele>461.0</ele><time>2026-04-12T13:48:10.455Z</time></trkpt><trkpt lat="44.5852033" lon="7.9656383"><ele>461.0</ele><time>2026-04-12T13:48:11.455Z</time></trkpt><trkpt lat="44.5852833" lon="7.9655367"><ele>461.0</ele><time>2026-04-12T13:48:12.455Z</time></trkpt><trkpt lat="44.5853567" lon="7.9654183"><ele>461.0</ele><time>2026-04-12T13:48:13.456Z</time></trkpt><trkpt lat="44.5854217" lon="7.9652867"><ele>461.0</ele><time>2026-04-12T13:48:14.455Z</time></trkpt><trkpt lat="44.5854833" lon="7.9651433"><ele>459.75</ele><time>2026-04-12T13:48:15.455Z</time></trkpt><trkpt lat="44.585535" lon="7.9649967"><ele>458.5</ele><time>2026-04-12T13:48:16.455Z</time></trkpt><trkpt lat="44.5855833" lon="7.9648433"><ele>457.25</ele><time>2026-04-12T13:48:17.455Z</time></trkpt><trkpt lat="44.5856267" lon="7.9646833"><ele>456.0</ele><time>2026-04-12T13:48:18.455Z</time></trkpt><trkpt lat="44.5856783" lon="7.96453"><ele>456.0</ele><time>2026-04-12T13:48:19.455Z</time></trkpt><trkpt lat="44.585725" lon="7.964365"><ele>456.0</ele><time>2026-04-12T13:48:20.455Z</time></trkpt><trkpt lat="44.5857733" lon="7.9642117"><ele>456.0</ele><time>2026-04-12T13:48:21.455Z</time></trkpt><trkpt lat="44.5858167" lon="7.9640633"><ele>456.0</ele><time>2026-04-12T13:48:22.455Z</time></trkpt><trkpt lat="44.5858633" lon="7.96393"><ele>453.20000000000005</ele><time>2026-04-12T13:48:23.455Z</time></trkpt><trkpt lat="44.5859067" lon="7.9638017"><ele>450.40000000000003</ele><time>2026-04-12T13:48:24.455Z</time></trkpt><trkpt lat="44.5859533" lon="7.96369"><ele>447.6</ele><time>2026-04-12T13:48:25.455Z</time></trkpt><trkpt lat="44.5859983" lon="7.963585"><ele>444.8</ele><time>2026-04-12T13:48:26.455Z</time></trkpt><trkpt lat="44.5860333" lon="7.9635033"><ele>442.0</ele><time>2026-04-12T13:48:27.455Z</time></trkpt><trkpt lat="44.58611" lon="7.963405"><ele>441.20000000000005</ele><time>2026-04-12T13:48:29.455Z</time></trkpt><trkpt lat="44.58619" lon="7.9633533"><ele>440.40000000000003</ele><time>2026-04-12T13:48:31.455Z</time></trkpt><trkpt lat="44.586285" lon="7.9633917"><ele>439.59999999999997</ele><time>2026-04-12T13:48:33.455Z</time></trkpt><trkpt lat="44.58638" lon="7.9634583"><ele>438.79999999999995</ele><time>2026-04-12T13:48:35.455Z</time></trkpt><trkpt lat="44.5864917" lon="7.9635433"><ele>438.0</ele><time>2026-04-12T13:48:37.455Z</time></trkpt><trkpt lat="44.5865667" lon="7.963585"><ele>438.0</ele><time>2026-04-12T13:48:38.455Z</time></trkpt><trkpt lat="44.5866467" lon="7.9636417"><ele>437.99999999999994</ele><time>2026-04-12T13:48:39.455Z</time></trkpt><trkpt lat="44.5867267" lon="7.9637017"><ele>437.99999999999994</ele><time>2026-04-12T13:48:40.455Z</time></trkpt><trkpt lat="44.5868167" lon="7.9637667"><ele>438.0</ele><time>2026-04-12T13:48:41.455Z</time></trkpt><trkpt lat="44.58691" lon="7.9638317"><ele>438.0</ele><time>2026-04-12T13:48:42.455Z</time></trkpt><trkpt lat="44.586995" lon="7.9639083"><ele>436.59999999999997</ele><time>2026-04-12T13:48:43.456Z</time></trkpt><trkpt lat="44.58708" lon="7.9639933"><ele>435.19999999999993</ele><time>2026-04-12T13:48:44.455Z</time></trkpt><trkpt lat="44.5871717" lon="7.96409"><ele>433.8</ele><time>2026-04-12T13:48:45.455Z</time></trkpt><trkpt lat="44.5872533" lon="7.9641783"><ele>432.4</ele><time>2026-04-12T13:48:46.455Z</time></trkpt><trkpt lat="44.587335" lon="7.9642717"><ele>431.0</ele><time>2026-04-12T13:48:47.455Z</time></trkpt><trkpt lat="44.5874117" lon="7.964365"><ele>431.0</ele><time>2026-04-12T13:48:48.455Z</time></trkpt><trkpt lat="44.5874933" lon="7.964455"><ele>431.0</ele><time>2026-04-12T13:48:49.455Z</time></trkpt><trkpt lat="44.587575" lon="7.9645633"><ele>431.0</ele><time>2026-04-12T13:48:50.455Z</time></trkpt><trkpt lat="44.58765" lon="7.96466"><ele>431.0</ele><time>2026-04-12T13:48:51.455Z</time></trkpt><trkpt lat="44.5877183" lon="7.9647417"><ele>431.0</ele><time>2026-04-12T13:48:52.455Z</time></trkpt><trkpt lat="44.5877883" lon="7.964825"><ele>427.99999999999994</ele><time>2026-04-12T13:48:53.455Z</time></trkpt><trkpt lat="44.587855" lon="7.9649033"><ele>425.0</ele><time>2026-04-12T13:48:54.455Z</time></trkpt><trkpt lat="44.5879233" lon="7.9649933"><ele>422.0</ele><time>2026-04-12T13:48:55.455Z</time></trkpt><trkpt lat="44.5879867" lon="7.9650833"><ele>419.0</ele><time>2026-04-12T13:48:56.455Z</time></trkpt><trkpt lat="44.5880333" lon="7.9651767"><ele>415.99999999999994</ele><time>2026-04-12T13:48:57.455Z</time></trkpt><trkpt lat="44.588065" lon="7.9652867"><ele>413.0</ele><time>2026-04-12T13:48:58.455Z</time></trkpt><trkpt lat="44.5880767" lon="7.965405"><ele>413.0</ele><time>2026-04-12T13:48:59.455Z</time></trkpt><trkpt lat="44.5880767" lon="7.9655383"><ele>413.0</ele><time>2026-04-12T13:49:00.455Z</time></trkpt><trkpt lat="44.5880717" lon="7.9656667"><ele>413.0</ele><time>2026-04-12T13:49:01.455Z</time></trkpt><trkpt lat="44.58807" lon="7.9658033"><ele>413.0</ele><time>2026-04-12T13:49:02.455Z</time></trkpt><trkpt lat="44.5880717" lon="7.9659517"><ele>413.0</ele><time>2026-04-12T13:49:03.455Z</time></trkpt><trkpt lat="44.58808" lon="7.9661083"><ele>413.99999999999994</ele><time>2026-04-12T13:49:04.455Z</time></trkpt><trkpt lat="44.5881017" lon="7.966255"><ele>415.0</ele><time>2026-04-12T13:49:05.455Z</time></trkpt><trkpt lat="44.588155" lon="7.966375"><ele>416.0</ele><time>2026-04-12T13:49:06.455Z</time></trkpt><trkpt lat="44.5882083" lon="7.9664467"><ele>417.0</ele><time>2026-04-12T13:49:07.455Z</time></trkpt><trkpt lat="44.588275" lon="7.966485"><ele>417.99999999999994</ele><time>2026-04-12T13:49:08.455Z</time></trkpt><trkpt lat="44.5883467" lon="7.9664633"><ele>419.0</ele><time>2026-04-12T13:49:09.455Z</time></trkpt><trkpt lat="44.5884017" lon="7.9664017"><ele>418.99999999999994</ele><time>2026-04-12T13:49:10.455Z</time></trkpt><trkpt lat="44.5884367" lon="7.9663067"><ele>419.0</ele><time>2026-04-12T13:49:11.455Z</time></trkpt><trkpt lat="44.5884667" lon="7.9662"><ele>419.0</ele><time>2026-04-12T13:49:12.455Z</time></trkpt><trkpt lat="44.588495" lon="7.9660783"><ele>419.0</ele><time>2026-04-12T13:49:13.455Z</time></trkpt><trkpt lat="44.58854" lon="7.96596"><ele>418.99999999999994</ele><time>2026-04-12T13:49:14.455Z</time></trkpt><trkpt lat="44.5885967" lon="7.9658433"><ele>419.0</ele><time>2026-04-12T13:49:15.455Z</time></trkpt><trkpt lat="44.5886583" lon="7.9657333"><ele>416.6</ele><time>2026-04-12T13:49:16.455Z</time></trkpt><trkpt lat="44.5887217" lon="7.96563"><ele>414.2</ele><time>2026-04-12T13:49:17.455Z</time></trkpt><trkpt lat="44.5887883" lon="7.9655367"><ele>411.8</ele><time>2026-04-12T13:49:18.455Z</time></trkpt><trkpt lat="44.5888517" lon="7.96545"><ele>409.40000000000003</ele><time>2026-04-12T13:49:19.455Z</time></trkpt><trkpt lat="44.58894" lon="7.9653733"><ele>407.0</ele><time>2026-04-12T13:49:20.455Z</time></trkpt><trkpt lat="44.589045" lon="7.9653033"><ele>407.0</ele><time>2026-04-12T13:49:21.455Z</time></trkpt><trkpt lat="44.5891483" lon="7.9652267"><ele>407.0</ele><time>2026-04-12T13:49:22.456Z</time></trkpt><trkpt lat="44.5892567" lon="7.9651417"><ele>407.0</ele><time>2026-04-12T13:49:23.455Z</time></trkpt><trkpt lat="44.589365" lon="7.9650517"><ele>407.0</ele><time>2026-04-12T13:49:24.455Z</time></trkpt><trkpt lat="44.5894683" lon="7.9649717"><ele>403.0</ele><time>2026-04-12T13:49:25.455Z</time></trkpt><trkpt lat="44.58957" lon="7.9649"><ele>399.0</ele><time>2026-04-12T13:49:26.455Z</time></trkpt><trkpt lat="44.5896683" lon="7.964835"><ele>395.0</ele><time>2026-04-12T13:49:27.455Z</time></trkpt><trkpt lat="44.5897667" lon="7.96477"><ele>391.0</ele><time>2026-04-12T13:49:28.455Z</time></trkpt><trkpt lat="44.5898517" lon="7.9646783"><ele>387.0</ele><time>2026-04-12T13:49:29.455Z</time></trkpt><trkpt lat="44.5899283" lon="7.9645667"><ele>387.0</ele><time>2026-04-12T13:49:30.455Z</time></trkpt><trkpt lat="44.5899933" lon="7.9644483"><ele>387.0</ele><time>2026-04-12T13:49:31.455Z</time></trkpt><trkpt lat="44.5900583" lon="7.9643233"><ele>387.0</ele><time>2026-04-12T13:49:32.455Z</time></trkpt><trkpt lat="44.5901133" lon="7.964195"><ele>387.0</ele><time>2026-04-12T13:49:33.456Z</time></trkpt><trkpt lat="44.5901517" lon="7.964075"><ele>387.0</ele><time>2026-04-12T13:49:34.455Z</time></trkpt><trkpt lat="44.5901983" lon="7.9639817"><ele>385.6666666666667</ele><time>2026-04-12T13:49:35.455Z</time></trkpt><trkpt lat="44.5902683" lon="7.9639217"><ele>384.3333333333333</ele><time>2026-04-12T13:49:36.455Z</time></trkpt><trkpt lat="44.5903517" lon="7.9639017"><ele>383.0</ele><time>2026-04-12T13:49:37.455Z</time></trkpt><trkpt lat="44.590445" lon="7.96392"><ele>381.66666666666663</ele><time>2026-04-12T13:49:38.455Z</time></trkpt><trkpt lat="44.5905383" lon="7.9639367"><ele>380.3333333333333</ele><time>2026-04-12T13:49:39.456Z</time></trkpt><trkpt lat="44.5906317" lon="7.9639417"><ele>379.0</ele><time>2026-04-12T13:49:40.455Z</time></trkpt><trkpt lat="44.590735" lon="7.96393"><ele>377.79999999999995</ele><time>2026-04-12T13:49:41.456Z</time></trkpt><trkpt lat="44.59084" lon="7.963895"><ele>376.59999999999997</ele><time>2026-04-12T13:49:42.455Z</time></trkpt><trkpt lat="44.590945" lon="7.963845"><ele>375.4</ele><time>2026-04-12T13:49:43.455Z</time></trkpt><trkpt lat="44.59105" lon="7.9637883"><ele>374.2</ele><time>2026-04-12T13:49:44.455Z</time></trkpt><trkpt lat="44.5911583" lon="7.9637467"><ele>373.0</ele><time>2026-04-12T13:49:45.455Z</time></trkpt><trkpt lat="44.5912683" lon="7.9637217"><ele>371.75</ele><time>2026-04-12T13:49:46.455Z</time></trkpt><trkpt lat="44.5913833" lon="7.9637083"><ele>370.5</ele><time>2026-04-12T13:49:47.456Z</time></trkpt><trkpt lat="44.591505" lon="7.9637133"><ele>369.25</ele><time>2026-04-12T13:49:48.455Z</time></trkpt><trkpt lat="44.5916283" lon="7.9637317"><ele>368.0</ele><time>2026-04-12T13:49:49.455Z</time></trkpt><trkpt lat="44.5917483" lon="7.96376"><ele>368.0</ele><time>2026-04-12T13:49:50.455Z</time></trkpt><trkpt lat="44.5918733" lon="7.963775"><ele>368.0</ele><time>2026-04-12T13:49:51.456Z</time></trkpt><trkpt lat="44.5920017" lon="7.9637483"><ele>368.0</ele><time>2026-04-12T13:49:52.455Z</time></trkpt><trkpt lat="44.5921317" lon="7.9637"><ele>368.0</ele><time>2026-04-12T13:49:53.455Z</time></trkpt><trkpt lat="44.5922567" lon="7.9636333"><ele>367.0</ele><time>2026-04-12T13:49:54.455Z</time></trkpt><trkpt lat="44.5923817" lon="7.96354"><ele>366.0</ele><time>2026-04-12T13:49:55.455Z</time></trkpt><trkpt lat="44.592505" lon="7.963455"><ele>365.0</ele><time>2026-04-12T13:49:56.455Z</time></trkpt><trkpt lat="44.5926217" lon="7.96337"><ele>364.0</ele><time>2026-04-12T13:49:57.455Z</time></trkpt><trkpt lat="44.5927333" lon="7.9632767"><ele>361.25</ele><time>2026-04-12T13:49:58.455Z</time></trkpt><trkpt lat="44.59284" lon="7.9631717"><ele>358.5</ele><time>2026-04-12T13:49:59.455Z</time></trkpt><trkpt lat="44.5929483" lon="7.963085"><ele>355.75</ele><time>2026-04-12T13:50:00.455Z</time></trkpt><trkpt lat="44.5930567" lon="7.9630183"><ele>353.0</ele><time>2026-04-12T13:50:01.455Z</time></trkpt><trkpt lat="44.59317" lon="7.9629867"><ele>353.0</ele><time>2026-04-12T13:50:02.455Z</time></trkpt><trkpt lat="44.59328" lon="7.962965"><ele>353.0</ele><time>2026-04-12T13:50:03.455Z</time></trkpt><trkpt lat="44.5933917" lon="7.9629517"><ele>353.0</ele><time>2026-04-12T13:50:04.455Z</time></trkpt><trkpt lat="44.5935033" lon="7.9629383"><ele>353.0</ele><time>2026-04-12T13:50:05.455Z</time></trkpt><trkpt lat="44.5936233" lon="7.9629133"><ele>352.5</ele><time>2026-04-12T13:50:06.455Z</time></trkpt><trkpt lat="44.593745" lon="7.9628983"><ele>352.0</ele><time>2026-04-12T13:50:07.455Z</time></trkpt><trkpt lat="44.5938683" lon="7.9628817"><ele>351.5</ele><time>2026-04-12T13:50:08.455Z</time></trkpt><trkpt lat="44.5939967" lon="7.9628583"><ele>351.0</ele><time>2026-04-12T13:50:09.455Z</time></trkpt><trkpt lat="44.5941167" lon="7.96282"><ele>351.0</ele><time>2026-04-12T13:50:10.455Z</time></trkpt><trkpt lat="44.594235" lon="7.9627633"><ele>351.0</ele><time>2026-04-12T13:50:11.455Z</time></trkpt><trkpt lat="44.5943533" lon="7.9627033"><ele>351.0</ele><time>2026-04-12T13:50:12.455Z</time></trkpt><trkpt lat="44.594465" lon="7.9626467"><ele>351.0</ele><time>2026-04-12T13:50:13.455Z</time></trkpt><trkpt lat="44.5945783" lon="7.9625883"><ele>350.6</ele><time>2026-04-12T13:50:14.455Z</time></trkpt><trkpt lat="44.5946833" lon="7.9625333"><ele>350.20000000000005</ele><time>2026-04-12T13:50:15.455Z</time></trkpt><trkpt lat="44.5947917" lon="7.962485"><ele>349.79999999999995</ele><time>2026-04-12T13:50:16.455Z</time></trkpt><trkpt lat="44.5948983" lon="7.9624317"><ele>349.4</ele><time>2026-04-12T13:50:17.455Z</time></trkpt><trkpt lat="44.5950033" lon="7.96239"><ele>349.0</ele><time>2026-04-12T13:50:18.455Z</time></trkpt><trkpt lat="44.5951033" lon="7.9623417"><ele>347.4</ele><time>2026-04-12T13:50:19.455Z</time></trkpt><trkpt lat="44.5952017" lon="7.9623067"><ele>345.79999999999995</ele><time>2026-04-12T13:50:20.455Z</time></trkpt><trkpt lat="44.5952917" lon="7.962285"><ele>344.20000000000005</ele><time>2026-04-12T13:50:21.455Z</time></trkpt><trkpt lat="44.5953817" lon="7.96228"><ele>342.6</ele><time>2026-04-12T13:50:22.455Z</time></trkpt><trkpt lat="44.5954783" lon="7.9622983"><ele>341.0</ele><time>2026-04-12T13:50:23.455Z</time></trkpt><trkpt lat="44.59556" lon="7.9623167"><ele>341.0</ele><time>2026-04-12T13:50:24.455Z</time></trkpt><trkpt lat="44.5956467" lon="7.9623783"><ele>341.0</ele><time>2026-04-12T13:50:25.455Z</time></trkpt><trkpt lat="44.5957117" lon="7.96245"><ele>341.0</ele><time>2026-04-12T13:50:26.455Z</time></trkpt><trkpt lat="44.5957717" lon="7.9625467"><ele>341.0</ele><time>2026-04-12T13:50:27.455Z</time></trkpt><trkpt lat="44.595825" lon="7.9626283"><ele>341.0</ele><time>2026-04-12T13:50:28.455Z</time></trkpt><trkpt lat="44.595885" lon="7.96268"><ele>341.0</ele><time>2026-04-12T13:50:29.455Z</time></trkpt><trkpt lat="44.5959483" lon="7.96268"><ele>341.0</ele><time>2026-04-12T13:50:30.455Z</time></trkpt><trkpt lat="44.596005" lon="7.9626383"><ele>341.0</ele><time>2026-04-12T13:50:31.455Z</time></trkpt><trkpt lat="44.5960433" lon="7.962565"><ele>341.0</ele><time>2026-04-12T13:50:32.455Z</time></trkpt><trkpt lat="44.5960667" lon="7.96248"><ele>341.0</ele><time>2026-04-12T13:50:33.455Z</time></trkpt><trkpt lat="44.5960783" lon="7.9623883"><ele>341.0</ele><time>2026-04-12T13:50:34.455Z</time></trkpt><trkpt lat="44.596085" lon="7.9622967"><ele>341.0</ele><time>2026-04-12T13:50:35.455Z</time></trkpt><trkpt lat="44.5960883" lon="7.9622067"><ele>341.0</ele><time>2026-04-12T13:50:36.455Z</time></trkpt><trkpt lat="44.596085" lon="7.962035"><ele>340.6666666666667</ele><time>2026-04-12T13:50:38.455Z</time></trkpt><trkpt lat="44.59611" lon="7.9618783"><ele>340.33333333333337</ele><time>2026-04-12T13:50:40.455Z</time></trkpt><trkpt lat="44.5961633" lon="7.9617267"><ele>340.0</ele><time>2026-04-12T13:50:42.455Z</time></trkpt><trkpt lat="44.59621" lon="7.9616583"><ele>339.6666666666667</ele><time>2026-04-12T13:50:43.455Z</time></trkpt><trkpt lat="44.5962583" lon="7.9615983"><ele>339.3333333333333</ele><time>2026-04-12T13:50:44.455Z</time></trkpt><trkpt lat="44.5963033" lon="7.961535"><ele>339.0</ele><time>2026-04-12T13:50:45.455Z</time></trkpt><trkpt lat="44.5963917" lon="7.9614233"><ele>339.0</ele><time>2026-04-12T13:50:47.455Z</time></trkpt><trkpt lat="44.596445" lon="7.96137"><ele>339.0</ele><time>2026-04-12T13:50:48.455Z</time></trkpt><trkpt lat="44.5964983" lon="7.9613167"><ele>339.0</ele><time>2026-04-12T13:50:49.455Z</time></trkpt><trkpt lat="44.5965533" lon="7.9612667"><ele>339.0</ele><time>2026-04-12T13:50:50.456Z</time></trkpt><trkpt lat="44.5966033" lon="7.9612083"><ele>339.0</ele><time>2026-04-12T13:50:51.455Z</time></trkpt><trkpt lat="44.5966533" lon="7.9611483"><ele>339.0</ele><time>2026-04-12T13:50:52.455Z</time></trkpt><trkpt lat="44.5967033" lon="7.961085"><ele>339.0</ele><time>2026-04-12T13:50:53.455Z</time></trkpt><trkpt lat="44.596805" lon="7.9609867"><ele>339.0</ele><time>2026-04-12T13:50:55.455Z</time></trkpt><trkpt lat="44.596855" lon="7.9609317"><ele>339.0</ele><time>2026-04-12T13:50:56.455Z</time></trkpt><trkpt lat="44.5969133" lon="7.9608917"><ele>339.0</ele><time>2026-04-12T13:50:57.455Z</time></trkpt><trkpt lat="44.5970083" lon="7.960835"><ele>339.0</ele><time>2026-04-12T13:50:59.455Z</time></trkpt><trkpt lat="44.5970817" lon="7.960785"><ele>339.0</ele><time>2026-04-12T13:51:01.455Z</time></trkpt><trkpt lat="44.5971517" lon="7.96071"><ele>339.0</ele><time>2026-04-12T13:51:03.455Z</time></trkpt><trkpt lat="44.5972483" lon="7.9606683"><ele>338.1666666666667</ele><time>2026-04-12T13:51:05.455Z</time></trkpt><trkpt lat="44.5973133" lon="7.960665"><ele>337.3333333333333</ele><time>2026-04-12T13:51:06.455Z</time></trkpt><trkpt lat="44.5973817" lon="7.9606633"><ele>336.5</ele><time>2026-04-12T13:51:07.455Z</time></trkpt><trkpt lat="44.5974583" lon="7.9606633"><ele>335.66666666666663</ele><time>2026-04-12T13:51:08.455Z</time></trkpt><trkpt lat="44.59754" lon="7.9606583"><ele>334.8333333333333</ele><time>2026-04-12T13:51:09.455Z</time></trkpt><trkpt lat="44.5976233" lon="7.96065"><ele>334.0</ele><time>2026-04-12T13:51:10.455Z</time></trkpt><trkpt lat="44.5977083" lon="7.960635"><ele>334.0</ele><time>2026-04-12T13:51:11.455Z</time></trkpt><trkpt lat="44.59779" lon="7.9606017"><ele>334.0</ele><time>2026-04-12T13:51:12.455Z</time></trkpt><trkpt lat="44.5978617" lon="7.9605717"><ele>334.0</ele><time>2026-04-12T13:51:13.455Z</time></trkpt><trkpt lat="44.5979367" lon="7.9605433"><ele>334.0</ele><time>2026-04-12T13:51:14.455Z</time></trkpt><trkpt lat="44.5980017" lon="7.9605283"><ele>334.0</ele><time>2026-04-12T13:51:15.455Z</time></trkpt><trkpt lat="44.598115" lon="7.9605483"><ele>334.0</ele><time>2026-04-12T13:51:17.455Z</time></trkpt><trkpt lat="44.598235" lon="7.9606133"><ele>333.85714285714283</ele><time>2026-04-12T13:51:19.455Z</time></trkpt><trkpt lat="44.598295" lon="7.9606533"><ele>333.7142857142857</ele><time>2026-04-12T13:51:20.455Z</time></trkpt><trkpt lat="44.5983583" lon="7.9606833"><ele>333.57142857142856</ele><time>2026-04-12T13:51:21.455Z</time></trkpt><trkpt lat="44.5984217" lon="7.9606967"><ele>333.42857142857144</ele><time>2026-04-12T13:51:22.456Z</time></trkpt><trkpt lat="44.5984967" lon="7.96068"><ele>333.2857142857143</ele><time>2026-04-12T13:51:23.455Z</time></trkpt><trkpt lat="44.5985683" lon="7.960635"><ele>333.14285714285717</ele><time>2026-04-12T13:51:24.455Z</time></trkpt><trkpt lat="44.598625" lon="7.96058"><ele>333.0</ele><time>2026-04-12T13:51:25.455Z</time></trkpt><trkpt lat="44.59872" lon="7.960495"><ele>332.5714285714286</ele><time>2026-04-12T13:51:27.455Z</time></trkpt><trkpt lat="44.5987817" lon="7.960365"><ele>332.1428571428571</ele><time>2026-04-12T13:51:29.455Z</time></trkpt><trkpt lat="44.5987983" lon="7.9602767"><ele>331.7142857142857</ele><time>2026-04-12T13:51:30.455Z</time></trkpt><trkpt lat="44.5988133" lon="7.960185"><ele>331.28571428571433</ele><time>2026-04-12T13:51:31.455Z</time></trkpt><trkpt lat="44.5988317" lon="7.9600933"><ele>330.8571428571429</ele><time>2026-04-12T13:51:32.455Z</time></trkpt><trkpt lat="44.598845" lon="7.9600017"><ele>330.42857142857144</ele><time>2026-04-12T13:51:33.455Z</time></trkpt><trkpt lat="44.5988483" lon="7.9599033"><ele>330.0</ele><time>2026-04-12T13:51:34.455Z</time></trkpt><trkpt lat="44.59886" lon="7.959795"><ele>328.8333333333333</ele><time>2026-04-12T13:51:35.455Z</time></trkpt><trkpt lat="44.5988683" lon="7.9596833"><ele>327.6666666666667</ele><time>2026-04-12T13:51:36.455Z</time></trkpt><trkpt lat="44.598885" lon="7.9595633"><ele>326.5</ele><time>2026-04-12T13:51:37.455Z</time></trkpt><trkpt lat="44.5988967" lon="7.95945"><ele>325.33333333333337</ele><time>2026-04-12T13:51:38.455Z</time></trkpt><trkpt lat="44.5989067" lon="7.9593417"><ele>324.1666666666667</ele><time>2026-04-12T13:51:39.456Z</time></trkpt><trkpt lat="44.5989133" lon="7.95925"><ele>323.0</ele><time>2026-04-12T13:51:40.455Z</time></trkpt><trkpt lat="44.5989267" lon="7.9591367"><ele>322.0</ele><time>2026-04-12T13:51:42.455Z</time></trkpt><trkpt lat="44.598945" lon="7.9590467"><ele>321.0</ele><time>2026-04-12T13:51:45.455Z</time></trkpt><trkpt lat="44.598995" lon="7.9589583"><ele>320.0</ele><time>2026-04-12T13:51:47.455Z</time></trkpt><trkpt lat="44.599035" lon="7.958815"><ele>319.0</ele><time>2026-04-12T13:51:49.455Z</time></trkpt><trkpt lat="44.5990417" lon="7.95872"><ele>318.0</ele><time>2026-04-12T13:51:50.455Z</time></trkpt><trkpt lat="44.5990433" lon="7.958625"><ele>317.0</ele><time>2026-04-12T13:51:51.455Z</time></trkpt><trkpt lat="44.599055" lon="7.9585167"><ele>317.0</ele><time>2026-04-12T13:51:52.455Z</time></trkpt><trkpt lat="44.5990767" lon="7.9584117"><ele>317.0</ele><time>2026-04-12T13:51:53.455Z</time></trkpt><trkpt lat="44.5991" lon="7.9583117"><ele>317.0</ele><time>2026-04-12T13:51:54.455Z</time></trkpt><trkpt lat="44.59913" lon="7.9582167"><ele>317.0</ele><time>2026-04-12T13:51:55.455Z</time></trkpt><trkpt lat="44.5991683" lon="7.9581383"><ele>317.0</ele><time>2026-04-12T13:51:56.455Z</time></trkpt><trkpt lat="44.59922" lon="7.9580667"><ele>317.0</ele><time>2026-04-12T13:51:57.455Z</time></trkpt><trkpt lat="44.599275" lon="7.958"><ele>317.0</ele><time>2026-04-12T13:51:58.455Z</time></trkpt><trkpt lat="44.5993317" lon="7.957935"><ele>317.42857142857144</ele><time>2026-04-12T13:51:59.455Z</time></trkpt><trkpt lat="44.5993883" lon="7.9578617"><ele>317.85714285714283</ele><time>2026-04-12T13:52:00.455Z</time></trkpt><trkpt lat="44.59944" lon="7.9578017"><ele>318.2857142857143</ele><time>2026-04-12T13:52:01.455Z</time></trkpt><trkpt lat="44.5994883" lon="7.9577417"><ele>318.7142857142857</ele><time>2026-04-12T13:52:02.456Z</time></trkpt><trkpt lat="44.5995383" lon="7.95768"><ele>319.14285714285717</ele><time>2026-04-12T13:52:03.455Z</time></trkpt><trkpt lat="44.5995883" lon="7.9576167"><ele>319.57142857142856</ele><time>2026-04-12T13:52:04.455Z</time></trkpt><trkpt lat="44.5996367" lon="7.9575533"><ele>320.0</ele><time>2026-04-12T13:52:05.455Z</time></trkpt><trkpt lat="44.599685" lon="7.9574917"><ele>318.5</ele><time>2026-04-12T13:52:06.455Z</time></trkpt><trkpt lat="44.5997317" lon="7.95742"><ele>317.0</ele><time>2026-04-12T13:52:07.456Z</time></trkpt><trkpt lat="44.599785" lon="7.9573433"><ele>315.5</ele><time>2026-04-12T13:52:08.455Z</time></trkpt><trkpt lat="44.5998333" lon="7.9572767"><ele>314.0</ele><time>2026-04-12T13:52:09.455Z</time></trkpt><trkpt lat="44.5998783" lon="7.9572133"><ele>312.5</ele><time>2026-04-12T13:52:10.455Z</time></trkpt><trkpt lat="44.5999233" lon="7.9571483"><ele>311.0</ele><time>2026-04-12T13:52:11.455Z</time></trkpt><trkpt lat="44.6000183" lon="7.9570417"><ele>311.0</ele><time>2026-04-12T13:52:13.455Z</time></trkpt><trkpt lat="44.6000717" lon="7.9569833"><ele>311.0</ele><time>2026-04-12T13:52:14.455Z</time></trkpt><trkpt lat="44.6001233" lon="7.9569217"><ele>311.0</ele><time>2026-04-12T13:52:15.455Z</time></trkpt><trkpt lat="44.6001717" lon="7.9568583"><ele>311.0</ele><time>2026-04-12T13:52:16.455Z</time></trkpt><trkpt lat="44.6002217" lon="7.9568033"><ele>311.0</ele><time>2026-04-12T13:52:17.455Z</time></trkpt><trkpt lat="44.6003267" lon="7.956705"><ele>311.0</ele><time>2026-04-12T13:52:19.455Z</time></trkpt><trkpt lat="44.60039" lon="7.95666"><ele>310.2857142857143</ele><time>2026-04-12T13:52:20.455Z</time></trkpt><trkpt lat="44.60046" lon="7.9566233"><ele>309.5714285714286</ele><time>2026-04-12T13:52:21.455Z</time></trkpt><trkpt lat="44.6005333" lon="7.9565933"><ele>308.8571428571429</ele><time>2026-04-12T13:52:22.455Z</time></trkpt><trkpt lat="44.6006017" lon="7.9565567"><ele>308.1428571428571</ele><time>2026-04-12T13:52:23.455Z</time></trkpt><trkpt lat="44.6006717" lon="7.9565183"><ele>307.42857142857144</ele><time>2026-04-12T13:52:24.455Z</time></trkpt><trkpt lat="44.60074" lon="7.9564767"><ele>306.7142857142857</ele><time>2026-04-12T13:52:25.455Z</time></trkpt><trkpt lat="44.6008083" lon="7.9564317"><ele>306.0</ele><time>2026-04-12T13:52:26.455Z</time></trkpt><trkpt lat="44.6008817" lon="7.9563983"><ele>306.0</ele><time>2026-04-12T13:52:27.455Z</time></trkpt><trkpt lat="44.600955" lon="7.9563617"><ele>306.0</ele><time>2026-04-12T13:52:28.455Z</time></trkpt><trkpt lat="44.6010233" lon="7.9563367"><ele>306.0</ele><time>2026-04-12T13:52:29.455Z</time></trkpt><trkpt lat="44.6010933" lon="7.956315"><ele>306.0</ele><time>2026-04-12T13:52:30.455Z</time></trkpt><trkpt lat="44.6011583" lon="7.9562883"><ele>306.0</ele><time>2026-04-12T13:52:31.455Z</time></trkpt><trkpt lat="44.6012883" lon="7.9562183"><ele>306.0</ele><time>2026-04-12T13:52:33.455Z</time></trkpt><trkpt lat="44.6013533" lon="7.95619"><ele>305.0</ele><time>2026-04-12T13:52:34.455Z</time></trkpt><trkpt lat="44.6014167" lon="7.9561617"><ele>304.0</ele><time>2026-04-12T13:52:35.455Z</time></trkpt><trkpt lat="44.6014833" lon="7.9561317"><ele>303.0</ele><time>2026-04-12T13:52:36.455Z</time></trkpt><trkpt lat="44.6015533" lon="7.956105"><ele>302.0</ele><time>2026-04-12T13:52:37.455Z</time></trkpt><trkpt lat="44.6016183" lon="7.9560867"><ele>301.0</ele><time>2026-04-12T13:52:38.455Z</time></trkpt><trkpt lat="44.60173" lon="7.9560667"><ele>300.0</ele><time>2026-04-12T13:52:40.455Z</time></trkpt><trkpt lat="44.6018017" lon="7.956055"><ele>300.0</ele><time>2026-04-12T13:52:42.455Z</time></trkpt><trkpt lat="44.6018667" lon="7.956005"><ele>300.0</ele><time>2026-04-12T13:52:44.455Z</time></trkpt><trkpt lat="44.6019267" lon="7.9559033"><ele>300.0</ele><time>2026-04-12T13:52:46.455Z</time></trkpt><trkpt lat="44.6019867" lon="7.95575"><ele>300.0</ele><time>2026-04-12T13:52:48.455Z</time></trkpt><trkpt lat="44.6020317" lon="7.9556617"><ele>300.0</ele><time>2026-04-12T13:52:49.455Z</time></trkpt><trkpt lat="44.602075" lon="7.95557"><ele>300.0</ele><time>2026-04-12T13:52:50.455Z</time></trkpt><trkpt lat="44.6021167" lon="7.9554883"><ele>297.5</ele><time>2026-04-12T13:52:51.455Z</time></trkpt><trkpt lat="44.6021617" lon="7.955405"><ele>295.0</ele><time>2026-04-12T13:52:52.455Z</time></trkpt><trkpt lat="44.60225" lon="7.955295"><ele>292.5</ele><time>2026-04-12T13:52:54.455Z</time></trkpt><trkpt lat="44.6023117" lon="7.955195"><ele>290.0</ele><time>2026-04-12T13:52:56.455Z</time></trkpt><trkpt lat="44.6023683" lon="7.9551233"><ele>287.5</ele><time>2026-04-12T13:52:58.455Z</time></trkpt><trkpt lat="44.6024517" lon="7.9550983"><ele>285.0</ele><time>2026-04-12T13:53:00.455Z</time></trkpt><trkpt lat="44.6025683" lon="7.9550783"><ele>284.4</ele><time>2026-04-12T13:53:02.455Z</time></trkpt><trkpt lat="44.602675" lon="7.9549717"><ele>283.8</ele><time>2026-04-12T13:53:04.455Z</time></trkpt><trkpt lat="44.60273" lon="7.9549033"><ele>283.2</ele><time>2026-04-12T13:53:05.455Z</time></trkpt><trkpt lat="44.6027867" lon="7.9548217"><ele>282.6</ele><time>2026-04-12T13:53:06.455Z</time></trkpt><trkpt lat="44.6028417" lon="7.9547333"><ele>282.0</ele><time>2026-04-12T13:53:07.455Z</time></trkpt><trkpt lat="44.602895" lon="7.95464"><ele>282.0</ele><time>2026-04-12T13:53:08.456Z</time></trkpt><trkpt lat="44.6029483" lon="7.95455"><ele>282.0</ele><time>2026-04-12T13:53:09.455Z</time></trkpt><trkpt lat="44.6030017" lon="7.9544683"><ele>282.0</ele><time>2026-04-12T13:53:10.455Z</time></trkpt><trkpt lat="44.6030483" lon="7.9543983"><ele>282.0</ele><time>2026-04-12T13:53:11.455Z</time></trkpt><trkpt lat="44.6031" lon="7.9543417"><ele>282.0</ele><time>2026-04-12T13:53:12.455Z</time></trkpt><trkpt lat="44.60316" lon="7.9543017"><ele>282.0</ele><time>2026-04-12T13:53:13.455Z</time></trkpt><trkpt lat="44.6032283" lon="7.95427"><ele>282.0</ele><time>2026-04-12T13:53:14.455Z</time></trkpt><trkpt lat="44.6032933" lon="7.9542433"><ele>282.0</ele><time>2026-04-12T13:53:15.455Z</time></trkpt><trkpt lat="44.60336" lon="7.9542167"><ele>282.0</ele><time>2026-04-12T13:53:16.455Z</time></trkpt><trkpt lat="44.6034217" lon="7.95418"><ele>282.0</ele><time>2026-04-12T13:53:17.455Z</time></trkpt><trkpt lat="44.6034783" lon="7.95413"><ele>282.0</ele><time>2026-04-12T13:53:18.455Z</time></trkpt><trkpt lat="44.6035333" lon="7.95407"><ele>282.0</ele><time>2026-04-12T13:53:19.455Z</time></trkpt><trkpt lat="44.6035767" lon="7.9539917"><ele>282.0</ele><time>2026-04-12T13:53:20.455Z</time></trkpt><trkpt lat="44.60361" lon="7.9538883"><ele>282.0</ele><time>2026-04-12T13:53:21.455Z</time></trkpt><trkpt lat="44.6036317" lon="7.9537817"><ele>281.0</ele><time>2026-04-12T13:53:22.455Z</time></trkpt><trkpt lat="44.6036533" lon="7.9536633"><ele>280.0</ele><time>2026-04-12T13:53:23.455Z</time></trkpt><trkpt lat="44.6036833" lon="7.9535417"><ele>279.0</ele><time>2026-04-12T13:53:24.455Z</time></trkpt><trkpt lat="44.60372" lon="7.9534283"><ele>278.0</ele><time>2026-04-12T13:53:25.455Z</time></trkpt><trkpt lat="44.6037617" lon="7.9533217"><ele>277.0</ele><time>2026-04-12T13:53:26.455Z</time></trkpt><trkpt lat="44.6038183" lon="7.95322"><ele>276.0</ele><time>2026-04-12T13:53:27.455Z</time></trkpt><trkpt lat="44.6038783" lon="7.9531383"><ele>275.1666666666667</ele><time>2026-04-12T13:53:28.455Z</time></trkpt><trkpt lat="44.6039367" lon="7.9531"><ele>274.3333333333333</ele><time>2026-04-12T13:53:29.455Z</time></trkpt><trkpt lat="44.604" lon="7.9530933"><ele>273.5</ele><time>2026-04-12T13:53:30.455Z</time></trkpt><trkpt lat="44.6040767" lon="7.9531067"><ele>272.66666666666663</ele><time>2026-04-12T13:53:31.455Z</time></trkpt><trkpt lat="44.604155" lon="7.953125"><ele>271.8333333333333</ele><time>2026-04-12T13:53:32.455Z</time></trkpt><trkpt lat="44.60424" lon="7.9531433"><ele>271.0</ele><time>2026-04-12T13:53:33.455Z</time></trkpt><trkpt lat="44.604335" lon="7.9531417"><ele>271.0</ele><time>2026-04-12T13:53:34.455Z</time></trkpt><trkpt lat="44.6044483" lon="7.9531317"><ele>271.0</ele><time>2026-04-12T13:53:35.456Z</time></trkpt><trkpt lat="44.6045317" lon="7.95309"><ele>271.0</ele><time>2026-04-12T13:53:36.455Z</time></trkpt><trkpt lat="44.6046283" lon="7.9530483"><ele>271.0</ele><time>2026-04-12T13:53:37.455Z</time></trkpt><trkpt lat="44.6047233" lon="7.953005"><ele>271.0</ele><time>2026-04-12T13:53:38.455Z</time></trkpt><trkpt lat="44.6048233" lon="7.9529733"><ele>270.40000000000003</ele><time>2026-04-12T13:53:39.455Z</time></trkpt><trkpt lat="44.6049267" lon="7.9529583"><ele>269.8</ele><time>2026-04-12T13:53:40.455Z</time></trkpt><trkpt lat="44.6050217" lon="7.9529583"><ele>269.20000000000005</ele><time>2026-04-12T13:53:41.456Z</time></trkpt><trkpt lat="44.605115" lon="7.9529633"><ele>268.6</ele><time>2026-04-12T13:53:42.455Z</time></trkpt><trkpt lat="44.6052017" lon="7.9529567"><ele>268.0</ele><time>2026-04-12T13:53:43.455Z</time></trkpt><trkpt lat="44.6052717" lon="7.95294"><ele>267.8</ele><time>2026-04-12T13:53:44.455Z</time></trkpt><trkpt lat="44.6053433" lon="7.9528833"><ele>267.6</ele><time>2026-04-12T13:53:46.455Z</time></trkpt><trkpt lat="44.6053683" lon="7.9527917"><ele>267.4</ele><time>2026-04-12T13:53:48.455Z</time></trkpt><trkpt lat="44.605345" lon="7.95267"><ele>267.2</ele><time>2026-04-12T13:53:50.455Z</time></trkpt><trkpt lat="44.6053417" lon="7.9525233"><ele>267.0</ele><time>2026-04-12T13:53:52.455Z</time></trkpt><trkpt lat="44.605395" lon="7.9523733"><ele>266.3333333333333</ele><time>2026-04-12T13:53:54.455Z</time></trkpt><trkpt lat="44.6054333" lon="7.9522967"><ele>265.6666666666667</ele><time>2026-04-12T13:53:55.455Z</time></trkpt><trkpt lat="44.6054717" lon="7.952225"><ele>265.0</ele><time>2026-04-12T13:53:56.455Z</time></trkpt><trkpt lat="44.60557" lon="7.9521167"><ele>264.33333333333337</ele><time>2026-04-12T13:53:58.455Z</time></trkpt><trkpt lat="44.6056283" lon="7.9520667"><ele>263.6666666666667</ele><time>2026-04-12T13:53:59.455Z</time></trkpt><trkpt lat="44.6056967" lon="7.9520183"><ele>263.0</ele><time>2026-04-12T13:54:00.455Z</time></trkpt><trkpt lat="44.6057683" lon="7.9519817"><ele>263.0</ele><time>2026-04-12T13:54:01.455Z</time></trkpt><trkpt lat="44.6058433" lon="7.9519467"><ele>263.0</ele><time>2026-04-12T13:54:02.455Z</time></trkpt><trkpt lat="44.6059167" lon="7.9518917"><ele>263.0</ele><time>2026-04-12T13:54:03.455Z</time></trkpt><trkpt lat="44.6059833" lon="7.9518283"><ele>263.0</ele><time>2026-04-12T13:54:04.455Z</time></trkpt><trkpt lat="44.6060483" lon="7.9517483"><ele>263.0</ele><time>2026-04-12T13:54:05.455Z</time></trkpt><trkpt lat="44.606105" lon="7.95167"><ele>263.0</ele><time>2026-04-12T13:54:06.455Z</time></trkpt><trkpt lat="44.6061617" lon="7.9515933"><ele>262.6666666666667</ele><time>2026-04-12T13:54:07.455Z</time></trkpt><trkpt lat="44.6062217" lon="7.9515217"><ele>262.33333333333337</ele><time>2026-04-12T13:54:08.455Z</time></trkpt><trkpt lat="44.6062833" lon="7.9514533"><ele>262.0</ele><time>2026-04-12T13:54:09.455Z</time></trkpt><trkpt lat="44.6063467" lon="7.951385"><ele>261.6666666666667</ele><time>2026-04-12T13:54:10.455Z</time></trkpt><trkpt lat="44.6064083" lon="7.9513267"><ele>261.3333333333333</ele><time>2026-04-12T13:54:11.455Z</time></trkpt><trkpt lat="44.6064683" lon="7.9512733"><ele>261.0</ele><time>2026-04-12T13:54:12.456Z</time></trkpt><trkpt lat="44.6065333" lon="7.95123"><ele>261.0</ele><time>2026-04-12T13:54:13.455Z</time></trkpt><trkpt lat="44.6066" lon="7.9512"><ele>261.0</ele><time>2026-04-12T13:54:14.455Z</time></trkpt><trkpt lat="44.6066717" lon="7.9511967"><ele>261.0</ele><time>2026-04-12T13:54:15.455Z</time></trkpt><trkpt lat="44.60674" lon="7.9512233"><ele>261.0</ele><time>2026-04-12T13:54:16.456Z</time></trkpt><trkpt lat="44.6068117" lon="7.9512667"><ele>261.0</ele><time>2026-04-12T13:54:17.455Z</time></trkpt><trkpt lat="44.6068933" lon="7.9513133"><ele>261.0</ele><time>2026-04-12T13:54:18.455Z</time></trkpt><trkpt lat="44.6069767" lon="7.9513317"><ele>260.8333333333333</ele><time>2026-04-12T13:54:19.456Z</time></trkpt><trkpt lat="44.607055" lon="7.9513133"><ele>260.6666666666667</ele><time>2026-04-12T13:54:20.455Z</time></trkpt><trkpt lat="44.6071367" lon="7.9512783"><ele>260.5</ele><time>2026-04-12T13:54:21.455Z</time></trkpt><trkpt lat="44.6072167" lon="7.9512433"><ele>260.33333333333337</ele><time>2026-04-12T13:54:22.456Z</time></trkpt><trkpt lat="44.6072883" lon="7.951195"><ele>260.1666666666667</ele><time>2026-04-12T13:54:23.455Z</time></trkpt><trkpt lat="44.607355" lon="7.9511367"><ele>260.0</ele><time>2026-04-12T13:54:24.455Z</time></trkpt><trkpt lat="44.6074167" lon="7.95108"><ele>260.0</ele><time>2026-04-12T13:54:25.455Z</time></trkpt><trkpt lat="44.60748" lon="7.9510317"><ele>260.0</ele><time>2026-04-12T13:54:26.455Z</time></trkpt><trkpt lat="44.6075533" lon="7.9509967"><ele>260.0</ele><time>2026-04-12T13:54:27.456Z</time></trkpt><trkpt lat="44.6076367" lon="7.950975"><ele>260.0</ele><time>2026-04-12T13:54:28.455Z</time></trkpt><trkpt lat="44.6077183" lon="7.95095"><ele>260.0</ele><time>2026-04-12T13:54:29.455Z</time></trkpt><trkpt lat="44.6078033" lon="7.9509283"><ele>260.0</ele><time>2026-04-12T13:54:30.455Z</time></trkpt><trkpt lat="44.6078933" lon="7.9509133"><ele>259.6</ele><time>2026-04-12T13:54:31.455Z</time></trkpt><trkpt lat="44.60799" lon="7.9509"><ele>259.2</ele><time>2026-04-12T13:54:32.455Z</time></trkpt><trkpt lat="44.6080883" lon="7.9508967"><ele>258.8</ele><time>2026-04-12T13:54:33.455Z</time></trkpt><trkpt lat="44.60818" lon="7.9508967"><ele>258.4</ele><time>2026-04-12T13:54:34.455Z</time></trkpt><trkpt lat="44.6082767" lon="7.9509"><ele>258.0</ele><time>2026-04-12T13:54:35.455Z</time></trkpt><trkpt lat="44.6083733" lon="7.9508983"><ele>258.0</ele><time>2026-04-12T13:54:36.455Z</time></trkpt><trkpt lat="44.608475" lon="7.9508833"><ele>258.0</ele><time>2026-04-12T13:54:37.456Z</time></trkpt><trkpt lat="44.6085683" lon="7.9508683"><ele>258.0</ele><time>2026-04-12T13:54:38.455Z</time></trkpt><trkpt lat="44.60867" lon="7.9508567"><ele>258.0</ele><time>2026-04-12T13:54:39.455Z</time></trkpt><trkpt lat="44.608775" lon="7.9508517"><ele>258.0</ele><time>2026-04-12T13:54:40.455Z</time></trkpt><trkpt lat="44.6088767" lon="7.95084"><ele>256.4</ele><time>2026-04-12T13:54:41.455Z</time></trkpt><trkpt lat="44.6089767" lon="7.9508333"><ele>254.8</ele><time>2026-04-12T13:54:42.455Z</time></trkpt><trkpt lat="44.6090733" lon="7.9508317"><ele>253.2</ele><time>2026-04-12T13:54:43.455Z</time></trkpt><trkpt lat="44.6091683" lon="7.9508217"><ele>251.6</ele><time>2026-04-12T13:54:44.455Z</time></trkpt><trkpt lat="44.60926" lon="7.950815"><ele>250.0</ele><time>2026-04-12T13:54:45.455Z</time></trkpt><trkpt lat="44.609345" lon="7.9508067"><ele>249.99999999999997</ele><time>2026-04-12T13:54:46.455Z</time></trkpt><trkpt lat="44.6094217" lon="7.950795"><ele>250.0</ele><time>2026-04-12T13:54:47.455Z</time></trkpt><trkpt lat="44.6094883" lon="7.9507767"><ele>250.0</ele><time>2026-04-12T13:54:48.455Z</time></trkpt><trkpt lat="44.6095517" lon="7.9507633"><ele>250.0</ele><time>2026-04-12T13:54:49.455Z</time></trkpt><trkpt lat="44.60967" lon="7.9507433"><ele>249.99999999999997</ele><time>2026-04-12T13:54:51.455Z</time></trkpt><trkpt lat="44.609735" lon="7.9507233"><ele>250.0</ele><time>2026-04-12T13:54:52.455Z</time></trkpt><trkpt lat="44.6098" lon="7.95071"><ele>249.57142857142856</ele><time>2026-04-12T13:54:53.455Z</time></trkpt><trkpt lat="44.6098683" lon="7.9506917"><ele>249.14285714285717</ele><time>2026-04-12T13:54:54.455Z</time></trkpt><trkpt lat="44.6099417" lon="7.9506767"><ele>248.71428571428572</ele><time>2026-04-12T13:54:55.455Z</time></trkpt><trkpt lat="44.610015" lon="7.9506633"><ele>248.28571428571428</ele><time>2026-04-12T13:54:56.455Z</time></trkpt><trkpt lat="44.61009" lon="7.9506533"><ele>247.85714285714283</ele><time>2026-04-12T13:54:57.455Z</time></trkpt><trkpt lat="44.6101633" lon="7.9506417"><ele>247.42857142857144</ele><time>2026-04-12T13:54:58.455Z</time></trkpt><trkpt lat="44.6102383" lon="7.950635"><ele>247.0</ele><time>2026-04-12T13:54:59.455Z</time></trkpt><trkpt lat="44.6103083" lon="7.95062"><ele>246.66666666666666</ele><time>2026-04-12T13:55:00.455Z</time></trkpt><trkpt lat="44.6103767" lon="7.950605"><ele>246.33333333333331</ele><time>2026-04-12T13:55:01.456Z</time></trkpt><trkpt lat="44.6104483" lon="7.95058"><ele>246.0</ele><time>2026-04-12T13:55:02.455Z</time></trkpt><trkpt lat="44.6105217" lon="7.950555"><ele>245.66666666666669</ele><time>2026-04-12T13:55:03.456Z</time></trkpt><trkpt lat="44.6105917" lon="7.9505133"><ele>245.33333333333334</ele><time>2026-04-12T13:55:04.455Z</time></trkpt><trkpt lat="44.61067" lon="7.9504783"><ele>245.0</ele><time>2026-04-12T13:55:05.455Z</time></trkpt><trkpt lat="44.610755" lon="7.9504567"><ele>245.00000000000003</ele><time>2026-04-12T13:55:06.455Z</time></trkpt><trkpt lat="44.610845" lon="7.9504367"><ele>245.0</ele><time>2026-04-12T13:55:07.455Z</time></trkpt><trkpt lat="44.610935" lon="7.9504267"><ele>245.0</ele><time>2026-04-12T13:55:08.455Z</time></trkpt><trkpt lat="44.6110233" lon="7.9504167"><ele>245.0</ele><time>2026-04-12T13:55:09.455Z</time></trkpt><trkpt lat="44.611105" lon="7.950415"><ele>245.00000000000003</ele><time>2026-04-12T13:55:10.455Z</time></trkpt><trkpt lat="44.6111867" lon="7.950405"><ele>245.0</ele><time>2026-04-12T13:55:11.455Z</time></trkpt><trkpt lat="44.61127" lon="7.9503833"><ele>244.50000000000003</ele><time>2026-04-12T13:55:12.455Z</time></trkpt><trkpt lat="44.6113567" lon="7.950355"><ele>244.0</ele><time>2026-04-12T13:55:13.455Z</time></trkpt><trkpt lat="44.6114333" lon="7.95031"><ele>243.5</ele><time>2026-04-12T13:55:14.455Z</time></trkpt><trkpt lat="44.6115033" lon="7.9502517"><ele>243.0</ele><time>2026-04-12T13:55:15.455Z</time></trkpt><trkpt lat="44.6115717" lon="7.9501917"><ele>242.50000000000003</ele><time>2026-04-12T13:55:16.455Z</time></trkpt><trkpt lat="44.6116433" lon="7.9501417"><ele>242.0</ele><time>2026-04-12T13:55:17.455Z</time></trkpt><trkpt lat="44.6117183" lon="7.9501"><ele>242.00000000000003</ele><time>2026-04-12T13:55:18.455Z</time></trkpt><trkpt lat="44.6118017" lon="7.95007"><ele>242.0</ele><time>2026-04-12T13:55:19.455Z</time></trkpt><trkpt lat="44.6118833" lon="7.9500533"><ele>242.0</ele><time>2026-04-12T13:55:20.455Z</time></trkpt><trkpt lat="44.6119667" lon="7.950045"><ele>242.0</ele><time>2026-04-12T13:55:21.455Z</time></trkpt><trkpt lat="44.6120433" lon="7.9500433"><ele>242.00000000000003</ele><time>2026-04-12T13:55:22.455Z</time></trkpt><trkpt lat="44.61212" lon="7.9500567"><ele>242.0</ele><time>2026-04-12T13:55:23.455Z</time></trkpt><trkpt lat="44.6121917" lon="7.9500767"><ele>241.83333333333334</ele><time>2026-04-12T13:55:24.455Z</time></trkpt><trkpt lat="44.6122633" lon="7.9500933"><ele>241.66666666666669</ele><time>2026-04-12T13:55:25.455Z</time></trkpt><trkpt lat="44.612335" lon="7.95011"><ele>241.5</ele><time>2026-04-12T13:55:26.455Z</time></trkpt><trkpt lat="44.6124" lon="7.9501317"><ele>241.33333333333331</ele><time>2026-04-12T13:55:27.455Z</time></trkpt><trkpt lat="44.6124633" lon="7.9501483"><ele>241.16666666666666</ele><time>2026-04-12T13:55:28.455Z</time></trkpt><trkpt lat="44.6125283" lon="7.9501617"><ele>241.0</ele><time>2026-04-12T13:55:29.455Z</time></trkpt><trkpt lat="44.612645" lon="7.9501733"><ele>240.99999999999997</ele><time>2026-04-12T13:55:31.455Z</time></trkpt><trkpt lat="44.6127533" lon="7.9501733"><ele>241.0</ele><time>2026-04-12T13:55:33.455Z</time></trkpt><trkpt lat="44.612845" lon="7.9501683"><ele>241.0</ele><time>2026-04-12T13:55:35.455Z</time></trkpt><trkpt lat="44.6129283" lon="7.95017"><ele>241.0</ele><time>2026-04-12T13:55:37.455Z</time></trkpt><trkpt lat="44.6130017" lon="7.9501633"><ele>240.99999999999997</ele><time>2026-04-12T13:55:39.455Z</time></trkpt><trkpt lat="44.6130733" lon="7.95016"><ele>241.0</ele><time>2026-04-12T13:55:41.455Z</time></trkpt><trkpt lat="44.6131367" lon="7.9501667"><ele>240.85714285714286</ele><time>2026-04-12T13:55:43.455Z</time></trkpt><trkpt lat="44.6132017" lon="7.95017"><ele>240.71428571428572</ele><time>2026-04-12T13:55:45.455Z</time></trkpt><trkpt lat="44.61329" lon="7.95018"><ele>240.57142857142858</ele><time>2026-04-12T13:55:48.456Z</time></trkpt><trkpt lat="44.61337" lon="7.950195"><ele>240.42857142857144</ele><time>2026-04-12T13:55:51.455Z</time></trkpt><trkpt lat="44.6134333" lon="7.9501883"><ele>240.28571428571428</ele><time>2026-04-12T13:55:54.455Z</time></trkpt><trkpt lat="44.613505" lon="7.9501933"><ele>240.14285714285717</ele><time>2026-04-12T13:55:57.455Z</time></trkpt><trkpt lat="44.6135767" lon="7.9501583"><ele>240.0</ele><time>2026-04-12T13:56:00.455Z</time></trkpt><trkpt lat="44.6136467" lon="7.9501067"><ele>242.14285714285717</ele><time>2026-04-12T13:56:03.455Z</time></trkpt><trkpt lat="44.6137" lon="7.950035"><ele>244.28571428571428</ele><time>2026-04-12T13:56:06.456Z</time></trkpt><trkpt lat="44.6137267" lon="7.9499283"><ele>246.42857142857144</ele><time>2026-04-12T13:56:09.455Z</time></trkpt><trkpt lat="44.6137117" lon="7.9498183"><ele>248.57142857142858</ele><time>2026-04-12T13:56:12.455Z</time></trkpt><trkpt lat="44.6136817" lon="7.949735"><ele>250.71428571428572</ele><time>2026-04-12T13:56:15.455Z</time></trkpt><trkpt lat="44.6136583" lon="7.9496333"><ele>252.85714285714286</ele><time>2026-04-12T13:56:18.455Z</time></trkpt><trkpt lat="44.613635" lon="7.9495417"><ele>255.0</ele><time>2026-04-12T13:56:21.455Z</time></trkpt><trkpt lat="44.6136083" lon="7.9494133"><ele>255.2</ele><time>2026-04-12T13:56:24.455Z</time></trkpt><trkpt lat="44.613585" lon="7.9492817"><ele>255.4</ele><time>2026-04-12T13:56:26.455Z</time></trkpt><trkpt lat="44.6135633" lon="7.9491017"><ele>255.60000000000002</ele><time>2026-04-12T13:56:28.455Z</time></trkpt><trkpt lat="44.61355" lon="7.9489983"><ele>255.8</ele><time>2026-04-12T13:56:29.455Z</time></trkpt><trkpt lat="44.6135417" lon="7.94889"><ele>256.0</ele><time>2026-04-12T13:56:30.455Z</time></trkpt><trkpt lat="44.6135333" lon="7.9487617"><ele>255.8</ele><time>2026-04-12T13:56:31.455Z</time></trkpt><trkpt lat="44.6135117" lon="7.9486233"><ele>255.60000000000002</ele><time>2026-04-12T13:56:32.455Z</time></trkpt><trkpt lat="44.613485" lon="7.9484883"><ele>255.4</ele><time>2026-04-12T13:56:33.455Z</time></trkpt><trkpt lat="44.6134533" lon="7.9483417"><ele>255.2</ele><time>2026-04-12T13:56:34.455Z</time></trkpt><trkpt lat="44.6134133" lon="7.9481983"><ele>255.0</ele><time>2026-04-12T13:56:35.455Z</time></trkpt><trkpt lat="44.61337" lon="7.9480617"><ele>255.0</ele><time>2026-04-12T13:56:36.456Z</time></trkpt><trkpt lat="44.61333" lon="7.9479267"><ele>255.0</ele><time>2026-04-12T13:56:37.455Z</time></trkpt><trkpt lat="44.6132983" lon="7.9477967"><ele>255.0</ele><time>2026-04-12T13:56:38.455Z</time></trkpt><trkpt lat="44.6132783" lon="7.9476583"><ele>255.0</ele><time>2026-04-12T13:56:39.455Z</time></trkpt><trkpt lat="44.6132517" lon="7.94754"><ele>255.0</ele><time>2026-04-12T13:56:40.455Z</time></trkpt><trkpt lat="44.6132483" lon="7.9473967"><ele>253.6</ele><time>2026-04-12T13:56:41.455Z</time></trkpt><trkpt lat="44.6132583" lon="7.9472583"><ele>252.2</ele><time>2026-04-12T13:56:42.455Z</time></trkpt><trkpt lat="44.6132717" lon="7.9471133"><ele>250.8</ele><time>2026-04-12T13:56:43.455Z</time></trkpt><trkpt lat="44.6132967" lon="7.946965"><ele>249.4</ele><time>2026-04-12T13:56:44.455Z</time></trkpt><trkpt lat="44.6133217" lon="7.9468317"><ele>248.0</ele><time>2026-04-12T13:56:45.455Z</time></trkpt><trkpt lat="44.6133467" lon="7.9467017"><ele>247.83333333333334</ele><time>2026-04-12T13:56:46.455Z</time></trkpt><trkpt lat="44.613365" lon="7.946595"><ele>247.66666666666669</ele><time>2026-04-12T13:56:47.455Z</time></trkpt><trkpt lat="44.6133733" lon="7.9465017"><ele>247.5</ele><time>2026-04-12T13:56:48.455Z</time></trkpt><trkpt lat="44.6133533" lon="7.9463517"><ele>247.33333333333331</ele><time>2026-04-12T13:56:50.455Z</time></trkpt><trkpt lat="44.6133033" lon="7.9462317"><ele>247.16666666666666</ele><time>2026-04-12T13:56:52.455Z</time></trkpt><trkpt lat="44.61325" lon="7.9461317"><ele>247.0</ele><time>2026-04-12T13:56:54.455Z</time></trkpt><trkpt lat="44.6131967" lon="7.946045"><ele>247.0</ele><time>2026-04-12T13:56:56.455Z</time></trkpt><trkpt lat="44.6131383" lon="7.9459833"><ele>247.0</ele><time>2026-04-12T13:56:58.455Z</time></trkpt><trkpt lat="44.6130817" lon="7.9459283"><ele>247.0</ele><time>2026-04-12T13:57:00.455Z</time></trkpt><trkpt lat="44.6130167" lon="7.945885"><ele>247.0</ele><time>2026-04-12T13:57:02.456Z</time></trkpt><trkpt lat="44.612955" lon="7.94584"><ele>247.0</ele><time>2026-04-12T13:57:04.455Z</time></trkpt><trkpt lat="44.612895" lon="7.9458017"><ele>247.0</ele><time>2026-04-12T13:57:06.456Z</time></trkpt><trkpt lat="44.6128333" lon="7.94578"><ele>247.0</ele><time>2026-04-12T13:57:08.455Z</time></trkpt><trkpt lat="44.6127481" lon="7.9457364"><ele>247.71428571428572</ele><time>2026-04-12T13:57:10.524Z</time></trkpt><trkpt lat="44.612677" lon="7.9457256"><ele>248.42857142857142</ele><time>2026-04-12T13:57:12.525Z</time></trkpt><trkpt lat="44.6126017" lon="7.9456884"><ele>249.14285714285714</ele><time>2026-04-12T13:57:15.456Z</time></trkpt><trkpt lat="44.612534" lon="7.9456304"><ele>249.85714285714286</ele><time>2026-04-12T13:57:18.477Z</time></trkpt><trkpt lat="44.6124758" lon="7.9455965"><ele>250.57142857142856</ele><time>2026-04-12T13:57:20.466Z</time></trkpt><trkpt lat="44.6124033" lon="7.9455683"><ele>251.28571428571428</ele><time>2026-04-12T13:57:22.455Z</time></trkpt><trkpt lat="44.6123317" lon="7.945525"><ele>252.0</ele><time>2026-04-12T13:57:25.455Z</time></trkpt><trkpt lat="44.6122467" lon="7.9454817"><ele>252.0</ele><time>2026-04-12T13:57:28.455Z</time></trkpt><trkpt lat="44.61218" lon="7.94543"><ele>252.0</ele><time>2026-04-12T13:57:31.455Z</time></trkpt><trkpt lat="44.6120983" lon="7.9453617"><ele>252.0</ele><time>2026-04-12T13:57:34.455Z</time></trkpt><trkpt lat="44.612035" lon="7.94535"><ele>252.0</ele><time>2026-04-12T13:57:36.455Z</time></trkpt><trkpt lat="44.6119567" lon="7.94529"><ele>252.0</ele><time>2026-04-12T13:57:39.455Z</time></trkpt><trkpt lat="44.611895" lon="7.9452467"><ele>252.0</ele><time>2026-04-12T13:57:43.456Z</time></trkpt><trkpt lat="44.6118317" lon="7.9452117"><ele>252.71428571428572</ele><time>2026-04-12T13:57:48.455Z</time></trkpt><trkpt lat="44.61176" lon="7.94518"><ele>253.42857142857144</ele><time>2026-04-12T13:57:52.455Z</time></trkpt><trkpt lat="44.6117067" lon="7.94513"><ele>254.14285714285714</ele><time>2026-04-12T13:57:56.455Z</time></trkpt><trkpt lat="44.6116367" lon="7.945075"><ele>254.85714285714286</ele><time>2026-04-12T13:58:02.455Z</time></trkpt><trkpt lat="44.6115717" lon="7.945035"><ele>255.57142857142858</ele><time>2026-04-12T13:58:05.455Z</time></trkpt><trkpt lat="44.61151" lon="7.9450017"><ele>256.2857142857143</ele><time>2026-04-12T13:58:09.455Z</time></trkpt><trkpt lat="44.6114367" lon="7.9449667"><ele>257.0</ele><time>2026-04-12T13:58:14.455Z</time></trkpt><trkpt lat="44.611375" lon="7.944925"><ele>258.42857142857144</ele><time>2026-04-12T13:58:19.455Z</time></trkpt><trkpt lat="44.611325" lon="7.94487"><ele>259.8571428571429</ele><time>2026-04-12T13:58:22.455Z</time></trkpt><trkpt lat="44.611255" lon="7.9448067"><ele>261.28571428571433</ele><time>2026-04-12T13:58:26.455Z</time></trkpt><trkpt lat="44.6111883" lon="7.94479"><ele>262.7142857142857</ele><time>2026-04-12T13:58:29.455Z</time></trkpt><trkpt lat="44.6111183" lon="7.944735"><ele>264.14285714285717</ele><time>2026-04-12T13:58:33.455Z</time></trkpt><trkpt lat="44.6110517" lon="7.9446767"><ele>265.5714285714286</ele><time>2026-04-12T13:58:38.455Z</time></trkpt><trkpt lat="44.6109983" lon="7.94461"><ele>267.0</ele><time>2026-04-12T13:58:41.455Z</time></trkpt><trkpt lat="44.61095" lon="7.9445433"><ele>267.8333333333333</ele><time>2026-04-12T13:58:45.455Z</time></trkpt><trkpt lat="44.6109117" lon="7.9444583"><ele>268.6666666666667</ele><time>2026-04-12T13:58:49.455Z</time></trkpt><trkpt lat="44.6108583" lon="7.944375"><ele>269.5</ele><time>2026-04-12T13:58:53.455Z</time></trkpt><trkpt lat="44.610815" lon="7.944295"><ele>270.33333333333337</ele><time>2026-04-12T13:58:57.455Z</time></trkpt><trkpt lat="44.6107583" lon="7.9442283"><ele>271.1666666666667</ele><time>2026-04-12T13:59:01.455Z</time></trkpt><trkpt lat="44.6106817" lon="7.9441317"><ele>272.0</ele><time>2026-04-12T13:59:10.455Z</time></trkpt><trkpt lat="44.6106983" lon="7.9440383"><ele>271.99999999999994</ele><time>2026-04-12T13:59:15.455Z</time></trkpt><trkpt lat="44.6107633" lon="7.9440267"><ele>272.0</ele><time>2026-04-12T13:59:20.455Z</time></trkpt><trkpt lat="44.6108183" lon="7.9440833"><ele>272.0</ele><time>2026-04-12T13:59:27.455Z</time></trkpt><trkpt lat="44.6108183" lon="7.9441783"><ele>272.0</ele><time>2026-04-12T13:59:31.455Z</time></trkpt><trkpt lat="44.6108517" lon="7.9442883"><ele>272.0</ele><time>2026-04-12T13:59:35.455Z</time></trkpt><trkpt lat="44.610915" lon="7.9443067"><ele>271.99999999999994</ele><time>2026-04-12T13:59:37.455Z</time></trkpt><trkpt lat="44.610985" lon="7.9443333"><ele>272.0</ele><time>2026-04-12T13:59:39.455Z</time></trkpt><trkpt lat="44.61106" lon="7.94435"><ele>272.0</ele><time>2026-04-12T13:59:42.456Z</time></trkpt><trkpt lat="44.6111217" lon="7.9443167"><ele>272.0</ele><time>2026-04-12T13:59:46.455Z</time></trkpt><trkpt lat="44.61119" lon="7.9442817"><ele>272.0</ele><time>2026-04-12T13:59:50.455Z</time></trkpt><trkpt lat="44.6112917" lon="7.94433"><ele>272.0</ele><time>2026-04-12T13:59:57.455Z</time></trkpt><trkpt lat="44.6113483" lon="7.9443933"><ele>272.0</ele><time>2026-04-12T14:00:02.455Z</time></trkpt><trkpt lat="44.6112983" lon="7.9443183"><ele>272.0</ele><time>2026-04-12T14:00:14.455Z</time></trkpt><trkpt lat="44.611335" lon="7.9441783"><ele>271.2857142857143</ele><time>2026-04-12T14:00:23.455Z</time></trkpt><trkpt lat="44.6114017" lon="7.944145"><ele>270.57142857142856</ele><time>2026-04-12T14:00:28.455Z</time></trkpt><trkpt lat="44.611465" lon="7.9441033"><ele>269.8571428571429</ele><time>2026-04-12T14:00:33.455Z</time></trkpt><trkpt lat="44.6114" lon="7.9441117"><ele>269.1428571428571</ele><time>2026-04-12T14:00:47.455Z</time></trkpt><trkpt lat="44.6113417" lon="7.94418"><ele>268.42857142857144</ele><time>2026-04-12T14:00:50.455Z</time></trkpt><trkpt lat="44.611295" lon="7.944245"><ele>267.7142857142857</ele><time>2026-04-12T14:00:54.455Z</time></trkpt><trkpt lat="44.6113317" lon="7.944335"><ele>267.0</ele><time>2026-04-12T14:00:58.455Z</time></trkpt><trkpt lat="44.611395" lon="7.9443533"><ele>267.0</ele><time>2026-04-12T14:01:01.455Z</time></trkpt><trkpt lat="44.6113183" lon="7.944335"><ele>267.0</ele><time>2026-04-12T14:02:17.455Z</time></trkpt><trkpt lat="44.6112417" lon="7.9443083"><ele>267.0</ele><time>2026-04-12T14:02:20.455Z</time></trkpt><trkpt lat="44.6111533" lon="7.9443167"><ele>267.0</ele><time>2026-04-12T14:02:23.455Z</time></trkpt><trkpt lat="44.6110717" lon="7.9443217"><ele>267.0</ele><time>2026-04-12T14:02:25.455Z</time></trkpt><trkpt lat="44.610995" lon="7.9443433"><ele>267.0</ele><time>2026-04-12T14:02:28.455Z</time></trkpt><trkpt lat="44.6109267" lon="7.9443367"><ele>267.7142857142857</ele><time>2026-04-12T14:02:33.455Z</time></trkpt><trkpt lat="44.61086" lon="7.9442833"><ele>268.42857142857144</ele><time>2026-04-12T14:02:38.455Z</time></trkpt><trkpt lat="44.6108583" lon="7.944175"><ele>269.1428571428571</ele><time>2026-04-12T14:02:40.455Z</time></trkpt><trkpt lat="44.6108533" lon="7.94408"><ele>269.8571428571429</ele><time>2026-04-12T14:02:43.455Z</time></trkpt><trkpt lat="44.6108333" lon="7.943995"><ele>270.57142857142856</ele><time>2026-04-12T14:02:46.455Z</time></trkpt><trkpt lat="44.6108383" lon="7.943885"><ele>271.2857142857143</ele><time>2026-04-12T14:02:50.455Z</time></trkpt><trkpt lat="44.61088" lon="7.9437983"><ele>272.0</ele><time>2026-04-12T14:02:54.455Z</time></trkpt><trkpt lat="44.610895" lon="7.943675"><ele>276.0</ele><time>2026-04-12T14:02:59.455Z</time></trkpt><trkpt lat="44.6108733" lon="7.94358"><ele>280.0</ele><time>2026-04-12T14:03:02.455Z</time></trkpt><trkpt lat="44.6108333" lon="7.943505"><ele>284.0</ele><time>2026-04-12T14:03:06.455Z</time></trkpt><trkpt lat="44.61079" lon="7.9433967"><ele>288.0</ele><time>2026-04-12T14:03:09.455Z</time></trkpt><trkpt lat="44.6107583" lon="7.9433033"><ele>292.0</ele><time>2026-04-12T14:03:11.455Z</time></trkpt><trkpt lat="44.6107233" lon="7.94321"><ele>296.0</ele><time>2026-04-12T14:03:13.455Z</time></trkpt><trkpt lat="44.6106917" lon="7.9431133"><ele>296.83333333333337</ele><time>2026-04-12T14:03:15.455Z</time></trkpt><trkpt lat="44.6106617" lon="7.9430233"><ele>297.6666666666667</ele><time>2026-04-12T14:03:17.455Z</time></trkpt><trkpt lat="44.6106583" lon="7.9429217"><ele>298.5</ele><time>2026-04-12T14:03:21.455Z</time></trkpt><trkpt lat="44.6105617" lon="7.9429"><ele>299.3333333333333</ele><time>2026-04-12T14:03:25.455Z</time></trkpt><trkpt lat="44.6105067" lon="7.9428433"><ele>300.16666666666663</ele><time>2026-04-12T14:03:29.455Z</time></trkpt><trkpt lat="44.6104783" lon="7.9427333"><ele>301.0</ele><time>2026-04-12T14:03:32.455Z</time></trkpt><trkpt lat="44.610425" lon="7.94266"><ele>301.0</ele><time>2026-04-12T14:03:36.455Z</time></trkpt><trkpt lat="44.6103733" lon="7.9425633"><ele>301.0</ele><time>2026-04-12T14:03:40.455Z</time></trkpt><trkpt lat="44.6103367" lon="7.9424717"><ele>301.0</ele><time>2026-04-12T14:03:42.455Z</time></trkpt><trkpt lat="44.61029" lon="7.94234"><ele>301.0</ele><time>2026-04-12T14:03:44.455Z</time></trkpt><trkpt lat="44.6102617" lon="7.9422383"><ele>301.0</ele><time>2026-04-12T14:03:46.455Z</time></trkpt><trkpt lat="44.6102383" lon="7.9421217"><ele>301.0</ele><time>2026-04-12T14:03:49.455Z</time></trkpt><trkpt lat="44.610225" lon="7.9420267"><ele>301.0</ele><time>2026-04-12T14:03:51.455Z</time></trkpt><trkpt lat="44.6102117" lon="7.9419267"><ele>301.0</ele><time>2026-04-12T14:03:53.455Z</time></trkpt><trkpt lat="44.6102" lon="7.9418267"><ele>301.0</ele><time>2026-04-12T14:03:55.455Z</time></trkpt><trkpt lat="44.610205" lon="7.9417283"><ele>301.0</ele><time>2026-04-12T14:03:57.455Z</time></trkpt><trkpt lat="44.6101967" lon="7.9416283"><ele>301.0</ele><time>2026-04-12T14:03:59.455Z</time></trkpt><trkpt lat="44.6102" lon="7.9415283"><ele>301.0</ele><time>2026-04-12T14:04:01.455Z</time></trkpt><trkpt lat="44.6102117" lon="7.941435"><ele>301.0</ele><time>2026-04-12T14:04:03.455Z</time></trkpt><trkpt lat="44.6102183" lon="7.9413133"><ele>301.3333333333333</ele><time>2026-04-12T14:04:06.455Z</time></trkpt><trkpt lat="44.610225" lon="7.9412083"><ele>301.66666666666663</ele><time>2026-04-12T14:04:09.455Z</time></trkpt><trkpt lat="44.6102283" lon="7.9411067"><ele>302.0</ele><time>2026-04-12T14:04:12.455Z</time></trkpt><trkpt lat="44.6102283" lon="7.9409917"><ele>302.3333333333333</ele><time>2026-04-12T14:04:14.455Z</time></trkpt><trkpt lat="44.6102317" lon="7.9408617"><ele>302.6666666666667</ele><time>2026-04-12T14:04:16.455Z</time></trkpt><trkpt lat="44.6102217" lon="7.9407317"><ele>303.0</ele><time>2026-04-12T14:04:18.455Z</time></trkpt><trkpt lat="44.6101983" lon="7.9406417"><ele>303.42857142857144</ele><time>2026-04-12T14:04:20.455Z</time></trkpt><trkpt lat="44.610195" lon="7.9405433"><ele>303.85714285714283</ele><time>2026-04-12T14:04:23.455Z</time></trkpt><trkpt lat="44.6101767" lon="7.9404567"><ele>304.2857142857143</ele><time>2026-04-12T14:04:30.455Z</time></trkpt><trkpt lat="44.610125" lon="7.940375"><ele>304.7142857142857</ele><time>2026-04-12T14:04:34.455Z</time></trkpt><trkpt lat="44.6101017" lon="7.9402667"><ele>305.14285714285717</ele><time>2026-04-12T14:04:37.455Z</time></trkpt><trkpt lat="44.610085" lon="7.94016"><ele>305.57142857142856</ele><time>2026-04-12T14:04:41.455Z</time></trkpt><trkpt lat="44.610085" lon="7.94007"><ele>306.0</ele><time>2026-04-12T14:04:44.455Z</time></trkpt><trkpt lat="44.610075" lon="7.9399617"><ele>307.6</ele><time>2026-04-12T14:04:48.455Z</time></trkpt><trkpt lat="44.610075" lon="7.9397667"><ele>309.20000000000005</ele><time>2026-04-12T14:04:57.455Z</time></trkpt><trkpt lat="44.6100633" lon="7.9396583"><ele>310.79999999999995</ele><time>2026-04-12T14:05:00.456Z</time></trkpt><trkpt lat="44.610025" lon="7.9395833"><ele>312.4</ele><time>2026-04-12T14:05:03.455Z</time></trkpt><trkpt lat="44.6099667" lon="7.9394917"><ele>314.0</ele><time>2026-04-12T14:05:06.455Z</time></trkpt><trkpt lat="44.6099017" lon="7.93942"><ele>313.99999999999994</ele><time>2026-04-12T14:05:09.455Z</time></trkpt><trkpt lat="44.6098283" lon="7.9393517"><ele>314.0</ele><time>2026-04-12T14:05:13.455Z</time></trkpt><trkpt lat="44.6097517" lon="7.9393417"><ele>314.0</ele><time>2026-04-12T14:05:16.455Z</time></trkpt><trkpt lat="44.60969" lon="7.9393167"><ele>314.0</ele><time>2026-04-12T14:05:19.455Z</time></trkpt><trkpt lat="44.609625" lon="7.93929"><ele>314.0</ele><time>2026-04-12T14:05:22.455Z</time></trkpt><trkpt lat="44.6095583" lon="7.9392533"><ele>313.99999999999994</ele><time>2026-04-12T14:05:25.455Z</time></trkpt><trkpt lat="44.609495" lon="7.9392217"><ele>314.0</ele><time>2026-04-12T14:05:28.455Z</time></trkpt><trkpt lat="44.6094367" lon="7.939185"><ele>315.57142857142856</ele><time>2026-04-12T14:05:31.455Z</time></trkpt><trkpt lat="44.6093717" lon="7.939135"><ele>317.1428571428571</ele><time>2026-04-12T14:05:35.455Z</time></trkpt><trkpt lat="44.6092967" lon="7.9391017"><ele>318.71428571428567</ele><time>2026-04-12T14:05:39.455Z</time></trkpt><trkpt lat="44.6092283" lon="7.9390667"><ele>320.2857142857143</ele><time>2026-04-12T14:05:42.455Z</time></trkpt><trkpt lat="44.6091583" lon="7.9390233"><ele>321.8571428571429</ele><time>2026-04-12T14:05:46.455Z</time></trkpt><trkpt lat="44.6091167" lon="7.9389383"><ele>323.4285714285714</ele><time>2026-04-12T14:05:51.455Z</time></trkpt><trkpt lat="44.609075" lon="7.9388583"><ele>325.0</ele><time>2026-04-12T14:05:55.455Z</time></trkpt><trkpt lat="44.609015" lon="7.93881"><ele>325.0</ele><time>2026-04-12T14:05:59.455Z</time></trkpt><trkpt lat="44.6089383" lon="7.9387533"><ele>325.0</ele><time>2026-04-12T14:06:03.456Z</time></trkpt><trkpt lat="44.6088617" lon="7.9387317"><ele>325.0</ele><time>2026-04-12T14:06:07.455Z</time></trkpt><trkpt lat="44.60879" lon="7.9387033"><ele>325.0</ele><time>2026-04-12T14:06:11.455Z</time></trkpt><trkpt lat="44.6087217" lon="7.9386567"><ele>325.0</ele><time>2026-04-12T14:06:15.455Z</time></trkpt><trkpt lat="44.6086517" lon="7.9386233"><ele>325.0</ele><time>2026-04-12T14:06:19.455Z</time></trkpt><trkpt lat="44.6085783" lon="7.9385883"><ele>326.3333333333333</ele><time>2026-04-12T14:06:23.455Z</time></trkpt><trkpt lat="44.60849" lon="7.9385767"><ele>327.66666666666663</ele><time>2026-04-12T14:06:26.455Z</time></trkpt><trkpt lat="44.6084117" lon="7.938555"><ele>329.0</ele><time>2026-04-12T14:06:29.455Z</time></trkpt><trkpt lat="44.6083417" lon="7.9385383"><ele>330.3333333333333</ele><time>2026-04-12T14:06:32.455Z</time></trkpt><trkpt lat="44.60827" lon="7.9385367"><ele>331.6666666666667</ele><time>2026-04-12T14:06:35.455Z</time></trkpt><trkpt lat="44.6081967" lon="7.9385267"><ele>333.0</ele><time>2026-04-12T14:06:38.456Z</time></trkpt><trkpt lat="44.60812" lon="7.9384883"><ele>333.0</ele><time>2026-04-12T14:06:41.455Z</time></trkpt><trkpt lat="44.608035" lon="7.9384383"><ele>333.0</ele><time>2026-04-12T14:06:44.455Z</time></trkpt><trkpt lat="44.6079767" lon="7.9384017"><ele>333.0</ele><time>2026-04-12T14:06:46.455Z</time></trkpt><trkpt lat="44.6078983" lon="7.9383717"><ele>333.0</ele><time>2026-04-12T14:06:49.455Z</time></trkpt><trkpt lat="44.6078267" lon="7.93834"><ele>333.0</ele><time>2026-04-12T14:06:52.455Z</time></trkpt><trkpt lat="44.60775" lon="7.9383067"><ele>333.0</ele><time>2026-04-12T14:06:55.455Z</time></trkpt><trkpt lat="44.6076733" lon="7.9382583"><ele>334.8333333333333</ele><time>2026-04-12T14:06:58.455Z</time></trkpt><trkpt lat="44.607595" lon="7.938215"><ele>336.6666666666667</ele><time>2026-04-12T14:07:01.455Z</time></trkpt><trkpt lat="44.6075217" lon="7.93818"><ele>338.5</ele><time>2026-04-12T14:07:04.455Z</time></trkpt><trkpt lat="44.607445" lon="7.9381283"><ele>340.33333333333337</ele><time>2026-04-12T14:07:07.455Z</time></trkpt><trkpt lat="44.6073717" lon="7.9380733"><ele>342.1666666666667</ele><time>2026-04-12T14:07:10.455Z</time></trkpt><trkpt lat="44.6073" lon="7.9380067"><ele>344.0</ele><time>2026-04-12T14:07:13.455Z</time></trkpt><trkpt lat="44.6072433" lon="7.9379533"><ele>344.0</ele><time>2026-04-12T14:07:16.455Z</time></trkpt><trkpt lat="44.6071633" lon="7.9378983"><ele>344.0</ele><time>2026-04-12T14:07:19.455Z</time></trkpt><trkpt lat="44.60709" lon="7.9378533"><ele>344.0</ele><time>2026-04-12T14:07:22.455Z</time></trkpt><trkpt lat="44.6070283" lon="7.9378317"><ele>344.0</ele><time>2026-04-12T14:07:25.455Z</time></trkpt><trkpt lat="44.60693" lon="7.937875"><ele>344.0</ele><time>2026-04-12T14:07:28.455Z</time></trkpt><trkpt lat="44.6068167" lon="7.937975"><ele>343.83333333333337</ele><time>2026-04-12T14:07:30.455Z</time></trkpt><trkpt lat="44.6067467" lon="7.93803"><ele>343.6666666666667</ele><time>2026-04-12T14:07:31.455Z</time></trkpt><trkpt lat="44.6066683" lon="7.93806"><ele>343.5</ele><time>2026-04-12T14:07:32.455Z</time></trkpt><trkpt lat="44.6065917" lon="7.9380633"><ele>343.3333333333333</ele><time>2026-04-12T14:07:33.455Z</time></trkpt><trkpt lat="44.6065183" lon="7.93805"><ele>343.16666666666663</ele><time>2026-04-12T14:07:34.455Z</time></trkpt><trkpt lat="44.6064467" lon="7.93803"><ele>343.0</ele><time>2026-04-12T14:07:35.455Z</time></trkpt><trkpt lat="44.6063783" lon="7.93802"><ele>343.0</ele><time>2026-04-12T14:07:36.455Z</time></trkpt><trkpt lat="44.6063117" lon="7.938015"><ele>343.0</ele><time>2026-04-12T14:07:37.455Z</time></trkpt><trkpt lat="44.6061967" lon="7.9380117"><ele>343.0</ele><time>2026-04-12T14:07:39.455Z</time></trkpt><trkpt lat="44.6061" lon="7.9380033"><ele>343.0</ele><time>2026-04-12T14:07:41.455Z</time></trkpt><trkpt lat="44.6060067" lon="7.93798"><ele>343.0</ele><time>2026-04-12T14:07:43.455Z</time></trkpt><trkpt lat="44.60594" lon="7.9379583"><ele>343.0</ele><time>2026-04-12T14:07:45.455Z</time></trkpt><trkpt lat="44.6058517" lon="7.9379383"><ele>343.16666666666663</ele><time>2026-04-12T14:07:48.455Z</time></trkpt><trkpt lat="44.6057583" lon="7.9379283"><ele>343.3333333333333</ele><time>2026-04-12T14:07:51.455Z</time></trkpt><trkpt lat="44.60569" lon="7.937905"><ele>343.5</ele><time>2026-04-12T14:07:53.455Z</time></trkpt><trkpt lat="44.605615" lon="7.9378983"><ele>343.6666666666667</ele><time>2026-04-12T14:07:55.455Z</time></trkpt><trkpt lat="44.605545" lon="7.937895"><ele>343.83333333333337</ele><time>2026-04-12T14:07:57.455Z</time></trkpt><trkpt lat="44.60547" lon="7.9378933"><ele>344.0</ele><time>2026-04-12T14:07:59.455Z</time></trkpt><trkpt lat="44.6053883" lon="7.9378967"><ele>346.0</ele><time>2026-04-12T14:08:01.455Z</time></trkpt><trkpt lat="44.6052933" lon="7.9378983"><ele>348.0</ele><time>2026-04-12T14:08:03.455Z</time></trkpt><trkpt lat="44.605185" lon="7.9378983"><ele>350.0</ele><time>2026-04-12T14:08:05.455Z</time></trkpt><trkpt lat="44.6050667" lon="7.9379333"><ele>352.0</ele><time>2026-04-12T14:08:07.455Z</time></trkpt><trkpt lat="44.6049667" lon="7.9379917"><ele>354.0</ele><time>2026-04-12T14:08:09.455Z</time></trkpt><trkpt lat="44.60489" lon="7.9380517"><ele>354.0</ele><time>2026-04-12T14:08:11.455Z</time></trkpt><trkpt lat="44.6048217" lon="7.938125"><ele>354.0</ele><time>2026-04-12T14:08:13.455Z</time></trkpt><trkpt lat="44.60476" lon="7.9381917"><ele>354.0</ele><time>2026-04-12T14:08:15.455Z</time></trkpt><trkpt lat="44.6047" lon="7.9382633"><ele>354.0</ele><time>2026-04-12T14:08:17.455Z</time></trkpt><trkpt lat="44.6046417" lon="7.9383083"><ele>354.0</ele><time>2026-04-12T14:08:19.456Z</time></trkpt><trkpt lat="44.604555" lon="7.9383433"><ele>354.0</ele><time>2026-04-12T14:08:22.455Z</time></trkpt><trkpt lat="44.60447" lon="7.938375"><ele>353.5</ele><time>2026-04-12T14:08:25.455Z</time></trkpt><trkpt lat="44.6043917" lon="7.9383867"><ele>353.0</ele><time>2026-04-12T14:08:28.455Z</time></trkpt><trkpt lat="44.6043167" lon="7.938385"><ele>352.5</ele><time>2026-04-12T14:08:31.455Z</time></trkpt><trkpt lat="44.6042383" lon="7.9383867"><ele>352.0</ele><time>2026-04-12T14:08:34.455Z</time></trkpt><trkpt lat="44.6041617" lon="7.9383933"><ele>351.5</ele><time>2026-04-12T14:08:37.455Z</time></trkpt><trkpt lat="44.6040883" lon="7.9383983"><ele>351.0</ele><time>2026-04-12T14:08:40.455Z</time></trkpt><trkpt lat="44.6040017" lon="7.93841"><ele>351.0</ele><time>2026-04-12T14:08:43.455Z</time></trkpt><trkpt lat="44.6039183" lon="7.9384317"><ele>351.0</ele><time>2026-04-12T14:08:46.455Z</time></trkpt><trkpt lat="44.6038517" lon="7.938445"><ele>351.0</ele><time>2026-04-12T14:08:48.455Z</time></trkpt><trkpt lat="44.6037883" lon="7.9384617"><ele>351.0</ele><time>2026-04-12T14:08:50.455Z</time></trkpt><trkpt lat="44.6037" lon="7.9384783"><ele>351.0</ele><time>2026-04-12T14:08:53.455Z</time></trkpt><trkpt lat="44.6036083" lon="7.9384933"><ele>351.0</ele><time>2026-04-12T14:08:56.455Z</time></trkpt><trkpt lat="44.6035417" lon="7.9385"><ele>352.8333333333333</ele><time>2026-04-12T14:08:58.455Z</time></trkpt><trkpt lat="44.6034583" lon="7.9385167"><ele>354.6666666666667</ele><time>2026-04-12T14:09:01.455Z</time></trkpt><trkpt lat="44.60337" lon="7.9385317"><ele>356.5</ele><time>2026-04-12T14:09:04.455Z</time></trkpt><trkpt lat="44.6032867" lon="7.9385483"><ele>358.33333333333337</ele><time>2026-04-12T14:09:07.455Z</time></trkpt><trkpt lat="44.60321" lon="7.9385667"><ele>360.1666666666667</ele><time>2026-04-12T14:09:10.455Z</time></trkpt><trkpt lat="44.60313" lon="7.938595"><ele>362.0</ele><time>2026-04-12T14:09:13.455Z</time></trkpt><trkpt lat="44.6030414" lon="7.9386197"><ele>362.0</ele><time>2026-04-12T14:09:16.537Z</time></trkpt><trkpt lat="44.6029593" lon="7.9386329"><ele>362.0</ele><time>2026-04-12T14:09:19.466Z</time></trkpt><trkpt lat="44.6028749" lon="7.9385962"><ele>362.0</ele><time>2026-04-12T14:09:22.501Z</time></trkpt><trkpt lat="44.6027826" lon="7.9385889"><ele>362.0</ele><time>2026-04-12T14:09:25.536Z</time></trkpt><trkpt lat="44.6027183" lon="7.9385967"><ele>362.0</ele><time>2026-04-12T14:09:27.455Z</time></trkpt><trkpt lat="44.6026433" lon="7.938595"><ele>362.0</ele><time>2026-04-12T14:09:29.455Z</time></trkpt><trkpt lat="44.60256" lon="7.9385617"><ele>363.1666666666667</ele><time>2026-04-12T14:09:32.455Z</time></trkpt><trkpt lat="44.60249" lon="7.9385417"><ele>364.33333333333337</ele><time>2026-04-12T14:09:34.455Z</time></trkpt><trkpt lat="44.60242" lon="7.9385133"><ele>365.5</ele><time>2026-04-12T14:09:36.455Z</time></trkpt><trkpt lat="44.6023417" lon="7.9384883"><ele>366.6666666666667</ele><time>2026-04-12T14:09:38.455Z</time></trkpt><trkpt lat="44.6022517" lon="7.9384433"><ele>367.8333333333333</ele><time>2026-04-12T14:09:40.455Z</time></trkpt><trkpt lat="44.6021383" lon="7.9383933"><ele>369.0</ele><time>2026-04-12T14:09:42.455Z</time></trkpt><trkpt lat="44.6020167" lon="7.9383433"><ele>370.0</ele><time>2026-04-12T14:09:44.455Z</time></trkpt><trkpt lat="44.6019517" lon="7.938315"><ele>371.0</ele><time>2026-04-12T14:09:45.455Z</time></trkpt><trkpt lat="44.6018867" lon="7.9382817"><ele>372.0</ele><time>2026-04-12T14:09:46.455Z</time></trkpt><trkpt lat="44.601825" lon="7.9382517"><ele>373.0</ele><time>2026-04-12T14:09:47.455Z</time></trkpt><trkpt lat="44.6017133" lon="7.9381967"><ele>374.0</ele><time>2026-04-12T14:09:49.455Z</time></trkpt><trkpt lat="44.6016183" lon="7.938145"><ele>375.0</ele><time>2026-04-12T14:09:51.455Z</time></trkpt><trkpt lat="44.6015233" lon="7.93809"><ele>375.0</ele><time>2026-04-12T14:09:53.455Z</time></trkpt><trkpt lat="44.6014283" lon="7.9380417"><ele>375.0</ele><time>2026-04-12T14:09:55.455Z</time></trkpt><trkpt lat="44.60134" lon="7.938005"><ele>375.0</ele><time>2026-04-12T14:09:57.455Z</time></trkpt><trkpt lat="44.6012283" lon="7.9379483"><ele>375.0</ele><time>2026-04-12T14:09:59.455Z</time></trkpt><trkpt lat="44.6011583" lon="7.9379233"><ele>375.0</ele><time>2026-04-12T14:10:00.455Z</time></trkpt><trkpt lat="44.6010833" lon="7.9379033"><ele>373.5</ele><time>2026-04-12T14:10:01.455Z</time></trkpt><trkpt lat="44.601005" lon="7.93788"><ele>372.0</ele><time>2026-04-12T14:10:02.455Z</time></trkpt><trkpt lat="44.6009167" lon="7.9378667"><ele>370.5</ele><time>2026-04-12T14:10:03.455Z</time></trkpt><trkpt lat="44.6008267" lon="7.9378533"><ele>369.0</ele><time>2026-04-12T14:10:04.455Z</time></trkpt><trkpt lat="44.6007317" lon="7.9378317"><ele>367.5</ele><time>2026-04-12T14:10:05.455Z</time></trkpt><trkpt lat="44.6006417" lon="7.9377983"><ele>366.0</ele><time>2026-04-12T14:10:06.455Z</time></trkpt><trkpt lat="44.60056" lon="7.9377633"><ele>366.0</ele><time>2026-04-12T14:10:07.455Z</time></trkpt><trkpt lat="44.6004833" lon="7.937725"><ele>366.0</ele><time>2026-04-12T14:10:08.456Z</time></trkpt><trkpt lat="44.6004183" lon="7.9376867"><ele>366.0</ele><time>2026-04-12T14:10:09.456Z</time></trkpt><trkpt lat="44.6003567" lon="7.9376517"><ele>366.0</ele><time>2026-04-12T14:10:10.455Z</time></trkpt><trkpt lat="44.600295" lon="7.9376217"><ele>366.0</ele><time>2026-04-12T14:10:11.455Z</time></trkpt><trkpt lat="44.6001783" lon="7.9375717"><ele>366.0</ele><time>2026-04-12T14:10:13.455Z</time></trkpt><trkpt lat="44.6001183" lon="7.9375417"><ele>368.75</ele><time>2026-04-12T14:10:14.455Z</time></trkpt><trkpt lat="44.600005" lon="7.9374783"><ele>371.5</ele><time>2026-04-12T14:10:16.455Z</time></trkpt><trkpt lat="44.5998883" lon="7.93743"><ele>374.25</ele><time>2026-04-12T14:10:18.455Z</time></trkpt><trkpt lat="44.59977" lon="7.9374033"><ele>377.0</ele><time>2026-04-12T14:10:20.455Z</time></trkpt><trkpt lat="44.599645" lon="7.9374033"><ele>377.0</ele><time>2026-04-12T14:10:22.455Z</time></trkpt><trkpt lat="44.5995317" lon="7.93741"><ele>377.0</ele><time>2026-04-12T14:10:24.455Z</time></trkpt><trkpt lat="44.59942" lon="7.937385"><ele>377.0</ele><time>2026-04-12T14:10:26.455Z</time></trkpt><trkpt lat="44.599325" lon="7.9373683"><ele>377.0</ele><time>2026-04-12T14:10:28.455Z</time></trkpt><trkpt lat="44.5992367" lon="7.93735"><ele>377.0</ele><time>2026-04-12T14:10:30.455Z</time></trkpt><trkpt lat="44.59915" lon="7.937335"><ele>377.6666666666667</ele><time>2026-04-12T14:10:32.455Z</time></trkpt><trkpt lat="44.5990667" lon="7.9373167"><ele>378.33333333333337</ele><time>2026-04-12T14:10:34.455Z</time></trkpt><trkpt lat="44.5989867" lon="7.9373083"><ele>379.0</ele><time>2026-04-12T14:10:36.455Z</time></trkpt><trkpt lat="44.5989017" lon="7.9373017"><ele>379.6666666666667</ele><time>2026-04-12T14:10:38.455Z</time></trkpt><trkpt lat="44.5988133" lon="7.9372933"><ele>380.3333333333333</ele><time>2026-04-12T14:10:40.455Z</time></trkpt><trkpt lat="44.59874" lon="7.9372933"><ele>381.0</ele><time>2026-04-12T14:10:42.455Z</time></trkpt><trkpt lat="44.5986633" lon="7.9373167"><ele>382.2857142857143</ele><time>2026-04-12T14:10:44.455Z</time></trkpt><trkpt lat="44.5985883" lon="7.93733"><ele>383.5714285714286</ele><time>2026-04-12T14:10:46.455Z</time></trkpt><trkpt lat="44.5985067" lon="7.9373433"><ele>384.8571428571429</ele><time>2026-04-12T14:10:48.455Z</time></trkpt><trkpt lat="44.5984283" lon="7.937365"><ele>386.1428571428571</ele><time>2026-04-12T14:10:50.455Z</time></trkpt><trkpt lat="44.5983517" lon="7.9373817"><ele>387.42857142857144</ele><time>2026-04-12T14:10:52.455Z</time></trkpt><trkpt lat="44.5982833" lon="7.9373933"><ele>388.7142857142857</ele><time>2026-04-12T14:10:54.455Z</time></trkpt><trkpt lat="44.5982183" lon="7.9374"><ele>390.0</ele><time>2026-04-12T14:10:56.455Z</time></trkpt><trkpt lat="44.5981383" lon="7.9374183"><ele>390.0</ele><time>2026-04-12T14:10:59.455Z</time></trkpt><trkpt lat="44.598075" lon="7.9374067"><ele>390.0</ele><time>2026-04-12T14:11:03.455Z</time></trkpt><trkpt lat="44.5979833" lon="7.9373717"><ele>390.0</ele><time>2026-04-12T14:11:07.455Z</time></trkpt><trkpt lat="44.597925" lon="7.9372983"><ele>390.0</ele><time>2026-04-12T14:11:09.455Z</time></trkpt><trkpt lat="44.5978767" lon="7.937215"><ele>390.0</ele><time>2026-04-12T14:11:11.455Z</time></trkpt><trkpt lat="44.5978133" lon="7.9371383"><ele>390.0</ele><time>2026-04-12T14:11:14.455Z</time></trkpt><trkpt lat="44.5977633" lon="7.937065"><ele>389.2857142857143</ele><time>2026-04-12T14:11:17.455Z</time></trkpt><trkpt lat="44.5977117" lon="7.9369917"><ele>388.57142857142856</ele><time>2026-04-12T14:11:20.455Z</time></trkpt><trkpt lat="44.5976567" lon="7.936925"><ele>387.8571428571429</ele><time>2026-04-12T14:11:23.455Z</time></trkpt><trkpt lat="44.5976083" lon="7.93686"><ele>387.1428571428571</ele><time>2026-04-12T14:11:26.455Z</time></trkpt><trkpt lat="44.5975483" lon="7.9367717"><ele>386.42857142857144</ele><time>2026-04-12T14:11:30.455Z</time></trkpt><trkpt lat="44.597505" lon="7.9366933"><ele>385.7142857142857</ele><time>2026-04-12T14:11:33.455Z</time></trkpt><trkpt lat="44.5974617" lon="7.9366117"><ele>385.0</ele><time>2026-04-12T14:11:36.455Z</time></trkpt><trkpt lat="44.5974033" lon="7.936545"><ele>387.00000000000006</ele><time>2026-04-12T14:11:39.455Z</time></trkpt><trkpt lat="44.59736" lon="7.936465"><ele>389.0</ele><time>2026-04-12T14:11:42.455Z</time></trkpt><trkpt lat="44.5973" lon="7.9364083"><ele>391.0</ele><time>2026-04-12T14:11:45.455Z</time></trkpt><trkpt lat="44.5972417" lon="7.9363467"><ele>393.0</ele><time>2026-04-12T14:11:48.455Z</time></trkpt><trkpt lat="44.5971783" lon="7.9362783"><ele>395.00000000000006</ele><time>2026-04-12T14:11:51.455Z</time></trkpt><trkpt lat="44.5971083" lon="7.9362117"><ele>397.0</ele><time>2026-04-12T14:11:54.456Z</time></trkpt><trkpt lat="44.5970467" lon="7.9361483"><ele>396.1428571428571</ele><time>2026-04-12T14:11:57.455Z</time></trkpt><trkpt lat="44.596985" lon="7.9360733"><ele>395.2857142857143</ele><time>2026-04-12T14:12:00.455Z</time></trkpt><trkpt lat="44.5969317" lon="7.9360133"><ele>394.42857142857144</ele><time>2026-04-12T14:12:02.455Z</time></trkpt><trkpt lat="44.5968667" lon="7.935965"><ele>393.57142857142856</ele><time>2026-04-12T14:12:04.455Z</time></trkpt><trkpt lat="44.596805" lon="7.9359433"><ele>392.7142857142857</ele><time>2026-04-12T14:12:06.455Z</time></trkpt><trkpt lat="44.596715" lon="7.93594"><ele>391.85714285714283</ele><time>2026-04-12T14:12:09.456Z</time></trkpt><trkpt lat="44.596645" lon="7.9359267"><ele>391.0</ele><time>2026-04-12T14:12:11.455Z</time></trkpt><trkpt lat="44.5965783" lon="7.93593"><ele>391.00000000000006</ele><time>2026-04-12T14:12:13.455Z</time></trkpt><trkpt lat="44.596495" lon="7.935935"><ele>391.0</ele><time>2026-04-12T14:12:16.455Z</time></trkpt><trkpt lat="44.59641" lon="7.9359517"><ele>391.0</ele><time>2026-04-12T14:12:19.455Z</time></trkpt><trkpt lat="44.5963483" lon="7.935975"><ele>391.0</ele><time>2026-04-12T14:12:21.456Z</time></trkpt><trkpt lat="44.5962833" lon="7.9359917"><ele>391.00000000000006</ele><time>2026-04-12T14:12:23.455Z</time></trkpt><trkpt lat="44.596205" lon="7.935995"><ele>391.0</ele><time>2026-04-12T14:12:26.455Z</time></trkpt><trkpt lat="44.5961317" lon="7.936005"><ele>393.33333333333337</ele><time>2026-04-12T14:12:29.455Z</time></trkpt><trkpt lat="44.5960617" lon="7.93602"><ele>395.6666666666667</ele><time>2026-04-12T14:12:32.455Z</time></trkpt><trkpt lat="44.5959833" lon="7.9360267"><ele>398.0</ele><time>2026-04-12T14:12:35.455Z</time></trkpt><trkpt lat="44.595905" lon="7.9360333"><ele>400.33333333333337</ele><time>2026-04-12T14:12:38.455Z</time></trkpt><trkpt lat="44.59583" lon="7.9360633"><ele>402.6666666666667</ele><time>2026-04-12T14:12:41.455Z</time></trkpt><trkpt lat="44.5957533" lon="7.9360683"><ele>405.0</ele><time>2026-04-12T14:12:44.455Z</time></trkpt><trkpt lat="44.5956783" lon="7.9360933"><ele>405.0</ele><time>2026-04-12T14:12:47.455Z</time></trkpt><trkpt lat="44.5955983" lon="7.9361183"><ele>405.0</ele><time>2026-04-12T14:12:50.455Z</time></trkpt><trkpt lat="44.5955233" lon="7.9361467"><ele>405.0</ele><time>2026-04-12T14:12:53.455Z</time></trkpt><trkpt lat="44.59545" lon="7.9361917"><ele>405.0</ele><time>2026-04-12T14:12:56.455Z</time></trkpt><trkpt lat="44.5953767" lon="7.9362167"><ele>405.0</ele><time>2026-04-12T14:12:59.455Z</time></trkpt><trkpt lat="44.595295" lon="7.9362133"><ele>405.0</ele><time>2026-04-12T14:13:02.455Z</time></trkpt><trkpt lat="44.5952183" lon="7.9362033"><ele>406.8333333333333</ele><time>2026-04-12T14:13:05.455Z</time></trkpt><trkpt lat="44.5951433" lon="7.936155"><ele>408.66666666666663</ele><time>2026-04-12T14:13:08.456Z</time></trkpt><trkpt lat="44.595085" lon="7.9361067"><ele>410.5</ele><time>2026-04-12T14:13:11.455Z</time></trkpt><trkpt lat="44.5950183" lon="7.9360667"><ele>412.3333333333333</ele><time>2026-04-12T14:13:15.455Z</time></trkpt><trkpt lat="44.5949533" lon="7.9361017"><ele>414.16666666666663</ele><time>2026-04-12T14:13:39.455Z</time></trkpt><trkpt lat="44.5949183" lon="7.9362067"><ele>416.0</ele><time>2026-04-12T14:13:42.455Z</time></trkpt><trkpt lat="44.59484" lon="7.9362417"><ele>415.99999999999994</ele><time>2026-04-12T14:13:45.455Z</time></trkpt><trkpt lat="44.594765" lon="7.9361933"><ele>416.0</ele><time>2026-04-12T14:13:47.455Z</time></trkpt><trkpt lat="44.5946667" lon="7.93612"><ele>416.0</ele><time>2026-04-12T14:13:49.455Z</time></trkpt><trkpt lat="44.5945717" lon="7.936045"><ele>416.0</ele><time>2026-04-12T14:13:51.455Z</time></trkpt><trkpt lat="44.5945117" lon="7.9359917"><ele>415.99999999999994</ele><time>2026-04-12T14:13:52.455Z</time></trkpt><trkpt lat="44.5944467" lon="7.935945"><ele>416.0</ele><time>2026-04-12T14:13:53.455Z</time></trkpt><trkpt lat="44.5943783" lon="7.93591"><ele>413.99999999999994</ele><time>2026-04-12T14:13:54.455Z</time></trkpt><trkpt lat="44.5943083" lon="7.9358833"><ele>412.0</ele><time>2026-04-12T14:13:55.455Z</time></trkpt><trkpt lat="44.5942333" lon="7.9358633"><ele>410.0</ele><time>2026-04-12T14:13:56.455Z</time></trkpt><trkpt lat="44.594155" lon="7.9358367"><ele>408.0</ele><time>2026-04-12T14:13:57.455Z</time></trkpt><trkpt lat="44.594075" lon="7.9358033"><ele>405.99999999999994</ele><time>2026-04-12T14:13:58.455Z</time></trkpt><trkpt lat="44.5939917" lon="7.9357583"><ele>404.0</ele><time>2026-04-12T14:13:59.455Z</time></trkpt><trkpt lat="44.5939083" lon="7.9357017"><ele>404.0</ele><time>2026-04-12T14:14:00.455Z</time></trkpt><trkpt lat="44.5938217" lon="7.9356367"><ele>404.0</ele><time>2026-04-12T14:14:01.455Z</time></trkpt><trkpt lat="44.5937383" lon="7.9355667"><ele>404.0</ele><time>2026-04-12T14:14:02.455Z</time></trkpt><trkpt lat="44.59365" lon="7.9354917"><ele>404.0</ele><time>2026-04-12T14:14:03.455Z</time></trkpt><trkpt lat="44.5935633" lon="7.935425"><ele>404.0</ele><time>2026-04-12T14:14:04.455Z</time></trkpt><trkpt lat="44.5934867" lon="7.9353767"><ele>401.7142857142857</ele><time>2026-04-12T14:14:05.455Z</time></trkpt><trkpt lat="44.5934117" lon="7.93534"><ele>399.42857142857144</ele><time>2026-04-12T14:14:06.455Z</time></trkpt><trkpt lat="44.5933417" lon="7.9353183"><ele>397.1428571428571</ele><time>2026-04-12T14:14:07.455Z</time></trkpt><trkpt lat="44.5932683" lon="7.935305"><ele>394.8571428571429</ele><time>2026-04-12T14:14:08.455Z</time></trkpt><trkpt lat="44.5931983" lon="7.9352917"><ele>392.5714285714286</ele><time>2026-04-12T14:14:09.455Z</time></trkpt><trkpt lat="44.593125" lon="7.9352883"><ele>390.2857142857143</ele><time>2026-04-12T14:14:10.455Z</time></trkpt><trkpt lat="44.5930567" lon="7.935285"><ele>388.0</ele><time>2026-04-12T14:14:11.455Z</time></trkpt><trkpt lat="44.5929867" lon="7.9352917"><ele>388.00000000000006</ele><time>2026-04-12T14:14:12.455Z</time></trkpt><trkpt lat="44.5929183" lon="7.9353083"><ele>388.0</ele><time>2026-04-12T14:14:13.456Z</time></trkpt><trkpt lat="44.59285" lon="7.9353483"><ele>388.0</ele><time>2026-04-12T14:14:14.455Z</time></trkpt><trkpt lat="44.5927783" lon="7.9354133"><ele>388.0</ele><time>2026-04-12T14:14:15.455Z</time></trkpt><trkpt lat="44.5927133" lon="7.9354933"><ele>388.00000000000006</ele><time>2026-04-12T14:14:16.455Z</time></trkpt><trkpt lat="44.5926467" lon="7.935585"><ele>388.0</ele><time>2026-04-12T14:14:17.455Z</time></trkpt><trkpt lat="44.592595" lon="7.93567"><ele>386.4285714285714</ele><time>2026-04-12T14:14:18.455Z</time></trkpt><trkpt lat="44.5925467" lon="7.9357417"><ele>384.8571428571429</ele><time>2026-04-12T14:14:19.455Z</time></trkpt><trkpt lat="44.592495" lon="7.9358067"><ele>383.2857142857143</ele><time>2026-04-12T14:14:21.455Z</time></trkpt><trkpt lat="44.5925467" lon="7.9357483"><ele>381.71428571428567</ele><time>2026-04-12T14:14:40.455Z</time></trkpt><trkpt lat="44.5926017" lon="7.93568"><ele>380.1428571428571</ele><time>2026-04-12T14:14:44.455Z</time></trkpt><trkpt lat="44.5926533" lon="7.9356083"><ele>378.57142857142856</ele><time>2026-04-12T14:14:48.455Z</time></trkpt><trkpt lat="44.5927083" lon="7.9355367"><ele>377.0</ele><time>2026-04-12T14:14:53.455Z</time></trkpt><trkpt lat="44.592755" lon="7.93545"><ele>376.99999999999994</ele><time>2026-04-12T14:14:57.455Z</time></trkpt><trkpt lat="44.592805" lon="7.9353767"><ele>377.0</ele><time>2026-04-12T14:15:01.455Z</time></trkpt><trkpt lat="44.59287" lon="7.9353333"><ele>377.0</ele><time>2026-04-12T14:15:05.455Z</time></trkpt><trkpt lat="44.592935" lon="7.935305"><ele>377.0</ele><time>2026-04-12T14:15:09.455Z</time></trkpt><trkpt lat="44.593015" lon="7.93531"><ele>377.0</ele><time>2026-04-12T14:15:14.455Z</time></trkpt><trkpt lat="44.5929367" lon="7.9352733"><ele>376.99999999999994</ele><time>2026-04-12T14:15:30.455Z</time></trkpt><trkpt lat="44.5929017" lon="7.9351933"><ele>377.0</ele><time>2026-04-12T14:15:33.455Z</time></trkpt><trkpt lat="44.5928967" lon="7.935095"><ele>380.5</ele><time>2026-04-12T14:15:37.455Z</time></trkpt><trkpt lat="44.5928783" lon="7.934965"><ele>384.0</ele><time>2026-04-12T14:15:41.455Z</time></trkpt><trkpt lat="44.59287" lon="7.9348367"><ele>387.5</ele><time>2026-04-12T14:15:44.455Z</time></trkpt><trkpt lat="44.592865" lon="7.9347417"><ele>391.0</ele><time>2026-04-12T14:15:46.456Z</time></trkpt><trkpt lat="44.5928633" lon="7.9346533"><ele>394.49999999999994</ele><time>2026-04-12T14:15:48.455Z</time></trkpt><trkpt lat="44.59286" lon="7.934555"><ele>398.0</ele><time>2026-04-12T14:15:51.455Z</time></trkpt><trkpt lat="44.5928717" lon="7.9344383"><ele>397.99999999999994</ele><time>2026-04-12T14:15:54.455Z</time></trkpt><trkpt lat="44.5929017" lon="7.9343267"><ele>398.0</ele><time>2026-04-12T14:15:57.455Z</time></trkpt><trkpt lat="44.5929117" lon="7.9342333"><ele>398.0</ele><time>2026-04-12T14:15:59.455Z</time></trkpt><trkpt lat="44.5928983" lon="7.9341067"><ele>398.0</ele><time>2026-04-12T14:16:02.455Z</time></trkpt><trkpt lat="44.5928767" lon="7.9340033"><ele>397.99999999999994</ele><time>2026-04-12T14:16:05.455Z</time></trkpt><trkpt lat="44.592855" lon="7.9338833"><ele>398.0</ele><time>2026-04-12T14:16:08.455Z</time></trkpt><trkpt lat="44.59284" lon="7.9337617"><ele>396.4</ele><time>2026-04-12T14:16:10.455Z</time></trkpt><trkpt lat="44.5928083" lon="7.9336117"><ele>394.79999999999995</ele><time>2026-04-12T14:16:12.455Z</time></trkpt><trkpt lat="44.5927917" lon="7.933525"><ele>393.2</ele><time>2026-04-12T14:16:13.455Z</time></trkpt><trkpt lat="44.5927533" lon="7.933385"><ele>391.6</ele><time>2026-04-12T14:16:15.455Z</time></trkpt><trkpt lat="44.5927133" lon="7.9332633"><ele>390.0</ele><time>2026-04-12T14:16:17.455Z</time></trkpt><trkpt lat="44.5926783" lon="7.9331317"><ele>390.0</ele><time>2026-04-12T14:16:19.455Z</time></trkpt><trkpt lat="44.5926483" lon="7.9329917"><ele>390.0</ele><time>2026-04-12T14:16:21.455Z</time></trkpt><trkpt lat="44.5926367" lon="7.93287"><ele>390.0</ele><time>2026-04-12T14:16:23.455Z</time></trkpt><trkpt lat="44.5926533" lon="7.9327633"><ele>390.0</ele><time>2026-04-12T14:16:25.455Z</time></trkpt><trkpt lat="44.59267" lon="7.9326367"><ele>390.0</ele><time>2026-04-12T14:16:28.455Z</time></trkpt><trkpt lat="44.592635" lon="7.93252"><ele>391.2857142857143</ele><time>2026-04-12T14:16:31.455Z</time></trkpt><trkpt lat="44.5926017" lon="7.932435"><ele>392.57142857142856</ele><time>2026-04-12T14:16:33.455Z</time></trkpt><trkpt lat="44.5925717" lon="7.932355"><ele>393.8571428571429</ele><time>2026-04-12T14:16:35.455Z</time></trkpt><trkpt lat="44.5925417" lon="7.9322667"><ele>395.1428571428571</ele><time>2026-04-12T14:16:37.455Z</time></trkpt><trkpt lat="44.5925133" lon="7.9321867"><ele>396.42857142857144</ele><time>2026-04-12T14:16:39.455Z</time></trkpt><trkpt lat="44.592485" lon="7.932105"><ele>397.7142857142857</ele><time>2026-04-12T14:16:41.455Z</time></trkpt><trkpt lat="44.592465" lon="7.932015"><ele>399.0</ele><time>2026-04-12T14:16:43.455Z</time></trkpt><trkpt lat="44.59245" lon="7.931865"><ele>399.0</ele><time>2026-04-12T14:16:46.455Z</time></trkpt><trkpt lat="44.5924117" lon="7.9317717"><ele>399.0</ele><time>2026-04-12T14:16:49.455Z</time></trkpt><trkpt lat="44.5923533" lon="7.931685"><ele>399.0</ele><time>2026-04-12T14:16:52.455Z</time></trkpt><trkpt lat="44.5922983" lon="7.9315867"><ele>399.0</ele><time>2026-04-12T14:16:55.455Z</time></trkpt><trkpt lat="44.592245" lon="7.9315183"><ele>399.0</ele><time>2026-04-12T14:16:57.455Z</time></trkpt><trkpt lat="44.5921833" lon="7.9314667"><ele>399.0</ele><time>2026-04-12T14:16:59.455Z</time></trkpt><trkpt lat="44.59211" lon="7.9313983"><ele>397.6</ele><time>2026-04-12T14:17:01.455Z</time></trkpt><trkpt lat="44.59203" lon="7.93133"><ele>396.2</ele><time>2026-04-12T14:17:03.455Z</time></trkpt><trkpt lat="44.5919433" lon="7.9312617"><ele>394.8</ele><time>2026-04-12T14:17:05.455Z</time></trkpt><trkpt lat="44.5918383" lon="7.9312083"><ele>393.40000000000003</ele><time>2026-04-12T14:17:07.455Z</time></trkpt><trkpt lat="44.59174" lon="7.93115"><ele>392.0</ele><time>2026-04-12T14:17:09.455Z</time></trkpt><trkpt lat="44.5916483" lon="7.9310783"><ele>392.0</ele><time>2026-04-12T14:17:11.455Z</time></trkpt><trkpt lat="44.5915517" lon="7.9309983"><ele>392.0</ele><time>2026-04-12T14:17:13.455Z</time></trkpt><trkpt lat="44.59145" lon="7.9309017"><ele>392.0</ele><time>2026-04-12T14:17:15.456Z</time></trkpt><trkpt lat="44.5913483" lon="7.9308333"><ele>392.0</ele><time>2026-04-12T14:17:17.455Z</time></trkpt><trkpt lat="44.5912517" lon="7.9307583"><ele>393.99999999999994</ele><time>2026-04-12T14:17:19.455Z</time></trkpt><trkpt lat="44.5911667" lon="7.9307083"><ele>396.0</ele><time>2026-04-12T14:17:21.455Z</time></trkpt><trkpt lat="44.5910783" lon="7.9306667"><ele>398.0</ele><time>2026-04-12T14:17:23.455Z</time></trkpt><trkpt lat="44.590995" lon="7.9306433"><ele>400.0</ele><time>2026-04-12T14:17:25.455Z</time></trkpt><trkpt lat="44.590905" lon="7.9306317"><ele>401.99999999999994</ele><time>2026-04-12T14:17:27.455Z</time></trkpt><trkpt lat="44.5908217" lon="7.930605"><ele>404.0</ele><time>2026-04-12T14:17:29.455Z</time></trkpt><trkpt lat="44.590745" lon="7.9305817"><ele>403.99999999999994</ele><time>2026-04-12T14:17:31.455Z</time></trkpt><trkpt lat="44.5906783" lon="7.9305533"><ele>404.0</ele><time>2026-04-12T14:17:33.455Z</time></trkpt><trkpt lat="44.590615" lon="7.9305333"><ele>404.0</ele><time>2026-04-12T14:17:35.455Z</time></trkpt><trkpt lat="44.5905333" lon="7.9305"><ele>404.0</ele><time>2026-04-12T14:17:38.455Z</time></trkpt><trkpt lat="44.5904467" lon="7.9304767"><ele>403.99999999999994</ele><time>2026-04-12T14:17:41.455Z</time></trkpt><trkpt lat="44.5903683" lon="7.9304567"><ele>404.0</ele><time>2026-04-12T14:17:44.455Z</time></trkpt><trkpt lat="44.5902883" lon="7.9304467"><ele>404.66666666666663</ele><time>2026-04-12T14:17:47.455Z</time></trkpt><trkpt lat="44.5902117" lon="7.9304183"><ele>405.3333333333333</ele><time>2026-04-12T14:17:50.455Z</time></trkpt><trkpt lat="44.5901233" lon="7.9303967"><ele>406.0</ele><time>2026-04-12T14:17:53.455Z</time></trkpt><trkpt lat="44.5900367" lon="7.93037"><ele>406.66666666666663</ele><time>2026-04-12T14:17:56.455Z</time></trkpt><trkpt lat="44.5899517" lon="7.9303267"><ele>407.3333333333333</ele><time>2026-04-12T14:17:59.455Z</time></trkpt><trkpt lat="44.5898717" lon="7.930285"><ele>408.0</ele><time>2026-04-12T14:18:02.455Z</time></trkpt><trkpt lat="44.589785" lon="7.9302367"><ele>408.0</ele><time>2026-04-12T14:18:05.455Z</time></trkpt><trkpt lat="44.589725" lon="7.9302033"><ele>408.0</ele><time>2026-04-12T14:18:07.455Z</time></trkpt><trkpt lat="44.589665" lon="7.930155"><ele>408.0</ele><time>2026-04-12T14:18:09.455Z</time></trkpt><trkpt lat="44.5896117" lon="7.9301033"><ele>408.0</ele><time>2026-04-12T14:18:11.455Z</time></trkpt><trkpt lat="44.5895583" lon="7.9300483"><ele>408.0</ele><time>2026-04-12T14:18:13.455Z</time></trkpt><trkpt lat="44.58951" lon="7.9299883"><ele>408.0</ele><time>2026-04-12T14:18:15.455Z</time></trkpt><trkpt lat="44.5894533" lon="7.92992"><ele>408.0</ele><time>2026-04-12T14:18:17.455Z</time></trkpt><trkpt lat="44.5894083" lon="7.9298467"><ele>409.42857142857144</ele><time>2026-04-12T14:18:19.456Z</time></trkpt><trkpt lat="44.5893617" lon="7.9297867"><ele>410.8571428571429</ele><time>2026-04-12T14:18:21.455Z</time></trkpt><trkpt lat="44.5892967" lon="7.9296933"><ele>412.2857142857143</ele><time>2026-04-12T14:18:24.455Z</time></trkpt><trkpt lat="44.5892633" lon="7.929615"><ele>413.7142857142857</ele><time>2026-04-12T14:18:26.455Z</time></trkpt><trkpt lat="44.5892367" lon="7.9295283"><ele>415.1428571428571</ele><time>2026-04-12T14:18:28.455Z</time></trkpt><trkpt lat="44.5892017" lon="7.9294083"><ele>416.57142857142856</ele><time>2026-04-12T14:18:31.455Z</time></trkpt><trkpt lat="44.5891817" lon="7.9293217"><ele>418.0</ele><time>2026-04-12T14:18:33.455Z</time></trkpt><trkpt lat="44.5891167" lon="7.9292233"><ele>420.42857142857144</ele><time>2026-04-12T14:18:36.455Z</time></trkpt><trkpt lat="44.5890667" lon="7.929165"><ele>422.85714285714283</ele><time>2026-04-12T14:18:38.456Z</time></trkpt><trkpt lat="44.589" lon="7.9291"><ele>425.28571428571433</ele><time>2026-04-12T14:18:41.455Z</time></trkpt><trkpt lat="44.58893" lon="7.92904"><ele>427.7142857142857</ele><time>2026-04-12T14:18:44.455Z</time></trkpt><trkpt lat="44.5888583" lon="7.929015"><ele>430.14285714285717</ele><time>2026-04-12T14:18:47.455Z</time></trkpt><trkpt lat="44.5887917" lon="7.9290017"><ele>432.5714285714286</ele><time>2026-04-12T14:18:50.455Z</time></trkpt><trkpt lat="44.5887133" lon="7.9290133"><ele>435.0</ele><time>2026-04-12T14:18:53.455Z</time></trkpt><trkpt lat="44.5886217" lon="7.92903"><ele>436.00000000000006</ele><time>2026-04-12T14:18:56.455Z</time></trkpt><trkpt lat="44.58854" lon="7.9290667"><ele>437.0</ele><time>2026-04-12T14:18:59.455Z</time></trkpt><trkpt lat="44.58847" lon="7.9290783"><ele>438.0</ele><time>2026-04-12T14:19:01.455Z</time></trkpt><trkpt lat="44.5884" lon="7.9290933"><ele>439.0</ele><time>2026-04-12T14:19:03.455Z</time></trkpt><trkpt lat="44.588335" lon="7.9291167"><ele>440.0</ele><time>2026-04-12T14:19:05.455Z</time></trkpt><trkpt lat="44.58827" lon="7.9291483"><ele>441.00000000000006</ele><time>2026-04-12T14:19:07.455Z</time></trkpt><trkpt lat="44.5882117" lon="7.929185"><ele>442.0</ele><time>2026-04-12T14:19:09.455Z</time></trkpt><trkpt lat="44.58813" lon="7.9292267"><ele>442.00000000000006</ele><time>2026-04-12T14:19:12.455Z</time></trkpt><trkpt lat="44.588055" lon="7.9292367"><ele>442.0</ele><time>2026-04-12T14:19:15.455Z</time></trkpt><trkpt lat="44.58799" lon="7.9292433"><ele>442.0</ele><time>2026-04-12T14:19:17.455Z</time></trkpt><trkpt lat="44.5879167" lon="7.929235"><ele>442.0</ele><time>2026-04-12T14:19:20.455Z</time></trkpt><trkpt lat="44.5878467" lon="7.929225"><ele>442.0</ele><time>2026-04-12T14:19:23.455Z</time></trkpt><trkpt lat="44.587785" lon="7.929195"><ele>442.00000000000006</ele><time>2026-04-12T14:19:26.455Z</time></trkpt><trkpt lat="44.5878" lon="7.9290967"><ele>442.0</ele><time>2026-04-12T14:19:33.455Z</time></trkpt><trkpt lat="44.5878767" lon="7.92905"><ele>442.00000000000006</ele><time>2026-04-12T14:19:37.456Z</time></trkpt><trkpt lat="44.5879417" lon="7.9290117"><ele>442.0</ele><time>2026-04-12T14:19:40.455Z</time></trkpt><trkpt lat="44.5880217" lon="7.9289683"><ele>442.0</ele><time>2026-04-12T14:19:45.455Z</time></trkpt><trkpt lat="44.5880817" lon="7.9288883"><ele>442.0</ele><time>2026-04-12T14:19:48.455Z</time></trkpt><trkpt lat="44.58813" lon="7.9288083"><ele>442.00000000000006</ele><time>2026-04-12T14:19:51.456Z</time></trkpt><trkpt lat="44.5881867" lon="7.9287467"><ele>442.0</ele><time>2026-04-12T14:19:55.455Z</time></trkpt><trkpt lat="44.5882167" lon="7.928645"><ele>442.00000000000006</ele><time>2026-04-12T14:19:58.455Z</time></trkpt><trkpt lat="44.588235" lon="7.92855"><ele>442.0</ele><time>2026-04-12T14:20:00.455Z</time></trkpt><trkpt lat="44.5882533" lon="7.9284583"><ele>442.0</ele><time>2026-04-12T14:20:02.455Z</time></trkpt><trkpt lat="44.58828" lon="7.9283617"><ele>442.0</ele><time>2026-04-12T14:20:05.455Z</time></trkpt><trkpt lat="44.5883067" lon="7.9282733"><ele>442.0</ele><time>2026-04-12T14:20:09.455Z</time></trkpt><trkpt lat="44.5883333" lon="7.928185"><ele>442.00000000000006</ele><time>2026-04-12T14:20:12.455Z</time></trkpt><trkpt lat="44.58837" lon="7.9280867"><ele>442.0</ele><time>2026-04-12T14:20:15.455Z</time></trkpt><trkpt lat="44.5884067" lon="7.9279783"><ele>445.33333333333337</ele><time>2026-04-12T14:20:18.455Z</time></trkpt><trkpt lat="44.5884533" lon="7.9278917"><ele>448.6666666666667</ele><time>2026-04-12T14:20:21.455Z</time></trkpt><trkpt lat="44.5885083" lon="7.9278117"><ele>452.0</ele><time>2026-04-12T14:20:24.455Z</time></trkpt><trkpt lat="44.5885567" lon="7.92773"><ele>455.33333333333337</ele><time>2026-04-12T14:20:27.455Z</time></trkpt><trkpt lat="44.5886217" lon="7.9276683"><ele>458.6666666666667</ele><time>2026-04-12T14:20:31.455Z</time></trkpt><trkpt lat="44.588655" lon="7.9275767"><ele>462.0</ele><time>2026-04-12T14:20:33.455Z</time></trkpt><trkpt lat="44.588705" lon="7.927495"><ele>463.1666666666667</ele><time>2026-04-12T14:20:36.455Z</time></trkpt><trkpt lat="44.588725" lon="7.9273317"><ele>464.33333333333337</ele><time>2026-04-12T14:21:39.455Z</time></trkpt><trkpt lat="44.588705" lon="7.92724"><ele>465.5</ele><time>2026-04-12T14:21:43.455Z</time></trkpt><trkpt lat="44.5886567" lon="7.92716"><ele>466.6666666666667</ele><time>2026-04-12T14:21:46.455Z</time></trkpt><trkpt lat="44.588595" lon="7.9270717"><ele>467.83333333333337</ele><time>2026-04-12T14:21:49.456Z</time></trkpt><trkpt lat="44.5885117" lon="7.92701"><ele>469.0</ele><time>2026-04-12T14:21:52.455Z</time></trkpt><trkpt lat="44.5884567" lon="7.9269433"><ele>469.0</ele><time>2026-04-12T14:21:54.455Z</time></trkpt><trkpt lat="44.5883933" lon="7.92695"><ele>469.0</ele><time>2026-04-12T14:21:55.455Z</time></trkpt><trkpt lat="44.5883317" lon="7.9269267"><ele>469.0</ele><time>2026-04-12T14:21:56.455Z</time></trkpt><trkpt lat="44.5882517" lon="7.926905"><ele>469.0</ele><time>2026-04-12T14:21:57.455Z</time></trkpt><trkpt lat="44.5881767" lon="7.9268883"><ele>469.0</ele><time>2026-04-12T14:21:58.455Z</time></trkpt><trkpt lat="44.5881117" lon="7.9268867"><ele>469.0</ele><time>2026-04-12T14:21:59.455Z</time></trkpt><trkpt lat="44.5880483" lon="7.9268933"><ele>469.0</ele><time>2026-04-12T14:22:00.455Z</time></trkpt><trkpt lat="44.58793" lon="7.9269033"><ele>469.0</ele><time>2026-04-12T14:22:02.455Z</time></trkpt><trkpt lat="44.5878167" lon="7.9269317"><ele>469.0</ele><time>2026-04-12T14:22:04.455Z</time></trkpt><trkpt lat="44.5877283" lon="7.9269417"><ele>469.0</ele><time>2026-04-12T14:22:06.455Z</time></trkpt><trkpt lat="44.587685" lon="7.926875"><ele>469.0</ele><time>2026-04-12T14:22:10.455Z</time></trkpt><trkpt lat="44.5877683" lon="7.9268267"><ele>469.0</ele><time>2026-04-12T14:22:13.455Z</time></trkpt><trkpt lat="44.5878783" lon="7.92681"><ele>469.00000000000006</ele><time>2026-04-12T14:22:15.455Z</time></trkpt><trkpt lat="44.588005" lon="7.9267717"><ele>469.0</ele><time>2026-04-12T14:22:17.455Z</time></trkpt><trkpt lat="44.5880733" lon="7.9267483"><ele>469.0</ele><time>2026-04-12T14:22:18.455Z</time></trkpt><trkpt lat="44.588145" lon="7.92674"><ele>469.0</ele><time>2026-04-12T14:22:19.455Z</time></trkpt><trkpt lat="44.5882217" lon="7.9267167"><ele>469.00000000000006</ele><time>2026-04-12T14:22:21.455Z</time></trkpt><trkpt lat="44.5882817" lon="7.92667"><ele>469.0</ele><time>2026-04-12T14:22:23.455Z</time></trkpt><trkpt lat="44.5883733" lon="7.9265933"><ele>466.4</ele><time>2026-04-12T14:22:25.455Z</time></trkpt><trkpt lat="44.5884383" lon="7.92655"><ele>463.79999999999995</ele><time>2026-04-12T14:22:26.455Z</time></trkpt><trkpt lat="44.58851" lon="7.9265"><ele>461.20000000000005</ele><time>2026-04-12T14:22:27.455Z</time></trkpt><trkpt lat="44.5885983" lon="7.9264283"><ele>458.6</ele><time>2026-04-12T14:22:28.455Z</time></trkpt><trkpt lat="44.5886833" lon="7.9263583"><ele>456.0</ele><time>2026-04-12T14:22:29.456Z</time></trkpt><trkpt lat="44.58877" lon="7.92629"><ele>456.0</ele><time>2026-04-12T14:22:30.455Z</time></trkpt><trkpt lat="44.58886" lon="7.92622"><ele>456.0</ele><time>2026-04-12T14:22:31.456Z</time></trkpt><trkpt lat="44.588955" lon="7.92616"><ele>456.0</ele><time>2026-04-12T14:22:32.455Z</time></trkpt><trkpt lat="44.5890567" lon="7.92611"><ele>456.0</ele><time>2026-04-12T14:22:33.455Z</time></trkpt><trkpt lat="44.589155" lon="7.9260883"><ele>456.0</ele><time>2026-04-12T14:22:34.455Z</time></trkpt><trkpt lat="44.589245" lon="7.9260617"><ele>456.0</ele><time>2026-04-12T14:22:35.455Z</time></trkpt><trkpt lat="44.5893367" lon="7.9260333"><ele>456.0</ele><time>2026-04-12T14:22:36.455Z</time></trkpt><trkpt lat="44.58943" lon="7.9260033"><ele>456.0</ele><time>2026-04-12T14:22:37.455Z</time></trkpt><trkpt lat="44.58952" lon="7.9259783"><ele>456.0</ele><time>2026-04-12T14:22:38.455Z</time></trkpt><trkpt lat="44.5896083" lon="7.925955"><ele>456.0</ele><time>2026-04-12T14:22:39.455Z</time></trkpt><trkpt lat="44.5897017" lon="7.9259067"><ele>454.8333333333333</ele><time>2026-04-12T14:22:40.455Z</time></trkpt><trkpt lat="44.589795" lon="7.92591"><ele>453.66666666666663</ele><time>2026-04-12T14:22:41.455Z</time></trkpt><trkpt lat="44.5898783" lon="7.9259033"><ele>452.5</ele><time>2026-04-12T14:22:42.455Z</time></trkpt><trkpt lat="44.5899467" lon="7.9258867"><ele>451.3333333333333</ele><time>2026-04-12T14:22:43.455Z</time></trkpt><trkpt lat="44.5900117" lon="7.9258683"><ele>450.16666666666663</ele><time>2026-04-12T14:22:44.455Z</time></trkpt><trkpt lat="44.590085" lon="7.9257433"><ele>449.0</ele><time>2026-04-12T14:22:46.455Z</time></trkpt><trkpt lat="44.5900933" lon="7.9256383"><ele>446.0</ele><time>2026-04-12T14:22:47.455Z</time></trkpt><trkpt lat="44.5900833" lon="7.9255067"><ele>443.0</ele><time>2026-04-12T14:22:48.455Z</time></trkpt><trkpt lat="44.5900683" lon="7.92537"><ele>440.0</ele><time>2026-04-12T14:22:49.455Z</time></trkpt><trkpt lat="44.5900617" lon="7.925225"><ele>437.0</ele><time>2026-04-12T14:22:50.455Z</time></trkpt><trkpt lat="44.5900683" lon="7.9250717"><ele>434.0</ele><time>2026-04-12T14:22:51.455Z</time></trkpt><trkpt lat="44.5900783" lon="7.92491"><ele>432.4</ele><time>2026-04-12T14:22:52.455Z</time></trkpt><trkpt lat="44.59008" lon="7.924755"><ele>430.79999999999995</ele><time>2026-04-12T14:22:53.455Z</time></trkpt><trkpt lat="44.5900833" lon="7.9246133"><ele>429.20000000000005</ele><time>2026-04-12T14:22:54.455Z</time></trkpt><trkpt lat="44.5900817" lon="7.92447"><ele>427.6</ele><time>2026-04-12T14:22:55.455Z</time></trkpt><trkpt lat="44.5900717" lon="7.9243333"><ele>426.0</ele><time>2026-04-12T14:22:56.455Z</time></trkpt><trkpt lat="44.5900733" lon="7.92422"><ele>424.0</ele><time>2026-04-12T14:22:57.455Z</time></trkpt><trkpt lat="44.59008" lon="7.92411"><ele>422.0</ele><time>2026-04-12T14:22:58.455Z</time></trkpt><trkpt lat="44.5900783" lon="7.9239883"><ele>420.0</ele><time>2026-04-12T14:22:59.455Z</time></trkpt><trkpt lat="44.5900733" lon="7.9238617"><ele>418.0</ele><time>2026-04-12T14:23:00.455Z</time></trkpt><trkpt lat="44.59007" lon="7.9237267"><ele>416.0</ele><time>2026-04-12T14:23:01.455Z</time></trkpt><trkpt lat="44.5900733" lon="7.9235817"><ele>416.0</ele><time>2026-04-12T14:23:02.455Z</time></trkpt><trkpt lat="44.5900783" lon="7.9234217"><ele>416.0</ele><time>2026-04-12T14:23:03.455Z</time></trkpt><trkpt lat="44.59008" lon="7.92327"><ele>416.0</ele><time>2026-04-12T14:23:04.455Z</time></trkpt><trkpt lat="44.5900783" lon="7.9231333"><ele>416.0</ele><time>2026-04-12T14:23:05.455Z</time></trkpt><trkpt lat="44.5900783" lon="7.9230033"><ele>416.0</ele><time>2026-04-12T14:23:06.455Z</time></trkpt><trkpt lat="44.5900767" lon="7.9228767"><ele>414.20000000000005</ele><time>2026-04-12T14:23:07.455Z</time></trkpt><trkpt lat="44.59008" lon="7.9227383"><ele>412.40000000000003</ele><time>2026-04-12T14:23:08.455Z</time></trkpt><trkpt lat="44.5900883" lon="7.9225917"><ele>410.6</ele><time>2026-04-12T14:23:09.455Z</time></trkpt><trkpt lat="44.5900967" lon="7.9224317"><ele>408.8</ele><time>2026-04-12T14:23:10.455Z</time></trkpt><trkpt lat="44.5901183" lon="7.9222683"><ele>407.0</ele><time>2026-04-12T14:23:11.455Z</time></trkpt><trkpt lat="44.5901433" lon="7.9220917"><ele>404.75</ele><time>2026-04-12T14:23:12.455Z</time></trkpt><trkpt lat="44.5901733" lon="7.9219033"><ele>402.5</ele><time>2026-04-12T14:23:13.455Z</time></trkpt><trkpt lat="44.5902017" lon="7.92172"><ele>400.25</ele><time>2026-04-12T14:23:14.455Z</time></trkpt><trkpt lat="44.59023" lon="7.9215283"><ele>398.0</ele><time>2026-04-12T14:23:15.455Z</time></trkpt><trkpt lat="44.5902533" lon="7.9213333"><ele>395.3333333333333</ele><time>2026-04-12T14:23:16.456Z</time></trkpt><trkpt lat="44.5902767" lon="7.9211233"><ele>392.66666666666663</ele><time>2026-04-12T14:23:17.455Z</time></trkpt><trkpt lat="44.5903017" lon="7.9209167"><ele>390.0</ele><time>2026-04-12T14:23:18.455Z</time></trkpt><trkpt lat="44.5903333" lon="7.9207117"><ele>391.33333333333337</ele><time>2026-04-12T14:23:19.455Z</time></trkpt><trkpt lat="44.5903783" lon="7.920495"><ele>392.6666666666667</ele><time>2026-04-12T14:23:20.455Z</time></trkpt><trkpt lat="44.5904283" lon="7.9202883"><ele>394.0</ele><time>2026-04-12T14:23:21.455Z</time></trkpt><trkpt lat="44.5904783" lon="7.9200833"><ele>391.5</ele><time>2026-04-12T14:23:22.455Z</time></trkpt><trkpt lat="44.5905367" lon="7.9198867"><ele>389.0</ele><time>2026-04-12T14:23:23.455Z</time></trkpt><trkpt lat="44.5905983" lon="7.9196933"><ele>386.5</ele><time>2026-04-12T14:23:24.455Z</time></trkpt><trkpt lat="44.5906633" lon="7.919515"><ele>384.0</ele><time>2026-04-12T14:23:25.456Z</time></trkpt><trkpt lat="44.590735" lon="7.9193517"><ele>381.5</ele><time>2026-04-12T14:23:26.455Z</time></trkpt><trkpt lat="44.5908217" lon="7.9192133"><ele>379.0</ele><time>2026-04-12T14:23:27.455Z</time></trkpt><trkpt lat="44.5909117" lon="7.9190967"><ele>376.5</ele><time>2026-04-12T14:23:28.455Z</time></trkpt><trkpt lat="44.591" lon="7.9189817"><ele>374.0</ele><time>2026-04-12T14:23:29.455Z</time></trkpt><trkpt lat="44.5910867" lon="7.9188667"><ele>374.0</ele><time>2026-04-12T14:23:30.455Z</time></trkpt><trkpt lat="44.5911717" lon="7.91875"><ele>374.0</ele><time>2026-04-12T14:23:31.456Z</time></trkpt><trkpt lat="44.5912583" lon="7.918635"><ele>374.0</ele><time>2026-04-12T14:23:32.455Z</time></trkpt><trkpt lat="44.59135" lon="7.9185333"><ele>374.0</ele><time>2026-04-12T14:23:33.455Z</time></trkpt><trkpt lat="44.591435" lon="7.918435"><ele>373.0</ele><time>2026-04-12T14:23:34.455Z</time></trkpt><trkpt lat="44.5915167" lon="7.9183233"><ele>372.0</ele><time>2026-04-12T14:23:35.455Z</time></trkpt><trkpt lat="44.5915967" lon="7.9182183"><ele>371.0</ele><time>2026-04-12T14:23:36.455Z</time></trkpt><trkpt lat="44.5916783" lon="7.9181283"><ele>370.0</ele><time>2026-04-12T14:23:37.455Z</time></trkpt><trkpt lat="44.5917633" lon="7.9180233"><ele>369.0</ele><time>2026-04-12T14:23:38.455Z</time></trkpt><trkpt lat="44.5918417" lon="7.917925"><ele>369.0</ele><time>2026-04-12T14:23:39.456Z</time></trkpt><trkpt lat="44.5919133" lon="7.917815"><ele>369.0</ele><time>2026-04-12T14:23:40.455Z</time></trkpt><trkpt lat="44.5919817" lon="7.9176967"><ele>369.0</ele><time>2026-04-12T14:23:41.455Z</time></trkpt><trkpt lat="44.592045" lon="7.917575"><ele>369.0</ele><time>2026-04-12T14:23:42.455Z</time></trkpt><trkpt lat="44.59211" lon="7.9174433"><ele>369.0</ele><time>2026-04-12T14:23:43.455Z</time></trkpt><trkpt lat="44.59217" lon="7.9172983"><ele>367.75</ele><time>2026-04-12T14:23:44.455Z</time></trkpt><trkpt lat="44.592225" lon="7.9171533"><ele>366.5</ele><time>2026-04-12T14:23:45.455Z</time></trkpt><trkpt lat="44.5922783" lon="7.9170017"><ele>365.25</ele><time>2026-04-12T14:23:46.455Z</time></trkpt><trkpt lat="44.59233" lon="7.9168483"><ele>364.0</ele><time>2026-04-12T14:23:47.455Z</time></trkpt><trkpt lat="44.5923817" lon="7.9166983"><ele>362.25</ele><time>2026-04-12T14:23:48.455Z</time></trkpt><trkpt lat="44.592435" lon="7.9165483"><ele>360.5</ele><time>2026-04-12T14:23:49.455Z</time></trkpt><trkpt lat="44.5924817" lon="7.9164"><ele>358.75</ele><time>2026-04-12T14:23:50.455Z</time></trkpt><trkpt lat="44.592525" lon="7.9162517"><ele>357.0</ele><time>2026-04-12T14:23:51.455Z</time></trkpt><trkpt lat="44.592565" lon="7.91611"><ele>357.0</ele><time>2026-04-12T14:23:52.455Z</time></trkpt><trkpt lat="44.5926117" lon="7.9159667"><ele>357.0</ele><time>2026-04-12T14:23:53.455Z</time></trkpt><trkpt lat="44.592655" lon="7.91583"><ele>357.0</ele><time>2026-04-12T14:23:54.455Z</time></trkpt><trkpt lat="44.592695" lon="7.9157"><ele>357.0</ele><time>2026-04-12T14:23:55.455Z</time></trkpt><trkpt lat="44.59274" lon="7.9155883"><ele>357.0</ele><time>2026-04-12T14:23:56.455Z</time></trkpt><trkpt lat="44.592795" lon="7.9154767"><ele>355.8</ele><time>2026-04-12T14:23:57.455Z</time></trkpt><trkpt lat="44.592845" lon="7.91537"><ele>354.6</ele><time>2026-04-12T14:23:58.455Z</time></trkpt><trkpt lat="44.5928983" lon="7.915265"><ele>353.40000000000003</ele><time>2026-04-12T14:23:59.455Z</time></trkpt><trkpt lat="44.5929533" lon="7.9151533"><ele>352.20000000000005</ele><time>2026-04-12T14:24:00.455Z</time></trkpt><trkpt lat="44.593005" lon="7.9150517"><ele>351.0</ele><time>2026-04-12T14:24:01.455Z</time></trkpt><trkpt lat="44.59306" lon="7.9149417"><ele>350.6</ele><time>2026-04-12T14:24:02.455Z</time></trkpt><trkpt lat="44.59312" lon="7.9148317"><ele>350.20000000000005</ele><time>2026-04-12T14:24:03.455Z</time></trkpt><trkpt lat="44.59319" lon="7.9147183"><ele>349.79999999999995</ele><time>2026-04-12T14:24:04.455Z</time></trkpt><trkpt lat="44.5932683" lon="7.9145983"><ele>349.4</ele><time>2026-04-12T14:24:05.455Z</time></trkpt><trkpt lat="44.593355" lon="7.914475"><ele>349.0</ele><time>2026-04-12T14:24:06.455Z</time></trkpt><trkpt lat="44.5934483" lon="7.914355"><ele>349.0</ele><time>2026-04-12T14:24:07.455Z</time></trkpt><trkpt lat="44.593545" lon="7.914225"><ele>349.0</ele><time>2026-04-12T14:24:08.455Z</time></trkpt><trkpt lat="44.593645" lon="7.9140983"><ele>349.0</ele><time>2026-04-12T14:24:09.455Z</time></trkpt><trkpt lat="44.5937533" lon="7.9139817"><ele>349.0</ele><time>2026-04-12T14:24:10.455Z</time></trkpt><trkpt lat="44.5938633" lon="7.91385"><ele>347.0</ele><time>2026-04-12T14:24:11.455Z</time></trkpt><trkpt lat="44.59397" lon="7.9137267"><ele>345.0</ele><time>2026-04-12T14:24:12.455Z</time></trkpt><trkpt lat="44.5940733" lon="7.913605"><ele>343.0</ele><time>2026-04-12T14:24:13.455Z</time></trkpt><trkpt lat="44.5941717" lon="7.9134917"><ele>341.0</ele><time>2026-04-12T14:24:14.455Z</time></trkpt><trkpt lat="44.594275" lon="7.9133733"><ele>341.0</ele><time>2026-04-12T14:24:15.455Z</time></trkpt><trkpt lat="44.5943683" lon="7.9132517"><ele>341.0</ele><time>2026-04-12T14:24:16.455Z</time></trkpt><trkpt lat="44.5944517" lon="7.913125"><ele>341.0</ele><time>2026-04-12T14:24:17.455Z</time></trkpt><trkpt lat="44.594525" lon="7.912985"><ele>341.0</ele><time>2026-04-12T14:24:18.455Z</time></trkpt><trkpt lat="44.5945933" lon="7.9128367"><ele>338.5</ele><time>2026-04-12T14:24:19.455Z</time></trkpt><trkpt lat="44.5946567" lon="7.9126933"><ele>336.0</ele><time>2026-04-12T14:24:20.455Z</time></trkpt><trkpt lat="44.5947133" lon="7.9125517"><ele>333.5</ele><time>2026-04-12T14:24:21.455Z</time></trkpt><trkpt lat="44.5947667" lon="7.9123967"><ele>331.0</ele><time>2026-04-12T14:24:22.455Z</time></trkpt><trkpt lat="44.5948183" lon="7.9122417"><ele>331.0</ele><time>2026-04-12T14:24:23.455Z</time></trkpt><trkpt lat="44.5948667" lon="7.91209"><ele>331.0</ele><time>2026-04-12T14:24:24.456Z</time></trkpt><trkpt lat="44.594915" lon="7.9119217"><ele>331.0</ele><time>2026-04-12T14:24:25.455Z</time></trkpt><trkpt lat="44.5949633" lon="7.9117567"><ele>331.0</ele><time>2026-04-12T14:24:26.455Z</time></trkpt><trkpt lat="44.59501" lon="7.9115833"><ele>330.5</ele><time>2026-04-12T14:24:27.455Z</time></trkpt><trkpt lat="44.5950467" lon="7.9114"><ele>330.0</ele><time>2026-04-12T14:24:28.455Z</time></trkpt><trkpt lat="44.5950967" lon="7.911225"><ele>329.5</ele><time>2026-04-12T14:24:29.455Z</time></trkpt><trkpt lat="44.59515" lon="7.9110533"><ele>329.0</ele><time>2026-04-12T14:24:30.455Z</time></trkpt><trkpt lat="44.595215" lon="7.9108917"><ele>326.75</ele><time>2026-04-12T14:24:31.455Z</time></trkpt><trkpt lat="44.595285" lon="7.9107417"><ele>324.5</ele><time>2026-04-12T14:24:32.455Z</time></trkpt><trkpt lat="44.595375" lon="7.9105917"><ele>322.25</ele><time>2026-04-12T14:24:33.455Z</time></trkpt><trkpt lat="44.595465" lon="7.9104517"><ele>320.0</ele><time>2026-04-12T14:24:34.455Z</time></trkpt><trkpt lat="44.5955617" lon="7.910325"><ele>318.25</ele><time>2026-04-12T14:24:35.455Z</time></trkpt><trkpt lat="44.5956517" lon="7.9102"><ele>316.5</ele><time>2026-04-12T14:24:36.455Z</time></trkpt><trkpt lat="44.5957333" lon="7.9100733"><ele>314.75</ele><time>2026-04-12T14:24:37.455Z</time></trkpt><trkpt lat="44.5957967" lon="7.90995"><ele>313.0</ele><time>2026-04-12T14:24:38.455Z</time></trkpt><trkpt lat="44.5958517" lon="7.9098217"><ele>312.0</ele><time>2026-04-12T14:24:39.455Z</time></trkpt><trkpt lat="44.5958983" lon="7.909675"><ele>311.0</ele><time>2026-04-12T14:24:40.455Z</time></trkpt><trkpt lat="44.5959317" lon="7.9095167"><ele>310.0</ele><time>2026-04-12T14:24:41.455Z</time></trkpt><trkpt lat="44.5959433" lon="7.9093567"><ele>309.0</ele><time>2026-04-12T14:24:42.456Z</time></trkpt><trkpt lat="44.5959417" lon="7.909185"><ele>308.25</ele><time>2026-04-12T14:24:43.455Z</time></trkpt><trkpt lat="44.5959333" lon="7.9090083"><ele>307.5</ele><time>2026-04-12T14:24:44.456Z</time></trkpt><trkpt lat="44.5959317" lon="7.908815"><ele>306.75</ele><time>2026-04-12T14:24:45.455Z</time></trkpt><trkpt lat="44.595915" lon="7.9086167"><ele>306.0</ele><time>2026-04-12T14:24:46.455Z</time></trkpt><trkpt lat="44.595895" lon="7.90841"><ele>304.5</ele><time>2026-04-12T14:24:47.455Z</time></trkpt><trkpt lat="44.5958767" lon="7.9082083"><ele>303.0</ele><time>2026-04-12T14:24:48.455Z</time></trkpt><trkpt lat="44.59586" lon="7.9080033"><ele>301.5</ele><time>2026-04-12T14:24:49.455Z</time></trkpt><trkpt lat="44.595845" lon="7.9078"><ele>300.0</ele><time>2026-04-12T14:24:50.455Z</time></trkpt><trkpt lat="44.595825" lon="7.9075883"><ele>299.0</ele><time>2026-04-12T14:24:51.455Z</time></trkpt><trkpt lat="44.595805" lon="7.9073767"><ele>298.0</ele><time>2026-04-12T14:24:52.455Z</time></trkpt><trkpt lat="44.5957867" lon="7.9071667"><ele>297.0</ele><time>2026-04-12T14:24:53.455Z</time></trkpt><trkpt lat="44.5957733" lon="7.9069667"><ele>296.0</ele><time>2026-04-12T14:24:54.455Z</time></trkpt><trkpt lat="44.59574" lon="7.9067667"><ele>294.5</ele><time>2026-04-12T14:24:55.455Z</time></trkpt><trkpt lat="44.5956883" lon="7.9065733"><ele>293.0</ele><time>2026-04-12T14:24:56.455Z</time></trkpt><trkpt lat="44.5956333" lon="7.9063933"><ele>291.5</ele><time>2026-04-12T14:24:57.455Z</time></trkpt><trkpt lat="44.5955717" lon="7.906225"><ele>290.0</ele><time>2026-04-12T14:24:58.455Z</time></trkpt><trkpt lat="44.5955183" lon="7.9060583"><ele>289.0</ele><time>2026-04-12T14:24:59.455Z</time></trkpt><trkpt lat="44.595475" lon="7.9059067"><ele>288.0</ele><time>2026-04-12T14:25:00.455Z</time></trkpt><trkpt lat="44.5954367" lon="7.90577"><ele>287.0</ele><time>2026-04-12T14:25:01.455Z</time></trkpt><trkpt lat="44.5953983" lon="7.9056383"><ele>286.0</ele><time>2026-04-12T14:25:02.455Z</time></trkpt><trkpt lat="44.5953667" lon="7.9055067"><ele>285.0</ele><time>2026-04-12T14:25:03.455Z</time></trkpt><trkpt lat="44.5953317" lon="7.905365"><ele>283.4</ele><time>2026-04-12T14:25:04.455Z</time></trkpt><trkpt lat="44.5953033" lon="7.905215"><ele>281.8</ele><time>2026-04-12T14:25:05.455Z</time></trkpt><trkpt lat="44.5952733" lon="7.90507"><ele>280.2</ele><time>2026-04-12T14:25:06.456Z</time></trkpt><trkpt lat="44.595245" lon="7.9049267"><ele>278.6</ele><time>2026-04-12T14:25:07.455Z</time></trkpt><trkpt lat="44.595215" lon="7.9047833"><ele>277.0</ele><time>2026-04-12T14:25:08.455Z</time></trkpt><trkpt lat="44.5951817" lon="7.90463"><ele>275.5</ele><time>2026-04-12T14:25:09.455Z</time></trkpt><trkpt lat="44.595145" lon="7.9044667"><ele>274.0</ele><time>2026-04-12T14:25:10.455Z</time></trkpt><trkpt lat="44.5951117" lon="7.9043017"><ele>272.5</ele><time>2026-04-12T14:25:11.455Z</time></trkpt><trkpt lat="44.5950883" lon="7.9041283"><ele>271.0</ele><time>2026-04-12T14:25:12.455Z</time></trkpt><trkpt lat="44.59506" lon="7.9039533"><ele>269.25</ele><time>2026-04-12T14:25:13.455Z</time></trkpt><trkpt lat="44.5950217" lon="7.903775"><ele>267.5</ele><time>2026-04-12T14:25:14.456Z</time></trkpt><trkpt lat="44.5949883" lon="7.9036083"><ele>265.75</ele><time>2026-04-12T14:25:15.455Z</time></trkpt><trkpt lat="44.5949617" lon="7.9034483"><ele>264.0</ele><time>2026-04-12T14:25:16.455Z</time></trkpt><trkpt lat="44.5949283" lon="7.90329"><ele>263.0</ele><time>2026-04-12T14:25:17.455Z</time></trkpt><trkpt lat="44.5949017" lon="7.9031217"><ele>262.0</ele><time>2026-04-12T14:25:18.455Z</time></trkpt><trkpt lat="44.5948867" lon="7.9029483"><ele>261.0</ele><time>2026-04-12T14:25:19.456Z</time></trkpt><trkpt lat="44.59487" lon="7.9027867"><ele>260.0</ele><time>2026-04-12T14:25:20.455Z</time></trkpt><trkpt lat="44.5948567" lon="7.902635"><ele>259.5</ele><time>2026-04-12T14:25:21.455Z</time></trkpt><trkpt lat="44.59485" lon="7.902495"><ele>259.0</ele><time>2026-04-12T14:25:22.455Z</time></trkpt><trkpt lat="44.5948517" lon="7.9023633"><ele>258.5</ele><time>2026-04-12T14:25:23.455Z</time></trkpt><trkpt lat="44.5948533" lon="7.9022467"><ele>258.0</ele><time>2026-04-12T14:25:24.455Z</time></trkpt><trkpt lat="44.59484" lon="7.90214"><ele>257.5</ele><time>2026-04-12T14:25:25.455Z</time></trkpt><trkpt lat="44.5947983" lon="7.9020383"><ele>257.0</ele><time>2026-04-12T14:25:26.455Z</time></trkpt><trkpt lat="44.59472" lon="7.9019533"><ele>257.0</ele><time>2026-04-12T14:25:27.455Z</time></trkpt><trkpt lat="44.594625" lon="7.9018717"><ele>257.0</ele><time>2026-04-12T14:25:28.455Z</time></trkpt><trkpt lat="44.5945217" lon="7.9017967"><ele>257.0</ele><time>2026-04-12T14:25:29.455Z</time></trkpt><trkpt lat="44.59441" lon="7.9017317"><ele>257.0</ele><time>2026-04-12T14:25:30.455Z</time></trkpt><trkpt lat="44.5942883" lon="7.9016617"><ele>251.75</ele><time>2026-04-12T14:25:31.455Z</time></trkpt><trkpt lat="44.5941617" lon="7.9015733"><ele>246.5</ele><time>2026-04-12T14:25:32.455Z</time></trkpt><trkpt lat="44.5940417" lon="7.9014833"><ele>241.25</ele><time>2026-04-12T14:25:33.455Z</time></trkpt><trkpt lat="44.593915" lon="7.90139"><ele>236.0</ele><time>2026-04-12T14:25:34.455Z</time></trkpt><trkpt lat="44.5937933" lon="7.9012883"><ele>236.0</ele><time>2026-04-12T14:25:35.455Z</time></trkpt><trkpt lat="44.5936733" lon="7.9011833"><ele>236.0</ele><time>2026-04-12T14:25:36.455Z</time></trkpt><trkpt lat="44.5935583" lon="7.90107"><ele>236.0</ele><time>2026-04-12T14:25:37.455Z</time></trkpt><trkpt lat="44.5934483" lon="7.9009483"><ele>236.0</ele><time>2026-04-12T14:25:38.455Z</time></trkpt><trkpt lat="44.5933467" lon="7.9008267"><ele>234.25</ele><time>2026-04-12T14:25:39.455Z</time></trkpt><trkpt lat="44.5932483" lon="7.9006983"><ele>232.5</ele><time>2026-04-12T14:25:40.455Z</time></trkpt><trkpt lat="44.5931417" lon="7.9005667"><ele>230.75</ele><time>2026-04-12T14:25:41.455Z</time></trkpt><trkpt lat="44.5930367" lon="7.9004467"><ele>229.0</ele><time>2026-04-12T14:25:42.455Z</time></trkpt><trkpt lat="44.59293" lon="7.90032"><ele>228.0</ele><time>2026-04-12T14:25:43.455Z</time></trkpt><trkpt lat="44.5928267" lon="7.9002083"><ele>227.0</ele><time>2026-04-12T14:25:44.455Z</time></trkpt><trkpt lat="44.5927117" lon="7.9001017"><ele>226.0</ele><time>2026-04-12T14:25:45.455Z</time></trkpt><trkpt lat="44.592595" lon="7.9000033"><ele>225.0</ele><time>2026-04-12T14:25:46.455Z</time></trkpt><trkpt lat="44.5924883" lon="7.8999083"><ele>224.75</ele><time>2026-04-12T14:25:47.455Z</time></trkpt><trkpt lat="44.5923867" lon="7.8998183"><ele>224.5</ele><time>2026-04-12T14:25:48.455Z</time></trkpt><trkpt lat="44.59229" lon="7.899725"><ele>224.25</ele><time>2026-04-12T14:25:49.455Z</time></trkpt><trkpt lat="44.5922067" lon="7.899605"><ele>224.0</ele><time>2026-04-12T14:25:50.455Z</time></trkpt><trkpt lat="44.592135" lon="7.8994717"><ele>224.0</ele><time>2026-04-12T14:25:51.455Z</time></trkpt><trkpt lat="44.5920717" lon="7.899335"><ele>223.99999999999997</ele><time>2026-04-12T14:25:52.455Z</time></trkpt><trkpt lat="44.592005" lon="7.8992067"><ele>223.99999999999997</ele><time>2026-04-12T14:25:53.455Z</time></trkpt><trkpt lat="44.591945" lon="7.8991067"><ele>224.0</ele><time>2026-04-12T14:25:54.455Z</time></trkpt><trkpt lat="44.5919017" lon="7.8990217"><ele>224.0</ele><time>2026-04-12T14:25:55.455Z</time></trkpt><trkpt lat="44.5918967" lon="7.8988517"><ele>224.33333333333334</ele><time>2026-04-12T14:25:57.455Z</time></trkpt><trkpt lat="44.591975" lon="7.8987167"><ele>224.66666666666669</ele><time>2026-04-12T14:25:59.455Z</time></trkpt><trkpt lat="44.59204" lon="7.8986683"><ele>225.0</ele><time>2026-04-12T14:26:00.455Z</time></trkpt><trkpt lat="44.592105" lon="7.8986183"><ele>225.33333333333331</ele><time>2026-04-12T14:26:01.455Z</time></trkpt><trkpt lat="44.5921667" lon="7.89857"><ele>225.66666666666666</ele><time>2026-04-12T14:26:02.455Z</time></trkpt><trkpt lat="44.5922367" lon="7.898525"><ele>226.0</ele><time>2026-04-12T14:26:03.455Z</time></trkpt><trkpt lat="44.592305" lon="7.89848"><ele>225.99999999999997</ele><time>2026-04-12T14:26:04.455Z</time></trkpt><trkpt lat="44.592375" lon="7.89842"><ele>226.0</ele><time>2026-04-12T14:26:05.455Z</time></trkpt><trkpt lat="44.5924467" lon="7.8983667"><ele>226.0</ele><time>2026-04-12T14:26:06.455Z</time></trkpt><trkpt lat="44.5925133" lon="7.89831"><ele>226.0</ele><time>2026-04-12T14:26:07.455Z</time></trkpt><trkpt lat="44.5925783" lon="7.8982567"><ele>225.99999999999997</ele><time>2026-04-12T14:26:08.455Z</time></trkpt><trkpt lat="44.5926483" lon="7.8982133"><ele>226.0</ele><time>2026-04-12T14:26:09.455Z</time></trkpt><trkpt lat="44.5927117" lon="7.898165"><ele>225.49999999999997</ele><time>2026-04-12T14:26:10.455Z</time></trkpt><trkpt lat="44.5927833" lon="7.8981183"><ele>225.0</ele><time>2026-04-12T14:26:11.455Z</time></trkpt><trkpt lat="44.592845" lon="7.8980717"><ele>224.5</ele><time>2026-04-12T14:26:12.455Z</time></trkpt><trkpt lat="44.5929017" lon="7.8980217"><ele>224.0</ele><time>2026-04-12T14:26:13.455Z</time></trkpt><trkpt lat="44.593015" lon="7.8979617"><ele>223.49999999999997</ele><time>2026-04-12T14:26:15.455Z</time></trkpt><trkpt lat="44.593115" lon="7.8978983"><ele>223.0</ele><time>2026-04-12T14:26:17.455Z</time></trkpt><trkpt lat="44.5932167" lon="7.8978233"><ele>223.0</ele><time>2026-04-12T14:26:19.455Z</time></trkpt><trkpt lat="44.5933283" lon="7.8977767"><ele>223.0</ele><time>2026-04-12T14:26:21.455Z</time></trkpt><trkpt lat="44.59339" lon="7.8977467"><ele>223.0</ele><time>2026-04-12T14:26:22.455Z</time></trkpt><trkpt lat="44.5935017" lon="7.8977"><ele>223.0</ele><time>2026-04-12T14:26:24.455Z</time></trkpt><trkpt lat="44.5936117" lon="7.8976367"><ele>223.0</ele><time>2026-04-12T14:26:26.455Z</time></trkpt><trkpt lat="44.59367" lon="7.8976017"><ele>222.83333333333331</ele><time>2026-04-12T14:26:27.455Z</time></trkpt><trkpt lat="44.5937283" lon="7.8975667"><ele>222.66666666666666</ele><time>2026-04-12T14:26:28.455Z</time></trkpt><trkpt lat="44.593785" lon="7.8975233"><ele>222.5</ele><time>2026-04-12T14:26:29.455Z</time></trkpt><trkpt lat="44.593895" lon="7.8974433"><ele>222.33333333333331</ele><time>2026-04-12T14:26:31.455Z</time></trkpt><trkpt lat="44.5939483" lon="7.8973917"><ele>222.16666666666666</ele><time>2026-04-12T14:26:32.455Z</time></trkpt><trkpt lat="44.594045" lon="7.8973017"><ele>222.0</ele><time>2026-04-12T14:26:34.455Z</time></trkpt><trkpt lat="44.59414" lon="7.897205"><ele>222.0</ele><time>2026-04-12T14:26:36.455Z</time></trkpt><trkpt lat="44.5942333" lon="7.897095"><ele>222.0</ele><time>2026-04-12T14:26:38.455Z</time></trkpt><trkpt lat="44.5942833" lon="7.8970367"><ele>222.0</ele><time>2026-04-12T14:26:39.455Z</time></trkpt><trkpt lat="44.594335" lon="7.8969733"><ele>222.0</ele><time>2026-04-12T14:26:40.455Z</time></trkpt><trkpt lat="44.594385" lon="7.8969117"><ele>222.0</ele><time>2026-04-12T14:26:41.455Z</time></trkpt><trkpt lat="44.5944367" lon="7.8968483"><ele>222.0</ele><time>2026-04-12T14:26:42.455Z</time></trkpt><trkpt lat="44.5944833" lon="7.8967883"><ele>222.16666666666666</ele><time>2026-04-12T14:26:43.455Z</time></trkpt><trkpt lat="44.5945283" lon="7.896725"><ele>222.33333333333331</ele><time>2026-04-12T14:26:44.455Z</time></trkpt><trkpt lat="44.594575" lon="7.8966633"><ele>222.5</ele><time>2026-04-12T14:26:45.455Z</time></trkpt><trkpt lat="44.594675" lon="7.8965467"><ele>222.66666666666666</ele><time>2026-04-12T14:26:47.455Z</time></trkpt><trkpt lat="44.59473" lon="7.8964733"><ele>222.83333333333331</ele><time>2026-04-12T14:26:48.455Z</time></trkpt><trkpt lat="44.5947783" lon="7.8964133"><ele>223.0</ele><time>2026-04-12T14:26:49.455Z</time></trkpt><trkpt lat="44.594825" lon="7.8963533"><ele>223.0</ele><time>2026-04-12T14:26:50.455Z</time></trkpt><trkpt lat="44.59492" lon="7.8962417"><ele>223.0</ele><time>2026-04-12T14:26:52.455Z</time></trkpt><trkpt lat="44.59501" lon="7.896135"><ele>223.0</ele><time>2026-04-12T14:26:54.455Z</time></trkpt><trkpt lat="44.5950967" lon="7.896015"><ele>223.0</ele><time>2026-04-12T14:26:56.455Z</time></trkpt><trkpt lat="44.595185" lon="7.8959017"><ele>222.8</ele><time>2026-04-12T14:26:58.455Z</time></trkpt><trkpt lat="44.595265" lon="7.89579"><ele>222.60000000000002</ele><time>2026-04-12T14:27:00.455Z</time></trkpt><trkpt lat="44.5953383" lon="7.8956933"><ele>222.39999999999998</ele><time>2026-04-12T14:27:02.455Z</time></trkpt><trkpt lat="44.5954183" lon="7.89559"><ele>222.2</ele><time>2026-04-12T14:27:04.456Z</time></trkpt><trkpt lat="44.595495" lon="7.8955"><ele>222.0</ele><time>2026-04-12T14:27:06.455Z</time></trkpt><trkpt lat="44.595575" lon="7.8954183"><ele>222.5</ele><time>2026-04-12T14:27:08.455Z</time></trkpt><trkpt lat="44.59564" lon="7.8953383"><ele>223.0</ele><time>2026-04-12T14:27:10.455Z</time></trkpt><trkpt lat="44.595695" lon="7.895265"><ele>223.5</ele><time>2026-04-12T14:27:12.455Z</time></trkpt><trkpt lat="44.5957533" lon="7.89519"><ele>224.0</ele><time>2026-04-12T14:27:14.455Z</time></trkpt><trkpt lat="44.5958133" lon="7.8951083"><ele>224.5</ele><time>2026-04-12T14:27:16.455Z</time></trkpt><trkpt lat="44.5958783" lon="7.895035"><ele>225.0</ele><time>2026-04-12T14:27:18.455Z</time></trkpt><trkpt lat="44.59595" lon="7.8949667"><ele>225.0</ele><time>2026-04-12T14:27:20.455Z</time></trkpt><trkpt lat="44.5960233" lon="7.894895"><ele>225.0</ele><time>2026-04-12T14:27:22.455Z</time></trkpt><trkpt lat="44.596095" lon="7.8948217"><ele>225.0</ele><time>2026-04-12T14:27:24.455Z</time></trkpt><trkpt lat="44.596165" lon="7.8947417"><ele>225.0</ele><time>2026-04-12T14:27:26.455Z</time></trkpt><trkpt lat="44.5962433" lon="7.8946567"><ele>225.0</ele><time>2026-04-12T14:27:28.455Z</time></trkpt><trkpt lat="44.5963183" lon="7.894575"><ele>225.6</ele><time>2026-04-12T14:27:30.455Z</time></trkpt><trkpt lat="44.596395" lon="7.8944883"><ele>226.2</ele><time>2026-04-12T14:27:32.455Z</time></trkpt><trkpt lat="44.59648" lon="7.8943967"><ele>226.8</ele><time>2026-04-12T14:27:34.455Z</time></trkpt><trkpt lat="44.5965667" lon="7.8943017"><ele>227.4</ele><time>2026-04-12T14:27:36.455Z</time></trkpt><trkpt lat="44.5966417" lon="7.8942217"><ele>228.0</ele><time>2026-04-12T14:27:38.455Z</time></trkpt><trkpt lat="44.596725" lon="7.8941367"><ele>228.0</ele><time>2026-04-12T14:27:40.455Z</time></trkpt><trkpt lat="44.5968033" lon="7.8940483"><ele>228.0</ele><time>2026-04-12T14:27:42.455Z</time></trkpt><trkpt lat="44.5968817" lon="7.8939467"><ele>228.0</ele><time>2026-04-12T14:27:44.455Z</time></trkpt><trkpt lat="44.5969733" lon="7.8938433"><ele>228.0</ele><time>2026-04-12T14:27:46.455Z</time></trkpt><trkpt lat="44.5970717" lon="7.8937417"><ele>228.0</ele><time>2026-04-12T14:27:48.455Z</time></trkpt><trkpt lat="44.59717" lon="7.893635"><ele>227.8</ele><time>2026-04-12T14:27:50.455Z</time></trkpt><trkpt lat="44.5972183" lon="7.8935733"><ele>227.60000000000002</ele><time>2026-04-12T14:27:51.455Z</time></trkpt><trkpt lat="44.5972633" lon="7.89351"><ele>227.39999999999998</ele><time>2026-04-12T14:27:52.455Z</time></trkpt><trkpt lat="44.597345" lon="7.8933933"><ele>227.2</ele><time>2026-04-12T14:27:54.455Z</time></trkpt><trkpt lat="44.597425" lon="7.893275"><ele>227.0</ele><time>2026-04-12T14:27:56.455Z</time></trkpt><trkpt lat="44.5975017" lon="7.8931533"><ele>226.25</ele><time>2026-04-12T14:27:58.455Z</time></trkpt><trkpt lat="44.5975767" lon="7.89302"><ele>225.5</ele><time>2026-04-12T14:28:00.455Z</time></trkpt><trkpt lat="44.5976533" lon="7.8928933"><ele>224.75</ele><time>2026-04-12T14:28:02.455Z</time></trkpt><trkpt lat="44.59773" lon="7.89276"><ele>224.0</ele><time>2026-04-12T14:28:04.455Z</time></trkpt><trkpt lat="44.597805" lon="7.8926367"><ele>224.6</ele><time>2026-04-12T14:28:06.455Z</time></trkpt><trkpt lat="44.5978783" lon="7.89252"><ele>225.2</ele><time>2026-04-12T14:28:08.455Z</time></trkpt><trkpt lat="44.5979683" lon="7.8924183"><ele>225.79999999999998</ele><time>2026-04-12T14:28:10.455Z</time></trkpt><trkpt lat="44.598065" lon="7.8923517"><ele>226.39999999999998</ele><time>2026-04-12T14:28:12.456Z</time></trkpt><trkpt lat="44.5981433" lon="7.8922933"><ele>227.0</ele><time>2026-04-12T14:28:14.455Z</time></trkpt><trkpt lat="44.5981733" lon="7.8921817"><ele>227.0</ele><time>2026-04-12T14:28:17.455Z</time></trkpt><trkpt lat="44.5981017" lon="7.892095"><ele>227.0</ele><time>2026-04-12T14:28:19.455Z</time></trkpt><trkpt lat="44.597995" lon="7.8920467"><ele>227.0</ele><time>2026-04-12T14:28:21.455Z</time></trkpt><trkpt lat="44.5978883" lon="7.8919983"><ele>227.0</ele><time>2026-04-12T14:28:23.455Z</time></trkpt><trkpt lat="44.5977733" lon="7.891945"><ele>227.0</ele><time>2026-04-12T14:28:25.455Z</time></trkpt><trkpt lat="44.5976567" lon="7.8919"><ele>226.8</ele><time>2026-04-12T14:28:27.455Z</time></trkpt><trkpt lat="44.5975433" lon="7.8918717"><ele>226.6</ele><time>2026-04-12T14:28:29.455Z</time></trkpt><trkpt lat="44.59746" lon="7.8917733"><ele>226.40000000000003</ele><time>2026-04-12T14:28:31.455Z</time></trkpt><trkpt lat="44.5974833" lon="7.8916233"><ele>226.20000000000002</ele><time>2026-04-12T14:28:33.455Z</time></trkpt><trkpt lat="44.5975367" lon="7.8915583"><ele>226.0</ele><time>2026-04-12T14:28:34.455Z</time></trkpt><trkpt lat="44.5976017" lon="7.8915117"><ele>225.49999999999997</ele><time>2026-04-12T14:28:35.455Z</time></trkpt><trkpt lat="44.5976683" lon="7.891475"><ele>225.0</ele><time>2026-04-12T14:28:36.455Z</time></trkpt><trkpt lat="44.597745" lon="7.89143"><ele>224.5</ele><time>2026-04-12T14:28:37.455Z</time></trkpt><trkpt lat="44.5978183" lon="7.8913767"><ele>224.0</ele><time>2026-04-12T14:28:38.455Z</time></trkpt><trkpt lat="44.5978867" lon="7.89131"><ele>223.49999999999997</ele><time>2026-04-12T14:28:39.455Z</time></trkpt><trkpt lat="44.5979617" lon="7.891225"><ele>223.0</ele><time>2026-04-12T14:28:40.455Z</time></trkpt><trkpt lat="44.5980233" lon="7.8911283"><ele>223.0</ele><time>2026-04-12T14:28:41.455Z</time></trkpt><trkpt lat="44.598075" lon="7.891025"><ele>223.0</ele><time>2026-04-12T14:28:42.456Z</time></trkpt><trkpt lat="44.5981167" lon="7.890905"><ele>223.0</ele><time>2026-04-12T14:28:43.455Z</time></trkpt><trkpt lat="44.59815" lon="7.8907817"><ele>223.0</ele><time>2026-04-12T14:28:44.455Z</time></trkpt><trkpt lat="44.59818" lon="7.8906667"><ele>223.0</ele><time>2026-04-12T14:28:45.455Z</time></trkpt><trkpt lat="44.5982117" lon="7.8905417"><ele>222.2</ele><time>2026-04-12T14:28:46.455Z</time></trkpt><trkpt lat="44.5982417" lon="7.890415"><ele>221.4</ele><time>2026-04-12T14:28:47.455Z</time></trkpt><trkpt lat="44.5982667" lon="7.890295"><ele>220.59999999999997</ele><time>2026-04-12T14:28:48.455Z</time></trkpt><trkpt lat="44.59829" lon="7.89017"><ele>219.79999999999998</ele><time>2026-04-12T14:28:49.455Z</time></trkpt><trkpt lat="44.5983067" lon="7.8900483"><ele>219.0</ele><time>2026-04-12T14:28:50.455Z</time></trkpt><trkpt lat="44.59832" lon="7.8899283"><ele>218.79999999999998</ele><time>2026-04-12T14:28:51.455Z</time></trkpt><trkpt lat="44.598335" lon="7.8898067"><ele>218.59999999999997</ele><time>2026-04-12T14:28:52.455Z</time></trkpt><trkpt lat="44.5983467" lon="7.889675"><ele>218.4</ele><time>2026-04-12T14:28:53.455Z</time></trkpt><trkpt lat="44.5983533" lon="7.889545"><ele>218.2</ele><time>2026-04-12T14:28:54.455Z</time></trkpt><trkpt lat="44.5983583" lon="7.88942"><ele>218.0</ele><time>2026-04-12T14:28:55.455Z</time></trkpt><trkpt lat="44.5983633" lon="7.88929"><ele>217.50000000000003</ele><time>2026-04-12T14:28:56.455Z</time></trkpt><trkpt lat="44.598365" lon="7.889165"><ele>217.0</ele><time>2026-04-12T14:28:57.455Z</time></trkpt><trkpt lat="44.5983667" lon="7.8890317"><ele>216.5</ele><time>2026-04-12T14:28:58.455Z</time></trkpt><trkpt lat="44.59836" lon="7.888905"><ele>216.0</ele><time>2026-04-12T14:28:59.455Z</time></trkpt><trkpt lat="44.5983567" lon="7.888785"><ele>215.50000000000003</ele><time>2026-04-12T14:29:00.455Z</time></trkpt><trkpt lat="44.5983467" lon="7.8886617"><ele>215.0</ele><time>2026-04-12T14:29:01.455Z</time></trkpt><trkpt lat="44.5983317" lon="7.8885417"><ele>214.50000000000003</ele><time>2026-04-12T14:29:02.455Z</time></trkpt><trkpt lat="44.59832" lon="7.8884233"><ele>214.0</ele><time>2026-04-12T14:29:03.455Z</time></trkpt><trkpt lat="44.5983067" lon="7.8883033"><ele>213.5</ele><time>2026-04-12T14:29:04.455Z</time></trkpt><trkpt lat="44.598295" lon="7.8881883"><ele>213.0</ele><time>2026-04-12T14:29:05.455Z</time></trkpt><trkpt lat="44.598275" lon="7.8880717"><ele>212.50000000000003</ele><time>2026-04-12T14:29:06.455Z</time></trkpt><trkpt lat="44.5982567" lon="7.8879633"><ele>212.0</ele><time>2026-04-12T14:29:07.455Z</time></trkpt><trkpt lat="44.5982367" lon="7.887845"><ele>212.00000000000003</ele><time>2026-04-12T14:29:08.455Z</time></trkpt><trkpt lat="44.5982167" lon="7.8877333"><ele>212.0</ele><time>2026-04-12T14:29:09.455Z</time></trkpt><trkpt lat="44.59819" lon="7.88762"><ele>212.0</ele><time>2026-04-12T14:29:10.455Z</time></trkpt><trkpt lat="44.5981617" lon="7.88751"><ele>212.0</ele><time>2026-04-12T14:29:11.455Z</time></trkpt><trkpt lat="44.5981417" lon="7.8874"><ele>212.00000000000003</ele><time>2026-04-12T14:29:12.455Z</time></trkpt><trkpt lat="44.5981217" lon="7.88729"><ele>212.0</ele><time>2026-04-12T14:29:13.455Z</time></trkpt><trkpt lat="44.5981" lon="7.8871817"><ele>211.50000000000003</ele><time>2026-04-12T14:29:14.455Z</time></trkpt><trkpt lat="44.5980783" lon="7.8870783"><ele>211.0</ele><time>2026-04-12T14:29:15.455Z</time></trkpt><trkpt lat="44.598055" lon="7.8869667"><ele>210.5</ele><time>2026-04-12T14:29:16.455Z</time></trkpt><trkpt lat="44.59803" lon="7.886865"><ele>210.0</ele><time>2026-04-12T14:29:17.455Z</time></trkpt><trkpt lat="44.59801" lon="7.886755"><ele>209.50000000000003</ele><time>2026-04-12T14:29:18.455Z</time></trkpt><trkpt lat="44.59799" lon="7.8866517"><ele>209.0</ele><time>2026-04-12T14:29:19.456Z</time></trkpt><trkpt lat="44.5979733" lon="7.8865467"><ele>209.16666666666669</ele><time>2026-04-12T14:29:20.455Z</time></trkpt><trkpt lat="44.5979583" lon="7.88644"><ele>209.33333333333334</ele><time>2026-04-12T14:29:21.455Z</time></trkpt><trkpt lat="44.5979367" lon="7.8863317"><ele>209.5</ele><time>2026-04-12T14:29:22.455Z</time></trkpt><trkpt lat="44.597915" lon="7.88623"><ele>209.66666666666669</ele><time>2026-04-12T14:29:23.455Z</time></trkpt><trkpt lat="44.5978983" lon="7.8861267"><ele>209.83333333333334</ele><time>2026-04-12T14:29:24.455Z</time></trkpt><trkpt lat="44.5978783" lon="7.8860283"><ele>210.0</ele><time>2026-04-12T14:29:25.455Z</time></trkpt><trkpt lat="44.5978617" lon="7.8859283"><ele>210.0</ele><time>2026-04-12T14:29:26.455Z</time></trkpt><trkpt lat="44.5978467" lon="7.8858367"><ele>210.0</ele><time>2026-04-12T14:29:27.455Z</time></trkpt><trkpt lat="44.5978367" lon="7.88574"><ele>210.0</ele><time>2026-04-12T14:29:28.455Z</time></trkpt><trkpt lat="44.5978233" lon="7.8856483"><ele>210.0</ele><time>2026-04-12T14:29:29.455Z</time></trkpt><trkpt lat="44.5978167" lon="7.885555"><ele>210.0</ele><time>2026-04-12T14:29:30.455Z</time></trkpt><trkpt lat="44.5978017" lon="7.88546"><ele>210.0</ele><time>2026-04-12T14:29:31.455Z</time></trkpt><trkpt lat="44.59779" lon="7.88536"><ele>210.0</ele><time>2026-04-12T14:29:32.455Z</time></trkpt><trkpt lat="44.5977783" lon="7.88526"><ele>210.0</ele><time>2026-04-12T14:29:33.455Z</time></trkpt><trkpt lat="44.5977683" lon="7.8851717"><ele>210.0</ele><time>2026-04-12T14:29:34.455Z</time></trkpt><trkpt lat="44.5977583" lon="7.88508"><ele>210.0</ele><time>2026-04-12T14:29:35.455Z</time></trkpt><trkpt lat="44.5977517" lon="7.884985"><ele>210.0</ele><time>2026-04-12T14:29:36.455Z</time></trkpt><trkpt lat="44.597745" lon="7.8848933"><ele>210.0</ele><time>2026-04-12T14:29:37.455Z</time></trkpt><trkpt lat="44.59773" lon="7.8847233"><ele>210.0</ele><time>2026-04-12T14:29:39.455Z</time></trkpt><trkpt lat="44.59773" lon="7.8845533"><ele>210.0</ele><time>2026-04-12T14:29:41.455Z</time></trkpt><trkpt lat="44.5977217" lon="7.8843817"><ele>210.0</ele><time>2026-04-12T14:29:43.455Z</time></trkpt><trkpt lat="44.5977183" lon="7.8842167"><ele>210.0</ele><time>2026-04-12T14:29:45.456Z</time></trkpt><trkpt lat="44.59772" lon="7.88405"><ele>210.0</ele><time>2026-04-12T14:29:47.455Z</time></trkpt><trkpt lat="44.5977167" lon="7.8838983"><ele>210.2</ele><time>2026-04-12T14:29:49.455Z</time></trkpt><trkpt lat="44.5977067" lon="7.8837433"><ele>210.4</ele><time>2026-04-12T14:29:51.455Z</time></trkpt><trkpt lat="44.59762" lon="7.8837133"><ele>210.60000000000002</ele><time>2026-04-12T14:29:53.455Z</time></trkpt><trkpt lat="44.5975567" lon="7.8838283"><ele>210.8</ele><time>2026-04-12T14:29:55.455Z</time></trkpt><trkpt lat="44.597535" lon="7.8840017"><ele>211.0</ele><time>2026-04-12T14:29:57.455Z</time></trkpt><trkpt lat="44.5975183" lon="7.8840933"><ele>210.99999999999997</ele><time>2026-04-12T14:29:58.455Z</time></trkpt><trkpt lat="44.5975033" lon="7.88419"><ele>211.0</ele><time>2026-04-12T14:29:59.455Z</time></trkpt><trkpt lat="44.5974983" lon="7.8842967"><ele>211.0</ele><time>2026-04-12T14:30:00.455Z</time></trkpt><trkpt lat="44.5974983" lon="7.8844083"><ele>211.0</ele><time>2026-04-12T14:30:01.455Z</time></trkpt><trkpt lat="44.5974967" lon="7.8845167"><ele>210.99999999999997</ele><time>2026-04-12T14:30:02.455Z</time></trkpt><trkpt lat="44.5974967" lon="7.8846283"><ele>211.0</ele><time>2026-04-12T14:30:03.455Z</time></trkpt><trkpt lat="44.597495" lon="7.8847417"><ele>210.83333333333331</ele><time>2026-04-12T14:30:04.455Z</time></trkpt><trkpt lat="44.5974867" lon="7.8848467"><ele>210.66666666666666</ele><time>2026-04-12T14:30:05.455Z</time></trkpt><trkpt lat="44.59747" lon="7.88496"><ele>210.5</ele><time>2026-04-12T14:30:06.455Z</time></trkpt><trkpt lat="44.5974467" lon="7.8850633"><ele>210.33333333333331</ele><time>2026-04-12T14:30:07.455Z</time></trkpt><trkpt lat="44.597415" lon="7.8851583"><ele>210.16666666666666</ele><time>2026-04-12T14:30:08.455Z</time></trkpt><trkpt lat="44.5973783" lon="7.8852533"><ele>210.0</ele><time>2026-04-12T14:30:09.455Z</time></trkpt><trkpt lat="44.597335" lon="7.8853367"><ele>210.0</ele><time>2026-04-12T14:30:10.455Z</time></trkpt><trkpt lat="44.5972917" lon="7.88541"><ele>210.0</ele><time>2026-04-12T14:30:11.455Z</time></trkpt><trkpt lat="44.59725" lon="7.8854867"><ele>210.0</ele><time>2026-04-12T14:30:12.455Z</time></trkpt><trkpt lat="44.5972083" lon="7.8855617"><ele>210.0</ele><time>2026-04-12T14:30:13.455Z</time></trkpt><trkpt lat="44.5971733" lon="7.8856433"><ele>210.0</ele><time>2026-04-12T14:30:14.456Z</time></trkpt><trkpt lat="44.59709" lon="7.8857683"><ele>210.0</ele><time>2026-04-12T14:30:16.455Z</time></trkpt><trkpt lat="44.5970033" lon="7.885875"><ele>209.8</ele><time>2026-04-12T14:30:18.455Z</time></trkpt><trkpt lat="44.5969083" lon="7.8859917"><ele>209.6</ele><time>2026-04-12T14:30:20.455Z</time></trkpt><trkpt lat="44.5968233" lon="7.886125"><ele>209.39999999999998</ele><time>2026-04-12T14:30:22.455Z</time></trkpt><trkpt lat="44.5967833" lon="7.886195"><ele>209.2</ele><time>2026-04-12T14:30:23.455Z</time></trkpt><trkpt lat="44.5967017" lon="7.8863117"><ele>209.0</ele><time>2026-04-12T14:30:25.455Z</time></trkpt><trkpt lat="44.5966083" lon="7.88642"><ele>209.0</ele><time>2026-04-12T14:30:27.455Z</time></trkpt><trkpt lat="44.596515" lon="7.8865283"><ele>209.0</ele><time>2026-04-12T14:30:29.455Z</time></trkpt><trkpt lat="44.5964667" lon="7.88659"><ele>209.0</ele><time>2026-04-12T14:30:30.456Z</time></trkpt><trkpt lat="44.596365" lon="7.8866683"><ele>209.0</ele><time>2026-04-12T14:30:32.455Z</time></trkpt><trkpt lat="44.596245" lon="7.8867133"><ele>209.0</ele><time>2026-04-12T14:30:34.455Z</time></trkpt><trkpt lat="44.5961783" lon="7.88672"><ele>209.16666666666669</ele><time>2026-04-12T14:30:35.455Z</time></trkpt><trkpt lat="44.59611" lon="7.8867283"><ele>209.33333333333334</ele><time>2026-04-12T14:30:36.455Z</time></trkpt><trkpt lat="44.596045" lon="7.88674"><ele>209.5</ele><time>2026-04-12T14:30:37.455Z</time></trkpt><trkpt lat="44.59592" lon="7.8867483"><ele>209.66666666666669</ele><time>2026-04-12T14:30:39.455Z</time></trkpt><trkpt lat="44.5958467" lon="7.88676"><ele>209.83333333333334</ele><time>2026-04-12T14:30:40.455Z</time></trkpt><trkpt lat="44.5957783" lon="7.8867767"><ele>210.0</ele><time>2026-04-12T14:30:41.455Z</time></trkpt><trkpt lat="44.5957067" lon="7.8867883"><ele>210.0</ele><time>2026-04-12T14:30:42.455Z</time></trkpt><trkpt lat="44.5956367" lon="7.8867983"><ele>210.0</ele><time>2026-04-12T14:30:43.455Z</time></trkpt><trkpt lat="44.595565" lon="7.8868133"><ele>210.0</ele><time>2026-04-12T14:30:44.455Z</time></trkpt><trkpt lat="44.59549" lon="7.8868317"><ele>210.0</ele><time>2026-04-12T14:30:45.455Z</time></trkpt><trkpt lat="44.5954233" lon="7.88686"><ele>210.0</ele><time>2026-04-12T14:30:46.455Z</time></trkpt><trkpt lat="44.5953633" lon="7.8868967"><ele>210.0</ele><time>2026-04-12T14:30:47.455Z</time></trkpt><trkpt lat="44.5953017" lon="7.8869183"><ele>210.0</ele><time>2026-04-12T14:30:48.455Z</time></trkpt><trkpt lat="44.5952317" lon="7.8869333"><ele>210.0</ele><time>2026-04-12T14:30:49.455Z</time></trkpt><trkpt lat="44.595165" lon="7.8869417"><ele>210.0</ele><time>2026-04-12T14:30:50.455Z</time></trkpt><trkpt lat="44.5951" lon="7.8869517"><ele>210.0</ele><time>2026-04-12T14:30:51.455Z</time></trkpt><trkpt lat="44.5950333" lon="7.88696"><ele>210.0</ele><time>2026-04-12T14:30:52.455Z</time></trkpt><trkpt lat="44.5949617" lon="7.886965"><ele>210.0</ele><time>2026-04-12T14:30:53.455Z</time></trkpt><trkpt lat="44.5948933" lon="7.8869683"><ele>210.0</ele><time>2026-04-12T14:30:54.455Z</time></trkpt><trkpt lat="44.594825" lon="7.88697"><ele>210.0</ele><time>2026-04-12T14:30:55.455Z</time></trkpt><trkpt lat="44.5947583" lon="7.8869667"><ele>210.0</ele><time>2026-04-12T14:30:56.455Z</time></trkpt><trkpt lat="44.5946917" lon="7.8869667"><ele>210.0</ele><time>2026-04-12T14:30:57.456Z</time></trkpt><trkpt lat="44.5946233" lon="7.8869583"><ele>210.0</ele><time>2026-04-12T14:30:58.455Z</time></trkpt><trkpt lat="44.5945533" lon="7.88695"><ele>210.0</ele><time>2026-04-12T14:30:59.455Z</time></trkpt><trkpt lat="44.5944833" lon="7.8869367"><ele>210.0</ele><time>2026-04-12T14:31:00.455Z</time></trkpt><trkpt lat="44.5944133" lon="7.8869217"><ele>210.0</ele><time>2026-04-12T14:31:01.455Z</time></trkpt><trkpt lat="44.594345" lon="7.8869"><ele>210.0</ele><time>2026-04-12T14:31:02.455Z</time></trkpt><trkpt lat="44.5942783" lon="7.8868883"><ele>210.14285714285714</ele><time>2026-04-12T14:31:03.455Z</time></trkpt><trkpt lat="44.594215" lon="7.8868767"><ele>210.28571428571428</ele><time>2026-04-12T14:31:04.455Z</time></trkpt><trkpt lat="44.59415" lon="7.8868667"><ele>210.42857142857144</ele><time>2026-04-12T14:31:05.455Z</time></trkpt><trkpt lat="44.5940883" lon="7.88684"><ele>210.57142857142856</ele><time>2026-04-12T14:31:06.455Z</time></trkpt><trkpt lat="44.5940183" lon="7.8868217"><ele>210.71428571428572</ele><time>2026-04-12T14:31:07.455Z</time></trkpt><trkpt lat="44.5939483" lon="7.8868083"><ele>210.85714285714286</ele><time>2026-04-12T14:31:08.455Z</time></trkpt><trkpt lat="44.5938833" lon="7.8867917"><ele>211.0</ele><time>2026-04-12T14:31:09.455Z</time></trkpt><trkpt lat="44.5938183" lon="7.8867767"><ele>210.99999999999997</ele><time>2026-04-12T14:31:10.455Z</time></trkpt><trkpt lat="44.5937517" lon="7.886765"><ele>211.0</ele><time>2026-04-12T14:31:11.455Z</time></trkpt><trkpt lat="44.5936267" lon="7.8867333"><ele>211.0</ele><time>2026-04-12T14:31:13.455Z</time></trkpt><trkpt lat="44.5935633" lon="7.88671"><ele>211.0</ele><time>2026-04-12T14:31:14.455Z</time></trkpt><trkpt lat="44.5935" lon="7.8866933"><ele>210.99999999999997</ele><time>2026-04-12T14:31:15.455Z</time></trkpt><trkpt lat="44.593435" lon="7.8866817"><ele>211.0</ele><time>2026-04-12T14:31:16.455Z</time></trkpt><trkpt lat="44.5933683" lon="7.8866533"><ele>211.0</ele><time>2026-04-12T14:31:17.455Z</time></trkpt><trkpt lat="44.5933033" lon="7.8866383"><ele>211.0</ele><time>2026-04-12T14:31:18.455Z</time></trkpt><trkpt lat="44.5932383" lon="7.88662"><ele>211.0</ele><time>2026-04-12T14:31:19.455Z</time></trkpt><trkpt lat="44.593175" lon="7.8866"><ele>211.0</ele><time>2026-04-12T14:31:20.455Z</time></trkpt><trkpt lat="44.59311" lon="7.88658"><ele>211.0</ele><time>2026-04-12T14:31:21.456Z</time></trkpt><trkpt lat="44.5930483" lon="7.8865583"><ele>211.0</ele><time>2026-04-12T14:31:22.455Z</time></trkpt><trkpt lat="44.5929867" lon="7.8865317"><ele>211.0</ele><time>2026-04-12T14:31:23.455Z</time></trkpt><trkpt lat="44.592925" lon="7.88649"><ele>210.99999999999997</ele><time>2026-04-12T14:31:24.455Z</time></trkpt><trkpt lat="44.5928633" lon="7.88645"><ele>211.0</ele><time>2026-04-12T14:31:25.455Z</time></trkpt><trkpt lat="44.5928033" lon="7.8864017"><ele>211.0</ele><time>2026-04-12T14:31:26.455Z</time></trkpt><trkpt lat="44.5927533" lon="7.8863433"><ele>211.0</ele><time>2026-04-12T14:31:27.455Z</time></trkpt><trkpt lat="44.5926733" lon="7.8862133"><ele>210.99999999999997</ele><time>2026-04-12T14:31:29.456Z</time></trkpt><trkpt lat="44.5926467" lon="7.8861267"><ele>211.0</ele><time>2026-04-12T14:31:30.455Z</time></trkpt><trkpt lat="44.5926267" lon="7.8860417"><ele>210.99999999999997</ele><time>2026-04-12T14:31:31.455Z</time></trkpt><trkpt lat="44.5926117" lon="7.88595"><ele>211.0</ele><time>2026-04-12T14:31:32.456Z</time></trkpt><trkpt lat="44.5925983" lon="7.8858633"><ele>211.0</ele><time>2026-04-12T14:31:33.455Z</time></trkpt><trkpt lat="44.59257" lon="7.8857033"><ele>211.0</ele><time>2026-04-12T14:31:35.455Z</time></trkpt><trkpt lat="44.59254" lon="7.8855767"><ele>210.99999999999997</ele><time>2026-04-12T14:31:37.455Z</time></trkpt><trkpt lat="44.5925133" lon="7.8854467"><ele>211.0</ele><time>2026-04-12T14:31:39.455Z</time></trkpt><trkpt lat="44.5924917" lon="7.88532"><ele>211.66666666666666</ele><time>2026-04-12T14:31:41.455Z</time></trkpt><trkpt lat="44.5924683" lon="7.885195"><ele>212.33333333333331</ele><time>2026-04-12T14:31:43.456Z</time></trkpt><trkpt lat="44.5924633" lon="7.8850733"><ele>213.0</ele><time>2026-04-12T14:31:45.455Z</time></trkpt><trkpt lat="44.59244" lon="7.8849717"><ele>213.66666666666669</ele><time>2026-04-12T14:31:47.455Z</time></trkpt><trkpt lat="44.59242" lon="7.8848817"><ele>214.33333333333334</ele><time>2026-04-12T14:31:49.455Z</time></trkpt><trkpt lat="44.5924233" lon="7.8847917"><ele>215.0</ele><time>2026-04-12T14:31:51.455Z</time></trkpt><trkpt lat="44.5924167" lon="7.8846883"><ele>215.28571428571428</ele><time>2026-04-12T14:31:53.455Z</time></trkpt><trkpt lat="44.5924067" lon="7.8845817"><ele>215.57142857142858</ele><time>2026-04-12T14:31:55.455Z</time></trkpt><trkpt lat="44.5923917" lon="7.8844867"><ele>215.85714285714286</ele><time>2026-04-12T14:31:57.456Z</time></trkpt><trkpt lat="44.592385" lon="7.8843967"><ele>216.14285714285714</ele><time>2026-04-12T14:31:59.455Z</time></trkpt><trkpt lat="44.5923717" lon="7.8843017"><ele>216.42857142857144</ele><time>2026-04-12T14:32:01.455Z</time></trkpt><trkpt lat="44.5923517" lon="7.8842083"><ele>216.71428571428572</ele><time>2026-04-12T14:32:03.455Z</time></trkpt><trkpt lat="44.5923333" lon="7.884105"><ele>217.0</ele><time>2026-04-12T14:32:05.455Z</time></trkpt><trkpt lat="44.5923183" lon="7.8839867"><ele>217.99999999999997</ele><time>2026-04-12T14:32:08.455Z</time></trkpt><trkpt lat="44.5922917" lon="7.883875"><ele>219.0</ele><time>2026-04-12T14:32:11.455Z</time></trkpt><trkpt lat="44.592285" lon="7.8837633"><ele>220.0</ele><time>2026-04-12T14:32:14.456Z</time></trkpt><trkpt lat="44.5922767" lon="7.883675"><ele>221.0</ele><time>2026-04-12T14:32:17.455Z</time></trkpt><trkpt lat="44.5922817" lon="7.8835683"><ele>221.99999999999997</ele><time>2026-04-12T14:32:20.455Z</time></trkpt><trkpt lat="44.5922967" lon="7.883455"><ele>223.0</ele><time>2026-04-12T14:32:23.455Z</time></trkpt><trkpt lat="44.592315" lon="7.88333"><ele>223.33333333333331</ele><time>2026-04-12T14:32:26.455Z</time></trkpt><trkpt lat="44.5923283" lon="7.8832083"><ele>223.66666666666666</ele><time>2026-04-12T14:32:29.455Z</time></trkpt><trkpt lat="44.5923633" lon="7.883105"><ele>224.0</ele><time>2026-04-12T14:32:32.455Z</time></trkpt><trkpt lat="44.5923883" lon="7.8829883"><ele>224.33333333333331</ele><time>2026-04-12T14:32:35.455Z</time></trkpt><trkpt lat="44.5924133" lon="7.882875"><ele>224.66666666666666</ele><time>2026-04-12T14:32:38.455Z</time></trkpt><trkpt lat="44.59244" lon="7.88275"><ele>225.0</ele><time>2026-04-12T14:32:41.455Z</time></trkpt><trkpt lat="44.592465" lon="7.8826317"><ele>225.33333333333334</ele><time>2026-04-12T14:32:44.455Z</time></trkpt><trkpt lat="44.5924933" lon="7.8825167"><ele>225.66666666666669</ele><time>2026-04-12T14:32:47.455Z</time></trkpt><trkpt lat="44.592525" lon="7.8824033"><ele>226.0</ele><time>2026-04-12T14:32:50.455Z</time></trkpt><trkpt lat="44.592545" lon="7.8822833"><ele>226.33333333333334</ele><time>2026-04-12T14:32:53.455Z</time></trkpt><trkpt lat="44.5925717" lon="7.8821783"><ele>226.66666666666669</ele><time>2026-04-12T14:32:56.455Z</time></trkpt><trkpt lat="44.5925967" lon="7.882065"><ele>227.0</ele><time>2026-04-12T14:32:59.455Z</time></trkpt><trkpt lat="44.59262" lon="7.8819617"><ele>227.00000000000003</ele><time>2026-04-12T14:33:02.455Z</time></trkpt><trkpt lat="44.5926483" lon="7.8818633"><ele>227.0</ele><time>2026-04-12T14:33:05.455Z</time></trkpt><trkpt lat="44.5926817" lon="7.8817583"><ele>227.0</ele><time>2026-04-12T14:33:08.455Z</time></trkpt><trkpt lat="44.59271" lon="7.8816567"><ele>227.0</ele><time>2026-04-12T14:33:11.455Z</time></trkpt><trkpt lat="44.5927383" lon="7.8815433"><ele>227.00000000000003</ele><time>2026-04-12T14:33:14.455Z</time></trkpt><trkpt lat="44.592775" lon="7.8814367"><ele>227.0</ele><time>2026-04-12T14:33:17.455Z</time></trkpt><trkpt lat="44.5928067" lon="7.881335"><ele>228.33333333333334</ele><time>2026-04-12T14:33:20.455Z</time></trkpt><trkpt lat="44.5928533" lon="7.8812733"><ele>229.66666666666669</ele><time>2026-04-12T14:33:23.455Z</time></trkpt><trkpt lat="44.59292" lon="7.881245"><ele>231.0</ele><time>2026-04-12T14:33:26.455Z</time></trkpt><trkpt lat="44.5929933" lon="7.8812133"><ele>232.33333333333331</ele><time>2026-04-12T14:33:29.456Z</time></trkpt><trkpt lat="44.5930733" lon="7.8811933"><ele>233.66666666666666</ele><time>2026-04-12T14:33:32.456Z</time></trkpt><trkpt lat="44.5931483" lon="7.88119"><ele>235.0</ele><time>2026-04-12T14:33:35.455Z</time></trkpt><trkpt lat="44.5932333" lon="7.8811817"><ele>234.99999999999997</ele><time>2026-04-12T14:33:38.455Z</time></trkpt><trkpt lat="44.5933167" lon="7.8811617"><ele>235.0</ele><time>2026-04-12T14:33:41.455Z</time></trkpt><trkpt lat="44.5934" lon="7.8811467"><ele>235.0</ele><time>2026-04-12T14:33:44.455Z</time></trkpt><trkpt lat="44.5934783" lon="7.8811483"><ele>235.0</ele><time>2026-04-12T14:33:47.455Z</time></trkpt><trkpt lat="44.5935533" lon="7.8811533"><ele>234.99999999999997</ele><time>2026-04-12T14:33:50.455Z</time></trkpt><trkpt lat="44.5936167" lon="7.8811383"><ele>235.0</ele><time>2026-04-12T14:33:53.455Z</time></trkpt><trkpt lat="44.5936833" lon="7.88109"><ele>234.16666666666666</ele><time>2026-04-12T14:33:56.455Z</time></trkpt><trkpt lat="44.5937367" lon="7.8810117"><ele>233.33333333333331</ele><time>2026-04-12T14:33:59.455Z</time></trkpt><trkpt lat="44.5937667" lon="7.8808967"><ele>232.5</ele><time>2026-04-12T14:34:02.455Z</time></trkpt><trkpt lat="44.5937767" lon="7.8808083"><ele>231.66666666666669</ele><time>2026-04-12T14:34:04.455Z</time></trkpt><trkpt lat="44.5937583" lon="7.88072"><ele>230.83333333333334</ele><time>2026-04-12T14:34:06.455Z</time></trkpt><trkpt lat="44.59372" lon="7.8806467"><ele>230.0</ele><time>2026-04-12T14:34:08.455Z</time></trkpt><trkpt lat="44.59366" lon="7.8805417"><ele>232.28571428571425</ele><time>2026-04-12T14:34:11.455Z</time></trkpt><trkpt lat="44.5936317" lon="7.8804467"><ele>234.57142857142856</ele><time>2026-04-12T14:34:13.456Z</time></trkpt><trkpt lat="44.5936017" lon="7.8803467"><ele>236.85714285714286</ele><time>2026-04-12T14:34:15.455Z</time></trkpt><trkpt lat="44.5935767" lon="7.8802533"><ele>239.14285714285714</ele><time>2026-04-12T14:34:17.455Z</time></trkpt><trkpt lat="44.5935467" lon="7.880165"><ele>241.42857142857144</ele><time>2026-04-12T14:34:19.455Z</time></trkpt><trkpt lat="44.5935117" lon="7.88009"><ele>243.71428571428575</ele><time>2026-04-12T14:34:21.455Z</time></trkpt><trkpt lat="44.593475" lon="7.87998"><ele>246.00000000000003</ele><time>2026-04-12T14:34:24.455Z</time></trkpt><trkpt lat="44.5934367" lon="7.87987"><ele>247.16666666666666</ele><time>2026-04-12T14:34:27.455Z</time></trkpt><trkpt lat="44.593415" lon="7.8797517"><ele>248.33333333333331</ele><time>2026-04-12T14:34:30.455Z</time></trkpt><trkpt lat="44.5933933" lon="7.8796267"><ele>249.5</ele><time>2026-04-12T14:34:33.455Z</time></trkpt><trkpt lat="44.5933883" lon="7.879505"><ele>250.66666666666666</ele><time>2026-04-12T14:34:36.455Z</time></trkpt><trkpt lat="44.59339" lon="7.8793833"><ele>251.83333333333331</ele><time>2026-04-12T14:34:39.455Z</time></trkpt><trkpt lat="44.5933983" lon="7.879265"><ele>253.0</ele><time>2026-04-12T14:34:42.455Z</time></trkpt><trkpt lat="44.59342" lon="7.8791433"><ele>253.83333333333331</ele><time>2026-04-12T14:34:45.455Z</time></trkpt><trkpt lat="44.593435" lon="7.8790567"><ele>254.66666666666666</ele><time>2026-04-12T14:34:47.455Z</time></trkpt><trkpt lat="44.5934483" lon="7.8789367"><ele>255.5</ele><time>2026-04-12T14:34:50.455Z</time></trkpt><trkpt lat="44.5934683" lon="7.8788267"><ele>256.3333333333333</ele><time>2026-04-12T14:34:53.455Z</time></trkpt><trkpt lat="44.5934917" lon="7.8787083"><ele>257.1666666666667</ele><time>2026-04-12T14:34:56.455Z</time></trkpt><trkpt lat="44.5935067" lon="7.8786217"><ele>258.0</ele><time>2026-04-12T14:34:58.455Z</time></trkpt><trkpt lat="44.593535" lon="7.8785133"><ele>258.3333333333333</ele><time>2026-04-12T14:35:01.455Z</time></trkpt><trkpt lat="44.5935617" lon="7.8783933"><ele>258.6666666666667</ele><time>2026-04-12T14:35:04.455Z</time></trkpt><trkpt lat="44.5935817" lon="7.8782733"><ele>259.0</ele><time>2026-04-12T14:35:07.455Z</time></trkpt><trkpt lat="44.5936017" lon="7.878175"><ele>259.33333333333337</ele><time>2026-04-12T14:35:10.456Z</time></trkpt><trkpt lat="44.593615" lon="7.87806"><ele>259.6666666666667</ele><time>2026-04-12T14:35:13.455Z</time></trkpt><trkpt lat="44.59363" lon="7.8779567"><ele>260.0</ele><time>2026-04-12T14:35:16.455Z</time></trkpt><trkpt lat="44.5936517" lon="7.877835"><ele>260.0</ele><time>2026-04-12T14:35:19.455Z</time></trkpt><trkpt lat="44.5936717" lon="7.877705"><ele>260.0</ele><time>2026-04-12T14:35:22.455Z</time></trkpt><trkpt lat="44.5937" lon="7.877585"><ele>260.0</ele><time>2026-04-12T14:35:25.455Z</time></trkpt><trkpt lat="44.59373" lon="7.8774733"><ele>260.0</ele><time>2026-04-12T14:35:28.455Z</time></trkpt><trkpt lat="44.593755" lon="7.8773583"><ele>260.0</ele><time>2026-04-12T14:35:31.455Z</time></trkpt><trkpt lat="44.59377" lon="7.8772483"><ele>260.0</ele><time>2026-04-12T14:35:34.455Z</time></trkpt><trkpt lat="44.5937933" lon="7.8771483"><ele>264.33333333333337</ele><time>2026-04-12T14:35:36.455Z</time></trkpt><trkpt lat="44.593825" lon="7.87702"><ele>268.6666666666667</ele><time>2026-04-12T14:35:39.455Z</time></trkpt><trkpt lat="44.5938433" lon="7.8768967"><ele>273.0</ele><time>2026-04-12T14:35:42.455Z</time></trkpt><trkpt lat="44.5938633" lon="7.8768083"><ele>277.3333333333333</ele><time>2026-04-12T14:35:44.455Z</time></trkpt><trkpt lat="44.5938967" lon="7.8767017"><ele>281.66666666666663</ele><time>2026-04-12T14:35:47.455Z</time></trkpt><trkpt lat="44.5939767" lon="7.8766833"><ele>286.0</ele><time>2026-04-12T14:35:50.455Z</time></trkpt><trkpt lat="44.59402" lon="7.87678"><ele>286.0</ele><time>2026-04-12T14:35:53.455Z</time></trkpt><trkpt lat="44.59403" lon="7.8769"><ele>286.0</ele><time>2026-04-12T14:35:56.455Z</time></trkpt><trkpt lat="44.594035" lon="7.8770233"><ele>286.0</ele><time>2026-04-12T14:35:59.455Z</time></trkpt><trkpt lat="44.5940467" lon="7.8771383"><ele>286.0</ele><time>2026-04-12T14:36:02.455Z</time></trkpt><trkpt lat="44.5940567" lon="7.8772483"><ele>286.0</ele><time>2026-04-12T14:36:05.455Z</time></trkpt><trkpt lat="44.5940667" lon="7.87737"><ele>286.0</ele><time>2026-04-12T14:36:08.455Z</time></trkpt><trkpt lat="44.59407" lon="7.877495"><ele>286.0</ele><time>2026-04-12T14:36:11.455Z</time></trkpt><trkpt lat="44.5940867" lon="7.8776283"><ele>286.0</ele><time>2026-04-12T14:36:14.455Z</time></trkpt><trkpt lat="44.5940933" lon="7.8777383"><ele>286.0</ele><time>2026-04-12T14:36:17.455Z</time></trkpt><trkpt lat="44.5941017" lon="7.8778683"><ele>286.0</ele><time>2026-04-12T14:36:20.455Z</time></trkpt><trkpt lat="44.5941067" lon="7.8779633"><ele>286.0</ele><time>2026-04-12T14:36:22.455Z</time></trkpt><trkpt lat="44.59412" lon="7.8780683"><ele>286.0</ele><time>2026-04-12T14:36:24.455Z</time></trkpt><trkpt lat="44.5941283" lon="7.8781633"><ele>285.99999999999994</ele><time>2026-04-12T14:36:26.455Z</time></trkpt><trkpt lat="44.5941367" lon="7.8782633"><ele>286.0</ele><time>2026-04-12T14:36:28.456Z</time></trkpt><trkpt lat="44.59415" lon="7.8783517"><ele>286.0</ele><time>2026-04-12T14:36:30.455Z</time></trkpt><trkpt lat="44.594155" lon="7.8784833"><ele>286.0</ele><time>2026-04-12T14:36:33.455Z</time></trkpt><trkpt lat="44.5941767" lon="7.8785783"><ele>286.0</ele><time>2026-04-12T14:36:35.455Z</time></trkpt><trkpt lat="44.5942083" lon="7.87866"><ele>285.99999999999994</ele><time>2026-04-12T14:36:37.455Z</time></trkpt><trkpt lat="44.5942667" lon="7.8787367"><ele>286.0</ele><time>2026-04-12T14:36:39.455Z</time></trkpt><trkpt lat="44.5943417" lon="7.8787283"><ele>286.0</ele><time>2026-04-12T14:36:42.455Z</time></trkpt><trkpt lat="44.5943683" lon="7.878635"><ele>286.0</ele><time>2026-04-12T14:36:44.455Z</time></trkpt><trkpt lat="44.594385" lon="7.878525"><ele>286.0</ele><time>2026-04-12T14:36:46.455Z</time></trkpt><trkpt lat="44.5943967" lon="7.8784083"><ele>286.0</ele><time>2026-04-12T14:36:49.455Z</time></trkpt><trkpt lat="44.5944033" lon="7.8783"><ele>286.0</ele><time>2026-04-12T14:36:51.455Z</time></trkpt><trkpt lat="44.594415" lon="7.87818"><ele>286.0</ele><time>2026-04-12T14:36:53.455Z</time></trkpt><trkpt lat="44.5944317" lon="7.8780617"><ele>285.99999999999994</ele><time>2026-04-12T14:36:55.455Z</time></trkpt><trkpt lat="44.5944367" lon="7.8779733"><ele>286.0</ele><time>2026-04-12T14:36:57.455Z</time></trkpt><trkpt lat="44.5944567" lon="7.8778717"><ele>286.0</ele><time>2026-04-12T14:36:59.455Z</time></trkpt><trkpt lat="44.5944733" lon="7.87776"><ele>286.0</ele><time>2026-04-12T14:37:01.455Z</time></trkpt><trkpt lat="44.5944883" lon="7.8776683"><ele>286.0</ele><time>2026-04-12T14:37:03.456Z</time></trkpt><trkpt lat="44.5944983" lon="7.877575"><ele>285.99999999999994</ele><time>2026-04-12T14:37:05.455Z</time></trkpt><trkpt lat="44.5945183" lon="7.877445"><ele>286.0</ele><time>2026-04-12T14:37:08.455Z</time></trkpt><trkpt lat="44.594535" lon="7.8773483"><ele>289.2857142857143</ele><time>2026-04-12T14:37:10.455Z</time></trkpt><trkpt lat="44.5945583" lon="7.8772517"><ele>292.57142857142856</ele><time>2026-04-12T14:37:12.455Z</time></trkpt><trkpt lat="44.5945717" lon="7.8771567"><ele>295.8571428571429</ele><time>2026-04-12T14:37:14.455Z</time></trkpt><trkpt lat="44.5945867" lon="7.87706"><ele>299.1428571428571</ele><time>2026-04-12T14:37:16.455Z</time></trkpt><trkpt lat="44.5946033" lon="7.87695"><ele>302.42857142857144</ele><time>2026-04-12T14:37:18.455Z</time></trkpt><trkpt lat="44.5946083" lon="7.8768383"><ele>305.7142857142857</ele><time>2026-04-12T14:37:20.455Z</time></trkpt><trkpt lat="44.5946133" lon="7.87674"><ele>309.0</ele><time>2026-04-12T14:37:22.456Z</time></trkpt><trkpt lat="44.5946167" lon="7.876625"><ele>309.5</ele><time>2026-04-12T14:37:24.455Z</time></trkpt><trkpt lat="44.5946133" lon="7.876515"><ele>310.0</ele><time>2026-04-12T14:37:26.456Z</time></trkpt><trkpt lat="44.5945983" lon="7.8764133"><ele>310.5</ele><time>2026-04-12T14:37:28.455Z</time></trkpt><trkpt lat="44.5945717" lon="7.87631"><ele>311.0</ele><time>2026-04-12T14:37:30.455Z</time></trkpt><trkpt lat="44.5945467" lon="7.87621"><ele>311.5</ele><time>2026-04-12T14:37:32.455Z</time></trkpt><trkpt lat="44.5945117" lon="7.8761217"><ele>312.0</ele><time>2026-04-12T14:37:34.455Z</time></trkpt><trkpt lat="44.5944733" lon="7.876035"><ele>310.2857142857143</ele><time>2026-04-12T14:37:36.455Z</time></trkpt><trkpt lat="44.594445" lon="7.8759417"><ele>308.57142857142856</ele><time>2026-04-12T14:37:38.455Z</time></trkpt><trkpt lat="44.5944217" lon="7.8758583"><ele>306.85714285714283</ele><time>2026-04-12T14:37:40.455Z</time></trkpt><trkpt lat="44.5944" lon="7.87576"><ele>305.1428571428571</ele><time>2026-04-12T14:37:42.455Z</time></trkpt><trkpt lat="44.59438" lon="7.875645"><ele>303.42857142857144</ele><time>2026-04-12T14:37:44.455Z</time></trkpt><trkpt lat="44.5943683" lon="7.8755417"><ele>301.71428571428567</ele><time>2026-04-12T14:37:46.455Z</time></trkpt><trkpt lat="44.59435" lon="7.8754433"><ele>300.0</ele><time>2026-04-12T14:37:48.455Z</time></trkpt><trkpt lat="44.59434" lon="7.8753467"><ele>300.0</ele><time>2026-04-12T14:37:50.455Z</time></trkpt><trkpt lat="44.594325" lon="7.875215"><ele>300.0</ele><time>2026-04-12T14:37:53.455Z</time></trkpt><trkpt lat="44.594315" lon="7.8751133"><ele>300.0</ele><time>2026-04-12T14:37:55.456Z</time></trkpt><trkpt lat="44.5943" lon="7.8750033"><ele>300.0</ele><time>2026-04-12T14:37:57.455Z</time></trkpt><trkpt lat="44.5942967" lon="7.8748833"><ele>300.0</ele><time>2026-04-12T14:37:59.455Z</time></trkpt><trkpt lat="44.5942983" lon="7.8747817"><ele>300.0</ele><time>2026-04-12T14:38:01.455Z</time></trkpt><trkpt lat="44.594285" lon="7.8746883"><ele>301.2857142857143</ele><time>2026-04-12T14:38:03.455Z</time></trkpt><trkpt lat="44.5942733" lon="7.874585"><ele>302.57142857142856</ele><time>2026-04-12T14:38:05.455Z</time></trkpt><trkpt lat="44.5942583" lon="7.8744867"><ele>303.8571428571429</ele><time>2026-04-12T14:38:07.455Z</time></trkpt><trkpt lat="44.5942417" lon="7.8743967"><ele>305.1428571428571</ele><time>2026-04-12T14:38:09.455Z</time></trkpt><trkpt lat="44.5942333" lon="7.8743083"><ele>306.42857142857144</ele><time>2026-04-12T14:38:11.455Z</time></trkpt><trkpt lat="44.59423" lon="7.8742183"><ele>307.7142857142857</ele><time>2026-04-12T14:38:13.455Z</time></trkpt><trkpt lat="44.59421" lon="7.8740933"><ele>309.0</ele><time>2026-04-12T14:38:16.455Z</time></trkpt><trkpt lat="44.5942017" lon="7.874005"><ele>310.1666666666667</ele><time>2026-04-12T14:38:18.455Z</time></trkpt><trkpt lat="44.59421" lon="7.8739083"><ele>311.3333333333333</ele><time>2026-04-12T14:38:20.455Z</time></trkpt><trkpt lat="44.5942233" lon="7.87381"><ele>312.5</ele><time>2026-04-12T14:38:22.455Z</time></trkpt><trkpt lat="44.59423" lon="7.87372"><ele>313.66666666666663</ele><time>2026-04-12T14:38:24.455Z</time></trkpt><trkpt lat="44.5942283" lon="7.8736033"><ele>314.8333333333333</ele><time>2026-04-12T14:38:27.455Z</time></trkpt><trkpt lat="44.5942367" lon="7.8734767"><ele>316.0</ele><time>2026-04-12T14:38:30.455Z</time></trkpt><trkpt lat="44.5942567" lon="7.8733367"><ele>317.4</ele><time>2026-04-12T14:38:32.455Z</time></trkpt><trkpt lat="44.5942867" lon="7.8732017"><ele>318.8</ele><time>2026-04-12T14:38:34.455Z</time></trkpt><trkpt lat="44.594315" lon="7.8730133"><ele>320.2</ele><time>2026-04-12T14:38:37.455Z</time></trkpt><trkpt lat="44.5943283" lon="7.87287"><ele>321.59999999999997</ele><time>2026-04-12T14:38:39.455Z</time></trkpt><trkpt lat="44.5943367" lon="7.8727283"><ele>323.0</ele><time>2026-04-12T14:38:41.455Z</time></trkpt><trkpt lat="44.5943283" lon="7.87264"><ele>323.5</ele><time>2026-04-12T14:38:43.455Z</time></trkpt><trkpt lat="44.5943133" lon="7.8725333"><ele>324.0</ele><time>2026-04-12T14:38:46.455Z</time></trkpt><trkpt lat="44.5943" lon="7.8724117"><ele>324.5</ele><time>2026-04-12T14:38:49.455Z</time></trkpt><trkpt lat="44.5942983" lon="7.8723017"><ele>325.0</ele><time>2026-04-12T14:38:51.455Z</time></trkpt><trkpt lat="44.5943" lon="7.872175"><ele>325.5</ele><time>2026-04-12T14:38:54.455Z</time></trkpt><trkpt lat="44.594305" lon="7.8720667"><ele>326.0</ele><time>2026-04-12T14:38:57.455Z</time></trkpt><trkpt lat="44.594295" lon="7.8719533"><ele>326.0</ele><time>2026-04-12T14:38:59.455Z</time></trkpt><trkpt lat="44.5942717" lon="7.8718233"><ele>326.0</ele><time>2026-04-12T14:39:01.455Z</time></trkpt><trkpt lat="44.5942483" lon="7.8716983"><ele>326.0</ele><time>2026-04-12T14:39:03.455Z</time></trkpt><trkpt lat="44.5942333" lon="7.8715917"><ele>326.0</ele><time>2026-04-12T14:39:05.455Z</time></trkpt><trkpt lat="44.5942317" lon="7.8714483"><ele>326.0</ele><time>2026-04-12T14:39:07.455Z</time></trkpt><trkpt lat="44.5942783" lon="7.8713083"><ele>325.83333333333337</ele><time>2026-04-12T14:39:09.455Z</time></trkpt><trkpt lat="44.5943483" lon="7.8712667"><ele>325.6666666666667</ele><time>2026-04-12T14:39:11.455Z</time></trkpt><trkpt lat="44.5944317" lon="7.8712533"><ele>325.5</ele><time>2026-04-12T14:39:13.455Z</time></trkpt><trkpt lat="44.5945117" lon="7.87124"><ele>325.3333333333333</ele><time>2026-04-12T14:39:15.455Z</time></trkpt><trkpt lat="44.5946017" lon="7.8712383"><ele>325.16666666666663</ele><time>2026-04-12T14:39:17.455Z</time></trkpt><trkpt lat="44.5946933" lon="7.8712083"><ele>325.0</ele><time>2026-04-12T14:39:19.455Z</time></trkpt><trkpt lat="44.5947917" lon="7.871175"><ele>325.0</ele><time>2026-04-12T14:39:21.455Z</time></trkpt><trkpt lat="44.5948817" lon="7.8711567"><ele>325.0</ele><time>2026-04-12T14:39:23.455Z</time></trkpt><trkpt lat="44.5949683" lon="7.87114"><ele>325.0</ele><time>2026-04-12T14:39:25.456Z</time></trkpt><trkpt lat="44.5950567" lon="7.871105"><ele>325.0</ele><time>2026-04-12T14:39:27.455Z</time></trkpt><trkpt lat="44.5951483" lon="7.87105"><ele>325.0</ele><time>2026-04-12T14:39:29.455Z</time></trkpt><trkpt lat="44.595255" lon="7.870965"><ele>325.6</ele><time>2026-04-12T14:39:31.455Z</time></trkpt><trkpt lat="44.5953467" lon="7.87087"><ele>326.2</ele><time>2026-04-12T14:39:33.455Z</time></trkpt><trkpt lat="44.5954317" lon="7.8708083"><ele>326.79999999999995</ele><time>2026-04-12T14:39:35.455Z</time></trkpt><trkpt lat="44.59553" lon="7.870775"><ele>327.4</ele><time>2026-04-12T14:39:37.455Z</time></trkpt><trkpt lat="44.5955933" lon="7.8707667"><ele>328.0</ele><time>2026-04-12T14:39:38.455Z</time></trkpt><trkpt lat="44.5957117" lon="7.8707583"><ele>328.0</ele><time>2026-04-12T14:39:40.455Z</time></trkpt><trkpt lat="44.5958183" lon="7.8707467"><ele>328.0</ele><time>2026-04-12T14:39:42.455Z</time></trkpt><trkpt lat="44.59592" lon="7.87072"><ele>328.0</ele><time>2026-04-12T14:39:44.455Z</time></trkpt><trkpt lat="44.5960083" lon="7.870705"><ele>328.0</ele><time>2026-04-12T14:39:46.455Z</time></trkpt><trkpt lat="44.5961067" lon="7.87068"><ele>328.0</ele><time>2026-04-12T14:39:48.455Z</time></trkpt><trkpt lat="44.596205" lon="7.8706533"><ele>327.79999999999995</ele><time>2026-04-12T14:39:50.455Z</time></trkpt><trkpt lat="44.5962967" lon="7.8706033"><ele>327.6</ele><time>2026-04-12T14:39:52.455Z</time></trkpt><trkpt lat="44.5964067" lon="7.8706083"><ele>327.4</ele><time>2026-04-12T14:39:54.455Z</time></trkpt><trkpt lat="44.596525" lon="7.8705967"><ele>327.20000000000005</ele><time>2026-04-12T14:39:56.455Z</time></trkpt><trkpt lat="44.5966367" lon="7.8705717"><ele>327.0</ele><time>2026-04-12T14:39:58.456Z</time></trkpt><trkpt lat="44.5967367" lon="7.8705217"><ele>327.0</ele><time>2026-04-12T14:40:00.455Z</time></trkpt><trkpt lat="44.5968217" lon="7.8704917"><ele>327.0</ele><time>2026-04-12T14:40:02.455Z</time></trkpt><trkpt lat="44.5969067" lon="7.8704933"><ele>327.0</ele><time>2026-04-12T14:40:04.455Z</time></trkpt><trkpt lat="44.5969783" lon="7.87047"><ele>327.0</ele><time>2026-04-12T14:40:06.455Z</time></trkpt><trkpt lat="44.597055" lon="7.8704317"><ele>327.0</ele><time>2026-04-12T14:40:09.455Z</time></trkpt><trkpt lat="44.5971283" lon="7.8704467"><ele>327.0</ele><time>2026-04-12T14:40:11.455Z</time></trkpt><trkpt lat="44.597195" lon="7.8704783"><ele>327.0</ele><time>2026-04-12T14:40:13.455Z</time></trkpt><trkpt lat="44.5972967" lon="7.8705017"><ele>327.0</ele><time>2026-04-12T14:41:21.455Z</time></trkpt><trkpt lat="44.5973833" lon="7.87053"><ele>327.0</ele><time>2026-04-12T14:41:24.455Z</time></trkpt><trkpt lat="44.5974783" lon="7.8705133"><ele>327.0</ele><time>2026-04-12T14:41:26.455Z</time></trkpt><trkpt lat="44.5975867" lon="7.8704967"><ele>327.0</ele><time>2026-04-12T14:41:28.455Z</time></trkpt><trkpt lat="44.5976867" lon="7.870465"><ele>327.0</ele><time>2026-04-12T14:41:30.455Z</time></trkpt><trkpt lat="44.5978083" lon="7.870445"><ele>327.0</ele><time>2026-04-12T14:41:32.455Z</time></trkpt><trkpt lat="44.597925" lon="7.8704"><ele>327.0</ele><time>2026-04-12T14:41:34.455Z</time></trkpt><trkpt lat="44.5980367" lon="7.8703833"><ele>327.0</ele><time>2026-04-12T14:41:36.455Z</time></trkpt><trkpt lat="44.59816" lon="7.87037"><ele>327.0</ele><time>2026-04-12T14:41:38.455Z</time></trkpt><trkpt lat="44.598225" lon="7.8703583"><ele>327.0</ele><time>2026-04-12T14:41:39.455Z</time></trkpt><trkpt lat="44.59829" lon="7.8703483"><ele>327.0</ele><time>2026-04-12T14:41:40.455Z</time></trkpt><trkpt lat="44.5983533" lon="7.8703383"><ele>327.0</ele><time>2026-04-12T14:41:41.455Z</time></trkpt><trkpt lat="44.59847" lon="7.870295"><ele>327.0</ele><time>2026-04-12T14:41:43.455Z</time></trkpt><trkpt lat="44.5985383" lon="7.87028"><ele>327.0</ele><time>2026-04-12T14:41:44.455Z</time></trkpt><trkpt lat="44.59861" lon="7.8702767"><ele>326.8333333333333</ele><time>2026-04-12T14:41:45.455Z</time></trkpt><trkpt lat="44.5986833" lon="7.8702717"><ele>326.6666666666667</ele><time>2026-04-12T14:41:46.455Z</time></trkpt><trkpt lat="44.5987567" lon="7.8702683"><ele>326.5</ele><time>2026-04-12T14:41:47.456Z</time></trkpt><trkpt lat="44.5988317" lon="7.870255"><ele>326.33333333333337</ele><time>2026-04-12T14:41:48.455Z</time></trkpt><trkpt lat="44.5989067" lon="7.87024"><ele>326.1666666666667</ele><time>2026-04-12T14:41:49.455Z</time></trkpt><trkpt lat="44.5989817" lon="7.870225"><ele>326.0</ele><time>2026-04-12T14:41:50.455Z</time></trkpt><trkpt lat="44.59906" lon="7.87021"><ele>326.0</ele><time>2026-04-12T14:41:51.455Z</time></trkpt><trkpt lat="44.599135" lon="7.8701967"><ele>326.0</ele><time>2026-04-12T14:41:52.455Z</time></trkpt><trkpt lat="44.59921" lon="7.870185"><ele>326.0</ele><time>2026-04-12T14:41:53.455Z</time></trkpt><trkpt lat="44.599285" lon="7.87017"><ele>326.0</ele><time>2026-04-12T14:41:54.455Z</time></trkpt><trkpt lat="44.5993617" lon="7.8701533"><ele>326.0</ele><time>2026-04-12T14:41:55.455Z</time></trkpt><trkpt lat="44.5994367" lon="7.8701367"><ele>326.0</ele><time>2026-04-12T14:41:56.455Z</time></trkpt><trkpt lat="44.5995117" lon="7.8701217"><ele>326.0</ele><time>2026-04-12T14:41:57.455Z</time></trkpt><trkpt lat="44.5995867" lon="7.8701133"><ele>326.0</ele><time>2026-04-12T14:41:58.455Z</time></trkpt><trkpt lat="44.5996633" lon="7.8701067"><ele>326.0</ele><time>2026-04-12T14:41:59.455Z</time></trkpt><trkpt lat="44.5997383" lon="7.870095"><ele>326.0</ele><time>2026-04-12T14:42:00.455Z</time></trkpt><trkpt lat="44.5998133" lon="7.8700883"><ele>326.0</ele><time>2026-04-12T14:42:01.455Z</time></trkpt><trkpt lat="44.5998883" lon="7.870085"><ele>326.0</ele><time>2026-04-12T14:42:02.455Z</time></trkpt><trkpt lat="44.59996" lon="7.87008"><ele>326.0</ele><time>2026-04-12T14:42:03.455Z</time></trkpt><trkpt lat="44.6000317" lon="7.870075"><ele>326.1666666666667</ele><time>2026-04-12T14:42:04.455Z</time></trkpt><trkpt lat="44.600105" lon="7.8700733"><ele>326.33333333333337</ele><time>2026-04-12T14:42:05.455Z</time></trkpt><trkpt lat="44.6001783" lon="7.8700617"><ele>326.5</ele><time>2026-04-12T14:42:06.455Z</time></trkpt><trkpt lat="44.6002483" lon="7.8700433"><ele>326.6666666666667</ele><time>2026-04-12T14:42:07.455Z</time></trkpt><trkpt lat="44.600325" lon="7.8700283"><ele>326.8333333333333</ele><time>2026-04-12T14:42:08.455Z</time></trkpt><trkpt lat="44.600405" lon="7.870015"><ele>327.0</ele><time>2026-04-12T14:42:09.455Z</time></trkpt><trkpt lat="44.60048" lon="7.87"><ele>327.0</ele><time>2026-04-12T14:42:10.455Z</time></trkpt><trkpt lat="44.6005533" lon="7.869985"><ele>327.0</ele><time>2026-04-12T14:42:11.455Z</time></trkpt><trkpt lat="44.6006267" lon="7.8699667"><ele>327.0</ele><time>2026-04-12T14:42:12.455Z</time></trkpt><trkpt lat="44.6007033" lon="7.8699433"><ele>327.0</ele><time>2026-04-12T14:42:13.455Z</time></trkpt><trkpt lat="44.6007767" lon="7.8699283"><ele>327.0</ele><time>2026-04-12T14:42:14.455Z</time></trkpt><trkpt lat="44.6008467" lon="7.8699217"><ele>327.0</ele><time>2026-04-12T14:42:15.455Z</time></trkpt><trkpt lat="44.6009217" lon="7.8699117"><ele>327.0</ele><time>2026-04-12T14:42:16.455Z</time></trkpt><trkpt lat="44.6009983" lon="7.869905"><ele>327.0</ele><time>2026-04-12T14:42:17.455Z</time></trkpt><trkpt lat="44.601075" lon="7.8698967"><ele>327.0</ele><time>2026-04-12T14:42:18.455Z</time></trkpt><trkpt lat="44.6011483" lon="7.8698867"><ele>327.0</ele><time>2026-04-12T14:42:19.455Z</time></trkpt><trkpt lat="44.601215" lon="7.8698783"><ele>327.0</ele><time>2026-04-12T14:42:20.455Z</time></trkpt><trkpt lat="44.6013317" lon="7.86986"><ele>327.0</ele><time>2026-04-12T14:42:22.455Z</time></trkpt><trkpt lat="44.6014383" lon="7.8698433"><ele>327.0</ele><time>2026-04-12T14:42:24.455Z</time></trkpt><trkpt lat="44.6015417" lon="7.8698183"><ele>327.0</ele><time>2026-04-12T14:42:26.455Z</time></trkpt><trkpt lat="44.6016417" lon="7.8698"><ele>327.0</ele><time>2026-04-12T14:42:28.455Z</time></trkpt><trkpt lat="44.6017417" lon="7.8698117"><ele>327.0</ele><time>2026-04-12T14:42:30.455Z</time></trkpt><trkpt lat="44.60181" lon="7.8698883"><ele>327.0</ele><time>2026-04-12T14:42:32.455Z</time></trkpt><trkpt lat="44.6018333" lon="7.8700383"><ele>327.0</ele><time>2026-04-12T14:42:34.455Z</time></trkpt><trkpt lat="44.6018533" lon="7.870195"><ele>326.3333333333333</ele><time>2026-04-12T14:42:36.455Z</time></trkpt><trkpt lat="44.6018783" lon="7.8703367"><ele>325.6666666666667</ele><time>2026-04-12T14:42:38.455Z</time></trkpt><trkpt lat="44.601895" lon="7.8704767"><ele>325.0</ele><time>2026-04-12T14:42:40.455Z</time></trkpt><trkpt lat="44.6019067" lon="7.8705967"><ele>324.33333333333337</ele><time>2026-04-12T14:42:42.455Z</time></trkpt><trkpt lat="44.60191" lon="7.8707117"><ele>323.6666666666667</ele><time>2026-04-12T14:42:44.455Z</time></trkpt><trkpt lat="44.6019433" lon="7.8707967"><ele>323.0</ele><time>2026-04-12T14:42:46.455Z</time></trkpt><trkpt lat="44.60202" lon="7.8708617"><ele>322.5</ele><time>2026-04-12T14:42:48.455Z</time></trkpt><trkpt lat="44.6021233" lon="7.8709117"><ele>322.0</ele><time>2026-04-12T14:42:50.455Z</time></trkpt><trkpt lat="44.6022417" lon="7.8709017"><ele>321.5</ele><time>2026-04-12T14:42:52.455Z</time></trkpt><trkpt lat="44.6023167" lon="7.8708683"><ele>321.0</ele><time>2026-04-12T14:42:53.455Z</time></trkpt><trkpt lat="44.60239" lon="7.8708467"><ele>320.5</ele><time>2026-04-12T14:42:54.455Z</time></trkpt><trkpt lat="44.602455" lon="7.8708283"><ele>320.0</ele><time>2026-04-12T14:42:55.455Z</time></trkpt><trkpt lat="44.6025267" lon="7.8707833"><ele>320.0</ele><time>2026-04-12T14:42:56.455Z</time></trkpt><trkpt lat="44.602595" lon="7.8707567"><ele>320.0</ele><time>2026-04-12T14:42:57.455Z</time></trkpt><trkpt lat="44.6026633" lon="7.8707317"><ele>320.0</ele><time>2026-04-12T14:42:58.455Z</time></trkpt><trkpt lat="44.6027333" lon="7.8707133"><ele>320.0</ele><time>2026-04-12T14:42:59.455Z</time></trkpt><trkpt lat="44.6027967" lon="7.8707033"><ele>320.0</ele><time>2026-04-12T14:43:00.455Z</time></trkpt><trkpt lat="44.602915" lon="7.8706867"><ele>320.0</ele><time>2026-04-12T14:43:02.455Z</time></trkpt><trkpt lat="44.60302" lon="7.8706483"><ele>320.4</ele><time>2026-04-12T14:43:04.455Z</time></trkpt><trkpt lat="44.6031283" lon="7.8706367"><ele>320.8</ele><time>2026-04-12T14:43:06.455Z</time></trkpt><trkpt lat="44.6032167" lon="7.87059"><ele>321.20000000000005</ele><time>2026-04-12T14:43:08.455Z</time></trkpt><trkpt lat="44.6032883" lon="7.8705183"><ele>321.6</ele><time>2026-04-12T14:43:10.456Z</time></trkpt><trkpt lat="44.6034083" lon="7.8705367"><ele>322.0</ele><time>2026-04-12T14:43:12.455Z</time></trkpt><trkpt lat="44.60353" lon="7.8705733"><ele>322.0</ele><time>2026-04-12T14:43:14.455Z</time></trkpt><trkpt lat="44.603645" lon="7.87059"><ele>322.0</ele><time>2026-04-12T14:43:16.455Z</time></trkpt><trkpt lat="44.6037133" lon="7.8705933"><ele>322.0</ele><time>2026-04-12T14:43:17.455Z</time></trkpt><trkpt lat="44.6037817" lon="7.8706"><ele>322.0</ele><time>2026-04-12T14:43:18.455Z</time></trkpt><trkpt lat="44.6038517" lon="7.8705967"><ele>322.0</ele><time>2026-04-12T14:43:19.455Z</time></trkpt><trkpt lat="44.60392" lon="7.8706"><ele>322.0</ele><time>2026-04-12T14:43:20.455Z</time></trkpt><trkpt lat="44.6039917" lon="7.8706017"><ele>322.0</ele><time>2026-04-12T14:43:21.455Z</time></trkpt><trkpt lat="44.6040567" lon="7.8705933"><ele>322.0</ele><time>2026-04-12T14:43:22.455Z</time></trkpt><trkpt lat="44.604125" lon="7.8705983"><ele>322.0</ele><time>2026-04-12T14:43:23.456Z</time></trkpt><trkpt lat="44.6041933" lon="7.870605"><ele>322.0</ele><time>2026-04-12T14:43:24.455Z</time></trkpt><trkpt lat="44.6043117" lon="7.870605"><ele>322.0</ele><time>2026-04-12T14:43:26.455Z</time></trkpt><trkpt lat="44.6044183" lon="7.8706117"><ele>322.0</ele><time>2026-04-12T14:43:28.455Z</time></trkpt><trkpt lat="44.604535" lon="7.8706033"><ele>321.5</ele><time>2026-04-12T14:43:30.455Z</time></trkpt><trkpt lat="44.6046383" lon="7.87058"><ele>321.0</ele><time>2026-04-12T14:43:32.455Z</time></trkpt><trkpt lat="44.6047533" lon="7.870585"><ele>320.5</ele><time>2026-04-12T14:43:34.455Z</time></trkpt><trkpt lat="44.604865" lon="7.87059"><ele>320.0</ele><time>2026-04-12T14:43:36.455Z</time></trkpt><trkpt lat="44.60499" lon="7.8706367"><ele>320.0</ele><time>2026-04-12T14:43:38.455Z</time></trkpt><trkpt lat="44.6050717" lon="7.8706683"><ele>320.0</ele><time>2026-04-12T14:43:39.455Z</time></trkpt><trkpt lat="44.605145" lon="7.8707167"><ele>320.0</ele><time>2026-04-12T14:43:40.455Z</time></trkpt><trkpt lat="44.6052117" lon="7.8707767"><ele>320.0</ele><time>2026-04-12T14:43:41.455Z</time></trkpt><trkpt lat="44.6052817" lon="7.8708517"><ele>320.0</ele><time>2026-04-12T14:43:42.455Z</time></trkpt><trkpt lat="44.6053483" lon="7.870955"><ele>320.0</ele><time>2026-04-12T14:43:43.455Z</time></trkpt><trkpt lat="44.6054183" lon="7.87107"><ele>316.25</ele><time>2026-04-12T14:43:44.455Z</time></trkpt><trkpt lat="44.6054883" lon="7.87119"><ele>312.5</ele><time>2026-04-12T14:43:45.455Z</time></trkpt><trkpt lat="44.60557" lon="7.8713033"><ele>308.75</ele><time>2026-04-12T14:43:46.455Z</time></trkpt><trkpt lat="44.6056583" lon="7.871415"><ele>305.0</ele><time>2026-04-12T14:43:47.455Z</time></trkpt><trkpt lat="44.605755" lon="7.8715267"><ele>305.0</ele><time>2026-04-12T14:43:48.455Z</time></trkpt><trkpt lat="44.605865" lon="7.871635"><ele>305.0</ele><time>2026-04-12T14:43:49.455Z</time></trkpt><trkpt lat="44.6059717" lon="7.871755"><ele>305.0</ele><time>2026-04-12T14:43:50.455Z</time></trkpt><trkpt lat="44.6060767" lon="7.87189"><ele>305.0</ele><time>2026-04-12T14:43:51.455Z</time></trkpt><trkpt lat="44.6061833" lon="7.8720067"><ele>302.0</ele><time>2026-04-12T14:43:52.455Z</time></trkpt><trkpt lat="44.60628" lon="7.8720967"><ele>299.0</ele><time>2026-04-12T14:43:53.455Z</time></trkpt><trkpt lat="44.6063883" lon="7.8721683"><ele>296.0</ele><time>2026-04-12T14:43:54.455Z</time></trkpt><trkpt lat="44.606495" lon="7.8721933"><ele>293.0</ele><time>2026-04-12T14:43:55.455Z</time></trkpt><trkpt lat="44.6066017" lon="7.87219"><ele>293.0</ele><time>2026-04-12T14:43:56.455Z</time></trkpt><trkpt lat="44.6067017" lon="7.8721533"><ele>293.0</ele><time>2026-04-12T14:43:57.455Z</time></trkpt><trkpt lat="44.6067917" lon="7.8720983"><ele>293.0</ele><time>2026-04-12T14:43:58.455Z</time></trkpt><trkpt lat="44.6068817" lon="7.8720483"><ele>293.0</ele><time>2026-04-12T14:43:59.455Z</time></trkpt><trkpt lat="44.6069633" lon="7.8720117"><ele>293.0</ele><time>2026-04-12T14:44:00.455Z</time></trkpt><trkpt lat="44.6070517" lon="7.872"><ele>292.0</ele><time>2026-04-12T14:44:01.456Z</time></trkpt><trkpt lat="44.6071417" lon="7.8720067"><ele>291.0</ele><time>2026-04-12T14:44:02.455Z</time></trkpt><trkpt lat="44.6072283" lon="7.8720333"><ele>290.0</ele><time>2026-04-12T14:44:03.455Z</time></trkpt><trkpt lat="44.607315" lon="7.8720617"><ele>289.0</ele><time>2026-04-12T14:44:04.455Z</time></trkpt><trkpt lat="44.607395" lon="7.87209"><ele>288.0</ele><time>2026-04-12T14:44:05.455Z</time></trkpt><trkpt lat="44.60748" lon="7.8721133"><ele>287.0</ele><time>2026-04-12T14:44:06.455Z</time></trkpt><trkpt lat="44.6075617" lon="7.87214"><ele>287.0</ele><time>2026-04-12T14:44:07.455Z</time></trkpt><trkpt lat="44.607645" lon="7.8721667"><ele>287.0</ele><time>2026-04-12T14:44:08.455Z</time></trkpt><trkpt lat="44.6077267" lon="7.8721967"><ele>287.0</ele><time>2026-04-12T14:44:09.456Z</time></trkpt><trkpt lat="44.6078033" lon="7.872225"><ele>287.0</ele><time>2026-04-12T14:44:10.455Z</time></trkpt><trkpt lat="44.6078767" lon="7.8722483"><ele>287.0</ele><time>2026-04-12T14:44:11.455Z</time></trkpt><trkpt lat="44.6079533" lon="7.8722767"><ele>287.0</ele><time>2026-04-12T14:44:12.455Z</time></trkpt><trkpt lat="44.6080367" lon="7.8723017"><ele>288.0</ele><time>2026-04-12T14:44:13.456Z</time></trkpt><trkpt lat="44.6081183" lon="7.8723267"><ele>289.0</ele><time>2026-04-12T14:44:14.455Z</time></trkpt><trkpt lat="44.6082017" lon="7.8723417"><ele>290.0</ele><time>2026-04-12T14:44:15.455Z</time></trkpt><trkpt lat="44.60828" lon="7.87236"><ele>291.0</ele><time>2026-04-12T14:44:16.455Z</time></trkpt><trkpt lat="44.6083583" lon="7.87238"><ele>292.0</ele><time>2026-04-12T14:44:17.455Z</time></trkpt><trkpt lat="44.6084333" lon="7.8723967"><ele>293.0</ele><time>2026-04-12T14:44:18.455Z</time></trkpt><trkpt lat="44.6085067" lon="7.8724233"><ele>293.0</ele><time>2026-04-12T14:44:19.455Z</time></trkpt><trkpt lat="44.6085783" lon="7.8724417"><ele>293.0</ele><time>2026-04-12T14:44:20.455Z</time></trkpt><trkpt lat="44.6086467" lon="7.872455"><ele>293.0</ele><time>2026-04-12T14:44:21.455Z</time></trkpt><trkpt lat="44.60872" lon="7.8724583"><ele>293.0</ele><time>2026-04-12T14:44:22.455Z</time></trkpt><trkpt lat="44.6087883" lon="7.87244"><ele>293.0</ele><time>2026-04-12T14:44:23.455Z</time></trkpt><trkpt lat="44.6088867" lon="7.8723467"><ele>293.0</ele><time>2026-04-12T14:44:25.455Z</time></trkpt><trkpt lat="44.608925" lon="7.872265"><ele>293.85714285714283</ele><time>2026-04-12T14:44:26.455Z</time></trkpt><trkpt lat="44.6089633" lon="7.8721783"><ele>294.7142857142857</ele><time>2026-04-12T14:44:27.455Z</time></trkpt><trkpt lat="44.6089983" lon="7.8720883"><ele>295.57142857142856</ele><time>2026-04-12T14:44:28.455Z</time></trkpt><trkpt lat="44.6090333" lon="7.8719983"><ele>296.42857142857144</ele><time>2026-04-12T14:44:29.455Z</time></trkpt><trkpt lat="44.6090683" lon="7.8719217"><ele>297.2857142857143</ele><time>2026-04-12T14:44:30.455Z</time></trkpt><trkpt lat="44.6091083" lon="7.871835"><ele>298.1428571428571</ele><time>2026-04-12T14:44:31.455Z</time></trkpt><trkpt lat="44.6091483" lon="7.8717533"><ele>299.0</ele><time>2026-04-12T14:44:32.455Z</time></trkpt><trkpt lat="44.6091817" lon="7.87167"><ele>299.1428571428571</ele><time>2026-04-12T14:44:33.455Z</time></trkpt><trkpt lat="44.6092117" lon="7.8715867"><ele>299.2857142857143</ele><time>2026-04-12T14:44:34.455Z</time></trkpt><trkpt lat="44.6092483" lon="7.87151"><ele>299.42857142857144</ele><time>2026-04-12T14:44:35.455Z</time></trkpt><trkpt lat="44.6092967" lon="7.8714383"><ele>299.57142857142856</ele><time>2026-04-12T14:44:36.456Z</time></trkpt><trkpt lat="44.60935" lon="7.8713833"><ele>299.7142857142857</ele><time>2026-04-12T14:44:37.455Z</time></trkpt><trkpt lat="44.60941" lon="7.8713433"><ele>299.85714285714283</ele><time>2026-04-12T14:44:38.455Z</time></trkpt><trkpt lat="44.6094733" lon="7.8713317"><ele>300.0</ele><time>2026-04-12T14:44:39.455Z</time></trkpt><trkpt lat="44.6095417" lon="7.8713333"><ele>299.71428571428567</ele><time>2026-04-12T14:44:40.455Z</time></trkpt><trkpt lat="44.60961" lon="7.8713417"><ele>299.42857142857144</ele><time>2026-04-12T14:44:41.455Z</time></trkpt><trkpt lat="44.6096817" lon="7.87135"><ele>299.1428571428571</ele><time>2026-04-12T14:44:42.456Z</time></trkpt><trkpt lat="44.6097533" lon="7.8713483"><ele>298.85714285714283</ele><time>2026-04-12T14:44:43.455Z</time></trkpt><trkpt lat="44.6098183" lon="7.8713433"><ele>298.57142857142856</ele><time>2026-04-12T14:44:44.455Z</time></trkpt><trkpt lat="44.6098867" lon="7.8713333"><ele>298.2857142857143</ele><time>2026-04-12T14:44:45.455Z</time></trkpt><trkpt lat="44.6099583" lon="7.8713283"><ele>298.0</ele><time>2026-04-12T14:44:46.455Z</time></trkpt><trkpt lat="44.610025" lon="7.8713233"><ele>298.0</ele><time>2026-04-12T14:44:47.455Z</time></trkpt><trkpt lat="44.6100967" lon="7.8713167"><ele>298.0</ele><time>2026-04-12T14:44:48.455Z</time></trkpt><trkpt lat="44.6101667" lon="7.8713117"><ele>298.0</ele><time>2026-04-12T14:44:49.455Z</time></trkpt><trkpt lat="44.6102367" lon="7.871305"><ele>298.0</ele><time>2026-04-12T14:44:50.455Z</time></trkpt><trkpt lat="44.6103083" lon="7.8713"><ele>298.0</ele><time>2026-04-12T14:44:51.455Z</time></trkpt><trkpt lat="44.610375" lon="7.8712917"><ele>298.0</ele><time>2026-04-12T14:44:52.455Z</time></trkpt><trkpt lat="44.61045" lon="7.87128"><ele>298.0</ele><time>2026-04-12T14:44:53.455Z</time></trkpt><trkpt lat="44.6105217" lon="7.871265"><ele>298.1428571428571</ele><time>2026-04-12T14:44:54.455Z</time></trkpt><trkpt lat="44.6105933" lon="7.8712433"><ele>298.2857142857143</ele><time>2026-04-12T14:44:55.455Z</time></trkpt><trkpt lat="44.6106667" lon="7.8712267"><ele>298.42857142857144</ele><time>2026-04-12T14:44:56.455Z</time></trkpt><trkpt lat="44.6107433" lon="7.8712133"><ele>298.57142857142856</ele><time>2026-04-12T14:44:57.455Z</time></trkpt><trkpt lat="44.6108167" lon="7.8712033"><ele>298.7142857142857</ele><time>2026-04-12T14:44:58.455Z</time></trkpt><trkpt lat="44.6108883" lon="7.8711933"><ele>298.85714285714283</ele><time>2026-04-12T14:44:59.455Z</time></trkpt><trkpt lat="44.6109567" lon="7.8711833"><ele>299.0</ele><time>2026-04-12T14:45:00.455Z</time></trkpt><trkpt lat="44.6110283" lon="7.871175"><ele>299.0</ele><time>2026-04-12T14:45:01.455Z</time></trkpt><trkpt lat="44.6111033" lon="7.8711667"><ele>299.0</ele><time>2026-04-12T14:45:02.455Z</time></trkpt><trkpt lat="44.6111783" lon="7.871145"><ele>299.0</ele><time>2026-04-12T14:45:03.455Z</time></trkpt><trkpt lat="44.611255" lon="7.8711317"><ele>299.0</ele><time>2026-04-12T14:45:04.456Z</time></trkpt><trkpt lat="44.61133" lon="7.8711233"><ele>299.0</ele><time>2026-04-12T14:45:05.455Z</time></trkpt><trkpt lat="44.611405" lon="7.8711133"><ele>299.0</ele><time>2026-04-12T14:45:06.455Z</time></trkpt><trkpt lat="44.61148" lon="7.8711117"><ele>298.83333333333337</ele><time>2026-04-12T14:45:07.455Z</time></trkpt><trkpt lat="44.6115533" lon="7.8711133"><ele>298.6666666666667</ele><time>2026-04-12T14:45:08.455Z</time></trkpt><trkpt lat="44.6116283" lon="7.87111"><ele>298.5</ele><time>2026-04-12T14:45:09.455Z</time></trkpt><trkpt lat="44.611705" lon="7.871105"><ele>298.3333333333333</ele><time>2026-04-12T14:45:10.455Z</time></trkpt><trkpt lat="44.6117817" lon="7.8710983"><ele>298.16666666666663</ele><time>2026-04-12T14:45:11.455Z</time></trkpt><trkpt lat="44.6118567" lon="7.8710867"><ele>298.0</ele><time>2026-04-12T14:45:12.455Z</time></trkpt><trkpt lat="44.61193" lon="7.87107"><ele>297.7142857142857</ele><time>2026-04-12T14:45:13.455Z</time></trkpt><trkpt lat="44.612005" lon="7.871055"><ele>297.4285714285714</ele><time>2026-04-12T14:45:14.455Z</time></trkpt><trkpt lat="44.6120767" lon="7.8710417"><ele>297.1428571428571</ele><time>2026-04-12T14:45:15.455Z</time></trkpt><trkpt lat="44.6121467" lon="7.8710317"><ele>296.85714285714283</ele><time>2026-04-12T14:45:16.455Z</time></trkpt><trkpt lat="44.61222" lon="7.871025"><ele>296.57142857142856</ele><time>2026-04-12T14:45:17.455Z</time></trkpt><trkpt lat="44.6122933" lon="7.8710217"><ele>296.2857142857143</ele><time>2026-04-12T14:45:18.455Z</time></trkpt><trkpt lat="44.6123667" lon="7.871015"><ele>296.0</ele><time>2026-04-12T14:45:19.455Z</time></trkpt><trkpt lat="44.61244" lon="7.8710067"><ele>296.0</ele><time>2026-04-12T14:45:20.455Z</time></trkpt><trkpt lat="44.6125167" lon="7.8710033"><ele>296.0</ele><time>2026-04-12T14:45:21.455Z</time></trkpt><trkpt lat="44.61259" lon="7.870995"><ele>296.0</ele><time>2026-04-12T14:45:22.456Z</time></trkpt><trkpt lat="44.6126583" lon="7.8709883"><ele>296.0</ele><time>2026-04-12T14:45:23.455Z</time></trkpt><trkpt lat="44.6127283" lon="7.8709817"><ele>296.0</ele><time>2026-04-12T14:45:24.455Z</time></trkpt><trkpt lat="44.6128033" lon="7.8709667"><ele>296.0</ele><time>2026-04-12T14:45:25.455Z</time></trkpt><trkpt lat="44.612875" lon="7.8709517"><ele>296.0</ele><time>2026-04-12T14:45:26.455Z</time></trkpt><trkpt lat="44.6129517" lon="7.8709433"><ele>296.33333333333337</ele><time>2026-04-12T14:45:27.455Z</time></trkpt><trkpt lat="44.6130267" lon="7.8709283"><ele>296.6666666666667</ele><time>2026-04-12T14:45:28.455Z</time></trkpt><trkpt lat="44.6131" lon="7.8709083"><ele>297.0</ele><time>2026-04-12T14:45:29.455Z</time></trkpt><trkpt lat="44.6131767" lon="7.8708933"><ele>297.3333333333333</ele><time>2026-04-12T14:45:30.455Z</time></trkpt><trkpt lat="44.6132517" lon="7.8708833"><ele>297.66666666666663</ele><time>2026-04-12T14:45:31.455Z</time></trkpt><trkpt lat="44.613325" lon="7.8708683"><ele>298.0</ele><time>2026-04-12T14:45:32.455Z</time></trkpt><trkpt lat="44.6133967" lon="7.8708533"><ele>298.0</ele><time>2026-04-12T14:45:33.455Z</time></trkpt><trkpt lat="44.61347" lon="7.8708383"><ele>298.0</ele><time>2026-04-12T14:45:34.455Z</time></trkpt><trkpt lat="44.6135417" lon="7.87082"><ele>298.0</ele><time>2026-04-12T14:45:35.455Z</time></trkpt><trkpt lat="44.6136117" lon="7.870805"><ele>298.0</ele><time>2026-04-12T14:45:36.455Z</time></trkpt><trkpt lat="44.6136783" lon="7.87079"><ele>298.0</ele><time>2026-04-12T14:45:37.455Z</time></trkpt><trkpt lat="44.6137467" lon="7.8707733"><ele>298.0</ele><time>2026-04-12T14:45:38.455Z</time></trkpt><trkpt lat="44.6138167" lon="7.8707533"><ele>298.0</ele><time>2026-04-12T14:45:39.456Z</time></trkpt><trkpt lat="44.6138867" lon="7.8707317"><ele>298.2857142857143</ele><time>2026-04-12T14:45:40.455Z</time></trkpt><trkpt lat="44.6139567" lon="7.8707117"><ele>298.57142857142856</ele><time>2026-04-12T14:45:41.455Z</time></trkpt><trkpt lat="44.6140267" lon="7.8706883"><ele>298.85714285714283</ele><time>2026-04-12T14:45:42.455Z</time></trkpt><trkpt lat="44.6140983" lon="7.8706683"><ele>299.1428571428571</ele><time>2026-04-12T14:45:43.455Z</time></trkpt><trkpt lat="44.6141717" lon="7.8706417"><ele>299.42857142857144</ele><time>2026-04-12T14:45:44.455Z</time></trkpt><trkpt lat="44.614245" lon="7.8706233"><ele>299.71428571428567</ele><time>2026-04-12T14:45:45.455Z</time></trkpt><trkpt lat="44.6143167" lon="7.8706033"><ele>300.0</ele><time>2026-04-12T14:45:46.455Z</time></trkpt><trkpt lat="44.6143783" lon="7.8705783"><ele>299.99999999999994</ele><time>2026-04-12T14:45:47.455Z</time></trkpt><trkpt lat="44.6144467" lon="7.8705567"><ele>300.0</ele><time>2026-04-12T14:45:48.455Z</time></trkpt><trkpt lat="44.614515" lon="7.8705383"><ele>300.0</ele><time>2026-04-12T14:45:49.455Z</time></trkpt><trkpt lat="44.6145867" lon="7.8705167"><ele>300.0</ele><time>2026-04-12T14:45:50.455Z</time></trkpt><trkpt lat="44.6146633" lon="7.870495"><ele>300.0</ele><time>2026-04-12T14:45:51.455Z</time></trkpt><trkpt lat="44.6147383" lon="7.8704683"><ele>299.99999999999994</ele><time>2026-04-12T14:45:52.455Z</time></trkpt><trkpt lat="44.6148167" lon="7.8704467"><ele>300.0</ele><time>2026-04-12T14:45:53.455Z</time></trkpt><trkpt lat="44.6148917" lon="7.8704283"><ele>300.0</ele><time>2026-04-12T14:45:54.455Z</time></trkpt><trkpt lat="44.614965" lon="7.8704167"><ele>300.0</ele><time>2026-04-12T14:45:55.455Z</time></trkpt><trkpt lat="44.6150367" lon="7.8704"><ele>300.0</ele><time>2026-04-12T14:45:56.455Z</time></trkpt><trkpt lat="44.6151133" lon="7.8703867"><ele>300.0</ele><time>2026-04-12T14:45:57.455Z</time></trkpt><trkpt lat="44.6151917" lon="7.8703733"><ele>300.0</ele><time>2026-04-12T14:45:58.455Z</time></trkpt><trkpt lat="44.6152683" lon="7.8703583"><ele>300.0</ele><time>2026-04-12T14:45:59.455Z</time></trkpt><trkpt lat="44.6153433" lon="7.8703417"><ele>299.99999999999994</ele><time>2026-04-12T14:46:00.455Z</time></trkpt><trkpt lat="44.6154117" lon="7.8703267"><ele>300.0</ele><time>2026-04-12T14:46:01.455Z</time></trkpt><trkpt lat="44.6154883" lon="7.8703117"><ele>300.0</ele><time>2026-04-12T14:46:02.455Z</time></trkpt><trkpt lat="44.6155617" lon="7.8703"><ele>300.0</ele><time>2026-04-12T14:46:03.455Z</time></trkpt><trkpt lat="44.61564" lon="7.87029"><ele>300.0</ele><time>2026-04-12T14:46:04.455Z</time></trkpt><trkpt lat="44.6157133" lon="7.8702733"><ele>299.99999999999994</ele><time>2026-04-12T14:46:05.455Z</time></trkpt><trkpt lat="44.61578" lon="7.8702567"><ele>300.0</ele><time>2026-04-12T14:46:06.455Z</time></trkpt><trkpt lat="44.6159083" lon="7.8702267"><ele>300.0</ele><time>2026-04-12T14:46:08.455Z</time></trkpt><trkpt lat="44.61598" lon="7.8702133"><ele>300.0</ele><time>2026-04-12T14:46:09.455Z</time></trkpt><trkpt lat="44.616055" lon="7.870195"><ele>300.0</ele><time>2026-04-12T14:46:10.455Z</time></trkpt><trkpt lat="44.61613" lon="7.8701783"><ele>300.0</ele><time>2026-04-12T14:46:11.456Z</time></trkpt><trkpt lat="44.6162067" lon="7.8701583"><ele>300.0</ele><time>2026-04-12T14:46:12.455Z</time></trkpt><trkpt lat="44.6162817" lon="7.8701367"><ele>300.0</ele><time>2026-04-12T14:46:13.455Z</time></trkpt><trkpt lat="44.6163583" lon="7.8701167"><ele>299.6666666666667</ele><time>2026-04-12T14:46:14.455Z</time></trkpt><trkpt lat="44.6164417" lon="7.8700983"><ele>299.3333333333333</ele><time>2026-04-12T14:46:15.455Z</time></trkpt><trkpt lat="44.6165167" lon="7.8700833"><ele>299.0</ele><time>2026-04-12T14:46:16.455Z</time></trkpt><trkpt lat="44.6165933" lon="7.8700717"><ele>298.66666666666663</ele><time>2026-04-12T14:46:17.456Z</time></trkpt><trkpt lat="44.6166717" lon="7.8700583"><ele>298.3333333333333</ele><time>2026-04-12T14:46:18.455Z</time></trkpt><trkpt lat="44.6167483" lon="7.8700367"><ele>298.0</ele><time>2026-04-12T14:46:19.455Z</time></trkpt><trkpt lat="44.6168233" lon="7.8700217"><ele>298.0</ele><time>2026-04-12T14:46:20.455Z</time></trkpt><trkpt lat="44.6168967" lon="7.8700017"><ele>298.0</ele><time>2026-04-12T14:46:21.455Z</time></trkpt><trkpt lat="44.6169667" lon="7.869995"><ele>298.0</ele><time>2026-04-12T14:46:22.455Z</time></trkpt><trkpt lat="44.6170367" lon="7.8699883"><ele>298.0</ele><time>2026-04-12T14:46:23.455Z</time></trkpt><trkpt lat="44.61711" lon="7.8699817"><ele>298.0</ele><time>2026-04-12T14:46:24.455Z</time></trkpt><trkpt lat="44.6171783" lon="7.8699717"><ele>298.0</ele><time>2026-04-12T14:46:25.455Z</time></trkpt><trkpt lat="44.617255" lon="7.8699617"><ele>298.0</ele><time>2026-04-12T14:46:26.455Z</time></trkpt><trkpt lat="44.6173317" lon="7.8699567"><ele>297.8333333333333</ele><time>2026-04-12T14:46:27.455Z</time></trkpt><trkpt lat="44.6174083" lon="7.8699467"><ele>297.66666666666663</ele><time>2026-04-12T14:46:28.455Z</time></trkpt><trkpt lat="44.6174867" lon="7.8699283"><ele>297.5</ele><time>2026-04-12T14:46:29.455Z</time></trkpt><trkpt lat="44.617555" lon="7.8699133"><ele>297.3333333333333</ele><time>2026-04-12T14:46:30.455Z</time></trkpt><trkpt lat="44.617615" lon="7.8698767"><ele>297.1666666666667</ele><time>2026-04-12T14:46:31.455Z</time></trkpt><trkpt lat="44.6177317" lon="7.8698283"><ele>297.0</ele><time>2026-04-12T14:46:33.455Z</time></trkpt><trkpt lat="44.6178" lon="7.869825"><ele>296.57142857142856</ele><time>2026-04-12T14:46:34.455Z</time></trkpt><trkpt lat="44.61787" lon="7.8698333"><ele>296.14285714285717</ele><time>2026-04-12T14:46:35.455Z</time></trkpt><trkpt lat="44.6179433" lon="7.86986"><ele>295.7142857142857</ele><time>2026-04-12T14:46:36.455Z</time></trkpt><trkpt lat="44.61801" lon="7.869895"><ele>295.2857142857143</ele><time>2026-04-12T14:46:37.455Z</time></trkpt><trkpt lat="44.618075" lon="7.8699267"><ele>294.8571428571429</ele><time>2026-04-12T14:46:38.455Z</time></trkpt><trkpt lat="44.618145" lon="7.869965"><ele>294.42857142857144</ele><time>2026-04-12T14:46:39.455Z</time></trkpt><trkpt lat="44.618215" lon="7.8699967"><ele>294.0</ele><time>2026-04-12T14:46:40.455Z</time></trkpt><trkpt lat="44.61829" lon="7.8700217"><ele>294.0</ele><time>2026-04-12T14:46:41.455Z</time></trkpt><trkpt lat="44.6183667" lon="7.8700467"><ele>294.0</ele><time>2026-04-12T14:46:42.455Z</time></trkpt><trkpt lat="44.61844" lon="7.8700617"><ele>294.0</ele><time>2026-04-12T14:46:43.455Z</time></trkpt><trkpt lat="44.618515" lon="7.8700683"><ele>294.0</ele><time>2026-04-12T14:46:44.455Z</time></trkpt><trkpt lat="44.6185867" lon="7.8700767"><ele>294.0</ele><time>2026-04-12T14:46:45.455Z</time></trkpt><trkpt lat="44.6186617" lon="7.870075"><ele>294.0</ele><time>2026-04-12T14:46:46.455Z</time></trkpt><trkpt lat="44.6187367" lon="7.87007"><ele>294.0</ele><time>2026-04-12T14:46:47.455Z</time></trkpt><trkpt lat="44.6188167" lon="7.87006"><ele>294.0</ele><time>2026-04-12T14:46:48.455Z</time></trkpt><trkpt lat="44.6188933" lon="7.8700467"><ele>294.0</ele><time>2026-04-12T14:46:49.455Z</time></trkpt><trkpt lat="44.61897" lon="7.8700367"><ele>294.0</ele><time>2026-04-12T14:46:50.455Z</time></trkpt><trkpt lat="44.619045" lon="7.8700217"><ele>294.0</ele><time>2026-04-12T14:46:51.455Z</time></trkpt><trkpt lat="44.6191167" lon="7.87001"><ele>294.0</ele><time>2026-04-12T14:46:52.455Z</time></trkpt><trkpt lat="44.6191933" lon="7.87001"><ele>294.0</ele><time>2026-04-12T14:46:53.455Z</time></trkpt><trkpt lat="44.6192683" lon="7.8700083"><ele>294.0</ele><time>2026-04-12T14:46:54.455Z</time></trkpt><trkpt lat="44.6193383" lon="7.870015"><ele>294.0</ele><time>2026-04-12T14:46:55.455Z</time></trkpt><trkpt lat="44.6194067" lon="7.8700167"><ele>294.0</ele><time>2026-04-12T14:46:56.455Z</time></trkpt><trkpt lat="44.6194783" lon="7.8700083"><ele>294.0</ele><time>2026-04-12T14:46:57.455Z</time></trkpt><trkpt lat="44.6195467" lon="7.8700017"><ele>294.0</ele><time>2026-04-12T14:46:58.455Z</time></trkpt><trkpt lat="44.6196167" lon="7.8699917"><ele>294.0</ele><time>2026-04-12T14:46:59.455Z</time></trkpt><trkpt lat="44.6196833" lon="7.8699667"><ele>294.0</ele><time>2026-04-12T14:47:00.455Z</time></trkpt><trkpt lat="44.61974" lon="7.8699267"><ele>294.0</ele><time>2026-04-12T14:47:01.455Z</time></trkpt><trkpt lat="44.6198317" lon="7.869805"><ele>294.0</ele><time>2026-04-12T14:47:03.455Z</time></trkpt><trkpt lat="44.6198767" lon="7.86974"><ele>294.0</ele><time>2026-04-12T14:47:04.455Z</time></trkpt><trkpt lat="44.6199267" lon="7.8696717"><ele>294.0</ele><time>2026-04-12T14:47:05.455Z</time></trkpt><trkpt lat="44.6199783" lon="7.8696067"><ele>294.0</ele><time>2026-04-12T14:47:06.455Z</time></trkpt><trkpt lat="44.620035" lon="7.8695433"><ele>294.0</ele><time>2026-04-12T14:47:07.455Z</time></trkpt><trkpt lat="44.6200983" lon="7.8694833"><ele>294.0</ele><time>2026-04-12T14:47:08.455Z</time></trkpt><trkpt lat="44.6201583" lon="7.8694267"><ele>294.0</ele><time>2026-04-12T14:47:09.455Z</time></trkpt><trkpt lat="44.6202183" lon="7.869375"><ele>294.0</ele><time>2026-04-12T14:47:10.455Z</time></trkpt><trkpt lat="44.6202917" lon="7.8693217"><ele>294.0</ele><time>2026-04-12T14:47:11.455Z</time></trkpt><trkpt lat="44.6203567" lon="7.8692667"><ele>294.0</ele><time>2026-04-12T14:47:12.455Z</time></trkpt><trkpt lat="44.62042" lon="7.8692183"><ele>293.85714285714283</ele><time>2026-04-12T14:47:13.455Z</time></trkpt><trkpt lat="44.6204867" lon="7.86917"><ele>293.7142857142857</ele><time>2026-04-12T14:47:14.455Z</time></trkpt><trkpt lat="44.62055" lon="7.8691167"><ele>293.57142857142856</ele><time>2026-04-12T14:47:15.455Z</time></trkpt><trkpt lat="44.6206167" lon="7.86907"><ele>293.42857142857144</ele><time>2026-04-12T14:47:16.455Z</time></trkpt><trkpt lat="44.620685" lon="7.8690183"><ele>293.2857142857143</ele><time>2026-04-12T14:47:17.455Z</time></trkpt><trkpt lat="44.6207467" lon="7.86897"><ele>293.1428571428571</ele><time>2026-04-12T14:47:18.455Z</time></trkpt><trkpt lat="44.6208117" lon="7.868925"><ele>293.0</ele><time>2026-04-12T14:47:19.455Z</time></trkpt><trkpt lat="44.6208767" lon="7.86888"><ele>292.99999999999994</ele><time>2026-04-12T14:47:20.456Z</time></trkpt><trkpt lat="44.620945" lon="7.86883"><ele>293.0</ele><time>2026-04-12T14:47:21.455Z</time></trkpt><trkpt lat="44.621015" lon="7.8687833"><ele>293.0</ele><time>2026-04-12T14:47:22.455Z</time></trkpt><trkpt lat="44.6210867" lon="7.8687433"><ele>293.0</ele><time>2026-04-12T14:47:23.455Z</time></trkpt><trkpt lat="44.621155" lon="7.8687033"><ele>293.0</ele><time>2026-04-12T14:47:24.455Z</time></trkpt><trkpt lat="44.6212167" lon="7.8686567"><ele>292.99999999999994</ele><time>2026-04-12T14:47:25.455Z</time></trkpt><trkpt lat="44.62128" lon="7.86861"><ele>293.0</ele><time>2026-04-12T14:47:26.455Z</time></trkpt><trkpt lat="44.6213483" lon="7.86857"><ele>292.99999999999994</ele><time>2026-04-12T14:47:27.455Z</time></trkpt><trkpt lat="44.6214133" lon="7.8685283"><ele>293.0</ele><time>2026-04-12T14:47:28.455Z</time></trkpt><trkpt lat="44.6214783" lon="7.8684817"><ele>293.0</ele><time>2026-04-12T14:47:29.455Z</time></trkpt><trkpt lat="44.621545" lon="7.86844"><ele>293.0</ele><time>2026-04-12T14:47:30.455Z</time></trkpt><trkpt lat="44.6216183" lon="7.8683967"><ele>293.0</ele><time>2026-04-12T14:47:31.455Z</time></trkpt><trkpt lat="44.621685" lon="7.868355"><ele>292.99999999999994</ele><time>2026-04-12T14:47:32.455Z</time></trkpt><trkpt lat="44.62175" lon="7.8683"><ele>293.0</ele><time>2026-04-12T14:47:33.455Z</time></trkpt><trkpt lat="44.6218167" lon="7.868255"><ele>292.99999999999994</ele><time>2026-04-12T14:47:34.455Z</time></trkpt><trkpt lat="44.6218817" lon="7.86821"><ele>293.0</ele><time>2026-04-12T14:47:35.455Z</time></trkpt><trkpt lat="44.62194" lon="7.8681617"><ele>293.0</ele><time>2026-04-12T14:47:36.455Z</time></trkpt><trkpt lat="44.6219983" lon="7.86811"><ele>293.0</ele><time>2026-04-12T14:47:37.455Z</time></trkpt><trkpt lat="44.62206" lon="7.8680517"><ele>293.0</ele><time>2026-04-12T14:47:38.455Z</time></trkpt><trkpt lat="44.6221233" lon="7.8680017"><ele>292.99999999999994</ele><time>2026-04-12T14:47:39.455Z</time></trkpt><trkpt lat="44.6221817" lon="7.8679533"><ele>293.0</ele><time>2026-04-12T14:47:40.455Z</time></trkpt><trkpt lat="44.622245" lon="7.867905"><ele>293.0</ele><time>2026-04-12T14:47:41.455Z</time></trkpt><trkpt lat="44.622305" lon="7.8678567"><ele>293.0</ele><time>2026-04-12T14:47:42.455Z</time></trkpt><trkpt lat="44.6223717" lon="7.8678083"><ele>293.0</ele><time>2026-04-12T14:47:43.455Z</time></trkpt><trkpt lat="44.6224417" lon="7.867755"><ele>293.0</ele><time>2026-04-12T14:47:44.455Z</time></trkpt><trkpt lat="44.6225133" lon="7.8677"><ele>293.0</ele><time>2026-04-12T14:47:45.455Z</time></trkpt><trkpt lat="44.622585" lon="7.8676433"><ele>293.0</ele><time>2026-04-12T14:47:46.455Z</time></trkpt><trkpt lat="44.6226517" lon="7.86759"><ele>293.0</ele><time>2026-04-12T14:47:47.455Z</time></trkpt><trkpt lat="44.6227183" lon="7.8675383"><ele>293.0</ele><time>2026-04-12T14:47:48.455Z</time></trkpt><trkpt lat="44.6227867" lon="7.8674817"><ele>293.0</ele><time>2026-04-12T14:47:49.455Z</time></trkpt><trkpt lat="44.6228517" lon="7.8674317"><ele>293.0</ele><time>2026-04-12T14:47:50.455Z</time></trkpt><trkpt lat="44.62292" lon="7.8673833"><ele>293.0</ele><time>2026-04-12T14:47:51.455Z</time></trkpt><trkpt lat="44.6229883" lon="7.8673267"><ele>293.0</ele><time>2026-04-12T14:47:52.455Z</time></trkpt><trkpt lat="44.6230583" lon="7.86727"><ele>292.99999999999994</ele><time>2026-04-12T14:47:53.456Z</time></trkpt><trkpt lat="44.6231267" lon="7.8672233"><ele>293.0</ele><time>2026-04-12T14:47:54.455Z</time></trkpt><trkpt lat="44.62319" lon="7.8671733"><ele>293.0</ele><time>2026-04-12T14:47:55.455Z</time></trkpt><trkpt lat="44.6232533" lon="7.8671167"><ele>293.0</ele><time>2026-04-12T14:47:56.455Z</time></trkpt><trkpt lat="44.6233217" lon="7.867065"><ele>293.0</ele><time>2026-04-12T14:47:57.455Z</time></trkpt><trkpt lat="44.623385" lon="7.86702"><ele>292.99999999999994</ele><time>2026-04-12T14:47:58.455Z</time></trkpt><trkpt lat="44.62345" lon="7.866975"><ele>293.0</ele><time>2026-04-12T14:47:59.455Z</time></trkpt><trkpt lat="44.6235117" lon="7.866925"><ele>292.99999999999994</ele><time>2026-04-12T14:48:00.455Z</time></trkpt><trkpt lat="44.623575" lon="7.8668783"><ele>293.0</ele><time>2026-04-12T14:48:01.455Z</time></trkpt><trkpt lat="44.62364" lon="7.86683"><ele>293.0</ele><time>2026-04-12T14:48:02.455Z</time></trkpt><trkpt lat="44.6236983" lon="7.8667817"><ele>293.0</ele><time>2026-04-12T14:48:03.455Z</time></trkpt><trkpt lat="44.62376" lon="7.8667317"><ele>293.0</ele><time>2026-04-12T14:48:04.455Z</time></trkpt><trkpt lat="44.6238233" lon="7.8666817"><ele>292.99999999999994</ele><time>2026-04-12T14:48:05.455Z</time></trkpt><trkpt lat="44.623885" lon="7.8666317"><ele>293.0</ele><time>2026-04-12T14:48:06.455Z</time></trkpt><trkpt lat="44.62395" lon="7.8665817"><ele>292.83333333333337</ele><time>2026-04-12T14:48:07.455Z</time></trkpt><trkpt lat="44.6240467" lon="7.86647"><ele>292.6666666666667</ele><time>2026-04-12T14:48:09.455Z</time></trkpt><trkpt lat="44.624105" lon="7.8663833"><ele>292.5</ele><time>2026-04-12T14:48:11.455Z</time></trkpt><trkpt lat="44.6241683" lon="7.8664283"><ele>292.3333333333333</ele><time>2026-04-12T14:48:16.455Z</time></trkpt><trkpt lat="44.6241467" lon="7.866325"><ele>292.16666666666663</ele><time>2026-04-12T14:48:42.455Z</time></trkpt><trkpt lat="44.6241217" lon="7.866235"><ele>292.0</ele><time>2026-04-12T14:48:46.455Z</time></trkpt><trkpt lat="44.6240967" lon="7.8661217"><ele>292.0</ele><time>2026-04-12T14:48:50.455Z</time></trkpt><trkpt lat="44.6240733" lon="7.8660317"><ele>292.0</ele><time>2026-04-12T14:48:52.455Z</time></trkpt><trkpt lat="44.6240417" lon="7.8659133"><ele>292.0</ele><time>2026-04-12T14:48:54.455Z</time></trkpt><trkpt lat="44.6240117" lon="7.86578"><ele>292.0</ele><time>2026-04-12T14:48:56.455Z</time></trkpt><trkpt lat="44.62398" lon="7.8656617"><ele>292.0</ele><time>2026-04-12T14:48:58.455Z</time></trkpt><trkpt lat="44.6239467" lon="7.8655417"><ele>292.0</ele><time>2026-04-12T14:49:00.455Z</time></trkpt><trkpt lat="44.623925" lon="7.8654017"><ele>292.2</ele><time>2026-04-12T14:49:02.456Z</time></trkpt><trkpt lat="44.6239133" lon="7.8652483"><ele>292.4</ele><time>2026-04-12T14:49:04.455Z</time></trkpt><trkpt lat="44.6239133" lon="7.8651133"><ele>292.6</ele><time>2026-04-12T14:49:06.455Z</time></trkpt><trkpt lat="44.62397" lon="7.8650217"><ele>292.8</ele><time>2026-04-12T14:49:08.455Z</time></trkpt><trkpt lat="44.624045" lon="7.8649583"><ele>293.0</ele><time>2026-04-12T14:49:10.456Z</time></trkpt><trkpt lat="44.624115" lon="7.8648883"><ele>293.2</ele><time>2026-04-12T14:49:12.455Z</time></trkpt><trkpt lat="44.6241917" lon="7.8648167"><ele>293.4</ele><time>2026-04-12T14:49:14.455Z</time></trkpt><trkpt lat="44.62428" lon="7.864745"><ele>293.59999999999997</ele><time>2026-04-12T14:49:16.455Z</time></trkpt><trkpt lat="44.6243633" lon="7.8646567"><ele>293.8</ele><time>2026-04-12T14:49:18.455Z</time></trkpt><trkpt lat="44.6244533" lon="7.8645583"><ele>294.0</ele><time>2026-04-12T14:49:20.455Z</time></trkpt><trkpt lat="44.62455" lon="7.8644583"><ele>293.59999999999997</ele><time>2026-04-12T14:49:22.455Z</time></trkpt><trkpt lat="44.6246033" lon="7.8644033"><ele>293.2</ele><time>2026-04-12T14:49:23.455Z</time></trkpt><trkpt lat="44.624655" lon="7.86435"><ele>292.79999999999995</ele><time>2026-04-12T14:49:24.455Z</time></trkpt><trkpt lat="44.6247483" lon="7.86425"><ele>292.4</ele><time>2026-04-12T14:49:26.455Z</time></trkpt><trkpt lat="44.62485" lon="7.8641533"><ele>292.0</ele><time>2026-04-12T14:49:28.455Z</time></trkpt><trkpt lat="44.6249483" lon="7.864055"><ele>292.0</ele><time>2026-04-12T14:49:30.455Z</time></trkpt><trkpt lat="44.625005" lon="7.8640067"><ele>292.0</ele><time>2026-04-12T14:49:31.455Z</time></trkpt><trkpt lat="44.6251117" lon="7.8639217"><ele>292.0</ele><time>2026-04-12T14:49:33.455Z</time></trkpt><trkpt lat="44.625205" lon="7.863855"><ele>292.0</ele><time>2026-04-12T14:49:35.455Z</time></trkpt><trkpt lat="44.6252833" lon="7.8637917"><ele>292.0</ele><time>2026-04-12T14:49:37.455Z</time></trkpt><trkpt lat="44.6253633" lon="7.8637367"><ele>291.8</ele><time>2026-04-12T14:49:39.455Z</time></trkpt><trkpt lat="44.6254383" lon="7.8636617"><ele>291.6</ele><time>2026-04-12T14:49:41.455Z</time></trkpt><trkpt lat="44.6255083" lon="7.8635833"><ele>291.40000000000003</ele><time>2026-04-12T14:49:43.455Z</time></trkpt><trkpt lat="44.6255967" lon="7.8635033"><ele>291.2</ele><time>2026-04-12T14:49:45.455Z</time></trkpt><trkpt lat="44.6257083" lon="7.8634767"><ele>291.0</ele><time>2026-04-12T14:49:47.456Z</time></trkpt><trkpt lat="44.6258317" lon="7.8635183"><ele>291.0</ele><time>2026-04-12T14:49:49.455Z</time></trkpt><trkpt lat="44.6258983" lon="7.863545"><ele>291.0</ele><time>2026-04-12T14:49:50.455Z</time></trkpt><trkpt lat="44.6259733" lon="7.8635733"><ele>291.0</ele><time>2026-04-12T14:49:51.455Z</time></trkpt><trkpt lat="44.62605" lon="7.8636017"><ele>291.0</ele><time>2026-04-12T14:49:52.456Z</time></trkpt><trkpt lat="44.6261167" lon="7.863635"><ele>291.0</ele><time>2026-04-12T14:49:53.455Z</time></trkpt><trkpt lat="44.6261867" lon="7.8636717"><ele>291.0</ele><time>2026-04-12T14:49:54.455Z</time></trkpt><trkpt lat="44.62626" lon="7.86371"><ele>290.57142857142856</ele><time>2026-04-12T14:49:55.455Z</time></trkpt><trkpt lat="44.6263333" lon="7.8637317"><ele>290.1428571428571</ele><time>2026-04-12T14:49:56.455Z</time></trkpt><trkpt lat="44.6264067" lon="7.8637483"><ele>289.7142857142857</ele><time>2026-04-12T14:49:57.455Z</time></trkpt><trkpt lat="44.62648" lon="7.8637533"><ele>289.2857142857143</ele><time>2026-04-12T14:49:58.455Z</time></trkpt><trkpt lat="44.6265517" lon="7.863745"><ele>288.8571428571429</ele><time>2026-04-12T14:49:59.455Z</time></trkpt><trkpt lat="44.6266167" lon="7.86372"><ele>288.42857142857144</ele><time>2026-04-12T14:50:00.455Z</time></trkpt><trkpt lat="44.6266783" lon="7.8636967"><ele>288.0</ele><time>2026-04-12T14:50:01.455Z</time></trkpt><trkpt lat="44.62674" lon="7.8636733"><ele>288.0</ele><time>2026-04-12T14:50:02.455Z</time></trkpt><trkpt lat="44.626805" lon="7.863645"><ele>288.0</ele><time>2026-04-12T14:50:03.455Z</time></trkpt><trkpt lat="44.626865" lon="7.8636167"><ele>288.0</ele><time>2026-04-12T14:50:04.455Z</time></trkpt><trkpt lat="44.62697" lon="7.8635417"><ele>288.0</ele><time>2026-04-12T14:50:06.455Z</time></trkpt><trkpt lat="44.62707" lon="7.8634683"><ele>288.0</ele><time>2026-04-12T14:50:08.455Z</time></trkpt><trkpt lat="44.6271633" lon="7.86341"><ele>288.6666666666667</ele><time>2026-04-12T14:50:10.455Z</time></trkpt><trkpt lat="44.6272467" lon="7.8633683"><ele>289.3333333333333</ele><time>2026-04-12T14:50:12.455Z</time></trkpt><trkpt lat="44.62732" lon="7.8633217"><ele>290.0</ele><time>2026-04-12T14:50:14.455Z</time></trkpt><trkpt lat="44.6273967" lon="7.8632767"><ele>290.66666666666663</ele><time>2026-04-12T14:50:16.456Z</time></trkpt><trkpt lat="44.6274633" lon="7.8632367"><ele>291.3333333333333</ele><time>2026-04-12T14:50:18.455Z</time></trkpt><trkpt lat="44.6275383" lon="7.8631967"><ele>292.0</ele><time>2026-04-12T14:50:20.455Z</time></trkpt><trkpt lat="44.6276267" lon="7.8631317"><ele>292.0</ele><time>2026-04-12T14:50:22.455Z</time></trkpt><trkpt lat="44.627725" lon="7.8630683"><ele>292.0</ele><time>2026-04-12T14:50:24.455Z</time></trkpt><trkpt lat="44.6278117" lon="7.8629917"><ele>292.0</ele><time>2026-04-12T14:50:26.455Z</time></trkpt><trkpt lat="44.6278917" lon="7.8629117"><ele>292.0</ele><time>2026-04-12T14:50:28.455Z</time></trkpt><trkpt lat="44.627975" lon="7.8628567"><ele>292.0</ele><time>2026-04-12T14:50:30.455Z</time></trkpt><trkpt lat="44.628055" lon="7.8627817"><ele>292.2</ele><time>2026-04-12T14:50:32.455Z</time></trkpt><trkpt lat="44.6281483" lon="7.8627267"><ele>292.4</ele><time>2026-04-12T14:50:34.455Z</time></trkpt><trkpt lat="44.6282433" lon="7.8626717"><ele>292.6</ele><time>2026-04-12T14:50:36.455Z</time></trkpt><trkpt lat="44.6283317" lon="7.862635"><ele>292.8</ele><time>2026-04-12T14:50:38.455Z</time></trkpt><trkpt lat="44.6284267" lon="7.862575"><ele>293.0</ele><time>2026-04-12T14:50:40.455Z</time></trkpt><trkpt lat="44.628525" lon="7.8625017"><ele>293.0</ele><time>2026-04-12T14:50:42.455Z</time></trkpt><trkpt lat="44.62862" lon="7.86241"><ele>293.0</ele><time>2026-04-12T14:50:44.455Z</time></trkpt><trkpt lat="44.62872" lon="7.8623183"><ele>293.0</ele><time>2026-04-12T14:50:46.455Z</time></trkpt><trkpt lat="44.6288133" lon="7.86222"><ele>293.0</ele><time>2026-04-12T14:50:48.455Z</time></trkpt><trkpt lat="44.628915" lon="7.86213"><ele>292.33333333333337</ele><time>2026-04-12T14:50:50.455Z</time></trkpt><trkpt lat="44.6290233" lon="7.8620683"><ele>291.6666666666667</ele><time>2026-04-12T14:50:52.455Z</time></trkpt><trkpt lat="44.6291467" lon="7.86203"><ele>291.0</ele><time>2026-04-12T14:50:54.455Z</time></trkpt><trkpt lat="44.62921" lon="7.8620183"><ele>290.3333333333333</ele><time>2026-04-12T14:50:55.456Z</time></trkpt><trkpt lat="44.6292767" lon="7.8620083"><ele>289.66666666666663</ele><time>2026-04-12T14:50:56.455Z</time></trkpt><trkpt lat="44.62934" lon="7.8619967"><ele>289.0</ele><time>2026-04-12T14:50:57.455Z</time></trkpt><trkpt lat="44.6294617" lon="7.8619917"><ele>288.75</ele><time>2026-04-12T14:50:59.455Z</time></trkpt><trkpt lat="44.6295833" lon="7.862005"><ele>288.5</ele><time>2026-04-12T14:51:01.455Z</time></trkpt><trkpt lat="44.6296867" lon="7.8620133"><ele>288.25</ele><time>2026-04-12T14:51:03.455Z</time></trkpt><trkpt lat="44.62979" lon="7.8620267"><ele>288.0</ele><time>2026-04-12T14:51:05.455Z</time></trkpt><trkpt lat="44.6299067" lon="7.86207"><ele>288.0</ele><time>2026-04-12T14:51:07.455Z</time></trkpt><trkpt lat="44.6300133" lon="7.8621033"><ele>288.0</ele><time>2026-04-12T14:51:09.455Z</time></trkpt><trkpt lat="44.6301267" lon="7.862115"><ele>288.0</ele><time>2026-04-12T14:51:11.455Z</time></trkpt><trkpt lat="44.63024" lon="7.862125"><ele>288.0</ele><time>2026-04-12T14:51:13.455Z</time></trkpt><trkpt lat="44.6303483" lon="7.8621083"><ele>288.0</ele><time>2026-04-12T14:51:15.455Z</time></trkpt><trkpt lat="44.63048" lon="7.8620883"><ele>287.6</ele><time>2026-04-12T14:51:17.455Z</time></trkpt><trkpt lat="44.6305517" lon="7.862075"><ele>287.20000000000005</ele><time>2026-04-12T14:51:18.455Z</time></trkpt><trkpt lat="44.630675" lon="7.8620367"><ele>286.8</ele><time>2026-04-12T14:51:20.455Z</time></trkpt><trkpt lat="44.6307917" lon="7.8620017"><ele>286.40000000000003</ele><time>2026-04-12T14:51:22.455Z</time></trkpt><trkpt lat="44.63091" lon="7.8619717"><ele>286.0</ele><time>2026-04-12T14:51:24.456Z</time></trkpt><trkpt lat="44.6310167" lon="7.86194"><ele>286.0</ele><time>2026-04-12T14:51:26.455Z</time></trkpt><trkpt lat="44.63113" lon="7.8618917"><ele>286.0</ele><time>2026-04-12T14:51:28.455Z</time></trkpt><trkpt lat="44.631245" lon="7.86188"><ele>286.0</ele><time>2026-04-12T14:51:30.455Z</time></trkpt><trkpt lat="44.6313717" lon="7.86187"><ele>286.0</ele><time>2026-04-12T14:51:32.455Z</time></trkpt><trkpt lat="44.6314917" lon="7.8618433"><ele>285.8333333333333</ele><time>2026-04-12T14:51:34.455Z</time></trkpt><trkpt lat="44.6316067" lon="7.86182"><ele>285.66666666666663</ele><time>2026-04-12T14:51:36.455Z</time></trkpt><trkpt lat="44.631675" lon="7.8618067"><ele>285.5</ele><time>2026-04-12T14:51:37.455Z</time></trkpt><trkpt lat="44.6317433" lon="7.8617933"><ele>285.3333333333333</ele><time>2026-04-12T14:51:38.455Z</time></trkpt><trkpt lat="44.6318117" lon="7.861775"><ele>285.1666666666667</ele><time>2026-04-12T14:51:39.456Z</time></trkpt><trkpt lat="44.631885" lon="7.8617567"><ele>285.0</ele><time>2026-04-12T14:51:40.455Z</time></trkpt><trkpt lat="44.631955" lon="7.86175"><ele>285.57142857142856</ele><time>2026-04-12T14:51:41.455Z</time></trkpt><trkpt lat="44.6320233" lon="7.86175"><ele>286.14285714285717</ele><time>2026-04-12T14:51:42.455Z</time></trkpt><trkpt lat="44.6320933" lon="7.8617483"><ele>286.7142857142857</ele><time>2026-04-12T14:51:43.455Z</time></trkpt><trkpt lat="44.6321633" lon="7.8617433"><ele>287.2857142857143</ele><time>2026-04-12T14:51:44.455Z</time></trkpt><trkpt lat="44.6322283" lon="7.86174"><ele>287.85714285714283</ele><time>2026-04-12T14:51:45.455Z</time></trkpt><trkpt lat="44.632295" lon="7.8617433"><ele>288.42857142857144</ele><time>2026-04-12T14:51:46.455Z</time></trkpt><trkpt lat="44.6323633" lon="7.861745"><ele>289.0</ele><time>2026-04-12T14:51:47.455Z</time></trkpt><trkpt lat="44.63243" lon="7.8617517"><ele>289.0</ele><time>2026-04-12T14:51:48.455Z</time></trkpt><trkpt lat="44.632495" lon="7.86176"><ele>289.0</ele><time>2026-04-12T14:51:49.455Z</time></trkpt><trkpt lat="44.63256" lon="7.8617717"><ele>289.0</ele><time>2026-04-12T14:51:50.455Z</time></trkpt><trkpt lat="44.6326283" lon="7.8617767"><ele>289.0</ele><time>2026-04-12T14:51:51.455Z</time></trkpt><trkpt lat="44.632695" lon="7.861785"><ele>289.0</ele><time>2026-04-12T14:51:52.455Z</time></trkpt><trkpt lat="44.6327633" lon="7.86179"><ele>289.0</ele><time>2026-04-12T14:51:53.455Z</time></trkpt><trkpt lat="44.6328333" lon="7.861795"><ele>289.0</ele><time>2026-04-12T14:51:54.455Z</time></trkpt><trkpt lat="44.6329017" lon="7.8617867"><ele>289.0</ele><time>2026-04-12T14:51:55.456Z</time></trkpt><trkpt lat="44.632965" lon="7.8617817"><ele>289.0</ele><time>2026-04-12T14:51:56.456Z</time></trkpt><trkpt lat="44.633095" lon="7.8617483"><ele>289.0</ele><time>2026-04-12T14:51:58.455Z</time></trkpt><trkpt lat="44.6331617" lon="7.8617233"><ele>289.0</ele><time>2026-04-12T14:51:59.455Z</time></trkpt><trkpt lat="44.6332267" lon="7.8616983"><ele>289.0</ele><time>2026-04-12T14:52:00.456Z</time></trkpt><trkpt lat="44.6332933" lon="7.8616667"><ele>289.0</ele><time>2026-04-12T14:52:01.455Z</time></trkpt><trkpt lat="44.6333533" lon="7.8616383"><ele>289.0</ele><time>2026-04-12T14:52:02.455Z</time></trkpt><trkpt lat="44.63347" lon="7.8615833"><ele>289.0</ele><time>2026-04-12T14:52:04.455Z</time></trkpt><trkpt lat="44.63353" lon="7.861555"><ele>289.0</ele><time>2026-04-12T14:52:05.455Z</time></trkpt><trkpt lat="44.63359" lon="7.8615217"><ele>289.0</ele><time>2026-04-12T14:52:06.455Z</time></trkpt><trkpt lat="44.633655" lon="7.8614933"><ele>289.0</ele><time>2026-04-12T14:52:07.455Z</time></trkpt><trkpt lat="44.633715" lon="7.86146"><ele>289.0</ele><time>2026-04-12T14:52:08.455Z</time></trkpt><trkpt lat="44.633835" lon="7.861415"><ele>288.3333333333333</ele><time>2026-04-12T14:52:10.455Z</time></trkpt><trkpt lat="44.6339517" lon="7.861365"><ele>287.66666666666663</ele><time>2026-04-12T14:52:12.455Z</time></trkpt><trkpt lat="44.6340133" lon="7.8613383"><ele>287.0</ele><time>2026-04-12T14:52:13.455Z</time></trkpt><trkpt lat="44.6340767" lon="7.861315"><ele>286.3333333333333</ele><time>2026-04-12T14:52:14.455Z</time></trkpt><trkpt lat="44.63414" lon="7.8612883"><ele>285.6666666666667</ele><time>2026-04-12T14:52:15.455Z</time></trkpt><trkpt lat="44.6342017" lon="7.8612567"><ele>285.0</ele><time>2026-04-12T14:52:16.455Z</time></trkpt><trkpt lat="44.6342667" lon="7.8612283"><ele>285.0</ele><time>2026-04-12T14:52:17.455Z</time></trkpt><trkpt lat="44.6343283" lon="7.8612"><ele>285.0</ele><time>2026-04-12T14:52:18.455Z</time></trkpt><trkpt lat="44.6344467" lon="7.8611433"><ele>285.0</ele><time>2026-04-12T14:52:20.455Z</time></trkpt><trkpt lat="44.634505" lon="7.8611033"><ele>285.0</ele><time>2026-04-12T14:52:21.455Z</time></trkpt><trkpt lat="44.6345633" lon="7.8610683"><ele>285.0</ele><time>2026-04-12T14:52:22.455Z</time></trkpt><trkpt lat="44.6346683" lon="7.8610017"><ele>285.0</ele><time>2026-04-12T14:52:24.455Z</time></trkpt><trkpt lat="44.634755" lon="7.860925"><ele>285.6</ele><time>2026-04-12T14:52:26.455Z</time></trkpt><trkpt lat="44.63484" lon="7.8608333"><ele>286.2</ele><time>2026-04-12T14:52:28.455Z</time></trkpt><trkpt lat="44.63492" lon="7.8607433"><ele>286.8</ele><time>2026-04-12T14:52:30.455Z</time></trkpt><trkpt lat="44.6349967" lon="7.8606333"><ele>287.4</ele><time>2026-04-12T14:52:32.455Z</time></trkpt><trkpt lat="44.635075" lon="7.8605333"><ele>288.0</ele><time>2026-04-12T14:52:34.455Z</time></trkpt><trkpt lat="44.6351483" lon="7.8604283"><ele>288.0</ele><time>2026-04-12T14:52:36.455Z</time></trkpt><trkpt lat="44.63523" lon="7.8603183"><ele>288.0</ele><time>2026-04-12T14:52:38.455Z</time></trkpt><trkpt lat="44.63531" lon="7.860205"><ele>288.0</ele><time>2026-04-12T14:52:40.455Z</time></trkpt><trkpt lat="44.6353783" lon="7.86008"><ele>288.0</ele><time>2026-04-12T14:52:42.455Z</time></trkpt><trkpt lat="44.6354333" lon="7.8599483"><ele>288.0</ele><time>2026-04-12T14:52:44.455Z</time></trkpt><trkpt lat="44.6354733" lon="7.8598767"><ele>287.8</ele><time>2026-04-12T14:52:45.455Z</time></trkpt><trkpt lat="44.63555" lon="7.8597517"><ele>287.6</ele><time>2026-04-12T14:52:47.455Z</time></trkpt><trkpt lat="44.6356317" lon="7.8596633"><ele>287.4</ele><time>2026-04-12T14:52:49.455Z</time></trkpt><trkpt lat="44.6357267" lon="7.8596117"><ele>287.2</ele><time>2026-04-12T14:52:51.455Z</time></trkpt><trkpt lat="44.6358333" lon="7.85958"><ele>287.0</ele><time>2026-04-12T14:52:53.455Z</time></trkpt><trkpt lat="44.63595" lon="7.8595883"><ele>287.0</ele><time>2026-04-12T14:52:55.455Z</time></trkpt><trkpt lat="44.636065" lon="7.85961"><ele>287.0</ele><time>2026-04-12T14:52:57.455Z</time></trkpt><trkpt lat="44.6361767" lon="7.8596467"><ele>287.0</ele><time>2026-04-12T14:52:59.455Z</time></trkpt><trkpt lat="44.6362967" lon="7.8596933"><ele>287.0</ele><time>2026-04-12T14:53:01.455Z</time></trkpt><trkpt lat="44.6364033" lon="7.8597433"><ele>286.8</ele><time>2026-04-12T14:53:03.455Z</time></trkpt><trkpt lat="44.6365067" lon="7.8597817"><ele>286.6</ele><time>2026-04-12T14:53:05.455Z</time></trkpt><trkpt lat="44.6366167" lon="7.859815"><ele>286.40000000000003</ele><time>2026-04-12T14:53:07.455Z</time></trkpt><trkpt lat="44.6367317" lon="7.85985"><ele>286.2</ele><time>2026-04-12T14:53:09.455Z</time></trkpt><trkpt lat="44.6368317" lon="7.8598817"><ele>286.0</ele><time>2026-04-12T14:53:11.455Z</time></trkpt><trkpt lat="44.636925" lon="7.859895"><ele>286.40000000000003</ele><time>2026-04-12T14:53:13.455Z</time></trkpt><trkpt lat="44.6370233" lon="7.859915"><ele>286.8</ele><time>2026-04-12T14:53:15.455Z</time></trkpt><trkpt lat="44.6371283" lon="7.8599217"><ele>287.20000000000005</ele><time>2026-04-12T14:53:17.455Z</time></trkpt><trkpt lat="44.6372383" lon="7.8599433"><ele>287.6</ele><time>2026-04-12T14:53:19.455Z</time></trkpt><trkpt lat="44.6373533" lon="7.8599617"><ele>288.0</ele><time>2026-04-12T14:53:21.455Z</time></trkpt><trkpt lat="44.6374767" lon="7.859965"><ele>288.0</ele><time>2026-04-12T14:53:23.455Z</time></trkpt><trkpt lat="44.6375917" lon="7.8599867"><ele>288.0</ele><time>2026-04-12T14:53:25.455Z</time></trkpt><trkpt lat="44.6377067" lon="7.8600033"><ele>288.0</ele><time>2026-04-12T14:53:27.455Z</time></trkpt><trkpt lat="44.6378133" lon="7.860005"><ele>288.0</ele><time>2026-04-12T14:53:29.455Z</time></trkpt><trkpt lat="44.6379167" lon="7.8600067"><ele>288.0</ele><time>2026-04-12T14:53:31.455Z</time></trkpt><trkpt lat="44.6380167" lon="7.8600167"><ele>287.8</ele><time>2026-04-12T14:53:33.455Z</time></trkpt><trkpt lat="44.6381267" lon="7.8600267"><ele>287.6</ele><time>2026-04-12T14:53:35.455Z</time></trkpt><trkpt lat="44.63824" lon="7.8600317"><ele>287.4</ele><time>2026-04-12T14:53:37.455Z</time></trkpt><trkpt lat="44.63834" lon="7.86003"><ele>287.2</ele><time>2026-04-12T14:53:39.455Z</time></trkpt><trkpt lat="44.638435" lon="7.8600217"><ele>287.0</ele><time>2026-04-12T14:53:41.455Z</time></trkpt><trkpt lat="44.6385417" lon="7.860005"><ele>286.8</ele><time>2026-04-12T14:53:43.455Z</time></trkpt><trkpt lat="44.6386533" lon="7.8599933"><ele>286.6</ele><time>2026-04-12T14:53:45.455Z</time></trkpt><trkpt lat="44.6387683" lon="7.8599683"><ele>286.40000000000003</ele><time>2026-04-12T14:53:47.455Z</time></trkpt><trkpt lat="44.63888" lon="7.85995"><ele>286.2</ele><time>2026-04-12T14:53:49.455Z</time></trkpt><trkpt lat="44.6389833" lon="7.8599417"><ele>286.0</ele><time>2026-04-12T14:53:51.455Z</time></trkpt><trkpt lat="44.6390983" lon="7.85995"><ele>286.0</ele><time>2026-04-12T14:53:53.455Z</time></trkpt><trkpt lat="44.6392183" lon="7.8599433"><ele>286.0</ele><time>2026-04-12T14:53:55.455Z</time></trkpt><trkpt lat="44.63934" lon="7.859925"><ele>286.0</ele><time>2026-04-12T14:53:57.455Z</time></trkpt><trkpt lat="44.6394567" lon="7.8599067"><ele>286.0</ele><time>2026-04-12T14:53:59.455Z</time></trkpt><trkpt lat="44.6395783" lon="7.8598967"><ele>286.0</ele><time>2026-04-12T14:54:01.455Z</time></trkpt><trkpt lat="44.63969" lon="7.8598767"><ele>286.0</ele><time>2026-04-12T14:54:03.455Z</time></trkpt><trkpt lat="44.639805" lon="7.8598583"><ele>286.0</ele><time>2026-04-12T14:54:05.455Z</time></trkpt><trkpt lat="44.639915" lon="7.8598483"><ele>286.0</ele><time>2026-04-12T14:54:07.455Z</time></trkpt><trkpt lat="44.6400383" lon="7.8598517"><ele>286.0</ele><time>2026-04-12T14:54:09.456Z</time></trkpt><trkpt lat="44.6401567" lon="7.85987"><ele>286.0</ele><time>2026-04-12T14:54:11.456Z</time></trkpt><trkpt lat="44.6402783" lon="7.8598833"><ele>286.0</ele><time>2026-04-12T14:54:13.455Z</time></trkpt><trkpt lat="44.6403417" lon="7.8599"><ele>286.0</ele><time>2026-04-12T14:54:14.455Z</time></trkpt><trkpt lat="44.64046" lon="7.8599167"><ele>286.0</ele><time>2026-04-12T14:54:16.455Z</time></trkpt><trkpt lat="44.640575" lon="7.8599333"><ele>285.8</ele><time>2026-04-12T14:54:18.455Z</time></trkpt><trkpt lat="44.6406867" lon="7.859965"><ele>285.6</ele><time>2026-04-12T14:54:20.455Z</time></trkpt><trkpt lat="44.640805" lon="7.8599867"><ele>285.4</ele><time>2026-04-12T14:54:22.455Z</time></trkpt><trkpt lat="44.6408717" lon="7.8600017"><ele>285.2</ele><time>2026-04-12T14:54:23.455Z</time></trkpt><trkpt lat="44.6409833" lon="7.86006"><ele>285.0</ele><time>2026-04-12T14:54:25.455Z</time></trkpt><trkpt lat="44.641095" lon="7.860115"><ele>284.0</ele><time>2026-04-12T14:54:27.456Z</time></trkpt><trkpt lat="44.6412083" lon="7.8601433"><ele>283.0</ele><time>2026-04-12T14:54:29.455Z</time></trkpt><trkpt lat="44.641305" lon="7.8602117"><ele>282.0</ele><time>2026-04-12T14:54:31.455Z</time></trkpt><trkpt lat="44.6414067" lon="7.860275"><ele>281.0</ele><time>2026-04-12T14:54:33.455Z</time></trkpt><trkpt lat="44.6414967" lon="7.860315"><ele>280.0</ele><time>2026-04-12T14:54:35.455Z</time></trkpt><trkpt lat="44.6415917" lon="7.8603467"><ele>280.0</ele><time>2026-04-12T14:54:37.455Z</time></trkpt><trkpt lat="44.641685" lon="7.860375"><ele>280.0</ele><time>2026-04-12T14:54:39.455Z</time></trkpt><trkpt lat="44.641785" lon="7.8603933"><ele>280.0</ele><time>2026-04-12T14:54:41.455Z</time></trkpt><trkpt lat="44.6418883" lon="7.8604033"><ele>280.0</ele><time>2026-04-12T14:54:43.455Z</time></trkpt><trkpt lat="44.641985" lon="7.8604083"><ele>280.0</ele><time>2026-04-12T14:54:45.455Z</time></trkpt><trkpt lat="44.6421" lon="7.8604217"><ele>280.6</ele><time>2026-04-12T14:54:47.455Z</time></trkpt><trkpt lat="44.6422133" lon="7.8604533"><ele>281.2</ele><time>2026-04-12T14:54:49.455Z</time></trkpt><trkpt lat="44.642325" lon="7.86048"><ele>281.8</ele><time>2026-04-12T14:54:51.455Z</time></trkpt><trkpt lat="44.64243" lon="7.8605067"><ele>282.4</ele><time>2026-04-12T14:54:53.455Z</time></trkpt><trkpt lat="44.6425267" lon="7.8605483"><ele>283.0</ele><time>2026-04-12T14:54:55.455Z</time></trkpt><trkpt lat="44.64262" lon="7.8605867"><ele>283.0</ele><time>2026-04-12T14:54:57.455Z</time></trkpt><trkpt lat="44.6426983" lon="7.8606583"><ele>283.0</ele><time>2026-04-12T14:54:59.455Z</time></trkpt><trkpt lat="44.642765" lon="7.8607283"><ele>283.0</ele><time>2026-04-12T14:55:01.455Z</time></trkpt><trkpt lat="44.6428317" lon="7.8608017"><ele>283.0</ele><time>2026-04-12T14:55:03.455Z</time></trkpt><trkpt lat="44.64291" lon="7.8608867"><ele>283.0</ele><time>2026-04-12T14:55:05.455Z</time></trkpt><trkpt lat="44.64299" lon="7.8609467"><ele>282.6</ele><time>2026-04-12T14:55:07.455Z</time></trkpt><trkpt lat="44.6430767" lon="7.86101"><ele>282.20000000000005</ele><time>2026-04-12T14:55:09.455Z</time></trkpt><trkpt lat="44.6431617" lon="7.8610583"><ele>281.8</ele><time>2026-04-12T14:55:11.455Z</time></trkpt><trkpt lat="44.6432633" lon="7.8610833"><ele>281.40000000000003</ele><time>2026-04-12T14:55:13.455Z</time></trkpt><trkpt lat="44.6433517" lon="7.86113"><ele>281.0</ele><time>2026-04-12T14:55:15.455Z</time></trkpt><trkpt lat="44.6434383" lon="7.8611683"><ele>281.0</ele><time>2026-04-12T14:55:17.455Z</time></trkpt><trkpt lat="44.6435133" lon="7.8611917"><ele>281.0</ele><time>2026-04-12T14:55:19.455Z</time></trkpt><trkpt lat="44.6436117" lon="7.8612283"><ele>281.0</ele><time>2026-04-12T14:56:33.455Z</time></trkpt><trkpt lat="44.643685" lon="7.8612333"><ele>281.0</ele><time>2026-04-12T14:56:36.455Z</time></trkpt><trkpt lat="44.64375" lon="7.8612483"><ele>281.0</ele><time>2026-04-12T14:56:38.455Z</time></trkpt><trkpt lat="44.64382" lon="7.8612933"><ele>281.0</ele><time>2026-04-12T14:56:40.455Z</time></trkpt><trkpt lat="44.6439117" lon="7.8613883"><ele>281.8</ele><time>2026-04-12T14:56:42.455Z</time></trkpt><trkpt lat="44.6440067" lon="7.8614717"><ele>282.6</ele><time>2026-04-12T14:56:44.455Z</time></trkpt><trkpt lat="44.644095" lon="7.8615367"><ele>283.4</ele><time>2026-04-12T14:56:46.455Z</time></trkpt><trkpt lat="44.6441817" lon="7.861605"><ele>284.2</ele><time>2026-04-12T14:56:48.455Z</time></trkpt><trkpt lat="44.6442733" lon="7.86166"><ele>285.0</ele><time>2026-04-12T14:56:50.455Z</time></trkpt><trkpt lat="44.6443767" lon="7.8617217"><ele>285.8</ele><time>2026-04-12T14:56:52.455Z</time></trkpt><trkpt lat="44.6444717" lon="7.8617733"><ele>286.6</ele><time>2026-04-12T14:56:54.455Z</time></trkpt><trkpt lat="44.644565" lon="7.861825"><ele>287.4</ele><time>2026-04-12T14:56:56.455Z</time></trkpt><trkpt lat="44.6446683" lon="7.86186"><ele>288.2</ele><time>2026-04-12T14:56:58.456Z</time></trkpt><trkpt lat="44.6447767" lon="7.8618883"><ele>289.0</ele><time>2026-04-12T14:57:00.455Z</time></trkpt><trkpt lat="44.6448767" lon="7.86191"><ele>286.59999999999997</ele><time>2026-04-12T14:57:02.455Z</time></trkpt><trkpt lat="44.6449717" lon="7.8619433"><ele>284.2</ele><time>2026-04-12T14:57:04.455Z</time></trkpt><trkpt lat="44.6450733" lon="7.86198"><ele>281.79999999999995</ele><time>2026-04-12T14:57:06.455Z</time></trkpt><trkpt lat="44.64518" lon="7.861995"><ele>279.4</ele><time>2026-04-12T14:57:08.455Z</time></trkpt><trkpt lat="44.645285" lon="7.8620017"><ele>277.0</ele><time>2026-04-12T14:57:10.455Z</time></trkpt><trkpt lat="44.6453933" lon="7.8619983"><ele>277.0</ele><time>2026-04-12T14:57:12.455Z</time></trkpt><trkpt lat="44.6455183" lon="7.861995"><ele>277.0</ele><time>2026-04-12T14:57:14.455Z</time></trkpt><trkpt lat="44.6456317" lon="7.8620033"><ele>277.0</ele><time>2026-04-12T14:57:16.455Z</time></trkpt><trkpt lat="44.6457533" lon="7.8619933"><ele>277.0</ele><time>2026-04-12T14:57:18.455Z</time></trkpt><trkpt lat="44.6458167" lon="7.8619933"><ele>277.0</ele><time>2026-04-12T14:57:19.455Z</time></trkpt><trkpt lat="44.6459433" lon="7.861995"><ele>277.0</ele><time>2026-04-12T14:57:21.455Z</time></trkpt><trkpt lat="44.646015" lon="7.8620033"><ele>277.0</ele><time>2026-04-12T14:57:22.455Z</time></trkpt><trkpt lat="44.6460833" lon="7.8619983"><ele>277.0</ele><time>2026-04-12T14:57:23.455Z</time></trkpt><trkpt lat="44.6461475" lon="7.8619929"><ele>277.0</ele><time>2026-04-12T14:57:24.455Z</time></trkpt><trkpt lat="44.6462126" lon="7.8619833"><ele>277.0</ele><time>2026-04-12T14:57:25.455Z</time></trkpt><trkpt lat="44.6463318" lon="7.8619596"><ele>277.0</ele><time>2026-04-12T14:57:27.455Z</time></trkpt><trkpt lat="44.646441" lon="7.8619216"><ele>276.0</ele><time>2026-04-12T14:57:29.455Z</time></trkpt><trkpt lat="44.6465396" lon="7.861897"><ele>275.0</ele><time>2026-04-12T14:57:31.455Z</time></trkpt><trkpt lat="44.6466334" lon="7.861867"><ele>274.0</ele><time>2026-04-12T14:57:33.455Z</time></trkpt><trkpt lat="44.6467337" lon="7.8618396"><ele>273.0</ele><time>2026-04-12T14:57:35.455Z</time></trkpt><trkpt lat="44.6468441" lon="7.8618063"><ele>272.0</ele><time>2026-04-12T14:57:37.455Z</time></trkpt><trkpt lat="44.6469501" lon="7.8617913"><ele>275.2</ele><time>2026-04-12T14:57:39.455Z</time></trkpt><trkpt lat="44.6470613" lon="7.8617777"><ele>278.4</ele><time>2026-04-12T14:57:41.455Z</time></trkpt><trkpt lat="44.6471722" lon="7.8617673"><ele>281.6</ele><time>2026-04-12T14:57:43.455Z</time></trkpt><trkpt lat="44.6472818" lon="7.8617476"><ele>284.8</ele><time>2026-04-12T14:57:45.455Z</time></trkpt><trkpt lat="44.6473873" lon="7.8617433"><ele>288.0</ele><time>2026-04-12T14:57:47.455Z</time></trkpt><trkpt lat="44.6474964" lon="7.861731"><ele>288.0</ele><time>2026-04-12T14:57:49.455Z</time></trkpt><trkpt lat="44.6475909" lon="7.8616798"><ele>288.0</ele><time>2026-04-12T14:57:51.455Z</time></trkpt><trkpt lat="44.6476663" lon="7.8615741"><ele>288.0</ele><time>2026-04-12T14:57:53.455Z</time></trkpt><trkpt lat="44.6477313" lon="7.8614434"><ele>288.0</ele><time>2026-04-12T14:57:55.455Z</time></trkpt><trkpt lat="44.64779" lon="7.861315"><ele>288.0</ele><time>2026-04-12T14:57:57.455Z</time></trkpt><trkpt lat="44.6478783" lon="7.8612417"><ele>287.8</ele><time>2026-04-12T14:57:59.455Z</time></trkpt><trkpt lat="44.647985" lon="7.861225"><ele>287.6</ele><time>2026-04-12T14:58:01.455Z</time></trkpt><trkpt lat="44.64809" lon="7.8612317"><ele>287.4</ele><time>2026-04-12T14:58:03.455Z</time></trkpt><trkpt lat="44.6481933" lon="7.8612317"><ele>287.2</ele><time>2026-04-12T14:58:05.455Z</time></trkpt><trkpt lat="44.64829" lon="7.8612317"><ele>287.0</ele><time>2026-04-12T14:58:07.455Z</time></trkpt><trkpt lat="44.6483783" lon="7.8612383"><ele>287.0</ele><time>2026-04-12T14:58:09.455Z</time></trkpt><trkpt lat="44.6484667" lon="7.861255"><ele>287.0</ele><time>2026-04-12T14:58:11.455Z</time></trkpt><trkpt lat="44.6485617" lon="7.8612467"><ele>287.0</ele><time>2026-04-12T14:58:13.455Z</time></trkpt><trkpt lat="44.64865" lon="7.8612317"><ele>287.0</ele><time>2026-04-12T14:58:15.455Z</time></trkpt><trkpt lat="44.6487317" lon="7.861215"><ele>287.0</ele><time>2026-04-12T14:58:17.456Z</time></trkpt><trkpt lat="44.6488283" lon="7.861205"><ele>287.8</ele><time>2026-04-12T14:58:19.455Z</time></trkpt><trkpt lat="44.648935" lon="7.8612033"><ele>288.6</ele><time>2026-04-12T14:58:21.456Z</time></trkpt><trkpt lat="44.649035" lon="7.8612067"><ele>289.40000000000003</ele><time>2026-04-12T14:58:23.455Z</time></trkpt><trkpt lat="44.649125" lon="7.8612117"><ele>290.2</ele><time>2026-04-12T14:58:25.455Z</time></trkpt><trkpt lat="44.649205" lon="7.8612167"><ele>291.0</ele><time>2026-04-12T14:58:27.455Z</time></trkpt><trkpt lat="44.6492917" lon="7.861225"><ele>291.0</ele><time>2026-04-12T14:58:29.455Z</time></trkpt><trkpt lat="44.6493683" lon="7.8612317"><ele>291.0</ele><time>2026-04-12T14:58:31.455Z</time></trkpt><trkpt lat="44.6494417" lon="7.8612033"><ele>291.0</ele><time>2026-04-12T14:58:33.455Z</time></trkpt><trkpt lat="44.6495217" lon="7.861175"><ele>291.0</ele><time>2026-04-12T14:58:36.455Z</time></trkpt><trkpt lat="44.64957" lon="7.86106"><ele>291.0</ele><time>2026-04-12T14:58:39.455Z</time></trkpt><trkpt lat="44.64958" lon="7.8609067"><ele>291.0</ele><time>2026-04-12T14:58:41.455Z</time></trkpt><trkpt lat="44.6495833" lon="7.860745"><ele>291.0</ele><time>2026-04-12T14:58:43.455Z</time></trkpt><trkpt lat="44.649585" lon="7.86058"><ele>291.0</ele><time>2026-04-12T14:58:45.455Z</time></trkpt><trkpt lat="44.649575" lon="7.8604167"><ele>291.0</ele><time>2026-04-12T14:58:47.455Z</time></trkpt><trkpt lat="44.6495817" lon="7.8602933"><ele>291.0</ele><time>2026-04-12T14:58:48.455Z</time></trkpt><trkpt lat="44.6495783" lon="7.8601283"><ele>291.0</ele><time>2026-04-12T14:58:50.455Z</time></trkpt><trkpt lat="44.6495783" lon="7.86003"><ele>290.8</ele><time>2026-04-12T14:58:51.455Z</time></trkpt><trkpt lat="44.64958" lon="7.859915"><ele>290.6</ele><time>2026-04-12T14:58:53.455Z</time></trkpt><trkpt lat="44.649585" lon="7.859775"><ele>290.4</ele><time>2026-04-12T14:58:55.455Z</time></trkpt><trkpt lat="44.6495883" lon="7.8596067"><ele>290.2</ele><time>2026-04-12T14:58:57.455Z</time></trkpt><trkpt lat="44.6495867" lon="7.8594367"><ele>290.0</ele><time>2026-04-12T14:58:59.456Z</time></trkpt><trkpt lat="44.6495767" lon="7.8592667"><ele>290.0</ele><time>2026-04-12T14:59:01.455Z</time></trkpt><trkpt lat="44.64957" lon="7.8591783"><ele>290.0</ele><time>2026-04-12T14:59:02.455Z</time></trkpt><trkpt lat="44.6495667" lon="7.8590117"><ele>290.0</ele><time>2026-04-12T14:59:04.455Z</time></trkpt><trkpt lat="44.6495717" lon="7.858845"><ele>290.0</ele><time>2026-04-12T14:59:06.456Z</time></trkpt><trkpt lat="44.6495767" lon="7.8586883"><ele>290.0</ele><time>2026-04-12T14:59:08.455Z</time></trkpt><trkpt lat="44.6495817" lon="7.8585567"><ele>290.33333333333337</ele><time>2026-04-12T14:59:10.455Z</time></trkpt><trkpt lat="44.6495783" lon="7.8584333"><ele>290.6666666666667</ele><time>2026-04-12T14:59:12.456Z</time></trkpt><trkpt lat="44.6495783" lon="7.8583433"><ele>291.0</ele><time>2026-04-12T14:59:14.455Z</time></trkpt><trkpt lat="44.6495983" lon="7.8582517"><ele>291.3333333333333</ele><time>2026-04-12T14:59:17.455Z</time></trkpt><trkpt lat="44.649685" lon="7.8582083"><ele>291.66666666666663</ele><time>2026-04-12T14:59:20.455Z</time></trkpt><trkpt lat="44.6498" lon="7.8582033"><ele>292.0</ele><time>2026-04-12T14:59:22.455Z</time></trkpt><trkpt lat="44.64991" lon="7.8581933"><ele>292.0</ele><time>2026-04-12T14:59:24.455Z</time></trkpt><trkpt lat="44.6500233" lon="7.858195"><ele>292.0</ele><time>2026-04-12T14:59:26.455Z</time></trkpt><trkpt lat="44.6501383" lon="7.85818"><ele>292.0</ele><time>2026-04-12T14:59:28.455Z</time></trkpt><trkpt lat="44.6502517" lon="7.8581733"><ele>292.0</ele><time>2026-04-12T14:59:30.455Z</time></trkpt><trkpt lat="44.6503583" lon="7.85817"><ele>292.0</ele><time>2026-04-12T14:59:32.455Z</time></trkpt><trkpt lat="44.6504567" lon="7.8581583"><ele>292.5</ele><time>2026-04-12T14:59:34.455Z</time></trkpt><trkpt lat="44.6505617" lon="7.8581583"><ele>293.0</ele><time>2026-04-12T14:59:36.455Z</time></trkpt><trkpt lat="44.6506733" lon="7.8581417"><ele>293.5</ele><time>2026-04-12T14:59:38.455Z</time></trkpt><trkpt lat="44.650785" lon="7.858125"><ele>294.0</ele><time>2026-04-12T14:59:40.455Z</time></trkpt><trkpt lat="44.650905" lon="7.8581133"><ele>294.0</ele><time>2026-04-12T14:59:42.455Z</time></trkpt><trkpt lat="44.65098" lon="7.8581267"><ele>294.0</ele><time>2026-04-12T14:59:43.455Z</time></trkpt><trkpt lat="44.6511033" lon="7.858125"><ele>294.0</ele><time>2026-04-12T14:59:45.455Z</time></trkpt><trkpt lat="44.6511667" lon="7.858115"><ele>294.0</ele><time>2026-04-12T14:59:46.455Z</time></trkpt><trkpt lat="44.6512817" lon="7.8581167"><ele>294.0</ele><time>2026-04-12T14:59:48.455Z</time></trkpt><trkpt lat="44.65139" lon="7.85812"><ele>293.8</ele><time>2026-04-12T14:59:50.455Z</time></trkpt><trkpt lat="44.651495" lon="7.8581267"><ele>293.59999999999997</ele><time>2026-04-12T14:59:52.456Z</time></trkpt><trkpt lat="44.6515967" lon="7.8581117"><ele>293.4</ele><time>2026-04-12T14:59:54.455Z</time></trkpt><trkpt lat="44.6516983" lon="7.8581067"><ele>293.2</ele><time>2026-04-12T14:59:56.455Z</time></trkpt><trkpt lat="44.6517833" lon="7.8581117"><ele>293.0</ele><time>2026-04-12T14:59:58.455Z</time></trkpt><trkpt lat="44.6518633" lon="7.8580733"><ele>293.0</ele><time>2026-04-12T15:00:00.455Z</time></trkpt><trkpt lat="44.6519733" lon="7.8580783"><ele>293.0</ele><time>2026-04-12T15:00:02.455Z</time></trkpt><trkpt lat="44.6520667" lon="7.858045"><ele>293.0</ele><time>2026-04-12T15:00:04.455Z</time></trkpt><trkpt lat="44.6521633" lon="7.8580217"><ele>293.0</ele><time>2026-04-12T15:00:06.455Z</time></trkpt><trkpt lat="44.6522667" lon="7.85802"><ele>293.0</ele><time>2026-04-12T15:00:08.455Z</time></trkpt><trkpt lat="44.6523583" lon="7.858025"><ele>293.0</ele><time>2026-04-12T15:00:10.455Z</time></trkpt><trkpt lat="44.652445" lon="7.85803"><ele>293.0</ele><time>2026-04-12T15:00:12.455Z</time></trkpt><trkpt lat="44.6525367" lon="7.8580033"><ele>293.0</ele><time>2026-04-12T15:00:14.455Z</time></trkpt><trkpt lat="44.6526117" lon="7.858005"><ele>293.0</ele><time>2026-04-12T15:00:16.455Z</time></trkpt><trkpt lat="44.6526767" lon="7.85801"><ele>293.0</ele><time>2026-04-12T15:00:18.455Z</time></trkpt><trkpt lat="44.6527417" lon="7.8580233"><ele>293.0</ele><time>2026-04-12T15:00:20.455Z</time></trkpt><trkpt lat="44.6528183" lon="7.8580217"><ele>292.83333333333337</ele><time>2026-04-12T15:00:22.455Z</time></trkpt><trkpt lat="44.6528933" lon="7.8580367"><ele>292.6666666666667</ele><time>2026-04-12T15:00:24.455Z</time></trkpt><trkpt lat="44.65298" lon="7.858025"><ele>292.5</ele><time>2026-04-12T15:00:26.455Z</time></trkpt><trkpt lat="44.6530633" lon="7.858025"><ele>292.3333333333333</ele><time>2026-04-12T15:00:28.455Z</time></trkpt><trkpt lat="44.6531533" lon="7.8580183"><ele>292.16666666666663</ele><time>2026-04-12T15:00:30.455Z</time></trkpt><trkpt lat="44.6532467" lon="7.8580133"><ele>292.0</ele><time>2026-04-12T15:00:32.455Z</time></trkpt><trkpt lat="44.6533433" lon="7.8579983"><ele>292.0</ele><time>2026-04-12T15:00:34.455Z</time></trkpt><trkpt lat="44.6534283" lon="7.857985"><ele>292.0</ele><time>2026-04-12T15:00:36.455Z</time></trkpt><trkpt lat="44.653525" lon="7.858015"><ele>292.0</ele><time>2026-04-12T15:00:38.455Z</time></trkpt><trkpt lat="44.6536083" lon="7.85801"><ele>292.0</ele><time>2026-04-12T15:00:40.455Z</time></trkpt><trkpt lat="44.6536717" lon="7.8579983"><ele>292.0</ele><time>2026-04-12T15:00:42.456Z</time></trkpt><trkpt lat="44.6537567" lon="7.857995"><ele>292.0</ele><time>2026-04-12T15:00:46.455Z</time></trkpt><trkpt lat="44.6538267" lon="7.8579317"><ele>292.0</ele><time>2026-04-12T15:00:49.455Z</time></trkpt><trkpt lat="44.6538433" lon="7.8577933"><ele>292.0</ele><time>2026-04-12T15:00:51.455Z</time></trkpt><trkpt lat="44.6538533" lon="7.8576383"><ele>292.0</ele><time>2026-04-12T15:00:52.455Z</time></trkpt><trkpt lat="44.6538533" lon="7.8574767"><ele>292.0</ele><time>2026-04-12T15:00:54.455Z</time></trkpt><trkpt lat="44.65384" lon="7.8573267"><ele>292.0</ele><time>2026-04-12T15:00:56.455Z</time></trkpt><trkpt lat="44.6538417" lon="7.857205"><ele>292.0</ele><time>2026-04-12T15:00:58.456Z</time></trkpt><trkpt lat="44.65384" lon="7.857115"><ele>292.0</ele><time>2026-04-12T15:01:00.455Z</time></trkpt><trkpt lat="44.6538483" lon="7.857005"><ele>292.0</ele><time>2026-04-12T15:01:02.455Z</time></trkpt><trkpt lat="44.6538517" lon="7.85687"><ele>292.0</ele><time>2026-04-12T15:01:04.455Z</time></trkpt><trkpt lat="44.6538467" lon="7.8567217"><ele>292.0</ele><time>2026-04-12T15:01:06.455Z</time></trkpt><trkpt lat="44.6538433" lon="7.8565717"><ele>292.2</ele><time>2026-04-12T15:01:08.455Z</time></trkpt><trkpt lat="44.6538383" lon="7.8564317"><ele>292.4</ele><time>2026-04-12T15:01:10.455Z</time></trkpt><trkpt lat="44.6538267" lon="7.85628"><ele>292.6</ele><time>2026-04-12T15:01:12.456Z</time></trkpt><trkpt lat="44.65381" lon="7.85614"><ele>292.8</ele><time>2026-04-12T15:01:14.455Z</time></trkpt><trkpt lat="44.6537967" lon="7.8559883"><ele>293.0</ele><time>2026-04-12T15:01:16.455Z</time></trkpt><trkpt lat="44.653795" lon="7.8558817"><ele>292.33333333333337</ele><time>2026-04-12T15:01:18.455Z</time></trkpt><trkpt lat="44.6537783" lon="7.8557583"><ele>291.6666666666667</ele><time>2026-04-12T15:01:20.455Z</time></trkpt><trkpt lat="44.6537533" lon="7.85558"><ele>291.0</ele><time>2026-04-12T15:01:22.455Z</time></trkpt><trkpt lat="44.653745" lon="7.8554867"><ele>290.3333333333333</ele><time>2026-04-12T15:01:23.455Z</time></trkpt><trkpt lat="44.6537433" lon="7.8553967"><ele>289.66666666666663</ele><time>2026-04-12T15:01:24.456Z</time></trkpt><trkpt lat="44.65374" lon="7.855305"><ele>289.0</ele><time>2026-04-12T15:01:25.456Z</time></trkpt><trkpt lat="44.65373" lon="7.855215"><ele>287.8333333333333</ele><time>2026-04-12T15:01:26.455Z</time></trkpt><trkpt lat="44.653725" lon="7.85512"><ele>286.66666666666663</ele><time>2026-04-12T15:01:27.455Z</time></trkpt><trkpt lat="44.653715" lon="7.8549867"><ele>285.5</ele><time>2026-04-12T15:01:29.455Z</time></trkpt><trkpt lat="44.653725" lon="7.8548617"><ele>284.3333333333333</ele><time>2026-04-12T15:01:32.455Z</time></trkpt><trkpt lat="44.6537967" lon="7.8547917"><ele>283.1666666666667</ele><time>2026-04-12T15:01:34.455Z</time></trkpt><trkpt lat="44.6538533" lon="7.8547517"><ele>282.0</ele><time>2026-04-12T15:01:35.455Z</time></trkpt><trkpt lat="44.65392" lon="7.8547117"><ele>282.0</ele><time>2026-04-12T15:01:36.455Z</time></trkpt><trkpt lat="44.654" lon="7.854675"><ele>282.0</ele><time>2026-04-12T15:01:37.455Z</time></trkpt><trkpt lat="44.65408" lon="7.8546233"><ele>282.0</ele><time>2026-04-12T15:01:38.455Z</time></trkpt><trkpt lat="44.6541583" lon="7.854565"><ele>282.0</ele><time>2026-04-12T15:01:39.455Z</time></trkpt><trkpt lat="44.6542417" lon="7.8544933"><ele>282.0</ele><time>2026-04-12T15:01:40.455Z</time></trkpt><trkpt lat="44.6543267" lon="7.8544033"><ele>282.0</ele><time>2026-04-12T15:01:41.455Z</time></trkpt><trkpt lat="44.65441" lon="7.8543"><ele>282.0</ele><time>2026-04-12T15:01:42.455Z</time></trkpt><trkpt lat="44.6544867" lon="7.8541933"><ele>282.0</ele><time>2026-04-12T15:01:43.455Z</time></trkpt><trkpt lat="44.65456" lon="7.8540917"><ele>282.0</ele><time>2026-04-12T15:01:44.455Z</time></trkpt><trkpt lat="44.65464" lon="7.85401"><ele>282.0</ele><time>2026-04-12T15:01:45.455Z</time></trkpt><trkpt lat="44.6547217" lon="7.8539517"><ele>279.0</ele><time>2026-04-12T15:01:46.455Z</time></trkpt><trkpt lat="44.6548033" lon="7.8539217"><ele>276.0</ele><time>2026-04-12T15:01:47.455Z</time></trkpt><trkpt lat="44.65489" lon="7.8539467"><ele>273.0</ele><time>2026-04-12T15:01:48.455Z</time></trkpt><trkpt lat="44.6549717" lon="7.8540183"><ele>270.0</ele><time>2026-04-12T15:01:49.455Z</time></trkpt><trkpt lat="44.6550383" lon="7.8541333"><ele>267.0</ele><time>2026-04-12T15:01:50.455Z</time></trkpt><trkpt lat="44.6550883" lon="7.8542517"><ele>264.5</ele><time>2026-04-12T15:01:51.455Z</time></trkpt><trkpt lat="44.6551283" lon="7.8543517"><ele>262.0</ele><time>2026-04-12T15:01:52.455Z</time></trkpt><trkpt lat="44.6551667" lon="7.8544383"><ele>259.5</ele><time>2026-04-12T15:01:53.455Z</time></trkpt><trkpt lat="44.6552533" lon="7.85451"><ele>257.0</ele><time>2026-04-12T15:01:55.455Z</time></trkpt><trkpt lat="44.65534" lon="7.85444"><ele>254.5</ele><time>2026-04-12T15:01:57.455Z</time></trkpt><trkpt lat="44.6553367" lon="7.8543383"><ele>252.0</ele><time>2026-04-12T15:01:58.455Z</time></trkpt><trkpt lat="44.655315" lon="7.8542467"><ele>254.5</ele><time>2026-04-12T15:01:59.455Z</time></trkpt><trkpt lat="44.65528" lon="7.8541483"><ele>257.0</ele><time>2026-04-12T15:02:00.455Z</time></trkpt><trkpt lat="44.65524" lon="7.8540433"><ele>259.5</ele><time>2026-04-12T15:02:01.455Z</time></trkpt><trkpt lat="44.6551967" lon="7.8539433"><ele>262.0</ele><time>2026-04-12T15:02:02.455Z</time></trkpt><trkpt lat="44.6551433" lon="7.8538467"><ele>264.5</ele><time>2026-04-12T15:02:03.455Z</time></trkpt><trkpt lat="44.655095" lon="7.85377"><ele>267.0</ele><time>2026-04-12T15:02:04.455Z</time></trkpt><trkpt lat="44.6550667" lon="7.85365"><ele>267.0</ele><time>2026-04-12T15:02:06.455Z</time></trkpt><trkpt lat="44.6551233" lon="7.8535633"><ele>267.0</ele><time>2026-04-12T15:02:08.455Z</time></trkpt><trkpt lat="44.6551983" lon="7.85361"><ele>267.0</ele><time>2026-04-12T15:02:09.455Z</time></trkpt><trkpt lat="44.6552583" lon="7.8537"><ele>267.0</ele><time>2026-04-12T15:02:10.455Z</time></trkpt><trkpt lat="44.65532" lon="7.8538033"><ele>267.0</ele><time>2026-04-12T15:02:11.455Z</time></trkpt><trkpt lat="44.655375" lon="7.85393"><ele>264.0</ele><time>2026-04-12T15:02:12.455Z</time></trkpt><trkpt lat="44.655435" lon="7.8540567"><ele>261.0</ele><time>2026-04-12T15:02:13.455Z</time></trkpt><trkpt lat="44.6554983" lon="7.854175"><ele>258.0</ele><time>2026-04-12T15:02:14.455Z</time></trkpt><trkpt lat="44.6555633" lon="7.8543"><ele>255.0</ele><time>2026-04-12T15:02:15.455Z</time></trkpt><trkpt lat="44.6556267" lon="7.8544317"><ele>252.0</ele><time>2026-04-12T15:02:16.456Z</time></trkpt><trkpt lat="44.65569" lon="7.854565"><ele>252.0</ele><time>2026-04-12T15:02:17.455Z</time></trkpt><trkpt lat="44.6557583" lon="7.85471"><ele>252.0</ele><time>2026-04-12T15:02:18.455Z</time></trkpt><trkpt lat="44.6558167" lon="7.8548583"><ele>252.0</ele><time>2026-04-12T15:02:19.455Z</time></trkpt><trkpt lat="44.65587" lon="7.8550117"><ele>252.0</ele><time>2026-04-12T15:02:20.455Z</time></trkpt><trkpt lat="44.6559117" lon="7.85517"><ele>254.0</ele><time>2026-04-12T15:02:21.455Z</time></trkpt><trkpt lat="44.6559517" lon="7.8553383"><ele>256.0</ele><time>2026-04-12T15:02:22.455Z</time></trkpt><trkpt lat="44.65598" lon="7.85551"><ele>258.0</ele><time>2026-04-12T15:02:23.455Z</time></trkpt><trkpt lat="44.65601" lon="7.855685"><ele>260.0</ele><time>2026-04-12T15:02:24.455Z</time></trkpt><trkpt lat="44.6560317" lon="7.8558583"><ele>259.0</ele><time>2026-04-12T15:02:25.455Z</time></trkpt><trkpt lat="44.6560417" lon="7.8560183"><ele>258.0</ele><time>2026-04-12T15:02:26.455Z</time></trkpt><trkpt lat="44.6560633" lon="7.856165"><ele>257.0</ele><time>2026-04-12T15:02:27.455Z</time></trkpt><trkpt lat="44.656075" lon="7.8563"><ele>256.0</ele><time>2026-04-12T15:02:28.455Z</time></trkpt><trkpt lat="44.6560883" lon="7.85642"><ele>255.0</ele><time>2026-04-12T15:02:29.455Z</time></trkpt><trkpt lat="44.6561167" lon="7.85653"><ele>247.6</ele><time>2026-04-12T15:02:30.455Z</time></trkpt><trkpt lat="44.6561517" lon="7.8566233"><ele>240.2</ele><time>2026-04-12T15:02:31.455Z</time></trkpt><trkpt lat="44.65622" lon="7.8566917"><ele>232.8</ele><time>2026-04-12T15:02:32.455Z</time></trkpt><trkpt lat="44.6563133" lon="7.8567167"><ele>225.4</ele><time>2026-04-12T15:02:33.456Z</time></trkpt><trkpt lat="44.65642" lon="7.8566633"><ele>218.0</ele><time>2026-04-12T15:02:34.455Z</time></trkpt><trkpt lat="44.6565183" lon="7.8565917"><ele>218.0</ele><time>2026-04-12T15:02:35.455Z</time></trkpt><trkpt lat="44.6566217" lon="7.85652"><ele>218.0</ele><time>2026-04-12T15:02:36.455Z</time></trkpt><trkpt lat="44.6567133" lon="7.8564517"><ele>218.0</ele><time>2026-04-12T15:02:37.455Z</time></trkpt><trkpt lat="44.6568" lon="7.8564"><ele>218.0</ele><time>2026-04-12T15:02:38.455Z</time></trkpt><trkpt lat="44.6568817" lon="7.85635"><ele>218.0</ele><time>2026-04-12T15:02:39.455Z</time></trkpt><trkpt lat="44.6569467" lon="7.8563183"><ele>217.00000000000003</ele><time>2026-04-12T15:02:40.455Z</time></trkpt><trkpt lat="44.6570533" lon="7.8562633"><ele>216.0</ele><time>2026-04-12T15:02:42.455Z</time></trkpt><trkpt lat="44.6571667" lon="7.856225"><ele>215.0</ele><time>2026-04-12T15:02:44.455Z</time></trkpt><trkpt lat="44.6572333" lon="7.85622"><ele>214.0</ele><time>2026-04-12T15:02:45.455Z</time></trkpt><trkpt lat="44.6573017" lon="7.8562017"><ele>213.00000000000003</ele><time>2026-04-12T15:02:46.455Z</time></trkpt><trkpt lat="44.65737" lon="7.8561667"><ele>212.0</ele><time>2026-04-12T15:02:47.455Z</time></trkpt><trkpt lat="44.6574383" lon="7.8561283"><ele>212.0</ele><time>2026-04-12T15:02:48.455Z</time></trkpt><trkpt lat="44.657505" lon="7.8560883"><ele>212.0</ele><time>2026-04-12T15:02:49.455Z</time></trkpt><trkpt lat="44.6575733" lon="7.8560567"><ele>212.0</ele><time>2026-04-12T15:02:50.455Z</time></trkpt><trkpt lat="44.6576417" lon="7.8560233"><ele>212.0</ele><time>2026-04-12T15:02:51.455Z</time></trkpt><trkpt lat="44.6577083" lon="7.8559933"><ele>212.0</ele><time>2026-04-12T15:02:52.455Z</time></trkpt><trkpt lat="44.65778" lon="7.8559733"><ele>212.0</ele><time>2026-04-12T15:02:53.455Z</time></trkpt><trkpt lat="44.6578517" lon="7.85595"><ele>212.0</ele><time>2026-04-12T15:02:54.455Z</time></trkpt><trkpt lat="44.6579183" lon="7.8559217"><ele>211.71428571428572</ele><time>2026-04-12T15:02:55.455Z</time></trkpt><trkpt lat="44.6579867" lon="7.855895"><ele>211.42857142857142</ele><time>2026-04-12T15:02:56.455Z</time></trkpt><trkpt lat="44.6580583" lon="7.855875"><ele>211.14285714285714</ele><time>2026-04-12T15:02:57.455Z</time></trkpt><trkpt lat="44.658125" lon="7.8558467"><ele>210.85714285714286</ele><time>2026-04-12T15:02:58.456Z</time></trkpt><trkpt lat="44.658195" lon="7.8558233"><ele>210.57142857142856</ele><time>2026-04-12T15:02:59.455Z</time></trkpt><trkpt lat="44.6582583" lon="7.8557983"><ele>210.28571428571428</ele><time>2026-04-12T15:03:00.455Z</time></trkpt><trkpt lat="44.65833" lon="7.8557733"><ele>210.0</ele><time>2026-04-12T15:03:01.455Z</time></trkpt><trkpt lat="44.658405" lon="7.85574"><ele>210.0</ele><time>2026-04-12T15:03:02.455Z</time></trkpt><trkpt lat="44.6584817" lon="7.85571"><ele>210.0</ele><time>2026-04-12T15:03:03.455Z</time></trkpt><trkpt lat="44.6585633" lon="7.8556833"><ele>210.0</ele><time>2026-04-12T15:03:04.455Z</time></trkpt><trkpt lat="44.6586483" lon="7.8556517"><ele>210.0</ele><time>2026-04-12T15:03:05.455Z</time></trkpt><trkpt lat="44.65873" lon="7.8556267"><ele>210.0</ele><time>2026-04-12T15:03:06.455Z</time></trkpt><trkpt lat="44.65881" lon="7.8555967"><ele>210.0</ele><time>2026-04-12T15:03:07.455Z</time></trkpt><trkpt lat="44.658885" lon="7.855565"><ele>208.83333333333334</ele><time>2026-04-12T15:03:08.455Z</time></trkpt><trkpt lat="44.65896" lon="7.8555333"><ele>207.66666666666669</ele><time>2026-04-12T15:03:09.455Z</time></trkpt><trkpt lat="44.65903" lon="7.8555083"><ele>206.5</ele><time>2026-04-12T15:03:10.455Z</time></trkpt><trkpt lat="44.659105" lon="7.85548"><ele>205.33333333333334</ele><time>2026-04-12T15:03:11.455Z</time></trkpt><trkpt lat="44.65918" lon="7.8554583"><ele>204.16666666666669</ele><time>2026-04-12T15:03:12.455Z</time></trkpt><trkpt lat="44.6592533" lon="7.8554317"><ele>203.0</ele><time>2026-04-12T15:03:13.455Z</time></trkpt><trkpt lat="44.6593267" lon="7.85539"><ele>203.0</ele><time>2026-04-12T15:03:14.455Z</time></trkpt><trkpt lat="44.6593983" lon="7.8553583"><ele>203.0</ele><time>2026-04-12T15:03:15.455Z</time></trkpt><trkpt lat="44.6594617" lon="7.8553283"><ele>203.0</ele><time>2026-04-12T15:03:16.455Z</time></trkpt><trkpt lat="44.6595333" lon="7.8553033"><ele>203.0</ele><time>2026-04-12T15:03:17.455Z</time></trkpt><trkpt lat="44.659605" lon="7.855275"><ele>203.0</ele><time>2026-04-12T15:03:18.456Z</time></trkpt><trkpt lat="44.6596817" lon="7.8552517"><ele>203.0</ele><time>2026-04-12T15:03:19.455Z</time></trkpt><trkpt lat="44.65975" lon="7.8552367"><ele>203.0</ele><time>2026-04-12T15:03:20.455Z</time></trkpt><trkpt lat="44.659825" lon="7.8552067"><ele>203.28571428571428</ele><time>2026-04-12T15:03:21.455Z</time></trkpt><trkpt lat="44.65989" lon="7.855175"><ele>203.57142857142856</ele><time>2026-04-12T15:03:22.455Z</time></trkpt><trkpt lat="44.6599517" lon="7.8551483"><ele>203.85714285714286</ele><time>2026-04-12T15:03:23.455Z</time></trkpt><trkpt lat="44.66002" lon="7.8551233"><ele>204.14285714285714</ele><time>2026-04-12T15:03:24.455Z</time></trkpt><trkpt lat="44.6600833" lon="7.8551"><ele>204.42857142857142</ele><time>2026-04-12T15:03:25.455Z</time></trkpt><trkpt lat="44.6601467" lon="7.8550683"><ele>204.71428571428572</ele><time>2026-04-12T15:03:26.455Z</time></trkpt><trkpt lat="44.6602117" lon="7.85504"><ele>205.0</ele><time>2026-04-12T15:03:27.455Z</time></trkpt><trkpt lat="44.6602767" lon="7.8550183"><ele>205.49999999999997</ele><time>2026-04-12T15:03:28.455Z</time></trkpt><trkpt lat="44.6603383" lon="7.8549933"><ele>206.0</ele><time>2026-04-12T15:03:29.455Z</time></trkpt><trkpt lat="44.6604017" lon="7.85497"><ele>206.5</ele><time>2026-04-12T15:03:30.455Z</time></trkpt><trkpt lat="44.6604667" lon="7.85494"><ele>207.0</ele><time>2026-04-12T15:03:31.455Z</time></trkpt><trkpt lat="44.6605283" lon="7.854915"><ele>207.49999999999997</ele><time>2026-04-12T15:03:32.455Z</time></trkpt><trkpt lat="44.6606467" lon="7.8548667"><ele>208.0</ele><time>2026-04-12T15:03:34.455Z</time></trkpt><trkpt lat="44.6607683" lon="7.85483"><ele>208.0</ele><time>2026-04-12T15:03:36.455Z</time></trkpt><trkpt lat="44.6608317" lon="7.8548067"><ele>208.0</ele><time>2026-04-12T15:03:37.455Z</time></trkpt><trkpt lat="44.6608967" lon="7.854785"><ele>208.0</ele><time>2026-04-12T15:03:38.455Z</time></trkpt><trkpt lat="44.6609583" lon="7.8547667"><ele>208.0</ele><time>2026-04-12T15:03:39.455Z</time></trkpt><trkpt lat="44.6610217" lon="7.854755"><ele>208.0</ele><time>2026-04-12T15:03:40.456Z</time></trkpt><trkpt lat="44.661085" lon="7.8547467"><ele>208.0</ele><time>2026-04-12T15:03:41.455Z</time></trkpt><trkpt lat="44.6611917" lon="7.854735"><ele>208.0</ele><time>2026-04-12T15:03:43.455Z</time></trkpt><trkpt lat="44.6613033" lon="7.8547133"><ele>210.5</ele><time>2026-04-12T15:03:45.455Z</time></trkpt><trkpt lat="44.6614183" lon="7.85469"><ele>213.0</ele><time>2026-04-12T15:03:47.455Z</time></trkpt><trkpt lat="44.66153" lon="7.8546817"><ele>215.5</ele><time>2026-04-12T15:03:49.455Z</time></trkpt><trkpt lat="44.66164" lon="7.85466"><ele>218.0</ele><time>2026-04-12T15:03:51.455Z</time></trkpt><trkpt lat="44.66175" lon="7.8546417"><ele>218.0</ele><time>2026-04-12T15:03:53.456Z</time></trkpt><trkpt lat="44.661865" lon="7.8546233"><ele>218.0</ele><time>2026-04-12T15:03:55.455Z</time></trkpt><trkpt lat="44.6619767" lon="7.85463"><ele>218.0</ele><time>2026-04-12T15:03:57.455Z</time></trkpt><trkpt lat="44.6620867" lon="7.8546617"><ele>218.0</ele><time>2026-04-12T15:03:59.456Z</time></trkpt><trkpt lat="44.662175" lon="7.8547467"><ele>218.0</ele><time>2026-04-12T15:04:01.455Z</time></trkpt><trkpt lat="44.662255" lon="7.8548367"><ele>217.83333333333334</ele><time>2026-04-12T15:04:03.455Z</time></trkpt><trkpt lat="44.6623217" lon="7.8549083"><ele>217.66666666666669</ele><time>2026-04-12T15:04:05.455Z</time></trkpt><trkpt lat="44.6624183" lon="7.8549467"><ele>217.5</ele><time>2026-04-12T15:04:08.455Z</time></trkpt><trkpt lat="44.6624917" lon="7.854975"><ele>217.33333333333331</ele><time>2026-04-12T15:04:09.455Z</time></trkpt><trkpt lat="44.6625583" lon="7.855015"><ele>217.16666666666666</ele><time>2026-04-12T15:04:10.455Z</time></trkpt><trkpt lat="44.6626233" lon="7.8550433"><ele>217.0</ele><time>2026-04-12T15:04:11.455Z</time></trkpt><trkpt lat="44.6627083" lon="7.8551283"><ele>216.8</ele><time>2026-04-12T15:04:13.455Z</time></trkpt><trkpt lat="44.6627367" lon="7.8552667"><ele>216.6</ele><time>2026-04-12T15:04:15.455Z</time></trkpt><trkpt lat="44.66274" lon="7.8554033"><ele>216.40000000000003</ele><time>2026-04-12T15:04:17.456Z</time></trkpt><trkpt lat="44.6627483" lon="7.8555917"><ele>216.20000000000002</ele><time>2026-04-12T15:04:19.455Z</time></trkpt><trkpt lat="44.6627633" lon="7.8556883"><ele>216.0</ele><time>2026-04-12T15:04:20.455Z</time></trkpt><trkpt lat="44.6627817" lon="7.8557767"><ele>216.0</ele><time>2026-04-12T15:04:21.455Z</time></trkpt><trkpt lat="44.6627967" lon="7.8558783"><ele>216.0</ele><time>2026-04-12T15:04:22.455Z</time></trkpt><trkpt lat="44.662815" lon="7.855975"><ele>216.0</ele><time>2026-04-12T15:04:23.455Z</time></trkpt><trkpt lat="44.6628317" lon="7.8560717"><ele>216.0</ele><time>2026-04-12T15:04:24.455Z</time></trkpt><trkpt lat="44.662845" lon="7.8561683"><ele>216.0</ele><time>2026-04-12T15:04:25.455Z</time></trkpt><trkpt lat="44.66286" lon="7.8562683"><ele>216.0</ele><time>2026-04-12T15:04:26.455Z</time></trkpt><trkpt lat="44.6628767" lon="7.8563633"><ele>216.0</ele><time>2026-04-12T15:04:27.455Z</time></trkpt><trkpt lat="44.6628983" lon="7.856455"><ele>216.0</ele><time>2026-04-12T15:04:28.455Z</time></trkpt><trkpt lat="44.662915" lon="7.8565483"><ele>216.0</ele><time>2026-04-12T15:04:29.455Z</time></trkpt><trkpt lat="44.6629317" lon="7.856645"><ele>216.0</ele><time>2026-04-12T15:04:30.455Z</time></trkpt><trkpt lat="44.6629467" lon="7.8567417"><ele>216.0</ele><time>2026-04-12T15:04:31.455Z</time></trkpt><trkpt lat="44.6629633" lon="7.8568333"><ele>216.0</ele><time>2026-04-12T15:04:32.455Z</time></trkpt><trkpt lat="44.662975" lon="7.8569367"><ele>216.0</ele><time>2026-04-12T15:04:33.455Z</time></trkpt><trkpt lat="44.662985" lon="7.8570417"><ele>216.0</ele><time>2026-04-12T15:04:34.455Z</time></trkpt><trkpt lat="44.6629817" lon="7.85714"><ele>216.0</ele><time>2026-04-12T15:04:35.455Z</time></trkpt><trkpt lat="44.6629783" lon="7.8572383"><ele>216.0</ele><time>2026-04-12T15:04:36.455Z</time></trkpt><trkpt lat="44.6629783" lon="7.8573367"><ele>216.0</ele><time>2026-04-12T15:04:37.456Z</time></trkpt><trkpt lat="44.6629817" lon="7.85744"><ele>216.0</ele><time>2026-04-12T15:04:38.455Z</time></trkpt><trkpt lat="44.662985" lon="7.8575433"><ele>216.0</ele><time>2026-04-12T15:04:39.455Z</time></trkpt><trkpt lat="44.6629917" lon="7.857645"><ele>216.0</ele><time>2026-04-12T15:04:40.455Z</time></trkpt><trkpt lat="44.6630017" lon="7.8577467"><ele>216.0</ele><time>2026-04-12T15:04:41.455Z</time></trkpt><trkpt lat="44.663015" lon="7.8578467"><ele>216.0</ele><time>2026-04-12T15:04:42.455Z</time></trkpt><trkpt lat="44.6630267" lon="7.85795"><ele>216.0</ele><time>2026-04-12T15:04:43.455Z</time></trkpt><trkpt lat="44.6630367" lon="7.85805"><ele>216.0</ele><time>2026-04-12T15:04:44.455Z</time></trkpt><trkpt lat="44.6630467" lon="7.8581517"><ele>216.0</ele><time>2026-04-12T15:04:45.455Z</time></trkpt><trkpt lat="44.6630567" lon="7.8582533"><ele>216.0</ele><time>2026-04-12T15:04:46.455Z</time></trkpt><trkpt lat="44.6630717" lon="7.8583517"><ele>216.0</ele><time>2026-04-12T15:04:47.455Z</time></trkpt><trkpt lat="44.66309" lon="7.85845"><ele>216.0</ele><time>2026-04-12T15:04:48.455Z</time></trkpt><trkpt lat="44.6631083" lon="7.8585483"><ele>215.71428571428572</ele><time>2026-04-12T15:04:49.455Z</time></trkpt><trkpt lat="44.6631183" lon="7.8586483"><ele>215.42857142857142</ele><time>2026-04-12T15:04:50.455Z</time></trkpt><trkpt lat="44.6631317" lon="7.8587467"><ele>215.14285714285717</ele><time>2026-04-12T15:04:51.455Z</time></trkpt><trkpt lat="44.6631433" lon="7.858845"><ele>214.85714285714286</ele><time>2026-04-12T15:04:52.455Z</time></trkpt><trkpt lat="44.663155" lon="7.8589533"><ele>214.57142857142858</ele><time>2026-04-12T15:04:53.456Z</time></trkpt><trkpt lat="44.66317" lon="7.85906"><ele>214.2857142857143</ele><time>2026-04-12T15:04:54.455Z</time></trkpt><trkpt lat="44.66319" lon="7.859165"><ele>214.0</ele><time>2026-04-12T15:04:55.455Z</time></trkpt><trkpt lat="44.6632133" lon="7.8592633"><ele>214.14285714285717</ele><time>2026-04-12T15:04:56.455Z</time></trkpt><trkpt lat="44.6632483" lon="7.859365"><ele>214.28571428571428</ele><time>2026-04-12T15:04:57.455Z</time></trkpt><trkpt lat="44.663285" lon="7.8594533"><ele>214.42857142857144</ele><time>2026-04-12T15:04:58.455Z</time></trkpt><trkpt lat="44.6633283" lon="7.8595367"><ele>214.57142857142858</ele><time>2026-04-12T15:04:59.455Z</time></trkpt><trkpt lat="44.6633633" lon="7.85963"><ele>214.71428571428572</ele><time>2026-04-12T15:05:00.455Z</time></trkpt><trkpt lat="44.663395" lon="7.8597217"><ele>214.85714285714286</ele><time>2026-04-12T15:05:01.455Z</time></trkpt><trkpt lat="44.6634217" lon="7.8598133"><ele>215.0</ele><time>2026-04-12T15:05:02.455Z</time></trkpt><trkpt lat="44.6634483" lon="7.8599"><ele>215.00000000000003</ele><time>2026-04-12T15:05:03.455Z</time></trkpt><trkpt lat="44.66348" lon="7.8600017"><ele>215.0</ele><time>2026-04-12T15:05:04.455Z</time></trkpt><trkpt lat="44.66351" lon="7.8600817"><ele>215.0</ele><time>2026-04-12T15:05:05.455Z</time></trkpt><trkpt lat="44.6635683" lon="7.86022"><ele>215.0</ele><time>2026-04-12T15:05:07.455Z</time></trkpt><trkpt lat="44.6636167" lon="7.860375"><ele>215.00000000000003</ele><time>2026-04-12T15:05:09.455Z</time></trkpt><trkpt lat="44.6636467" lon="7.860455"><ele>215.0</ele><time>2026-04-12T15:05:10.455Z</time></trkpt><trkpt lat="44.6636833" lon="7.860545"><ele>215.0</ele><time>2026-04-12T15:05:11.455Z</time></trkpt><trkpt lat="44.66372" lon="7.8606417"><ele>215.0</ele><time>2026-04-12T15:05:12.455Z</time></trkpt><trkpt lat="44.6637533" lon="7.8607383"><ele>215.0</ele><time>2026-04-12T15:05:13.455Z</time></trkpt><trkpt lat="44.66379" lon="7.86083"><ele>215.0</ele><time>2026-04-12T15:05:14.455Z</time></trkpt><trkpt lat="44.6638183" lon="7.8609183"><ele>215.0</ele><time>2026-04-12T15:05:15.455Z</time></trkpt><trkpt lat="44.66385" lon="7.8610033"><ele>215.0</ele><time>2026-04-12T15:05:16.455Z</time></trkpt><trkpt lat="44.66388" lon="7.8610867"><ele>215.0</ele><time>2026-04-12T15:05:17.455Z</time></trkpt><trkpt lat="44.6639133" lon="7.8611667"><ele>215.00000000000003</ele><time>2026-04-12T15:05:18.455Z</time></trkpt><trkpt lat="44.6639483" lon="7.861245"><ele>215.0</ele><time>2026-04-12T15:05:19.455Z</time></trkpt><trkpt lat="44.66398" lon="7.8613217"><ele>215.0</ele><time>2026-04-12T15:05:20.455Z</time></trkpt><trkpt lat="44.6640467" lon="7.86146"><ele>215.0</ele><time>2026-04-12T15:05:22.455Z</time></trkpt><trkpt lat="44.6640883" lon="7.8615267"><ele>215.00000000000003</ele><time>2026-04-12T15:05:23.455Z</time></trkpt><trkpt lat="44.664155" lon="7.8616717"><ele>215.0</ele><time>2026-04-12T15:05:25.455Z</time></trkpt><trkpt lat="44.6641817" lon="7.861755"><ele>214.83333333333334</ele><time>2026-04-12T15:05:26.455Z</time></trkpt><trkpt lat="44.6642283" lon="7.861905"><ele>214.66666666666669</ele><time>2026-04-12T15:05:28.455Z</time></trkpt><trkpt lat="44.664255" lon="7.8619867"><ele>214.5</ele><time>2026-04-12T15:05:29.455Z</time></trkpt><trkpt lat="44.6643067" lon="7.8621483"><ele>214.33333333333331</ele><time>2026-04-12T15:05:31.455Z</time></trkpt><trkpt lat="44.6643333" lon="7.8622333"><ele>214.16666666666666</ele><time>2026-04-12T15:05:32.455Z</time></trkpt><trkpt lat="44.6643633" lon="7.8623183"><ele>214.0</ele><time>2026-04-12T15:05:33.455Z</time></trkpt><trkpt lat="44.66439" lon="7.8624083"><ele>214.00000000000003</ele><time>2026-04-12T15:05:34.455Z</time></trkpt><trkpt lat="44.6644183" lon="7.8624983"><ele>214.0</ele><time>2026-04-12T15:05:35.455Z</time></trkpt><trkpt lat="44.6644467" lon="7.8625883"><ele>214.0</ele><time>2026-04-12T15:05:36.455Z</time></trkpt><trkpt lat="44.6644783" lon="7.8626817"><ele>214.0</ele><time>2026-04-12T15:05:37.455Z</time></trkpt><trkpt lat="44.6645117" lon="7.8627733"><ele>214.0</ele><time>2026-04-12T15:05:38.455Z</time></trkpt><trkpt lat="44.6645433" lon="7.86287"><ele>214.00000000000003</ele><time>2026-04-12T15:05:39.455Z</time></trkpt><trkpt lat="44.66457" lon="7.8629583"><ele>214.0</ele><time>2026-04-12T15:05:40.455Z</time></trkpt><trkpt lat="44.6645967" lon="7.8630433"><ele>213.83333333333331</ele><time>2026-04-12T15:05:41.456Z</time></trkpt><trkpt lat="44.664625" lon="7.86313"><ele>213.66666666666666</ele><time>2026-04-12T15:05:42.455Z</time></trkpt><trkpt lat="44.6646517" lon="7.8632133"><ele>213.5</ele><time>2026-04-12T15:05:43.455Z</time></trkpt><trkpt lat="44.6646817" lon="7.8633033"><ele>213.33333333333331</ele><time>2026-04-12T15:05:44.455Z</time></trkpt><trkpt lat="44.6647333" lon="7.86347"><ele>213.16666666666666</ele><time>2026-04-12T15:05:46.455Z</time></trkpt><trkpt lat="44.6647617" lon="7.863555"><ele>213.0</ele><time>2026-04-12T15:05:47.455Z</time></trkpt><trkpt lat="44.664795" lon="7.8636383"><ele>212.99999999999997</ele><time>2026-04-12T15:05:48.455Z</time></trkpt><trkpt lat="44.6648267" lon="7.86372"><ele>213.0</ele><time>2026-04-12T15:05:49.455Z</time></trkpt><trkpt lat="44.6648583" lon="7.8637967"><ele>213.0</ele><time>2026-04-12T15:05:50.455Z</time></trkpt><trkpt lat="44.6648933" lon="7.863875"><ele>213.0</ele><time>2026-04-12T15:05:51.455Z</time></trkpt><trkpt lat="44.6649233" lon="7.863955"><ele>213.0</ele><time>2026-04-12T15:05:52.455Z</time></trkpt><trkpt lat="44.6649483" lon="7.86404"><ele>212.99999999999997</ele><time>2026-04-12T15:05:53.455Z</time></trkpt><trkpt lat="44.664975" lon="7.8641217"><ele>213.0</ele><time>2026-04-12T15:05:54.455Z</time></trkpt><trkpt lat="44.6650267" lon="7.864275"><ele>212.60000000000002</ele><time>2026-04-12T15:05:56.455Z</time></trkpt><trkpt lat="44.6650783" lon="7.864435"><ele>212.20000000000002</ele><time>2026-04-12T15:05:58.455Z</time></trkpt><trkpt lat="44.6651367" lon="7.8645983"><ele>211.8</ele><time>2026-04-12T15:06:00.455Z</time></trkpt><trkpt lat="44.6651717" lon="7.8646883"><ele>211.4</ele><time>2026-04-12T15:06:01.455Z</time></trkpt><trkpt lat="44.665205" lon="7.8647867"><ele>211.0</ele><time>2026-04-12T15:06:02.455Z</time></trkpt><trkpt lat="44.6652417" lon="7.8648783"><ele>210.99999999999997</ele><time>2026-04-12T15:06:03.455Z</time></trkpt><trkpt lat="44.6652783" lon="7.8649617"><ele>211.0</ele><time>2026-04-12T15:06:04.455Z</time></trkpt><trkpt lat="44.665315" lon="7.8650417"><ele>211.0</ele><time>2026-04-12T15:06:05.455Z</time></trkpt><trkpt lat="44.665385" lon="7.8651933"><ele>211.0</ele><time>2026-04-12T15:06:07.455Z</time></trkpt><trkpt lat="44.665415" lon="7.865275"><ele>210.99999999999997</ele><time>2026-04-12T15:06:08.455Z</time></trkpt><trkpt lat="44.6654467" lon="7.8653633"><ele>211.0</ele><time>2026-04-12T15:06:09.455Z</time></trkpt><trkpt lat="44.66548" lon="7.8654567"><ele>211.14285714285714</ele><time>2026-04-12T15:06:10.455Z</time></trkpt><trkpt lat="44.66551" lon="7.8655467"><ele>211.28571428571428</ele><time>2026-04-12T15:06:11.455Z</time></trkpt><trkpt lat="44.66554" lon="7.865635"><ele>211.42857142857144</ele><time>2026-04-12T15:06:12.455Z</time></trkpt><trkpt lat="44.6655767" lon="7.865725"><ele>211.57142857142856</ele><time>2026-04-12T15:06:13.455Z</time></trkpt><trkpt lat="44.665605" lon="7.8658167"><ele>211.7142857142857</ele><time>2026-04-12T15:06:14.455Z</time></trkpt><trkpt lat="44.6656383" lon="7.86591"><ele>211.85714285714286</ele><time>2026-04-12T15:06:15.455Z</time></trkpt><trkpt lat="44.6656733" lon="7.8659967"><ele>212.0</ele><time>2026-04-12T15:06:16.455Z</time></trkpt><trkpt lat="44.6657083" lon="7.86608"><ele>212.0</ele><time>2026-04-12T15:06:17.456Z</time></trkpt><trkpt lat="44.6657433" lon="7.86616"><ele>212.0</ele><time>2026-04-12T15:06:18.455Z</time></trkpt><trkpt lat="44.665785" lon="7.8662467"><ele>212.0</ele><time>2026-04-12T15:06:19.455Z</time></trkpt><trkpt lat="44.665825" lon="7.8663283"><ele>212.0</ele><time>2026-04-12T15:06:20.455Z</time></trkpt><trkpt lat="44.66587" lon="7.8664183"><ele>212.0</ele><time>2026-04-12T15:06:21.455Z</time></trkpt><trkpt lat="44.6659117" lon="7.8665117"><ele>212.0</ele><time>2026-04-12T15:06:22.455Z</time></trkpt><trkpt lat="44.6659517" lon="7.8666033"><ele>212.0</ele><time>2026-04-12T15:06:23.455Z</time></trkpt><trkpt lat="44.6659833" lon="7.8666883"><ele>212.0</ele><time>2026-04-12T15:06:24.455Z</time></trkpt><trkpt lat="44.666015" lon="7.86678"><ele>212.0</ele><time>2026-04-12T15:06:25.455Z</time></trkpt><trkpt lat="44.6660517" lon="7.86687"><ele>212.0</ele><time>2026-04-12T15:06:26.455Z</time></trkpt><trkpt lat="44.66609" lon="7.8669633"><ele>212.0</ele><time>2026-04-12T15:06:27.455Z</time></trkpt><trkpt lat="44.6661267" lon="7.86705"><ele>212.0</ele><time>2026-04-12T15:06:28.455Z</time></trkpt><trkpt lat="44.6661633" lon="7.8671367"><ele>212.0</ele><time>2026-04-12T15:06:29.455Z</time></trkpt><trkpt lat="44.6662" lon="7.867225"><ele>212.0</ele><time>2026-04-12T15:06:30.455Z</time></trkpt><trkpt lat="44.6662333" lon="7.8673117"><ele>212.00000000000003</ele><time>2026-04-12T15:06:31.455Z</time></trkpt><trkpt lat="44.6662717" lon="7.86739"><ele>212.0</ele><time>2026-04-12T15:06:32.455Z</time></trkpt><trkpt lat="44.6663033" lon="7.8674667"><ele>212.0</ele><time>2026-04-12T15:06:33.455Z</time></trkpt><trkpt lat="44.6663617" lon="7.8676167"><ele>212.0</ele><time>2026-04-12T15:06:35.456Z</time></trkpt><trkpt lat="44.6663883" lon="7.8677"><ele>212.00000000000003</ele><time>2026-04-12T15:06:36.455Z</time></trkpt><trkpt lat="44.6664383" lon="7.86784"><ele>212.0</ele><time>2026-04-12T15:06:38.455Z</time></trkpt><trkpt lat="44.666475" lon="7.8679833"><ele>212.0</ele><time>2026-04-12T15:06:40.455Z</time></trkpt><trkpt lat="44.6665017" lon="7.8681283"><ele>212.0</ele><time>2026-04-12T15:06:42.455Z</time></trkpt><trkpt lat="44.6665233" lon="7.8682867"><ele>212.0</ele><time>2026-04-12T15:06:44.455Z</time></trkpt><trkpt lat="44.66655" lon="7.8684517"><ele>212.0</ele><time>2026-04-12T15:06:46.456Z</time></trkpt><trkpt lat="44.6665833" lon="7.8686"><ele>211.8</ele><time>2026-04-12T15:06:48.455Z</time></trkpt><trkpt lat="44.66662" lon="7.8687383"><ele>211.6</ele><time>2026-04-12T15:06:50.455Z</time></trkpt><trkpt lat="44.6666617" lon="7.8688667"><ele>211.4</ele><time>2026-04-12T15:06:52.456Z</time></trkpt><trkpt lat="44.6666983" lon="7.8689883"><ele>211.20000000000002</ele><time>2026-04-12T15:06:54.455Z</time></trkpt><trkpt lat="44.6667283" lon="7.8691067"><ele>211.0</ele><time>2026-04-12T15:06:56.455Z</time></trkpt><trkpt lat="44.666765" lon="7.8692183"><ele>210.8</ele><time>2026-04-12T15:06:58.455Z</time></trkpt><trkpt lat="44.6668033" lon="7.869335"><ele>210.60000000000002</ele><time>2026-04-12T15:07:00.455Z</time></trkpt><trkpt lat="44.6668367" lon="7.86946"><ele>210.4</ele><time>2026-04-12T15:07:02.455Z</time></trkpt><trkpt lat="44.6668633" lon="7.869605"><ele>210.2</ele><time>2026-04-12T15:07:04.455Z</time></trkpt><trkpt lat="44.66688" lon="7.869735"><ele>210.0</ele><time>2026-04-12T15:07:06.455Z</time></trkpt><trkpt lat="44.6668883" lon="7.8698883"><ele>210.0</ele><time>2026-04-12T15:07:08.455Z</time></trkpt><trkpt lat="44.666905" lon="7.8700533"><ele>210.0</ele><time>2026-04-12T15:07:10.455Z</time></trkpt><trkpt lat="44.666925" lon="7.8702217"><ele>210.0</ele><time>2026-04-12T15:07:12.456Z</time></trkpt><trkpt lat="44.6669617" lon="7.870385"><ele>210.0</ele><time>2026-04-12T15:07:14.455Z</time></trkpt><trkpt lat="44.666995" lon="7.8705267"><ele>210.2</ele><time>2026-04-12T15:07:16.455Z</time></trkpt><trkpt lat="44.6670233" lon="7.8706317"><ele>210.4</ele><time>2026-04-12T15:07:18.455Z</time></trkpt><trkpt lat="44.6670517" lon="7.870725"><ele>210.60000000000002</ele><time>2026-04-12T15:07:20.455Z</time></trkpt><trkpt lat="44.6670783" lon="7.8708567"><ele>210.8</ele><time>2026-04-12T15:07:22.455Z</time></trkpt><trkpt lat="44.6671083" lon="7.8710133"><ele>211.0</ele><time>2026-04-12T15:07:24.455Z</time></trkpt><trkpt lat="44.667155" lon="7.8711517"><ele>211.0</ele><time>2026-04-12T15:07:26.455Z</time></trkpt><trkpt lat="44.6672267" lon="7.87121"><ele>211.0</ele><time>2026-04-12T15:07:28.455Z</time></trkpt><trkpt lat="44.6673083" lon="7.8712617"><ele>211.0</ele><time>2026-04-12T15:07:30.455Z</time></trkpt><trkpt lat="44.6673733" lon="7.8713783"><ele>211.0</ele><time>2026-04-12T15:07:32.455Z</time></trkpt><trkpt lat="44.667435" lon="7.8715167"><ele>211.0</ele><time>2026-04-12T15:07:34.455Z</time></trkpt><trkpt lat="44.6675017" lon="7.8716333"><ele>211.0</ele><time>2026-04-12T15:07:36.455Z</time></trkpt><trkpt lat="44.6675467" lon="7.871735"><ele>211.0</ele><time>2026-04-12T15:07:38.456Z</time></trkpt><trkpt lat="44.6675967" lon="7.8718533"><ele>211.0</ele><time>2026-04-12T15:07:40.455Z</time></trkpt><trkpt lat="44.6676517" lon="7.8719733"><ele>211.0</ele><time>2026-04-12T15:07:42.455Z</time></trkpt><trkpt lat="44.6677283" lon="7.8721183"><ele>211.0</ele><time>2026-04-12T15:07:44.455Z</time></trkpt><trkpt lat="44.6677617" lon="7.8721967"><ele>210.8</ele><time>2026-04-12T15:07:45.455Z</time></trkpt><trkpt lat="44.66783" lon="7.872345"><ele>210.60000000000002</ele><time>2026-04-12T15:07:47.455Z</time></trkpt><trkpt lat="44.6678867" lon="7.8724967"><ele>210.4</ele><time>2026-04-12T15:07:49.455Z</time></trkpt><trkpt lat="44.66791" lon="7.87258"><ele>210.2</ele><time>2026-04-12T15:07:50.455Z</time></trkpt><trkpt lat="44.667965" lon="7.87274"><ele>210.0</ele><time>2026-04-12T15:07:52.455Z</time></trkpt><trkpt lat="44.66799" lon="7.8728267"><ele>210.0</ele><time>2026-04-12T15:07:53.455Z</time></trkpt><trkpt lat="44.6680183" lon="7.872915"><ele>210.0</ele><time>2026-04-12T15:07:54.455Z</time></trkpt><trkpt lat="44.6680467" lon="7.8730067"><ele>210.0</ele><time>2026-04-12T15:07:55.455Z</time></trkpt><trkpt lat="44.6680767" lon="7.8730983"><ele>210.0</ele><time>2026-04-12T15:07:56.455Z</time></trkpt><trkpt lat="44.668105" lon="7.87319"><ele>210.0</ele><time>2026-04-12T15:07:57.455Z</time></trkpt><trkpt lat="44.6681333" lon="7.8732783"><ele>210.0</ele><time>2026-04-12T15:07:58.455Z</time></trkpt><trkpt lat="44.66816" lon="7.8733633"><ele>210.0</ele><time>2026-04-12T15:07:59.455Z</time></trkpt><trkpt lat="44.668195" lon="7.8735167"><ele>210.0</ele><time>2026-04-12T15:08:01.455Z</time></trkpt><trkpt lat="44.6682333" lon="7.8736817"><ele>210.0</ele><time>2026-04-12T15:08:03.455Z</time></trkpt><trkpt lat="44.6682567" lon="7.8737767"><ele>210.0</ele><time>2026-04-12T15:08:04.455Z</time></trkpt><trkpt lat="44.6682767" lon="7.8738683"><ele>210.0</ele><time>2026-04-12T15:08:05.455Z</time></trkpt><trkpt lat="44.6682983" lon="7.8739583"><ele>210.0</ele><time>2026-04-12T15:08:06.455Z</time></trkpt><trkpt lat="44.6683433" lon="7.87412"><ele>210.2</ele><time>2026-04-12T15:08:08.455Z</time></trkpt><trkpt lat="44.6683817" lon="7.87428"><ele>210.4</ele><time>2026-04-12T15:08:10.455Z</time></trkpt><trkpt lat="44.6684067" lon="7.8743633"><ele>210.60000000000002</ele><time>2026-04-12T15:08:11.455Z</time></trkpt><trkpt lat="44.6684367" lon="7.8744533"><ele>210.8</ele><time>2026-04-12T15:08:12.455Z</time></trkpt><trkpt lat="44.6684867" lon="7.8746183"><ele>211.0</ele><time>2026-04-12T15:08:14.455Z</time></trkpt><trkpt lat="44.6685133" lon="7.8747067"><ele>210.99999999999997</ele><time>2026-04-12T15:08:15.455Z</time></trkpt><trkpt lat="44.6685433" lon="7.8748033"><ele>211.0</ele><time>2026-04-12T15:08:16.455Z</time></trkpt><trkpt lat="44.6685733" lon="7.8748967"><ele>211.0</ele><time>2026-04-12T15:08:17.455Z</time></trkpt><trkpt lat="44.6686067" lon="7.8749917"><ele>211.0</ele><time>2026-04-12T15:08:18.455Z</time></trkpt><trkpt lat="44.6686367" lon="7.87508"><ele>210.99999999999997</ele><time>2026-04-12T15:08:19.455Z</time></trkpt><trkpt lat="44.6686717" lon="7.8751667"><ele>211.0</ele><time>2026-04-12T15:08:20.455Z</time></trkpt><trkpt lat="44.6687317" lon="7.8753283"><ele>211.0</ele><time>2026-04-12T15:08:22.455Z</time></trkpt><trkpt lat="44.6687533" lon="7.8754167"><ele>211.0</ele><time>2026-04-12T15:08:23.455Z</time></trkpt><trkpt lat="44.6687783" lon="7.8755083"><ele>211.0</ele><time>2026-04-12T15:08:24.455Z</time></trkpt><trkpt lat="44.6688033" lon="7.8755983"><ele>211.0</ele><time>2026-04-12T15:08:25.455Z</time></trkpt><trkpt lat="44.66883" lon="7.8756833"><ele>211.0</ele><time>2026-04-12T15:08:26.455Z</time></trkpt><trkpt lat="44.66886" lon="7.875765"><ele>211.0</ele><time>2026-04-12T15:08:27.455Z</time></trkpt><trkpt lat="44.6688867" lon="7.8758483"><ele>211.0</ele><time>2026-04-12T15:08:28.455Z</time></trkpt><trkpt lat="44.6689133" lon="7.8759317"><ele>210.85714285714286</ele><time>2026-04-12T15:08:29.455Z</time></trkpt><trkpt lat="44.6689467" lon="7.8760217"><ele>210.71428571428572</ele><time>2026-04-12T15:08:30.455Z</time></trkpt><trkpt lat="44.6689767" lon="7.8761083"><ele>210.57142857142856</ele><time>2026-04-12T15:08:31.455Z</time></trkpt><trkpt lat="44.6690033" lon="7.876195"><ele>210.42857142857144</ele><time>2026-04-12T15:08:32.455Z</time></trkpt><trkpt lat="44.669035" lon="7.8762783"><ele>210.28571428571428</ele><time>2026-04-12T15:08:33.455Z</time></trkpt><trkpt lat="44.66907" lon="7.8763717"><ele>210.14285714285714</ele><time>2026-04-12T15:08:34.455Z</time></trkpt><trkpt lat="44.6691067" lon="7.8764633"><ele>210.0</ele><time>2026-04-12T15:08:35.455Z</time></trkpt><trkpt lat="44.6691367" lon="7.8765467"><ele>210.0</ele><time>2026-04-12T15:08:36.455Z</time></trkpt><trkpt lat="44.669165" lon="7.8766333"><ele>210.0</ele><time>2026-04-12T15:08:37.455Z</time></trkpt><trkpt lat="44.6691833" lon="7.8767233"><ele>210.0</ele><time>2026-04-12T15:08:38.455Z</time></trkpt><trkpt lat="44.6692233" lon="7.8769017"><ele>210.0</ele><time>2026-04-12T15:08:40.455Z</time></trkpt><trkpt lat="44.6692433" lon="7.8769933"><ele>210.0</ele><time>2026-04-12T15:08:41.455Z</time></trkpt><trkpt lat="44.6692583" lon="7.87709"><ele>210.0</ele><time>2026-04-12T15:08:42.455Z</time></trkpt><trkpt lat="44.66928" lon="7.87719"><ele>210.14285714285714</ele><time>2026-04-12T15:08:43.455Z</time></trkpt><trkpt lat="44.6693017" lon="7.8772883"><ele>210.28571428571428</ele><time>2026-04-12T15:08:44.455Z</time></trkpt><trkpt lat="44.6693267" lon="7.8773783"><ele>210.42857142857144</ele><time>2026-04-12T15:08:45.455Z</time></trkpt><trkpt lat="44.6693417" lon="7.8774667"><ele>210.57142857142856</ele><time>2026-04-12T15:08:46.455Z</time></trkpt><trkpt lat="44.6693667" lon="7.87755"><ele>210.71428571428572</ele><time>2026-04-12T15:08:47.455Z</time></trkpt><trkpt lat="44.6693917" lon="7.8776367"><ele>210.85714285714286</ele><time>2026-04-12T15:08:48.455Z</time></trkpt><trkpt lat="44.6694167" lon="7.8777183"><ele>211.0</ele><time>2026-04-12T15:08:49.456Z</time></trkpt><trkpt lat="44.66947" lon="7.8778533"><ele>210.4</ele><time>2026-04-12T15:08:51.455Z</time></trkpt><trkpt lat="44.6695233" lon="7.8779833"><ele>209.8</ele><time>2026-04-12T15:08:53.455Z</time></trkpt><trkpt lat="44.669585" lon="7.8781133"><ele>209.20000000000002</ele><time>2026-04-12T15:08:55.455Z</time></trkpt><trkpt lat="44.6696483" lon="7.878235"><ele>208.60000000000002</ele><time>2026-04-12T15:08:57.455Z</time></trkpt><trkpt lat="44.6697067" lon="7.8783283"><ele>208.0</ele><time>2026-04-12T15:08:59.455Z</time></trkpt><trkpt lat="44.6697767" lon="7.87842"><ele>208.33333333333331</ele><time>2026-04-12T15:09:01.455Z</time></trkpt><trkpt lat="44.669855" lon="7.878495"><ele>208.66666666666666</ele><time>2026-04-12T15:09:03.455Z</time></trkpt><trkpt lat="44.6699367" lon="7.878515"><ele>209.0</ele><time>2026-04-12T15:09:05.455Z</time></trkpt><trkpt lat="44.67001" lon="7.8785183"><ele>209.33333333333331</ele><time>2026-04-12T15:09:07.455Z</time></trkpt><trkpt lat="44.6700767" lon="7.8785767"><ele>209.66666666666666</ele><time>2026-04-12T15:09:09.455Z</time></trkpt><trkpt lat="44.6701467" lon="7.878605"><ele>210.0</ele><time>2026-04-12T15:09:11.456Z</time></trkpt><trkpt lat="44.67022" lon="7.8785483"><ele>209.0</ele><time>2026-04-12T15:09:13.455Z</time></trkpt><trkpt lat="44.6702983" lon="7.8784683"><ele>208.0</ele><time>2026-04-12T15:09:15.455Z</time></trkpt><trkpt lat="44.6704017" lon="7.878415"><ele>207.0</ele><time>2026-04-12T15:09:17.455Z</time></trkpt><trkpt lat="44.670515" lon="7.8783483"><ele>206.0</ele><time>2026-04-12T15:09:19.455Z</time></trkpt><trkpt lat="44.6706267" lon="7.8782783"><ele>206.0</ele><time>2026-04-12T15:09:21.455Z</time></trkpt><trkpt lat="44.6707283" lon="7.87822"><ele>206.0</ele><time>2026-04-12T15:09:23.455Z</time></trkpt><trkpt lat="44.6708367" lon="7.87815"><ele>206.0</ele><time>2026-04-12T15:09:25.455Z</time></trkpt><trkpt lat="44.670895" lon="7.8781133"><ele>206.0</ele><time>2026-04-12T15:09:26.455Z</time></trkpt><trkpt lat="44.67101" lon="7.8780533"><ele>206.0</ele><time>2026-04-12T15:09:28.455Z</time></trkpt><trkpt lat="44.67112" lon="7.8779783"><ele>206.20000000000002</ele><time>2026-04-12T15:09:30.455Z</time></trkpt><trkpt lat="44.6712233" lon="7.8779317"><ele>206.4</ele><time>2026-04-12T15:09:32.455Z</time></trkpt><trkpt lat="44.6713233" lon="7.877865"><ele>206.6</ele><time>2026-04-12T15:09:34.455Z</time></trkpt><trkpt lat="44.67142" lon="7.877785"><ele>206.8</ele><time>2026-04-12T15:09:36.455Z</time></trkpt><trkpt lat="44.6715217" lon="7.877725"><ele>207.0</ele><time>2026-04-12T15:09:38.455Z</time></trkpt><trkpt lat="44.6716167" lon="7.8776667"><ele>207.0</ele><time>2026-04-12T15:09:40.455Z</time></trkpt><trkpt lat="44.6717233" lon="7.8775867"><ele>207.0</ele><time>2026-04-12T15:09:42.455Z</time></trkpt><trkpt lat="44.6718117" lon="7.8775367"><ele>207.0</ele><time>2026-04-12T15:09:44.455Z</time></trkpt><trkpt lat="44.6718917" lon="7.877515"><ele>207.0</ele><time>2026-04-12T15:09:46.455Z</time></trkpt><trkpt lat="44.6719783" lon="7.877475"><ele>207.0</ele><time>2026-04-12T15:09:48.455Z</time></trkpt><trkpt lat="44.672085" lon="7.8774117"><ele>207.0</ele><time>2026-04-12T15:09:50.455Z</time></trkpt><trkpt lat="44.6722067" lon="7.87733"><ele>207.0</ele><time>2026-04-12T15:09:52.455Z</time></trkpt><trkpt lat="44.6722683" lon="7.877285"><ele>207.0</ele><time>2026-04-12T15:09:53.455Z</time></trkpt><trkpt lat="44.6723283" lon="7.8772483"><ele>207.0</ele><time>2026-04-12T15:09:54.455Z</time></trkpt><trkpt lat="44.6723933" lon="7.87721"><ele>207.0</ele><time>2026-04-12T15:09:55.455Z</time></trkpt><trkpt lat="44.6724567" lon="7.8771683"><ele>207.0</ele><time>2026-04-12T15:09:56.455Z</time></trkpt><trkpt lat="44.6725183" lon="7.8771233"><ele>207.0</ele><time>2026-04-12T15:09:57.455Z</time></trkpt><trkpt lat="44.6725767" lon="7.877085"><ele>207.0</ele><time>2026-04-12T15:09:58.455Z</time></trkpt><trkpt lat="44.6726867" lon="7.8770083"><ele>207.0</ele><time>2026-04-12T15:10:00.455Z</time></trkpt><trkpt lat="44.6727483" lon="7.87697"><ele>207.0</ele><time>2026-04-12T15:10:01.455Z</time></trkpt><trkpt lat="44.67281" lon="7.8769233"><ele>207.0</ele><time>2026-04-12T15:10:02.455Z</time></trkpt><trkpt lat="44.6728683" lon="7.8768783"><ele>207.0</ele><time>2026-04-12T15:10:03.455Z</time></trkpt><trkpt lat="44.67293" lon="7.8768383"><ele>207.16666666666666</ele><time>2026-04-12T15:10:04.455Z</time></trkpt><trkpt lat="44.6729917" lon="7.876805"><ele>207.33333333333331</ele><time>2026-04-12T15:10:05.455Z</time></trkpt><trkpt lat="44.6730517" lon="7.87677"><ele>207.5</ele><time>2026-04-12T15:10:06.456Z</time></trkpt><trkpt lat="44.6731133" lon="7.87673"><ele>207.66666666666666</ele><time>2026-04-12T15:10:07.455Z</time></trkpt><trkpt lat="44.6731733" lon="7.8766967"><ele>207.83333333333331</ele><time>2026-04-12T15:10:08.455Z</time></trkpt><trkpt lat="44.6732333" lon="7.8766667"><ele>208.0</ele><time>2026-04-12T15:10:09.455Z</time></trkpt><trkpt lat="44.6733483" lon="7.87659"><ele>207.99999999999997</ele><time>2026-04-12T15:10:11.455Z</time></trkpt><trkpt lat="44.6734633" lon="7.8765133"><ele>208.0</ele><time>2026-04-12T15:10:13.455Z</time></trkpt><trkpt lat="44.6735217" lon="7.8764767"><ele>208.0</ele><time>2026-04-12T15:10:14.455Z</time></trkpt><trkpt lat="44.67358" lon="7.8764383"><ele>208.0</ele><time>2026-04-12T15:10:15.455Z</time></trkpt><trkpt lat="44.6736933" lon="7.8763633"><ele>207.99999999999997</ele><time>2026-04-12T15:10:17.456Z</time></trkpt><trkpt lat="44.6737533" lon="7.876325"><ele>208.0</ele><time>2026-04-12T15:10:18.455Z</time></trkpt><trkpt lat="44.6738133" lon="7.876285"><ele>208.16666666666666</ele><time>2026-04-12T15:10:19.455Z</time></trkpt><trkpt lat="44.6738783" lon="7.8762483"><ele>208.33333333333331</ele><time>2026-04-12T15:10:20.455Z</time></trkpt><trkpt lat="44.67394" lon="7.8762133"><ele>208.5</ele><time>2026-04-12T15:10:21.455Z</time></trkpt><trkpt lat="44.6739983" lon="7.8761767"><ele>208.66666666666669</ele><time>2026-04-12T15:10:22.455Z</time></trkpt><trkpt lat="44.6740583" lon="7.876135"><ele>208.83333333333334</ele><time>2026-04-12T15:10:23.455Z</time></trkpt><trkpt lat="44.67416" lon="7.8760783"><ele>209.0</ele><time>2026-04-12T15:10:25.455Z</time></trkpt><trkpt lat="44.6742567" lon="7.8760283"><ele>209.0</ele><time>2026-04-12T15:10:27.455Z</time></trkpt><trkpt lat="44.674365" lon="7.87598"><ele>209.0</ele><time>2026-04-12T15:10:29.455Z</time></trkpt><trkpt lat="44.6744767" lon="7.87591"><ele>209.0</ele><time>2026-04-12T15:10:31.456Z</time></trkpt><trkpt lat="44.6745833" lon="7.8758283"><ele>209.0</ele><time>2026-04-12T15:10:33.455Z</time></trkpt><trkpt lat="44.67464" lon="7.8757867"><ele>209.0</ele><time>2026-04-12T15:10:34.456Z</time></trkpt><trkpt lat="44.6747017" lon="7.875745"><ele>208.50000000000003</ele><time>2026-04-12T15:10:35.455Z</time></trkpt><trkpt lat="44.67476" lon="7.8757033"><ele>208.0</ele><time>2026-04-12T15:10:36.455Z</time></trkpt><trkpt lat="44.6748183" lon="7.8756683"><ele>207.5</ele><time>2026-04-12T15:10:37.455Z</time></trkpt><trkpt lat="44.6749317" lon="7.8756"><ele>207.0</ele><time>2026-04-12T15:10:39.455Z</time></trkpt><trkpt lat="44.6749983" lon="7.8755633"><ele>206.50000000000003</ele><time>2026-04-12T15:10:40.455Z</time></trkpt><trkpt lat="44.67506" lon="7.875525"><ele>206.0</ele><time>2026-04-12T15:10:41.455Z</time></trkpt><trkpt lat="44.6751217" lon="7.8754867"><ele>205.99999999999997</ele><time>2026-04-12T15:10:42.455Z</time></trkpt><trkpt lat="44.6751833" lon="7.87545"><ele>206.0</ele><time>2026-04-12T15:10:43.455Z</time></trkpt><trkpt lat="44.6752417" lon="7.8754067"><ele>206.0</ele><time>2026-04-12T15:10:44.455Z</time></trkpt><trkpt lat="44.6753" lon="7.8753717"><ele>206.0</ele><time>2026-04-12T15:10:45.455Z</time></trkpt><trkpt lat="44.6753633" lon="7.87534"><ele>206.0</ele><time>2026-04-12T15:10:46.455Z</time></trkpt><trkpt lat="44.67543" lon="7.875295"><ele>205.99999999999997</ele><time>2026-04-12T15:10:47.455Z</time></trkpt><trkpt lat="44.6754933" lon="7.8752583"><ele>206.0</ele><time>2026-04-12T15:10:48.455Z</time></trkpt><trkpt lat="44.6755517" lon="7.87522"><ele>206.33333333333334</ele><time>2026-04-12T15:10:49.455Z</time></trkpt><trkpt lat="44.6756133" lon="7.875175"><ele>206.66666666666669</ele><time>2026-04-12T15:10:50.455Z</time></trkpt><trkpt lat="44.67572" lon="7.8751017"><ele>207.0</ele><time>2026-04-12T15:10:52.455Z</time></trkpt><trkpt lat="44.6757817" lon="7.87506"><ele>207.33333333333331</ele><time>2026-04-12T15:10:53.455Z</time></trkpt><trkpt lat="44.67585" lon="7.87502"><ele>207.66666666666666</ele><time>2026-04-12T15:10:54.455Z</time></trkpt><trkpt lat="44.6759083" lon="7.8749833"><ele>208.0</ele><time>2026-04-12T15:10:55.455Z</time></trkpt><trkpt lat="44.67597" lon="7.8749333"><ele>208.25</ele><time>2026-04-12T15:10:56.455Z</time></trkpt><trkpt lat="44.6760817" lon="7.8748767"><ele>208.5</ele><time>2026-04-12T15:10:58.455Z</time></trkpt><trkpt lat="44.6761933" lon="7.8748133"><ele>208.75</ele><time>2026-04-12T15:11:00.455Z</time></trkpt><trkpt lat="44.6762983" lon="7.8747633"><ele>209.0</ele><time>2026-04-12T15:11:02.455Z</time></trkpt><trkpt lat="44.67642" lon="7.8746933"><ele>209.00000000000003</ele><time>2026-04-12T15:11:04.455Z</time></trkpt><trkpt lat="44.6764767" lon="7.8746483"><ele>209.0</ele><time>2026-04-12T15:11:05.455Z</time></trkpt><trkpt lat="44.67659" lon="7.8745683"><ele>209.0</ele><time>2026-04-12T15:11:07.455Z</time></trkpt><trkpt lat="44.6766483" lon="7.8745233"><ele>209.0</ele><time>2026-04-12T15:11:08.455Z</time></trkpt><trkpt lat="44.6767033" lon="7.87448"><ele>209.00000000000003</ele><time>2026-04-12T15:11:09.455Z</time></trkpt><trkpt lat="44.676815" lon="7.87441"><ele>209.0</ele><time>2026-04-12T15:11:11.455Z</time></trkpt><trkpt lat="44.6769233" lon="7.874335"><ele>209.16666666666669</ele><time>2026-04-12T15:11:13.455Z</time></trkpt><trkpt lat="44.6770217" lon="7.8742667"><ele>209.33333333333334</ele><time>2026-04-12T15:11:15.455Z</time></trkpt><trkpt lat="44.6771067" lon="7.8742183"><ele>209.5</ele><time>2026-04-12T15:11:17.455Z</time></trkpt><trkpt lat="44.677165" lon="7.8741817"><ele>209.66666666666669</ele><time>2026-04-12T15:11:19.455Z</time></trkpt><trkpt lat="44.6772533" lon="7.8742033"><ele>209.83333333333334</ele><time>2026-04-12T15:11:22.455Z</time></trkpt><trkpt lat="44.67732" lon="7.8741883"><ele>210.0</ele><time>2026-04-12T15:11:25.455Z</time></trkpt><trkpt lat="44.67732" lon="7.8740917"><ele>210.0</ele><time>2026-04-12T15:11:29.455Z</time></trkpt><trkpt lat="44.67731" lon="7.8739933"><ele>210.0</ele><time>2026-04-12T15:11:32.455Z</time></trkpt><trkpt lat="44.6772767" lon="7.87388"><ele>210.0</ele><time>2026-04-12T15:11:35.455Z</time></trkpt><trkpt lat="44.6772583" lon="7.873795"><ele>210.0</ele><time>2026-04-12T15:11:37.455Z</time></trkpt><trkpt lat="44.677235" lon="7.8737067"><ele>210.0</ele><time>2026-04-12T15:11:39.455Z</time></trkpt><trkpt lat="44.6772017" lon="7.8736083"><ele>210.0</ele><time>2026-04-12T15:11:41.455Z</time></trkpt><trkpt lat="44.6771767" lon="7.873495"><ele>210.0</ele><time>2026-04-12T15:11:43.455Z</time></trkpt><trkpt lat="44.6771467" lon="7.8733767"><ele>210.0</ele><time>2026-04-12T15:11:45.456Z</time></trkpt><trkpt lat="44.6771167" lon="7.87324"><ele>210.0</ele><time>2026-04-12T15:11:47.455Z</time></trkpt><trkpt lat="44.6770833" lon="7.8730983"><ele>210.0</ele><time>2026-04-12T15:11:49.455Z</time></trkpt><trkpt lat="44.67705" lon="7.8729567"><ele>210.0</ele><time>2026-04-12T15:11:51.455Z</time></trkpt><trkpt lat="44.6770133" lon="7.8728217"><ele>210.0</ele><time>2026-04-12T15:11:53.455Z</time></trkpt><trkpt lat="44.6769883" lon="7.8726833"><ele>210.0</ele><time>2026-04-12T15:11:55.455Z</time></trkpt><trkpt lat="44.6769533" lon="7.8725483"><ele>210.0</ele><time>2026-04-12T15:11:57.455Z</time></trkpt><trkpt lat="44.6769167" lon="7.8724167"><ele>210.0</ele><time>2026-04-12T15:11:59.455Z</time></trkpt><trkpt lat="44.6769133" lon="7.8722917"><ele>210.0</ele><time>2026-04-12T15:12:01.455Z</time></trkpt><trkpt lat="44.676995" lon="7.8722083"><ele>210.14285714285714</ele><time>2026-04-12T15:12:03.455Z</time></trkpt><trkpt lat="44.677055" lon="7.8721733"><ele>210.28571428571428</ele><time>2026-04-12T15:12:04.455Z</time></trkpt><trkpt lat="44.6771117" lon="7.8721333"><ele>210.42857142857144</ele><time>2026-04-12T15:12:05.455Z</time></trkpt><trkpt lat="44.677175" lon="7.872085"><ele>210.57142857142856</ele><time>2026-04-12T15:12:06.455Z</time></trkpt><trkpt lat="44.67724" lon="7.87204"><ele>210.71428571428572</ele><time>2026-04-12T15:12:07.455Z</time></trkpt><trkpt lat="44.6773033" lon="7.8719783"><ele>210.85714285714286</ele><time>2026-04-12T15:12:08.455Z</time></trkpt><trkpt lat="44.6773583" lon="7.8719233"><ele>211.0</ele><time>2026-04-12T15:12:09.455Z</time></trkpt><trkpt lat="44.6774217" lon="7.8718767"><ele>211.0</ele><time>2026-04-12T15:12:10.456Z</time></trkpt><trkpt lat="44.677485" lon="7.8718317"><ele>211.0</ele><time>2026-04-12T15:12:11.455Z</time></trkpt><trkpt lat="44.6775483" lon="7.8717867"><ele>211.0</ele><time>2026-04-12T15:12:12.455Z</time></trkpt><trkpt lat="44.6776117" lon="7.8717433"><ele>211.0</ele><time>2026-04-12T15:12:13.455Z</time></trkpt><trkpt lat="44.67768" lon="7.8716983"><ele>211.0</ele><time>2026-04-12T15:12:14.455Z</time></trkpt><trkpt lat="44.677745" lon="7.871655"><ele>211.0</ele><time>2026-04-12T15:12:15.455Z</time></trkpt><trkpt lat="44.6778117" lon="7.871615"><ele>211.0</ele><time>2026-04-12T15:12:16.455Z</time></trkpt><trkpt lat="44.677875" lon="7.8715783"><ele>211.14285714285714</ele><time>2026-04-12T15:12:17.455Z</time></trkpt><trkpt lat="44.6779383" lon="7.8715433"><ele>211.28571428571428</ele><time>2026-04-12T15:12:18.455Z</time></trkpt><trkpt lat="44.678005" lon="7.8714983"><ele>211.42857142857144</ele><time>2026-04-12T15:12:19.455Z</time></trkpt><trkpt lat="44.6780683" lon="7.87145"><ele>211.57142857142856</ele><time>2026-04-12T15:12:20.455Z</time></trkpt><trkpt lat="44.6781333" lon="7.8713983"><ele>211.7142857142857</ele><time>2026-04-12T15:12:21.455Z</time></trkpt><trkpt lat="44.6782" lon="7.8713467"><ele>211.85714285714286</ele><time>2026-04-12T15:12:22.455Z</time></trkpt><trkpt lat="44.6782683" lon="7.87131"><ele>212.0</ele><time>2026-04-12T15:12:23.455Z</time></trkpt><trkpt lat="44.67833" lon="7.8712667"><ele>212.0</ele><time>2026-04-12T15:12:24.455Z</time></trkpt><trkpt lat="44.6784367" lon="7.871175"><ele>212.0</ele><time>2026-04-12T15:12:26.455Z</time></trkpt><trkpt lat="44.678495" lon="7.871135"><ele>212.0</ele><time>2026-04-12T15:12:27.455Z</time></trkpt><trkpt lat="44.6786033" lon="7.871065"><ele>212.0</ele><time>2026-04-12T15:12:29.455Z</time></trkpt><trkpt lat="44.6787133" lon="7.87101"><ele>212.0</ele><time>2026-04-12T15:12:31.455Z</time></trkpt><trkpt lat="44.6788183" lon="7.87095"><ele>211.66666666666669</ele><time>2026-04-12T15:12:33.455Z</time></trkpt><trkpt lat="44.6789317" lon="7.87088"><ele>211.33333333333334</ele><time>2026-04-12T15:12:35.455Z</time></trkpt><trkpt lat="44.6789917" lon="7.870845"><ele>211.0</ele><time>2026-04-12T15:12:36.455Z</time></trkpt><trkpt lat="44.6791033" lon="7.87077"><ele>210.66666666666669</ele><time>2026-04-12T15:12:38.455Z</time></trkpt><trkpt lat="44.679165" lon="7.87073"><ele>210.33333333333334</ele><time>2026-04-12T15:12:39.455Z</time></trkpt><trkpt lat="44.6792233" lon="7.87069"><ele>210.0</ele><time>2026-04-12T15:12:40.455Z</time></trkpt><trkpt lat="44.6792833" lon="7.8706567"><ele>210.0</ele><time>2026-04-12T15:12:41.455Z</time></trkpt><trkpt lat="44.6793433" lon="7.8706217"><ele>210.0</ele><time>2026-04-12T15:12:42.455Z</time></trkpt><trkpt lat="44.679455" lon="7.8705683"><ele>210.0</ele><time>2026-04-12T15:12:44.455Z</time></trkpt><trkpt lat="44.6795167" lon="7.870525"><ele>210.0</ele><time>2026-04-12T15:12:45.455Z</time></trkpt><trkpt lat="44.6796333" lon="7.8704683"><ele>210.0</ele><time>2026-04-12T15:12:47.455Z</time></trkpt><trkpt lat="44.6797533" lon="7.8704083"><ele>210.16666666666666</ele><time>2026-04-12T15:12:49.455Z</time></trkpt><trkpt lat="44.679815" lon="7.87038"><ele>210.33333333333331</ele><time>2026-04-12T15:12:50.455Z</time></trkpt><trkpt lat="44.67988" lon="7.8703417"><ele>210.5</ele><time>2026-04-12T15:12:51.455Z</time></trkpt><trkpt lat="44.679945" lon="7.87031"><ele>210.66666666666666</ele><time>2026-04-12T15:12:52.455Z</time></trkpt><trkpt lat="44.68006" lon="7.870245"><ele>210.83333333333331</ele><time>2026-04-12T15:12:54.455Z</time></trkpt><trkpt lat="44.6801183" lon="7.8702067"><ele>211.0</ele><time>2026-04-12T15:12:55.455Z</time></trkpt><trkpt lat="44.6802283" lon="7.8701333"><ele>211.33333333333331</ele><time>2026-04-12T15:12:57.455Z</time></trkpt><trkpt lat="44.6802883" lon="7.87009"><ele>211.66666666666666</ele><time>2026-04-12T15:12:58.455Z</time></trkpt><trkpt lat="44.6803433" lon="7.8700467"><ele>212.0</ele><time>2026-04-12T15:12:59.455Z</time></trkpt><trkpt lat="44.6804" lon="7.8700033"><ele>212.33333333333331</ele><time>2026-04-12T15:13:00.455Z</time></trkpt><trkpt lat="44.6805067" lon="7.86992"><ele>212.66666666666666</ele><time>2026-04-12T15:13:02.455Z</time></trkpt><trkpt lat="44.6805617" lon="7.8698767"><ele>213.0</ele><time>2026-04-12T15:13:03.455Z</time></trkpt><trkpt lat="44.6806717" lon="7.8697967"><ele>213.0</ele><time>2026-04-12T15:13:05.455Z</time></trkpt><trkpt lat="44.6807283" lon="7.8697517"><ele>213.0</ele><time>2026-04-12T15:13:06.455Z</time></trkpt><trkpt lat="44.6808367" lon="7.8696617"><ele>213.0</ele><time>2026-04-12T15:13:08.455Z</time></trkpt><trkpt lat="44.68094" lon="7.8695817"><ele>213.0</ele><time>2026-04-12T15:13:10.455Z</time></trkpt><trkpt lat="44.6810383" lon="7.86948"><ele>213.0</ele><time>2026-04-12T15:13:12.455Z</time></trkpt><trkpt lat="44.6811" lon="7.8693283"><ele>212.83333333333334</ele><time>2026-04-12T15:13:14.455Z</time></trkpt><trkpt lat="44.68116" lon="7.8691683"><ele>212.66666666666669</ele><time>2026-04-12T15:13:16.455Z</time></trkpt><trkpt lat="44.6811933" lon="7.869085"><ele>212.5</ele><time>2026-04-12T15:13:17.455Z</time></trkpt><trkpt lat="44.681225" lon="7.869"><ele>212.33333333333334</ele><time>2026-04-12T15:13:18.455Z</time></trkpt><trkpt lat="44.6812533" lon="7.8689083"><ele>212.16666666666669</ele><time>2026-04-12T15:13:19.455Z</time></trkpt><trkpt lat="44.6812833" lon="7.8688217"><ele>212.0</ele><time>2026-04-12T15:13:20.455Z</time></trkpt><trkpt lat="44.68131" lon="7.868735"><ele>212.0</ele><time>2026-04-12T15:13:21.455Z</time></trkpt><trkpt lat="44.6813333" lon="7.8686417"><ele>212.0</ele><time>2026-04-12T15:13:22.455Z</time></trkpt><trkpt lat="44.6813533" lon="7.86855"><ele>212.0</ele><time>2026-04-12T15:13:23.455Z</time></trkpt><trkpt lat="44.68137" lon="7.86846"><ele>212.0</ele><time>2026-04-12T15:13:24.455Z</time></trkpt><trkpt lat="44.6813867" lon="7.8683717"><ele>212.0</ele><time>2026-04-12T15:13:25.455Z</time></trkpt><trkpt lat="44.6814067" lon="7.86828"><ele>212.0</ele><time>2026-04-12T15:13:26.455Z</time></trkpt><trkpt lat="44.6814233" lon="7.8681917"><ele>212.0</ele><time>2026-04-12T15:13:27.455Z</time></trkpt><trkpt lat="44.6814417" lon="7.8681"><ele>212.16666666666669</ele><time>2026-04-12T15:13:28.455Z</time></trkpt><trkpt lat="44.681465" lon="7.8679983"><ele>212.33333333333334</ele><time>2026-04-12T15:13:29.455Z</time></trkpt><trkpt lat="44.6814883" lon="7.8679017"><ele>212.5</ele><time>2026-04-12T15:13:30.456Z</time></trkpt><trkpt lat="44.68152" lon="7.8677283"><ele>212.66666666666669</ele><time>2026-04-12T15:13:32.455Z</time></trkpt><trkpt lat="44.6815367" lon="7.86764"><ele>212.83333333333334</ele><time>2026-04-12T15:13:33.455Z</time></trkpt><trkpt lat="44.68156" lon="7.8675533"><ele>213.0</ele><time>2026-04-12T15:13:34.455Z</time></trkpt><trkpt lat="44.68158" lon="7.8674667"><ele>212.99999999999997</ele><time>2026-04-12T15:13:35.455Z</time></trkpt><trkpt lat="44.6816" lon="7.8673717"><ele>213.0</ele><time>2026-04-12T15:13:36.455Z</time></trkpt><trkpt lat="44.6816217" lon="7.867275"><ele>213.0</ele><time>2026-04-12T15:13:37.455Z</time></trkpt><trkpt lat="44.68164" lon="7.8671783"><ele>213.0</ele><time>2026-04-12T15:13:38.455Z</time></trkpt><trkpt lat="44.68166" lon="7.8670833"><ele>213.0</ele><time>2026-04-12T15:13:39.455Z</time></trkpt><trkpt lat="44.681675" lon="7.8669883"><ele>212.99999999999997</ele><time>2026-04-12T15:13:40.455Z</time></trkpt><trkpt lat="44.6816917" lon="7.866895"><ele>213.0</ele><time>2026-04-12T15:13:41.455Z</time></trkpt><trkpt lat="44.681705" lon="7.866805"><ele>212.99999999999997</ele><time>2026-04-12T15:13:42.455Z</time></trkpt><trkpt lat="44.6817233" lon="7.866715"><ele>213.0</ele><time>2026-04-12T15:13:43.455Z</time></trkpt><trkpt lat="44.6817417" lon="7.866625"><ele>213.0</ele><time>2026-04-12T15:13:44.455Z</time></trkpt><trkpt lat="44.6817617" lon="7.8665367"><ele>213.0</ele><time>2026-04-12T15:13:45.455Z</time></trkpt><trkpt lat="44.6817867" lon="7.866455"><ele>213.0</ele><time>2026-04-12T15:13:46.455Z</time></trkpt><trkpt lat="44.68181" lon="7.8663717"><ele>212.99999999999997</ele><time>2026-04-12T15:13:47.455Z</time></trkpt><trkpt lat="44.6818317" lon="7.8662833"><ele>213.0</ele><time>2026-04-12T15:13:48.455Z</time></trkpt><trkpt lat="44.6818517" lon="7.8661967"><ele>212.99999999999997</ele><time>2026-04-12T15:13:49.455Z</time></trkpt><trkpt lat="44.681875" lon="7.8661117"><ele>213.0</ele><time>2026-04-12T15:13:50.456Z</time></trkpt><trkpt lat="44.6818967" lon="7.86602"><ele>213.0</ele><time>2026-04-12T15:13:51.455Z</time></trkpt><trkpt lat="44.6819183" lon="7.8659283"><ele>213.0</ele><time>2026-04-12T15:13:52.455Z</time></trkpt><trkpt lat="44.6819317" lon="7.8658383"><ele>213.0</ele><time>2026-04-12T15:13:53.455Z</time></trkpt><trkpt lat="44.68195" lon="7.8657483"><ele>212.99999999999997</ele><time>2026-04-12T15:13:54.455Z</time></trkpt><trkpt lat="44.6819667" lon="7.8656617"><ele>213.0</ele><time>2026-04-12T15:13:55.455Z</time></trkpt><trkpt lat="44.6820117" lon="7.8655067"><ele>212.99999999999997</ele><time>2026-04-12T15:13:57.455Z</time></trkpt><trkpt lat="44.682045" lon="7.86543"><ele>213.0</ele><time>2026-04-12T15:13:58.456Z</time></trkpt><trkpt lat="44.6820867" lon="7.8653617"><ele>213.0</ele><time>2026-04-12T15:13:59.455Z</time></trkpt><trkpt lat="44.6821417" lon="7.865305"><ele>213.0</ele><time>2026-04-12T15:14:00.455Z</time></trkpt><trkpt lat="44.6822033" lon="7.8652533"><ele>213.0</ele><time>2026-04-12T15:14:01.455Z</time></trkpt><trkpt lat="44.6822667" lon="7.8652033"><ele>212.99999999999997</ele><time>2026-04-12T15:14:02.456Z</time></trkpt><trkpt lat="44.68233" lon="7.8651517"><ele>213.0</ele><time>2026-04-12T15:14:03.455Z</time></trkpt><trkpt lat="44.6823933" lon="7.8651"><ele>212.99999999999997</ele><time>2026-04-12T15:14:04.455Z</time></trkpt><trkpt lat="44.6824567" lon="7.8650533"><ele>213.0</ele><time>2026-04-12T15:14:05.455Z</time></trkpt><trkpt lat="44.6825217" lon="7.865"><ele>213.0</ele><time>2026-04-12T15:14:06.455Z</time></trkpt><trkpt lat="44.6825833" lon="7.86495"><ele>213.0</ele><time>2026-04-12T15:14:07.455Z</time></trkpt><trkpt lat="44.682645" lon="7.8649017"><ele>213.0</ele><time>2026-04-12T15:14:08.455Z</time></trkpt><trkpt lat="44.682705" lon="7.864865"><ele>212.99999999999997</ele><time>2026-04-12T15:14:09.455Z</time></trkpt><trkpt lat="44.6827633" lon="7.8648267"><ele>213.0</ele><time>2026-04-12T15:14:10.455Z</time></trkpt><trkpt lat="44.6828183" lon="7.8647767"><ele>212.99999999999997</ele><time>2026-04-12T15:14:11.455Z</time></trkpt><trkpt lat="44.68287" lon="7.8647133"><ele>213.0</ele><time>2026-04-12T15:14:12.455Z</time></trkpt><trkpt lat="44.6829067" lon="7.8646333"><ele>213.0</ele><time>2026-04-12T15:14:13.455Z</time></trkpt><trkpt lat="44.6829233" lon="7.8645417"><ele>213.0</ele><time>2026-04-12T15:14:14.456Z</time></trkpt><trkpt lat="44.68292" lon="7.864445"><ele>213.0</ele><time>2026-04-12T15:14:15.455Z</time></trkpt><trkpt lat="44.6829167" lon="7.8643517"><ele>212.99999999999997</ele><time>2026-04-12T15:14:16.455Z</time></trkpt><trkpt lat="44.6829217" lon="7.8642583"><ele>213.0</ele><time>2026-04-12T15:14:17.455Z</time></trkpt><trkpt lat="44.682945" lon="7.864165"><ele>212.99999999999997</ele><time>2026-04-12T15:14:18.455Z</time></trkpt><trkpt lat="44.682985" lon="7.8640817"><ele>213.0</ele><time>2026-04-12T15:14:19.455Z</time></trkpt><trkpt lat="44.6830333" lon="7.8640017"><ele>213.0</ele><time>2026-04-12T15:14:20.455Z</time></trkpt><trkpt lat="44.6830883" lon="7.86392"><ele>213.0</ele><time>2026-04-12T15:14:21.455Z</time></trkpt><trkpt lat="44.68314" lon="7.86385"><ele>213.0</ele><time>2026-04-12T15:14:22.455Z</time></trkpt><trkpt lat="44.6831933" lon="7.863775"><ele>212.99999999999997</ele><time>2026-04-12T15:14:23.455Z</time></trkpt><trkpt lat="44.6832417" lon="7.8636983"><ele>213.0</ele><time>2026-04-12T15:14:24.455Z</time></trkpt><trkpt lat="44.6832917" lon="7.863625"><ele>213.0</ele><time>2026-04-12T15:14:25.455Z</time></trkpt><trkpt lat="44.68334" lon="7.8635517"><ele>213.0</ele><time>2026-04-12T15:14:26.455Z</time></trkpt><trkpt lat="44.683385" lon="7.86348"><ele>213.0</ele><time>2026-04-12T15:14:27.455Z</time></trkpt><trkpt lat="44.68343" lon="7.8634133"><ele>213.0</ele><time>2026-04-12T15:14:28.455Z</time></trkpt><trkpt lat="44.6835167" lon="7.8632767"><ele>213.0</ele><time>2026-04-12T15:14:30.455Z</time></trkpt><trkpt lat="44.6835617" lon="7.8632033"><ele>213.0</ele><time>2026-04-12T15:14:31.455Z</time></trkpt><trkpt lat="44.6836067" lon="7.863135"><ele>212.83333333333334</ele><time>2026-04-12T15:14:32.455Z</time></trkpt><trkpt lat="44.6836517" lon="7.8630633"><ele>212.66666666666669</ele><time>2026-04-12T15:14:33.455Z</time></trkpt><trkpt lat="44.683695" lon="7.862995"><ele>212.5</ele><time>2026-04-12T15:14:34.455Z</time></trkpt><trkpt lat="44.683785" lon="7.8628667"><ele>212.33333333333334</ele><time>2026-04-12T15:14:36.455Z</time></trkpt><trkpt lat="44.6838333" lon="7.8627967"><ele>212.16666666666669</ele><time>2026-04-12T15:14:37.455Z</time></trkpt><trkpt lat="44.6838767" lon="7.8627267"><ele>212.0</ele><time>2026-04-12T15:14:38.455Z</time></trkpt><trkpt lat="44.6839233" lon="7.862655"><ele>212.14285714285714</ele><time>2026-04-12T15:14:39.455Z</time></trkpt><trkpt lat="44.6839667" lon="7.862585"><ele>212.28571428571428</ele><time>2026-04-12T15:14:40.455Z</time></trkpt><trkpt lat="44.6840133" lon="7.862505"><ele>212.42857142857142</ele><time>2026-04-12T15:14:41.455Z</time></trkpt><trkpt lat="44.6840533" lon="7.8624317"><ele>212.57142857142856</ele><time>2026-04-12T15:14:42.455Z</time></trkpt><trkpt lat="44.6840917" lon="7.8623567"><ele>212.71428571428572</ele><time>2026-04-12T15:14:43.455Z</time></trkpt><trkpt lat="44.6841333" lon="7.8622817"><ele>212.85714285714283</ele><time>2026-04-12T15:14:44.455Z</time></trkpt><trkpt lat="44.6841733" lon="7.862205"><ele>213.0</ele><time>2026-04-12T15:14:45.455Z</time></trkpt><trkpt lat="44.6842133" lon="7.862125"><ele>213.0</ele><time>2026-04-12T15:14:46.455Z</time></trkpt><trkpt lat="44.6842517" lon="7.8620483"><ele>213.0</ele><time>2026-04-12T15:14:47.455Z</time></trkpt><trkpt lat="44.684295" lon="7.861975"><ele>213.0</ele><time>2026-04-12T15:14:48.455Z</time></trkpt><trkpt lat="44.6843917" lon="7.861855"><ele>213.0</ele><time>2026-04-12T15:14:50.455Z</time></trkpt><trkpt lat="44.6844533" lon="7.8618083"><ele>213.0</ele><time>2026-04-12T15:14:51.455Z</time></trkpt><trkpt lat="44.6845183" lon="7.8617767"><ele>213.0</ele><time>2026-04-12T15:14:52.455Z</time></trkpt><trkpt lat="44.6845833" lon="7.8617617"><ele>213.14285714285714</ele><time>2026-04-12T15:14:53.455Z</time></trkpt><trkpt lat="44.6846533" lon="7.8617483"><ele>213.28571428571428</ele><time>2026-04-12T15:14:54.455Z</time></trkpt><trkpt lat="44.6847183" lon="7.8617383"><ele>213.42857142857144</ele><time>2026-04-12T15:14:55.456Z</time></trkpt><trkpt lat="44.6847867" lon="7.8617283"><ele>213.57142857142856</ele><time>2026-04-12T15:14:56.455Z</time></trkpt><trkpt lat="44.6848567" lon="7.86172"><ele>213.71428571428572</ele><time>2026-04-12T15:14:57.455Z</time></trkpt><trkpt lat="44.684925" lon="7.8617067"><ele>213.85714285714286</ele><time>2026-04-12T15:14:58.455Z</time></trkpt><trkpt lat="44.684995" lon="7.861685"><ele>214.0</ele><time>2026-04-12T15:14:59.455Z</time></trkpt><trkpt lat="44.6850617" lon="7.8616617"><ele>214.0</ele><time>2026-04-12T15:15:00.455Z</time></trkpt><trkpt lat="44.6851267" lon="7.8616433"><ele>213.99999999999997</ele><time>2026-04-12T15:15:01.455Z</time></trkpt><trkpt lat="44.6852533" lon="7.8616"><ele>213.99999999999997</ele><time>2026-04-12T15:15:03.455Z</time></trkpt><trkpt lat="44.6853183" lon="7.86158"><ele>214.0</ele><time>2026-04-12T15:15:04.455Z</time></trkpt><trkpt lat="44.6854383" lon="7.8615333"><ele>214.0</ele><time>2026-04-12T15:15:06.455Z</time></trkpt><trkpt lat="44.6855567" lon="7.861515"><ele>214.16666666666666</ele><time>2026-04-12T15:15:08.455Z</time></trkpt><trkpt lat="44.6856817" lon="7.86149"><ele>214.33333333333331</ele><time>2026-04-12T15:15:10.455Z</time></trkpt><trkpt lat="44.6857517" lon="7.86148"><ele>214.5</ele><time>2026-04-12T15:15:11.456Z</time></trkpt><trkpt lat="44.6858183" lon="7.8614667"><ele>214.66666666666669</ele><time>2026-04-12T15:15:12.455Z</time></trkpt><trkpt lat="44.6858917" lon="7.8614517"><ele>214.83333333333334</ele><time>2026-04-12T15:15:13.455Z</time></trkpt><trkpt lat="44.6859633" lon="7.86144"><ele>215.0</ele><time>2026-04-12T15:15:14.455Z</time></trkpt><trkpt lat="44.6860317" lon="7.861425"><ele>215.00000000000003</ele><time>2026-04-12T15:15:15.455Z</time></trkpt><trkpt lat="44.6861633" lon="7.8613917"><ele>215.0</ele><time>2026-04-12T15:15:17.455Z</time></trkpt><trkpt lat="44.68623" lon="7.86137"><ele>215.0</ele><time>2026-04-12T15:15:18.456Z</time></trkpt><trkpt lat="44.6862967" lon="7.8613433"><ele>215.0</ele><time>2026-04-12T15:15:19.455Z</time></trkpt><trkpt lat="44.686365" lon="7.8613217"><ele>215.00000000000003</ele><time>2026-04-12T15:15:20.455Z</time></trkpt><trkpt lat="44.6864283" lon="7.8613017"><ele>215.0</ele><time>2026-04-12T15:15:21.455Z</time></trkpt><trkpt lat="44.6864933" lon="7.8612783"><ele>215.0</ele><time>2026-04-12T15:15:22.455Z</time></trkpt><trkpt lat="44.6865583" lon="7.8612583"><ele>215.0</ele><time>2026-04-12T15:15:23.455Z</time></trkpt><trkpt lat="44.6866617" lon="7.8612283"><ele>215.0</ele><time>2026-04-12T15:15:25.456Z</time></trkpt><trkpt lat="44.6867617" lon="7.8612233"><ele>215.0</ele><time>2026-04-12T15:15:27.455Z</time></trkpt><trkpt lat="44.68686" lon="7.8612017"><ele>215.0</ele><time>2026-04-12T15:15:29.455Z</time></trkpt><trkpt lat="44.6869683" lon="7.8611617"><ele>215.75</ele><time>2026-04-12T15:15:31.455Z</time></trkpt><trkpt lat="44.6870767" lon="7.8611067"><ele>216.5</ele><time>2026-04-12T15:15:33.455Z</time></trkpt><trkpt lat="44.6871817" lon="7.8610283"><ele>217.25</ele><time>2026-04-12T15:15:35.455Z</time></trkpt><trkpt lat="44.6872817" lon="7.86095"><ele>218.0</ele><time>2026-04-12T15:15:37.455Z</time></trkpt><trkpt lat="44.687385" lon="7.8608817"><ele>218.16666666666669</ele><time>2026-04-12T15:15:39.455Z</time></trkpt><trkpt lat="44.6874733" lon="7.8608183"><ele>218.33333333333334</ele><time>2026-04-12T15:15:41.455Z</time></trkpt><trkpt lat="44.6875567" lon="7.8607533"><ele>218.5</ele><time>2026-04-12T15:15:43.455Z</time></trkpt><trkpt lat="44.6876333" lon="7.8607083"><ele>218.66666666666669</ele><time>2026-04-12T15:15:45.455Z</time></trkpt><trkpt lat="44.6877067" lon="7.860665"><ele>218.83333333333334</ele><time>2026-04-12T15:15:47.455Z</time></trkpt><trkpt lat="44.6877767" lon="7.86062"><ele>219.0</ele><time>2026-04-12T15:15:49.455Z</time></trkpt><trkpt lat="44.6878683" lon="7.860585"><ele>220.57142857142858</ele><time>2026-04-12T15:15:52.455Z</time></trkpt><trkpt lat="44.68794" lon="7.8605733"><ele>222.1428571428571</ele><time>2026-04-12T15:15:54.455Z</time></trkpt><trkpt lat="44.6880067" lon="7.860565"><ele>223.7142857142857</ele><time>2026-04-12T15:15:56.455Z</time></trkpt><trkpt lat="44.6880717" lon="7.8605567"><ele>225.28571428571428</ele><time>2026-04-12T15:15:58.455Z</time></trkpt><trkpt lat="44.6881383" lon="7.860535"><ele>226.85714285714283</ele><time>2026-04-12T15:16:00.455Z</time></trkpt><trkpt lat="44.6882267" lon="7.8604667"><ele>228.4285714285714</ele><time>2026-04-12T15:16:03.455Z</time></trkpt><trkpt lat="44.68828" lon="7.8604167"><ele>229.99999999999997</ele><time>2026-04-12T15:16:05.455Z</time></trkpt><trkpt lat="44.6883283" lon="7.8603567"><ele>229.99999999999997</ele><time>2026-04-12T15:16:07.455Z</time></trkpt><trkpt lat="44.6883683" lon="7.8602683"><ele>230.0</ele><time>2026-04-12T15:16:09.455Z</time></trkpt><trkpt lat="44.6884067" lon="7.8601817"><ele>229.99999999999997</ele><time>2026-04-12T15:16:11.455Z</time></trkpt><trkpt lat="44.6884333" lon="7.8600883"><ele>229.99999999999997</ele><time>2026-04-12T15:16:13.455Z</time></trkpt><trkpt lat="44.6884583" lon="7.8600017"><ele>230.0</ele><time>2026-04-12T15:16:15.455Z</time></trkpt><trkpt lat="44.6884567" lon="7.8599017"><ele>229.99999999999997</ele><time>2026-04-12T15:16:17.455Z</time></trkpt><trkpt lat="44.6884517" lon="7.8598017"><ele>229.99999999999997</ele><time>2026-04-12T15:16:19.455Z</time></trkpt><trkpt lat="44.68844" lon="7.8596983"><ele>230.28571428571425</ele><time>2026-04-12T15:16:21.456Z</time></trkpt><trkpt lat="44.6884233" lon="7.8595983"><ele>230.57142857142856</ele><time>2026-04-12T15:16:23.455Z</time></trkpt><trkpt lat="44.688405" lon="7.8594983"><ele>230.85714285714286</ele><time>2026-04-12T15:16:25.455Z</time></trkpt><trkpt lat="44.688385" lon="7.8593983"><ele>231.14285714285714</ele><time>2026-04-12T15:16:27.455Z</time></trkpt><trkpt lat="44.6883667" lon="7.859305"><ele>231.42857142857144</ele><time>2026-04-12T15:16:29.455Z</time></trkpt><trkpt lat="44.6883467" lon="7.859205"><ele>231.71428571428575</ele><time>2026-04-12T15:16:31.455Z</time></trkpt><trkpt lat="44.688335" lon="7.8591067"><ele>232.00000000000003</ele><time>2026-04-12T15:16:33.455Z</time></trkpt><trkpt lat="44.6883183" lon="7.8590083"><ele>232.83333333333331</ele><time>2026-04-12T15:16:35.455Z</time></trkpt><trkpt lat="44.6882883" lon="7.85891"><ele>233.66666666666666</ele><time>2026-04-12T15:16:37.455Z</time></trkpt><trkpt lat="44.6882733" lon="7.8588183"><ele>234.5</ele><time>2026-04-12T15:16:39.455Z</time></trkpt><trkpt lat="44.6882483" lon="7.8586933"><ele>235.33333333333331</ele><time>2026-04-12T15:16:42.455Z</time></trkpt><trkpt lat="44.6882333" lon="7.8585783"><ele>236.16666666666666</ele><time>2026-04-12T15:16:45.455Z</time></trkpt><trkpt lat="44.688215" lon="7.8584633"><ele>237.0</ele><time>2026-04-12T15:16:48.455Z</time></trkpt><trkpt lat="44.688195" lon="7.8583467"><ele>238.33333333333334</ele><time>2026-04-12T15:16:51.455Z</time></trkpt><trkpt lat="44.68816" lon="7.858235"><ele>239.66666666666669</ele><time>2026-04-12T15:16:54.456Z</time></trkpt><trkpt lat="44.68814" lon="7.8581367"><ele>241.0</ele><time>2026-04-12T15:16:57.455Z</time></trkpt><trkpt lat="44.6881183" lon="7.8580317"><ele>242.33333333333334</ele><time>2026-04-12T15:17:00.455Z</time></trkpt><trkpt lat="44.6881" lon="7.8579233"><ele>243.66666666666669</ele><time>2026-04-12T15:17:03.455Z</time></trkpt><trkpt lat="44.6880867" lon="7.85781"><ele>245.0</ele><time>2026-04-12T15:17:06.455Z</time></trkpt><trkpt lat="44.6880833" lon="7.8576967"><ele>246.33333333333334</ele><time>2026-04-12T15:17:09.455Z</time></trkpt><trkpt lat="44.688085" lon="7.85758"><ele>247.66666666666669</ele><time>2026-04-12T15:17:12.455Z</time></trkpt><trkpt lat="44.6880967" lon="7.8574783"><ele>249.0</ele><time>2026-04-12T15:17:15.455Z</time></trkpt><trkpt lat="44.6881033" lon="7.85739"><ele>250.33333333333331</ele><time>2026-04-12T15:17:17.455Z</time></trkpt><trkpt lat="44.6881033" lon="7.85726"><ele>251.66666666666666</ele><time>2026-04-12T15:17:20.455Z</time></trkpt><trkpt lat="44.688105" lon="7.857135"><ele>253.0</ele><time>2026-04-12T15:17:23.455Z</time></trkpt><trkpt lat="44.6881017" lon="7.8570317"><ele>252.99999999999997</ele><time>2026-04-12T15:17:26.456Z</time></trkpt><trkpt lat="44.688105" lon="7.8569217"><ele>253.0</ele><time>2026-04-12T15:17:29.455Z</time></trkpt><trkpt lat="44.6880917" lon="7.8568167"><ele>253.0</ele><time>2026-04-12T15:17:32.455Z</time></trkpt><trkpt lat="44.6880833" lon="7.8567083"><ele>253.0</ele><time>2026-04-12T15:17:35.455Z</time></trkpt><trkpt lat="44.688075" lon="7.8565967"><ele>252.99999999999997</ele><time>2026-04-12T15:17:38.455Z</time></trkpt><trkpt lat="44.6880567" lon="7.8564917"><ele>253.0</ele><time>2026-04-12T15:17:41.455Z</time></trkpt><trkpt lat="44.68801" lon="7.856385"><ele>254.66666666666666</ele><time>2026-04-12T15:17:44.455Z</time></trkpt><trkpt lat="44.6879533" lon="7.8562883"><ele>256.3333333333333</ele><time>2026-04-12T15:17:47.456Z</time></trkpt><trkpt lat="44.687895" lon="7.85619"><ele>258.0</ele><time>2026-04-12T15:17:50.455Z</time></trkpt><trkpt lat="44.68786" lon="7.8560733"><ele>259.6666666666667</ele><time>2026-04-12T15:17:53.455Z</time></trkpt><trkpt lat="44.6878967" lon="7.8559633"><ele>261.33333333333337</ele><time>2026-04-12T15:17:56.455Z</time></trkpt><trkpt lat="44.68798" lon="7.8559367"><ele>263.0</ele><time>2026-04-12T15:17:59.455Z</time></trkpt><trkpt lat="44.688055" lon="7.8559867"><ele>263.0</ele><time>2026-04-12T15:18:02.455Z</time></trkpt><trkpt lat="44.6881383" lon="7.856045"><ele>263.0</ele><time>2026-04-12T15:18:05.455Z</time></trkpt><trkpt lat="44.688215" lon="7.8560867"><ele>263.0</ele><time>2026-04-12T15:18:08.455Z</time></trkpt><trkpt lat="44.6882733" lon="7.8560367"><ele>263.0</ele><time>2026-04-12T15:18:11.455Z</time></trkpt><trkpt lat="44.6882983" lon="7.855955"><ele>263.0</ele><time>2026-04-12T15:18:13.455Z</time></trkpt><trkpt lat="44.6883317" lon="7.8558383"><ele>263.0</ele><time>2026-04-12T15:18:16.455Z</time></trkpt><trkpt lat="44.6883567" lon="7.855755"><ele>264.1666666666667</ele><time>2026-04-12T15:18:18.455Z</time></trkpt><trkpt lat="44.6883883" lon="7.85564"><ele>265.33333333333337</ele><time>2026-04-12T15:18:21.455Z</time></trkpt><trkpt lat="44.6884367" lon="7.85554"><ele>266.5</ele><time>2026-04-12T15:18:24.455Z</time></trkpt><trkpt lat="44.6884917" lon="7.85549"><ele>267.6666666666667</ele><time>2026-04-12T15:18:26.455Z</time></trkpt><trkpt lat="44.688565" lon="7.8554717"><ele>268.8333333333333</ele><time>2026-04-12T15:18:29.455Z</time></trkpt><trkpt lat="44.688645" lon="7.8554883"><ele>270.0</ele><time>2026-04-12T15:18:32.455Z</time></trkpt><trkpt lat="44.68872" lon="7.8554767"><ele>271.5</ele><time>2026-04-12T15:18:35.455Z</time></trkpt><trkpt lat="44.68879" lon="7.8554267"><ele>273.0</ele><time>2026-04-12T15:18:38.455Z</time></trkpt><trkpt lat="44.6888133" lon="7.855315"><ele>274.5</ele><time>2026-04-12T15:18:41.455Z</time></trkpt><trkpt lat="44.6888017" lon="7.8552033"><ele>276.0</ele><time>2026-04-12T15:18:44.455Z</time></trkpt><trkpt lat="44.6887783" lon="7.855105"><ele>277.5</ele><time>2026-04-12T15:18:48.455Z</time></trkpt><trkpt lat="44.688845" lon="7.85508"><ele>279.0</ele><time>2026-04-12T15:18:52.455Z</time></trkpt><trkpt lat="44.6889417" lon="7.8551"><ele>279.0</ele><time>2026-04-12T15:18:55.455Z</time></trkpt><trkpt lat="44.6890117" lon="7.85511"><ele>279.0</ele><time>2026-04-12T15:18:57.455Z</time></trkpt><trkpt lat="44.689095" lon="7.8551267"><ele>279.0</ele><time>2026-04-12T15:18:59.455Z</time></trkpt><trkpt lat="44.6891733" lon="7.85515"><ele>279.0</ele><time>2026-04-12T15:19:01.455Z</time></trkpt><trkpt lat="44.68924" lon="7.85517"><ele>279.0</ele><time>2026-04-12T15:19:03.455Z</time></trkpt><trkpt lat="44.6893183" lon="7.85518"><ele>279.0</ele><time>2026-04-12T15:19:05.455Z</time></trkpt><trkpt lat="44.6894017" lon="7.855185"><ele>279.3333333333333</ele><time>2026-04-12T15:19:07.455Z</time></trkpt><trkpt lat="44.68948" lon="7.8551767"><ele>279.6666666666667</ele><time>2026-04-12T15:19:09.455Z</time></trkpt><trkpt lat="44.68955" lon="7.85518"><ele>280.0</ele><time>2026-04-12T15:19:11.455Z</time></trkpt><trkpt lat="44.6896317" lon="7.8551733"><ele>280.33333333333337</ele><time>2026-04-12T15:19:13.455Z</time></trkpt><trkpt lat="44.6897067" lon="7.8551633"><ele>280.6666666666667</ele><time>2026-04-12T15:19:15.455Z</time></trkpt><trkpt lat="44.6897833" lon="7.85515"><ele>281.0</ele><time>2026-04-12T15:19:17.455Z</time></trkpt><trkpt lat="44.6898667" lon="7.8551233"><ele>280.8571428571429</ele><time>2026-04-12T15:19:19.455Z</time></trkpt><trkpt lat="44.6899383" lon="7.8551083"><ele>280.7142857142857</ele><time>2026-04-12T15:19:21.455Z</time></trkpt><trkpt lat="44.6900167" lon="7.8550933"><ele>280.57142857142856</ele><time>2026-04-12T15:19:23.455Z</time></trkpt><trkpt lat="44.69008" lon="7.85508"><ele>280.42857142857144</ele><time>2026-04-12T15:19:25.455Z</time></trkpt><trkpt lat="44.6901417" lon="7.855055"><ele>280.2857142857143</ele><time>2026-04-12T15:19:27.455Z</time></trkpt><trkpt lat="44.6902133" lon="7.8550133"><ele>280.14285714285717</ele><time>2026-04-12T15:19:30.455Z</time></trkpt><trkpt lat="44.6902983" lon="7.85499"><ele>280.0</ele><time>2026-04-12T15:20:20.455Z</time></trkpt><trkpt lat="44.6903883" lon="7.8549683"><ele>280.0</ele><time>2026-04-12T15:20:23.455Z</time></trkpt><trkpt lat="44.69048" lon="7.8549217"><ele>280.0</ele><time>2026-04-12T15:20:26.455Z</time></trkpt><trkpt lat="44.69056" lon="7.8548883"><ele>280.0</ele><time>2026-04-12T15:20:28.455Z</time></trkpt><trkpt lat="44.6906567" lon="7.85486"><ele>280.0</ele><time>2026-04-12T15:20:30.455Z</time></trkpt><trkpt lat="44.6907667" lon="7.8548433"><ele>280.0</ele><time>2026-04-12T15:20:32.455Z</time></trkpt><trkpt lat="44.6908767" lon="7.8548483"><ele>280.0</ele><time>2026-04-12T15:20:34.455Z</time></trkpt><trkpt lat="44.6909867" lon="7.8548517"><ele>280.0</ele><time>2026-04-12T15:20:36.455Z</time></trkpt><trkpt lat="44.69108" lon="7.8548533"><ele>280.0</ele><time>2026-04-12T15:20:38.456Z</time></trkpt><trkpt lat="44.6911717" lon="7.85486"><ele>280.0</ele><time>2026-04-12T15:20:40.455Z</time></trkpt><trkpt lat="44.691265" lon="7.8548683"><ele>280.0</ele><time>2026-04-12T15:20:42.455Z</time></trkpt><trkpt lat="44.69136" lon="7.854875"><ele>280.0</ele><time>2026-04-12T15:20:44.455Z</time></trkpt><trkpt lat="44.691455" lon="7.8548917"><ele>280.0</ele><time>2026-04-12T15:20:46.455Z</time></trkpt><trkpt lat="44.69155" lon="7.854905"><ele>280.0</ele><time>2026-04-12T15:20:48.455Z</time></trkpt><trkpt lat="44.691645" lon="7.8549233"><ele>280.0</ele><time>2026-04-12T15:20:50.455Z</time></trkpt><trkpt lat="44.6917567" lon="7.85492"><ele>280.0</ele><time>2026-04-12T15:20:52.455Z</time></trkpt><trkpt lat="44.6918517" lon="7.8549433"><ele>279.8</ele><time>2026-04-12T15:20:54.455Z</time></trkpt><trkpt lat="44.6919483" lon="7.8549717"><ele>279.6</ele><time>2026-04-12T15:20:56.455Z</time></trkpt><trkpt lat="44.69204" lon="7.8549867"><ele>279.4</ele><time>2026-04-12T15:20:58.455Z</time></trkpt><trkpt lat="44.6921217" lon="7.8550233"><ele>279.2</ele><time>2026-04-12T15:21:00.455Z</time></trkpt><trkpt lat="44.6921783" lon="7.855075"><ele>279.0</ele><time>2026-04-12T15:21:02.455Z</time></trkpt><trkpt lat="44.6922817" lon="7.855105"><ele>279.0</ele><time>2026-04-12T15:21:04.455Z</time></trkpt><trkpt lat="44.6923833" lon="7.8550883"><ele>279.0</ele><time>2026-04-12T15:21:06.455Z</time></trkpt><trkpt lat="44.6924767" lon="7.85507"><ele>279.0</ele><time>2026-04-12T15:21:08.455Z</time></trkpt><trkpt lat="44.6925767" lon="7.855075"><ele>279.0</ele><time>2026-04-12T15:21:10.455Z</time></trkpt><trkpt lat="44.692675" lon="7.85508"><ele>279.0</ele><time>2026-04-12T15:21:12.455Z</time></trkpt><trkpt lat="44.6927717" lon="7.855075"><ele>279.59999999999997</ele><time>2026-04-12T15:21:14.455Z</time></trkpt><trkpt lat="44.6928567" lon="7.855085"><ele>280.2</ele><time>2026-04-12T15:21:16.455Z</time></trkpt><trkpt lat="44.692945" lon="7.85508"><ele>280.79999999999995</ele><time>2026-04-12T15:21:18.455Z</time></trkpt><trkpt lat="44.6930617" lon="7.85508"><ele>281.4</ele><time>2026-04-12T15:21:20.455Z</time></trkpt><trkpt lat="44.6931767" lon="7.8550683"><ele>282.0</ele><time>2026-04-12T15:21:22.455Z</time></trkpt><trkpt lat="44.6932917" lon="7.8550483"><ele>282.0</ele><time>2026-04-12T15:21:24.455Z</time></trkpt><trkpt lat="44.6933967" lon="7.85504"><ele>282.0</ele><time>2026-04-12T15:21:26.455Z</time></trkpt><trkpt lat="44.693515" lon="7.8550267"><ele>282.0</ele><time>2026-04-12T15:21:28.455Z</time></trkpt><trkpt lat="44.6936283" lon="7.8550083"><ele>282.0</ele><time>2026-04-12T15:21:30.455Z</time></trkpt><trkpt lat="44.6937467" lon="7.8549817"><ele>282.2</ele><time>2026-04-12T15:21:32.455Z</time></trkpt><trkpt lat="44.6938117" lon="7.8549633"><ele>282.4</ele><time>2026-04-12T15:21:33.455Z</time></trkpt><trkpt lat="44.6939183" lon="7.8549433"><ele>282.6</ele><time>2026-04-12T15:21:35.455Z</time></trkpt><trkpt lat="44.6940217" lon="7.854935"><ele>282.8</ele><time>2026-04-12T15:21:37.455Z</time></trkpt><trkpt lat="44.6941317" lon="7.8549183"><ele>283.0</ele><time>2026-04-12T15:21:39.455Z</time></trkpt><trkpt lat="44.6942367" lon="7.8548967"><ele>283.0</ele><time>2026-04-12T15:21:41.455Z</time></trkpt><trkpt lat="44.69434" lon="7.8548717"><ele>283.0</ele><time>2026-04-12T15:21:43.455Z</time></trkpt><trkpt lat="44.6944517" lon="7.854845"><ele>283.0</ele><time>2026-04-12T15:21:45.455Z</time></trkpt><trkpt lat="44.69456" lon="7.8548083"><ele>283.0</ele><time>2026-04-12T15:21:47.455Z</time></trkpt><trkpt lat="44.6946617" lon="7.8547617"><ele>283.0</ele><time>2026-04-12T15:21:49.455Z</time></trkpt><trkpt lat="44.6947567" lon="7.8547067"><ele>283.3333333333333</ele><time>2026-04-12T15:21:51.455Z</time></trkpt><trkpt lat="44.694845" lon="7.854665"><ele>283.66666666666663</ele><time>2026-04-12T15:21:53.456Z</time></trkpt><trkpt lat="44.6949133" lon="7.85464"><ele>284.0</ele><time>2026-04-12T15:21:55.455Z</time></trkpt><trkpt lat="44.69497" lon="7.85469"><ele>284.3333333333333</ele><time>2026-04-12T15:21:57.455Z</time></trkpt><trkpt lat="44.6950167" lon="7.8547783"><ele>284.6666666666667</ele><time>2026-04-12T15:22:00.455Z</time></trkpt><trkpt lat="44.6950233" lon="7.8548683"><ele>285.0</ele><time>2026-04-12T15:22:02.455Z</time></trkpt><trkpt lat="44.6950383" lon="7.8549867"><ele>285.0</ele><time>2026-04-12T15:22:04.455Z</time></trkpt><trkpt lat="44.695075" lon="7.855105"><ele>285.0</ele><time>2026-04-12T15:22:06.455Z</time></trkpt><trkpt lat="44.6950867" lon="7.8552067"><ele>285.0</ele><time>2026-04-12T15:22:08.455Z</time></trkpt><trkpt lat="44.695095" lon="7.8553267"><ele>285.0</ele><time>2026-04-12T15:22:10.455Z</time></trkpt><trkpt lat="44.6951067" lon="7.8554517"><ele>285.0</ele><time>2026-04-12T15:22:12.456Z</time></trkpt><trkpt lat="44.6951483" lon="7.85557"><ele>285.0</ele><time>2026-04-12T15:22:14.456Z</time></trkpt><trkpt lat="44.6952067" lon="7.85571"><ele>285.0</ele><time>2026-04-12T15:22:16.455Z</time></trkpt><trkpt lat="44.69525" lon="7.85584"><ele>285.0</ele><time>2026-04-12T15:22:18.455Z</time></trkpt><trkpt lat="44.695305" lon="7.855975"><ele>285.0</ele><time>2026-04-12T15:22:20.455Z</time></trkpt><trkpt lat="44.69535" lon="7.85609"><ele>285.0</ele><time>2026-04-12T15:22:22.455Z</time></trkpt><trkpt lat="44.6954" lon="7.856235"><ele>285.0</ele><time>2026-04-12T15:22:24.455Z</time></trkpt><trkpt lat="44.6954467" lon="7.856385"><ele>285.3333333333333</ele><time>2026-04-12T15:22:26.455Z</time></trkpt><trkpt lat="44.6954767" lon="7.85649"><ele>285.6666666666667</ele><time>2026-04-12T15:22:28.455Z</time></trkpt><trkpt lat="44.6955133" lon="7.856585"><ele>286.0</ele><time>2026-04-12T15:22:31.455Z</time></trkpt><trkpt lat="44.6955517" lon="7.8566917"><ele>286.33333333333337</ele><time>2026-04-12T15:22:34.455Z</time></trkpt><trkpt lat="44.69561" lon="7.8567433"><ele>286.6666666666667</ele><time>2026-04-12T15:22:39.455Z</time></trkpt><trkpt lat="44.6956867" lon="7.8567233"><ele>287.0</ele><time>2026-04-12T15:22:42.455Z</time></trkpt><trkpt lat="44.69575" lon="7.85673"><ele>287.0</ele><time>2026-04-12T15:22:44.455Z</time></trkpt><trkpt lat="44.6958117" lon="7.8567033"><ele>287.0</ele><time>2026-04-12T15:22:46.456Z</time></trkpt><trkpt lat="44.6959117" lon="7.8567"><ele>287.0</ele><time>2026-04-12T15:22:49.456Z</time></trkpt><trkpt lat="44.6959783" lon="7.8566817"><ele>287.0</ele><time>2026-04-12T15:22:51.455Z</time></trkpt><trkpt lat="44.6960483" lon="7.8566333"><ele>287.0</ele><time>2026-04-12T15:22:54.455Z</time></trkpt><trkpt lat="44.6961383" lon="7.8565933"><ele>287.0</ele><time>2026-04-12T15:22:59.455Z</time></trkpt><trkpt lat="44.696215" lon="7.8565733"><ele>287.6666666666667</ele><time>2026-04-12T15:23:02.456Z</time></trkpt><trkpt lat="44.6962767" lon="7.8565533"><ele>288.33333333333337</ele><time>2026-04-12T15:23:04.455Z</time></trkpt><trkpt lat="44.6963617" lon="7.8565117"><ele>289.0</ele><time>2026-04-12T15:23:07.455Z</time></trkpt><trkpt lat="44.6964383" lon="7.8564467"><ele>289.6666666666667</ele><time>2026-04-12T15:23:10.455Z</time></trkpt><trkpt lat="44.6964933" lon="7.8563917"><ele>290.3333333333333</ele><time>2026-04-12T15:23:12.455Z</time></trkpt><trkpt lat="44.6965467" lon="7.8562867"><ele>291.0</ele><time>2026-04-12T15:23:16.455Z</time></trkpt><trkpt lat="44.6965933" lon="7.856225"><ele>291.0</ele><time>2026-04-12T15:23:19.455Z</time></trkpt><trkpt lat="44.696645" lon="7.8561567"><ele>291.0</ele><time>2026-04-12T15:23:23.455Z</time></trkpt><trkpt lat="44.69672" lon="7.8561"><ele>291.0</ele><time>2026-04-12T15:23:25.455Z</time></trkpt><trkpt lat="44.6968067" lon="7.8559983"><ele>291.0</ele><time>2026-04-12T15:23:27.455Z</time></trkpt><trkpt lat="44.696895" lon="7.8558767"><ele>291.0</ele><time>2026-04-12T15:23:29.455Z</time></trkpt><trkpt lat="44.6969517" lon="7.8558033"><ele>291.2857142857143</ele><time>2026-04-12T15:23:30.455Z</time></trkpt><trkpt lat="44.6969983" lon="7.8557333"><ele>291.57142857142856</ele><time>2026-04-12T15:23:31.455Z</time></trkpt><trkpt lat="44.6970483" lon="7.85566"><ele>291.85714285714283</ele><time>2026-04-12T15:23:32.455Z</time></trkpt><trkpt lat="44.6970967" lon="7.8555833"><ele>292.1428571428571</ele><time>2026-04-12T15:23:33.455Z</time></trkpt><trkpt lat="44.69715" lon="7.85551"><ele>292.42857142857144</ele><time>2026-04-12T15:23:34.455Z</time></trkpt><trkpt lat="44.6972017" lon="7.855445"><ele>292.71428571428567</ele><time>2026-04-12T15:23:35.455Z</time></trkpt><trkpt lat="44.6972483" lon="7.8553817"><ele>293.0</ele><time>2026-04-12T15:23:36.455Z</time></trkpt><trkpt lat="44.6973" lon="7.8553183"><ele>293.0</ele><time>2026-04-12T15:23:37.455Z</time></trkpt><trkpt lat="44.6973933" lon="7.8552"><ele>293.0</ele><time>2026-04-12T15:23:39.455Z</time></trkpt><trkpt lat="44.6974767" lon="7.855095"><ele>293.0</ele><time>2026-04-12T15:23:41.455Z</time></trkpt><trkpt lat="44.6975317" lon="7.8550183"><ele>293.0</ele><time>2026-04-12T15:23:43.455Z</time></trkpt><trkpt lat="44.6975867" lon="7.85495"><ele>293.0</ele><time>2026-04-12T15:23:45.455Z</time></trkpt><trkpt lat="44.69764" lon="7.8548817"><ele>292.33333333333337</ele><time>2026-04-12T15:23:47.455Z</time></trkpt><trkpt lat="44.6976983" lon="7.8548267"><ele>291.6666666666667</ele><time>2026-04-12T15:23:49.455Z</time></trkpt><trkpt lat="44.6977583" lon="7.8547367"><ele>291.0</ele><time>2026-04-12T15:23:52.455Z</time></trkpt><trkpt lat="44.6978117" lon="7.8546417"><ele>290.3333333333333</ele><time>2026-04-12T15:23:56.455Z</time></trkpt><trkpt lat="44.6978183" lon="7.8545433"><ele>289.66666666666663</ele><time>2026-04-12T15:23:59.455Z</time></trkpt><trkpt lat="44.697775" lon="7.8544367"><ele>289.0</ele><time>2026-04-12T15:24:01.456Z</time></trkpt><trkpt lat="44.697715" lon="7.8543"><ele>289.59999999999997</ele><time>2026-04-12T15:24:03.456Z</time></trkpt><trkpt lat="44.6976567" lon="7.8541633"><ele>290.2</ele><time>2026-04-12T15:24:05.455Z</time></trkpt><trkpt lat="44.6976317" lon="7.8540733"><ele>290.79999999999995</ele><time>2026-04-12T15:24:06.455Z</time></trkpt><trkpt lat="44.69758" lon="7.85391"><ele>291.4</ele><time>2026-04-12T15:24:08.455Z</time></trkpt><trkpt lat="44.6975567" lon="7.8538083"><ele>292.0</ele><time>2026-04-12T15:24:09.455Z</time></trkpt><trkpt lat="44.69753" lon="7.8537083"><ele>292.0</ele><time>2026-04-12T15:24:10.455Z</time></trkpt><trkpt lat="44.6974933" lon="7.853625"><ele>292.0</ele><time>2026-04-12T15:24:11.456Z</time></trkpt><trkpt lat="44.6974583" lon="7.8535367"><ele>292.0</ele><time>2026-04-12T15:24:12.455Z</time></trkpt><trkpt lat="44.69743" lon="7.853455"><ele>292.0</ele><time>2026-04-12T15:24:13.455Z</time></trkpt><trkpt lat="44.6973883" lon="7.8533267"><ele>292.0</ele><time>2026-04-12T15:24:15.455Z</time></trkpt><trkpt lat="44.6973767" lon="7.8532217"><ele>292.0</ele><time>2026-04-12T15:24:19.455Z</time></trkpt><trkpt lat="44.6974633" lon="7.853135"><ele>291.6</ele><time>2026-04-12T15:24:22.455Z</time></trkpt><trkpt lat="44.6975683" lon="7.8530733"><ele>291.2</ele><time>2026-04-12T15:24:24.455Z</time></trkpt><trkpt lat="44.6976517" lon="7.8529683"><ele>290.8</ele><time>2026-04-12T15:24:26.455Z</time></trkpt><trkpt lat="44.6977533" lon="7.852915"><ele>290.4</ele><time>2026-04-12T15:24:28.455Z</time></trkpt><trkpt lat="44.6978483" lon="7.8528533"><ele>290.0</ele><time>2026-04-12T15:24:30.455Z</time></trkpt><trkpt lat="44.6979417" lon="7.8527433"><ele>289.83333333333337</ele><time>2026-04-12T15:24:32.455Z</time></trkpt><trkpt lat="44.6979867" lon="7.852665"><ele>289.6666666666667</ele><time>2026-04-12T15:24:33.455Z</time></trkpt><trkpt lat="44.698025" lon="7.8525833"><ele>289.5</ele><time>2026-04-12T15:24:34.455Z</time></trkpt><trkpt lat="44.6980783" lon="7.852465"><ele>289.3333333333333</ele><time>2026-04-12T15:24:36.455Z</time></trkpt><trkpt lat="44.698115" lon="7.85236"><ele>289.16666666666663</ele><time>2026-04-12T15:24:38.455Z</time></trkpt><trkpt lat="44.69816" lon="7.85226"><ele>289.0</ele><time>2026-04-12T15:24:40.455Z</time></trkpt><trkpt lat="44.6982083" lon="7.8521417"><ele>288.8</ele><time>2026-04-12T15:24:42.455Z</time></trkpt><trkpt lat="44.6982633" lon="7.8519883"><ele>288.59999999999997</ele><time>2026-04-12T15:24:44.455Z</time></trkpt><trkpt lat="44.6982917" lon="7.8519083"><ele>288.4</ele><time>2026-04-12T15:24:45.456Z</time></trkpt><trkpt lat="44.6983517" lon="7.851765"><ele>288.2</ele><time>2026-04-12T15:24:47.455Z</time></trkpt><trkpt lat="44.6984117" lon="7.8516183"><ele>288.0</ele><time>2026-04-12T15:24:49.455Z</time></trkpt><trkpt lat="44.6984717" lon="7.8514733"><ele>288.0</ele><time>2026-04-12T15:24:51.455Z</time></trkpt><trkpt lat="44.6985367" lon="7.8513283"><ele>288.0</ele><time>2026-04-12T15:24:53.455Z</time></trkpt><trkpt lat="44.698595" lon="7.85118"><ele>288.0</ele><time>2026-04-12T15:24:55.455Z</time></trkpt><trkpt lat="44.6986267" lon="7.8510083"><ele>288.0</ele><time>2026-04-12T15:24:57.455Z</time></trkpt><trkpt lat="44.69865" lon="7.8509233"><ele>288.0</ele><time>2026-04-12T15:24:58.455Z</time></trkpt><trkpt lat="44.6987017" lon="7.8507517"><ele>287.6666666666667</ele><time>2026-04-12T15:25:00.455Z</time></trkpt><trkpt lat="44.6987267" lon="7.8506683"><ele>287.3333333333333</ele><time>2026-04-12T15:25:01.455Z</time></trkpt><trkpt lat="44.6987633" lon="7.8505917"><ele>287.0</ele><time>2026-04-12T15:25:02.455Z</time></trkpt><trkpt lat="44.698835" lon="7.8504583"><ele>286.66666666666663</ele><time>2026-04-12T15:25:04.455Z</time></trkpt><trkpt lat="44.6989067" lon="7.8503283"><ele>286.3333333333333</ele><time>2026-04-12T15:25:06.455Z</time></trkpt><trkpt lat="44.6989533" lon="7.850245"><ele>286.0</ele><time>2026-04-12T15:25:08.455Z</time></trkpt><trkpt lat="44.6990083" lon="7.8501633"><ele>285.8</ele><time>2026-04-12T15:25:12.455Z</time></trkpt><trkpt lat="44.6990567" lon="7.850095"><ele>285.6</ele><time>2026-04-12T15:25:14.455Z</time></trkpt><trkpt lat="44.6991133" lon="7.8500017"><ele>285.4</ele><time>2026-04-12T15:25:16.455Z</time></trkpt><trkpt lat="44.69919" lon="7.8499117"><ele>285.2</ele><time>2026-04-12T15:25:18.455Z</time></trkpt><trkpt lat="44.6992667" lon="7.8498117"><ele>285.0</ele><time>2026-04-12T15:25:20.455Z</time></trkpt><trkpt lat="44.6993483" lon="7.84971"><ele>285.2</ele><time>2026-04-12T15:25:22.455Z</time></trkpt><trkpt lat="44.699435" lon="7.8496"><ele>285.4</ele><time>2026-04-12T15:25:24.455Z</time></trkpt><trkpt lat="44.6995117" lon="7.8494883"><ele>285.6</ele><time>2026-04-12T15:25:26.455Z</time></trkpt><trkpt lat="44.69959" lon="7.8493683"><ele>285.8</ele><time>2026-04-12T15:25:28.455Z</time></trkpt><trkpt lat="44.6996517" lon="7.8492467"><ele>286.0</ele><time>2026-04-12T15:25:30.455Z</time></trkpt><trkpt lat="44.6997317" lon="7.8491317"><ele>286.0</ele><time>2026-04-12T15:25:32.455Z</time></trkpt><trkpt lat="44.69982" lon="7.8490117"><ele>286.0</ele><time>2026-04-12T15:25:34.455Z</time></trkpt><trkpt lat="44.6999083" lon="7.8488967"><ele>286.0</ele><time>2026-04-12T15:25:36.455Z</time></trkpt><trkpt lat="44.69999" lon="7.8487833"><ele>286.0</ele><time>2026-04-12T15:25:38.455Z</time></trkpt><trkpt lat="44.7000683" lon="7.848685"><ele>286.0</ele><time>2026-04-12T15:25:40.455Z</time></trkpt><trkpt lat="44.7001483" lon="7.8486083"><ele>286.0</ele><time>2026-04-12T15:25:42.455Z</time></trkpt><trkpt lat="44.700235" lon="7.8485617"><ele>286.0</ele><time>2026-04-12T15:25:44.455Z</time></trkpt><trkpt lat="44.700335" lon="7.8485017"><ele>286.0</ele><time>2026-04-12T15:25:46.455Z</time></trkpt><trkpt lat="44.7003917" lon="7.848455"><ele>286.0</ele><time>2026-04-12T15:25:47.455Z</time></trkpt><trkpt lat="44.7004983" lon="7.8484"><ele>286.0</ele><time>2026-04-12T15:25:49.455Z</time></trkpt><trkpt lat="44.7006117" lon="7.8483417"><ele>286.0</ele><time>2026-04-12T15:25:51.455Z</time></trkpt><trkpt lat="44.7007261" lon="7.8482909"><ele>286.0</ele><time>2026-04-12T15:25:53.455Z</time></trkpt><trkpt lat="44.7008455" lon="7.8482363"><ele>286.0</ele><time>2026-04-12T15:25:55.455Z</time></trkpt><trkpt lat="44.7009079" lon="7.8482114"><ele>286.0</ele><time>2026-04-12T15:25:56.455Z</time></trkpt><trkpt lat="44.7010253" lon="7.8481641"><ele>287.0</ele><time>2026-04-12T15:25:58.455Z</time></trkpt><trkpt lat="44.7011324" lon="7.8481121"><ele>288.0</ele><time>2026-04-12T15:26:00.455Z</time></trkpt><trkpt lat="44.7012325" lon="7.8480626"><ele>289.0</ele><time>2026-04-12T15:26:02.455Z</time></trkpt><trkpt lat="44.7013166" lon="7.8480275"><ele>290.0</ele><time>2026-04-12T15:26:04.455Z</time></trkpt><trkpt lat="44.7014096" lon="7.8479729"><ele>291.0</ele><time>2026-04-12T15:26:06.455Z</time></trkpt><trkpt lat="44.7014936" lon="7.8479047"><ele>291.0</ele><time>2026-04-12T15:26:08.455Z</time></trkpt><trkpt lat="44.7015858" lon="7.8478249"><ele>291.0</ele><time>2026-04-12T15:26:10.455Z</time></trkpt><trkpt lat="44.701667" lon="7.8477555"><ele>291.0</ele><time>2026-04-12T15:26:12.455Z</time></trkpt><trkpt lat="44.7017395" lon="7.8476903"><ele>291.0</ele><time>2026-04-12T15:26:14.455Z</time></trkpt><trkpt lat="44.7018167" lon="7.8476117"><ele>291.0</ele><time>2026-04-12T15:26:16.455Z</time></trkpt><trkpt lat="44.7018879" lon="7.8475312"><ele>291.0</ele><time>2026-04-12T15:26:18.455Z</time></trkpt><trkpt lat="44.7019618" lon="7.8474518"><ele>291.0</ele><time>2026-04-12T15:26:20.455Z</time></trkpt><trkpt lat="44.7020341" lon="7.8473895"><ele>291.0</ele><time>2026-04-12T15:26:22.455Z</time></trkpt><trkpt lat="44.7020957" lon="7.8473382"><ele>291.0</ele><time>2026-04-12T15:26:24.455Z</time></trkpt><trkpt lat="44.7021533" lon="7.8472967"><ele>291.0</ele><time>2026-04-12T15:26:26.455Z</time></trkpt><trkpt lat="44.70223" lon="7.8472483"><ele>291.0</ele><time>2026-04-12T15:26:29.455Z</time></trkpt><trkpt lat="44.70229" lon="7.8472033"><ele>291.0</ele><time>2026-04-12T15:26:32.455Z</time></trkpt><trkpt lat="44.7023883" lon="7.8470717"><ele>291.0</ele><time>2026-04-12T15:26:45.455Z</time></trkpt><trkpt lat="44.7024633" lon="7.847015"><ele>291.0</ele><time>2026-04-12T15:26:48.455Z</time></trkpt><trkpt lat="44.7025383" lon="7.8469383"><ele>291.0</ele><time>2026-04-12T15:26:50.455Z</time></trkpt><trkpt lat="44.702635" lon="7.846835"><ele>291.0</ele><time>2026-04-12T15:26:52.455Z</time></trkpt><trkpt lat="44.7026917" lon="7.8467733"><ele>290.8333333333333</ele><time>2026-04-12T15:26:53.455Z</time></trkpt><trkpt lat="44.70275" lon="7.84671"><ele>290.6666666666667</ele><time>2026-04-12T15:26:54.455Z</time></trkpt><trkpt lat="44.70281" lon="7.8466467"><ele>290.5</ele><time>2026-04-12T15:26:55.455Z</time></trkpt><trkpt lat="44.7028733" lon="7.8465917"><ele>290.33333333333337</ele><time>2026-04-12T15:26:56.455Z</time></trkpt><trkpt lat="44.7029383" lon="7.8465317"><ele>290.1666666666667</ele><time>2026-04-12T15:26:57.455Z</time></trkpt><trkpt lat="44.7030083" lon="7.84647"><ele>290.0</ele><time>2026-04-12T15:26:58.455Z</time></trkpt><trkpt lat="44.7030767" lon="7.8464017"><ele>290.0</ele><time>2026-04-12T15:26:59.455Z</time></trkpt><trkpt lat="44.7031417" lon="7.8463433"><ele>290.0</ele><time>2026-04-12T15:27:00.455Z</time></trkpt><trkpt lat="44.7032033" lon="7.8462883"><ele>290.0</ele><time>2026-04-12T15:27:01.455Z</time></trkpt><trkpt lat="44.7032567" lon="7.8462333"><ele>290.0</ele><time>2026-04-12T15:27:02.455Z</time></trkpt><trkpt lat="44.7033133" lon="7.8461833"><ele>290.0</ele><time>2026-04-12T15:27:03.455Z</time></trkpt><trkpt lat="44.703365" lon="7.8461317"><ele>290.0</ele><time>2026-04-12T15:27:04.456Z</time></trkpt><trkpt lat="44.7034167" lon="7.8460733"><ele>290.0</ele><time>2026-04-12T15:27:05.456Z</time></trkpt><trkpt lat="44.7035167" lon="7.8459783"><ele>289.8</ele><time>2026-04-12T15:27:07.455Z</time></trkpt><trkpt lat="44.7035983" lon="7.8458883"><ele>289.6</ele><time>2026-04-12T15:27:09.455Z</time></trkpt><trkpt lat="44.7036917" lon="7.84581"><ele>289.4</ele><time>2026-04-12T15:27:11.455Z</time></trkpt><trkpt lat="44.7037883" lon="7.8457233"><ele>289.2</ele><time>2026-04-12T15:27:13.455Z</time></trkpt><trkpt lat="44.7038417" lon="7.84567"><ele>289.0</ele><time>2026-04-12T15:27:14.455Z</time></trkpt><trkpt lat="44.7039" lon="7.845615"><ele>289.0</ele><time>2026-04-12T15:27:15.455Z</time></trkpt><trkpt lat="44.703955" lon="7.845555"><ele>289.0</ele><time>2026-04-12T15:27:16.455Z</time></trkpt><trkpt lat="44.704015" lon="7.8454983"><ele>289.0</ele><time>2026-04-12T15:27:17.455Z</time></trkpt><trkpt lat="44.7040667" lon="7.8454417"><ele>289.0</ele><time>2026-04-12T15:27:18.455Z</time></trkpt><trkpt lat="44.7041167" lon="7.845385"><ele>289.0</ele><time>2026-04-12T15:27:19.455Z</time></trkpt><trkpt lat="44.7041683" lon="7.8453283"><ele>289.0</ele><time>2026-04-12T15:27:20.455Z</time></trkpt><trkpt lat="44.7042183" lon="7.8452717"><ele>289.0</ele><time>2026-04-12T15:27:21.455Z</time></trkpt><trkpt lat="44.70427" lon="7.845215"><ele>288.8333333333333</ele><time>2026-04-12T15:27:22.455Z</time></trkpt><trkpt lat="44.7043683" lon="7.84511"><ele>288.66666666666663</ele><time>2026-04-12T15:27:24.455Z</time></trkpt><trkpt lat="44.70442" lon="7.845055"><ele>288.5</ele><time>2026-04-12T15:27:25.455Z</time></trkpt><trkpt lat="44.7045217" lon="7.844965"><ele>288.3333333333333</ele><time>2026-04-12T15:27:27.455Z</time></trkpt><trkpt lat="44.7045783" lon="7.8449217"><ele>288.1666666666667</ele><time>2026-04-12T15:27:28.455Z</time></trkpt><trkpt lat="44.7046367" lon="7.8448717"><ele>288.0</ele><time>2026-04-12T15:27:29.455Z</time></trkpt><trkpt lat="44.7047367" lon="7.8447717"><ele>288.3333333333333</ele><time>2026-04-12T15:27:31.456Z</time></trkpt><trkpt lat="44.7048333" lon="7.8446733"><ele>288.6666666666667</ele><time>2026-04-12T15:27:33.456Z</time></trkpt><trkpt lat="44.704885" lon="7.84462"><ele>289.0</ele><time>2026-04-12T15:27:34.455Z</time></trkpt><trkpt lat="44.7049383" lon="7.8445717"><ele>289.33333333333337</ele><time>2026-04-12T15:27:35.455Z</time></trkpt><trkpt lat="44.7049917" lon="7.8445217"><ele>289.6666666666667</ele><time>2026-04-12T15:27:36.455Z</time></trkpt><trkpt lat="44.7051" lon="7.8444267"><ele>290.0</ele><time>2026-04-12T15:27:38.455Z</time></trkpt><trkpt lat="44.7051583" lon="7.8443767"><ele>290.0</ele><time>2026-04-12T15:27:39.455Z</time></trkpt><trkpt lat="44.7052183" lon="7.84432"><ele>290.0</ele><time>2026-04-12T15:27:40.455Z</time></trkpt><trkpt lat="44.7052767" lon="7.84426"><ele>290.0</ele><time>2026-04-12T15:27:41.455Z</time></trkpt><trkpt lat="44.7053333" lon="7.8442033"><ele>290.0</ele><time>2026-04-12T15:27:42.455Z</time></trkpt><trkpt lat="44.7053917" lon="7.844145"><ele>290.0</ele><time>2026-04-12T15:27:43.455Z</time></trkpt><trkpt lat="44.7054517" lon="7.8440917"><ele>290.0</ele><time>2026-04-12T15:27:44.455Z</time></trkpt><trkpt lat="44.705525" lon="7.844045"><ele>290.0</ele><time>2026-04-12T15:27:45.456Z</time></trkpt><trkpt lat="44.7055833" lon="7.843985"><ele>289.7142857142857</ele><time>2026-04-12T15:27:46.455Z</time></trkpt><trkpt lat="44.70564" lon="7.8439233"><ele>289.42857142857144</ele><time>2026-04-12T15:27:47.455Z</time></trkpt><trkpt lat="44.7056983" lon="7.8438617"><ele>289.14285714285717</ele><time>2026-04-12T15:27:48.455Z</time></trkpt><trkpt lat="44.705755" lon="7.843805"><ele>288.8571428571429</ele><time>2026-04-12T15:27:49.455Z</time></trkpt><trkpt lat="44.7058117" lon="7.8437517"><ele>288.57142857142856</ele><time>2026-04-12T15:27:50.455Z</time></trkpt><trkpt lat="44.70587" lon="7.8437"><ele>288.28571428571433</ele><time>2026-04-12T15:27:51.455Z</time></trkpt><trkpt lat="44.70593" lon="7.843645"><ele>288.0</ele><time>2026-04-12T15:27:52.455Z</time></trkpt><trkpt lat="44.7059883" lon="7.8435883"><ele>288.0</ele><time>2026-04-12T15:27:53.456Z</time></trkpt><trkpt lat="44.7060483" lon="7.84353"><ele>288.0</ele><time>2026-04-12T15:27:54.455Z</time></trkpt><trkpt lat="44.70611" lon="7.8434717"><ele>288.0</ele><time>2026-04-12T15:27:55.455Z</time></trkpt><trkpt lat="44.7061733" lon="7.8434133"><ele>288.0</ele><time>2026-04-12T15:27:56.455Z</time></trkpt><trkpt lat="44.7062367" lon="7.843355"><ele>288.0</ele><time>2026-04-12T15:27:57.455Z</time></trkpt><trkpt lat="44.7062983" lon="7.843295"><ele>288.0</ele><time>2026-04-12T15:27:58.455Z</time></trkpt><trkpt lat="44.7063633" lon="7.8432383"><ele>288.1666666666667</ele><time>2026-04-12T15:27:59.455Z</time></trkpt><trkpt lat="44.706425" lon="7.843185"><ele>288.3333333333333</ele><time>2026-04-12T15:28:00.455Z</time></trkpt><trkpt lat="44.7064883" lon="7.843125"><ele>288.5</ele><time>2026-04-12T15:28:01.455Z</time></trkpt><trkpt lat="44.7065533" lon="7.8430733"><ele>288.66666666666663</ele><time>2026-04-12T15:28:02.455Z</time></trkpt><trkpt lat="44.7066167" lon="7.8430183"><ele>288.8333333333333</ele><time>2026-04-12T15:28:03.455Z</time></trkpt><trkpt lat="44.706685" lon="7.8429617"><ele>289.0</ele><time>2026-04-12T15:28:04.455Z</time></trkpt><trkpt lat="44.7067483" lon="7.8429"><ele>289.0</ele><time>2026-04-12T15:28:05.455Z</time></trkpt><trkpt lat="44.7068083" lon="7.84284"><ele>289.0</ele><time>2026-04-12T15:28:06.455Z</time></trkpt><trkpt lat="44.70687" lon="7.8427733"><ele>289.0</ele><time>2026-04-12T15:28:07.455Z</time></trkpt><trkpt lat="44.7069333" lon="7.842715"><ele>289.0</ele><time>2026-04-12T15:28:08.455Z</time></trkpt><trkpt lat="44.7069967" lon="7.842655"><ele>289.0</ele><time>2026-04-12T15:28:09.455Z</time></trkpt><trkpt lat="44.70706" lon="7.8425983"><ele>289.0</ele><time>2026-04-12T15:28:10.455Z</time></trkpt><trkpt lat="44.7071217" lon="7.8425333"><ele>288.8333333333333</ele><time>2026-04-12T15:28:11.455Z</time></trkpt><trkpt lat="44.7071817" lon="7.842475"><ele>288.66666666666663</ele><time>2026-04-12T15:28:12.455Z</time></trkpt><trkpt lat="44.70725" lon="7.8424133"><ele>288.5</ele><time>2026-04-12T15:28:13.455Z</time></trkpt><trkpt lat="44.7073133" lon="7.842355"><ele>288.3333333333333</ele><time>2026-04-12T15:28:14.455Z</time></trkpt><trkpt lat="44.7073783" lon="7.8422883"><ele>288.1666666666667</ele><time>2026-04-12T15:28:15.455Z</time></trkpt><trkpt lat="44.7074483" lon="7.8422233"><ele>288.0</ele><time>2026-04-12T15:28:16.455Z</time></trkpt><trkpt lat="44.7075183" lon="7.8421583"><ele>288.0</ele><time>2026-04-12T15:28:17.455Z</time></trkpt><trkpt lat="44.7075867" lon="7.8420983"><ele>288.0</ele><time>2026-04-12T15:28:18.455Z</time></trkpt><trkpt lat="44.7076533" lon="7.84203"><ele>288.0</ele><time>2026-04-12T15:28:19.455Z</time></trkpt><trkpt lat="44.7077267" lon="7.8419683"><ele>288.0</ele><time>2026-04-12T15:28:20.455Z</time></trkpt><trkpt lat="44.7077867" lon="7.8419017"><ele>288.0</ele><time>2026-04-12T15:28:21.455Z</time></trkpt><trkpt lat="44.707845" lon="7.8418317"><ele>288.0</ele><time>2026-04-12T15:28:22.455Z</time></trkpt><trkpt lat="44.707905" lon="7.8417733"><ele>288.2</ele><time>2026-04-12T15:28:23.455Z</time></trkpt><trkpt lat="44.7079667" lon="7.8417133"><ele>288.4</ele><time>2026-04-12T15:28:24.455Z</time></trkpt><trkpt lat="44.7080283" lon="7.8416583"><ele>288.59999999999997</ele><time>2026-04-12T15:28:25.455Z</time></trkpt><trkpt lat="44.7081267" lon="7.841565"><ele>288.8</ele><time>2026-04-12T15:28:27.455Z</time></trkpt><trkpt lat="44.708215" lon="7.8414783"><ele>289.0</ele><time>2026-04-12T15:28:29.455Z</time></trkpt><trkpt lat="44.7083067" lon="7.8413917"><ele>289.0</ele><time>2026-04-12T15:28:31.455Z</time></trkpt><trkpt lat="44.708385" lon="7.8413067"><ele>289.0</ele><time>2026-04-12T15:28:33.455Z</time></trkpt><trkpt lat="44.7084567" lon="7.84123"><ele>289.0</ele><time>2026-04-12T15:28:35.455Z</time></trkpt><trkpt lat="44.7085233" lon="7.84116"><ele>289.0</ele><time>2026-04-12T15:28:37.455Z</time></trkpt><trkpt lat="44.7085767" lon="7.84108"><ele>289.0</ele><time>2026-04-12T15:28:39.455Z</time></trkpt><trkpt lat="44.70863" lon="7.8409933"><ele>289.0</ele><time>2026-04-12T15:28:41.455Z</time></trkpt><trkpt lat="44.7086467" lon="7.8408883"><ele>288.66666666666663</ele><time>2026-04-12T15:28:43.455Z</time></trkpt><trkpt lat="44.7086183" lon="7.84078"><ele>288.3333333333333</ele><time>2026-04-12T15:28:45.455Z</time></trkpt><trkpt lat="44.7085767" lon="7.84065"><ele>288.0</ele><time>2026-04-12T15:28:47.455Z</time></trkpt><trkpt lat="44.708515" lon="7.8405033"><ele>287.6666666666667</ele><time>2026-04-12T15:28:49.455Z</time></trkpt><trkpt lat="44.7084867" lon="7.8404217"><ele>287.33333333333337</ele><time>2026-04-12T15:28:50.455Z</time></trkpt><trkpt lat="44.708455" lon="7.8403267"><ele>287.0</ele><time>2026-04-12T15:28:51.455Z</time></trkpt><trkpt lat="44.708425" lon="7.8402367"><ele>286.83333333333337</ele><time>2026-04-12T15:28:52.455Z</time></trkpt><trkpt lat="44.7083917" lon="7.8401483"><ele>286.6666666666667</ele><time>2026-04-12T15:28:53.455Z</time></trkpt><trkpt lat="44.708365" lon="7.840065"><ele>286.5</ele><time>2026-04-12T15:28:54.455Z</time></trkpt><trkpt lat="44.7083267" lon="7.8399917"><ele>286.3333333333333</ele><time>2026-04-12T15:28:55.455Z</time></trkpt><trkpt lat="44.7082933" lon="7.83991"><ele>286.16666666666663</ele><time>2026-04-12T15:28:56.455Z</time></trkpt><trkpt lat="44.7082683" lon="7.8398283"><ele>286.0</ele><time>2026-04-12T15:28:57.455Z</time></trkpt><trkpt lat="44.7082067" lon="7.83967"><ele>285.99999999999994</ele><time>2026-04-12T15:28:59.455Z</time></trkpt><trkpt lat="44.70818" lon="7.8395883"><ele>286.0</ele><time>2026-04-12T15:29:00.455Z</time></trkpt><trkpt lat="44.7081517" lon="7.8395017"><ele>286.0</ele><time>2026-04-12T15:29:01.455Z</time></trkpt><trkpt lat="44.7081267" lon="7.8394117"><ele>286.0</ele><time>2026-04-12T15:29:02.455Z</time></trkpt><trkpt lat="44.7081" lon="7.8393233"><ele>286.0</ele><time>2026-04-12T15:29:03.455Z</time></trkpt><trkpt lat="44.7080717" lon="7.8392367"><ele>285.99999999999994</ele><time>2026-04-12T15:29:04.455Z</time></trkpt><trkpt lat="44.7080467" lon="7.83915"><ele>286.0</ele><time>2026-04-12T15:29:05.455Z</time></trkpt><trkpt lat="44.70802" lon="7.8390667"><ele>285.8333333333333</ele><time>2026-04-12T15:29:06.455Z</time></trkpt><trkpt lat="44.7079967" lon="7.8389767"><ele>285.66666666666663</ele><time>2026-04-12T15:29:07.455Z</time></trkpt><trkpt lat="44.7079467" lon="7.8388217"><ele>285.5</ele><time>2026-04-12T15:29:09.455Z</time></trkpt><trkpt lat="44.7079133" lon="7.8387367"><ele>285.3333333333333</ele><time>2026-04-12T15:29:10.455Z</time></trkpt><trkpt lat="44.7078783" lon="7.8386417"><ele>285.1666666666667</ele><time>2026-04-12T15:29:11.455Z</time></trkpt><trkpt lat="44.7078467" lon="7.838545"><ele>285.0</ele><time>2026-04-12T15:29:12.455Z</time></trkpt><trkpt lat="44.7078133" lon="7.83843"><ele>284.8</ele><time>2026-04-12T15:29:13.455Z</time></trkpt><trkpt lat="44.7077733" lon="7.838315"><ele>284.6</ele><time>2026-04-12T15:29:14.455Z</time></trkpt><trkpt lat="44.70773" lon="7.8382"><ele>284.4</ele><time>2026-04-12T15:29:15.455Z</time></trkpt><trkpt lat="44.7076917" lon="7.8380767"><ele>284.2</ele><time>2026-04-12T15:29:16.455Z</time></trkpt><trkpt lat="44.7076533" lon="7.8379517"><ele>284.0</ele><time>2026-04-12T15:29:17.455Z</time></trkpt><trkpt lat="44.707615" lon="7.83783"><ele>284.0</ele><time>2026-04-12T15:29:18.455Z</time></trkpt><trkpt lat="44.7075767" lon="7.837705"><ele>284.0</ele><time>2026-04-12T15:29:19.455Z</time></trkpt><trkpt lat="44.7075467" lon="7.8375817"><ele>284.0</ele><time>2026-04-12T15:29:20.455Z</time></trkpt><trkpt lat="44.70751" lon="7.8374667"><ele>284.0</ele><time>2026-04-12T15:29:21.455Z</time></trkpt><trkpt lat="44.70747" lon="7.8373467"><ele>284.0</ele><time>2026-04-12T15:29:22.455Z</time></trkpt><trkpt lat="44.707435" lon="7.8372417"><ele>283.6666666666667</ele><time>2026-04-12T15:29:23.455Z</time></trkpt><trkpt lat="44.7074033" lon="7.8371383"><ele>283.33333333333337</ele><time>2026-04-12T15:29:24.455Z</time></trkpt><trkpt lat="44.70737" lon="7.83703"><ele>283.0</ele><time>2026-04-12T15:29:25.455Z</time></trkpt><trkpt lat="44.70734" lon="7.8369283"><ele>282.6666666666667</ele><time>2026-04-12T15:29:26.455Z</time></trkpt><trkpt lat="44.7073067" lon="7.8368217"><ele>282.3333333333333</ele><time>2026-04-12T15:29:27.455Z</time></trkpt><trkpt lat="44.70728" lon="7.8367283"><ele>282.0</ele><time>2026-04-12T15:29:28.455Z</time></trkpt><trkpt lat="44.7072433" lon="7.8366283"><ele>281.8333333333333</ele><time>2026-04-12T15:29:29.455Z</time></trkpt><trkpt lat="44.7072033" lon="7.83652"><ele>281.6666666666667</ele><time>2026-04-12T15:29:30.455Z</time></trkpt><trkpt lat="44.7071667" lon="7.8364217"><ele>281.5</ele><time>2026-04-12T15:29:31.455Z</time></trkpt><trkpt lat="44.7071383" lon="7.8363183"><ele>281.33333333333337</ele><time>2026-04-12T15:29:32.456Z</time></trkpt><trkpt lat="44.7071117" lon="7.83622"><ele>281.1666666666667</ele><time>2026-04-12T15:29:33.455Z</time></trkpt><trkpt lat="44.7070817" lon="7.8361217"><ele>281.0</ele><time>2026-04-12T15:29:34.455Z</time></trkpt><trkpt lat="44.707055" lon="7.83602"><ele>280.83333333333337</ele><time>2026-04-12T15:29:35.455Z</time></trkpt><trkpt lat="44.70703" lon="7.8359133"><ele>280.6666666666667</ele><time>2026-04-12T15:29:36.455Z</time></trkpt><trkpt lat="44.7070067" lon="7.8358067"><ele>280.5</ele><time>2026-04-12T15:29:37.455Z</time></trkpt><trkpt lat="44.70698" lon="7.8357083"><ele>280.3333333333333</ele><time>2026-04-12T15:29:38.455Z</time></trkpt><trkpt lat="44.7069467" lon="7.8356033"><ele>280.16666666666663</ele><time>2026-04-12T15:29:39.455Z</time></trkpt><trkpt lat="44.70692" lon="7.8354883"><ele>280.0</ele><time>2026-04-12T15:29:40.455Z</time></trkpt><trkpt lat="44.70689" lon="7.8353817"><ele>280.0</ele><time>2026-04-12T15:29:41.455Z</time></trkpt><trkpt lat="44.70686" lon="7.83527"><ele>280.0</ele><time>2026-04-12T15:29:42.455Z</time></trkpt><trkpt lat="44.706825" lon="7.8351517"><ele>280.0</ele><time>2026-04-12T15:29:43.455Z</time></trkpt><trkpt lat="44.7068" lon="7.8350433"><ele>280.0</ele><time>2026-04-12T15:29:44.455Z</time></trkpt><trkpt lat="44.70678" lon="7.834925"><ele>280.0</ele><time>2026-04-12T15:29:45.455Z</time></trkpt><trkpt lat="44.706765" lon="7.8348033"><ele>280.0</ele><time>2026-04-12T15:29:46.456Z</time></trkpt><trkpt lat="44.7067567" lon="7.834695"><ele>280.0</ele><time>2026-04-12T15:29:47.456Z</time></trkpt><trkpt lat="44.706745" lon="7.8345783"><ele>280.0</ele><time>2026-04-12T15:29:48.455Z</time></trkpt><trkpt lat="44.7067433" lon="7.8344683"><ele>280.0</ele><time>2026-04-12T15:29:49.455Z</time></trkpt><trkpt lat="44.706745" lon="7.834355"><ele>280.0</ele><time>2026-04-12T15:29:50.455Z</time></trkpt><trkpt lat="44.7067517" lon="7.8342417"><ele>280.0</ele><time>2026-04-12T15:29:51.455Z</time></trkpt><trkpt lat="44.7067633" lon="7.8341267"><ele>280.0</ele><time>2026-04-12T15:29:52.455Z</time></trkpt><trkpt lat="44.70678" lon="7.834025"><ele>279.8333333333333</ele><time>2026-04-12T15:29:53.455Z</time></trkpt><trkpt lat="44.706795" lon="7.8339167"><ele>279.66666666666663</ele><time>2026-04-12T15:29:54.455Z</time></trkpt><trkpt lat="44.706815" lon="7.8338167"><ele>279.5</ele><time>2026-04-12T15:29:55.455Z</time></trkpt><trkpt lat="44.7068417" lon="7.8337117"><ele>279.3333333333333</ele><time>2026-04-12T15:29:56.455Z</time></trkpt><trkpt lat="44.706865" lon="7.83361"><ele>279.1666666666667</ele><time>2026-04-12T15:29:57.455Z</time></trkpt><trkpt lat="44.7068917" lon="7.83351"><ele>279.0</ele><time>2026-04-12T15:29:58.455Z</time></trkpt><trkpt lat="44.706915" lon="7.8334083"><ele>278.6666666666667</ele><time>2026-04-12T15:29:59.455Z</time></trkpt><trkpt lat="44.7069333" lon="7.8332967"><ele>278.3333333333333</ele><time>2026-04-12T15:30:00.455Z</time></trkpt><trkpt lat="44.7069567" lon="7.833185"><ele>278.0</ele><time>2026-04-12T15:30:01.455Z</time></trkpt><trkpt lat="44.7069833" lon="7.833075"><ele>277.66666666666663</ele><time>2026-04-12T15:30:02.455Z</time></trkpt><trkpt lat="44.7070067" lon="7.8329683"><ele>277.3333333333333</ele><time>2026-04-12T15:30:03.455Z</time></trkpt><trkpt lat="44.7070317" lon="7.8328583"><ele>277.0</ele><time>2026-04-12T15:30:04.455Z</time></trkpt><trkpt lat="44.7070533" lon="7.8327483"><ele>277.0</ele><time>2026-04-12T15:30:05.455Z</time></trkpt><trkpt lat="44.707075" lon="7.8326467"><ele>277.0</ele><time>2026-04-12T15:30:06.455Z</time></trkpt><trkpt lat="44.7070983" lon="7.8325533"><ele>277.0</ele><time>2026-04-12T15:30:07.455Z</time></trkpt><trkpt lat="44.70712" lon="7.8324533"><ele>277.0</ele><time>2026-04-12T15:30:08.455Z</time></trkpt><trkpt lat="44.7071417" lon="7.83235"><ele>277.0</ele><time>2026-04-12T15:30:09.455Z</time></trkpt><trkpt lat="44.7071667" lon="7.8322533"><ele>277.0</ele><time>2026-04-12T15:30:10.455Z</time></trkpt><trkpt lat="44.70719" lon="7.83216"><ele>277.0</ele><time>2026-04-12T15:30:11.455Z</time></trkpt><trkpt lat="44.7072133" lon="7.8320717"><ele>276.8</ele><time>2026-04-12T15:30:12.455Z</time></trkpt><trkpt lat="44.7072333" lon="7.8319867"><ele>276.6</ele><time>2026-04-12T15:30:13.455Z</time></trkpt><trkpt lat="44.70727" lon="7.8318317"><ele>276.40000000000003</ele><time>2026-04-12T15:30:15.455Z</time></trkpt><trkpt lat="44.7073533" lon="7.8317333"><ele>276.2</ele><time>2026-04-12T15:30:17.455Z</time></trkpt><trkpt lat="44.70747" lon="7.8316567"><ele>276.0</ele><time>2026-04-12T15:30:19.455Z</time></trkpt><trkpt lat="44.707535" lon="7.8316183"><ele>276.40000000000003</ele><time>2026-04-12T15:30:20.455Z</time></trkpt><trkpt lat="44.707655" lon="7.8315717"><ele>276.8</ele><time>2026-04-12T15:30:22.455Z</time></trkpt><trkpt lat="44.7077183" lon="7.83158"><ele>277.20000000000005</ele><time>2026-04-12T15:30:23.455Z</time></trkpt><trkpt lat="44.7077783" lon="7.831615"><ele>277.6</ele><time>2026-04-12T15:30:24.455Z</time></trkpt><trkpt lat="44.7078867" lon="7.83173"><ele>278.0</ele><time>2026-04-12T15:30:26.455Z</time></trkpt><trkpt lat="44.707945" lon="7.8317883"><ele>278.4</ele><time>2026-04-12T15:30:27.455Z</time></trkpt><trkpt lat="44.708005" lon="7.8318483"><ele>278.8</ele><time>2026-04-12T15:30:28.455Z</time></trkpt><trkpt lat="44.7080633" lon="7.8318983"><ele>279.2</ele><time>2026-04-12T15:30:29.455Z</time></trkpt><trkpt lat="44.7081767" lon="7.83195"><ele>279.6</ele><time>2026-04-12T15:30:31.455Z</time></trkpt><trkpt lat="44.7082883" lon="7.8319967"><ele>280.0</ele><time>2026-04-12T15:30:33.455Z</time></trkpt><trkpt lat="44.708395" lon="7.832095"><ele>280.0</ele><time>2026-04-12T15:30:35.455Z</time></trkpt><trkpt lat="44.7084533" lon="7.8321483"><ele>280.0</ele><time>2026-04-12T15:30:36.455Z</time></trkpt><trkpt lat="44.7085117" lon="7.832205"><ele>280.0</ele><time>2026-04-12T15:30:37.455Z</time></trkpt><trkpt lat="44.7085717" lon="7.832235"><ele>280.0</ele><time>2026-04-12T15:30:38.455Z</time></trkpt><trkpt lat="44.70867" lon="7.8323033"><ele>280.0</ele><time>2026-04-12T15:30:40.455Z</time></trkpt><trkpt lat="44.7087583" lon="7.8323867"><ele>280.0</ele><time>2026-04-12T15:30:42.455Z</time></trkpt><trkpt lat="44.70881" lon="7.8324383"><ele>280.5</ele><time>2026-04-12T15:30:43.456Z</time></trkpt><trkpt lat="44.7089217" lon="7.8325033"><ele>281.0</ele><time>2026-04-12T15:30:45.456Z</time></trkpt><trkpt lat="44.709015" lon="7.832585"><ele>281.5</ele><time>2026-04-12T15:30:47.455Z</time></trkpt><trkpt lat="44.7091267" lon="7.8326533"><ele>282.0</ele><time>2026-04-12T15:30:49.455Z</time></trkpt><trkpt lat="44.7092417" lon="7.832715"><ele>282.4</ele><time>2026-04-12T15:30:51.455Z</time></trkpt><trkpt lat="44.70935" lon="7.8327567"><ele>282.79999999999995</ele><time>2026-04-12T15:30:53.455Z</time></trkpt><trkpt lat="44.7094617" lon="7.8327867"><ele>283.2</ele><time>2026-04-12T15:30:55.455Z</time></trkpt><trkpt lat="44.7095217" lon="7.832815"><ele>283.59999999999997</ele><time>2026-04-12T15:30:56.455Z</time></trkpt><trkpt lat="44.709625" lon="7.8328783"><ele>284.0</ele><time>2026-04-12T15:30:58.455Z</time></trkpt><trkpt lat="44.709715" lon="7.832935"><ele>283.33333333333337</ele><time>2026-04-12T15:31:00.455Z</time></trkpt><trkpt lat="44.709795" lon="7.83299"><ele>282.6666666666667</ele><time>2026-04-12T15:31:02.455Z</time></trkpt><trkpt lat="44.7098733" lon="7.8330483"><ele>282.0</ele><time>2026-04-12T15:31:04.455Z</time></trkpt><trkpt lat="44.70994" lon="7.833075"><ele>281.3333333333333</ele><time>2026-04-12T15:31:06.455Z</time></trkpt><trkpt lat="44.71001" lon="7.83306"><ele>280.66666666666663</ele><time>2026-04-12T15:31:09.455Z</time></trkpt><trkpt lat="44.7100733" lon="7.83307"><ele>280.0</ele><time>2026-04-12T15:31:11.455Z</time></trkpt><trkpt lat="44.7101417" lon="7.8330733"><ele>280.0</ele><time>2026-04-12T15:31:13.455Z</time></trkpt><trkpt lat="44.7102083" lon="7.8330767"><ele>280.0</ele><time>2026-04-12T15:31:15.455Z</time></trkpt><trkpt lat="44.7102667" lon="7.833115"><ele>280.0</ele><time>2026-04-12T15:31:17.455Z</time></trkpt><trkpt lat="44.71034" lon="7.8331083"><ele>280.0</ele><time>2026-04-12T15:31:19.455Z</time></trkpt><trkpt lat="44.71042" lon="7.8330433"><ele>280.0</ele><time>2026-04-12T15:31:21.455Z</time></trkpt><trkpt lat="44.7104917" lon="7.8329533"><ele>280.0</ele><time>2026-04-12T15:31:23.455Z</time></trkpt><trkpt lat="44.7105717" lon="7.832865"><ele>279.8333333333333</ele><time>2026-04-12T15:31:25.455Z</time></trkpt><trkpt lat="44.7106633" lon="7.83276"><ele>279.66666666666663</ele><time>2026-04-12T15:31:27.455Z</time></trkpt><trkpt lat="44.7107167" lon="7.8327033"><ele>279.5</ele><time>2026-04-12T15:31:28.455Z</time></trkpt><trkpt lat="44.7107817" lon="7.8326433"><ele>279.3333333333333</ele><time>2026-04-12T15:31:29.455Z</time></trkpt><trkpt lat="44.7108383" lon="7.8325817"><ele>279.1666666666667</ele><time>2026-04-12T15:31:30.455Z</time></trkpt><trkpt lat="44.710895" lon="7.8325183"><ele>279.0</ele><time>2026-04-12T15:31:31.455Z</time></trkpt><trkpt lat="44.7109517" lon="7.8324567"><ele>278.99999999999994</ele><time>2026-04-12T15:31:32.455Z</time></trkpt><trkpt lat="44.7110083" lon="7.832405"><ele>279.0</ele><time>2026-04-12T15:31:33.455Z</time></trkpt><trkpt lat="44.7110633" lon="7.832355"><ele>279.0</ele><time>2026-04-12T15:31:34.455Z</time></trkpt><trkpt lat="44.7111217" lon="7.8323033"><ele>279.0</ele><time>2026-04-12T15:31:35.455Z</time></trkpt><trkpt lat="44.71118" lon="7.8322533"><ele>279.0</ele><time>2026-04-12T15:31:36.455Z</time></trkpt><trkpt lat="44.711235" lon="7.8321917"><ele>278.99999999999994</ele><time>2026-04-12T15:31:37.455Z</time></trkpt><trkpt lat="44.7112933" lon="7.832125"><ele>279.0</ele><time>2026-04-12T15:31:38.456Z</time></trkpt><trkpt lat="44.71135" lon="7.8320633"><ele>278.99999999999994</ele><time>2026-04-12T15:31:39.455Z</time></trkpt><trkpt lat="44.711405" lon="7.8320067"><ele>279.0</ele><time>2026-04-12T15:31:40.455Z</time></trkpt><trkpt lat="44.71146" lon="7.8319483"><ele>279.0</ele><time>2026-04-12T15:31:41.455Z</time></trkpt><trkpt lat="44.7115167" lon="7.831895"><ele>279.0</ele><time>2026-04-12T15:31:42.455Z</time></trkpt><trkpt lat="44.7115783" lon="7.8318383"><ele>279.0</ele><time>2026-04-12T15:31:43.455Z</time></trkpt><trkpt lat="44.7116383" lon="7.8317833"><ele>278.99999999999994</ele><time>2026-04-12T15:31:44.455Z</time></trkpt><trkpt lat="44.7117" lon="7.8317217"><ele>279.0</ele><time>2026-04-12T15:31:45.455Z</time></trkpt><trkpt lat="44.7117517" lon="7.83167"><ele>278.2</ele><time>2026-04-12T15:31:46.455Z</time></trkpt><trkpt lat="44.711805" lon="7.8316167"><ele>277.4</ele><time>2026-04-12T15:31:47.455Z</time></trkpt><trkpt lat="44.7119017" lon="7.831515"><ele>276.6</ele><time>2026-04-12T15:31:49.455Z</time></trkpt><trkpt lat="44.712" lon="7.831425"><ele>275.8</ele><time>2026-04-12T15:31:51.456Z</time></trkpt><trkpt lat="44.7120533" lon="7.8313767"><ele>275.0</ele><time>2026-04-12T15:31:52.455Z</time></trkpt><trkpt lat="44.7121583" lon="7.8312933"><ele>275.0</ele><time>2026-04-12T15:31:54.455Z</time></trkpt><trkpt lat="44.7122583" lon="7.8311933"><ele>275.0</ele><time>2026-04-12T15:31:56.455Z</time></trkpt><trkpt lat="44.712315" lon="7.831135"><ele>275.0</ele><time>2026-04-12T15:31:57.455Z</time></trkpt><trkpt lat="44.712365" lon="7.8310783"><ele>275.0</ele><time>2026-04-12T15:31:58.455Z</time></trkpt><trkpt lat="44.71242" lon="7.8310217"><ele>275.0</ele><time>2026-04-12T15:31:59.455Z</time></trkpt><trkpt lat="44.7124717" lon="7.830965"><ele>275.0</ele><time>2026-04-12T15:32:00.455Z</time></trkpt><trkpt lat="44.712525" lon="7.8309"><ele>275.0</ele><time>2026-04-12T15:32:01.455Z</time></trkpt><trkpt lat="44.7125867" lon="7.830845"><ele>275.0</ele><time>2026-04-12T15:32:02.455Z</time></trkpt><trkpt lat="44.7126467" lon="7.8307883"><ele>275.0</ele><time>2026-04-12T15:32:03.455Z</time></trkpt><trkpt lat="44.7127083" lon="7.83073"><ele>275.0</ele><time>2026-04-12T15:32:04.455Z</time></trkpt><trkpt lat="44.7127683" lon="7.8306683"><ele>275.0</ele><time>2026-04-12T15:32:05.455Z</time></trkpt><trkpt lat="44.7128267" lon="7.8305967"><ele>275.0</ele><time>2026-04-12T15:32:06.455Z</time></trkpt><trkpt lat="44.7128917" lon="7.83054"><ele>275.0</ele><time>2026-04-12T15:32:07.455Z</time></trkpt><trkpt lat="44.712955" lon="7.8304683"><ele>274.83333333333337</ele><time>2026-04-12T15:32:08.455Z</time></trkpt><trkpt lat="44.7130183" lon="7.830405"><ele>274.6666666666667</ele><time>2026-04-12T15:32:09.455Z</time></trkpt><trkpt lat="44.713075" lon="7.8303367"><ele>274.5</ele><time>2026-04-12T15:32:10.455Z</time></trkpt><trkpt lat="44.7131333" lon="7.83027"><ele>274.3333333333333</ele><time>2026-04-12T15:32:11.455Z</time></trkpt><trkpt lat="44.7131933" lon="7.830205"><ele>274.16666666666663</ele><time>2026-04-12T15:32:12.455Z</time></trkpt><trkpt lat="44.7132567" lon="7.830145"><ele>274.0</ele><time>2026-04-12T15:32:13.455Z</time></trkpt><trkpt lat="44.713315" lon="7.8300833"><ele>273.8571428571429</ele><time>2026-04-12T15:32:14.455Z</time></trkpt><trkpt lat="44.71337" lon="7.8300183"><ele>273.7142857142857</ele><time>2026-04-12T15:32:15.455Z</time></trkpt><trkpt lat="44.71343" lon="7.8299517"><ele>273.57142857142856</ele><time>2026-04-12T15:32:16.455Z</time></trkpt><trkpt lat="44.7134917" lon="7.8298867"><ele>273.42857142857144</ele><time>2026-04-12T15:32:17.455Z</time></trkpt><trkpt lat="44.7135533" lon="7.8298267"><ele>273.2857142857143</ele><time>2026-04-12T15:32:18.455Z</time></trkpt><trkpt lat="44.713615" lon="7.829765"><ele>273.14285714285717</ele><time>2026-04-12T15:32:19.455Z</time></trkpt><trkpt lat="44.7136733" lon="7.829715"><ele>273.0</ele><time>2026-04-12T15:32:20.455Z</time></trkpt><trkpt lat="44.7137367" lon="7.82966"><ele>273.57142857142856</ele><time>2026-04-12T15:32:21.455Z</time></trkpt><trkpt lat="44.7137967" lon="7.8296033"><ele>274.1428571428571</ele><time>2026-04-12T15:32:22.455Z</time></trkpt><trkpt lat="44.7138583" lon="7.8295517"><ele>274.7142857142857</ele><time>2026-04-12T15:32:23.455Z</time></trkpt><trkpt lat="44.71392" lon="7.8295"><ele>275.2857142857143</ele><time>2026-04-12T15:32:24.455Z</time></trkpt><trkpt lat="44.7139817" lon="7.82945"><ele>275.85714285714283</ele><time>2026-04-12T15:32:25.455Z</time></trkpt><trkpt lat="44.714045" lon="7.8294017"><ele>276.42857142857144</ele><time>2026-04-12T15:32:26.455Z</time></trkpt><trkpt lat="44.7141067" lon="7.8293583"><ele>277.0</ele><time>2026-04-12T15:32:27.455Z</time></trkpt><trkpt lat="44.7141683" lon="7.8293183"><ele>277.0</ele><time>2026-04-12T15:32:28.455Z</time></trkpt><trkpt lat="44.71423" lon="7.8292817"><ele>277.0</ele><time>2026-04-12T15:32:29.455Z</time></trkpt><trkpt lat="44.7142983" lon="7.8292483"><ele>277.0</ele><time>2026-04-12T15:32:30.455Z</time></trkpt><trkpt lat="44.7143633" lon="7.8292183"><ele>277.0</ele><time>2026-04-12T15:32:31.455Z</time></trkpt><trkpt lat="44.7144283" lon="7.8291833"><ele>277.0</ele><time>2026-04-12T15:32:32.455Z</time></trkpt><trkpt lat="44.7144917" lon="7.829135"><ele>277.0</ele><time>2026-04-12T15:32:33.455Z</time></trkpt><trkpt lat="44.7145517" lon="7.8290733"><ele>277.0</ele><time>2026-04-12T15:32:34.455Z</time></trkpt><trkpt lat="44.714615" lon="7.829005"><ele>276.5</ele><time>2026-04-12T15:32:35.455Z</time></trkpt><trkpt lat="44.7146767" lon="7.8289333"><ele>276.0</ele><time>2026-04-12T15:32:36.455Z</time></trkpt><trkpt lat="44.7147333" lon="7.8288617"><ele>275.5</ele><time>2026-04-12T15:32:37.455Z</time></trkpt><trkpt lat="44.71479" lon="7.828785"><ele>275.0</ele><time>2026-04-12T15:32:38.455Z</time></trkpt><trkpt lat="44.7148483" lon="7.8287183"><ele>274.5</ele><time>2026-04-12T15:32:39.456Z</time></trkpt><trkpt lat="44.714905" lon="7.8286383"><ele>274.0</ele><time>2026-04-12T15:32:40.455Z</time></trkpt><trkpt lat="44.71496" lon="7.82856"><ele>274.0</ele><time>2026-04-12T15:32:41.456Z</time></trkpt><trkpt lat="44.7150167" lon="7.8284867"><ele>274.0</ele><time>2026-04-12T15:32:42.455Z</time></trkpt><trkpt lat="44.715075" lon="7.8284183"><ele>274.0</ele><time>2026-04-12T15:32:43.455Z</time></trkpt><trkpt lat="44.715135" lon="7.82836"><ele>274.0</ele><time>2026-04-12T15:32:44.455Z</time></trkpt><trkpt lat="44.7151883" lon="7.82829"><ele>274.0</ele><time>2026-04-12T15:32:45.455Z</time></trkpt><trkpt lat="44.7152483" lon="7.8282283"><ele>274.0</ele><time>2026-04-12T15:32:46.455Z</time></trkpt><trkpt lat="44.715305" lon="7.828155"><ele>273.8333333333333</ele><time>2026-04-12T15:32:47.455Z</time></trkpt><trkpt lat="44.7153633" lon="7.8280933"><ele>273.66666666666663</ele><time>2026-04-12T15:32:48.456Z</time></trkpt><trkpt lat="44.7154233" lon="7.8280283"><ele>273.5</ele><time>2026-04-12T15:32:49.455Z</time></trkpt><trkpt lat="44.7154883" lon="7.8279617"><ele>273.3333333333333</ele><time>2026-04-12T15:32:50.455Z</time></trkpt><trkpt lat="44.7155517" lon="7.8278967"><ele>273.1666666666667</ele><time>2026-04-12T15:32:51.455Z</time></trkpt><trkpt lat="44.7156183" lon="7.82783"><ele>273.0</ele><time>2026-04-12T15:32:52.455Z</time></trkpt><trkpt lat="44.7156867" lon="7.8277683"><ele>273.0</ele><time>2026-04-12T15:32:53.455Z</time></trkpt><trkpt lat="44.71576" lon="7.8276983"><ele>273.0</ele><time>2026-04-12T15:32:54.455Z</time></trkpt><trkpt lat="44.71584" lon="7.8276267"><ele>273.0</ele><time>2026-04-12T15:32:55.456Z</time></trkpt><trkpt lat="44.715915" lon="7.82755"><ele>273.0</ele><time>2026-04-12T15:32:56.455Z</time></trkpt><trkpt lat="44.7159767" lon="7.8274883"><ele>273.0</ele><time>2026-04-12T15:32:57.455Z</time></trkpt><trkpt lat="44.7160367" lon="7.82742"><ele>273.0</ele><time>2026-04-12T15:32:58.455Z</time></trkpt><trkpt lat="44.7161017" lon="7.8273633"><ele>273.3333333333333</ele><time>2026-04-12T15:32:59.455Z</time></trkpt><trkpt lat="44.7161683" lon="7.8273083"><ele>273.6666666666667</ele><time>2026-04-12T15:33:00.455Z</time></trkpt><trkpt lat="44.7162267" lon="7.8272533"><ele>274.0</ele><time>2026-04-12T15:33:01.455Z</time></trkpt><trkpt lat="44.71628" lon="7.8271983"><ele>274.33333333333337</ele><time>2026-04-12T15:33:02.455Z</time></trkpt><trkpt lat="44.716335" lon="7.827145"><ele>274.6666666666667</ele><time>2026-04-12T15:33:03.455Z</time></trkpt><trkpt lat="44.71643" lon="7.82704"><ele>275.0</ele><time>2026-04-12T15:33:05.455Z</time></trkpt><trkpt lat="44.7165233" lon="7.8269467"><ele>275.0</ele><time>2026-04-12T15:33:07.455Z</time></trkpt><trkpt lat="44.71661" lon="7.8268667"><ele>275.0</ele><time>2026-04-12T15:33:09.455Z</time></trkpt><trkpt lat="44.7166917" lon="7.8267783"><ele>275.0</ele><time>2026-04-12T15:33:11.456Z</time></trkpt><trkpt lat="44.7167667" lon="7.8267067"><ele>275.0</ele><time>2026-04-12T15:33:13.455Z</time></trkpt><trkpt lat="44.716835" lon="7.8266233"><ele>275.0</ele><time>2026-04-12T15:33:15.455Z</time></trkpt><trkpt lat="44.71691" lon="7.8265183"><ele>275.4</ele><time>2026-04-12T15:33:17.455Z</time></trkpt><trkpt lat="44.716995" lon="7.8264267"><ele>275.8</ele><time>2026-04-12T15:33:19.455Z</time></trkpt><trkpt lat="44.7170833" lon="7.826325"><ele>276.2</ele><time>2026-04-12T15:33:21.455Z</time></trkpt><trkpt lat="44.7171667" lon="7.8262433"><ele>276.6</ele><time>2026-04-12T15:33:23.455Z</time></trkpt><trkpt lat="44.7172483" lon="7.8261483"><ele>277.0</ele><time>2026-04-12T15:33:25.455Z</time></trkpt><trkpt lat="44.7173333" lon="7.826045"><ele>276.8</ele><time>2026-04-12T15:33:27.455Z</time></trkpt><trkpt lat="44.71742" lon="7.825965"><ele>276.6</ele><time>2026-04-12T15:33:29.455Z</time></trkpt><trkpt lat="44.7174983" lon="7.8259017"><ele>276.40000000000003</ele><time>2026-04-12T15:33:31.455Z</time></trkpt><trkpt lat="44.7175867" lon="7.82581"><ele>276.2</ele><time>2026-04-12T15:33:33.455Z</time></trkpt><trkpt lat="44.7176517" lon="7.8257617"><ele>276.0</ele><time>2026-04-12T15:33:35.455Z</time></trkpt><trkpt lat="44.7177283" lon="7.8257483"><ele>276.40000000000003</ele><time>2026-04-12T15:33:41.455Z</time></trkpt><trkpt lat="44.7177983" lon="7.8257367"><ele>276.8</ele><time>2026-04-12T15:33:44.455Z</time></trkpt><trkpt lat="44.7178733" lon="7.8256833"><ele>277.20000000000005</ele><time>2026-04-12T15:33:46.455Z</time></trkpt><trkpt lat="44.717945" lon="7.8255817"><ele>277.6</ele><time>2026-04-12T15:33:48.455Z</time></trkpt><trkpt lat="44.71803" lon="7.8254967"><ele>278.0</ele><time>2026-04-12T15:33:50.455Z</time></trkpt><trkpt lat="44.7181183" lon="7.8254067"><ele>278.0</ele><time>2026-04-12T15:33:52.455Z</time></trkpt><trkpt lat="44.7181667" lon="7.8253483"><ele>278.0</ele><time>2026-04-12T15:33:53.455Z</time></trkpt><trkpt lat="44.7182167" lon="7.82529"><ele>278.0</ele><time>2026-04-12T15:33:54.456Z</time></trkpt><trkpt lat="44.7183133" lon="7.82519"><ele>278.0</ele><time>2026-04-12T15:33:56.455Z</time></trkpt><trkpt lat="44.718415" lon="7.8250917"><ele>278.0</ele><time>2026-04-12T15:33:58.455Z</time></trkpt><trkpt lat="44.7184683" lon="7.8250433"><ele>278.0</ele><time>2026-04-12T15:33:59.455Z</time></trkpt><trkpt lat="44.7185233" lon="7.8249917"><ele>277.85714285714283</ele><time>2026-04-12T15:34:00.455Z</time></trkpt><trkpt lat="44.7185783" lon="7.8249317"><ele>277.7142857142857</ele><time>2026-04-12T15:34:01.455Z</time></trkpt><trkpt lat="44.718635" lon="7.8248683"><ele>277.57142857142856</ele><time>2026-04-12T15:34:02.455Z</time></trkpt><trkpt lat="44.71869" lon="7.8248067"><ele>277.42857142857144</ele><time>2026-04-12T15:34:03.455Z</time></trkpt><trkpt lat="44.7187417" lon="7.82475"><ele>277.2857142857143</ele><time>2026-04-12T15:34:04.455Z</time></trkpt><trkpt lat="44.7187983" lon="7.8246933"><ele>277.1428571428571</ele><time>2026-04-12T15:34:05.455Z</time></trkpt><trkpt lat="44.7188517" lon="7.824635"><ele>277.0</ele><time>2026-04-12T15:34:06.455Z</time></trkpt><trkpt lat="44.7189" lon="7.824575"><ele>277.0</ele><time>2026-04-12T15:34:07.455Z</time></trkpt><trkpt lat="44.7189917" lon="7.8244683"><ele>277.0</ele><time>2026-04-12T15:34:09.456Z</time></trkpt><trkpt lat="44.71904" lon="7.824405"><ele>277.0</ele><time>2026-04-12T15:34:10.455Z</time></trkpt><trkpt lat="44.71909" lon="7.8243483"><ele>277.0</ele><time>2026-04-12T15:34:11.455Z</time></trkpt><trkpt lat="44.719145" lon="7.8242917"><ele>277.0</ele><time>2026-04-12T15:34:12.455Z</time></trkpt><trkpt lat="44.719195" lon="7.824235"><ele>277.0</ele><time>2026-04-12T15:34:13.455Z</time></trkpt><trkpt lat="44.7192917" lon="7.8241267"><ele>277.2</ele><time>2026-04-12T15:34:15.455Z</time></trkpt><trkpt lat="44.7193883" lon="7.8240133"><ele>277.4</ele><time>2026-04-12T15:34:17.455Z</time></trkpt><trkpt lat="44.7194383" lon="7.8239583"><ele>277.6</ele><time>2026-04-12T15:34:18.455Z</time></trkpt><trkpt lat="44.7195333" lon="7.8238583"><ele>277.8</ele><time>2026-04-12T15:34:20.455Z</time></trkpt><trkpt lat="44.7196283" lon="7.8237583"><ele>278.0</ele><time>2026-04-12T15:34:22.455Z</time></trkpt><trkpt lat="44.719725" lon="7.8236733"><ele>278.0</ele><time>2026-04-12T15:34:24.455Z</time></trkpt><trkpt lat="44.7198217" lon="7.8235783"><ele>278.0</ele><time>2026-04-12T15:34:26.455Z</time></trkpt><trkpt lat="44.7199133" lon="7.8234667"><ele>278.0</ele><time>2026-04-12T15:34:28.455Z</time></trkpt><trkpt lat="44.7200117" lon="7.823365"><ele>278.0</ele><time>2026-04-12T15:34:30.455Z</time></trkpt><trkpt lat="44.7200633" lon="7.82331"><ele>278.0</ele><time>2026-04-12T15:34:31.455Z</time></trkpt><trkpt lat="44.72016" lon="7.8232033"><ele>277.8</ele><time>2026-04-12T15:34:33.455Z</time></trkpt><trkpt lat="44.7202533" lon="7.823115"><ele>277.6</ele><time>2026-04-12T15:34:35.455Z</time></trkpt><trkpt lat="44.7203067" lon="7.8230667"><ele>277.4</ele><time>2026-04-12T15:34:36.455Z</time></trkpt><trkpt lat="44.7204067" lon="7.82296"><ele>277.2</ele><time>2026-04-12T15:34:38.455Z</time></trkpt><trkpt lat="44.72051" lon="7.8228583"><ele>277.0</ele><time>2026-04-12T15:34:40.456Z</time></trkpt><trkpt lat="44.7205617" lon="7.8228067"><ele>277.0</ele><time>2026-04-12T15:34:41.455Z</time></trkpt><trkpt lat="44.720665" lon="7.8227183"><ele>277.0</ele><time>2026-04-12T15:34:43.455Z</time></trkpt><trkpt lat="44.72072" lon="7.82267"><ele>277.0</ele><time>2026-04-12T15:34:44.455Z</time></trkpt><trkpt lat="44.72082" lon="7.8225883"><ele>277.0</ele><time>2026-04-12T15:34:46.455Z</time></trkpt><trkpt lat="44.7209117" lon="7.8224983"><ele>277.0</ele><time>2026-04-12T15:34:48.455Z</time></trkpt><trkpt lat="44.7210067" lon="7.822415"><ele>276.66666666666663</ele><time>2026-04-12T15:34:50.455Z</time></trkpt><trkpt lat="44.7210967" lon="7.822315"><ele>276.3333333333333</ele><time>2026-04-12T15:34:52.455Z</time></trkpt><trkpt lat="44.7211517" lon="7.8222667"><ele>276.0</ele><time>2026-04-12T15:34:53.455Z</time></trkpt><trkpt lat="44.721215" lon="7.82222"><ele>275.6666666666667</ele><time>2026-04-12T15:34:54.455Z</time></trkpt><trkpt lat="44.7212783" lon="7.8221717"><ele>275.33333333333337</ele><time>2026-04-12T15:34:55.455Z</time></trkpt><trkpt lat="44.72134" lon="7.8221217"><ele>275.0</ele><time>2026-04-12T15:34:56.455Z</time></trkpt><trkpt lat="44.7213967" lon="7.82207"><ele>275.0</ele><time>2026-04-12T15:34:57.455Z</time></trkpt><trkpt lat="44.7214517" lon="7.8220233"><ele>275.0</ele><time>2026-04-12T15:34:58.455Z</time></trkpt><trkpt lat="44.721515" lon="7.8219817"><ele>275.0</ele><time>2026-04-12T15:34:59.455Z</time></trkpt><trkpt lat="44.721575" lon="7.8219317"><ele>275.0</ele><time>2026-04-12T15:35:00.455Z</time></trkpt><trkpt lat="44.72163" lon="7.8218883"><ele>275.0</ele><time>2026-04-12T15:35:01.455Z</time></trkpt><trkpt lat="44.72168" lon="7.8218317"><ele>275.0</ele><time>2026-04-12T15:35:02.455Z</time></trkpt><trkpt lat="44.7217367" lon="7.821775"><ele>275.0</ele><time>2026-04-12T15:35:03.455Z</time></trkpt><trkpt lat="44.7217933" lon="7.8217167"><ele>274.8571428571429</ele><time>2026-04-12T15:35:04.455Z</time></trkpt><trkpt lat="44.7218533" lon="7.8216583"><ele>274.7142857142857</ele><time>2026-04-12T15:35:05.455Z</time></trkpt><trkpt lat="44.7219117" lon="7.8215967"><ele>274.57142857142856</ele><time>2026-04-12T15:35:06.455Z</time></trkpt><trkpt lat="44.721965" lon="7.8215417"><ele>274.42857142857144</ele><time>2026-04-12T15:35:07.455Z</time></trkpt><trkpt lat="44.72202" lon="7.821485"><ele>274.2857142857143</ele><time>2026-04-12T15:35:08.455Z</time></trkpt><trkpt lat="44.722075" lon="7.8214267"><ele>274.14285714285717</ele><time>2026-04-12T15:35:09.455Z</time></trkpt><trkpt lat="44.7221317" lon="7.8213683"><ele>274.0</ele><time>2026-04-12T15:35:10.455Z</time></trkpt><trkpt lat="44.7221883" lon="7.8213117"><ele>274.00000000000006</ele><time>2026-04-12T15:35:11.455Z</time></trkpt><trkpt lat="44.7222433" lon="7.8212533"><ele>274.0</ele><time>2026-04-12T15:35:12.455Z</time></trkpt><trkpt lat="44.7222967" lon="7.8211933"><ele>274.0</ele><time>2026-04-12T15:35:13.455Z</time></trkpt><trkpt lat="44.7223483" lon="7.8211333"><ele>274.0</ele><time>2026-04-12T15:35:14.455Z</time></trkpt><trkpt lat="44.7224" lon="7.8210733"><ele>274.0</ele><time>2026-04-12T15:35:15.455Z</time></trkpt><trkpt lat="44.72245" lon="7.82101"><ele>274.00000000000006</ele><time>2026-04-12T15:35:16.455Z</time></trkpt><trkpt lat="44.7225017" lon="7.8209483"><ele>274.0</ele><time>2026-04-12T15:35:17.455Z</time></trkpt><trkpt lat="44.722555" lon="7.8208917"><ele>274.0</ele><time>2026-04-12T15:35:18.455Z</time></trkpt><trkpt lat="44.722655" lon="7.820775"><ele>274.0</ele><time>2026-04-12T15:35:20.455Z</time></trkpt><trkpt lat="44.7227117" lon="7.8207183"><ele>274.0</ele><time>2026-04-12T15:35:21.456Z</time></trkpt><trkpt lat="44.7227717" lon="7.8206583"><ele>274.0</ele><time>2026-04-12T15:35:22.455Z</time></trkpt><trkpt lat="44.722825" lon="7.8205983"><ele>274.0</ele><time>2026-04-12T15:35:23.455Z</time></trkpt><trkpt lat="44.7228833" lon="7.8205367"><ele>274.0</ele><time>2026-04-12T15:35:24.455Z</time></trkpt><trkpt lat="44.722945" lon="7.820475"><ele>274.00000000000006</ele><time>2026-04-12T15:35:25.455Z</time></trkpt><trkpt lat="44.7230017" lon="7.8204117"><ele>274.0</ele><time>2026-04-12T15:35:26.455Z</time></trkpt><trkpt lat="44.7230517" lon="7.82034"><ele>274.0</ele><time>2026-04-12T15:35:27.455Z</time></trkpt><trkpt lat="44.723105" lon="7.8202683"><ele>274.0</ele><time>2026-04-12T15:35:28.455Z</time></trkpt><trkpt lat="44.7231617" lon="7.8202167"><ele>274.0</ele><time>2026-04-12T15:35:29.456Z</time></trkpt><trkpt lat="44.7232183" lon="7.8201667"><ele>274.00000000000006</ele><time>2026-04-12T15:35:30.455Z</time></trkpt><trkpt lat="44.7232717" lon="7.8201117"><ele>274.0</ele><time>2026-04-12T15:35:31.455Z</time></trkpt><trkpt lat="44.72332" lon="7.8200533"><ele>273.8571428571429</ele><time>2026-04-12T15:35:32.455Z</time></trkpt><trkpt lat="44.72337" lon="7.8199933"><ele>273.7142857142857</ele><time>2026-04-12T15:35:33.455Z</time></trkpt><trkpt lat="44.7234183" lon="7.8199233"><ele>273.57142857142856</ele><time>2026-04-12T15:35:34.455Z</time></trkpt><trkpt lat="44.7234683" lon="7.81986"><ele>273.42857142857144</ele><time>2026-04-12T15:35:35.455Z</time></trkpt><trkpt lat="44.7235233" lon="7.81981"><ele>273.2857142857143</ele><time>2026-04-12T15:35:36.455Z</time></trkpt><trkpt lat="44.7235767" lon="7.8197533"><ele>273.14285714285717</ele><time>2026-04-12T15:35:37.455Z</time></trkpt><trkpt lat="44.7236367" lon="7.8196983"><ele>273.0</ele><time>2026-04-12T15:35:38.455Z</time></trkpt><trkpt lat="44.7236933" lon="7.8196417"><ele>273.0</ele><time>2026-04-12T15:35:39.455Z</time></trkpt><trkpt lat="44.72375" lon="7.8195833"><ele>273.0</ele><time>2026-04-12T15:35:40.456Z</time></trkpt><trkpt lat="44.723805" lon="7.8195283"><ele>273.0</ele><time>2026-04-12T15:35:41.455Z</time></trkpt><trkpt lat="44.723865" lon="7.8194767"><ele>273.0</ele><time>2026-04-12T15:35:42.455Z</time></trkpt><trkpt lat="44.7239233" lon="7.819425"><ele>273.0</ele><time>2026-04-12T15:35:43.455Z</time></trkpt><trkpt lat="44.723985" lon="7.8193767"><ele>273.0</ele><time>2026-04-12T15:35:44.455Z</time></trkpt><trkpt lat="44.7240417" lon="7.8193233"><ele>273.0</ele><time>2026-04-12T15:35:45.455Z</time></trkpt><trkpt lat="44.724095" lon="7.8192683"><ele>273.0</ele><time>2026-04-12T15:35:46.455Z</time></trkpt><trkpt lat="44.7241483" lon="7.8192183"><ele>273.0</ele><time>2026-04-12T15:35:47.455Z</time></trkpt><trkpt lat="44.7242033" lon="7.81916"><ele>273.0</ele><time>2026-04-12T15:35:48.455Z</time></trkpt><trkpt lat="44.7242567" lon="7.8191017"><ele>273.0</ele><time>2026-04-12T15:35:49.455Z</time></trkpt><trkpt lat="44.7243133" lon="7.8190483"><ele>273.0</ele><time>2026-04-12T15:35:50.455Z</time></trkpt><trkpt lat="44.7243683" lon="7.8189983"><ele>273.0</ele><time>2026-04-12T15:35:51.455Z</time></trkpt><trkpt lat="44.72442" lon="7.8189383"><ele>273.0</ele><time>2026-04-12T15:35:52.455Z</time></trkpt><trkpt lat="44.7244683" lon="7.8188767"><ele>273.0</ele><time>2026-04-12T15:35:53.455Z</time></trkpt><trkpt lat="44.7245233" lon="7.8188217"><ele>273.0</ele><time>2026-04-12T15:35:54.455Z</time></trkpt><trkpt lat="44.7245783" lon="7.818765"><ele>273.0</ele><time>2026-04-12T15:35:55.455Z</time></trkpt><trkpt lat="44.7246367" lon="7.8187117"><ele>273.0</ele><time>2026-04-12T15:35:56.455Z</time></trkpt><trkpt lat="44.7246883" lon="7.8186583"><ele>273.0</ele><time>2026-04-12T15:35:57.455Z</time></trkpt><trkpt lat="44.7247417" lon="7.81861"><ele>273.0</ele><time>2026-04-12T15:35:58.455Z</time></trkpt><trkpt lat="44.72484" lon="7.8185133"><ele>272.8</ele><time>2026-04-12T15:36:00.455Z</time></trkpt><trkpt lat="44.7248933" lon="7.8184567"><ele>272.6</ele><time>2026-04-12T15:36:01.455Z</time></trkpt><trkpt lat="44.7249917" lon="7.818355"><ele>272.4</ele><time>2026-04-12T15:36:03.455Z</time></trkpt><trkpt lat="44.7250483" lon="7.81831"><ele>272.2</ele><time>2026-04-12T15:36:04.455Z</time></trkpt><trkpt lat="44.72515" lon="7.8182217"><ele>272.0</ele><time>2026-04-12T15:36:06.455Z</time></trkpt><trkpt lat="44.7252467" lon="7.8181217"><ele>272.6</ele><time>2026-04-12T15:36:08.455Z</time></trkpt><trkpt lat="44.72533" lon="7.8180417"><ele>273.2</ele><time>2026-04-12T15:36:10.455Z</time></trkpt><trkpt lat="44.7254217" lon="7.81794"><ele>273.8</ele><time>2026-04-12T15:36:12.455Z</time></trkpt><trkpt lat="44.7255117" lon="7.81784"><ele>274.4</ele><time>2026-04-12T15:36:14.455Z</time></trkpt><trkpt lat="44.7256" lon="7.8177517"><ele>275.0</ele><time>2026-04-12T15:36:16.455Z</time></trkpt><trkpt lat="44.7256767" lon="7.8176817"><ele>275.0</ele><time>2026-04-12T15:36:18.455Z</time></trkpt><trkpt lat="44.7258117" lon="7.817735"><ele>275.0</ele><time>2026-04-12T15:36:21.455Z</time></trkpt><trkpt lat="44.725875" lon="7.817865"><ele>275.0</ele><time>2026-04-12T15:36:23.455Z</time></trkpt><trkpt lat="44.7259367" lon="7.8179933"><ele>275.0</ele><time>2026-04-12T15:36:25.455Z</time></trkpt><trkpt lat="44.726005" lon="7.8181217"><ele>274.8</ele><time>2026-04-12T15:36:27.455Z</time></trkpt><trkpt lat="44.7260633" lon="7.81825"><ele>274.6</ele><time>2026-04-12T15:36:29.456Z</time></trkpt><trkpt lat="44.726125" lon="7.8183833"><ele>274.4</ele><time>2026-04-12T15:36:31.455Z</time></trkpt><trkpt lat="44.7261967" lon="7.8184933"><ele>274.2</ele><time>2026-04-12T15:36:33.455Z</time></trkpt><trkpt lat="44.7262733" lon="7.8185833"><ele>274.0</ele><time>2026-04-12T15:36:35.456Z</time></trkpt><trkpt lat="44.7263267" lon="7.8186883"><ele>274.5</ele><time>2026-04-12T15:36:37.455Z</time></trkpt><trkpt lat="44.7263833" lon="7.81879"><ele>275.0</ele><time>2026-04-12T15:36:39.455Z</time></trkpt><trkpt lat="44.7264367" lon="7.8188833"><ele>275.5</ele><time>2026-04-12T15:36:41.455Z</time></trkpt><trkpt lat="44.7264917" lon="7.818965"><ele>276.0</ele><time>2026-04-12T15:36:43.455Z</time></trkpt><trkpt lat="44.7265367" lon="7.8190383"><ele>276.5</ele><time>2026-04-12T15:36:45.455Z</time></trkpt><trkpt lat="44.7265817" lon="7.819125"><ele>277.0</ele><time>2026-04-12T15:36:48.455Z</time></trkpt><trkpt lat="44.7266233" lon="7.8192267"><ele>277.0</ele><time>2026-04-12T15:37:05.455Z</time></trkpt><trkpt lat="44.72669" lon="7.819305"><ele>277.0</ele><time>2026-04-12T15:37:08.455Z</time></trkpt><trkpt lat="44.7267383" lon="7.8193633"><ele>277.0</ele><time>2026-04-12T15:37:10.456Z</time></trkpt><trkpt lat="44.7267867" lon="7.8194367"><ele>277.0</ele><time>2026-04-12T15:37:12.455Z</time></trkpt><trkpt lat="44.726845" lon="7.81952"><ele>277.0</ele><time>2026-04-12T15:37:14.455Z</time></trkpt><trkpt lat="44.7269117" lon="7.819615"><ele>277.0</ele><time>2026-04-12T15:37:16.455Z</time></trkpt><trkpt lat="44.7269617" lon="7.8197167"><ele>277.8333333333333</ele><time>2026-04-12T15:37:18.455Z</time></trkpt><trkpt lat="44.7270217" lon="7.8198083"><ele>278.66666666666663</ele><time>2026-04-12T15:37:20.455Z</time></trkpt><trkpt lat="44.727075" lon="7.819905"><ele>279.5</ele><time>2026-04-12T15:37:22.455Z</time></trkpt><trkpt lat="44.7271317" lon="7.8200033"><ele>280.3333333333333</ele><time>2026-04-12T15:37:24.455Z</time></trkpt><trkpt lat="44.7271783" lon="7.8201017"><ele>281.1666666666667</ele><time>2026-04-12T15:37:26.455Z</time></trkpt><trkpt lat="44.7272283" lon="7.8201917"><ele>282.0</ele><time>2026-04-12T15:37:28.455Z</time></trkpt><trkpt lat="44.7272917" lon="7.82024"><ele>282.0</ele><time>2026-04-12T15:37:30.455Z</time></trkpt><trkpt lat="44.72736" lon="7.8202217"><ele>282.0</ele><time>2026-04-12T15:37:32.455Z</time></trkpt><trkpt lat="44.72744" lon="7.820165"><ele>282.0</ele><time>2026-04-12T15:37:34.455Z</time></trkpt><trkpt lat="44.72751" lon="7.8200967"><ele>282.0</ele><time>2026-04-12T15:37:36.455Z</time></trkpt><trkpt lat="44.7275783" lon="7.8200333"><ele>282.0</ele><time>2026-04-12T15:37:38.455Z</time></trkpt><trkpt lat="44.7276367" lon="7.8199883"><ele>282.0</ele><time>2026-04-12T15:37:40.455Z</time></trkpt><trkpt lat="44.7276917" lon="7.8199383"><ele>283.8333333333333</ele><time>2026-04-12T15:37:42.455Z</time></trkpt><trkpt lat="44.7277533" lon="7.8198967"><ele>285.6666666666667</ele><time>2026-04-12T15:37:44.455Z</time></trkpt><trkpt lat="44.7278417" lon="7.8198583"><ele>287.5</ele><time>2026-04-12T15:37:47.455Z</time></trkpt><trkpt lat="44.727935" lon="7.8198717"><ele>289.33333333333337</ele><time>2026-04-12T15:37:50.456Z</time></trkpt><trkpt lat="44.7280017" lon="7.8198733"><ele>291.1666666666667</ele><time>2026-04-12T15:37:52.455Z</time></trkpt><trkpt lat="44.7280883" lon="7.8198983"><ele>293.0</ele><time>2026-04-12T15:37:55.455Z</time></trkpt><trkpt lat="44.7281717" lon="7.8199133"><ele>292.99999999999994</ele><time>2026-04-12T15:37:58.455Z</time></trkpt><trkpt lat="44.7282483" lon="7.819935"><ele>293.0</ele><time>2026-04-12T15:38:01.455Z</time></trkpt><trkpt lat="44.7283183" lon="7.8199567"><ele>293.0</ele><time>2026-04-12T15:38:04.455Z</time></trkpt><trkpt lat="44.7283933" lon="7.8199767"><ele>293.0</ele><time>2026-04-12T15:38:07.455Z</time></trkpt><trkpt lat="44.7284633" lon="7.8199883"><ele>293.0</ele><time>2026-04-12T15:38:10.456Z</time></trkpt><trkpt lat="44.72853" lon="7.8199983"><ele>292.99999999999994</ele><time>2026-04-12T15:38:13.456Z</time></trkpt><trkpt lat="44.7286029" lon="7.8200056"><ele>293.0</ele><time>2026-04-12T15:38:17.472Z</time></trkpt><trkpt lat="44.728687" lon="7.8200393"><ele>293.99999999999994</ele><time>2026-04-12T15:38:21.455Z</time></trkpt><trkpt lat="44.7287567" lon="7.8200749"><ele>295.0</ele><time>2026-04-12T15:38:24.535Z</time></trkpt><trkpt lat="44.728828" lon="7.820102"><ele>296.0</ele><time>2026-04-12T15:38:27.316Z</time></trkpt><trkpt lat="44.7289022" lon="7.8201285"><ele>297.0</ele><time>2026-04-12T15:38:31.061Z</time></trkpt><trkpt lat="44.728975" lon="7.8201662"><ele>298.0</ele><time>2026-04-12T15:38:35.472Z</time></trkpt><trkpt lat="44.7290267" lon="7.8202467"><ele>298.99999999999994</ele><time>2026-04-12T15:38:38.455Z</time></trkpt><trkpt lat="44.729025" lon="7.8203433"><ele>300.0</ele><time>2026-04-12T15:38:41.455Z</time></trkpt><trkpt lat="44.729005" lon="7.820435"><ele>303.0</ele><time>2026-04-12T15:38:44.455Z</time></trkpt><trkpt lat="44.72896" lon="7.8205183"><ele>306.0</ele><time>2026-04-12T15:38:47.456Z</time></trkpt><trkpt lat="44.7289133" lon="7.8206167"><ele>309.0</ele><time>2026-04-12T15:38:51.455Z</time></trkpt><trkpt lat="44.72888" lon="7.8207183"><ele>312.0</ele><time>2026-04-12T15:38:55.455Z</time></trkpt><trkpt lat="44.7288367" lon="7.8208133"><ele>315.0</ele><time>2026-04-12T15:38:59.455Z</time></trkpt><trkpt lat="44.7287917" lon="7.8208867"><ele>318.0</ele><time>2026-04-12T15:39:03.455Z</time></trkpt><trkpt lat="44.7287283" lon="7.820945"><ele>317.6666666666667</ele><time>2026-04-12T15:39:06.455Z</time></trkpt><trkpt lat="44.7286683" lon="7.8210283"><ele>317.3333333333333</ele><time>2026-04-12T15:39:09.455Z</time></trkpt><trkpt lat="44.72861" lon="7.8210983"><ele>317.0</ele><time>2026-04-12T15:39:12.455Z</time></trkpt><trkpt lat="44.7285283" lon="7.8211567"><ele>316.66666666666663</ele><time>2026-04-12T15:39:15.455Z</time></trkpt><trkpt lat="44.7284567" lon="7.8212217"><ele>316.3333333333333</ele><time>2026-04-12T15:39:18.455Z</time></trkpt><trkpt lat="44.7283717" lon="7.8212633"><ele>316.0</ele><time>2026-04-12T15:39:21.455Z</time></trkpt><trkpt lat="44.7282967" lon="7.8213167"><ele>316.0</ele><time>2026-04-12T15:39:24.455Z</time></trkpt><trkpt lat="44.7282267" lon="7.8213533"><ele>316.0</ele><time>2026-04-12T15:39:27.455Z</time></trkpt><trkpt lat="44.728135" lon="7.8213783"><ele>316.0</ele><time>2026-04-12T15:39:30.456Z</time></trkpt><trkpt lat="44.7280667" lon="7.82138"><ele>316.0</ele><time>2026-04-12T15:39:32.455Z</time></trkpt><trkpt lat="44.72799" lon="7.8213883"><ele>316.0</ele><time>2026-04-12T15:39:35.455Z</time></trkpt><trkpt lat="44.7279167" lon="7.8214283"><ele>316.0</ele><time>2026-04-12T15:39:38.455Z</time></trkpt><trkpt lat="44.72784" lon="7.8214683"><ele>316.0</ele><time>2026-04-12T15:39:41.455Z</time></trkpt><trkpt lat="44.7277533" lon="7.8215117"><ele>316.0</ele><time>2026-04-12T15:39:44.455Z</time></trkpt><trkpt lat="44.7276917" lon="7.8216017"><ele>316.0</ele><time>2026-04-12T15:39:47.455Z</time></trkpt><trkpt lat="44.727665" lon="7.8216833"><ele>316.0</ele><time>2026-04-12T15:39:50.455Z</time></trkpt><trkpt lat="44.727675" lon="7.8217717"><ele>316.0</ele><time>2026-04-12T15:39:53.455Z</time></trkpt><trkpt lat="44.7277383" lon="7.8218683"><ele>316.0</ele><time>2026-04-12T15:39:57.455Z</time></trkpt><trkpt lat="44.72778" lon="7.8219617"><ele>316.0</ele><time>2026-04-12T15:40:00.456Z</time></trkpt><trkpt lat="44.7278117" lon="7.8220383"><ele>316.0</ele><time>2026-04-12T15:40:03.455Z</time></trkpt><trkpt lat="44.7278" lon="7.82194"><ele>316.0</ele><time>2026-04-12T15:41:35.456Z</time></trkpt><trkpt lat="44.7277967" lon="7.8220917"><ele>316.0</ele><time>2026-04-12T15:45:00.456Z</time></trkpt><trkpt lat="44.7278553" lon="7.8220482"><ele>316.0</ele><time>2026-04-12T15:45:51.456Z</time></trkpt><trkpt lat="44.7278852" lon="7.8219579"><ele>316.0</ele><time>2026-04-12T15:45:58.456Z</time></trkpt><trkpt lat="44.7278584" lon="7.821788"><ele>316.0</ele><time>2026-04-12T15:48:25.494Z</time></trkpt><trkpt lat="44.7278108" lon="7.8217277"><ele>316.0</ele><time>2026-04-12T15:48:31.459Z</time></trkpt><trkpt lat="44.7278598" lon="7.8216717"><ele>316.0</ele><time>2026-04-12T15:48:42.456Z</time></trkpt></trkseg></trk></gpx>